<?xml version="1.0" encoding="UTF-8" standalone="no" ?>
<gpx xmlns="http://www.topografix.com/GPX/1/1" xmlns:xsi="http://www.w3.org/2001/XMLSchema-instance" xsi:schemaLocation="http://www.topografix.com/GPX/1/1 http://www.topografix.com/GPX/1/1/gpx.xsd" version="1.1" creator="VisuGPX - https://www.visugpx.com">
  <metadata>
    <name>Activité matinale</name>
  </metadata>
  <trk>
    <name><![CDATA[Activité matinale]]></name>
    <trkseg>
      <trkpt lat="45.1868" lon="5.90015">
        <ele>1151.7</ele>
        <time>2021-02-20T07:52:33Z</time>
      </trkpt>
      <trkpt lat="45.18681" lon="5.90015">
        <ele>1151.8</ele>
        <time>2021-02-20T07:52:34Z</time>
      </trkpt>
      <trkpt lat="45.18681" lon="5.90016">
        <ele>1151.8</ele>
        <time>2021-02-20T07:52:35Z</time>
      </trkpt>
      <trkpt lat="45.18682" lon="5.90017">
        <ele>1151.9</ele>
        <time>2021-02-20T07:52:36Z</time>
      </trkpt>
      <trkpt lat="45.18682" lon="5.90018">
        <ele>1152</ele>
        <time>2021-02-20T07:52:37Z</time>
      </trkpt>
      <trkpt lat="45.18682" lon="5.90021">
        <ele>1152.2</ele>
        <time>2021-02-20T07:52:38Z</time>
      </trkpt>
      <trkpt lat="45.18681" lon="5.90022">
        <ele>1152.3</ele>
        <time>2021-02-20T07:52:39Z</time>
      </trkpt>
      <trkpt lat="45.1868" lon="5.90023">
        <ele>1152.4</ele>
        <time>2021-02-20T07:52:40Z</time>
      </trkpt>
      <trkpt lat="45.18679" lon="5.90024">
        <ele>1152.5</ele>
        <time>2021-02-20T07:52:41Z</time>
      </trkpt>
      <trkpt lat="45.18678" lon="5.90025">
        <ele>1152.6</ele>
        <time>2021-02-20T07:52:42Z</time>
      </trkpt>
      <trkpt lat="45.18676" lon="5.90027">
        <ele>1152.8</ele>
        <time>2021-02-20T07:52:43Z</time>
      </trkpt>
      <trkpt lat="45.18676" lon="5.90028">
        <ele>1152.9</ele>
        <time>2021-02-20T07:52:44Z</time>
      </trkpt>
      <trkpt lat="45.18675" lon="5.90029">
        <ele>1153</ele>
        <time>2021-02-20T07:52:45Z</time>
      </trkpt>
      <trkpt lat="45.18674" lon="5.9003">
        <ele>1153.1</ele>
        <time>2021-02-20T07:52:46Z</time>
      </trkpt>
      <trkpt lat="45.18673" lon="5.90031">
        <ele>1153.3</ele>
        <time>2021-02-20T07:52:47Z</time>
      </trkpt>
      <trkpt lat="45.1867" lon="5.90032">
        <ele>1153.5</ele>
        <time>2021-02-20T07:52:48Z</time>
      </trkpt>
      <trkpt lat="45.18669" lon="5.90032">
        <ele>1153.6</ele>
        <time>2021-02-20T07:52:49Z</time>
      </trkpt>
      <trkpt lat="45.18669" lon="5.90032">
        <ele>1153.6</ele>
        <time>2021-02-20T07:52:50Z</time>
      </trkpt>
      <trkpt lat="45.18669" lon="5.90032">
        <ele>1153.6</ele>
        <time>2021-02-20T07:52:51Z</time>
      </trkpt>
      <trkpt lat="45.18667" lon="5.90032">
        <ele>1153.8</ele>
        <time>2021-02-20T07:52:52Z</time>
      </trkpt>
      <trkpt lat="45.18666" lon="5.90033">
        <ele>1153.9</ele>
        <time>2021-02-20T07:52:53Z</time>
      </trkpt>
      <trkpt lat="45.18665" lon="5.90033">
        <ele>1153.9</ele>
        <time>2021-02-20T07:52:54Z</time>
      </trkpt>
      <trkpt lat="45.18664" lon="5.90034">
        <ele>1154</ele>
        <time>2021-02-20T07:52:55Z</time>
      </trkpt>
      <trkpt lat="45.18664" lon="5.90035">
        <ele>1154.1</ele>
        <time>2021-02-20T07:52:56Z</time>
      </trkpt>
      <trkpt lat="45.18663" lon="5.90035">
        <ele>1154.1</ele>
        <time>2021-02-20T07:52:57Z</time>
      </trkpt>
      <trkpt lat="45.18662" lon="5.90036">
        <ele>1154.2</ele>
        <time>2021-02-20T07:52:58Z</time>
      </trkpt>
      <trkpt lat="45.18662" lon="5.90036">
        <ele>1154.3</ele>
        <time>2021-02-20T07:52:59Z</time>
      </trkpt>
      <trkpt lat="45.18661" lon="5.90037">
        <ele>1154.3</ele>
        <time>2021-02-20T07:53:00Z</time>
      </trkpt>
      <trkpt lat="45.1866" lon="5.90039">
        <ele>1154.4</ele>
        <time>2021-02-20T07:53:01Z</time>
      </trkpt>
      <trkpt lat="45.1866" lon="5.90039">
        <ele>1154.5</ele>
        <time>2021-02-20T07:53:02Z</time>
      </trkpt>
      <trkpt lat="45.18659" lon="5.90041">
        <ele>1154.6</ele>
        <time>2021-02-20T07:53:03Z</time>
      </trkpt>
      <trkpt lat="45.18658" lon="5.90042">
        <ele>1154.6</ele>
        <time>2021-02-20T07:53:04Z</time>
      </trkpt>
      <trkpt lat="45.18657" lon="5.90043">
        <ele>1154.7</ele>
        <time>2021-02-20T07:53:05Z</time>
      </trkpt>
      <trkpt lat="45.18657" lon="5.90044">
        <ele>1154.8</ele>
        <time>2021-02-20T07:53:06Z</time>
      </trkpt>
      <trkpt lat="45.18656" lon="5.90046">
        <ele>1154.8</ele>
        <time>2021-02-20T07:53:07Z</time>
      </trkpt>
      <trkpt lat="45.18655" lon="5.90048">
        <ele>1154.9</ele>
        <time>2021-02-20T07:53:08Z</time>
      </trkpt>
      <trkpt lat="45.18654" lon="5.9005">
        <ele>1155</ele>
        <time>2021-02-20T07:53:09Z</time>
      </trkpt>
      <trkpt lat="45.18653" lon="5.90052">
        <ele>1155.1</ele>
        <time>2021-02-20T07:53:10Z</time>
      </trkpt>
      <trkpt lat="45.18653" lon="5.90053">
        <ele>1155.1</ele>
        <time>2021-02-20T07:53:11Z</time>
      </trkpt>
      <trkpt lat="45.18652" lon="5.90054">
        <ele>1155.1</ele>
        <time>2021-02-20T07:53:12Z</time>
      </trkpt>
      <trkpt lat="45.18651" lon="5.90055">
        <ele>1155.1</ele>
        <time>2021-02-20T07:53:13Z</time>
      </trkpt>
      <trkpt lat="45.18651" lon="5.90056">
        <ele>1155.2</ele>
        <time>2021-02-20T07:53:14Z</time>
      </trkpt>
      <trkpt lat="45.1865" lon="5.90057">
        <ele>1155.2</ele>
        <time>2021-02-20T07:53:15Z</time>
      </trkpt>
      <trkpt lat="45.1865" lon="5.90059">
        <ele>1155.2</ele>
        <time>2021-02-20T07:53:16Z</time>
      </trkpt>
      <trkpt lat="45.18649" lon="5.9006">
        <ele>1155.3</ele>
        <time>2021-02-20T07:53:17Z</time>
      </trkpt>
      <trkpt lat="45.18647" lon="5.90061">
        <ele>1155.3</ele>
        <time>2021-02-20T07:53:18Z</time>
      </trkpt>
      <trkpt lat="45.18646" lon="5.90061">
        <ele>1155.3</ele>
        <time>2021-02-20T07:53:19Z</time>
      </trkpt>
      <trkpt lat="45.18644" lon="5.90061">
        <ele>1155.3</ele>
        <time>2021-02-20T07:53:20Z</time>
      </trkpt>
      <trkpt lat="45.18643" lon="5.90062">
        <ele>1155.3</ele>
        <time>2021-02-20T07:53:21Z</time>
      </trkpt>
      <trkpt lat="45.18643" lon="5.90062">
        <ele>1155.4</ele>
        <time>2021-02-20T07:53:22Z</time>
      </trkpt>
      <trkpt lat="45.18642" lon="5.90063">
        <ele>1155.4</ele>
        <time>2021-02-20T07:53:23Z</time>
      </trkpt>
      <trkpt lat="45.18641" lon="5.90065">
        <ele>1155.4</ele>
        <time>2021-02-20T07:53:24Z</time>
      </trkpt>
      <trkpt lat="45.1864" lon="5.90066">
        <ele>1155.4</ele>
        <time>2021-02-20T07:53:25Z</time>
      </trkpt>
      <trkpt lat="45.1864" lon="5.90067">
        <ele>1155.4</ele>
        <time>2021-02-20T07:53:26Z</time>
      </trkpt>
      <trkpt lat="45.18638" lon="5.90069">
        <ele>1155.4</ele>
        <time>2021-02-20T07:53:27Z</time>
      </trkpt>
      <trkpt lat="45.18638" lon="5.9007">
        <ele>1155.4</ele>
        <time>2021-02-20T07:53:28Z</time>
      </trkpt>
      <trkpt lat="45.18637" lon="5.90071">
        <ele>1155.4</ele>
        <time>2021-02-20T07:53:29Z</time>
      </trkpt>
      <trkpt lat="45.18637" lon="5.90073">
        <ele>1155.4</ele>
        <time>2021-02-20T07:53:30Z</time>
      </trkpt>
      <trkpt lat="45.18636" lon="5.90076">
        <ele>1155.4</ele>
        <time>2021-02-20T07:53:31Z</time>
      </trkpt>
      <trkpt lat="45.18636" lon="5.90076">
        <ele>1155.4</ele>
        <time>2021-02-20T07:53:32Z</time>
      </trkpt>
      <trkpt lat="45.18637" lon="5.90078">
        <ele>1155.4</ele>
        <time>2021-02-20T07:53:33Z</time>
      </trkpt>
      <trkpt lat="45.18637" lon="5.90079">
        <ele>1155.4</ele>
        <time>2021-02-20T07:53:34Z</time>
      </trkpt>
      <trkpt lat="45.18637" lon="5.90079">
        <ele>1155.4</ele>
        <time>2021-02-20T07:53:35Z</time>
      </trkpt>
      <trkpt lat="45.18637" lon="5.90078">
        <ele>1155.4</ele>
        <time>2021-02-20T07:53:36Z</time>
      </trkpt>
      <trkpt lat="45.18637" lon="5.90078">
        <ele>1155.4</ele>
        <time>2021-02-20T07:53:37Z</time>
      </trkpt>
      <trkpt lat="45.18637" lon="5.90078">
        <ele>1155.4</ele>
        <time>2021-02-20T07:53:38Z</time>
      </trkpt>
      <trkpt lat="45.18636" lon="5.9008">
        <ele>1155.5</ele>
        <time>2021-02-20T07:53:39Z</time>
      </trkpt>
      <trkpt lat="45.18636" lon="5.90082">
        <ele>1155.5</ele>
        <time>2021-02-20T07:53:40Z</time>
      </trkpt>
      <trkpt lat="45.18635" lon="5.90084">
        <ele>1155.5</ele>
        <time>2021-02-20T07:53:41Z</time>
      </trkpt>
      <trkpt lat="45.18635" lon="5.90086">
        <ele>1155.5</ele>
        <time>2021-02-20T07:53:42Z</time>
      </trkpt>
      <trkpt lat="45.18635" lon="5.90089">
        <ele>1155.5</ele>
        <time>2021-02-20T07:53:43Z</time>
      </trkpt>
      <trkpt lat="45.18635" lon="5.90093">
        <ele>1155.6</ele>
        <time>2021-02-20T07:53:44Z</time>
      </trkpt>
      <trkpt lat="45.18635" lon="5.90094">
        <ele>1155.6</ele>
        <time>2021-02-20T07:53:45Z</time>
      </trkpt>
      <trkpt lat="45.18635" lon="5.90096">
        <ele>1155.6</ele>
        <time>2021-02-20T07:53:46Z</time>
      </trkpt>
      <trkpt lat="45.18635" lon="5.90097">
        <ele>1155.6</ele>
        <time>2021-02-20T07:53:47Z</time>
      </trkpt>
      <trkpt lat="45.18635" lon="5.90098">
        <ele>1155.6</ele>
        <time>2021-02-20T07:53:48Z</time>
      </trkpt>
      <trkpt lat="45.18635" lon="5.90099">
        <ele>1155.7</ele>
        <time>2021-02-20T07:53:49Z</time>
      </trkpt>
      <trkpt lat="45.18635" lon="5.901">
        <ele>1155.7</ele>
        <time>2021-02-20T07:53:50Z</time>
      </trkpt>
      <trkpt lat="45.18634" lon="5.90102">
        <ele>1155.7</ele>
        <time>2021-02-20T07:53:51Z</time>
      </trkpt>
      <trkpt lat="45.18634" lon="5.90104">
        <ele>1155.7</ele>
        <time>2021-02-20T07:53:52Z</time>
      </trkpt>
      <trkpt lat="45.18634" lon="5.90105">
        <ele>1155.7</ele>
        <time>2021-02-20T07:53:53Z</time>
      </trkpt>
      <trkpt lat="45.18634" lon="5.90106">
        <ele>1155.8</ele>
        <time>2021-02-20T07:53:54Z</time>
      </trkpt>
      <trkpt lat="45.18633" lon="5.90107">
        <ele>1155.8</ele>
        <time>2021-02-20T07:53:55Z</time>
      </trkpt>
      <trkpt lat="45.18633" lon="5.90108">
        <ele>1155.8</ele>
        <time>2021-02-20T07:53:56Z</time>
      </trkpt>
      <trkpt lat="45.18633" lon="5.90109">
        <ele>1155.8</ele>
        <time>2021-02-20T07:53:57Z</time>
      </trkpt>
      <trkpt lat="45.18633" lon="5.90111">
        <ele>1155.9</ele>
        <time>2021-02-20T07:53:58Z</time>
      </trkpt>
      <trkpt lat="45.18634" lon="5.90113">
        <ele>1155.9</ele>
        <time>2021-02-20T07:53:59Z</time>
      </trkpt>
      <trkpt lat="45.18635" lon="5.90115">
        <ele>1156</ele>
        <time>2021-02-20T07:54:00Z</time>
      </trkpt>
      <trkpt lat="45.18635" lon="5.90116">
        <ele>1156</ele>
        <time>2021-02-20T07:54:01Z</time>
      </trkpt>
      <trkpt lat="45.18635" lon="5.90118">
        <ele>1156</ele>
        <time>2021-02-20T07:54:02Z</time>
      </trkpt>
      <trkpt lat="45.18636" lon="5.90119">
        <ele>1156.1</ele>
        <time>2021-02-20T07:54:03Z</time>
      </trkpt>
      <trkpt lat="45.18635" lon="5.90121">
        <ele>1156.2</ele>
        <time>2021-02-20T07:54:04Z</time>
      </trkpt>
      <trkpt lat="45.18635" lon="5.90123">
        <ele>1156.3</ele>
        <time>2021-02-20T07:54:05Z</time>
      </trkpt>
      <trkpt lat="45.18635" lon="5.90124">
        <ele>1156.4</ele>
        <time>2021-02-20T07:54:06Z</time>
      </trkpt>
      <trkpt lat="45.18635" lon="5.90126">
        <ele>1156.5</ele>
        <time>2021-02-20T07:54:07Z</time>
      </trkpt>
      <trkpt lat="45.18636" lon="5.90127">
        <ele>1156.7</ele>
        <time>2021-02-20T07:54:08Z</time>
      </trkpt>
      <trkpt lat="45.18636" lon="5.90129">
        <ele>1156.8</ele>
        <time>2021-02-20T07:54:09Z</time>
      </trkpt>
      <trkpt lat="45.18636" lon="5.90131">
        <ele>1156.9</ele>
        <time>2021-02-20T07:54:10Z</time>
      </trkpt>
      <trkpt lat="45.18636" lon="5.90133">
        <ele>1157.1</ele>
        <time>2021-02-20T07:54:11Z</time>
      </trkpt>
      <trkpt lat="45.18636" lon="5.90137">
        <ele>1157.3</ele>
        <time>2021-02-20T07:54:12Z</time>
      </trkpt>
      <trkpt lat="45.18636" lon="5.90139">
        <ele>1157.4</ele>
        <time>2021-02-20T07:54:13Z</time>
      </trkpt>
      <trkpt lat="45.18637" lon="5.90141">
        <ele>1157.6</ele>
        <time>2021-02-20T07:54:14Z</time>
      </trkpt>
      <trkpt lat="45.18637" lon="5.90144">
        <ele>1157.7</ele>
        <time>2021-02-20T07:54:15Z</time>
      </trkpt>
      <trkpt lat="45.18637" lon="5.90145">
        <ele>1157.8</ele>
        <time>2021-02-20T07:54:16Z</time>
      </trkpt>
      <trkpt lat="45.18637" lon="5.90147">
        <ele>1157.9</ele>
        <time>2021-02-20T07:54:17Z</time>
      </trkpt>
      <trkpt lat="45.18638" lon="5.90148">
        <ele>1158</ele>
        <time>2021-02-20T07:54:18Z</time>
      </trkpt>
      <trkpt lat="45.18638" lon="5.9015">
        <ele>1158.1</ele>
        <time>2021-02-20T07:54:19Z</time>
      </trkpt>
      <trkpt lat="45.18638" lon="5.90152">
        <ele>1158.3</ele>
        <time>2021-02-20T07:54:20Z</time>
      </trkpt>
      <trkpt lat="45.18638" lon="5.90155">
        <ele>1158.5</ele>
        <time>2021-02-20T07:54:21Z</time>
      </trkpt>
      <trkpt lat="45.18638" lon="5.90157">
        <ele>1158.6</ele>
        <time>2021-02-20T07:54:22Z</time>
      </trkpt>
      <trkpt lat="45.18638" lon="5.90159">
        <ele>1158.7</ele>
        <time>2021-02-20T07:54:23Z</time>
      </trkpt>
      <trkpt lat="45.18638" lon="5.90161">
        <ele>1158.9</ele>
        <time>2021-02-20T07:54:24Z</time>
      </trkpt>
      <trkpt lat="45.18639" lon="5.90165">
        <ele>1159.1</ele>
        <time>2021-02-20T07:54:25Z</time>
      </trkpt>
      <trkpt lat="45.1864" lon="5.90166">
        <ele>1159.2</ele>
        <time>2021-02-20T07:54:26Z</time>
      </trkpt>
      <trkpt lat="45.18641" lon="5.90169">
        <ele>1159.4</ele>
        <time>2021-02-20T07:54:27Z</time>
      </trkpt>
      <trkpt lat="45.18641" lon="5.9017">
        <ele>1159.5</ele>
        <time>2021-02-20T07:54:28Z</time>
      </trkpt>
      <trkpt lat="45.18642" lon="5.90171">
        <ele>1159.5</ele>
        <time>2021-02-20T07:54:29Z</time>
      </trkpt>
      <trkpt lat="45.18643" lon="5.90172">
        <ele>1159.6</ele>
        <time>2021-02-20T07:54:30Z</time>
      </trkpt>
      <trkpt lat="45.18643" lon="5.90172">
        <ele>1159.6</ele>
        <time>2021-02-20T07:54:31Z</time>
      </trkpt>
      <trkpt lat="45.18644" lon="5.90173">
        <ele>1159.8</ele>
        <time>2021-02-20T07:54:32Z</time>
      </trkpt>
      <trkpt lat="45.18644" lon="5.90174">
        <ele>1159.8</ele>
        <time>2021-02-20T07:54:33Z</time>
      </trkpt>
      <trkpt lat="45.18645" lon="5.90176">
        <ele>1160</ele>
        <time>2021-02-20T07:54:34Z</time>
      </trkpt>
      <trkpt lat="45.18646" lon="5.90178">
        <ele>1160.1</ele>
        <time>2021-02-20T07:54:35Z</time>
      </trkpt>
      <trkpt lat="45.18646" lon="5.9018">
        <ele>1160.2</ele>
        <time>2021-02-20T07:54:36Z</time>
      </trkpt>
      <trkpt lat="45.18647" lon="5.90182">
        <ele>1160.4</ele>
        <time>2021-02-20T07:54:37Z</time>
      </trkpt>
      <trkpt lat="45.18647" lon="5.90183">
        <ele>1160.5</ele>
        <time>2021-02-20T07:54:38Z</time>
      </trkpt>
      <trkpt lat="45.18647" lon="5.90184">
        <ele>1160.5</ele>
        <time>2021-02-20T07:54:39Z</time>
      </trkpt>
      <trkpt lat="45.18648" lon="5.90185">
        <ele>1160.6</ele>
        <time>2021-02-20T07:54:40Z</time>
      </trkpt>
      <trkpt lat="45.18648" lon="5.90186">
        <ele>1160.7</ele>
        <time>2021-02-20T07:54:41Z</time>
      </trkpt>
      <trkpt lat="45.18648" lon="5.90189">
        <ele>1160.9</ele>
        <time>2021-02-20T07:54:42Z</time>
      </trkpt>
      <trkpt lat="45.18648" lon="5.9019">
        <ele>1161</ele>
        <time>2021-02-20T07:54:43Z</time>
      </trkpt>
      <trkpt lat="45.18648" lon="5.90192">
        <ele>1161.1</ele>
        <time>2021-02-20T07:54:44Z</time>
      </trkpt>
      <trkpt lat="45.18648" lon="5.90194">
        <ele>1161.2</ele>
        <time>2021-02-20T07:54:45Z</time>
      </trkpt>
      <trkpt lat="45.18649" lon="5.90196">
        <ele>1161.4</ele>
        <time>2021-02-20T07:54:46Z</time>
      </trkpt>
      <trkpt lat="45.18649" lon="5.90199">
        <ele>1161.5</ele>
        <time>2021-02-20T07:54:47Z</time>
      </trkpt>
      <trkpt lat="45.18649" lon="5.90201">
        <ele>1161.7</ele>
        <time>2021-02-20T07:54:48Z</time>
      </trkpt>
      <trkpt lat="45.18649" lon="5.90203">
        <ele>1161.8</ele>
        <time>2021-02-20T07:54:49Z</time>
      </trkpt>
      <trkpt lat="45.18649" lon="5.90205">
        <ele>1162</ele>
        <time>2021-02-20T07:54:50Z</time>
      </trkpt>
      <trkpt lat="45.18649" lon="5.90207">
        <ele>1162.1</ele>
        <time>2021-02-20T07:54:51Z</time>
      </trkpt>
      <trkpt lat="45.18649" lon="5.90208">
        <ele>1162.2</ele>
        <time>2021-02-20T07:54:52Z</time>
      </trkpt>
      <trkpt lat="45.1865" lon="5.90209">
        <ele>1162.3</ele>
        <time>2021-02-20T07:54:53Z</time>
      </trkpt>
      <trkpt lat="45.1865" lon="5.9021">
        <ele>1162.4</ele>
        <time>2021-02-20T07:54:54Z</time>
      </trkpt>
      <trkpt lat="45.18651" lon="5.90211">
        <ele>1162.5</ele>
        <time>2021-02-20T07:54:55Z</time>
      </trkpt>
      <trkpt lat="45.18651" lon="5.90212">
        <ele>1162.6</ele>
        <time>2021-02-20T07:54:56Z</time>
      </trkpt>
      <trkpt lat="45.18653" lon="5.90214">
        <ele>1162.8</ele>
        <time>2021-02-20T07:54:57Z</time>
      </trkpt>
      <trkpt lat="45.18654" lon="5.90215">
        <ele>1162.9</ele>
        <time>2021-02-20T07:54:58Z</time>
      </trkpt>
      <trkpt lat="45.18654" lon="5.90216">
        <ele>1163</ele>
        <time>2021-02-20T07:54:59Z</time>
      </trkpt>
      <trkpt lat="45.18656" lon="5.9022">
        <ele>1163.3</ele>
        <time>2021-02-20T07:55:00Z</time>
      </trkpt>
      <trkpt lat="45.18656" lon="5.90221">
        <ele>1163.4</ele>
        <time>2021-02-20T07:55:01Z</time>
      </trkpt>
      <trkpt lat="45.18656" lon="5.90224">
        <ele>1163.7</ele>
        <time>2021-02-20T07:55:02Z</time>
      </trkpt>
      <trkpt lat="45.18656" lon="5.90226">
        <ele>1163.9</ele>
        <time>2021-02-20T07:55:03Z</time>
      </trkpt>
      <trkpt lat="45.18657" lon="5.90228">
        <ele>1164</ele>
        <time>2021-02-20T07:55:04Z</time>
      </trkpt>
      <trkpt lat="45.18657" lon="5.90229">
        <ele>1164.1</ele>
        <time>2021-02-20T07:55:05Z</time>
      </trkpt>
      <trkpt lat="45.18657" lon="5.9023">
        <ele>1164.2</ele>
        <time>2021-02-20T07:55:06Z</time>
      </trkpt>
      <trkpt lat="45.18657" lon="5.90231">
        <ele>1164.2</ele>
        <time>2021-02-20T07:55:07Z</time>
      </trkpt>
      <trkpt lat="45.18658" lon="5.90232">
        <ele>1164.4</ele>
        <time>2021-02-20T07:55:08Z</time>
      </trkpt>
      <trkpt lat="45.18658" lon="5.90235">
        <ele>1164.6</ele>
        <time>2021-02-20T07:55:09Z</time>
      </trkpt>
      <trkpt lat="45.18658" lon="5.90238">
        <ele>1164.8</ele>
        <time>2021-02-20T07:55:10Z</time>
      </trkpt>
      <trkpt lat="45.18659" lon="5.9024">
        <ele>1165</ele>
        <time>2021-02-20T07:55:11Z</time>
      </trkpt>
      <trkpt lat="45.18659" lon="5.9024">
        <ele>1165</ele>
        <time>2021-02-20T07:55:12Z</time>
      </trkpt>
      <trkpt lat="45.18659" lon="5.90242">
        <ele>1165.2</ele>
        <time>2021-02-20T07:55:13Z</time>
      </trkpt>
      <trkpt lat="45.18659" lon="5.90243">
        <ele>1165.3</ele>
        <time>2021-02-20T07:55:14Z</time>
      </trkpt>
      <trkpt lat="45.18659" lon="5.90244">
        <ele>1165.4</ele>
        <time>2021-02-20T07:55:15Z</time>
      </trkpt>
      <trkpt lat="45.18659" lon="5.90245">
        <ele>1165.4</ele>
        <time>2021-02-20T07:55:16Z</time>
      </trkpt>
      <trkpt lat="45.18659" lon="5.90245">
        <ele>1165.5</ele>
        <time>2021-02-20T07:55:17Z</time>
      </trkpt>
      <trkpt lat="45.18659" lon="5.90246">
        <ele>1165.6</ele>
        <time>2021-02-20T07:55:18Z</time>
      </trkpt>
      <trkpt lat="45.1866" lon="5.90247">
        <ele>1165.7</ele>
        <time>2021-02-20T07:55:19Z</time>
      </trkpt>
      <trkpt lat="45.1866" lon="5.90248">
        <ele>1165.8</ele>
        <time>2021-02-20T07:55:20Z</time>
      </trkpt>
      <trkpt lat="45.1866" lon="5.90249">
        <ele>1165.9</ele>
        <time>2021-02-20T07:55:21Z</time>
      </trkpt>
      <trkpt lat="45.1866" lon="5.9025">
        <ele>1166</ele>
        <time>2021-02-20T07:55:22Z</time>
      </trkpt>
      <trkpt lat="45.1866" lon="5.90252">
        <ele>1166.1</ele>
        <time>2021-02-20T07:55:23Z</time>
      </trkpt>
      <trkpt lat="45.1866" lon="5.90255">
        <ele>1166.4</ele>
        <time>2021-02-20T07:55:24Z</time>
      </trkpt>
      <trkpt lat="45.1866" lon="5.90256">
        <ele>1166.5</ele>
        <time>2021-02-20T07:55:25Z</time>
      </trkpt>
      <trkpt lat="45.18661" lon="5.90257">
        <ele>1166.6</ele>
        <time>2021-02-20T07:55:26Z</time>
      </trkpt>
      <trkpt lat="45.18661" lon="5.90258">
        <ele>1166.7</ele>
        <time>2021-02-20T07:55:27Z</time>
      </trkpt>
      <trkpt lat="45.18661" lon="5.90259">
        <ele>1166.9</ele>
        <time>2021-02-20T07:55:28Z</time>
      </trkpt>
      <trkpt lat="45.18661" lon="5.90261">
        <ele>1167</ele>
        <time>2021-02-20T07:55:29Z</time>
      </trkpt>
      <trkpt lat="45.18662" lon="5.90262">
        <ele>1167.2</ele>
        <time>2021-02-20T07:55:30Z</time>
      </trkpt>
      <trkpt lat="45.18663" lon="5.90263">
        <ele>1167.3</ele>
        <time>2021-02-20T07:55:31Z</time>
      </trkpt>
      <trkpt lat="45.18663" lon="5.90263">
        <ele>1167.3</ele>
        <time>2021-02-20T07:55:32Z</time>
      </trkpt>
      <trkpt lat="45.18663" lon="5.90263">
        <ele>1167.3</ele>
        <time>2021-02-20T07:55:33Z</time>
      </trkpt>
      <trkpt lat="45.18662" lon="5.90263">
        <ele>1167.5</ele>
        <time>2021-02-20T07:55:34Z</time>
      </trkpt>
      <trkpt lat="45.1866" lon="5.90263">
        <ele>1167.6</ele>
        <time>2021-02-20T07:55:35Z</time>
      </trkpt>
      <trkpt lat="45.18659" lon="5.90263">
        <ele>1167.8</ele>
        <time>2021-02-20T07:55:36Z</time>
      </trkpt>
      <trkpt lat="45.18658" lon="5.90264">
        <ele>1168</ele>
        <time>2021-02-20T07:55:37Z</time>
      </trkpt>
      <trkpt lat="45.18657" lon="5.90265">
        <ele>1168.1</ele>
        <time>2021-02-20T07:55:38Z</time>
      </trkpt>
      <trkpt lat="45.18657" lon="5.90266">
        <ele>1168.3</ele>
        <time>2021-02-20T07:55:39Z</time>
      </trkpt>
      <trkpt lat="45.18656" lon="5.9027">
        <ele>1169</ele>
        <time>2021-02-20T07:55:40Z</time>
      </trkpt>
      <trkpt lat="45.18656" lon="5.90272">
        <ele>1169.2</ele>
        <time>2021-02-20T07:55:41Z</time>
      </trkpt>
      <trkpt lat="45.18656" lon="5.90276">
        <ele>1169.6</ele>
        <time>2021-02-20T07:55:42Z</time>
      </trkpt>
      <trkpt lat="45.18656" lon="5.90277">
        <ele>1169.7</ele>
        <time>2021-02-20T07:55:43Z</time>
      </trkpt>
      <trkpt lat="45.18656" lon="5.90277">
        <ele>1169.7</ele>
        <time>2021-02-20T07:55:44Z</time>
      </trkpt>
      <trkpt lat="45.18655" lon="5.9028">
        <ele>1170.1</ele>
        <time>2021-02-20T07:55:45Z</time>
      </trkpt>
      <trkpt lat="45.18654" lon="5.90281">
        <ele>1170.2</ele>
        <time>2021-02-20T07:55:46Z</time>
      </trkpt>
      <trkpt lat="45.18654" lon="5.90281">
        <ele>1170.3</ele>
        <time>2021-02-20T07:55:47Z</time>
      </trkpt>
      <trkpt lat="45.18654" lon="5.90282">
        <ele>1170.4</ele>
        <time>2021-02-20T07:55:48Z</time>
      </trkpt>
      <trkpt lat="45.18654" lon="5.90282">
        <ele>1170.4</ele>
        <time>2021-02-20T07:55:49Z</time>
      </trkpt>
      <trkpt lat="45.18655" lon="5.90284">
        <ele>1170.7</ele>
        <time>2021-02-20T07:55:50Z</time>
      </trkpt>
      <trkpt lat="45.18656" lon="5.90286">
        <ele>1170.9</ele>
        <time>2021-02-20T07:55:51Z</time>
      </trkpt>
      <trkpt lat="45.18656" lon="5.90288">
        <ele>1171.1</ele>
        <time>2021-02-20T07:55:52Z</time>
      </trkpt>
      <trkpt lat="45.18656" lon="5.90289">
        <ele>1171.2</ele>
        <time>2021-02-20T07:55:53Z</time>
      </trkpt>
      <trkpt lat="45.18656" lon="5.90291">
        <ele>1171.4</ele>
        <time>2021-02-20T07:55:54Z</time>
      </trkpt>
      <trkpt lat="45.18656" lon="5.90292">
        <ele>1171.5</ele>
        <time>2021-02-20T07:55:55Z</time>
      </trkpt>
      <trkpt lat="45.18656" lon="5.90295">
        <ele>1171.7</ele>
        <time>2021-02-20T07:55:56Z</time>
      </trkpt>
      <trkpt lat="45.18656" lon="5.90295">
        <ele>1171.8</ele>
        <time>2021-02-20T07:55:57Z</time>
      </trkpt>
      <trkpt lat="45.18656" lon="5.90296">
        <ele>1171.9</ele>
        <time>2021-02-20T07:55:58Z</time>
      </trkpt>
      <trkpt lat="45.18656" lon="5.90297">
        <ele>1172</ele>
        <time>2021-02-20T07:55:59Z</time>
      </trkpt>
      <trkpt lat="45.18655" lon="5.90298">
        <ele>1172.1</ele>
        <time>2021-02-20T07:56:00Z</time>
      </trkpt>
      <trkpt lat="45.18655" lon="5.903">
        <ele>1172.3</ele>
        <time>2021-02-20T07:56:01Z</time>
      </trkpt>
      <trkpt lat="45.18654" lon="5.90302">
        <ele>1172.6</ele>
        <time>2021-02-20T07:56:02Z</time>
      </trkpt>
      <trkpt lat="45.18654" lon="5.90304">
        <ele>1172.8</ele>
        <time>2021-02-20T07:56:03Z</time>
      </trkpt>
      <trkpt lat="45.18654" lon="5.90306">
        <ele>1173</ele>
        <time>2021-02-20T07:56:04Z</time>
      </trkpt>
      <trkpt lat="45.18654" lon="5.90308">
        <ele>1173.2</ele>
        <time>2021-02-20T07:56:05Z</time>
      </trkpt>
      <trkpt lat="45.18654" lon="5.9031">
        <ele>1173.4</ele>
        <time>2021-02-20T07:56:06Z</time>
      </trkpt>
      <trkpt lat="45.18654" lon="5.90312">
        <ele>1173.6</ele>
        <time>2021-02-20T07:56:07Z</time>
      </trkpt>
      <trkpt lat="45.18653" lon="5.90314">
        <ele>1173.8</ele>
        <time>2021-02-20T07:56:08Z</time>
      </trkpt>
      <trkpt lat="45.18652" lon="5.90316">
        <ele>1174.1</ele>
        <time>2021-02-20T07:56:09Z</time>
      </trkpt>
      <trkpt lat="45.18651" lon="5.90318">
        <ele>1174.4</ele>
        <time>2021-02-20T07:56:10Z</time>
      </trkpt>
      <trkpt lat="45.18651" lon="5.90318">
        <ele>1174.4</ele>
        <time>2021-02-20T07:56:11Z</time>
      </trkpt>
      <trkpt lat="45.1865" lon="5.90321">
        <ele>1174.8</ele>
        <time>2021-02-20T07:56:12Z</time>
      </trkpt>
      <trkpt lat="45.1865" lon="5.90322">
        <ele>1175</ele>
        <time>2021-02-20T07:56:13Z</time>
      </trkpt>
      <trkpt lat="45.18649" lon="5.90324">
        <ele>1175.3</ele>
        <time>2021-02-20T07:56:14Z</time>
      </trkpt>
      <trkpt lat="45.18648" lon="5.90325">
        <ele>1175.5</ele>
        <time>2021-02-20T07:56:15Z</time>
      </trkpt>
      <trkpt lat="45.18648" lon="5.90326">
        <ele>1175.7</ele>
        <time>2021-02-20T07:56:16Z</time>
      </trkpt>
      <trkpt lat="45.18647" lon="5.90328">
        <ele>1176</ele>
        <time>2021-02-20T07:56:17Z</time>
      </trkpt>
      <trkpt lat="45.18647" lon="5.90331">
        <ele>1176.3</ele>
        <time>2021-02-20T07:56:18Z</time>
      </trkpt>
      <trkpt lat="45.18647" lon="5.90333">
        <ele>1176.6</ele>
        <time>2021-02-20T07:56:19Z</time>
      </trkpt>
      <trkpt lat="45.18647" lon="5.90334">
        <ele>1176.7</ele>
        <time>2021-02-20T07:56:20Z</time>
      </trkpt>
      <trkpt lat="45.18646" lon="5.90335">
        <ele>1176.9</ele>
        <time>2021-02-20T07:56:21Z</time>
      </trkpt>
      <trkpt lat="45.18646" lon="5.90335">
        <ele>1177</ele>
        <time>2021-02-20T07:56:22Z</time>
      </trkpt>
      <trkpt lat="45.18645" lon="5.90336">
        <ele>1177.2</ele>
        <time>2021-02-20T07:56:23Z</time>
      </trkpt>
      <trkpt lat="45.18644" lon="5.90336">
        <ele>1177.4</ele>
        <time>2021-02-20T07:56:24Z</time>
      </trkpt>
      <trkpt lat="45.18643" lon="5.90336">
        <ele>1177.6</ele>
        <time>2021-02-20T07:56:25Z</time>
      </trkpt>
      <trkpt lat="45.18642" lon="5.90337">
        <ele>1177.8</ele>
        <time>2021-02-20T07:56:26Z</time>
      </trkpt>
      <trkpt lat="45.18641" lon="5.90338">
        <ele>1178</ele>
        <time>2021-02-20T07:56:27Z</time>
      </trkpt>
      <trkpt lat="45.18641" lon="5.9034">
        <ele>1178.3</ele>
        <time>2021-02-20T07:56:28Z</time>
      </trkpt>
      <trkpt lat="45.18641" lon="5.90341">
        <ele>1178.4</ele>
        <time>2021-02-20T07:56:29Z</time>
      </trkpt>
      <trkpt lat="45.1864" lon="5.90341">
        <ele>1178.5</ele>
        <time>2021-02-20T07:56:30Z</time>
      </trkpt>
      <trkpt lat="45.1864" lon="5.90342">
        <ele>1178.6</ele>
        <time>2021-02-20T07:56:31Z</time>
      </trkpt>
      <trkpt lat="45.1864" lon="5.90343">
        <ele>1178.8</ele>
        <time>2021-02-20T07:56:32Z</time>
      </trkpt>
      <trkpt lat="45.18639" lon="5.90344">
        <ele>1179</ele>
        <time>2021-02-20T07:56:33Z</time>
      </trkpt>
      <trkpt lat="45.18638" lon="5.90345">
        <ele>1179.3</ele>
        <time>2021-02-20T07:56:34Z</time>
      </trkpt>
      <trkpt lat="45.18638" lon="5.90348">
        <ele>1179.6</ele>
        <time>2021-02-20T07:56:35Z</time>
      </trkpt>
      <trkpt lat="45.18638" lon="5.90349">
        <ele>1179.8</ele>
        <time>2021-02-20T07:56:36Z</time>
      </trkpt>
      <trkpt lat="45.18638" lon="5.9035">
        <ele>1180</ele>
        <time>2021-02-20T07:56:37Z</time>
      </trkpt>
      <trkpt lat="45.18638" lon="5.9035">
        <ele>1180</ele>
        <time>2021-02-20T07:56:38Z</time>
      </trkpt>
      <trkpt lat="45.18638" lon="5.90352">
        <ele>1180.2</ele>
        <time>2021-02-20T07:56:39Z</time>
      </trkpt>
      <trkpt lat="45.18638" lon="5.90353">
        <ele>1180.3</ele>
        <time>2021-02-20T07:56:40Z</time>
      </trkpt>
      <trkpt lat="45.18638" lon="5.90354">
        <ele>1180.5</ele>
        <time>2021-02-20T07:56:41Z</time>
      </trkpt>
      <trkpt lat="45.18638" lon="5.90355">
        <ele>1180.7</ele>
        <time>2021-02-20T07:56:42Z</time>
      </trkpt>
      <trkpt lat="45.18637" lon="5.90357">
        <ele>1180.9</ele>
        <time>2021-02-20T07:56:43Z</time>
      </trkpt>
      <trkpt lat="45.18637" lon="5.90357">
        <ele>1181</ele>
        <time>2021-02-20T07:56:44Z</time>
      </trkpt>
      <trkpt lat="45.18637" lon="5.90357">
        <ele>1181</ele>
        <time>2021-02-20T07:56:45Z</time>
      </trkpt>
      <trkpt lat="45.18637" lon="5.90359">
        <ele>1181.3</ele>
        <time>2021-02-20T07:56:46Z</time>
      </trkpt>
      <trkpt lat="45.18637" lon="5.9036">
        <ele>1181.4</ele>
        <time>2021-02-20T07:56:47Z</time>
      </trkpt>
      <trkpt lat="45.18637" lon="5.90362">
        <ele>1181.6</ele>
        <time>2021-02-20T07:56:48Z</time>
      </trkpt>
      <trkpt lat="45.18637" lon="5.90362">
        <ele>1181.7</ele>
        <time>2021-02-20T07:56:49Z</time>
      </trkpt>
      <trkpt lat="45.18636" lon="5.90363">
        <ele>1181.9</ele>
        <time>2021-02-20T07:56:50Z</time>
      </trkpt>
      <trkpt lat="45.18636" lon="5.90364">
        <ele>1182</ele>
        <time>2021-02-20T07:56:51Z</time>
      </trkpt>
      <trkpt lat="45.18635" lon="5.90365">
        <ele>1182.1</ele>
        <time>2021-02-20T07:56:52Z</time>
      </trkpt>
      <trkpt lat="45.18635" lon="5.90365">
        <ele>1182.2</ele>
        <time>2021-02-20T07:56:53Z</time>
      </trkpt>
      <trkpt lat="45.18635" lon="5.90366">
        <ele>1182.4</ele>
        <time>2021-02-20T07:56:54Z</time>
      </trkpt>
      <trkpt lat="45.18635" lon="5.90367">
        <ele>1182.5</ele>
        <time>2021-02-20T07:56:55Z</time>
      </trkpt>
      <trkpt lat="45.18635" lon="5.90368">
        <ele>1182.6</ele>
        <time>2021-02-20T07:56:56Z</time>
      </trkpt>
      <trkpt lat="45.18636" lon="5.90368">
        <ele>1182.7</ele>
        <time>2021-02-20T07:56:57Z</time>
      </trkpt>
      <trkpt lat="45.18637" lon="5.90368">
        <ele>1182.9</ele>
        <time>2021-02-20T07:56:58Z</time>
      </trkpt>
      <trkpt lat="45.18637" lon="5.90369">
        <ele>1183</ele>
        <time>2021-02-20T07:56:59Z</time>
      </trkpt>
      <trkpt lat="45.18638" lon="5.9037">
        <ele>1183.2</ele>
        <time>2021-02-20T07:57:00Z</time>
      </trkpt>
      <trkpt lat="45.18638" lon="5.90371">
        <ele>1183.3</ele>
        <time>2021-02-20T07:57:01Z</time>
      </trkpt>
      <trkpt lat="45.18639" lon="5.90371">
        <ele>1183.5</ele>
        <time>2021-02-20T07:57:02Z</time>
      </trkpt>
      <trkpt lat="45.1864" lon="5.90372">
        <ele>1183.7</ele>
        <time>2021-02-20T07:57:03Z</time>
      </trkpt>
      <trkpt lat="45.1864" lon="5.90372">
        <ele>1183.8</ele>
        <time>2021-02-20T07:57:04Z</time>
      </trkpt>
      <trkpt lat="45.1864" lon="5.90374">
        <ele>1183.9</ele>
        <time>2021-02-20T07:57:05Z</time>
      </trkpt>
      <trkpt lat="45.1864" lon="5.90375">
        <ele>1184.2</ele>
        <time>2021-02-20T07:57:06Z</time>
      </trkpt>
      <trkpt lat="45.1864" lon="5.90377">
        <ele>1184.3</ele>
        <time>2021-02-20T07:57:07Z</time>
      </trkpt>
      <trkpt lat="45.18639" lon="5.90377">
        <ele>1184.5</ele>
        <time>2021-02-20T07:57:08Z</time>
      </trkpt>
      <trkpt lat="45.18638" lon="5.90379">
        <ele>1184.7</ele>
        <time>2021-02-20T07:57:09Z</time>
      </trkpt>
      <trkpt lat="45.18638" lon="5.9038">
        <ele>1184.8</ele>
        <time>2021-02-20T07:57:10Z</time>
      </trkpt>
      <trkpt lat="45.18638" lon="5.9038">
        <ele>1184.9</ele>
        <time>2021-02-20T07:57:11Z</time>
      </trkpt>
      <trkpt lat="45.18637" lon="5.90381">
        <ele>1185</ele>
        <time>2021-02-20T07:57:12Z</time>
      </trkpt>
      <trkpt lat="45.18637" lon="5.90382">
        <ele>1185.1</ele>
        <time>2021-02-20T07:57:13Z</time>
      </trkpt>
      <trkpt lat="45.18637" lon="5.90384">
        <ele>1185.3</ele>
        <time>2021-02-20T07:57:14Z</time>
      </trkpt>
      <trkpt lat="45.18637" lon="5.90385">
        <ele>1185.5</ele>
        <time>2021-02-20T07:57:15Z</time>
      </trkpt>
      <trkpt lat="45.18637" lon="5.90386">
        <ele>1185.6</ele>
        <time>2021-02-20T07:57:16Z</time>
      </trkpt>
      <trkpt lat="45.18637" lon="5.90388">
        <ele>1185.9</ele>
        <time>2021-02-20T07:57:17Z</time>
      </trkpt>
      <trkpt lat="45.18637" lon="5.90391">
        <ele>1186.2</ele>
        <time>2021-02-20T07:57:18Z</time>
      </trkpt>
      <trkpt lat="45.18637" lon="5.90393">
        <ele>1186.5</ele>
        <time>2021-02-20T07:57:19Z</time>
      </trkpt>
      <trkpt lat="45.18637" lon="5.90395">
        <ele>1186.8</ele>
        <time>2021-02-20T07:57:20Z</time>
      </trkpt>
      <trkpt lat="45.18637" lon="5.90397">
        <ele>1187.1</ele>
        <time>2021-02-20T07:57:21Z</time>
      </trkpt>
      <trkpt lat="45.18636" lon="5.90398">
        <ele>1187.3</ele>
        <time>2021-02-20T07:57:22Z</time>
      </trkpt>
      <trkpt lat="45.18636" lon="5.904">
        <ele>1187.4</ele>
        <time>2021-02-20T07:57:23Z</time>
      </trkpt>
      <trkpt lat="45.18635" lon="5.90402">
        <ele>1187.7</ele>
        <time>2021-02-20T07:57:24Z</time>
      </trkpt>
      <trkpt lat="45.18635" lon="5.90403">
        <ele>1188</ele>
        <time>2021-02-20T07:57:25Z</time>
      </trkpt>
      <trkpt lat="45.18634" lon="5.90405">
        <ele>1188.2</ele>
        <time>2021-02-20T07:57:26Z</time>
      </trkpt>
      <trkpt lat="45.18633" lon="5.90405">
        <ele>1188.4</ele>
        <time>2021-02-20T07:57:27Z</time>
      </trkpt>
      <trkpt lat="45.18632" lon="5.90405">
        <ele>1188.5</ele>
        <time>2021-02-20T07:57:28Z</time>
      </trkpt>
      <trkpt lat="45.18632" lon="5.90406">
        <ele>1188.6</ele>
        <time>2021-02-20T07:57:29Z</time>
      </trkpt>
      <trkpt lat="45.18632" lon="5.90406">
        <ele>1188.6</ele>
        <time>2021-02-20T07:57:30Z</time>
      </trkpt>
      <trkpt lat="45.18631" lon="5.90406">
        <ele>1188.8</ele>
        <time>2021-02-20T07:57:31Z</time>
      </trkpt>
      <trkpt lat="45.18631" lon="5.90406">
        <ele>1188.8</ele>
        <time>2021-02-20T07:57:32Z</time>
      </trkpt>
      <trkpt lat="45.1863" lon="5.90405">
        <ele>1188.9</ele>
        <time>2021-02-20T07:57:33Z</time>
      </trkpt>
      <trkpt lat="45.1863" lon="5.90405">
        <ele>1189</ele>
        <time>2021-02-20T07:57:34Z</time>
      </trkpt>
      <trkpt lat="45.1863" lon="5.90405">
        <ele>1189.1</ele>
        <time>2021-02-20T07:57:35Z</time>
      </trkpt>
      <trkpt lat="45.18629" lon="5.90405">
        <ele>1189.2</ele>
        <time>2021-02-20T07:57:36Z</time>
      </trkpt>
      <trkpt lat="45.18629" lon="5.90406">
        <ele>1189.3</ele>
        <time>2021-02-20T07:57:37Z</time>
      </trkpt>
      <trkpt lat="45.18629" lon="5.90406">
        <ele>1189.3</ele>
        <time>2021-02-20T07:57:38Z</time>
      </trkpt>
      <trkpt lat="45.18629" lon="5.90409">
        <ele>1189.6</ele>
        <time>2021-02-20T07:57:39Z</time>
      </trkpt>
      <trkpt lat="45.18629" lon="5.9041">
        <ele>1189.8</ele>
        <time>2021-02-20T07:57:40Z</time>
      </trkpt>
      <trkpt lat="45.18628" lon="5.90411">
        <ele>1190</ele>
        <time>2021-02-20T07:57:41Z</time>
      </trkpt>
      <trkpt lat="45.18628" lon="5.90412">
        <ele>1190.2</ele>
        <time>2021-02-20T07:57:42Z</time>
      </trkpt>
      <trkpt lat="45.18628" lon="5.90413">
        <ele>1190.3</ele>
        <time>2021-02-20T07:57:43Z</time>
      </trkpt>
      <trkpt lat="45.18628" lon="5.90413">
        <ele>1190.4</ele>
        <time>2021-02-20T07:57:44Z</time>
      </trkpt>
      <trkpt lat="45.18627" lon="5.90414">
        <ele>1190.6</ele>
        <time>2021-02-20T07:57:45Z</time>
      </trkpt>
      <trkpt lat="45.18627" lon="5.90415">
        <ele>1190.7</ele>
        <time>2021-02-20T07:57:46Z</time>
      </trkpt>
      <trkpt lat="45.18627" lon="5.90415">
        <ele>1190.8</ele>
        <time>2021-02-20T07:57:47Z</time>
      </trkpt>
      <trkpt lat="45.18627" lon="5.90416">
        <ele>1190.9</ele>
        <time>2021-02-20T07:57:48Z</time>
      </trkpt>
      <trkpt lat="45.18626" lon="5.90416">
        <ele>1191</ele>
        <time>2021-02-20T07:57:49Z</time>
      </trkpt>
      <trkpt lat="45.18626" lon="5.90416">
        <ele>1191.1</ele>
        <time>2021-02-20T07:57:50Z</time>
      </trkpt>
      <trkpt lat="45.18626" lon="5.90416">
        <ele>1191.1</ele>
        <time>2021-02-20T07:57:51Z</time>
      </trkpt>
      <trkpt lat="45.18626" lon="5.90416">
        <ele>1191.2</ele>
        <time>2021-02-20T07:57:52Z</time>
      </trkpt>
      <trkpt lat="45.18626" lon="5.90416">
        <ele>1191.2</ele>
        <time>2021-02-20T07:57:53Z</time>
      </trkpt>
      <trkpt lat="45.18626" lon="5.90417">
        <ele>1191.3</ele>
        <time>2021-02-20T07:57:54Z</time>
      </trkpt>
      <trkpt lat="45.18626" lon="5.90417">
        <ele>1191.4</ele>
        <time>2021-02-20T07:57:55Z</time>
      </trkpt>
      <trkpt lat="45.18625" lon="5.90418">
        <ele>1191.5</ele>
        <time>2021-02-20T07:57:56Z</time>
      </trkpt>
      <trkpt lat="45.18625" lon="5.90419">
        <ele>1191.7</ele>
        <time>2021-02-20T07:57:57Z</time>
      </trkpt>
      <trkpt lat="45.18624" lon="5.9042">
        <ele>1191.9</ele>
        <time>2021-02-20T07:57:58Z</time>
      </trkpt>
      <trkpt lat="45.18624" lon="5.9042">
        <ele>1192.1</ele>
        <time>2021-02-20T07:57:59Z</time>
      </trkpt>
      <trkpt lat="45.18624" lon="5.90421">
        <ele>1192.2</ele>
        <time>2021-02-20T07:58:00Z</time>
      </trkpt>
      <trkpt lat="45.18624" lon="5.90422">
        <ele>1192.4</ele>
        <time>2021-02-20T07:58:01Z</time>
      </trkpt>
      <trkpt lat="45.18623" lon="5.90423">
        <ele>1192.6</ele>
        <time>2021-02-20T07:58:02Z</time>
      </trkpt>
      <trkpt lat="45.18623" lon="5.90424">
        <ele>1192.8</ele>
        <time>2021-02-20T07:58:03Z</time>
      </trkpt>
      <trkpt lat="45.18623" lon="5.90425">
        <ele>1193</ele>
        <time>2021-02-20T07:58:04Z</time>
      </trkpt>
      <trkpt lat="45.18623" lon="5.90426">
        <ele>1193.1</ele>
        <time>2021-02-20T07:58:05Z</time>
      </trkpt>
      <trkpt lat="45.18622" lon="5.90427">
        <ele>1193.3</ele>
        <time>2021-02-20T07:58:06Z</time>
      </trkpt>
      <trkpt lat="45.18622" lon="5.90428">
        <ele>1193.5</ele>
        <time>2021-02-20T07:58:07Z</time>
      </trkpt>
      <trkpt lat="45.18621" lon="5.90428">
        <ele>1193.7</ele>
        <time>2021-02-20T07:58:08Z</time>
      </trkpt>
      <trkpt lat="45.18621" lon="5.90429">
        <ele>1193.9</ele>
        <time>2021-02-20T07:58:09Z</time>
      </trkpt>
      <trkpt lat="45.1862" lon="5.9043">
        <ele>1194.2</ele>
        <time>2021-02-20T07:58:10Z</time>
      </trkpt>
      <trkpt lat="45.18619" lon="5.90431">
        <ele>1194.5</ele>
        <time>2021-02-20T07:58:11Z</time>
      </trkpt>
      <trkpt lat="45.18618" lon="5.90431">
        <ele>1194.7</ele>
        <time>2021-02-20T07:58:12Z</time>
      </trkpt>
      <trkpt lat="45.18618" lon="5.90432">
        <ele>1194.9</ele>
        <time>2021-02-20T07:58:13Z</time>
      </trkpt>
      <trkpt lat="45.18617" lon="5.90432">
        <ele>1195.2</ele>
        <time>2021-02-20T07:58:14Z</time>
      </trkpt>
      <trkpt lat="45.18616" lon="5.90433">
        <ele>1195.6</ele>
        <time>2021-02-20T07:58:15Z</time>
      </trkpt>
      <trkpt lat="45.18615" lon="5.90434">
        <ele>1197.4</ele>
        <time>2021-02-20T07:58:16Z</time>
      </trkpt>
      <trkpt lat="45.18614" lon="5.90435">
        <ele>1197.6</ele>
        <time>2021-02-20T07:58:17Z</time>
      </trkpt>
      <trkpt lat="45.18613" lon="5.90436">
        <ele>1197.7</ele>
        <time>2021-02-20T07:58:18Z</time>
      </trkpt>
      <trkpt lat="45.18612" lon="5.90437">
        <ele>1197.9</ele>
        <time>2021-02-20T07:58:19Z</time>
      </trkpt>
      <trkpt lat="45.18612" lon="5.90438">
        <ele>1198.1</ele>
        <time>2021-02-20T07:58:20Z</time>
      </trkpt>
      <trkpt lat="45.18611" lon="5.90439">
        <ele>1198.3</ele>
        <time>2021-02-20T07:58:21Z</time>
      </trkpt>
      <trkpt lat="45.1861" lon="5.9044">
        <ele>1198.5</ele>
        <time>2021-02-20T07:58:22Z</time>
      </trkpt>
      <trkpt lat="45.1861" lon="5.90442">
        <ele>1198.6</ele>
        <time>2021-02-20T07:58:23Z</time>
      </trkpt>
      <trkpt lat="45.18609" lon="5.90444">
        <ele>1199</ele>
        <time>2021-02-20T07:58:24Z</time>
      </trkpt>
      <trkpt lat="45.18609" lon="5.90445">
        <ele>1199.1</ele>
        <time>2021-02-20T07:58:25Z</time>
      </trkpt>
      <trkpt lat="45.18609" lon="5.90447">
        <ele>1199.3</ele>
        <time>2021-02-20T07:58:26Z</time>
      </trkpt>
      <trkpt lat="45.18608" lon="5.90448">
        <ele>1199.5</ele>
        <time>2021-02-20T07:58:27Z</time>
      </trkpt>
      <trkpt lat="45.18607" lon="5.9045">
        <ele>1199.7</ele>
        <time>2021-02-20T07:58:28Z</time>
      </trkpt>
      <trkpt lat="45.18607" lon="5.90451">
        <ele>1199.8</ele>
        <time>2021-02-20T07:58:29Z</time>
      </trkpt>
      <trkpt lat="45.18606" lon="5.90452">
        <ele>1199.9</ele>
        <time>2021-02-20T07:58:30Z</time>
      </trkpt>
      <trkpt lat="45.18606" lon="5.90452">
        <ele>1200.1</ele>
        <time>2021-02-20T07:58:31Z</time>
      </trkpt>
      <trkpt lat="45.18605" lon="5.90453">
        <ele>1200.2</ele>
        <time>2021-02-20T07:58:32Z</time>
      </trkpt>
      <trkpt lat="45.18605" lon="5.90454">
        <ele>1200.3</ele>
        <time>2021-02-20T07:58:33Z</time>
      </trkpt>
      <trkpt lat="45.18604" lon="5.90455">
        <ele>1200.4</ele>
        <time>2021-02-20T07:58:34Z</time>
      </trkpt>
      <trkpt lat="45.18604" lon="5.90457">
        <ele>1200.6</ele>
        <time>2021-02-20T07:58:35Z</time>
      </trkpt>
      <trkpt lat="45.18603" lon="5.90459">
        <ele>1200.8</ele>
        <time>2021-02-20T07:58:36Z</time>
      </trkpt>
      <trkpt lat="45.18603" lon="5.90461">
        <ele>1201.1</ele>
        <time>2021-02-20T07:58:37Z</time>
      </trkpt>
      <trkpt lat="45.18603" lon="5.90463">
        <ele>1201.3</ele>
        <time>2021-02-20T07:58:38Z</time>
      </trkpt>
      <trkpt lat="45.18603" lon="5.90465">
        <ele>1201.5</ele>
        <time>2021-02-20T07:58:39Z</time>
      </trkpt>
      <trkpt lat="45.18602" lon="5.90467">
        <ele>1201.7</ele>
        <time>2021-02-20T07:58:40Z</time>
      </trkpt>
      <trkpt lat="45.18603" lon="5.90468">
        <ele>1201.8</ele>
        <time>2021-02-20T07:58:41Z</time>
      </trkpt>
      <trkpt lat="45.18603" lon="5.90469">
        <ele>1201.9</ele>
        <time>2021-02-20T07:58:42Z</time>
      </trkpt>
      <trkpt lat="45.18603" lon="5.9047">
        <ele>1202</ele>
        <time>2021-02-20T07:58:43Z</time>
      </trkpt>
      <trkpt lat="45.18603" lon="5.90471">
        <ele>1202.1</ele>
        <time>2021-02-20T07:58:44Z</time>
      </trkpt>
      <trkpt lat="45.18603" lon="5.90471">
        <ele>1202.1</ele>
        <time>2021-02-20T07:58:45Z</time>
      </trkpt>
      <trkpt lat="45.18603" lon="5.90471">
        <ele>1202.1</ele>
        <time>2021-02-20T07:58:46Z</time>
      </trkpt>
      <trkpt lat="45.18603" lon="5.90472">
        <ele>1202.2</ele>
        <time>2021-02-20T07:58:47Z</time>
      </trkpt>
      <trkpt lat="45.18602" lon="5.90474">
        <ele>1202.4</ele>
        <time>2021-02-20T07:58:48Z</time>
      </trkpt>
      <trkpt lat="45.18602" lon="5.90475">
        <ele>1202.5</ele>
        <time>2021-02-20T07:58:49Z</time>
      </trkpt>
      <trkpt lat="45.18602" lon="5.90476">
        <ele>1202.6</ele>
        <time>2021-02-20T07:58:50Z</time>
      </trkpt>
      <trkpt lat="45.18602" lon="5.90478">
        <ele>1202.7</ele>
        <time>2021-02-20T07:58:51Z</time>
      </trkpt>
      <trkpt lat="45.18601" lon="5.90479">
        <ele>1202.9</ele>
        <time>2021-02-20T07:58:52Z</time>
      </trkpt>
      <trkpt lat="45.18601" lon="5.90482">
        <ele>1203.1</ele>
        <time>2021-02-20T07:58:53Z</time>
      </trkpt>
      <trkpt lat="45.18601" lon="5.90482">
        <ele>1203.1</ele>
        <time>2021-02-20T07:58:54Z</time>
      </trkpt>
      <trkpt lat="45.18601" lon="5.90485">
        <ele>1203.4</ele>
        <time>2021-02-20T07:58:55Z</time>
      </trkpt>
      <trkpt lat="45.186" lon="5.90486">
        <ele>1203.5</ele>
        <time>2021-02-20T07:58:56Z</time>
      </trkpt>
      <trkpt lat="45.18599" lon="5.90489">
        <ele>1203.6</ele>
        <time>2021-02-20T07:58:57Z</time>
      </trkpt>
      <trkpt lat="45.18598" lon="5.90489">
        <ele>1203.7</ele>
        <time>2021-02-20T07:58:58Z</time>
      </trkpt>
      <trkpt lat="45.18598" lon="5.9049">
        <ele>1203.8</ele>
        <time>2021-02-20T07:58:59Z</time>
      </trkpt>
      <trkpt lat="45.18597" lon="5.90492">
        <ele>1203.9</ele>
        <time>2021-02-20T07:59:00Z</time>
      </trkpt>
      <trkpt lat="45.18597" lon="5.90493">
        <ele>1204</ele>
        <time>2021-02-20T07:59:01Z</time>
      </trkpt>
      <trkpt lat="45.18596" lon="5.90494">
        <ele>1204.1</ele>
        <time>2021-02-20T07:59:02Z</time>
      </trkpt>
      <trkpt lat="45.18596" lon="5.90496">
        <ele>1204.3</ele>
        <time>2021-02-20T07:59:03Z</time>
      </trkpt>
      <trkpt lat="45.18596" lon="5.90497">
        <ele>1204.4</ele>
        <time>2021-02-20T07:59:04Z</time>
      </trkpt>
      <trkpt lat="45.18596" lon="5.90497">
        <ele>1204.4</ele>
        <time>2021-02-20T07:59:05Z</time>
      </trkpt>
      <trkpt lat="45.18595" lon="5.90499">
        <ele>1204.5</ele>
        <time>2021-02-20T07:59:06Z</time>
      </trkpt>
      <trkpt lat="45.18595" lon="5.905">
        <ele>1204.6</ele>
        <time>2021-02-20T07:59:07Z</time>
      </trkpt>
      <trkpt lat="45.18594" lon="5.90501">
        <ele>1204.7</ele>
        <time>2021-02-20T07:59:08Z</time>
      </trkpt>
      <trkpt lat="45.18594" lon="5.90503">
        <ele>1204.9</ele>
        <time>2021-02-20T07:59:09Z</time>
      </trkpt>
      <trkpt lat="45.18594" lon="5.90505">
        <ele>1205</ele>
        <time>2021-02-20T07:59:10Z</time>
      </trkpt>
      <trkpt lat="45.18594" lon="5.90505">
        <ele>1205</ele>
        <time>2021-02-20T07:59:11Z</time>
      </trkpt>
      <trkpt lat="45.18594" lon="5.90507">
        <ele>1205.2</ele>
        <time>2021-02-20T07:59:12Z</time>
      </trkpt>
      <trkpt lat="45.18594" lon="5.90508">
        <ele>1205.3</ele>
        <time>2021-02-20T07:59:13Z</time>
      </trkpt>
      <trkpt lat="45.18594" lon="5.90508">
        <ele>1205.3</ele>
        <time>2021-02-20T07:59:14Z</time>
      </trkpt>
      <trkpt lat="45.18594" lon="5.90508">
        <ele>1205.3</ele>
        <time>2021-02-20T07:59:15Z</time>
      </trkpt>
      <trkpt lat="45.18594" lon="5.90511">
        <ele>1205.5</ele>
        <time>2021-02-20T07:59:16Z</time>
      </trkpt>
      <trkpt lat="45.18593" lon="5.90511">
        <ele>1205.6</ele>
        <time>2021-02-20T07:59:17Z</time>
      </trkpt>
      <trkpt lat="45.18593" lon="5.90512">
        <ele>1205.7</ele>
        <time>2021-02-20T07:59:18Z</time>
      </trkpt>
      <trkpt lat="45.18592" lon="5.90513">
        <ele>1205.8</ele>
        <time>2021-02-20T07:59:19Z</time>
      </trkpt>
      <trkpt lat="45.18591" lon="5.90515">
        <ele>1206</ele>
        <time>2021-02-20T07:59:20Z</time>
      </trkpt>
      <trkpt lat="45.18589" lon="5.90518">
        <ele>1206.3</ele>
        <time>2021-02-20T07:59:21Z</time>
      </trkpt>
      <trkpt lat="45.18589" lon="5.90519">
        <ele>1206.4</ele>
        <time>2021-02-20T07:59:22Z</time>
      </trkpt>
      <trkpt lat="45.18588" lon="5.90521">
        <ele>1206.5</ele>
        <time>2021-02-20T07:59:23Z</time>
      </trkpt>
      <trkpt lat="45.18587" lon="5.90523">
        <ele>1206.7</ele>
        <time>2021-02-20T07:59:24Z</time>
      </trkpt>
      <trkpt lat="45.18587" lon="5.90525">
        <ele>1206.8</ele>
        <time>2021-02-20T07:59:25Z</time>
      </trkpt>
      <trkpt lat="45.18587" lon="5.90526">
        <ele>1206.9</ele>
        <time>2021-02-20T07:59:26Z</time>
      </trkpt>
      <trkpt lat="45.18586" lon="5.90528">
        <ele>1207.1</ele>
        <time>2021-02-20T07:59:27Z</time>
      </trkpt>
      <trkpt lat="45.18585" lon="5.90529">
        <ele>1207.2</ele>
        <time>2021-02-20T07:59:28Z</time>
      </trkpt>
      <trkpt lat="45.18585" lon="5.90531">
        <ele>1207.3</ele>
        <time>2021-02-20T07:59:29Z</time>
      </trkpt>
      <trkpt lat="45.18584" lon="5.90532">
        <ele>1207.4</ele>
        <time>2021-02-20T07:59:30Z</time>
      </trkpt>
      <trkpt lat="45.18584" lon="5.90533">
        <ele>1207.5</ele>
        <time>2021-02-20T07:59:31Z</time>
      </trkpt>
      <trkpt lat="45.18584" lon="5.90535">
        <ele>1207.6</ele>
        <time>2021-02-20T07:59:32Z</time>
      </trkpt>
      <trkpt lat="45.18584" lon="5.90536">
        <ele>1207.7</ele>
        <time>2021-02-20T07:59:33Z</time>
      </trkpt>
      <trkpt lat="45.18584" lon="5.90537">
        <ele>1207.8</ele>
        <time>2021-02-20T07:59:34Z</time>
      </trkpt>
      <trkpt lat="45.18584" lon="5.90537">
        <ele>1207.8</ele>
        <time>2021-02-20T07:59:35Z</time>
      </trkpt>
      <trkpt lat="45.18582" lon="5.90539">
        <ele>1208</ele>
        <time>2021-02-20T07:59:36Z</time>
      </trkpt>
      <trkpt lat="45.1858" lon="5.90541">
        <ele>1208.3</ele>
        <time>2021-02-20T07:59:37Z</time>
      </trkpt>
      <trkpt lat="45.18579" lon="5.90541">
        <ele>1208.4</ele>
        <time>2021-02-20T07:59:38Z</time>
      </trkpt>
      <trkpt lat="45.18578" lon="5.90542">
        <ele>1208.5</ele>
        <time>2021-02-20T07:59:39Z</time>
      </trkpt>
      <trkpt lat="45.18577" lon="5.90543">
        <ele>1208.7</ele>
        <time>2021-02-20T07:59:40Z</time>
      </trkpt>
      <trkpt lat="45.18576" lon="5.90543">
        <ele>1208.7</ele>
        <time>2021-02-20T07:59:41Z</time>
      </trkpt>
      <trkpt lat="45.18576" lon="5.90544">
        <ele>1208.8</ele>
        <time>2021-02-20T07:59:42Z</time>
      </trkpt>
      <trkpt lat="45.18575" lon="5.90544">
        <ele>1208.9</ele>
        <time>2021-02-20T07:59:43Z</time>
      </trkpt>
      <trkpt lat="45.18574" lon="5.90545">
        <ele>1208.9</ele>
        <time>2021-02-20T07:59:44Z</time>
      </trkpt>
      <trkpt lat="45.18574" lon="5.90545">
        <ele>1209</ele>
        <time>2021-02-20T07:59:45Z</time>
      </trkpt>
      <trkpt lat="45.18573" lon="5.90546">
        <ele>1209.1</ele>
        <time>2021-02-20T07:59:46Z</time>
      </trkpt>
      <trkpt lat="45.18573" lon="5.90546">
        <ele>1209.2</ele>
        <time>2021-02-20T07:59:47Z</time>
      </trkpt>
      <trkpt lat="45.18572" lon="5.90547">
        <ele>1209.3</ele>
        <time>2021-02-20T07:59:48Z</time>
      </trkpt>
      <trkpt lat="45.18572" lon="5.90547">
        <ele>1209.3</ele>
        <time>2021-02-20T07:59:49Z</time>
      </trkpt>
      <trkpt lat="45.18571" lon="5.90548">
        <ele>1209.4</ele>
        <time>2021-02-20T07:59:50Z</time>
      </trkpt>
      <trkpt lat="45.1857" lon="5.90549">
        <ele>1209.5</ele>
        <time>2021-02-20T07:59:51Z</time>
      </trkpt>
      <trkpt lat="45.1857" lon="5.90549">
        <ele>1209.6</ele>
        <time>2021-02-20T07:59:52Z</time>
      </trkpt>
      <trkpt lat="45.1857" lon="5.9055">
        <ele>1209.6</ele>
        <time>2021-02-20T07:59:53Z</time>
      </trkpt>
      <trkpt lat="45.18568" lon="5.9055">
        <ele>1209.8</ele>
        <time>2021-02-20T07:59:54Z</time>
      </trkpt>
      <trkpt lat="45.18567" lon="5.9055">
        <ele>1209.9</ele>
        <time>2021-02-20T07:59:55Z</time>
      </trkpt>
      <trkpt lat="45.18567" lon="5.90551">
        <ele>1210</ele>
        <time>2021-02-20T07:59:56Z</time>
      </trkpt>
      <trkpt lat="45.18566" lon="5.90551">
        <ele>1210.1</ele>
        <time>2021-02-20T07:59:57Z</time>
      </trkpt>
      <trkpt lat="45.18565" lon="5.90551">
        <ele>1210.2</ele>
        <time>2021-02-20T07:59:58Z</time>
      </trkpt>
      <trkpt lat="45.18563" lon="5.90551">
        <ele>1210.4</ele>
        <time>2021-02-20T07:59:59Z</time>
      </trkpt>
      <trkpt lat="45.18562" lon="5.90552">
        <ele>1210.5</ele>
        <time>2021-02-20T08:00:00Z</time>
      </trkpt>
      <trkpt lat="45.18561" lon="5.90553">
        <ele>1210.8</ele>
        <time>2021-02-20T08:00:01Z</time>
      </trkpt>
      <trkpt lat="45.1856" lon="5.90554">
        <ele>1210.9</ele>
        <time>2021-02-20T08:00:02Z</time>
      </trkpt>
      <trkpt lat="45.18559" lon="5.90555">
        <ele>1211</ele>
        <time>2021-02-20T08:00:03Z</time>
      </trkpt>
      <trkpt lat="45.18559" lon="5.90556">
        <ele>1211.1</ele>
        <time>2021-02-20T08:00:04Z</time>
      </trkpt>
      <trkpt lat="45.18558" lon="5.90557">
        <ele>1211.2</ele>
        <time>2021-02-20T08:00:05Z</time>
      </trkpt>
      <trkpt lat="45.18558" lon="5.90559">
        <ele>1211.4</ele>
        <time>2021-02-20T08:00:06Z</time>
      </trkpt>
      <trkpt lat="45.18557" lon="5.9056">
        <ele>1211.5</ele>
        <time>2021-02-20T08:00:07Z</time>
      </trkpt>
      <trkpt lat="45.18556" lon="5.90561">
        <ele>1211.7</ele>
        <time>2021-02-20T08:00:08Z</time>
      </trkpt>
      <trkpt lat="45.18555" lon="5.90562">
        <ele>1211.7</ele>
        <time>2021-02-20T08:00:09Z</time>
      </trkpt>
      <trkpt lat="45.18555" lon="5.90562">
        <ele>1211.8</ele>
        <time>2021-02-20T08:00:10Z</time>
      </trkpt>
      <trkpt lat="45.18554" lon="5.90562">
        <ele>1211.9</ele>
        <time>2021-02-20T08:00:11Z</time>
      </trkpt>
      <trkpt lat="45.18553" lon="5.90563">
        <ele>1212</ele>
        <time>2021-02-20T08:00:12Z</time>
      </trkpt>
      <trkpt lat="45.18553" lon="5.90564">
        <ele>1212.1</ele>
        <time>2021-02-20T08:00:13Z</time>
      </trkpt>
      <trkpt lat="45.18553" lon="5.90564">
        <ele>1212.1</ele>
        <time>2021-02-20T08:00:14Z</time>
      </trkpt>
      <trkpt lat="45.18552" lon="5.90566">
        <ele>1212.3</ele>
        <time>2021-02-20T08:00:15Z</time>
      </trkpt>
      <trkpt lat="45.18552" lon="5.90566">
        <ele>1212.3</ele>
        <time>2021-02-20T08:00:16Z</time>
      </trkpt>
      <trkpt lat="45.18551" lon="5.90568">
        <ele>1212.5</ele>
        <time>2021-02-20T08:00:17Z</time>
      </trkpt>
      <trkpt lat="45.1855" lon="5.90568">
        <ele>1212.6</ele>
        <time>2021-02-20T08:00:18Z</time>
      </trkpt>
      <trkpt lat="45.18549" lon="5.90568">
        <ele>1212.7</ele>
        <time>2021-02-20T08:00:19Z</time>
      </trkpt>
      <trkpt lat="45.18548" lon="5.90568">
        <ele>1212.9</ele>
        <time>2021-02-20T08:00:20Z</time>
      </trkpt>
      <trkpt lat="45.18547" lon="5.90568">
        <ele>1213</ele>
        <time>2021-02-20T08:00:21Z</time>
      </trkpt>
      <trkpt lat="45.18546" lon="5.90567">
        <ele>1213.1</ele>
        <time>2021-02-20T08:00:22Z</time>
      </trkpt>
      <trkpt lat="45.18546" lon="5.90567">
        <ele>1213.2</ele>
        <time>2021-02-20T08:00:23Z</time>
      </trkpt>
      <trkpt lat="45.18545" lon="5.90567">
        <ele>1213.3</ele>
        <time>2021-02-20T08:00:24Z</time>
      </trkpt>
      <trkpt lat="45.18544" lon="5.90567">
        <ele>1213.4</ele>
        <time>2021-02-20T08:00:25Z</time>
      </trkpt>
      <trkpt lat="45.18543" lon="5.90567">
        <ele>1213.5</ele>
        <time>2021-02-20T08:00:26Z</time>
      </trkpt>
      <trkpt lat="45.18542" lon="5.90568">
        <ele>1213.6</ele>
        <time>2021-02-20T08:00:27Z</time>
      </trkpt>
      <trkpt lat="45.18542" lon="5.90568">
        <ele>1213.6</ele>
        <time>2021-02-20T08:00:28Z</time>
      </trkpt>
      <trkpt lat="45.1854" lon="5.9057">
        <ele>1213.9</ele>
        <time>2021-02-20T08:00:29Z</time>
      </trkpt>
      <trkpt lat="45.18539" lon="5.90571">
        <ele>1214.1</ele>
        <time>2021-02-20T08:00:30Z</time>
      </trkpt>
      <trkpt lat="45.18538" lon="5.90572">
        <ele>1214.3</ele>
        <time>2021-02-20T08:00:31Z</time>
      </trkpt>
      <trkpt lat="45.18537" lon="5.90572">
        <ele>1214.4</ele>
        <time>2021-02-20T08:00:32Z</time>
      </trkpt>
      <trkpt lat="45.18535" lon="5.90573">
        <ele>1214.6</ele>
        <time>2021-02-20T08:00:33Z</time>
      </trkpt>
      <trkpt lat="45.18534" lon="5.90574">
        <ele>1214.8</ele>
        <time>2021-02-20T08:00:34Z</time>
      </trkpt>
      <trkpt lat="45.18532" lon="5.90575">
        <ele>1215</ele>
        <time>2021-02-20T08:00:35Z</time>
      </trkpt>
      <trkpt lat="45.18532" lon="5.90575">
        <ele>1215</ele>
        <time>2021-02-20T08:00:36Z</time>
      </trkpt>
      <trkpt lat="45.1853" lon="5.90578">
        <ele>1215.4</ele>
        <time>2021-02-20T08:00:37Z</time>
      </trkpt>
      <trkpt lat="45.18528" lon="5.90579">
        <ele>1215.6</ele>
        <time>2021-02-20T08:00:38Z</time>
      </trkpt>
      <trkpt lat="45.18527" lon="5.90579">
        <ele>1215.7</ele>
        <time>2021-02-20T08:00:39Z</time>
      </trkpt>
      <trkpt lat="45.18527" lon="5.90579">
        <ele>1215.9</ele>
        <time>2021-02-20T08:00:40Z</time>
      </trkpt>
      <trkpt lat="45.18526" lon="5.9058">
        <ele>1216</ele>
        <time>2021-02-20T08:00:41Z</time>
      </trkpt>
      <trkpt lat="45.18525" lon="5.9058">
        <ele>1216.1</ele>
        <time>2021-02-20T08:00:42Z</time>
      </trkpt>
      <trkpt lat="45.18524" lon="5.90581">
        <ele>1216.2</ele>
        <time>2021-02-20T08:00:43Z</time>
      </trkpt>
      <trkpt lat="45.18523" lon="5.90582">
        <ele>1216.4</ele>
        <time>2021-02-20T08:00:44Z</time>
      </trkpt>
      <trkpt lat="45.18521" lon="5.90583">
        <ele>1216.6</ele>
        <time>2021-02-20T08:00:45Z</time>
      </trkpt>
      <trkpt lat="45.1852" lon="5.90584">
        <ele>1216.7</ele>
        <time>2021-02-20T08:00:46Z</time>
      </trkpt>
      <trkpt lat="45.18519" lon="5.90585">
        <ele>1216.9</ele>
        <time>2021-02-20T08:00:47Z</time>
      </trkpt>
      <trkpt lat="45.18519" lon="5.90586">
        <ele>1217</ele>
        <time>2021-02-20T08:00:48Z</time>
      </trkpt>
      <trkpt lat="45.18519" lon="5.90586">
        <ele>1217</ele>
        <time>2021-02-20T08:00:49Z</time>
      </trkpt>
      <trkpt lat="45.18518" lon="5.90586">
        <ele>1217.2</ele>
        <time>2021-02-20T08:00:50Z</time>
      </trkpt>
      <trkpt lat="45.18517" lon="5.90586">
        <ele>1217.3</ele>
        <time>2021-02-20T08:00:51Z</time>
      </trkpt>
      <trkpt lat="45.18516" lon="5.90585">
        <ele>1217.4</ele>
        <time>2021-02-20T08:00:52Z</time>
      </trkpt>
      <trkpt lat="45.18515" lon="5.90585">
        <ele>1218.4</ele>
        <time>2021-02-20T08:00:53Z</time>
      </trkpt>
      <trkpt lat="45.18514" lon="5.90585">
        <ele>1218.6</ele>
        <time>2021-02-20T08:00:54Z</time>
      </trkpt>
      <trkpt lat="45.18514" lon="5.90585">
        <ele>1218.8</ele>
        <time>2021-02-20T08:00:55Z</time>
      </trkpt>
      <trkpt lat="45.18513" lon="5.90585">
        <ele>1219</ele>
        <time>2021-02-20T08:00:56Z</time>
      </trkpt>
      <trkpt lat="45.18513" lon="5.90585">
        <ele>1219</ele>
        <time>2021-02-20T08:00:57Z</time>
      </trkpt>
      <trkpt lat="45.18513" lon="5.90585">
        <ele>1219</ele>
        <time>2021-02-20T08:00:58Z</time>
      </trkpt>
      <trkpt lat="45.18512" lon="5.90587">
        <ele>1219.4</ele>
        <time>2021-02-20T08:00:59Z</time>
      </trkpt>
      <trkpt lat="45.18512" lon="5.90587">
        <ele>1219.6</ele>
        <time>2021-02-20T08:01:00Z</time>
      </trkpt>
      <trkpt lat="45.18511" lon="5.90587">
        <ele>1219.7</ele>
        <time>2021-02-20T08:01:01Z</time>
      </trkpt>
      <trkpt lat="45.18511" lon="5.90588">
        <ele>1219.9</ele>
        <time>2021-02-20T08:01:02Z</time>
      </trkpt>
      <trkpt lat="45.1851" lon="5.90588">
        <ele>1220.1</ele>
        <time>2021-02-20T08:01:03Z</time>
      </trkpt>
      <trkpt lat="45.18509" lon="5.90589">
        <ele>1220.3</ele>
        <time>2021-02-20T08:01:04Z</time>
      </trkpt>
      <trkpt lat="45.18509" lon="5.9059">
        <ele>1220.6</ele>
        <time>2021-02-20T08:01:05Z</time>
      </trkpt>
      <trkpt lat="45.18508" lon="5.9059">
        <ele>1220.8</ele>
        <time>2021-02-20T08:01:06Z</time>
      </trkpt>
      <trkpt lat="45.18508" lon="5.90591">
        <ele>1221</ele>
        <time>2021-02-20T08:01:07Z</time>
      </trkpt>
      <trkpt lat="45.18506" lon="5.90592">
        <ele>1221.3</ele>
        <time>2021-02-20T08:01:08Z</time>
      </trkpt>
      <trkpt lat="45.18506" lon="5.90592">
        <ele>1221.6</ele>
        <time>2021-02-20T08:01:09Z</time>
      </trkpt>
      <trkpt lat="45.18505" lon="5.90592">
        <ele>1221.9</ele>
        <time>2021-02-20T08:01:10Z</time>
      </trkpt>
      <trkpt lat="45.18504" lon="5.90592">
        <ele>1222.2</ele>
        <time>2021-02-20T08:01:11Z</time>
      </trkpt>
      <trkpt lat="45.18503" lon="5.90593">
        <ele>1222.4</ele>
        <time>2021-02-20T08:01:12Z</time>
      </trkpt>
      <trkpt lat="45.18502" lon="5.90594">
        <ele>1222.8</ele>
        <time>2021-02-20T08:01:13Z</time>
      </trkpt>
      <trkpt lat="45.18502" lon="5.90596">
        <ele>1223.1</ele>
        <time>2021-02-20T08:01:14Z</time>
      </trkpt>
      <trkpt lat="45.18501" lon="5.90597">
        <ele>1223.4</ele>
        <time>2021-02-20T08:01:15Z</time>
      </trkpt>
      <trkpt lat="45.185" lon="5.90598">
        <ele>1223.8</ele>
        <time>2021-02-20T08:01:16Z</time>
      </trkpt>
      <trkpt lat="45.18499" lon="5.90599">
        <ele>1224.2</ele>
        <time>2021-02-20T08:01:17Z</time>
      </trkpt>
      <trkpt lat="45.18497" lon="5.906">
        <ele>1224.8</ele>
        <time>2021-02-20T08:01:18Z</time>
      </trkpt>
      <trkpt lat="45.18497" lon="5.90601">
        <ele>1225.1</ele>
        <time>2021-02-20T08:01:19Z</time>
      </trkpt>
      <trkpt lat="45.18496" lon="5.90602">
        <ele>1225.3</ele>
        <time>2021-02-20T08:01:20Z</time>
      </trkpt>
      <trkpt lat="45.18495" lon="5.90603">
        <ele>1225.7</ele>
        <time>2021-02-20T08:01:21Z</time>
      </trkpt>
      <trkpt lat="45.18495" lon="5.90604">
        <ele>1226</ele>
        <time>2021-02-20T08:01:22Z</time>
      </trkpt>
      <trkpt lat="45.18494" lon="5.90606">
        <ele>1226.3</ele>
        <time>2021-02-20T08:01:23Z</time>
      </trkpt>
      <trkpt lat="45.18494" lon="5.90608">
        <ele>1226.7</ele>
        <time>2021-02-20T08:01:24Z</time>
      </trkpt>
      <trkpt lat="45.18493" lon="5.90609">
        <ele>1227.1</ele>
        <time>2021-02-20T08:01:25Z</time>
      </trkpt>
      <trkpt lat="45.18492" lon="5.9061">
        <ele>1227.5</ele>
        <time>2021-02-20T08:01:26Z</time>
      </trkpt>
      <trkpt lat="45.18491" lon="5.90611">
        <ele>1227.8</ele>
        <time>2021-02-20T08:01:27Z</time>
      </trkpt>
      <trkpt lat="45.1849" lon="5.90612">
        <ele>1228.2</ele>
        <time>2021-02-20T08:01:28Z</time>
      </trkpt>
      <trkpt lat="45.18489" lon="5.90612">
        <ele>1228.5</ele>
        <time>2021-02-20T08:01:29Z</time>
      </trkpt>
      <trkpt lat="45.18488" lon="5.90613">
        <ele>1229</ele>
        <time>2021-02-20T08:01:30Z</time>
      </trkpt>
      <trkpt lat="45.18485" lon="5.90614">
        <ele>1229.6</ele>
        <time>2021-02-20T08:01:31Z</time>
      </trkpt>
      <trkpt lat="45.18485" lon="5.90614">
        <ele>1229.8</ele>
        <time>2021-02-20T08:01:32Z</time>
      </trkpt>
      <trkpt lat="45.18484" lon="5.90614">
        <ele>1230</ele>
        <time>2021-02-20T08:01:33Z</time>
      </trkpt>
      <trkpt lat="45.18483" lon="5.90614">
        <ele>1230.3</ele>
        <time>2021-02-20T08:01:34Z</time>
      </trkpt>
      <trkpt lat="45.18482" lon="5.90614">
        <ele>1230.6</ele>
        <time>2021-02-20T08:01:35Z</time>
      </trkpt>
      <trkpt lat="45.18481" lon="5.90614">
        <ele>1230.9</ele>
        <time>2021-02-20T08:01:36Z</time>
      </trkpt>
      <trkpt lat="45.1848" lon="5.90614">
        <ele>1231.1</ele>
        <time>2021-02-20T08:01:37Z</time>
      </trkpt>
      <trkpt lat="45.18479" lon="5.90614">
        <ele>1231.3</ele>
        <time>2021-02-20T08:01:38Z</time>
      </trkpt>
      <trkpt lat="45.18479" lon="5.90614">
        <ele>1231.4</ele>
        <time>2021-02-20T08:01:39Z</time>
      </trkpt>
      <trkpt lat="45.18478" lon="5.90613">
        <ele>1231.7</ele>
        <time>2021-02-20T08:01:40Z</time>
      </trkpt>
      <trkpt lat="45.18477" lon="5.90613">
        <ele>1232</ele>
        <time>2021-02-20T08:01:41Z</time>
      </trkpt>
      <trkpt lat="45.18476" lon="5.90613">
        <ele>1232.3</ele>
        <time>2021-02-20T08:01:42Z</time>
      </trkpt>
      <trkpt lat="45.18475" lon="5.90613">
        <ele>1232.6</ele>
        <time>2021-02-20T08:01:43Z</time>
      </trkpt>
      <trkpt lat="45.18474" lon="5.90613">
        <ele>1232.8</ele>
        <time>2021-02-20T08:01:44Z</time>
      </trkpt>
      <trkpt lat="45.18473" lon="5.90614">
        <ele>1233</ele>
        <time>2021-02-20T08:01:45Z</time>
      </trkpt>
      <trkpt lat="45.18472" lon="5.90614">
        <ele>1233.3</ele>
        <time>2021-02-20T08:01:46Z</time>
      </trkpt>
      <trkpt lat="45.18471" lon="5.90615">
        <ele>1233.5</ele>
        <time>2021-02-20T08:01:47Z</time>
      </trkpt>
      <trkpt lat="45.1847" lon="5.90616">
        <ele>1233.7</ele>
        <time>2021-02-20T08:01:48Z</time>
      </trkpt>
      <trkpt lat="45.18469" lon="5.90617">
        <ele>1234</ele>
        <time>2021-02-20T08:01:49Z</time>
      </trkpt>
      <trkpt lat="45.18468" lon="5.90618">
        <ele>1234.3</ele>
        <time>2021-02-20T08:01:50Z</time>
      </trkpt>
      <trkpt lat="45.18468" lon="5.90619">
        <ele>1234.5</ele>
        <time>2021-02-20T08:01:51Z</time>
      </trkpt>
      <trkpt lat="45.18467" lon="5.9062">
        <ele>1234.7</ele>
        <time>2021-02-20T08:01:52Z</time>
      </trkpt>
      <trkpt lat="45.18466" lon="5.90621">
        <ele>1235</ele>
        <time>2021-02-20T08:01:53Z</time>
      </trkpt>
      <trkpt lat="45.18465" lon="5.90623">
        <ele>1235.3</ele>
        <time>2021-02-20T08:01:54Z</time>
      </trkpt>
      <trkpt lat="45.18463" lon="5.90625">
        <ele>1235.7</ele>
        <time>2021-02-20T08:01:55Z</time>
      </trkpt>
      <trkpt lat="45.18463" lon="5.90626">
        <ele>1235.9</ele>
        <time>2021-02-20T08:01:56Z</time>
      </trkpt>
      <trkpt lat="45.18462" lon="5.90627">
        <ele>1236.1</ele>
        <time>2021-02-20T08:01:57Z</time>
      </trkpt>
      <trkpt lat="45.18461" lon="5.90628">
        <ele>1236.3</ele>
        <time>2021-02-20T08:01:58Z</time>
      </trkpt>
      <trkpt lat="45.18459" lon="5.90628">
        <ele>1236.6</ele>
        <time>2021-02-20T08:01:59Z</time>
      </trkpt>
      <trkpt lat="45.18458" lon="5.90628">
        <ele>1236.8</ele>
        <time>2021-02-20T08:02:00Z</time>
      </trkpt>
      <trkpt lat="45.18457" lon="5.90629">
        <ele>1237</ele>
        <time>2021-02-20T08:02:01Z</time>
      </trkpt>
      <trkpt lat="45.18456" lon="5.9063">
        <ele>1237.2</ele>
        <time>2021-02-20T08:02:02Z</time>
      </trkpt>
      <trkpt lat="45.18455" lon="5.90631">
        <ele>1237.5</ele>
        <time>2021-02-20T08:02:03Z</time>
      </trkpt>
      <trkpt lat="45.18454" lon="5.90632">
        <ele>1237.7</ele>
        <time>2021-02-20T08:02:04Z</time>
      </trkpt>
      <trkpt lat="45.18453" lon="5.90633">
        <ele>1237.8</ele>
        <time>2021-02-20T08:02:05Z</time>
      </trkpt>
      <trkpt lat="45.18452" lon="5.90634">
        <ele>1238</ele>
        <time>2021-02-20T08:02:06Z</time>
      </trkpt>
      <trkpt lat="45.18451" lon="5.90636">
        <ele>1238.3</ele>
        <time>2021-02-20T08:02:07Z</time>
      </trkpt>
      <trkpt lat="45.1845" lon="5.90639">
        <ele>1238.6</ele>
        <time>2021-02-20T08:02:08Z</time>
      </trkpt>
      <trkpt lat="45.1845" lon="5.9064">
        <ele>1238.8</ele>
        <time>2021-02-20T08:02:09Z</time>
      </trkpt>
      <trkpt lat="45.1845" lon="5.90642">
        <ele>1238.9</ele>
        <time>2021-02-20T08:02:10Z</time>
      </trkpt>
      <trkpt lat="45.18449" lon="5.90643">
        <ele>1239.1</ele>
        <time>2021-02-20T08:02:11Z</time>
      </trkpt>
      <trkpt lat="45.18448" lon="5.90644">
        <ele>1239.3</ele>
        <time>2021-02-20T08:02:12Z</time>
      </trkpt>
      <trkpt lat="45.18447" lon="5.90645">
        <ele>1239.4</ele>
        <time>2021-02-20T08:02:13Z</time>
      </trkpt>
      <trkpt lat="45.18447" lon="5.90645">
        <ele>1239.4</ele>
        <time>2021-02-20T08:02:14Z</time>
      </trkpt>
      <trkpt lat="45.18446" lon="5.90645">
        <ele>1239.5</ele>
        <time>2021-02-20T08:02:15Z</time>
      </trkpt>
      <trkpt lat="45.18446" lon="5.90645">
        <ele>1239.6</ele>
        <time>2021-02-20T08:02:16Z</time>
      </trkpt>
      <trkpt lat="45.18445" lon="5.90646">
        <ele>1239.7</ele>
        <time>2021-02-20T08:02:17Z</time>
      </trkpt>
      <trkpt lat="45.18444" lon="5.90646">
        <ele>1239.8</ele>
        <time>2021-02-20T08:02:18Z</time>
      </trkpt>
      <trkpt lat="45.18443" lon="5.90648">
        <ele>1240.1</ele>
        <time>2021-02-20T08:02:19Z</time>
      </trkpt>
      <trkpt lat="45.18443" lon="5.90649">
        <ele>1240.2</ele>
        <time>2021-02-20T08:02:20Z</time>
      </trkpt>
      <trkpt lat="45.18442" lon="5.9065">
        <ele>1240.3</ele>
        <time>2021-02-20T08:02:21Z</time>
      </trkpt>
      <trkpt lat="45.18441" lon="5.90651">
        <ele>1240.5</ele>
        <time>2021-02-20T08:02:22Z</time>
      </trkpt>
      <trkpt lat="45.1844" lon="5.90653">
        <ele>1240.7</ele>
        <time>2021-02-20T08:02:23Z</time>
      </trkpt>
      <trkpt lat="45.18438" lon="5.90655">
        <ele>1241</ele>
        <time>2021-02-20T08:02:24Z</time>
      </trkpt>
      <trkpt lat="45.18438" lon="5.90656">
        <ele>1241</ele>
        <time>2021-02-20T08:02:25Z</time>
      </trkpt>
      <trkpt lat="45.18438" lon="5.90657">
        <ele>1241.1</ele>
        <time>2021-02-20T08:02:26Z</time>
      </trkpt>
      <trkpt lat="45.18436" lon="5.90658">
        <ele>1241.2</ele>
        <time>2021-02-20T08:02:27Z</time>
      </trkpt>
      <trkpt lat="45.18436" lon="5.90658">
        <ele>1241.3</ele>
        <time>2021-02-20T08:02:28Z</time>
      </trkpt>
      <trkpt lat="45.18435" lon="5.90659">
        <ele>1241.4</ele>
        <time>2021-02-20T08:02:29Z</time>
      </trkpt>
      <trkpt lat="45.18435" lon="5.90661">
        <ele>1241.5</ele>
        <time>2021-02-20T08:02:30Z</time>
      </trkpt>
      <trkpt lat="45.18434" lon="5.90662">
        <ele>1241.6</ele>
        <time>2021-02-20T08:02:31Z</time>
      </trkpt>
      <trkpt lat="45.18433" lon="5.90663">
        <ele>1241.7</ele>
        <time>2021-02-20T08:02:32Z</time>
      </trkpt>
      <trkpt lat="45.18433" lon="5.90664">
        <ele>1241.7</ele>
        <time>2021-02-20T08:02:33Z</time>
      </trkpt>
      <trkpt lat="45.18432" lon="5.90666">
        <ele>1241.8</ele>
        <time>2021-02-20T08:02:34Z</time>
      </trkpt>
      <trkpt lat="45.18431" lon="5.90668">
        <ele>1242</ele>
        <time>2021-02-20T08:02:35Z</time>
      </trkpt>
      <trkpt lat="45.18431" lon="5.9067">
        <ele>1242.2</ele>
        <time>2021-02-20T08:02:36Z</time>
      </trkpt>
      <trkpt lat="45.18431" lon="5.90673">
        <ele>1242.3</ele>
        <time>2021-02-20T08:02:37Z</time>
      </trkpt>
      <trkpt lat="45.1843" lon="5.90675">
        <ele>1242.5</ele>
        <time>2021-02-20T08:02:38Z</time>
      </trkpt>
      <trkpt lat="45.1843" lon="5.90675">
        <ele>1242.5</ele>
        <time>2021-02-20T08:02:39Z</time>
      </trkpt>
      <trkpt lat="45.1843" lon="5.90677">
        <ele>1242.7</ele>
        <time>2021-02-20T08:02:40Z</time>
      </trkpt>
      <trkpt lat="45.18429" lon="5.90679">
        <ele>1242.8</ele>
        <time>2021-02-20T08:02:41Z</time>
      </trkpt>
      <trkpt lat="45.18428" lon="5.90682">
        <ele>1243.1</ele>
        <time>2021-02-20T08:02:42Z</time>
      </trkpt>
      <trkpt lat="45.18427" lon="5.90683">
        <ele>1243.2</ele>
        <time>2021-02-20T08:02:43Z</time>
      </trkpt>
      <trkpt lat="45.18427" lon="5.90684">
        <ele>1243.3</ele>
        <time>2021-02-20T08:02:44Z</time>
      </trkpt>
      <trkpt lat="45.18427" lon="5.90686">
        <ele>1243.4</ele>
        <time>2021-02-20T08:02:45Z</time>
      </trkpt>
      <trkpt lat="45.18426" lon="5.90688">
        <ele>1243.6</ele>
        <time>2021-02-20T08:02:46Z</time>
      </trkpt>
      <trkpt lat="45.18426" lon="5.90688">
        <ele>1243.6</ele>
        <time>2021-02-20T08:02:47Z</time>
      </trkpt>
      <trkpt lat="45.18426" lon="5.90691">
        <ele>1244</ele>
        <time>2021-02-20T08:02:48Z</time>
      </trkpt>
      <trkpt lat="45.18426" lon="5.90693">
        <ele>1244.1</ele>
        <time>2021-02-20T08:02:49Z</time>
      </trkpt>
      <trkpt lat="45.18425" lon="5.90695">
        <ele>1244.3</ele>
        <time>2021-02-20T08:02:50Z</time>
      </trkpt>
      <trkpt lat="45.18425" lon="5.90697">
        <ele>1244.5</ele>
        <time>2021-02-20T08:02:51Z</time>
      </trkpt>
      <trkpt lat="45.18425" lon="5.90698">
        <ele>1244.6</ele>
        <time>2021-02-20T08:02:52Z</time>
      </trkpt>
      <trkpt lat="45.18425" lon="5.90702">
        <ele>1244.9</ele>
        <time>2021-02-20T08:02:53Z</time>
      </trkpt>
      <trkpt lat="45.18425" lon="5.90703">
        <ele>1245.1</ele>
        <time>2021-02-20T08:02:54Z</time>
      </trkpt>
      <trkpt lat="45.18425" lon="5.90704">
        <ele>1245.2</ele>
        <time>2021-02-20T08:02:55Z</time>
      </trkpt>
      <trkpt lat="45.18426" lon="5.90706">
        <ele>1245.4</ele>
        <time>2021-02-20T08:02:56Z</time>
      </trkpt>
      <trkpt lat="45.18426" lon="5.90708">
        <ele>1245.6</ele>
        <time>2021-02-20T08:02:57Z</time>
      </trkpt>
      <trkpt lat="45.18426" lon="5.90709">
        <ele>1245.7</ele>
        <time>2021-02-20T08:02:58Z</time>
      </trkpt>
      <trkpt lat="45.18427" lon="5.9071">
        <ele>1245.9</ele>
        <time>2021-02-20T08:02:59Z</time>
      </trkpt>
      <trkpt lat="45.18428" lon="5.90711">
        <ele>1246.1</ele>
        <time>2021-02-20T08:03:00Z</time>
      </trkpt>
      <trkpt lat="45.18429" lon="5.90713">
        <ele>1246.3</ele>
        <time>2021-02-20T08:03:01Z</time>
      </trkpt>
      <trkpt lat="45.18429" lon="5.90714">
        <ele>1246.5</ele>
        <time>2021-02-20T08:03:02Z</time>
      </trkpt>
      <trkpt lat="45.18429" lon="5.90716">
        <ele>1246.7</ele>
        <time>2021-02-20T08:03:03Z</time>
      </trkpt>
      <trkpt lat="45.18428" lon="5.90717">
        <ele>1246.8</ele>
        <time>2021-02-20T08:03:04Z</time>
      </trkpt>
      <trkpt lat="45.18428" lon="5.90718">
        <ele>1246.9</ele>
        <time>2021-02-20T08:03:05Z</time>
      </trkpt>
      <trkpt lat="45.18428" lon="5.90719">
        <ele>1247.1</ele>
        <time>2021-02-20T08:03:06Z</time>
      </trkpt>
      <trkpt lat="45.18427" lon="5.9072">
        <ele>1247.2</ele>
        <time>2021-02-20T08:03:07Z</time>
      </trkpt>
      <trkpt lat="45.18427" lon="5.90721">
        <ele>1247.3</ele>
        <time>2021-02-20T08:03:08Z</time>
      </trkpt>
      <trkpt lat="45.18427" lon="5.90722">
        <ele>1247.5</ele>
        <time>2021-02-20T08:03:09Z</time>
      </trkpt>
      <trkpt lat="45.18427" lon="5.90724">
        <ele>1247.7</ele>
        <time>2021-02-20T08:03:10Z</time>
      </trkpt>
      <trkpt lat="45.18428" lon="5.90725">
        <ele>1247.9</ele>
        <time>2021-02-20T08:03:11Z</time>
      </trkpt>
      <trkpt lat="45.18428" lon="5.90727">
        <ele>1248.1</ele>
        <time>2021-02-20T08:03:12Z</time>
      </trkpt>
      <trkpt lat="45.18428" lon="5.90729">
        <ele>1248.3</ele>
        <time>2021-02-20T08:03:13Z</time>
      </trkpt>
      <trkpt lat="45.18428" lon="5.90729">
        <ele>1248.4</ele>
        <time>2021-02-20T08:03:14Z</time>
      </trkpt>
      <trkpt lat="45.18428" lon="5.9073">
        <ele>1248.4</ele>
        <time>2021-02-20T08:03:15Z</time>
      </trkpt>
      <trkpt lat="45.18428" lon="5.9073">
        <ele>1248.5</ele>
        <time>2021-02-20T08:03:16Z</time>
      </trkpt>
      <trkpt lat="45.18427" lon="5.90731">
        <ele>1248.6</ele>
        <time>2021-02-20T08:03:17Z</time>
      </trkpt>
      <trkpt lat="45.18427" lon="5.90731">
        <ele>1248.6</ele>
        <time>2021-02-20T08:03:18Z</time>
      </trkpt>
      <trkpt lat="45.18427" lon="5.90732">
        <ele>1248.7</ele>
        <time>2021-02-20T08:03:19Z</time>
      </trkpt>
      <trkpt lat="45.18427" lon="5.90733">
        <ele>1248.8</ele>
        <time>2021-02-20T08:03:20Z</time>
      </trkpt>
      <trkpt lat="45.18428" lon="5.90734">
        <ele>1249</ele>
        <time>2021-02-20T08:03:21Z</time>
      </trkpt>
      <trkpt lat="45.18429" lon="5.90736">
        <ele>1249.4</ele>
        <time>2021-02-20T08:03:22Z</time>
      </trkpt>
      <trkpt lat="45.18431" lon="5.90737">
        <ele>1249.7</ele>
        <time>2021-02-20T08:03:23Z</time>
      </trkpt>
      <trkpt lat="45.18432" lon="5.90737">
        <ele>1249.9</ele>
        <time>2021-02-20T08:03:24Z</time>
      </trkpt>
      <trkpt lat="45.18433" lon="5.90737">
        <ele>1250</ele>
        <time>2021-02-20T08:03:25Z</time>
      </trkpt>
      <trkpt lat="45.18435" lon="5.90737">
        <ele>1250.4</ele>
        <time>2021-02-20T08:03:26Z</time>
      </trkpt>
      <trkpt lat="45.18436" lon="5.90738">
        <ele>1250.7</ele>
        <time>2021-02-20T08:03:27Z</time>
      </trkpt>
      <trkpt lat="45.18437" lon="5.90739">
        <ele>1250.9</ele>
        <time>2021-02-20T08:03:28Z</time>
      </trkpt>
      <trkpt lat="45.18438" lon="5.9074">
        <ele>1251.1</ele>
        <time>2021-02-20T08:03:29Z</time>
      </trkpt>
      <trkpt lat="45.18438" lon="5.90742">
        <ele>1251.3</ele>
        <time>2021-02-20T08:03:30Z</time>
      </trkpt>
      <trkpt lat="45.18438" lon="5.90743">
        <ele>1251.5</ele>
        <time>2021-02-20T08:03:31Z</time>
      </trkpt>
      <trkpt lat="45.18439" lon="5.90744">
        <ele>1251.6</ele>
        <time>2021-02-20T08:03:32Z</time>
      </trkpt>
      <trkpt lat="45.18439" lon="5.90745">
        <ele>1251.8</ele>
        <time>2021-02-20T08:03:33Z</time>
      </trkpt>
      <trkpt lat="45.18439" lon="5.90746">
        <ele>1252</ele>
        <time>2021-02-20T08:03:34Z</time>
      </trkpt>
      <trkpt lat="45.18442" lon="5.90748">
        <ele>1252.5</ele>
        <time>2021-02-20T08:03:35Z</time>
      </trkpt>
      <trkpt lat="45.18443" lon="5.90749">
        <ele>1252.7</ele>
        <time>2021-02-20T08:03:36Z</time>
      </trkpt>
      <trkpt lat="45.18445" lon="5.90752">
        <ele>1253.3</ele>
        <time>2021-02-20T08:03:37Z</time>
      </trkpt>
      <trkpt lat="45.18446" lon="5.90753">
        <ele>1253.5</ele>
        <time>2021-02-20T08:03:38Z</time>
      </trkpt>
      <trkpt lat="45.18447" lon="5.90755">
        <ele>1253.9</ele>
        <time>2021-02-20T08:03:39Z</time>
      </trkpt>
      <trkpt lat="45.18448" lon="5.90757">
        <ele>1254.2</ele>
        <time>2021-02-20T08:03:40Z</time>
      </trkpt>
      <trkpt lat="45.18448" lon="5.9076">
        <ele>1254.6</ele>
        <time>2021-02-20T08:03:41Z</time>
      </trkpt>
      <trkpt lat="45.18448" lon="5.90761">
        <ele>1254.8</ele>
        <time>2021-02-20T08:03:42Z</time>
      </trkpt>
      <trkpt lat="45.18448" lon="5.90762">
        <ele>1254.9</ele>
        <time>2021-02-20T08:03:43Z</time>
      </trkpt>
      <trkpt lat="45.18448" lon="5.90763">
        <ele>1255.1</ele>
        <time>2021-02-20T08:03:44Z</time>
      </trkpt>
      <trkpt lat="45.18447" lon="5.90764">
        <ele>1255.2</ele>
        <time>2021-02-20T08:03:45Z</time>
      </trkpt>
      <trkpt lat="45.18447" lon="5.90765">
        <ele>1255.4</ele>
        <time>2021-02-20T08:03:46Z</time>
      </trkpt>
      <trkpt lat="45.18447" lon="5.90765">
        <ele>1255.4</ele>
        <time>2021-02-20T08:03:47Z</time>
      </trkpt>
      <trkpt lat="45.18447" lon="5.90766">
        <ele>1255.5</ele>
        <time>2021-02-20T08:03:48Z</time>
      </trkpt>
      <trkpt lat="45.18447" lon="5.90766">
        <ele>1255.6</ele>
        <time>2021-02-20T08:03:49Z</time>
      </trkpt>
      <trkpt lat="45.18447" lon="5.90767">
        <ele>1255.8</ele>
        <time>2021-02-20T08:03:50Z</time>
      </trkpt>
      <trkpt lat="45.18448" lon="5.90768">
        <ele>1255.9</ele>
        <time>2021-02-20T08:03:51Z</time>
      </trkpt>
      <trkpt lat="45.18448" lon="5.90769">
        <ele>1256</ele>
        <time>2021-02-20T08:03:52Z</time>
      </trkpt>
      <trkpt lat="45.18448" lon="5.9077">
        <ele>1256.1</ele>
        <time>2021-02-20T08:03:53Z</time>
      </trkpt>
      <trkpt lat="45.18449" lon="5.9077">
        <ele>1256.2</ele>
        <time>2021-02-20T08:03:54Z</time>
      </trkpt>
      <trkpt lat="45.1845" lon="5.9077">
        <ele>1256.4</ele>
        <time>2021-02-20T08:03:55Z</time>
      </trkpt>
      <trkpt lat="45.1845" lon="5.90771">
        <ele>1256.6</ele>
        <time>2021-02-20T08:03:56Z</time>
      </trkpt>
      <trkpt lat="45.18451" lon="5.90773">
        <ele>1256.9</ele>
        <time>2021-02-20T08:03:57Z</time>
      </trkpt>
      <trkpt lat="45.18453" lon="5.90774">
        <ele>1257.2</ele>
        <time>2021-02-20T08:03:58Z</time>
      </trkpt>
      <trkpt lat="45.18455" lon="5.90777">
        <ele>1257.7</ele>
        <time>2021-02-20T08:03:59Z</time>
      </trkpt>
      <trkpt lat="45.18456" lon="5.90777">
        <ele>1257.9</ele>
        <time>2021-02-20T08:04:00Z</time>
      </trkpt>
      <trkpt lat="45.18458" lon="5.90779">
        <ele>1258.3</ele>
        <time>2021-02-20T08:04:01Z</time>
      </trkpt>
      <trkpt lat="45.18459" lon="5.90779">
        <ele>1258.6</ele>
        <time>2021-02-20T08:04:02Z</time>
      </trkpt>
      <trkpt lat="45.1846" lon="5.9078">
        <ele>1258.9</ele>
        <time>2021-02-20T08:04:03Z</time>
      </trkpt>
      <trkpt lat="45.1846" lon="5.9078">
        <ele>1258.9</ele>
        <time>2021-02-20T08:04:04Z</time>
      </trkpt>
      <trkpt lat="45.18461" lon="5.90781">
        <ele>1259.2</ele>
        <time>2021-02-20T08:04:05Z</time>
      </trkpt>
      <trkpt lat="45.18462" lon="5.90781">
        <ele>1259.3</ele>
        <time>2021-02-20T08:04:06Z</time>
      </trkpt>
      <trkpt lat="45.18462" lon="5.90783">
        <ele>1259.5</ele>
        <time>2021-02-20T08:04:07Z</time>
      </trkpt>
      <trkpt lat="45.18462" lon="5.90784">
        <ele>1259.7</ele>
        <time>2021-02-20T08:04:08Z</time>
      </trkpt>
      <trkpt lat="45.18462" lon="5.90785">
        <ele>1259.8</ele>
        <time>2021-02-20T08:04:09Z</time>
      </trkpt>
      <trkpt lat="45.18463" lon="5.90786">
        <ele>1260.1</ele>
        <time>2021-02-20T08:04:10Z</time>
      </trkpt>
      <trkpt lat="45.18464" lon="5.90787">
        <ele>1260.3</ele>
        <time>2021-02-20T08:04:11Z</time>
      </trkpt>
      <trkpt lat="45.18465" lon="5.90787">
        <ele>1260.5</ele>
        <time>2021-02-20T08:04:12Z</time>
      </trkpt>
      <trkpt lat="45.18466" lon="5.90788">
        <ele>1260.6</ele>
        <time>2021-02-20T08:04:13Z</time>
      </trkpt>
      <trkpt lat="45.18467" lon="5.90789">
        <ele>1260.9</ele>
        <time>2021-02-20T08:04:14Z</time>
      </trkpt>
      <trkpt lat="45.18468" lon="5.90789">
        <ele>1261.3</ele>
        <time>2021-02-20T08:04:15Z</time>
      </trkpt>
      <trkpt lat="45.1847" lon="5.9079">
        <ele>1261.7</ele>
        <time>2021-02-20T08:04:16Z</time>
      </trkpt>
      <trkpt lat="45.18472" lon="5.9079">
        <ele>1262</ele>
        <time>2021-02-20T08:04:17Z</time>
      </trkpt>
      <trkpt lat="45.18473" lon="5.90792">
        <ele>1262.4</ele>
        <time>2021-02-20T08:04:18Z</time>
      </trkpt>
      <trkpt lat="45.18474" lon="5.90793">
        <ele>1262.6</ele>
        <time>2021-02-20T08:04:19Z</time>
      </trkpt>
      <trkpt lat="45.18475" lon="5.90793">
        <ele>1262.8</ele>
        <time>2021-02-20T08:04:20Z</time>
      </trkpt>
      <trkpt lat="45.18476" lon="5.90794">
        <ele>1263</ele>
        <time>2021-02-20T08:04:21Z</time>
      </trkpt>
      <trkpt lat="45.18476" lon="5.90794">
        <ele>1263.2</ele>
        <time>2021-02-20T08:04:22Z</time>
      </trkpt>
      <trkpt lat="45.18477" lon="5.90794">
        <ele>1263.3</ele>
        <time>2021-02-20T08:04:23Z</time>
      </trkpt>
      <trkpt lat="45.18477" lon="5.90795">
        <ele>1263.4</ele>
        <time>2021-02-20T08:04:24Z</time>
      </trkpt>
      <trkpt lat="45.18478" lon="5.90795">
        <ele>1263.5</ele>
        <time>2021-02-20T08:04:25Z</time>
      </trkpt>
      <trkpt lat="45.18479" lon="5.90796">
        <ele>1263.9</ele>
        <time>2021-02-20T08:04:26Z</time>
      </trkpt>
      <trkpt lat="45.1848" lon="5.90797">
        <ele>1264.1</ele>
        <time>2021-02-20T08:04:27Z</time>
      </trkpt>
      <trkpt lat="45.18481" lon="5.90798">
        <ele>1264.3</ele>
        <time>2021-02-20T08:04:28Z</time>
      </trkpt>
      <trkpt lat="45.18482" lon="5.90799">
        <ele>1264.7</ele>
        <time>2021-02-20T08:04:29Z</time>
      </trkpt>
      <trkpt lat="45.18483" lon="5.90799">
        <ele>1264.9</ele>
        <time>2021-02-20T08:04:30Z</time>
      </trkpt>
      <trkpt lat="45.18483" lon="5.908">
        <ele>1265</ele>
        <time>2021-02-20T08:04:31Z</time>
      </trkpt>
      <trkpt lat="45.18483" lon="5.908">
        <ele>1265.1</ele>
        <time>2021-02-20T08:04:32Z</time>
      </trkpt>
      <trkpt lat="45.18483" lon="5.90801">
        <ele>1265.2</ele>
        <time>2021-02-20T08:04:33Z</time>
      </trkpt>
      <trkpt lat="45.18484" lon="5.90802">
        <ele>1265.4</ele>
        <time>2021-02-20T08:04:34Z</time>
      </trkpt>
      <trkpt lat="45.18485" lon="5.90802">
        <ele>1265.7</ele>
        <time>2021-02-20T08:04:35Z</time>
      </trkpt>
      <trkpt lat="45.18486" lon="5.90803">
        <ele>1265.9</ele>
        <time>2021-02-20T08:04:36Z</time>
      </trkpt>
      <trkpt lat="45.18489" lon="5.90804">
        <ele>1266.4</ele>
        <time>2021-02-20T08:04:37Z</time>
      </trkpt>
      <trkpt lat="45.1849" lon="5.90805">
        <ele>1266.6</ele>
        <time>2021-02-20T08:04:38Z</time>
      </trkpt>
      <trkpt lat="45.18492" lon="5.90807">
        <ele>1267.2</ele>
        <time>2021-02-20T08:04:39Z</time>
      </trkpt>
      <trkpt lat="45.18493" lon="5.90807">
        <ele>1267.4</ele>
        <time>2021-02-20T08:04:40Z</time>
      </trkpt>
      <trkpt lat="45.18495" lon="5.90809">
        <ele>1267.7</ele>
        <time>2021-02-20T08:04:41Z</time>
      </trkpt>
      <trkpt lat="45.18496" lon="5.9081">
        <ele>1268</ele>
        <time>2021-02-20T08:04:42Z</time>
      </trkpt>
      <trkpt lat="45.18496" lon="5.90811">
        <ele>1268.2</ele>
        <time>2021-02-20T08:04:43Z</time>
      </trkpt>
      <trkpt lat="45.18497" lon="5.90812">
        <ele>1268.3</ele>
        <time>2021-02-20T08:04:44Z</time>
      </trkpt>
      <trkpt lat="45.18497" lon="5.90812">
        <ele>1268.4</ele>
        <time>2021-02-20T08:04:45Z</time>
      </trkpt>
      <trkpt lat="45.18497" lon="5.90811">
        <ele>1268.4</ele>
        <time>2021-02-20T08:04:46Z</time>
      </trkpt>
      <trkpt lat="45.18497" lon="5.90811">
        <ele>1268.4</ele>
        <time>2021-02-20T08:04:47Z</time>
      </trkpt>
      <trkpt lat="45.18497" lon="5.90811">
        <ele>1268.4</ele>
        <time>2021-02-20T08:04:48Z</time>
      </trkpt>
      <trkpt lat="45.18497" lon="5.90811">
        <ele>1268.4</ele>
        <time>2021-02-20T08:04:49Z</time>
      </trkpt>
      <trkpt lat="45.18498" lon="5.90812">
        <ele>1268.6</ele>
        <time>2021-02-20T08:04:50Z</time>
      </trkpt>
      <trkpt lat="45.18498" lon="5.90812">
        <ele>1268.6</ele>
        <time>2021-02-20T08:04:51Z</time>
      </trkpt>
      <trkpt lat="45.18498" lon="5.90812">
        <ele>1268.7</ele>
        <time>2021-02-20T08:04:52Z</time>
      </trkpt>
      <trkpt lat="45.18499" lon="5.90812">
        <ele>1268.9</ele>
        <time>2021-02-20T08:04:53Z</time>
      </trkpt>
      <trkpt lat="45.185" lon="5.90813">
        <ele>1269.1</ele>
        <time>2021-02-20T08:04:54Z</time>
      </trkpt>
      <trkpt lat="45.18501" lon="5.90814">
        <ele>1269.3</ele>
        <time>2021-02-20T08:04:55Z</time>
      </trkpt>
      <trkpt lat="45.18503" lon="5.90814">
        <ele>1269.6</ele>
        <time>2021-02-20T08:04:56Z</time>
      </trkpt>
      <trkpt lat="45.18505" lon="5.90817">
        <ele>1270.1</ele>
        <time>2021-02-20T08:04:57Z</time>
      </trkpt>
      <trkpt lat="45.18506" lon="5.90818">
        <ele>1270.3</ele>
        <time>2021-02-20T08:04:58Z</time>
      </trkpt>
      <trkpt lat="45.18508" lon="5.9082">
        <ele>1270.8</ele>
        <time>2021-02-20T08:04:59Z</time>
      </trkpt>
      <trkpt lat="45.18509" lon="5.90821">
        <ele>1271</ele>
        <time>2021-02-20T08:05:00Z</time>
      </trkpt>
      <trkpt lat="45.18511" lon="5.90822">
        <ele>1271.3</ele>
        <time>2021-02-20T08:05:01Z</time>
      </trkpt>
      <trkpt lat="45.18512" lon="5.90823">
        <ele>1271.6</ele>
        <time>2021-02-20T08:05:02Z</time>
      </trkpt>
      <trkpt lat="45.18513" lon="5.90824">
        <ele>1271.8</ele>
        <time>2021-02-20T08:05:03Z</time>
      </trkpt>
      <trkpt lat="45.18514" lon="5.90825">
        <ele>1272</ele>
        <time>2021-02-20T08:05:04Z</time>
      </trkpt>
      <trkpt lat="45.18515" lon="5.90826">
        <ele>1272.2</ele>
        <time>2021-02-20T08:05:05Z</time>
      </trkpt>
      <trkpt lat="45.18515" lon="5.90829">
        <ele>1272.5</ele>
        <time>2021-02-20T08:05:06Z</time>
      </trkpt>
      <trkpt lat="45.18516" lon="5.9083">
        <ele>1272.7</ele>
        <time>2021-02-20T08:05:07Z</time>
      </trkpt>
      <trkpt lat="45.18516" lon="5.90831">
        <ele>1272.9</ele>
        <time>2021-02-20T08:05:08Z</time>
      </trkpt>
      <trkpt lat="45.18517" lon="5.90833">
        <ele>1273.3</ele>
        <time>2021-02-20T08:05:09Z</time>
      </trkpt>
      <trkpt lat="45.18519" lon="5.90834">
        <ele>1273.6</ele>
        <time>2021-02-20T08:05:10Z</time>
      </trkpt>
      <trkpt lat="45.1852" lon="5.90835">
        <ele>1273.9</ele>
        <time>2021-02-20T08:05:11Z</time>
      </trkpt>
      <trkpt lat="45.18521" lon="5.90836">
        <ele>1274.1</ele>
        <time>2021-02-20T08:05:12Z</time>
      </trkpt>
      <trkpt lat="45.18522" lon="5.90837">
        <ele>1274.3</ele>
        <time>2021-02-20T08:05:13Z</time>
      </trkpt>
      <trkpt lat="45.18523" lon="5.90839">
        <ele>1274.8</ele>
        <time>2021-02-20T08:05:14Z</time>
      </trkpt>
      <trkpt lat="45.18525" lon="5.9084">
        <ele>1275.1</ele>
        <time>2021-02-20T08:05:15Z</time>
      </trkpt>
      <trkpt lat="45.18526" lon="5.90841">
        <ele>1275.3</ele>
        <time>2021-02-20T08:05:16Z</time>
      </trkpt>
      <trkpt lat="45.18528" lon="5.90844">
        <ele>1275.9</ele>
        <time>2021-02-20T08:05:17Z</time>
      </trkpt>
      <trkpt lat="45.18528" lon="5.90845">
        <ele>1276.1</ele>
        <time>2021-02-20T08:05:18Z</time>
      </trkpt>
      <trkpt lat="45.18529" lon="5.90847">
        <ele>1276.5</ele>
        <time>2021-02-20T08:05:19Z</time>
      </trkpt>
      <trkpt lat="45.1853" lon="5.90849">
        <ele>1276.8</ele>
        <time>2021-02-20T08:05:20Z</time>
      </trkpt>
      <trkpt lat="45.1853" lon="5.9085">
        <ele>1277</ele>
        <time>2021-02-20T08:05:21Z</time>
      </trkpt>
      <trkpt lat="45.18531" lon="5.90852">
        <ele>1277.3</ele>
        <time>2021-02-20T08:05:22Z</time>
      </trkpt>
      <trkpt lat="45.18532" lon="5.90853">
        <ele>1277.5</ele>
        <time>2021-02-20T08:05:23Z</time>
      </trkpt>
      <trkpt lat="45.18532" lon="5.90853">
        <ele>1277.6</ele>
        <time>2021-02-20T08:05:24Z</time>
      </trkpt>
      <trkpt lat="45.18532" lon="5.90853">
        <ele>1277.7</ele>
        <time>2021-02-20T08:05:25Z</time>
      </trkpt>
      <trkpt lat="45.18532" lon="5.90854">
        <ele>1277.8</ele>
        <time>2021-02-20T08:05:26Z</time>
      </trkpt>
      <trkpt lat="45.18532" lon="5.90855">
        <ele>1278</ele>
        <time>2021-02-20T08:05:27Z</time>
      </trkpt>
      <trkpt lat="45.18533" lon="5.90856">
        <ele>1278.2</ele>
        <time>2021-02-20T08:05:28Z</time>
      </trkpt>
      <trkpt lat="45.18534" lon="5.90857">
        <ele>1278.4</ele>
        <time>2021-02-20T08:05:29Z</time>
      </trkpt>
      <trkpt lat="45.18534" lon="5.90859">
        <ele>1278.6</ele>
        <time>2021-02-20T08:05:30Z</time>
      </trkpt>
      <trkpt lat="45.18534" lon="5.90859">
        <ele>1278.7</ele>
        <time>2021-02-20T08:05:31Z</time>
      </trkpt>
      <trkpt lat="45.18534" lon="5.9086">
        <ele>1278.9</ele>
        <time>2021-02-20T08:05:32Z</time>
      </trkpt>
      <trkpt lat="45.18536" lon="5.90861">
        <ele>1279.1</ele>
        <time>2021-02-20T08:05:33Z</time>
      </trkpt>
      <trkpt lat="45.18538" lon="5.90861">
        <ele>1279.5</ele>
        <time>2021-02-20T08:05:34Z</time>
      </trkpt>
      <trkpt lat="45.18539" lon="5.90862">
        <ele>1279.7</ele>
        <time>2021-02-20T08:05:35Z</time>
      </trkpt>
      <trkpt lat="45.18539" lon="5.90862">
        <ele>1279.9</ele>
        <time>2021-02-20T08:05:36Z</time>
      </trkpt>
      <trkpt lat="45.18539" lon="5.90864">
        <ele>1280.1</ele>
        <time>2021-02-20T08:05:37Z</time>
      </trkpt>
      <trkpt lat="45.18539" lon="5.90865">
        <ele>1280.3</ele>
        <time>2021-02-20T08:05:38Z</time>
      </trkpt>
      <trkpt lat="45.18539" lon="5.90865">
        <ele>1280.4</ele>
        <time>2021-02-20T08:05:39Z</time>
      </trkpt>
      <trkpt lat="45.18538" lon="5.90865">
        <ele>1280.5</ele>
        <time>2021-02-20T08:05:40Z</time>
      </trkpt>
      <trkpt lat="45.18538" lon="5.90866">
        <ele>1280.6</ele>
        <time>2021-02-20T08:05:41Z</time>
      </trkpt>
      <trkpt lat="45.18538" lon="5.90867">
        <ele>1280.7</ele>
        <time>2021-02-20T08:05:42Z</time>
      </trkpt>
      <trkpt lat="45.18538" lon="5.90868">
        <ele>1280.9</ele>
        <time>2021-02-20T08:05:43Z</time>
      </trkpt>
      <trkpt lat="45.18539" lon="5.90869">
        <ele>1281.2</ele>
        <time>2021-02-20T08:05:44Z</time>
      </trkpt>
      <trkpt lat="45.18539" lon="5.90871">
        <ele>1281.4</ele>
        <time>2021-02-20T08:05:45Z</time>
      </trkpt>
      <trkpt lat="45.1854" lon="5.90872">
        <ele>1281.7</ele>
        <time>2021-02-20T08:05:46Z</time>
      </trkpt>
      <trkpt lat="45.18541" lon="5.90873">
        <ele>1281.9</ele>
        <time>2021-02-20T08:05:47Z</time>
      </trkpt>
      <trkpt lat="45.18541" lon="5.90873">
        <ele>1281.9</ele>
        <time>2021-02-20T08:05:48Z</time>
      </trkpt>
      <trkpt lat="45.18542" lon="5.90874">
        <ele>1282.2</ele>
        <time>2021-02-20T08:05:49Z</time>
      </trkpt>
      <trkpt lat="45.18543" lon="5.90875">
        <ele>1282.4</ele>
        <time>2021-02-20T08:05:50Z</time>
      </trkpt>
      <trkpt lat="45.18543" lon="5.90876">
        <ele>1282.6</ele>
        <time>2021-02-20T08:05:51Z</time>
      </trkpt>
      <trkpt lat="45.18543" lon="5.90877">
        <ele>1282.7</ele>
        <time>2021-02-20T08:05:52Z</time>
      </trkpt>
      <trkpt lat="45.18544" lon="5.90877">
        <ele>1282.8</ele>
        <time>2021-02-20T08:05:53Z</time>
      </trkpt>
      <trkpt lat="45.18544" lon="5.90878">
        <ele>1283</ele>
        <time>2021-02-20T08:05:54Z</time>
      </trkpt>
      <trkpt lat="45.18546" lon="5.90878">
        <ele>1283.3</ele>
        <time>2021-02-20T08:05:55Z</time>
      </trkpt>
      <trkpt lat="45.18546" lon="5.9088">
        <ele>1283.6</ele>
        <time>2021-02-20T08:05:56Z</time>
      </trkpt>
      <trkpt lat="45.18547" lon="5.90881">
        <ele>1283.8</ele>
        <time>2021-02-20T08:05:57Z</time>
      </trkpt>
      <trkpt lat="45.18547" lon="5.90882">
        <ele>1283.9</ele>
        <time>2021-02-20T08:05:58Z</time>
      </trkpt>
      <trkpt lat="45.18547" lon="5.90882">
        <ele>1284</ele>
        <time>2021-02-20T08:05:59Z</time>
      </trkpt>
      <trkpt lat="45.18549" lon="5.90882">
        <ele>1284.3</ele>
        <time>2021-02-20T08:06:00Z</time>
      </trkpt>
      <trkpt lat="45.1855" lon="5.90883">
        <ele>1284.5</ele>
        <time>2021-02-20T08:06:01Z</time>
      </trkpt>
      <trkpt lat="45.1855" lon="5.90883">
        <ele>1284.7</ele>
        <time>2021-02-20T08:06:02Z</time>
      </trkpt>
      <trkpt lat="45.18551" lon="5.90883">
        <ele>1284.8</ele>
        <time>2021-02-20T08:06:03Z</time>
      </trkpt>
      <trkpt lat="45.18552" lon="5.90885">
        <ele>1285.1</ele>
        <time>2021-02-20T08:06:04Z</time>
      </trkpt>
      <trkpt lat="45.18553" lon="5.90886">
        <ele>1285.4</ele>
        <time>2021-02-20T08:06:05Z</time>
      </trkpt>
      <trkpt lat="45.18553" lon="5.90887">
        <ele>1285.5</ele>
        <time>2021-02-20T08:06:06Z</time>
      </trkpt>
      <trkpt lat="45.18553" lon="5.90889">
        <ele>1285.7</ele>
        <time>2021-02-20T08:06:07Z</time>
      </trkpt>
      <trkpt lat="45.18553" lon="5.9089">
        <ele>1285.9</ele>
        <time>2021-02-20T08:06:08Z</time>
      </trkpt>
      <trkpt lat="45.18553" lon="5.90891">
        <ele>1286</ele>
        <time>2021-02-20T08:06:09Z</time>
      </trkpt>
      <trkpt lat="45.18553" lon="5.90892">
        <ele>1286.2</ele>
        <time>2021-02-20T08:06:10Z</time>
      </trkpt>
      <trkpt lat="45.18554" lon="5.90892">
        <ele>1286.3</ele>
        <time>2021-02-20T08:06:11Z</time>
      </trkpt>
      <trkpt lat="45.18555" lon="5.90893">
        <ele>1286.5</ele>
        <time>2021-02-20T08:06:12Z</time>
      </trkpt>
      <trkpt lat="45.18556" lon="5.90893">
        <ele>1286.7</ele>
        <time>2021-02-20T08:06:13Z</time>
      </trkpt>
      <trkpt lat="45.18557" lon="5.90893">
        <ele>1286.9</ele>
        <time>2021-02-20T08:06:14Z</time>
      </trkpt>
      <trkpt lat="45.18558" lon="5.90895">
        <ele>1287.3</ele>
        <time>2021-02-20T08:06:15Z</time>
      </trkpt>
      <trkpt lat="45.18559" lon="5.90895">
        <ele>1287.5</ele>
        <time>2021-02-20T08:06:16Z</time>
      </trkpt>
      <trkpt lat="45.1856" lon="5.90896">
        <ele>1287.6</ele>
        <time>2021-02-20T08:06:17Z</time>
      </trkpt>
      <trkpt lat="45.18561" lon="5.90897">
        <ele>1287.9</ele>
        <time>2021-02-20T08:06:18Z</time>
      </trkpt>
      <trkpt lat="45.18563" lon="5.90897">
        <ele>1288.2</ele>
        <time>2021-02-20T08:06:19Z</time>
      </trkpt>
      <trkpt lat="45.18564" lon="5.90897">
        <ele>1288.4</ele>
        <time>2021-02-20T08:06:20Z</time>
      </trkpt>
      <trkpt lat="45.18565" lon="5.90898">
        <ele>1288.7</ele>
        <time>2021-02-20T08:06:21Z</time>
      </trkpt>
      <trkpt lat="45.18566" lon="5.909">
        <ele>1288.9</ele>
        <time>2021-02-20T08:06:22Z</time>
      </trkpt>
      <trkpt lat="45.18566" lon="5.90901">
        <ele>1289</ele>
        <time>2021-02-20T08:06:23Z</time>
      </trkpt>
      <trkpt lat="45.18567" lon="5.90901">
        <ele>1289.2</ele>
        <time>2021-02-20T08:06:24Z</time>
      </trkpt>
      <trkpt lat="45.18567" lon="5.90902">
        <ele>1289.3</ele>
        <time>2021-02-20T08:06:25Z</time>
      </trkpt>
      <trkpt lat="45.18567" lon="5.90903">
        <ele>1289.4</ele>
        <time>2021-02-20T08:06:26Z</time>
      </trkpt>
      <trkpt lat="45.18568" lon="5.90904">
        <ele>1289.5</ele>
        <time>2021-02-20T08:06:27Z</time>
      </trkpt>
      <trkpt lat="45.18569" lon="5.90905">
        <ele>1289.8</ele>
        <time>2021-02-20T08:06:28Z</time>
      </trkpt>
      <trkpt lat="45.1857" lon="5.90906">
        <ele>1290</ele>
        <time>2021-02-20T08:06:29Z</time>
      </trkpt>
      <trkpt lat="45.18571" lon="5.90907">
        <ele>1290.3</ele>
        <time>2021-02-20T08:06:30Z</time>
      </trkpt>
      <trkpt lat="45.18572" lon="5.90909">
        <ele>1290.5</ele>
        <time>2021-02-20T08:06:31Z</time>
      </trkpt>
      <trkpt lat="45.18572" lon="5.9091">
        <ele>1290.7</ele>
        <time>2021-02-20T08:06:32Z</time>
      </trkpt>
      <trkpt lat="45.18574" lon="5.90911">
        <ele>1291</ele>
        <time>2021-02-20T08:06:33Z</time>
      </trkpt>
      <trkpt lat="45.18574" lon="5.90911">
        <ele>1291.2</ele>
        <time>2021-02-20T08:06:34Z</time>
      </trkpt>
      <trkpt lat="45.18575" lon="5.90912">
        <ele>1291.3</ele>
        <time>2021-02-20T08:06:35Z</time>
      </trkpt>
      <trkpt lat="45.18576" lon="5.90912">
        <ele>1291.5</ele>
        <time>2021-02-20T08:06:36Z</time>
      </trkpt>
      <trkpt lat="45.18577" lon="5.90914">
        <ele>1291.8</ele>
        <time>2021-02-20T08:06:37Z</time>
      </trkpt>
      <trkpt lat="45.18578" lon="5.90915">
        <ele>1292</ele>
        <time>2021-02-20T08:06:38Z</time>
      </trkpt>
      <trkpt lat="45.18578" lon="5.90916">
        <ele>1292.1</ele>
        <time>2021-02-20T08:06:39Z</time>
      </trkpt>
      <trkpt lat="45.18578" lon="5.90916">
        <ele>1292.2</ele>
        <time>2021-02-20T08:06:40Z</time>
      </trkpt>
      <trkpt lat="45.18579" lon="5.90917">
        <ele>1292.4</ele>
        <time>2021-02-20T08:06:41Z</time>
      </trkpt>
      <trkpt lat="45.18579" lon="5.90918">
        <ele>1292.6</ele>
        <time>2021-02-20T08:06:42Z</time>
      </trkpt>
      <trkpt lat="45.1858" lon="5.90918">
        <ele>1292.8</ele>
        <time>2021-02-20T08:06:43Z</time>
      </trkpt>
      <trkpt lat="45.18581" lon="5.90919">
        <ele>1292.9</ele>
        <time>2021-02-20T08:06:44Z</time>
      </trkpt>
      <trkpt lat="45.18581" lon="5.90919">
        <ele>1293.1</ele>
        <time>2021-02-20T08:06:45Z</time>
      </trkpt>
      <trkpt lat="45.18583" lon="5.9092">
        <ele>1293.4</ele>
        <time>2021-02-20T08:06:46Z</time>
      </trkpt>
      <trkpt lat="45.18584" lon="5.9092">
        <ele>1293.7</ele>
        <time>2021-02-20T08:06:47Z</time>
      </trkpt>
      <trkpt lat="45.18585" lon="5.9092">
        <ele>1293.9</ele>
        <time>2021-02-20T08:06:48Z</time>
      </trkpt>
      <trkpt lat="45.18586" lon="5.9092">
        <ele>1294.1</ele>
        <time>2021-02-20T08:06:49Z</time>
      </trkpt>
      <trkpt lat="45.18587" lon="5.90921">
        <ele>1294.3</ele>
        <time>2021-02-20T08:06:50Z</time>
      </trkpt>
      <trkpt lat="45.18587" lon="5.90921">
        <ele>1294.3</ele>
        <time>2021-02-20T08:06:51Z</time>
      </trkpt>
      <trkpt lat="45.18587" lon="5.90923">
        <ele>1294.6</ele>
        <time>2021-02-20T08:06:52Z</time>
      </trkpt>
      <trkpt lat="45.18587" lon="5.90924">
        <ele>1294.9</ele>
        <time>2021-02-20T08:06:53Z</time>
      </trkpt>
      <trkpt lat="45.18588" lon="5.90926">
        <ele>1295.1</ele>
        <time>2021-02-20T08:06:54Z</time>
      </trkpt>
      <trkpt lat="45.18589" lon="5.90928">
        <ele>1295.5</ele>
        <time>2021-02-20T08:06:55Z</time>
      </trkpt>
      <trkpt lat="45.1859" lon="5.9093">
        <ele>1295.9</ele>
        <time>2021-02-20T08:06:56Z</time>
      </trkpt>
      <trkpt lat="45.18591" lon="5.90931">
        <ele>1296.1</ele>
        <time>2021-02-20T08:06:57Z</time>
      </trkpt>
      <trkpt lat="45.18591" lon="5.90931">
        <ele>1296.2</ele>
        <time>2021-02-20T08:06:58Z</time>
      </trkpt>
      <trkpt lat="45.18592" lon="5.90932">
        <ele>1296.3</ele>
        <time>2021-02-20T08:06:59Z</time>
      </trkpt>
      <trkpt lat="45.18592" lon="5.90932">
        <ele>1296.4</ele>
        <time>2021-02-20T08:07:00Z</time>
      </trkpt>
      <trkpt lat="45.18593" lon="5.90932">
        <ele>1296.5</ele>
        <time>2021-02-20T08:07:01Z</time>
      </trkpt>
      <trkpt lat="45.18594" lon="5.90933">
        <ele>1296.8</ele>
        <time>2021-02-20T08:07:02Z</time>
      </trkpt>
      <trkpt lat="45.18594" lon="5.90934">
        <ele>1297</ele>
        <time>2021-02-20T08:07:03Z</time>
      </trkpt>
      <trkpt lat="45.18595" lon="5.90937">
        <ele>1297.4</ele>
        <time>2021-02-20T08:07:04Z</time>
      </trkpt>
      <trkpt lat="45.18596" lon="5.90939">
        <ele>1297.8</ele>
        <time>2021-02-20T08:07:05Z</time>
      </trkpt>
      <trkpt lat="45.18597" lon="5.9094">
        <ele>1298</ele>
        <time>2021-02-20T08:07:06Z</time>
      </trkpt>
      <trkpt lat="45.18597" lon="5.90943">
        <ele>1298.3</ele>
        <time>2021-02-20T08:07:07Z</time>
      </trkpt>
      <trkpt lat="45.18597" lon="5.90943">
        <ele>1298.5</ele>
        <time>2021-02-20T08:07:08Z</time>
      </trkpt>
      <trkpt lat="45.18598" lon="5.90944">
        <ele>1298.6</ele>
        <time>2021-02-20T08:07:09Z</time>
      </trkpt>
      <trkpt lat="45.18598" lon="5.90944">
        <ele>1298.7</ele>
        <time>2021-02-20T08:07:10Z</time>
      </trkpt>
      <trkpt lat="45.18599" lon="5.90945">
        <ele>1298.8</ele>
        <time>2021-02-20T08:07:11Z</time>
      </trkpt>
      <trkpt lat="45.186" lon="5.90947">
        <ele>1299.3</ele>
        <time>2021-02-20T08:07:12Z</time>
      </trkpt>
      <trkpt lat="45.18601" lon="5.90948">
        <ele>1299.5</ele>
        <time>2021-02-20T08:07:13Z</time>
      </trkpt>
      <trkpt lat="45.18601" lon="5.90949">
        <ele>1299.7</ele>
        <time>2021-02-20T08:07:14Z</time>
      </trkpt>
      <trkpt lat="45.18602" lon="5.90951">
        <ele>1300</ele>
        <time>2021-02-20T08:07:15Z</time>
      </trkpt>
      <trkpt lat="45.18603" lon="5.90952">
        <ele>1300.2</ele>
        <time>2021-02-20T08:07:16Z</time>
      </trkpt>
      <trkpt lat="45.18604" lon="5.90952">
        <ele>1300.4</ele>
        <time>2021-02-20T08:07:17Z</time>
      </trkpt>
      <trkpt lat="45.18605" lon="5.90953">
        <ele>1300.7</ele>
        <time>2021-02-20T08:07:18Z</time>
      </trkpt>
      <trkpt lat="45.18606" lon="5.90954">
        <ele>1301</ele>
        <time>2021-02-20T08:07:19Z</time>
      </trkpt>
      <trkpt lat="45.18607" lon="5.90955">
        <ele>1301.2</ele>
        <time>2021-02-20T08:07:20Z</time>
      </trkpt>
      <trkpt lat="45.18608" lon="5.90956">
        <ele>1301.4</ele>
        <time>2021-02-20T08:07:21Z</time>
      </trkpt>
      <trkpt lat="45.18608" lon="5.90958">
        <ele>1301.6</ele>
        <time>2021-02-20T08:07:22Z</time>
      </trkpt>
      <trkpt lat="45.18608" lon="5.90959">
        <ele>1301.8</ele>
        <time>2021-02-20T08:07:23Z</time>
      </trkpt>
      <trkpt lat="45.18609" lon="5.90961">
        <ele>1302</ele>
        <time>2021-02-20T08:07:24Z</time>
      </trkpt>
      <trkpt lat="45.18609" lon="5.90962">
        <ele>1302.3</ele>
        <time>2021-02-20T08:07:25Z</time>
      </trkpt>
      <trkpt lat="45.1861" lon="5.90964">
        <ele>1302.6</ele>
        <time>2021-02-20T08:07:26Z</time>
      </trkpt>
      <trkpt lat="45.18611" lon="5.90965">
        <ele>1302.8</ele>
        <time>2021-02-20T08:07:27Z</time>
      </trkpt>
      <trkpt lat="45.18611" lon="5.90966">
        <ele>1303</ele>
        <time>2021-02-20T08:07:28Z</time>
      </trkpt>
      <trkpt lat="45.18612" lon="5.90967">
        <ele>1303.2</ele>
        <time>2021-02-20T08:07:29Z</time>
      </trkpt>
      <trkpt lat="45.18612" lon="5.90968">
        <ele>1303.3</ele>
        <time>2021-02-20T08:07:30Z</time>
      </trkpt>
      <trkpt lat="45.18613" lon="5.90969">
        <ele>1303.5</ele>
        <time>2021-02-20T08:07:31Z</time>
      </trkpt>
      <trkpt lat="45.18613" lon="5.9097">
        <ele>1303.6</ele>
        <time>2021-02-20T08:07:32Z</time>
      </trkpt>
      <trkpt lat="45.18613" lon="5.90971">
        <ele>1303.8</ele>
        <time>2021-02-20T08:07:33Z</time>
      </trkpt>
      <trkpt lat="45.18613" lon="5.90972">
        <ele>1303.9</ele>
        <time>2021-02-20T08:07:34Z</time>
      </trkpt>
      <trkpt lat="45.18613" lon="5.90973">
        <ele>1304</ele>
        <time>2021-02-20T08:07:35Z</time>
      </trkpt>
      <trkpt lat="45.18614" lon="5.90974">
        <ele>1304.2</ele>
        <time>2021-02-20T08:07:36Z</time>
      </trkpt>
      <trkpt lat="45.18615" lon="5.90974">
        <ele>1304.3</ele>
        <time>2021-02-20T08:07:37Z</time>
      </trkpt>
      <trkpt lat="45.18615" lon="5.90975">
        <ele>1304.5</ele>
        <time>2021-02-20T08:07:38Z</time>
      </trkpt>
      <trkpt lat="45.18615" lon="5.90976">
        <ele>1304.6</ele>
        <time>2021-02-20T08:07:39Z</time>
      </trkpt>
      <trkpt lat="45.18616" lon="5.90976">
        <ele>1304.7</ele>
        <time>2021-02-20T08:07:40Z</time>
      </trkpt>
      <trkpt lat="45.18616" lon="5.90977">
        <ele>1304.9</ele>
        <time>2021-02-20T08:07:41Z</time>
      </trkpt>
      <trkpt lat="45.18617" lon="5.90977">
        <ele>1305</ele>
        <time>2021-02-20T08:07:42Z</time>
      </trkpt>
      <trkpt lat="45.18617" lon="5.90977">
        <ele>1305</ele>
        <time>2021-02-20T08:07:43Z</time>
      </trkpt>
      <trkpt lat="45.18618" lon="5.90978">
        <ele>1305.2</ele>
        <time>2021-02-20T08:07:44Z</time>
      </trkpt>
      <trkpt lat="45.18619" lon="5.90979">
        <ele>1305.4</ele>
        <time>2021-02-20T08:07:45Z</time>
      </trkpt>
      <trkpt lat="45.18619" lon="5.90981">
        <ele>1305.7</ele>
        <time>2021-02-20T08:07:46Z</time>
      </trkpt>
      <trkpt lat="45.18619" lon="5.90983">
        <ele>1305.9</ele>
        <time>2021-02-20T08:07:47Z</time>
      </trkpt>
      <trkpt lat="45.1862" lon="5.90984">
        <ele>1306.2</ele>
        <time>2021-02-20T08:07:48Z</time>
      </trkpt>
      <trkpt lat="45.1862" lon="5.90986">
        <ele>1306.4</ele>
        <time>2021-02-20T08:07:49Z</time>
      </trkpt>
      <trkpt lat="45.1862" lon="5.90987">
        <ele>1306.5</ele>
        <time>2021-02-20T08:07:50Z</time>
      </trkpt>
      <trkpt lat="45.18621" lon="5.90988">
        <ele>1306.7</ele>
        <time>2021-02-20T08:07:51Z</time>
      </trkpt>
      <trkpt lat="45.18621" lon="5.90988">
        <ele>1306.7</ele>
        <time>2021-02-20T08:07:52Z</time>
      </trkpt>
      <trkpt lat="45.18621" lon="5.90989">
        <ele>1306.9</ele>
        <time>2021-02-20T08:07:53Z</time>
      </trkpt>
      <trkpt lat="45.18621" lon="5.90991">
        <ele>1307.1</ele>
        <time>2021-02-20T08:07:54Z</time>
      </trkpt>
      <trkpt lat="45.18622" lon="5.90992">
        <ele>1307.3</ele>
        <time>2021-02-20T08:07:55Z</time>
      </trkpt>
      <trkpt lat="45.18622" lon="5.90993">
        <ele>1307.5</ele>
        <time>2021-02-20T08:07:56Z</time>
      </trkpt>
      <trkpt lat="45.18623" lon="5.90994">
        <ele>1307.7</ele>
        <time>2021-02-20T08:07:57Z</time>
      </trkpt>
      <trkpt lat="45.18623" lon="5.90994">
        <ele>1307.8</ele>
        <time>2021-02-20T08:07:58Z</time>
      </trkpt>
      <trkpt lat="45.18624" lon="5.90996">
        <ele>1308.1</ele>
        <time>2021-02-20T08:07:59Z</time>
      </trkpt>
      <trkpt lat="45.18625" lon="5.90997">
        <ele>1308.4</ele>
        <time>2021-02-20T08:08:00Z</time>
      </trkpt>
      <trkpt lat="45.18626" lon="5.90999">
        <ele>1308.7</ele>
        <time>2021-02-20T08:08:01Z</time>
      </trkpt>
      <trkpt lat="45.18627" lon="5.91">
        <ele>1309</ele>
        <time>2021-02-20T08:08:02Z</time>
      </trkpt>
      <trkpt lat="45.18629" lon="5.91001">
        <ele>1309.3</ele>
        <time>2021-02-20T08:08:03Z</time>
      </trkpt>
      <trkpt lat="45.1863" lon="5.91002">
        <ele>1309.6</ele>
        <time>2021-02-20T08:08:04Z</time>
      </trkpt>
      <trkpt lat="45.18631" lon="5.91002">
        <ele>1309.8</ele>
        <time>2021-02-20T08:08:05Z</time>
      </trkpt>
      <trkpt lat="45.18632" lon="5.91002">
        <ele>1310</ele>
        <time>2021-02-20T08:08:06Z</time>
      </trkpt>
      <trkpt lat="45.18633" lon="5.91003">
        <ele>1310.2</ele>
        <time>2021-02-20T08:08:07Z</time>
      </trkpt>
      <trkpt lat="45.18634" lon="5.91003">
        <ele>1310.3</ele>
        <time>2021-02-20T08:08:08Z</time>
      </trkpt>
      <trkpt lat="45.18634" lon="5.91003">
        <ele>1310.4</ele>
        <time>2021-02-20T08:08:09Z</time>
      </trkpt>
      <trkpt lat="45.18634" lon="5.91002">
        <ele>1310.5</ele>
        <time>2021-02-20T08:08:10Z</time>
      </trkpt>
      <trkpt lat="45.18634" lon="5.91003">
        <ele>1310.6</ele>
        <time>2021-02-20T08:08:11Z</time>
      </trkpt>
      <trkpt lat="45.18634" lon="5.91004">
        <ele>1310.8</ele>
        <time>2021-02-20T08:08:12Z</time>
      </trkpt>
      <trkpt lat="45.18635" lon="5.91005">
        <ele>1310.9</ele>
        <time>2021-02-20T08:08:13Z</time>
      </trkpt>
      <trkpt lat="45.18635" lon="5.91006">
        <ele>1311.1</ele>
        <time>2021-02-20T08:08:14Z</time>
      </trkpt>
      <trkpt lat="45.18636" lon="5.91007">
        <ele>1311.3</ele>
        <time>2021-02-20T08:08:15Z</time>
      </trkpt>
      <trkpt lat="45.18636" lon="5.91008">
        <ele>1311.4</ele>
        <time>2021-02-20T08:08:16Z</time>
      </trkpt>
      <trkpt lat="45.18636" lon="5.91009">
        <ele>1311.6</ele>
        <time>2021-02-20T08:08:17Z</time>
      </trkpt>
      <trkpt lat="45.18637" lon="5.9101">
        <ele>1311.9</ele>
        <time>2021-02-20T08:08:18Z</time>
      </trkpt>
      <trkpt lat="45.18637" lon="5.91011">
        <ele>1312.1</ele>
        <time>2021-02-20T08:08:19Z</time>
      </trkpt>
      <trkpt lat="45.18638" lon="5.91013">
        <ele>1312.2</ele>
        <time>2021-02-20T08:08:20Z</time>
      </trkpt>
      <trkpt lat="45.18638" lon="5.91014">
        <ele>1312.4</ele>
        <time>2021-02-20T08:08:21Z</time>
      </trkpt>
      <trkpt lat="45.18639" lon="5.91015">
        <ele>1312.7</ele>
        <time>2021-02-20T08:08:22Z</time>
      </trkpt>
      <trkpt lat="45.1864" lon="5.91016">
        <ele>1313</ele>
        <time>2021-02-20T08:08:23Z</time>
      </trkpt>
      <trkpt lat="45.18641" lon="5.91017">
        <ele>1313.2</ele>
        <time>2021-02-20T08:08:24Z</time>
      </trkpt>
      <trkpt lat="45.18641" lon="5.91018">
        <ele>1313.3</ele>
        <time>2021-02-20T08:08:25Z</time>
      </trkpt>
      <trkpt lat="45.18641" lon="5.91018">
        <ele>1313.4</ele>
        <time>2021-02-20T08:08:26Z</time>
      </trkpt>
      <trkpt lat="45.18641" lon="5.91019">
        <ele>1313.5</ele>
        <time>2021-02-20T08:08:27Z</time>
      </trkpt>
      <trkpt lat="45.18642" lon="5.91019">
        <ele>1313.5</ele>
        <time>2021-02-20T08:08:28Z</time>
      </trkpt>
      <trkpt lat="45.18643" lon="5.9102">
        <ele>1313.8</ele>
        <time>2021-02-20T08:08:29Z</time>
      </trkpt>
      <trkpt lat="45.18645" lon="5.91022">
        <ele>1314.3</ele>
        <time>2021-02-20T08:08:30Z</time>
      </trkpt>
      <trkpt lat="45.18646" lon="5.91022">
        <ele>1314.5</ele>
        <time>2021-02-20T08:08:31Z</time>
      </trkpt>
      <trkpt lat="45.18646" lon="5.91023">
        <ele>1314.7</ele>
        <time>2021-02-20T08:08:32Z</time>
      </trkpt>
      <trkpt lat="45.18648" lon="5.91024">
        <ele>1314.9</ele>
        <time>2021-02-20T08:08:33Z</time>
      </trkpt>
      <trkpt lat="45.18648" lon="5.91024">
        <ele>1315.1</ele>
        <time>2021-02-20T08:08:34Z</time>
      </trkpt>
      <trkpt lat="45.18649" lon="5.91025">
        <ele>1315.3</ele>
        <time>2021-02-20T08:08:35Z</time>
      </trkpt>
      <trkpt lat="45.18649" lon="5.91027">
        <ele>1315.5</ele>
        <time>2021-02-20T08:08:36Z</time>
      </trkpt>
      <trkpt lat="45.18649" lon="5.91028">
        <ele>1315.7</ele>
        <time>2021-02-20T08:08:37Z</time>
      </trkpt>
      <trkpt lat="45.1865" lon="5.91028">
        <ele>1315.9</ele>
        <time>2021-02-20T08:08:38Z</time>
      </trkpt>
      <trkpt lat="45.1865" lon="5.91029">
        <ele>1316</ele>
        <time>2021-02-20T08:08:39Z</time>
      </trkpt>
      <trkpt lat="45.18651" lon="5.9103">
        <ele>1316.2</ele>
        <time>2021-02-20T08:08:40Z</time>
      </trkpt>
      <trkpt lat="45.18651" lon="5.9103">
        <ele>1316.2</ele>
        <time>2021-02-20T08:08:41Z</time>
      </trkpt>
      <trkpt lat="45.18651" lon="5.91031">
        <ele>1316.3</ele>
        <time>2021-02-20T08:08:42Z</time>
      </trkpt>
      <trkpt lat="45.18651" lon="5.91032">
        <ele>1316.4</ele>
        <time>2021-02-20T08:08:43Z</time>
      </trkpt>
      <trkpt lat="45.18651" lon="5.91032">
        <ele>1316.5</ele>
        <time>2021-02-20T08:08:44Z</time>
      </trkpt>
      <trkpt lat="45.18651" lon="5.91032">
        <ele>1316.6</ele>
        <time>2021-02-20T08:08:45Z</time>
      </trkpt>
      <trkpt lat="45.18651" lon="5.91033">
        <ele>1316.6</ele>
        <time>2021-02-20T08:08:46Z</time>
      </trkpt>
      <trkpt lat="45.18652" lon="5.91033">
        <ele>1316.7</ele>
        <time>2021-02-20T08:08:47Z</time>
      </trkpt>
      <trkpt lat="45.18653" lon="5.91033">
        <ele>1316.9</ele>
        <time>2021-02-20T08:08:48Z</time>
      </trkpt>
      <trkpt lat="45.18654" lon="5.91033">
        <ele>1317.1</ele>
        <time>2021-02-20T08:08:49Z</time>
      </trkpt>
      <trkpt lat="45.18655" lon="5.91034">
        <ele>1317.4</ele>
        <time>2021-02-20T08:08:50Z</time>
      </trkpt>
      <trkpt lat="45.18656" lon="5.91035">
        <ele>1317.6</ele>
        <time>2021-02-20T08:08:51Z</time>
      </trkpt>
      <trkpt lat="45.18657" lon="5.91035">
        <ele>1317.8</ele>
        <time>2021-02-20T08:08:52Z</time>
      </trkpt>
      <trkpt lat="45.18658" lon="5.91037">
        <ele>1318.1</ele>
        <time>2021-02-20T08:08:53Z</time>
      </trkpt>
      <trkpt lat="45.18659" lon="5.91038">
        <ele>1318.4</ele>
        <time>2021-02-20T08:08:54Z</time>
      </trkpt>
      <trkpt lat="45.1866" lon="5.91039">
        <ele>1318.6</ele>
        <time>2021-02-20T08:08:55Z</time>
      </trkpt>
      <trkpt lat="45.1866" lon="5.9104">
        <ele>1318.8</ele>
        <time>2021-02-20T08:08:56Z</time>
      </trkpt>
      <trkpt lat="45.18661" lon="5.91042">
        <ele>1319.1</ele>
        <time>2021-02-20T08:08:57Z</time>
      </trkpt>
      <trkpt lat="45.18662" lon="5.91043">
        <ele>1319.4</ele>
        <time>2021-02-20T08:08:58Z</time>
      </trkpt>
      <trkpt lat="45.18663" lon="5.91044">
        <ele>1319.6</ele>
        <time>2021-02-20T08:08:59Z</time>
      </trkpt>
      <trkpt lat="45.18664" lon="5.91045">
        <ele>1319.9</ele>
        <time>2021-02-20T08:09:00Z</time>
      </trkpt>
      <trkpt lat="45.18665" lon="5.91046">
        <ele>1320.1</ele>
        <time>2021-02-20T08:09:01Z</time>
      </trkpt>
      <trkpt lat="45.18666" lon="5.91047">
        <ele>1320.4</ele>
        <time>2021-02-20T08:09:02Z</time>
      </trkpt>
      <trkpt lat="45.18667" lon="5.91049">
        <ele>1320.7</ele>
        <time>2021-02-20T08:09:03Z</time>
      </trkpt>
      <trkpt lat="45.18668" lon="5.91051">
        <ele>1321</ele>
        <time>2021-02-20T08:09:04Z</time>
      </trkpt>
      <trkpt lat="45.18668" lon="5.91053">
        <ele>1321.2</ele>
        <time>2021-02-20T08:09:05Z</time>
      </trkpt>
      <trkpt lat="45.18668" lon="5.91054">
        <ele>1321.3</ele>
        <time>2021-02-20T08:09:06Z</time>
      </trkpt>
      <trkpt lat="45.18668" lon="5.91054">
        <ele>1321.4</ele>
        <time>2021-02-20T08:09:07Z</time>
      </trkpt>
      <trkpt lat="45.18668" lon="5.91054">
        <ele>1321.4</ele>
        <time>2021-02-20T08:09:08Z</time>
      </trkpt>
      <trkpt lat="45.18668" lon="5.91056">
        <ele>1321.6</ele>
        <time>2021-02-20T08:09:09Z</time>
      </trkpt>
      <trkpt lat="45.18669" lon="5.91056">
        <ele>1321.7</ele>
        <time>2021-02-20T08:09:10Z</time>
      </trkpt>
      <trkpt lat="45.18669" lon="5.91057">
        <ele>1321.8</ele>
        <time>2021-02-20T08:09:11Z</time>
      </trkpt>
      <trkpt lat="45.18669" lon="5.91058">
        <ele>1321.9</ele>
        <time>2021-02-20T08:09:12Z</time>
      </trkpt>
      <trkpt lat="45.18669" lon="5.91059">
        <ele>1322.1</ele>
        <time>2021-02-20T08:09:13Z</time>
      </trkpt>
      <trkpt lat="45.18669" lon="5.91061">
        <ele>1322.3</ele>
        <time>2021-02-20T08:09:14Z</time>
      </trkpt>
      <trkpt lat="45.1867" lon="5.91062">
        <ele>1322.5</ele>
        <time>2021-02-20T08:09:15Z</time>
      </trkpt>
      <trkpt lat="45.18671" lon="5.91065">
        <ele>1323</ele>
        <time>2021-02-20T08:09:16Z</time>
      </trkpt>
      <trkpt lat="45.18672" lon="5.91066">
        <ele>1323.2</ele>
        <time>2021-02-20T08:09:17Z</time>
      </trkpt>
      <trkpt lat="45.18674" lon="5.91067">
        <ele>1323.6</ele>
        <time>2021-02-20T08:09:18Z</time>
      </trkpt>
      <trkpt lat="45.18675" lon="5.91069">
        <ele>1323.9</ele>
        <time>2021-02-20T08:09:19Z</time>
      </trkpt>
      <trkpt lat="45.18677" lon="5.91071">
        <ele>1324.3</ele>
        <time>2021-02-20T08:09:20Z</time>
      </trkpt>
      <trkpt lat="45.18677" lon="5.91072">
        <ele>1324.5</ele>
        <time>2021-02-20T08:09:21Z</time>
      </trkpt>
      <trkpt lat="45.18678" lon="5.91072">
        <ele>1324.6</ele>
        <time>2021-02-20T08:09:22Z</time>
      </trkpt>
      <trkpt lat="45.18678" lon="5.91072">
        <ele>1324.6</ele>
        <time>2021-02-20T08:09:23Z</time>
      </trkpt>
      <trkpt lat="45.1868" lon="5.91074">
        <ele>1325</ele>
        <time>2021-02-20T08:09:24Z</time>
      </trkpt>
      <trkpt lat="45.18681" lon="5.91075">
        <ele>1325.3</ele>
        <time>2021-02-20T08:09:25Z</time>
      </trkpt>
      <trkpt lat="45.18682" lon="5.91076">
        <ele>1325.5</ele>
        <time>2021-02-20T08:09:26Z</time>
      </trkpt>
      <trkpt lat="45.18683" lon="5.91078">
        <ele>1325.8</ele>
        <time>2021-02-20T08:09:27Z</time>
      </trkpt>
      <trkpt lat="45.18684" lon="5.91079">
        <ele>1326.1</ele>
        <time>2021-02-20T08:09:28Z</time>
      </trkpt>
      <trkpt lat="45.18685" lon="5.91081">
        <ele>1326.5</ele>
        <time>2021-02-20T08:09:29Z</time>
      </trkpt>
      <trkpt lat="45.18686" lon="5.91083">
        <ele>1326.8</ele>
        <time>2021-02-20T08:09:30Z</time>
      </trkpt>
      <trkpt lat="45.18687" lon="5.91084">
        <ele>1327</ele>
        <time>2021-02-20T08:09:31Z</time>
      </trkpt>
      <trkpt lat="45.18688" lon="5.91085">
        <ele>1327.2</ele>
        <time>2021-02-20T08:09:32Z</time>
      </trkpt>
      <trkpt lat="45.18689" lon="5.91085">
        <ele>1327.5</ele>
        <time>2021-02-20T08:09:33Z</time>
      </trkpt>
      <trkpt lat="45.1869" lon="5.91087">
        <ele>1327.7</ele>
        <time>2021-02-20T08:09:34Z</time>
      </trkpt>
      <trkpt lat="45.18691" lon="5.91088">
        <ele>1328</ele>
        <time>2021-02-20T08:09:35Z</time>
      </trkpt>
      <trkpt lat="45.18692" lon="5.91089">
        <ele>1328.2</ele>
        <time>2021-02-20T08:09:36Z</time>
      </trkpt>
      <trkpt lat="45.18692" lon="5.91089">
        <ele>1328.3</ele>
        <time>2021-02-20T08:09:37Z</time>
      </trkpt>
      <trkpt lat="45.18693" lon="5.9109">
        <ele>1328.4</ele>
        <time>2021-02-20T08:09:38Z</time>
      </trkpt>
      <trkpt lat="45.18693" lon="5.9109">
        <ele>1328.5</ele>
        <time>2021-02-20T08:09:39Z</time>
      </trkpt>
      <trkpt lat="45.18694" lon="5.91092">
        <ele>1328.8</ele>
        <time>2021-02-20T08:09:40Z</time>
      </trkpt>
      <trkpt lat="45.18694" lon="5.91093">
        <ele>1328.9</ele>
        <time>2021-02-20T08:09:41Z</time>
      </trkpt>
      <trkpt lat="45.18695" lon="5.91094">
        <ele>1329.2</ele>
        <time>2021-02-20T08:09:42Z</time>
      </trkpt>
      <trkpt lat="45.18696" lon="5.91095">
        <ele>1329.4</ele>
        <time>2021-02-20T08:09:43Z</time>
      </trkpt>
      <trkpt lat="45.18697" lon="5.91096">
        <ele>1329.7</ele>
        <time>2021-02-20T08:09:44Z</time>
      </trkpt>
      <trkpt lat="45.18698" lon="5.91096">
        <ele>1329.9</ele>
        <time>2021-02-20T08:09:45Z</time>
      </trkpt>
      <trkpt lat="45.18699" lon="5.91096">
        <ele>1330.1</ele>
        <time>2021-02-20T08:09:46Z</time>
      </trkpt>
      <trkpt lat="45.18701" lon="5.91097">
        <ele>1330.3</ele>
        <time>2021-02-20T08:09:47Z</time>
      </trkpt>
      <trkpt lat="45.18701" lon="5.91097">
        <ele>1330.5</ele>
        <time>2021-02-20T08:09:48Z</time>
      </trkpt>
      <trkpt lat="45.18702" lon="5.91098">
        <ele>1330.6</ele>
        <time>2021-02-20T08:09:49Z</time>
      </trkpt>
      <trkpt lat="45.18703" lon="5.91099">
        <ele>1330.9</ele>
        <time>2021-02-20T08:09:50Z</time>
      </trkpt>
      <trkpt lat="45.18704" lon="5.911">
        <ele>1331.1</ele>
        <time>2021-02-20T08:09:51Z</time>
      </trkpt>
      <trkpt lat="45.18705" lon="5.91101">
        <ele>1331.3</ele>
        <time>2021-02-20T08:09:52Z</time>
      </trkpt>
      <trkpt lat="45.18705" lon="5.91101">
        <ele>1331.3</ele>
        <time>2021-02-20T08:09:53Z</time>
      </trkpt>
      <trkpt lat="45.18706" lon="5.91102">
        <ele>1331.6</ele>
        <time>2021-02-20T08:09:54Z</time>
      </trkpt>
      <trkpt lat="45.18707" lon="5.91103">
        <ele>1331.8</ele>
        <time>2021-02-20T08:09:55Z</time>
      </trkpt>
      <trkpt lat="45.18708" lon="5.91103">
        <ele>1331.9</ele>
        <time>2021-02-20T08:09:56Z</time>
      </trkpt>
      <trkpt lat="45.18708" lon="5.91104">
        <ele>1332.1</ele>
        <time>2021-02-20T08:09:57Z</time>
      </trkpt>
      <trkpt lat="45.18709" lon="5.91105">
        <ele>1332.2</ele>
        <time>2021-02-20T08:09:58Z</time>
      </trkpt>
      <trkpt lat="45.18709" lon="5.91105">
        <ele>1332.2</ele>
        <time>2021-02-20T08:09:59Z</time>
      </trkpt>
      <trkpt lat="45.18709" lon="5.91106">
        <ele>1332.4</ele>
        <time>2021-02-20T08:10:00Z</time>
      </trkpt>
      <trkpt lat="45.1871" lon="5.91106">
        <ele>1332.5</ele>
        <time>2021-02-20T08:10:01Z</time>
      </trkpt>
      <trkpt lat="45.1871" lon="5.91107">
        <ele>1332.6</ele>
        <time>2021-02-20T08:10:02Z</time>
      </trkpt>
      <trkpt lat="45.18711" lon="5.91107">
        <ele>1332.7</ele>
        <time>2021-02-20T08:10:03Z</time>
      </trkpt>
      <trkpt lat="45.18712" lon="5.91108">
        <ele>1332.9</ele>
        <time>2021-02-20T08:10:04Z</time>
      </trkpt>
      <trkpt lat="45.18712" lon="5.91109">
        <ele>1333</ele>
        <time>2021-02-20T08:10:05Z</time>
      </trkpt>
      <trkpt lat="45.18713" lon="5.91109">
        <ele>1333.2</ele>
        <time>2021-02-20T08:10:06Z</time>
      </trkpt>
      <trkpt lat="45.18714" lon="5.9111">
        <ele>1333.3</ele>
        <time>2021-02-20T08:10:07Z</time>
      </trkpt>
      <trkpt lat="45.18715" lon="5.9111">
        <ele>1333.5</ele>
        <time>2021-02-20T08:10:08Z</time>
      </trkpt>
      <trkpt lat="45.18716" lon="5.9111">
        <ele>1333.6</ele>
        <time>2021-02-20T08:10:09Z</time>
      </trkpt>
      <trkpt lat="45.18716" lon="5.9111">
        <ele>1333.6</ele>
        <time>2021-02-20T08:10:10Z</time>
      </trkpt>
      <trkpt lat="45.18717" lon="5.9111">
        <ele>1333.9</ele>
        <time>2021-02-20T08:10:11Z</time>
      </trkpt>
      <trkpt lat="45.18718" lon="5.9111">
        <ele>1334.1</ele>
        <time>2021-02-20T08:10:12Z</time>
      </trkpt>
      <trkpt lat="45.18719" lon="5.9111">
        <ele>1334.1</ele>
        <time>2021-02-20T08:10:13Z</time>
      </trkpt>
      <trkpt lat="45.18719" lon="5.9111">
        <ele>1334.2</ele>
        <time>2021-02-20T08:10:14Z</time>
      </trkpt>
      <trkpt lat="45.18718" lon="5.9111">
        <ele>1334.3</ele>
        <time>2021-02-20T08:10:15Z</time>
      </trkpt>
      <trkpt lat="45.18718" lon="5.9111">
        <ele>1334.3</ele>
        <time>2021-02-20T08:10:16Z</time>
      </trkpt>
      <trkpt lat="45.18719" lon="5.91111">
        <ele>1334.4</ele>
        <time>2021-02-20T08:10:17Z</time>
      </trkpt>
      <trkpt lat="45.1872" lon="5.91111">
        <ele>1334.6</ele>
        <time>2021-02-20T08:10:18Z</time>
      </trkpt>
      <trkpt lat="45.18722" lon="5.91111">
        <ele>1335</ele>
        <time>2021-02-20T08:10:19Z</time>
      </trkpt>
      <trkpt lat="45.18723" lon="5.91111">
        <ele>1335.1</ele>
        <time>2021-02-20T08:10:20Z</time>
      </trkpt>
      <trkpt lat="45.18723" lon="5.91111">
        <ele>1335.3</ele>
        <time>2021-02-20T08:10:21Z</time>
      </trkpt>
      <trkpt lat="45.18724" lon="5.91111">
        <ele>1335.4</ele>
        <time>2021-02-20T08:10:22Z</time>
      </trkpt>
      <trkpt lat="45.18725" lon="5.91111">
        <ele>1335.6</ele>
        <time>2021-02-20T08:10:23Z</time>
      </trkpt>
      <trkpt lat="45.18726" lon="5.91111">
        <ele>1335.8</ele>
        <time>2021-02-20T08:10:24Z</time>
      </trkpt>
      <trkpt lat="45.18728" lon="5.91112">
        <ele>1336.1</ele>
        <time>2021-02-20T08:10:25Z</time>
      </trkpt>
      <trkpt lat="45.18729" lon="5.91112">
        <ele>1336.5</ele>
        <time>2021-02-20T08:10:26Z</time>
      </trkpt>
      <trkpt lat="45.18731" lon="5.91113">
        <ele>1336.9</ele>
        <time>2021-02-20T08:10:27Z</time>
      </trkpt>
      <trkpt lat="45.18732" lon="5.91113">
        <ele>1337.2</ele>
        <time>2021-02-20T08:10:28Z</time>
      </trkpt>
      <trkpt lat="45.18734" lon="5.91113">
        <ele>1337.4</ele>
        <time>2021-02-20T08:10:29Z</time>
      </trkpt>
      <trkpt lat="45.18735" lon="5.91114">
        <ele>1337.6</ele>
        <time>2021-02-20T08:10:30Z</time>
      </trkpt>
      <trkpt lat="45.18735" lon="5.91114">
        <ele>1337.8</ele>
        <time>2021-02-20T08:10:31Z</time>
      </trkpt>
      <trkpt lat="45.18735" lon="5.91114">
        <ele>1337.9</ele>
        <time>2021-02-20T08:10:32Z</time>
      </trkpt>
      <trkpt lat="45.18735" lon="5.91115">
        <ele>1338</ele>
        <time>2021-02-20T08:10:33Z</time>
      </trkpt>
      <trkpt lat="45.18735" lon="5.91115">
        <ele>1338</ele>
        <time>2021-02-20T08:10:34Z</time>
      </trkpt>
      <trkpt lat="45.18736" lon="5.91116">
        <ele>1338.3</ele>
        <time>2021-02-20T08:10:35Z</time>
      </trkpt>
      <trkpt lat="45.18738" lon="5.91116">
        <ele>1338.6</ele>
        <time>2021-02-20T08:10:36Z</time>
      </trkpt>
      <trkpt lat="45.18739" lon="5.91117">
        <ele>1338.9</ele>
        <time>2021-02-20T08:10:37Z</time>
      </trkpt>
      <trkpt lat="45.18741" lon="5.91117">
        <ele>1339.4</ele>
        <time>2021-02-20T08:10:38Z</time>
      </trkpt>
      <trkpt lat="45.18742" lon="5.91118">
        <ele>1339.7</ele>
        <time>2021-02-20T08:10:39Z</time>
      </trkpt>
      <trkpt lat="45.18744" lon="5.91118">
        <ele>1340</ele>
        <time>2021-02-20T08:10:40Z</time>
      </trkpt>
      <trkpt lat="45.18744" lon="5.91117">
        <ele>1340.2</ele>
        <time>2021-02-20T08:10:41Z</time>
      </trkpt>
      <trkpt lat="45.18744" lon="5.91116">
        <ele>1340.4</ele>
        <time>2021-02-20T08:10:42Z</time>
      </trkpt>
      <trkpt lat="45.18744" lon="5.91116">
        <ele>1340.5</ele>
        <time>2021-02-20T08:10:43Z</time>
      </trkpt>
      <trkpt lat="45.18744" lon="5.91116">
        <ele>1340.5</ele>
        <time>2021-02-20T08:10:44Z</time>
      </trkpt>
      <trkpt lat="45.18746" lon="5.91116">
        <ele>1340.9</ele>
        <time>2021-02-20T08:10:45Z</time>
      </trkpt>
      <trkpt lat="45.18746" lon="5.91117">
        <ele>1341.1</ele>
        <time>2021-02-20T08:10:46Z</time>
      </trkpt>
      <trkpt lat="45.18747" lon="5.91117">
        <ele>1341.2</ele>
        <time>2021-02-20T08:10:47Z</time>
      </trkpt>
      <trkpt lat="45.18747" lon="5.91117">
        <ele>1341.4</ele>
        <time>2021-02-20T08:10:48Z</time>
      </trkpt>
      <trkpt lat="45.18749" lon="5.91117">
        <ele>1341.6</ele>
        <time>2021-02-20T08:10:49Z</time>
      </trkpt>
      <trkpt lat="45.1875" lon="5.91117">
        <ele>1342</ele>
        <time>2021-02-20T08:10:50Z</time>
      </trkpt>
      <trkpt lat="45.18751" lon="5.91117">
        <ele>1342.2</ele>
        <time>2021-02-20T08:10:51Z</time>
      </trkpt>
      <trkpt lat="45.18751" lon="5.91117">
        <ele>1342.2</ele>
        <time>2021-02-20T08:10:52Z</time>
      </trkpt>
      <trkpt lat="45.18751" lon="5.91117">
        <ele>1342.2</ele>
        <time>2021-02-20T08:10:53Z</time>
      </trkpt>
      <trkpt lat="45.18753" lon="5.91117">
        <ele>1342.8</ele>
        <time>2021-02-20T08:10:54Z</time>
      </trkpt>
      <trkpt lat="45.18755" lon="5.91117">
        <ele>1343.3</ele>
        <time>2021-02-20T08:10:55Z</time>
      </trkpt>
      <trkpt lat="45.18756" lon="5.91117">
        <ele>1343.5</ele>
        <time>2021-02-20T08:10:56Z</time>
      </trkpt>
      <trkpt lat="45.18757" lon="5.91117">
        <ele>1343.8</ele>
        <time>2021-02-20T08:10:57Z</time>
      </trkpt>
      <trkpt lat="45.18758" lon="5.91117">
        <ele>1344</ele>
        <time>2021-02-20T08:10:58Z</time>
      </trkpt>
      <trkpt lat="45.18759" lon="5.91117">
        <ele>1344.3</ele>
        <time>2021-02-20T08:10:59Z</time>
      </trkpt>
      <trkpt lat="45.18759" lon="5.91117">
        <ele>1344.4</ele>
        <time>2021-02-20T08:11:00Z</time>
      </trkpt>
      <trkpt lat="45.1876" lon="5.91117">
        <ele>1344.6</ele>
        <time>2021-02-20T08:11:01Z</time>
      </trkpt>
      <trkpt lat="45.1876" lon="5.91117">
        <ele>1344.7</ele>
        <time>2021-02-20T08:11:02Z</time>
      </trkpt>
      <trkpt lat="45.18761" lon="5.91116">
        <ele>1344.9</ele>
        <time>2021-02-20T08:11:03Z</time>
      </trkpt>
      <trkpt lat="45.18761" lon="5.91116">
        <ele>1345</ele>
        <time>2021-02-20T08:11:04Z</time>
      </trkpt>
      <trkpt lat="45.18762" lon="5.91115">
        <ele>1345.3</ele>
        <time>2021-02-20T08:11:05Z</time>
      </trkpt>
      <trkpt lat="45.18764" lon="5.91114">
        <ele>1345.7</ele>
        <time>2021-02-20T08:11:06Z</time>
      </trkpt>
      <trkpt lat="45.18765" lon="5.91114">
        <ele>1346.1</ele>
        <time>2021-02-20T08:11:07Z</time>
      </trkpt>
      <trkpt lat="45.18766" lon="5.91114">
        <ele>1346.4</ele>
        <time>2021-02-20T08:11:08Z</time>
      </trkpt>
      <trkpt lat="45.18767" lon="5.91114">
        <ele>1346.6</ele>
        <time>2021-02-20T08:11:09Z</time>
      </trkpt>
      <trkpt lat="45.18767" lon="5.91115">
        <ele>1346.8</ele>
        <time>2021-02-20T08:11:10Z</time>
      </trkpt>
      <trkpt lat="45.18768" lon="5.91115">
        <ele>1346.9</ele>
        <time>2021-02-20T08:11:11Z</time>
      </trkpt>
      <trkpt lat="45.18767" lon="5.91116">
        <ele>1347</ele>
        <time>2021-02-20T08:11:12Z</time>
      </trkpt>
      <trkpt lat="45.18767" lon="5.91117">
        <ele>1347.3</ele>
        <time>2021-02-20T08:11:13Z</time>
      </trkpt>
      <trkpt lat="45.18767" lon="5.91117">
        <ele>1347.3</ele>
        <time>2021-02-20T08:11:14Z</time>
      </trkpt>
      <trkpt lat="45.18766" lon="5.91117">
        <ele>1347.4</ele>
        <time>2021-02-20T08:11:15Z</time>
      </trkpt>
      <trkpt lat="45.18766" lon="5.91118">
        <ele>1347.6</ele>
        <time>2021-02-20T08:11:16Z</time>
      </trkpt>
      <trkpt lat="45.18766" lon="5.91119">
        <ele>1347.7</ele>
        <time>2021-02-20T08:11:17Z</time>
      </trkpt>
      <trkpt lat="45.18767" lon="5.91119">
        <ele>1347.8</ele>
        <time>2021-02-20T08:11:18Z</time>
      </trkpt>
      <trkpt lat="45.18767" lon="5.9112">
        <ele>1348.1</ele>
        <time>2021-02-20T08:11:19Z</time>
      </trkpt>
      <trkpt lat="45.18768" lon="5.91122">
        <ele>1348.5</ele>
        <time>2021-02-20T08:11:20Z</time>
      </trkpt>
      <trkpt lat="45.18769" lon="5.91123">
        <ele>1348.8</ele>
        <time>2021-02-20T08:11:21Z</time>
      </trkpt>
      <trkpt lat="45.18769" lon="5.91124">
        <ele>1349</ele>
        <time>2021-02-20T08:11:22Z</time>
      </trkpt>
      <trkpt lat="45.1877" lon="5.91125">
        <ele>1349.2</ele>
        <time>2021-02-20T08:11:23Z</time>
      </trkpt>
      <trkpt lat="45.1877" lon="5.91127">
        <ele>1349.5</ele>
        <time>2021-02-20T08:11:24Z</time>
      </trkpt>
      <trkpt lat="45.1877" lon="5.91129">
        <ele>1349.8</ele>
        <time>2021-02-20T08:11:25Z</time>
      </trkpt>
      <trkpt lat="45.18771" lon="5.9113">
        <ele>1350</ele>
        <time>2021-02-20T08:11:26Z</time>
      </trkpt>
      <trkpt lat="45.18771" lon="5.9113">
        <ele>1350.1</ele>
        <time>2021-02-20T08:11:27Z</time>
      </trkpt>
      <trkpt lat="45.18772" lon="5.91131">
        <ele>1350.4</ele>
        <time>2021-02-20T08:11:28Z</time>
      </trkpt>
      <trkpt lat="45.18773" lon="5.91132">
        <ele>1350.6</ele>
        <time>2021-02-20T08:11:29Z</time>
      </trkpt>
      <trkpt lat="45.18774" lon="5.91133">
        <ele>1350.8</ele>
        <time>2021-02-20T08:11:30Z</time>
      </trkpt>
      <trkpt lat="45.18776" lon="5.91133">
        <ele>1351.2</ele>
        <time>2021-02-20T08:11:31Z</time>
      </trkpt>
      <trkpt lat="45.18776" lon="5.91133">
        <ele>1351.4</ele>
        <time>2021-02-20T08:11:32Z</time>
      </trkpt>
      <trkpt lat="45.18777" lon="5.91133">
        <ele>1351.6</ele>
        <time>2021-02-20T08:11:33Z</time>
      </trkpt>
      <trkpt lat="45.18778" lon="5.91133">
        <ele>1351.8</ele>
        <time>2021-02-20T08:11:34Z</time>
      </trkpt>
      <trkpt lat="45.18779" lon="5.91133">
        <ele>1352</ele>
        <time>2021-02-20T08:11:35Z</time>
      </trkpt>
      <trkpt lat="45.1878" lon="5.91134">
        <ele>1352.1</ele>
        <time>2021-02-20T08:11:36Z</time>
      </trkpt>
      <trkpt lat="45.1878" lon="5.91135">
        <ele>1352.4</ele>
        <time>2021-02-20T08:11:37Z</time>
      </trkpt>
      <trkpt lat="45.18781" lon="5.91136">
        <ele>1352.6</ele>
        <time>2021-02-20T08:11:38Z</time>
      </trkpt>
      <trkpt lat="45.18782" lon="5.91138">
        <ele>1352.8</ele>
        <time>2021-02-20T08:11:39Z</time>
      </trkpt>
      <trkpt lat="45.18782" lon="5.91139">
        <ele>1353.1</ele>
        <time>2021-02-20T08:11:40Z</time>
      </trkpt>
      <trkpt lat="45.18782" lon="5.91141">
        <ele>1353.3</ele>
        <time>2021-02-20T08:11:41Z</time>
      </trkpt>
      <trkpt lat="45.18783" lon="5.91142">
        <ele>1353.5</ele>
        <time>2021-02-20T08:11:42Z</time>
      </trkpt>
      <trkpt lat="45.18783" lon="5.91144">
        <ele>1353.8</ele>
        <time>2021-02-20T08:11:43Z</time>
      </trkpt>
      <trkpt lat="45.18783" lon="5.91145">
        <ele>1354</ele>
        <time>2021-02-20T08:11:44Z</time>
      </trkpt>
      <trkpt lat="45.18783" lon="5.91146">
        <ele>1354.2</ele>
        <time>2021-02-20T08:11:45Z</time>
      </trkpt>
      <trkpt lat="45.18784" lon="5.91147">
        <ele>1354.3</ele>
        <time>2021-02-20T08:11:46Z</time>
      </trkpt>
      <trkpt lat="45.18784" lon="5.91147">
        <ele>1354.3</ele>
        <time>2021-02-20T08:11:47Z</time>
      </trkpt>
      <trkpt lat="45.18785" lon="5.91149">
        <ele>1354.7</ele>
        <time>2021-02-20T08:11:48Z</time>
      </trkpt>
      <trkpt lat="45.18785" lon="5.9115">
        <ele>1354.8</ele>
        <time>2021-02-20T08:11:49Z</time>
      </trkpt>
      <trkpt lat="45.18785" lon="5.91152">
        <ele>1355</ele>
        <time>2021-02-20T08:11:50Z</time>
      </trkpt>
      <trkpt lat="45.18785" lon="5.91153">
        <ele>1355.3</ele>
        <time>2021-02-20T08:11:51Z</time>
      </trkpt>
      <trkpt lat="45.18786" lon="5.91155">
        <ele>1355.5</ele>
        <time>2021-02-20T08:11:52Z</time>
      </trkpt>
      <trkpt lat="45.18786" lon="5.91156">
        <ele>1355.7</ele>
        <time>2021-02-20T08:11:53Z</time>
      </trkpt>
      <trkpt lat="45.18786" lon="5.91157">
        <ele>1355.8</ele>
        <time>2021-02-20T08:11:54Z</time>
      </trkpt>
      <trkpt lat="45.18786" lon="5.91158">
        <ele>1356</ele>
        <time>2021-02-20T08:11:55Z</time>
      </trkpt>
      <trkpt lat="45.18786" lon="5.91159">
        <ele>1356.1</ele>
        <time>2021-02-20T08:11:56Z</time>
      </trkpt>
      <trkpt lat="45.18786" lon="5.91159">
        <ele>1356.2</ele>
        <time>2021-02-20T08:11:57Z</time>
      </trkpt>
      <trkpt lat="45.18786" lon="5.91159">
        <ele>1356.3</ele>
        <time>2021-02-20T08:11:58Z</time>
      </trkpt>
      <trkpt lat="45.18786" lon="5.91159">
        <ele>1356.3</ele>
        <time>2021-02-20T08:11:59Z</time>
      </trkpt>
      <trkpt lat="45.18786" lon="5.9116">
        <ele>1356.4</ele>
        <time>2021-02-20T08:12:00Z</time>
      </trkpt>
      <trkpt lat="45.18786" lon="5.91161">
        <ele>1356.5</ele>
        <time>2021-02-20T08:12:01Z</time>
      </trkpt>
      <trkpt lat="45.18786" lon="5.91161">
        <ele>1356.6</ele>
        <time>2021-02-20T08:12:02Z</time>
      </trkpt>
      <trkpt lat="45.18785" lon="5.91162">
        <ele>1356.7</ele>
        <time>2021-02-20T08:12:03Z</time>
      </trkpt>
      <trkpt lat="45.18784" lon="5.91162">
        <ele>1356.8</ele>
        <time>2021-02-20T08:12:04Z</time>
      </trkpt>
      <trkpt lat="45.18784" lon="5.91163">
        <ele>1356.9</ele>
        <time>2021-02-20T08:12:05Z</time>
      </trkpt>
      <trkpt lat="45.18783" lon="5.91163">
        <ele>1357</ele>
        <time>2021-02-20T08:12:06Z</time>
      </trkpt>
      <trkpt lat="45.18783" lon="5.91163">
        <ele>1357.1</ele>
        <time>2021-02-20T08:12:07Z</time>
      </trkpt>
      <trkpt lat="45.18782" lon="5.91163">
        <ele>1357.3</ele>
        <time>2021-02-20T08:12:08Z</time>
      </trkpt>
      <trkpt lat="45.18781" lon="5.91163">
        <ele>1357.5</ele>
        <time>2021-02-20T08:12:09Z</time>
      </trkpt>
      <trkpt lat="45.1878" lon="5.91163">
        <ele>1357.6</ele>
        <time>2021-02-20T08:12:10Z</time>
      </trkpt>
      <trkpt lat="45.1878" lon="5.91164">
        <ele>1357.7</ele>
        <time>2021-02-20T08:12:11Z</time>
      </trkpt>
      <trkpt lat="45.1878" lon="5.91164">
        <ele>1357.7</ele>
        <time>2021-02-20T08:12:12Z</time>
      </trkpt>
      <trkpt lat="45.18779" lon="5.91165">
        <ele>1357.9</ele>
        <time>2021-02-20T08:12:13Z</time>
      </trkpt>
      <trkpt lat="45.18778" lon="5.91166">
        <ele>1358.1</ele>
        <time>2021-02-20T08:12:14Z</time>
      </trkpt>
      <trkpt lat="45.18777" lon="5.91167">
        <ele>1358.3</ele>
        <time>2021-02-20T08:12:15Z</time>
      </trkpt>
      <trkpt lat="45.18776" lon="5.91167">
        <ele>1358.5</ele>
        <time>2021-02-20T08:12:16Z</time>
      </trkpt>
      <trkpt lat="45.18775" lon="5.91167">
        <ele>1358.6</ele>
        <time>2021-02-20T08:12:17Z</time>
      </trkpt>
      <trkpt lat="45.18773" lon="5.91168">
        <ele>1358.8</ele>
        <time>2021-02-20T08:12:18Z</time>
      </trkpt>
      <trkpt lat="45.18773" lon="5.91168">
        <ele>1359</ele>
        <time>2021-02-20T08:12:19Z</time>
      </trkpt>
      <trkpt lat="45.18772" lon="5.91169">
        <ele>1359.1</ele>
        <time>2021-02-20T08:12:20Z</time>
      </trkpt>
      <trkpt lat="45.18771" lon="5.91169">
        <ele>1359.2</ele>
        <time>2021-02-20T08:12:21Z</time>
      </trkpt>
      <trkpt lat="45.18771" lon="5.9117">
        <ele>1359.3</ele>
        <time>2021-02-20T08:12:22Z</time>
      </trkpt>
      <trkpt lat="45.1877" lon="5.9117">
        <ele>1359.4</ele>
        <time>2021-02-20T08:12:23Z</time>
      </trkpt>
      <trkpt lat="45.18769" lon="5.9117">
        <ele>1359.5</ele>
        <time>2021-02-20T08:12:24Z</time>
      </trkpt>
      <trkpt lat="45.18769" lon="5.91169">
        <ele>1359.6</ele>
        <time>2021-02-20T08:12:25Z</time>
      </trkpt>
      <trkpt lat="45.18767" lon="5.9117">
        <ele>1359.9</ele>
        <time>2021-02-20T08:12:26Z</time>
      </trkpt>
      <trkpt lat="45.18766" lon="5.9117">
        <ele>1360</ele>
        <time>2021-02-20T08:12:27Z</time>
      </trkpt>
      <trkpt lat="45.18765" lon="5.91171">
        <ele>1360.2</ele>
        <time>2021-02-20T08:12:28Z</time>
      </trkpt>
      <trkpt lat="45.18764" lon="5.91172">
        <ele>1360.4</ele>
        <time>2021-02-20T08:12:29Z</time>
      </trkpt>
      <trkpt lat="45.18763" lon="5.91173">
        <ele>1360.5</ele>
        <time>2021-02-20T08:12:30Z</time>
      </trkpt>
      <trkpt lat="45.18762" lon="5.91174">
        <ele>1360.7</ele>
        <time>2021-02-20T08:12:31Z</time>
      </trkpt>
      <trkpt lat="45.18762" lon="5.91175">
        <ele>1360.9</ele>
        <time>2021-02-20T08:12:32Z</time>
      </trkpt>
      <trkpt lat="45.18762" lon="5.91176">
        <ele>1361.1</ele>
        <time>2021-02-20T08:12:33Z</time>
      </trkpt>
      <trkpt lat="45.18761" lon="5.91177">
        <ele>1361.2</ele>
        <time>2021-02-20T08:12:34Z</time>
      </trkpt>
      <trkpt lat="45.18761" lon="5.91178">
        <ele>1361.3</ele>
        <time>2021-02-20T08:12:35Z</time>
      </trkpt>
      <trkpt lat="45.1876" lon="5.91179">
        <ele>1361.5</ele>
        <time>2021-02-20T08:12:36Z</time>
      </trkpt>
      <trkpt lat="45.1876" lon="5.9118">
        <ele>1361.7</ele>
        <time>2021-02-20T08:12:37Z</time>
      </trkpt>
      <trkpt lat="45.18759" lon="5.91181">
        <ele>1361.9</ele>
        <time>2021-02-20T08:12:38Z</time>
      </trkpt>
      <trkpt lat="45.18758" lon="5.91182">
        <ele>1362.1</ele>
        <time>2021-02-20T08:12:39Z</time>
      </trkpt>
      <trkpt lat="45.18757" lon="5.91183">
        <ele>1362.3</ele>
        <time>2021-02-20T08:12:40Z</time>
      </trkpt>
      <trkpt lat="45.18757" lon="5.91184">
        <ele>1362.4</ele>
        <time>2021-02-20T08:12:41Z</time>
      </trkpt>
      <trkpt lat="45.18756" lon="5.91184">
        <ele>1362.5</ele>
        <time>2021-02-20T08:12:42Z</time>
      </trkpt>
      <trkpt lat="45.18756" lon="5.91184">
        <ele>1362.6</ele>
        <time>2021-02-20T08:12:43Z</time>
      </trkpt>
      <trkpt lat="45.18755" lon="5.91184">
        <ele>1362.7</ele>
        <time>2021-02-20T08:12:44Z</time>
      </trkpt>
      <trkpt lat="45.18755" lon="5.91184">
        <ele>1362.8</ele>
        <time>2021-02-20T08:12:45Z</time>
      </trkpt>
      <trkpt lat="45.18754" lon="5.91185">
        <ele>1362.9</ele>
        <time>2021-02-20T08:12:46Z</time>
      </trkpt>
      <trkpt lat="45.18753" lon="5.91187">
        <ele>1363.2</ele>
        <time>2021-02-20T08:12:47Z</time>
      </trkpt>
      <trkpt lat="45.18752" lon="5.91188">
        <ele>1363.4</ele>
        <time>2021-02-20T08:12:48Z</time>
      </trkpt>
      <trkpt lat="45.18752" lon="5.91189">
        <ele>1363.6</ele>
        <time>2021-02-20T08:12:49Z</time>
      </trkpt>
      <trkpt lat="45.18751" lon="5.91189">
        <ele>1363.7</ele>
        <time>2021-02-20T08:12:50Z</time>
      </trkpt>
      <trkpt lat="45.18751" lon="5.91189">
        <ele>1363.7</ele>
        <time>2021-02-20T08:12:51Z</time>
      </trkpt>
      <trkpt lat="45.18751" lon="5.9119">
        <ele>1363.8</ele>
        <time>2021-02-20T08:12:52Z</time>
      </trkpt>
      <trkpt lat="45.18751" lon="5.91191">
        <ele>1363.9</ele>
        <time>2021-02-20T08:12:53Z</time>
      </trkpt>
      <trkpt lat="45.1875" lon="5.91192">
        <ele>1364.1</ele>
        <time>2021-02-20T08:12:54Z</time>
      </trkpt>
      <trkpt lat="45.1875" lon="5.91194">
        <ele>1364.3</ele>
        <time>2021-02-20T08:12:55Z</time>
      </trkpt>
      <trkpt lat="45.18749" lon="5.91196">
        <ele>1364.6</ele>
        <time>2021-02-20T08:12:56Z</time>
      </trkpt>
      <trkpt lat="45.18748" lon="5.91198">
        <ele>1364.8</ele>
        <time>2021-02-20T08:12:57Z</time>
      </trkpt>
      <trkpt lat="45.18748" lon="5.912">
        <ele>1365.1</ele>
        <time>2021-02-20T08:12:58Z</time>
      </trkpt>
      <trkpt lat="45.18747" lon="5.91201">
        <ele>1365.2</ele>
        <time>2021-02-20T08:12:59Z</time>
      </trkpt>
      <trkpt lat="45.18747" lon="5.91203">
        <ele>1365.4</ele>
        <time>2021-02-20T08:13:00Z</time>
      </trkpt>
      <trkpt lat="45.18746" lon="5.91204">
        <ele>1365.6</ele>
        <time>2021-02-20T08:13:01Z</time>
      </trkpt>
      <trkpt lat="45.18746" lon="5.91207">
        <ele>1366</ele>
        <time>2021-02-20T08:13:02Z</time>
      </trkpt>
      <trkpt lat="45.18745" lon="5.91208">
        <ele>1366.1</ele>
        <time>2021-02-20T08:13:03Z</time>
      </trkpt>
      <trkpt lat="45.18745" lon="5.9121">
        <ele>1366.2</ele>
        <time>2021-02-20T08:13:04Z</time>
      </trkpt>
      <trkpt lat="45.18745" lon="5.91211">
        <ele>1366.4</ele>
        <time>2021-02-20T08:13:05Z</time>
      </trkpt>
      <trkpt lat="45.18743" lon="5.91213">
        <ele>1366.6</ele>
        <time>2021-02-20T08:13:06Z</time>
      </trkpt>
      <trkpt lat="45.18742" lon="5.91213">
        <ele>1366.8</ele>
        <time>2021-02-20T08:13:07Z</time>
      </trkpt>
      <trkpt lat="45.18742" lon="5.91214">
        <ele>1366.9</ele>
        <time>2021-02-20T08:13:08Z</time>
      </trkpt>
      <trkpt lat="45.1874" lon="5.91214">
        <ele>1367.1</ele>
        <time>2021-02-20T08:13:09Z</time>
      </trkpt>
      <trkpt lat="45.18739" lon="5.91215">
        <ele>1367.3</ele>
        <time>2021-02-20T08:13:10Z</time>
      </trkpt>
      <trkpt lat="45.18738" lon="5.91216">
        <ele>1367.4</ele>
        <time>2021-02-20T08:13:11Z</time>
      </trkpt>
      <trkpt lat="45.18737" lon="5.91218">
        <ele>1367.6</ele>
        <time>2021-02-20T08:13:12Z</time>
      </trkpt>
      <trkpt lat="45.18736" lon="5.9122">
        <ele>1367.9</ele>
        <time>2021-02-20T08:13:13Z</time>
      </trkpt>
      <trkpt lat="45.18735" lon="5.91221">
        <ele>1368</ele>
        <time>2021-02-20T08:13:14Z</time>
      </trkpt>
      <trkpt lat="45.18735" lon="5.91222">
        <ele>1368.1</ele>
        <time>2021-02-20T08:13:15Z</time>
      </trkpt>
      <trkpt lat="45.18734" lon="5.91224">
        <ele>1368.2</ele>
        <time>2021-02-20T08:13:16Z</time>
      </trkpt>
      <trkpt lat="45.18734" lon="5.91224">
        <ele>1368.3</ele>
        <time>2021-02-20T08:13:17Z</time>
      </trkpt>
      <trkpt lat="45.18733" lon="5.91225">
        <ele>1368.3</ele>
        <time>2021-02-20T08:13:18Z</time>
      </trkpt>
      <trkpt lat="45.18732" lon="5.91226">
        <ele>1368.4</ele>
        <time>2021-02-20T08:13:19Z</time>
      </trkpt>
      <trkpt lat="45.18732" lon="5.91226">
        <ele>1368.4</ele>
        <time>2021-02-20T08:13:20Z</time>
      </trkpt>
      <trkpt lat="45.18731" lon="5.91228">
        <ele>1368.6</ele>
        <time>2021-02-20T08:13:21Z</time>
      </trkpt>
      <trkpt lat="45.1873" lon="5.91229">
        <ele>1368.8</ele>
        <time>2021-02-20T08:13:22Z</time>
      </trkpt>
      <trkpt lat="45.18729" lon="5.9123">
        <ele>1368.9</ele>
        <time>2021-02-20T08:13:23Z</time>
      </trkpt>
      <trkpt lat="45.18728" lon="5.91232">
        <ele>1369</ele>
        <time>2021-02-20T08:13:24Z</time>
      </trkpt>
      <trkpt lat="45.18727" lon="5.91233">
        <ele>1369.1</ele>
        <time>2021-02-20T08:13:25Z</time>
      </trkpt>
      <trkpt lat="45.18726" lon="5.91235">
        <ele>1369.3</ele>
        <time>2021-02-20T08:13:26Z</time>
      </trkpt>
      <trkpt lat="45.18725" lon="5.91237">
        <ele>1369.4</ele>
        <time>2021-02-20T08:13:27Z</time>
      </trkpt>
      <trkpt lat="45.18724" lon="5.91238">
        <ele>1369.4</ele>
        <time>2021-02-20T08:13:28Z</time>
      </trkpt>
      <trkpt lat="45.18723" lon="5.91239">
        <ele>1369.5</ele>
        <time>2021-02-20T08:13:29Z</time>
      </trkpt>
      <trkpt lat="45.18722" lon="5.9124">
        <ele>1369.5</ele>
        <time>2021-02-20T08:13:30Z</time>
      </trkpt>
      <trkpt lat="45.18721" lon="5.9124">
        <ele>1369.6</ele>
        <time>2021-02-20T08:13:31Z</time>
      </trkpt>
      <trkpt lat="45.1872" lon="5.91241">
        <ele>1369.7</ele>
        <time>2021-02-20T08:13:32Z</time>
      </trkpt>
      <trkpt lat="45.1872" lon="5.91242">
        <ele>1369.7</ele>
        <time>2021-02-20T08:13:33Z</time>
      </trkpt>
      <trkpt lat="45.18719" lon="5.91243">
        <ele>1369.7</ele>
        <time>2021-02-20T08:13:34Z</time>
      </trkpt>
      <trkpt lat="45.18719" lon="5.91244">
        <ele>1369.8</ele>
        <time>2021-02-20T08:13:35Z</time>
      </trkpt>
      <trkpt lat="45.18719" lon="5.91244">
        <ele>1369.8</ele>
        <time>2021-02-20T08:13:36Z</time>
      </trkpt>
      <trkpt lat="45.18718" lon="5.91247">
        <ele>1369.8</ele>
        <time>2021-02-20T08:13:37Z</time>
      </trkpt>
      <trkpt lat="45.18718" lon="5.91249">
        <ele>1369.9</ele>
        <time>2021-02-20T08:13:38Z</time>
      </trkpt>
      <trkpt lat="45.18718" lon="5.9125">
        <ele>1369.9</ele>
        <time>2021-02-20T08:13:39Z</time>
      </trkpt>
      <trkpt lat="45.18718" lon="5.91252">
        <ele>1370</ele>
        <time>2021-02-20T08:13:40Z</time>
      </trkpt>
      <trkpt lat="45.18719" lon="5.91254">
        <ele>1370</ele>
        <time>2021-02-20T08:13:41Z</time>
      </trkpt>
      <trkpt lat="45.18718" lon="5.91256">
        <ele>1370.1</ele>
        <time>2021-02-20T08:13:42Z</time>
      </trkpt>
      <trkpt lat="45.18718" lon="5.91257">
        <ele>1370.1</ele>
        <time>2021-02-20T08:13:43Z</time>
      </trkpt>
      <trkpt lat="45.18717" lon="5.91258">
        <ele>1370.1</ele>
        <time>2021-02-20T08:13:44Z</time>
      </trkpt>
      <trkpt lat="45.18715" lon="5.91261">
        <ele>1370.2</ele>
        <time>2021-02-20T08:13:45Z</time>
      </trkpt>
      <trkpt lat="45.18714" lon="5.91262">
        <ele>1370.2</ele>
        <time>2021-02-20T08:13:46Z</time>
      </trkpt>
      <trkpt lat="45.18713" lon="5.91264">
        <ele>1370.3</ele>
        <time>2021-02-20T08:13:47Z</time>
      </trkpt>
      <trkpt lat="45.18712" lon="5.91266">
        <ele>1370.3</ele>
        <time>2021-02-20T08:13:48Z</time>
      </trkpt>
      <trkpt lat="45.1871" lon="5.91267">
        <ele>1370.4</ele>
        <time>2021-02-20T08:13:49Z</time>
      </trkpt>
      <trkpt lat="45.18709" lon="5.91267">
        <ele>1370.4</ele>
        <time>2021-02-20T08:13:50Z</time>
      </trkpt>
      <trkpt lat="45.18708" lon="5.91267">
        <ele>1370.4</ele>
        <time>2021-02-20T08:13:51Z</time>
      </trkpt>
      <trkpt lat="45.18707" lon="5.91268">
        <ele>1370.5</ele>
        <time>2021-02-20T08:13:52Z</time>
      </trkpt>
      <trkpt lat="45.18706" lon="5.9127">
        <ele>1370.5</ele>
        <time>2021-02-20T08:13:53Z</time>
      </trkpt>
      <trkpt lat="45.18704" lon="5.91272">
        <ele>1370.6</ele>
        <time>2021-02-20T08:13:54Z</time>
      </trkpt>
      <trkpt lat="45.18703" lon="5.91273">
        <ele>1370.6</ele>
        <time>2021-02-20T08:13:55Z</time>
      </trkpt>
      <trkpt lat="45.18702" lon="5.91274">
        <ele>1370.7</ele>
        <time>2021-02-20T08:13:56Z</time>
      </trkpt>
      <trkpt lat="45.18702" lon="5.91275">
        <ele>1370.7</ele>
        <time>2021-02-20T08:13:57Z</time>
      </trkpt>
      <trkpt lat="45.18701" lon="5.91276">
        <ele>1370.7</ele>
        <time>2021-02-20T08:13:58Z</time>
      </trkpt>
      <trkpt lat="45.187" lon="5.91278">
        <ele>1370.8</ele>
        <time>2021-02-20T08:13:59Z</time>
      </trkpt>
      <trkpt lat="45.18699" lon="5.9128">
        <ele>1370.9</ele>
        <time>2021-02-20T08:14:00Z</time>
      </trkpt>
      <trkpt lat="45.18698" lon="5.91282">
        <ele>1370.9</ele>
        <time>2021-02-20T08:14:01Z</time>
      </trkpt>
      <trkpt lat="45.18697" lon="5.91283">
        <ele>1371</ele>
        <time>2021-02-20T08:14:02Z</time>
      </trkpt>
      <trkpt lat="45.18695" lon="5.91285">
        <ele>1371.1</ele>
        <time>2021-02-20T08:14:03Z</time>
      </trkpt>
      <trkpt lat="45.18694" lon="5.91286">
        <ele>1371.2</ele>
        <time>2021-02-20T08:14:04Z</time>
      </trkpt>
      <trkpt lat="45.18693" lon="5.91287">
        <ele>1371.3</ele>
        <time>2021-02-20T08:14:05Z</time>
      </trkpt>
      <trkpt lat="45.18692" lon="5.91288">
        <ele>1371.3</ele>
        <time>2021-02-20T08:14:06Z</time>
      </trkpt>
      <trkpt lat="45.18692" lon="5.91289">
        <ele>1371.4</ele>
        <time>2021-02-20T08:14:07Z</time>
      </trkpt>
      <trkpt lat="45.18691" lon="5.91289">
        <ele>1371.4</ele>
        <time>2021-02-20T08:14:08Z</time>
      </trkpt>
      <trkpt lat="45.1869" lon="5.9129">
        <ele>1371.5</ele>
        <time>2021-02-20T08:14:09Z</time>
      </trkpt>
      <trkpt lat="45.18689" lon="5.91291">
        <ele>1371.6</ele>
        <time>2021-02-20T08:14:10Z</time>
      </trkpt>
      <trkpt lat="45.18687" lon="5.91293">
        <ele>1371.8</ele>
        <time>2021-02-20T08:14:11Z</time>
      </trkpt>
      <trkpt lat="45.18687" lon="5.91293">
        <ele>1371.8</ele>
        <time>2021-02-20T08:14:12Z</time>
      </trkpt>
      <trkpt lat="45.18686" lon="5.91294">
        <ele>1371.9</ele>
        <time>2021-02-20T08:14:13Z</time>
      </trkpt>
      <trkpt lat="45.18685" lon="5.91295">
        <ele>1372</ele>
        <time>2021-02-20T08:14:14Z</time>
      </trkpt>
      <trkpt lat="45.18684" lon="5.91296">
        <ele>1372.1</ele>
        <time>2021-02-20T08:14:15Z</time>
      </trkpt>
      <trkpt lat="45.18683" lon="5.91297">
        <ele>1372.2</ele>
        <time>2021-02-20T08:14:16Z</time>
      </trkpt>
      <trkpt lat="45.18682" lon="5.91297">
        <ele>1372.3</ele>
        <time>2021-02-20T08:14:17Z</time>
      </trkpt>
      <trkpt lat="45.18681" lon="5.91298">
        <ele>1372.4</ele>
        <time>2021-02-20T08:14:18Z</time>
      </trkpt>
      <trkpt lat="45.1868" lon="5.91299">
        <ele>1372.5</ele>
        <time>2021-02-20T08:14:19Z</time>
      </trkpt>
      <trkpt lat="45.18679" lon="5.91299">
        <ele>1372.6</ele>
        <time>2021-02-20T08:14:20Z</time>
      </trkpt>
      <trkpt lat="45.18678" lon="5.91299">
        <ele>1372.7</ele>
        <time>2021-02-20T08:14:21Z</time>
      </trkpt>
      <trkpt lat="45.18678" lon="5.91299">
        <ele>1372.7</ele>
        <time>2021-02-20T08:14:22Z</time>
      </trkpt>
      <trkpt lat="45.18677" lon="5.91299">
        <ele>1372.8</ele>
        <time>2021-02-20T08:14:23Z</time>
      </trkpt>
      <trkpt lat="45.18675" lon="5.91299">
        <ele>1373</ele>
        <time>2021-02-20T08:14:24Z</time>
      </trkpt>
      <trkpt lat="45.18674" lon="5.91299">
        <ele>1373.1</ele>
        <time>2021-02-20T08:14:25Z</time>
      </trkpt>
      <trkpt lat="45.18673" lon="5.91299">
        <ele>1373.2</ele>
        <time>2021-02-20T08:14:26Z</time>
      </trkpt>
      <trkpt lat="45.18672" lon="5.913">
        <ele>1373.3</ele>
        <time>2021-02-20T08:14:27Z</time>
      </trkpt>
      <trkpt lat="45.18672" lon="5.913">
        <ele>1373.4</ele>
        <time>2021-02-20T08:14:28Z</time>
      </trkpt>
      <trkpt lat="45.1867" lon="5.913">
        <ele>1373.5</ele>
        <time>2021-02-20T08:14:29Z</time>
      </trkpt>
      <trkpt lat="45.18668" lon="5.91301">
        <ele>1373.9</ele>
        <time>2021-02-20T08:14:30Z</time>
      </trkpt>
      <trkpt lat="45.18667" lon="5.91302">
        <ele>1374.1</ele>
        <time>2021-02-20T08:14:31Z</time>
      </trkpt>
      <trkpt lat="45.18667" lon="5.91302">
        <ele>1374.3</ele>
        <time>2021-02-20T08:14:32Z</time>
      </trkpt>
      <trkpt lat="45.18665" lon="5.91303">
        <ele>1374.6</ele>
        <time>2021-02-20T08:14:33Z</time>
      </trkpt>
      <trkpt lat="45.18664" lon="5.91304">
        <ele>1374.8</ele>
        <time>2021-02-20T08:14:34Z</time>
      </trkpt>
      <trkpt lat="45.18664" lon="5.91304">
        <ele>1374.9</ele>
        <time>2021-02-20T08:14:35Z</time>
      </trkpt>
      <trkpt lat="45.18663" lon="5.91304">
        <ele>1375</ele>
        <time>2021-02-20T08:14:36Z</time>
      </trkpt>
      <trkpt lat="45.18662" lon="5.91304">
        <ele>1375.2</ele>
        <time>2021-02-20T08:14:37Z</time>
      </trkpt>
      <trkpt lat="45.18661" lon="5.91304">
        <ele>1375.4</ele>
        <time>2021-02-20T08:14:38Z</time>
      </trkpt>
      <trkpt lat="45.1866" lon="5.91303">
        <ele>1375.6</ele>
        <time>2021-02-20T08:14:39Z</time>
      </trkpt>
      <trkpt lat="45.18659" lon="5.91303">
        <ele>1375.8</ele>
        <time>2021-02-20T08:14:40Z</time>
      </trkpt>
      <trkpt lat="45.18659" lon="5.91303">
        <ele>1375.9</ele>
        <time>2021-02-20T08:14:41Z</time>
      </trkpt>
      <trkpt lat="45.18658" lon="5.91303">
        <ele>1376</ele>
        <time>2021-02-20T08:14:42Z</time>
      </trkpt>
      <trkpt lat="45.18657" lon="5.91303">
        <ele>1376.2</ele>
        <time>2021-02-20T08:14:43Z</time>
      </trkpt>
      <trkpt lat="45.18657" lon="5.91303">
        <ele>1376.3</ele>
        <time>2021-02-20T08:14:44Z</time>
      </trkpt>
      <trkpt lat="45.18656" lon="5.91303">
        <ele>1376.5</ele>
        <time>2021-02-20T08:14:45Z</time>
      </trkpt>
      <trkpt lat="45.18655" lon="5.91303">
        <ele>1376.6</ele>
        <time>2021-02-20T08:14:46Z</time>
      </trkpt>
      <trkpt lat="45.18654" lon="5.91302">
        <ele>1376.8</ele>
        <time>2021-02-20T08:14:47Z</time>
      </trkpt>
      <trkpt lat="45.18653" lon="5.91302">
        <ele>1377</ele>
        <time>2021-02-20T08:14:48Z</time>
      </trkpt>
      <trkpt lat="45.18653" lon="5.91301">
        <ele>1377.2</ele>
        <time>2021-02-20T08:14:49Z</time>
      </trkpt>
      <trkpt lat="45.18652" lon="5.91301">
        <ele>1377.3</ele>
        <time>2021-02-20T08:14:50Z</time>
      </trkpt>
      <trkpt lat="45.1865" lon="5.91301">
        <ele>1377.5</ele>
        <time>2021-02-20T08:14:51Z</time>
      </trkpt>
      <trkpt lat="45.18649" lon="5.91301">
        <ele>1377.7</ele>
        <time>2021-02-20T08:14:52Z</time>
      </trkpt>
      <trkpt lat="45.18648" lon="5.91301">
        <ele>1378</ele>
        <time>2021-02-20T08:14:53Z</time>
      </trkpt>
      <trkpt lat="45.18647" lon="5.913">
        <ele>1378.2</ele>
        <time>2021-02-20T08:14:54Z</time>
      </trkpt>
      <trkpt lat="45.18645" lon="5.913">
        <ele>1378.4</ele>
        <time>2021-02-20T08:14:55Z</time>
      </trkpt>
      <trkpt lat="45.18644" lon="5.91299">
        <ele>1378.6</ele>
        <time>2021-02-20T08:14:56Z</time>
      </trkpt>
      <trkpt lat="45.18643" lon="5.91299">
        <ele>1378.8</ele>
        <time>2021-02-20T08:14:57Z</time>
      </trkpt>
      <trkpt lat="45.18642" lon="5.91299">
        <ele>1379</ele>
        <time>2021-02-20T08:14:58Z</time>
      </trkpt>
      <trkpt lat="45.1864" lon="5.913">
        <ele>1379.3</ele>
        <time>2021-02-20T08:14:59Z</time>
      </trkpt>
      <trkpt lat="45.18638" lon="5.913">
        <ele>1379.6</ele>
        <time>2021-02-20T08:15:00Z</time>
      </trkpt>
      <trkpt lat="45.18637" lon="5.913">
        <ele>1379.7</ele>
        <time>2021-02-20T08:15:01Z</time>
      </trkpt>
      <trkpt lat="45.18636" lon="5.913">
        <ele>1379.9</ele>
        <time>2021-02-20T08:15:02Z</time>
      </trkpt>
      <trkpt lat="45.18635" lon="5.913">
        <ele>1380</ele>
        <time>2021-02-20T08:15:03Z</time>
      </trkpt>
      <trkpt lat="45.18634" lon="5.91301">
        <ele>1380.2</ele>
        <time>2021-02-20T08:15:04Z</time>
      </trkpt>
      <trkpt lat="45.18633" lon="5.91301">
        <ele>1380.4</ele>
        <time>2021-02-20T08:15:05Z</time>
      </trkpt>
      <trkpt lat="45.18631" lon="5.913">
        <ele>1380.7</ele>
        <time>2021-02-20T08:15:06Z</time>
      </trkpt>
      <trkpt lat="45.1863" lon="5.913">
        <ele>1380.7</ele>
        <time>2021-02-20T08:15:07Z</time>
      </trkpt>
      <trkpt lat="45.18629" lon="5.913">
        <ele>1380.9</ele>
        <time>2021-02-20T08:15:08Z</time>
      </trkpt>
      <trkpt lat="45.18628" lon="5.913">
        <ele>1381</ele>
        <time>2021-02-20T08:15:09Z</time>
      </trkpt>
      <trkpt lat="45.18627" lon="5.91301">
        <ele>1381.1</ele>
        <time>2021-02-20T08:15:10Z</time>
      </trkpt>
      <trkpt lat="45.18626" lon="5.91301">
        <ele>1381.3</ele>
        <time>2021-02-20T08:15:11Z</time>
      </trkpt>
      <trkpt lat="45.18625" lon="5.91301">
        <ele>1381.4</ele>
        <time>2021-02-20T08:15:12Z</time>
      </trkpt>
      <trkpt lat="45.18624" lon="5.91301">
        <ele>1381.5</ele>
        <time>2021-02-20T08:15:13Z</time>
      </trkpt>
      <trkpt lat="45.18623" lon="5.913">
        <ele>1381.6</ele>
        <time>2021-02-20T08:15:14Z</time>
      </trkpt>
      <trkpt lat="45.18623" lon="5.913">
        <ele>1381.7</ele>
        <time>2021-02-20T08:15:15Z</time>
      </trkpt>
      <trkpt lat="45.18622" lon="5.913">
        <ele>1381.8</ele>
        <time>2021-02-20T08:15:16Z</time>
      </trkpt>
      <trkpt lat="45.18621" lon="5.913">
        <ele>1381.9</ele>
        <time>2021-02-20T08:15:17Z</time>
      </trkpt>
      <trkpt lat="45.1862" lon="5.913">
        <ele>1382</ele>
        <time>2021-02-20T08:15:18Z</time>
      </trkpt>
      <trkpt lat="45.1862" lon="5.913">
        <ele>1382.1</ele>
        <time>2021-02-20T08:15:19Z</time>
      </trkpt>
      <trkpt lat="45.18618" lon="5.913">
        <ele>1382.2</ele>
        <time>2021-02-20T08:15:20Z</time>
      </trkpt>
      <trkpt lat="45.18617" lon="5.913">
        <ele>1382.4</ele>
        <time>2021-02-20T08:15:21Z</time>
      </trkpt>
      <trkpt lat="45.18615" lon="5.913">
        <ele>1382.5</ele>
        <time>2021-02-20T08:15:22Z</time>
      </trkpt>
      <trkpt lat="45.18614" lon="5.91299">
        <ele>1382.7</ele>
        <time>2021-02-20T08:15:23Z</time>
      </trkpt>
      <trkpt lat="45.18612" lon="5.91298">
        <ele>1382.8</ele>
        <time>2021-02-20T08:15:24Z</time>
      </trkpt>
      <trkpt lat="45.18611" lon="5.91298">
        <ele>1383</ele>
        <time>2021-02-20T08:15:25Z</time>
      </trkpt>
      <trkpt lat="45.18609" lon="5.91299">
        <ele>1383.2</ele>
        <time>2021-02-20T08:15:26Z</time>
      </trkpt>
      <trkpt lat="45.18609" lon="5.913">
        <ele>1383.3</ele>
        <time>2021-02-20T08:15:27Z</time>
      </trkpt>
      <trkpt lat="45.18608" lon="5.91301">
        <ele>1383.3</ele>
        <time>2021-02-20T08:15:28Z</time>
      </trkpt>
      <trkpt lat="45.18607" lon="5.91302">
        <ele>1383.5</ele>
        <time>2021-02-20T08:15:29Z</time>
      </trkpt>
      <trkpt lat="45.18605" lon="5.91302">
        <ele>1383.6</ele>
        <time>2021-02-20T08:15:30Z</time>
      </trkpt>
      <trkpt lat="45.18604" lon="5.91302">
        <ele>1383.9</ele>
        <time>2021-02-20T08:15:31Z</time>
      </trkpt>
      <trkpt lat="45.18602" lon="5.91301">
        <ele>1384</ele>
        <time>2021-02-20T08:15:32Z</time>
      </trkpt>
      <trkpt lat="45.18601" lon="5.91301">
        <ele>1384.2</ele>
        <time>2021-02-20T08:15:33Z</time>
      </trkpt>
      <trkpt lat="45.186" lon="5.91301">
        <ele>1384.3</ele>
        <time>2021-02-20T08:15:34Z</time>
      </trkpt>
      <trkpt lat="45.186" lon="5.91302">
        <ele>1384.4</ele>
        <time>2021-02-20T08:15:35Z</time>
      </trkpt>
      <trkpt lat="45.18599" lon="5.91302">
        <ele>1384.5</ele>
        <time>2021-02-20T08:15:36Z</time>
      </trkpt>
      <trkpt lat="45.18598" lon="5.91302">
        <ele>1384.7</ele>
        <time>2021-02-20T08:15:37Z</time>
      </trkpt>
      <trkpt lat="45.18597" lon="5.91302">
        <ele>1384.8</ele>
        <time>2021-02-20T08:15:38Z</time>
      </trkpt>
      <trkpt lat="45.18596" lon="5.91303">
        <ele>1384.9</ele>
        <time>2021-02-20T08:15:39Z</time>
      </trkpt>
      <trkpt lat="45.18594" lon="5.91303">
        <ele>1385.1</ele>
        <time>2021-02-20T08:15:40Z</time>
      </trkpt>
      <trkpt lat="45.18593" lon="5.91304">
        <ele>1385.4</ele>
        <time>2021-02-20T08:15:41Z</time>
      </trkpt>
      <trkpt lat="45.18591" lon="5.91304">
        <ele>1385.5</ele>
        <time>2021-02-20T08:15:42Z</time>
      </trkpt>
      <trkpt lat="45.18591" lon="5.91305">
        <ele>1385.7</ele>
        <time>2021-02-20T08:15:43Z</time>
      </trkpt>
      <trkpt lat="45.1859" lon="5.91305">
        <ele>1385.8</ele>
        <time>2021-02-20T08:15:44Z</time>
      </trkpt>
      <trkpt lat="45.18589" lon="5.91305">
        <ele>1385.9</ele>
        <time>2021-02-20T08:15:45Z</time>
      </trkpt>
      <trkpt lat="45.18588" lon="5.91306">
        <ele>1386.1</ele>
        <time>2021-02-20T08:15:46Z</time>
      </trkpt>
      <trkpt lat="45.18587" lon="5.91307">
        <ele>1386.3</ele>
        <time>2021-02-20T08:15:47Z</time>
      </trkpt>
      <trkpt lat="45.18586" lon="5.91307">
        <ele>1386.5</ele>
        <time>2021-02-20T08:15:48Z</time>
      </trkpt>
      <trkpt lat="45.18585" lon="5.91307">
        <ele>1386.5</ele>
        <time>2021-02-20T08:15:49Z</time>
      </trkpt>
      <trkpt lat="45.18584" lon="5.91307">
        <ele>1386.7</ele>
        <time>2021-02-20T08:15:50Z</time>
      </trkpt>
      <trkpt lat="45.18583" lon="5.91307">
        <ele>1386.8</ele>
        <time>2021-02-20T08:15:51Z</time>
      </trkpt>
      <trkpt lat="45.18583" lon="5.91308">
        <ele>1386.9</ele>
        <time>2021-02-20T08:15:52Z</time>
      </trkpt>
      <trkpt lat="45.18582" lon="5.91308">
        <ele>1387</ele>
        <time>2021-02-20T08:15:53Z</time>
      </trkpt>
      <trkpt lat="45.18581" lon="5.91309">
        <ele>1387.2</ele>
        <time>2021-02-20T08:15:54Z</time>
      </trkpt>
      <trkpt lat="45.1858" lon="5.91309">
        <ele>1387.4</ele>
        <time>2021-02-20T08:15:55Z</time>
      </trkpt>
      <trkpt lat="45.18579" lon="5.9131">
        <ele>1387.6</ele>
        <time>2021-02-20T08:15:56Z</time>
      </trkpt>
      <trkpt lat="45.18578" lon="5.91311">
        <ele>1387.7</ele>
        <time>2021-02-20T08:15:57Z</time>
      </trkpt>
      <trkpt lat="45.18577" lon="5.91311">
        <ele>1387.9</ele>
        <time>2021-02-20T08:15:58Z</time>
      </trkpt>
      <trkpt lat="45.18577" lon="5.91312">
        <ele>1388.1</ele>
        <time>2021-02-20T08:15:59Z</time>
      </trkpt>
      <trkpt lat="45.18576" lon="5.91313">
        <ele>1388.3</ele>
        <time>2021-02-20T08:16:00Z</time>
      </trkpt>
      <trkpt lat="45.18575" lon="5.91314">
        <ele>1388.4</ele>
        <time>2021-02-20T08:16:01Z</time>
      </trkpt>
      <trkpt lat="45.18574" lon="5.91315">
        <ele>1388.6</ele>
        <time>2021-02-20T08:16:02Z</time>
      </trkpt>
      <trkpt lat="45.18574" lon="5.91316">
        <ele>1388.8</ele>
        <time>2021-02-20T08:16:03Z</time>
      </trkpt>
      <trkpt lat="45.18573" lon="5.91317">
        <ele>1389</ele>
        <time>2021-02-20T08:16:04Z</time>
      </trkpt>
      <trkpt lat="45.18573" lon="5.91317">
        <ele>1389</ele>
        <time>2021-02-20T08:16:05Z</time>
      </trkpt>
      <trkpt lat="45.18573" lon="5.91319">
        <ele>1389.2</ele>
        <time>2021-02-20T08:16:06Z</time>
      </trkpt>
      <trkpt lat="45.18572" lon="5.9132">
        <ele>1389.4</ele>
        <time>2021-02-20T08:16:07Z</time>
      </trkpt>
      <trkpt lat="45.18572" lon="5.91321">
        <ele>1389.5</ele>
        <time>2021-02-20T08:16:08Z</time>
      </trkpt>
      <trkpt lat="45.18572" lon="5.91322">
        <ele>1389.7</ele>
        <time>2021-02-20T08:16:09Z</time>
      </trkpt>
      <trkpt lat="45.18571" lon="5.91323">
        <ele>1389.9</ele>
        <time>2021-02-20T08:16:10Z</time>
      </trkpt>
      <trkpt lat="45.1857" lon="5.91324">
        <ele>1390.1</ele>
        <time>2021-02-20T08:16:11Z</time>
      </trkpt>
      <trkpt lat="45.1857" lon="5.91325">
        <ele>1390.3</ele>
        <time>2021-02-20T08:16:12Z</time>
      </trkpt>
      <trkpt lat="45.18569" lon="5.91326">
        <ele>1390.4</ele>
        <time>2021-02-20T08:16:13Z</time>
      </trkpt>
      <trkpt lat="45.18568" lon="5.91326">
        <ele>1390.6</ele>
        <time>2021-02-20T08:16:14Z</time>
      </trkpt>
      <trkpt lat="45.18568" lon="5.91327">
        <ele>1390.8</ele>
        <time>2021-02-20T08:16:15Z</time>
      </trkpt>
      <trkpt lat="45.18567" lon="5.91328">
        <ele>1391</ele>
        <time>2021-02-20T08:16:16Z</time>
      </trkpt>
      <trkpt lat="45.18566" lon="5.91328">
        <ele>1391.2</ele>
        <time>2021-02-20T08:16:17Z</time>
      </trkpt>
      <trkpt lat="45.18565" lon="5.91329">
        <ele>1391.3</ele>
        <time>2021-02-20T08:16:18Z</time>
      </trkpt>
      <trkpt lat="45.18564" lon="5.9133">
        <ele>1391.6</ele>
        <time>2021-02-20T08:16:19Z</time>
      </trkpt>
      <trkpt lat="45.18564" lon="5.91331">
        <ele>1391.8</ele>
        <time>2021-02-20T08:16:20Z</time>
      </trkpt>
      <trkpt lat="45.18563" lon="5.91332">
        <ele>1392</ele>
        <time>2021-02-20T08:16:21Z</time>
      </trkpt>
      <trkpt lat="45.18563" lon="5.91334">
        <ele>1392.3</ele>
        <time>2021-02-20T08:16:22Z</time>
      </trkpt>
      <trkpt lat="45.18562" lon="5.91335">
        <ele>1392.5</ele>
        <time>2021-02-20T08:16:23Z</time>
      </trkpt>
      <trkpt lat="45.18562" lon="5.91337">
        <ele>1392.8</ele>
        <time>2021-02-20T08:16:24Z</time>
      </trkpt>
      <trkpt lat="45.18561" lon="5.91338">
        <ele>1393</ele>
        <time>2021-02-20T08:16:25Z</time>
      </trkpt>
      <trkpt lat="45.1856" lon="5.91339">
        <ele>1393.3</ele>
        <time>2021-02-20T08:16:26Z</time>
      </trkpt>
      <trkpt lat="45.1856" lon="5.9134">
        <ele>1393.4</ele>
        <time>2021-02-20T08:16:27Z</time>
      </trkpt>
      <trkpt lat="45.18559" lon="5.9134">
        <ele>1393.7</ele>
        <time>2021-02-20T08:16:28Z</time>
      </trkpt>
      <trkpt lat="45.18558" lon="5.91341">
        <ele>1393.9</ele>
        <time>2021-02-20T08:16:29Z</time>
      </trkpt>
      <trkpt lat="45.18556" lon="5.91343">
        <ele>1394.4</ele>
        <time>2021-02-20T08:16:30Z</time>
      </trkpt>
      <trkpt lat="45.18555" lon="5.91343">
        <ele>1394.6</ele>
        <time>2021-02-20T08:16:31Z</time>
      </trkpt>
      <trkpt lat="45.18555" lon="5.91344">
        <ele>1394.8</ele>
        <time>2021-02-20T08:16:32Z</time>
      </trkpt>
      <trkpt lat="45.18554" lon="5.91346">
        <ele>1395.1</ele>
        <time>2021-02-20T08:16:33Z</time>
      </trkpt>
      <trkpt lat="45.18554" lon="5.91347">
        <ele>1395.4</ele>
        <time>2021-02-20T08:16:34Z</time>
      </trkpt>
      <trkpt lat="45.18553" lon="5.91348">
        <ele>1395.5</ele>
        <time>2021-02-20T08:16:35Z</time>
      </trkpt>
      <trkpt lat="45.18552" lon="5.91348">
        <ele>1395.7</ele>
        <time>2021-02-20T08:16:36Z</time>
      </trkpt>
      <trkpt lat="45.18552" lon="5.91349">
        <ele>1395.9</ele>
        <time>2021-02-20T08:16:37Z</time>
      </trkpt>
      <trkpt lat="45.18551" lon="5.9135">
        <ele>1396.1</ele>
        <time>2021-02-20T08:16:38Z</time>
      </trkpt>
      <trkpt lat="45.1855" lon="5.91351">
        <ele>1396.4</ele>
        <time>2021-02-20T08:16:39Z</time>
      </trkpt>
      <trkpt lat="45.18549" lon="5.91352">
        <ele>1396.6</ele>
        <time>2021-02-20T08:16:40Z</time>
      </trkpt>
      <trkpt lat="45.18548" lon="5.91352">
        <ele>1396.8</ele>
        <time>2021-02-20T08:16:41Z</time>
      </trkpt>
      <trkpt lat="45.18548" lon="5.91352">
        <ele>1397</ele>
        <time>2021-02-20T08:16:42Z</time>
      </trkpt>
      <trkpt lat="45.18547" lon="5.91352">
        <ele>1397.2</ele>
        <time>2021-02-20T08:16:43Z</time>
      </trkpt>
      <trkpt lat="45.18546" lon="5.91352">
        <ele>1397.4</ele>
        <time>2021-02-20T08:16:44Z</time>
      </trkpt>
      <trkpt lat="45.18545" lon="5.91353">
        <ele>1397.7</ele>
        <time>2021-02-20T08:16:45Z</time>
      </trkpt>
      <trkpt lat="45.18544" lon="5.91353">
        <ele>1397.8</ele>
        <time>2021-02-20T08:16:46Z</time>
      </trkpt>
      <trkpt lat="45.18543" lon="5.91353">
        <ele>1398</ele>
        <time>2021-02-20T08:16:47Z</time>
      </trkpt>
      <trkpt lat="45.18543" lon="5.91353">
        <ele>1398.1</ele>
        <time>2021-02-20T08:16:48Z</time>
      </trkpt>
      <trkpt lat="45.18542" lon="5.91354">
        <ele>1398.3</ele>
        <time>2021-02-20T08:16:49Z</time>
      </trkpt>
      <trkpt lat="45.18541" lon="5.91355">
        <ele>1398.5</ele>
        <time>2021-02-20T08:16:50Z</time>
      </trkpt>
      <trkpt lat="45.18541" lon="5.91355">
        <ele>1398.7</ele>
        <time>2021-02-20T08:16:51Z</time>
      </trkpt>
      <trkpt lat="45.1854" lon="5.91355">
        <ele>1398.8</ele>
        <time>2021-02-20T08:16:52Z</time>
      </trkpt>
      <trkpt lat="45.18539" lon="5.91356">
        <ele>1398.9</ele>
        <time>2021-02-20T08:16:53Z</time>
      </trkpt>
      <trkpt lat="45.18539" lon="5.91356">
        <ele>1399.1</ele>
        <time>2021-02-20T08:16:54Z</time>
      </trkpt>
      <trkpt lat="45.18538" lon="5.91356">
        <ele>1399.2</ele>
        <time>2021-02-20T08:16:55Z</time>
      </trkpt>
      <trkpt lat="45.18538" lon="5.91356">
        <ele>1399.2</ele>
        <time>2021-02-20T08:16:56Z</time>
      </trkpt>
      <trkpt lat="45.18537" lon="5.91356">
        <ele>1399.5</ele>
        <time>2021-02-20T08:16:57Z</time>
      </trkpt>
      <trkpt lat="45.18536" lon="5.91356">
        <ele>1399.6</ele>
        <time>2021-02-20T08:16:58Z</time>
      </trkpt>
      <trkpt lat="45.18535" lon="5.91357">
        <ele>1399.9</ele>
        <time>2021-02-20T08:16:59Z</time>
      </trkpt>
      <trkpt lat="45.18534" lon="5.91357">
        <ele>1400.2</ele>
        <time>2021-02-20T08:17:00Z</time>
      </trkpt>
      <trkpt lat="45.18532" lon="5.91357">
        <ele>1400.5</ele>
        <time>2021-02-20T08:17:01Z</time>
      </trkpt>
      <trkpt lat="45.18531" lon="5.91358">
        <ele>1400.8</ele>
        <time>2021-02-20T08:17:02Z</time>
      </trkpt>
      <trkpt lat="45.1853" lon="5.91358">
        <ele>1401.1</ele>
        <time>2021-02-20T08:17:03Z</time>
      </trkpt>
      <trkpt lat="45.18529" lon="5.91359">
        <ele>1401.3</ele>
        <time>2021-02-20T08:17:04Z</time>
      </trkpt>
      <trkpt lat="45.18528" lon="5.91359">
        <ele>1401.5</ele>
        <time>2021-02-20T08:17:05Z</time>
      </trkpt>
      <trkpt lat="45.18527" lon="5.9136">
        <ele>1401.6</ele>
        <time>2021-02-20T08:17:06Z</time>
      </trkpt>
      <trkpt lat="45.18527" lon="5.9136">
        <ele>1401.7</ele>
        <time>2021-02-20T08:17:07Z</time>
      </trkpt>
      <trkpt lat="45.18526" lon="5.91361">
        <ele>1401.9</ele>
        <time>2021-02-20T08:17:08Z</time>
      </trkpt>
      <trkpt lat="45.18525" lon="5.91361">
        <ele>1402.1</ele>
        <time>2021-02-20T08:17:09Z</time>
      </trkpt>
      <trkpt lat="45.18524" lon="5.91363">
        <ele>1402.5</ele>
        <time>2021-02-20T08:17:10Z</time>
      </trkpt>
      <trkpt lat="45.18524" lon="5.91364">
        <ele>1402.6</ele>
        <time>2021-02-20T08:17:11Z</time>
      </trkpt>
      <trkpt lat="45.18524" lon="5.91365">
        <ele>1402.8</ele>
        <time>2021-02-20T08:17:12Z</time>
      </trkpt>
      <trkpt lat="45.18523" lon="5.91366">
        <ele>1403</ele>
        <time>2021-02-20T08:17:13Z</time>
      </trkpt>
      <trkpt lat="45.18523" lon="5.91367">
        <ele>1403.2</ele>
        <time>2021-02-20T08:17:14Z</time>
      </trkpt>
      <trkpt lat="45.18523" lon="5.91367">
        <ele>1403.3</ele>
        <time>2021-02-20T08:17:15Z</time>
      </trkpt>
      <trkpt lat="45.18523" lon="5.91368">
        <ele>1403.5</ele>
        <time>2021-02-20T08:17:16Z</time>
      </trkpt>
      <trkpt lat="45.18522" lon="5.91369">
        <ele>1403.6</ele>
        <time>2021-02-20T08:17:17Z</time>
      </trkpt>
      <trkpt lat="45.18522" lon="5.9137">
        <ele>1403.8</ele>
        <time>2021-02-20T08:17:18Z</time>
      </trkpt>
      <trkpt lat="45.18521" lon="5.9137">
        <ele>1404</ele>
        <time>2021-02-20T08:17:19Z</time>
      </trkpt>
      <trkpt lat="45.1852" lon="5.91371">
        <ele>1404.3</ele>
        <time>2021-02-20T08:17:20Z</time>
      </trkpt>
      <trkpt lat="45.18519" lon="5.91372">
        <ele>1404.6</ele>
        <time>2021-02-20T08:17:21Z</time>
      </trkpt>
      <trkpt lat="45.18518" lon="5.91372">
        <ele>1404.8</ele>
        <time>2021-02-20T08:17:22Z</time>
      </trkpt>
      <trkpt lat="45.18517" lon="5.91373">
        <ele>1405</ele>
        <time>2021-02-20T08:17:23Z</time>
      </trkpt>
      <trkpt lat="45.18516" lon="5.91374">
        <ele>1405.3</ele>
        <time>2021-02-20T08:17:24Z</time>
      </trkpt>
      <trkpt lat="45.18516" lon="5.91374">
        <ele>1405.5</ele>
        <time>2021-02-20T08:17:25Z</time>
      </trkpt>
      <trkpt lat="45.18515" lon="5.91375">
        <ele>1405.7</ele>
        <time>2021-02-20T08:17:26Z</time>
      </trkpt>
      <trkpt lat="45.18515" lon="5.91375">
        <ele>1405.7</ele>
        <time>2021-02-20T08:17:27Z</time>
      </trkpt>
      <trkpt lat="45.18514" lon="5.91375">
        <ele>1405.9</ele>
        <time>2021-02-20T08:17:28Z</time>
      </trkpt>
      <trkpt lat="45.18514" lon="5.91375">
        <ele>1406</ele>
        <time>2021-02-20T08:17:29Z</time>
      </trkpt>
      <trkpt lat="45.18514" lon="5.91375">
        <ele>1406</ele>
        <time>2021-02-20T08:17:30Z</time>
      </trkpt>
      <trkpt lat="45.18513" lon="5.91375">
        <ele>1406.2</ele>
        <time>2021-02-20T08:17:31Z</time>
      </trkpt>
      <trkpt lat="45.18512" lon="5.91376">
        <ele>1406.4</ele>
        <time>2021-02-20T08:17:32Z</time>
      </trkpt>
      <trkpt lat="45.18512" lon="5.91376">
        <ele>1406.5</ele>
        <time>2021-02-20T08:17:33Z</time>
      </trkpt>
      <trkpt lat="45.18511" lon="5.91376">
        <ele>1406.7</ele>
        <time>2021-02-20T08:17:34Z</time>
      </trkpt>
      <trkpt lat="45.18511" lon="5.91377">
        <ele>1406.8</ele>
        <time>2021-02-20T08:17:35Z</time>
      </trkpt>
      <trkpt lat="45.1851" lon="5.91377">
        <ele>1407</ele>
        <time>2021-02-20T08:17:36Z</time>
      </trkpt>
      <trkpt lat="45.18509" lon="5.91378">
        <ele>1407.3</ele>
        <time>2021-02-20T08:17:37Z</time>
      </trkpt>
      <trkpt lat="45.18509" lon="5.91378">
        <ele>1407.4</ele>
        <time>2021-02-20T08:17:38Z</time>
      </trkpt>
      <trkpt lat="45.18508" lon="5.91379">
        <ele>1407.6</ele>
        <time>2021-02-20T08:17:39Z</time>
      </trkpt>
      <trkpt lat="45.18507" lon="5.91379">
        <ele>1407.9</ele>
        <time>2021-02-20T08:17:40Z</time>
      </trkpt>
      <trkpt lat="45.18506" lon="5.9138">
        <ele>1408.1</ele>
        <time>2021-02-20T08:17:41Z</time>
      </trkpt>
      <trkpt lat="45.18505" lon="5.9138">
        <ele>1408.3</ele>
        <time>2021-02-20T08:17:42Z</time>
      </trkpt>
      <trkpt lat="45.18504" lon="5.9138">
        <ele>1408.6</ele>
        <time>2021-02-20T08:17:43Z</time>
      </trkpt>
      <trkpt lat="45.18503" lon="5.91381">
        <ele>1408.8</ele>
        <time>2021-02-20T08:17:44Z</time>
      </trkpt>
      <trkpt lat="45.18502" lon="5.91381">
        <ele>1409.1</ele>
        <time>2021-02-20T08:17:45Z</time>
      </trkpt>
      <trkpt lat="45.18502" lon="5.91381">
        <ele>1409.3</ele>
        <time>2021-02-20T08:17:46Z</time>
      </trkpt>
      <trkpt lat="45.185" lon="5.9138">
        <ele>1409.8</ele>
        <time>2021-02-20T08:17:47Z</time>
      </trkpt>
      <trkpt lat="45.18499" lon="5.91379">
        <ele>1410</ele>
        <time>2021-02-20T08:17:48Z</time>
      </trkpt>
      <trkpt lat="45.18498" lon="5.91378">
        <ele>1410.2</ele>
        <time>2021-02-20T08:17:49Z</time>
      </trkpt>
      <trkpt lat="45.18497" lon="5.91377">
        <ele>1410.5</ele>
        <time>2021-02-20T08:17:50Z</time>
      </trkpt>
      <trkpt lat="45.18496" lon="5.91376">
        <ele>1410.8</ele>
        <time>2021-02-20T08:17:51Z</time>
      </trkpt>
      <trkpt lat="45.18495" lon="5.91375">
        <ele>1411</ele>
        <time>2021-02-20T08:17:52Z</time>
      </trkpt>
      <trkpt lat="45.18495" lon="5.91375">
        <ele>1411</ele>
        <time>2021-02-20T08:17:53Z</time>
      </trkpt>
      <trkpt lat="45.18494" lon="5.91374">
        <ele>1411.2</ele>
        <time>2021-02-20T08:17:54Z</time>
      </trkpt>
      <trkpt lat="45.18493" lon="5.91374">
        <ele>1411.5</ele>
        <time>2021-02-20T08:17:55Z</time>
      </trkpt>
      <trkpt lat="45.18492" lon="5.91374">
        <ele>1411.6</ele>
        <time>2021-02-20T08:17:56Z</time>
      </trkpt>
      <trkpt lat="45.18491" lon="5.91375">
        <ele>1411.9</ele>
        <time>2021-02-20T08:17:57Z</time>
      </trkpt>
      <trkpt lat="45.1849" lon="5.91375">
        <ele>1412.1</ele>
        <time>2021-02-20T08:17:58Z</time>
      </trkpt>
      <trkpt lat="45.18488" lon="5.91376">
        <ele>1412.3</ele>
        <time>2021-02-20T08:17:59Z</time>
      </trkpt>
      <trkpt lat="45.18488" lon="5.91376">
        <ele>1412.5</ele>
        <time>2021-02-20T08:18:00Z</time>
      </trkpt>
      <trkpt lat="45.18487" lon="5.91377">
        <ele>1412.6</ele>
        <time>2021-02-20T08:18:01Z</time>
      </trkpt>
      <trkpt lat="45.18486" lon="5.91377">
        <ele>1412.8</ele>
        <time>2021-02-20T08:18:02Z</time>
      </trkpt>
      <trkpt lat="45.18486" lon="5.91378">
        <ele>1412.9</ele>
        <time>2021-02-20T08:18:03Z</time>
      </trkpt>
      <trkpt lat="45.18485" lon="5.91378">
        <ele>1413.1</ele>
        <time>2021-02-20T08:18:04Z</time>
      </trkpt>
      <trkpt lat="45.18484" lon="5.91378">
        <ele>1413.3</ele>
        <time>2021-02-20T08:18:05Z</time>
      </trkpt>
      <trkpt lat="45.18483" lon="5.91377">
        <ele>1413.5</ele>
        <time>2021-02-20T08:18:06Z</time>
      </trkpt>
      <trkpt lat="45.18483" lon="5.91376">
        <ele>1413.6</ele>
        <time>2021-02-20T08:18:07Z</time>
      </trkpt>
      <trkpt lat="45.18482" lon="5.91376">
        <ele>1413.7</ele>
        <time>2021-02-20T08:18:08Z</time>
      </trkpt>
      <trkpt lat="45.18482" lon="5.91376">
        <ele>1413.7</ele>
        <time>2021-02-20T08:18:09Z</time>
      </trkpt>
      <trkpt lat="45.18482" lon="5.91376">
        <ele>1413.7</ele>
        <time>2021-02-20T08:18:10Z</time>
      </trkpt>
      <trkpt lat="45.18481" lon="5.91376">
        <ele>1413.9</ele>
        <time>2021-02-20T08:18:11Z</time>
      </trkpt>
      <trkpt lat="45.1848" lon="5.91375">
        <ele>1414.1</ele>
        <time>2021-02-20T08:18:12Z</time>
      </trkpt>
      <trkpt lat="45.18479" lon="5.91375">
        <ele>1414.2</ele>
        <time>2021-02-20T08:18:13Z</time>
      </trkpt>
      <trkpt lat="45.18478" lon="5.91374">
        <ele>1414.4</ele>
        <time>2021-02-20T08:18:14Z</time>
      </trkpt>
      <trkpt lat="45.18478" lon="5.91373">
        <ele>1414.5</ele>
        <time>2021-02-20T08:18:15Z</time>
      </trkpt>
      <trkpt lat="45.18477" lon="5.91373">
        <ele>1414.7</ele>
        <time>2021-02-20T08:18:16Z</time>
      </trkpt>
      <trkpt lat="45.18476" lon="5.91373">
        <ele>1414.8</ele>
        <time>2021-02-20T08:18:17Z</time>
      </trkpt>
      <trkpt lat="45.18475" lon="5.91373">
        <ele>1415</ele>
        <time>2021-02-20T08:18:18Z</time>
      </trkpt>
      <trkpt lat="45.18475" lon="5.91373">
        <ele>1415.1</ele>
        <time>2021-02-20T08:18:19Z</time>
      </trkpt>
      <trkpt lat="45.18474" lon="5.91372">
        <ele>1415.2</ele>
        <time>2021-02-20T08:18:20Z</time>
      </trkpt>
      <trkpt lat="45.18472" lon="5.91371">
        <ele>1415.5</ele>
        <time>2021-02-20T08:18:21Z</time>
      </trkpt>
      <trkpt lat="45.18472" lon="5.91371">
        <ele>1415.7</ele>
        <time>2021-02-20T08:18:22Z</time>
      </trkpt>
      <trkpt lat="45.18471" lon="5.9137">
        <ele>1415.9</ele>
        <time>2021-02-20T08:18:23Z</time>
      </trkpt>
      <trkpt lat="45.1847" lon="5.91369">
        <ele>1416.1</ele>
        <time>2021-02-20T08:18:24Z</time>
      </trkpt>
      <trkpt lat="45.18469" lon="5.91369">
        <ele>1416.3</ele>
        <time>2021-02-20T08:18:25Z</time>
      </trkpt>
      <trkpt lat="45.18468" lon="5.91368">
        <ele>1416.4</ele>
        <time>2021-02-20T08:18:26Z</time>
      </trkpt>
      <trkpt lat="45.18467" lon="5.91368">
        <ele>1416.6</ele>
        <time>2021-02-20T08:18:27Z</time>
      </trkpt>
      <trkpt lat="45.18466" lon="5.91368">
        <ele>1416.8</ele>
        <time>2021-02-20T08:18:28Z</time>
      </trkpt>
      <trkpt lat="45.18465" lon="5.91368">
        <ele>1416.9</ele>
        <time>2021-02-20T08:18:29Z</time>
      </trkpt>
      <trkpt lat="45.18464" lon="5.91368">
        <ele>1417.1</ele>
        <time>2021-02-20T08:18:30Z</time>
      </trkpt>
      <trkpt lat="45.18462" lon="5.91367">
        <ele>1417.4</ele>
        <time>2021-02-20T08:18:31Z</time>
      </trkpt>
      <trkpt lat="45.18461" lon="5.91367">
        <ele>1417.5</ele>
        <time>2021-02-20T08:18:32Z</time>
      </trkpt>
      <trkpt lat="45.18461" lon="5.91367">
        <ele>1417.7</ele>
        <time>2021-02-20T08:18:33Z</time>
      </trkpt>
      <trkpt lat="45.18459" lon="5.91367">
        <ele>1418</ele>
        <time>2021-02-20T08:18:34Z</time>
      </trkpt>
      <trkpt lat="45.18458" lon="5.91367">
        <ele>1418.1</ele>
        <time>2021-02-20T08:18:35Z</time>
      </trkpt>
      <trkpt lat="45.18458" lon="5.91367">
        <ele>1418.2</ele>
        <time>2021-02-20T08:18:36Z</time>
      </trkpt>
      <trkpt lat="45.18457" lon="5.91367">
        <ele>1418.4</ele>
        <time>2021-02-20T08:18:37Z</time>
      </trkpt>
      <trkpt lat="45.18456" lon="5.91367">
        <ele>1418.5</ele>
        <time>2021-02-20T08:18:38Z</time>
      </trkpt>
      <trkpt lat="45.18455" lon="5.91366">
        <ele>1418.7</ele>
        <time>2021-02-20T08:18:39Z</time>
      </trkpt>
      <trkpt lat="45.18454" lon="5.91366">
        <ele>1419</ele>
        <time>2021-02-20T08:18:40Z</time>
      </trkpt>
      <trkpt lat="45.18453" lon="5.91367">
        <ele>1419.2</ele>
        <time>2021-02-20T08:18:41Z</time>
      </trkpt>
      <trkpt lat="45.18452" lon="5.91368">
        <ele>1419.4</ele>
        <time>2021-02-20T08:18:42Z</time>
      </trkpt>
      <trkpt lat="45.18451" lon="5.91368">
        <ele>1419.5</ele>
        <time>2021-02-20T08:18:43Z</time>
      </trkpt>
      <trkpt lat="45.18451" lon="5.91369">
        <ele>1419.7</ele>
        <time>2021-02-20T08:18:44Z</time>
      </trkpt>
      <trkpt lat="45.18451" lon="5.91369">
        <ele>1419.7</ele>
        <time>2021-02-20T08:18:45Z</time>
      </trkpt>
      <trkpt lat="45.18451" lon="5.91369">
        <ele>1419.7</ele>
        <time>2021-02-20T08:18:46Z</time>
      </trkpt>
      <trkpt lat="45.18451" lon="5.9137">
        <ele>1419.9</ele>
        <time>2021-02-20T08:18:47Z</time>
      </trkpt>
      <trkpt lat="45.1845" lon="5.91371">
        <ele>1420</ele>
        <time>2021-02-20T08:18:48Z</time>
      </trkpt>
      <trkpt lat="45.18448" lon="5.91371">
        <ele>1420.4</ele>
        <time>2021-02-20T08:18:49Z</time>
      </trkpt>
      <trkpt lat="45.18447" lon="5.9137">
        <ele>1420.6</ele>
        <time>2021-02-20T08:18:50Z</time>
      </trkpt>
      <trkpt lat="45.18446" lon="5.9137">
        <ele>1420.8</ele>
        <time>2021-02-20T08:18:51Z</time>
      </trkpt>
      <trkpt lat="45.18446" lon="5.91369">
        <ele>1421</ele>
        <time>2021-02-20T08:18:52Z</time>
      </trkpt>
      <trkpt lat="45.18445" lon="5.91369">
        <ele>1421.2</ele>
        <time>2021-02-20T08:18:53Z</time>
      </trkpt>
      <trkpt lat="45.18444" lon="5.91368">
        <ele>1421.4</ele>
        <time>2021-02-20T08:18:54Z</time>
      </trkpt>
      <trkpt lat="45.18443" lon="5.91368">
        <ele>1421.5</ele>
        <time>2021-02-20T08:18:55Z</time>
      </trkpt>
      <trkpt lat="45.18442" lon="5.91368">
        <ele>1421.7</ele>
        <time>2021-02-20T08:18:56Z</time>
      </trkpt>
      <trkpt lat="45.18441" lon="5.91368">
        <ele>1421.9</ele>
        <time>2021-02-20T08:18:57Z</time>
      </trkpt>
      <trkpt lat="45.18441" lon="5.91368">
        <ele>1422.1</ele>
        <time>2021-02-20T08:18:58Z</time>
      </trkpt>
      <trkpt lat="45.18439" lon="5.91368">
        <ele>1422.3</ele>
        <time>2021-02-20T08:18:59Z</time>
      </trkpt>
      <trkpt lat="45.18438" lon="5.91367">
        <ele>1422.6</ele>
        <time>2021-02-20T08:19:00Z</time>
      </trkpt>
      <trkpt lat="45.18437" lon="5.91367">
        <ele>1422.8</ele>
        <time>2021-02-20T08:19:01Z</time>
      </trkpt>
      <trkpt lat="45.18437" lon="5.91367">
        <ele>1422.9</ele>
        <time>2021-02-20T08:19:02Z</time>
      </trkpt>
      <trkpt lat="45.18436" lon="5.91366">
        <ele>1423.1</ele>
        <time>2021-02-20T08:19:03Z</time>
      </trkpt>
      <trkpt lat="45.18435" lon="5.91366">
        <ele>1423.4</ele>
        <time>2021-02-20T08:19:04Z</time>
      </trkpt>
      <trkpt lat="45.18434" lon="5.91365">
        <ele>1423.6</ele>
        <time>2021-02-20T08:19:05Z</time>
      </trkpt>
      <trkpt lat="45.18434" lon="5.91365">
        <ele>1423.6</ele>
        <time>2021-02-20T08:19:06Z</time>
      </trkpt>
      <trkpt lat="45.18433" lon="5.91365">
        <ele>1423.8</ele>
        <time>2021-02-20T08:19:07Z</time>
      </trkpt>
      <trkpt lat="45.18433" lon="5.91365">
        <ele>1423.8</ele>
        <time>2021-02-20T08:19:08Z</time>
      </trkpt>
      <trkpt lat="45.18432" lon="5.91366">
        <ele>1424.1</ele>
        <time>2021-02-20T08:19:09Z</time>
      </trkpt>
      <trkpt lat="45.18431" lon="5.91365">
        <ele>1424.3</ele>
        <time>2021-02-20T08:19:10Z</time>
      </trkpt>
      <trkpt lat="45.18429" lon="5.91366">
        <ele>1424.6</ele>
        <time>2021-02-20T08:19:11Z</time>
      </trkpt>
      <trkpt lat="45.18429" lon="5.91366">
        <ele>1424.7</ele>
        <time>2021-02-20T08:19:12Z</time>
      </trkpt>
      <trkpt lat="45.18428" lon="5.91367">
        <ele>1424.9</ele>
        <time>2021-02-20T08:19:13Z</time>
      </trkpt>
      <trkpt lat="45.18427" lon="5.91367">
        <ele>1425.1</ele>
        <time>2021-02-20T08:19:14Z</time>
      </trkpt>
      <trkpt lat="45.18427" lon="5.91368">
        <ele>1425.3</ele>
        <time>2021-02-20T08:19:15Z</time>
      </trkpt>
      <trkpt lat="45.18426" lon="5.91368">
        <ele>1425.4</ele>
        <time>2021-02-20T08:19:16Z</time>
      </trkpt>
      <trkpt lat="45.18425" lon="5.91369">
        <ele>1425.6</ele>
        <time>2021-02-20T08:19:17Z</time>
      </trkpt>
      <trkpt lat="45.18425" lon="5.9137">
        <ele>1425.8</ele>
        <time>2021-02-20T08:19:18Z</time>
      </trkpt>
      <trkpt lat="45.18425" lon="5.9137">
        <ele>1425.8</ele>
        <time>2021-02-20T08:19:19Z</time>
      </trkpt>
      <trkpt lat="45.18424" lon="5.9137">
        <ele>1426</ele>
        <time>2021-02-20T08:19:20Z</time>
      </trkpt>
      <trkpt lat="45.18423" lon="5.9137">
        <ele>1426.1</ele>
        <time>2021-02-20T08:19:21Z</time>
      </trkpt>
      <trkpt lat="45.18423" lon="5.9137">
        <ele>1426.2</ele>
        <time>2021-02-20T08:19:22Z</time>
      </trkpt>
      <trkpt lat="45.18422" lon="5.91371">
        <ele>1426.3</ele>
        <time>2021-02-20T08:19:23Z</time>
      </trkpt>
      <trkpt lat="45.18421" lon="5.91371">
        <ele>1426.5</ele>
        <time>2021-02-20T08:19:24Z</time>
      </trkpt>
      <trkpt lat="45.18421" lon="5.91371">
        <ele>1426.7</ele>
        <time>2021-02-20T08:19:25Z</time>
      </trkpt>
      <trkpt lat="45.1842" lon="5.91372">
        <ele>1426.8</ele>
        <time>2021-02-20T08:19:26Z</time>
      </trkpt>
      <trkpt lat="45.1842" lon="5.91372">
        <ele>1426.8</ele>
        <time>2021-02-20T08:19:27Z</time>
      </trkpt>
      <trkpt lat="45.1842" lon="5.91372">
        <ele>1426.9</ele>
        <time>2021-02-20T08:19:28Z</time>
      </trkpt>
      <trkpt lat="45.1842" lon="5.91372">
        <ele>1426.9</ele>
        <time>2021-02-20T08:19:29Z</time>
      </trkpt>
      <trkpt lat="45.1842" lon="5.91373">
        <ele>1427</ele>
        <time>2021-02-20T08:19:30Z</time>
      </trkpt>
      <trkpt lat="45.1842" lon="5.91373">
        <ele>1427.1</ele>
        <time>2021-02-20T08:19:31Z</time>
      </trkpt>
      <trkpt lat="45.18419" lon="5.91373">
        <ele>1427.2</ele>
        <time>2021-02-20T08:19:32Z</time>
      </trkpt>
      <trkpt lat="45.18418" lon="5.91374">
        <ele>1427.4</ele>
        <time>2021-02-20T08:19:33Z</time>
      </trkpt>
      <trkpt lat="45.18417" lon="5.91374">
        <ele>1427.7</ele>
        <time>2021-02-20T08:19:34Z</time>
      </trkpt>
      <trkpt lat="45.18417" lon="5.91374">
        <ele>1427.7</ele>
        <time>2021-02-20T08:19:35Z</time>
      </trkpt>
      <trkpt lat="45.18415" lon="5.91374">
        <ele>1428.1</ele>
        <time>2021-02-20T08:19:36Z</time>
      </trkpt>
      <trkpt lat="45.18414" lon="5.91374">
        <ele>1428.4</ele>
        <time>2021-02-20T08:19:37Z</time>
      </trkpt>
      <trkpt lat="45.18413" lon="5.91374">
        <ele>1428.6</ele>
        <time>2021-02-20T08:19:38Z</time>
      </trkpt>
      <trkpt lat="45.18411" lon="5.91375">
        <ele>1428.9</ele>
        <time>2021-02-20T08:19:39Z</time>
      </trkpt>
      <trkpt lat="45.1841" lon="5.91375">
        <ele>1429.1</ele>
        <time>2021-02-20T08:19:40Z</time>
      </trkpt>
      <trkpt lat="45.18409" lon="5.91375">
        <ele>1429.3</ele>
        <time>2021-02-20T08:19:41Z</time>
      </trkpt>
      <trkpt lat="45.18409" lon="5.91375">
        <ele>1429.5</ele>
        <time>2021-02-20T08:19:42Z</time>
      </trkpt>
      <trkpt lat="45.18408" lon="5.91375">
        <ele>1429.7</ele>
        <time>2021-02-20T08:19:43Z</time>
      </trkpt>
      <trkpt lat="45.18407" lon="5.91375">
        <ele>1429.8</ele>
        <time>2021-02-20T08:19:44Z</time>
      </trkpt>
      <trkpt lat="45.18406" lon="5.91375">
        <ele>1430</ele>
        <time>2021-02-20T08:19:45Z</time>
      </trkpt>
      <trkpt lat="45.18405" lon="5.91374">
        <ele>1430.3</ele>
        <time>2021-02-20T08:19:46Z</time>
      </trkpt>
      <trkpt lat="45.18404" lon="5.91374">
        <ele>1430.6</ele>
        <time>2021-02-20T08:19:47Z</time>
      </trkpt>
      <trkpt lat="45.18403" lon="5.91373">
        <ele>1430.9</ele>
        <time>2021-02-20T08:19:48Z</time>
      </trkpt>
      <trkpt lat="45.18401" lon="5.91373">
        <ele>1431.2</ele>
        <time>2021-02-20T08:19:49Z</time>
      </trkpt>
      <trkpt lat="45.184" lon="5.91373">
        <ele>1431.3</ele>
        <time>2021-02-20T08:19:50Z</time>
      </trkpt>
      <trkpt lat="45.184" lon="5.91373">
        <ele>1431.5</ele>
        <time>2021-02-20T08:19:51Z</time>
      </trkpt>
      <trkpt lat="45.18399" lon="5.91373">
        <ele>1431.7</ele>
        <time>2021-02-20T08:19:52Z</time>
      </trkpt>
      <trkpt lat="45.18398" lon="5.91373">
        <ele>1431.9</ele>
        <time>2021-02-20T08:19:53Z</time>
      </trkpt>
      <trkpt lat="45.18397" lon="5.91373">
        <ele>1432.2</ele>
        <time>2021-02-20T08:19:54Z</time>
      </trkpt>
      <trkpt lat="45.18395" lon="5.91373">
        <ele>1432.6</ele>
        <time>2021-02-20T08:19:55Z</time>
      </trkpt>
      <trkpt lat="45.18394" lon="5.91373">
        <ele>1432.7</ele>
        <time>2021-02-20T08:19:56Z</time>
      </trkpt>
      <trkpt lat="45.18394" lon="5.91373">
        <ele>1432.9</ele>
        <time>2021-02-20T08:19:57Z</time>
      </trkpt>
      <trkpt lat="45.18393" lon="5.91373">
        <ele>1433.1</ele>
        <time>2021-02-20T08:19:58Z</time>
      </trkpt>
      <trkpt lat="45.18392" lon="5.91373">
        <ele>1433.3</ele>
        <time>2021-02-20T08:19:59Z</time>
      </trkpt>
      <trkpt lat="45.18391" lon="5.91374">
        <ele>1433.5</ele>
        <time>2021-02-20T08:20:00Z</time>
      </trkpt>
      <trkpt lat="45.1839" lon="5.91374">
        <ele>1433.7</ele>
        <time>2021-02-20T08:20:01Z</time>
      </trkpt>
      <trkpt lat="45.1839" lon="5.91374">
        <ele>1433.8</ele>
        <time>2021-02-20T08:20:02Z</time>
      </trkpt>
      <trkpt lat="45.18389" lon="5.91374">
        <ele>1434</ele>
        <time>2021-02-20T08:20:03Z</time>
      </trkpt>
      <trkpt lat="45.18387" lon="5.91374">
        <ele>1434.4</ele>
        <time>2021-02-20T08:20:04Z</time>
      </trkpt>
      <trkpt lat="45.18387" lon="5.91374">
        <ele>1434.5</ele>
        <time>2021-02-20T08:20:05Z</time>
      </trkpt>
      <trkpt lat="45.18386" lon="5.91374">
        <ele>1434.6</ele>
        <time>2021-02-20T08:20:06Z</time>
      </trkpt>
      <trkpt lat="45.18386" lon="5.91374">
        <ele>1434.7</ele>
        <time>2021-02-20T08:20:07Z</time>
      </trkpt>
      <trkpt lat="45.18385" lon="5.91374">
        <ele>1434.9</ele>
        <time>2021-02-20T08:20:08Z</time>
      </trkpt>
      <trkpt lat="45.18384" lon="5.91375">
        <ele>1435.2</ele>
        <time>2021-02-20T08:20:09Z</time>
      </trkpt>
      <trkpt lat="45.18383" lon="5.91376">
        <ele>1435.3</ele>
        <time>2021-02-20T08:20:10Z</time>
      </trkpt>
      <trkpt lat="45.18383" lon="5.91376">
        <ele>1435.5</ele>
        <time>2021-02-20T08:20:11Z</time>
      </trkpt>
      <trkpt lat="45.18382" lon="5.91376">
        <ele>1435.6</ele>
        <time>2021-02-20T08:20:12Z</time>
      </trkpt>
      <trkpt lat="45.18381" lon="5.91376">
        <ele>1435.7</ele>
        <time>2021-02-20T08:20:13Z</time>
      </trkpt>
      <trkpt lat="45.18381" lon="5.91376">
        <ele>1435.9</ele>
        <time>2021-02-20T08:20:14Z</time>
      </trkpt>
      <trkpt lat="45.1838" lon="5.91376">
        <ele>1436.1</ele>
        <time>2021-02-20T08:20:15Z</time>
      </trkpt>
      <trkpt lat="45.1838" lon="5.91376">
        <ele>1436.1</ele>
        <time>2021-02-20T08:20:16Z</time>
      </trkpt>
      <trkpt lat="45.1838" lon="5.91377">
        <ele>1436.2</ele>
        <time>2021-02-20T08:20:17Z</time>
      </trkpt>
      <trkpt lat="45.18379" lon="5.91378">
        <ele>1436.3</ele>
        <time>2021-02-20T08:20:18Z</time>
      </trkpt>
      <trkpt lat="45.18379" lon="5.91378">
        <ele>1436.4</ele>
        <time>2021-02-20T08:20:19Z</time>
      </trkpt>
      <trkpt lat="45.18378" lon="5.91378">
        <ele>1436.5</ele>
        <time>2021-02-20T08:20:20Z</time>
      </trkpt>
      <trkpt lat="45.18378" lon="5.91379">
        <ele>1436.7</ele>
        <time>2021-02-20T08:20:21Z</time>
      </trkpt>
      <trkpt lat="45.18378" lon="5.9138">
        <ele>1436.8</ele>
        <time>2021-02-20T08:20:22Z</time>
      </trkpt>
      <trkpt lat="45.18377" lon="5.91381">
        <ele>1437</ele>
        <time>2021-02-20T08:20:23Z</time>
      </trkpt>
      <trkpt lat="45.18377" lon="5.91382">
        <ele>1437.2</ele>
        <time>2021-02-20T08:20:24Z</time>
      </trkpt>
      <trkpt lat="45.18376" lon="5.91382">
        <ele>1437.4</ele>
        <time>2021-02-20T08:20:25Z</time>
      </trkpt>
      <trkpt lat="45.18374" lon="5.91383">
        <ele>1437.6</ele>
        <time>2021-02-20T08:20:26Z</time>
      </trkpt>
      <trkpt lat="45.18374" lon="5.91383">
        <ele>1437.8</ele>
        <time>2021-02-20T08:20:27Z</time>
      </trkpt>
      <trkpt lat="45.18373" lon="5.91384">
        <ele>1438</ele>
        <time>2021-02-20T08:20:28Z</time>
      </trkpt>
      <trkpt lat="45.18372" lon="5.91385">
        <ele>1438.3</ele>
        <time>2021-02-20T08:20:29Z</time>
      </trkpt>
      <trkpt lat="45.18371" lon="5.91386">
        <ele>1438.5</ele>
        <time>2021-02-20T08:20:30Z</time>
      </trkpt>
      <trkpt lat="45.1837" lon="5.91386">
        <ele>1438.7</ele>
        <time>2021-02-20T08:20:31Z</time>
      </trkpt>
      <trkpt lat="45.18369" lon="5.91386">
        <ele>1438.9</ele>
        <time>2021-02-20T08:20:32Z</time>
      </trkpt>
      <trkpt lat="45.18368" lon="5.91387">
        <ele>1439</ele>
        <time>2021-02-20T08:20:33Z</time>
      </trkpt>
      <trkpt lat="45.18367" lon="5.91387">
        <ele>1439.2</ele>
        <time>2021-02-20T08:20:34Z</time>
      </trkpt>
      <trkpt lat="45.18366" lon="5.91387">
        <ele>1439.4</ele>
        <time>2021-02-20T08:20:35Z</time>
      </trkpt>
      <trkpt lat="45.18365" lon="5.91388">
        <ele>1439.7</ele>
        <time>2021-02-20T08:20:36Z</time>
      </trkpt>
      <trkpt lat="45.18364" lon="5.91388">
        <ele>1439.9</ele>
        <time>2021-02-20T08:20:37Z</time>
      </trkpt>
      <trkpt lat="45.18364" lon="5.91389">
        <ele>1440.1</ele>
        <time>2021-02-20T08:20:38Z</time>
      </trkpt>
      <trkpt lat="45.18363" lon="5.9139">
        <ele>1440.3</ele>
        <time>2021-02-20T08:20:39Z</time>
      </trkpt>
      <trkpt lat="45.18362" lon="5.9139">
        <ele>1440.5</ele>
        <time>2021-02-20T08:20:40Z</time>
      </trkpt>
      <trkpt lat="45.18361" lon="5.9139">
        <ele>1440.6</ele>
        <time>2021-02-20T08:20:41Z</time>
      </trkpt>
      <trkpt lat="45.18361" lon="5.9139">
        <ele>1440.8</ele>
        <time>2021-02-20T08:20:42Z</time>
      </trkpt>
      <trkpt lat="45.1836" lon="5.9139">
        <ele>1440.9</ele>
        <time>2021-02-20T08:20:43Z</time>
      </trkpt>
      <trkpt lat="45.1836" lon="5.9139">
        <ele>1440.9</ele>
        <time>2021-02-20T08:20:44Z</time>
      </trkpt>
      <trkpt lat="45.1836" lon="5.9139">
        <ele>1441</ele>
        <time>2021-02-20T08:20:45Z</time>
      </trkpt>
      <trkpt lat="45.18359" lon="5.9139">
        <ele>1441.2</ele>
        <time>2021-02-20T08:20:46Z</time>
      </trkpt>
      <trkpt lat="45.18358" lon="5.9139">
        <ele>1441.3</ele>
        <time>2021-02-20T08:20:47Z</time>
      </trkpt>
      <trkpt lat="45.18357" lon="5.9139">
        <ele>1441.5</ele>
        <time>2021-02-20T08:20:48Z</time>
      </trkpt>
      <trkpt lat="45.18356" lon="5.9139">
        <ele>1441.7</ele>
        <time>2021-02-20T08:20:49Z</time>
      </trkpt>
      <trkpt lat="45.18356" lon="5.9139">
        <ele>1441.9</ele>
        <time>2021-02-20T08:20:50Z</time>
      </trkpt>
      <trkpt lat="45.18355" lon="5.9139">
        <ele>1442</ele>
        <time>2021-02-20T08:20:51Z</time>
      </trkpt>
      <trkpt lat="45.18354" lon="5.9139">
        <ele>1442.2</ele>
        <time>2021-02-20T08:20:52Z</time>
      </trkpt>
      <trkpt lat="45.18354" lon="5.9139">
        <ele>1442.2</ele>
        <time>2021-02-20T08:20:53Z</time>
      </trkpt>
      <trkpt lat="45.18353" lon="5.9139">
        <ele>1442.4</ele>
        <time>2021-02-20T08:20:54Z</time>
      </trkpt>
      <trkpt lat="45.18352" lon="5.91391">
        <ele>1442.7</ele>
        <time>2021-02-20T08:20:55Z</time>
      </trkpt>
      <trkpt lat="45.18351" lon="5.91391">
        <ele>1442.8</ele>
        <time>2021-02-20T08:20:56Z</time>
      </trkpt>
      <trkpt lat="45.1835" lon="5.91391">
        <ele>1443</ele>
        <time>2021-02-20T08:20:57Z</time>
      </trkpt>
      <trkpt lat="45.18349" lon="5.91392">
        <ele>1443.2</ele>
        <time>2021-02-20T08:20:58Z</time>
      </trkpt>
      <trkpt lat="45.18348" lon="5.91392">
        <ele>1443.5</ele>
        <time>2021-02-20T08:20:59Z</time>
      </trkpt>
      <trkpt lat="45.18347" lon="5.91393">
        <ele>1443.6</ele>
        <time>2021-02-20T08:21:00Z</time>
      </trkpt>
      <trkpt lat="45.18347" lon="5.91394">
        <ele>1443.8</ele>
        <time>2021-02-20T08:21:01Z</time>
      </trkpt>
      <trkpt lat="45.18345" lon="5.91394">
        <ele>1444.1</ele>
        <time>2021-02-20T08:21:02Z</time>
      </trkpt>
      <trkpt lat="45.18344" lon="5.91396">
        <ele>1444.4</ele>
        <time>2021-02-20T08:21:03Z</time>
      </trkpt>
      <trkpt lat="45.18343" lon="5.91396">
        <ele>1444.6</ele>
        <time>2021-02-20T08:21:04Z</time>
      </trkpt>
      <trkpt lat="45.18342" lon="5.91397">
        <ele>1444.8</ele>
        <time>2021-02-20T08:21:05Z</time>
      </trkpt>
      <trkpt lat="45.18341" lon="5.91397">
        <ele>1445</ele>
        <time>2021-02-20T08:21:06Z</time>
      </trkpt>
      <trkpt lat="45.18341" lon="5.91398">
        <ele>1445.1</ele>
        <time>2021-02-20T08:21:07Z</time>
      </trkpt>
      <trkpt lat="45.1834" lon="5.91399">
        <ele>1445.3</ele>
        <time>2021-02-20T08:21:08Z</time>
      </trkpt>
      <trkpt lat="45.18339" lon="5.914">
        <ele>1445.5</ele>
        <time>2021-02-20T08:21:09Z</time>
      </trkpt>
      <trkpt lat="45.18338" lon="5.914">
        <ele>1445.8</ele>
        <time>2021-02-20T08:21:10Z</time>
      </trkpt>
      <trkpt lat="45.18337" lon="5.91401">
        <ele>1446</ele>
        <time>2021-02-20T08:21:11Z</time>
      </trkpt>
      <trkpt lat="45.18336" lon="5.91401">
        <ele>1446.1</ele>
        <time>2021-02-20T08:21:12Z</time>
      </trkpt>
      <trkpt lat="45.18336" lon="5.91402">
        <ele>1446.2</ele>
        <time>2021-02-20T08:21:13Z</time>
      </trkpt>
      <trkpt lat="45.18335" lon="5.91402">
        <ele>1446.4</ele>
        <time>2021-02-20T08:21:14Z</time>
      </trkpt>
      <trkpt lat="45.18334" lon="5.91403">
        <ele>1446.5</ele>
        <time>2021-02-20T08:21:15Z</time>
      </trkpt>
      <trkpt lat="45.18334" lon="5.91403">
        <ele>1446.7</ele>
        <time>2021-02-20T08:21:16Z</time>
      </trkpt>
      <trkpt lat="45.18333" lon="5.91404">
        <ele>1446.8</ele>
        <time>2021-02-20T08:21:17Z</time>
      </trkpt>
      <trkpt lat="45.18332" lon="5.91404">
        <ele>1446.9</ele>
        <time>2021-02-20T08:21:18Z</time>
      </trkpt>
      <trkpt lat="45.18332" lon="5.91404">
        <ele>1447.1</ele>
        <time>2021-02-20T08:21:19Z</time>
      </trkpt>
      <trkpt lat="45.18331" lon="5.91405">
        <ele>1447.2</ele>
        <time>2021-02-20T08:21:20Z</time>
      </trkpt>
      <trkpt lat="45.1833" lon="5.91405">
        <ele>1447.4</ele>
        <time>2021-02-20T08:21:21Z</time>
      </trkpt>
      <trkpt lat="45.18329" lon="5.91406">
        <ele>1447.6</ele>
        <time>2021-02-20T08:21:22Z</time>
      </trkpt>
      <trkpt lat="45.18328" lon="5.91407">
        <ele>1447.8</ele>
        <time>2021-02-20T08:21:23Z</time>
      </trkpt>
      <trkpt lat="45.18327" lon="5.91407">
        <ele>1448.1</ele>
        <time>2021-02-20T08:21:24Z</time>
      </trkpt>
      <trkpt lat="45.18326" lon="5.91407">
        <ele>1448.3</ele>
        <time>2021-02-20T08:21:25Z</time>
      </trkpt>
      <trkpt lat="45.18325" lon="5.91407">
        <ele>1448.5</ele>
        <time>2021-02-20T08:21:26Z</time>
      </trkpt>
      <trkpt lat="45.18325" lon="5.91407">
        <ele>1448.5</ele>
        <time>2021-02-20T08:21:27Z</time>
      </trkpt>
      <trkpt lat="45.18324" lon="5.91408">
        <ele>1448.8</ele>
        <time>2021-02-20T08:21:28Z</time>
      </trkpt>
      <trkpt lat="45.18322" lon="5.91409">
        <ele>1449.1</ele>
        <time>2021-02-20T08:21:29Z</time>
      </trkpt>
      <trkpt lat="45.18321" lon="5.91409">
        <ele>1449.3</ele>
        <time>2021-02-20T08:21:30Z</time>
      </trkpt>
      <trkpt lat="45.18321" lon="5.9141">
        <ele>1449.4</ele>
        <time>2021-02-20T08:21:31Z</time>
      </trkpt>
      <trkpt lat="45.1832" lon="5.9141">
        <ele>1449.6</ele>
        <time>2021-02-20T08:21:32Z</time>
      </trkpt>
      <trkpt lat="45.18319" lon="5.91411">
        <ele>1449.9</ele>
        <time>2021-02-20T08:21:33Z</time>
      </trkpt>
      <trkpt lat="45.18318" lon="5.91412">
        <ele>1450</ele>
        <time>2021-02-20T08:21:34Z</time>
      </trkpt>
      <trkpt lat="45.18318" lon="5.91413">
        <ele>1450.1</ele>
        <time>2021-02-20T08:21:35Z</time>
      </trkpt>
      <trkpt lat="45.18317" lon="5.91414">
        <ele>1450.3</ele>
        <time>2021-02-20T08:21:36Z</time>
      </trkpt>
      <trkpt lat="45.18316" lon="5.91414">
        <ele>1450.5</ele>
        <time>2021-02-20T08:21:37Z</time>
      </trkpt>
      <trkpt lat="45.18316" lon="5.91414">
        <ele>1450.6</ele>
        <time>2021-02-20T08:21:38Z</time>
      </trkpt>
      <trkpt lat="45.18315" lon="5.91415">
        <ele>1450.8</ele>
        <time>2021-02-20T08:21:39Z</time>
      </trkpt>
      <trkpt lat="45.18314" lon="5.91415">
        <ele>1451</ele>
        <time>2021-02-20T08:21:40Z</time>
      </trkpt>
      <trkpt lat="45.18312" lon="5.91415">
        <ele>1451.4</ele>
        <time>2021-02-20T08:21:41Z</time>
      </trkpt>
      <trkpt lat="45.18311" lon="5.91415">
        <ele>1451.6</ele>
        <time>2021-02-20T08:21:42Z</time>
      </trkpt>
      <trkpt lat="45.1831" lon="5.91415">
        <ele>1451.8</ele>
        <time>2021-02-20T08:21:43Z</time>
      </trkpt>
      <trkpt lat="45.18308" lon="5.91413">
        <ele>1452.2</ele>
        <time>2021-02-20T08:21:44Z</time>
      </trkpt>
      <trkpt lat="45.18307" lon="5.91413">
        <ele>1452.4</ele>
        <time>2021-02-20T08:21:45Z</time>
      </trkpt>
      <trkpt lat="45.18306" lon="5.91412">
        <ele>1452.5</ele>
        <time>2021-02-20T08:21:46Z</time>
      </trkpt>
      <trkpt lat="45.18305" lon="5.91412">
        <ele>1452.8</ele>
        <time>2021-02-20T08:21:47Z</time>
      </trkpt>
      <trkpt lat="45.18303" lon="5.91412">
        <ele>1453.1</ele>
        <time>2021-02-20T08:21:48Z</time>
      </trkpt>
      <trkpt lat="45.18302" lon="5.91412">
        <ele>1453.4</ele>
        <time>2021-02-20T08:21:49Z</time>
      </trkpt>
      <trkpt lat="45.18301" lon="5.91412">
        <ele>1453.6</ele>
        <time>2021-02-20T08:21:50Z</time>
      </trkpt>
      <trkpt lat="45.18299" lon="5.91412">
        <ele>1453.8</ele>
        <time>2021-02-20T08:21:51Z</time>
      </trkpt>
      <trkpt lat="45.18299" lon="5.91412">
        <ele>1454</ele>
        <time>2021-02-20T08:21:52Z</time>
      </trkpt>
      <trkpt lat="45.18298" lon="5.91412">
        <ele>1454.1</ele>
        <time>2021-02-20T08:21:53Z</time>
      </trkpt>
      <trkpt lat="45.18297" lon="5.91412">
        <ele>1454.2</ele>
        <time>2021-02-20T08:21:54Z</time>
      </trkpt>
      <trkpt lat="45.18297" lon="5.91413">
        <ele>1454.3</ele>
        <time>2021-02-20T08:21:55Z</time>
      </trkpt>
      <trkpt lat="45.18296" lon="5.91413">
        <ele>1454.4</ele>
        <time>2021-02-20T08:21:56Z</time>
      </trkpt>
      <trkpt lat="45.18296" lon="5.91414">
        <ele>1454.5</ele>
        <time>2021-02-20T08:21:57Z</time>
      </trkpt>
      <trkpt lat="45.18296" lon="5.91414">
        <ele>1454.6</ele>
        <time>2021-02-20T08:21:58Z</time>
      </trkpt>
      <trkpt lat="45.18296" lon="5.91414">
        <ele>1454.6</ele>
        <time>2021-02-20T08:21:59Z</time>
      </trkpt>
      <trkpt lat="45.18296" lon="5.91415">
        <ele>1454.7</ele>
        <time>2021-02-20T08:22:00Z</time>
      </trkpt>
      <trkpt lat="45.18296" lon="5.91415">
        <ele>1454.7</ele>
        <time>2021-02-20T08:22:01Z</time>
      </trkpt>
      <trkpt lat="45.18296" lon="5.91415">
        <ele>1454.7</ele>
        <time>2021-02-20T08:22:02Z</time>
      </trkpt>
      <trkpt lat="45.18296" lon="5.91415">
        <ele>1454.7</ele>
        <time>2021-02-20T08:22:03Z</time>
      </trkpt>
      <trkpt lat="45.18297" lon="5.91416">
        <ele>1455</ele>
        <time>2021-02-20T08:22:04Z</time>
      </trkpt>
      <trkpt lat="45.18297" lon="5.91417">
        <ele>1455</ele>
        <time>2021-02-20T08:22:05Z</time>
      </trkpt>
      <trkpt lat="45.18297" lon="5.91417">
        <ele>1455</ele>
        <time>2021-02-20T08:22:06Z</time>
      </trkpt>
      <trkpt lat="45.18297" lon="5.91417">
        <ele>1455</ele>
        <time>2021-02-20T08:22:07Z</time>
      </trkpt>
      <trkpt lat="45.18297" lon="5.91417">
        <ele>1455</ele>
        <time>2021-02-20T08:22:08Z</time>
      </trkpt>
      <trkpt lat="45.18297" lon="5.91417">
        <ele>1455</ele>
        <time>2021-02-20T08:22:09Z</time>
      </trkpt>
      <trkpt lat="45.18297" lon="5.91417">
        <ele>1455</ele>
        <time>2021-02-20T08:22:10Z</time>
      </trkpt>
      <trkpt lat="45.18298" lon="5.91418">
        <ele>1455.3</ele>
        <time>2021-02-20T08:22:11Z</time>
      </trkpt>
      <trkpt lat="45.18298" lon="5.91419">
        <ele>1455.4</ele>
        <time>2021-02-20T08:22:12Z</time>
      </trkpt>
      <trkpt lat="45.18298" lon="5.91421">
        <ele>1455.6</ele>
        <time>2021-02-20T08:22:13Z</time>
      </trkpt>
      <trkpt lat="45.18297" lon="5.91422">
        <ele>1455.8</ele>
        <time>2021-02-20T08:22:14Z</time>
      </trkpt>
      <trkpt lat="45.18297" lon="5.91422">
        <ele>1455.8</ele>
        <time>2021-02-20T08:22:15Z</time>
      </trkpt>
      <trkpt lat="45.18297" lon="5.91422">
        <ele>1455.8</ele>
        <time>2021-02-20T08:22:16Z</time>
      </trkpt>
      <trkpt lat="45.18297" lon="5.91422">
        <ele>1455.9</ele>
        <time>2021-02-20T08:22:17Z</time>
      </trkpt>
      <trkpt lat="45.18297" lon="5.91422">
        <ele>1455.9</ele>
        <time>2021-02-20T08:22:18Z</time>
      </trkpt>
      <trkpt lat="45.18297" lon="5.91422">
        <ele>1455.9</ele>
        <time>2021-02-20T08:22:19Z</time>
      </trkpt>
      <trkpt lat="45.18297" lon="5.91422">
        <ele>1455.9</ele>
        <time>2021-02-20T08:22:20Z</time>
      </trkpt>
      <trkpt lat="45.18297" lon="5.91422">
        <ele>1455.9</ele>
        <time>2021-02-20T08:22:21Z</time>
      </trkpt>
      <trkpt lat="45.18297" lon="5.91422">
        <ele>1455.9</ele>
        <time>2021-02-20T08:22:22Z</time>
      </trkpt>
      <trkpt lat="45.18297" lon="5.91422">
        <ele>1455.9</ele>
        <time>2021-02-20T08:22:23Z</time>
      </trkpt>
      <trkpt lat="45.18297" lon="5.91422">
        <ele>1455.9</ele>
        <time>2021-02-20T08:22:24Z</time>
      </trkpt>
      <trkpt lat="45.18297" lon="5.91422">
        <ele>1455.9</ele>
        <time>2021-02-20T08:22:25Z</time>
      </trkpt>
      <trkpt lat="45.18297" lon="5.91422">
        <ele>1455.9</ele>
        <time>2021-02-20T08:22:26Z</time>
      </trkpt>
      <trkpt lat="45.18297" lon="5.91422">
        <ele>1455.9</ele>
        <time>2021-02-20T08:22:27Z</time>
      </trkpt>
      <trkpt lat="45.18297" lon="5.91422">
        <ele>1455.9</ele>
        <time>2021-02-20T08:22:28Z</time>
      </trkpt>
      <trkpt lat="45.18297" lon="5.91422">
        <ele>1455.9</ele>
        <time>2021-02-20T08:22:29Z</time>
      </trkpt>
      <trkpt lat="45.18297" lon="5.91422">
        <ele>1455.9</ele>
        <time>2021-02-20T08:22:30Z</time>
      </trkpt>
      <trkpt lat="45.18297" lon="5.91422">
        <ele>1456</ele>
        <time>2021-02-20T08:22:31Z</time>
      </trkpt>
      <trkpt lat="45.18297" lon="5.91422">
        <ele>1456</ele>
        <time>2021-02-20T08:22:32Z</time>
      </trkpt>
      <trkpt lat="45.18297" lon="5.91422">
        <ele>1456</ele>
        <time>2021-02-20T08:22:33Z</time>
      </trkpt>
      <trkpt lat="45.18297" lon="5.91422">
        <ele>1456</ele>
        <time>2021-02-20T08:22:34Z</time>
      </trkpt>
      <trkpt lat="45.18297" lon="5.91421">
        <ele>1456</ele>
        <time>2021-02-20T08:22:35Z</time>
      </trkpt>
      <trkpt lat="45.18297" lon="5.91421">
        <ele>1456</ele>
        <time>2021-02-20T08:22:36Z</time>
      </trkpt>
      <trkpt lat="45.18297" lon="5.91421">
        <ele>1456</ele>
        <time>2021-02-20T08:22:37Z</time>
      </trkpt>
      <trkpt lat="45.18297" lon="5.91421">
        <ele>1456</ele>
        <time>2021-02-20T08:22:38Z</time>
      </trkpt>
      <trkpt lat="45.18297" lon="5.91421">
        <ele>1456</ele>
        <time>2021-02-20T08:22:39Z</time>
      </trkpt>
      <trkpt lat="45.18297" lon="5.91421">
        <ele>1456</ele>
        <time>2021-02-20T08:22:40Z</time>
      </trkpt>
      <trkpt lat="45.18297" lon="5.91421">
        <ele>1456</ele>
        <time>2021-02-20T08:22:41Z</time>
      </trkpt>
      <trkpt lat="45.18297" lon="5.91421">
        <ele>1456</ele>
        <time>2021-02-20T08:22:42Z</time>
      </trkpt>
      <trkpt lat="45.18297" lon="5.91421">
        <ele>1456.1</ele>
        <time>2021-02-20T08:22:43Z</time>
      </trkpt>
      <trkpt lat="45.18297" lon="5.91421">
        <ele>1456.1</ele>
        <time>2021-02-20T08:22:44Z</time>
      </trkpt>
      <trkpt lat="45.18297" lon="5.91421">
        <ele>1456.1</ele>
        <time>2021-02-20T08:22:45Z</time>
      </trkpt>
      <trkpt lat="45.18297" lon="5.91421">
        <ele>1456.1</ele>
        <time>2021-02-20T08:22:46Z</time>
      </trkpt>
      <trkpt lat="45.18297" lon="5.91421">
        <ele>1456.1</ele>
        <time>2021-02-20T08:22:47Z</time>
      </trkpt>
      <trkpt lat="45.18297" lon="5.91421">
        <ele>1456.1</ele>
        <time>2021-02-20T08:22:48Z</time>
      </trkpt>
      <trkpt lat="45.18297" lon="5.91421">
        <ele>1456.1</ele>
        <time>2021-02-20T08:22:49Z</time>
      </trkpt>
      <trkpt lat="45.18297" lon="5.91421">
        <ele>1456.1</ele>
        <time>2021-02-20T08:22:50Z</time>
      </trkpt>
      <trkpt lat="45.18297" lon="5.91421">
        <ele>1456.1</ele>
        <time>2021-02-20T08:22:51Z</time>
      </trkpt>
      <trkpt lat="45.18297" lon="5.91421">
        <ele>1456.1</ele>
        <time>2021-02-20T08:22:52Z</time>
      </trkpt>
      <trkpt lat="45.18297" lon="5.91421">
        <ele>1456.1</ele>
        <time>2021-02-20T08:22:53Z</time>
      </trkpt>
      <trkpt lat="45.18297" lon="5.91421">
        <ele>1456.1</ele>
        <time>2021-02-20T08:22:54Z</time>
      </trkpt>
      <trkpt lat="45.18297" lon="5.91421">
        <ele>1456.1</ele>
        <time>2021-02-20T08:22:55Z</time>
      </trkpt>
      <trkpt lat="45.18297" lon="5.91421">
        <ele>1456.1</ele>
        <time>2021-02-20T08:22:56Z</time>
      </trkpt>
      <trkpt lat="45.18297" lon="5.91421">
        <ele>1456.1</ele>
        <time>2021-02-20T08:22:57Z</time>
      </trkpt>
      <trkpt lat="45.18297" lon="5.9142">
        <ele>1456.2</ele>
        <time>2021-02-20T08:22:58Z</time>
      </trkpt>
      <trkpt lat="45.18297" lon="5.9142">
        <ele>1456.2</ele>
        <time>2021-02-20T08:22:59Z</time>
      </trkpt>
      <trkpt lat="45.18297" lon="5.9142">
        <ele>1456.2</ele>
        <time>2021-02-20T08:23:00Z</time>
      </trkpt>
      <trkpt lat="45.18297" lon="5.9142">
        <ele>1456.2</ele>
        <time>2021-02-20T08:23:01Z</time>
      </trkpt>
      <trkpt lat="45.18297" lon="5.9142">
        <ele>1456.2</ele>
        <time>2021-02-20T08:23:02Z</time>
      </trkpt>
      <trkpt lat="45.18297" lon="5.9142">
        <ele>1456.2</ele>
        <time>2021-02-20T08:23:03Z</time>
      </trkpt>
      <trkpt lat="45.18297" lon="5.9142">
        <ele>1456.2</ele>
        <time>2021-02-20T08:23:04Z</time>
      </trkpt>
      <trkpt lat="45.18296" lon="5.9142">
        <ele>1456.2</ele>
        <time>2021-02-20T08:23:05Z</time>
      </trkpt>
      <trkpt lat="45.18296" lon="5.9142">
        <ele>1456.2</ele>
        <time>2021-02-20T08:23:06Z</time>
      </trkpt>
      <trkpt lat="45.18296" lon="5.9142">
        <ele>1456.2</ele>
        <time>2021-02-20T08:23:07Z</time>
      </trkpt>
      <trkpt lat="45.18296" lon="5.9142">
        <ele>1456.2</ele>
        <time>2021-02-20T08:23:08Z</time>
      </trkpt>
      <trkpt lat="45.18296" lon="5.9142">
        <ele>1456.2</ele>
        <time>2021-02-20T08:23:09Z</time>
      </trkpt>
      <trkpt lat="45.18296" lon="5.9142">
        <ele>1456.3</ele>
        <time>2021-02-20T08:23:10Z</time>
      </trkpt>
      <trkpt lat="45.18296" lon="5.9142">
        <ele>1456.3</ele>
        <time>2021-02-20T08:23:11Z</time>
      </trkpt>
      <trkpt lat="45.18296" lon="5.9142">
        <ele>1456.3</ele>
        <time>2021-02-20T08:23:12Z</time>
      </trkpt>
      <trkpt lat="45.18296" lon="5.9142">
        <ele>1456.3</ele>
        <time>2021-02-20T08:23:13Z</time>
      </trkpt>
      <trkpt lat="45.18296" lon="5.9142">
        <ele>1456.3</ele>
        <time>2021-02-20T08:23:14Z</time>
      </trkpt>
      <trkpt lat="45.18296" lon="5.9142">
        <ele>1456.3</ele>
        <time>2021-02-20T08:23:15Z</time>
      </trkpt>
      <trkpt lat="45.18296" lon="5.9142">
        <ele>1456.3</ele>
        <time>2021-02-20T08:23:16Z</time>
      </trkpt>
      <trkpt lat="45.18296" lon="5.9142">
        <ele>1456.3</ele>
        <time>2021-02-20T08:23:17Z</time>
      </trkpt>
      <trkpt lat="45.18296" lon="5.9142">
        <ele>1456.3</ele>
        <time>2021-02-20T08:23:18Z</time>
      </trkpt>
      <trkpt lat="45.18296" lon="5.9142">
        <ele>1456.3</ele>
        <time>2021-02-20T08:23:19Z</time>
      </trkpt>
      <trkpt lat="45.18296" lon="5.9142">
        <ele>1456.3</ele>
        <time>2021-02-20T08:23:20Z</time>
      </trkpt>
      <trkpt lat="45.18296" lon="5.91419">
        <ele>1456.3</ele>
        <time>2021-02-20T08:23:21Z</time>
      </trkpt>
      <trkpt lat="45.18296" lon="5.91419">
        <ele>1456.3</ele>
        <time>2021-02-20T08:23:22Z</time>
      </trkpt>
      <trkpt lat="45.18296" lon="5.91419">
        <ele>1456.3</ele>
        <time>2021-02-20T08:23:23Z</time>
      </trkpt>
      <trkpt lat="45.18296" lon="5.91419">
        <ele>1456.4</ele>
        <time>2021-02-20T08:23:24Z</time>
      </trkpt>
      <trkpt lat="45.18296" lon="5.91419">
        <ele>1456.4</ele>
        <time>2021-02-20T08:23:25Z</time>
      </trkpt>
      <trkpt lat="45.18296" lon="5.91419">
        <ele>1456.4</ele>
        <time>2021-02-20T08:23:26Z</time>
      </trkpt>
      <trkpt lat="45.18296" lon="5.91419">
        <ele>1456.4</ele>
        <time>2021-02-20T08:23:27Z</time>
      </trkpt>
      <trkpt lat="45.18296" lon="5.91419">
        <ele>1456.4</ele>
        <time>2021-02-20T08:23:28Z</time>
      </trkpt>
      <trkpt lat="45.18296" lon="5.91419">
        <ele>1456.4</ele>
        <time>2021-02-20T08:23:29Z</time>
      </trkpt>
      <trkpt lat="45.18296" lon="5.91419">
        <ele>1456.4</ele>
        <time>2021-02-20T08:23:30Z</time>
      </trkpt>
      <trkpt lat="45.18296" lon="5.91419">
        <ele>1456.4</ele>
        <time>2021-02-20T08:23:31Z</time>
      </trkpt>
      <trkpt lat="45.18296" lon="5.91419">
        <ele>1456.4</ele>
        <time>2021-02-20T08:23:32Z</time>
      </trkpt>
      <trkpt lat="45.18296" lon="5.91419">
        <ele>1456.4</ele>
        <time>2021-02-20T08:23:33Z</time>
      </trkpt>
      <trkpt lat="45.18296" lon="5.91419">
        <ele>1456.4</ele>
        <time>2021-02-20T08:23:34Z</time>
      </trkpt>
      <trkpt lat="45.18296" lon="5.91419">
        <ele>1456.4</ele>
        <time>2021-02-20T08:23:35Z</time>
      </trkpt>
      <trkpt lat="45.18296" lon="5.91419">
        <ele>1456.4</ele>
        <time>2021-02-20T08:23:36Z</time>
      </trkpt>
      <trkpt lat="45.18296" lon="5.91419">
        <ele>1456.5</ele>
        <time>2021-02-20T08:23:37Z</time>
      </trkpt>
      <trkpt lat="45.18296" lon="5.91419">
        <ele>1456.5</ele>
        <time>2021-02-20T08:23:38Z</time>
      </trkpt>
      <trkpt lat="45.18296" lon="5.91419">
        <ele>1456.5</ele>
        <time>2021-02-20T08:23:39Z</time>
      </trkpt>
      <trkpt lat="45.18296" lon="5.91419">
        <ele>1456.5</ele>
        <time>2021-02-20T08:23:40Z</time>
      </trkpt>
      <trkpt lat="45.18296" lon="5.91419">
        <ele>1456.5</ele>
        <time>2021-02-20T08:23:41Z</time>
      </trkpt>
      <trkpt lat="45.18296" lon="5.91419">
        <ele>1456.5</ele>
        <time>2021-02-20T08:23:42Z</time>
      </trkpt>
      <trkpt lat="45.18296" lon="5.91419">
        <ele>1456.5</ele>
        <time>2021-02-20T08:23:43Z</time>
      </trkpt>
      <trkpt lat="45.18296" lon="5.91418">
        <ele>1456.5</ele>
        <time>2021-02-20T08:23:44Z</time>
      </trkpt>
      <trkpt lat="45.18296" lon="5.91418">
        <ele>1456.5</ele>
        <time>2021-02-20T08:23:45Z</time>
      </trkpt>
      <trkpt lat="45.18296" lon="5.91418">
        <ele>1456.5</ele>
        <time>2021-02-20T08:23:46Z</time>
      </trkpt>
      <trkpt lat="45.18296" lon="5.91418">
        <ele>1456.5</ele>
        <time>2021-02-20T08:23:47Z</time>
      </trkpt>
      <trkpt lat="45.18296" lon="5.91418">
        <ele>1456.5</ele>
        <time>2021-02-20T08:23:48Z</time>
      </trkpt>
      <trkpt lat="45.18296" lon="5.91418">
        <ele>1456.6</ele>
        <time>2021-02-20T08:23:49Z</time>
      </trkpt>
      <trkpt lat="45.18296" lon="5.91418">
        <ele>1456.6</ele>
        <time>2021-02-20T08:23:50Z</time>
      </trkpt>
      <trkpt lat="45.18296" lon="5.91418">
        <ele>1456.6</ele>
        <time>2021-02-20T08:23:51Z</time>
      </trkpt>
      <trkpt lat="45.18296" lon="5.91418">
        <ele>1456.6</ele>
        <time>2021-02-20T08:23:52Z</time>
      </trkpt>
      <trkpt lat="45.18296" lon="5.91418">
        <ele>1456.6</ele>
        <time>2021-02-20T08:23:53Z</time>
      </trkpt>
      <trkpt lat="45.18296" lon="5.91418">
        <ele>1456.6</ele>
        <time>2021-02-20T08:23:54Z</time>
      </trkpt>
      <trkpt lat="45.18296" lon="5.91418">
        <ele>1456.6</ele>
        <time>2021-02-20T08:23:55Z</time>
      </trkpt>
      <trkpt lat="45.18296" lon="5.91418">
        <ele>1456.6</ele>
        <time>2021-02-20T08:23:56Z</time>
      </trkpt>
      <trkpt lat="45.18296" lon="5.91418">
        <ele>1456.6</ele>
        <time>2021-02-20T08:23:57Z</time>
      </trkpt>
      <trkpt lat="45.18296" lon="5.91418">
        <ele>1456.6</ele>
        <time>2021-02-20T08:23:58Z</time>
      </trkpt>
      <trkpt lat="45.18295" lon="5.91418">
        <ele>1456.6</ele>
        <time>2021-02-20T08:23:59Z</time>
      </trkpt>
      <trkpt lat="45.18295" lon="5.91418">
        <ele>1456.6</ele>
        <time>2021-02-20T08:24:00Z</time>
      </trkpt>
      <trkpt lat="45.18295" lon="5.91418">
        <ele>1456.6</ele>
        <time>2021-02-20T08:24:01Z</time>
      </trkpt>
      <trkpt lat="45.18295" lon="5.91418">
        <ele>1456.6</ele>
        <time>2021-02-20T08:24:02Z</time>
      </trkpt>
      <trkpt lat="45.18295" lon="5.91418">
        <ele>1456.7</ele>
        <time>2021-02-20T08:24:03Z</time>
      </trkpt>
      <trkpt lat="45.18295" lon="5.91418">
        <ele>1456.7</ele>
        <time>2021-02-20T08:24:04Z</time>
      </trkpt>
      <trkpt lat="45.18295" lon="5.91418">
        <ele>1456.7</ele>
        <time>2021-02-20T08:24:05Z</time>
      </trkpt>
      <trkpt lat="45.18295" lon="5.91418">
        <ele>1456.7</ele>
        <time>2021-02-20T08:24:06Z</time>
      </trkpt>
      <trkpt lat="45.18295" lon="5.91417">
        <ele>1456.7</ele>
        <time>2021-02-20T08:24:07Z</time>
      </trkpt>
      <trkpt lat="45.18295" lon="5.91417">
        <ele>1456.7</ele>
        <time>2021-02-20T08:24:08Z</time>
      </trkpt>
      <trkpt lat="45.18295" lon="5.91417">
        <ele>1456.7</ele>
        <time>2021-02-20T08:24:09Z</time>
      </trkpt>
      <trkpt lat="45.18295" lon="5.91417">
        <ele>1456.7</ele>
        <time>2021-02-20T08:24:10Z</time>
      </trkpt>
      <trkpt lat="45.18295" lon="5.91417">
        <ele>1456.7</ele>
        <time>2021-02-20T08:24:11Z</time>
      </trkpt>
      <trkpt lat="45.18295" lon="5.91417">
        <ele>1456.7</ele>
        <time>2021-02-20T08:24:12Z</time>
      </trkpt>
      <trkpt lat="45.18295" lon="5.91417">
        <ele>1456.7</ele>
        <time>2021-02-20T08:24:13Z</time>
      </trkpt>
      <trkpt lat="45.18295" lon="5.91417">
        <ele>1456.7</ele>
        <time>2021-02-20T08:24:14Z</time>
      </trkpt>
      <trkpt lat="45.18295" lon="5.91417">
        <ele>1456.8</ele>
        <time>2021-02-20T08:24:15Z</time>
      </trkpt>
      <trkpt lat="45.18295" lon="5.91417">
        <ele>1456.8</ele>
        <time>2021-02-20T08:24:28Z</time>
      </trkpt>
      <trkpt lat="45.18295" lon="5.91417">
        <ele>1456.8</ele>
        <time>2021-02-20T08:24:29Z</time>
      </trkpt>
      <trkpt lat="45.18295" lon="5.91417">
        <ele>1456.8</ele>
        <time>2021-02-20T08:24:30Z</time>
      </trkpt>
      <trkpt lat="45.18295" lon="5.91417">
        <ele>1456.9</ele>
        <time>2021-02-20T08:24:31Z</time>
      </trkpt>
      <trkpt lat="45.18295" lon="5.91417">
        <ele>1456.9</ele>
        <time>2021-02-20T08:24:32Z</time>
      </trkpt>
      <trkpt lat="45.18295" lon="5.91417">
        <ele>1456.9</ele>
        <time>2021-02-20T08:24:33Z</time>
      </trkpt>
      <trkpt lat="45.18295" lon="5.91417">
        <ele>1456.9</ele>
        <time>2021-02-20T08:24:34Z</time>
      </trkpt>
      <trkpt lat="45.18295" lon="5.91417">
        <ele>1457</ele>
        <time>2021-02-20T08:24:35Z</time>
      </trkpt>
      <trkpt lat="45.18296" lon="5.91417">
        <ele>1457.2</ele>
        <time>2021-02-20T08:24:36Z</time>
      </trkpt>
      <trkpt lat="45.18297" lon="5.91417">
        <ele>1457.3</ele>
        <time>2021-02-20T08:24:37Z</time>
      </trkpt>
      <trkpt lat="45.18297" lon="5.91417">
        <ele>1457.3</ele>
        <time>2021-02-20T08:24:38Z</time>
      </trkpt>
      <trkpt lat="45.18297" lon="5.91417">
        <ele>1457.3</ele>
        <time>2021-02-20T08:24:39Z</time>
      </trkpt>
      <trkpt lat="45.18296" lon="5.91418">
        <ele>1457.4</ele>
        <time>2021-02-20T08:24:40Z</time>
      </trkpt>
      <trkpt lat="45.18296" lon="5.91418">
        <ele>1457.5</ele>
        <time>2021-02-20T08:24:41Z</time>
      </trkpt>
      <trkpt lat="45.18296" lon="5.91419">
        <ele>1457.6</ele>
        <time>2021-02-20T08:24:42Z</time>
      </trkpt>
      <trkpt lat="45.18296" lon="5.9142">
        <ele>1457.7</ele>
        <time>2021-02-20T08:24:43Z</time>
      </trkpt>
      <trkpt lat="45.18296" lon="5.91422">
        <ele>1458</ele>
        <time>2021-02-20T08:24:44Z</time>
      </trkpt>
      <trkpt lat="45.18297" lon="5.91422">
        <ele>1458.1</ele>
        <time>2021-02-20T08:24:45Z</time>
      </trkpt>
      <trkpt lat="45.18297" lon="5.9142">
        <ele>1458.3</ele>
        <time>2021-02-20T08:24:46Z</time>
      </trkpt>
      <trkpt lat="45.18297" lon="5.91419">
        <ele>1458.3</ele>
        <time>2021-02-20T08:24:47Z</time>
      </trkpt>
      <trkpt lat="45.18297" lon="5.91418">
        <ele>1458.4</ele>
        <time>2021-02-20T08:24:48Z</time>
      </trkpt>
      <trkpt lat="45.18297" lon="5.91417">
        <ele>1458.6</ele>
        <time>2021-02-20T08:24:49Z</time>
      </trkpt>
      <trkpt lat="45.18297" lon="5.91417">
        <ele>1458.6</ele>
        <time>2021-02-20T08:24:50Z</time>
      </trkpt>
      <trkpt lat="45.18297" lon="5.91417">
        <ele>1458.6</ele>
        <time>2021-02-20T08:24:51Z</time>
      </trkpt>
      <trkpt lat="45.18297" lon="5.91417">
        <ele>1458.6</ele>
        <time>2021-02-20T08:24:52Z</time>
      </trkpt>
      <trkpt lat="45.18298" lon="5.91418">
        <ele>1458.7</ele>
        <time>2021-02-20T08:24:53Z</time>
      </trkpt>
      <trkpt lat="45.18298" lon="5.91418">
        <ele>1458.7</ele>
        <time>2021-02-20T08:24:54Z</time>
      </trkpt>
      <trkpt lat="45.18298" lon="5.91418">
        <ele>1458.7</ele>
        <time>2021-02-20T08:24:55Z</time>
      </trkpt>
      <trkpt lat="45.18298" lon="5.91418">
        <ele>1458.7</ele>
        <time>2021-02-20T08:24:56Z</time>
      </trkpt>
      <trkpt lat="45.18298" lon="5.91418">
        <ele>1458.7</ele>
        <time>2021-02-20T08:24:57Z</time>
      </trkpt>
      <trkpt lat="45.18298" lon="5.91418">
        <ele>1458.7</ele>
        <time>2021-02-20T08:24:58Z</time>
      </trkpt>
      <trkpt lat="45.18297" lon="5.9142">
        <ele>1459</ele>
        <time>2021-02-20T08:24:59Z</time>
      </trkpt>
      <trkpt lat="45.18297" lon="5.9142">
        <ele>1459</ele>
        <time>2021-02-20T08:25:00Z</time>
      </trkpt>
      <trkpt lat="45.18297" lon="5.9142">
        <ele>1459</ele>
        <time>2021-02-20T08:25:01Z</time>
      </trkpt>
      <trkpt lat="45.18297" lon="5.9142">
        <ele>1459</ele>
        <time>2021-02-20T08:25:02Z</time>
      </trkpt>
      <trkpt lat="45.18297" lon="5.9142">
        <ele>1459</ele>
        <time>2021-02-20T08:25:03Z</time>
      </trkpt>
      <trkpt lat="45.18296" lon="5.9142">
        <ele>1459.1</ele>
        <time>2021-02-20T08:25:04Z</time>
      </trkpt>
      <trkpt lat="45.18296" lon="5.9142">
        <ele>1459.1</ele>
        <time>2021-02-20T08:25:05Z</time>
      </trkpt>
      <trkpt lat="45.18296" lon="5.91421">
        <ele>1459.3</ele>
        <time>2021-02-20T08:25:06Z</time>
      </trkpt>
      <trkpt lat="45.18296" lon="5.91421">
        <ele>1459.3</ele>
        <time>2021-02-20T08:25:07Z</time>
      </trkpt>
      <trkpt lat="45.18296" lon="5.91421">
        <ele>1459.3</ele>
        <time>2021-02-20T08:25:08Z</time>
      </trkpt>
      <trkpt lat="45.18296" lon="5.91421">
        <ele>1459.3</ele>
        <time>2021-02-20T08:25:09Z</time>
      </trkpt>
      <trkpt lat="45.18296" lon="5.91422">
        <ele>1459.4</ele>
        <time>2021-02-20T08:25:10Z</time>
      </trkpt>
      <trkpt lat="45.18296" lon="5.91421">
        <ele>1459.5</ele>
        <time>2021-02-20T08:25:11Z</time>
      </trkpt>
      <trkpt lat="45.18296" lon="5.91421">
        <ele>1459.5</ele>
        <time>2021-02-20T08:25:12Z</time>
      </trkpt>
      <trkpt lat="45.18296" lon="5.91421">
        <ele>1459.5</ele>
        <time>2021-02-20T08:25:13Z</time>
      </trkpt>
      <trkpt lat="45.18296" lon="5.91421">
        <ele>1459.5</ele>
        <time>2021-02-20T08:25:14Z</time>
      </trkpt>
      <trkpt lat="45.18297" lon="5.9142">
        <ele>1459.7</ele>
        <time>2021-02-20T08:25:15Z</time>
      </trkpt>
      <trkpt lat="45.18297" lon="5.9142">
        <ele>1459.7</ele>
        <time>2021-02-20T08:25:16Z</time>
      </trkpt>
      <trkpt lat="45.18297" lon="5.9142">
        <ele>1459.7</ele>
        <time>2021-02-20T08:25:17Z</time>
      </trkpt>
      <trkpt lat="45.18297" lon="5.9142">
        <ele>1459.7</ele>
        <time>2021-02-20T08:25:18Z</time>
      </trkpt>
      <trkpt lat="45.18297" lon="5.9142">
        <ele>1459.7</ele>
        <time>2021-02-20T08:25:19Z</time>
      </trkpt>
      <trkpt lat="45.18297" lon="5.9142">
        <ele>1459.7</ele>
        <time>2021-02-20T08:25:20Z</time>
      </trkpt>
      <trkpt lat="45.18297" lon="5.9142">
        <ele>1459.7</ele>
        <time>2021-02-20T08:25:21Z</time>
      </trkpt>
      <trkpt lat="45.18298" lon="5.91419">
        <ele>1459.9</ele>
        <time>2021-02-20T08:25:22Z</time>
      </trkpt>
      <trkpt lat="45.18298" lon="5.91418">
        <ele>1459.9</ele>
        <time>2021-02-20T08:25:23Z</time>
      </trkpt>
      <trkpt lat="45.18298" lon="5.91418">
        <ele>1460</ele>
        <time>2021-02-20T08:25:24Z</time>
      </trkpt>
      <trkpt lat="45.18298" lon="5.91418">
        <ele>1460</ele>
        <time>2021-02-20T08:25:25Z</time>
      </trkpt>
      <trkpt lat="45.18298" lon="5.91418">
        <ele>1460</ele>
        <time>2021-02-20T08:25:26Z</time>
      </trkpt>
      <trkpt lat="45.18298" lon="5.91418">
        <ele>1460</ele>
        <time>2021-02-20T08:25:27Z</time>
      </trkpt>
      <trkpt lat="45.18298" lon="5.91418">
        <ele>1460</ele>
        <time>2021-02-20T08:25:28Z</time>
      </trkpt>
      <trkpt lat="45.18298" lon="5.91417">
        <ele>1460.1</ele>
        <time>2021-02-20T08:25:29Z</time>
      </trkpt>
      <trkpt lat="45.18298" lon="5.91417">
        <ele>1460.1</ele>
        <time>2021-02-20T08:25:30Z</time>
      </trkpt>
      <trkpt lat="45.18298" lon="5.91417">
        <ele>1460.2</ele>
        <time>2021-02-20T08:25:31Z</time>
      </trkpt>
      <trkpt lat="45.18298" lon="5.91417">
        <ele>1460.2</ele>
        <time>2021-02-20T08:25:32Z</time>
      </trkpt>
      <trkpt lat="45.18299" lon="5.91417">
        <ele>1460.3</ele>
        <time>2021-02-20T08:25:33Z</time>
      </trkpt>
      <trkpt lat="45.18299" lon="5.91417">
        <ele>1460.4</ele>
        <time>2021-02-20T08:25:34Z</time>
      </trkpt>
      <trkpt lat="45.18299" lon="5.91417">
        <ele>1460.5</ele>
        <time>2021-02-20T08:25:35Z</time>
      </trkpt>
      <trkpt lat="45.18299" lon="5.91417">
        <ele>1460.5</ele>
        <time>2021-02-20T08:25:36Z</time>
      </trkpt>
      <trkpt lat="45.18298" lon="5.91416">
        <ele>1460.6</ele>
        <time>2021-02-20T08:25:37Z</time>
      </trkpt>
      <trkpt lat="45.18298" lon="5.91415">
        <ele>1460.7</ele>
        <time>2021-02-20T08:25:38Z</time>
      </trkpt>
      <trkpt lat="45.18298" lon="5.91415">
        <ele>1460.7</ele>
        <time>2021-02-20T08:25:39Z</time>
      </trkpt>
      <trkpt lat="45.18298" lon="5.91415">
        <ele>1460.7</ele>
        <time>2021-02-20T08:25:40Z</time>
      </trkpt>
      <trkpt lat="45.18298" lon="5.91415">
        <ele>1460.7</ele>
        <time>2021-02-20T08:25:41Z</time>
      </trkpt>
      <trkpt lat="45.18298" lon="5.91415">
        <ele>1460.7</ele>
        <time>2021-02-20T08:25:42Z</time>
      </trkpt>
      <trkpt lat="45.18298" lon="5.91415">
        <ele>1460.7</ele>
        <time>2021-02-20T08:25:43Z</time>
      </trkpt>
      <trkpt lat="45.18298" lon="5.91415">
        <ele>1460.7</ele>
        <time>2021-02-20T08:25:44Z</time>
      </trkpt>
      <trkpt lat="45.18298" lon="5.91415">
        <ele>1460.7</ele>
        <time>2021-02-20T08:25:45Z</time>
      </trkpt>
      <trkpt lat="45.18298" lon="5.91415">
        <ele>1460.7</ele>
        <time>2021-02-20T08:25:46Z</time>
      </trkpt>
      <trkpt lat="45.18298" lon="5.91415">
        <ele>1460.7</ele>
        <time>2021-02-20T08:25:47Z</time>
      </trkpt>
      <trkpt lat="45.18298" lon="5.91415">
        <ele>1460.7</ele>
        <time>2021-02-20T08:25:48Z</time>
      </trkpt>
      <trkpt lat="45.18298" lon="5.91415">
        <ele>1460.7</ele>
        <time>2021-02-20T08:25:49Z</time>
      </trkpt>
      <trkpt lat="45.18298" lon="5.91415">
        <ele>1460.7</ele>
        <time>2021-02-20T08:25:50Z</time>
      </trkpt>
      <trkpt lat="45.18298" lon="5.91415">
        <ele>1460.7</ele>
        <time>2021-02-20T08:25:51Z</time>
      </trkpt>
      <trkpt lat="45.18298" lon="5.91415">
        <ele>1460.7</ele>
        <time>2021-02-20T08:25:52Z</time>
      </trkpt>
      <trkpt lat="45.18298" lon="5.91415">
        <ele>1460.7</ele>
        <time>2021-02-20T08:25:53Z</time>
      </trkpt>
      <trkpt lat="45.18298" lon="5.91416">
        <ele>1460.8</ele>
        <time>2021-02-20T08:25:54Z</time>
      </trkpt>
      <trkpt lat="45.18298" lon="5.91418">
        <ele>1461</ele>
        <time>2021-02-20T08:25:55Z</time>
      </trkpt>
      <trkpt lat="45.18298" lon="5.91419">
        <ele>1461.1</ele>
        <time>2021-02-20T08:25:56Z</time>
      </trkpt>
      <trkpt lat="45.18298" lon="5.91419">
        <ele>1461.1</ele>
        <time>2021-02-20T08:25:57Z</time>
      </trkpt>
      <trkpt lat="45.18298" lon="5.91419">
        <ele>1461.1</ele>
        <time>2021-02-20T08:25:58Z</time>
      </trkpt>
      <trkpt lat="45.18299" lon="5.91419">
        <ele>1461.2</ele>
        <time>2021-02-20T08:25:59Z</time>
      </trkpt>
      <trkpt lat="45.18299" lon="5.91419">
        <ele>1461.2</ele>
        <time>2021-02-20T08:26:00Z</time>
      </trkpt>
      <trkpt lat="45.18299" lon="5.91419">
        <ele>1461.2</ele>
        <time>2021-02-20T08:26:01Z</time>
      </trkpt>
      <trkpt lat="45.18299" lon="5.91419">
        <ele>1461.2</ele>
        <time>2021-02-20T08:26:02Z</time>
      </trkpt>
      <trkpt lat="45.18298" lon="5.91418">
        <ele>1461.3</ele>
        <time>2021-02-20T08:26:03Z</time>
      </trkpt>
      <trkpt lat="45.18298" lon="5.91418">
        <ele>1461.3</ele>
        <time>2021-02-20T08:26:04Z</time>
      </trkpt>
      <trkpt lat="45.18298" lon="5.91418">
        <ele>1461.4</ele>
        <time>2021-02-20T08:26:05Z</time>
      </trkpt>
      <trkpt lat="45.18298" lon="5.91417">
        <ele>1461.5</ele>
        <time>2021-02-20T08:26:06Z</time>
      </trkpt>
      <trkpt lat="45.18298" lon="5.91417">
        <ele>1461.5</ele>
        <time>2021-02-20T08:26:07Z</time>
      </trkpt>
      <trkpt lat="45.18299" lon="5.91416">
        <ele>1461.6</ele>
        <time>2021-02-20T08:26:08Z</time>
      </trkpt>
      <trkpt lat="45.18299" lon="5.91416">
        <ele>1461.6</ele>
        <time>2021-02-20T08:26:09Z</time>
      </trkpt>
      <trkpt lat="45.18299" lon="5.91416">
        <ele>1461.6</ele>
        <time>2021-02-20T08:26:10Z</time>
      </trkpt>
      <trkpt lat="45.18299" lon="5.91415">
        <ele>1461.8</ele>
        <time>2021-02-20T08:26:11Z</time>
      </trkpt>
      <trkpt lat="45.18298" lon="5.91414">
        <ele>1462</ele>
        <time>2021-02-20T08:26:12Z</time>
      </trkpt>
      <trkpt lat="45.18298" lon="5.91414">
        <ele>1462</ele>
        <time>2021-02-20T08:26:13Z</time>
      </trkpt>
      <trkpt lat="45.18298" lon="5.91414">
        <ele>1462.1</ele>
        <time>2021-02-20T08:26:14Z</time>
      </trkpt>
      <trkpt lat="45.18298" lon="5.91414">
        <ele>1462.1</ele>
        <time>2021-02-20T08:26:15Z</time>
      </trkpt>
      <trkpt lat="45.18297" lon="5.91414">
        <ele>1462.1</ele>
        <time>2021-02-20T08:26:16Z</time>
      </trkpt>
      <trkpt lat="45.18297" lon="5.91414">
        <ele>1462.2</ele>
        <time>2021-02-20T08:26:17Z</time>
      </trkpt>
      <trkpt lat="45.18297" lon="5.91414">
        <ele>1462.2</ele>
        <time>2021-02-20T08:26:18Z</time>
      </trkpt>
      <trkpt lat="45.18296" lon="5.91414">
        <ele>1462.3</ele>
        <time>2021-02-20T08:26:19Z</time>
      </trkpt>
      <trkpt lat="45.18296" lon="5.91414">
        <ele>1462.3</ele>
        <time>2021-02-20T08:26:20Z</time>
      </trkpt>
      <trkpt lat="45.18296" lon="5.91414">
        <ele>1462.4</ele>
        <time>2021-02-20T08:26:21Z</time>
      </trkpt>
      <trkpt lat="45.18296" lon="5.91414">
        <ele>1462.4</ele>
        <time>2021-02-20T08:26:22Z</time>
      </trkpt>
      <trkpt lat="45.18295" lon="5.91414">
        <ele>1462.5</ele>
        <time>2021-02-20T08:26:23Z</time>
      </trkpt>
      <trkpt lat="45.18295" lon="5.91414">
        <ele>1462.5</ele>
        <time>2021-02-20T08:26:24Z</time>
      </trkpt>
      <trkpt lat="45.18295" lon="5.91414">
        <ele>1462.5</ele>
        <time>2021-02-20T08:26:25Z</time>
      </trkpt>
      <trkpt lat="45.18295" lon="5.91414">
        <ele>1462.6</ele>
        <time>2021-02-20T08:26:26Z</time>
      </trkpt>
      <trkpt lat="45.18295" lon="5.91413">
        <ele>1462.7</ele>
        <time>2021-02-20T08:26:27Z</time>
      </trkpt>
      <trkpt lat="45.18295" lon="5.91413">
        <ele>1462.7</ele>
        <time>2021-02-20T08:26:28Z</time>
      </trkpt>
      <trkpt lat="45.18295" lon="5.91413">
        <ele>1462.7</ele>
        <time>2021-02-20T08:26:29Z</time>
      </trkpt>
      <trkpt lat="45.18295" lon="5.91413">
        <ele>1462.7</ele>
        <time>2021-02-20T08:26:30Z</time>
      </trkpt>
      <trkpt lat="45.18295" lon="5.91413">
        <ele>1462.7</ele>
        <time>2021-02-20T08:26:31Z</time>
      </trkpt>
      <trkpt lat="45.18295" lon="5.91413">
        <ele>1462.7</ele>
        <time>2021-02-20T08:26:32Z</time>
      </trkpt>
      <trkpt lat="45.18295" lon="5.91413">
        <ele>1462.8</ele>
        <time>2021-02-20T08:26:33Z</time>
      </trkpt>
      <trkpt lat="45.18295" lon="5.91413">
        <ele>1462.9</ele>
        <time>2021-02-20T08:26:34Z</time>
      </trkpt>
      <trkpt lat="45.18296" lon="5.91413">
        <ele>1463</ele>
        <time>2021-02-20T08:26:35Z</time>
      </trkpt>
      <trkpt lat="45.18296" lon="5.91413">
        <ele>1463</ele>
        <time>2021-02-20T08:26:36Z</time>
      </trkpt>
      <trkpt lat="45.18295" lon="5.91411">
        <ele>1463.3</ele>
        <time>2021-02-20T08:26:37Z</time>
      </trkpt>
      <trkpt lat="45.18295" lon="5.91409">
        <ele>1463.5</ele>
        <time>2021-02-20T08:26:38Z</time>
      </trkpt>
      <trkpt lat="45.18295" lon="5.91409">
        <ele>1463.5</ele>
        <time>2021-02-20T08:26:39Z</time>
      </trkpt>
      <trkpt lat="45.18294" lon="5.91409">
        <ele>1463.6</ele>
        <time>2021-02-20T08:26:40Z</time>
      </trkpt>
      <trkpt lat="45.18294" lon="5.91409">
        <ele>1463.6</ele>
        <time>2021-02-20T08:26:41Z</time>
      </trkpt>
      <trkpt lat="45.18294" lon="5.91409">
        <ele>1463.6</ele>
        <time>2021-02-20T08:26:42Z</time>
      </trkpt>
      <trkpt lat="45.18294" lon="5.91409">
        <ele>1463.6</ele>
        <time>2021-02-20T08:26:43Z</time>
      </trkpt>
      <trkpt lat="45.18294" lon="5.91409">
        <ele>1463.6</ele>
        <time>2021-02-20T08:26:44Z</time>
      </trkpt>
      <trkpt lat="45.18294" lon="5.91409">
        <ele>1463.6</ele>
        <time>2021-02-20T08:26:45Z</time>
      </trkpt>
      <trkpt lat="45.18294" lon="5.91409">
        <ele>1463.6</ele>
        <time>2021-02-20T08:26:46Z</time>
      </trkpt>
      <trkpt lat="45.18294" lon="5.91409">
        <ele>1463.6</ele>
        <time>2021-02-20T08:26:47Z</time>
      </trkpt>
      <trkpt lat="45.18293" lon="5.91409">
        <ele>1463.8</ele>
        <time>2021-02-20T08:26:48Z</time>
      </trkpt>
      <trkpt lat="45.18293" lon="5.91409">
        <ele>1463.9</ele>
        <time>2021-02-20T08:26:49Z</time>
      </trkpt>
      <trkpt lat="45.18293" lon="5.91409">
        <ele>1463.9</ele>
        <time>2021-02-20T08:26:50Z</time>
      </trkpt>
      <trkpt lat="45.18293" lon="5.9141">
        <ele>1464</ele>
        <time>2021-02-20T08:26:51Z</time>
      </trkpt>
      <trkpt lat="45.18293" lon="5.9141">
        <ele>1464</ele>
        <time>2021-02-20T08:26:52Z</time>
      </trkpt>
      <trkpt lat="45.18293" lon="5.9141">
        <ele>1464.1</ele>
        <time>2021-02-20T08:26:53Z</time>
      </trkpt>
      <trkpt lat="45.18293" lon="5.91411">
        <ele>1464.1</ele>
        <time>2021-02-20T08:26:54Z</time>
      </trkpt>
      <trkpt lat="45.18293" lon="5.91412">
        <ele>1464.3</ele>
        <time>2021-02-20T08:26:55Z</time>
      </trkpt>
      <trkpt lat="45.18293" lon="5.91413">
        <ele>1464.4</ele>
        <time>2021-02-20T08:26:56Z</time>
      </trkpt>
      <trkpt lat="45.18293" lon="5.91413">
        <ele>1464.5</ele>
        <time>2021-02-20T08:26:57Z</time>
      </trkpt>
      <trkpt lat="45.18292" lon="5.91412">
        <ele>1464.5</ele>
        <time>2021-02-20T08:26:58Z</time>
      </trkpt>
      <trkpt lat="45.18292" lon="5.91412">
        <ele>1464.5</ele>
        <time>2021-02-20T08:26:59Z</time>
      </trkpt>
      <trkpt lat="45.18292" lon="5.91412">
        <ele>1464.6</ele>
        <time>2021-02-20T08:27:00Z</time>
      </trkpt>
      <trkpt lat="45.18292" lon="5.91412">
        <ele>1464.6</ele>
        <time>2021-02-20T08:27:01Z</time>
      </trkpt>
      <trkpt lat="45.18292" lon="5.91411">
        <ele>1464.7</ele>
        <time>2021-02-20T08:27:02Z</time>
      </trkpt>
      <trkpt lat="45.18292" lon="5.91411">
        <ele>1464.7</ele>
        <time>2021-02-20T08:27:03Z</time>
      </trkpt>
      <trkpt lat="45.18292" lon="5.91411">
        <ele>1464.7</ele>
        <time>2021-02-20T08:27:04Z</time>
      </trkpt>
      <trkpt lat="45.18292" lon="5.91411">
        <ele>1464.8</ele>
        <time>2021-02-20T08:27:05Z</time>
      </trkpt>
      <trkpt lat="45.18291" lon="5.9141">
        <ele>1464.8</ele>
        <time>2021-02-20T08:27:06Z</time>
      </trkpt>
      <trkpt lat="45.18291" lon="5.9141">
        <ele>1464.9</ele>
        <time>2021-02-20T08:27:07Z</time>
      </trkpt>
      <trkpt lat="45.18291" lon="5.9141">
        <ele>1464.9</ele>
        <time>2021-02-20T08:27:08Z</time>
      </trkpt>
      <trkpt lat="45.18291" lon="5.9141">
        <ele>1464.9</ele>
        <time>2021-02-20T08:27:09Z</time>
      </trkpt>
      <trkpt lat="45.18291" lon="5.91409">
        <ele>1465</ele>
        <time>2021-02-20T08:27:10Z</time>
      </trkpt>
      <trkpt lat="45.18291" lon="5.91409">
        <ele>1465</ele>
        <time>2021-02-20T08:27:11Z</time>
      </trkpt>
      <trkpt lat="45.18291" lon="5.91409">
        <ele>1465.1</ele>
        <time>2021-02-20T08:27:12Z</time>
      </trkpt>
      <trkpt lat="45.18291" lon="5.91409">
        <ele>1465.1</ele>
        <time>2021-02-20T08:27:13Z</time>
      </trkpt>
      <trkpt lat="45.18291" lon="5.91409">
        <ele>1465.1</ele>
        <time>2021-02-20T08:27:14Z</time>
      </trkpt>
      <trkpt lat="45.1829" lon="5.91408">
        <ele>1465.2</ele>
        <time>2021-02-20T08:27:15Z</time>
      </trkpt>
      <trkpt lat="45.18291" lon="5.91408">
        <ele>1465.2</ele>
        <time>2021-02-20T08:27:16Z</time>
      </trkpt>
      <trkpt lat="45.18291" lon="5.91408">
        <ele>1465.2</ele>
        <time>2021-02-20T08:27:17Z</time>
      </trkpt>
      <trkpt lat="45.1829" lon="5.91408">
        <ele>1465.3</ele>
        <time>2021-02-20T08:27:18Z</time>
      </trkpt>
      <trkpt lat="45.1829" lon="5.91408">
        <ele>1465.3</ele>
        <time>2021-02-20T08:27:19Z</time>
      </trkpt>
      <trkpt lat="45.1829" lon="5.91408">
        <ele>1465.3</ele>
        <time>2021-02-20T08:27:20Z</time>
      </trkpt>
      <trkpt lat="45.1829" lon="5.91408">
        <ele>1465.3</ele>
        <time>2021-02-20T08:27:21Z</time>
      </trkpt>
      <trkpt lat="45.1829" lon="5.91407">
        <ele>1465.4</ele>
        <time>2021-02-20T08:27:22Z</time>
      </trkpt>
      <trkpt lat="45.1829" lon="5.91407">
        <ele>1465.5</ele>
        <time>2021-02-20T08:27:23Z</time>
      </trkpt>
      <trkpt lat="45.1829" lon="5.91406">
        <ele>1465.6</ele>
        <time>2021-02-20T08:27:24Z</time>
      </trkpt>
      <trkpt lat="45.1829" lon="5.91405">
        <ele>1465.8</ele>
        <time>2021-02-20T08:27:25Z</time>
      </trkpt>
      <trkpt lat="45.1829" lon="5.91405">
        <ele>1465.8</ele>
        <time>2021-02-20T08:27:26Z</time>
      </trkpt>
      <trkpt lat="45.18291" lon="5.91405">
        <ele>1465.8</ele>
        <time>2021-02-20T08:27:27Z</time>
      </trkpt>
      <trkpt lat="45.18291" lon="5.91405">
        <ele>1465.8</ele>
        <time>2021-02-20T08:27:28Z</time>
      </trkpt>
      <trkpt lat="45.18291" lon="5.91405">
        <ele>1465.8</ele>
        <time>2021-02-20T08:27:29Z</time>
      </trkpt>
      <trkpt lat="45.18291" lon="5.91405">
        <ele>1465.8</ele>
        <time>2021-02-20T08:27:30Z</time>
      </trkpt>
      <trkpt lat="45.18291" lon="5.91405">
        <ele>1465.9</ele>
        <time>2021-02-20T08:27:31Z</time>
      </trkpt>
      <trkpt lat="45.18291" lon="5.91406">
        <ele>1466</ele>
        <time>2021-02-20T08:27:32Z</time>
      </trkpt>
      <trkpt lat="45.18291" lon="5.91406">
        <ele>1466</ele>
        <time>2021-02-20T08:27:33Z</time>
      </trkpt>
      <trkpt lat="45.18291" lon="5.91406">
        <ele>1466</ele>
        <time>2021-02-20T08:27:34Z</time>
      </trkpt>
      <trkpt lat="45.18291" lon="5.91406">
        <ele>1466</ele>
        <time>2021-02-20T08:27:35Z</time>
      </trkpt>
      <trkpt lat="45.18291" lon="5.91406">
        <ele>1466</ele>
        <time>2021-02-20T08:27:36Z</time>
      </trkpt>
      <trkpt lat="45.18291" lon="5.91406">
        <ele>1466</ele>
        <time>2021-02-20T08:27:37Z</time>
      </trkpt>
      <trkpt lat="45.18291" lon="5.91406">
        <ele>1466</ele>
        <time>2021-02-20T08:27:38Z</time>
      </trkpt>
      <trkpt lat="45.18291" lon="5.91406">
        <ele>1466</ele>
        <time>2021-02-20T08:27:39Z</time>
      </trkpt>
      <trkpt lat="45.18291" lon="5.91406">
        <ele>1466</ele>
        <time>2021-02-20T08:27:40Z</time>
      </trkpt>
      <trkpt lat="45.18291" lon="5.91406">
        <ele>1466</ele>
        <time>2021-02-20T08:27:41Z</time>
      </trkpt>
      <trkpt lat="45.18291" lon="5.91406">
        <ele>1466</ele>
        <time>2021-02-20T08:27:42Z</time>
      </trkpt>
      <trkpt lat="45.18292" lon="5.91405">
        <ele>1466.2</ele>
        <time>2021-02-20T08:27:43Z</time>
      </trkpt>
      <trkpt lat="45.18291" lon="5.91405">
        <ele>1466.3</ele>
        <time>2021-02-20T08:27:44Z</time>
      </trkpt>
      <trkpt lat="45.18291" lon="5.91405">
        <ele>1466.3</ele>
        <time>2021-02-20T08:27:45Z</time>
      </trkpt>
      <trkpt lat="45.18291" lon="5.91405">
        <ele>1466.3</ele>
        <time>2021-02-20T08:27:46Z</time>
      </trkpt>
      <trkpt lat="45.18291" lon="5.91405">
        <ele>1466.3</ele>
        <time>2021-02-20T08:27:47Z</time>
      </trkpt>
      <trkpt lat="45.18291" lon="5.91405">
        <ele>1466.3</ele>
        <time>2021-02-20T08:27:48Z</time>
      </trkpt>
      <trkpt lat="45.18291" lon="5.91405">
        <ele>1466.3</ele>
        <time>2021-02-20T08:27:49Z</time>
      </trkpt>
      <trkpt lat="45.18291" lon="5.91405">
        <ele>1466.3</ele>
        <time>2021-02-20T08:27:50Z</time>
      </trkpt>
      <trkpt lat="45.18291" lon="5.91405">
        <ele>1466.4</ele>
        <time>2021-02-20T08:27:51Z</time>
      </trkpt>
      <trkpt lat="45.18291" lon="5.91405">
        <ele>1466.4</ele>
        <time>2021-02-20T08:27:52Z</time>
      </trkpt>
      <trkpt lat="45.18291" lon="5.91405">
        <ele>1466.4</ele>
        <time>2021-02-20T08:27:53Z</time>
      </trkpt>
      <trkpt lat="45.18291" lon="5.91405">
        <ele>1466.4</ele>
        <time>2021-02-20T08:27:54Z</time>
      </trkpt>
      <trkpt lat="45.18291" lon="5.91405">
        <ele>1466.4</ele>
        <time>2021-02-20T08:27:55Z</time>
      </trkpt>
      <trkpt lat="45.18291" lon="5.91405">
        <ele>1466.4</ele>
        <time>2021-02-20T08:27:56Z</time>
      </trkpt>
      <trkpt lat="45.18291" lon="5.91405">
        <ele>1466.4</ele>
        <time>2021-02-20T08:27:57Z</time>
      </trkpt>
      <trkpt lat="45.18291" lon="5.91405">
        <ele>1466.4</ele>
        <time>2021-02-20T08:27:58Z</time>
      </trkpt>
      <trkpt lat="45.18291" lon="5.91405">
        <ele>1466.4</ele>
        <time>2021-02-20T08:27:59Z</time>
      </trkpt>
      <trkpt lat="45.18291" lon="5.91406">
        <ele>1466.5</ele>
        <time>2021-02-20T08:28:00Z</time>
      </trkpt>
      <trkpt lat="45.18291" lon="5.91406">
        <ele>1466.5</ele>
        <time>2021-02-20T08:28:01Z</time>
      </trkpt>
      <trkpt lat="45.1829" lon="5.91406">
        <ele>1466.5</ele>
        <time>2021-02-20T08:28:02Z</time>
      </trkpt>
      <trkpt lat="45.1829" lon="5.91406">
        <ele>1466.5</ele>
        <time>2021-02-20T08:28:03Z</time>
      </trkpt>
      <trkpt lat="45.1829" lon="5.91406">
        <ele>1466.5</ele>
        <time>2021-02-20T08:28:04Z</time>
      </trkpt>
      <trkpt lat="45.1829" lon="5.91406">
        <ele>1466.5</ele>
        <time>2021-02-20T08:28:05Z</time>
      </trkpt>
      <trkpt lat="45.1829" lon="5.91406">
        <ele>1466.5</ele>
        <time>2021-02-20T08:28:06Z</time>
      </trkpt>
      <trkpt lat="45.1829" lon="5.91406">
        <ele>1466.6</ele>
        <time>2021-02-20T08:28:07Z</time>
      </trkpt>
      <trkpt lat="45.1829" lon="5.91406">
        <ele>1466.6</ele>
        <time>2021-02-20T08:28:08Z</time>
      </trkpt>
      <trkpt lat="45.1829" lon="5.91406">
        <ele>1466.6</ele>
        <time>2021-02-20T08:28:09Z</time>
      </trkpt>
      <trkpt lat="45.1829" lon="5.91406">
        <ele>1466.6</ele>
        <time>2021-02-20T08:28:10Z</time>
      </trkpt>
      <trkpt lat="45.1829" lon="5.91406">
        <ele>1466.6</ele>
        <time>2021-02-20T08:28:11Z</time>
      </trkpt>
      <trkpt lat="45.1829" lon="5.91406">
        <ele>1466.6</ele>
        <time>2021-02-20T08:28:12Z</time>
      </trkpt>
      <trkpt lat="45.1829" lon="5.91406">
        <ele>1466.6</ele>
        <time>2021-02-20T08:28:13Z</time>
      </trkpt>
      <trkpt lat="45.1829" lon="5.91406">
        <ele>1466.7</ele>
        <time>2021-02-20T08:28:14Z</time>
      </trkpt>
      <trkpt lat="45.1829" lon="5.91406">
        <ele>1466.7</ele>
        <time>2021-02-20T08:28:15Z</time>
      </trkpt>
      <trkpt lat="45.1829" lon="5.91406">
        <ele>1466.7</ele>
        <time>2021-02-20T08:28:16Z</time>
      </trkpt>
      <trkpt lat="45.1829" lon="5.91406">
        <ele>1466.7</ele>
        <time>2021-02-20T08:28:17Z</time>
      </trkpt>
      <trkpt lat="45.1829" lon="5.91406">
        <ele>1466.7</ele>
        <time>2021-02-20T08:28:18Z</time>
      </trkpt>
      <trkpt lat="45.18289" lon="5.91406">
        <ele>1466.7</ele>
        <time>2021-02-20T08:28:19Z</time>
      </trkpt>
      <trkpt lat="45.18289" lon="5.91406">
        <ele>1466.8</ele>
        <time>2021-02-20T08:28:20Z</time>
      </trkpt>
      <trkpt lat="45.18289" lon="5.91406">
        <ele>1466.8</ele>
        <time>2021-02-20T08:28:21Z</time>
      </trkpt>
      <trkpt lat="45.18289" lon="5.91406">
        <ele>1466.8</ele>
        <time>2021-02-20T08:28:22Z</time>
      </trkpt>
      <trkpt lat="45.18289" lon="5.91406">
        <ele>1466.8</ele>
        <time>2021-02-20T08:28:23Z</time>
      </trkpt>
      <trkpt lat="45.18289" lon="5.91406">
        <ele>1466.8</ele>
        <time>2021-02-20T08:28:24Z</time>
      </trkpt>
      <trkpt lat="45.18289" lon="5.91406">
        <ele>1466.8</ele>
        <time>2021-02-20T08:28:25Z</time>
      </trkpt>
      <trkpt lat="45.18289" lon="5.91406">
        <ele>1466.8</ele>
        <time>2021-02-20T08:28:26Z</time>
      </trkpt>
      <trkpt lat="45.18289" lon="5.91407">
        <ele>1466.9</ele>
        <time>2021-02-20T08:28:27Z</time>
      </trkpt>
      <trkpt lat="45.18289" lon="5.91407">
        <ele>1466.9</ele>
        <time>2021-02-20T08:28:28Z</time>
      </trkpt>
      <trkpt lat="45.18289" lon="5.91407">
        <ele>1466.9</ele>
        <time>2021-02-20T08:28:29Z</time>
      </trkpt>
      <trkpt lat="45.18289" lon="5.91407">
        <ele>1466.9</ele>
        <time>2021-02-20T08:28:30Z</time>
      </trkpt>
      <trkpt lat="45.18289" lon="5.91407">
        <ele>1466.9</ele>
        <time>2021-02-20T08:28:31Z</time>
      </trkpt>
      <trkpt lat="45.18289" lon="5.91407">
        <ele>1466.9</ele>
        <time>2021-02-20T08:28:32Z</time>
      </trkpt>
      <trkpt lat="45.18289" lon="5.91407">
        <ele>1466.9</ele>
        <time>2021-02-20T08:28:33Z</time>
      </trkpt>
      <trkpt lat="45.18289" lon="5.91407">
        <ele>1466.9</ele>
        <time>2021-02-20T08:28:34Z</time>
      </trkpt>
      <trkpt lat="45.18289" lon="5.91407">
        <ele>1466.9</ele>
        <time>2021-02-20T08:28:35Z</time>
      </trkpt>
      <trkpt lat="45.18288" lon="5.91407">
        <ele>1467</ele>
        <time>2021-02-20T08:28:36Z</time>
      </trkpt>
      <trkpt lat="45.18288" lon="5.91407">
        <ele>1467</ele>
        <time>2021-02-20T08:28:37Z</time>
      </trkpt>
      <trkpt lat="45.18288" lon="5.91407">
        <ele>1467</ele>
        <time>2021-02-20T08:28:38Z</time>
      </trkpt>
      <trkpt lat="45.18288" lon="5.91407">
        <ele>1467</ele>
        <time>2021-02-20T08:28:39Z</time>
      </trkpt>
      <trkpt lat="45.18288" lon="5.91407">
        <ele>1467</ele>
        <time>2021-02-20T08:28:40Z</time>
      </trkpt>
      <trkpt lat="45.18288" lon="5.91407">
        <ele>1467</ele>
        <time>2021-02-20T08:28:41Z</time>
      </trkpt>
      <trkpt lat="45.18288" lon="5.91407">
        <ele>1467.1</ele>
        <time>2021-02-20T08:28:42Z</time>
      </trkpt>
      <trkpt lat="45.18288" lon="5.91407">
        <ele>1467.1</ele>
        <time>2021-02-20T08:28:43Z</time>
      </trkpt>
      <trkpt lat="45.18288" lon="5.91407">
        <ele>1467.1</ele>
        <time>2021-02-20T08:28:44Z</time>
      </trkpt>
      <trkpt lat="45.18287" lon="5.91408">
        <ele>1467.2</ele>
        <time>2021-02-20T08:28:45Z</time>
      </trkpt>
      <trkpt lat="45.18287" lon="5.91408">
        <ele>1467.4</ele>
        <time>2021-02-20T08:28:46Z</time>
      </trkpt>
      <trkpt lat="45.18286" lon="5.91409">
        <ele>1467.5</ele>
        <time>2021-02-20T08:28:47Z</time>
      </trkpt>
      <trkpt lat="45.18285" lon="5.9141">
        <ele>1467.7</ele>
        <time>2021-02-20T08:28:48Z</time>
      </trkpt>
      <trkpt lat="45.18284" lon="5.9141">
        <ele>1467.9</ele>
        <time>2021-02-20T08:28:49Z</time>
      </trkpt>
      <trkpt lat="45.18284" lon="5.91411">
        <ele>1468</ele>
        <time>2021-02-20T08:28:50Z</time>
      </trkpt>
      <trkpt lat="45.18283" lon="5.91411">
        <ele>1468.1</ele>
        <time>2021-02-20T08:28:51Z</time>
      </trkpt>
      <trkpt lat="45.18283" lon="5.91411">
        <ele>1468.2</ele>
        <time>2021-02-20T08:28:52Z</time>
      </trkpt>
      <trkpt lat="45.18282" lon="5.91412">
        <ele>1468.3</ele>
        <time>2021-02-20T08:28:53Z</time>
      </trkpt>
      <trkpt lat="45.18281" lon="5.91412">
        <ele>1468.6</ele>
        <time>2021-02-20T08:28:54Z</time>
      </trkpt>
      <trkpt lat="45.1828" lon="5.91413">
        <ele>1468.7</ele>
        <time>2021-02-20T08:28:55Z</time>
      </trkpt>
      <trkpt lat="45.1828" lon="5.91413">
        <ele>1468.8</ele>
        <time>2021-02-20T08:28:56Z</time>
      </trkpt>
      <trkpt lat="45.18279" lon="5.91414">
        <ele>1469</ele>
        <time>2021-02-20T08:28:57Z</time>
      </trkpt>
      <trkpt lat="45.18278" lon="5.91415">
        <ele>1469.2</ele>
        <time>2021-02-20T08:28:58Z</time>
      </trkpt>
      <trkpt lat="45.18278" lon="5.91417">
        <ele>1469.4</ele>
        <time>2021-02-20T08:28:59Z</time>
      </trkpt>
      <trkpt lat="45.18277" lon="5.91418">
        <ele>1469.6</ele>
        <time>2021-02-20T08:29:00Z</time>
      </trkpt>
      <trkpt lat="45.18277" lon="5.91419">
        <ele>1469.7</ele>
        <time>2021-02-20T08:29:01Z</time>
      </trkpt>
      <trkpt lat="45.18276" lon="5.91419">
        <ele>1469.9</ele>
        <time>2021-02-20T08:29:02Z</time>
      </trkpt>
      <trkpt lat="45.18275" lon="5.91419">
        <ele>1470</ele>
        <time>2021-02-20T08:29:03Z</time>
      </trkpt>
      <trkpt lat="45.18275" lon="5.91418">
        <ele>1470.2</ele>
        <time>2021-02-20T08:29:04Z</time>
      </trkpt>
      <trkpt lat="45.18273" lon="5.91417">
        <ele>1470.5</ele>
        <time>2021-02-20T08:29:05Z</time>
      </trkpt>
      <trkpt lat="45.18272" lon="5.91417">
        <ele>1470.6</ele>
        <time>2021-02-20T08:29:06Z</time>
      </trkpt>
      <trkpt lat="45.18272" lon="5.91417">
        <ele>1470.8</ele>
        <time>2021-02-20T08:29:07Z</time>
      </trkpt>
      <trkpt lat="45.18271" lon="5.91416">
        <ele>1470.9</ele>
        <time>2021-02-20T08:29:08Z</time>
      </trkpt>
      <trkpt lat="45.1827" lon="5.91417">
        <ele>1471.1</ele>
        <time>2021-02-20T08:29:09Z</time>
      </trkpt>
      <trkpt lat="45.18268" lon="5.91417">
        <ele>1471.3</ele>
        <time>2021-02-20T08:29:10Z</time>
      </trkpt>
      <trkpt lat="45.18267" lon="5.91418">
        <ele>1471.5</ele>
        <time>2021-02-20T08:29:11Z</time>
      </trkpt>
      <trkpt lat="45.18266" lon="5.91418">
        <ele>1471.7</ele>
        <time>2021-02-20T08:29:12Z</time>
      </trkpt>
      <trkpt lat="45.18265" lon="5.91418">
        <ele>1471.9</ele>
        <time>2021-02-20T08:29:13Z</time>
      </trkpt>
      <trkpt lat="45.18264" lon="5.91418">
        <ele>1472.1</ele>
        <time>2021-02-20T08:29:14Z</time>
      </trkpt>
      <trkpt lat="45.18263" lon="5.91418">
        <ele>1472.2</ele>
        <time>2021-02-20T08:29:15Z</time>
      </trkpt>
      <trkpt lat="45.18262" lon="5.91417">
        <ele>1472.4</ele>
        <time>2021-02-20T08:29:16Z</time>
      </trkpt>
      <trkpt lat="45.18261" lon="5.91417">
        <ele>1472.6</ele>
        <time>2021-02-20T08:29:17Z</time>
      </trkpt>
      <trkpt lat="45.18261" lon="5.91417">
        <ele>1472.6</ele>
        <time>2021-02-20T08:29:18Z</time>
      </trkpt>
      <trkpt lat="45.1826" lon="5.91417">
        <ele>1472.8</ele>
        <time>2021-02-20T08:29:19Z</time>
      </trkpt>
      <trkpt lat="45.1826" lon="5.91417">
        <ele>1472.8</ele>
        <time>2021-02-20T08:29:20Z</time>
      </trkpt>
      <trkpt lat="45.1826" lon="5.91417">
        <ele>1472.8</ele>
        <time>2021-02-20T08:29:21Z</time>
      </trkpt>
      <trkpt lat="45.18259" lon="5.91418">
        <ele>1473.1</ele>
        <time>2021-02-20T08:29:22Z</time>
      </trkpt>
      <trkpt lat="45.18258" lon="5.91418">
        <ele>1473.3</ele>
        <time>2021-02-20T08:29:23Z</time>
      </trkpt>
      <trkpt lat="45.18257" lon="5.91419">
        <ele>1473.5</ele>
        <time>2021-02-20T08:29:24Z</time>
      </trkpt>
      <trkpt lat="45.18256" lon="5.91419">
        <ele>1473.6</ele>
        <time>2021-02-20T08:29:25Z</time>
      </trkpt>
      <trkpt lat="45.18255" lon="5.91419">
        <ele>1473.7</ele>
        <time>2021-02-20T08:29:26Z</time>
      </trkpt>
      <trkpt lat="45.18255" lon="5.9142">
        <ele>1473.9</ele>
        <time>2021-02-20T08:29:27Z</time>
      </trkpt>
      <trkpt lat="45.18254" lon="5.9142">
        <ele>1474.1</ele>
        <time>2021-02-20T08:29:28Z</time>
      </trkpt>
      <trkpt lat="45.18253" lon="5.91421">
        <ele>1474.2</ele>
        <time>2021-02-20T08:29:29Z</time>
      </trkpt>
      <trkpt lat="45.18253" lon="5.91421">
        <ele>1474.3</ele>
        <time>2021-02-20T08:29:30Z</time>
      </trkpt>
      <trkpt lat="45.18251" lon="5.91421">
        <ele>1474.5</ele>
        <time>2021-02-20T08:29:31Z</time>
      </trkpt>
      <trkpt lat="45.1825" lon="5.91422">
        <ele>1474.7</ele>
        <time>2021-02-20T08:29:32Z</time>
      </trkpt>
      <trkpt lat="45.1825" lon="5.91422">
        <ele>1474.8</ele>
        <time>2021-02-20T08:29:33Z</time>
      </trkpt>
      <trkpt lat="45.18249" lon="5.91422">
        <ele>1474.9</ele>
        <time>2021-02-20T08:29:34Z</time>
      </trkpt>
      <trkpt lat="45.18249" lon="5.91422">
        <ele>1475</ele>
        <time>2021-02-20T08:29:35Z</time>
      </trkpt>
      <trkpt lat="45.18249" lon="5.91421">
        <ele>1475.1</ele>
        <time>2021-02-20T08:29:36Z</time>
      </trkpt>
      <trkpt lat="45.18248" lon="5.91421">
        <ele>1475.2</ele>
        <time>2021-02-20T08:29:37Z</time>
      </trkpt>
      <trkpt lat="45.18247" lon="5.91421">
        <ele>1475.3</ele>
        <time>2021-02-20T08:29:38Z</time>
      </trkpt>
      <trkpt lat="45.18246" lon="5.91421">
        <ele>1475.5</ele>
        <time>2021-02-20T08:29:39Z</time>
      </trkpt>
      <trkpt lat="45.18246" lon="5.91421">
        <ele>1475.6</ele>
        <time>2021-02-20T08:29:40Z</time>
      </trkpt>
      <trkpt lat="45.18245" lon="5.91422">
        <ele>1475.8</ele>
        <time>2021-02-20T08:29:41Z</time>
      </trkpt>
      <trkpt lat="45.18244" lon="5.91422">
        <ele>1475.9</ele>
        <time>2021-02-20T08:29:42Z</time>
      </trkpt>
      <trkpt lat="45.18243" lon="5.91423">
        <ele>1476.1</ele>
        <time>2021-02-20T08:29:43Z</time>
      </trkpt>
      <trkpt lat="45.18242" lon="5.91424">
        <ele>1476.3</ele>
        <time>2021-02-20T08:29:44Z</time>
      </trkpt>
      <trkpt lat="45.18241" lon="5.91425">
        <ele>1476.5</ele>
        <time>2021-02-20T08:29:45Z</time>
      </trkpt>
      <trkpt lat="45.1824" lon="5.91425">
        <ele>1476.7</ele>
        <time>2021-02-20T08:29:46Z</time>
      </trkpt>
      <trkpt lat="45.18239" lon="5.91425">
        <ele>1476.9</ele>
        <time>2021-02-20T08:29:47Z</time>
      </trkpt>
      <trkpt lat="45.18238" lon="5.91426">
        <ele>1477</ele>
        <time>2021-02-20T08:29:48Z</time>
      </trkpt>
      <trkpt lat="45.18237" lon="5.91426">
        <ele>1477.1</ele>
        <time>2021-02-20T08:29:49Z</time>
      </trkpt>
      <trkpt lat="45.18236" lon="5.91426">
        <ele>1477.4</ele>
        <time>2021-02-20T08:29:50Z</time>
      </trkpt>
      <trkpt lat="45.18234" lon="5.91425">
        <ele>1477.7</ele>
        <time>2021-02-20T08:29:51Z</time>
      </trkpt>
      <trkpt lat="45.18233" lon="5.91425">
        <ele>1477.8</ele>
        <time>2021-02-20T08:29:52Z</time>
      </trkpt>
      <trkpt lat="45.18232" lon="5.91425">
        <ele>1477.9</ele>
        <time>2021-02-20T08:29:53Z</time>
      </trkpt>
      <trkpt lat="45.18231" lon="5.91425">
        <ele>1478.1</ele>
        <time>2021-02-20T08:29:54Z</time>
      </trkpt>
      <trkpt lat="45.1823" lon="5.91425">
        <ele>1478.3</ele>
        <time>2021-02-20T08:29:55Z</time>
      </trkpt>
      <trkpt lat="45.18229" lon="5.91425">
        <ele>1478.4</ele>
        <time>2021-02-20T08:29:56Z</time>
      </trkpt>
      <trkpt lat="45.18229" lon="5.91425">
        <ele>1478.5</ele>
        <time>2021-02-20T08:29:57Z</time>
      </trkpt>
      <trkpt lat="45.18229" lon="5.91426">
        <ele>1478.6</ele>
        <time>2021-02-20T08:29:58Z</time>
      </trkpt>
      <trkpt lat="45.18228" lon="5.91426">
        <ele>1478.7</ele>
        <time>2021-02-20T08:29:59Z</time>
      </trkpt>
      <trkpt lat="45.18227" lon="5.91427">
        <ele>1478.8</ele>
        <time>2021-02-20T08:30:00Z</time>
      </trkpt>
      <trkpt lat="45.18227" lon="5.91427">
        <ele>1478.9</ele>
        <time>2021-02-20T08:30:01Z</time>
      </trkpt>
      <trkpt lat="45.18225" lon="5.91428">
        <ele>1479.1</ele>
        <time>2021-02-20T08:30:02Z</time>
      </trkpt>
      <trkpt lat="45.18225" lon="5.91429">
        <ele>1479.2</ele>
        <time>2021-02-20T08:30:03Z</time>
      </trkpt>
      <trkpt lat="45.18224" lon="5.9143">
        <ele>1479.3</ele>
        <time>2021-02-20T08:30:04Z</time>
      </trkpt>
      <trkpt lat="45.18223" lon="5.9143">
        <ele>1479.4</ele>
        <time>2021-02-20T08:30:05Z</time>
      </trkpt>
      <trkpt lat="45.18222" lon="5.91431">
        <ele>1479.6</ele>
        <time>2021-02-20T08:30:06Z</time>
      </trkpt>
      <trkpt lat="45.18221" lon="5.91432">
        <ele>1479.7</ele>
        <time>2021-02-20T08:30:07Z</time>
      </trkpt>
      <trkpt lat="45.1822" lon="5.91433">
        <ele>1479.9</ele>
        <time>2021-02-20T08:30:08Z</time>
      </trkpt>
      <trkpt lat="45.18219" lon="5.91433">
        <ele>1480.1</ele>
        <time>2021-02-20T08:30:09Z</time>
      </trkpt>
      <trkpt lat="45.18218" lon="5.91433">
        <ele>1480.3</ele>
        <time>2021-02-20T08:30:10Z</time>
      </trkpt>
      <trkpt lat="45.18216" lon="5.91433">
        <ele>1480.4</ele>
        <time>2021-02-20T08:30:11Z</time>
      </trkpt>
      <trkpt lat="45.18215" lon="5.91433">
        <ele>1480.5</ele>
        <time>2021-02-20T08:30:12Z</time>
      </trkpt>
      <trkpt lat="45.18214" lon="5.91434">
        <ele>1480.7</ele>
        <time>2021-02-20T08:30:13Z</time>
      </trkpt>
      <trkpt lat="45.18213" lon="5.91434">
        <ele>1480.9</ele>
        <time>2021-02-20T08:30:14Z</time>
      </trkpt>
      <trkpt lat="45.18212" lon="5.91435">
        <ele>1481</ele>
        <time>2021-02-20T08:30:15Z</time>
      </trkpt>
      <trkpt lat="45.18212" lon="5.91435">
        <ele>1481.1</ele>
        <time>2021-02-20T08:30:16Z</time>
      </trkpt>
      <trkpt lat="45.18211" lon="5.91436">
        <ele>1481.2</ele>
        <time>2021-02-20T08:30:17Z</time>
      </trkpt>
      <trkpt lat="45.1821" lon="5.91437">
        <ele>1481.3</ele>
        <time>2021-02-20T08:30:18Z</time>
      </trkpt>
      <trkpt lat="45.18209" lon="5.91439">
        <ele>1481.5</ele>
        <time>2021-02-20T08:30:19Z</time>
      </trkpt>
      <trkpt lat="45.18208" lon="5.9144">
        <ele>1481.6</ele>
        <time>2021-02-20T08:30:20Z</time>
      </trkpt>
      <trkpt lat="45.18208" lon="5.91441">
        <ele>1481.8</ele>
        <time>2021-02-20T08:30:21Z</time>
      </trkpt>
      <trkpt lat="45.18207" lon="5.91442">
        <ele>1481.9</ele>
        <time>2021-02-20T08:30:22Z</time>
      </trkpt>
      <trkpt lat="45.18206" lon="5.91443">
        <ele>1482.1</ele>
        <time>2021-02-20T08:30:23Z</time>
      </trkpt>
      <trkpt lat="45.18206" lon="5.91443">
        <ele>1482.2</ele>
        <time>2021-02-20T08:30:24Z</time>
      </trkpt>
      <trkpt lat="45.18205" lon="5.91443">
        <ele>1482.3</ele>
        <time>2021-02-20T08:30:25Z</time>
      </trkpt>
      <trkpt lat="45.18204" lon="5.91443">
        <ele>1482.4</ele>
        <time>2021-02-20T08:30:26Z</time>
      </trkpt>
      <trkpt lat="45.18204" lon="5.91443">
        <ele>1482.5</ele>
        <time>2021-02-20T08:30:27Z</time>
      </trkpt>
      <trkpt lat="45.18203" lon="5.91444">
        <ele>1482.6</ele>
        <time>2021-02-20T08:30:28Z</time>
      </trkpt>
      <trkpt lat="45.18202" lon="5.91445">
        <ele>1482.8</ele>
        <time>2021-02-20T08:30:29Z</time>
      </trkpt>
      <trkpt lat="45.18201" lon="5.91445">
        <ele>1482.9</ele>
        <time>2021-02-20T08:30:30Z</time>
      </trkpt>
      <trkpt lat="45.18201" lon="5.91446">
        <ele>1483</ele>
        <time>2021-02-20T08:30:31Z</time>
      </trkpt>
      <trkpt lat="45.182" lon="5.91447">
        <ele>1483.2</ele>
        <time>2021-02-20T08:30:32Z</time>
      </trkpt>
      <trkpt lat="45.18199" lon="5.91447">
        <ele>1483.3</ele>
        <time>2021-02-20T08:30:33Z</time>
      </trkpt>
      <trkpt lat="45.18199" lon="5.91448">
        <ele>1483.4</ele>
        <time>2021-02-20T08:30:34Z</time>
      </trkpt>
      <trkpt lat="45.18198" lon="5.91448">
        <ele>1483.5</ele>
        <time>2021-02-20T08:30:35Z</time>
      </trkpt>
      <trkpt lat="45.18198" lon="5.91448">
        <ele>1483.5</ele>
        <time>2021-02-20T08:30:36Z</time>
      </trkpt>
      <trkpt lat="45.18198" lon="5.91448">
        <ele>1483.6</ele>
        <time>2021-02-20T08:30:37Z</time>
      </trkpt>
      <trkpt lat="45.18197" lon="5.91449">
        <ele>1483.7</ele>
        <time>2021-02-20T08:30:38Z</time>
      </trkpt>
      <trkpt lat="45.18196" lon="5.91449">
        <ele>1483.9</ele>
        <time>2021-02-20T08:30:39Z</time>
      </trkpt>
      <trkpt lat="45.18194" lon="5.91451">
        <ele>1484.3</ele>
        <time>2021-02-20T08:30:40Z</time>
      </trkpt>
      <trkpt lat="45.18193" lon="5.91451">
        <ele>1484.5</ele>
        <time>2021-02-20T08:30:41Z</time>
      </trkpt>
      <trkpt lat="45.18193" lon="5.91452">
        <ele>1484.6</ele>
        <time>2021-02-20T08:30:42Z</time>
      </trkpt>
      <trkpt lat="45.18191" lon="5.91453">
        <ele>1485</ele>
        <time>2021-02-20T08:30:43Z</time>
      </trkpt>
      <trkpt lat="45.1819" lon="5.91454">
        <ele>1485.2</ele>
        <time>2021-02-20T08:30:44Z</time>
      </trkpt>
      <trkpt lat="45.1819" lon="5.91455">
        <ele>1485.3</ele>
        <time>2021-02-20T08:30:45Z</time>
      </trkpt>
      <trkpt lat="45.18189" lon="5.91455">
        <ele>1485.5</ele>
        <time>2021-02-20T08:30:46Z</time>
      </trkpt>
      <trkpt lat="45.18188" lon="5.91456">
        <ele>1485.7</ele>
        <time>2021-02-20T08:30:47Z</time>
      </trkpt>
      <trkpt lat="45.18187" lon="5.91457">
        <ele>1485.9</ele>
        <time>2021-02-20T08:30:48Z</time>
      </trkpt>
      <trkpt lat="45.18185" lon="5.91458">
        <ele>1486.3</ele>
        <time>2021-02-20T08:30:49Z</time>
      </trkpt>
      <trkpt lat="45.18185" lon="5.91459">
        <ele>1486.5</ele>
        <time>2021-02-20T08:30:50Z</time>
      </trkpt>
      <trkpt lat="45.18184" lon="5.9146">
        <ele>1486.7</ele>
        <time>2021-02-20T08:30:51Z</time>
      </trkpt>
      <trkpt lat="45.18184" lon="5.91462">
        <ele>1486.9</ele>
        <time>2021-02-20T08:30:52Z</time>
      </trkpt>
      <trkpt lat="45.18183" lon="5.91463">
        <ele>1487.1</ele>
        <time>2021-02-20T08:30:53Z</time>
      </trkpt>
      <trkpt lat="45.18182" lon="5.91463">
        <ele>1487.4</ele>
        <time>2021-02-20T08:30:54Z</time>
      </trkpt>
      <trkpt lat="45.18181" lon="5.91463">
        <ele>1487.5</ele>
        <time>2021-02-20T08:30:55Z</time>
      </trkpt>
      <trkpt lat="45.18181" lon="5.91463">
        <ele>1487.6</ele>
        <time>2021-02-20T08:30:56Z</time>
      </trkpt>
      <trkpt lat="45.1818" lon="5.91462">
        <ele>1487.8</ele>
        <time>2021-02-20T08:30:57Z</time>
      </trkpt>
      <trkpt lat="45.18178" lon="5.91462">
        <ele>1488.1</ele>
        <time>2021-02-20T08:30:58Z</time>
      </trkpt>
      <trkpt lat="45.18177" lon="5.91462">
        <ele>1488.3</ele>
        <time>2021-02-20T08:30:59Z</time>
      </trkpt>
      <trkpt lat="45.18176" lon="5.91462">
        <ele>1488.5</ele>
        <time>2021-02-20T08:31:00Z</time>
      </trkpt>
      <trkpt lat="45.18175" lon="5.91462">
        <ele>1488.7</ele>
        <time>2021-02-20T08:31:01Z</time>
      </trkpt>
      <trkpt lat="45.18174" lon="5.91462">
        <ele>1488.9</ele>
        <time>2021-02-20T08:31:02Z</time>
      </trkpt>
      <trkpt lat="45.18173" lon="5.91461">
        <ele>1489</ele>
        <time>2021-02-20T08:31:03Z</time>
      </trkpt>
      <trkpt lat="45.18172" lon="5.91461">
        <ele>1489.2</ele>
        <time>2021-02-20T08:31:04Z</time>
      </trkpt>
      <trkpt lat="45.18171" lon="5.91461">
        <ele>1489.4</ele>
        <time>2021-02-20T08:31:05Z</time>
      </trkpt>
      <trkpt lat="45.18171" lon="5.91462">
        <ele>1489.6</ele>
        <time>2021-02-20T08:31:06Z</time>
      </trkpt>
      <trkpt lat="45.18169" lon="5.91463">
        <ele>1489.8</ele>
        <time>2021-02-20T08:31:07Z</time>
      </trkpt>
      <trkpt lat="45.18169" lon="5.91463">
        <ele>1489.9</ele>
        <time>2021-02-20T08:31:08Z</time>
      </trkpt>
      <trkpt lat="45.18168" lon="5.91464">
        <ele>1490.1</ele>
        <time>2021-02-20T08:31:09Z</time>
      </trkpt>
      <trkpt lat="45.18167" lon="5.91464">
        <ele>1490.2</ele>
        <time>2021-02-20T08:31:10Z</time>
      </trkpt>
      <trkpt lat="45.18166" lon="5.91464">
        <ele>1490.3</ele>
        <time>2021-02-20T08:31:11Z</time>
      </trkpt>
      <trkpt lat="45.18166" lon="5.91465">
        <ele>1490.5</ele>
        <time>2021-02-20T08:31:12Z</time>
      </trkpt>
      <trkpt lat="45.18165" lon="5.91466">
        <ele>1490.6</ele>
        <time>2021-02-20T08:31:13Z</time>
      </trkpt>
      <trkpt lat="45.18164" lon="5.91466">
        <ele>1490.8</ele>
        <time>2021-02-20T08:31:14Z</time>
      </trkpt>
      <trkpt lat="45.18163" lon="5.91467">
        <ele>1490.9</ele>
        <time>2021-02-20T08:31:15Z</time>
      </trkpt>
      <trkpt lat="45.18163" lon="5.91467">
        <ele>1490.9</ele>
        <time>2021-02-20T08:31:16Z</time>
      </trkpt>
      <trkpt lat="45.18163" lon="5.91467">
        <ele>1491</ele>
        <time>2021-02-20T08:31:17Z</time>
      </trkpt>
      <trkpt lat="45.18162" lon="5.91468">
        <ele>1491.1</ele>
        <time>2021-02-20T08:31:18Z</time>
      </trkpt>
      <trkpt lat="45.18161" lon="5.91468">
        <ele>1491.2</ele>
        <time>2021-02-20T08:31:19Z</time>
      </trkpt>
      <trkpt lat="45.1816" lon="5.91468">
        <ele>1491.4</ele>
        <time>2021-02-20T08:31:20Z</time>
      </trkpt>
      <trkpt lat="45.18159" lon="5.91468">
        <ele>1491.5</ele>
        <time>2021-02-20T08:31:21Z</time>
      </trkpt>
      <trkpt lat="45.18158" lon="5.91468">
        <ele>1491.6</ele>
        <time>2021-02-20T08:31:22Z</time>
      </trkpt>
      <trkpt lat="45.18157" lon="5.91468">
        <ele>1491.8</ele>
        <time>2021-02-20T08:31:23Z</time>
      </trkpt>
      <trkpt lat="45.18156" lon="5.91469">
        <ele>1491.9</ele>
        <time>2021-02-20T08:31:24Z</time>
      </trkpt>
      <trkpt lat="45.18156" lon="5.9147">
        <ele>1492</ele>
        <time>2021-02-20T08:31:25Z</time>
      </trkpt>
      <trkpt lat="45.18155" lon="5.9147">
        <ele>1492.1</ele>
        <time>2021-02-20T08:31:26Z</time>
      </trkpt>
      <trkpt lat="45.18154" lon="5.91471">
        <ele>1492.2</ele>
        <time>2021-02-20T08:31:27Z</time>
      </trkpt>
      <trkpt lat="45.18153" lon="5.9147">
        <ele>1492.4</ele>
        <time>2021-02-20T08:31:28Z</time>
      </trkpt>
      <trkpt lat="45.18152" lon="5.91471">
        <ele>1492.5</ele>
        <time>2021-02-20T08:31:29Z</time>
      </trkpt>
      <trkpt lat="45.1815" lon="5.9147">
        <ele>1492.6</ele>
        <time>2021-02-20T08:31:30Z</time>
      </trkpt>
      <trkpt lat="45.18149" lon="5.91471">
        <ele>1492.8</ele>
        <time>2021-02-20T08:31:31Z</time>
      </trkpt>
      <trkpt lat="45.18148" lon="5.9147">
        <ele>1492.9</ele>
        <time>2021-02-20T08:31:32Z</time>
      </trkpt>
      <trkpt lat="45.18146" lon="5.91471">
        <ele>1493.1</ele>
        <time>2021-02-20T08:31:33Z</time>
      </trkpt>
      <trkpt lat="45.18145" lon="5.91471">
        <ele>1493.2</ele>
        <time>2021-02-20T08:31:34Z</time>
      </trkpt>
      <trkpt lat="45.18144" lon="5.91471">
        <ele>1493.2</ele>
        <time>2021-02-20T08:31:35Z</time>
      </trkpt>
      <trkpt lat="45.18144" lon="5.91471">
        <ele>1493.3</ele>
        <time>2021-02-20T08:31:36Z</time>
      </trkpt>
      <trkpt lat="45.18143" lon="5.91471">
        <ele>1493.4</ele>
        <time>2021-02-20T08:31:37Z</time>
      </trkpt>
      <trkpt lat="45.18142" lon="5.91471">
        <ele>1493.5</ele>
        <time>2021-02-20T08:31:38Z</time>
      </trkpt>
      <trkpt lat="45.18141" lon="5.91472">
        <ele>1493.5</ele>
        <time>2021-02-20T08:31:39Z</time>
      </trkpt>
      <trkpt lat="45.1814" lon="5.91472">
        <ele>1493.6</ele>
        <time>2021-02-20T08:31:40Z</time>
      </trkpt>
      <trkpt lat="45.18139" lon="5.91474">
        <ele>1493.7</ele>
        <time>2021-02-20T08:31:41Z</time>
      </trkpt>
      <trkpt lat="45.18139" lon="5.91475">
        <ele>1493.8</ele>
        <time>2021-02-20T08:31:42Z</time>
      </trkpt>
      <trkpt lat="45.18138" lon="5.91475">
        <ele>1493.9</ele>
        <time>2021-02-20T08:31:43Z</time>
      </trkpt>
      <trkpt lat="45.18137" lon="5.91476">
        <ele>1494</ele>
        <time>2021-02-20T08:31:44Z</time>
      </trkpt>
      <trkpt lat="45.18136" lon="5.91476">
        <ele>1494</ele>
        <time>2021-02-20T08:31:45Z</time>
      </trkpt>
      <trkpt lat="45.18135" lon="5.91477">
        <ele>1494.1</ele>
        <time>2021-02-20T08:31:46Z</time>
      </trkpt>
      <trkpt lat="45.18134" lon="5.91477">
        <ele>1494.2</ele>
        <time>2021-02-20T08:31:47Z</time>
      </trkpt>
      <trkpt lat="45.18133" lon="5.91477">
        <ele>1494.3</ele>
        <time>2021-02-20T08:31:48Z</time>
      </trkpt>
      <trkpt lat="45.18131" lon="5.91477">
        <ele>1494.3</ele>
        <time>2021-02-20T08:31:49Z</time>
      </trkpt>
      <trkpt lat="45.18131" lon="5.91477">
        <ele>1494.4</ele>
        <time>2021-02-20T08:31:50Z</time>
      </trkpt>
      <trkpt lat="45.1813" lon="5.91477">
        <ele>1494.5</ele>
        <time>2021-02-20T08:31:51Z</time>
      </trkpt>
      <trkpt lat="45.18128" lon="5.91478">
        <ele>1494.5</ele>
        <time>2021-02-20T08:31:52Z</time>
      </trkpt>
      <trkpt lat="45.18128" lon="5.91478">
        <ele>1494.6</ele>
        <time>2021-02-20T08:31:53Z</time>
      </trkpt>
      <trkpt lat="45.18127" lon="5.91478">
        <ele>1494.6</ele>
        <time>2021-02-20T08:31:54Z</time>
      </trkpt>
      <trkpt lat="45.18127" lon="5.91479">
        <ele>1494.7</ele>
        <time>2021-02-20T08:31:55Z</time>
      </trkpt>
      <trkpt lat="45.18126" lon="5.9148">
        <ele>1494.7</ele>
        <time>2021-02-20T08:31:56Z</time>
      </trkpt>
      <trkpt lat="45.18126" lon="5.91481">
        <ele>1494.8</ele>
        <time>2021-02-20T08:31:57Z</time>
      </trkpt>
      <trkpt lat="45.18125" lon="5.91482">
        <ele>1494.8</ele>
        <time>2021-02-20T08:31:58Z</time>
      </trkpt>
      <trkpt lat="45.18125" lon="5.91483">
        <ele>1494.8</ele>
        <time>2021-02-20T08:31:59Z</time>
      </trkpt>
      <trkpt lat="45.18125" lon="5.91483">
        <ele>1494.9</ele>
        <time>2021-02-20T08:32:00Z</time>
      </trkpt>
      <trkpt lat="45.18124" lon="5.91486">
        <ele>1495</ele>
        <time>2021-02-20T08:32:01Z</time>
      </trkpt>
      <trkpt lat="45.18123" lon="5.91487">
        <ele>1495</ele>
        <time>2021-02-20T08:32:02Z</time>
      </trkpt>
      <trkpt lat="45.18123" lon="5.91488">
        <ele>1495.1</ele>
        <time>2021-02-20T08:32:03Z</time>
      </trkpt>
      <trkpt lat="45.18123" lon="5.9149">
        <ele>1495.2</ele>
        <time>2021-02-20T08:32:04Z</time>
      </trkpt>
      <trkpt lat="45.18123" lon="5.91492">
        <ele>1495.2</ele>
        <time>2021-02-20T08:32:05Z</time>
      </trkpt>
      <trkpt lat="45.18123" lon="5.91493">
        <ele>1495.3</ele>
        <time>2021-02-20T08:32:06Z</time>
      </trkpt>
      <trkpt lat="45.18122" lon="5.91495">
        <ele>1495.4</ele>
        <time>2021-02-20T08:32:07Z</time>
      </trkpt>
      <trkpt lat="45.18122" lon="5.91496">
        <ele>1495.4</ele>
        <time>2021-02-20T08:32:08Z</time>
      </trkpt>
      <trkpt lat="45.18122" lon="5.91498">
        <ele>1495.5</ele>
        <time>2021-02-20T08:32:09Z</time>
      </trkpt>
      <trkpt lat="45.18122" lon="5.91499">
        <ele>1495.5</ele>
        <time>2021-02-20T08:32:10Z</time>
      </trkpt>
      <trkpt lat="45.18122" lon="5.915">
        <ele>1495.6</ele>
        <time>2021-02-20T08:32:11Z</time>
      </trkpt>
      <trkpt lat="45.18122" lon="5.91501">
        <ele>1495.7</ele>
        <time>2021-02-20T08:32:12Z</time>
      </trkpt>
      <trkpt lat="45.18123" lon="5.91502">
        <ele>1495.7</ele>
        <time>2021-02-20T08:32:13Z</time>
      </trkpt>
      <trkpt lat="45.18124" lon="5.91504">
        <ele>1495.8</ele>
        <time>2021-02-20T08:32:14Z</time>
      </trkpt>
      <trkpt lat="45.18124" lon="5.91505">
        <ele>1495.9</ele>
        <time>2021-02-20T08:32:15Z</time>
      </trkpt>
      <trkpt lat="45.18124" lon="5.91506">
        <ele>1496</ele>
        <time>2021-02-20T08:32:16Z</time>
      </trkpt>
      <trkpt lat="45.18125" lon="5.91507">
        <ele>1496</ele>
        <time>2021-02-20T08:32:17Z</time>
      </trkpt>
      <trkpt lat="45.18125" lon="5.91508">
        <ele>1496.1</ele>
        <time>2021-02-20T08:32:18Z</time>
      </trkpt>
      <trkpt lat="45.18125" lon="5.9151">
        <ele>1496.2</ele>
        <time>2021-02-20T08:32:19Z</time>
      </trkpt>
      <trkpt lat="45.18126" lon="5.91511">
        <ele>1496.3</ele>
        <time>2021-02-20T08:32:20Z</time>
      </trkpt>
      <trkpt lat="45.18126" lon="5.91513">
        <ele>1496.4</ele>
        <time>2021-02-20T08:32:21Z</time>
      </trkpt>
      <trkpt lat="45.18127" lon="5.91514">
        <ele>1496.5</ele>
        <time>2021-02-20T08:32:22Z</time>
      </trkpt>
      <trkpt lat="45.18127" lon="5.91515">
        <ele>1496.5</ele>
        <time>2021-02-20T08:32:23Z</time>
      </trkpt>
      <trkpt lat="45.18128" lon="5.91516">
        <ele>1496.6</ele>
        <time>2021-02-20T08:32:24Z</time>
      </trkpt>
      <trkpt lat="45.18128" lon="5.91518">
        <ele>1496.7</ele>
        <time>2021-02-20T08:32:25Z</time>
      </trkpt>
      <trkpt lat="45.18128" lon="5.9152">
        <ele>1496.9</ele>
        <time>2021-02-20T08:32:26Z</time>
      </trkpt>
      <trkpt lat="45.18128" lon="5.9152">
        <ele>1496.9</ele>
        <time>2021-02-20T08:32:27Z</time>
      </trkpt>
      <trkpt lat="45.18128" lon="5.91521">
        <ele>1496.9</ele>
        <time>2021-02-20T08:32:28Z</time>
      </trkpt>
      <trkpt lat="45.18129" lon="5.91522">
        <ele>1497.1</ele>
        <time>2021-02-20T08:32:29Z</time>
      </trkpt>
      <trkpt lat="45.18129" lon="5.91524">
        <ele>1497.2</ele>
        <time>2021-02-20T08:32:30Z</time>
      </trkpt>
      <trkpt lat="45.18129" lon="5.91526">
        <ele>1497.3</ele>
        <time>2021-02-20T08:32:31Z</time>
      </trkpt>
      <trkpt lat="45.18129" lon="5.91527">
        <ele>1497.4</ele>
        <time>2021-02-20T08:32:32Z</time>
      </trkpt>
      <trkpt lat="45.18129" lon="5.91529">
        <ele>1497.6</ele>
        <time>2021-02-20T08:32:33Z</time>
      </trkpt>
      <trkpt lat="45.18129" lon="5.91531">
        <ele>1497.7</ele>
        <time>2021-02-20T08:32:34Z</time>
      </trkpt>
      <trkpt lat="45.18129" lon="5.91532">
        <ele>1497.8</ele>
        <time>2021-02-20T08:32:35Z</time>
      </trkpt>
      <trkpt lat="45.18129" lon="5.91534">
        <ele>1497.9</ele>
        <time>2021-02-20T08:32:36Z</time>
      </trkpt>
      <trkpt lat="45.18129" lon="5.91535">
        <ele>1498.1</ele>
        <time>2021-02-20T08:32:37Z</time>
      </trkpt>
      <trkpt lat="45.18129" lon="5.91536">
        <ele>1498.1</ele>
        <time>2021-02-20T08:32:38Z</time>
      </trkpt>
      <trkpt lat="45.18129" lon="5.91537">
        <ele>1498.2</ele>
        <time>2021-02-20T08:32:39Z</time>
      </trkpt>
      <trkpt lat="45.18129" lon="5.91538">
        <ele>1498.3</ele>
        <time>2021-02-20T08:32:40Z</time>
      </trkpt>
      <trkpt lat="45.18128" lon="5.91539">
        <ele>1498.4</ele>
        <time>2021-02-20T08:32:41Z</time>
      </trkpt>
      <trkpt lat="45.18128" lon="5.9154">
        <ele>1498.5</ele>
        <time>2021-02-20T08:32:42Z</time>
      </trkpt>
      <trkpt lat="45.18128" lon="5.91541">
        <ele>1498.6</ele>
        <time>2021-02-20T08:32:43Z</time>
      </trkpt>
      <trkpt lat="45.18127" lon="5.91543">
        <ele>1498.8</ele>
        <time>2021-02-20T08:32:44Z</time>
      </trkpt>
      <trkpt lat="45.18127" lon="5.91545">
        <ele>1498.9</ele>
        <time>2021-02-20T08:32:45Z</time>
      </trkpt>
      <trkpt lat="45.18127" lon="5.91547">
        <ele>1499.1</ele>
        <time>2021-02-20T08:32:46Z</time>
      </trkpt>
      <trkpt lat="45.18127" lon="5.91549">
        <ele>1499.2</ele>
        <time>2021-02-20T08:32:47Z</time>
      </trkpt>
      <trkpt lat="45.18127" lon="5.91551">
        <ele>1499.4</ele>
        <time>2021-02-20T08:32:48Z</time>
      </trkpt>
      <trkpt lat="45.18126" lon="5.91553">
        <ele>1499.5</ele>
        <time>2021-02-20T08:32:49Z</time>
      </trkpt>
      <trkpt lat="45.18126" lon="5.91555">
        <ele>1499.7</ele>
        <time>2021-02-20T08:32:50Z</time>
      </trkpt>
      <trkpt lat="45.18125" lon="5.91556">
        <ele>1499.8</ele>
        <time>2021-02-20T08:32:51Z</time>
      </trkpt>
      <trkpt lat="45.18124" lon="5.91556">
        <ele>1499.8</ele>
        <time>2021-02-20T08:32:52Z</time>
      </trkpt>
      <trkpt lat="45.18124" lon="5.91557">
        <ele>1499.9</ele>
        <time>2021-02-20T08:32:53Z</time>
      </trkpt>
      <trkpt lat="45.18124" lon="5.91558">
        <ele>1500</ele>
        <time>2021-02-20T08:32:54Z</time>
      </trkpt>
      <trkpt lat="45.18123" lon="5.91558">
        <ele>1500</ele>
        <time>2021-02-20T08:32:55Z</time>
      </trkpt>
      <trkpt lat="45.18122" lon="5.91559">
        <ele>1500.1</ele>
        <time>2021-02-20T08:32:56Z</time>
      </trkpt>
      <trkpt lat="45.18121" lon="5.9156">
        <ele>1500.3</ele>
        <time>2021-02-20T08:32:57Z</time>
      </trkpt>
      <trkpt lat="45.1812" lon="5.91562">
        <ele>1500.4</ele>
        <time>2021-02-20T08:32:58Z</time>
      </trkpt>
      <trkpt lat="45.18118" lon="5.91564">
        <ele>1500.6</ele>
        <time>2021-02-20T08:32:59Z</time>
      </trkpt>
      <trkpt lat="45.18118" lon="5.91565">
        <ele>1500.7</ele>
        <time>2021-02-20T08:33:00Z</time>
      </trkpt>
      <trkpt lat="45.18117" lon="5.91567">
        <ele>1500.8</ele>
        <time>2021-02-20T08:33:01Z</time>
      </trkpt>
      <trkpt lat="45.18116" lon="5.91568">
        <ele>1500.9</ele>
        <time>2021-02-20T08:33:02Z</time>
      </trkpt>
      <trkpt lat="45.18115" lon="5.91568">
        <ele>1501</ele>
        <time>2021-02-20T08:33:03Z</time>
      </trkpt>
      <trkpt lat="45.18114" lon="5.91569">
        <ele>1501.1</ele>
        <time>2021-02-20T08:33:04Z</time>
      </trkpt>
      <trkpt lat="45.18113" lon="5.91569">
        <ele>1501.2</ele>
        <time>2021-02-20T08:33:05Z</time>
      </trkpt>
      <trkpt lat="45.18113" lon="5.91569">
        <ele>1501.2</ele>
        <time>2021-02-20T08:33:06Z</time>
      </trkpt>
      <trkpt lat="45.18112" lon="5.9157">
        <ele>1501.3</ele>
        <time>2021-02-20T08:33:07Z</time>
      </trkpt>
      <trkpt lat="45.1811" lon="5.91571">
        <ele>1501.5</ele>
        <time>2021-02-20T08:33:08Z</time>
      </trkpt>
      <trkpt lat="45.18109" lon="5.91571">
        <ele>1501.6</ele>
        <time>2021-02-20T08:33:09Z</time>
      </trkpt>
      <trkpt lat="45.18108" lon="5.91572">
        <ele>1501.7</ele>
        <time>2021-02-20T08:33:10Z</time>
      </trkpt>
      <trkpt lat="45.18106" lon="5.91572">
        <ele>1501.8</ele>
        <time>2021-02-20T08:33:11Z</time>
      </trkpt>
      <trkpt lat="45.18105" lon="5.91573">
        <ele>1501.9</ele>
        <time>2021-02-20T08:33:12Z</time>
      </trkpt>
      <trkpt lat="45.18103" lon="5.91573">
        <ele>1502</ele>
        <time>2021-02-20T08:33:13Z</time>
      </trkpt>
      <trkpt lat="45.18103" lon="5.91573">
        <ele>1502</ele>
        <time>2021-02-20T08:33:14Z</time>
      </trkpt>
      <trkpt lat="45.18102" lon="5.91574">
        <ele>1502.1</ele>
        <time>2021-02-20T08:33:15Z</time>
      </trkpt>
      <trkpt lat="45.181" lon="5.91574">
        <ele>1502.2</ele>
        <time>2021-02-20T08:33:16Z</time>
      </trkpt>
      <trkpt lat="45.18099" lon="5.91574">
        <ele>1502.3</ele>
        <time>2021-02-20T08:33:17Z</time>
      </trkpt>
      <trkpt lat="45.18098" lon="5.91574">
        <ele>1502.4</ele>
        <time>2021-02-20T08:33:18Z</time>
      </trkpt>
      <trkpt lat="45.18097" lon="5.91574">
        <ele>1502.5</ele>
        <time>2021-02-20T08:33:19Z</time>
      </trkpt>
      <trkpt lat="45.18096" lon="5.91574">
        <ele>1502.5</ele>
        <time>2021-02-20T08:33:20Z</time>
      </trkpt>
      <trkpt lat="45.18094" lon="5.91574">
        <ele>1502.7</ele>
        <time>2021-02-20T08:33:21Z</time>
      </trkpt>
      <trkpt lat="45.18093" lon="5.91575">
        <ele>1502.7</ele>
        <time>2021-02-20T08:33:22Z</time>
      </trkpt>
      <trkpt lat="45.18092" lon="5.91575">
        <ele>1502.8</ele>
        <time>2021-02-20T08:33:23Z</time>
      </trkpt>
      <trkpt lat="45.18091" lon="5.91576">
        <ele>1502.9</ele>
        <time>2021-02-20T08:33:24Z</time>
      </trkpt>
      <trkpt lat="45.18089" lon="5.91576">
        <ele>1503</ele>
        <time>2021-02-20T08:33:25Z</time>
      </trkpt>
      <trkpt lat="45.18088" lon="5.91578">
        <ele>1503.1</ele>
        <time>2021-02-20T08:33:26Z</time>
      </trkpt>
      <trkpt lat="45.18087" lon="5.91578">
        <ele>1503.1</ele>
        <time>2021-02-20T08:33:27Z</time>
      </trkpt>
      <trkpt lat="45.18086" lon="5.91579">
        <ele>1503.2</ele>
        <time>2021-02-20T08:33:28Z</time>
      </trkpt>
      <trkpt lat="45.18085" lon="5.91579">
        <ele>1503.2</ele>
        <time>2021-02-20T08:33:29Z</time>
      </trkpt>
      <trkpt lat="45.18084" lon="5.91579">
        <ele>1503.3</ele>
        <time>2021-02-20T08:33:30Z</time>
      </trkpt>
      <trkpt lat="45.18083" lon="5.91579">
        <ele>1503.4</ele>
        <time>2021-02-20T08:33:31Z</time>
      </trkpt>
      <trkpt lat="45.18082" lon="5.91579">
        <ele>1503.4</ele>
        <time>2021-02-20T08:33:32Z</time>
      </trkpt>
      <trkpt lat="45.18081" lon="5.91579">
        <ele>1503.5</ele>
        <time>2021-02-20T08:33:33Z</time>
      </trkpt>
      <trkpt lat="45.18079" lon="5.91579">
        <ele>1503.6</ele>
        <time>2021-02-20T08:33:34Z</time>
      </trkpt>
      <trkpt lat="45.18078" lon="5.91579">
        <ele>1503.7</ele>
        <time>2021-02-20T08:33:35Z</time>
      </trkpt>
      <trkpt lat="45.18076" lon="5.9158">
        <ele>1503.8</ele>
        <time>2021-02-20T08:33:36Z</time>
      </trkpt>
      <trkpt lat="45.18075" lon="5.9158">
        <ele>1503.8</ele>
        <time>2021-02-20T08:33:37Z</time>
      </trkpt>
      <trkpt lat="45.18074" lon="5.9158">
        <ele>1503.9</ele>
        <time>2021-02-20T08:33:38Z</time>
      </trkpt>
      <trkpt lat="45.18073" lon="5.9158">
        <ele>1503.9</ele>
        <time>2021-02-20T08:33:39Z</time>
      </trkpt>
      <trkpt lat="45.18072" lon="5.9158">
        <ele>1504</ele>
        <time>2021-02-20T08:33:40Z</time>
      </trkpt>
      <trkpt lat="45.18071" lon="5.9158">
        <ele>1504</ele>
        <time>2021-02-20T08:33:41Z</time>
      </trkpt>
      <trkpt lat="45.18071" lon="5.91579">
        <ele>1504.1</ele>
        <time>2021-02-20T08:33:42Z</time>
      </trkpt>
      <trkpt lat="45.1807" lon="5.91579">
        <ele>1504.1</ele>
        <time>2021-02-20T08:33:43Z</time>
      </trkpt>
      <trkpt lat="45.1807" lon="5.91579">
        <ele>1504.1</ele>
        <time>2021-02-20T08:33:44Z</time>
      </trkpt>
      <trkpt lat="45.18069" lon="5.91579">
        <ele>1504.2</ele>
        <time>2021-02-20T08:33:45Z</time>
      </trkpt>
      <trkpt lat="45.18069" lon="5.9158">
        <ele>1504.2</ele>
        <time>2021-02-20T08:33:46Z</time>
      </trkpt>
      <trkpt lat="45.18068" lon="5.9158">
        <ele>1504.3</ele>
        <time>2021-02-20T08:33:47Z</time>
      </trkpt>
      <trkpt lat="45.18067" lon="5.91581">
        <ele>1504.3</ele>
        <time>2021-02-20T08:33:48Z</time>
      </trkpt>
      <trkpt lat="45.18067" lon="5.91581">
        <ele>1504.3</ele>
        <time>2021-02-20T08:33:49Z</time>
      </trkpt>
      <trkpt lat="45.18066" lon="5.91581">
        <ele>1504.4</ele>
        <time>2021-02-20T08:33:50Z</time>
      </trkpt>
      <trkpt lat="45.18066" lon="5.91582">
        <ele>1504.4</ele>
        <time>2021-02-20T08:33:51Z</time>
      </trkpt>
      <trkpt lat="45.18064" lon="5.91583">
        <ele>1504.5</ele>
        <time>2021-02-20T08:33:52Z</time>
      </trkpt>
      <trkpt lat="45.18064" lon="5.91583">
        <ele>1504.5</ele>
        <time>2021-02-20T08:33:53Z</time>
      </trkpt>
      <trkpt lat="45.18063" lon="5.91583">
        <ele>1504.6</ele>
        <time>2021-02-20T08:33:54Z</time>
      </trkpt>
      <trkpt lat="45.18062" lon="5.91583">
        <ele>1504.6</ele>
        <time>2021-02-20T08:33:55Z</time>
      </trkpt>
      <trkpt lat="45.18062" lon="5.91583">
        <ele>1504.6</ele>
        <time>2021-02-20T08:33:56Z</time>
      </trkpt>
      <trkpt lat="45.18061" lon="5.91584">
        <ele>1504.7</ele>
        <time>2021-02-20T08:33:57Z</time>
      </trkpt>
      <trkpt lat="45.18061" lon="5.91584">
        <ele>1504.7</ele>
        <time>2021-02-20T08:33:58Z</time>
      </trkpt>
      <trkpt lat="45.18061" lon="5.91585">
        <ele>1504.7</ele>
        <time>2021-02-20T08:33:59Z</time>
      </trkpt>
      <trkpt lat="45.1806" lon="5.91585">
        <ele>1504.8</ele>
        <time>2021-02-20T08:34:00Z</time>
      </trkpt>
      <trkpt lat="45.18058" lon="5.91586">
        <ele>1504.9</ele>
        <time>2021-02-20T08:34:01Z</time>
      </trkpt>
      <trkpt lat="45.18058" lon="5.91587">
        <ele>1504.9</ele>
        <time>2021-02-20T08:34:02Z</time>
      </trkpt>
      <trkpt lat="45.18057" lon="5.91587">
        <ele>1504.9</ele>
        <time>2021-02-20T08:34:03Z</time>
      </trkpt>
      <trkpt lat="45.18056" lon="5.91588">
        <ele>1505</ele>
        <time>2021-02-20T08:34:04Z</time>
      </trkpt>
      <trkpt lat="45.18056" lon="5.91588">
        <ele>1505</ele>
        <time>2021-02-20T08:34:05Z</time>
      </trkpt>
      <trkpt lat="45.18056" lon="5.91588">
        <ele>1505</ele>
        <time>2021-02-20T08:34:06Z</time>
      </trkpt>
      <trkpt lat="45.18055" lon="5.91587">
        <ele>1505.1</ele>
        <time>2021-02-20T08:34:07Z</time>
      </trkpt>
      <trkpt lat="45.18054" lon="5.91587">
        <ele>1505.1</ele>
        <time>2021-02-20T08:34:08Z</time>
      </trkpt>
      <trkpt lat="45.18054" lon="5.91587">
        <ele>1505.1</ele>
        <time>2021-02-20T08:34:09Z</time>
      </trkpt>
      <trkpt lat="45.18053" lon="5.91588">
        <ele>1505.2</ele>
        <time>2021-02-20T08:34:10Z</time>
      </trkpt>
      <trkpt lat="45.18053" lon="5.91588">
        <ele>1505.2</ele>
        <time>2021-02-20T08:34:11Z</time>
      </trkpt>
      <trkpt lat="45.18052" lon="5.91588">
        <ele>1505.2</ele>
        <time>2021-02-20T08:34:12Z</time>
      </trkpt>
      <trkpt lat="45.18052" lon="5.91589">
        <ele>1505.3</ele>
        <time>2021-02-20T08:34:13Z</time>
      </trkpt>
      <trkpt lat="45.18051" lon="5.91589">
        <ele>1505.3</ele>
        <time>2021-02-20T08:34:14Z</time>
      </trkpt>
      <trkpt lat="45.1805" lon="5.91589">
        <ele>1505.4</ele>
        <time>2021-02-20T08:34:15Z</time>
      </trkpt>
      <trkpt lat="45.18049" lon="5.91589">
        <ele>1505.4</ele>
        <time>2021-02-20T08:34:16Z</time>
      </trkpt>
      <trkpt lat="45.18048" lon="5.91589">
        <ele>1505.4</ele>
        <time>2021-02-20T08:34:17Z</time>
      </trkpt>
      <trkpt lat="45.18047" lon="5.91589">
        <ele>1505.5</ele>
        <time>2021-02-20T08:34:18Z</time>
      </trkpt>
      <trkpt lat="45.18046" lon="5.91588">
        <ele>1505.6</ele>
        <time>2021-02-20T08:34:19Z</time>
      </trkpt>
      <trkpt lat="45.18044" lon="5.91588">
        <ele>1505.6</ele>
        <time>2021-02-20T08:34:20Z</time>
      </trkpt>
      <trkpt lat="45.18043" lon="5.91588">
        <ele>1505.7</ele>
        <time>2021-02-20T08:34:21Z</time>
      </trkpt>
      <trkpt lat="45.18041" lon="5.91589">
        <ele>1505.8</ele>
        <time>2021-02-20T08:34:22Z</time>
      </trkpt>
      <trkpt lat="45.1804" lon="5.91589">
        <ele>1505.9</ele>
        <time>2021-02-20T08:34:23Z</time>
      </trkpt>
      <trkpt lat="45.18038" lon="5.91589">
        <ele>1505.9</ele>
        <time>2021-02-20T08:34:24Z</time>
      </trkpt>
      <trkpt lat="45.18038" lon="5.91589">
        <ele>1506</ele>
        <time>2021-02-20T08:34:25Z</time>
      </trkpt>
      <trkpt lat="45.18036" lon="5.91589">
        <ele>1506</ele>
        <time>2021-02-20T08:34:26Z</time>
      </trkpt>
      <trkpt lat="45.18035" lon="5.91589">
        <ele>1506.1</ele>
        <time>2021-02-20T08:34:27Z</time>
      </trkpt>
      <trkpt lat="45.18034" lon="5.91589">
        <ele>1506.1</ele>
        <time>2021-02-20T08:34:28Z</time>
      </trkpt>
      <trkpt lat="45.18033" lon="5.91589">
        <ele>1506.2</ele>
        <time>2021-02-20T08:34:29Z</time>
      </trkpt>
      <trkpt lat="45.18031" lon="5.91588">
        <ele>1506.3</ele>
        <time>2021-02-20T08:34:30Z</time>
      </trkpt>
      <trkpt lat="45.1803" lon="5.91588">
        <ele>1506.4</ele>
        <time>2021-02-20T08:34:31Z</time>
      </trkpt>
      <trkpt lat="45.18029" lon="5.91588">
        <ele>1506.4</ele>
        <time>2021-02-20T08:34:32Z</time>
      </trkpt>
      <trkpt lat="45.18028" lon="5.91588">
        <ele>1506.5</ele>
        <time>2021-02-20T08:34:33Z</time>
      </trkpt>
      <trkpt lat="45.18027" lon="5.91587">
        <ele>1506.5</ele>
        <time>2021-02-20T08:34:34Z</time>
      </trkpt>
      <trkpt lat="45.18026" lon="5.91587">
        <ele>1506.6</ele>
        <time>2021-02-20T08:34:35Z</time>
      </trkpt>
      <trkpt lat="45.18025" lon="5.91587">
        <ele>1506.6</ele>
        <time>2021-02-20T08:34:36Z</time>
      </trkpt>
      <trkpt lat="45.18024" lon="5.91587">
        <ele>1506.7</ele>
        <time>2021-02-20T08:34:37Z</time>
      </trkpt>
      <trkpt lat="45.18023" lon="5.91587">
        <ele>1506.7</ele>
        <time>2021-02-20T08:34:38Z</time>
      </trkpt>
      <trkpt lat="45.18022" lon="5.91587">
        <ele>1506.8</ele>
        <time>2021-02-20T08:34:39Z</time>
      </trkpt>
      <trkpt lat="45.18021" lon="5.91587">
        <ele>1506.8</ele>
        <time>2021-02-20T08:34:40Z</time>
      </trkpt>
      <trkpt lat="45.18021" lon="5.91587">
        <ele>1506.9</ele>
        <time>2021-02-20T08:34:41Z</time>
      </trkpt>
      <trkpt lat="45.1802" lon="5.91586">
        <ele>1506.9</ele>
        <time>2021-02-20T08:34:42Z</time>
      </trkpt>
      <trkpt lat="45.1802" lon="5.91586">
        <ele>1506.9</ele>
        <time>2021-02-20T08:34:43Z</time>
      </trkpt>
      <trkpt lat="45.1802" lon="5.91586">
        <ele>1506.9</ele>
        <time>2021-02-20T08:34:44Z</time>
      </trkpt>
      <trkpt lat="45.18019" lon="5.91586">
        <ele>1507</ele>
        <time>2021-02-20T08:34:45Z</time>
      </trkpt>
      <trkpt lat="45.18017" lon="5.91585">
        <ele>1507.1</ele>
        <time>2021-02-20T08:34:46Z</time>
      </trkpt>
      <trkpt lat="45.18016" lon="5.91585">
        <ele>1507.2</ele>
        <time>2021-02-20T08:34:47Z</time>
      </trkpt>
      <trkpt lat="45.18015" lon="5.91585">
        <ele>1507.3</ele>
        <time>2021-02-20T08:34:48Z</time>
      </trkpt>
      <trkpt lat="45.18015" lon="5.91586">
        <ele>1507.4</ele>
        <time>2021-02-20T08:34:49Z</time>
      </trkpt>
      <trkpt lat="45.18014" lon="5.91586">
        <ele>1507.5</ele>
        <time>2021-02-20T08:34:50Z</time>
      </trkpt>
      <trkpt lat="45.18013" lon="5.91586">
        <ele>1507.6</ele>
        <time>2021-02-20T08:34:51Z</time>
      </trkpt>
      <trkpt lat="45.18012" lon="5.91586">
        <ele>1507.7</ele>
        <time>2021-02-20T08:34:52Z</time>
      </trkpt>
      <trkpt lat="45.1801" lon="5.91586">
        <ele>1507.9</ele>
        <time>2021-02-20T08:34:53Z</time>
      </trkpt>
      <trkpt lat="45.18009" lon="5.91586">
        <ele>1508</ele>
        <time>2021-02-20T08:34:54Z</time>
      </trkpt>
      <trkpt lat="45.18009" lon="5.91586">
        <ele>1508</ele>
        <time>2021-02-20T08:34:55Z</time>
      </trkpt>
      <trkpt lat="45.18009" lon="5.91586">
        <ele>1508.1</ele>
        <time>2021-02-20T08:34:56Z</time>
      </trkpt>
      <trkpt lat="45.18008" lon="5.91586">
        <ele>1508.2</ele>
        <time>2021-02-20T08:34:57Z</time>
      </trkpt>
      <trkpt lat="45.18007" lon="5.91586">
        <ele>1508.3</ele>
        <time>2021-02-20T08:34:58Z</time>
      </trkpt>
      <trkpt lat="45.18006" lon="5.91586">
        <ele>1508.5</ele>
        <time>2021-02-20T08:34:59Z</time>
      </trkpt>
      <trkpt lat="45.18004" lon="5.91586">
        <ele>1508.7</ele>
        <time>2021-02-20T08:35:00Z</time>
      </trkpt>
      <trkpt lat="45.18003" lon="5.91586">
        <ele>1508.8</ele>
        <time>2021-02-20T08:35:01Z</time>
      </trkpt>
      <trkpt lat="45.18003" lon="5.91586">
        <ele>1508.8</ele>
        <time>2021-02-20T08:35:02Z</time>
      </trkpt>
      <trkpt lat="45.18002" lon="5.91586">
        <ele>1508.9</ele>
        <time>2021-02-20T08:35:03Z</time>
      </trkpt>
      <trkpt lat="45.18001" lon="5.91587">
        <ele>1509.1</ele>
        <time>2021-02-20T08:35:04Z</time>
      </trkpt>
      <trkpt lat="45.18" lon="5.91587">
        <ele>1509.3</ele>
        <time>2021-02-20T08:35:05Z</time>
      </trkpt>
      <trkpt lat="45.17999" lon="5.91587">
        <ele>1509.4</ele>
        <time>2021-02-20T08:35:06Z</time>
      </trkpt>
      <trkpt lat="45.17998" lon="5.91588">
        <ele>1509.6</ele>
        <time>2021-02-20T08:35:07Z</time>
      </trkpt>
      <trkpt lat="45.17997" lon="5.91588">
        <ele>1509.8</ele>
        <time>2021-02-20T08:35:08Z</time>
      </trkpt>
      <trkpt lat="45.17996" lon="5.91588">
        <ele>1510</ele>
        <time>2021-02-20T08:35:09Z</time>
      </trkpt>
      <trkpt lat="45.17994" lon="5.91588">
        <ele>1510.3</ele>
        <time>2021-02-20T08:35:10Z</time>
      </trkpt>
      <trkpt lat="45.17993" lon="5.91588">
        <ele>1510.4</ele>
        <time>2021-02-20T08:35:11Z</time>
      </trkpt>
      <trkpt lat="45.17992" lon="5.91588">
        <ele>1510.7</ele>
        <time>2021-02-20T08:35:12Z</time>
      </trkpt>
      <trkpt lat="45.17991" lon="5.91588">
        <ele>1510.9</ele>
        <time>2021-02-20T08:35:13Z</time>
      </trkpt>
      <trkpt lat="45.1799" lon="5.91588">
        <ele>1511</ele>
        <time>2021-02-20T08:35:14Z</time>
      </trkpt>
      <trkpt lat="45.17988" lon="5.91589">
        <ele>1511.3</ele>
        <time>2021-02-20T08:35:15Z</time>
      </trkpt>
      <trkpt lat="45.17988" lon="5.91589">
        <ele>1511.4</ele>
        <time>2021-02-20T08:35:16Z</time>
      </trkpt>
      <trkpt lat="45.17987" lon="5.91589">
        <ele>1511.5</ele>
        <time>2021-02-20T08:35:17Z</time>
      </trkpt>
      <trkpt lat="45.17986" lon="5.9159">
        <ele>1511.7</ele>
        <time>2021-02-20T08:35:18Z</time>
      </trkpt>
      <trkpt lat="45.17986" lon="5.91589">
        <ele>1511.9</ele>
        <time>2021-02-20T08:35:19Z</time>
      </trkpt>
      <trkpt lat="45.17985" lon="5.91589">
        <ele>1512</ele>
        <time>2021-02-20T08:35:20Z</time>
      </trkpt>
      <trkpt lat="45.17985" lon="5.91589">
        <ele>1512.1</ele>
        <time>2021-02-20T08:35:21Z</time>
      </trkpt>
      <trkpt lat="45.17984" lon="5.91588">
        <ele>1512.3</ele>
        <time>2021-02-20T08:35:22Z</time>
      </trkpt>
      <trkpt lat="45.17983" lon="5.91588">
        <ele>1512.5</ele>
        <time>2021-02-20T08:35:23Z</time>
      </trkpt>
      <trkpt lat="45.17982" lon="5.91588">
        <ele>1512.6</ele>
        <time>2021-02-20T08:35:24Z</time>
      </trkpt>
      <trkpt lat="45.17981" lon="5.91588">
        <ele>1512.8</ele>
        <time>2021-02-20T08:35:25Z</time>
      </trkpt>
      <trkpt lat="45.17981" lon="5.91588">
        <ele>1512.9</ele>
        <time>2021-02-20T08:35:26Z</time>
      </trkpt>
      <trkpt lat="45.1798" lon="5.91589">
        <ele>1513</ele>
        <time>2021-02-20T08:35:27Z</time>
      </trkpt>
      <trkpt lat="45.17979" lon="5.91589">
        <ele>1513.2</ele>
        <time>2021-02-20T08:35:28Z</time>
      </trkpt>
      <trkpt lat="45.17978" lon="5.91589">
        <ele>1513.4</ele>
        <time>2021-02-20T08:35:29Z</time>
      </trkpt>
      <trkpt lat="45.17977" lon="5.91589">
        <ele>1513.6</ele>
        <time>2021-02-20T08:35:30Z</time>
      </trkpt>
      <trkpt lat="45.17976" lon="5.91589">
        <ele>1513.8</ele>
        <time>2021-02-20T08:35:31Z</time>
      </trkpt>
      <trkpt lat="45.17975" lon="5.9159">
        <ele>1514</ele>
        <time>2021-02-20T08:35:32Z</time>
      </trkpt>
      <trkpt lat="45.17974" lon="5.9159">
        <ele>1514.2</ele>
        <time>2021-02-20T08:35:33Z</time>
      </trkpt>
      <trkpt lat="45.17973" lon="5.91591">
        <ele>1514.4</ele>
        <time>2021-02-20T08:35:34Z</time>
      </trkpt>
      <trkpt lat="45.17972" lon="5.91591">
        <ele>1514.7</ele>
        <time>2021-02-20T08:35:35Z</time>
      </trkpt>
      <trkpt lat="45.17971" lon="5.91591">
        <ele>1514.9</ele>
        <time>2021-02-20T08:35:36Z</time>
      </trkpt>
      <trkpt lat="45.17971" lon="5.91591">
        <ele>1515.1</ele>
        <time>2021-02-20T08:35:37Z</time>
      </trkpt>
      <trkpt lat="45.1797" lon="5.91591">
        <ele>1515.3</ele>
        <time>2021-02-20T08:35:38Z</time>
      </trkpt>
      <trkpt lat="45.17968" lon="5.91592">
        <ele>1515.6</ele>
        <time>2021-02-20T08:35:39Z</time>
      </trkpt>
      <trkpt lat="45.17967" lon="5.91592">
        <ele>1515.8</ele>
        <time>2021-02-20T08:35:40Z</time>
      </trkpt>
      <trkpt lat="45.17966" lon="5.91592">
        <ele>1516.1</ele>
        <time>2021-02-20T08:35:41Z</time>
      </trkpt>
      <trkpt lat="45.17965" lon="5.91593">
        <ele>1516.3</ele>
        <time>2021-02-20T08:35:42Z</time>
      </trkpt>
      <trkpt lat="45.17965" lon="5.91593">
        <ele>1516.5</ele>
        <time>2021-02-20T08:35:43Z</time>
      </trkpt>
      <trkpt lat="45.17964" lon="5.91593">
        <ele>1516.6</ele>
        <time>2021-02-20T08:35:44Z</time>
      </trkpt>
      <trkpt lat="45.17963" lon="5.91594">
        <ele>1516.9</ele>
        <time>2021-02-20T08:35:45Z</time>
      </trkpt>
      <trkpt lat="45.17962" lon="5.91593">
        <ele>1517.1</ele>
        <time>2021-02-20T08:35:46Z</time>
      </trkpt>
      <trkpt lat="45.17961" lon="5.91594">
        <ele>1517.2</ele>
        <time>2021-02-20T08:35:47Z</time>
      </trkpt>
      <trkpt lat="45.17961" lon="5.91594">
        <ele>1517.4</ele>
        <time>2021-02-20T08:35:48Z</time>
      </trkpt>
      <trkpt lat="45.1796" lon="5.91594">
        <ele>1517.6</ele>
        <time>2021-02-20T08:35:49Z</time>
      </trkpt>
      <trkpt lat="45.17959" lon="5.91594">
        <ele>1517.7</ele>
        <time>2021-02-20T08:35:50Z</time>
      </trkpt>
      <trkpt lat="45.17958" lon="5.91594">
        <ele>1517.9</ele>
        <time>2021-02-20T08:35:51Z</time>
      </trkpt>
      <trkpt lat="45.17957" lon="5.91595">
        <ele>1518.1</ele>
        <time>2021-02-20T08:35:52Z</time>
      </trkpt>
      <trkpt lat="45.17957" lon="5.91595">
        <ele>1518.3</ele>
        <time>2021-02-20T08:35:53Z</time>
      </trkpt>
      <trkpt lat="45.17956" lon="5.91595">
        <ele>1518.5</ele>
        <time>2021-02-20T08:35:54Z</time>
      </trkpt>
      <trkpt lat="45.17955" lon="5.91595">
        <ele>1518.7</ele>
        <time>2021-02-20T08:35:55Z</time>
      </trkpt>
      <trkpt lat="45.17954" lon="5.91595">
        <ele>1518.8</ele>
        <time>2021-02-20T08:35:56Z</time>
      </trkpt>
      <trkpt lat="45.17954" lon="5.91596">
        <ele>1518.9</ele>
        <time>2021-02-20T08:35:57Z</time>
      </trkpt>
      <trkpt lat="45.17953" lon="5.91596">
        <ele>1519</ele>
        <time>2021-02-20T08:35:58Z</time>
      </trkpt>
      <trkpt lat="45.17953" lon="5.91596">
        <ele>1519.2</ele>
        <time>2021-02-20T08:35:59Z</time>
      </trkpt>
      <trkpt lat="45.17952" lon="5.91597">
        <ele>1519.4</ele>
        <time>2021-02-20T08:36:00Z</time>
      </trkpt>
      <trkpt lat="45.1795" lon="5.91597">
        <ele>1519.7</ele>
        <time>2021-02-20T08:36:01Z</time>
      </trkpt>
      <trkpt lat="45.1795" lon="5.91598">
        <ele>1519.9</ele>
        <time>2021-02-20T08:36:02Z</time>
      </trkpt>
      <trkpt lat="45.17949" lon="5.91598">
        <ele>1520.2</ele>
        <time>2021-02-20T08:36:03Z</time>
      </trkpt>
      <trkpt lat="45.17948" lon="5.91598">
        <ele>1520.4</ele>
        <time>2021-02-20T08:36:04Z</time>
      </trkpt>
      <trkpt lat="45.17947" lon="5.91598">
        <ele>1520.5</ele>
        <time>2021-02-20T08:36:05Z</time>
      </trkpt>
      <trkpt lat="45.17946" lon="5.91598">
        <ele>1520.7</ele>
        <time>2021-02-20T08:36:06Z</time>
      </trkpt>
      <trkpt lat="45.17945" lon="5.91598">
        <ele>1520.9</ele>
        <time>2021-02-20T08:36:07Z</time>
      </trkpt>
      <trkpt lat="45.17944" lon="5.91598">
        <ele>1521.1</ele>
        <time>2021-02-20T08:36:08Z</time>
      </trkpt>
      <trkpt lat="45.17943" lon="5.91599">
        <ele>1521.3</ele>
        <time>2021-02-20T08:36:09Z</time>
      </trkpt>
      <trkpt lat="45.17942" lon="5.916">
        <ele>1521.5</ele>
        <time>2021-02-20T08:36:10Z</time>
      </trkpt>
      <trkpt lat="45.17942" lon="5.916">
        <ele>1521.7</ele>
        <time>2021-02-20T08:36:11Z</time>
      </trkpt>
      <trkpt lat="45.17941" lon="5.916">
        <ele>1521.8</ele>
        <time>2021-02-20T08:36:12Z</time>
      </trkpt>
      <trkpt lat="45.17941" lon="5.916">
        <ele>1521.9</ele>
        <time>2021-02-20T08:36:13Z</time>
      </trkpt>
      <trkpt lat="45.1794" lon="5.916">
        <ele>1522.1</ele>
        <time>2021-02-20T08:36:14Z</time>
      </trkpt>
      <trkpt lat="45.1794" lon="5.91599">
        <ele>1522.2</ele>
        <time>2021-02-20T08:36:15Z</time>
      </trkpt>
      <trkpt lat="45.17939" lon="5.91599">
        <ele>1522.4</ele>
        <time>2021-02-20T08:36:16Z</time>
      </trkpt>
      <trkpt lat="45.17938" lon="5.91599">
        <ele>1522.6</ele>
        <time>2021-02-20T08:36:17Z</time>
      </trkpt>
      <trkpt lat="45.17937" lon="5.91599">
        <ele>1522.9</ele>
        <time>2021-02-20T08:36:18Z</time>
      </trkpt>
      <trkpt lat="45.17935" lon="5.916">
        <ele>1523.1</ele>
        <time>2021-02-20T08:36:19Z</time>
      </trkpt>
      <trkpt lat="45.17935" lon="5.916">
        <ele>1523.3</ele>
        <time>2021-02-20T08:36:20Z</time>
      </trkpt>
      <trkpt lat="45.17934" lon="5.91601">
        <ele>1523.5</ele>
        <time>2021-02-20T08:36:21Z</time>
      </trkpt>
      <trkpt lat="45.17933" lon="5.91601">
        <ele>1523.7</ele>
        <time>2021-02-20T08:36:22Z</time>
      </trkpt>
      <trkpt lat="45.17932" lon="5.91601">
        <ele>1523.8</ele>
        <time>2021-02-20T08:36:23Z</time>
      </trkpt>
      <trkpt lat="45.17931" lon="5.916">
        <ele>1524</ele>
        <time>2021-02-20T08:36:24Z</time>
      </trkpt>
      <trkpt lat="45.1793" lon="5.916">
        <ele>1524.2</ele>
        <time>2021-02-20T08:36:25Z</time>
      </trkpt>
      <trkpt lat="45.17929" lon="5.91601">
        <ele>1524.5</ele>
        <time>2021-02-20T08:36:26Z</time>
      </trkpt>
      <trkpt lat="45.17928" lon="5.91601">
        <ele>1524.7</ele>
        <time>2021-02-20T08:36:27Z</time>
      </trkpt>
      <trkpt lat="45.17927" lon="5.91602">
        <ele>1524.9</ele>
        <time>2021-02-20T08:36:28Z</time>
      </trkpt>
      <trkpt lat="45.17927" lon="5.91602">
        <ele>1525.1</ele>
        <time>2021-02-20T08:36:29Z</time>
      </trkpt>
      <trkpt lat="45.17926" lon="5.91603">
        <ele>1525.2</ele>
        <time>2021-02-20T08:36:30Z</time>
      </trkpt>
      <trkpt lat="45.17925" lon="5.91603">
        <ele>1525.4</ele>
        <time>2021-02-20T08:36:31Z</time>
      </trkpt>
      <trkpt lat="45.17924" lon="5.91602">
        <ele>1525.5</ele>
        <time>2021-02-20T08:36:32Z</time>
      </trkpt>
      <trkpt lat="45.17924" lon="5.91602">
        <ele>1525.7</ele>
        <time>2021-02-20T08:36:33Z</time>
      </trkpt>
      <trkpt lat="45.17923" lon="5.91602">
        <ele>1525.8</ele>
        <time>2021-02-20T08:36:34Z</time>
      </trkpt>
      <trkpt lat="45.17922" lon="5.91602">
        <ele>1526</ele>
        <time>2021-02-20T08:36:35Z</time>
      </trkpt>
      <trkpt lat="45.17922" lon="5.91602">
        <ele>1526.1</ele>
        <time>2021-02-20T08:36:36Z</time>
      </trkpt>
      <trkpt lat="45.1792" lon="5.91602">
        <ele>1526.4</ele>
        <time>2021-02-20T08:36:37Z</time>
      </trkpt>
      <trkpt lat="45.17919" lon="5.91602">
        <ele>1526.6</ele>
        <time>2021-02-20T08:36:38Z</time>
      </trkpt>
      <trkpt lat="45.17918" lon="5.91603">
        <ele>1526.8</ele>
        <time>2021-02-20T08:36:39Z</time>
      </trkpt>
      <trkpt lat="45.17917" lon="5.91603">
        <ele>1527.1</ele>
        <time>2021-02-20T08:36:40Z</time>
      </trkpt>
      <trkpt lat="45.17916" lon="5.91604">
        <ele>1527.3</ele>
        <time>2021-02-20T08:36:41Z</time>
      </trkpt>
      <trkpt lat="45.17915" lon="5.91604">
        <ele>1527.5</ele>
        <time>2021-02-20T08:36:42Z</time>
      </trkpt>
      <trkpt lat="45.17915" lon="5.91604">
        <ele>1527.6</ele>
        <time>2021-02-20T08:36:43Z</time>
      </trkpt>
      <trkpt lat="45.17914" lon="5.91604">
        <ele>1527.8</ele>
        <time>2021-02-20T08:36:44Z</time>
      </trkpt>
      <trkpt lat="45.17913" lon="5.91604">
        <ele>1527.9</ele>
        <time>2021-02-20T08:36:45Z</time>
      </trkpt>
      <trkpt lat="45.17913" lon="5.91604">
        <ele>1528.1</ele>
        <time>2021-02-20T08:36:46Z</time>
      </trkpt>
      <trkpt lat="45.17912" lon="5.91604">
        <ele>1528.2</ele>
        <time>2021-02-20T08:36:47Z</time>
      </trkpt>
      <trkpt lat="45.17911" lon="5.91605">
        <ele>1528.4</ele>
        <time>2021-02-20T08:36:48Z</time>
      </trkpt>
      <trkpt lat="45.1791" lon="5.91605">
        <ele>1528.7</ele>
        <time>2021-02-20T08:36:49Z</time>
      </trkpt>
      <trkpt lat="45.17909" lon="5.91606">
        <ele>1528.9</ele>
        <time>2021-02-20T08:36:50Z</time>
      </trkpt>
      <trkpt lat="45.17908" lon="5.91605">
        <ele>1529</ele>
        <time>2021-02-20T08:36:51Z</time>
      </trkpt>
      <trkpt lat="45.17908" lon="5.91606">
        <ele>1529.1</ele>
        <time>2021-02-20T08:36:52Z</time>
      </trkpt>
      <trkpt lat="45.17907" lon="5.91606">
        <ele>1529.2</ele>
        <time>2021-02-20T08:36:53Z</time>
      </trkpt>
      <trkpt lat="45.17907" lon="5.91606">
        <ele>1529.4</ele>
        <time>2021-02-20T08:36:54Z</time>
      </trkpt>
      <trkpt lat="45.17905" lon="5.91606">
        <ele>1529.8</ele>
        <time>2021-02-20T08:36:55Z</time>
      </trkpt>
      <trkpt lat="45.17904" lon="5.91606">
        <ele>1530</ele>
        <time>2021-02-20T08:36:56Z</time>
      </trkpt>
      <trkpt lat="45.17903" lon="5.91606">
        <ele>1530.1</ele>
        <time>2021-02-20T08:36:57Z</time>
      </trkpt>
      <trkpt lat="45.17902" lon="5.91606">
        <ele>1530.4</ele>
        <time>2021-02-20T08:36:58Z</time>
      </trkpt>
      <trkpt lat="45.17901" lon="5.91605">
        <ele>1530.6</ele>
        <time>2021-02-20T08:36:59Z</time>
      </trkpt>
      <trkpt lat="45.179" lon="5.91605">
        <ele>1530.7</ele>
        <time>2021-02-20T08:37:00Z</time>
      </trkpt>
      <trkpt lat="45.179" lon="5.91605">
        <ele>1530.7</ele>
        <time>2021-02-20T08:37:01Z</time>
      </trkpt>
      <trkpt lat="45.17899" lon="5.91606">
        <ele>1530.9</ele>
        <time>2021-02-20T08:37:02Z</time>
      </trkpt>
      <trkpt lat="45.17898" lon="5.91606">
        <ele>1531.2</ele>
        <time>2021-02-20T08:37:03Z</time>
      </trkpt>
      <trkpt lat="45.17897" lon="5.91607">
        <ele>1531.5</ele>
        <time>2021-02-20T08:37:04Z</time>
      </trkpt>
      <trkpt lat="45.17895" lon="5.91607">
        <ele>1531.8</ele>
        <time>2021-02-20T08:37:05Z</time>
      </trkpt>
      <trkpt lat="45.17894" lon="5.91607">
        <ele>1532.2</ele>
        <time>2021-02-20T08:37:06Z</time>
      </trkpt>
      <trkpt lat="45.17892" lon="5.91608">
        <ele>1532.5</ele>
        <time>2021-02-20T08:37:07Z</time>
      </trkpt>
      <trkpt lat="45.17892" lon="5.91609">
        <ele>1532.7</ele>
        <time>2021-02-20T08:37:08Z</time>
      </trkpt>
      <trkpt lat="45.17891" lon="5.91609">
        <ele>1532.8</ele>
        <time>2021-02-20T08:37:09Z</time>
      </trkpt>
      <trkpt lat="45.1789" lon="5.9161">
        <ele>1533.1</ele>
        <time>2021-02-20T08:37:10Z</time>
      </trkpt>
      <trkpt lat="45.17889" lon="5.91611">
        <ele>1533.3</ele>
        <time>2021-02-20T08:37:11Z</time>
      </trkpt>
      <trkpt lat="45.17888" lon="5.91611">
        <ele>1533.6</ele>
        <time>2021-02-20T08:37:12Z</time>
      </trkpt>
      <trkpt lat="45.17888" lon="5.91612">
        <ele>1533.8</ele>
        <time>2021-02-20T08:37:13Z</time>
      </trkpt>
      <trkpt lat="45.17887" lon="5.91612">
        <ele>1533.9</ele>
        <time>2021-02-20T08:37:14Z</time>
      </trkpt>
      <trkpt lat="45.17886" lon="5.91613">
        <ele>1534.1</ele>
        <time>2021-02-20T08:37:15Z</time>
      </trkpt>
      <trkpt lat="45.17886" lon="5.91613">
        <ele>1534.3</ele>
        <time>2021-02-20T08:37:16Z</time>
      </trkpt>
      <trkpt lat="45.17885" lon="5.91614">
        <ele>1534.4</ele>
        <time>2021-02-20T08:37:17Z</time>
      </trkpt>
      <trkpt lat="45.17885" lon="5.91614">
        <ele>1534.6</ele>
        <time>2021-02-20T08:37:18Z</time>
      </trkpt>
      <trkpt lat="45.17884" lon="5.91614">
        <ele>1534.8</ele>
        <time>2021-02-20T08:37:19Z</time>
      </trkpt>
      <trkpt lat="45.17883" lon="5.91614">
        <ele>1535</ele>
        <time>2021-02-20T08:37:20Z</time>
      </trkpt>
      <trkpt lat="45.17882" lon="5.91615">
        <ele>1535.3</ele>
        <time>2021-02-20T08:37:21Z</time>
      </trkpt>
      <trkpt lat="45.1788" lon="5.91616">
        <ele>1535.7</ele>
        <time>2021-02-20T08:37:22Z</time>
      </trkpt>
      <trkpt lat="45.1788" lon="5.91617">
        <ele>1535.9</ele>
        <time>2021-02-20T08:37:23Z</time>
      </trkpt>
      <trkpt lat="45.17879" lon="5.91617">
        <ele>1536.1</ele>
        <time>2021-02-20T08:37:24Z</time>
      </trkpt>
      <trkpt lat="45.17879" lon="5.91617">
        <ele>1536.1</ele>
        <time>2021-02-20T08:37:25Z</time>
      </trkpt>
      <trkpt lat="45.17878" lon="5.91618">
        <ele>1536.3</ele>
        <time>2021-02-20T08:37:26Z</time>
      </trkpt>
      <trkpt lat="45.17878" lon="5.91618">
        <ele>1536.4</ele>
        <time>2021-02-20T08:37:27Z</time>
      </trkpt>
      <trkpt lat="45.17877" lon="5.91619">
        <ele>1536.6</ele>
        <time>2021-02-20T08:37:28Z</time>
      </trkpt>
      <trkpt lat="45.17876" lon="5.9162">
        <ele>1536.9</ele>
        <time>2021-02-20T08:37:29Z</time>
      </trkpt>
      <trkpt lat="45.17875" lon="5.9162">
        <ele>1537.1</ele>
        <time>2021-02-20T08:37:30Z</time>
      </trkpt>
      <trkpt lat="45.17874" lon="5.91621">
        <ele>1537.3</ele>
        <time>2021-02-20T08:37:31Z</time>
      </trkpt>
      <trkpt lat="45.17874" lon="5.91621">
        <ele>1537.5</ele>
        <time>2021-02-20T08:37:32Z</time>
      </trkpt>
      <trkpt lat="45.17873" lon="5.91621">
        <ele>1537.6</ele>
        <time>2021-02-20T08:37:33Z</time>
      </trkpt>
      <trkpt lat="45.17873" lon="5.9162">
        <ele>1537.7</ele>
        <time>2021-02-20T08:37:34Z</time>
      </trkpt>
      <trkpt lat="45.17872" lon="5.9162">
        <ele>1537.8</ele>
        <time>2021-02-20T08:37:35Z</time>
      </trkpt>
      <trkpt lat="45.17872" lon="5.91621">
        <ele>1538</ele>
        <time>2021-02-20T08:37:36Z</time>
      </trkpt>
      <trkpt lat="45.17871" lon="5.91622">
        <ele>1538.2</ele>
        <time>2021-02-20T08:37:37Z</time>
      </trkpt>
      <trkpt lat="45.1787" lon="5.91623">
        <ele>1538.4</ele>
        <time>2021-02-20T08:37:38Z</time>
      </trkpt>
      <trkpt lat="45.1787" lon="5.91624">
        <ele>1538.6</ele>
        <time>2021-02-20T08:37:39Z</time>
      </trkpt>
      <trkpt lat="45.1787" lon="5.91624">
        <ele>1538.7</ele>
        <time>2021-02-20T08:37:40Z</time>
      </trkpt>
      <trkpt lat="45.17869" lon="5.91625">
        <ele>1538.9</ele>
        <time>2021-02-20T08:37:41Z</time>
      </trkpt>
      <trkpt lat="45.17868" lon="5.91626">
        <ele>1539.2</ele>
        <time>2021-02-20T08:37:42Z</time>
      </trkpt>
      <trkpt lat="45.17867" lon="5.91627">
        <ele>1539.4</ele>
        <time>2021-02-20T08:37:43Z</time>
      </trkpt>
      <trkpt lat="45.17867" lon="5.91628">
        <ele>1539.6</ele>
        <time>2021-02-20T08:37:44Z</time>
      </trkpt>
      <trkpt lat="45.17866" lon="5.91628">
        <ele>1539.7</ele>
        <time>2021-02-20T08:37:45Z</time>
      </trkpt>
      <trkpt lat="45.17866" lon="5.91628">
        <ele>1539.8</ele>
        <time>2021-02-20T08:37:46Z</time>
      </trkpt>
      <trkpt lat="45.17865" lon="5.91629">
        <ele>1539.9</ele>
        <time>2021-02-20T08:37:47Z</time>
      </trkpt>
      <trkpt lat="45.17865" lon="5.91629">
        <ele>1540</ele>
        <time>2021-02-20T08:37:48Z</time>
      </trkpt>
      <trkpt lat="45.17864" lon="5.91629">
        <ele>1540.1</ele>
        <time>2021-02-20T08:37:49Z</time>
      </trkpt>
      <trkpt lat="45.17864" lon="5.9163">
        <ele>1540.3</ele>
        <time>2021-02-20T08:37:50Z</time>
      </trkpt>
      <trkpt lat="45.17863" lon="5.91631">
        <ele>1540.5</ele>
        <time>2021-02-20T08:37:51Z</time>
      </trkpt>
      <trkpt lat="45.17862" lon="5.91632">
        <ele>1540.7</ele>
        <time>2021-02-20T08:37:52Z</time>
      </trkpt>
      <trkpt lat="45.17862" lon="5.91633">
        <ele>1541</ele>
        <time>2021-02-20T08:37:53Z</time>
      </trkpt>
      <trkpt lat="45.17861" lon="5.91634">
        <ele>1541.2</ele>
        <time>2021-02-20T08:37:54Z</time>
      </trkpt>
      <trkpt lat="45.17861" lon="5.91635">
        <ele>1541.3</ele>
        <time>2021-02-20T08:37:55Z</time>
      </trkpt>
      <trkpt lat="45.17861" lon="5.91635">
        <ele>1541.4</ele>
        <time>2021-02-20T08:37:56Z</time>
      </trkpt>
      <trkpt lat="45.1786" lon="5.91636">
        <ele>1541.6</ele>
        <time>2021-02-20T08:37:57Z</time>
      </trkpt>
      <trkpt lat="45.17859" lon="5.91637">
        <ele>1541.9</ele>
        <time>2021-02-20T08:37:58Z</time>
      </trkpt>
      <trkpt lat="45.17858" lon="5.91638">
        <ele>1542.2</ele>
        <time>2021-02-20T08:37:59Z</time>
      </trkpt>
      <trkpt lat="45.17857" lon="5.91638">
        <ele>1542.3</ele>
        <time>2021-02-20T08:38:00Z</time>
      </trkpt>
      <trkpt lat="45.17857" lon="5.91639">
        <ele>1542.5</ele>
        <time>2021-02-20T08:38:01Z</time>
      </trkpt>
      <trkpt lat="45.17856" lon="5.9164">
        <ele>1542.7</ele>
        <time>2021-02-20T08:38:02Z</time>
      </trkpt>
      <trkpt lat="45.17856" lon="5.9164">
        <ele>1542.9</ele>
        <time>2021-02-20T08:38:03Z</time>
      </trkpt>
      <trkpt lat="45.17855" lon="5.91641">
        <ele>1543.1</ele>
        <time>2021-02-20T08:38:04Z</time>
      </trkpt>
      <trkpt lat="45.17854" lon="5.91642">
        <ele>1543.3</ele>
        <time>2021-02-20T08:38:05Z</time>
      </trkpt>
      <trkpt lat="45.17854" lon="5.91643">
        <ele>1543.5</ele>
        <time>2021-02-20T08:38:06Z</time>
      </trkpt>
      <trkpt lat="45.17853" lon="5.91643">
        <ele>1543.7</ele>
        <time>2021-02-20T08:38:07Z</time>
      </trkpt>
      <trkpt lat="45.17852" lon="5.91644">
        <ele>1543.8</ele>
        <time>2021-02-20T08:38:08Z</time>
      </trkpt>
      <trkpt lat="45.17851" lon="5.91645">
        <ele>1544.2</ele>
        <time>2021-02-20T08:38:09Z</time>
      </trkpt>
      <trkpt lat="45.1785" lon="5.91646">
        <ele>1544.5</ele>
        <time>2021-02-20T08:38:10Z</time>
      </trkpt>
      <trkpt lat="45.17849" lon="5.91646">
        <ele>1544.8</ele>
        <time>2021-02-20T08:38:11Z</time>
      </trkpt>
      <trkpt lat="45.17848" lon="5.91647">
        <ele>1545</ele>
        <time>2021-02-20T08:38:12Z</time>
      </trkpt>
      <trkpt lat="45.17847" lon="5.91647">
        <ele>1545.2</ele>
        <time>2021-02-20T08:38:13Z</time>
      </trkpt>
      <trkpt lat="45.17846" lon="5.91647">
        <ele>1545.4</ele>
        <time>2021-02-20T08:38:14Z</time>
      </trkpt>
      <trkpt lat="45.17846" lon="5.91648">
        <ele>1545.5</ele>
        <time>2021-02-20T08:38:15Z</time>
      </trkpt>
      <trkpt lat="45.17845" lon="5.91648">
        <ele>1545.8</ele>
        <time>2021-02-20T08:38:16Z</time>
      </trkpt>
      <trkpt lat="45.17844" lon="5.91648">
        <ele>1545.9</ele>
        <time>2021-02-20T08:38:17Z</time>
      </trkpt>
      <trkpt lat="45.17844" lon="5.91648">
        <ele>1546.1</ele>
        <time>2021-02-20T08:38:18Z</time>
      </trkpt>
      <trkpt lat="45.17843" lon="5.91649">
        <ele>1546.3</ele>
        <time>2021-02-20T08:38:19Z</time>
      </trkpt>
      <trkpt lat="45.17842" lon="5.9165">
        <ele>1546.5</ele>
        <time>2021-02-20T08:38:20Z</time>
      </trkpt>
      <trkpt lat="45.17841" lon="5.9165">
        <ele>1546.8</ele>
        <time>2021-02-20T08:38:21Z</time>
      </trkpt>
      <trkpt lat="45.1784" lon="5.91651">
        <ele>1546.9</ele>
        <time>2021-02-20T08:38:22Z</time>
      </trkpt>
      <trkpt lat="45.17839" lon="5.91651">
        <ele>1547.2</ele>
        <time>2021-02-20T08:38:23Z</time>
      </trkpt>
      <trkpt lat="45.17838" lon="5.91652">
        <ele>1547.3</ele>
        <time>2021-02-20T08:38:24Z</time>
      </trkpt>
      <trkpt lat="45.17838" lon="5.91652">
        <ele>1547.6</ele>
        <time>2021-02-20T08:38:25Z</time>
      </trkpt>
      <trkpt lat="45.17836" lon="5.91653">
        <ele>1547.9</ele>
        <time>2021-02-20T08:38:26Z</time>
      </trkpt>
      <trkpt lat="45.17835" lon="5.91653">
        <ele>1548.1</ele>
        <time>2021-02-20T08:38:27Z</time>
      </trkpt>
      <trkpt lat="45.17834" lon="5.91654">
        <ele>1548.4</ele>
        <time>2021-02-20T08:38:28Z</time>
      </trkpt>
      <trkpt lat="45.17833" lon="5.91655">
        <ele>1548.6</ele>
        <time>2021-02-20T08:38:29Z</time>
      </trkpt>
      <trkpt lat="45.17833" lon="5.91655">
        <ele>1548.7</ele>
        <time>2021-02-20T08:38:30Z</time>
      </trkpt>
      <trkpt lat="45.17832" lon="5.91656">
        <ele>1549</ele>
        <time>2021-02-20T08:38:31Z</time>
      </trkpt>
      <trkpt lat="45.17831" lon="5.91656">
        <ele>1549.2</ele>
        <time>2021-02-20T08:38:32Z</time>
      </trkpt>
      <trkpt lat="45.17831" lon="5.91657">
        <ele>1549.3</ele>
        <time>2021-02-20T08:38:33Z</time>
      </trkpt>
      <trkpt lat="45.1783" lon="5.91657">
        <ele>1549.5</ele>
        <time>2021-02-20T08:38:34Z</time>
      </trkpt>
      <trkpt lat="45.1783" lon="5.91658">
        <ele>1549.6</ele>
        <time>2021-02-20T08:38:35Z</time>
      </trkpt>
      <trkpt lat="45.17829" lon="5.91659">
        <ele>1549.8</ele>
        <time>2021-02-20T08:38:36Z</time>
      </trkpt>
      <trkpt lat="45.17827" lon="5.9166">
        <ele>1550.2</ele>
        <time>2021-02-20T08:38:37Z</time>
      </trkpt>
      <trkpt lat="45.17826" lon="5.9166">
        <ele>1550.3</ele>
        <time>2021-02-20T08:38:38Z</time>
      </trkpt>
      <trkpt lat="45.17826" lon="5.9166">
        <ele>1550.5</ele>
        <time>2021-02-20T08:38:39Z</time>
      </trkpt>
      <trkpt lat="45.17825" lon="5.9166">
        <ele>1550.6</ele>
        <time>2021-02-20T08:38:40Z</time>
      </trkpt>
      <trkpt lat="45.17824" lon="5.9166">
        <ele>1550.9</ele>
        <time>2021-02-20T08:38:41Z</time>
      </trkpt>
      <trkpt lat="45.17823" lon="5.91661">
        <ele>1551.1</ele>
        <time>2021-02-20T08:38:42Z</time>
      </trkpt>
      <trkpt lat="45.17822" lon="5.91661">
        <ele>1551.4</ele>
        <time>2021-02-20T08:38:43Z</time>
      </trkpt>
      <trkpt lat="45.1782" lon="5.91661">
        <ele>1551.8</ele>
        <time>2021-02-20T08:38:44Z</time>
      </trkpt>
      <trkpt lat="45.17819" lon="5.91662">
        <ele>1552</ele>
        <time>2021-02-20T08:38:45Z</time>
      </trkpt>
      <trkpt lat="45.17818" lon="5.91662">
        <ele>1552.2</ele>
        <time>2021-02-20T08:38:46Z</time>
      </trkpt>
      <trkpt lat="45.17817" lon="5.91663">
        <ele>1552.5</ele>
        <time>2021-02-20T08:38:47Z</time>
      </trkpt>
      <trkpt lat="45.17816" lon="5.91663">
        <ele>1552.7</ele>
        <time>2021-02-20T08:38:48Z</time>
      </trkpt>
      <trkpt lat="45.17815" lon="5.91664">
        <ele>1552.9</ele>
        <time>2021-02-20T08:38:49Z</time>
      </trkpt>
      <trkpt lat="45.17813" lon="5.91665">
        <ele>1553.3</ele>
        <time>2021-02-20T08:38:50Z</time>
      </trkpt>
      <trkpt lat="45.17813" lon="5.91666">
        <ele>1553.5</ele>
        <time>2021-02-20T08:38:51Z</time>
      </trkpt>
      <trkpt lat="45.17812" lon="5.91666">
        <ele>1553.6</ele>
        <time>2021-02-20T08:38:52Z</time>
      </trkpt>
      <trkpt lat="45.17811" lon="5.91667">
        <ele>1553.8</ele>
        <time>2021-02-20T08:38:53Z</time>
      </trkpt>
      <trkpt lat="45.1781" lon="5.91668">
        <ele>1554.1</ele>
        <time>2021-02-20T08:38:54Z</time>
      </trkpt>
      <trkpt lat="45.1781" lon="5.91668">
        <ele>1554.2</ele>
        <time>2021-02-20T08:38:55Z</time>
      </trkpt>
      <trkpt lat="45.17809" lon="5.91669">
        <ele>1554.4</ele>
        <time>2021-02-20T08:38:56Z</time>
      </trkpt>
      <trkpt lat="45.17808" lon="5.9167">
        <ele>1554.6</ele>
        <time>2021-02-20T08:38:57Z</time>
      </trkpt>
      <trkpt lat="45.17807" lon="5.9167">
        <ele>1554.8</ele>
        <time>2021-02-20T08:38:58Z</time>
      </trkpt>
      <trkpt lat="45.17806" lon="5.91669">
        <ele>1555.1</ele>
        <time>2021-02-20T08:38:59Z</time>
      </trkpt>
      <trkpt lat="45.17805" lon="5.91669">
        <ele>1555.2</ele>
        <time>2021-02-20T08:39:00Z</time>
      </trkpt>
      <trkpt lat="45.17805" lon="5.91668">
        <ele>1555.3</ele>
        <time>2021-02-20T08:39:01Z</time>
      </trkpt>
      <trkpt lat="45.17804" lon="5.91668">
        <ele>1555.5</ele>
        <time>2021-02-20T08:39:02Z</time>
      </trkpt>
      <trkpt lat="45.17803" lon="5.91668">
        <ele>1555.7</ele>
        <time>2021-02-20T08:39:03Z</time>
      </trkpt>
      <trkpt lat="45.17802" lon="5.91668">
        <ele>1555.9</ele>
        <time>2021-02-20T08:39:04Z</time>
      </trkpt>
      <trkpt lat="45.17801" lon="5.91669">
        <ele>1556.1</ele>
        <time>2021-02-20T08:39:05Z</time>
      </trkpt>
      <trkpt lat="45.178" lon="5.91669">
        <ele>1556.3</ele>
        <time>2021-02-20T08:39:06Z</time>
      </trkpt>
      <trkpt lat="45.178" lon="5.9167">
        <ele>1556.5</ele>
        <time>2021-02-20T08:39:07Z</time>
      </trkpt>
      <trkpt lat="45.17799" lon="5.9167">
        <ele>1556.6</ele>
        <time>2021-02-20T08:39:08Z</time>
      </trkpt>
      <trkpt lat="45.17799" lon="5.91671">
        <ele>1557</ele>
        <time>2021-02-20T08:39:09Z</time>
      </trkpt>
      <trkpt lat="45.17798" lon="5.91672">
        <ele>1557.2</ele>
        <time>2021-02-20T08:39:10Z</time>
      </trkpt>
      <trkpt lat="45.17798" lon="5.91673">
        <ele>1557.4</ele>
        <time>2021-02-20T08:39:11Z</time>
      </trkpt>
      <trkpt lat="45.17798" lon="5.91674">
        <ele>1557.5</ele>
        <time>2021-02-20T08:39:12Z</time>
      </trkpt>
      <trkpt lat="45.17798" lon="5.91675">
        <ele>1557.7</ele>
        <time>2021-02-20T08:39:13Z</time>
      </trkpt>
      <trkpt lat="45.17799" lon="5.91676">
        <ele>1558</ele>
        <time>2021-02-20T08:39:14Z</time>
      </trkpt>
      <trkpt lat="45.17799" lon="5.91676">
        <ele>1558.2</ele>
        <time>2021-02-20T08:39:15Z</time>
      </trkpt>
      <trkpt lat="45.17799" lon="5.91676">
        <ele>1558.2</ele>
        <time>2021-02-20T08:39:16Z</time>
      </trkpt>
      <trkpt lat="45.178" lon="5.91677">
        <ele>1558.4</ele>
        <time>2021-02-20T08:39:17Z</time>
      </trkpt>
      <trkpt lat="45.17801" lon="5.91677">
        <ele>1558.6</ele>
        <time>2021-02-20T08:39:18Z</time>
      </trkpt>
      <trkpt lat="45.17802" lon="5.91677">
        <ele>1558.8</ele>
        <time>2021-02-20T08:39:19Z</time>
      </trkpt>
      <trkpt lat="45.17802" lon="5.91677">
        <ele>1559</ele>
        <time>2021-02-20T08:39:20Z</time>
      </trkpt>
      <trkpt lat="45.17803" lon="5.91677">
        <ele>1559.1</ele>
        <time>2021-02-20T08:39:21Z</time>
      </trkpt>
      <trkpt lat="45.17804" lon="5.91678">
        <ele>1559.3</ele>
        <time>2021-02-20T08:39:22Z</time>
      </trkpt>
      <trkpt lat="45.17804" lon="5.91679">
        <ele>1559.5</ele>
        <time>2021-02-20T08:39:23Z</time>
      </trkpt>
      <trkpt lat="45.17805" lon="5.9168">
        <ele>1559.9</ele>
        <time>2021-02-20T08:39:24Z</time>
      </trkpt>
      <trkpt lat="45.17806" lon="5.9168">
        <ele>1560.1</ele>
        <time>2021-02-20T08:39:25Z</time>
      </trkpt>
      <trkpt lat="45.17807" lon="5.9168">
        <ele>1560.2</ele>
        <time>2021-02-20T08:39:26Z</time>
      </trkpt>
      <trkpt lat="45.17808" lon="5.91681">
        <ele>1560.4</ele>
        <time>2021-02-20T08:39:27Z</time>
      </trkpt>
      <trkpt lat="45.17809" lon="5.91682">
        <ele>1560.8</ele>
        <time>2021-02-20T08:39:28Z</time>
      </trkpt>
      <trkpt lat="45.1781" lon="5.91682">
        <ele>1561</ele>
        <time>2021-02-20T08:39:29Z</time>
      </trkpt>
      <trkpt lat="45.17811" lon="5.91683">
        <ele>1561.2</ele>
        <time>2021-02-20T08:39:30Z</time>
      </trkpt>
      <trkpt lat="45.17811" lon="5.91683">
        <ele>1561.4</ele>
        <time>2021-02-20T08:39:31Z</time>
      </trkpt>
      <trkpt lat="45.17812" lon="5.91683">
        <ele>1561.6</ele>
        <time>2021-02-20T08:39:32Z</time>
      </trkpt>
      <trkpt lat="45.17813" lon="5.91684">
        <ele>1561.8</ele>
        <time>2021-02-20T08:39:33Z</time>
      </trkpt>
      <trkpt lat="45.17814" lon="5.91684">
        <ele>1561.9</ele>
        <time>2021-02-20T08:39:34Z</time>
      </trkpt>
      <trkpt lat="45.17814" lon="5.91684">
        <ele>1562.1</ele>
        <time>2021-02-20T08:39:35Z</time>
      </trkpt>
      <trkpt lat="45.17815" lon="5.91684">
        <ele>1562.3</ele>
        <time>2021-02-20T08:39:36Z</time>
      </trkpt>
      <trkpt lat="45.17816" lon="5.91685">
        <ele>1562.4</ele>
        <time>2021-02-20T08:39:37Z</time>
      </trkpt>
      <trkpt lat="45.17816" lon="5.91685">
        <ele>1562.5</ele>
        <time>2021-02-20T08:39:38Z</time>
      </trkpt>
      <trkpt lat="45.17817" lon="5.91685">
        <ele>1562.6</ele>
        <time>2021-02-20T08:39:39Z</time>
      </trkpt>
      <trkpt lat="45.17817" lon="5.91686">
        <ele>1562.8</ele>
        <time>2021-02-20T08:39:40Z</time>
      </trkpt>
      <trkpt lat="45.17818" lon="5.91685">
        <ele>1562.9</ele>
        <time>2021-02-20T08:39:41Z</time>
      </trkpt>
      <trkpt lat="45.17818" lon="5.91685">
        <ele>1563</ele>
        <time>2021-02-20T08:39:42Z</time>
      </trkpt>
      <trkpt lat="45.17819" lon="5.91685">
        <ele>1563.1</ele>
        <time>2021-02-20T08:39:43Z</time>
      </trkpt>
      <trkpt lat="45.17819" lon="5.91685">
        <ele>1563.1</ele>
        <time>2021-02-20T08:39:44Z</time>
      </trkpt>
      <trkpt lat="45.17819" lon="5.91685">
        <ele>1563.3</ele>
        <time>2021-02-20T08:39:45Z</time>
      </trkpt>
      <trkpt lat="45.1782" lon="5.91685">
        <ele>1563.4</ele>
        <time>2021-02-20T08:39:46Z</time>
      </trkpt>
      <trkpt lat="45.17822" lon="5.91685">
        <ele>1563.9</ele>
        <time>2021-02-20T08:39:47Z</time>
      </trkpt>
      <trkpt lat="45.17823" lon="5.91686">
        <ele>1564</ele>
        <time>2021-02-20T08:39:48Z</time>
      </trkpt>
      <trkpt lat="45.17824" lon="5.91686">
        <ele>1564.2</ele>
        <time>2021-02-20T08:39:49Z</time>
      </trkpt>
      <trkpt lat="45.17825" lon="5.91686">
        <ele>1564.4</ele>
        <time>2021-02-20T08:39:50Z</time>
      </trkpt>
      <trkpt lat="45.17825" lon="5.91685">
        <ele>1564.5</ele>
        <time>2021-02-20T08:39:51Z</time>
      </trkpt>
      <trkpt lat="45.17825" lon="5.91684">
        <ele>1564.6</ele>
        <time>2021-02-20T08:39:52Z</time>
      </trkpt>
      <trkpt lat="45.17825" lon="5.91684">
        <ele>1564.7</ele>
        <time>2021-02-20T08:39:53Z</time>
      </trkpt>
      <trkpt lat="45.17826" lon="5.91684">
        <ele>1564.8</ele>
        <time>2021-02-20T08:39:54Z</time>
      </trkpt>
      <trkpt lat="45.17826" lon="5.91684">
        <ele>1564.9</ele>
        <time>2021-02-20T08:39:55Z</time>
      </trkpt>
      <trkpt lat="45.17827" lon="5.91683">
        <ele>1565.1</ele>
        <time>2021-02-20T08:39:56Z</time>
      </trkpt>
      <trkpt lat="45.17828" lon="5.91683">
        <ele>1565.3</ele>
        <time>2021-02-20T08:39:57Z</time>
      </trkpt>
      <trkpt lat="45.17829" lon="5.91683">
        <ele>1565.5</ele>
        <time>2021-02-20T08:39:58Z</time>
      </trkpt>
      <trkpt lat="45.17831" lon="5.91684">
        <ele>1565.7</ele>
        <time>2021-02-20T08:39:59Z</time>
      </trkpt>
      <trkpt lat="45.17832" lon="5.91685">
        <ele>1566</ele>
        <time>2021-02-20T08:40:00Z</time>
      </trkpt>
      <trkpt lat="45.17832" lon="5.91686">
        <ele>1566.1</ele>
        <time>2021-02-20T08:40:01Z</time>
      </trkpt>
      <trkpt lat="45.17833" lon="5.91687">
        <ele>1566.3</ele>
        <time>2021-02-20T08:40:02Z</time>
      </trkpt>
      <trkpt lat="45.17833" lon="5.91687">
        <ele>1566.4</ele>
        <time>2021-02-20T08:40:03Z</time>
      </trkpt>
      <trkpt lat="45.17834" lon="5.91688">
        <ele>1566.5</ele>
        <time>2021-02-20T08:40:04Z</time>
      </trkpt>
      <trkpt lat="45.17834" lon="5.91688">
        <ele>1566.6</ele>
        <time>2021-02-20T08:40:05Z</time>
      </trkpt>
      <trkpt lat="45.17835" lon="5.91688">
        <ele>1566.7</ele>
        <time>2021-02-20T08:40:06Z</time>
      </trkpt>
      <trkpt lat="45.17836" lon="5.91688">
        <ele>1566.8</ele>
        <time>2021-02-20T08:40:07Z</time>
      </trkpt>
      <trkpt lat="45.17836" lon="5.91689">
        <ele>1566.9</ele>
        <time>2021-02-20T08:40:08Z</time>
      </trkpt>
      <trkpt lat="45.17836" lon="5.91689">
        <ele>1566.9</ele>
        <time>2021-02-20T08:40:09Z</time>
      </trkpt>
      <trkpt lat="45.17836" lon="5.91689">
        <ele>1567</ele>
        <time>2021-02-20T08:40:10Z</time>
      </trkpt>
      <trkpt lat="45.17837" lon="5.9169">
        <ele>1567.1</ele>
        <time>2021-02-20T08:40:11Z</time>
      </trkpt>
      <trkpt lat="45.17838" lon="5.91691">
        <ele>1567.3</ele>
        <time>2021-02-20T08:40:12Z</time>
      </trkpt>
      <trkpt lat="45.17838" lon="5.91691">
        <ele>1567.3</ele>
        <time>2021-02-20T08:40:13Z</time>
      </trkpt>
      <trkpt lat="45.17838" lon="5.91691">
        <ele>1567.4</ele>
        <time>2021-02-20T08:40:14Z</time>
      </trkpt>
      <trkpt lat="45.17839" lon="5.91691">
        <ele>1567.4</ele>
        <time>2021-02-20T08:40:15Z</time>
      </trkpt>
      <trkpt lat="45.17839" lon="5.91691">
        <ele>1567.4</ele>
        <time>2021-02-20T08:40:16Z</time>
      </trkpt>
      <trkpt lat="45.17839" lon="5.91691">
        <ele>1567.5</ele>
        <time>2021-02-20T08:40:17Z</time>
      </trkpt>
      <trkpt lat="45.17839" lon="5.91692">
        <ele>1567.6</ele>
        <time>2021-02-20T08:40:18Z</time>
      </trkpt>
      <trkpt lat="45.1784" lon="5.91692">
        <ele>1567.7</ele>
        <time>2021-02-20T08:40:19Z</time>
      </trkpt>
      <trkpt lat="45.1784" lon="5.91692">
        <ele>1567.7</ele>
        <time>2021-02-20T08:40:20Z</time>
      </trkpt>
      <trkpt lat="45.1784" lon="5.91693">
        <ele>1567.8</ele>
        <time>2021-02-20T08:40:21Z</time>
      </trkpt>
      <trkpt lat="45.17839" lon="5.91693">
        <ele>1567.8</ele>
        <time>2021-02-20T08:40:22Z</time>
      </trkpt>
      <trkpt lat="45.1784" lon="5.91693">
        <ele>1567.8</ele>
        <time>2021-02-20T08:40:23Z</time>
      </trkpt>
      <trkpt lat="45.1784" lon="5.91693">
        <ele>1567.9</ele>
        <time>2021-02-20T08:40:24Z</time>
      </trkpt>
      <trkpt lat="45.1784" lon="5.91693">
        <ele>1567.9</ele>
        <time>2021-02-20T08:40:25Z</time>
      </trkpt>
      <trkpt lat="45.1784" lon="5.91694">
        <ele>1568</ele>
        <time>2021-02-20T08:40:26Z</time>
      </trkpt>
      <trkpt lat="45.1784" lon="5.91695">
        <ele>1568</ele>
        <time>2021-02-20T08:40:27Z</time>
      </trkpt>
      <trkpt lat="45.17839" lon="5.91696">
        <ele>1568.2</ele>
        <time>2021-02-20T08:40:28Z</time>
      </trkpt>
      <trkpt lat="45.17839" lon="5.91697">
        <ele>1568.3</ele>
        <time>2021-02-20T08:40:29Z</time>
      </trkpt>
      <trkpt lat="45.17839" lon="5.91698">
        <ele>1568.4</ele>
        <time>2021-02-20T08:40:30Z</time>
      </trkpt>
      <trkpt lat="45.17839" lon="5.91698">
        <ele>1568.5</ele>
        <time>2021-02-20T08:40:31Z</time>
      </trkpt>
      <trkpt lat="45.17839" lon="5.91699">
        <ele>1568.6</ele>
        <time>2021-02-20T08:40:32Z</time>
      </trkpt>
      <trkpt lat="45.17839" lon="5.91698">
        <ele>1568.7</ele>
        <time>2021-02-20T08:40:33Z</time>
      </trkpt>
      <trkpt lat="45.1784" lon="5.91697">
        <ele>1568.8</ele>
        <time>2021-02-20T08:40:34Z</time>
      </trkpt>
      <trkpt lat="45.1784" lon="5.91697">
        <ele>1568.8</ele>
        <time>2021-02-20T08:40:35Z</time>
      </trkpt>
      <trkpt lat="45.1784" lon="5.91698">
        <ele>1568.9</ele>
        <time>2021-02-20T08:40:36Z</time>
      </trkpt>
      <trkpt lat="45.17841" lon="5.91699">
        <ele>1569.1</ele>
        <time>2021-02-20T08:40:37Z</time>
      </trkpt>
      <trkpt lat="45.17842" lon="5.917">
        <ele>1569.4</ele>
        <time>2021-02-20T08:40:38Z</time>
      </trkpt>
      <trkpt lat="45.17843" lon="5.91701">
        <ele>1569.6</ele>
        <time>2021-02-20T08:40:39Z</time>
      </trkpt>
      <trkpt lat="45.17844" lon="5.91701">
        <ele>1569.7</ele>
        <time>2021-02-20T08:40:40Z</time>
      </trkpt>
      <trkpt lat="45.17845" lon="5.91702">
        <ele>1569.9</ele>
        <time>2021-02-20T08:40:41Z</time>
      </trkpt>
      <trkpt lat="45.17845" lon="5.91703">
        <ele>1570.1</ele>
        <time>2021-02-20T08:40:42Z</time>
      </trkpt>
      <trkpt lat="45.17846" lon="5.91704">
        <ele>1570.2</ele>
        <time>2021-02-20T08:40:43Z</time>
      </trkpt>
      <trkpt lat="45.17846" lon="5.91705">
        <ele>1570.3</ele>
        <time>2021-02-20T08:40:44Z</time>
      </trkpt>
      <trkpt lat="45.17846" lon="5.91705">
        <ele>1570.4</ele>
        <time>2021-02-20T08:40:45Z</time>
      </trkpt>
      <trkpt lat="45.17846" lon="5.91706">
        <ele>1570.6</ele>
        <time>2021-02-20T08:40:46Z</time>
      </trkpt>
      <trkpt lat="45.17846" lon="5.91707">
        <ele>1570.7</ele>
        <time>2021-02-20T08:40:47Z</time>
      </trkpt>
      <trkpt lat="45.17845" lon="5.91708">
        <ele>1570.8</ele>
        <time>2021-02-20T08:40:48Z</time>
      </trkpt>
      <trkpt lat="45.17844" lon="5.91707">
        <ele>1570.9</ele>
        <time>2021-02-20T08:40:49Z</time>
      </trkpt>
      <trkpt lat="45.17844" lon="5.91707">
        <ele>1571.1</ele>
        <time>2021-02-20T08:40:50Z</time>
      </trkpt>
      <trkpt lat="45.17843" lon="5.91707">
        <ele>1571.2</ele>
        <time>2021-02-20T08:40:51Z</time>
      </trkpt>
      <trkpt lat="45.17842" lon="5.91707">
        <ele>1571.4</ele>
        <time>2021-02-20T08:40:52Z</time>
      </trkpt>
      <trkpt lat="45.17841" lon="5.91708">
        <ele>1571.5</ele>
        <time>2021-02-20T08:40:53Z</time>
      </trkpt>
      <trkpt lat="45.17841" lon="5.91708">
        <ele>1571.7</ele>
        <time>2021-02-20T08:40:54Z</time>
      </trkpt>
      <trkpt lat="45.1784" lon="5.91708">
        <ele>1571.8</ele>
        <time>2021-02-20T08:40:55Z</time>
      </trkpt>
      <trkpt lat="45.17839" lon="5.91709">
        <ele>1571.9</ele>
        <time>2021-02-20T08:40:56Z</time>
      </trkpt>
      <trkpt lat="45.17839" lon="5.91709">
        <ele>1572</ele>
        <time>2021-02-20T08:40:57Z</time>
      </trkpt>
      <trkpt lat="45.17838" lon="5.9171">
        <ele>1572.1</ele>
        <time>2021-02-20T08:40:58Z</time>
      </trkpt>
      <trkpt lat="45.17838" lon="5.9171">
        <ele>1572.3</ele>
        <time>2021-02-20T08:40:59Z</time>
      </trkpt>
      <trkpt lat="45.17837" lon="5.9171">
        <ele>1572.4</ele>
        <time>2021-02-20T08:41:00Z</time>
      </trkpt>
      <trkpt lat="45.17836" lon="5.91711">
        <ele>1572.5</ele>
        <time>2021-02-20T08:41:01Z</time>
      </trkpt>
      <trkpt lat="45.17836" lon="5.91711">
        <ele>1572.5</ele>
        <time>2021-02-20T08:41:02Z</time>
      </trkpt>
      <trkpt lat="45.17835" lon="5.91711">
        <ele>1572.7</ele>
        <time>2021-02-20T08:41:03Z</time>
      </trkpt>
      <trkpt lat="45.17834" lon="5.91711">
        <ele>1572.9</ele>
        <time>2021-02-20T08:41:04Z</time>
      </trkpt>
      <trkpt lat="45.17833" lon="5.91711">
        <ele>1573</ele>
        <time>2021-02-20T08:41:05Z</time>
      </trkpt>
      <trkpt lat="45.17832" lon="5.91711">
        <ele>1573.2</ele>
        <time>2021-02-20T08:41:06Z</time>
      </trkpt>
      <trkpt lat="45.17832" lon="5.91712">
        <ele>1573.4</ele>
        <time>2021-02-20T08:41:07Z</time>
      </trkpt>
      <trkpt lat="45.17831" lon="5.91712">
        <ele>1573.5</ele>
        <time>2021-02-20T08:41:08Z</time>
      </trkpt>
      <trkpt lat="45.17831" lon="5.91712">
        <ele>1573.6</ele>
        <time>2021-02-20T08:41:09Z</time>
      </trkpt>
      <trkpt lat="45.1783" lon="5.91712">
        <ele>1573.7</ele>
        <time>2021-02-20T08:41:10Z</time>
      </trkpt>
      <trkpt lat="45.1783" lon="5.91712">
        <ele>1573.7</ele>
        <time>2021-02-20T08:41:11Z</time>
      </trkpt>
      <trkpt lat="45.17829" lon="5.91712">
        <ele>1573.9</ele>
        <time>2021-02-20T08:41:12Z</time>
      </trkpt>
      <trkpt lat="45.17829" lon="5.91712">
        <ele>1574</ele>
        <time>2021-02-20T08:41:13Z</time>
      </trkpt>
      <trkpt lat="45.17828" lon="5.91713">
        <ele>1574.1</ele>
        <time>2021-02-20T08:41:14Z</time>
      </trkpt>
      <trkpt lat="45.17827" lon="5.91713">
        <ele>1574.2</ele>
        <time>2021-02-20T08:41:15Z</time>
      </trkpt>
      <trkpt lat="45.17827" lon="5.91714">
        <ele>1574.3</ele>
        <time>2021-02-20T08:41:16Z</time>
      </trkpt>
      <trkpt lat="45.17827" lon="5.91714">
        <ele>1574.4</ele>
        <time>2021-02-20T08:41:17Z</time>
      </trkpt>
      <trkpt lat="45.17827" lon="5.91714">
        <ele>1574.4</ele>
        <time>2021-02-20T08:41:18Z</time>
      </trkpt>
      <trkpt lat="45.17826" lon="5.91714">
        <ele>1574.5</ele>
        <time>2021-02-20T08:41:19Z</time>
      </trkpt>
      <trkpt lat="45.17825" lon="5.91715">
        <ele>1574.7</ele>
        <time>2021-02-20T08:41:20Z</time>
      </trkpt>
      <trkpt lat="45.17824" lon="5.91714">
        <ele>1574.9</ele>
        <time>2021-02-20T08:41:21Z</time>
      </trkpt>
      <trkpt lat="45.17823" lon="5.91715">
        <ele>1575.1</ele>
        <time>2021-02-20T08:41:22Z</time>
      </trkpt>
      <trkpt lat="45.17822" lon="5.91714">
        <ele>1575.2</ele>
        <time>2021-02-20T08:41:23Z</time>
      </trkpt>
      <trkpt lat="45.17822" lon="5.91714">
        <ele>1575.2</ele>
        <time>2021-02-20T08:41:24Z</time>
      </trkpt>
      <trkpt lat="45.17821" lon="5.91714">
        <ele>1575.4</ele>
        <time>2021-02-20T08:41:25Z</time>
      </trkpt>
      <trkpt lat="45.1782" lon="5.91714">
        <ele>1575.6</ele>
        <time>2021-02-20T08:41:26Z</time>
      </trkpt>
      <trkpt lat="45.1782" lon="5.91715">
        <ele>1575.7</ele>
        <time>2021-02-20T08:41:27Z</time>
      </trkpt>
      <trkpt lat="45.17819" lon="5.91715">
        <ele>1575.8</ele>
        <time>2021-02-20T08:41:28Z</time>
      </trkpt>
      <trkpt lat="45.17819" lon="5.91715">
        <ele>1575.9</ele>
        <time>2021-02-20T08:41:29Z</time>
      </trkpt>
      <trkpt lat="45.17818" lon="5.91716">
        <ele>1576</ele>
        <time>2021-02-20T08:41:30Z</time>
      </trkpt>
      <trkpt lat="45.17818" lon="5.91717">
        <ele>1576.2</ele>
        <time>2021-02-20T08:41:31Z</time>
      </trkpt>
      <trkpt lat="45.17818" lon="5.91717">
        <ele>1576.2</ele>
        <time>2021-02-20T08:41:32Z</time>
      </trkpt>
      <trkpt lat="45.17817" lon="5.91718">
        <ele>1576.5</ele>
        <time>2021-02-20T08:41:33Z</time>
      </trkpt>
      <trkpt lat="45.17816" lon="5.91719">
        <ele>1576.6</ele>
        <time>2021-02-20T08:41:34Z</time>
      </trkpt>
      <trkpt lat="45.17816" lon="5.91719">
        <ele>1576.7</ele>
        <time>2021-02-20T08:41:35Z</time>
      </trkpt>
      <trkpt lat="45.17815" lon="5.9172">
        <ele>1576.8</ele>
        <time>2021-02-20T08:41:36Z</time>
      </trkpt>
      <trkpt lat="45.17815" lon="5.9172">
        <ele>1576.9</ele>
        <time>2021-02-20T08:41:37Z</time>
      </trkpt>
      <trkpt lat="45.17815" lon="5.9172">
        <ele>1577</ele>
        <time>2021-02-20T08:41:38Z</time>
      </trkpt>
      <trkpt lat="45.17814" lon="5.9172">
        <ele>1577.2</ele>
        <time>2021-02-20T08:41:39Z</time>
      </trkpt>
      <trkpt lat="45.17813" lon="5.9172">
        <ele>1577.3</ele>
        <time>2021-02-20T08:41:40Z</time>
      </trkpt>
      <trkpt lat="45.17812" lon="5.9172">
        <ele>1577.5</ele>
        <time>2021-02-20T08:41:41Z</time>
      </trkpt>
      <trkpt lat="45.17812" lon="5.9172">
        <ele>1577.6</ele>
        <time>2021-02-20T08:41:42Z</time>
      </trkpt>
      <trkpt lat="45.17811" lon="5.9172">
        <ele>1577.7</ele>
        <time>2021-02-20T08:41:43Z</time>
      </trkpt>
      <trkpt lat="45.17811" lon="5.9172">
        <ele>1577.8</ele>
        <time>2021-02-20T08:41:44Z</time>
      </trkpt>
      <trkpt lat="45.1781" lon="5.91721">
        <ele>1578</ele>
        <time>2021-02-20T08:41:45Z</time>
      </trkpt>
      <trkpt lat="45.1781" lon="5.91721">
        <ele>1578.1</ele>
        <time>2021-02-20T08:41:46Z</time>
      </trkpt>
      <trkpt lat="45.17809" lon="5.91721">
        <ele>1578.1</ele>
        <time>2021-02-20T08:41:47Z</time>
      </trkpt>
      <trkpt lat="45.17809" lon="5.9172">
        <ele>1578.2</ele>
        <time>2021-02-20T08:41:48Z</time>
      </trkpt>
      <trkpt lat="45.17809" lon="5.9172">
        <ele>1578.3</ele>
        <time>2021-02-20T08:41:49Z</time>
      </trkpt>
      <trkpt lat="45.17808" lon="5.91719">
        <ele>1578.4</ele>
        <time>2021-02-20T08:41:50Z</time>
      </trkpt>
      <trkpt lat="45.17808" lon="5.9172">
        <ele>1578.6</ele>
        <time>2021-02-20T08:41:51Z</time>
      </trkpt>
      <trkpt lat="45.17807" lon="5.9172">
        <ele>1578.7</ele>
        <time>2021-02-20T08:41:52Z</time>
      </trkpt>
      <trkpt lat="45.17807" lon="5.9172">
        <ele>1578.8</ele>
        <time>2021-02-20T08:41:53Z</time>
      </trkpt>
      <trkpt lat="45.17806" lon="5.91721">
        <ele>1578.9</ele>
        <time>2021-02-20T08:41:54Z</time>
      </trkpt>
      <trkpt lat="45.17806" lon="5.91721">
        <ele>1579</ele>
        <time>2021-02-20T08:41:55Z</time>
      </trkpt>
      <trkpt lat="45.17805" lon="5.91721">
        <ele>1579.1</ele>
        <time>2021-02-20T08:41:56Z</time>
      </trkpt>
      <trkpt lat="45.17805" lon="5.91722">
        <ele>1579.3</ele>
        <time>2021-02-20T08:41:57Z</time>
      </trkpt>
      <trkpt lat="45.17805" lon="5.91722">
        <ele>1579.3</ele>
        <time>2021-02-20T08:41:58Z</time>
      </trkpt>
      <trkpt lat="45.17804" lon="5.91722">
        <ele>1579.4</ele>
        <time>2021-02-20T08:41:59Z</time>
      </trkpt>
      <trkpt lat="45.17803" lon="5.91723">
        <ele>1579.6</ele>
        <time>2021-02-20T08:42:00Z</time>
      </trkpt>
      <trkpt lat="45.17803" lon="5.91723">
        <ele>1579.7</ele>
        <time>2021-02-20T08:42:01Z</time>
      </trkpt>
      <trkpt lat="45.17802" lon="5.91723">
        <ele>1579.8</ele>
        <time>2021-02-20T08:42:02Z</time>
      </trkpt>
      <trkpt lat="45.17802" lon="5.91723">
        <ele>1579.9</ele>
        <time>2021-02-20T08:42:03Z</time>
      </trkpt>
      <trkpt lat="45.17801" lon="5.91724">
        <ele>1580.1</ele>
        <time>2021-02-20T08:42:04Z</time>
      </trkpt>
      <trkpt lat="45.17801" lon="5.91725">
        <ele>1580.2</ele>
        <time>2021-02-20T08:42:05Z</time>
      </trkpt>
      <trkpt lat="45.17801" lon="5.91725">
        <ele>1580.4</ele>
        <time>2021-02-20T08:42:06Z</time>
      </trkpt>
      <trkpt lat="45.178" lon="5.91726">
        <ele>1580.6</ele>
        <time>2021-02-20T08:42:07Z</time>
      </trkpt>
      <trkpt lat="45.17799" lon="5.91726">
        <ele>1580.8</ele>
        <time>2021-02-20T08:42:08Z</time>
      </trkpt>
      <trkpt lat="45.17798" lon="5.91727">
        <ele>1581</ele>
        <time>2021-02-20T08:42:09Z</time>
      </trkpt>
      <trkpt lat="45.17797" lon="5.91727">
        <ele>1581.2</ele>
        <time>2021-02-20T08:42:10Z</time>
      </trkpt>
      <trkpt lat="45.17796" lon="5.91727">
        <ele>1581.4</ele>
        <time>2021-02-20T08:42:11Z</time>
      </trkpt>
      <trkpt lat="45.17795" lon="5.91728">
        <ele>1581.6</ele>
        <time>2021-02-20T08:42:12Z</time>
      </trkpt>
      <trkpt lat="45.17795" lon="5.91728">
        <ele>1581.7</ele>
        <time>2021-02-20T08:42:13Z</time>
      </trkpt>
      <trkpt lat="45.17794" lon="5.91728">
        <ele>1581.8</ele>
        <time>2021-02-20T08:42:14Z</time>
      </trkpt>
      <trkpt lat="45.17794" lon="5.91728">
        <ele>1581.9</ele>
        <time>2021-02-20T08:42:15Z</time>
      </trkpt>
      <trkpt lat="45.17793" lon="5.91728">
        <ele>1582</ele>
        <time>2021-02-20T08:42:16Z</time>
      </trkpt>
      <trkpt lat="45.17792" lon="5.91728">
        <ele>1582.2</ele>
        <time>2021-02-20T08:42:17Z</time>
      </trkpt>
      <trkpt lat="45.17791" lon="5.91729">
        <ele>1582.4</ele>
        <time>2021-02-20T08:42:18Z</time>
      </trkpt>
      <trkpt lat="45.1779" lon="5.91729">
        <ele>1582.6</ele>
        <time>2021-02-20T08:42:19Z</time>
      </trkpt>
      <trkpt lat="45.1779" lon="5.91729">
        <ele>1582.8</ele>
        <time>2021-02-20T08:42:20Z</time>
      </trkpt>
      <trkpt lat="45.17789" lon="5.91729">
        <ele>1583</ele>
        <time>2021-02-20T08:42:21Z</time>
      </trkpt>
      <trkpt lat="45.17788" lon="5.91729">
        <ele>1583.2</ele>
        <time>2021-02-20T08:42:22Z</time>
      </trkpt>
      <trkpt lat="45.17787" lon="5.91729">
        <ele>1583.4</ele>
        <time>2021-02-20T08:42:23Z</time>
      </trkpt>
      <trkpt lat="45.17786" lon="5.9173">
        <ele>1583.6</ele>
        <time>2021-02-20T08:42:24Z</time>
      </trkpt>
      <trkpt lat="45.17785" lon="5.9173">
        <ele>1583.7</ele>
        <time>2021-02-20T08:42:25Z</time>
      </trkpt>
      <trkpt lat="45.17785" lon="5.9173">
        <ele>1583.9</ele>
        <time>2021-02-20T08:42:26Z</time>
      </trkpt>
      <trkpt lat="45.17784" lon="5.91731">
        <ele>1584.2</ele>
        <time>2021-02-20T08:42:27Z</time>
      </trkpt>
      <trkpt lat="45.17783" lon="5.91731">
        <ele>1584.3</ele>
        <time>2021-02-20T08:42:28Z</time>
      </trkpt>
      <trkpt lat="45.17782" lon="5.91731">
        <ele>1584.5</ele>
        <time>2021-02-20T08:42:29Z</time>
      </trkpt>
      <trkpt lat="45.17782" lon="5.91731">
        <ele>1584.6</ele>
        <time>2021-02-20T08:42:30Z</time>
      </trkpt>
      <trkpt lat="45.17781" lon="5.91731">
        <ele>1584.7</ele>
        <time>2021-02-20T08:42:31Z</time>
      </trkpt>
      <trkpt lat="45.1778" lon="5.91731">
        <ele>1584.9</ele>
        <time>2021-02-20T08:42:32Z</time>
      </trkpt>
      <trkpt lat="45.1778" lon="5.91731">
        <ele>1585.1</ele>
        <time>2021-02-20T08:42:33Z</time>
      </trkpt>
      <trkpt lat="45.17779" lon="5.91732">
        <ele>1585.3</ele>
        <time>2021-02-20T08:42:34Z</time>
      </trkpt>
      <trkpt lat="45.17779" lon="5.91733">
        <ele>1585.4</ele>
        <time>2021-02-20T08:42:35Z</time>
      </trkpt>
      <trkpt lat="45.17778" lon="5.91733">
        <ele>1585.6</ele>
        <time>2021-02-20T08:42:36Z</time>
      </trkpt>
      <trkpt lat="45.17777" lon="5.91734">
        <ele>1585.7</ele>
        <time>2021-02-20T08:42:37Z</time>
      </trkpt>
      <trkpt lat="45.17776" lon="5.91734">
        <ele>1585.9</ele>
        <time>2021-02-20T08:42:38Z</time>
      </trkpt>
      <trkpt lat="45.17776" lon="5.91735">
        <ele>1586.1</ele>
        <time>2021-02-20T08:42:39Z</time>
      </trkpt>
      <trkpt lat="45.17776" lon="5.91735">
        <ele>1586.1</ele>
        <time>2021-02-20T08:42:40Z</time>
      </trkpt>
      <trkpt lat="45.17775" lon="5.91735">
        <ele>1586.2</ele>
        <time>2021-02-20T08:42:41Z</time>
      </trkpt>
      <trkpt lat="45.17775" lon="5.91735">
        <ele>1586.3</ele>
        <time>2021-02-20T08:42:42Z</time>
      </trkpt>
      <trkpt lat="45.17774" lon="5.91735">
        <ele>1586.4</ele>
        <time>2021-02-20T08:42:43Z</time>
      </trkpt>
      <trkpt lat="45.17774" lon="5.91735">
        <ele>1586.5</ele>
        <time>2021-02-20T08:42:44Z</time>
      </trkpt>
      <trkpt lat="45.17774" lon="5.91735">
        <ele>1586.6</ele>
        <time>2021-02-20T08:42:45Z</time>
      </trkpt>
      <trkpt lat="45.17773" lon="5.91735">
        <ele>1586.8</ele>
        <time>2021-02-20T08:42:46Z</time>
      </trkpt>
      <trkpt lat="45.17773" lon="5.91735">
        <ele>1586.9</ele>
        <time>2021-02-20T08:42:47Z</time>
      </trkpt>
      <trkpt lat="45.17772" lon="5.91735">
        <ele>1586.9</ele>
        <time>2021-02-20T08:42:48Z</time>
      </trkpt>
      <trkpt lat="45.17772" lon="5.91735">
        <ele>1586.9</ele>
        <time>2021-02-20T08:42:49Z</time>
      </trkpt>
      <trkpt lat="45.17772" lon="5.91735">
        <ele>1587</ele>
        <time>2021-02-20T08:42:50Z</time>
      </trkpt>
      <trkpt lat="45.17771" lon="5.91735">
        <ele>1587.2</ele>
        <time>2021-02-20T08:42:51Z</time>
      </trkpt>
      <trkpt lat="45.17771" lon="5.91735">
        <ele>1587.2</ele>
        <time>2021-02-20T08:42:52Z</time>
      </trkpt>
      <trkpt lat="45.17771" lon="5.91736">
        <ele>1587.3</ele>
        <time>2021-02-20T08:42:53Z</time>
      </trkpt>
      <trkpt lat="45.17771" lon="5.91736">
        <ele>1587.3</ele>
        <time>2021-02-20T08:42:54Z</time>
      </trkpt>
      <trkpt lat="45.17771" lon="5.91736">
        <ele>1587.4</ele>
        <time>2021-02-20T08:42:55Z</time>
      </trkpt>
      <trkpt lat="45.17771" lon="5.91736">
        <ele>1587.4</ele>
        <time>2021-02-20T08:42:56Z</time>
      </trkpt>
      <trkpt lat="45.17771" lon="5.91736">
        <ele>1587.5</ele>
        <time>2021-02-20T08:42:57Z</time>
      </trkpt>
      <trkpt lat="45.17771" lon="5.91736">
        <ele>1587.5</ele>
        <time>2021-02-20T08:42:58Z</time>
      </trkpt>
      <trkpt lat="45.17772" lon="5.91735">
        <ele>1587.7</ele>
        <time>2021-02-20T08:42:59Z</time>
      </trkpt>
      <trkpt lat="45.17772" lon="5.91735">
        <ele>1587.7</ele>
        <time>2021-02-20T08:43:00Z</time>
      </trkpt>
      <trkpt lat="45.17772" lon="5.91735">
        <ele>1587.8</ele>
        <time>2021-02-20T08:43:01Z</time>
      </trkpt>
      <trkpt lat="45.17772" lon="5.91735">
        <ele>1587.8</ele>
        <time>2021-02-20T08:43:02Z</time>
      </trkpt>
      <trkpt lat="45.17772" lon="5.91736">
        <ele>1587.9</ele>
        <time>2021-02-20T08:43:03Z</time>
      </trkpt>
      <trkpt lat="45.17772" lon="5.91736">
        <ele>1587.9</ele>
        <time>2021-02-20T08:43:04Z</time>
      </trkpt>
      <trkpt lat="45.17772" lon="5.91735">
        <ele>1588</ele>
        <time>2021-02-20T08:43:05Z</time>
      </trkpt>
      <trkpt lat="45.17771" lon="5.91735">
        <ele>1588.1</ele>
        <time>2021-02-20T08:43:06Z</time>
      </trkpt>
      <trkpt lat="45.17771" lon="5.91734">
        <ele>1588.3</ele>
        <time>2021-02-20T08:43:07Z</time>
      </trkpt>
      <trkpt lat="45.1777" lon="5.91734">
        <ele>1588.5</ele>
        <time>2021-02-20T08:43:08Z</time>
      </trkpt>
      <trkpt lat="45.1777" lon="5.91734">
        <ele>1588.5</ele>
        <time>2021-02-20T08:43:09Z</time>
      </trkpt>
      <trkpt lat="45.17769" lon="5.91734">
        <ele>1588.7</ele>
        <time>2021-02-20T08:43:10Z</time>
      </trkpt>
      <trkpt lat="45.17768" lon="5.91735">
        <ele>1588.9</ele>
        <time>2021-02-20T08:43:11Z</time>
      </trkpt>
      <trkpt lat="45.17767" lon="5.91735">
        <ele>1589.2</ele>
        <time>2021-02-20T08:43:12Z</time>
      </trkpt>
      <trkpt lat="45.17766" lon="5.91736">
        <ele>1589.4</ele>
        <time>2021-02-20T08:43:13Z</time>
      </trkpt>
      <trkpt lat="45.17766" lon="5.91736">
        <ele>1589.5</ele>
        <time>2021-02-20T08:43:14Z</time>
      </trkpt>
      <trkpt lat="45.17765" lon="5.91737">
        <ele>1589.6</ele>
        <time>2021-02-20T08:43:15Z</time>
      </trkpt>
      <trkpt lat="45.17764" lon="5.91737">
        <ele>1589.8</ele>
        <time>2021-02-20T08:43:16Z</time>
      </trkpt>
      <trkpt lat="45.17764" lon="5.91738">
        <ele>1589.9</ele>
        <time>2021-02-20T08:43:17Z</time>
      </trkpt>
      <trkpt lat="45.17763" lon="5.91739">
        <ele>1590.1</ele>
        <time>2021-02-20T08:43:18Z</time>
      </trkpt>
      <trkpt lat="45.17762" lon="5.9174">
        <ele>1590.4</ele>
        <time>2021-02-20T08:43:19Z</time>
      </trkpt>
      <trkpt lat="45.17761" lon="5.91741">
        <ele>1590.6</ele>
        <time>2021-02-20T08:43:20Z</time>
      </trkpt>
      <trkpt lat="45.1776" lon="5.91741">
        <ele>1590.9</ele>
        <time>2021-02-20T08:43:21Z</time>
      </trkpt>
      <trkpt lat="45.17759" lon="5.91741">
        <ele>1591.1</ele>
        <time>2021-02-20T08:43:22Z</time>
      </trkpt>
      <trkpt lat="45.17757" lon="5.91742">
        <ele>1591.6</ele>
        <time>2021-02-20T08:43:23Z</time>
      </trkpt>
      <trkpt lat="45.17756" lon="5.91742">
        <ele>1591.8</ele>
        <time>2021-02-20T08:43:24Z</time>
      </trkpt>
      <trkpt lat="45.17756" lon="5.91742">
        <ele>1592</ele>
        <time>2021-02-20T08:43:25Z</time>
      </trkpt>
      <trkpt lat="45.17754" lon="5.91742">
        <ele>1592.2</ele>
        <time>2021-02-20T08:43:26Z</time>
      </trkpt>
      <trkpt lat="45.17754" lon="5.91742">
        <ele>1592.4</ele>
        <time>2021-02-20T08:43:27Z</time>
      </trkpt>
      <trkpt lat="45.17753" lon="5.91742">
        <ele>1592.6</ele>
        <time>2021-02-20T08:43:28Z</time>
      </trkpt>
      <trkpt lat="45.17752" lon="5.91742">
        <ele>1592.8</ele>
        <time>2021-02-20T08:43:29Z</time>
      </trkpt>
      <trkpt lat="45.17752" lon="5.91741">
        <ele>1592.9</ele>
        <time>2021-02-20T08:43:30Z</time>
      </trkpt>
      <trkpt lat="45.17751" lon="5.91742">
        <ele>1593.1</ele>
        <time>2021-02-20T08:43:31Z</time>
      </trkpt>
      <trkpt lat="45.1775" lon="5.91742">
        <ele>1593.4</ele>
        <time>2021-02-20T08:43:32Z</time>
      </trkpt>
      <trkpt lat="45.17749" lon="5.91743">
        <ele>1593.6</ele>
        <time>2021-02-20T08:43:33Z</time>
      </trkpt>
      <trkpt lat="45.17748" lon="5.91744">
        <ele>1593.9</ele>
        <time>2021-02-20T08:43:34Z</time>
      </trkpt>
      <trkpt lat="45.17747" lon="5.91746">
        <ele>1594.3</ele>
        <time>2021-02-20T08:43:35Z</time>
      </trkpt>
      <trkpt lat="45.17747" lon="5.91748">
        <ele>1594.7</ele>
        <time>2021-02-20T08:43:36Z</time>
      </trkpt>
      <trkpt lat="45.17748" lon="5.9175">
        <ele>1595</ele>
        <time>2021-02-20T08:43:37Z</time>
      </trkpt>
      <trkpt lat="45.1775" lon="5.9175">
        <ele>1595.4</ele>
        <time>2021-02-20T08:43:38Z</time>
      </trkpt>
      <trkpt lat="45.17751" lon="5.9175">
        <ele>1595.7</ele>
        <time>2021-02-20T08:43:39Z</time>
      </trkpt>
      <trkpt lat="45.17753" lon="5.91751">
        <ele>1596.1</ele>
        <time>2021-02-20T08:43:40Z</time>
      </trkpt>
      <trkpt lat="45.17754" lon="5.91751">
        <ele>1596.5</ele>
        <time>2021-02-20T08:43:41Z</time>
      </trkpt>
      <trkpt lat="45.17756" lon="5.91752">
        <ele>1597</ele>
        <time>2021-02-20T08:43:42Z</time>
      </trkpt>
      <trkpt lat="45.17757" lon="5.91752">
        <ele>1597.3</ele>
        <time>2021-02-20T08:43:43Z</time>
      </trkpt>
      <trkpt lat="45.17758" lon="5.91753">
        <ele>1597.5</ele>
        <time>2021-02-20T08:43:44Z</time>
      </trkpt>
      <trkpt lat="45.1776" lon="5.91753">
        <ele>1597.9</ele>
        <time>2021-02-20T08:43:45Z</time>
      </trkpt>
      <trkpt lat="45.17761" lon="5.91754">
        <ele>1598.1</ele>
        <time>2021-02-20T08:43:46Z</time>
      </trkpt>
      <trkpt lat="45.17761" lon="5.91754">
        <ele>1598.3</ele>
        <time>2021-02-20T08:43:47Z</time>
      </trkpt>
      <trkpt lat="45.17762" lon="5.91754">
        <ele>1598.4</ele>
        <time>2021-02-20T08:43:48Z</time>
      </trkpt>
      <trkpt lat="45.17762" lon="5.91754">
        <ele>1598.5</ele>
        <time>2021-02-20T08:43:49Z</time>
      </trkpt>
      <trkpt lat="45.17762" lon="5.91753">
        <ele>1598.6</ele>
        <time>2021-02-20T08:43:50Z</time>
      </trkpt>
      <trkpt lat="45.17763" lon="5.91752">
        <ele>1598.9</ele>
        <time>2021-02-20T08:43:51Z</time>
      </trkpt>
      <trkpt lat="45.17764" lon="5.9175">
        <ele>1599.2</ele>
        <time>2021-02-20T08:43:52Z</time>
      </trkpt>
      <trkpt lat="45.17764" lon="5.91749">
        <ele>1599.4</ele>
        <time>2021-02-20T08:43:53Z</time>
      </trkpt>
      <trkpt lat="45.17765" lon="5.91748">
        <ele>1599.6</ele>
        <time>2021-02-20T08:43:54Z</time>
      </trkpt>
      <trkpt lat="45.17766" lon="5.91748">
        <ele>1599.8</ele>
        <time>2021-02-20T08:43:55Z</time>
      </trkpt>
      <trkpt lat="45.17767" lon="5.91749">
        <ele>1600</ele>
        <time>2021-02-20T08:43:56Z</time>
      </trkpt>
      <trkpt lat="45.17767" lon="5.9175">
        <ele>1600.2</ele>
        <time>2021-02-20T08:43:57Z</time>
      </trkpt>
      <trkpt lat="45.17768" lon="5.91752">
        <ele>1600.5</ele>
        <time>2021-02-20T08:43:58Z</time>
      </trkpt>
      <trkpt lat="45.17769" lon="5.91753">
        <ele>1600.8</ele>
        <time>2021-02-20T08:43:59Z</time>
      </trkpt>
      <trkpt lat="45.1777" lon="5.91754">
        <ele>1600.8</ele>
        <time>2021-02-20T08:44:00Z</time>
      </trkpt>
      <trkpt lat="45.1777" lon="5.91754">
        <ele>1600.9</ele>
        <time>2021-02-20T08:44:01Z</time>
      </trkpt>
      <trkpt lat="45.1777" lon="5.91755">
        <ele>1601</ele>
        <time>2021-02-20T08:44:02Z</time>
      </trkpt>
      <trkpt lat="45.1777" lon="5.91755">
        <ele>1601.1</ele>
        <time>2021-02-20T08:44:03Z</time>
      </trkpt>
      <trkpt lat="45.1777" lon="5.91755">
        <ele>1601.1</ele>
        <time>2021-02-20T08:44:04Z</time>
      </trkpt>
      <trkpt lat="45.17771" lon="5.91756">
        <ele>1601.2</ele>
        <time>2021-02-20T08:44:05Z</time>
      </trkpt>
      <trkpt lat="45.17771" lon="5.91756">
        <ele>1601.3</ele>
        <time>2021-02-20T08:44:06Z</time>
      </trkpt>
      <trkpt lat="45.17772" lon="5.91758">
        <ele>1601.6</ele>
        <time>2021-02-20T08:44:07Z</time>
      </trkpt>
      <trkpt lat="45.17774" lon="5.91759">
        <ele>1601.9</ele>
        <time>2021-02-20T08:44:08Z</time>
      </trkpt>
      <trkpt lat="45.17776" lon="5.91761">
        <ele>1602.3</ele>
        <time>2021-02-20T08:44:09Z</time>
      </trkpt>
      <trkpt lat="45.17776" lon="5.91761">
        <ele>1602.4</ele>
        <time>2021-02-20T08:44:10Z</time>
      </trkpt>
      <trkpt lat="45.17777" lon="5.91762">
        <ele>1602.6</ele>
        <time>2021-02-20T08:44:11Z</time>
      </trkpt>
      <trkpt lat="45.17778" lon="5.91763">
        <ele>1602.8</ele>
        <time>2021-02-20T08:44:12Z</time>
      </trkpt>
      <trkpt lat="45.17779" lon="5.91764">
        <ele>1602.9</ele>
        <time>2021-02-20T08:44:13Z</time>
      </trkpt>
      <trkpt lat="45.17779" lon="5.91764">
        <ele>1603</ele>
        <time>2021-02-20T08:44:14Z</time>
      </trkpt>
      <trkpt lat="45.1778" lon="5.91764">
        <ele>1603.2</ele>
        <time>2021-02-20T08:44:15Z</time>
      </trkpt>
      <trkpt lat="45.17781" lon="5.91764">
        <ele>1603.3</ele>
        <time>2021-02-20T08:44:16Z</time>
      </trkpt>
      <trkpt lat="45.17782" lon="5.91764">
        <ele>1603.4</ele>
        <time>2021-02-20T08:44:17Z</time>
      </trkpt>
      <trkpt lat="45.17782" lon="5.91765">
        <ele>1603.5</ele>
        <time>2021-02-20T08:44:18Z</time>
      </trkpt>
      <trkpt lat="45.17783" lon="5.91766">
        <ele>1603.7</ele>
        <time>2021-02-20T08:44:19Z</time>
      </trkpt>
      <trkpt lat="45.17784" lon="5.91766">
        <ele>1603.9</ele>
        <time>2021-02-20T08:44:20Z</time>
      </trkpt>
      <trkpt lat="45.17785" lon="5.91767">
        <ele>1604.1</ele>
        <time>2021-02-20T08:44:21Z</time>
      </trkpt>
      <trkpt lat="45.17786" lon="5.91768">
        <ele>1604.3</ele>
        <time>2021-02-20T08:44:22Z</time>
      </trkpt>
      <trkpt lat="45.17787" lon="5.91769">
        <ele>1604.5</ele>
        <time>2021-02-20T08:44:23Z</time>
      </trkpt>
      <trkpt lat="45.17788" lon="5.9177">
        <ele>1604.6</ele>
        <time>2021-02-20T08:44:24Z</time>
      </trkpt>
      <trkpt lat="45.17788" lon="5.9177">
        <ele>1604.6</ele>
        <time>2021-02-20T08:44:25Z</time>
      </trkpt>
      <trkpt lat="45.17789" lon="5.9177">
        <ele>1604.8</ele>
        <time>2021-02-20T08:44:26Z</time>
      </trkpt>
      <trkpt lat="45.17789" lon="5.9177">
        <ele>1604.9</ele>
        <time>2021-02-20T08:44:27Z</time>
      </trkpt>
      <trkpt lat="45.1779" lon="5.9177">
        <ele>1605</ele>
        <time>2021-02-20T08:44:28Z</time>
      </trkpt>
      <trkpt lat="45.17791" lon="5.91771">
        <ele>1605.1</ele>
        <time>2021-02-20T08:44:29Z</time>
      </trkpt>
      <trkpt lat="45.17791" lon="5.91772">
        <ele>1605.3</ele>
        <time>2021-02-20T08:44:30Z</time>
      </trkpt>
      <trkpt lat="45.17792" lon="5.91773">
        <ele>1605.4</ele>
        <time>2021-02-20T08:44:31Z</time>
      </trkpt>
      <trkpt lat="45.17792" lon="5.91774">
        <ele>1605.5</ele>
        <time>2021-02-20T08:44:32Z</time>
      </trkpt>
      <trkpt lat="45.17792" lon="5.91774">
        <ele>1605.6</ele>
        <time>2021-02-20T08:44:33Z</time>
      </trkpt>
      <trkpt lat="45.17793" lon="5.91775">
        <ele>1605.7</ele>
        <time>2021-02-20T08:44:34Z</time>
      </trkpt>
      <trkpt lat="45.17795" lon="5.91777">
        <ele>1606.1</ele>
        <time>2021-02-20T08:44:35Z</time>
      </trkpt>
      <trkpt lat="45.17796" lon="5.91777">
        <ele>1606.2</ele>
        <time>2021-02-20T08:44:36Z</time>
      </trkpt>
      <trkpt lat="45.17796" lon="5.91777">
        <ele>1606.4</ele>
        <time>2021-02-20T08:44:37Z</time>
      </trkpt>
      <trkpt lat="45.17797" lon="5.91778">
        <ele>1606.5</ele>
        <time>2021-02-20T08:44:38Z</time>
      </trkpt>
      <trkpt lat="45.17798" lon="5.91778">
        <ele>1606.6</ele>
        <time>2021-02-20T08:44:39Z</time>
      </trkpt>
      <trkpt lat="45.178" lon="5.91778">
        <ele>1606.9</ele>
        <time>2021-02-20T08:44:40Z</time>
      </trkpt>
      <trkpt lat="45.17801" lon="5.91779">
        <ele>1607.2</ele>
        <time>2021-02-20T08:44:41Z</time>
      </trkpt>
      <trkpt lat="45.17803" lon="5.91779">
        <ele>1607.5</ele>
        <time>2021-02-20T08:44:42Z</time>
      </trkpt>
      <trkpt lat="45.17804" lon="5.9178">
        <ele>1607.7</ele>
        <time>2021-02-20T08:44:43Z</time>
      </trkpt>
      <trkpt lat="45.17805" lon="5.91781">
        <ele>1607.9</ele>
        <time>2021-02-20T08:44:44Z</time>
      </trkpt>
      <trkpt lat="45.17805" lon="5.91781">
        <ele>1608</ele>
        <time>2021-02-20T08:44:45Z</time>
      </trkpt>
      <trkpt lat="45.17806" lon="5.91782">
        <ele>1608.1</ele>
        <time>2021-02-20T08:44:46Z</time>
      </trkpt>
      <trkpt lat="45.17806" lon="5.91783">
        <ele>1608.2</ele>
        <time>2021-02-20T08:44:47Z</time>
      </trkpt>
      <trkpt lat="45.17806" lon="5.91783">
        <ele>1608.3</ele>
        <time>2021-02-20T08:44:48Z</time>
      </trkpt>
      <trkpt lat="45.17807" lon="5.91784">
        <ele>1608.4</ele>
        <time>2021-02-20T08:44:49Z</time>
      </trkpt>
      <trkpt lat="45.17808" lon="5.91785">
        <ele>1608.6</ele>
        <time>2021-02-20T08:44:50Z</time>
      </trkpt>
      <trkpt lat="45.17809" lon="5.91786">
        <ele>1608.8</ele>
        <time>2021-02-20T08:44:51Z</time>
      </trkpt>
      <trkpt lat="45.17809" lon="5.91786">
        <ele>1609</ele>
        <time>2021-02-20T08:44:52Z</time>
      </trkpt>
      <trkpt lat="45.1781" lon="5.91787">
        <ele>1609.2</ele>
        <time>2021-02-20T08:44:53Z</time>
      </trkpt>
      <trkpt lat="45.17811" lon="5.91789">
        <ele>1609.4</ele>
        <time>2021-02-20T08:44:54Z</time>
      </trkpt>
      <trkpt lat="45.17811" lon="5.9179">
        <ele>1609.5</ele>
        <time>2021-02-20T08:44:55Z</time>
      </trkpt>
      <trkpt lat="45.17811" lon="5.91791">
        <ele>1609.7</ele>
        <time>2021-02-20T08:44:56Z</time>
      </trkpt>
      <trkpt lat="45.17811" lon="5.91792">
        <ele>1609.8</ele>
        <time>2021-02-20T08:44:57Z</time>
      </trkpt>
      <trkpt lat="45.17811" lon="5.91792">
        <ele>1609.8</ele>
        <time>2021-02-20T08:44:58Z</time>
      </trkpt>
      <trkpt lat="45.17811" lon="5.91793">
        <ele>1610.1</ele>
        <time>2021-02-20T08:44:59Z</time>
      </trkpt>
      <trkpt lat="45.1781" lon="5.91794">
        <ele>1610.2</ele>
        <time>2021-02-20T08:45:00Z</time>
      </trkpt>
      <trkpt lat="45.17809" lon="5.91795">
        <ele>1610.4</ele>
        <time>2021-02-20T08:45:01Z</time>
      </trkpt>
      <trkpt lat="45.17809" lon="5.91795">
        <ele>1610.6</ele>
        <time>2021-02-20T08:45:02Z</time>
      </trkpt>
      <trkpt lat="45.17807" lon="5.91795">
        <ele>1610.8</ele>
        <time>2021-02-20T08:45:03Z</time>
      </trkpt>
      <trkpt lat="45.17806" lon="5.91795">
        <ele>1611.1</ele>
        <time>2021-02-20T08:45:04Z</time>
      </trkpt>
      <trkpt lat="45.17806" lon="5.91795">
        <ele>1611.2</ele>
        <time>2021-02-20T08:45:05Z</time>
      </trkpt>
      <trkpt lat="45.17804" lon="5.91795">
        <ele>1611.7</ele>
        <time>2021-02-20T08:45:06Z</time>
      </trkpt>
      <trkpt lat="45.17803" lon="5.91796">
        <ele>1611.9</ele>
        <time>2021-02-20T08:45:07Z</time>
      </trkpt>
      <trkpt lat="45.17802" lon="5.91796">
        <ele>1612.1</ele>
        <time>2021-02-20T08:45:08Z</time>
      </trkpt>
      <trkpt lat="45.178" lon="5.91796">
        <ele>1612.4</ele>
        <time>2021-02-20T08:45:09Z</time>
      </trkpt>
      <trkpt lat="45.17799" lon="5.91796">
        <ele>1612.6</ele>
        <time>2021-02-20T08:45:10Z</time>
      </trkpt>
      <trkpt lat="45.17798" lon="5.91796">
        <ele>1612.9</ele>
        <time>2021-02-20T08:45:11Z</time>
      </trkpt>
      <trkpt lat="45.17797" lon="5.91796">
        <ele>1613</ele>
        <time>2021-02-20T08:45:12Z</time>
      </trkpt>
      <trkpt lat="45.17797" lon="5.91796">
        <ele>1613.1</ele>
        <time>2021-02-20T08:45:13Z</time>
      </trkpt>
      <trkpt lat="45.17796" lon="5.91796">
        <ele>1613.3</ele>
        <time>2021-02-20T08:45:14Z</time>
      </trkpt>
      <trkpt lat="45.17795" lon="5.91796">
        <ele>1613.5</ele>
        <time>2021-02-20T08:45:15Z</time>
      </trkpt>
      <trkpt lat="45.17794" lon="5.91797">
        <ele>1613.6</ele>
        <time>2021-02-20T08:45:16Z</time>
      </trkpt>
      <trkpt lat="45.17793" lon="5.91797">
        <ele>1613.8</ele>
        <time>2021-02-20T08:45:17Z</time>
      </trkpt>
      <trkpt lat="45.17793" lon="5.91797">
        <ele>1614</ele>
        <time>2021-02-20T08:45:18Z</time>
      </trkpt>
      <trkpt lat="45.17792" lon="5.91797">
        <ele>1614.2</ele>
        <time>2021-02-20T08:45:19Z</time>
      </trkpt>
      <trkpt lat="45.17791" lon="5.91797">
        <ele>1614.3</ele>
        <time>2021-02-20T08:45:20Z</time>
      </trkpt>
      <trkpt lat="45.17791" lon="5.91797">
        <ele>1614.4</ele>
        <time>2021-02-20T08:45:21Z</time>
      </trkpt>
      <trkpt lat="45.1779" lon="5.91796">
        <ele>1614.5</ele>
        <time>2021-02-20T08:45:22Z</time>
      </trkpt>
      <trkpt lat="45.1779" lon="5.91796">
        <ele>1614.6</ele>
        <time>2021-02-20T08:45:23Z</time>
      </trkpt>
      <trkpt lat="45.17789" lon="5.91795">
        <ele>1614.8</ele>
        <time>2021-02-20T08:45:24Z</time>
      </trkpt>
      <trkpt lat="45.17788" lon="5.91795">
        <ele>1614.9</ele>
        <time>2021-02-20T08:45:25Z</time>
      </trkpt>
      <trkpt lat="45.17788" lon="5.91795">
        <ele>1615</ele>
        <time>2021-02-20T08:45:26Z</time>
      </trkpt>
      <trkpt lat="45.17787" lon="5.91795">
        <ele>1615.1</ele>
        <time>2021-02-20T08:45:27Z</time>
      </trkpt>
      <trkpt lat="45.17786" lon="5.91795">
        <ele>1615.3</ele>
        <time>2021-02-20T08:45:28Z</time>
      </trkpt>
      <trkpt lat="45.17785" lon="5.91794">
        <ele>1615.6</ele>
        <time>2021-02-20T08:45:29Z</time>
      </trkpt>
      <trkpt lat="45.17784" lon="5.91793">
        <ele>1615.8</ele>
        <time>2021-02-20T08:45:30Z</time>
      </trkpt>
      <trkpt lat="45.17783" lon="5.91793">
        <ele>1616</ele>
        <time>2021-02-20T08:45:31Z</time>
      </trkpt>
      <trkpt lat="45.17782" lon="5.91793">
        <ele>1616.2</ele>
        <time>2021-02-20T08:45:32Z</time>
      </trkpt>
      <trkpt lat="45.17781" lon="5.91793">
        <ele>1616.3</ele>
        <time>2021-02-20T08:45:33Z</time>
      </trkpt>
      <trkpt lat="45.1778" lon="5.91792">
        <ele>1616.5</ele>
        <time>2021-02-20T08:45:34Z</time>
      </trkpt>
      <trkpt lat="45.1778" lon="5.91791">
        <ele>1616.7</ele>
        <time>2021-02-20T08:45:35Z</time>
      </trkpt>
      <trkpt lat="45.17779" lon="5.9179">
        <ele>1616.9</ele>
        <time>2021-02-20T08:45:36Z</time>
      </trkpt>
      <trkpt lat="45.17778" lon="5.91791">
        <ele>1617.1</ele>
        <time>2021-02-20T08:45:37Z</time>
      </trkpt>
      <trkpt lat="45.17777" lon="5.91791">
        <ele>1617.3</ele>
        <time>2021-02-20T08:45:38Z</time>
      </trkpt>
      <trkpt lat="45.17776" lon="5.91792">
        <ele>1617.5</ele>
        <time>2021-02-20T08:45:39Z</time>
      </trkpt>
      <trkpt lat="45.17775" lon="5.91793">
        <ele>1617.7</ele>
        <time>2021-02-20T08:45:40Z</time>
      </trkpt>
      <trkpt lat="45.17775" lon="5.91793">
        <ele>1617.9</ele>
        <time>2021-02-20T08:45:41Z</time>
      </trkpt>
      <trkpt lat="45.17773" lon="5.91793">
        <ele>1618.1</ele>
        <time>2021-02-20T08:45:42Z</time>
      </trkpt>
      <trkpt lat="45.17773" lon="5.91792">
        <ele>1618.2</ele>
        <time>2021-02-20T08:45:43Z</time>
      </trkpt>
      <trkpt lat="45.17772" lon="5.91792">
        <ele>1618.3</ele>
        <time>2021-02-20T08:45:44Z</time>
      </trkpt>
      <trkpt lat="45.17771" lon="5.91792">
        <ele>1618.5</ele>
        <time>2021-02-20T08:45:45Z</time>
      </trkpt>
      <trkpt lat="45.1777" lon="5.91793">
        <ele>1618.7</ele>
        <time>2021-02-20T08:45:46Z</time>
      </trkpt>
      <trkpt lat="45.17769" lon="5.91793">
        <ele>1619</ele>
        <time>2021-02-20T08:45:47Z</time>
      </trkpt>
      <trkpt lat="45.17768" lon="5.91794">
        <ele>1619.2</ele>
        <time>2021-02-20T08:45:48Z</time>
      </trkpt>
      <trkpt lat="45.17768" lon="5.91794">
        <ele>1619.3</ele>
        <time>2021-02-20T08:45:49Z</time>
      </trkpt>
      <trkpt lat="45.17767" lon="5.91795">
        <ele>1619.5</ele>
        <time>2021-02-20T08:45:50Z</time>
      </trkpt>
      <trkpt lat="45.17767" lon="5.91797">
        <ele>1619.7</ele>
        <time>2021-02-20T08:45:51Z</time>
      </trkpt>
      <trkpt lat="45.17766" lon="5.91798">
        <ele>1619.9</ele>
        <time>2021-02-20T08:45:52Z</time>
      </trkpt>
      <trkpt lat="45.17767" lon="5.91799">
        <ele>1620.1</ele>
        <time>2021-02-20T08:45:53Z</time>
      </trkpt>
      <trkpt lat="45.17767" lon="5.91801">
        <ele>1620.4</ele>
        <time>2021-02-20T08:45:54Z</time>
      </trkpt>
      <trkpt lat="45.17769" lon="5.91801">
        <ele>1620.6</ele>
        <time>2021-02-20T08:45:55Z</time>
      </trkpt>
      <trkpt lat="45.17769" lon="5.91802">
        <ele>1620.8</ele>
        <time>2021-02-20T08:45:56Z</time>
      </trkpt>
      <trkpt lat="45.1777" lon="5.91802">
        <ele>1620.9</ele>
        <time>2021-02-20T08:45:57Z</time>
      </trkpt>
      <trkpt lat="45.17771" lon="5.91802">
        <ele>1621.1</ele>
        <time>2021-02-20T08:45:58Z</time>
      </trkpt>
      <trkpt lat="45.17772" lon="5.91802">
        <ele>1621.3</ele>
        <time>2021-02-20T08:45:59Z</time>
      </trkpt>
      <trkpt lat="45.17772" lon="5.91802">
        <ele>1621.5</ele>
        <time>2021-02-20T08:46:00Z</time>
      </trkpt>
      <trkpt lat="45.17773" lon="5.91802">
        <ele>1621.5</ele>
        <time>2021-02-20T08:46:01Z</time>
      </trkpt>
      <trkpt lat="45.17773" lon="5.91802">
        <ele>1621.6</ele>
        <time>2021-02-20T08:46:02Z</time>
      </trkpt>
      <trkpt lat="45.17773" lon="5.91803">
        <ele>1621.7</ele>
        <time>2021-02-20T08:46:03Z</time>
      </trkpt>
      <trkpt lat="45.17773" lon="5.91803">
        <ele>1621.8</ele>
        <time>2021-02-20T08:46:04Z</time>
      </trkpt>
      <trkpt lat="45.17774" lon="5.91804">
        <ele>1621.9</ele>
        <time>2021-02-20T08:46:05Z</time>
      </trkpt>
      <trkpt lat="45.17774" lon="5.91805">
        <ele>1622.1</ele>
        <time>2021-02-20T08:46:06Z</time>
      </trkpt>
      <trkpt lat="45.17775" lon="5.91806">
        <ele>1622.2</ele>
        <time>2021-02-20T08:46:07Z</time>
      </trkpt>
      <trkpt lat="45.17775" lon="5.91807">
        <ele>1622.4</ele>
        <time>2021-02-20T08:46:08Z</time>
      </trkpt>
      <trkpt lat="45.17776" lon="5.91808">
        <ele>1622.5</ele>
        <time>2021-02-20T08:46:09Z</time>
      </trkpt>
      <trkpt lat="45.17777" lon="5.91808">
        <ele>1622.7</ele>
        <time>2021-02-20T08:46:10Z</time>
      </trkpt>
      <trkpt lat="45.17777" lon="5.91808">
        <ele>1622.9</ele>
        <time>2021-02-20T08:46:11Z</time>
      </trkpt>
      <trkpt lat="45.17778" lon="5.91809">
        <ele>1623</ele>
        <time>2021-02-20T08:46:12Z</time>
      </trkpt>
      <trkpt lat="45.17779" lon="5.9181">
        <ele>1623.3</ele>
        <time>2021-02-20T08:46:13Z</time>
      </trkpt>
      <trkpt lat="45.17781" lon="5.91812">
        <ele>1623.7</ele>
        <time>2021-02-20T08:46:14Z</time>
      </trkpt>
      <trkpt lat="45.17781" lon="5.91813">
        <ele>1623.8</ele>
        <time>2021-02-20T08:46:15Z</time>
      </trkpt>
      <trkpt lat="45.17782" lon="5.91814">
        <ele>1623.9</ele>
        <time>2021-02-20T08:46:16Z</time>
      </trkpt>
      <trkpt lat="45.17783" lon="5.91815">
        <ele>1624.2</ele>
        <time>2021-02-20T08:46:17Z</time>
      </trkpt>
      <trkpt lat="45.17784" lon="5.91815">
        <ele>1624.4</ele>
        <time>2021-02-20T08:46:18Z</time>
      </trkpt>
      <trkpt lat="45.17785" lon="5.91816">
        <ele>1624.6</ele>
        <time>2021-02-20T08:46:19Z</time>
      </trkpt>
      <trkpt lat="45.17786" lon="5.91817">
        <ele>1624.8</ele>
        <time>2021-02-20T08:46:20Z</time>
      </trkpt>
      <trkpt lat="45.17786" lon="5.91818">
        <ele>1624.9</ele>
        <time>2021-02-20T08:46:21Z</time>
      </trkpt>
      <trkpt lat="45.17787" lon="5.91819">
        <ele>1625.1</ele>
        <time>2021-02-20T08:46:22Z</time>
      </trkpt>
      <trkpt lat="45.17789" lon="5.9182">
        <ele>1625.4</ele>
        <time>2021-02-20T08:46:23Z</time>
      </trkpt>
      <trkpt lat="45.17789" lon="5.9182">
        <ele>1625.6</ele>
        <time>2021-02-20T08:46:24Z</time>
      </trkpt>
      <trkpt lat="45.1779" lon="5.91821">
        <ele>1625.6</ele>
        <time>2021-02-20T08:46:25Z</time>
      </trkpt>
      <trkpt lat="45.1779" lon="5.91821">
        <ele>1625.8</ele>
        <time>2021-02-20T08:46:26Z</time>
      </trkpt>
      <trkpt lat="45.17791" lon="5.91821">
        <ele>1625.9</ele>
        <time>2021-02-20T08:46:27Z</time>
      </trkpt>
      <trkpt lat="45.17793" lon="5.91822">
        <ele>1626.1</ele>
        <time>2021-02-20T08:46:28Z</time>
      </trkpt>
      <trkpt lat="45.17793" lon="5.91823">
        <ele>1626.3</ele>
        <time>2021-02-20T08:46:29Z</time>
      </trkpt>
      <trkpt lat="45.17794" lon="5.91824">
        <ele>1626.5</ele>
        <time>2021-02-20T08:46:30Z</time>
      </trkpt>
      <trkpt lat="45.17794" lon="5.91825">
        <ele>1626.7</ele>
        <time>2021-02-20T08:46:31Z</time>
      </trkpt>
      <trkpt lat="45.17794" lon="5.91826">
        <ele>1626.8</ele>
        <time>2021-02-20T08:46:32Z</time>
      </trkpt>
      <trkpt lat="45.17794" lon="5.91827">
        <ele>1626.9</ele>
        <time>2021-02-20T08:46:33Z</time>
      </trkpt>
      <trkpt lat="45.17793" lon="5.91827">
        <ele>1627.1</ele>
        <time>2021-02-20T08:46:34Z</time>
      </trkpt>
      <trkpt lat="45.17791" lon="5.91828">
        <ele>1627.3</ele>
        <time>2021-02-20T08:46:35Z</time>
      </trkpt>
      <trkpt lat="45.1779" lon="5.91828">
        <ele>1627.5</ele>
        <time>2021-02-20T08:46:36Z</time>
      </trkpt>
      <trkpt lat="45.1779" lon="5.91828">
        <ele>1627.7</ele>
        <time>2021-02-20T08:46:37Z</time>
      </trkpt>
      <trkpt lat="45.17789" lon="5.91828">
        <ele>1627.8</ele>
        <time>2021-02-20T08:46:38Z</time>
      </trkpt>
      <trkpt lat="45.17788" lon="5.91827">
        <ele>1628</ele>
        <time>2021-02-20T08:46:39Z</time>
      </trkpt>
      <trkpt lat="45.17787" lon="5.91827">
        <ele>1628.2</ele>
        <time>2021-02-20T08:46:40Z</time>
      </trkpt>
      <trkpt lat="45.17786" lon="5.91826">
        <ele>1628.4</ele>
        <time>2021-02-20T08:46:41Z</time>
      </trkpt>
      <trkpt lat="45.17785" lon="5.91825">
        <ele>1628.5</ele>
        <time>2021-02-20T08:46:42Z</time>
      </trkpt>
      <trkpt lat="45.17784" lon="5.91825">
        <ele>1628.7</ele>
        <time>2021-02-20T08:46:43Z</time>
      </trkpt>
      <trkpt lat="45.17783" lon="5.91825">
        <ele>1628.8</ele>
        <time>2021-02-20T08:46:44Z</time>
      </trkpt>
      <trkpt lat="45.17783" lon="5.91825">
        <ele>1628.9</ele>
        <time>2021-02-20T08:46:45Z</time>
      </trkpt>
      <trkpt lat="45.17782" lon="5.91825">
        <ele>1629.1</ele>
        <time>2021-02-20T08:46:46Z</time>
      </trkpt>
      <trkpt lat="45.17781" lon="5.91825">
        <ele>1629.2</ele>
        <time>2021-02-20T08:46:47Z</time>
      </trkpt>
      <trkpt lat="45.17779" lon="5.91824">
        <ele>1629.5</ele>
        <time>2021-02-20T08:46:48Z</time>
      </trkpt>
      <trkpt lat="45.17779" lon="5.91824">
        <ele>1629.6</ele>
        <time>2021-02-20T08:46:49Z</time>
      </trkpt>
      <trkpt lat="45.17778" lon="5.91824">
        <ele>1629.7</ele>
        <time>2021-02-20T08:46:50Z</time>
      </trkpt>
      <trkpt lat="45.17777" lon="5.91824">
        <ele>1629.9</ele>
        <time>2021-02-20T08:46:51Z</time>
      </trkpt>
      <trkpt lat="45.17776" lon="5.91824">
        <ele>1630</ele>
        <time>2021-02-20T08:46:52Z</time>
      </trkpt>
      <trkpt lat="45.17775" lon="5.91824">
        <ele>1630.2</ele>
        <time>2021-02-20T08:46:53Z</time>
      </trkpt>
      <trkpt lat="45.17774" lon="5.91824">
        <ele>1630.4</ele>
        <time>2021-02-20T08:46:54Z</time>
      </trkpt>
      <trkpt lat="45.17773" lon="5.91825">
        <ele>1630.6</ele>
        <time>2021-02-20T08:46:55Z</time>
      </trkpt>
      <trkpt lat="45.17772" lon="5.91825">
        <ele>1630.7</ele>
        <time>2021-02-20T08:46:56Z</time>
      </trkpt>
      <trkpt lat="45.17771" lon="5.91825">
        <ele>1630.8</ele>
        <time>2021-02-20T08:46:57Z</time>
      </trkpt>
      <trkpt lat="45.1777" lon="5.91825">
        <ele>1631</ele>
        <time>2021-02-20T08:46:58Z</time>
      </trkpt>
      <trkpt lat="45.17769" lon="5.91826">
        <ele>1631.2</ele>
        <time>2021-02-20T08:46:59Z</time>
      </trkpt>
      <trkpt lat="45.17768" lon="5.91826">
        <ele>1631.4</ele>
        <time>2021-02-20T08:47:00Z</time>
      </trkpt>
      <trkpt lat="45.17767" lon="5.91826">
        <ele>1631.5</ele>
        <time>2021-02-20T08:47:01Z</time>
      </trkpt>
      <trkpt lat="45.17766" lon="5.91827">
        <ele>1631.7</ele>
        <time>2021-02-20T08:47:02Z</time>
      </trkpt>
      <trkpt lat="45.17765" lon="5.91826">
        <ele>1631.9</ele>
        <time>2021-02-20T08:47:03Z</time>
      </trkpt>
      <trkpt lat="45.17764" lon="5.91825">
        <ele>1632.1</ele>
        <time>2021-02-20T08:47:04Z</time>
      </trkpt>
      <trkpt lat="45.17764" lon="5.91824">
        <ele>1632.3</ele>
        <time>2021-02-20T08:47:05Z</time>
      </trkpt>
      <trkpt lat="45.17763" lon="5.91824">
        <ele>1632.4</ele>
        <time>2021-02-20T08:47:06Z</time>
      </trkpt>
      <trkpt lat="45.17762" lon="5.91825">
        <ele>1632.6</ele>
        <time>2021-02-20T08:47:07Z</time>
      </trkpt>
      <trkpt lat="45.17761" lon="5.91825">
        <ele>1632.8</ele>
        <time>2021-02-20T08:47:08Z</time>
      </trkpt>
      <trkpt lat="45.17759" lon="5.91826">
        <ele>1633.1</ele>
        <time>2021-02-20T08:47:09Z</time>
      </trkpt>
      <trkpt lat="45.17758" lon="5.91826">
        <ele>1633.3</ele>
        <time>2021-02-20T08:47:10Z</time>
      </trkpt>
      <trkpt lat="45.17757" lon="5.91826">
        <ele>1633.5</ele>
        <time>2021-02-20T08:47:11Z</time>
      </trkpt>
      <trkpt lat="45.17756" lon="5.91826">
        <ele>1633.8</ele>
        <time>2021-02-20T08:47:12Z</time>
      </trkpt>
      <trkpt lat="45.17755" lon="5.91826">
        <ele>1634</ele>
        <time>2021-02-20T08:47:13Z</time>
      </trkpt>
      <trkpt lat="45.17754" lon="5.91826">
        <ele>1634.2</ele>
        <time>2021-02-20T08:47:14Z</time>
      </trkpt>
      <trkpt lat="45.17753" lon="5.91827">
        <ele>1634.5</ele>
        <time>2021-02-20T08:47:15Z</time>
      </trkpt>
      <trkpt lat="45.17752" lon="5.91827">
        <ele>1634.6</ele>
        <time>2021-02-20T08:47:16Z</time>
      </trkpt>
      <trkpt lat="45.17751" lon="5.91827">
        <ele>1634.8</ele>
        <time>2021-02-20T08:47:17Z</time>
      </trkpt>
      <trkpt lat="45.17751" lon="5.91828">
        <ele>1634.9</ele>
        <time>2021-02-20T08:47:18Z</time>
      </trkpt>
      <trkpt lat="45.17751" lon="5.91829">
        <ele>1635.1</ele>
        <time>2021-02-20T08:47:19Z</time>
      </trkpt>
      <trkpt lat="45.17751" lon="5.9183">
        <ele>1635.2</ele>
        <time>2021-02-20T08:47:20Z</time>
      </trkpt>
      <trkpt lat="45.17752" lon="5.9183">
        <ele>1635.4</ele>
        <time>2021-02-20T08:47:21Z</time>
      </trkpt>
      <trkpt lat="45.17753" lon="5.9183">
        <ele>1635.6</ele>
        <time>2021-02-20T08:47:22Z</time>
      </trkpt>
      <trkpt lat="45.17755" lon="5.9183">
        <ele>1635.9</ele>
        <time>2021-02-20T08:47:23Z</time>
      </trkpt>
      <trkpt lat="45.17756" lon="5.91831">
        <ele>1636.2</ele>
        <time>2021-02-20T08:47:24Z</time>
      </trkpt>
      <trkpt lat="45.17758" lon="5.91831">
        <ele>1636.5</ele>
        <time>2021-02-20T08:47:25Z</time>
      </trkpt>
      <trkpt lat="45.17758" lon="5.91831">
        <ele>1636.6</ele>
        <time>2021-02-20T08:47:26Z</time>
      </trkpt>
      <trkpt lat="45.17759" lon="5.91831">
        <ele>1636.7</ele>
        <time>2021-02-20T08:47:27Z</time>
      </trkpt>
      <trkpt lat="45.1776" lon="5.91831">
        <ele>1636.9</ele>
        <time>2021-02-20T08:47:28Z</time>
      </trkpt>
      <trkpt lat="45.1776" lon="5.91831">
        <ele>1636.9</ele>
        <time>2021-02-20T08:47:29Z</time>
      </trkpt>
      <trkpt lat="45.17761" lon="5.91832">
        <ele>1637.1</ele>
        <time>2021-02-20T08:47:30Z</time>
      </trkpt>
      <trkpt lat="45.17761" lon="5.91833">
        <ele>1637.2</ele>
        <time>2021-02-20T08:47:31Z</time>
      </trkpt>
      <trkpt lat="45.17762" lon="5.91834">
        <ele>1637.4</ele>
        <time>2021-02-20T08:47:32Z</time>
      </trkpt>
      <trkpt lat="45.17764" lon="5.91835">
        <ele>1637.8</ele>
        <time>2021-02-20T08:47:33Z</time>
      </trkpt>
      <trkpt lat="45.17765" lon="5.91835">
        <ele>1638</ele>
        <time>2021-02-20T08:47:34Z</time>
      </trkpt>
      <trkpt lat="45.17766" lon="5.91836">
        <ele>1638.1</ele>
        <time>2021-02-20T08:47:35Z</time>
      </trkpt>
      <trkpt lat="45.17767" lon="5.91836">
        <ele>1638.3</ele>
        <time>2021-02-20T08:47:36Z</time>
      </trkpt>
      <trkpt lat="45.17768" lon="5.91836">
        <ele>1638.5</ele>
        <time>2021-02-20T08:47:37Z</time>
      </trkpt>
      <trkpt lat="45.17768" lon="5.91837">
        <ele>1638.6</ele>
        <time>2021-02-20T08:47:38Z</time>
      </trkpt>
      <trkpt lat="45.17769" lon="5.91838">
        <ele>1638.8</ele>
        <time>2021-02-20T08:47:39Z</time>
      </trkpt>
      <trkpt lat="45.1777" lon="5.91839">
        <ele>1639</ele>
        <time>2021-02-20T08:47:40Z</time>
      </trkpt>
      <trkpt lat="45.17771" lon="5.9184">
        <ele>1639.2</ele>
        <time>2021-02-20T08:47:41Z</time>
      </trkpt>
      <trkpt lat="45.17771" lon="5.91841">
        <ele>1639.3</ele>
        <time>2021-02-20T08:47:42Z</time>
      </trkpt>
      <trkpt lat="45.17771" lon="5.91842">
        <ele>1639.4</ele>
        <time>2021-02-20T08:47:43Z</time>
      </trkpt>
      <trkpt lat="45.17771" lon="5.91843">
        <ele>1639.6</ele>
        <time>2021-02-20T08:47:44Z</time>
      </trkpt>
      <trkpt lat="45.17771" lon="5.91845">
        <ele>1639.8</ele>
        <time>2021-02-20T08:47:45Z</time>
      </trkpt>
      <trkpt lat="45.17771" lon="5.91846">
        <ele>1639.9</ele>
        <time>2021-02-20T08:47:46Z</time>
      </trkpt>
      <trkpt lat="45.1777" lon="5.91847">
        <ele>1640.1</ele>
        <time>2021-02-20T08:47:47Z</time>
      </trkpt>
      <trkpt lat="45.17769" lon="5.91847">
        <ele>1640.2</ele>
        <time>2021-02-20T08:47:48Z</time>
      </trkpt>
      <trkpt lat="45.17768" lon="5.91848">
        <ele>1640.3</ele>
        <time>2021-02-20T08:47:49Z</time>
      </trkpt>
      <trkpt lat="45.17767" lon="5.91848">
        <ele>1640.5</ele>
        <time>2021-02-20T08:47:50Z</time>
      </trkpt>
      <trkpt lat="45.17766" lon="5.91847">
        <ele>1640.7</ele>
        <time>2021-02-20T08:47:51Z</time>
      </trkpt>
      <trkpt lat="45.17765" lon="5.91847">
        <ele>1640.9</ele>
        <time>2021-02-20T08:47:52Z</time>
      </trkpt>
      <trkpt lat="45.17764" lon="5.91846">
        <ele>1641.1</ele>
        <time>2021-02-20T08:47:53Z</time>
      </trkpt>
      <trkpt lat="45.17763" lon="5.91845">
        <ele>1641.3</ele>
        <time>2021-02-20T08:47:54Z</time>
      </trkpt>
      <trkpt lat="45.17761" lon="5.91844">
        <ele>1641.4</ele>
        <time>2021-02-20T08:47:55Z</time>
      </trkpt>
      <trkpt lat="45.1776" lon="5.91844">
        <ele>1641.6</ele>
        <time>2021-02-20T08:47:56Z</time>
      </trkpt>
      <trkpt lat="45.1776" lon="5.91844">
        <ele>1641.7</ele>
        <time>2021-02-20T08:47:57Z</time>
      </trkpt>
      <trkpt lat="45.17759" lon="5.91844">
        <ele>1641.8</ele>
        <time>2021-02-20T08:47:58Z</time>
      </trkpt>
      <trkpt lat="45.17759" lon="5.91844">
        <ele>1641.9</ele>
        <time>2021-02-20T08:47:59Z</time>
      </trkpt>
      <trkpt lat="45.17758" lon="5.91844">
        <ele>1641.9</ele>
        <time>2021-02-20T08:48:00Z</time>
      </trkpt>
      <trkpt lat="45.17758" lon="5.91844">
        <ele>1642</ele>
        <time>2021-02-20T08:48:01Z</time>
      </trkpt>
      <trkpt lat="45.17758" lon="5.91844">
        <ele>1642</ele>
        <time>2021-02-20T08:48:02Z</time>
      </trkpt>
      <trkpt lat="45.17757" lon="5.91845">
        <ele>1642.1</ele>
        <time>2021-02-20T08:48:03Z</time>
      </trkpt>
      <trkpt lat="45.17755" lon="5.91845">
        <ele>1642.4</ele>
        <time>2021-02-20T08:48:04Z</time>
      </trkpt>
      <trkpt lat="45.17754" lon="5.91844">
        <ele>1642.5</ele>
        <time>2021-02-20T08:48:05Z</time>
      </trkpt>
      <trkpt lat="45.17753" lon="5.91844">
        <ele>1642.7</ele>
        <time>2021-02-20T08:48:06Z</time>
      </trkpt>
      <trkpt lat="45.17752" lon="5.91844">
        <ele>1642.8</ele>
        <time>2021-02-20T08:48:07Z</time>
      </trkpt>
      <trkpt lat="45.17752" lon="5.91844">
        <ele>1642.9</ele>
        <time>2021-02-20T08:48:08Z</time>
      </trkpt>
      <trkpt lat="45.17751" lon="5.91844">
        <ele>1642.9</ele>
        <time>2021-02-20T08:48:09Z</time>
      </trkpt>
      <trkpt lat="45.17751" lon="5.91845">
        <ele>1643</ele>
        <time>2021-02-20T08:48:10Z</time>
      </trkpt>
      <trkpt lat="45.1775" lon="5.91845">
        <ele>1643.2</ele>
        <time>2021-02-20T08:48:11Z</time>
      </trkpt>
      <trkpt lat="45.17748" lon="5.91846">
        <ele>1643.4</ele>
        <time>2021-02-20T08:48:12Z</time>
      </trkpt>
      <trkpt lat="45.17747" lon="5.91846">
        <ele>1643.6</ele>
        <time>2021-02-20T08:48:13Z</time>
      </trkpt>
      <trkpt lat="45.17746" lon="5.91846">
        <ele>1643.7</ele>
        <time>2021-02-20T08:48:14Z</time>
      </trkpt>
      <trkpt lat="45.17745" lon="5.91847">
        <ele>1643.9</ele>
        <time>2021-02-20T08:48:15Z</time>
      </trkpt>
      <trkpt lat="45.17744" lon="5.91848">
        <ele>1644</ele>
        <time>2021-02-20T08:48:16Z</time>
      </trkpt>
      <trkpt lat="45.17743" lon="5.91848">
        <ele>1644.2</ele>
        <time>2021-02-20T08:48:17Z</time>
      </trkpt>
      <trkpt lat="45.17743" lon="5.91849">
        <ele>1644.3</ele>
        <time>2021-02-20T08:48:18Z</time>
      </trkpt>
      <trkpt lat="45.17741" lon="5.91849">
        <ele>1644.5</ele>
        <time>2021-02-20T08:48:19Z</time>
      </trkpt>
      <trkpt lat="45.1774" lon="5.9185">
        <ele>1644.7</ele>
        <time>2021-02-20T08:48:20Z</time>
      </trkpt>
      <trkpt lat="45.17739" lon="5.91851">
        <ele>1644.9</ele>
        <time>2021-02-20T08:48:21Z</time>
      </trkpt>
      <trkpt lat="45.17738" lon="5.91851">
        <ele>1645.1</ele>
        <time>2021-02-20T08:48:22Z</time>
      </trkpt>
      <trkpt lat="45.17737" lon="5.91851">
        <ele>1645.2</ele>
        <time>2021-02-20T08:48:23Z</time>
      </trkpt>
      <trkpt lat="45.17735" lon="5.91852">
        <ele>1645.4</ele>
        <time>2021-02-20T08:48:24Z</time>
      </trkpt>
      <trkpt lat="45.17734" lon="5.91853">
        <ele>1645.7</ele>
        <time>2021-02-20T08:48:25Z</time>
      </trkpt>
      <trkpt lat="45.17732" lon="5.91853">
        <ele>1645.9</ele>
        <time>2021-02-20T08:48:26Z</time>
      </trkpt>
      <trkpt lat="45.17731" lon="5.91854">
        <ele>1646.2</ele>
        <time>2021-02-20T08:48:27Z</time>
      </trkpt>
      <trkpt lat="45.1773" lon="5.91854">
        <ele>1646.4</ele>
        <time>2021-02-20T08:48:28Z</time>
      </trkpt>
      <trkpt lat="45.17729" lon="5.91855">
        <ele>1646.5</ele>
        <time>2021-02-20T08:48:29Z</time>
      </trkpt>
      <trkpt lat="45.17729" lon="5.91855">
        <ele>1646.6</ele>
        <time>2021-02-20T08:48:30Z</time>
      </trkpt>
      <trkpt lat="45.17728" lon="5.91856">
        <ele>1646.8</ele>
        <time>2021-02-20T08:48:31Z</time>
      </trkpt>
      <trkpt lat="45.17727" lon="5.91857">
        <ele>1647</ele>
        <time>2021-02-20T08:48:32Z</time>
      </trkpt>
      <trkpt lat="45.17726" lon="5.91857">
        <ele>1647.1</ele>
        <time>2021-02-20T08:48:33Z</time>
      </trkpt>
      <trkpt lat="45.17726" lon="5.91856">
        <ele>1647.2</ele>
        <time>2021-02-20T08:48:34Z</time>
      </trkpt>
      <trkpt lat="45.17725" lon="5.91856">
        <ele>1647.4</ele>
        <time>2021-02-20T08:48:35Z</time>
      </trkpt>
      <trkpt lat="45.17724" lon="5.91856">
        <ele>1647.6</ele>
        <time>2021-02-20T08:48:36Z</time>
      </trkpt>
      <trkpt lat="45.17723" lon="5.91857">
        <ele>1647.8</ele>
        <time>2021-02-20T08:48:37Z</time>
      </trkpt>
      <trkpt lat="45.17722" lon="5.91858">
        <ele>1647.9</ele>
        <time>2021-02-20T08:48:38Z</time>
      </trkpt>
      <trkpt lat="45.17721" lon="5.91859">
        <ele>1648.2</ele>
        <time>2021-02-20T08:48:39Z</time>
      </trkpt>
      <trkpt lat="45.1772" lon="5.91861">
        <ele>1648.5</ele>
        <time>2021-02-20T08:48:40Z</time>
      </trkpt>
      <trkpt lat="45.17719" lon="5.91863">
        <ele>1648.8</ele>
        <time>2021-02-20T08:48:41Z</time>
      </trkpt>
      <trkpt lat="45.17719" lon="5.91863">
        <ele>1648.9</ele>
        <time>2021-02-20T08:48:42Z</time>
      </trkpt>
      <trkpt lat="45.17718" lon="5.91864">
        <ele>1649.1</ele>
        <time>2021-02-20T08:48:43Z</time>
      </trkpt>
      <trkpt lat="45.17718" lon="5.91864">
        <ele>1649.1</ele>
        <time>2021-02-20T08:48:44Z</time>
      </trkpt>
      <trkpt lat="45.17718" lon="5.91864">
        <ele>1649.1</ele>
        <time>2021-02-20T08:48:45Z</time>
      </trkpt>
      <trkpt lat="45.17718" lon="5.91864">
        <ele>1649.1</ele>
        <time>2021-02-20T08:48:46Z</time>
      </trkpt>
      <trkpt lat="45.17716" lon="5.91866">
        <ele>1649.5</ele>
        <time>2021-02-20T08:48:47Z</time>
      </trkpt>
      <trkpt lat="45.17715" lon="5.91867">
        <ele>1649.7</ele>
        <time>2021-02-20T08:48:48Z</time>
      </trkpt>
      <trkpt lat="45.17716" lon="5.91867">
        <ele>1649.8</ele>
        <time>2021-02-20T08:48:49Z</time>
      </trkpt>
      <trkpt lat="45.17717" lon="5.91867">
        <ele>1649.9</ele>
        <time>2021-02-20T08:48:50Z</time>
      </trkpt>
      <trkpt lat="45.17717" lon="5.91867">
        <ele>1650</ele>
        <time>2021-02-20T08:48:51Z</time>
      </trkpt>
      <trkpt lat="45.17718" lon="5.91867">
        <ele>1650.1</ele>
        <time>2021-02-20T08:48:52Z</time>
      </trkpt>
      <trkpt lat="45.17719" lon="5.91867">
        <ele>1650.3</ele>
        <time>2021-02-20T08:48:53Z</time>
      </trkpt>
      <trkpt lat="45.17719" lon="5.91867">
        <ele>1650.4</ele>
        <time>2021-02-20T08:48:54Z</time>
      </trkpt>
      <trkpt lat="45.1772" lon="5.91867">
        <ele>1650.5</ele>
        <time>2021-02-20T08:48:55Z</time>
      </trkpt>
      <trkpt lat="45.17721" lon="5.91867">
        <ele>1650.7</ele>
        <time>2021-02-20T08:48:56Z</time>
      </trkpt>
      <trkpt lat="45.17723" lon="5.91868">
        <ele>1650.9</ele>
        <time>2021-02-20T08:48:57Z</time>
      </trkpt>
      <trkpt lat="45.17724" lon="5.91868">
        <ele>1651.1</ele>
        <time>2021-02-20T08:48:58Z</time>
      </trkpt>
      <trkpt lat="45.17725" lon="5.91869">
        <ele>1651.3</ele>
        <time>2021-02-20T08:48:59Z</time>
      </trkpt>
      <trkpt lat="45.17725" lon="5.91869">
        <ele>1651.4</ele>
        <time>2021-02-20T08:49:00Z</time>
      </trkpt>
      <trkpt lat="45.17726" lon="5.91869">
        <ele>1651.5</ele>
        <time>2021-02-20T08:49:01Z</time>
      </trkpt>
      <trkpt lat="45.17727" lon="5.91869">
        <ele>1651.7</ele>
        <time>2021-02-20T08:49:02Z</time>
      </trkpt>
      <trkpt lat="45.17728" lon="5.9187">
        <ele>1651.9</ele>
        <time>2021-02-20T08:49:03Z</time>
      </trkpt>
      <trkpt lat="45.17729" lon="5.9187">
        <ele>1652.1</ele>
        <time>2021-02-20T08:49:04Z</time>
      </trkpt>
      <trkpt lat="45.1773" lon="5.9187">
        <ele>1652.2</ele>
        <time>2021-02-20T08:49:05Z</time>
      </trkpt>
      <trkpt lat="45.17731" lon="5.9187">
        <ele>1652.2</ele>
        <time>2021-02-20T08:49:06Z</time>
      </trkpt>
      <trkpt lat="45.17731" lon="5.91871">
        <ele>1652.3</ele>
        <time>2021-02-20T08:49:07Z</time>
      </trkpt>
      <trkpt lat="45.17732" lon="5.91872">
        <ele>1652.5</ele>
        <time>2021-02-20T08:49:08Z</time>
      </trkpt>
      <trkpt lat="45.17733" lon="5.91872">
        <ele>1652.6</ele>
        <time>2021-02-20T08:49:09Z</time>
      </trkpt>
      <trkpt lat="45.17733" lon="5.91873">
        <ele>1652.8</ele>
        <time>2021-02-20T08:49:10Z</time>
      </trkpt>
      <trkpt lat="45.17734" lon="5.91875">
        <ele>1653</ele>
        <time>2021-02-20T08:49:11Z</time>
      </trkpt>
      <trkpt lat="45.17735" lon="5.91876">
        <ele>1653.2</ele>
        <time>2021-02-20T08:49:12Z</time>
      </trkpt>
      <trkpt lat="45.17735" lon="5.91877">
        <ele>1653.3</ele>
        <time>2021-02-20T08:49:13Z</time>
      </trkpt>
      <trkpt lat="45.17736" lon="5.91878">
        <ele>1653.5</ele>
        <time>2021-02-20T08:49:14Z</time>
      </trkpt>
      <trkpt lat="45.17736" lon="5.91879">
        <ele>1653.7</ele>
        <time>2021-02-20T08:49:15Z</time>
      </trkpt>
      <trkpt lat="45.17737" lon="5.9188">
        <ele>1653.8</ele>
        <time>2021-02-20T08:49:16Z</time>
      </trkpt>
      <trkpt lat="45.17737" lon="5.91881">
        <ele>1653.9</ele>
        <time>2021-02-20T08:49:17Z</time>
      </trkpt>
      <trkpt lat="45.17737" lon="5.91881">
        <ele>1654</ele>
        <time>2021-02-20T08:49:18Z</time>
      </trkpt>
      <trkpt lat="45.17737" lon="5.91883">
        <ele>1654.2</ele>
        <time>2021-02-20T08:49:19Z</time>
      </trkpt>
      <trkpt lat="45.17736" lon="5.91885">
        <ele>1654.5</ele>
        <time>2021-02-20T08:49:20Z</time>
      </trkpt>
      <trkpt lat="45.17735" lon="5.91886">
        <ele>1654.7</ele>
        <time>2021-02-20T08:49:21Z</time>
      </trkpt>
      <trkpt lat="45.17734" lon="5.91887">
        <ele>1654.9</ele>
        <time>2021-02-20T08:49:22Z</time>
      </trkpt>
      <trkpt lat="45.17733" lon="5.91887">
        <ele>1655.1</ele>
        <time>2021-02-20T08:49:23Z</time>
      </trkpt>
      <trkpt lat="45.17732" lon="5.91888">
        <ele>1655.3</ele>
        <time>2021-02-20T08:49:24Z</time>
      </trkpt>
      <trkpt lat="45.17731" lon="5.91888">
        <ele>1655.5</ele>
        <time>2021-02-20T08:49:25Z</time>
      </trkpt>
      <trkpt lat="45.1773" lon="5.91889">
        <ele>1655.7</ele>
        <time>2021-02-20T08:49:26Z</time>
      </trkpt>
      <trkpt lat="45.17728" lon="5.91889">
        <ele>1656</ele>
        <time>2021-02-20T08:49:27Z</time>
      </trkpt>
      <trkpt lat="45.17727" lon="5.9189">
        <ele>1656.2</ele>
        <time>2021-02-20T08:49:28Z</time>
      </trkpt>
      <trkpt lat="45.17726" lon="5.9189">
        <ele>1656.4</ele>
        <time>2021-02-20T08:49:29Z</time>
      </trkpt>
      <trkpt lat="45.17725" lon="5.9189">
        <ele>1656.5</ele>
        <time>2021-02-20T08:49:30Z</time>
      </trkpt>
      <trkpt lat="45.17725" lon="5.91891">
        <ele>1656.6</ele>
        <time>2021-02-20T08:49:31Z</time>
      </trkpt>
      <trkpt lat="45.17724" lon="5.91891">
        <ele>1656.7</ele>
        <time>2021-02-20T08:49:32Z</time>
      </trkpt>
      <trkpt lat="45.17723" lon="5.91891">
        <ele>1656.9</ele>
        <time>2021-02-20T08:49:33Z</time>
      </trkpt>
      <trkpt lat="45.17723" lon="5.91891">
        <ele>1657</ele>
        <time>2021-02-20T08:49:34Z</time>
      </trkpt>
      <trkpt lat="45.17722" lon="5.91891">
        <ele>1657.1</ele>
        <time>2021-02-20T08:49:35Z</time>
      </trkpt>
      <trkpt lat="45.17721" lon="5.91891">
        <ele>1657.3</ele>
        <time>2021-02-20T08:49:36Z</time>
      </trkpt>
      <trkpt lat="45.1772" lon="5.91891">
        <ele>1657.4</ele>
        <time>2021-02-20T08:49:37Z</time>
      </trkpt>
      <trkpt lat="45.17719" lon="5.91891">
        <ele>1657.6</ele>
        <time>2021-02-20T08:49:38Z</time>
      </trkpt>
      <trkpt lat="45.17718" lon="5.91891">
        <ele>1657.8</ele>
        <time>2021-02-20T08:49:39Z</time>
      </trkpt>
      <trkpt lat="45.17717" lon="5.91891">
        <ele>1658</ele>
        <time>2021-02-20T08:49:40Z</time>
      </trkpt>
      <trkpt lat="45.17716" lon="5.91892">
        <ele>1658.2</ele>
        <time>2021-02-20T08:49:41Z</time>
      </trkpt>
      <trkpt lat="45.17715" lon="5.91892">
        <ele>1658.3</ele>
        <time>2021-02-20T08:49:42Z</time>
      </trkpt>
      <trkpt lat="45.17715" lon="5.91892">
        <ele>1658.4</ele>
        <time>2021-02-20T08:49:43Z</time>
      </trkpt>
      <trkpt lat="45.17714" lon="5.91892">
        <ele>1658.5</ele>
        <time>2021-02-20T08:49:44Z</time>
      </trkpt>
      <trkpt lat="45.17714" lon="5.91892">
        <ele>1658.6</ele>
        <time>2021-02-20T08:49:45Z</time>
      </trkpt>
      <trkpt lat="45.17713" lon="5.91893">
        <ele>1658.8</ele>
        <time>2021-02-20T08:49:46Z</time>
      </trkpt>
      <trkpt lat="45.17712" lon="5.91893">
        <ele>1659</ele>
        <time>2021-02-20T08:49:47Z</time>
      </trkpt>
      <trkpt lat="45.17711" lon="5.91893">
        <ele>1659.1</ele>
        <time>2021-02-20T08:49:48Z</time>
      </trkpt>
      <trkpt lat="45.17711" lon="5.91893">
        <ele>1659.2</ele>
        <time>2021-02-20T08:49:49Z</time>
      </trkpt>
      <trkpt lat="45.1771" lon="5.91894">
        <ele>1659.3</ele>
        <time>2021-02-20T08:49:50Z</time>
      </trkpt>
      <trkpt lat="45.17709" lon="5.91895">
        <ele>1659.5</ele>
        <time>2021-02-20T08:49:51Z</time>
      </trkpt>
      <trkpt lat="45.17708" lon="5.91896">
        <ele>1659.7</ele>
        <time>2021-02-20T08:49:52Z</time>
      </trkpt>
      <trkpt lat="45.17707" lon="5.91896">
        <ele>1659.9</ele>
        <time>2021-02-20T08:49:53Z</time>
      </trkpt>
      <trkpt lat="45.17706" lon="5.91896">
        <ele>1660.1</ele>
        <time>2021-02-20T08:49:54Z</time>
      </trkpt>
      <trkpt lat="45.17706" lon="5.91896">
        <ele>1660.2</ele>
        <time>2021-02-20T08:49:55Z</time>
      </trkpt>
      <trkpt lat="45.17705" lon="5.91895">
        <ele>1660.3</ele>
        <time>2021-02-20T08:49:56Z</time>
      </trkpt>
      <trkpt lat="45.17705" lon="5.91894">
        <ele>1660.5</ele>
        <time>2021-02-20T08:49:57Z</time>
      </trkpt>
      <trkpt lat="45.17705" lon="5.91894">
        <ele>1660.6</ele>
        <time>2021-02-20T08:49:58Z</time>
      </trkpt>
      <trkpt lat="45.17704" lon="5.91894">
        <ele>1660.7</ele>
        <time>2021-02-20T08:49:59Z</time>
      </trkpt>
      <trkpt lat="45.17704" lon="5.91894">
        <ele>1660.8</ele>
        <time>2021-02-20T08:50:00Z</time>
      </trkpt>
      <trkpt lat="45.17702" lon="5.91894">
        <ele>1661</ele>
        <time>2021-02-20T08:50:01Z</time>
      </trkpt>
      <trkpt lat="45.17701" lon="5.91894">
        <ele>1661.3</ele>
        <time>2021-02-20T08:50:02Z</time>
      </trkpt>
      <trkpt lat="45.177" lon="5.91895">
        <ele>1661.5</ele>
        <time>2021-02-20T08:50:03Z</time>
      </trkpt>
      <trkpt lat="45.17698" lon="5.91896">
        <ele>1661.9</ele>
        <time>2021-02-20T08:50:04Z</time>
      </trkpt>
      <trkpt lat="45.17697" lon="5.91897">
        <ele>1662</ele>
        <time>2021-02-20T08:50:05Z</time>
      </trkpt>
      <trkpt lat="45.17697" lon="5.91898">
        <ele>1662.2</ele>
        <time>2021-02-20T08:50:06Z</time>
      </trkpt>
      <trkpt lat="45.17696" lon="5.91899">
        <ele>1662.3</ele>
        <time>2021-02-20T08:50:07Z</time>
      </trkpt>
      <trkpt lat="45.17696" lon="5.919">
        <ele>1662.4</ele>
        <time>2021-02-20T08:50:08Z</time>
      </trkpt>
      <trkpt lat="45.17697" lon="5.91901">
        <ele>1662.5</ele>
        <time>2021-02-20T08:50:09Z</time>
      </trkpt>
      <trkpt lat="45.17697" lon="5.91902">
        <ele>1662.6</ele>
        <time>2021-02-20T08:50:10Z</time>
      </trkpt>
      <trkpt lat="45.17697" lon="5.91903">
        <ele>1662.8</ele>
        <time>2021-02-20T08:50:11Z</time>
      </trkpt>
      <trkpt lat="45.17698" lon="5.91904">
        <ele>1663</ele>
        <time>2021-02-20T08:50:12Z</time>
      </trkpt>
      <trkpt lat="45.17699" lon="5.91905">
        <ele>1663.1</ele>
        <time>2021-02-20T08:50:13Z</time>
      </trkpt>
      <trkpt lat="45.177" lon="5.91908">
        <ele>1663.5</ele>
        <time>2021-02-20T08:50:14Z</time>
      </trkpt>
      <trkpt lat="45.17701" lon="5.91909">
        <ele>1663.6</ele>
        <time>2021-02-20T08:50:15Z</time>
      </trkpt>
      <trkpt lat="45.17701" lon="5.91909">
        <ele>1663.7</ele>
        <time>2021-02-20T08:50:16Z</time>
      </trkpt>
      <trkpt lat="45.17702" lon="5.91911">
        <ele>1663.9</ele>
        <time>2021-02-20T08:50:17Z</time>
      </trkpt>
      <trkpt lat="45.17703" lon="5.91911">
        <ele>1664.1</ele>
        <time>2021-02-20T08:50:18Z</time>
      </trkpt>
      <trkpt lat="45.17704" lon="5.91912">
        <ele>1664.2</ele>
        <time>2021-02-20T08:50:19Z</time>
      </trkpt>
      <trkpt lat="45.17705" lon="5.91913">
        <ele>1664.4</ele>
        <time>2021-02-20T08:50:20Z</time>
      </trkpt>
      <trkpt lat="45.17706" lon="5.91914">
        <ele>1664.5</ele>
        <time>2021-02-20T08:50:21Z</time>
      </trkpt>
      <trkpt lat="45.17706" lon="5.91915">
        <ele>1664.6</ele>
        <time>2021-02-20T08:50:22Z</time>
      </trkpt>
      <trkpt lat="45.17707" lon="5.91916">
        <ele>1664.8</ele>
        <time>2021-02-20T08:50:23Z</time>
      </trkpt>
      <trkpt lat="45.17708" lon="5.91916">
        <ele>1664.9</ele>
        <time>2021-02-20T08:50:24Z</time>
      </trkpt>
      <trkpt lat="45.17708" lon="5.91917">
        <ele>1665</ele>
        <time>2021-02-20T08:50:25Z</time>
      </trkpt>
      <trkpt lat="45.17708" lon="5.91918">
        <ele>1665.1</ele>
        <time>2021-02-20T08:50:26Z</time>
      </trkpt>
      <trkpt lat="45.17709" lon="5.91921">
        <ele>1665.3</ele>
        <time>2021-02-20T08:50:27Z</time>
      </trkpt>
      <trkpt lat="45.17709" lon="5.91922">
        <ele>1665.4</ele>
        <time>2021-02-20T08:50:28Z</time>
      </trkpt>
      <trkpt lat="45.17709" lon="5.91923">
        <ele>1665.5</ele>
        <time>2021-02-20T08:50:29Z</time>
      </trkpt>
      <trkpt lat="45.17709" lon="5.91924">
        <ele>1665.6</ele>
        <time>2021-02-20T08:50:30Z</time>
      </trkpt>
      <trkpt lat="45.17709" lon="5.91925">
        <ele>1665.7</ele>
        <time>2021-02-20T08:50:31Z</time>
      </trkpt>
      <trkpt lat="45.17709" lon="5.91925">
        <ele>1665.7</ele>
        <time>2021-02-20T08:50:32Z</time>
      </trkpt>
      <trkpt lat="45.17709" lon="5.91926">
        <ele>1665.8</ele>
        <time>2021-02-20T08:50:33Z</time>
      </trkpt>
      <trkpt lat="45.17708" lon="5.91928">
        <ele>1666</ele>
        <time>2021-02-20T08:50:34Z</time>
      </trkpt>
      <trkpt lat="45.17708" lon="5.91928">
        <ele>1666</ele>
        <time>2021-02-20T08:50:35Z</time>
      </trkpt>
      <trkpt lat="45.17708" lon="5.91929">
        <ele>1666.1</ele>
        <time>2021-02-20T08:50:36Z</time>
      </trkpt>
      <trkpt lat="45.17707" lon="5.9193">
        <ele>1666.2</ele>
        <time>2021-02-20T08:50:37Z</time>
      </trkpt>
      <trkpt lat="45.17707" lon="5.91932">
        <ele>1666.4</ele>
        <time>2021-02-20T08:50:38Z</time>
      </trkpt>
      <trkpt lat="45.17707" lon="5.91934">
        <ele>1666.6</ele>
        <time>2021-02-20T08:50:39Z</time>
      </trkpt>
      <trkpt lat="45.17707" lon="5.91937">
        <ele>1666.8</ele>
        <time>2021-02-20T08:50:40Z</time>
      </trkpt>
      <trkpt lat="45.17706" lon="5.91939">
        <ele>1667</ele>
        <time>2021-02-20T08:50:41Z</time>
      </trkpt>
      <trkpt lat="45.17706" lon="5.91942">
        <ele>1667.3</ele>
        <time>2021-02-20T08:50:42Z</time>
      </trkpt>
      <trkpt lat="45.17705" lon="5.91946">
        <ele>1667.6</ele>
        <time>2021-02-20T08:50:43Z</time>
      </trkpt>
      <trkpt lat="45.17705" lon="5.91947">
        <ele>1667.7</ele>
        <time>2021-02-20T08:50:44Z</time>
      </trkpt>
      <trkpt lat="45.17705" lon="5.91948">
        <ele>1667.9</ele>
        <time>2021-02-20T08:50:45Z</time>
      </trkpt>
      <trkpt lat="45.17706" lon="5.91949">
        <ele>1667.9</ele>
        <time>2021-02-20T08:50:46Z</time>
      </trkpt>
      <trkpt lat="45.17706" lon="5.9195">
        <ele>1668.1</ele>
        <time>2021-02-20T08:50:47Z</time>
      </trkpt>
      <trkpt lat="45.17707" lon="5.91951">
        <ele>1668.2</ele>
        <time>2021-02-20T08:50:48Z</time>
      </trkpt>
      <trkpt lat="45.17707" lon="5.91953">
        <ele>1668.4</ele>
        <time>2021-02-20T08:50:49Z</time>
      </trkpt>
      <trkpt lat="45.17708" lon="5.91954">
        <ele>1668.5</ele>
        <time>2021-02-20T08:50:50Z</time>
      </trkpt>
      <trkpt lat="45.17708" lon="5.91955">
        <ele>1668.6</ele>
        <time>2021-02-20T08:50:51Z</time>
      </trkpt>
      <trkpt lat="45.17707" lon="5.91956">
        <ele>1668.7</ele>
        <time>2021-02-20T08:50:52Z</time>
      </trkpt>
      <trkpt lat="45.17707" lon="5.91957">
        <ele>1668.8</ele>
        <time>2021-02-20T08:50:53Z</time>
      </trkpt>
      <trkpt lat="45.17706" lon="5.91958">
        <ele>1668.8</ele>
        <time>2021-02-20T08:50:54Z</time>
      </trkpt>
      <trkpt lat="45.17706" lon="5.9196">
        <ele>1668.9</ele>
        <time>2021-02-20T08:50:55Z</time>
      </trkpt>
      <trkpt lat="45.17706" lon="5.91962">
        <ele>1669.1</ele>
        <time>2021-02-20T08:50:56Z</time>
      </trkpt>
      <trkpt lat="45.17706" lon="5.91964">
        <ele>1669.3</ele>
        <time>2021-02-20T08:50:57Z</time>
      </trkpt>
      <trkpt lat="45.17705" lon="5.91967">
        <ele>1669.5</ele>
        <time>2021-02-20T08:50:58Z</time>
      </trkpt>
      <trkpt lat="45.17705" lon="5.91968">
        <ele>1669.6</ele>
        <time>2021-02-20T08:50:59Z</time>
      </trkpt>
      <trkpt lat="45.17705" lon="5.91969">
        <ele>1669.7</ele>
        <time>2021-02-20T08:51:00Z</time>
      </trkpt>
      <trkpt lat="45.17704" lon="5.9197">
        <ele>1669.9</ele>
        <time>2021-02-20T08:51:01Z</time>
      </trkpt>
      <trkpt lat="45.17704" lon="5.91972">
        <ele>1670</ele>
        <time>2021-02-20T08:51:02Z</time>
      </trkpt>
      <trkpt lat="45.17703" lon="5.91973">
        <ele>1670.2</ele>
        <time>2021-02-20T08:51:03Z</time>
      </trkpt>
      <trkpt lat="45.17702" lon="5.91975">
        <ele>1670.3</ele>
        <time>2021-02-20T08:51:04Z</time>
      </trkpt>
      <trkpt lat="45.17701" lon="5.91977">
        <ele>1670.5</ele>
        <time>2021-02-20T08:51:05Z</time>
      </trkpt>
      <trkpt lat="45.177" lon="5.91979">
        <ele>1670.7</ele>
        <time>2021-02-20T08:51:06Z</time>
      </trkpt>
      <trkpt lat="45.17699" lon="5.9198">
        <ele>1670.9</ele>
        <time>2021-02-20T08:51:07Z</time>
      </trkpt>
      <trkpt lat="45.17698" lon="5.91981">
        <ele>1671.1</ele>
        <time>2021-02-20T08:51:08Z</time>
      </trkpt>
      <trkpt lat="45.17697" lon="5.91982">
        <ele>1671.2</ele>
        <time>2021-02-20T08:51:09Z</time>
      </trkpt>
      <trkpt lat="45.17697" lon="5.91983">
        <ele>1671.2</ele>
        <time>2021-02-20T08:51:10Z</time>
      </trkpt>
      <trkpt lat="45.17696" lon="5.91985">
        <ele>1671.4</ele>
        <time>2021-02-20T08:51:11Z</time>
      </trkpt>
      <trkpt lat="45.17695" lon="5.91986">
        <ele>1671.5</ele>
        <time>2021-02-20T08:51:12Z</time>
      </trkpt>
      <trkpt lat="45.17695" lon="5.91987">
        <ele>1671.6</ele>
        <time>2021-02-20T08:51:13Z</time>
      </trkpt>
      <trkpt lat="45.17693" lon="5.91989">
        <ele>1671.8</ele>
        <time>2021-02-20T08:51:14Z</time>
      </trkpt>
      <trkpt lat="45.17692" lon="5.9199">
        <ele>1671.9</ele>
        <time>2021-02-20T08:51:15Z</time>
      </trkpt>
      <trkpt lat="45.17692" lon="5.9199">
        <ele>1672</ele>
        <time>2021-02-20T08:51:16Z</time>
      </trkpt>
      <trkpt lat="45.1769" lon="5.91991">
        <ele>1672.1</ele>
        <time>2021-02-20T08:51:17Z</time>
      </trkpt>
      <trkpt lat="45.17688" lon="5.91991">
        <ele>1672.3</ele>
        <time>2021-02-20T08:51:18Z</time>
      </trkpt>
      <trkpt lat="45.17687" lon="5.91991">
        <ele>1672.4</ele>
        <time>2021-02-20T08:51:19Z</time>
      </trkpt>
      <trkpt lat="45.17686" lon="5.91992">
        <ele>1672.5</ele>
        <time>2021-02-20T08:51:20Z</time>
      </trkpt>
      <trkpt lat="45.17685" lon="5.91993">
        <ele>1672.6</ele>
        <time>2021-02-20T08:51:21Z</time>
      </trkpt>
      <trkpt lat="45.17684" lon="5.91994">
        <ele>1672.7</ele>
        <time>2021-02-20T08:51:22Z</time>
      </trkpt>
      <trkpt lat="45.17684" lon="5.91994">
        <ele>1672.7</ele>
        <time>2021-02-20T08:51:23Z</time>
      </trkpt>
      <trkpt lat="45.17683" lon="5.91994">
        <ele>1672.8</ele>
        <time>2021-02-20T08:51:24Z</time>
      </trkpt>
      <trkpt lat="45.17683" lon="5.91993">
        <ele>1672.8</ele>
        <time>2021-02-20T08:51:25Z</time>
      </trkpt>
      <trkpt lat="45.17682" lon="5.91993">
        <ele>1672.9</ele>
        <time>2021-02-20T08:51:26Z</time>
      </trkpt>
      <trkpt lat="45.17682" lon="5.91992">
        <ele>1672.9</ele>
        <time>2021-02-20T08:51:27Z</time>
      </trkpt>
      <trkpt lat="45.17682" lon="5.91992">
        <ele>1672.9</ele>
        <time>2021-02-20T08:51:28Z</time>
      </trkpt>
      <trkpt lat="45.17682" lon="5.91992">
        <ele>1672.9</ele>
        <time>2021-02-20T08:51:29Z</time>
      </trkpt>
      <trkpt lat="45.17682" lon="5.91993">
        <ele>1673</ele>
        <time>2021-02-20T08:51:30Z</time>
      </trkpt>
      <trkpt lat="45.17683" lon="5.91994">
        <ele>1673</ele>
        <time>2021-02-20T08:51:31Z</time>
      </trkpt>
      <trkpt lat="45.17683" lon="5.91994">
        <ele>1673</ele>
        <time>2021-02-20T08:51:32Z</time>
      </trkpt>
      <trkpt lat="45.17683" lon="5.91994">
        <ele>1673</ele>
        <time>2021-02-20T08:51:33Z</time>
      </trkpt>
      <trkpt lat="45.17683" lon="5.91994">
        <ele>1673</ele>
        <time>2021-02-20T08:51:34Z</time>
      </trkpt>
      <trkpt lat="45.17683" lon="5.91994">
        <ele>1673</ele>
        <time>2021-02-20T08:51:35Z</time>
      </trkpt>
      <trkpt lat="45.17684" lon="5.91994">
        <ele>1673.1</ele>
        <time>2021-02-20T08:51:36Z</time>
      </trkpt>
      <trkpt lat="45.17684" lon="5.91994">
        <ele>1673.1</ele>
        <time>2021-02-20T08:51:37Z</time>
      </trkpt>
      <trkpt lat="45.17684" lon="5.91994">
        <ele>1673.1</ele>
        <time>2021-02-20T08:51:38Z</time>
      </trkpt>
      <trkpt lat="45.17684" lon="5.91994">
        <ele>1673.1</ele>
        <time>2021-02-20T08:51:39Z</time>
      </trkpt>
      <trkpt lat="45.17684" lon="5.91994">
        <ele>1673.1</ele>
        <time>2021-02-20T08:51:40Z</time>
      </trkpt>
      <trkpt lat="45.17684" lon="5.91994">
        <ele>1673.1</ele>
        <time>2021-02-20T08:51:41Z</time>
      </trkpt>
      <trkpt lat="45.17684" lon="5.91994">
        <ele>1673.1</ele>
        <time>2021-02-20T08:51:42Z</time>
      </trkpt>
      <trkpt lat="45.17684" lon="5.91994">
        <ele>1673.1</ele>
        <time>2021-02-20T08:51:43Z</time>
      </trkpt>
      <trkpt lat="45.17684" lon="5.91994">
        <ele>1673.1</ele>
        <time>2021-02-20T08:51:44Z</time>
      </trkpt>
      <trkpt lat="45.17684" lon="5.91994">
        <ele>1673.1</ele>
        <time>2021-02-20T08:51:45Z</time>
      </trkpt>
      <trkpt lat="45.17684" lon="5.91994">
        <ele>1673.1</ele>
        <time>2021-02-20T08:51:46Z</time>
      </trkpt>
      <trkpt lat="45.17684" lon="5.91994">
        <ele>1673.1</ele>
        <time>2021-02-20T08:51:47Z</time>
      </trkpt>
      <trkpt lat="45.17684" lon="5.91994">
        <ele>1673.1</ele>
        <time>2021-02-20T08:51:48Z</time>
      </trkpt>
      <trkpt lat="45.17683" lon="5.91995">
        <ele>1673.1</ele>
        <time>2021-02-20T08:51:49Z</time>
      </trkpt>
      <trkpt lat="45.17683" lon="5.91995">
        <ele>1673.1</ele>
        <time>2021-02-20T08:51:50Z</time>
      </trkpt>
      <trkpt lat="45.17683" lon="5.91995">
        <ele>1673.1</ele>
        <time>2021-02-20T08:51:51Z</time>
      </trkpt>
      <trkpt lat="45.17683" lon="5.91995">
        <ele>1673.1</ele>
        <time>2021-02-20T08:51:52Z</time>
      </trkpt>
      <trkpt lat="45.17684" lon="5.91995">
        <ele>1673.2</ele>
        <time>2021-02-20T08:51:53Z</time>
      </trkpt>
      <trkpt lat="45.17684" lon="5.91995">
        <ele>1673.2</ele>
        <time>2021-02-20T08:51:54Z</time>
      </trkpt>
      <trkpt lat="45.17684" lon="5.91995">
        <ele>1673.2</ele>
        <time>2021-02-20T08:51:55Z</time>
      </trkpt>
      <trkpt lat="45.17683" lon="5.91994">
        <ele>1673.2</ele>
        <time>2021-02-20T08:51:56Z</time>
      </trkpt>
      <trkpt lat="45.17683" lon="5.91994">
        <ele>1673.2</ele>
        <time>2021-02-20T08:51:57Z</time>
      </trkpt>
      <trkpt lat="45.17683" lon="5.91994">
        <ele>1673.2</ele>
        <time>2021-02-20T08:51:58Z</time>
      </trkpt>
      <trkpt lat="45.17683" lon="5.91994">
        <ele>1673.2</ele>
        <time>2021-02-20T08:51:59Z</time>
      </trkpt>
      <trkpt lat="45.17683" lon="5.91994">
        <ele>1673.2</ele>
        <time>2021-02-20T08:52:00Z</time>
      </trkpt>
      <trkpt lat="45.17683" lon="5.91996">
        <ele>1673.3</ele>
        <time>2021-02-20T08:52:01Z</time>
      </trkpt>
      <trkpt lat="45.17683" lon="5.91996">
        <ele>1673.3</ele>
        <time>2021-02-20T08:52:02Z</time>
      </trkpt>
      <trkpt lat="45.17683" lon="5.91996">
        <ele>1673.4</ele>
        <time>2021-02-20T08:52:03Z</time>
      </trkpt>
      <trkpt lat="45.17683" lon="5.91996">
        <ele>1673.4</ele>
        <time>2021-02-20T08:52:04Z</time>
      </trkpt>
      <trkpt lat="45.17683" lon="5.91996">
        <ele>1673.4</ele>
        <time>2021-02-20T08:52:05Z</time>
      </trkpt>
      <trkpt lat="45.17683" lon="5.91996">
        <ele>1673.4</ele>
        <time>2021-02-20T08:52:06Z</time>
      </trkpt>
      <trkpt lat="45.17683" lon="5.91994">
        <ele>1673.5</ele>
        <time>2021-02-20T08:52:07Z</time>
      </trkpt>
      <trkpt lat="45.17682" lon="5.91994">
        <ele>1673.6</ele>
        <time>2021-02-20T08:52:08Z</time>
      </trkpt>
      <trkpt lat="45.17681" lon="5.91995">
        <ele>1673.6</ele>
        <time>2021-02-20T08:52:09Z</time>
      </trkpt>
      <trkpt lat="45.17681" lon="5.91995">
        <ele>1673.7</ele>
        <time>2021-02-20T08:52:10Z</time>
      </trkpt>
      <trkpt lat="45.1768" lon="5.91996">
        <ele>1673.8</ele>
        <time>2021-02-20T08:52:11Z</time>
      </trkpt>
      <trkpt lat="45.17679" lon="5.91997">
        <ele>1673.9</ele>
        <time>2021-02-20T08:52:12Z</time>
      </trkpt>
      <trkpt lat="45.17679" lon="5.91998">
        <ele>1673.9</ele>
        <time>2021-02-20T08:52:13Z</time>
      </trkpt>
      <trkpt lat="45.17679" lon="5.91998">
        <ele>1673.9</ele>
        <time>2021-02-20T08:52:14Z</time>
      </trkpt>
      <trkpt lat="45.17678" lon="5.91998">
        <ele>1674</ele>
        <time>2021-02-20T08:52:15Z</time>
      </trkpt>
      <trkpt lat="45.17677" lon="5.91999">
        <ele>1674.1</ele>
        <time>2021-02-20T08:52:16Z</time>
      </trkpt>
      <trkpt lat="45.17675" lon="5.92">
        <ele>1674.3</ele>
        <time>2021-02-20T08:52:17Z</time>
      </trkpt>
      <trkpt lat="45.17675" lon="5.92001">
        <ele>1674.3</ele>
        <time>2021-02-20T08:52:18Z</time>
      </trkpt>
      <trkpt lat="45.17674" lon="5.92001">
        <ele>1674.4</ele>
        <time>2021-02-20T08:52:19Z</time>
      </trkpt>
      <trkpt lat="45.17673" lon="5.92002">
        <ele>1674.5</ele>
        <time>2021-02-20T08:52:20Z</time>
      </trkpt>
      <trkpt lat="45.17672" lon="5.92004">
        <ele>1674.6</ele>
        <time>2021-02-20T08:52:21Z</time>
      </trkpt>
      <trkpt lat="45.17672" lon="5.92005">
        <ele>1674.7</ele>
        <time>2021-02-20T08:52:22Z</time>
      </trkpt>
      <trkpt lat="45.17671" lon="5.92007">
        <ele>1674.9</ele>
        <time>2021-02-20T08:52:23Z</time>
      </trkpt>
      <trkpt lat="45.17671" lon="5.92009">
        <ele>1675</ele>
        <time>2021-02-20T08:52:24Z</time>
      </trkpt>
      <trkpt lat="45.17672" lon="5.92011">
        <ele>1675.1</ele>
        <time>2021-02-20T08:52:25Z</time>
      </trkpt>
      <trkpt lat="45.17672" lon="5.92013">
        <ele>1675.2</ele>
        <time>2021-02-20T08:52:26Z</time>
      </trkpt>
      <trkpt lat="45.17672" lon="5.92015">
        <ele>1675.3</ele>
        <time>2021-02-20T08:52:27Z</time>
      </trkpt>
      <trkpt lat="45.17672" lon="5.92017">
        <ele>1675.4</ele>
        <time>2021-02-20T08:52:28Z</time>
      </trkpt>
      <trkpt lat="45.17672" lon="5.92019">
        <ele>1675.5</ele>
        <time>2021-02-20T08:52:29Z</time>
      </trkpt>
      <trkpt lat="45.17671" lon="5.9202">
        <ele>1675.6</ele>
        <time>2021-02-20T08:52:30Z</time>
      </trkpt>
      <trkpt lat="45.1767" lon="5.92022">
        <ele>1675.7</ele>
        <time>2021-02-20T08:52:31Z</time>
      </trkpt>
      <trkpt lat="45.17668" lon="5.92023">
        <ele>1675.9</ele>
        <time>2021-02-20T08:52:32Z</time>
      </trkpt>
      <trkpt lat="45.17667" lon="5.92024">
        <ele>1676</ele>
        <time>2021-02-20T08:52:33Z</time>
      </trkpt>
      <trkpt lat="45.17666" lon="5.92026">
        <ele>1676.1</ele>
        <time>2021-02-20T08:52:34Z</time>
      </trkpt>
      <trkpt lat="45.17665" lon="5.92027">
        <ele>1676.2</ele>
        <time>2021-02-20T08:52:35Z</time>
      </trkpt>
      <trkpt lat="45.17665" lon="5.92029">
        <ele>1676.2</ele>
        <time>2021-02-20T08:52:36Z</time>
      </trkpt>
      <trkpt lat="45.17665" lon="5.92031">
        <ele>1676.3</ele>
        <time>2021-02-20T08:52:37Z</time>
      </trkpt>
      <trkpt lat="45.17664" lon="5.92034">
        <ele>1676.4</ele>
        <time>2021-02-20T08:52:38Z</time>
      </trkpt>
      <trkpt lat="45.17664" lon="5.92036">
        <ele>1676.5</ele>
        <time>2021-02-20T08:52:39Z</time>
      </trkpt>
      <trkpt lat="45.17664" lon="5.92037">
        <ele>1676.6</ele>
        <time>2021-02-20T08:52:40Z</time>
      </trkpt>
      <trkpt lat="45.17664" lon="5.92039">
        <ele>1676.7</ele>
        <time>2021-02-20T08:52:41Z</time>
      </trkpt>
      <trkpt lat="45.17665" lon="5.92041">
        <ele>1676.8</ele>
        <time>2021-02-20T08:52:42Z</time>
      </trkpt>
      <trkpt lat="45.17665" lon="5.92042">
        <ele>1676.8</ele>
        <time>2021-02-20T08:52:43Z</time>
      </trkpt>
      <trkpt lat="45.17666" lon="5.92044">
        <ele>1676.9</ele>
        <time>2021-02-20T08:52:44Z</time>
      </trkpt>
      <trkpt lat="45.17666" lon="5.92045">
        <ele>1677</ele>
        <time>2021-02-20T08:52:45Z</time>
      </trkpt>
      <trkpt lat="45.17666" lon="5.92047">
        <ele>1677</ele>
        <time>2021-02-20T08:52:46Z</time>
      </trkpt>
      <trkpt lat="45.17665" lon="5.92048">
        <ele>1677.1</ele>
        <time>2021-02-20T08:52:47Z</time>
      </trkpt>
      <trkpt lat="45.17665" lon="5.9205">
        <ele>1677.2</ele>
        <time>2021-02-20T08:52:48Z</time>
      </trkpt>
      <trkpt lat="45.17664" lon="5.92052">
        <ele>1677.3</ele>
        <time>2021-02-20T08:52:49Z</time>
      </trkpt>
      <trkpt lat="45.17664" lon="5.92053">
        <ele>1677.3</ele>
        <time>2021-02-20T08:52:50Z</time>
      </trkpt>
      <trkpt lat="45.17664" lon="5.92054">
        <ele>1677.4</ele>
        <time>2021-02-20T08:52:51Z</time>
      </trkpt>
      <trkpt lat="45.17664" lon="5.92056">
        <ele>1677.5</ele>
        <time>2021-02-20T08:52:52Z</time>
      </trkpt>
      <trkpt lat="45.17663" lon="5.92057">
        <ele>1677.5</ele>
        <time>2021-02-20T08:52:53Z</time>
      </trkpt>
      <trkpt lat="45.17663" lon="5.92058">
        <ele>1677.6</ele>
        <time>2021-02-20T08:52:54Z</time>
      </trkpt>
      <trkpt lat="45.17663" lon="5.92058">
        <ele>1677.6</ele>
        <time>2021-02-20T08:52:55Z</time>
      </trkpt>
      <trkpt lat="45.17662" lon="5.9206">
        <ele>1677.7</ele>
        <time>2021-02-20T08:52:56Z</time>
      </trkpt>
      <trkpt lat="45.17661" lon="5.9206">
        <ele>1677.7</ele>
        <time>2021-02-20T08:52:57Z</time>
      </trkpt>
      <trkpt lat="45.17661" lon="5.9206">
        <ele>1677.7</ele>
        <time>2021-02-20T08:52:58Z</time>
      </trkpt>
      <trkpt lat="45.1766" lon="5.92061">
        <ele>1677.8</ele>
        <time>2021-02-20T08:52:59Z</time>
      </trkpt>
      <trkpt lat="45.1766" lon="5.92061">
        <ele>1677.8</ele>
        <time>2021-02-20T08:53:00Z</time>
      </trkpt>
      <trkpt lat="45.17659" lon="5.92062">
        <ele>1677.9</ele>
        <time>2021-02-20T08:53:01Z</time>
      </trkpt>
      <trkpt lat="45.17658" lon="5.92063">
        <ele>1678</ele>
        <time>2021-02-20T08:53:02Z</time>
      </trkpt>
      <trkpt lat="45.17657" lon="5.92063">
        <ele>1678</ele>
        <time>2021-02-20T08:53:03Z</time>
      </trkpt>
      <trkpt lat="45.17656" lon="5.92064">
        <ele>1678.2</ele>
        <time>2021-02-20T08:53:04Z</time>
      </trkpt>
      <trkpt lat="45.17654" lon="5.92064">
        <ele>1678.3</ele>
        <time>2021-02-20T08:53:05Z</time>
      </trkpt>
      <trkpt lat="45.17653" lon="5.92065">
        <ele>1678.4</ele>
        <time>2021-02-20T08:53:06Z</time>
      </trkpt>
      <trkpt lat="45.17652" lon="5.92066">
        <ele>1678.5</ele>
        <time>2021-02-20T08:53:07Z</time>
      </trkpt>
      <trkpt lat="45.17651" lon="5.92067">
        <ele>1678.6</ele>
        <time>2021-02-20T08:53:08Z</time>
      </trkpt>
      <trkpt lat="45.1765" lon="5.92067">
        <ele>1678.7</ele>
        <time>2021-02-20T08:53:09Z</time>
      </trkpt>
      <trkpt lat="45.17649" lon="5.92067">
        <ele>1678.7</ele>
        <time>2021-02-20T08:53:10Z</time>
      </trkpt>
      <trkpt lat="45.17647" lon="5.92068">
        <ele>1678.8</ele>
        <time>2021-02-20T08:53:11Z</time>
      </trkpt>
      <trkpt lat="45.17646" lon="5.92068">
        <ele>1678.9</ele>
        <time>2021-02-20T08:53:12Z</time>
      </trkpt>
      <trkpt lat="45.17645" lon="5.9207">
        <ele>1679.1</ele>
        <time>2021-02-20T08:53:13Z</time>
      </trkpt>
      <trkpt lat="45.17642" lon="5.92073">
        <ele>1679.3</ele>
        <time>2021-02-20T08:53:14Z</time>
      </trkpt>
      <trkpt lat="45.17642" lon="5.92073">
        <ele>1679.4</ele>
        <time>2021-02-20T08:53:15Z</time>
      </trkpt>
      <trkpt lat="45.17641" lon="5.92074">
        <ele>1679.4</ele>
        <time>2021-02-20T08:53:16Z</time>
      </trkpt>
      <trkpt lat="45.1764" lon="5.92074">
        <ele>1679.5</ele>
        <time>2021-02-20T08:53:17Z</time>
      </trkpt>
      <trkpt lat="45.17638" lon="5.92073">
        <ele>1679.6</ele>
        <time>2021-02-20T08:53:18Z</time>
      </trkpt>
      <trkpt lat="45.17636" lon="5.92073">
        <ele>1679.7</ele>
        <time>2021-02-20T08:53:19Z</time>
      </trkpt>
      <trkpt lat="45.17635" lon="5.92073">
        <ele>1679.8</ele>
        <time>2021-02-20T08:53:20Z</time>
      </trkpt>
      <trkpt lat="45.17635" lon="5.92073">
        <ele>1679.8</ele>
        <time>2021-02-20T08:53:21Z</time>
      </trkpt>
      <trkpt lat="45.17633" lon="5.92073">
        <ele>1680</ele>
        <time>2021-02-20T08:53:22Z</time>
      </trkpt>
      <trkpt lat="45.17631" lon="5.92073">
        <ele>1680.1</ele>
        <time>2021-02-20T08:53:23Z</time>
      </trkpt>
      <trkpt lat="45.1763" lon="5.92073">
        <ele>1680.1</ele>
        <time>2021-02-20T08:53:24Z</time>
      </trkpt>
      <trkpt lat="45.17629" lon="5.92074">
        <ele>1680.2</ele>
        <time>2021-02-20T08:53:25Z</time>
      </trkpt>
      <trkpt lat="45.17628" lon="5.92075">
        <ele>1680.3</ele>
        <time>2021-02-20T08:53:26Z</time>
      </trkpt>
      <trkpt lat="45.17627" lon="5.92076">
        <ele>1680.4</ele>
        <time>2021-02-20T08:53:27Z</time>
      </trkpt>
      <trkpt lat="45.17626" lon="5.92077">
        <ele>1680.5</ele>
        <time>2021-02-20T08:53:28Z</time>
      </trkpt>
      <trkpt lat="45.17626" lon="5.92078">
        <ele>1680.5</ele>
        <time>2021-02-20T08:53:29Z</time>
      </trkpt>
      <trkpt lat="45.17625" lon="5.92078">
        <ele>1680.6</ele>
        <time>2021-02-20T08:53:30Z</time>
      </trkpt>
      <trkpt lat="45.17624" lon="5.92079">
        <ele>1680.6</ele>
        <time>2021-02-20T08:53:31Z</time>
      </trkpt>
      <trkpt lat="45.17623" lon="5.9208">
        <ele>1680.7</ele>
        <time>2021-02-20T08:53:32Z</time>
      </trkpt>
      <trkpt lat="45.17622" lon="5.92081">
        <ele>1680.8</ele>
        <time>2021-02-20T08:53:33Z</time>
      </trkpt>
      <trkpt lat="45.17622" lon="5.92083">
        <ele>1680.9</ele>
        <time>2021-02-20T08:53:34Z</time>
      </trkpt>
      <trkpt lat="45.17622" lon="5.92084">
        <ele>1680.9</ele>
        <time>2021-02-20T08:53:35Z</time>
      </trkpt>
      <trkpt lat="45.17621" lon="5.92086">
        <ele>1681</ele>
        <time>2021-02-20T08:53:36Z</time>
      </trkpt>
      <trkpt lat="45.1762" lon="5.92088">
        <ele>1681.2</ele>
        <time>2021-02-20T08:53:37Z</time>
      </trkpt>
      <trkpt lat="45.17619" lon="5.9209">
        <ele>1681.3</ele>
        <time>2021-02-20T08:53:38Z</time>
      </trkpt>
      <trkpt lat="45.17619" lon="5.92091">
        <ele>1681.3</ele>
        <time>2021-02-20T08:53:39Z</time>
      </trkpt>
      <trkpt lat="45.17618" lon="5.92092">
        <ele>1681.4</ele>
        <time>2021-02-20T08:53:40Z</time>
      </trkpt>
      <trkpt lat="45.17617" lon="5.92093">
        <ele>1681.5</ele>
        <time>2021-02-20T08:53:41Z</time>
      </trkpt>
      <trkpt lat="45.17616" lon="5.92093">
        <ele>1681.6</ele>
        <time>2021-02-20T08:53:42Z</time>
      </trkpt>
      <trkpt lat="45.17615" lon="5.92094">
        <ele>1681.6</ele>
        <time>2021-02-20T08:53:43Z</time>
      </trkpt>
      <trkpt lat="45.17614" lon="5.92095">
        <ele>1681.7</ele>
        <time>2021-02-20T08:53:44Z</time>
      </trkpt>
      <trkpt lat="45.17613" lon="5.92097">
        <ele>1681.8</ele>
        <time>2021-02-20T08:53:45Z</time>
      </trkpt>
      <trkpt lat="45.17613" lon="5.92098">
        <ele>1681.9</ele>
        <time>2021-02-20T08:53:46Z</time>
      </trkpt>
      <trkpt lat="45.17613" lon="5.921">
        <ele>1682</ele>
        <time>2021-02-20T08:53:47Z</time>
      </trkpt>
      <trkpt lat="45.17612" lon="5.92101">
        <ele>1682</ele>
        <time>2021-02-20T08:53:48Z</time>
      </trkpt>
      <trkpt lat="45.17612" lon="5.92104">
        <ele>1682.2</ele>
        <time>2021-02-20T08:53:49Z</time>
      </trkpt>
      <trkpt lat="45.17611" lon="5.92106">
        <ele>1682.3</ele>
        <time>2021-02-20T08:53:50Z</time>
      </trkpt>
      <trkpt lat="45.17611" lon="5.92107">
        <ele>1682.3</ele>
        <time>2021-02-20T08:53:51Z</time>
      </trkpt>
      <trkpt lat="45.1761" lon="5.9211">
        <ele>1682.5</ele>
        <time>2021-02-20T08:53:52Z</time>
      </trkpt>
      <trkpt lat="45.1761" lon="5.92111">
        <ele>1682.5</ele>
        <time>2021-02-20T08:53:53Z</time>
      </trkpt>
      <trkpt lat="45.1761" lon="5.92112">
        <ele>1682.6</ele>
        <time>2021-02-20T08:53:54Z</time>
      </trkpt>
      <trkpt lat="45.17609" lon="5.92114">
        <ele>1682.7</ele>
        <time>2021-02-20T08:53:55Z</time>
      </trkpt>
      <trkpt lat="45.17609" lon="5.92117">
        <ele>1682.8</ele>
        <time>2021-02-20T08:53:56Z</time>
      </trkpt>
      <trkpt lat="45.17608" lon="5.92118">
        <ele>1682.9</ele>
        <time>2021-02-20T08:53:57Z</time>
      </trkpt>
      <trkpt lat="45.17607" lon="5.92119">
        <ele>1682.9</ele>
        <time>2021-02-20T08:53:58Z</time>
      </trkpt>
      <trkpt lat="45.17607" lon="5.9212">
        <ele>1682.9</ele>
        <time>2021-02-20T08:53:59Z</time>
      </trkpt>
      <trkpt lat="45.17607" lon="5.92121">
        <ele>1683</ele>
        <time>2021-02-20T08:54:00Z</time>
      </trkpt>
      <trkpt lat="45.17607" lon="5.92121">
        <ele>1683</ele>
        <time>2021-02-20T08:54:01Z</time>
      </trkpt>
      <trkpt lat="45.17607" lon="5.92122">
        <ele>1683</ele>
        <time>2021-02-20T08:54:02Z</time>
      </trkpt>
      <trkpt lat="45.17606" lon="5.92122">
        <ele>1683.1</ele>
        <time>2021-02-20T08:54:03Z</time>
      </trkpt>
      <trkpt lat="45.17606" lon="5.92123">
        <ele>1683.1</ele>
        <time>2021-02-20T08:54:04Z</time>
      </trkpt>
      <trkpt lat="45.17606" lon="5.92123">
        <ele>1683.1</ele>
        <time>2021-02-20T08:54:05Z</time>
      </trkpt>
      <trkpt lat="45.17605" lon="5.92124">
        <ele>1683.2</ele>
        <time>2021-02-20T08:54:06Z</time>
      </trkpt>
      <trkpt lat="45.17605" lon="5.92124">
        <ele>1683.2</ele>
        <time>2021-02-20T08:54:07Z</time>
      </trkpt>
      <trkpt lat="45.17604" lon="5.92125">
        <ele>1683.2</ele>
        <time>2021-02-20T08:54:08Z</time>
      </trkpt>
      <trkpt lat="45.17603" lon="5.92125">
        <ele>1683.3</ele>
        <time>2021-02-20T08:54:09Z</time>
      </trkpt>
      <trkpt lat="45.17602" lon="5.92126">
        <ele>1683.3</ele>
        <time>2021-02-20T08:54:10Z</time>
      </trkpt>
      <trkpt lat="45.17601" lon="5.92126">
        <ele>1683.4</ele>
        <time>2021-02-20T08:54:11Z</time>
      </trkpt>
      <trkpt lat="45.176" lon="5.92127">
        <ele>1683.4</ele>
        <time>2021-02-20T08:54:12Z</time>
      </trkpt>
      <trkpt lat="45.17599" lon="5.92126">
        <ele>1683.5</ele>
        <time>2021-02-20T08:54:13Z</time>
      </trkpt>
      <trkpt lat="45.17598" lon="5.92125">
        <ele>1683.6</ele>
        <time>2021-02-20T08:54:14Z</time>
      </trkpt>
      <trkpt lat="45.17597" lon="5.92124">
        <ele>1683.6</ele>
        <time>2021-02-20T08:54:15Z</time>
      </trkpt>
      <trkpt lat="45.17597" lon="5.92124">
        <ele>1683.7</ele>
        <time>2021-02-20T08:54:16Z</time>
      </trkpt>
      <trkpt lat="45.17595" lon="5.92125">
        <ele>1683.8</ele>
        <time>2021-02-20T08:54:17Z</time>
      </trkpt>
      <trkpt lat="45.17594" lon="5.92127">
        <ele>1683.9</ele>
        <time>2021-02-20T08:54:18Z</time>
      </trkpt>
      <trkpt lat="45.17594" lon="5.92129">
        <ele>1683.9</ele>
        <time>2021-02-20T08:54:19Z</time>
      </trkpt>
      <trkpt lat="45.17594" lon="5.92131">
        <ele>1684</ele>
        <time>2021-02-20T08:54:20Z</time>
      </trkpt>
      <trkpt lat="45.17593" lon="5.92133">
        <ele>1684.1</ele>
        <time>2021-02-20T08:54:21Z</time>
      </trkpt>
      <trkpt lat="45.17592" lon="5.92135">
        <ele>1684.2</ele>
        <time>2021-02-20T08:54:22Z</time>
      </trkpt>
      <trkpt lat="45.17591" lon="5.92137">
        <ele>1684.3</ele>
        <time>2021-02-20T08:54:23Z</time>
      </trkpt>
      <trkpt lat="45.1759" lon="5.92138">
        <ele>1684.4</ele>
        <time>2021-02-20T08:54:24Z</time>
      </trkpt>
      <trkpt lat="45.17589" lon="5.9214">
        <ele>1684.5</ele>
        <time>2021-02-20T08:54:25Z</time>
      </trkpt>
      <trkpt lat="45.17588" lon="5.92143">
        <ele>1684.6</ele>
        <time>2021-02-20T08:54:26Z</time>
      </trkpt>
      <trkpt lat="45.17586" lon="5.92147">
        <ele>1684.7</ele>
        <time>2021-02-20T08:54:27Z</time>
      </trkpt>
      <trkpt lat="45.17586" lon="5.92148">
        <ele>1684.7</ele>
        <time>2021-02-20T08:54:28Z</time>
      </trkpt>
      <trkpt lat="45.17585" lon="5.9215">
        <ele>1684.8</ele>
        <time>2021-02-20T08:54:29Z</time>
      </trkpt>
      <trkpt lat="45.17585" lon="5.92152">
        <ele>1684.9</ele>
        <time>2021-02-20T08:54:30Z</time>
      </trkpt>
      <trkpt lat="45.17584" lon="5.92154">
        <ele>1684.9</ele>
        <time>2021-02-20T08:54:31Z</time>
      </trkpt>
      <trkpt lat="45.17584" lon="5.92155">
        <ele>1685</ele>
        <time>2021-02-20T08:54:32Z</time>
      </trkpt>
      <trkpt lat="45.17583" lon="5.92156">
        <ele>1685</ele>
        <time>2021-02-20T08:54:33Z</time>
      </trkpt>
      <trkpt lat="45.17582" lon="5.92156">
        <ele>1685.1</ele>
        <time>2021-02-20T08:54:34Z</time>
      </trkpt>
      <trkpt lat="45.17581" lon="5.92157">
        <ele>1685.1</ele>
        <time>2021-02-20T08:54:35Z</time>
      </trkpt>
      <trkpt lat="45.1758" lon="5.92158">
        <ele>1685.2</ele>
        <time>2021-02-20T08:54:36Z</time>
      </trkpt>
      <trkpt lat="45.17578" lon="5.92159">
        <ele>1685.3</ele>
        <time>2021-02-20T08:54:37Z</time>
      </trkpt>
      <trkpt lat="45.17577" lon="5.92159">
        <ele>1685.3</ele>
        <time>2021-02-20T08:54:38Z</time>
      </trkpt>
      <trkpt lat="45.17576" lon="5.92159">
        <ele>1685.4</ele>
        <time>2021-02-20T08:54:39Z</time>
      </trkpt>
      <trkpt lat="45.17575" lon="5.92159">
        <ele>1685.4</ele>
        <time>2021-02-20T08:54:40Z</time>
      </trkpt>
      <trkpt lat="45.17575" lon="5.92159">
        <ele>1685.5</ele>
        <time>2021-02-20T08:54:41Z</time>
      </trkpt>
      <trkpt lat="45.17574" lon="5.9216">
        <ele>1685.5</ele>
        <time>2021-02-20T08:54:42Z</time>
      </trkpt>
      <trkpt lat="45.17573" lon="5.9216">
        <ele>1685.6</ele>
        <time>2021-02-20T08:54:43Z</time>
      </trkpt>
      <trkpt lat="45.17572" lon="5.92161">
        <ele>1685.6</ele>
        <time>2021-02-20T08:54:44Z</time>
      </trkpt>
      <trkpt lat="45.17572" lon="5.92161">
        <ele>1685.6</ele>
        <time>2021-02-20T08:54:45Z</time>
      </trkpt>
      <trkpt lat="45.17571" lon="5.92161">
        <ele>1685.7</ele>
        <time>2021-02-20T08:54:46Z</time>
      </trkpt>
      <trkpt lat="45.1757" lon="5.92162">
        <ele>1685.7</ele>
        <time>2021-02-20T08:54:47Z</time>
      </trkpt>
      <trkpt lat="45.17569" lon="5.92163">
        <ele>1685.8</ele>
        <time>2021-02-20T08:54:48Z</time>
      </trkpt>
      <trkpt lat="45.17569" lon="5.92164">
        <ele>1685.8</ele>
        <time>2021-02-20T08:54:49Z</time>
      </trkpt>
      <trkpt lat="45.17568" lon="5.92166">
        <ele>1685.9</ele>
        <time>2021-02-20T08:54:50Z</time>
      </trkpt>
      <trkpt lat="45.17568" lon="5.92168">
        <ele>1686</ele>
        <time>2021-02-20T08:54:51Z</time>
      </trkpt>
      <trkpt lat="45.17568" lon="5.92169">
        <ele>1686</ele>
        <time>2021-02-20T08:54:52Z</time>
      </trkpt>
      <trkpt lat="45.17567" lon="5.92172">
        <ele>1686.1</ele>
        <time>2021-02-20T08:54:53Z</time>
      </trkpt>
      <trkpt lat="45.17567" lon="5.92174">
        <ele>1686.2</ele>
        <time>2021-02-20T08:54:54Z</time>
      </trkpt>
      <trkpt lat="45.17566" lon="5.92176">
        <ele>1686.3</ele>
        <time>2021-02-20T08:54:55Z</time>
      </trkpt>
      <trkpt lat="45.17566" lon="5.92177">
        <ele>1686.3</ele>
        <time>2021-02-20T08:54:56Z</time>
      </trkpt>
      <trkpt lat="45.17566" lon="5.92178">
        <ele>1686.4</ele>
        <time>2021-02-20T08:54:57Z</time>
      </trkpt>
      <trkpt lat="45.17566" lon="5.92179">
        <ele>1686.4</ele>
        <time>2021-02-20T08:54:58Z</time>
      </trkpt>
      <trkpt lat="45.17566" lon="5.9218">
        <ele>1686.4</ele>
        <time>2021-02-20T08:54:59Z</time>
      </trkpt>
      <trkpt lat="45.17565" lon="5.92181">
        <ele>1686.5</ele>
        <time>2021-02-20T08:55:00Z</time>
      </trkpt>
      <trkpt lat="45.17565" lon="5.92183">
        <ele>1686.5</ele>
        <time>2021-02-20T08:55:01Z</time>
      </trkpt>
      <trkpt lat="45.17565" lon="5.92184">
        <ele>1686.6</ele>
        <time>2021-02-20T08:55:02Z</time>
      </trkpt>
      <trkpt lat="45.17564" lon="5.92185">
        <ele>1686.6</ele>
        <time>2021-02-20T08:55:03Z</time>
      </trkpt>
      <trkpt lat="45.17564" lon="5.92187">
        <ele>1686.7</ele>
        <time>2021-02-20T08:55:04Z</time>
      </trkpt>
      <trkpt lat="45.17563" lon="5.92188">
        <ele>1686.8</ele>
        <time>2021-02-20T08:55:05Z</time>
      </trkpt>
      <trkpt lat="45.17562" lon="5.92189">
        <ele>1686.8</ele>
        <time>2021-02-20T08:55:06Z</time>
      </trkpt>
      <trkpt lat="45.17562" lon="5.92191">
        <ele>1686.9</ele>
        <time>2021-02-20T08:55:07Z</time>
      </trkpt>
      <trkpt lat="45.17561" lon="5.92193">
        <ele>1687</ele>
        <time>2021-02-20T08:55:08Z</time>
      </trkpt>
      <trkpt lat="45.1756" lon="5.92194">
        <ele>1687.1</ele>
        <time>2021-02-20T08:55:09Z</time>
      </trkpt>
      <trkpt lat="45.1756" lon="5.92195">
        <ele>1687.1</ele>
        <time>2021-02-20T08:55:10Z</time>
      </trkpt>
      <trkpt lat="45.17559" lon="5.92197">
        <ele>1687.2</ele>
        <time>2021-02-20T08:55:11Z</time>
      </trkpt>
      <trkpt lat="45.17558" lon="5.92198">
        <ele>1687.3</ele>
        <time>2021-02-20T08:55:12Z</time>
      </trkpt>
      <trkpt lat="45.17557" lon="5.92199">
        <ele>1687.3</ele>
        <time>2021-02-20T08:55:13Z</time>
      </trkpt>
      <trkpt lat="45.17557" lon="5.922">
        <ele>1687.4</ele>
        <time>2021-02-20T08:55:14Z</time>
      </trkpt>
      <trkpt lat="45.17556" lon="5.92201">
        <ele>1687.4</ele>
        <time>2021-02-20T08:55:15Z</time>
      </trkpt>
      <trkpt lat="45.17555" lon="5.92203">
        <ele>1687.5</ele>
        <time>2021-02-20T08:55:16Z</time>
      </trkpt>
      <trkpt lat="45.17554" lon="5.92204">
        <ele>1687.6</ele>
        <time>2021-02-20T08:55:17Z</time>
      </trkpt>
      <trkpt lat="45.17554" lon="5.92205">
        <ele>1687.6</ele>
        <time>2021-02-20T08:55:18Z</time>
      </trkpt>
      <trkpt lat="45.17553" lon="5.92206">
        <ele>1687.7</ele>
        <time>2021-02-20T08:55:19Z</time>
      </trkpt>
      <trkpt lat="45.17553" lon="5.92207">
        <ele>1687.7</ele>
        <time>2021-02-20T08:55:20Z</time>
      </trkpt>
      <trkpt lat="45.17552" lon="5.92208">
        <ele>1687.8</ele>
        <time>2021-02-20T08:55:21Z</time>
      </trkpt>
      <trkpt lat="45.17552" lon="5.92209">
        <ele>1687.8</ele>
        <time>2021-02-20T08:55:22Z</time>
      </trkpt>
      <trkpt lat="45.17552" lon="5.9221">
        <ele>1687.8</ele>
        <time>2021-02-20T08:55:23Z</time>
      </trkpt>
      <trkpt lat="45.17551" lon="5.92211">
        <ele>1687.9</ele>
        <time>2021-02-20T08:55:24Z</time>
      </trkpt>
      <trkpt lat="45.1755" lon="5.92213">
        <ele>1688</ele>
        <time>2021-02-20T08:55:25Z</time>
      </trkpt>
      <trkpt lat="45.1755" lon="5.92214">
        <ele>1688</ele>
        <time>2021-02-20T08:55:26Z</time>
      </trkpt>
      <trkpt lat="45.17549" lon="5.92216">
        <ele>1688.1</ele>
        <time>2021-02-20T08:55:27Z</time>
      </trkpt>
      <trkpt lat="45.17548" lon="5.92218">
        <ele>1688.2</ele>
        <time>2021-02-20T08:55:28Z</time>
      </trkpt>
      <trkpt lat="45.17547" lon="5.9222">
        <ele>1688.3</ele>
        <time>2021-02-20T08:55:29Z</time>
      </trkpt>
      <trkpt lat="45.17547" lon="5.92221">
        <ele>1688.3</ele>
        <time>2021-02-20T08:55:30Z</time>
      </trkpt>
      <trkpt lat="45.17547" lon="5.92222">
        <ele>1688.4</ele>
        <time>2021-02-20T08:55:31Z</time>
      </trkpt>
      <trkpt lat="45.17546" lon="5.92223">
        <ele>1688.4</ele>
        <time>2021-02-20T08:55:32Z</time>
      </trkpt>
      <trkpt lat="45.17545" lon="5.92224">
        <ele>1688.5</ele>
        <time>2021-02-20T08:55:33Z</time>
      </trkpt>
      <trkpt lat="45.17545" lon="5.92225">
        <ele>1688.5</ele>
        <time>2021-02-20T08:55:34Z</time>
      </trkpt>
      <trkpt lat="45.17544" lon="5.92228">
        <ele>1688.6</ele>
        <time>2021-02-20T08:55:35Z</time>
      </trkpt>
      <trkpt lat="45.17543" lon="5.92229">
        <ele>1688.7</ele>
        <time>2021-02-20T08:55:36Z</time>
      </trkpt>
      <trkpt lat="45.17543" lon="5.92231">
        <ele>1688.7</ele>
        <time>2021-02-20T08:55:37Z</time>
      </trkpt>
      <trkpt lat="45.17542" lon="5.92233">
        <ele>1688.9</ele>
        <time>2021-02-20T08:55:38Z</time>
      </trkpt>
      <trkpt lat="45.17542" lon="5.92234">
        <ele>1688.9</ele>
        <time>2021-02-20T08:55:39Z</time>
      </trkpt>
      <trkpt lat="45.17541" lon="5.92235">
        <ele>1688.9</ele>
        <time>2021-02-20T08:55:40Z</time>
      </trkpt>
      <trkpt lat="45.17541" lon="5.92236">
        <ele>1689</ele>
        <time>2021-02-20T08:55:41Z</time>
      </trkpt>
      <trkpt lat="45.17541" lon="5.92236">
        <ele>1689</ele>
        <time>2021-02-20T08:55:42Z</time>
      </trkpt>
      <trkpt lat="45.17541" lon="5.92237">
        <ele>1689</ele>
        <time>2021-02-20T08:55:43Z</time>
      </trkpt>
      <trkpt lat="45.1754" lon="5.92238">
        <ele>1689.1</ele>
        <time>2021-02-20T08:55:44Z</time>
      </trkpt>
      <trkpt lat="45.1754" lon="5.92239">
        <ele>1689.2</ele>
        <time>2021-02-20T08:55:45Z</time>
      </trkpt>
      <trkpt lat="45.1754" lon="5.92241">
        <ele>1689.2</ele>
        <time>2021-02-20T08:55:46Z</time>
      </trkpt>
      <trkpt lat="45.1754" lon="5.92242">
        <ele>1689.3</ele>
        <time>2021-02-20T08:55:47Z</time>
      </trkpt>
      <trkpt lat="45.17539" lon="5.92244">
        <ele>1689.4</ele>
        <time>2021-02-20T08:55:48Z</time>
      </trkpt>
      <trkpt lat="45.17539" lon="5.92245">
        <ele>1689.5</ele>
        <time>2021-02-20T08:55:49Z</time>
      </trkpt>
      <trkpt lat="45.17539" lon="5.92247">
        <ele>1689.5</ele>
        <time>2021-02-20T08:55:50Z</time>
      </trkpt>
      <trkpt lat="45.17539" lon="5.92248">
        <ele>1689.6</ele>
        <time>2021-02-20T08:55:51Z</time>
      </trkpt>
      <trkpt lat="45.17539" lon="5.92248">
        <ele>1689.6</ele>
        <time>2021-02-20T08:55:52Z</time>
      </trkpt>
      <trkpt lat="45.17539" lon="5.92248">
        <ele>1689.7</ele>
        <time>2021-02-20T08:55:53Z</time>
      </trkpt>
      <trkpt lat="45.17539" lon="5.92248">
        <ele>1689.7</ele>
        <time>2021-02-20T08:55:54Z</time>
      </trkpt>
      <trkpt lat="45.17539" lon="5.92248">
        <ele>1689.7</ele>
        <time>2021-02-20T08:55:55Z</time>
      </trkpt>
      <trkpt lat="45.17538" lon="5.92249">
        <ele>1689.8</ele>
        <time>2021-02-20T08:55:56Z</time>
      </trkpt>
      <trkpt lat="45.17538" lon="5.92251">
        <ele>1689.9</ele>
        <time>2021-02-20T08:55:57Z</time>
      </trkpt>
      <trkpt lat="45.17537" lon="5.92254">
        <ele>1690.1</ele>
        <time>2021-02-20T08:55:58Z</time>
      </trkpt>
      <trkpt lat="45.17537" lon="5.92255">
        <ele>1690.1</ele>
        <time>2021-02-20T08:55:59Z</time>
      </trkpt>
      <trkpt lat="45.17536" lon="5.92256">
        <ele>1690.2</ele>
        <time>2021-02-20T08:56:00Z</time>
      </trkpt>
      <trkpt lat="45.17535" lon="5.92259">
        <ele>1690.4</ele>
        <time>2021-02-20T08:56:01Z</time>
      </trkpt>
      <trkpt lat="45.17535" lon="5.9226">
        <ele>1690.4</ele>
        <time>2021-02-20T08:56:02Z</time>
      </trkpt>
      <trkpt lat="45.17535" lon="5.92261">
        <ele>1690.5</ele>
        <time>2021-02-20T08:56:03Z</time>
      </trkpt>
      <trkpt lat="45.17535" lon="5.92263">
        <ele>1690.5</ele>
        <time>2021-02-20T08:56:04Z</time>
      </trkpt>
      <trkpt lat="45.17534" lon="5.92264">
        <ele>1690.6</ele>
        <time>2021-02-20T08:56:05Z</time>
      </trkpt>
      <trkpt lat="45.17534" lon="5.92266">
        <ele>1690.7</ele>
        <time>2021-02-20T08:56:06Z</time>
      </trkpt>
      <trkpt lat="45.17533" lon="5.92267">
        <ele>1690.8</ele>
        <time>2021-02-20T08:56:07Z</time>
      </trkpt>
      <trkpt lat="45.17533" lon="5.92268">
        <ele>1690.9</ele>
        <time>2021-02-20T08:56:08Z</time>
      </trkpt>
      <trkpt lat="45.17532" lon="5.9227">
        <ele>1691</ele>
        <time>2021-02-20T08:56:09Z</time>
      </trkpt>
      <trkpt lat="45.17532" lon="5.92271">
        <ele>1691</ele>
        <time>2021-02-20T08:56:10Z</time>
      </trkpt>
      <trkpt lat="45.17531" lon="5.92273">
        <ele>1691.1</ele>
        <time>2021-02-20T08:56:11Z</time>
      </trkpt>
      <trkpt lat="45.17531" lon="5.92274">
        <ele>1691.2</ele>
        <time>2021-02-20T08:56:12Z</time>
      </trkpt>
      <trkpt lat="45.1753" lon="5.92277">
        <ele>1691.3</ele>
        <time>2021-02-20T08:56:13Z</time>
      </trkpt>
      <trkpt lat="45.17529" lon="5.92278">
        <ele>1691.4</ele>
        <time>2021-02-20T08:56:14Z</time>
      </trkpt>
      <trkpt lat="45.17529" lon="5.92279">
        <ele>1691.4</ele>
        <time>2021-02-20T08:56:15Z</time>
      </trkpt>
      <trkpt lat="45.17528" lon="5.9228">
        <ele>1691.5</ele>
        <time>2021-02-20T08:56:16Z</time>
      </trkpt>
      <trkpt lat="45.17528" lon="5.92282">
        <ele>1691.6</ele>
        <time>2021-02-20T08:56:17Z</time>
      </trkpt>
      <trkpt lat="45.17527" lon="5.92283">
        <ele>1691.6</ele>
        <time>2021-02-20T08:56:18Z</time>
      </trkpt>
      <trkpt lat="45.17526" lon="5.92284">
        <ele>1691.7</ele>
        <time>2021-02-20T08:56:19Z</time>
      </trkpt>
      <trkpt lat="45.17525" lon="5.92286">
        <ele>1691.8</ele>
        <time>2021-02-20T08:56:20Z</time>
      </trkpt>
      <trkpt lat="45.17524" lon="5.92287">
        <ele>1691.9</ele>
        <time>2021-02-20T08:56:21Z</time>
      </trkpt>
      <trkpt lat="45.17523" lon="5.92289">
        <ele>1691.9</ele>
        <time>2021-02-20T08:56:22Z</time>
      </trkpt>
      <trkpt lat="45.17523" lon="5.9229">
        <ele>1692</ele>
        <time>2021-02-20T08:56:23Z</time>
      </trkpt>
      <trkpt lat="45.17523" lon="5.92291">
        <ele>1692</ele>
        <time>2021-02-20T08:56:24Z</time>
      </trkpt>
      <trkpt lat="45.17522" lon="5.92292">
        <ele>1692.1</ele>
        <time>2021-02-20T08:56:25Z</time>
      </trkpt>
      <trkpt lat="45.17521" lon="5.92294">
        <ele>1692.2</ele>
        <time>2021-02-20T08:56:26Z</time>
      </trkpt>
      <trkpt lat="45.1752" lon="5.92297">
        <ele>1692.3</ele>
        <time>2021-02-20T08:56:27Z</time>
      </trkpt>
      <trkpt lat="45.1752" lon="5.92298">
        <ele>1692.3</ele>
        <time>2021-02-20T08:56:28Z</time>
      </trkpt>
      <trkpt lat="45.17519" lon="5.92299">
        <ele>1692.4</ele>
        <time>2021-02-20T08:56:29Z</time>
      </trkpt>
      <trkpt lat="45.17519" lon="5.923">
        <ele>1692.4</ele>
        <time>2021-02-20T08:56:30Z</time>
      </trkpt>
      <trkpt lat="45.17518" lon="5.92301">
        <ele>1692.5</ele>
        <time>2021-02-20T08:56:31Z</time>
      </trkpt>
      <trkpt lat="45.17518" lon="5.92302">
        <ele>1692.5</ele>
        <time>2021-02-20T08:56:32Z</time>
      </trkpt>
      <trkpt lat="45.17518" lon="5.92303">
        <ele>1692.6</ele>
        <time>2021-02-20T08:56:33Z</time>
      </trkpt>
      <trkpt lat="45.17518" lon="5.92305">
        <ele>1692.6</ele>
        <time>2021-02-20T08:56:34Z</time>
      </trkpt>
      <trkpt lat="45.17518" lon="5.92306">
        <ele>1692.7</ele>
        <time>2021-02-20T08:56:35Z</time>
      </trkpt>
      <trkpt lat="45.17519" lon="5.92307">
        <ele>1692.7</ele>
        <time>2021-02-20T08:56:36Z</time>
      </trkpt>
      <trkpt lat="45.1752" lon="5.92311">
        <ele>1692.9</ele>
        <time>2021-02-20T08:56:37Z</time>
      </trkpt>
      <trkpt lat="45.17521" lon="5.92312">
        <ele>1692.9</ele>
        <time>2021-02-20T08:56:38Z</time>
      </trkpt>
      <trkpt lat="45.17522" lon="5.92314">
        <ele>1693</ele>
        <time>2021-02-20T08:56:39Z</time>
      </trkpt>
      <trkpt lat="45.17522" lon="5.92315">
        <ele>1693.1</ele>
        <time>2021-02-20T08:56:40Z</time>
      </trkpt>
      <trkpt lat="45.17523" lon="5.92316">
        <ele>1693.1</ele>
        <time>2021-02-20T08:56:41Z</time>
      </trkpt>
      <trkpt lat="45.17525" lon="5.92318">
        <ele>1693.3</ele>
        <time>2021-02-20T08:56:42Z</time>
      </trkpt>
      <trkpt lat="45.17526" lon="5.92318">
        <ele>1693.3</ele>
        <time>2021-02-20T08:56:43Z</time>
      </trkpt>
      <trkpt lat="45.17526" lon="5.92319">
        <ele>1693.4</ele>
        <time>2021-02-20T08:56:44Z</time>
      </trkpt>
      <trkpt lat="45.17527" lon="5.92321">
        <ele>1693.4</ele>
        <time>2021-02-20T08:56:45Z</time>
      </trkpt>
      <trkpt lat="45.17528" lon="5.92322">
        <ele>1693.5</ele>
        <time>2021-02-20T08:56:46Z</time>
      </trkpt>
      <trkpt lat="45.1753" lon="5.92323">
        <ele>1693.6</ele>
        <time>2021-02-20T08:56:47Z</time>
      </trkpt>
      <trkpt lat="45.1753" lon="5.92323">
        <ele>1693.6</ele>
        <time>2021-02-20T08:56:48Z</time>
      </trkpt>
      <trkpt lat="45.17531" lon="5.92324">
        <ele>1693.7</ele>
        <time>2021-02-20T08:56:49Z</time>
      </trkpt>
      <trkpt lat="45.17533" lon="5.92326">
        <ele>1693.8</ele>
        <time>2021-02-20T08:56:50Z</time>
      </trkpt>
      <trkpt lat="45.17534" lon="5.92326">
        <ele>1693.8</ele>
        <time>2021-02-20T08:56:51Z</time>
      </trkpt>
      <trkpt lat="45.17534" lon="5.92327">
        <ele>1693.9</ele>
        <time>2021-02-20T08:56:52Z</time>
      </trkpt>
      <trkpt lat="45.17535" lon="5.92329">
        <ele>1694</ele>
        <time>2021-02-20T08:56:53Z</time>
      </trkpt>
      <trkpt lat="45.17536" lon="5.9233">
        <ele>1694</ele>
        <time>2021-02-20T08:56:54Z</time>
      </trkpt>
      <trkpt lat="45.17537" lon="5.92332">
        <ele>1694.1</ele>
        <time>2021-02-20T08:56:55Z</time>
      </trkpt>
      <trkpt lat="45.17538" lon="5.92333">
        <ele>1694.2</ele>
        <time>2021-02-20T08:56:56Z</time>
      </trkpt>
      <trkpt lat="45.17539" lon="5.92334">
        <ele>1694.2</ele>
        <time>2021-02-20T08:56:57Z</time>
      </trkpt>
      <trkpt lat="45.1754" lon="5.92335">
        <ele>1694.2</ele>
        <time>2021-02-20T08:56:58Z</time>
      </trkpt>
      <trkpt lat="45.1754" lon="5.92336">
        <ele>1694.3</ele>
        <time>2021-02-20T08:56:59Z</time>
      </trkpt>
      <trkpt lat="45.17541" lon="5.92337">
        <ele>1694.3</ele>
        <time>2021-02-20T08:57:00Z</time>
      </trkpt>
      <trkpt lat="45.17541" lon="5.92338">
        <ele>1694.3</ele>
        <time>2021-02-20T08:57:01Z</time>
      </trkpt>
      <trkpt lat="45.17542" lon="5.92339">
        <ele>1694.4</ele>
        <time>2021-02-20T08:57:02Z</time>
      </trkpt>
      <trkpt lat="45.17543" lon="5.9234">
        <ele>1694.4</ele>
        <time>2021-02-20T08:57:03Z</time>
      </trkpt>
      <trkpt lat="45.17544" lon="5.92342">
        <ele>1694.5</ele>
        <time>2021-02-20T08:57:04Z</time>
      </trkpt>
      <trkpt lat="45.17544" lon="5.92342">
        <ele>1694.5</ele>
        <time>2021-02-20T08:57:05Z</time>
      </trkpt>
      <trkpt lat="45.17544" lon="5.92343">
        <ele>1694.5</ele>
        <time>2021-02-20T08:57:06Z</time>
      </trkpt>
      <trkpt lat="45.17544" lon="5.92344">
        <ele>1694.5</ele>
        <time>2021-02-20T08:57:07Z</time>
      </trkpt>
      <trkpt lat="45.17545" lon="5.92345">
        <ele>1694.6</ele>
        <time>2021-02-20T08:57:08Z</time>
      </trkpt>
      <trkpt lat="45.17545" lon="5.92349">
        <ele>1694.7</ele>
        <time>2021-02-20T08:57:09Z</time>
      </trkpt>
      <trkpt lat="45.17545" lon="5.9235">
        <ele>1694.7</ele>
        <time>2021-02-20T08:57:10Z</time>
      </trkpt>
      <trkpt lat="45.17545" lon="5.92353">
        <ele>1694.8</ele>
        <time>2021-02-20T08:57:11Z</time>
      </trkpt>
      <trkpt lat="45.17545" lon="5.92355">
        <ele>1694.8</ele>
        <time>2021-02-20T08:57:12Z</time>
      </trkpt>
      <trkpt lat="45.17545" lon="5.92356">
        <ele>1694.8</ele>
        <time>2021-02-20T08:57:13Z</time>
      </trkpt>
      <trkpt lat="45.17545" lon="5.92357">
        <ele>1694.9</ele>
        <time>2021-02-20T08:57:14Z</time>
      </trkpt>
      <trkpt lat="45.17544" lon="5.92358">
        <ele>1694.9</ele>
        <time>2021-02-20T08:57:15Z</time>
      </trkpt>
      <trkpt lat="45.17543" lon="5.92358">
        <ele>1694.9</ele>
        <time>2021-02-20T08:57:16Z</time>
      </trkpt>
      <trkpt lat="45.17542" lon="5.92358">
        <ele>1695</ele>
        <time>2021-02-20T08:57:17Z</time>
      </trkpt>
      <trkpt lat="45.17541" lon="5.92358">
        <ele>1695</ele>
        <time>2021-02-20T08:57:18Z</time>
      </trkpt>
      <trkpt lat="45.1754" lon="5.92359">
        <ele>1695</ele>
        <time>2021-02-20T08:57:19Z</time>
      </trkpt>
      <trkpt lat="45.17539" lon="5.92362">
        <ele>1695.1</ele>
        <time>2021-02-20T08:57:20Z</time>
      </trkpt>
      <trkpt lat="45.17539" lon="5.92363">
        <ele>1695.2</ele>
        <time>2021-02-20T08:57:21Z</time>
      </trkpt>
      <trkpt lat="45.17538" lon="5.92364">
        <ele>1695.2</ele>
        <time>2021-02-20T08:57:22Z</time>
      </trkpt>
      <trkpt lat="45.17537" lon="5.92365">
        <ele>1695.2</ele>
        <time>2021-02-20T08:57:23Z</time>
      </trkpt>
      <trkpt lat="45.17536" lon="5.92367">
        <ele>1695.3</ele>
        <time>2021-02-20T08:57:24Z</time>
      </trkpt>
      <trkpt lat="45.17536" lon="5.92367">
        <ele>1695.3</ele>
        <time>2021-02-20T08:57:25Z</time>
      </trkpt>
      <trkpt lat="45.17535" lon="5.92368">
        <ele>1695.4</ele>
        <time>2021-02-20T08:57:26Z</time>
      </trkpt>
      <trkpt lat="45.17534" lon="5.92369">
        <ele>1695.4</ele>
        <time>2021-02-20T08:57:27Z</time>
      </trkpt>
      <trkpt lat="45.17533" lon="5.9237">
        <ele>1695.5</ele>
        <time>2021-02-20T08:57:28Z</time>
      </trkpt>
      <trkpt lat="45.17532" lon="5.92371">
        <ele>1695.5</ele>
        <time>2021-02-20T08:57:29Z</time>
      </trkpt>
      <trkpt lat="45.17531" lon="5.92372">
        <ele>1695.6</ele>
        <time>2021-02-20T08:57:30Z</time>
      </trkpt>
      <trkpt lat="45.17531" lon="5.92372">
        <ele>1695.6</ele>
        <time>2021-02-20T08:57:31Z</time>
      </trkpt>
      <trkpt lat="45.1753" lon="5.92372">
        <ele>1695.6</ele>
        <time>2021-02-20T08:57:32Z</time>
      </trkpt>
      <trkpt lat="45.1753" lon="5.92371">
        <ele>1695.6</ele>
        <time>2021-02-20T08:57:33Z</time>
      </trkpt>
      <trkpt lat="45.17531" lon="5.9237">
        <ele>1695.7</ele>
        <time>2021-02-20T08:57:34Z</time>
      </trkpt>
      <trkpt lat="45.17531" lon="5.9237">
        <ele>1695.7</ele>
        <time>2021-02-20T08:57:35Z</time>
      </trkpt>
      <trkpt lat="45.17531" lon="5.9237">
        <ele>1695.7</ele>
        <time>2021-02-20T08:57:36Z</time>
      </trkpt>
      <trkpt lat="45.17529" lon="5.9237">
        <ele>1695.7</ele>
        <time>2021-02-20T08:57:37Z</time>
      </trkpt>
      <trkpt lat="45.17528" lon="5.92371">
        <ele>1695.8</ele>
        <time>2021-02-20T08:57:38Z</time>
      </trkpt>
      <trkpt lat="45.17526" lon="5.92371">
        <ele>1695.9</ele>
        <time>2021-02-20T08:57:39Z</time>
      </trkpt>
      <trkpt lat="45.17525" lon="5.92372">
        <ele>1696</ele>
        <time>2021-02-20T08:57:40Z</time>
      </trkpt>
      <trkpt lat="45.17523" lon="5.92373">
        <ele>1696.1</ele>
        <time>2021-02-20T08:57:41Z</time>
      </trkpt>
      <trkpt lat="45.17521" lon="5.92374">
        <ele>1696.2</ele>
        <time>2021-02-20T08:57:42Z</time>
      </trkpt>
      <trkpt lat="45.17519" lon="5.92376">
        <ele>1696.4</ele>
        <time>2021-02-20T08:57:43Z</time>
      </trkpt>
      <trkpt lat="45.17518" lon="5.92376">
        <ele>1696.4</ele>
        <time>2021-02-20T08:57:44Z</time>
      </trkpt>
      <trkpt lat="45.17517" lon="5.92377">
        <ele>1696.5</ele>
        <time>2021-02-20T08:57:45Z</time>
      </trkpt>
      <trkpt lat="45.17516" lon="5.92377">
        <ele>1696.5</ele>
        <time>2021-02-20T08:57:46Z</time>
      </trkpt>
      <trkpt lat="45.17515" lon="5.92377">
        <ele>1696.6</ele>
        <time>2021-02-20T08:57:47Z</time>
      </trkpt>
      <trkpt lat="45.17514" lon="5.92377">
        <ele>1696.6</ele>
        <time>2021-02-20T08:57:48Z</time>
      </trkpt>
      <trkpt lat="45.17514" lon="5.92377">
        <ele>1696.7</ele>
        <time>2021-02-20T08:57:49Z</time>
      </trkpt>
      <trkpt lat="45.17513" lon="5.92377">
        <ele>1696.7</ele>
        <time>2021-02-20T08:57:50Z</time>
      </trkpt>
      <trkpt lat="45.17512" lon="5.92378">
        <ele>1696.8</ele>
        <time>2021-02-20T08:57:51Z</time>
      </trkpt>
      <trkpt lat="45.1751" lon="5.9238">
        <ele>1696.9</ele>
        <time>2021-02-20T08:57:52Z</time>
      </trkpt>
      <trkpt lat="45.17509" lon="5.92381">
        <ele>1697</ele>
        <time>2021-02-20T08:57:53Z</time>
      </trkpt>
      <trkpt lat="45.17506" lon="5.92383">
        <ele>1697.2</ele>
        <time>2021-02-20T08:57:54Z</time>
      </trkpt>
      <trkpt lat="45.17505" lon="5.92384">
        <ele>1697.2</ele>
        <time>2021-02-20T08:57:55Z</time>
      </trkpt>
      <trkpt lat="45.17504" lon="5.92385">
        <ele>1697.3</ele>
        <time>2021-02-20T08:57:56Z</time>
      </trkpt>
      <trkpt lat="45.17503" lon="5.92386">
        <ele>1697.4</ele>
        <time>2021-02-20T08:57:57Z</time>
      </trkpt>
      <trkpt lat="45.17501" lon="5.92387">
        <ele>1697.5</ele>
        <time>2021-02-20T08:57:58Z</time>
      </trkpt>
      <trkpt lat="45.175" lon="5.92388">
        <ele>1697.6</ele>
        <time>2021-02-20T08:57:59Z</time>
      </trkpt>
      <trkpt lat="45.17498" lon="5.92389">
        <ele>1697.7</ele>
        <time>2021-02-20T08:58:00Z</time>
      </trkpt>
      <trkpt lat="45.17497" lon="5.92389">
        <ele>1697.7</ele>
        <time>2021-02-20T08:58:01Z</time>
      </trkpt>
      <trkpt lat="45.17497" lon="5.92389">
        <ele>1697.7</ele>
        <time>2021-02-20T08:58:02Z</time>
      </trkpt>
      <trkpt lat="45.17496" lon="5.92389">
        <ele>1697.8</ele>
        <time>2021-02-20T08:58:03Z</time>
      </trkpt>
      <trkpt lat="45.17494" lon="5.92391">
        <ele>1697.9</ele>
        <time>2021-02-20T08:58:04Z</time>
      </trkpt>
      <trkpt lat="45.17494" lon="5.92391">
        <ele>1697.9</ele>
        <time>2021-02-20T08:58:05Z</time>
      </trkpt>
      <trkpt lat="45.17493" lon="5.92392">
        <ele>1698</ele>
        <time>2021-02-20T08:58:06Z</time>
      </trkpt>
      <trkpt lat="45.17492" lon="5.92392">
        <ele>1698</ele>
        <time>2021-02-20T08:58:07Z</time>
      </trkpt>
      <trkpt lat="45.17491" lon="5.92394">
        <ele>1698.1</ele>
        <time>2021-02-20T08:58:08Z</time>
      </trkpt>
      <trkpt lat="45.1749" lon="5.92396">
        <ele>1698.2</ele>
        <time>2021-02-20T08:58:09Z</time>
      </trkpt>
      <trkpt lat="45.17489" lon="5.92397">
        <ele>1698.3</ele>
        <time>2021-02-20T08:58:10Z</time>
      </trkpt>
      <trkpt lat="45.17488" lon="5.92399">
        <ele>1698.3</ele>
        <time>2021-02-20T08:58:11Z</time>
      </trkpt>
      <trkpt lat="45.17487" lon="5.92401">
        <ele>1698.4</ele>
        <time>2021-02-20T08:58:12Z</time>
      </trkpt>
      <trkpt lat="45.17487" lon="5.92402">
        <ele>1698.5</ele>
        <time>2021-02-20T08:58:13Z</time>
      </trkpt>
      <trkpt lat="45.17487" lon="5.92404">
        <ele>1698.6</ele>
        <time>2021-02-20T08:58:14Z</time>
      </trkpt>
      <trkpt lat="45.17487" lon="5.92406">
        <ele>1698.6</ele>
        <time>2021-02-20T08:58:15Z</time>
      </trkpt>
      <trkpt lat="45.17487" lon="5.92407">
        <ele>1698.7</ele>
        <time>2021-02-20T08:58:16Z</time>
      </trkpt>
      <trkpt lat="45.17486" lon="5.92408">
        <ele>1698.7</ele>
        <time>2021-02-20T08:58:17Z</time>
      </trkpt>
      <trkpt lat="45.17486" lon="5.9241">
        <ele>1698.8</ele>
        <time>2021-02-20T08:58:18Z</time>
      </trkpt>
      <trkpt lat="45.17485" lon="5.92411">
        <ele>1698.9</ele>
        <time>2021-02-20T08:58:19Z</time>
      </trkpt>
      <trkpt lat="45.17484" lon="5.92413">
        <ele>1699</ele>
        <time>2021-02-20T08:58:20Z</time>
      </trkpt>
      <trkpt lat="45.17484" lon="5.92415">
        <ele>1699.1</ele>
        <time>2021-02-20T08:58:21Z</time>
      </trkpt>
      <trkpt lat="45.17483" lon="5.92416">
        <ele>1699.1</ele>
        <time>2021-02-20T08:58:22Z</time>
      </trkpt>
      <trkpt lat="45.17483" lon="5.92416">
        <ele>1699.1</ele>
        <time>2021-02-20T08:58:23Z</time>
      </trkpt>
      <trkpt lat="45.17483" lon="5.92418">
        <ele>1699.2</ele>
        <time>2021-02-20T08:58:24Z</time>
      </trkpt>
      <trkpt lat="45.17483" lon="5.92419">
        <ele>1699.2</ele>
        <time>2021-02-20T08:58:25Z</time>
      </trkpt>
      <trkpt lat="45.17483" lon="5.9242">
        <ele>1699.3</ele>
        <time>2021-02-20T08:58:26Z</time>
      </trkpt>
      <trkpt lat="45.17482" lon="5.9242">
        <ele>1699.4</ele>
        <time>2021-02-20T08:58:27Z</time>
      </trkpt>
      <trkpt lat="45.17481" lon="5.92421">
        <ele>1699.5</ele>
        <time>2021-02-20T08:58:28Z</time>
      </trkpt>
      <trkpt lat="45.1748" lon="5.92422">
        <ele>1699.5</ele>
        <time>2021-02-20T08:58:29Z</time>
      </trkpt>
      <trkpt lat="45.17479" lon="5.92423">
        <ele>1699.6</ele>
        <time>2021-02-20T08:58:30Z</time>
      </trkpt>
      <trkpt lat="45.17478" lon="5.92424">
        <ele>1699.7</ele>
        <time>2021-02-20T08:58:31Z</time>
      </trkpt>
      <trkpt lat="45.17477" lon="5.92425">
        <ele>1699.7</ele>
        <time>2021-02-20T08:58:32Z</time>
      </trkpt>
      <trkpt lat="45.17477" lon="5.92427">
        <ele>1699.8</ele>
        <time>2021-02-20T08:58:33Z</time>
      </trkpt>
      <trkpt lat="45.17476" lon="5.92428">
        <ele>1699.9</ele>
        <time>2021-02-20T08:58:34Z</time>
      </trkpt>
      <trkpt lat="45.17476" lon="5.92429">
        <ele>1700</ele>
        <time>2021-02-20T08:58:35Z</time>
      </trkpt>
      <trkpt lat="45.17475" lon="5.92431">
        <ele>1700</ele>
        <time>2021-02-20T08:58:36Z</time>
      </trkpt>
      <trkpt lat="45.17475" lon="5.92431">
        <ele>1700</ele>
        <time>2021-02-20T08:58:37Z</time>
      </trkpt>
      <trkpt lat="45.17474" lon="5.92432">
        <ele>1700.1</ele>
        <time>2021-02-20T08:58:38Z</time>
      </trkpt>
      <trkpt lat="45.17474" lon="5.92433">
        <ele>1700.2</ele>
        <time>2021-02-20T08:58:39Z</time>
      </trkpt>
      <trkpt lat="45.17473" lon="5.92434">
        <ele>1700.2</ele>
        <time>2021-02-20T08:58:40Z</time>
      </trkpt>
      <trkpt lat="45.17473" lon="5.92435">
        <ele>1700.3</ele>
        <time>2021-02-20T08:58:41Z</time>
      </trkpt>
      <trkpt lat="45.17472" lon="5.92436">
        <ele>1700.3</ele>
        <time>2021-02-20T08:58:42Z</time>
      </trkpt>
      <trkpt lat="45.17472" lon="5.92438">
        <ele>1700.4</ele>
        <time>2021-02-20T08:58:43Z</time>
      </trkpt>
      <trkpt lat="45.17471" lon="5.92439">
        <ele>1700.5</ele>
        <time>2021-02-20T08:58:44Z</time>
      </trkpt>
      <trkpt lat="45.17471" lon="5.9244">
        <ele>1700.5</ele>
        <time>2021-02-20T08:58:45Z</time>
      </trkpt>
      <trkpt lat="45.1747" lon="5.92441">
        <ele>1700.6</ele>
        <time>2021-02-20T08:58:46Z</time>
      </trkpt>
      <trkpt lat="45.1747" lon="5.92442">
        <ele>1700.6</ele>
        <time>2021-02-20T08:58:47Z</time>
      </trkpt>
      <trkpt lat="45.17469" lon="5.92443">
        <ele>1700.7</ele>
        <time>2021-02-20T08:58:48Z</time>
      </trkpt>
      <trkpt lat="45.17468" lon="5.92444">
        <ele>1700.8</ele>
        <time>2021-02-20T08:58:49Z</time>
      </trkpt>
      <trkpt lat="45.17467" lon="5.92445">
        <ele>1700.8</ele>
        <time>2021-02-20T08:58:50Z</time>
      </trkpt>
      <trkpt lat="45.17467" lon="5.92446">
        <ele>1700.9</ele>
        <time>2021-02-20T08:58:51Z</time>
      </trkpt>
      <trkpt lat="45.17466" lon="5.92447">
        <ele>1700.9</ele>
        <time>2021-02-20T08:58:52Z</time>
      </trkpt>
      <trkpt lat="45.17465" lon="5.92448">
        <ele>1701</ele>
        <time>2021-02-20T08:58:53Z</time>
      </trkpt>
      <trkpt lat="45.17465" lon="5.92448">
        <ele>1701</ele>
        <time>2021-02-20T08:58:54Z</time>
      </trkpt>
      <trkpt lat="45.17464" lon="5.92449">
        <ele>1701.1</ele>
        <time>2021-02-20T08:58:55Z</time>
      </trkpt>
      <trkpt lat="45.17463" lon="5.9245">
        <ele>1701.1</ele>
        <time>2021-02-20T08:58:56Z</time>
      </trkpt>
      <trkpt lat="45.17462" lon="5.92452">
        <ele>1701.2</ele>
        <time>2021-02-20T08:58:57Z</time>
      </trkpt>
      <trkpt lat="45.17461" lon="5.92453">
        <ele>1701.3</ele>
        <time>2021-02-20T08:58:58Z</time>
      </trkpt>
      <trkpt lat="45.1746" lon="5.92454">
        <ele>1701.4</ele>
        <time>2021-02-20T08:58:59Z</time>
      </trkpt>
      <trkpt lat="45.1746" lon="5.92455">
        <ele>1701.4</ele>
        <time>2021-02-20T08:59:00Z</time>
      </trkpt>
      <trkpt lat="45.1746" lon="5.92457">
        <ele>1701.5</ele>
        <time>2021-02-20T08:59:01Z</time>
      </trkpt>
      <trkpt lat="45.1746" lon="5.92458">
        <ele>1701.6</ele>
        <time>2021-02-20T08:59:02Z</time>
      </trkpt>
      <trkpt lat="45.1746" lon="5.9246">
        <ele>1701.6</ele>
        <time>2021-02-20T08:59:03Z</time>
      </trkpt>
      <trkpt lat="45.17461" lon="5.92461">
        <ele>1701.7</ele>
        <time>2021-02-20T08:59:04Z</time>
      </trkpt>
      <trkpt lat="45.17461" lon="5.92463">
        <ele>1701.8</ele>
        <time>2021-02-20T08:59:05Z</time>
      </trkpt>
      <trkpt lat="45.17461" lon="5.92464">
        <ele>1701.9</ele>
        <time>2021-02-20T08:59:06Z</time>
      </trkpt>
      <trkpt lat="45.17461" lon="5.92466">
        <ele>1702</ele>
        <time>2021-02-20T08:59:07Z</time>
      </trkpt>
      <trkpt lat="45.17461" lon="5.92467">
        <ele>1702</ele>
        <time>2021-02-20T08:59:08Z</time>
      </trkpt>
      <trkpt lat="45.17461" lon="5.92468">
        <ele>1702.1</ele>
        <time>2021-02-20T08:59:09Z</time>
      </trkpt>
      <trkpt lat="45.1746" lon="5.9247">
        <ele>1702.1</ele>
        <time>2021-02-20T08:59:10Z</time>
      </trkpt>
      <trkpt lat="45.1746" lon="5.92471">
        <ele>1702.2</ele>
        <time>2021-02-20T08:59:11Z</time>
      </trkpt>
      <trkpt lat="45.1746" lon="5.92472">
        <ele>1702.3</ele>
        <time>2021-02-20T08:59:12Z</time>
      </trkpt>
      <trkpt lat="45.1746" lon="5.92474">
        <ele>1702.4</ele>
        <time>2021-02-20T08:59:13Z</time>
      </trkpt>
      <trkpt lat="45.17459" lon="5.92475">
        <ele>1702.5</ele>
        <time>2021-02-20T08:59:14Z</time>
      </trkpt>
      <trkpt lat="45.17459" lon="5.92477">
        <ele>1702.6</ele>
        <time>2021-02-20T08:59:15Z</time>
      </trkpt>
      <trkpt lat="45.17458" lon="5.92478">
        <ele>1702.7</ele>
        <time>2021-02-20T08:59:16Z</time>
      </trkpt>
      <trkpt lat="45.17458" lon="5.92479">
        <ele>1702.7</ele>
        <time>2021-02-20T08:59:17Z</time>
      </trkpt>
      <trkpt lat="45.17458" lon="5.92481">
        <ele>1702.8</ele>
        <time>2021-02-20T08:59:18Z</time>
      </trkpt>
      <trkpt lat="45.17457" lon="5.92482">
        <ele>1702.4</ele>
        <time>2021-02-20T08:59:19Z</time>
      </trkpt>
      <trkpt lat="45.17456" lon="5.92483">
        <ele>1703.7</ele>
        <time>2021-02-20T08:59:20Z</time>
      </trkpt>
      <trkpt lat="45.17456" lon="5.92485">
        <ele>1703.7</ele>
        <time>2021-02-20T08:59:21Z</time>
      </trkpt>
      <trkpt lat="45.17455" lon="5.92486">
        <ele>1703.4</ele>
        <time>2021-02-20T08:59:22Z</time>
      </trkpt>
      <trkpt lat="45.17455" lon="5.92487">
        <ele>1703.4</ele>
        <time>2021-02-20T08:59:23Z</time>
      </trkpt>
      <trkpt lat="45.17454" lon="5.92488">
        <ele>1703.5</ele>
        <time>2021-02-20T08:59:24Z</time>
      </trkpt>
      <trkpt lat="45.17453" lon="5.92489">
        <ele>1704.7</ele>
        <time>2021-02-20T08:59:25Z</time>
      </trkpt>
      <trkpt lat="45.17452" lon="5.9249">
        <ele>1704.5</ele>
        <time>2021-02-20T08:59:26Z</time>
      </trkpt>
      <trkpt lat="45.17452" lon="5.92491">
        <ele>1704.5</ele>
        <time>2021-02-20T08:59:27Z</time>
      </trkpt>
      <trkpt lat="45.17451" lon="5.92491">
        <ele>1704.6</ele>
        <time>2021-02-20T08:59:28Z</time>
      </trkpt>
      <trkpt lat="45.17451" lon="5.92492">
        <ele>1704.6</ele>
        <time>2021-02-20T08:59:29Z</time>
      </trkpt>
      <trkpt lat="45.1745" lon="5.92493">
        <ele>1705.9</ele>
        <time>2021-02-20T08:59:30Z</time>
      </trkpt>
      <trkpt lat="45.1745" lon="5.92494">
        <ele>1705.7</ele>
        <time>2021-02-20T08:59:31Z</time>
      </trkpt>
      <trkpt lat="45.17449" lon="5.92495">
        <ele>1705.8</ele>
        <time>2021-02-20T08:59:32Z</time>
      </trkpt>
      <trkpt lat="45.17448" lon="5.92497">
        <ele>1705.8</ele>
        <time>2021-02-20T08:59:33Z</time>
      </trkpt>
      <trkpt lat="45.17447" lon="5.92497">
        <ele>1707.1</ele>
        <time>2021-02-20T08:59:34Z</time>
      </trkpt>
      <trkpt lat="45.17446" lon="5.92498">
        <ele>1707.2</ele>
        <time>2021-02-20T08:59:35Z</time>
      </trkpt>
      <trkpt lat="45.17445" lon="5.92498">
        <ele>1707.1</ele>
        <time>2021-02-20T08:59:36Z</time>
      </trkpt>
      <trkpt lat="45.17444" lon="5.92499">
        <ele>1708.4</ele>
        <time>2021-02-20T08:59:37Z</time>
      </trkpt>
      <trkpt lat="45.17443" lon="5.92499">
        <ele>1708.5</ele>
        <time>2021-02-20T08:59:38Z</time>
      </trkpt>
      <trkpt lat="45.17442" lon="5.925">
        <ele>1708.5</ele>
        <time>2021-02-20T08:59:39Z</time>
      </trkpt>
      <trkpt lat="45.17441" lon="5.925">
        <ele>1709.9</ele>
        <time>2021-02-20T08:59:40Z</time>
      </trkpt>
      <trkpt lat="45.1744" lon="5.92501">
        <ele>1709.9</ele>
        <time>2021-02-20T08:59:41Z</time>
      </trkpt>
      <trkpt lat="45.17439" lon="5.92502">
        <ele>1709.9</ele>
        <time>2021-02-20T08:59:42Z</time>
      </trkpt>
      <trkpt lat="45.17438" lon="5.92503">
        <ele>1709.9</ele>
        <time>2021-02-20T08:59:43Z</time>
      </trkpt>
      <trkpt lat="45.17438" lon="5.92504">
        <ele>1711.1</ele>
        <time>2021-02-20T08:59:44Z</time>
      </trkpt>
      <trkpt lat="45.17437" lon="5.92504">
        <ele>1711.2</ele>
        <time>2021-02-20T08:59:45Z</time>
      </trkpt>
      <trkpt lat="45.17437" lon="5.92505">
        <ele>1711.2</ele>
        <time>2021-02-20T08:59:46Z</time>
      </trkpt>
      <trkpt lat="45.17436" lon="5.92506">
        <ele>1711.3</ele>
        <time>2021-02-20T08:59:47Z</time>
      </trkpt>
      <trkpt lat="45.17435" lon="5.92506">
        <ele>1712.4</ele>
        <time>2021-02-20T08:59:48Z</time>
      </trkpt>
      <trkpt lat="45.17435" lon="5.92507">
        <ele>1712.4</ele>
        <time>2021-02-20T08:59:49Z</time>
      </trkpt>
      <trkpt lat="45.17435" lon="5.92507">
        <ele>1712.4</ele>
        <time>2021-02-20T08:59:50Z</time>
      </trkpt>
      <trkpt lat="45.17434" lon="5.92508">
        <ele>1712.5</ele>
        <time>2021-02-20T08:59:51Z</time>
      </trkpt>
      <trkpt lat="45.17434" lon="5.92509">
        <ele>1712.5</ele>
        <time>2021-02-20T08:59:52Z</time>
      </trkpt>
      <trkpt lat="45.17433" lon="5.92509">
        <ele>1712.5</ele>
        <time>2021-02-20T08:59:53Z</time>
      </trkpt>
      <trkpt lat="45.17432" lon="5.9251">
        <ele>1713.5</ele>
        <time>2021-02-20T08:59:54Z</time>
      </trkpt>
      <trkpt lat="45.17431" lon="5.92511">
        <ele>1713.6</ele>
        <time>2021-02-20T08:59:55Z</time>
      </trkpt>
      <trkpt lat="45.1743" lon="5.92511">
        <ele>1713.6</ele>
        <time>2021-02-20T08:59:56Z</time>
      </trkpt>
      <trkpt lat="45.17429" lon="5.92512">
        <ele>1713.6</ele>
        <time>2021-02-20T08:59:57Z</time>
      </trkpt>
      <trkpt lat="45.17429" lon="5.92513">
        <ele>1715.1</ele>
        <time>2021-02-20T08:59:58Z</time>
      </trkpt>
      <trkpt lat="45.17428" lon="5.92513">
        <ele>1715.1</ele>
        <time>2021-02-20T08:59:59Z</time>
      </trkpt>
      <trkpt lat="45.17428" lon="5.92514">
        <ele>1715.2</ele>
        <time>2021-02-20T09:00:00Z</time>
      </trkpt>
      <trkpt lat="45.17427" lon="5.92516">
        <ele>1715.2</ele>
        <time>2021-02-20T09:00:01Z</time>
      </trkpt>
      <trkpt lat="45.17426" lon="5.92517">
        <ele>1716.2</ele>
        <time>2021-02-20T09:00:02Z</time>
      </trkpt>
      <trkpt lat="45.17425" lon="5.92517">
        <ele>1716.2</ele>
        <time>2021-02-20T09:00:03Z</time>
      </trkpt>
      <trkpt lat="45.17424" lon="5.92518">
        <ele>1716.2</ele>
        <time>2021-02-20T09:00:04Z</time>
      </trkpt>
      <trkpt lat="45.17423" lon="5.92519">
        <ele>1717.3</ele>
        <time>2021-02-20T09:00:05Z</time>
      </trkpt>
      <trkpt lat="45.17423" lon="5.92519">
        <ele>1717.4</ele>
        <time>2021-02-20T09:00:06Z</time>
      </trkpt>
      <trkpt lat="45.17423" lon="5.9252">
        <ele>1717.4</ele>
        <time>2021-02-20T09:00:07Z</time>
      </trkpt>
      <trkpt lat="45.17422" lon="5.9252">
        <ele>1717.5</ele>
        <time>2021-02-20T09:00:08Z</time>
      </trkpt>
      <trkpt lat="45.17422" lon="5.92521">
        <ele>1717.5</ele>
        <time>2021-02-20T09:00:09Z</time>
      </trkpt>
      <trkpt lat="45.17421" lon="5.92521">
        <ele>1717.6</ele>
        <time>2021-02-20T09:00:10Z</time>
      </trkpt>
      <trkpt lat="45.1742" lon="5.92522">
        <ele>1718.7</ele>
        <time>2021-02-20T09:00:11Z</time>
      </trkpt>
      <trkpt lat="45.17418" lon="5.92523">
        <ele>1718.8</ele>
        <time>2021-02-20T09:00:12Z</time>
      </trkpt>
      <trkpt lat="45.17418" lon="5.92523">
        <ele>1718.8</ele>
        <time>2021-02-20T09:00:13Z</time>
      </trkpt>
      <trkpt lat="45.17417" lon="5.92523">
        <ele>1720</ele>
        <time>2021-02-20T09:00:14Z</time>
      </trkpt>
      <trkpt lat="45.17416" lon="5.92523">
        <ele>1720</ele>
        <time>2021-02-20T09:00:15Z</time>
      </trkpt>
      <trkpt lat="45.17415" lon="5.92524">
        <ele>1720.2</ele>
        <time>2021-02-20T09:00:16Z</time>
      </trkpt>
      <trkpt lat="45.17414" lon="5.92524">
        <ele>1721.3</ele>
        <time>2021-02-20T09:00:17Z</time>
      </trkpt>
      <trkpt lat="45.17413" lon="5.92525">
        <ele>1721.4</ele>
        <time>2021-02-20T09:00:18Z</time>
      </trkpt>
      <trkpt lat="45.17412" lon="5.92525">
        <ele>1721.4</ele>
        <time>2021-02-20T09:00:19Z</time>
      </trkpt>
      <trkpt lat="45.17411" lon="5.92526">
        <ele>1722.5</ele>
        <time>2021-02-20T09:00:20Z</time>
      </trkpt>
      <trkpt lat="45.1741" lon="5.92527">
        <ele>1722.5</ele>
        <time>2021-02-20T09:00:21Z</time>
      </trkpt>
      <trkpt lat="45.1741" lon="5.92527">
        <ele>1722.5</ele>
        <time>2021-02-20T09:00:22Z</time>
      </trkpt>
      <trkpt lat="45.17409" lon="5.92528">
        <ele>1722.6</ele>
        <time>2021-02-20T09:00:23Z</time>
      </trkpt>
      <trkpt lat="45.17408" lon="5.92529">
        <ele>1722.8</ele>
        <time>2021-02-20T09:00:24Z</time>
      </trkpt>
      <trkpt lat="45.17408" lon="5.92529">
        <ele>1723.8</ele>
        <time>2021-02-20T09:00:25Z</time>
      </trkpt>
      <trkpt lat="45.17407" lon="5.9253">
        <ele>1723.8</ele>
        <time>2021-02-20T09:00:26Z</time>
      </trkpt>
      <trkpt lat="45.17407" lon="5.9253">
        <ele>1723.9</ele>
        <time>2021-02-20T09:00:27Z</time>
      </trkpt>
      <trkpt lat="45.17406" lon="5.92531">
        <ele>1723.9</ele>
        <time>2021-02-20T09:00:28Z</time>
      </trkpt>
      <trkpt lat="45.17405" lon="5.92532">
        <ele>1725.1</ele>
        <time>2021-02-20T09:00:29Z</time>
      </trkpt>
      <trkpt lat="45.17404" lon="5.92533">
        <ele>1725.2</ele>
        <time>2021-02-20T09:00:30Z</time>
      </trkpt>
      <trkpt lat="45.17404" lon="5.92534">
        <ele>1725.2</ele>
        <time>2021-02-20T09:00:31Z</time>
      </trkpt>
      <trkpt lat="45.17403" lon="5.92535">
        <ele>1725.3</ele>
        <time>2021-02-20T09:00:32Z</time>
      </trkpt>
      <trkpt lat="45.17403" lon="5.92535">
        <ele>1725.3</ele>
        <time>2021-02-20T09:00:33Z</time>
      </trkpt>
      <trkpt lat="45.17402" lon="5.92536">
        <ele>1726.3</ele>
        <time>2021-02-20T09:00:34Z</time>
      </trkpt>
      <trkpt lat="45.17401" lon="5.92537">
        <ele>1726.7</ele>
        <time>2021-02-20T09:00:35Z</time>
      </trkpt>
      <trkpt lat="45.174" lon="5.92537">
        <ele>1726.7</ele>
        <time>2021-02-20T09:00:36Z</time>
      </trkpt>
      <trkpt lat="45.174" lon="5.92537">
        <ele>1726.8</ele>
        <time>2021-02-20T09:00:37Z</time>
      </trkpt>
      <trkpt lat="45.17399" lon="5.92538">
        <ele>1726.8</ele>
        <time>2021-02-20T09:00:38Z</time>
      </trkpt>
      <trkpt lat="45.17398" lon="5.92538">
        <ele>1727.9</ele>
        <time>2021-02-20T09:00:39Z</time>
      </trkpt>
      <trkpt lat="45.17398" lon="5.92538">
        <ele>1727.9</ele>
        <time>2021-02-20T09:00:40Z</time>
      </trkpt>
      <trkpt lat="45.17397" lon="5.92538">
        <ele>1728</ele>
        <time>2021-02-20T09:00:41Z</time>
      </trkpt>
      <trkpt lat="45.17396" lon="5.92538">
        <ele>1728</ele>
        <time>2021-02-20T09:00:42Z</time>
      </trkpt>
      <trkpt lat="45.17396" lon="5.92538">
        <ele>1729.2</ele>
        <time>2021-02-20T09:00:43Z</time>
      </trkpt>
      <trkpt lat="45.17394" lon="5.92538">
        <ele>1729.3</ele>
        <time>2021-02-20T09:00:44Z</time>
      </trkpt>
      <trkpt lat="45.17393" lon="5.92539">
        <ele>1729.3</ele>
        <time>2021-02-20T09:00:45Z</time>
      </trkpt>
      <trkpt lat="45.17393" lon="5.9254">
        <ele>1730.5</ele>
        <time>2021-02-20T09:00:46Z</time>
      </trkpt>
      <trkpt lat="45.17392" lon="5.9254">
        <ele>1730.6</ele>
        <time>2021-02-20T09:00:47Z</time>
      </trkpt>
      <trkpt lat="45.17391" lon="5.92541">
        <ele>1730.9</ele>
        <time>2021-02-20T09:00:48Z</time>
      </trkpt>
      <trkpt lat="45.1739" lon="5.92542">
        <ele>1731</ele>
        <time>2021-02-20T09:00:49Z</time>
      </trkpt>
      <trkpt lat="45.1739" lon="5.92542">
        <ele>1732.2</ele>
        <time>2021-02-20T09:00:50Z</time>
      </trkpt>
      <trkpt lat="45.17389" lon="5.92542">
        <ele>1732.2</ele>
        <time>2021-02-20T09:00:51Z</time>
      </trkpt>
      <trkpt lat="45.17388" lon="5.92543">
        <ele>1732.3</ele>
        <time>2021-02-20T09:00:52Z</time>
      </trkpt>
      <trkpt lat="45.17387" lon="5.92543">
        <ele>1732.3</ele>
        <time>2021-02-20T09:00:53Z</time>
      </trkpt>
      <trkpt lat="45.17386" lon="5.92544">
        <ele>1733.4</ele>
        <time>2021-02-20T09:00:54Z</time>
      </trkpt>
      <trkpt lat="45.17385" lon="5.92545">
        <ele>1733.5</ele>
        <time>2021-02-20T09:00:55Z</time>
      </trkpt>
      <trkpt lat="45.17384" lon="5.92546">
        <ele>1733.8</ele>
        <time>2021-02-20T09:00:56Z</time>
      </trkpt>
      <trkpt lat="45.17383" lon="5.92547">
        <ele>1734.8</ele>
        <time>2021-02-20T09:00:57Z</time>
      </trkpt>
      <trkpt lat="45.17382" lon="5.92548">
        <ele>1734.9</ele>
        <time>2021-02-20T09:00:58Z</time>
      </trkpt>
      <trkpt lat="45.17381" lon="5.92549">
        <ele>1734.9</ele>
        <time>2021-02-20T09:00:59Z</time>
      </trkpt>
      <trkpt lat="45.17381" lon="5.9255">
        <ele>1736.2</ele>
        <time>2021-02-20T09:01:00Z</time>
      </trkpt>
      <trkpt lat="45.1738" lon="5.92551">
        <ele>1736.2</ele>
        <time>2021-02-20T09:01:01Z</time>
      </trkpt>
      <trkpt lat="45.17379" lon="5.92551">
        <ele>1736.3</ele>
        <time>2021-02-20T09:01:02Z</time>
      </trkpt>
      <trkpt lat="45.17379" lon="5.92552">
        <ele>1736.3</ele>
        <time>2021-02-20T09:01:03Z</time>
      </trkpt>
      <trkpt lat="45.17379" lon="5.92553">
        <ele>1736.3</ele>
        <time>2021-02-20T09:01:04Z</time>
      </trkpt>
      <trkpt lat="45.17379" lon="5.92554">
        <ele>1736.7</ele>
        <time>2021-02-20T09:01:05Z</time>
      </trkpt>
      <trkpt lat="45.1738" lon="5.92555">
        <ele>1736.7</ele>
        <time>2021-02-20T09:01:06Z</time>
      </trkpt>
      <trkpt lat="45.1738" lon="5.92556">
        <ele>1736.8</ele>
        <time>2021-02-20T09:01:07Z</time>
      </trkpt>
      <trkpt lat="45.1738" lon="5.92557">
        <ele>1736.8</ele>
        <time>2021-02-20T09:01:08Z</time>
      </trkpt>
      <trkpt lat="45.1738" lon="5.92558">
        <ele>1737.2</ele>
        <time>2021-02-20T09:01:09Z</time>
      </trkpt>
      <trkpt lat="45.17381" lon="5.92559">
        <ele>1737.3</ele>
        <time>2021-02-20T09:01:10Z</time>
      </trkpt>
      <trkpt lat="45.17381" lon="5.9256">
        <ele>1737.3</ele>
        <time>2021-02-20T09:01:11Z</time>
      </trkpt>
      <trkpt lat="45.17381" lon="5.92561">
        <ele>1737.3</ele>
        <time>2021-02-20T09:01:12Z</time>
      </trkpt>
      <trkpt lat="45.17381" lon="5.92562">
        <ele>1737.4</ele>
        <time>2021-02-20T09:01:13Z</time>
      </trkpt>
      <trkpt lat="45.17381" lon="5.92562">
        <ele>1737.4</ele>
        <time>2021-02-20T09:01:14Z</time>
      </trkpt>
      <trkpt lat="45.1738" lon="5.92563">
        <ele>1737.8</ele>
        <time>2021-02-20T09:01:15Z</time>
      </trkpt>
      <trkpt lat="45.1738" lon="5.92563">
        <ele>1737.9</ele>
        <time>2021-02-20T09:01:16Z</time>
      </trkpt>
      <trkpt lat="45.17379" lon="5.92564">
        <ele>1737.9</ele>
        <time>2021-02-20T09:01:17Z</time>
      </trkpt>
      <trkpt lat="45.17379" lon="5.92565">
        <ele>1738</ele>
        <time>2021-02-20T09:01:18Z</time>
      </trkpt>
      <trkpt lat="45.17378" lon="5.92565">
        <ele>1738</ele>
        <time>2021-02-20T09:01:19Z</time>
      </trkpt>
      <trkpt lat="45.17377" lon="5.92566">
        <ele>1738.8</ele>
        <time>2021-02-20T09:01:20Z</time>
      </trkpt>
      <trkpt lat="45.17377" lon="5.92566">
        <ele>1738.8</ele>
        <time>2021-02-20T09:01:21Z</time>
      </trkpt>
      <trkpt lat="45.17376" lon="5.92566">
        <ele>1738.8</ele>
        <time>2021-02-20T09:01:22Z</time>
      </trkpt>
      <trkpt lat="45.17375" lon="5.92567">
        <ele>1739.3</ele>
        <time>2021-02-20T09:01:23Z</time>
      </trkpt>
      <trkpt lat="45.17374" lon="5.92567">
        <ele>1740</ele>
        <time>2021-02-20T09:01:24Z</time>
      </trkpt>
      <trkpt lat="45.17374" lon="5.92567">
        <ele>1740.1</ele>
        <time>2021-02-20T09:01:25Z</time>
      </trkpt>
      <trkpt lat="45.17374" lon="5.92568">
        <ele>1740.1</ele>
        <time>2021-02-20T09:01:26Z</time>
      </trkpt>
      <trkpt lat="45.17373" lon="5.92568">
        <ele>1740.1</ele>
        <time>2021-02-20T09:01:27Z</time>
      </trkpt>
      <trkpt lat="45.17372" lon="5.92569">
        <ele>1740.2</ele>
        <time>2021-02-20T09:01:28Z</time>
      </trkpt>
      <trkpt lat="45.17371" lon="5.9257">
        <ele>1740.9</ele>
        <time>2021-02-20T09:01:29Z</time>
      </trkpt>
      <trkpt lat="45.17371" lon="5.92571">
        <ele>1741.3</ele>
        <time>2021-02-20T09:01:30Z</time>
      </trkpt>
      <trkpt lat="45.1737" lon="5.92572">
        <ele>1741.4</ele>
        <time>2021-02-20T09:01:31Z</time>
      </trkpt>
      <trkpt lat="45.1737" lon="5.92573">
        <ele>1741.4</ele>
        <time>2021-02-20T09:01:32Z</time>
      </trkpt>
      <trkpt lat="45.17369" lon="5.92574">
        <ele>1741.4</ele>
        <time>2021-02-20T09:01:33Z</time>
      </trkpt>
      <trkpt lat="45.17368" lon="5.92575">
        <ele>1742.6</ele>
        <time>2021-02-20T09:01:34Z</time>
      </trkpt>
      <trkpt lat="45.17368" lon="5.92576">
        <ele>1742.6</ele>
        <time>2021-02-20T09:01:35Z</time>
      </trkpt>
      <trkpt lat="45.17367" lon="5.92576">
        <ele>1742.6</ele>
        <time>2021-02-20T09:01:36Z</time>
      </trkpt>
      <trkpt lat="45.17365" lon="5.92576">
        <ele>1743.4</ele>
        <time>2021-02-20T09:01:37Z</time>
      </trkpt>
      <trkpt lat="45.17364" lon="5.92576">
        <ele>1743.4</ele>
        <time>2021-02-20T09:01:38Z</time>
      </trkpt>
      <trkpt lat="45.17363" lon="5.92576">
        <ele>1743.5</ele>
        <time>2021-02-20T09:01:39Z</time>
      </trkpt>
      <trkpt lat="45.17363" lon="5.92577">
        <ele>1743.5</ele>
        <time>2021-02-20T09:01:40Z</time>
      </trkpt>
      <trkpt lat="45.17362" lon="5.92577">
        <ele>1744.3</ele>
        <time>2021-02-20T09:01:41Z</time>
      </trkpt>
      <trkpt lat="45.17361" lon="5.92577">
        <ele>1744.3</ele>
        <time>2021-02-20T09:01:42Z</time>
      </trkpt>
      <trkpt lat="45.1736" lon="5.92577">
        <ele>1744.4</ele>
        <time>2021-02-20T09:01:43Z</time>
      </trkpt>
      <trkpt lat="45.17359" lon="5.92577">
        <ele>1745.2</ele>
        <time>2021-02-20T09:01:44Z</time>
      </trkpt>
      <trkpt lat="45.17358" lon="5.92577">
        <ele>1745.2</ele>
        <time>2021-02-20T09:01:45Z</time>
      </trkpt>
      <trkpt lat="45.17357" lon="5.92577">
        <ele>1745.3</ele>
        <time>2021-02-20T09:01:46Z</time>
      </trkpt>
      <trkpt lat="45.17356" lon="5.92577">
        <ele>1746.1</ele>
        <time>2021-02-20T09:01:47Z</time>
      </trkpt>
      <trkpt lat="45.17356" lon="5.92576">
        <ele>1746.1</ele>
        <time>2021-02-20T09:01:48Z</time>
      </trkpt>
      <trkpt lat="45.17355" lon="5.92576">
        <ele>1746.1</ele>
        <time>2021-02-20T09:01:49Z</time>
      </trkpt>
      <trkpt lat="45.17354" lon="5.92575">
        <ele>1746.2</ele>
        <time>2021-02-20T09:01:50Z</time>
      </trkpt>
      <trkpt lat="45.17353" lon="5.92575">
        <ele>1746.7</ele>
        <time>2021-02-20T09:01:51Z</time>
      </trkpt>
      <trkpt lat="45.17352" lon="5.92575">
        <ele>1746.7</ele>
        <time>2021-02-20T09:01:52Z</time>
      </trkpt>
      <trkpt lat="45.17351" lon="5.92574">
        <ele>1746.7</ele>
        <time>2021-02-20T09:01:53Z</time>
      </trkpt>
      <trkpt lat="45.1735" lon="5.92574">
        <ele>1747.5</ele>
        <time>2021-02-20T09:01:54Z</time>
      </trkpt>
      <trkpt lat="45.1735" lon="5.92574">
        <ele>1747.5</ele>
        <time>2021-02-20T09:01:55Z</time>
      </trkpt>
      <trkpt lat="45.17349" lon="5.92574">
        <ele>1747.5</ele>
        <time>2021-02-20T09:01:56Z</time>
      </trkpt>
      <trkpt lat="45.17348" lon="5.92573">
        <ele>1747.6</ele>
        <time>2021-02-20T09:01:57Z</time>
      </trkpt>
      <trkpt lat="45.17347" lon="5.92573">
        <ele>1748.3</ele>
        <time>2021-02-20T09:01:58Z</time>
      </trkpt>
      <trkpt lat="45.17347" lon="5.92573">
        <ele>1748.3</ele>
        <time>2021-02-20T09:01:59Z</time>
      </trkpt>
      <trkpt lat="45.17346" lon="5.92574">
        <ele>1748.3</ele>
        <time>2021-02-20T09:02:00Z</time>
      </trkpt>
      <trkpt lat="45.17345" lon="5.92574">
        <ele>1749.1</ele>
        <time>2021-02-20T09:02:01Z</time>
      </trkpt>
      <trkpt lat="45.17344" lon="5.92575">
        <ele>1749.1</ele>
        <time>2021-02-20T09:02:02Z</time>
      </trkpt>
      <trkpt lat="45.17343" lon="5.92575">
        <ele>1749.3</ele>
        <time>2021-02-20T09:02:03Z</time>
      </trkpt>
      <trkpt lat="45.17342" lon="5.92576">
        <ele>1749.4</ele>
        <time>2021-02-20T09:02:04Z</time>
      </trkpt>
      <trkpt lat="45.17342" lon="5.92576">
        <ele>1749.4</ele>
        <time>2021-02-20T09:02:05Z</time>
      </trkpt>
      <trkpt lat="45.17341" lon="5.92576">
        <ele>1750.2</ele>
        <time>2021-02-20T09:02:06Z</time>
      </trkpt>
      <trkpt lat="45.17341" lon="5.92576">
        <ele>1750.2</ele>
        <time>2021-02-20T09:02:07Z</time>
      </trkpt>
      <trkpt lat="45.1734" lon="5.92576">
        <ele>1750.2</ele>
        <time>2021-02-20T09:02:08Z</time>
      </trkpt>
      <trkpt lat="45.1734" lon="5.92577">
        <ele>1750.3</ele>
        <time>2021-02-20T09:02:09Z</time>
      </trkpt>
      <trkpt lat="45.17339" lon="5.92577">
        <ele>1750.3</ele>
        <time>2021-02-20T09:02:10Z</time>
      </trkpt>
      <trkpt lat="45.17338" lon="5.92577">
        <ele>1751.2</ele>
        <time>2021-02-20T09:02:11Z</time>
      </trkpt>
      <trkpt lat="45.17338" lon="5.92577">
        <ele>1751.2</ele>
        <time>2021-02-20T09:02:12Z</time>
      </trkpt>
      <trkpt lat="45.17337" lon="5.92577">
        <ele>1751.2</ele>
        <time>2021-02-20T09:02:13Z</time>
      </trkpt>
      <trkpt lat="45.17336" lon="5.92578">
        <ele>1751.3</ele>
        <time>2021-02-20T09:02:14Z</time>
      </trkpt>
      <trkpt lat="45.17335" lon="5.92578">
        <ele>1752.2</ele>
        <time>2021-02-20T09:02:15Z</time>
      </trkpt>
      <trkpt lat="45.17335" lon="5.92578">
        <ele>1752.2</ele>
        <time>2021-02-20T09:02:16Z</time>
      </trkpt>
      <trkpt lat="45.17334" lon="5.92578">
        <ele>1752.3</ele>
        <time>2021-02-20T09:02:17Z</time>
      </trkpt>
      <trkpt lat="45.17334" lon="5.92578">
        <ele>1752.3</ele>
        <time>2021-02-20T09:02:18Z</time>
      </trkpt>
      <trkpt lat="45.17333" lon="5.92578">
        <ele>1752.4</ele>
        <time>2021-02-20T09:02:19Z</time>
      </trkpt>
      <trkpt lat="45.17332" lon="5.92578">
        <ele>1753.3</ele>
        <time>2021-02-20T09:02:20Z</time>
      </trkpt>
      <trkpt lat="45.17332" lon="5.92578">
        <ele>1753.3</ele>
        <time>2021-02-20T09:02:21Z</time>
      </trkpt>
      <trkpt lat="45.17331" lon="5.92578">
        <ele>1753.4</ele>
        <time>2021-02-20T09:02:22Z</time>
      </trkpt>
      <trkpt lat="45.1733" lon="5.92578">
        <ele>1753.4</ele>
        <time>2021-02-20T09:02:23Z</time>
      </trkpt>
      <trkpt lat="45.17329" lon="5.92579">
        <ele>1754.3</ele>
        <time>2021-02-20T09:02:24Z</time>
      </trkpt>
      <trkpt lat="45.17328" lon="5.92581">
        <ele>1754.4</ele>
        <time>2021-02-20T09:02:25Z</time>
      </trkpt>
      <trkpt lat="45.17327" lon="5.92582">
        <ele>1754.4</ele>
        <time>2021-02-20T09:02:26Z</time>
      </trkpt>
      <trkpt lat="45.17326" lon="5.92582">
        <ele>1755.2</ele>
        <time>2021-02-20T09:02:27Z</time>
      </trkpt>
      <trkpt lat="45.17326" lon="5.92583">
        <ele>1755.3</ele>
        <time>2021-02-20T09:02:28Z</time>
      </trkpt>
      <trkpt lat="45.17325" lon="5.92584">
        <ele>1755.3</ele>
        <time>2021-02-20T09:02:29Z</time>
      </trkpt>
      <trkpt lat="45.17324" lon="5.92586">
        <ele>1755.4</ele>
        <time>2021-02-20T09:02:30Z</time>
      </trkpt>
      <trkpt lat="45.17324" lon="5.92587">
        <ele>1755.4</ele>
        <time>2021-02-20T09:02:31Z</time>
      </trkpt>
      <trkpt lat="45.17323" lon="5.92588">
        <ele>1756.1</ele>
        <time>2021-02-20T09:02:32Z</time>
      </trkpt>
      <trkpt lat="45.17322" lon="5.92589">
        <ele>1756.2</ele>
        <time>2021-02-20T09:02:33Z</time>
      </trkpt>
      <trkpt lat="45.17322" lon="5.9259">
        <ele>1756.2</ele>
        <time>2021-02-20T09:02:34Z</time>
      </trkpt>
      <trkpt lat="45.17321" lon="5.92591">
        <ele>1756.3</ele>
        <time>2021-02-20T09:02:35Z</time>
      </trkpt>
      <trkpt lat="45.1732" lon="5.92592">
        <ele>1756.9</ele>
        <time>2021-02-20T09:02:36Z</time>
      </trkpt>
      <trkpt lat="45.1732" lon="5.92593">
        <ele>1757</ele>
        <time>2021-02-20T09:02:37Z</time>
      </trkpt>
      <trkpt lat="45.17319" lon="5.92594">
        <ele>1757</ele>
        <time>2021-02-20T09:02:38Z</time>
      </trkpt>
      <trkpt lat="45.17318" lon="5.92594">
        <ele>1757.1</ele>
        <time>2021-02-20T09:02:39Z</time>
      </trkpt>
      <trkpt lat="45.17317" lon="5.92595">
        <ele>1757.8</ele>
        <time>2021-02-20T09:02:40Z</time>
      </trkpt>
      <trkpt lat="45.17317" lon="5.92595">
        <ele>1757.8</ele>
        <time>2021-02-20T09:02:41Z</time>
      </trkpt>
      <trkpt lat="45.17316" lon="5.92596">
        <ele>1757.8</ele>
        <time>2021-02-20T09:02:42Z</time>
      </trkpt>
      <trkpt lat="45.17315" lon="5.92597">
        <ele>1758</ele>
        <time>2021-02-20T09:02:43Z</time>
      </trkpt>
      <trkpt lat="45.17314" lon="5.92597">
        <ele>1758</ele>
        <time>2021-02-20T09:02:44Z</time>
      </trkpt>
      <trkpt lat="45.17314" lon="5.92598">
        <ele>1758</ele>
        <time>2021-02-20T09:02:45Z</time>
      </trkpt>
      <trkpt lat="45.17314" lon="5.92599">
        <ele>1758.8</ele>
        <time>2021-02-20T09:02:46Z</time>
      </trkpt>
      <trkpt lat="45.17314" lon="5.926">
        <ele>1758.9</ele>
        <time>2021-02-20T09:02:47Z</time>
      </trkpt>
      <trkpt lat="45.17313" lon="5.92601">
        <ele>1758.9</ele>
        <time>2021-02-20T09:02:48Z</time>
      </trkpt>
      <trkpt lat="45.17313" lon="5.92602">
        <ele>1759</ele>
        <time>2021-02-20T09:02:49Z</time>
      </trkpt>
      <trkpt lat="45.17312" lon="5.92603">
        <ele>1759.1</ele>
        <time>2021-02-20T09:02:50Z</time>
      </trkpt>
      <trkpt lat="45.17312" lon="5.92604">
        <ele>1759.1</ele>
        <time>2021-02-20T09:02:51Z</time>
      </trkpt>
      <trkpt lat="45.17312" lon="5.92605">
        <ele>1759.2</ele>
        <time>2021-02-20T09:02:52Z</time>
      </trkpt>
      <trkpt lat="45.17312" lon="5.92606">
        <ele>1759.3</ele>
        <time>2021-02-20T09:02:53Z</time>
      </trkpt>
      <trkpt lat="45.17311" lon="5.92607">
        <ele>1759.4</ele>
        <time>2021-02-20T09:02:54Z</time>
      </trkpt>
      <trkpt lat="45.17311" lon="5.92608">
        <ele>1760.2</ele>
        <time>2021-02-20T09:02:55Z</time>
      </trkpt>
      <trkpt lat="45.17311" lon="5.92609">
        <ele>1760.3</ele>
        <time>2021-02-20T09:02:57Z</time>
      </trkpt>
      <trkpt lat="45.1731" lon="5.92611">
        <ele>1760.5</ele>
        <time>2021-02-20T09:02:58Z</time>
      </trkpt>
      <trkpt lat="45.1731" lon="5.92612">
        <ele>1760.5</ele>
        <time>2021-02-20T09:02:59Z</time>
      </trkpt>
      <trkpt lat="45.1731" lon="5.92613">
        <ele>1760.5</ele>
        <time>2021-02-20T09:03:00Z</time>
      </trkpt>
      <trkpt lat="45.1731" lon="5.92614">
        <ele>1760.8</ele>
        <time>2021-02-20T09:03:01Z</time>
      </trkpt>
      <trkpt lat="45.1731" lon="5.92615">
        <ele>1760.8</ele>
        <time>2021-02-20T09:03:02Z</time>
      </trkpt>
      <trkpt lat="45.1731" lon="5.92617">
        <ele>1760.8</ele>
        <time>2021-02-20T09:03:03Z</time>
      </trkpt>
      <trkpt lat="45.1731" lon="5.92618">
        <ele>1760.9</ele>
        <time>2021-02-20T09:03:04Z</time>
      </trkpt>
      <trkpt lat="45.1731" lon="5.92619">
        <ele>1761.1</ele>
        <time>2021-02-20T09:03:05Z</time>
      </trkpt>
      <trkpt lat="45.1731" lon="5.9262">
        <ele>1761.1</ele>
        <time>2021-02-20T09:03:06Z</time>
      </trkpt>
      <trkpt lat="45.1731" lon="5.92621">
        <ele>1761.2</ele>
        <time>2021-02-20T09:03:07Z</time>
      </trkpt>
      <trkpt lat="45.17309" lon="5.92622">
        <ele>1761.2</ele>
        <time>2021-02-20T09:03:08Z</time>
      </trkpt>
      <trkpt lat="45.17309" lon="5.92623">
        <ele>1761.4</ele>
        <time>2021-02-20T09:03:09Z</time>
      </trkpt>
      <trkpt lat="45.17308" lon="5.92623">
        <ele>1761.5</ele>
        <time>2021-02-20T09:03:10Z</time>
      </trkpt>
      <trkpt lat="45.17308" lon="5.92624">
        <ele>1762.3</ele>
        <time>2021-02-20T09:03:11Z</time>
      </trkpt>
      <trkpt lat="45.17308" lon="5.92625">
        <ele>1762.3</ele>
        <time>2021-02-20T09:03:12Z</time>
      </trkpt>
      <trkpt lat="45.17307" lon="5.92626">
        <ele>1762.4</ele>
        <time>2021-02-20T09:03:13Z</time>
      </trkpt>
      <trkpt lat="45.17307" lon="5.92627">
        <ele>1762.6</ele>
        <time>2021-02-20T09:03:14Z</time>
      </trkpt>
      <trkpt lat="45.17307" lon="5.92627">
        <ele>1762.6</ele>
        <time>2021-02-20T09:03:15Z</time>
      </trkpt>
      <trkpt lat="45.17306" lon="5.92627">
        <ele>1762.7</ele>
        <time>2021-02-20T09:03:16Z</time>
      </trkpt>
      <trkpt lat="45.17306" lon="5.92628">
        <ele>1762.7</ele>
        <time>2021-02-20T09:03:17Z</time>
      </trkpt>
      <trkpt lat="45.17306" lon="5.92628">
        <ele>1762.8</ele>
        <time>2021-02-20T09:03:18Z</time>
      </trkpt>
      <trkpt lat="45.17305" lon="5.92629">
        <ele>1763.6</ele>
        <time>2021-02-20T09:03:19Z</time>
      </trkpt>
      <trkpt lat="45.17304" lon="5.9263">
        <ele>1763.6</ele>
        <time>2021-02-20T09:03:20Z</time>
      </trkpt>
      <trkpt lat="45.17304" lon="5.9263">
        <ele>1763.6</ele>
        <time>2021-02-20T09:03:21Z</time>
      </trkpt>
      <trkpt lat="45.17303" lon="5.92631">
        <ele>1763.7</ele>
        <time>2021-02-20T09:03:22Z</time>
      </trkpt>
      <trkpt lat="45.17303" lon="5.92631">
        <ele>1763.9</ele>
        <time>2021-02-20T09:03:23Z</time>
      </trkpt>
      <trkpt lat="45.17302" lon="5.92632">
        <ele>1764.7</ele>
        <time>2021-02-20T09:03:24Z</time>
      </trkpt>
      <trkpt lat="45.17302" lon="5.92632">
        <ele>1764.7</ele>
        <time>2021-02-20T09:03:25Z</time>
      </trkpt>
      <trkpt lat="45.17301" lon="5.92632">
        <ele>1764.8</ele>
        <time>2021-02-20T09:03:26Z</time>
      </trkpt>
      <trkpt lat="45.17301" lon="5.92633">
        <ele>1764.8</ele>
        <time>2021-02-20T09:03:27Z</time>
      </trkpt>
      <trkpt lat="45.173" lon="5.92633">
        <ele>1764.8</ele>
        <time>2021-02-20T09:03:28Z</time>
      </trkpt>
      <trkpt lat="45.17299" lon="5.92634">
        <ele>1765.6</ele>
        <time>2021-02-20T09:03:29Z</time>
      </trkpt>
      <trkpt lat="45.17298" lon="5.92635">
        <ele>1765.8</ele>
        <time>2021-02-20T09:03:30Z</time>
      </trkpt>
      <trkpt lat="45.17298" lon="5.92636">
        <ele>1765.9</ele>
        <time>2021-02-20T09:03:31Z</time>
      </trkpt>
      <trkpt lat="45.17297" lon="5.92637">
        <ele>1765.9</ele>
        <time>2021-02-20T09:03:32Z</time>
      </trkpt>
      <trkpt lat="45.17296" lon="5.92638">
        <ele>1766.6</ele>
        <time>2021-02-20T09:03:33Z</time>
      </trkpt>
      <trkpt lat="45.17295" lon="5.92639">
        <ele>1766.7</ele>
        <time>2021-02-20T09:03:34Z</time>
      </trkpt>
      <trkpt lat="45.17295" lon="5.9264">
        <ele>1766.9</ele>
        <time>2021-02-20T09:03:35Z</time>
      </trkpt>
      <trkpt lat="45.17294" lon="5.92641">
        <ele>1766.9</ele>
        <time>2021-02-20T09:03:36Z</time>
      </trkpt>
      <trkpt lat="45.17293" lon="5.92641">
        <ele>1767.7</ele>
        <time>2021-02-20T09:03:37Z</time>
      </trkpt>
      <trkpt lat="45.17292" lon="5.92642">
        <ele>1767.7</ele>
        <time>2021-02-20T09:03:38Z</time>
      </trkpt>
      <trkpt lat="45.17292" lon="5.92642">
        <ele>1767.8</ele>
        <time>2021-02-20T09:03:39Z</time>
      </trkpt>
      <trkpt lat="45.17291" lon="5.92642">
        <ele>1767.8</ele>
        <time>2021-02-20T09:03:40Z</time>
      </trkpt>
      <trkpt lat="45.17291" lon="5.92642">
        <ele>1767.9</ele>
        <time>2021-02-20T09:03:41Z</time>
      </trkpt>
      <trkpt lat="45.17291" lon="5.92642">
        <ele>1767.9</ele>
        <time>2021-02-20T09:03:42Z</time>
      </trkpt>
      <trkpt lat="45.1729" lon="5.92643">
        <ele>1768.7</ele>
        <time>2021-02-20T09:03:43Z</time>
      </trkpt>
      <trkpt lat="45.17289" lon="5.92643">
        <ele>1768.7</ele>
        <time>2021-02-20T09:03:44Z</time>
      </trkpt>
      <trkpt lat="45.17288" lon="5.92644">
        <ele>1768.8</ele>
        <time>2021-02-20T09:03:45Z</time>
      </trkpt>
      <trkpt lat="45.17286" lon="5.92644">
        <ele>1769.8</ele>
        <time>2021-02-20T09:03:46Z</time>
      </trkpt>
      <trkpt lat="45.17286" lon="5.92644">
        <ele>1769.9</ele>
        <time>2021-02-20T09:03:47Z</time>
      </trkpt>
      <trkpt lat="45.17285" lon="5.92645">
        <ele>1769.9</ele>
        <time>2021-02-20T09:03:48Z</time>
      </trkpt>
      <trkpt lat="45.17284" lon="5.92645">
        <ele>1770</ele>
        <time>2021-02-20T09:03:49Z</time>
      </trkpt>
      <trkpt lat="45.17284" lon="5.92646">
        <ele>1770.9</ele>
        <time>2021-02-20T09:03:50Z</time>
      </trkpt>
      <trkpt lat="45.17283" lon="5.92647">
        <ele>1770.9</ele>
        <time>2021-02-20T09:03:51Z</time>
      </trkpt>
      <trkpt lat="45.17282" lon="5.92647">
        <ele>1771</ele>
        <time>2021-02-20T09:03:52Z</time>
      </trkpt>
      <trkpt lat="45.17281" lon="5.92647">
        <ele>1771</ele>
        <time>2021-02-20T09:03:53Z</time>
      </trkpt>
      <trkpt lat="45.17281" lon="5.92648">
        <ele>1772</ele>
        <time>2021-02-20T09:03:54Z</time>
      </trkpt>
      <trkpt lat="45.1728" lon="5.92649">
        <ele>1772.3</ele>
        <time>2021-02-20T09:03:55Z</time>
      </trkpt>
      <trkpt lat="45.17279" lon="5.9265">
        <ele>1772.3</ele>
        <time>2021-02-20T09:03:56Z</time>
      </trkpt>
      <trkpt lat="45.17279" lon="5.92651">
        <ele>1772.3</ele>
        <time>2021-02-20T09:03:57Z</time>
      </trkpt>
      <trkpt lat="45.17278" lon="5.92651">
        <ele>1773.4</ele>
        <time>2021-02-20T09:03:58Z</time>
      </trkpt>
      <trkpt lat="45.17277" lon="5.92652">
        <ele>1773.4</ele>
        <time>2021-02-20T09:03:59Z</time>
      </trkpt>
      <trkpt lat="45.17276" lon="5.92653">
        <ele>1773.7</ele>
        <time>2021-02-20T09:04:00Z</time>
      </trkpt>
      <trkpt lat="45.17275" lon="5.92654">
        <ele>1773.7</ele>
        <time>2021-02-20T09:04:01Z</time>
      </trkpt>
      <trkpt lat="45.17274" lon="5.92656">
        <ele>1774.8</ele>
        <time>2021-02-20T09:04:02Z</time>
      </trkpt>
      <trkpt lat="45.17274" lon="5.92656">
        <ele>1774.9</ele>
        <time>2021-02-20T09:04:03Z</time>
      </trkpt>
      <trkpt lat="45.17273" lon="5.92657">
        <ele>1775.2</ele>
        <time>2021-02-20T09:04:04Z</time>
      </trkpt>
      <trkpt lat="45.17273" lon="5.92658">
        <ele>1775.3</ele>
        <time>2021-02-20T09:04:05Z</time>
      </trkpt>
      <trkpt lat="45.17273" lon="5.92658">
        <ele>1775.3</ele>
        <time>2021-02-20T09:04:06Z</time>
      </trkpt>
      <trkpt lat="45.17272" lon="5.92659">
        <ele>1775.3</ele>
        <time>2021-02-20T09:04:07Z</time>
      </trkpt>
      <trkpt lat="45.17271" lon="5.9266">
        <ele>1776.4</ele>
        <time>2021-02-20T09:04:08Z</time>
      </trkpt>
      <trkpt lat="45.17271" lon="5.9266">
        <ele>1776.5</ele>
        <time>2021-02-20T09:04:09Z</time>
      </trkpt>
      <trkpt lat="45.17271" lon="5.92661">
        <ele>1776.5</ele>
        <time>2021-02-20T09:04:10Z</time>
      </trkpt>
      <trkpt lat="45.1727" lon="5.92662">
        <ele>1776.9</ele>
        <time>2021-02-20T09:04:11Z</time>
      </trkpt>
      <trkpt lat="45.17269" lon="5.92663">
        <ele>1777</ele>
        <time>2021-02-20T09:04:12Z</time>
      </trkpt>
      <trkpt lat="45.17269" lon="5.92663">
        <ele>1778.1</ele>
        <time>2021-02-20T09:04:13Z</time>
      </trkpt>
      <trkpt lat="45.17268" lon="5.92664">
        <ele>1778.1</ele>
        <time>2021-02-20T09:04:14Z</time>
      </trkpt>
      <trkpt lat="45.17267" lon="5.92665">
        <ele>1778.1</ele>
        <time>2021-02-20T09:04:15Z</time>
      </trkpt>
      <trkpt lat="45.17267" lon="5.92665">
        <ele>1778.2</ele>
        <time>2021-02-20T09:04:16Z</time>
      </trkpt>
      <trkpt lat="45.17266" lon="5.92666">
        <ele>1778.6</ele>
        <time>2021-02-20T09:04:17Z</time>
      </trkpt>
      <trkpt lat="45.17266" lon="5.92666">
        <ele>1779.7</ele>
        <time>2021-02-20T09:04:18Z</time>
      </trkpt>
      <trkpt lat="45.17265" lon="5.92667">
        <ele>1779.8</ele>
        <time>2021-02-20T09:04:19Z</time>
      </trkpt>
      <trkpt lat="45.17264" lon="5.92668">
        <ele>1779.8</ele>
        <time>2021-02-20T09:04:20Z</time>
      </trkpt>
      <trkpt lat="45.17263" lon="5.92669">
        <ele>1779.8</ele>
        <time>2021-02-20T09:04:21Z</time>
      </trkpt>
      <trkpt lat="45.17263" lon="5.9267">
        <ele>1781.4</ele>
        <time>2021-02-20T09:04:22Z</time>
      </trkpt>
      <trkpt lat="45.17262" lon="5.9267">
        <ele>1781.4</ele>
        <time>2021-02-20T09:04:23Z</time>
      </trkpt>
      <trkpt lat="45.17262" lon="5.92671">
        <ele>1781.5</ele>
        <time>2021-02-20T09:04:24Z</time>
      </trkpt>
      <trkpt lat="45.17262" lon="5.92672">
        <ele>1781.5</ele>
        <time>2021-02-20T09:04:25Z</time>
      </trkpt>
      <trkpt lat="45.17262" lon="5.92673">
        <ele>1781.5</ele>
        <time>2021-02-20T09:04:26Z</time>
      </trkpt>
      <trkpt lat="45.17263" lon="5.92674">
        <ele>1782</ele>
        <time>2021-02-20T09:04:27Z</time>
      </trkpt>
      <trkpt lat="45.17263" lon="5.92675">
        <ele>1781</ele>
        <time>2021-02-20T09:04:28Z</time>
      </trkpt>
      <trkpt lat="45.17264" lon="5.92675">
        <ele>1781.1</ele>
        <time>2021-02-20T09:04:29Z</time>
      </trkpt>
      <trkpt lat="45.17264" lon="5.92676">
        <ele>1781.1</ele>
        <time>2021-02-20T09:04:30Z</time>
      </trkpt>
      <trkpt lat="45.17265" lon="5.92676">
        <ele>1781.1</ele>
        <time>2021-02-20T09:04:31Z</time>
      </trkpt>
      <trkpt lat="45.17266" lon="5.92676">
        <ele>1781.2</ele>
        <time>2021-02-20T09:04:32Z</time>
      </trkpt>
      <trkpt lat="45.17266" lon="5.92677">
        <ele>1780.2</ele>
        <time>2021-02-20T09:04:33Z</time>
      </trkpt>
      <trkpt lat="45.17267" lon="5.92678">
        <ele>1780.2</ele>
        <time>2021-02-20T09:04:34Z</time>
      </trkpt>
      <trkpt lat="45.17268" lon="5.92679">
        <ele>1780.8</ele>
        <time>2021-02-20T09:04:35Z</time>
      </trkpt>
      <trkpt lat="45.17268" lon="5.92679">
        <ele>1780.8</ele>
        <time>2021-02-20T09:04:36Z</time>
      </trkpt>
      <trkpt lat="45.17269" lon="5.9268">
        <ele>1780.8</ele>
        <time>2021-02-20T09:04:37Z</time>
      </trkpt>
      <trkpt lat="45.17269" lon="5.92681">
        <ele>1779.8</ele>
        <time>2021-02-20T09:04:38Z</time>
      </trkpt>
      <trkpt lat="45.1727" lon="5.92681">
        <ele>1779.8</ele>
        <time>2021-02-20T09:04:39Z</time>
      </trkpt>
      <trkpt lat="45.1727" lon="5.92682">
        <ele>1779.9</ele>
        <time>2021-02-20T09:04:40Z</time>
      </trkpt>
      <trkpt lat="45.17271" lon="5.92682">
        <ele>1780.5</ele>
        <time>2021-02-20T09:04:41Z</time>
      </trkpt>
      <trkpt lat="45.17272" lon="5.92683">
        <ele>1780.5</ele>
        <time>2021-02-20T09:04:42Z</time>
      </trkpt>
      <trkpt lat="45.17272" lon="5.92683">
        <ele>1779.5</ele>
        <time>2021-02-20T09:04:43Z</time>
      </trkpt>
      <trkpt lat="45.17273" lon="5.92684">
        <ele>1779.6</ele>
        <time>2021-02-20T09:04:44Z</time>
      </trkpt>
      <trkpt lat="45.17273" lon="5.92685">
        <ele>1779.6</ele>
        <time>2021-02-20T09:04:45Z</time>
      </trkpt>
      <trkpt lat="45.17274" lon="5.92685">
        <ele>1779.6</ele>
        <time>2021-02-20T09:04:46Z</time>
      </trkpt>
      <trkpt lat="45.17274" lon="5.92686">
        <ele>1779.7</ele>
        <time>2021-02-20T09:04:47Z</time>
      </trkpt>
      <trkpt lat="45.17275" lon="5.92687">
        <ele>1779.4</ele>
        <time>2021-02-20T09:04:48Z</time>
      </trkpt>
      <trkpt lat="45.17276" lon="5.92688">
        <ele>1779.4</ele>
        <time>2021-02-20T09:04:49Z</time>
      </trkpt>
      <trkpt lat="45.17276" lon="5.92688">
        <ele>1779.5</ele>
        <time>2021-02-20T09:04:50Z</time>
      </trkpt>
      <trkpt lat="45.17277" lon="5.92689">
        <ele>1779.5</ele>
        <time>2021-02-20T09:04:51Z</time>
      </trkpt>
      <trkpt lat="45.17277" lon="5.9269">
        <ele>1779.5</ele>
        <time>2021-02-20T09:04:52Z</time>
      </trkpt>
      <trkpt lat="45.17278" lon="5.9269">
        <ele>1779.6</ele>
        <time>2021-02-20T09:04:53Z</time>
      </trkpt>
      <trkpt lat="45.17279" lon="5.92691">
        <ele>1779.4</ele>
        <time>2021-02-20T09:04:54Z</time>
      </trkpt>
      <trkpt lat="45.17279" lon="5.92692">
        <ele>1779.5</ele>
        <time>2021-02-20T09:04:55Z</time>
      </trkpt>
      <trkpt lat="45.1728" lon="5.92693">
        <ele>1779.5</ele>
        <time>2021-02-20T09:04:56Z</time>
      </trkpt>
      <trkpt lat="45.17281" lon="5.92694">
        <ele>1779.5</ele>
        <time>2021-02-20T09:04:57Z</time>
      </trkpt>
      <trkpt lat="45.17282" lon="5.92695">
        <ele>1778.7</ele>
        <time>2021-02-20T09:04:58Z</time>
      </trkpt>
      <trkpt lat="45.17282" lon="5.92696">
        <ele>1779.6</ele>
        <time>2021-02-20T09:04:59Z</time>
      </trkpt>
      <trkpt lat="45.17283" lon="5.92696">
        <ele>1779.6</ele>
        <time>2021-02-20T09:05:00Z</time>
      </trkpt>
      <trkpt lat="45.17284" lon="5.92697">
        <ele>1779.6</ele>
        <time>2021-02-20T09:05:01Z</time>
      </trkpt>
      <trkpt lat="45.17284" lon="5.92698">
        <ele>1778.9</ele>
        <time>2021-02-20T09:05:02Z</time>
      </trkpt>
      <trkpt lat="45.17285" lon="5.92699">
        <ele>1778.9</ele>
        <time>2021-02-20T09:05:03Z</time>
      </trkpt>
      <trkpt lat="45.17285" lon="5.927">
        <ele>1779.8</ele>
        <time>2021-02-20T09:05:04Z</time>
      </trkpt>
      <trkpt lat="45.17286" lon="5.927">
        <ele>1779.9</ele>
        <time>2021-02-20T09:05:05Z</time>
      </trkpt>
      <trkpt lat="45.17287" lon="5.92701">
        <ele>1779.9</ele>
        <time>2021-02-20T09:05:06Z</time>
      </trkpt>
      <trkpt lat="45.17287" lon="5.92701">
        <ele>1779.2</ele>
        <time>2021-02-20T09:05:07Z</time>
      </trkpt>
      <trkpt lat="45.17288" lon="5.92702">
        <ele>1779.3</ele>
        <time>2021-02-20T09:05:08Z</time>
      </trkpt>
      <trkpt lat="45.17288" lon="5.92703">
        <ele>1779.3</ele>
        <time>2021-02-20T09:05:09Z</time>
      </trkpt>
      <trkpt lat="45.17289" lon="5.92703">
        <ele>1779.3</ele>
        <time>2021-02-20T09:05:10Z</time>
      </trkpt>
      <trkpt lat="45.17289" lon="5.92704">
        <ele>1779.4</ele>
        <time>2021-02-20T09:05:11Z</time>
      </trkpt>
      <trkpt lat="45.1729" lon="5.92704">
        <ele>1780.3</ele>
        <time>2021-02-20T09:05:12Z</time>
      </trkpt>
      <trkpt lat="45.17291" lon="5.92705">
        <ele>1779.7</ele>
        <time>2021-02-20T09:05:13Z</time>
      </trkpt>
      <trkpt lat="45.17291" lon="5.92705">
        <ele>1779.8</ele>
        <time>2021-02-20T09:05:14Z</time>
      </trkpt>
      <trkpt lat="45.17293" lon="5.92706">
        <ele>1779.8</ele>
        <time>2021-02-20T09:05:15Z</time>
      </trkpt>
      <trkpt lat="45.17293" lon="5.92706">
        <ele>1779.2</ele>
        <time>2021-02-20T09:05:16Z</time>
      </trkpt>
      <trkpt lat="45.17294" lon="5.92706">
        <ele>1779.3</ele>
        <time>2021-02-20T09:05:17Z</time>
      </trkpt>
      <trkpt lat="45.17295" lon="5.92707">
        <ele>1779.3</ele>
        <time>2021-02-20T09:05:18Z</time>
      </trkpt>
      <trkpt lat="45.17295" lon="5.92707">
        <ele>1779.3</ele>
        <time>2021-02-20T09:05:19Z</time>
      </trkpt>
      <trkpt lat="45.17296" lon="5.92707">
        <ele>1779.4</ele>
        <time>2021-02-20T09:05:20Z</time>
      </trkpt>
      <trkpt lat="45.17297" lon="5.92707">
        <ele>1778.8</ele>
        <time>2021-02-20T09:05:21Z</time>
      </trkpt>
      <trkpt lat="45.17297" lon="5.92708">
        <ele>1778.9</ele>
        <time>2021-02-20T09:05:22Z</time>
      </trkpt>
      <trkpt lat="45.17298" lon="5.92708">
        <ele>1778.9</ele>
        <time>2021-02-20T09:05:23Z</time>
      </trkpt>
      <trkpt lat="45.17299" lon="5.92708">
        <ele>1779</ele>
        <time>2021-02-20T09:05:24Z</time>
      </trkpt>
      <trkpt lat="45.173" lon="5.92709">
        <ele>1779.3</ele>
        <time>2021-02-20T09:05:25Z</time>
      </trkpt>
      <trkpt lat="45.17301" lon="5.92709">
        <ele>1779.4</ele>
        <time>2021-02-20T09:05:26Z</time>
      </trkpt>
      <trkpt lat="45.17301" lon="5.92709">
        <ele>1779.4</ele>
        <time>2021-02-20T09:05:27Z</time>
      </trkpt>
      <trkpt lat="45.17302" lon="5.92709">
        <ele>1778.8</ele>
        <time>2021-02-20T09:05:28Z</time>
      </trkpt>
      <trkpt lat="45.17303" lon="5.92709">
        <ele>1778.9</ele>
        <time>2021-02-20T09:05:29Z</time>
      </trkpt>
      <trkpt lat="45.17304" lon="5.92709">
        <ele>1778.9</ele>
        <time>2021-02-20T09:05:30Z</time>
      </trkpt>
      <trkpt lat="45.17304" lon="5.9271">
        <ele>1779</ele>
        <time>2021-02-20T09:05:31Z</time>
      </trkpt>
      <trkpt lat="45.17305" lon="5.9271">
        <ele>1778.4</ele>
        <time>2021-02-20T09:05:32Z</time>
      </trkpt>
      <trkpt lat="45.17306" lon="5.9271">
        <ele>1778.4</ele>
        <time>2021-02-20T09:05:33Z</time>
      </trkpt>
      <trkpt lat="45.17307" lon="5.9271">
        <ele>1778.5</ele>
        <time>2021-02-20T09:05:34Z</time>
      </trkpt>
      <trkpt lat="45.17308" lon="5.92711">
        <ele>1778.5</ele>
        <time>2021-02-20T09:05:35Z</time>
      </trkpt>
      <trkpt lat="45.17309" lon="5.92711">
        <ele>1777.9</ele>
        <time>2021-02-20T09:05:36Z</time>
      </trkpt>
      <trkpt lat="45.1731" lon="5.92711">
        <ele>1777.9</ele>
        <time>2021-02-20T09:05:37Z</time>
      </trkpt>
      <trkpt lat="45.17311" lon="5.92712">
        <ele>1778</ele>
        <time>2021-02-20T09:05:38Z</time>
      </trkpt>
      <trkpt lat="45.17311" lon="5.92712">
        <ele>1778</ele>
        <time>2021-02-20T09:05:39Z</time>
      </trkpt>
      <trkpt lat="45.17312" lon="5.92712">
        <ele>1777.5</ele>
        <time>2021-02-20T09:05:40Z</time>
      </trkpt>
      <trkpt lat="45.17312" lon="5.92712">
        <ele>1777.5</ele>
        <time>2021-02-20T09:05:41Z</time>
      </trkpt>
      <trkpt lat="45.17313" lon="5.92711">
        <ele>1777.6</ele>
        <time>2021-02-20T09:05:42Z</time>
      </trkpt>
      <trkpt lat="45.17313" lon="5.92711">
        <ele>1777.6</ele>
        <time>2021-02-20T09:05:43Z</time>
      </trkpt>
      <trkpt lat="45.17314" lon="5.9271">
        <ele>1777.6</ele>
        <time>2021-02-20T09:05:44Z</time>
      </trkpt>
      <trkpt lat="45.17315" lon="5.9271">
        <ele>1777.2</ele>
        <time>2021-02-20T09:05:45Z</time>
      </trkpt>
      <trkpt lat="45.17316" lon="5.9271">
        <ele>1777.2</ele>
        <time>2021-02-20T09:05:46Z</time>
      </trkpt>
      <trkpt lat="45.17317" lon="5.92711">
        <ele>1777.3</ele>
        <time>2021-02-20T09:05:47Z</time>
      </trkpt>
      <trkpt lat="45.17317" lon="5.92712">
        <ele>1777.4</ele>
        <time>2021-02-20T09:05:48Z</time>
      </trkpt>
      <trkpt lat="45.17318" lon="5.92713">
        <ele>1777.5</ele>
        <time>2021-02-20T09:05:49Z</time>
      </trkpt>
      <trkpt lat="45.17318" lon="5.92714">
        <ele>1777.6</ele>
        <time>2021-02-20T09:05:50Z</time>
      </trkpt>
      <trkpt lat="45.17318" lon="5.92715">
        <ele>1777.7</ele>
        <time>2021-02-20T09:05:51Z</time>
      </trkpt>
      <trkpt lat="45.17318" lon="5.92716">
        <ele>1777.8</ele>
        <time>2021-02-20T09:05:52Z</time>
      </trkpt>
      <trkpt lat="45.17318" lon="5.92718">
        <ele>1777.9</ele>
        <time>2021-02-20T09:05:53Z</time>
      </trkpt>
      <trkpt lat="45.17318" lon="5.92719">
        <ele>1778</ele>
        <time>2021-02-20T09:05:54Z</time>
      </trkpt>
      <trkpt lat="45.17318" lon="5.9272">
        <ele>1778.1</ele>
        <time>2021-02-20T09:05:55Z</time>
      </trkpt>
      <trkpt lat="45.17318" lon="5.92722">
        <ele>1778.2</ele>
        <time>2021-02-20T09:05:56Z</time>
      </trkpt>
      <trkpt lat="45.17318" lon="5.92723">
        <ele>1778.3</ele>
        <time>2021-02-20T09:05:57Z</time>
      </trkpt>
      <trkpt lat="45.17318" lon="5.92724">
        <ele>1778.4</ele>
        <time>2021-02-20T09:05:58Z</time>
      </trkpt>
      <trkpt lat="45.17318" lon="5.92726">
        <ele>1778.5</ele>
        <time>2021-02-20T09:05:59Z</time>
      </trkpt>
      <trkpt lat="45.17318" lon="5.92727">
        <ele>1778.6</ele>
        <time>2021-02-20T09:06:00Z</time>
      </trkpt>
      <trkpt lat="45.17318" lon="5.92729">
        <ele>1778.7</ele>
        <time>2021-02-20T09:06:01Z</time>
      </trkpt>
      <trkpt lat="45.17318" lon="5.9273">
        <ele>1778.8</ele>
        <time>2021-02-20T09:06:02Z</time>
      </trkpt>
      <trkpt lat="45.17318" lon="5.92731">
        <ele>1778.9</ele>
        <time>2021-02-20T09:06:03Z</time>
      </trkpt>
      <trkpt lat="45.17318" lon="5.92732">
        <ele>1779</ele>
        <time>2021-02-20T09:06:04Z</time>
      </trkpt>
      <trkpt lat="45.17318" lon="5.92734">
        <ele>1779.1</ele>
        <time>2021-02-20T09:06:05Z</time>
      </trkpt>
      <trkpt lat="45.17318" lon="5.92735">
        <ele>1779.2</ele>
        <time>2021-02-20T09:06:06Z</time>
      </trkpt>
      <trkpt lat="45.17319" lon="5.92737">
        <ele>1779.3</ele>
        <time>2021-02-20T09:06:07Z</time>
      </trkpt>
      <trkpt lat="45.17319" lon="5.92738">
        <ele>1779.4</ele>
        <time>2021-02-20T09:06:08Z</time>
      </trkpt>
      <trkpt lat="45.17319" lon="5.92739">
        <ele>1779.6</ele>
        <time>2021-02-20T09:06:09Z</time>
      </trkpt>
      <trkpt lat="45.17319" lon="5.92741">
        <ele>1779.7</ele>
        <time>2021-02-20T09:06:10Z</time>
      </trkpt>
      <trkpt lat="45.17319" lon="5.92742">
        <ele>1779.8</ele>
        <time>2021-02-20T09:06:11Z</time>
      </trkpt>
      <trkpt lat="45.17318" lon="5.92743">
        <ele>1779.9</ele>
        <time>2021-02-20T09:06:12Z</time>
      </trkpt>
      <trkpt lat="45.17318" lon="5.92745">
        <ele>1780</ele>
        <time>2021-02-20T09:06:13Z</time>
      </trkpt>
      <trkpt lat="45.17318" lon="5.92746">
        <ele>1780.2</ele>
        <time>2021-02-20T09:06:14Z</time>
      </trkpt>
      <trkpt lat="45.17318" lon="5.92748">
        <ele>1780.3</ele>
        <time>2021-02-20T09:06:15Z</time>
      </trkpt>
      <trkpt lat="45.17318" lon="5.92749">
        <ele>1780.4</ele>
        <time>2021-02-20T09:06:16Z</time>
      </trkpt>
      <trkpt lat="45.17318" lon="5.9275">
        <ele>1780.5</ele>
        <time>2021-02-20T09:06:17Z</time>
      </trkpt>
      <trkpt lat="45.17317" lon="5.92751">
        <ele>1780.6</ele>
        <time>2021-02-20T09:06:18Z</time>
      </trkpt>
      <trkpt lat="45.17317" lon="5.92752">
        <ele>1780.7</ele>
        <time>2021-02-20T09:06:19Z</time>
      </trkpt>
      <trkpt lat="45.17317" lon="5.92753">
        <ele>1780.8</ele>
        <time>2021-02-20T09:06:20Z</time>
      </trkpt>
      <trkpt lat="45.17317" lon="5.92754">
        <ele>1780.9</ele>
        <time>2021-02-20T09:06:21Z</time>
      </trkpt>
      <trkpt lat="45.17316" lon="5.92755">
        <ele>1780.9</ele>
        <time>2021-02-20T09:06:22Z</time>
      </trkpt>
      <trkpt lat="45.17316" lon="5.92755">
        <ele>1781</ele>
        <time>2021-02-20T09:06:23Z</time>
      </trkpt>
      <trkpt lat="45.17315" lon="5.92756">
        <ele>1781.1</ele>
        <time>2021-02-20T09:06:24Z</time>
      </trkpt>
      <trkpt lat="45.17315" lon="5.92757">
        <ele>1781.2</ele>
        <time>2021-02-20T09:06:25Z</time>
      </trkpt>
      <trkpt lat="45.17314" lon="5.92758">
        <ele>1781.3</ele>
        <time>2021-02-20T09:06:26Z</time>
      </trkpt>
      <trkpt lat="45.17314" lon="5.92759">
        <ele>1781.4</ele>
        <time>2021-02-20T09:06:27Z</time>
      </trkpt>
      <trkpt lat="45.17313" lon="5.9276">
        <ele>1781.5</ele>
        <time>2021-02-20T09:06:28Z</time>
      </trkpt>
      <trkpt lat="45.17313" lon="5.92761">
        <ele>1781.6</ele>
        <time>2021-02-20T09:06:29Z</time>
      </trkpt>
      <trkpt lat="45.17313" lon="5.92762">
        <ele>1781.6</ele>
        <time>2021-02-20T09:06:30Z</time>
      </trkpt>
      <trkpt lat="45.17313" lon="5.92763">
        <ele>1781.7</ele>
        <time>2021-02-20T09:06:31Z</time>
      </trkpt>
      <trkpt lat="45.17313" lon="5.92765">
        <ele>1781.8</ele>
        <time>2021-02-20T09:06:32Z</time>
      </trkpt>
      <trkpt lat="45.17313" lon="5.92766">
        <ele>1781.9</ele>
        <time>2021-02-20T09:06:33Z</time>
      </trkpt>
      <trkpt lat="45.17313" lon="5.92767">
        <ele>1781.9</ele>
        <time>2021-02-20T09:06:34Z</time>
      </trkpt>
      <trkpt lat="45.17313" lon="5.92768">
        <ele>1782</ele>
        <time>2021-02-20T09:06:35Z</time>
      </trkpt>
      <trkpt lat="45.17313" lon="5.92769">
        <ele>1782.1</ele>
        <time>2021-02-20T09:06:36Z</time>
      </trkpt>
      <trkpt lat="45.17313" lon="5.92771">
        <ele>1782.2</ele>
        <time>2021-02-20T09:06:37Z</time>
      </trkpt>
      <trkpt lat="45.17313" lon="5.92772">
        <ele>1782.3</ele>
        <time>2021-02-20T09:06:38Z</time>
      </trkpt>
      <trkpt lat="45.17313" lon="5.92773">
        <ele>1782.4</ele>
        <time>2021-02-20T09:06:39Z</time>
      </trkpt>
      <trkpt lat="45.17313" lon="5.92774">
        <ele>1782.4</ele>
        <time>2021-02-20T09:06:40Z</time>
      </trkpt>
      <trkpt lat="45.17312" lon="5.92775">
        <ele>1782.4</ele>
        <time>2021-02-20T09:06:41Z</time>
      </trkpt>
      <trkpt lat="45.17312" lon="5.92776">
        <ele>1782.5</ele>
        <time>2021-02-20T09:06:42Z</time>
      </trkpt>
      <trkpt lat="45.17312" lon="5.92777">
        <ele>1782.6</ele>
        <time>2021-02-20T09:06:43Z</time>
      </trkpt>
      <trkpt lat="45.17312" lon="5.92778">
        <ele>1782.7</ele>
        <time>2021-02-20T09:06:44Z</time>
      </trkpt>
      <trkpt lat="45.17311" lon="5.92779">
        <ele>1782.8</ele>
        <time>2021-02-20T09:06:45Z</time>
      </trkpt>
      <trkpt lat="45.17311" lon="5.92781">
        <ele>1782.8</ele>
        <time>2021-02-20T09:06:46Z</time>
      </trkpt>
      <trkpt lat="45.17311" lon="5.92782">
        <ele>1782.9</ele>
        <time>2021-02-20T09:06:47Z</time>
      </trkpt>
      <trkpt lat="45.17311" lon="5.92783">
        <ele>1783</ele>
        <time>2021-02-20T09:06:48Z</time>
      </trkpt>
      <trkpt lat="45.17311" lon="5.92784">
        <ele>1783.1</ele>
        <time>2021-02-20T09:06:49Z</time>
      </trkpt>
      <trkpt lat="45.17311" lon="5.92785">
        <ele>1783.2</ele>
        <time>2021-02-20T09:06:50Z</time>
      </trkpt>
      <trkpt lat="45.1731" lon="5.92786">
        <ele>1783.3</ele>
        <time>2021-02-20T09:06:51Z</time>
      </trkpt>
      <trkpt lat="45.1731" lon="5.92787">
        <ele>1783.3</ele>
        <time>2021-02-20T09:06:52Z</time>
      </trkpt>
      <trkpt lat="45.1731" lon="5.92788">
        <ele>1783.4</ele>
        <time>2021-02-20T09:06:53Z</time>
      </trkpt>
      <trkpt lat="45.17311" lon="5.92789">
        <ele>1783.4</ele>
        <time>2021-02-20T09:06:54Z</time>
      </trkpt>
      <trkpt lat="45.17311" lon="5.9279">
        <ele>1783.5</ele>
        <time>2021-02-20T09:06:55Z</time>
      </trkpt>
      <trkpt lat="45.17311" lon="5.92791">
        <ele>1783.6</ele>
        <time>2021-02-20T09:06:56Z</time>
      </trkpt>
      <trkpt lat="45.17311" lon="5.92792">
        <ele>1783.7</ele>
        <time>2021-02-20T09:06:57Z</time>
      </trkpt>
      <trkpt lat="45.17312" lon="5.92794">
        <ele>1783.8</ele>
        <time>2021-02-20T09:06:58Z</time>
      </trkpt>
      <trkpt lat="45.17312" lon="5.92795">
        <ele>1783.9</ele>
        <time>2021-02-20T09:06:59Z</time>
      </trkpt>
      <trkpt lat="45.17313" lon="5.92796">
        <ele>1784.1</ele>
        <time>2021-02-20T09:07:00Z</time>
      </trkpt>
      <trkpt lat="45.17313" lon="5.92797">
        <ele>1784.2</ele>
        <time>2021-02-20T09:07:01Z</time>
      </trkpt>
      <trkpt lat="45.17313" lon="5.92798">
        <ele>1784.3</ele>
        <time>2021-02-20T09:07:02Z</time>
      </trkpt>
      <trkpt lat="45.17314" lon="5.92799">
        <ele>1784.4</ele>
        <time>2021-02-20T09:07:03Z</time>
      </trkpt>
      <trkpt lat="45.17314" lon="5.928">
        <ele>1784.5</ele>
        <time>2021-02-20T09:07:04Z</time>
      </trkpt>
      <trkpt lat="45.17315" lon="5.92801">
        <ele>1784.6</ele>
        <time>2021-02-20T09:07:05Z</time>
      </trkpt>
      <trkpt lat="45.17315" lon="5.92803">
        <ele>1784.8</ele>
        <time>2021-02-20T09:07:06Z</time>
      </trkpt>
      <trkpt lat="45.17316" lon="5.92803">
        <ele>1784.9</ele>
        <time>2021-02-20T09:07:07Z</time>
      </trkpt>
      <trkpt lat="45.17316" lon="5.92804">
        <ele>1785</ele>
        <time>2021-02-20T09:07:08Z</time>
      </trkpt>
      <trkpt lat="45.17317" lon="5.92805">
        <ele>1785.1</ele>
        <time>2021-02-20T09:07:09Z</time>
      </trkpt>
      <trkpt lat="45.17317" lon="5.92806">
        <ele>1785.3</ele>
        <time>2021-02-20T09:07:10Z</time>
      </trkpt>
      <trkpt lat="45.17318" lon="5.92807">
        <ele>1785.4</ele>
        <time>2021-02-20T09:07:11Z</time>
      </trkpt>
      <trkpt lat="45.17318" lon="5.92808">
        <ele>1785.6</ele>
        <time>2021-02-20T09:07:12Z</time>
      </trkpt>
      <trkpt lat="45.17319" lon="5.92809">
        <ele>1785.8</ele>
        <time>2021-02-20T09:07:13Z</time>
      </trkpt>
      <trkpt lat="45.1732" lon="5.92809">
        <ele>1786.1</ele>
        <time>2021-02-20T09:07:14Z</time>
      </trkpt>
      <trkpt lat="45.17321" lon="5.92811">
        <ele>1786.3</ele>
        <time>2021-02-20T09:07:15Z</time>
      </trkpt>
      <trkpt lat="45.17322" lon="5.92811">
        <ele>1786.6</ele>
        <time>2021-02-20T09:07:16Z</time>
      </trkpt>
      <trkpt lat="45.17323" lon="5.92812">
        <ele>1786.7</ele>
        <time>2021-02-20T09:07:17Z</time>
      </trkpt>
      <trkpt lat="45.17323" lon="5.92813">
        <ele>1786.9</ele>
        <time>2021-02-20T09:07:18Z</time>
      </trkpt>
      <trkpt lat="45.17324" lon="5.92813">
        <ele>1787.1</ele>
        <time>2021-02-20T09:07:19Z</time>
      </trkpt>
      <trkpt lat="45.17324" lon="5.92814">
        <ele>1787.2</ele>
        <time>2021-02-20T09:07:20Z</time>
      </trkpt>
      <trkpt lat="45.17324" lon="5.92815">
        <ele>1787.4</ele>
        <time>2021-02-20T09:07:21Z</time>
      </trkpt>
      <trkpt lat="45.17325" lon="5.92816">
        <ele>1787.6</ele>
        <time>2021-02-20T09:07:22Z</time>
      </trkpt>
      <trkpt lat="45.17325" lon="5.92816">
        <ele>1787.6</ele>
        <time>2021-02-20T09:07:23Z</time>
      </trkpt>
      <trkpt lat="45.17325" lon="5.92816">
        <ele>1787.6</ele>
        <time>2021-02-20T09:07:24Z</time>
      </trkpt>
      <trkpt lat="45.17325" lon="5.92816">
        <ele>1787.6</ele>
        <time>2021-02-20T09:07:25Z</time>
      </trkpt>
      <trkpt lat="45.17325" lon="5.92816">
        <ele>1787.6</ele>
        <time>2021-02-20T09:07:26Z</time>
      </trkpt>
      <trkpt lat="45.17324" lon="5.92818">
        <ele>1787.9</ele>
        <time>2021-02-20T09:07:27Z</time>
      </trkpt>
      <trkpt lat="45.17325" lon="5.92818">
        <ele>1788.1</ele>
        <time>2021-02-20T09:07:28Z</time>
      </trkpt>
      <trkpt lat="45.17325" lon="5.92819">
        <ele>1788.2</ele>
        <time>2021-02-20T09:07:29Z</time>
      </trkpt>
      <trkpt lat="45.17326" lon="5.92819">
        <ele>1788.4</ele>
        <time>2021-02-20T09:07:30Z</time>
      </trkpt>
      <trkpt lat="45.17326" lon="5.9282">
        <ele>1788.6</ele>
        <time>2021-02-20T09:07:31Z</time>
      </trkpt>
      <trkpt lat="45.17327" lon="5.9282">
        <ele>1788.8</ele>
        <time>2021-02-20T09:07:32Z</time>
      </trkpt>
      <trkpt lat="45.17327" lon="5.92821">
        <ele>1789</ele>
        <time>2021-02-20T09:07:33Z</time>
      </trkpt>
      <trkpt lat="45.17328" lon="5.92822">
        <ele>1789.3</ele>
        <time>2021-02-20T09:07:34Z</time>
      </trkpt>
      <trkpt lat="45.17329" lon="5.92823">
        <ele>1789.5</ele>
        <time>2021-02-20T09:07:35Z</time>
      </trkpt>
      <trkpt lat="45.1733" lon="5.92824">
        <ele>1789.7</ele>
        <time>2021-02-20T09:07:36Z</time>
      </trkpt>
      <trkpt lat="45.1733" lon="5.92824">
        <ele>1789.9</ele>
        <time>2021-02-20T09:07:37Z</time>
      </trkpt>
      <trkpt lat="45.17331" lon="5.92825">
        <ele>1790.2</ele>
        <time>2021-02-20T09:07:38Z</time>
      </trkpt>
      <trkpt lat="45.17332" lon="5.92826">
        <ele>1790.4</ele>
        <time>2021-02-20T09:07:39Z</time>
      </trkpt>
      <trkpt lat="45.17333" lon="5.92827">
        <ele>1790.8</ele>
        <time>2021-02-20T09:07:40Z</time>
      </trkpt>
      <trkpt lat="45.17334" lon="5.92828">
        <ele>1791</ele>
        <time>2021-02-20T09:07:41Z</time>
      </trkpt>
      <trkpt lat="45.17334" lon="5.92829">
        <ele>1791.1</ele>
        <time>2021-02-20T09:07:42Z</time>
      </trkpt>
      <trkpt lat="45.17334" lon="5.92829">
        <ele>1791.3</ele>
        <time>2021-02-20T09:07:43Z</time>
      </trkpt>
      <trkpt lat="45.17335" lon="5.9283">
        <ele>1791.5</ele>
        <time>2021-02-20T09:07:44Z</time>
      </trkpt>
      <trkpt lat="45.17336" lon="5.92831">
        <ele>1791.7</ele>
        <time>2021-02-20T09:07:45Z</time>
      </trkpt>
      <trkpt lat="45.17337" lon="5.92832">
        <ele>1791.9</ele>
        <time>2021-02-20T09:07:46Z</time>
      </trkpt>
      <trkpt lat="45.17337" lon="5.92832">
        <ele>1792.1</ele>
        <time>2021-02-20T09:07:47Z</time>
      </trkpt>
      <trkpt lat="45.17338" lon="5.92832">
        <ele>1792.2</ele>
        <time>2021-02-20T09:07:48Z</time>
      </trkpt>
      <trkpt lat="45.17338" lon="5.92833">
        <ele>1792.3</ele>
        <time>2021-02-20T09:07:49Z</time>
      </trkpt>
      <trkpt lat="45.17339" lon="5.92834">
        <ele>1792.5</ele>
        <time>2021-02-20T09:07:50Z</time>
      </trkpt>
      <trkpt lat="45.17339" lon="5.92835">
        <ele>1792.7</ele>
        <time>2021-02-20T09:07:51Z</time>
      </trkpt>
      <trkpt lat="45.1734" lon="5.92836">
        <ele>1792.9</ele>
        <time>2021-02-20T09:07:52Z</time>
      </trkpt>
      <trkpt lat="45.17341" lon="5.92837">
        <ele>1793.1</ele>
        <time>2021-02-20T09:07:53Z</time>
      </trkpt>
      <trkpt lat="45.17341" lon="5.92838">
        <ele>1793.2</ele>
        <time>2021-02-20T09:07:54Z</time>
      </trkpt>
      <trkpt lat="45.17342" lon="5.92838">
        <ele>1793.4</ele>
        <time>2021-02-20T09:07:55Z</time>
      </trkpt>
      <trkpt lat="45.17343" lon="5.92839">
        <ele>1793.5</ele>
        <time>2021-02-20T09:07:56Z</time>
      </trkpt>
      <trkpt lat="45.17344" lon="5.9284">
        <ele>1793.6</ele>
        <time>2021-02-20T09:07:57Z</time>
      </trkpt>
      <trkpt lat="45.17344" lon="5.9284">
        <ele>1793.8</ele>
        <time>2021-02-20T09:07:58Z</time>
      </trkpt>
      <trkpt lat="45.17345" lon="5.92841">
        <ele>1793.9</ele>
        <time>2021-02-20T09:07:59Z</time>
      </trkpt>
      <trkpt lat="45.17346" lon="5.92842">
        <ele>1794</ele>
        <time>2021-02-20T09:08:00Z</time>
      </trkpt>
      <trkpt lat="45.17347" lon="5.92842">
        <ele>1794.2</ele>
        <time>2021-02-20T09:08:01Z</time>
      </trkpt>
      <trkpt lat="45.17347" lon="5.92843">
        <ele>1794.3</ele>
        <time>2021-02-20T09:08:02Z</time>
      </trkpt>
      <trkpt lat="45.17348" lon="5.92844">
        <ele>1794.4</ele>
        <time>2021-02-20T09:08:03Z</time>
      </trkpt>
      <trkpt lat="45.17349" lon="5.92845">
        <ele>1794.6</ele>
        <time>2021-02-20T09:08:04Z</time>
      </trkpt>
      <trkpt lat="45.17349" lon="5.92846">
        <ele>1794.7</ele>
        <time>2021-02-20T09:08:05Z</time>
      </trkpt>
      <trkpt lat="45.1735" lon="5.92847">
        <ele>1794.8</ele>
        <time>2021-02-20T09:08:06Z</time>
      </trkpt>
      <trkpt lat="45.1735" lon="5.92848">
        <ele>1794.9</ele>
        <time>2021-02-20T09:08:07Z</time>
      </trkpt>
      <trkpt lat="45.17351" lon="5.92849">
        <ele>1794.9</ele>
        <time>2021-02-20T09:08:08Z</time>
      </trkpt>
      <trkpt lat="45.17351" lon="5.9285">
        <ele>1795.1</ele>
        <time>2021-02-20T09:08:09Z</time>
      </trkpt>
      <trkpt lat="45.17351" lon="5.92852">
        <ele>1795.2</ele>
        <time>2021-02-20T09:08:10Z</time>
      </trkpt>
      <trkpt lat="45.17351" lon="5.92853">
        <ele>1795.3</ele>
        <time>2021-02-20T09:08:11Z</time>
      </trkpt>
      <trkpt lat="45.17352" lon="5.92854">
        <ele>1795.4</ele>
        <time>2021-02-20T09:08:12Z</time>
      </trkpt>
      <trkpt lat="45.17352" lon="5.92856">
        <ele>1795.6</ele>
        <time>2021-02-20T09:08:13Z</time>
      </trkpt>
      <trkpt lat="45.17353" lon="5.92857">
        <ele>1795.7</ele>
        <time>2021-02-20T09:08:14Z</time>
      </trkpt>
      <trkpt lat="45.17353" lon="5.92858">
        <ele>1795.8</ele>
        <time>2021-02-20T09:08:15Z</time>
      </trkpt>
      <trkpt lat="45.17353" lon="5.9286">
        <ele>1796</ele>
        <time>2021-02-20T09:08:16Z</time>
      </trkpt>
      <trkpt lat="45.17353" lon="5.92861">
        <ele>1796.1</ele>
        <time>2021-02-20T09:08:17Z</time>
      </trkpt>
      <trkpt lat="45.17353" lon="5.92863">
        <ele>1796.2</ele>
        <time>2021-02-20T09:08:18Z</time>
      </trkpt>
      <trkpt lat="45.17353" lon="5.92864">
        <ele>1796.4</ele>
        <time>2021-02-20T09:08:19Z</time>
      </trkpt>
      <trkpt lat="45.17354" lon="5.92865">
        <ele>1796.4</ele>
        <time>2021-02-20T09:08:20Z</time>
      </trkpt>
      <trkpt lat="45.17354" lon="5.92865">
        <ele>1796.5</ele>
        <time>2021-02-20T09:08:21Z</time>
      </trkpt>
      <trkpt lat="45.17354" lon="5.92865">
        <ele>1796.5</ele>
        <time>2021-02-20T09:08:22Z</time>
      </trkpt>
      <trkpt lat="45.17354" lon="5.92866">
        <ele>1796.6</ele>
        <time>2021-02-20T09:08:23Z</time>
      </trkpt>
      <trkpt lat="45.17355" lon="5.92867">
        <ele>1796.7</ele>
        <time>2021-02-20T09:08:24Z</time>
      </trkpt>
      <trkpt lat="45.17355" lon="5.92868">
        <ele>1796.8</ele>
        <time>2021-02-20T09:08:25Z</time>
      </trkpt>
      <trkpt lat="45.17355" lon="5.92868">
        <ele>1796.9</ele>
        <time>2021-02-20T09:08:26Z</time>
      </trkpt>
      <trkpt lat="45.17355" lon="5.92869">
        <ele>1797.3</ele>
        <time>2021-02-20T09:08:27Z</time>
      </trkpt>
      <trkpt lat="45.17355" lon="5.92871">
        <ele>1797.5</ele>
        <time>2021-02-20T09:08:28Z</time>
      </trkpt>
      <trkpt lat="45.17354" lon="5.92871">
        <ele>1797.7</ele>
        <time>2021-02-20T09:08:29Z</time>
      </trkpt>
      <trkpt lat="45.17353" lon="5.92873">
        <ele>1798</ele>
        <time>2021-02-20T09:08:30Z</time>
      </trkpt>
      <trkpt lat="45.17352" lon="5.92874">
        <ele>1798.4</ele>
        <time>2021-02-20T09:08:31Z</time>
      </trkpt>
      <trkpt lat="45.17351" lon="5.92875">
        <ele>1798.7</ele>
        <time>2021-02-20T09:08:32Z</time>
      </trkpt>
      <trkpt lat="45.17351" lon="5.92875">
        <ele>1798.7</ele>
        <time>2021-02-20T09:08:33Z</time>
      </trkpt>
      <trkpt lat="45.1735" lon="5.92876">
        <ele>1798.8</ele>
        <time>2021-02-20T09:08:34Z</time>
      </trkpt>
      <trkpt lat="45.1735" lon="5.92875">
        <ele>1798.9</ele>
        <time>2021-02-20T09:08:35Z</time>
      </trkpt>
      <trkpt lat="45.17349" lon="5.92875">
        <ele>1799</ele>
        <time>2021-02-20T09:08:36Z</time>
      </trkpt>
      <trkpt lat="45.17349" lon="5.92876">
        <ele>1799.1</ele>
        <time>2021-02-20T09:08:37Z</time>
      </trkpt>
      <trkpt lat="45.17349" lon="5.92876">
        <ele>1799.2</ele>
        <time>2021-02-20T09:08:38Z</time>
      </trkpt>
      <trkpt lat="45.1735" lon="5.92877">
        <ele>1799.4</ele>
        <time>2021-02-20T09:08:39Z</time>
      </trkpt>
      <trkpt lat="45.1735" lon="5.92878">
        <ele>1799.6</ele>
        <time>2021-02-20T09:08:40Z</time>
      </trkpt>
      <trkpt lat="45.17351" lon="5.92879">
        <ele>1799.7</ele>
        <time>2021-02-20T09:08:41Z</time>
      </trkpt>
      <trkpt lat="45.17351" lon="5.9288">
        <ele>1799.9</ele>
        <time>2021-02-20T09:08:42Z</time>
      </trkpt>
      <trkpt lat="45.17352" lon="5.92881">
        <ele>1800.1</ele>
        <time>2021-02-20T09:08:43Z</time>
      </trkpt>
      <trkpt lat="45.17353" lon="5.92881">
        <ele>1800.3</ele>
        <time>2021-02-20T09:08:44Z</time>
      </trkpt>
      <trkpt lat="45.17353" lon="5.92882">
        <ele>1800.5</ele>
        <time>2021-02-20T09:08:45Z</time>
      </trkpt>
      <trkpt lat="45.17354" lon="5.92882">
        <ele>1800.6</ele>
        <time>2021-02-20T09:08:46Z</time>
      </trkpt>
      <trkpt lat="45.17354" lon="5.92883">
        <ele>1800.8</ele>
        <time>2021-02-20T09:08:47Z</time>
      </trkpt>
      <trkpt lat="45.17354" lon="5.92884">
        <ele>1800.9</ele>
        <time>2021-02-20T09:08:48Z</time>
      </trkpt>
      <trkpt lat="45.17355" lon="5.92884">
        <ele>1801</ele>
        <time>2021-02-20T09:08:49Z</time>
      </trkpt>
      <trkpt lat="45.17355" lon="5.92885">
        <ele>1801.2</ele>
        <time>2021-02-20T09:08:50Z</time>
      </trkpt>
      <trkpt lat="45.17355" lon="5.92886">
        <ele>1801.4</ele>
        <time>2021-02-20T09:08:51Z</time>
      </trkpt>
      <trkpt lat="45.17356" lon="5.92887">
        <ele>1801.6</ele>
        <time>2021-02-20T09:08:52Z</time>
      </trkpt>
      <trkpt lat="45.17356" lon="5.92887">
        <ele>1801.7</ele>
        <time>2021-02-20T09:08:53Z</time>
      </trkpt>
      <trkpt lat="45.17357" lon="5.92888">
        <ele>1801.9</ele>
        <time>2021-02-20T09:08:54Z</time>
      </trkpt>
      <trkpt lat="45.17358" lon="5.92889">
        <ele>1802.2</ele>
        <time>2021-02-20T09:08:55Z</time>
      </trkpt>
      <trkpt lat="45.17359" lon="5.92889">
        <ele>1802.4</ele>
        <time>2021-02-20T09:08:56Z</time>
      </trkpt>
      <trkpt lat="45.1736" lon="5.9289">
        <ele>1802.6</ele>
        <time>2021-02-20T09:08:57Z</time>
      </trkpt>
      <trkpt lat="45.1736" lon="5.9289">
        <ele>1802.7</ele>
        <time>2021-02-20T09:08:58Z</time>
      </trkpt>
      <trkpt lat="45.17361" lon="5.9289">
        <ele>1802.9</ele>
        <time>2021-02-20T09:08:59Z</time>
      </trkpt>
      <trkpt lat="45.17361" lon="5.92891">
        <ele>1803</ele>
        <time>2021-02-20T09:09:00Z</time>
      </trkpt>
      <trkpt lat="45.17362" lon="5.92891">
        <ele>1803.1</ele>
        <time>2021-02-20T09:09:01Z</time>
      </trkpt>
      <trkpt lat="45.17362" lon="5.92891">
        <ele>1803.2</ele>
        <time>2021-02-20T09:09:02Z</time>
      </trkpt>
      <trkpt lat="45.17362" lon="5.92892">
        <ele>1803.4</ele>
        <time>2021-02-20T09:09:03Z</time>
      </trkpt>
      <trkpt lat="45.17363" lon="5.92893">
        <ele>1803.5</ele>
        <time>2021-02-20T09:09:04Z</time>
      </trkpt>
      <trkpt lat="45.17363" lon="5.92894">
        <ele>1803.6</ele>
        <time>2021-02-20T09:09:05Z</time>
      </trkpt>
      <trkpt lat="45.17363" lon="5.92895">
        <ele>1803.8</ele>
        <time>2021-02-20T09:09:06Z</time>
      </trkpt>
      <trkpt lat="45.17363" lon="5.92896">
        <ele>1804.1</ele>
        <time>2021-02-20T09:09:07Z</time>
      </trkpt>
      <trkpt lat="45.17363" lon="5.92898">
        <ele>1804.3</ele>
        <time>2021-02-20T09:09:08Z</time>
      </trkpt>
      <trkpt lat="45.17363" lon="5.92899">
        <ele>1804.5</ele>
        <time>2021-02-20T09:09:09Z</time>
      </trkpt>
      <trkpt lat="45.17363" lon="5.929">
        <ele>1804.8</ele>
        <time>2021-02-20T09:09:10Z</time>
      </trkpt>
      <trkpt lat="45.17363" lon="5.92902">
        <ele>1805</ele>
        <time>2021-02-20T09:09:11Z</time>
      </trkpt>
      <trkpt lat="45.17363" lon="5.92903">
        <ele>1805.3</ele>
        <time>2021-02-20T09:09:12Z</time>
      </trkpt>
      <trkpt lat="45.17363" lon="5.92905">
        <ele>1805.5</ele>
        <time>2021-02-20T09:09:13Z</time>
      </trkpt>
      <trkpt lat="45.17363" lon="5.92906">
        <ele>1805.7</ele>
        <time>2021-02-20T09:09:14Z</time>
      </trkpt>
      <trkpt lat="45.17363" lon="5.92907">
        <ele>1805.9</ele>
        <time>2021-02-20T09:09:15Z</time>
      </trkpt>
      <trkpt lat="45.17363" lon="5.92908">
        <ele>1806.1</ele>
        <time>2021-02-20T09:09:16Z</time>
      </trkpt>
      <trkpt lat="45.17364" lon="5.9291">
        <ele>1806.3</ele>
        <time>2021-02-20T09:09:17Z</time>
      </trkpt>
      <trkpt lat="45.17364" lon="5.92911">
        <ele>1806.5</ele>
        <time>2021-02-20T09:09:18Z</time>
      </trkpt>
      <trkpt lat="45.17364" lon="5.92912">
        <ele>1806.7</ele>
        <time>2021-02-20T09:09:19Z</time>
      </trkpt>
      <trkpt lat="45.17364" lon="5.92913">
        <ele>1806.9</ele>
        <time>2021-02-20T09:09:20Z</time>
      </trkpt>
      <trkpt lat="45.17364" lon="5.92915">
        <ele>1807.1</ele>
        <time>2021-02-20T09:09:21Z</time>
      </trkpt>
      <trkpt lat="45.17364" lon="5.92916">
        <ele>1807.3</ele>
        <time>2021-02-20T09:09:22Z</time>
      </trkpt>
      <trkpt lat="45.17364" lon="5.92917">
        <ele>1807.5</ele>
        <time>2021-02-20T09:09:23Z</time>
      </trkpt>
      <trkpt lat="45.17364" lon="5.92918">
        <ele>1807.7</ele>
        <time>2021-02-20T09:09:24Z</time>
      </trkpt>
      <trkpt lat="45.17364" lon="5.92919">
        <ele>1807.9</ele>
        <time>2021-02-20T09:09:25Z</time>
      </trkpt>
      <trkpt lat="45.17365" lon="5.9292">
        <ele>1808</ele>
        <time>2021-02-20T09:09:26Z</time>
      </trkpt>
      <trkpt lat="45.17365" lon="5.92921">
        <ele>1808.2</ele>
        <time>2021-02-20T09:09:27Z</time>
      </trkpt>
      <trkpt lat="45.17365" lon="5.92922">
        <ele>1808.4</ele>
        <time>2021-02-20T09:09:28Z</time>
      </trkpt>
      <trkpt lat="45.17365" lon="5.92924">
        <ele>1808.6</ele>
        <time>2021-02-20T09:09:29Z</time>
      </trkpt>
      <trkpt lat="45.17366" lon="5.92925">
        <ele>1808.9</ele>
        <time>2021-02-20T09:09:30Z</time>
      </trkpt>
      <trkpt lat="45.17366" lon="5.92926">
        <ele>1809.2</ele>
        <time>2021-02-20T09:09:31Z</time>
      </trkpt>
      <trkpt lat="45.17367" lon="5.92927">
        <ele>1809.4</ele>
        <time>2021-02-20T09:09:32Z</time>
      </trkpt>
      <trkpt lat="45.17368" lon="5.92928">
        <ele>1809.7</ele>
        <time>2021-02-20T09:09:33Z</time>
      </trkpt>
      <trkpt lat="45.17369" lon="5.92928">
        <ele>1809.9</ele>
        <time>2021-02-20T09:09:34Z</time>
      </trkpt>
      <trkpt lat="45.1737" lon="5.92929">
        <ele>1810.1</ele>
        <time>2021-02-20T09:09:35Z</time>
      </trkpt>
      <trkpt lat="45.17371" lon="5.92929">
        <ele>1810.3</ele>
        <time>2021-02-20T09:09:36Z</time>
      </trkpt>
      <trkpt lat="45.17371" lon="5.9293">
        <ele>1810.5</ele>
        <time>2021-02-20T09:09:37Z</time>
      </trkpt>
      <trkpt lat="45.17372" lon="5.9293">
        <ele>1810.8</ele>
        <time>2021-02-20T09:09:38Z</time>
      </trkpt>
      <trkpt lat="45.17373" lon="5.9293">
        <ele>1811</ele>
        <time>2021-02-20T09:09:39Z</time>
      </trkpt>
      <trkpt lat="45.17374" lon="5.92931">
        <ele>1811.2</ele>
        <time>2021-02-20T09:09:40Z</time>
      </trkpt>
      <trkpt lat="45.17375" lon="5.92931">
        <ele>1811.4</ele>
        <time>2021-02-20T09:09:41Z</time>
      </trkpt>
      <trkpt lat="45.17375" lon="5.92932">
        <ele>1811.5</ele>
        <time>2021-02-20T09:09:42Z</time>
      </trkpt>
      <trkpt lat="45.17376" lon="5.92932">
        <ele>1811.7</ele>
        <time>2021-02-20T09:09:43Z</time>
      </trkpt>
      <trkpt lat="45.17376" lon="5.92933">
        <ele>1811.8</ele>
        <time>2021-02-20T09:09:44Z</time>
      </trkpt>
      <trkpt lat="45.17376" lon="5.92933">
        <ele>1811.8</ele>
        <time>2021-02-20T09:09:45Z</time>
      </trkpt>
      <trkpt lat="45.17376" lon="5.92934">
        <ele>1811.9</ele>
        <time>2021-02-20T09:09:46Z</time>
      </trkpt>
      <trkpt lat="45.17376" lon="5.92934">
        <ele>1812</ele>
        <time>2021-02-20T09:09:47Z</time>
      </trkpt>
      <trkpt lat="45.17377" lon="5.92934">
        <ele>1812.1</ele>
        <time>2021-02-20T09:09:48Z</time>
      </trkpt>
      <trkpt lat="45.17377" lon="5.92934">
        <ele>1812.1</ele>
        <time>2021-02-20T09:09:49Z</time>
      </trkpt>
      <trkpt lat="45.17376" lon="5.92935">
        <ele>1812.2</ele>
        <time>2021-02-20T09:09:50Z</time>
      </trkpt>
      <trkpt lat="45.17376" lon="5.92936">
        <ele>1812.4</ele>
        <time>2021-02-20T09:09:51Z</time>
      </trkpt>
      <trkpt lat="45.17376" lon="5.92936">
        <ele>1812.5</ele>
        <time>2021-02-20T09:09:52Z</time>
      </trkpt>
      <trkpt lat="45.17375" lon="5.92936">
        <ele>1812.6</ele>
        <time>2021-02-20T09:09:53Z</time>
      </trkpt>
      <trkpt lat="45.17375" lon="5.92937">
        <ele>1812.7</ele>
        <time>2021-02-20T09:09:54Z</time>
      </trkpt>
      <trkpt lat="45.17374" lon="5.92937">
        <ele>1812.9</ele>
        <time>2021-02-20T09:09:55Z</time>
      </trkpt>
      <trkpt lat="45.17374" lon="5.92937">
        <ele>1813</ele>
        <time>2021-02-20T09:09:56Z</time>
      </trkpt>
      <trkpt lat="45.17374" lon="5.92937">
        <ele>1813</ele>
        <time>2021-02-20T09:09:57Z</time>
      </trkpt>
      <trkpt lat="45.17374" lon="5.92938">
        <ele>1813.1</ele>
        <time>2021-02-20T09:09:58Z</time>
      </trkpt>
      <trkpt lat="45.17375" lon="5.92938">
        <ele>1813.2</ele>
        <time>2021-02-20T09:09:59Z</time>
      </trkpt>
      <trkpt lat="45.17375" lon="5.92939">
        <ele>1813.4</ele>
        <time>2021-02-20T09:10:00Z</time>
      </trkpt>
      <trkpt lat="45.17376" lon="5.9294">
        <ele>1813.7</ele>
        <time>2021-02-20T09:10:01Z</time>
      </trkpt>
      <trkpt lat="45.17377" lon="5.92941">
        <ele>1813.9</ele>
        <time>2021-02-20T09:10:02Z</time>
      </trkpt>
      <trkpt lat="45.17377" lon="5.92941">
        <ele>1814.1</ele>
        <time>2021-02-20T09:10:03Z</time>
      </trkpt>
      <trkpt lat="45.17378" lon="5.92942">
        <ele>1814.3</ele>
        <time>2021-02-20T09:10:04Z</time>
      </trkpt>
      <trkpt lat="45.17378" lon="5.92943">
        <ele>1814.5</ele>
        <time>2021-02-20T09:10:05Z</time>
      </trkpt>
      <trkpt lat="45.17379" lon="5.92944">
        <ele>1814.7</ele>
        <time>2021-02-20T09:10:06Z</time>
      </trkpt>
      <trkpt lat="45.1738" lon="5.92945">
        <ele>1814.9</ele>
        <time>2021-02-20T09:10:07Z</time>
      </trkpt>
      <trkpt lat="45.1738" lon="5.92945">
        <ele>1815.1</ele>
        <time>2021-02-20T09:10:08Z</time>
      </trkpt>
      <trkpt lat="45.17381" lon="5.92946">
        <ele>1815.3</ele>
        <time>2021-02-20T09:10:09Z</time>
      </trkpt>
      <trkpt lat="45.17381" lon="5.92948">
        <ele>1815.6</ele>
        <time>2021-02-20T09:10:10Z</time>
      </trkpt>
      <trkpt lat="45.17382" lon="5.92949">
        <ele>1815.8</ele>
        <time>2021-02-20T09:10:11Z</time>
      </trkpt>
      <trkpt lat="45.17382" lon="5.9295">
        <ele>1816.1</ele>
        <time>2021-02-20T09:10:12Z</time>
      </trkpt>
      <trkpt lat="45.17383" lon="5.92951">
        <ele>1816.4</ele>
        <time>2021-02-20T09:10:13Z</time>
      </trkpt>
      <trkpt lat="45.17383" lon="5.92951">
        <ele>1816.6</ele>
        <time>2021-02-20T09:10:14Z</time>
      </trkpt>
      <trkpt lat="45.17383" lon="5.92952">
        <ele>1816.7</ele>
        <time>2021-02-20T09:10:15Z</time>
      </trkpt>
      <trkpt lat="45.17384" lon="5.92952">
        <ele>1816.9</ele>
        <time>2021-02-20T09:10:16Z</time>
      </trkpt>
      <trkpt lat="45.17385" lon="5.92953">
        <ele>1817.1</ele>
        <time>2021-02-20T09:10:17Z</time>
      </trkpt>
      <trkpt lat="45.17385" lon="5.92954">
        <ele>1817.3</ele>
        <time>2021-02-20T09:10:18Z</time>
      </trkpt>
      <trkpt lat="45.17386" lon="5.92954">
        <ele>1817.5</ele>
        <time>2021-02-20T09:10:19Z</time>
      </trkpt>
      <trkpt lat="45.17386" lon="5.92954">
        <ele>1817.6</ele>
        <time>2021-02-20T09:10:20Z</time>
      </trkpt>
      <trkpt lat="45.17387" lon="5.92955">
        <ele>1817.8</ele>
        <time>2021-02-20T09:10:21Z</time>
      </trkpt>
      <trkpt lat="45.17387" lon="5.92956">
        <ele>1818.1</ele>
        <time>2021-02-20T09:10:22Z</time>
      </trkpt>
      <trkpt lat="45.17387" lon="5.92957">
        <ele>1818.3</ele>
        <time>2021-02-20T09:10:23Z</time>
      </trkpt>
      <trkpt lat="45.17388" lon="5.92958">
        <ele>1818.6</ele>
        <time>2021-02-20T09:10:24Z</time>
      </trkpt>
      <trkpt lat="45.17388" lon="5.92959">
        <ele>1818.9</ele>
        <time>2021-02-20T09:10:25Z</time>
      </trkpt>
      <trkpt lat="45.17388" lon="5.9296">
        <ele>1819.1</ele>
        <time>2021-02-20T09:10:26Z</time>
      </trkpt>
      <trkpt lat="45.17389" lon="5.92961">
        <ele>1819.2</ele>
        <time>2021-02-20T09:10:27Z</time>
      </trkpt>
      <trkpt lat="45.17389" lon="5.92961">
        <ele>1819.5</ele>
        <time>2021-02-20T09:10:28Z</time>
      </trkpt>
      <trkpt lat="45.17389" lon="5.92962">
        <ele>1819.7</ele>
        <time>2021-02-20T09:10:29Z</time>
      </trkpt>
      <trkpt lat="45.1739" lon="5.92963">
        <ele>1820</ele>
        <time>2021-02-20T09:10:30Z</time>
      </trkpt>
      <trkpt lat="45.1739" lon="5.92964">
        <ele>1820.2</ele>
        <time>2021-02-20T09:10:31Z</time>
      </trkpt>
      <trkpt lat="45.1739" lon="5.92965">
        <ele>1820.4</ele>
        <time>2021-02-20T09:10:32Z</time>
      </trkpt>
      <trkpt lat="45.17391" lon="5.92966">
        <ele>1820.6</ele>
        <time>2021-02-20T09:10:33Z</time>
      </trkpt>
      <trkpt lat="45.17391" lon="5.92967">
        <ele>1820.9</ele>
        <time>2021-02-20T09:10:34Z</time>
      </trkpt>
      <trkpt lat="45.17392" lon="5.92968">
        <ele>1821.2</ele>
        <time>2021-02-20T09:10:35Z</time>
      </trkpt>
      <trkpt lat="45.17392" lon="5.92968">
        <ele>1821.4</ele>
        <time>2021-02-20T09:10:36Z</time>
      </trkpt>
      <trkpt lat="45.17393" lon="5.92969">
        <ele>1821.7</ele>
        <time>2021-02-20T09:10:37Z</time>
      </trkpt>
      <trkpt lat="45.17394" lon="5.92969">
        <ele>1821.9</ele>
        <time>2021-02-20T09:10:38Z</time>
      </trkpt>
      <trkpt lat="45.17395" lon="5.9297">
        <ele>1822.2</ele>
        <time>2021-02-20T09:10:39Z</time>
      </trkpt>
      <trkpt lat="45.17395" lon="5.92971">
        <ele>1822.5</ele>
        <time>2021-02-20T09:10:40Z</time>
      </trkpt>
      <trkpt lat="45.17396" lon="5.92972">
        <ele>1822.7</ele>
        <time>2021-02-20T09:10:41Z</time>
      </trkpt>
      <trkpt lat="45.17396" lon="5.92973">
        <ele>1823</ele>
        <time>2021-02-20T09:10:42Z</time>
      </trkpt>
      <trkpt lat="45.17396" lon="5.92974">
        <ele>1823.2</ele>
        <time>2021-02-20T09:10:43Z</time>
      </trkpt>
      <trkpt lat="45.17397" lon="5.92975">
        <ele>1823.4</ele>
        <time>2021-02-20T09:10:44Z</time>
      </trkpt>
      <trkpt lat="45.17397" lon="5.92976">
        <ele>1823.7</ele>
        <time>2021-02-20T09:10:45Z</time>
      </trkpt>
      <trkpt lat="45.17397" lon="5.92976">
        <ele>1823.8</ele>
        <time>2021-02-20T09:10:46Z</time>
      </trkpt>
      <trkpt lat="45.17398" lon="5.92977">
        <ele>1824</ele>
        <time>2021-02-20T09:10:47Z</time>
      </trkpt>
      <trkpt lat="45.17398" lon="5.92978">
        <ele>1824.3</ele>
        <time>2021-02-20T09:10:48Z</time>
      </trkpt>
      <trkpt lat="45.17399" lon="5.92979">
        <ele>1824.5</ele>
        <time>2021-02-20T09:10:49Z</time>
      </trkpt>
      <trkpt lat="45.17399" lon="5.92979">
        <ele>1824.7</ele>
        <time>2021-02-20T09:10:50Z</time>
      </trkpt>
      <trkpt lat="45.174" lon="5.9298">
        <ele>1825</ele>
        <time>2021-02-20T09:10:51Z</time>
      </trkpt>
      <trkpt lat="45.17401" lon="5.9298">
        <ele>1825.2</ele>
        <time>2021-02-20T09:10:52Z</time>
      </trkpt>
      <trkpt lat="45.17402" lon="5.9298">
        <ele>1825.4</ele>
        <time>2021-02-20T09:10:53Z</time>
      </trkpt>
      <trkpt lat="45.17402" lon="5.92981">
        <ele>1825.6</ele>
        <time>2021-02-20T09:10:54Z</time>
      </trkpt>
      <trkpt lat="45.17403" lon="5.92981">
        <ele>1825.8</ele>
        <time>2021-02-20T09:10:55Z</time>
      </trkpt>
      <trkpt lat="45.17403" lon="5.92981">
        <ele>1825.9</ele>
        <time>2021-02-20T09:10:56Z</time>
      </trkpt>
      <trkpt lat="45.17404" lon="5.92982">
        <ele>1826.1</ele>
        <time>2021-02-20T09:10:57Z</time>
      </trkpt>
      <trkpt lat="45.17405" lon="5.92982">
        <ele>1826.3</ele>
        <time>2021-02-20T09:10:58Z</time>
      </trkpt>
      <trkpt lat="45.17405" lon="5.92983">
        <ele>1826.5</ele>
        <time>2021-02-20T09:10:59Z</time>
      </trkpt>
      <trkpt lat="45.17406" lon="5.92984">
        <ele>1826.7</ele>
        <time>2021-02-20T09:11:00Z</time>
      </trkpt>
      <trkpt lat="45.17406" lon="5.92984">
        <ele>1826.8</ele>
        <time>2021-02-20T09:11:01Z</time>
      </trkpt>
      <trkpt lat="45.17407" lon="5.92985">
        <ele>1827</ele>
        <time>2021-02-20T09:11:02Z</time>
      </trkpt>
      <trkpt lat="45.17407" lon="5.92985">
        <ele>1827.1</ele>
        <time>2021-02-20T09:11:03Z</time>
      </trkpt>
      <trkpt lat="45.17408" lon="5.92985">
        <ele>1827.3</ele>
        <time>2021-02-20T09:11:04Z</time>
      </trkpt>
      <trkpt lat="45.17408" lon="5.92985">
        <ele>1827.4</ele>
        <time>2021-02-20T09:11:05Z</time>
      </trkpt>
      <trkpt lat="45.17409" lon="5.92986">
        <ele>1827.6</ele>
        <time>2021-02-20T09:11:06Z</time>
      </trkpt>
      <trkpt lat="45.1741" lon="5.92986">
        <ele>1827.9</ele>
        <time>2021-02-20T09:11:07Z</time>
      </trkpt>
      <trkpt lat="45.1741" lon="5.92986">
        <ele>1828</ele>
        <time>2021-02-20T09:11:08Z</time>
      </trkpt>
      <trkpt lat="45.17411" lon="5.92987">
        <ele>1828.2</ele>
        <time>2021-02-20T09:11:09Z</time>
      </trkpt>
      <trkpt lat="45.17412" lon="5.92987">
        <ele>1828.4</ele>
        <time>2021-02-20T09:11:10Z</time>
      </trkpt>
      <trkpt lat="45.17412" lon="5.92988">
        <ele>1828.5</ele>
        <time>2021-02-20T09:11:11Z</time>
      </trkpt>
      <trkpt lat="45.17413" lon="5.92989">
        <ele>1828.7</ele>
        <time>2021-02-20T09:11:12Z</time>
      </trkpt>
      <trkpt lat="45.17413" lon="5.92989">
        <ele>1828.9</ele>
        <time>2021-02-20T09:11:13Z</time>
      </trkpt>
      <trkpt lat="45.17413" lon="5.9299">
        <ele>1829</ele>
        <time>2021-02-20T09:11:14Z</time>
      </trkpt>
      <trkpt lat="45.17414" lon="5.9299">
        <ele>1829.1</ele>
        <time>2021-02-20T09:11:15Z</time>
      </trkpt>
      <trkpt lat="45.17414" lon="5.92991">
        <ele>1829.3</ele>
        <time>2021-02-20T09:11:16Z</time>
      </trkpt>
      <trkpt lat="45.17415" lon="5.92991">
        <ele>1829.4</ele>
        <time>2021-02-20T09:11:17Z</time>
      </trkpt>
      <trkpt lat="45.17415" lon="5.92992">
        <ele>1829.6</ele>
        <time>2021-02-20T09:11:18Z</time>
      </trkpt>
      <trkpt lat="45.17416" lon="5.92992">
        <ele>1829.8</ele>
        <time>2021-02-20T09:11:19Z</time>
      </trkpt>
      <trkpt lat="45.17417" lon="5.92993">
        <ele>1830</ele>
        <time>2021-02-20T09:11:20Z</time>
      </trkpt>
      <trkpt lat="45.17418" lon="5.92993">
        <ele>1830.3</ele>
        <time>2021-02-20T09:11:21Z</time>
      </trkpt>
      <trkpt lat="45.17418" lon="5.92994">
        <ele>1830.5</ele>
        <time>2021-02-20T09:11:22Z</time>
      </trkpt>
      <trkpt lat="45.17419" lon="5.92995">
        <ele>1830.7</ele>
        <time>2021-02-20T09:11:23Z</time>
      </trkpt>
      <trkpt lat="45.17419" lon="5.92996">
        <ele>1830.8</ele>
        <time>2021-02-20T09:11:24Z</time>
      </trkpt>
      <trkpt lat="45.1742" lon="5.92997">
        <ele>1831</ele>
        <time>2021-02-20T09:11:25Z</time>
      </trkpt>
      <trkpt lat="45.1742" lon="5.92997">
        <ele>1831.2</ele>
        <time>2021-02-20T09:11:26Z</time>
      </trkpt>
      <trkpt lat="45.1742" lon="5.92998">
        <ele>1831.3</ele>
        <time>2021-02-20T09:11:27Z</time>
      </trkpt>
      <trkpt lat="45.1742" lon="5.92999">
        <ele>1831.4</ele>
        <time>2021-02-20T09:11:28Z</time>
      </trkpt>
      <trkpt lat="45.17421" lon="5.92999">
        <ele>1831.6</ele>
        <time>2021-02-20T09:11:29Z</time>
      </trkpt>
      <trkpt lat="45.17421" lon="5.93">
        <ele>1831.7</ele>
        <time>2021-02-20T09:11:30Z</time>
      </trkpt>
      <trkpt lat="45.17421" lon="5.93001">
        <ele>1832</ele>
        <time>2021-02-20T09:11:31Z</time>
      </trkpt>
      <trkpt lat="45.17421" lon="5.93002">
        <ele>1832.1</ele>
        <time>2021-02-20T09:11:32Z</time>
      </trkpt>
      <trkpt lat="45.17422" lon="5.93004">
        <ele>1832.4</ele>
        <time>2021-02-20T09:11:33Z</time>
      </trkpt>
      <trkpt lat="45.17422" lon="5.93005">
        <ele>1834</ele>
        <time>2021-02-20T09:11:34Z</time>
      </trkpt>
      <trkpt lat="45.17422" lon="5.93006">
        <ele>1834.1</ele>
        <time>2021-02-20T09:11:35Z</time>
      </trkpt>
      <trkpt lat="45.17422" lon="5.93007">
        <ele>1834.1</ele>
        <time>2021-02-20T09:11:36Z</time>
      </trkpt>
      <trkpt lat="45.17422" lon="5.93009">
        <ele>1834.1</ele>
        <time>2021-02-20T09:11:37Z</time>
      </trkpt>
      <trkpt lat="45.17423" lon="5.9301">
        <ele>1835.7</ele>
        <time>2021-02-20T09:11:38Z</time>
      </trkpt>
      <trkpt lat="45.17423" lon="5.93011">
        <ele>1835.8</ele>
        <time>2021-02-20T09:11:39Z</time>
      </trkpt>
      <trkpt lat="45.17423" lon="5.93012">
        <ele>1835.8</ele>
        <time>2021-02-20T09:11:40Z</time>
      </trkpt>
      <trkpt lat="45.17424" lon="5.93013">
        <ele>1836.9</ele>
        <time>2021-02-20T09:11:41Z</time>
      </trkpt>
      <trkpt lat="45.17424" lon="5.93014">
        <ele>1836.9</ele>
        <time>2021-02-20T09:11:42Z</time>
      </trkpt>
      <trkpt lat="45.17424" lon="5.93015">
        <ele>1836.9</ele>
        <time>2021-02-20T09:11:43Z</time>
      </trkpt>
      <trkpt lat="45.17425" lon="5.93016">
        <ele>1837</ele>
        <time>2021-02-20T09:11:44Z</time>
      </trkpt>
      <trkpt lat="45.17425" lon="5.93017">
        <ele>1837</ele>
        <time>2021-02-20T09:11:45Z</time>
      </trkpt>
      <trkpt lat="45.17425" lon="5.93018">
        <ele>1838.4</ele>
        <time>2021-02-20T09:11:46Z</time>
      </trkpt>
      <trkpt lat="45.17426" lon="5.93019">
        <ele>1838.5</ele>
        <time>2021-02-20T09:11:47Z</time>
      </trkpt>
      <trkpt lat="45.17426" lon="5.9302">
        <ele>1838.5</ele>
        <time>2021-02-20T09:11:48Z</time>
      </trkpt>
      <trkpt lat="45.17426" lon="5.93021">
        <ele>1838.6</ele>
        <time>2021-02-20T09:11:49Z</time>
      </trkpt>
      <trkpt lat="45.17426" lon="5.93022">
        <ele>1839.8</ele>
        <time>2021-02-20T09:11:50Z</time>
      </trkpt>
      <trkpt lat="45.17425" lon="5.93024">
        <ele>1839.9</ele>
        <time>2021-02-20T09:11:51Z</time>
      </trkpt>
      <trkpt lat="45.17425" lon="5.93025">
        <ele>1839.9</ele>
        <time>2021-02-20T09:11:52Z</time>
      </trkpt>
      <trkpt lat="45.17425" lon="5.93027">
        <ele>1841.1</ele>
        <time>2021-02-20T09:11:53Z</time>
      </trkpt>
      <trkpt lat="45.17425" lon="5.93028">
        <ele>1841.2</ele>
        <time>2021-02-20T09:11:54Z</time>
      </trkpt>
      <trkpt lat="45.17425" lon="5.93029">
        <ele>1841.2</ele>
        <time>2021-02-20T09:11:55Z</time>
      </trkpt>
      <trkpt lat="45.17426" lon="5.9303">
        <ele>1842.3</ele>
        <time>2021-02-20T09:11:56Z</time>
      </trkpt>
      <trkpt lat="45.17426" lon="5.93031">
        <ele>1842.3</ele>
        <time>2021-02-20T09:11:57Z</time>
      </trkpt>
      <trkpt lat="45.17426" lon="5.93031">
        <ele>1842.4</ele>
        <time>2021-02-20T09:11:58Z</time>
      </trkpt>
      <trkpt lat="45.17426" lon="5.93032">
        <ele>1842.4</ele>
        <time>2021-02-20T09:11:59Z</time>
      </trkpt>
      <trkpt lat="45.17426" lon="5.93033">
        <ele>1842.5</ele>
        <time>2021-02-20T09:12:00Z</time>
      </trkpt>
      <trkpt lat="45.17426" lon="5.93034">
        <ele>1842.5</ele>
        <time>2021-02-20T09:12:01Z</time>
      </trkpt>
      <trkpt lat="45.17426" lon="5.93035">
        <ele>1843.5</ele>
        <time>2021-02-20T09:12:02Z</time>
      </trkpt>
      <trkpt lat="45.17426" lon="5.93037">
        <ele>1843.5</ele>
        <time>2021-02-20T09:12:03Z</time>
      </trkpt>
      <trkpt lat="45.17426" lon="5.93038">
        <ele>1843.6</ele>
        <time>2021-02-20T09:12:04Z</time>
      </trkpt>
      <trkpt lat="45.17425" lon="5.93039">
        <ele>1844.5</ele>
        <time>2021-02-20T09:12:05Z</time>
      </trkpt>
      <trkpt lat="45.17425" lon="5.93041">
        <ele>1844.6</ele>
        <time>2021-02-20T09:12:06Z</time>
      </trkpt>
      <trkpt lat="45.17425" lon="5.93042">
        <ele>1844.6</ele>
        <time>2021-02-20T09:12:07Z</time>
      </trkpt>
      <trkpt lat="45.17425" lon="5.93043">
        <ele>1845.5</ele>
        <time>2021-02-20T09:12:08Z</time>
      </trkpt>
      <trkpt lat="45.17425" lon="5.93044">
        <ele>1845.5</ele>
        <time>2021-02-20T09:12:09Z</time>
      </trkpt>
      <trkpt lat="45.17425" lon="5.93045">
        <ele>1845.6</ele>
        <time>2021-02-20T09:12:10Z</time>
      </trkpt>
      <trkpt lat="45.17425" lon="5.93045">
        <ele>1845.6</ele>
        <time>2021-02-20T09:12:11Z</time>
      </trkpt>
      <trkpt lat="45.17425" lon="5.93046">
        <ele>1845.7</ele>
        <time>2021-02-20T09:12:12Z</time>
      </trkpt>
      <trkpt lat="45.17425" lon="5.93048">
        <ele>1846.6</ele>
        <time>2021-02-20T09:12:13Z</time>
      </trkpt>
      <trkpt lat="45.17425" lon="5.93049">
        <ele>1846.6</ele>
        <time>2021-02-20T09:12:14Z</time>
      </trkpt>
      <trkpt lat="45.17425" lon="5.9305">
        <ele>1846.7</ele>
        <time>2021-02-20T09:12:15Z</time>
      </trkpt>
      <trkpt lat="45.17425" lon="5.93051">
        <ele>1846.7</ele>
        <time>2021-02-20T09:12:16Z</time>
      </trkpt>
      <trkpt lat="45.17425" lon="5.93052">
        <ele>1847.7</ele>
        <time>2021-02-20T09:12:17Z</time>
      </trkpt>
      <trkpt lat="45.17425" lon="5.93053">
        <ele>1847.7</ele>
        <time>2021-02-20T09:12:18Z</time>
      </trkpt>
      <trkpt lat="45.17425" lon="5.93055">
        <ele>1847.7</ele>
        <time>2021-02-20T09:12:19Z</time>
      </trkpt>
      <trkpt lat="45.17425" lon="5.93056">
        <ele>1848.7</ele>
        <time>2021-02-20T09:12:20Z</time>
      </trkpt>
      <trkpt lat="45.17425" lon="5.93057">
        <ele>1848.7</ele>
        <time>2021-02-20T09:12:21Z</time>
      </trkpt>
      <trkpt lat="45.17425" lon="5.93058">
        <ele>1848.8</ele>
        <time>2021-02-20T09:12:22Z</time>
      </trkpt>
      <trkpt lat="45.17425" lon="5.93059">
        <ele>1848.8</ele>
        <time>2021-02-20T09:12:23Z</time>
      </trkpt>
      <trkpt lat="45.17426" lon="5.9306">
        <ele>1849.7</ele>
        <time>2021-02-20T09:12:24Z</time>
      </trkpt>
      <trkpt lat="45.17426" lon="5.93061">
        <ele>1849.7</ele>
        <time>2021-02-20T09:12:25Z</time>
      </trkpt>
      <trkpt lat="45.17426" lon="5.93061">
        <ele>1849</ele>
        <time>2021-02-20T09:12:26Z</time>
      </trkpt>
      <trkpt lat="45.17427" lon="5.93062">
        <ele>1849</ele>
        <time>2021-02-20T09:12:27Z</time>
      </trkpt>
      <trkpt lat="45.17428" lon="5.93063">
        <ele>1849.1</ele>
        <time>2021-02-20T09:12:28Z</time>
      </trkpt>
      <trkpt lat="45.17428" lon="5.93064">
        <ele>1849.1</ele>
        <time>2021-02-20T09:12:29Z</time>
      </trkpt>
      <trkpt lat="45.17428" lon="5.93064">
        <ele>1849.2</ele>
        <time>2021-02-20T09:12:30Z</time>
      </trkpt>
      <trkpt lat="45.17428" lon="5.93065">
        <ele>1850</ele>
        <time>2021-02-20T09:12:31Z</time>
      </trkpt>
      <trkpt lat="45.17429" lon="5.93066">
        <ele>1850</ele>
        <time>2021-02-20T09:12:32Z</time>
      </trkpt>
      <trkpt lat="45.17428" lon="5.93067">
        <ele>1850</ele>
        <time>2021-02-20T09:12:33Z</time>
      </trkpt>
      <trkpt lat="45.17428" lon="5.93068">
        <ele>1850.1</ele>
        <time>2021-02-20T09:12:34Z</time>
      </trkpt>
      <trkpt lat="45.17428" lon="5.9307">
        <ele>1850.8</ele>
        <time>2021-02-20T09:12:35Z</time>
      </trkpt>
      <trkpt lat="45.17428" lon="5.93071">
        <ele>1850.9</ele>
        <time>2021-02-20T09:12:36Z</time>
      </trkpt>
      <trkpt lat="45.17428" lon="5.93072">
        <ele>1850.9</ele>
        <time>2021-02-20T09:12:37Z</time>
      </trkpt>
      <trkpt lat="45.17428" lon="5.93072">
        <ele>1850.9</ele>
        <time>2021-02-20T09:12:38Z</time>
      </trkpt>
      <trkpt lat="45.17428" lon="5.93074">
        <ele>1851.6</ele>
        <time>2021-02-20T09:12:39Z</time>
      </trkpt>
      <trkpt lat="45.17428" lon="5.93075">
        <ele>1851.6</ele>
        <time>2021-02-20T09:12:40Z</time>
      </trkpt>
      <trkpt lat="45.17428" lon="5.93077">
        <ele>1851.7</ele>
        <time>2021-02-20T09:12:41Z</time>
      </trkpt>
      <trkpt lat="45.17428" lon="5.93077">
        <ele>1851.7</ele>
        <time>2021-02-20T09:12:42Z</time>
      </trkpt>
      <trkpt lat="45.17427" lon="5.93078">
        <ele>1852.4</ele>
        <time>2021-02-20T09:12:43Z</time>
      </trkpt>
      <trkpt lat="45.17428" lon="5.93079">
        <ele>1852.4</ele>
        <time>2021-02-20T09:12:44Z</time>
      </trkpt>
      <trkpt lat="45.17428" lon="5.93079">
        <ele>1852.4</ele>
        <time>2021-02-20T09:12:45Z</time>
      </trkpt>
      <trkpt lat="45.17428" lon="5.9308">
        <ele>1852.5</ele>
        <time>2021-02-20T09:12:46Z</time>
      </trkpt>
      <trkpt lat="45.17428" lon="5.9308">
        <ele>1852.5</ele>
        <time>2021-02-20T09:12:47Z</time>
      </trkpt>
      <trkpt lat="45.17428" lon="5.93081">
        <ele>1852.6</ele>
        <time>2021-02-20T09:12:48Z</time>
      </trkpt>
      <trkpt lat="45.17429" lon="5.93082">
        <ele>1853.2</ele>
        <time>2021-02-20T09:12:49Z</time>
      </trkpt>
      <trkpt lat="45.17429" lon="5.93083">
        <ele>1853.2</ele>
        <time>2021-02-20T09:12:50Z</time>
      </trkpt>
      <trkpt lat="45.17429" lon="5.93084">
        <ele>1851.9</ele>
        <time>2021-02-20T09:12:51Z</time>
      </trkpt>
      <trkpt lat="45.17429" lon="5.93085">
        <ele>1852</ele>
        <time>2021-02-20T09:12:52Z</time>
      </trkpt>
      <trkpt lat="45.1743" lon="5.93086">
        <ele>1852.6</ele>
        <time>2021-02-20T09:12:53Z</time>
      </trkpt>
      <trkpt lat="45.1743" lon="5.93087">
        <ele>1852.6</ele>
        <time>2021-02-20T09:12:54Z</time>
      </trkpt>
      <trkpt lat="45.1743" lon="5.93088">
        <ele>1852.7</ele>
        <time>2021-02-20T09:12:55Z</time>
      </trkpt>
      <trkpt lat="45.17431" lon="5.93089">
        <ele>1852.7</ele>
        <time>2021-02-20T09:12:56Z</time>
      </trkpt>
      <trkpt lat="45.17431" lon="5.9309">
        <ele>1852.7</ele>
        <time>2021-02-20T09:12:57Z</time>
      </trkpt>
      <trkpt lat="45.17431" lon="5.9309">
        <ele>1852.8</ele>
        <time>2021-02-20T09:12:58Z</time>
      </trkpt>
      <trkpt lat="45.17431" lon="5.9309">
        <ele>1852.8</ele>
        <time>2021-02-20T09:12:59Z</time>
      </trkpt>
      <trkpt lat="45.17431" lon="5.9309">
        <ele>1852.9</ele>
        <time>2021-02-20T09:13:00Z</time>
      </trkpt>
      <trkpt lat="45.17431" lon="5.9309">
        <ele>1852.9</ele>
        <time>2021-02-20T09:13:01Z</time>
      </trkpt>
      <trkpt lat="45.17431" lon="5.9309">
        <ele>1853</ele>
        <time>2021-02-20T09:13:02Z</time>
      </trkpt>
      <trkpt lat="45.17431" lon="5.9309">
        <ele>1853</ele>
        <time>2021-02-20T09:13:03Z</time>
      </trkpt>
      <trkpt lat="45.17431" lon="5.9309">
        <ele>1853.1</ele>
        <time>2021-02-20T09:13:04Z</time>
      </trkpt>
      <trkpt lat="45.17431" lon="5.9309">
        <ele>1853.1</ele>
        <time>2021-02-20T09:13:05Z</time>
      </trkpt>
      <trkpt lat="45.17431" lon="5.93092">
        <ele>1853.7</ele>
        <time>2021-02-20T09:13:06Z</time>
      </trkpt>
      <trkpt lat="45.17431" lon="5.93093">
        <ele>1853.8</ele>
        <time>2021-02-20T09:13:07Z</time>
      </trkpt>
      <trkpt lat="45.17432" lon="5.93094">
        <ele>1853.8</ele>
        <time>2021-02-20T09:13:08Z</time>
      </trkpt>
      <trkpt lat="45.17432" lon="5.93094">
        <ele>1853.9</ele>
        <time>2021-02-20T09:13:09Z</time>
      </trkpt>
      <trkpt lat="45.17432" lon="5.93095">
        <ele>1854.5</ele>
        <time>2021-02-20T09:13:10Z</time>
      </trkpt>
      <trkpt lat="45.17432" lon="5.93095">
        <ele>1854.5</ele>
        <time>2021-02-20T09:13:11Z</time>
      </trkpt>
      <trkpt lat="45.17432" lon="5.93095">
        <ele>1854.6</ele>
        <time>2021-02-20T09:13:12Z</time>
      </trkpt>
      <trkpt lat="45.17432" lon="5.93096">
        <ele>1854.6</ele>
        <time>2021-02-20T09:13:13Z</time>
      </trkpt>
      <trkpt lat="45.17432" lon="5.93096">
        <ele>1854.7</ele>
        <time>2021-02-20T09:13:14Z</time>
      </trkpt>
      <trkpt lat="45.17432" lon="5.93096">
        <ele>1854.7</ele>
        <time>2021-02-20T09:13:15Z</time>
      </trkpt>
      <trkpt lat="45.17432" lon="5.93097">
        <ele>1854.7</ele>
        <time>2021-02-20T09:13:16Z</time>
      </trkpt>
      <trkpt lat="45.17432" lon="5.93097">
        <ele>1854.8</ele>
        <time>2021-02-20T09:13:17Z</time>
      </trkpt>
      <trkpt lat="45.17431" lon="5.93097">
        <ele>1854.8</ele>
        <time>2021-02-20T09:13:18Z</time>
      </trkpt>
      <trkpt lat="45.17432" lon="5.93097">
        <ele>1854.9</ele>
        <time>2021-02-20T09:13:19Z</time>
      </trkpt>
      <trkpt lat="45.17432" lon="5.93097">
        <ele>1854.9</ele>
        <time>2021-02-20T09:13:20Z</time>
      </trkpt>
      <trkpt lat="45.17432" lon="5.93097">
        <ele>1855</ele>
        <time>2021-02-20T09:13:21Z</time>
      </trkpt>
      <trkpt lat="45.17431" lon="5.93097">
        <ele>1855</ele>
        <time>2021-02-20T09:13:22Z</time>
      </trkpt>
      <trkpt lat="45.17431" lon="5.93097">
        <ele>1855.1</ele>
        <time>2021-02-20T09:13:23Z</time>
      </trkpt>
      <trkpt lat="45.17431" lon="5.93097">
        <ele>1855.1</ele>
        <time>2021-02-20T09:13:24Z</time>
      </trkpt>
      <trkpt lat="45.17431" lon="5.93097">
        <ele>1855.2</ele>
        <time>2021-02-20T09:13:25Z</time>
      </trkpt>
      <trkpt lat="45.1743" lon="5.93097">
        <ele>1855.2</ele>
        <time>2021-02-20T09:13:26Z</time>
      </trkpt>
      <trkpt lat="45.17429" lon="5.93097">
        <ele>1856.7</ele>
        <time>2021-02-20T09:13:27Z</time>
      </trkpt>
      <trkpt lat="45.17429" lon="5.93097">
        <ele>1856.7</ele>
        <time>2021-02-20T09:13:28Z</time>
      </trkpt>
      <trkpt lat="45.17428" lon="5.93098">
        <ele>1856.8</ele>
        <time>2021-02-20T09:13:29Z</time>
      </trkpt>
      <trkpt lat="45.17427" lon="5.93098">
        <ele>1856.8</ele>
        <time>2021-02-20T09:13:30Z</time>
      </trkpt>
      <trkpt lat="45.17427" lon="5.93098">
        <ele>1856.8</ele>
        <time>2021-02-20T09:13:31Z</time>
      </trkpt>
      <trkpt lat="45.17427" lon="5.93099">
        <ele>1856.9</ele>
        <time>2021-02-20T09:13:32Z</time>
      </trkpt>
      <trkpt lat="45.17426" lon="5.93099">
        <ele>1857.5</ele>
        <time>2021-02-20T09:13:33Z</time>
      </trkpt>
      <trkpt lat="45.17427" lon="5.93099">
        <ele>1857.6</ele>
        <time>2021-02-20T09:13:34Z</time>
      </trkpt>
      <trkpt lat="45.17427" lon="5.93101">
        <ele>1857.6</ele>
        <time>2021-02-20T09:13:35Z</time>
      </trkpt>
      <trkpt lat="45.17427" lon="5.93102">
        <ele>1857.7</ele>
        <time>2021-02-20T09:13:36Z</time>
      </trkpt>
      <trkpt lat="45.17426" lon="5.93103">
        <ele>1857.7</ele>
        <time>2021-02-20T09:13:37Z</time>
      </trkpt>
      <trkpt lat="45.17426" lon="5.93104">
        <ele>1859.3</ele>
        <time>2021-02-20T09:13:38Z</time>
      </trkpt>
      <trkpt lat="45.17426" lon="5.93105">
        <ele>1859.3</ele>
        <time>2021-02-20T09:13:39Z</time>
      </trkpt>
      <trkpt lat="45.17425" lon="5.93106">
        <ele>1859.4</ele>
        <time>2021-02-20T09:13:40Z</time>
      </trkpt>
      <trkpt lat="45.17426" lon="5.93107">
        <ele>1859.4</ele>
        <time>2021-02-20T09:13:41Z</time>
      </trkpt>
      <trkpt lat="45.17426" lon="5.93108">
        <ele>1860.1</ele>
        <time>2021-02-20T09:13:42Z</time>
      </trkpt>
      <trkpt lat="45.17425" lon="5.93108">
        <ele>1860.1</ele>
        <time>2021-02-20T09:13:43Z</time>
      </trkpt>
      <trkpt lat="45.17425" lon="5.93109">
        <ele>1860.1</ele>
        <time>2021-02-20T09:13:44Z</time>
      </trkpt>
      <trkpt lat="45.17425" lon="5.9311">
        <ele>1860.2</ele>
        <time>2021-02-20T09:13:45Z</time>
      </trkpt>
      <trkpt lat="45.17425" lon="5.93111">
        <ele>1860.2</ele>
        <time>2021-02-20T09:13:46Z</time>
      </trkpt>
      <trkpt lat="45.17425" lon="5.93112">
        <ele>1860.9</ele>
        <time>2021-02-20T09:13:47Z</time>
      </trkpt>
      <trkpt lat="45.17425" lon="5.93113">
        <ele>1860.9</ele>
        <time>2021-02-20T09:13:48Z</time>
      </trkpt>
      <trkpt lat="45.17425" lon="5.93114">
        <ele>1860.9</ele>
        <time>2021-02-20T09:13:49Z</time>
      </trkpt>
      <trkpt lat="45.17425" lon="5.93116">
        <ele>1861</ele>
        <time>2021-02-20T09:13:50Z</time>
      </trkpt>
      <trkpt lat="45.17425" lon="5.93117">
        <ele>1861.6</ele>
        <time>2021-02-20T09:13:51Z</time>
      </trkpt>
      <trkpt lat="45.17425" lon="5.93118">
        <ele>1861.6</ele>
        <time>2021-02-20T09:13:52Z</time>
      </trkpt>
      <trkpt lat="45.17425" lon="5.93119">
        <ele>1861.7</ele>
        <time>2021-02-20T09:13:53Z</time>
      </trkpt>
      <trkpt lat="45.17425" lon="5.93119">
        <ele>1861.7</ele>
        <time>2021-02-20T09:13:54Z</time>
      </trkpt>
      <trkpt lat="45.17425" lon="5.9312">
        <ele>1862.3</ele>
        <time>2021-02-20T09:13:55Z</time>
      </trkpt>
      <trkpt lat="45.17425" lon="5.93122">
        <ele>1862.3</ele>
        <time>2021-02-20T09:13:56Z</time>
      </trkpt>
      <trkpt lat="45.17425" lon="5.93123">
        <ele>1862.4</ele>
        <time>2021-02-20T09:13:57Z</time>
      </trkpt>
      <trkpt lat="45.17425" lon="5.93124">
        <ele>1862.4</ele>
        <time>2021-02-20T09:13:58Z</time>
      </trkpt>
      <trkpt lat="45.17425" lon="5.93125">
        <ele>1863</ele>
        <time>2021-02-20T09:13:59Z</time>
      </trkpt>
      <trkpt lat="45.17425" lon="5.93126">
        <ele>1863.1</ele>
        <time>2021-02-20T09:14:00Z</time>
      </trkpt>
      <trkpt lat="45.17424" lon="5.93127">
        <ele>1863.1</ele>
        <time>2021-02-20T09:14:01Z</time>
      </trkpt>
      <trkpt lat="45.17424" lon="5.93128">
        <ele>1863.2</ele>
        <time>2021-02-20T09:14:02Z</time>
      </trkpt>
      <trkpt lat="45.17424" lon="5.9313">
        <ele>1863.8</ele>
        <time>2021-02-20T09:14:03Z</time>
      </trkpt>
      <trkpt lat="45.17424" lon="5.9313">
        <ele>1863.8</ele>
        <time>2021-02-20T09:14:04Z</time>
      </trkpt>
      <trkpt lat="45.17424" lon="5.93131">
        <ele>1863.8</ele>
        <time>2021-02-20T09:14:05Z</time>
      </trkpt>
      <trkpt lat="45.17423" lon="5.93132">
        <ele>1863.9</ele>
        <time>2021-02-20T09:14:06Z</time>
      </trkpt>
      <trkpt lat="45.17423" lon="5.93132">
        <ele>1865.1</ele>
        <time>2021-02-20T09:14:07Z</time>
      </trkpt>
      <trkpt lat="45.17423" lon="5.93133">
        <ele>1865.1</ele>
        <time>2021-02-20T09:14:08Z</time>
      </trkpt>
      <trkpt lat="45.17423" lon="5.93133">
        <ele>1865.8</ele>
        <time>2021-02-20T09:14:09Z</time>
      </trkpt>
      <trkpt lat="45.17422" lon="5.93134">
        <ele>1865.8</ele>
        <time>2021-02-20T09:14:10Z</time>
      </trkpt>
      <trkpt lat="45.17422" lon="5.93134">
        <ele>1865.8</ele>
        <time>2021-02-20T09:14:11Z</time>
      </trkpt>
      <trkpt lat="45.17422" lon="5.93135">
        <ele>1865.9</ele>
        <time>2021-02-20T09:14:12Z</time>
      </trkpt>
      <trkpt lat="45.17421" lon="5.93135">
        <ele>1865.9</ele>
        <time>2021-02-20T09:14:13Z</time>
      </trkpt>
      <trkpt lat="45.17421" lon="5.93135">
        <ele>1866</ele>
        <time>2021-02-20T09:14:14Z</time>
      </trkpt>
      <trkpt lat="45.1742" lon="5.93135">
        <ele>1867.2</ele>
        <time>2021-02-20T09:14:15Z</time>
      </trkpt>
      <trkpt lat="45.1742" lon="5.93134">
        <ele>1867.3</ele>
        <time>2021-02-20T09:14:16Z</time>
      </trkpt>
      <trkpt lat="45.1742" lon="5.93135">
        <ele>1866.1</ele>
        <time>2021-02-20T09:14:17Z</time>
      </trkpt>
      <trkpt lat="45.1742" lon="5.93135">
        <ele>1866.2</ele>
        <time>2021-02-20T09:14:18Z</time>
      </trkpt>
      <trkpt lat="45.1742" lon="5.93136">
        <ele>1866.2</ele>
        <time>2021-02-20T09:14:19Z</time>
      </trkpt>
      <trkpt lat="45.1742" lon="5.93136">
        <ele>1866.2</ele>
        <time>2021-02-20T09:14:20Z</time>
      </trkpt>
      <trkpt lat="45.1742" lon="5.93137">
        <ele>1866.3</ele>
        <time>2021-02-20T09:14:21Z</time>
      </trkpt>
      <trkpt lat="45.1742" lon="5.93137">
        <ele>1866.3</ele>
        <time>2021-02-20T09:14:22Z</time>
      </trkpt>
      <trkpt lat="45.17421" lon="5.93138">
        <ele>1867</ele>
        <time>2021-02-20T09:14:23Z</time>
      </trkpt>
      <trkpt lat="45.17421" lon="5.93139">
        <ele>1867.1</ele>
        <time>2021-02-20T09:14:24Z</time>
      </trkpt>
      <trkpt lat="45.17421" lon="5.9314">
        <ele>1867.1</ele>
        <time>2021-02-20T09:14:25Z</time>
      </trkpt>
      <trkpt lat="45.17421" lon="5.9314">
        <ele>1867.2</ele>
        <time>2021-02-20T09:14:26Z</time>
      </trkpt>
      <trkpt lat="45.17421" lon="5.93141">
        <ele>1867.2</ele>
        <time>2021-02-20T09:14:27Z</time>
      </trkpt>
      <trkpt lat="45.17421" lon="5.93143">
        <ele>1867.9</ele>
        <time>2021-02-20T09:14:28Z</time>
      </trkpt>
      <trkpt lat="45.17421" lon="5.93144">
        <ele>1868</ele>
        <time>2021-02-20T09:14:29Z</time>
      </trkpt>
      <trkpt lat="45.17421" lon="5.93144">
        <ele>1868</ele>
        <time>2021-02-20T09:14:30Z</time>
      </trkpt>
      <trkpt lat="45.17421" lon="5.93146">
        <ele>1868.1</ele>
        <time>2021-02-20T09:14:31Z</time>
      </trkpt>
      <trkpt lat="45.17421" lon="5.93147">
        <ele>1868.8</ele>
        <time>2021-02-20T09:14:32Z</time>
      </trkpt>
      <trkpt lat="45.1742" lon="5.93148">
        <ele>1870</ele>
        <time>2021-02-20T09:14:33Z</time>
      </trkpt>
      <trkpt lat="45.1742" lon="5.93149">
        <ele>1870.1</ele>
        <time>2021-02-20T09:14:34Z</time>
      </trkpt>
      <trkpt lat="45.17419" lon="5.93149">
        <ele>1870.1</ele>
        <time>2021-02-20T09:14:35Z</time>
      </trkpt>
      <trkpt lat="45.17419" lon="5.9315">
        <ele>1870.2</ele>
        <time>2021-02-20T09:14:36Z</time>
      </trkpt>
      <trkpt lat="45.17418" lon="5.9315">
        <ele>1870.8</ele>
        <time>2021-02-20T09:14:37Z</time>
      </trkpt>
      <trkpt lat="45.17417" lon="5.93151">
        <ele>1872.1</ele>
        <time>2021-02-20T09:14:38Z</time>
      </trkpt>
      <trkpt lat="45.17416" lon="5.93152">
        <ele>1872.1</ele>
        <time>2021-02-20T09:14:39Z</time>
      </trkpt>
      <trkpt lat="45.17416" lon="5.93152">
        <ele>1872.2</ele>
        <time>2021-02-20T09:14:40Z</time>
      </trkpt>
      <trkpt lat="45.17415" lon="5.93153">
        <ele>1872.2</ele>
        <time>2021-02-20T09:14:41Z</time>
      </trkpt>
      <trkpt lat="45.17415" lon="5.93155">
        <ele>1872.9</ele>
        <time>2021-02-20T09:14:42Z</time>
      </trkpt>
      <trkpt lat="45.17415" lon="5.93156">
        <ele>1872.9</ele>
        <time>2021-02-20T09:14:43Z</time>
      </trkpt>
      <trkpt lat="45.17415" lon="5.93159">
        <ele>1873.6</ele>
        <time>2021-02-20T09:14:44Z</time>
      </trkpt>
      <trkpt lat="45.17415" lon="5.9316">
        <ele>1873.6</ele>
        <time>2021-02-20T09:14:45Z</time>
      </trkpt>
      <trkpt lat="45.17415" lon="5.93161">
        <ele>1873.7</ele>
        <time>2021-02-20T09:14:46Z</time>
      </trkpt>
      <trkpt lat="45.17414" lon="5.93163">
        <ele>1873.7</ele>
        <time>2021-02-20T09:14:47Z</time>
      </trkpt>
      <trkpt lat="45.17414" lon="5.93164">
        <ele>1875.5</ele>
        <time>2021-02-20T09:14:48Z</time>
      </trkpt>
      <trkpt lat="45.17414" lon="5.93165">
        <ele>1875.5</ele>
        <time>2021-02-20T09:14:49Z</time>
      </trkpt>
      <trkpt lat="45.17414" lon="5.93167">
        <ele>1875.6</ele>
        <time>2021-02-20T09:14:50Z</time>
      </trkpt>
      <trkpt lat="45.17414" lon="5.93168">
        <ele>1876.2</ele>
        <time>2021-02-20T09:14:51Z</time>
      </trkpt>
      <trkpt lat="45.17414" lon="5.9317">
        <ele>1876.2</ele>
        <time>2021-02-20T09:14:52Z</time>
      </trkpt>
      <trkpt lat="45.17414" lon="5.93171">
        <ele>1875.2</ele>
        <time>2021-02-20T09:14:53Z</time>
      </trkpt>
      <trkpt lat="45.17415" lon="5.93172">
        <ele>1875.8</ele>
        <time>2021-02-20T09:14:54Z</time>
      </trkpt>
      <trkpt lat="45.17415" lon="5.93173">
        <ele>1875.8</ele>
        <time>2021-02-20T09:14:55Z</time>
      </trkpt>
      <trkpt lat="45.17416" lon="5.93175">
        <ele>1875.8</ele>
        <time>2021-02-20T09:14:56Z</time>
      </trkpt>
      <trkpt lat="45.17416" lon="5.93176">
        <ele>1875.9</ele>
        <time>2021-02-20T09:14:57Z</time>
      </trkpt>
      <trkpt lat="45.17417" lon="5.93177">
        <ele>1876.5</ele>
        <time>2021-02-20T09:14:58Z</time>
      </trkpt>
      <trkpt lat="45.17418" lon="5.93178">
        <ele>1875.4</ele>
        <time>2021-02-20T09:14:59Z</time>
      </trkpt>
      <trkpt lat="45.17418" lon="5.93179">
        <ele>1875.5</ele>
        <time>2021-02-20T09:15:00Z</time>
      </trkpt>
      <trkpt lat="45.17419" lon="5.9318">
        <ele>1875.5</ele>
        <time>2021-02-20T09:15:01Z</time>
      </trkpt>
      <trkpt lat="45.17419" lon="5.93181">
        <ele>1876.1</ele>
        <time>2021-02-20T09:15:02Z</time>
      </trkpt>
      <trkpt lat="45.17419" lon="5.93181">
        <ele>1876.2</ele>
        <time>2021-02-20T09:15:03Z</time>
      </trkpt>
      <trkpt lat="45.1742" lon="5.93182">
        <ele>1876.2</ele>
        <time>2021-02-20T09:15:04Z</time>
      </trkpt>
      <trkpt lat="45.17421" lon="5.93183">
        <ele>1875.2</ele>
        <time>2021-02-20T09:15:05Z</time>
      </trkpt>
      <trkpt lat="45.17422" lon="5.93184">
        <ele>1875.3</ele>
        <time>2021-02-20T09:15:06Z</time>
      </trkpt>
      <trkpt lat="45.17422" lon="5.93185">
        <ele>1876</ele>
        <time>2021-02-20T09:15:07Z</time>
      </trkpt>
      <trkpt lat="45.17423" lon="5.93186">
        <ele>1875.1</ele>
        <time>2021-02-20T09:15:08Z</time>
      </trkpt>
      <trkpt lat="45.17425" lon="5.93189">
        <ele>1875.1</ele>
        <time>2021-02-20T09:15:09Z</time>
      </trkpt>
      <trkpt lat="45.17425" lon="5.9319">
        <ele>1875.9</ele>
        <time>2021-02-20T09:15:10Z</time>
      </trkpt>
      <trkpt lat="45.17426" lon="5.93191">
        <ele>1875.9</ele>
        <time>2021-02-20T09:15:11Z</time>
      </trkpt>
      <trkpt lat="45.17426" lon="5.93193">
        <ele>1875.2</ele>
        <time>2021-02-20T09:15:12Z</time>
      </trkpt>
      <trkpt lat="45.17427" lon="5.93194">
        <ele>1875.9</ele>
        <time>2021-02-20T09:15:13Z</time>
      </trkpt>
      <trkpt lat="45.17427" lon="5.93195">
        <ele>1876</ele>
        <time>2021-02-20T09:15:14Z</time>
      </trkpt>
      <trkpt lat="45.17427" lon="5.93196">
        <ele>1876</ele>
        <time>2021-02-20T09:15:15Z</time>
      </trkpt>
      <trkpt lat="45.17427" lon="5.93197">
        <ele>1876.1</ele>
        <time>2021-02-20T09:15:16Z</time>
      </trkpt>
      <trkpt lat="45.17427" lon="5.93198">
        <ele>1876.8</ele>
        <time>2021-02-20T09:15:17Z</time>
      </trkpt>
      <trkpt lat="45.17428" lon="5.932">
        <ele>1876.9</ele>
        <time>2021-02-20T09:15:18Z</time>
      </trkpt>
      <trkpt lat="45.17428" lon="5.93201">
        <ele>1876.9</ele>
        <time>2021-02-20T09:15:19Z</time>
      </trkpt>
      <trkpt lat="45.17428" lon="5.93203">
        <ele>1877.6</ele>
        <time>2021-02-20T09:15:20Z</time>
      </trkpt>
      <trkpt lat="45.17428" lon="5.93204">
        <ele>1877.6</ele>
        <time>2021-02-20T09:15:21Z</time>
      </trkpt>
      <trkpt lat="45.17428" lon="5.93206">
        <ele>1877.7</ele>
        <time>2021-02-20T09:15:22Z</time>
      </trkpt>
      <trkpt lat="45.17428" lon="5.93207">
        <ele>1878.4</ele>
        <time>2021-02-20T09:15:23Z</time>
      </trkpt>
      <trkpt lat="45.17428" lon="5.93208">
        <ele>1878.4</ele>
        <time>2021-02-20T09:15:24Z</time>
      </trkpt>
      <trkpt lat="45.17428" lon="5.9321">
        <ele>1878.4</ele>
        <time>2021-02-20T09:15:25Z</time>
      </trkpt>
      <trkpt lat="45.17429" lon="5.93211">
        <ele>1879.1</ele>
        <time>2021-02-20T09:15:26Z</time>
      </trkpt>
      <trkpt lat="45.17429" lon="5.93212">
        <ele>1879.1</ele>
        <time>2021-02-20T09:15:27Z</time>
      </trkpt>
      <trkpt lat="45.17429" lon="5.93214">
        <ele>1879.2</ele>
        <time>2021-02-20T09:15:28Z</time>
      </trkpt>
      <trkpt lat="45.1743" lon="5.93216">
        <ele>1878.7</ele>
        <time>2021-02-20T09:15:29Z</time>
      </trkpt>
      <trkpt lat="45.1743" lon="5.93217">
        <ele>1878.8</ele>
        <time>2021-02-20T09:15:30Z</time>
      </trkpt>
      <trkpt lat="45.1743" lon="5.93218">
        <ele>1878.8</ele>
        <time>2021-02-20T09:15:31Z</time>
      </trkpt>
      <trkpt lat="45.17431" lon="5.93219">
        <ele>1878.9</ele>
        <time>2021-02-20T09:15:32Z</time>
      </trkpt>
      <trkpt lat="45.17432" lon="5.9322">
        <ele>1879.5</ele>
        <time>2021-02-20T09:15:33Z</time>
      </trkpt>
      <trkpt lat="45.17432" lon="5.9322">
        <ele>1879.5</ele>
        <time>2021-02-20T09:15:34Z</time>
      </trkpt>
      <trkpt lat="45.17432" lon="5.93221">
        <ele>1879.5</ele>
        <time>2021-02-20T09:15:35Z</time>
      </trkpt>
      <trkpt lat="45.17433" lon="5.93222">
        <ele>1878.9</ele>
        <time>2021-02-20T09:15:36Z</time>
      </trkpt>
      <trkpt lat="45.17433" lon="5.93223">
        <ele>1879.5</ele>
        <time>2021-02-20T09:15:37Z</time>
      </trkpt>
      <trkpt lat="45.17434" lon="5.93224">
        <ele>1879.5</ele>
        <time>2021-02-20T09:15:38Z</time>
      </trkpt>
      <trkpt lat="45.17434" lon="5.93226">
        <ele>1879.6</ele>
        <time>2021-02-20T09:15:39Z</time>
      </trkpt>
      <trkpt lat="45.17435" lon="5.93227">
        <ele>1879.6</ele>
        <time>2021-02-20T09:15:40Z</time>
      </trkpt>
      <trkpt lat="45.17435" lon="5.93228">
        <ele>1880.2</ele>
        <time>2021-02-20T09:15:41Z</time>
      </trkpt>
      <trkpt lat="45.17435" lon="5.93229">
        <ele>1880.2</ele>
        <time>2021-02-20T09:15:42Z</time>
      </trkpt>
      <trkpt lat="45.17436" lon="5.9323">
        <ele>1879.4</ele>
        <time>2021-02-20T09:15:43Z</time>
      </trkpt>
      <trkpt lat="45.17436" lon="5.93231">
        <ele>1879.5</ele>
        <time>2021-02-20T09:15:44Z</time>
      </trkpt>
      <trkpt lat="45.17436" lon="5.93232">
        <ele>1880.1</ele>
        <time>2021-02-20T09:15:45Z</time>
      </trkpt>
      <trkpt lat="45.17437" lon="5.93233">
        <ele>1880.1</ele>
        <time>2021-02-20T09:15:46Z</time>
      </trkpt>
      <trkpt lat="45.17437" lon="5.93235">
        <ele>1880.1</ele>
        <time>2021-02-20T09:15:47Z</time>
      </trkpt>
      <trkpt lat="45.17437" lon="5.93236">
        <ele>1880.2</ele>
        <time>2021-02-20T09:15:48Z</time>
      </trkpt>
      <trkpt lat="45.17437" lon="5.93237">
        <ele>1880.8</ele>
        <time>2021-02-20T09:15:49Z</time>
      </trkpt>
      <trkpt lat="45.17438" lon="5.93239">
        <ele>1880.8</ele>
        <time>2021-02-20T09:15:50Z</time>
      </trkpt>
      <trkpt lat="45.17438" lon="5.9324">
        <ele>1879.9</ele>
        <time>2021-02-20T09:15:51Z</time>
      </trkpt>
      <trkpt lat="45.17439" lon="5.93241">
        <ele>1880.5</ele>
        <time>2021-02-20T09:15:52Z</time>
      </trkpt>
      <trkpt lat="45.17439" lon="5.93242">
        <ele>1880.5</ele>
        <time>2021-02-20T09:15:53Z</time>
      </trkpt>
      <trkpt lat="45.1744" lon="5.93243">
        <ele>1880.6</ele>
        <time>2021-02-20T09:15:54Z</time>
      </trkpt>
      <trkpt lat="45.1744" lon="5.93244">
        <ele>1880.6</ele>
        <time>2021-02-20T09:15:55Z</time>
      </trkpt>
      <trkpt lat="45.1744" lon="5.93245">
        <ele>1881.2</ele>
        <time>2021-02-20T09:15:56Z</time>
      </trkpt>
      <trkpt lat="45.17441" lon="5.93247">
        <ele>1881.3</ele>
        <time>2021-02-20T09:15:57Z</time>
      </trkpt>
      <trkpt lat="45.17441" lon="5.93248">
        <ele>1881.3</ele>
        <time>2021-02-20T09:15:58Z</time>
      </trkpt>
      <trkpt lat="45.17442" lon="5.93249">
        <ele>1880.9</ele>
        <time>2021-02-20T09:15:59Z</time>
      </trkpt>
      <trkpt lat="45.17442" lon="5.93251">
        <ele>1880.9</ele>
        <time>2021-02-20T09:16:00Z</time>
      </trkpt>
      <trkpt lat="45.17443" lon="5.93252">
        <ele>1881</ele>
        <time>2021-02-20T09:16:01Z</time>
      </trkpt>
      <trkpt lat="45.17443" lon="5.93254">
        <ele>1881.5</ele>
        <time>2021-02-20T09:16:02Z</time>
      </trkpt>
      <trkpt lat="45.17443" lon="5.93255">
        <ele>1881.5</ele>
        <time>2021-02-20T09:16:03Z</time>
      </trkpt>
      <trkpt lat="45.17444" lon="5.93256">
        <ele>1881.5</ele>
        <time>2021-02-20T09:16:04Z</time>
      </trkpt>
      <trkpt lat="45.17444" lon="5.93257">
        <ele>1881.6</ele>
        <time>2021-02-20T09:16:05Z</time>
      </trkpt>
      <trkpt lat="45.17445" lon="5.93258">
        <ele>1881.1</ele>
        <time>2021-02-20T09:16:06Z</time>
      </trkpt>
      <trkpt lat="45.17445" lon="5.93259">
        <ele>1881.1</ele>
        <time>2021-02-20T09:16:07Z</time>
      </trkpt>
      <trkpt lat="45.17446" lon="5.93261">
        <ele>1881.2</ele>
        <time>2021-02-20T09:16:08Z</time>
      </trkpt>
      <trkpt lat="45.17446" lon="5.93262">
        <ele>1882</ele>
        <time>2021-02-20T09:16:09Z</time>
      </trkpt>
      <trkpt lat="45.17446" lon="5.93263">
        <ele>1882</ele>
        <time>2021-02-20T09:16:10Z</time>
      </trkpt>
      <trkpt lat="45.17446" lon="5.93264">
        <ele>1882</ele>
        <time>2021-02-20T09:16:11Z</time>
      </trkpt>
      <trkpt lat="45.17446" lon="5.93265">
        <ele>1882.1</ele>
        <time>2021-02-20T09:16:12Z</time>
      </trkpt>
      <trkpt lat="45.17446" lon="5.93266">
        <ele>1882.3</ele>
        <time>2021-02-20T09:16:13Z</time>
      </trkpt>
      <trkpt lat="45.17446" lon="5.93267">
        <ele>1882.4</ele>
        <time>2021-02-20T09:16:14Z</time>
      </trkpt>
      <trkpt lat="45.17446" lon="5.93268">
        <ele>1882.4</ele>
        <time>2021-02-20T09:16:15Z</time>
      </trkpt>
      <trkpt lat="45.17446" lon="5.9327">
        <ele>1882.6</ele>
        <time>2021-02-20T09:16:16Z</time>
      </trkpt>
      <trkpt lat="45.17445" lon="5.93271">
        <ele>1882.8</ele>
        <time>2021-02-20T09:16:17Z</time>
      </trkpt>
      <trkpt lat="45.17445" lon="5.93273">
        <ele>1882.9</ele>
        <time>2021-02-20T09:16:18Z</time>
      </trkpt>
      <trkpt lat="45.17444" lon="5.93274">
        <ele>1883.3</ele>
        <time>2021-02-20T09:16:19Z</time>
      </trkpt>
      <trkpt lat="45.17444" lon="5.93275">
        <ele>1883.5</ele>
        <time>2021-02-20T09:16:20Z</time>
      </trkpt>
      <trkpt lat="45.17444" lon="5.93276">
        <ele>1883.6</ele>
        <time>2021-02-20T09:16:21Z</time>
      </trkpt>
      <trkpt lat="45.17443" lon="5.93277">
        <ele>1883.8</ele>
        <time>2021-02-20T09:16:22Z</time>
      </trkpt>
      <trkpt lat="45.17443" lon="5.93278">
        <ele>1883.9</ele>
        <time>2021-02-20T09:16:23Z</time>
      </trkpt>
      <trkpt lat="45.17443" lon="5.93279">
        <ele>1884</ele>
        <time>2021-02-20T09:16:24Z</time>
      </trkpt>
      <trkpt lat="45.17442" lon="5.9328">
        <ele>1884.2</ele>
        <time>2021-02-20T09:16:25Z</time>
      </trkpt>
      <trkpt lat="45.17442" lon="5.93281">
        <ele>1884.3</ele>
        <time>2021-02-20T09:16:26Z</time>
      </trkpt>
      <trkpt lat="45.17441" lon="5.93282">
        <ele>1884.5</ele>
        <time>2021-02-20T09:16:27Z</time>
      </trkpt>
      <trkpt lat="45.1744" lon="5.93283">
        <ele>1884.7</ele>
        <time>2021-02-20T09:16:28Z</time>
      </trkpt>
      <trkpt lat="45.17439" lon="5.93284">
        <ele>1884.9</ele>
        <time>2021-02-20T09:16:29Z</time>
      </trkpt>
      <trkpt lat="45.17438" lon="5.93286">
        <ele>1885.3</ele>
        <time>2021-02-20T09:16:30Z</time>
      </trkpt>
      <trkpt lat="45.17437" lon="5.93287">
        <ele>1885.4</ele>
        <time>2021-02-20T09:16:31Z</time>
      </trkpt>
      <trkpt lat="45.17436" lon="5.93287">
        <ele>1885.5</ele>
        <time>2021-02-20T09:16:32Z</time>
      </trkpt>
      <trkpt lat="45.17436" lon="5.93288">
        <ele>1885.7</ele>
        <time>2021-02-20T09:16:33Z</time>
      </trkpt>
      <trkpt lat="45.17435" lon="5.93289">
        <ele>1885.9</ele>
        <time>2021-02-20T09:16:34Z</time>
      </trkpt>
      <trkpt lat="45.17434" lon="5.93289">
        <ele>1886.1</ele>
        <time>2021-02-20T09:16:35Z</time>
      </trkpt>
      <trkpt lat="45.17433" lon="5.9329">
        <ele>1886.2</ele>
        <time>2021-02-20T09:16:36Z</time>
      </trkpt>
      <trkpt lat="45.17432" lon="5.9329">
        <ele>1886.4</ele>
        <time>2021-02-20T09:16:37Z</time>
      </trkpt>
      <trkpt lat="45.17431" lon="5.93291">
        <ele>1886.6</ele>
        <time>2021-02-20T09:16:38Z</time>
      </trkpt>
      <trkpt lat="45.1743" lon="5.93292">
        <ele>1886.8</ele>
        <time>2021-02-20T09:16:39Z</time>
      </trkpt>
      <trkpt lat="45.1743" lon="5.93293">
        <ele>1887</ele>
        <time>2021-02-20T09:16:40Z</time>
      </trkpt>
      <trkpt lat="45.17429" lon="5.93294">
        <ele>1887.2</ele>
        <time>2021-02-20T09:16:41Z</time>
      </trkpt>
      <trkpt lat="45.17429" lon="5.93295">
        <ele>1887.3</ele>
        <time>2021-02-20T09:16:42Z</time>
      </trkpt>
      <trkpt lat="45.17428" lon="5.93296">
        <ele>1887.5</ele>
        <time>2021-02-20T09:16:43Z</time>
      </trkpt>
      <trkpt lat="45.17427" lon="5.93297">
        <ele>1887.6</ele>
        <time>2021-02-20T09:16:44Z</time>
      </trkpt>
      <trkpt lat="45.17427" lon="5.93297">
        <ele>1887.8</ele>
        <time>2021-02-20T09:16:45Z</time>
      </trkpt>
      <trkpt lat="45.17426" lon="5.93298">
        <ele>1888</ele>
        <time>2021-02-20T09:16:46Z</time>
      </trkpt>
      <trkpt lat="45.17425" lon="5.93299">
        <ele>1888.1</ele>
        <time>2021-02-20T09:16:47Z</time>
      </trkpt>
      <trkpt lat="45.17424" lon="5.933">
        <ele>1888.3</ele>
        <time>2021-02-20T09:16:48Z</time>
      </trkpt>
      <trkpt lat="45.17423" lon="5.933">
        <ele>1888.5</ele>
        <time>2021-02-20T09:16:49Z</time>
      </trkpt>
      <trkpt lat="45.17422" lon="5.93301">
        <ele>1888.7</ele>
        <time>2021-02-20T09:16:50Z</time>
      </trkpt>
      <trkpt lat="45.17421" lon="5.93301">
        <ele>1888.8</ele>
        <time>2021-02-20T09:16:51Z</time>
      </trkpt>
      <trkpt lat="45.17421" lon="5.93301">
        <ele>1889</ele>
        <time>2021-02-20T09:16:52Z</time>
      </trkpt>
      <trkpt lat="45.1742" lon="5.93301">
        <ele>1889.1</ele>
        <time>2021-02-20T09:16:53Z</time>
      </trkpt>
      <trkpt lat="45.17419" lon="5.93301">
        <ele>1889.2</ele>
        <time>2021-02-20T09:16:54Z</time>
      </trkpt>
      <trkpt lat="45.17418" lon="5.93301">
        <ele>1889.4</ele>
        <time>2021-02-20T09:16:55Z</time>
      </trkpt>
      <trkpt lat="45.17417" lon="5.933">
        <ele>1889.6</ele>
        <time>2021-02-20T09:16:56Z</time>
      </trkpt>
      <trkpt lat="45.17417" lon="5.93301">
        <ele>1889.7</ele>
        <time>2021-02-20T09:16:57Z</time>
      </trkpt>
      <trkpt lat="45.17416" lon="5.93301">
        <ele>1889.9</ele>
        <time>2021-02-20T09:16:58Z</time>
      </trkpt>
      <trkpt lat="45.17415" lon="5.93302">
        <ele>1890.1</ele>
        <time>2021-02-20T09:16:59Z</time>
      </trkpt>
      <trkpt lat="45.17414" lon="5.93303">
        <ele>1890.2</ele>
        <time>2021-02-20T09:17:00Z</time>
      </trkpt>
      <trkpt lat="45.17414" lon="5.93303">
        <ele>1890.5</ele>
        <time>2021-02-20T09:17:01Z</time>
      </trkpt>
      <trkpt lat="45.17413" lon="5.93304">
        <ele>1890.7</ele>
        <time>2021-02-20T09:17:02Z</time>
      </trkpt>
      <trkpt lat="45.17413" lon="5.93305">
        <ele>1890.8</ele>
        <time>2021-02-20T09:17:03Z</time>
      </trkpt>
      <trkpt lat="45.17412" lon="5.93306">
        <ele>1891</ele>
        <time>2021-02-20T09:17:04Z</time>
      </trkpt>
      <trkpt lat="45.17413" lon="5.93307">
        <ele>1891.1</ele>
        <time>2021-02-20T09:17:05Z</time>
      </trkpt>
      <trkpt lat="45.17413" lon="5.93308">
        <ele>1891.3</ele>
        <time>2021-02-20T09:17:06Z</time>
      </trkpt>
      <trkpt lat="45.17414" lon="5.93309">
        <ele>1891.5</ele>
        <time>2021-02-20T09:17:07Z</time>
      </trkpt>
      <trkpt lat="45.17414" lon="5.9331">
        <ele>1891.8</ele>
        <time>2021-02-20T09:17:08Z</time>
      </trkpt>
      <trkpt lat="45.17415" lon="5.93311">
        <ele>1892</ele>
        <time>2021-02-20T09:17:09Z</time>
      </trkpt>
      <trkpt lat="45.17416" lon="5.93312">
        <ele>1892.2</ele>
        <time>2021-02-20T09:17:10Z</time>
      </trkpt>
      <trkpt lat="45.17416" lon="5.93313">
        <ele>1892.4</ele>
        <time>2021-02-20T09:17:11Z</time>
      </trkpt>
      <trkpt lat="45.17417" lon="5.93314">
        <ele>1892.6</ele>
        <time>2021-02-20T09:17:12Z</time>
      </trkpt>
      <trkpt lat="45.17417" lon="5.93315">
        <ele>1892.7</ele>
        <time>2021-02-20T09:17:13Z</time>
      </trkpt>
      <trkpt lat="45.17418" lon="5.93316">
        <ele>1892.9</ele>
        <time>2021-02-20T09:17:14Z</time>
      </trkpt>
      <trkpt lat="45.17418" lon="5.93318">
        <ele>1893.1</ele>
        <time>2021-02-20T09:17:15Z</time>
      </trkpt>
      <trkpt lat="45.17418" lon="5.93319">
        <ele>1893.3</ele>
        <time>2021-02-20T09:17:16Z</time>
      </trkpt>
      <trkpt lat="45.17418" lon="5.9332">
        <ele>1893.5</ele>
        <time>2021-02-20T09:17:17Z</time>
      </trkpt>
      <trkpt lat="45.17418" lon="5.93321">
        <ele>1893.7</ele>
        <time>2021-02-20T09:17:18Z</time>
      </trkpt>
      <trkpt lat="45.17419" lon="5.93323">
        <ele>1893.9</ele>
        <time>2021-02-20T09:17:19Z</time>
      </trkpt>
      <trkpt lat="45.17419" lon="5.93324">
        <ele>1894.1</ele>
        <time>2021-02-20T09:17:20Z</time>
      </trkpt>
      <trkpt lat="45.17419" lon="5.93325">
        <ele>1894.2</ele>
        <time>2021-02-20T09:17:21Z</time>
      </trkpt>
      <trkpt lat="45.17419" lon="5.93326">
        <ele>1894.4</ele>
        <time>2021-02-20T09:17:22Z</time>
      </trkpt>
      <trkpt lat="45.17419" lon="5.93327">
        <ele>1894.5</ele>
        <time>2021-02-20T09:17:23Z</time>
      </trkpt>
      <trkpt lat="45.17419" lon="5.93329">
        <ele>1894.7</ele>
        <time>2021-02-20T09:17:24Z</time>
      </trkpt>
      <trkpt lat="45.17419" lon="5.9333">
        <ele>1894.9</ele>
        <time>2021-02-20T09:17:25Z</time>
      </trkpt>
      <trkpt lat="45.17419" lon="5.93331">
        <ele>1895</ele>
        <time>2021-02-20T09:17:26Z</time>
      </trkpt>
      <trkpt lat="45.17419" lon="5.93332">
        <ele>1895.2</ele>
        <time>2021-02-20T09:17:27Z</time>
      </trkpt>
      <trkpt lat="45.17419" lon="5.93333">
        <ele>1895.3</ele>
        <time>2021-02-20T09:17:28Z</time>
      </trkpt>
      <trkpt lat="45.17418" lon="5.93334">
        <ele>1895.4</ele>
        <time>2021-02-20T09:17:29Z</time>
      </trkpt>
      <trkpt lat="45.17418" lon="5.93334">
        <ele>1895.5</ele>
        <time>2021-02-20T09:17:30Z</time>
      </trkpt>
      <trkpt lat="45.17418" lon="5.93335">
        <ele>1895.6</ele>
        <time>2021-02-20T09:17:31Z</time>
      </trkpt>
      <trkpt lat="45.17417" lon="5.93336">
        <ele>1895.8</ele>
        <time>2021-02-20T09:17:32Z</time>
      </trkpt>
      <trkpt lat="45.17417" lon="5.93337">
        <ele>1896</ele>
        <time>2021-02-20T09:17:33Z</time>
      </trkpt>
      <trkpt lat="45.17416" lon="5.93338">
        <ele>1896.1</ele>
        <time>2021-02-20T09:17:34Z</time>
      </trkpt>
      <trkpt lat="45.17416" lon="5.9334">
        <ele>1896.3</ele>
        <time>2021-02-20T09:17:35Z</time>
      </trkpt>
      <trkpt lat="45.17415" lon="5.93341">
        <ele>1896.4</ele>
        <time>2021-02-20T09:17:36Z</time>
      </trkpt>
      <trkpt lat="45.17415" lon="5.93342">
        <ele>1896.6</ele>
        <time>2021-02-20T09:17:37Z</time>
      </trkpt>
      <trkpt lat="45.17415" lon="5.93344">
        <ele>1896.8</ele>
        <time>2021-02-20T09:17:38Z</time>
      </trkpt>
      <trkpt lat="45.17414" lon="5.93346">
        <ele>1897</ele>
        <time>2021-02-20T09:17:39Z</time>
      </trkpt>
      <trkpt lat="45.17414" lon="5.93347">
        <ele>1897.1</ele>
        <time>2021-02-20T09:17:40Z</time>
      </trkpt>
      <trkpt lat="45.17414" lon="5.93349">
        <ele>1897.3</ele>
        <time>2021-02-20T09:17:41Z</time>
      </trkpt>
      <trkpt lat="45.17414" lon="5.9335">
        <ele>1897.4</ele>
        <time>2021-02-20T09:17:42Z</time>
      </trkpt>
      <trkpt lat="45.17414" lon="5.93351">
        <ele>1897.5</ele>
        <time>2021-02-20T09:17:43Z</time>
      </trkpt>
      <trkpt lat="45.17413" lon="5.93353">
        <ele>1897.5</ele>
        <time>2021-02-20T09:17:44Z</time>
      </trkpt>
      <trkpt lat="45.17413" lon="5.93354">
        <ele>1897.6</ele>
        <time>2021-02-20T09:17:45Z</time>
      </trkpt>
      <trkpt lat="45.17413" lon="5.93356">
        <ele>1897.7</ele>
        <time>2021-02-20T09:17:46Z</time>
      </trkpt>
      <trkpt lat="45.17413" lon="5.93357">
        <ele>1897.8</ele>
        <time>2021-02-20T09:17:47Z</time>
      </trkpt>
      <trkpt lat="45.17413" lon="5.93359">
        <ele>1897.8</ele>
        <time>2021-02-20T09:17:48Z</time>
      </trkpt>
      <trkpt lat="45.17412" lon="5.9336">
        <ele>1897.9</ele>
        <time>2021-02-20T09:17:49Z</time>
      </trkpt>
      <trkpt lat="45.17412" lon="5.93361">
        <ele>1897.9</ele>
        <time>2021-02-20T09:17:50Z</time>
      </trkpt>
      <trkpt lat="45.17412" lon="5.93363">
        <ele>1898</ele>
        <time>2021-02-20T09:17:51Z</time>
      </trkpt>
      <trkpt lat="45.17412" lon="5.93364">
        <ele>1898</ele>
        <time>2021-02-20T09:17:52Z</time>
      </trkpt>
      <trkpt lat="45.17411" lon="5.93365">
        <ele>1898.1</ele>
        <time>2021-02-20T09:17:53Z</time>
      </trkpt>
      <trkpt lat="45.17411" lon="5.93366">
        <ele>1898.1</ele>
        <time>2021-02-20T09:17:54Z</time>
      </trkpt>
      <trkpt lat="45.17411" lon="5.93368">
        <ele>1898.2</ele>
        <time>2021-02-20T09:17:55Z</time>
      </trkpt>
      <trkpt lat="45.17411" lon="5.93369">
        <ele>1898.2</ele>
        <time>2021-02-20T09:17:56Z</time>
      </trkpt>
      <trkpt lat="45.1741" lon="5.93371">
        <ele>1898.3</ele>
        <time>2021-02-20T09:17:57Z</time>
      </trkpt>
      <trkpt lat="45.1741" lon="5.93372">
        <ele>1898.3</ele>
        <time>2021-02-20T09:17:58Z</time>
      </trkpt>
      <trkpt lat="45.1741" lon="5.93373">
        <ele>1898.4</ele>
        <time>2021-02-20T09:17:59Z</time>
      </trkpt>
      <trkpt lat="45.1741" lon="5.93374">
        <ele>1898.4</ele>
        <time>2021-02-20T09:18:00Z</time>
      </trkpt>
      <trkpt lat="45.1741" lon="5.93376">
        <ele>1898.5</ele>
        <time>2021-02-20T09:18:01Z</time>
      </trkpt>
      <trkpt lat="45.1741" lon="5.93377">
        <ele>1898.5</ele>
        <time>2021-02-20T09:18:02Z</time>
      </trkpt>
      <trkpt lat="45.17411" lon="5.93378">
        <ele>1898.6</ele>
        <time>2021-02-20T09:18:03Z</time>
      </trkpt>
      <trkpt lat="45.17411" lon="5.9338">
        <ele>1898.6</ele>
        <time>2021-02-20T09:18:04Z</time>
      </trkpt>
      <trkpt lat="45.1741" lon="5.93381">
        <ele>1898.7</ele>
        <time>2021-02-20T09:18:05Z</time>
      </trkpt>
      <trkpt lat="45.1741" lon="5.93382">
        <ele>1898.7</ele>
        <time>2021-02-20T09:18:06Z</time>
      </trkpt>
      <trkpt lat="45.1741" lon="5.93383">
        <ele>1898.8</ele>
        <time>2021-02-20T09:18:07Z</time>
      </trkpt>
      <trkpt lat="45.17411" lon="5.93385">
        <ele>1898.9</ele>
        <time>2021-02-20T09:18:08Z</time>
      </trkpt>
      <trkpt lat="45.17411" lon="5.93386">
        <ele>1899</ele>
        <time>2021-02-20T09:18:09Z</time>
      </trkpt>
      <trkpt lat="45.1741" lon="5.93388">
        <ele>1899.1</ele>
        <time>2021-02-20T09:18:10Z</time>
      </trkpt>
      <trkpt lat="45.1741" lon="5.93389">
        <ele>1899.2</ele>
        <time>2021-02-20T09:18:11Z</time>
      </trkpt>
      <trkpt lat="45.1741" lon="5.93391">
        <ele>1899.3</ele>
        <time>2021-02-20T09:18:12Z</time>
      </trkpt>
      <trkpt lat="45.1741" lon="5.93392">
        <ele>1899.5</ele>
        <time>2021-02-20T09:18:13Z</time>
      </trkpt>
      <trkpt lat="45.1741" lon="5.93394">
        <ele>1899.6</ele>
        <time>2021-02-20T09:18:14Z</time>
      </trkpt>
      <trkpt lat="45.1741" lon="5.93395">
        <ele>1899.7</ele>
        <time>2021-02-20T09:18:15Z</time>
      </trkpt>
      <trkpt lat="45.1741" lon="5.93396">
        <ele>1899.9</ele>
        <time>2021-02-20T09:18:16Z</time>
      </trkpt>
      <trkpt lat="45.1741" lon="5.93397">
        <ele>1900</ele>
        <time>2021-02-20T09:18:17Z</time>
      </trkpt>
      <trkpt lat="45.1741" lon="5.93399">
        <ele>1900.1</ele>
        <time>2021-02-20T09:18:18Z</time>
      </trkpt>
      <trkpt lat="45.1741" lon="5.934">
        <ele>1900.3</ele>
        <time>2021-02-20T09:18:19Z</time>
      </trkpt>
      <trkpt lat="45.17409" lon="5.93403">
        <ele>1900.7</ele>
        <time>2021-02-20T09:18:20Z</time>
      </trkpt>
      <trkpt lat="45.17408" lon="5.93404">
        <ele>1900.9</ele>
        <time>2021-02-20T09:18:21Z</time>
      </trkpt>
      <trkpt lat="45.17408" lon="5.93405">
        <ele>1901</ele>
        <time>2021-02-20T09:18:22Z</time>
      </trkpt>
      <trkpt lat="45.17407" lon="5.93407">
        <ele>1901.5</ele>
        <time>2021-02-20T09:18:23Z</time>
      </trkpt>
      <trkpt lat="45.17406" lon="5.93408">
        <ele>1901.6</ele>
        <time>2021-02-20T09:18:24Z</time>
      </trkpt>
      <trkpt lat="45.17406" lon="5.93409">
        <ele>1901.8</ele>
        <time>2021-02-20T09:18:25Z</time>
      </trkpt>
      <trkpt lat="45.17405" lon="5.9341">
        <ele>1902.1</ele>
        <time>2021-02-20T09:18:26Z</time>
      </trkpt>
      <trkpt lat="45.17404" lon="5.93411">
        <ele>1902.2</ele>
        <time>2021-02-20T09:18:27Z</time>
      </trkpt>
      <trkpt lat="45.17404" lon="5.93412">
        <ele>1902.4</ele>
        <time>2021-02-20T09:18:28Z</time>
      </trkpt>
      <trkpt lat="45.17403" lon="5.93413">
        <ele>1902.5</ele>
        <time>2021-02-20T09:18:29Z</time>
      </trkpt>
      <trkpt lat="45.17403" lon="5.93414">
        <ele>1902.7</ele>
        <time>2021-02-20T09:18:30Z</time>
      </trkpt>
      <trkpt lat="45.17402" lon="5.93415">
        <ele>1902.9</ele>
        <time>2021-02-20T09:18:31Z</time>
      </trkpt>
      <trkpt lat="45.17402" lon="5.93417">
        <ele>1903</ele>
        <time>2021-02-20T09:18:32Z</time>
      </trkpt>
      <trkpt lat="45.17402" lon="5.93418">
        <ele>1903.2</ele>
        <time>2021-02-20T09:18:33Z</time>
      </trkpt>
      <trkpt lat="45.17402" lon="5.9342">
        <ele>1903.4</ele>
        <time>2021-02-20T09:18:34Z</time>
      </trkpt>
      <trkpt lat="45.17402" lon="5.93422">
        <ele>1903.6</ele>
        <time>2021-02-20T09:18:35Z</time>
      </trkpt>
      <trkpt lat="45.17401" lon="5.93423">
        <ele>1903.8</ele>
        <time>2021-02-20T09:18:36Z</time>
      </trkpt>
      <trkpt lat="45.17401" lon="5.93424">
        <ele>1903.9</ele>
        <time>2021-02-20T09:18:37Z</time>
      </trkpt>
      <trkpt lat="45.174" lon="5.93425">
        <ele>1904</ele>
        <time>2021-02-20T09:18:38Z</time>
      </trkpt>
      <trkpt lat="45.174" lon="5.93426">
        <ele>1904.1</ele>
        <time>2021-02-20T09:18:39Z</time>
      </trkpt>
      <trkpt lat="45.17399" lon="5.93427">
        <ele>1904.2</ele>
        <time>2021-02-20T09:18:40Z</time>
      </trkpt>
      <trkpt lat="45.17398" lon="5.93429">
        <ele>1904.3</ele>
        <time>2021-02-20T09:18:41Z</time>
      </trkpt>
      <trkpt lat="45.17397" lon="5.9343">
        <ele>1904.4</ele>
        <time>2021-02-20T09:18:42Z</time>
      </trkpt>
      <trkpt lat="45.17397" lon="5.93431">
        <ele>1904.5</ele>
        <time>2021-02-20T09:18:43Z</time>
      </trkpt>
      <trkpt lat="45.17396" lon="5.93432">
        <ele>1904.6</ele>
        <time>2021-02-20T09:18:44Z</time>
      </trkpt>
      <trkpt lat="45.17395" lon="5.93433">
        <ele>1904.7</ele>
        <time>2021-02-20T09:18:45Z</time>
      </trkpt>
      <trkpt lat="45.17395" lon="5.93434">
        <ele>1904.8</ele>
        <time>2021-02-20T09:18:46Z</time>
      </trkpt>
      <trkpt lat="45.17394" lon="5.93436">
        <ele>1904.9</ele>
        <time>2021-02-20T09:18:47Z</time>
      </trkpt>
      <trkpt lat="45.17394" lon="5.93437">
        <ele>1905</ele>
        <time>2021-02-20T09:18:48Z</time>
      </trkpt>
      <trkpt lat="45.17393" lon="5.93438">
        <ele>1905</ele>
        <time>2021-02-20T09:18:49Z</time>
      </trkpt>
      <trkpt lat="45.17392" lon="5.93439">
        <ele>1905.1</ele>
        <time>2021-02-20T09:18:50Z</time>
      </trkpt>
      <trkpt lat="45.17391" lon="5.9344">
        <ele>1905.2</ele>
        <time>2021-02-20T09:18:51Z</time>
      </trkpt>
      <trkpt lat="45.1739" lon="5.93441">
        <ele>1905.3</ele>
        <time>2021-02-20T09:18:52Z</time>
      </trkpt>
      <trkpt lat="45.1739" lon="5.93443">
        <ele>1905.4</ele>
        <time>2021-02-20T09:18:53Z</time>
      </trkpt>
      <trkpt lat="45.17389" lon="5.93444">
        <ele>1905.4</ele>
        <time>2021-02-20T09:18:54Z</time>
      </trkpt>
      <trkpt lat="45.17388" lon="5.93445">
        <ele>1905.5</ele>
        <time>2021-02-20T09:18:55Z</time>
      </trkpt>
      <trkpt lat="45.17388" lon="5.93447">
        <ele>1905.6</ele>
        <time>2021-02-20T09:18:56Z</time>
      </trkpt>
      <trkpt lat="45.17387" lon="5.93448">
        <ele>1905.7</ele>
        <time>2021-02-20T09:18:57Z</time>
      </trkpt>
      <trkpt lat="45.17387" lon="5.93449">
        <ele>1905.8</ele>
        <time>2021-02-20T09:18:58Z</time>
      </trkpt>
      <trkpt lat="45.17386" lon="5.9345">
        <ele>1905.8</ele>
        <time>2021-02-20T09:18:59Z</time>
      </trkpt>
      <trkpt lat="45.17385" lon="5.93451">
        <ele>1905.9</ele>
        <time>2021-02-20T09:19:00Z</time>
      </trkpt>
      <trkpt lat="45.17384" lon="5.93452">
        <ele>1906</ele>
        <time>2021-02-20T09:19:01Z</time>
      </trkpt>
      <trkpt lat="45.17383" lon="5.93453">
        <ele>1906.1</ele>
        <time>2021-02-20T09:19:02Z</time>
      </trkpt>
      <trkpt lat="45.17383" lon="5.93453">
        <ele>1906.1</ele>
        <time>2021-02-20T09:19:03Z</time>
      </trkpt>
      <trkpt lat="45.17382" lon="5.93454">
        <ele>1906.2</ele>
        <time>2021-02-20T09:19:04Z</time>
      </trkpt>
      <trkpt lat="45.17382" lon="5.93455">
        <ele>1906.3</ele>
        <time>2021-02-20T09:19:05Z</time>
      </trkpt>
      <trkpt lat="45.17381" lon="5.93456">
        <ele>1906.3</ele>
        <time>2021-02-20T09:19:06Z</time>
      </trkpt>
      <trkpt lat="45.1738" lon="5.93456">
        <ele>1906.4</ele>
        <time>2021-02-20T09:19:07Z</time>
      </trkpt>
      <trkpt lat="45.17379" lon="5.93457">
        <ele>1906.5</ele>
        <time>2021-02-20T09:19:08Z</time>
      </trkpt>
      <trkpt lat="45.17379" lon="5.93458">
        <ele>1906.6</ele>
        <time>2021-02-20T09:19:09Z</time>
      </trkpt>
      <trkpt lat="45.17378" lon="5.93459">
        <ele>1906.7</ele>
        <time>2021-02-20T09:19:10Z</time>
      </trkpt>
      <trkpt lat="45.17378" lon="5.9346">
        <ele>1906.7</ele>
        <time>2021-02-20T09:19:11Z</time>
      </trkpt>
      <trkpt lat="45.17377" lon="5.93461">
        <ele>1906.8</ele>
        <time>2021-02-20T09:19:12Z</time>
      </trkpt>
      <trkpt lat="45.17376" lon="5.93461">
        <ele>1906.8</ele>
        <time>2021-02-20T09:19:13Z</time>
      </trkpt>
      <trkpt lat="45.17376" lon="5.93462">
        <ele>1906.9</ele>
        <time>2021-02-20T09:19:14Z</time>
      </trkpt>
      <trkpt lat="45.17375" lon="5.93464">
        <ele>1906.9</ele>
        <time>2021-02-20T09:19:15Z</time>
      </trkpt>
      <trkpt lat="45.17375" lon="5.93465">
        <ele>1907</ele>
        <time>2021-02-20T09:19:16Z</time>
      </trkpt>
      <trkpt lat="45.17375" lon="5.93466">
        <ele>1907.2</ele>
        <time>2021-02-20T09:19:17Z</time>
      </trkpt>
      <trkpt lat="45.17375" lon="5.93468">
        <ele>1907.3</ele>
        <time>2021-02-20T09:19:18Z</time>
      </trkpt>
      <trkpt lat="45.17375" lon="5.93469">
        <ele>1907.4</ele>
        <time>2021-02-20T09:19:19Z</time>
      </trkpt>
      <trkpt lat="45.17375" lon="5.93471">
        <ele>1907.5</ele>
        <time>2021-02-20T09:19:20Z</time>
      </trkpt>
      <trkpt lat="45.17375" lon="5.93472">
        <ele>1907.6</ele>
        <time>2021-02-20T09:19:21Z</time>
      </trkpt>
      <trkpt lat="45.17376" lon="5.93474">
        <ele>1907.7</ele>
        <time>2021-02-20T09:19:22Z</time>
      </trkpt>
      <trkpt lat="45.17376" lon="5.93475">
        <ele>1907.8</ele>
        <time>2021-02-20T09:19:23Z</time>
      </trkpt>
      <trkpt lat="45.17376" lon="5.93476">
        <ele>1908</ele>
        <time>2021-02-20T09:19:24Z</time>
      </trkpt>
      <trkpt lat="45.17376" lon="5.93478">
        <ele>1908.1</ele>
        <time>2021-02-20T09:19:25Z</time>
      </trkpt>
      <trkpt lat="45.17376" lon="5.93479">
        <ele>1908.2</ele>
        <time>2021-02-20T09:19:26Z</time>
      </trkpt>
      <trkpt lat="45.17376" lon="5.93481">
        <ele>1908.4</ele>
        <time>2021-02-20T09:19:27Z</time>
      </trkpt>
      <trkpt lat="45.17376" lon="5.93482">
        <ele>1908.5</ele>
        <time>2021-02-20T09:19:28Z</time>
      </trkpt>
      <trkpt lat="45.17376" lon="5.93484">
        <ele>1908.7</ele>
        <time>2021-02-20T09:19:29Z</time>
      </trkpt>
      <trkpt lat="45.17376" lon="5.93485">
        <ele>1908.9</ele>
        <time>2021-02-20T09:19:30Z</time>
      </trkpt>
      <trkpt lat="45.17377" lon="5.93486">
        <ele>1909</ele>
        <time>2021-02-20T09:19:31Z</time>
      </trkpt>
      <trkpt lat="45.17377" lon="5.93488">
        <ele>1909.2</ele>
        <time>2021-02-20T09:19:32Z</time>
      </trkpt>
      <trkpt lat="45.17377" lon="5.93489">
        <ele>1909.4</ele>
        <time>2021-02-20T09:19:33Z</time>
      </trkpt>
      <trkpt lat="45.17377" lon="5.9349">
        <ele>1909.6</ele>
        <time>2021-02-20T09:19:34Z</time>
      </trkpt>
      <trkpt lat="45.17377" lon="5.93492">
        <ele>1909.7</ele>
        <time>2021-02-20T09:19:35Z</time>
      </trkpt>
      <trkpt lat="45.17377" lon="5.93493">
        <ele>1909.9</ele>
        <time>2021-02-20T09:19:36Z</time>
      </trkpt>
      <trkpt lat="45.17377" lon="5.93494">
        <ele>1910.1</ele>
        <time>2021-02-20T09:19:37Z</time>
      </trkpt>
      <trkpt lat="45.17377" lon="5.93495">
        <ele>1910.3</ele>
        <time>2021-02-20T09:19:38Z</time>
      </trkpt>
      <trkpt lat="45.17377" lon="5.93496">
        <ele>1910.4</ele>
        <time>2021-02-20T09:19:39Z</time>
      </trkpt>
      <trkpt lat="45.17377" lon="5.93496">
        <ele>1910.4</ele>
        <time>2021-02-20T09:19:40Z</time>
      </trkpt>
      <trkpt lat="45.17377" lon="5.93496">
        <ele>1910.4</ele>
        <time>2021-02-20T09:19:41Z</time>
      </trkpt>
      <trkpt lat="45.17377" lon="5.93496">
        <ele>1910.4</ele>
        <time>2021-02-20T09:19:42Z</time>
      </trkpt>
      <trkpt lat="45.17377" lon="5.93496">
        <ele>1910.5</ele>
        <time>2021-02-20T09:19:43Z</time>
      </trkpt>
      <trkpt lat="45.17377" lon="5.93495">
        <ele>1910.6</ele>
        <time>2021-02-20T09:19:44Z</time>
      </trkpt>
      <trkpt lat="45.17377" lon="5.93495">
        <ele>1910.7</ele>
        <time>2021-02-20T09:19:45Z</time>
      </trkpt>
      <trkpt lat="45.17377" lon="5.93495">
        <ele>1910.7</ele>
        <time>2021-02-20T09:19:46Z</time>
      </trkpt>
      <trkpt lat="45.17377" lon="5.93495">
        <ele>1910.7</ele>
        <time>2021-02-20T09:19:47Z</time>
      </trkpt>
      <trkpt lat="45.17377" lon="5.93495">
        <ele>1910.7</ele>
        <time>2021-02-20T09:19:48Z</time>
      </trkpt>
      <trkpt lat="45.17377" lon="5.93495">
        <ele>1910.7</ele>
        <time>2021-02-20T09:19:49Z</time>
      </trkpt>
      <trkpt lat="45.17377" lon="5.93495">
        <ele>1910.7</ele>
        <time>2021-02-20T09:19:50Z</time>
      </trkpt>
      <trkpt lat="45.17377" lon="5.93495">
        <ele>1910.7</ele>
        <time>2021-02-20T09:19:51Z</time>
      </trkpt>
      <trkpt lat="45.17377" lon="5.93495">
        <ele>1910.7</ele>
        <time>2021-02-20T09:19:52Z</time>
      </trkpt>
      <trkpt lat="45.17377" lon="5.93495">
        <ele>1910.7</ele>
        <time>2021-02-20T09:19:53Z</time>
      </trkpt>
      <trkpt lat="45.17376" lon="5.93494">
        <ele>1910.9</ele>
        <time>2021-02-20T09:19:54Z</time>
      </trkpt>
      <trkpt lat="45.17376" lon="5.93493">
        <ele>1910.9</ele>
        <time>2021-02-20T09:19:55Z</time>
      </trkpt>
      <trkpt lat="45.17376" lon="5.93493">
        <ele>1910.9</ele>
        <time>2021-02-20T09:19:56Z</time>
      </trkpt>
      <trkpt lat="45.17376" lon="5.93493">
        <ele>1910.9</ele>
        <time>2021-02-20T09:19:57Z</time>
      </trkpt>
      <trkpt lat="45.17376" lon="5.93493">
        <ele>1910.9</ele>
        <time>2021-02-20T09:19:58Z</time>
      </trkpt>
      <trkpt lat="45.17376" lon="5.93493">
        <ele>1910.9</ele>
        <time>2021-02-20T09:19:59Z</time>
      </trkpt>
      <trkpt lat="45.17376" lon="5.93493">
        <ele>1911.1</ele>
        <time>2021-02-20T09:20:00Z</time>
      </trkpt>
      <trkpt lat="45.17376" lon="5.93493">
        <ele>1911.1</ele>
        <time>2021-02-20T09:20:01Z</time>
      </trkpt>
      <trkpt lat="45.17376" lon="5.93493">
        <ele>1911.2</ele>
        <time>2021-02-20T09:20:02Z</time>
      </trkpt>
      <trkpt lat="45.17376" lon="5.93494">
        <ele>1911.3</ele>
        <time>2021-02-20T09:20:03Z</time>
      </trkpt>
      <trkpt lat="45.17376" lon="5.93495">
        <ele>1911.5</ele>
        <time>2021-02-20T09:20:04Z</time>
      </trkpt>
      <trkpt lat="45.17376" lon="5.93496">
        <ele>1911.7</ele>
        <time>2021-02-20T09:20:05Z</time>
      </trkpt>
      <trkpt lat="45.17376" lon="5.93498">
        <ele>1911.9</ele>
        <time>2021-02-20T09:20:06Z</time>
      </trkpt>
      <trkpt lat="45.17375" lon="5.93499">
        <ele>1912.2</ele>
        <time>2021-02-20T09:20:07Z</time>
      </trkpt>
      <trkpt lat="45.17375" lon="5.935">
        <ele>1912.3</ele>
        <time>2021-02-20T09:20:08Z</time>
      </trkpt>
      <trkpt lat="45.17375" lon="5.93501">
        <ele>1912.5</ele>
        <time>2021-02-20T09:20:09Z</time>
      </trkpt>
      <trkpt lat="45.17374" lon="5.93504">
        <ele>1912.9</ele>
        <time>2021-02-20T09:20:10Z</time>
      </trkpt>
      <trkpt lat="45.17374" lon="5.93505">
        <ele>1913</ele>
        <time>2021-02-20T09:20:11Z</time>
      </trkpt>
      <trkpt lat="45.17374" lon="5.93506">
        <ele>1913.2</ele>
        <time>2021-02-20T09:20:12Z</time>
      </trkpt>
      <trkpt lat="45.17374" lon="5.93507">
        <ele>1913.3</ele>
        <time>2021-02-20T09:20:13Z</time>
      </trkpt>
      <trkpt lat="45.17373" lon="5.93508">
        <ele>1913.6</ele>
        <time>2021-02-20T09:20:14Z</time>
      </trkpt>
      <trkpt lat="45.17373" lon="5.93509">
        <ele>1913.8</ele>
        <time>2021-02-20T09:20:15Z</time>
      </trkpt>
      <trkpt lat="45.17372" lon="5.93511">
        <ele>1914</ele>
        <time>2021-02-20T09:20:16Z</time>
      </trkpt>
      <trkpt lat="45.17372" lon="5.93514">
        <ele>1914.5</ele>
        <time>2021-02-20T09:20:17Z</time>
      </trkpt>
      <trkpt lat="45.17371" lon="5.93515">
        <ele>1914.6</ele>
        <time>2021-02-20T09:20:18Z</time>
      </trkpt>
      <trkpt lat="45.17371" lon="5.93516">
        <ele>1914.8</ele>
        <time>2021-02-20T09:20:19Z</time>
      </trkpt>
      <trkpt lat="45.17371" lon="5.93518">
        <ele>1915.1</ele>
        <time>2021-02-20T09:20:20Z</time>
      </trkpt>
      <trkpt lat="45.17371" lon="5.93519">
        <ele>1915.3</ele>
        <time>2021-02-20T09:20:21Z</time>
      </trkpt>
      <trkpt lat="45.17371" lon="5.93521">
        <ele>1915.5</ele>
        <time>2021-02-20T09:20:22Z</time>
      </trkpt>
      <trkpt lat="45.17371" lon="5.93521">
        <ele>1915.7</ele>
        <time>2021-02-20T09:20:23Z</time>
      </trkpt>
      <trkpt lat="45.17372" lon="5.93522">
        <ele>1915.9</ele>
        <time>2021-02-20T09:20:24Z</time>
      </trkpt>
      <trkpt lat="45.17372" lon="5.93523">
        <ele>1916</ele>
        <time>2021-02-20T09:20:25Z</time>
      </trkpt>
      <trkpt lat="45.17372" lon="5.93524">
        <ele>1916.1</ele>
        <time>2021-02-20T09:20:26Z</time>
      </trkpt>
      <trkpt lat="45.17372" lon="5.93524">
        <ele>1916.1</ele>
        <time>2021-02-20T09:20:27Z</time>
      </trkpt>
      <trkpt lat="45.17372" lon="5.93524">
        <ele>1916.2</ele>
        <time>2021-02-20T09:20:28Z</time>
      </trkpt>
      <trkpt lat="45.17372" lon="5.93524">
        <ele>1916.2</ele>
        <time>2021-02-20T09:20:29Z</time>
      </trkpt>
      <trkpt lat="45.17372" lon="5.93524">
        <ele>1916.2</ele>
        <time>2021-02-20T09:20:30Z</time>
      </trkpt>
      <trkpt lat="45.17372" lon="5.93524">
        <ele>1916.2</ele>
        <time>2021-02-20T09:20:31Z</time>
      </trkpt>
      <trkpt lat="45.17372" lon="5.93524">
        <ele>1916.2</ele>
        <time>2021-02-20T09:20:32Z</time>
      </trkpt>
      <trkpt lat="45.17372" lon="5.93524">
        <ele>1916.2</ele>
        <time>2021-02-20T09:20:33Z</time>
      </trkpt>
      <trkpt lat="45.17372" lon="5.93524">
        <ele>1916.2</ele>
        <time>2021-02-20T09:20:34Z</time>
      </trkpt>
      <trkpt lat="45.17372" lon="5.93524">
        <ele>1916.2</ele>
        <time>2021-02-20T09:20:35Z</time>
      </trkpt>
      <trkpt lat="45.17372" lon="5.93524">
        <ele>1916.3</ele>
        <time>2021-02-20T09:20:36Z</time>
      </trkpt>
      <trkpt lat="45.17372" lon="5.93524">
        <ele>1916.3</ele>
        <time>2021-02-20T09:20:37Z</time>
      </trkpt>
      <trkpt lat="45.17372" lon="5.93524">
        <ele>1916.3</ele>
        <time>2021-02-20T09:20:38Z</time>
      </trkpt>
      <trkpt lat="45.17372" lon="5.93524">
        <ele>1916.3</ele>
        <time>2021-02-20T09:20:39Z</time>
      </trkpt>
      <trkpt lat="45.17372" lon="5.93524">
        <ele>1916.3</ele>
        <time>2021-02-20T09:20:40Z</time>
      </trkpt>
      <trkpt lat="45.17371" lon="5.93525">
        <ele>1916.6</ele>
        <time>2021-02-20T09:20:41Z</time>
      </trkpt>
      <trkpt lat="45.17371" lon="5.93525">
        <ele>1916.6</ele>
        <time>2021-02-20T09:20:42Z</time>
      </trkpt>
      <trkpt lat="45.17371" lon="5.93526">
        <ele>1916.7</ele>
        <time>2021-02-20T09:20:43Z</time>
      </trkpt>
      <trkpt lat="45.17371" lon="5.93526">
        <ele>1916.7</ele>
        <time>2021-02-20T09:20:44Z</time>
      </trkpt>
      <trkpt lat="45.17371" lon="5.93527">
        <ele>1916.8</ele>
        <time>2021-02-20T09:20:45Z</time>
      </trkpt>
      <trkpt lat="45.17371" lon="5.93527">
        <ele>1916.9</ele>
        <time>2021-02-20T09:20:46Z</time>
      </trkpt>
      <trkpt lat="45.17371" lon="5.93527">
        <ele>1916.9</ele>
        <time>2021-02-20T09:20:47Z</time>
      </trkpt>
      <trkpt lat="45.1737" lon="5.93528">
        <ele>1917</ele>
        <time>2021-02-20T09:20:48Z</time>
      </trkpt>
      <trkpt lat="45.1737" lon="5.93529">
        <ele>1917.2</ele>
        <time>2021-02-20T09:20:49Z</time>
      </trkpt>
      <trkpt lat="45.1737" lon="5.9353">
        <ele>1917.3</ele>
        <time>2021-02-20T09:20:50Z</time>
      </trkpt>
      <trkpt lat="45.1737" lon="5.93531">
        <ele>1917.5</ele>
        <time>2021-02-20T09:20:51Z</time>
      </trkpt>
      <trkpt lat="45.1737" lon="5.93532">
        <ele>1917.6</ele>
        <time>2021-02-20T09:20:52Z</time>
      </trkpt>
      <trkpt lat="45.1737" lon="5.93532">
        <ele>1917.6</ele>
        <time>2021-02-20T09:20:53Z</time>
      </trkpt>
      <trkpt lat="45.1737" lon="5.93532">
        <ele>1917.6</ele>
        <time>2021-02-20T09:20:54Z</time>
      </trkpt>
      <trkpt lat="45.1737" lon="5.93532">
        <ele>1917.7</ele>
        <time>2021-02-20T09:20:55Z</time>
      </trkpt>
      <trkpt lat="45.1737" lon="5.93533">
        <ele>1917.8</ele>
        <time>2021-02-20T09:20:56Z</time>
      </trkpt>
      <trkpt lat="45.17369" lon="5.93534">
        <ele>1918</ele>
        <time>2021-02-20T09:20:57Z</time>
      </trkpt>
      <trkpt lat="45.17369" lon="5.93535">
        <ele>1918.1</ele>
        <time>2021-02-20T09:20:58Z</time>
      </trkpt>
      <trkpt lat="45.17369" lon="5.93536">
        <ele>1918.3</ele>
        <time>2021-02-20T09:20:59Z</time>
      </trkpt>
      <trkpt lat="45.17369" lon="5.93537">
        <ele>1918.4</ele>
        <time>2021-02-20T09:21:00Z</time>
      </trkpt>
      <trkpt lat="45.17368" lon="5.93538">
        <ele>1918.6</ele>
        <time>2021-02-20T09:21:01Z</time>
      </trkpt>
      <trkpt lat="45.17368" lon="5.9354">
        <ele>1918.8</ele>
        <time>2021-02-20T09:21:02Z</time>
      </trkpt>
      <trkpt lat="45.17367" lon="5.93541">
        <ele>1919</ele>
        <time>2021-02-20T09:21:03Z</time>
      </trkpt>
      <trkpt lat="45.17367" lon="5.93542">
        <ele>1919.1</ele>
        <time>2021-02-20T09:21:04Z</time>
      </trkpt>
      <trkpt lat="45.17367" lon="5.93542">
        <ele>1919.2</ele>
        <time>2021-02-20T09:21:05Z</time>
      </trkpt>
      <trkpt lat="45.17367" lon="5.93543">
        <ele>1919.3</ele>
        <time>2021-02-20T09:21:06Z</time>
      </trkpt>
      <trkpt lat="45.17367" lon="5.93544">
        <ele>1919.4</ele>
        <time>2021-02-20T09:21:07Z</time>
      </trkpt>
      <trkpt lat="45.17366" lon="5.93545">
        <ele>1919.6</ele>
        <time>2021-02-20T09:21:08Z</time>
      </trkpt>
      <trkpt lat="45.17366" lon="5.93547">
        <ele>1919.8</ele>
        <time>2021-02-20T09:21:09Z</time>
      </trkpt>
      <trkpt lat="45.17366" lon="5.93548">
        <ele>1920</ele>
        <time>2021-02-20T09:21:10Z</time>
      </trkpt>
      <trkpt lat="45.17367" lon="5.9355">
        <ele>1920.2</ele>
        <time>2021-02-20T09:21:11Z</time>
      </trkpt>
      <trkpt lat="45.17368" lon="5.93551">
        <ele>1920.4</ele>
        <time>2021-02-20T09:21:12Z</time>
      </trkpt>
      <trkpt lat="45.17368" lon="5.93552">
        <ele>1920.5</ele>
        <time>2021-02-20T09:21:13Z</time>
      </trkpt>
      <trkpt lat="45.17368" lon="5.93554">
        <ele>1920.7</ele>
        <time>2021-02-20T09:21:14Z</time>
      </trkpt>
      <trkpt lat="45.17369" lon="5.93555">
        <ele>1921</ele>
        <time>2021-02-20T09:21:15Z</time>
      </trkpt>
      <trkpt lat="45.17369" lon="5.93556">
        <ele>1921.1</ele>
        <time>2021-02-20T09:21:16Z</time>
      </trkpt>
      <trkpt lat="45.17368" lon="5.93557">
        <ele>1921.2</ele>
        <time>2021-02-20T09:21:17Z</time>
      </trkpt>
      <trkpt lat="45.17368" lon="5.93558">
        <ele>1921.3</ele>
        <time>2021-02-20T09:21:18Z</time>
      </trkpt>
      <trkpt lat="45.17367" lon="5.93559">
        <ele>1921.4</ele>
        <time>2021-02-20T09:21:19Z</time>
      </trkpt>
      <trkpt lat="45.17366" lon="5.9356">
        <ele>1921.5</ele>
        <time>2021-02-20T09:21:20Z</time>
      </trkpt>
      <trkpt lat="45.17366" lon="5.9356">
        <ele>1921.6</ele>
        <time>2021-02-20T09:21:21Z</time>
      </trkpt>
      <trkpt lat="45.17365" lon="5.93561">
        <ele>1921.7</ele>
        <time>2021-02-20T09:21:22Z</time>
      </trkpt>
      <trkpt lat="45.17364" lon="5.93562">
        <ele>1921.8</ele>
        <time>2021-02-20T09:21:23Z</time>
      </trkpt>
      <trkpt lat="45.17363" lon="5.93562">
        <ele>1922</ele>
        <time>2021-02-20T09:21:24Z</time>
      </trkpt>
      <trkpt lat="45.17363" lon="5.93563">
        <ele>1922.1</ele>
        <time>2021-02-20T09:21:25Z</time>
      </trkpt>
      <trkpt lat="45.17362" lon="5.93564">
        <ele>1922.2</ele>
        <time>2021-02-20T09:21:26Z</time>
      </trkpt>
      <trkpt lat="45.17361" lon="5.93565">
        <ele>1922.3</ele>
        <time>2021-02-20T09:21:27Z</time>
      </trkpt>
      <trkpt lat="45.17361" lon="5.93565">
        <ele>1922.4</ele>
        <time>2021-02-20T09:21:28Z</time>
      </trkpt>
      <trkpt lat="45.1736" lon="5.93565">
        <ele>1922.5</ele>
        <time>2021-02-20T09:21:29Z</time>
      </trkpt>
      <trkpt lat="45.17359" lon="5.93565">
        <ele>1922.6</ele>
        <time>2021-02-20T09:21:30Z</time>
      </trkpt>
      <trkpt lat="45.17359" lon="5.93565">
        <ele>1922.6</ele>
        <time>2021-02-20T09:21:31Z</time>
      </trkpt>
      <trkpt lat="45.17358" lon="5.93565">
        <ele>1922.8</ele>
        <time>2021-02-20T09:21:32Z</time>
      </trkpt>
      <trkpt lat="45.17357" lon="5.93565">
        <ele>1922.9</ele>
        <time>2021-02-20T09:21:33Z</time>
      </trkpt>
      <trkpt lat="45.17356" lon="5.93565">
        <ele>1923</ele>
        <time>2021-02-20T09:21:34Z</time>
      </trkpt>
      <trkpt lat="45.17356" lon="5.93565">
        <ele>1923</ele>
        <time>2021-02-20T09:21:35Z</time>
      </trkpt>
      <trkpt lat="45.17355" lon="5.93565">
        <ele>1923.1</ele>
        <time>2021-02-20T09:21:36Z</time>
      </trkpt>
      <trkpt lat="45.17354" lon="5.93564">
        <ele>1923.3</ele>
        <time>2021-02-20T09:21:37Z</time>
      </trkpt>
      <trkpt lat="45.17353" lon="5.93564">
        <ele>1923.4</ele>
        <time>2021-02-20T09:21:38Z</time>
      </trkpt>
      <trkpt lat="45.17353" lon="5.93563">
        <ele>1923.5</ele>
        <time>2021-02-20T09:21:39Z</time>
      </trkpt>
      <trkpt lat="45.17353" lon="5.93563">
        <ele>1923.6</ele>
        <time>2021-02-20T09:21:40Z</time>
      </trkpt>
      <trkpt lat="45.17352" lon="5.93562">
        <ele>1923.6</ele>
        <time>2021-02-20T09:21:41Z</time>
      </trkpt>
      <trkpt lat="45.17352" lon="5.93561">
        <ele>1923.8</ele>
        <time>2021-02-20T09:21:42Z</time>
      </trkpt>
      <trkpt lat="45.17351" lon="5.9356">
        <ele>1923.9</ele>
        <time>2021-02-20T09:21:43Z</time>
      </trkpt>
      <trkpt lat="45.17351" lon="5.93559">
        <ele>1924</ele>
        <time>2021-02-20T09:21:44Z</time>
      </trkpt>
      <trkpt lat="45.17351" lon="5.93558">
        <ele>1924.1</ele>
        <time>2021-02-20T09:21:45Z</time>
      </trkpt>
      <trkpt lat="45.1735" lon="5.93557">
        <ele>1924.3</ele>
        <time>2021-02-20T09:21:46Z</time>
      </trkpt>
      <trkpt lat="45.1735" lon="5.93556">
        <ele>1924.4</ele>
        <time>2021-02-20T09:21:47Z</time>
      </trkpt>
      <trkpt lat="45.17349" lon="5.93555">
        <ele>1924.6</ele>
        <time>2021-02-20T09:21:48Z</time>
      </trkpt>
      <trkpt lat="45.17349" lon="5.93554">
        <ele>1924.7</ele>
        <time>2021-02-20T09:21:49Z</time>
      </trkpt>
      <trkpt lat="45.17348" lon="5.93553">
        <ele>1924.9</ele>
        <time>2021-02-20T09:21:50Z</time>
      </trkpt>
      <trkpt lat="45.17348" lon="5.93552">
        <ele>1925</ele>
        <time>2021-02-20T09:21:51Z</time>
      </trkpt>
      <trkpt lat="45.17347" lon="5.93551">
        <ele>1925.2</ele>
        <time>2021-02-20T09:21:52Z</time>
      </trkpt>
      <trkpt lat="45.17346" lon="5.9355">
        <ele>1925.3</ele>
        <time>2021-02-20T09:21:53Z</time>
      </trkpt>
      <trkpt lat="45.17345" lon="5.93549">
        <ele>1925.4</ele>
        <time>2021-02-20T09:21:54Z</time>
      </trkpt>
      <trkpt lat="45.17345" lon="5.93549">
        <ele>1925.6</ele>
        <time>2021-02-20T09:21:55Z</time>
      </trkpt>
      <trkpt lat="45.17344" lon="5.93548">
        <ele>1925.7</ele>
        <time>2021-02-20T09:21:56Z</time>
      </trkpt>
      <trkpt lat="45.17344" lon="5.93547">
        <ele>1925.8</ele>
        <time>2021-02-20T09:21:57Z</time>
      </trkpt>
      <trkpt lat="45.17343" lon="5.93546">
        <ele>1926</ele>
        <time>2021-02-20T09:21:58Z</time>
      </trkpt>
      <trkpt lat="45.17342" lon="5.93545">
        <ele>1926.1</ele>
        <time>2021-02-20T09:21:59Z</time>
      </trkpt>
      <trkpt lat="45.17342" lon="5.93544">
        <ele>1926.2</ele>
        <time>2021-02-20T09:22:00Z</time>
      </trkpt>
      <trkpt lat="45.17341" lon="5.93544">
        <ele>1926.3</ele>
        <time>2021-02-20T09:22:01Z</time>
      </trkpt>
      <trkpt lat="45.17339" lon="5.93543">
        <ele>1926.6</ele>
        <time>2021-02-20T09:22:02Z</time>
      </trkpt>
      <trkpt lat="45.17339" lon="5.93542">
        <ele>1926.6</ele>
        <time>2021-02-20T09:22:03Z</time>
      </trkpt>
      <trkpt lat="45.17338" lon="5.93541">
        <ele>1926.7</ele>
        <time>2021-02-20T09:22:04Z</time>
      </trkpt>
      <trkpt lat="45.17338" lon="5.93541">
        <ele>1926.8</ele>
        <time>2021-02-20T09:22:05Z</time>
      </trkpt>
      <trkpt lat="45.17337" lon="5.9354">
        <ele>1926.9</ele>
        <time>2021-02-20T09:22:06Z</time>
      </trkpt>
      <trkpt lat="45.17336" lon="5.93539">
        <ele>1927</ele>
        <time>2021-02-20T09:22:07Z</time>
      </trkpt>
      <trkpt lat="45.17336" lon="5.93538">
        <ele>1927.1</ele>
        <time>2021-02-20T09:22:08Z</time>
      </trkpt>
      <trkpt lat="45.17335" lon="5.93538">
        <ele>1927.2</ele>
        <time>2021-02-20T09:22:09Z</time>
      </trkpt>
      <trkpt lat="45.17335" lon="5.93537">
        <ele>1927.3</ele>
        <time>2021-02-20T09:22:10Z</time>
      </trkpt>
      <trkpt lat="45.17334" lon="5.93537">
        <ele>1927.4</ele>
        <time>2021-02-20T09:22:11Z</time>
      </trkpt>
      <trkpt lat="45.17333" lon="5.93536">
        <ele>1927.4</ele>
        <time>2021-02-20T09:22:12Z</time>
      </trkpt>
      <trkpt lat="45.17332" lon="5.93536">
        <ele>1927.5</ele>
        <time>2021-02-20T09:22:13Z</time>
      </trkpt>
      <trkpt lat="45.17332" lon="5.93535">
        <ele>1927.6</ele>
        <time>2021-02-20T09:22:14Z</time>
      </trkpt>
      <trkpt lat="45.17331" lon="5.93534">
        <ele>1927.7</ele>
        <time>2021-02-20T09:22:15Z</time>
      </trkpt>
      <trkpt lat="45.1733" lon="5.93534">
        <ele>1927.8</ele>
        <time>2021-02-20T09:22:16Z</time>
      </trkpt>
      <trkpt lat="45.17329" lon="5.93533">
        <ele>1927.9</ele>
        <time>2021-02-20T09:22:17Z</time>
      </trkpt>
      <trkpt lat="45.17329" lon="5.93533">
        <ele>1927.9</ele>
        <time>2021-02-20T09:22:18Z</time>
      </trkpt>
      <trkpt lat="45.17328" lon="5.93532">
        <ele>1928</ele>
        <time>2021-02-20T09:22:19Z</time>
      </trkpt>
      <trkpt lat="45.17327" lon="5.93531">
        <ele>1928.1</ele>
        <time>2021-02-20T09:22:20Z</time>
      </trkpt>
      <trkpt lat="45.17326" lon="5.9353">
        <ele>1928.2</ele>
        <time>2021-02-20T09:22:21Z</time>
      </trkpt>
      <trkpt lat="45.17326" lon="5.9353">
        <ele>1928.3</ele>
        <time>2021-02-20T09:22:22Z</time>
      </trkpt>
      <trkpt lat="45.17325" lon="5.93529">
        <ele>1928.3</ele>
        <time>2021-02-20T09:22:23Z</time>
      </trkpt>
      <trkpt lat="45.17325" lon="5.93529">
        <ele>1928.4</ele>
        <time>2021-02-20T09:22:24Z</time>
      </trkpt>
      <trkpt lat="45.17324" lon="5.93528">
        <ele>1928.5</ele>
        <time>2021-02-20T09:22:25Z</time>
      </trkpt>
      <trkpt lat="45.17323" lon="5.93528">
        <ele>1928.5</ele>
        <time>2021-02-20T09:22:26Z</time>
      </trkpt>
      <trkpt lat="45.17323" lon="5.93527">
        <ele>1929.2</ele>
        <time>2021-02-20T09:22:27Z</time>
      </trkpt>
      <trkpt lat="45.17322" lon="5.93527">
        <ele>1929.2</ele>
        <time>2021-02-20T09:22:28Z</time>
      </trkpt>
      <trkpt lat="45.17322" lon="5.93527">
        <ele>1929.2</ele>
        <time>2021-02-20T09:22:29Z</time>
      </trkpt>
      <trkpt lat="45.17321" lon="5.93527">
        <ele>1929.1</ele>
        <time>2021-02-20T09:22:30Z</time>
      </trkpt>
      <trkpt lat="45.1732" lon="5.93527">
        <ele>1929.1</ele>
        <time>2021-02-20T09:22:31Z</time>
      </trkpt>
      <trkpt lat="45.1732" lon="5.93527">
        <ele>1929.8</ele>
        <time>2021-02-20T09:22:32Z</time>
      </trkpt>
      <trkpt lat="45.17319" lon="5.93527">
        <ele>1929.8</ele>
        <time>2021-02-20T09:22:33Z</time>
      </trkpt>
      <trkpt lat="45.17319" lon="5.93527">
        <ele>1929.7</ele>
        <time>2021-02-20T09:22:34Z</time>
      </trkpt>
      <trkpt lat="45.17317" lon="5.93526">
        <ele>1929.7</ele>
        <time>2021-02-20T09:22:35Z</time>
      </trkpt>
      <trkpt lat="45.17317" lon="5.93525">
        <ele>1930.5</ele>
        <time>2021-02-20T09:22:36Z</time>
      </trkpt>
      <trkpt lat="45.17316" lon="5.93525">
        <ele>1930.4</ele>
        <time>2021-02-20T09:22:37Z</time>
      </trkpt>
      <trkpt lat="45.17316" lon="5.93524">
        <ele>1930.4</ele>
        <time>2021-02-20T09:22:38Z</time>
      </trkpt>
      <trkpt lat="45.17315" lon="5.93524">
        <ele>1930.3</ele>
        <time>2021-02-20T09:22:39Z</time>
      </trkpt>
      <trkpt lat="45.17314" lon="5.93524">
        <ele>1929.4</ele>
        <time>2021-02-20T09:22:40Z</time>
      </trkpt>
      <trkpt lat="45.17314" lon="5.93523">
        <ele>1930.3</ele>
        <time>2021-02-20T09:22:41Z</time>
      </trkpt>
      <trkpt lat="45.17313" lon="5.93523">
        <ele>1930.2</ele>
        <time>2021-02-20T09:22:42Z</time>
      </trkpt>
      <trkpt lat="45.17312" lon="5.93523">
        <ele>1930.2</ele>
        <time>2021-02-20T09:22:43Z</time>
      </trkpt>
      <trkpt lat="45.17311" lon="5.93524">
        <ele>1931.1</ele>
        <time>2021-02-20T09:22:44Z</time>
      </trkpt>
      <trkpt lat="45.17311" lon="5.93524">
        <ele>1932.1</ele>
        <time>2021-02-20T09:22:45Z</time>
      </trkpt>
      <trkpt lat="45.17311" lon="5.93525">
        <ele>1932</ele>
        <time>2021-02-20T09:22:46Z</time>
      </trkpt>
      <trkpt lat="45.17311" lon="5.93526">
        <ele>1932</ele>
        <time>2021-02-20T09:22:47Z</time>
      </trkpt>
      <trkpt lat="45.1731" lon="5.93527">
        <ele>1932</ele>
        <time>2021-02-20T09:22:48Z</time>
      </trkpt>
      <trkpt lat="45.17311" lon="5.93528">
        <ele>1932.8</ele>
        <time>2021-02-20T09:22:49Z</time>
      </trkpt>
      <trkpt lat="45.17311" lon="5.9353">
        <ele>1932.8</ele>
        <time>2021-02-20T09:22:50Z</time>
      </trkpt>
      <trkpt lat="45.17311" lon="5.93531">
        <ele>1931.7</ele>
        <time>2021-02-20T09:22:51Z</time>
      </trkpt>
      <trkpt lat="45.17312" lon="5.93533">
        <ele>1932.7</ele>
        <time>2021-02-20T09:22:52Z</time>
      </trkpt>
      <trkpt lat="45.17312" lon="5.93534">
        <ele>1932.6</ele>
        <time>2021-02-20T09:22:53Z</time>
      </trkpt>
      <trkpt lat="45.17312" lon="5.93535">
        <ele>1932.6</ele>
        <time>2021-02-20T09:22:54Z</time>
      </trkpt>
      <trkpt lat="45.17313" lon="5.93537">
        <ele>1933.5</ele>
        <time>2021-02-20T09:22:55Z</time>
      </trkpt>
      <trkpt lat="45.17313" lon="5.93538">
        <ele>1933.5</ele>
        <time>2021-02-20T09:22:56Z</time>
      </trkpt>
      <trkpt lat="45.17313" lon="5.93539">
        <ele>1933.4</ele>
        <time>2021-02-20T09:22:57Z</time>
      </trkpt>
      <trkpt lat="45.17313" lon="5.93541">
        <ele>1934.4</ele>
        <time>2021-02-20T09:22:58Z</time>
      </trkpt>
      <trkpt lat="45.17312" lon="5.93542">
        <ele>1934.4</ele>
        <time>2021-02-20T09:22:59Z</time>
      </trkpt>
      <trkpt lat="45.17312" lon="5.93543">
        <ele>1934.3</ele>
        <time>2021-02-20T09:23:00Z</time>
      </trkpt>
      <trkpt lat="45.17312" lon="5.93543">
        <ele>1934.3</ele>
        <time>2021-02-20T09:23:01Z</time>
      </trkpt>
      <trkpt lat="45.17312" lon="5.93544">
        <ele>1934.3</ele>
        <time>2021-02-20T09:23:02Z</time>
      </trkpt>
      <trkpt lat="45.17311" lon="5.93544">
        <ele>1935.2</ele>
        <time>2021-02-20T09:23:03Z</time>
      </trkpt>
      <trkpt lat="45.17311" lon="5.93544">
        <ele>1935.1</ele>
        <time>2021-02-20T09:23:04Z</time>
      </trkpt>
      <trkpt lat="45.1731" lon="5.93544">
        <ele>1935.1</ele>
        <time>2021-02-20T09:23:05Z</time>
      </trkpt>
      <trkpt lat="45.1731" lon="5.93544">
        <ele>1935</ele>
        <time>2021-02-20T09:23:06Z</time>
      </trkpt>
      <trkpt lat="45.17309" lon="5.93544">
        <ele>1935</ele>
        <time>2021-02-20T09:23:07Z</time>
      </trkpt>
      <trkpt lat="45.17308" lon="5.93544">
        <ele>1935.9</ele>
        <time>2021-02-20T09:23:08Z</time>
      </trkpt>
      <trkpt lat="45.17307" lon="5.93544">
        <ele>1935.9</ele>
        <time>2021-02-20T09:23:09Z</time>
      </trkpt>
      <trkpt lat="45.17307" lon="5.93543">
        <ele>1935.9</ele>
        <time>2021-02-20T09:23:10Z</time>
      </trkpt>
      <trkpt lat="45.17306" lon="5.93543">
        <ele>1935.8</ele>
        <time>2021-02-20T09:23:11Z</time>
      </trkpt>
      <trkpt lat="45.17305" lon="5.93542">
        <ele>1935.8</ele>
        <time>2021-02-20T09:23:12Z</time>
      </trkpt>
      <trkpt lat="45.17305" lon="5.93542">
        <ele>1936.7</ele>
        <time>2021-02-20T09:23:13Z</time>
      </trkpt>
      <trkpt lat="45.17304" lon="5.93542">
        <ele>1936.7</ele>
        <time>2021-02-20T09:23:14Z</time>
      </trkpt>
      <trkpt lat="45.17303" lon="5.93541">
        <ele>1936.6</ele>
        <time>2021-02-20T09:23:15Z</time>
      </trkpt>
      <trkpt lat="45.17302" lon="5.93541">
        <ele>1937.6</ele>
        <time>2021-02-20T09:23:16Z</time>
      </trkpt>
      <trkpt lat="45.17301" lon="5.93541">
        <ele>1937.5</ele>
        <time>2021-02-20T09:23:17Z</time>
      </trkpt>
      <trkpt lat="45.173" lon="5.93541">
        <ele>1936.5</ele>
        <time>2021-02-20T09:23:18Z</time>
      </trkpt>
      <trkpt lat="45.17299" lon="5.9354">
        <ele>1937.4</ele>
        <time>2021-02-20T09:23:19Z</time>
      </trkpt>
      <trkpt lat="45.17298" lon="5.9354">
        <ele>1937.4</ele>
        <time>2021-02-20T09:23:20Z</time>
      </trkpt>
      <trkpt lat="45.17297" lon="5.9354">
        <ele>1937.3</ele>
        <time>2021-02-20T09:23:21Z</time>
      </trkpt>
      <trkpt lat="45.17296" lon="5.9354">
        <ele>1937.3</ele>
        <time>2021-02-20T09:23:22Z</time>
      </trkpt>
      <trkpt lat="45.17295" lon="5.93539">
        <ele>1938.2</ele>
        <time>2021-02-20T09:23:23Z</time>
      </trkpt>
      <trkpt lat="45.17294" lon="5.93539">
        <ele>1938.1</ele>
        <time>2021-02-20T09:23:24Z</time>
      </trkpt>
      <trkpt lat="45.17293" lon="5.93538">
        <ele>1939</ele>
        <time>2021-02-20T09:23:25Z</time>
      </trkpt>
      <trkpt lat="45.17292" lon="5.93538">
        <ele>1939</ele>
        <time>2021-02-20T09:23:26Z</time>
      </trkpt>
      <trkpt lat="45.17292" lon="5.93538">
        <ele>1939</ele>
        <time>2021-02-20T09:23:27Z</time>
      </trkpt>
      <trkpt lat="45.17291" lon="5.93538">
        <ele>1938.9</ele>
        <time>2021-02-20T09:23:28Z</time>
      </trkpt>
      <trkpt lat="45.1729" lon="5.93538">
        <ele>1939.8</ele>
        <time>2021-02-20T09:23:29Z</time>
      </trkpt>
      <trkpt lat="45.17289" lon="5.93538">
        <ele>1939.8</ele>
        <time>2021-02-20T09:23:30Z</time>
      </trkpt>
      <trkpt lat="45.17288" lon="5.93538">
        <ele>1939.8</ele>
        <time>2021-02-20T09:23:31Z</time>
      </trkpt>
      <trkpt lat="45.17287" lon="5.93538">
        <ele>1939.7</ele>
        <time>2021-02-20T09:23:32Z</time>
      </trkpt>
      <trkpt lat="45.17287" lon="5.93538">
        <ele>1940.7</ele>
        <time>2021-02-20T09:23:33Z</time>
      </trkpt>
      <trkpt lat="45.17286" lon="5.93538">
        <ele>1940.6</ele>
        <time>2021-02-20T09:23:34Z</time>
      </trkpt>
      <trkpt lat="45.17285" lon="5.93539">
        <ele>1940.6</ele>
        <time>2021-02-20T09:23:35Z</time>
      </trkpt>
      <trkpt lat="45.17285" lon="5.93539">
        <ele>1940.6</ele>
        <time>2021-02-20T09:23:36Z</time>
      </trkpt>
      <trkpt lat="45.17284" lon="5.9354">
        <ele>1940.5</ele>
        <time>2021-02-20T09:23:37Z</time>
      </trkpt>
      <trkpt lat="45.17284" lon="5.93541">
        <ele>1942.6</ele>
        <time>2021-02-20T09:23:38Z</time>
      </trkpt>
      <trkpt lat="45.17284" lon="5.93542">
        <ele>1942.6</ele>
        <time>2021-02-20T09:23:39Z</time>
      </trkpt>
      <trkpt lat="45.17283" lon="5.93543">
        <ele>1942.5</ele>
        <time>2021-02-20T09:23:40Z</time>
      </trkpt>
      <trkpt lat="45.17283" lon="5.93544">
        <ele>1942.5</ele>
        <time>2021-02-20T09:23:41Z</time>
      </trkpt>
      <trkpt lat="45.17282" lon="5.93545">
        <ele>1943.7</ele>
        <time>2021-02-20T09:23:42Z</time>
      </trkpt>
      <trkpt lat="45.17282" lon="5.93546">
        <ele>1943.6</ele>
        <time>2021-02-20T09:23:43Z</time>
      </trkpt>
      <trkpt lat="45.17282" lon="5.93547">
        <ele>1943.6</ele>
        <time>2021-02-20T09:23:44Z</time>
      </trkpt>
      <trkpt lat="45.17282" lon="5.93549">
        <ele>1943.6</ele>
        <time>2021-02-20T09:23:45Z</time>
      </trkpt>
      <trkpt lat="45.17282" lon="5.9355">
        <ele>1944.8</ele>
        <time>2021-02-20T09:23:46Z</time>
      </trkpt>
      <trkpt lat="45.17282" lon="5.93551">
        <ele>1944.8</ele>
        <time>2021-02-20T09:23:47Z</time>
      </trkpt>
      <trkpt lat="45.17282" lon="5.93552">
        <ele>1944.7</ele>
        <time>2021-02-20T09:23:48Z</time>
      </trkpt>
      <trkpt lat="45.17282" lon="5.93553">
        <ele>1944.7</ele>
        <time>2021-02-20T09:23:49Z</time>
      </trkpt>
      <trkpt lat="45.17282" lon="5.93554">
        <ele>1946</ele>
        <time>2021-02-20T09:23:50Z</time>
      </trkpt>
      <trkpt lat="45.17282" lon="5.93556">
        <ele>1945.9</ele>
        <time>2021-02-20T09:23:51Z</time>
      </trkpt>
      <trkpt lat="45.17282" lon="5.93557">
        <ele>1945.9</ele>
        <time>2021-02-20T09:23:52Z</time>
      </trkpt>
      <trkpt lat="45.17282" lon="5.93559">
        <ele>1947.1</ele>
        <time>2021-02-20T09:23:53Z</time>
      </trkpt>
      <trkpt lat="45.17282" lon="5.9356">
        <ele>1947.1</ele>
        <time>2021-02-20T09:23:54Z</time>
      </trkpt>
      <trkpt lat="45.17283" lon="5.93561">
        <ele>1947.1</ele>
        <time>2021-02-20T09:23:55Z</time>
      </trkpt>
      <trkpt lat="45.17283" lon="5.93563">
        <ele>1948.2</ele>
        <time>2021-02-20T09:23:56Z</time>
      </trkpt>
      <trkpt lat="45.17284" lon="5.93564">
        <ele>1948.2</ele>
        <time>2021-02-20T09:23:57Z</time>
      </trkpt>
      <trkpt lat="45.17284" lon="5.93565">
        <ele>1946.9</ele>
        <time>2021-02-20T09:23:58Z</time>
      </trkpt>
      <trkpt lat="45.17285" lon="5.93566">
        <ele>1946.9</ele>
        <time>2021-02-20T09:23:59Z</time>
      </trkpt>
      <trkpt lat="45.17286" lon="5.93567">
        <ele>1948</ele>
        <time>2021-02-20T09:24:00Z</time>
      </trkpt>
      <trkpt lat="45.17286" lon="5.93569">
        <ele>1947.9</ele>
        <time>2021-02-20T09:24:01Z</time>
      </trkpt>
      <trkpt lat="45.17287" lon="5.9357">
        <ele>1947.9</ele>
        <time>2021-02-20T09:24:02Z</time>
      </trkpt>
      <trkpt lat="45.17288" lon="5.93571">
        <ele>1947.7</ele>
        <time>2021-02-20T09:24:03Z</time>
      </trkpt>
      <trkpt lat="45.17288" lon="5.93572">
        <ele>1947.7</ele>
        <time>2021-02-20T09:24:04Z</time>
      </trkpt>
      <trkpt lat="45.17289" lon="5.93573">
        <ele>1947.6</ele>
        <time>2021-02-20T09:24:05Z</time>
      </trkpt>
      <trkpt lat="45.17289" lon="5.93574">
        <ele>1947.6</ele>
        <time>2021-02-20T09:24:06Z</time>
      </trkpt>
      <trkpt lat="45.1729" lon="5.93575">
        <ele>1947.6</ele>
        <time>2021-02-20T09:24:07Z</time>
      </trkpt>
      <trkpt lat="45.17291" lon="5.93576">
        <ele>1947.5</ele>
        <time>2021-02-20T09:24:08Z</time>
      </trkpt>
      <trkpt lat="45.17292" lon="5.93577">
        <ele>1947.5</ele>
        <time>2021-02-20T09:24:09Z</time>
      </trkpt>
      <trkpt lat="45.17292" lon="5.93577">
        <ele>1947.4</ele>
        <time>2021-02-20T09:24:10Z</time>
      </trkpt>
      <trkpt lat="45.17293" lon="5.93578">
        <ele>1947.4</ele>
        <time>2021-02-20T09:24:11Z</time>
      </trkpt>
      <trkpt lat="45.17294" lon="5.93579">
        <ele>1946.2</ele>
        <time>2021-02-20T09:24:12Z</time>
      </trkpt>
      <trkpt lat="45.17294" lon="5.93579">
        <ele>1946.2</ele>
        <time>2021-02-20T09:24:13Z</time>
      </trkpt>
      <trkpt lat="45.17295" lon="5.9358">
        <ele>1947.4</ele>
        <time>2021-02-20T09:24:14Z</time>
      </trkpt>
      <trkpt lat="45.17295" lon="5.93581">
        <ele>1947.3</ele>
        <time>2021-02-20T09:24:15Z</time>
      </trkpt>
      <trkpt lat="45.17295" lon="5.93582">
        <ele>1947.3</ele>
        <time>2021-02-20T09:24:16Z</time>
      </trkpt>
      <trkpt lat="45.17296" lon="5.93584">
        <ele>1948.5</ele>
        <time>2021-02-20T09:24:17Z</time>
      </trkpt>
      <trkpt lat="45.17296" lon="5.93585">
        <ele>1948.5</ele>
        <time>2021-02-20T09:24:18Z</time>
      </trkpt>
      <trkpt lat="45.17296" lon="5.93586">
        <ele>1948.4</ele>
        <time>2021-02-20T09:24:19Z</time>
      </trkpt>
      <trkpt lat="45.17296" lon="5.93588">
        <ele>1948.7</ele>
        <time>2021-02-20T09:24:20Z</time>
      </trkpt>
      <trkpt lat="45.17297" lon="5.93589">
        <ele>1948.7</ele>
        <time>2021-02-20T09:24:21Z</time>
      </trkpt>
      <trkpt lat="45.17297" lon="5.9359">
        <ele>1948.6</ele>
        <time>2021-02-20T09:24:22Z</time>
      </trkpt>
      <trkpt lat="45.17297" lon="5.93591">
        <ele>1948.6</ele>
        <time>2021-02-20T09:24:23Z</time>
      </trkpt>
      <trkpt lat="45.17298" lon="5.93592">
        <ele>1948.5</ele>
        <time>2021-02-20T09:24:24Z</time>
      </trkpt>
      <trkpt lat="45.17298" lon="5.93592">
        <ele>1949.8</ele>
        <time>2021-02-20T09:24:25Z</time>
      </trkpt>
      <trkpt lat="45.17298" lon="5.93593">
        <ele>1949.8</ele>
        <time>2021-02-20T09:24:26Z</time>
      </trkpt>
      <trkpt lat="45.17298" lon="5.93594">
        <ele>1949.8</ele>
        <time>2021-02-20T09:24:27Z</time>
      </trkpt>
      <trkpt lat="45.17298" lon="5.93595">
        <ele>1949.7</ele>
        <time>2021-02-20T09:24:28Z</time>
      </trkpt>
      <trkpt lat="45.17298" lon="5.93596">
        <ele>1949.7</ele>
        <time>2021-02-20T09:24:29Z</time>
      </trkpt>
      <trkpt lat="45.17298" lon="5.93596">
        <ele>1949.6</ele>
        <time>2021-02-20T09:24:30Z</time>
      </trkpt>
      <trkpt lat="45.17297" lon="5.93597">
        <ele>1950.9</ele>
        <time>2021-02-20T09:24:31Z</time>
      </trkpt>
      <trkpt lat="45.17298" lon="5.93597">
        <ele>1950.9</ele>
        <time>2021-02-20T09:24:32Z</time>
      </trkpt>
      <trkpt lat="45.17298" lon="5.93598">
        <ele>1950.8</ele>
        <time>2021-02-20T09:24:33Z</time>
      </trkpt>
      <trkpt lat="45.17298" lon="5.93599">
        <ele>1950.8</ele>
        <time>2021-02-20T09:24:34Z</time>
      </trkpt>
      <trkpt lat="45.17297" lon="5.93599">
        <ele>1950.8</ele>
        <time>2021-02-20T09:24:35Z</time>
      </trkpt>
      <trkpt lat="45.17297" lon="5.93599">
        <ele>1950.7</ele>
        <time>2021-02-20T09:24:36Z</time>
      </trkpt>
      <trkpt lat="45.17296" lon="5.93599">
        <ele>1950.7</ele>
        <time>2021-02-20T09:24:37Z</time>
      </trkpt>
      <trkpt lat="45.17296" lon="5.93599">
        <ele>1951.6</ele>
        <time>2021-02-20T09:24:38Z</time>
      </trkpt>
      <trkpt lat="45.17294" lon="5.93599">
        <ele>1951.6</ele>
        <time>2021-02-20T09:24:39Z</time>
      </trkpt>
      <trkpt lat="45.17293" lon="5.93599">
        <ele>1951.5</ele>
        <time>2021-02-20T09:24:40Z</time>
      </trkpt>
      <trkpt lat="45.17292" lon="5.93599">
        <ele>1952.5</ele>
        <time>2021-02-20T09:24:41Z</time>
      </trkpt>
      <trkpt lat="45.17292" lon="5.93599">
        <ele>1952.4</ele>
        <time>2021-02-20T09:24:42Z</time>
      </trkpt>
      <trkpt lat="45.17291" lon="5.93599">
        <ele>1952.4</ele>
        <time>2021-02-20T09:24:43Z</time>
      </trkpt>
      <trkpt lat="45.1729" lon="5.93599">
        <ele>1953.3</ele>
        <time>2021-02-20T09:24:44Z</time>
      </trkpt>
      <trkpt lat="45.17289" lon="5.936">
        <ele>1953.3</ele>
        <time>2021-02-20T09:24:45Z</time>
      </trkpt>
      <trkpt lat="45.17289" lon="5.936">
        <ele>1953.3</ele>
        <time>2021-02-20T09:24:46Z</time>
      </trkpt>
      <trkpt lat="45.17288" lon="5.936">
        <ele>1953.2</ele>
        <time>2021-02-20T09:24:47Z</time>
      </trkpt>
      <trkpt lat="45.17287" lon="5.93601">
        <ele>1954.5</ele>
        <time>2021-02-20T09:24:48Z</time>
      </trkpt>
      <trkpt lat="45.17286" lon="5.93602">
        <ele>1955.4</ele>
        <time>2021-02-20T09:24:49Z</time>
      </trkpt>
      <trkpt lat="45.17286" lon="5.93602">
        <ele>1955.4</ele>
        <time>2021-02-20T09:24:50Z</time>
      </trkpt>
      <trkpt lat="45.17285" lon="5.93602">
        <ele>1955.4</ele>
        <time>2021-02-20T09:24:51Z</time>
      </trkpt>
      <trkpt lat="45.17284" lon="5.93603">
        <ele>1955.3</ele>
        <time>2021-02-20T09:24:52Z</time>
      </trkpt>
      <trkpt lat="45.17284" lon="5.93603">
        <ele>1956.3</ele>
        <time>2021-02-20T09:24:53Z</time>
      </trkpt>
      <trkpt lat="45.17283" lon="5.93603">
        <ele>1956.2</ele>
        <time>2021-02-20T09:24:54Z</time>
      </trkpt>
      <trkpt lat="45.17282" lon="5.93603">
        <ele>1956.2</ele>
        <time>2021-02-20T09:24:55Z</time>
      </trkpt>
      <trkpt lat="45.17282" lon="5.93603">
        <ele>1956.2</ele>
        <time>2021-02-20T09:24:56Z</time>
      </trkpt>
      <trkpt lat="45.17281" lon="5.93604">
        <ele>1956.1</ele>
        <time>2021-02-20T09:24:57Z</time>
      </trkpt>
      <trkpt lat="45.17281" lon="5.93605">
        <ele>1957</ele>
        <time>2021-02-20T09:24:58Z</time>
      </trkpt>
      <trkpt lat="45.17281" lon="5.93606">
        <ele>1958.2</ele>
        <time>2021-02-20T09:24:59Z</time>
      </trkpt>
      <trkpt lat="45.17281" lon="5.93607">
        <ele>1957.3</ele>
        <time>2021-02-20T09:25:00Z</time>
      </trkpt>
      <trkpt lat="45.17281" lon="5.93609">
        <ele>1957.2</ele>
        <time>2021-02-20T09:25:01Z</time>
      </trkpt>
      <trkpt lat="45.17282" lon="5.9361">
        <ele>1958.5</ele>
        <time>2021-02-20T09:25:02Z</time>
      </trkpt>
      <trkpt lat="45.17282" lon="5.93611">
        <ele>1958.4</ele>
        <time>2021-02-20T09:25:03Z</time>
      </trkpt>
      <trkpt lat="45.17283" lon="5.93612">
        <ele>1958.4</ele>
        <time>2021-02-20T09:25:04Z</time>
      </trkpt>
      <trkpt lat="45.17284" lon="5.93613">
        <ele>1958.3</ele>
        <time>2021-02-20T09:25:05Z</time>
      </trkpt>
      <trkpt lat="45.17284" lon="5.93614">
        <ele>1958.6</ele>
        <time>2021-02-20T09:25:06Z</time>
      </trkpt>
      <trkpt lat="45.17285" lon="5.93615">
        <ele>1958.5</ele>
        <time>2021-02-20T09:25:07Z</time>
      </trkpt>
      <trkpt lat="45.17285" lon="5.93616">
        <ele>1958.5</ele>
        <time>2021-02-20T09:25:08Z</time>
      </trkpt>
      <trkpt lat="45.17285" lon="5.93617">
        <ele>1958.4</ele>
        <time>2021-02-20T09:25:09Z</time>
      </trkpt>
      <trkpt lat="45.17285" lon="5.93618">
        <ele>1959.6</ele>
        <time>2021-02-20T09:25:10Z</time>
      </trkpt>
      <trkpt lat="45.17285" lon="5.93619">
        <ele>1959.6</ele>
        <time>2021-02-20T09:25:11Z</time>
      </trkpt>
      <trkpt lat="45.17285" lon="5.93621">
        <ele>1959.6</ele>
        <time>2021-02-20T09:25:12Z</time>
      </trkpt>
      <trkpt lat="45.17285" lon="5.93622">
        <ele>1959.5</ele>
        <time>2021-02-20T09:25:13Z</time>
      </trkpt>
      <trkpt lat="45.17285" lon="5.93623">
        <ele>1960.8</ele>
        <time>2021-02-20T09:25:14Z</time>
      </trkpt>
      <trkpt lat="45.17285" lon="5.93624">
        <ele>1960.7</ele>
        <time>2021-02-20T09:25:15Z</time>
      </trkpt>
      <trkpt lat="45.17285" lon="5.93625">
        <ele>1960.7</ele>
        <time>2021-02-20T09:25:16Z</time>
      </trkpt>
      <trkpt lat="45.17285" lon="5.93626">
        <ele>1960.6</ele>
        <time>2021-02-20T09:25:17Z</time>
      </trkpt>
      <trkpt lat="45.17284" lon="5.93628">
        <ele>1962</ele>
        <time>2021-02-20T09:25:18Z</time>
      </trkpt>
      <trkpt lat="45.17284" lon="5.93629">
        <ele>1961.9</ele>
        <time>2021-02-20T09:25:19Z</time>
      </trkpt>
      <trkpt lat="45.17284" lon="5.9363">
        <ele>1962.8</ele>
        <time>2021-02-20T09:25:20Z</time>
      </trkpt>
      <trkpt lat="45.17283" lon="5.9363">
        <ele>1962.7</ele>
        <time>2021-02-20T09:25:21Z</time>
      </trkpt>
      <trkpt lat="45.17282" lon="5.93631">
        <ele>1964.1</ele>
        <time>2021-02-20T09:25:22Z</time>
      </trkpt>
      <trkpt lat="45.17281" lon="5.93631">
        <ele>1964.8</ele>
        <time>2021-02-20T09:25:23Z</time>
      </trkpt>
      <trkpt lat="45.1728" lon="5.93632">
        <ele>1964.8</ele>
        <time>2021-02-20T09:25:24Z</time>
      </trkpt>
      <trkpt lat="45.17279" lon="5.93632">
        <ele>1964.7</ele>
        <time>2021-02-20T09:25:25Z</time>
      </trkpt>
      <trkpt lat="45.17278" lon="5.93632">
        <ele>1965.3</ele>
        <time>2021-02-20T09:25:26Z</time>
      </trkpt>
      <trkpt lat="45.17277" lon="5.93632">
        <ele>1965.2</ele>
        <time>2021-02-20T09:25:27Z</time>
      </trkpt>
      <trkpt lat="45.17276" lon="5.93632">
        <ele>1965.2</ele>
        <time>2021-02-20T09:25:28Z</time>
      </trkpt>
      <trkpt lat="45.17275" lon="5.93633">
        <ele>1965.2</ele>
        <time>2021-02-20T09:25:29Z</time>
      </trkpt>
      <trkpt lat="45.17274" lon="5.93633">
        <ele>1965.5</ele>
        <time>2021-02-20T09:25:30Z</time>
      </trkpt>
      <trkpt lat="45.17273" lon="5.93634">
        <ele>1965.5</ele>
        <time>2021-02-20T09:25:31Z</time>
      </trkpt>
      <trkpt lat="45.17272" lon="5.93634">
        <ele>1965.5</ele>
        <time>2021-02-20T09:25:32Z</time>
      </trkpt>
      <trkpt lat="45.17272" lon="5.93635">
        <ele>1965.6</ele>
        <time>2021-02-20T09:25:33Z</time>
      </trkpt>
      <trkpt lat="45.17271" lon="5.93635">
        <ele>1967</ele>
        <time>2021-02-20T09:25:34Z</time>
      </trkpt>
      <trkpt lat="45.1727" lon="5.93636">
        <ele>1966.9</ele>
        <time>2021-02-20T09:25:35Z</time>
      </trkpt>
      <trkpt lat="45.17269" lon="5.93636">
        <ele>1966.9</ele>
        <time>2021-02-20T09:25:36Z</time>
      </trkpt>
      <trkpt lat="45.17268" lon="5.93636">
        <ele>1966.9</ele>
        <time>2021-02-20T09:25:37Z</time>
      </trkpt>
      <trkpt lat="45.17267" lon="5.93636">
        <ele>1966.9</ele>
        <time>2021-02-20T09:25:38Z</time>
      </trkpt>
      <trkpt lat="45.17266" lon="5.93637">
        <ele>1966.8</ele>
        <time>2021-02-20T09:25:39Z</time>
      </trkpt>
      <trkpt lat="45.17265" lon="5.93637">
        <ele>1966.7</ele>
        <time>2021-02-20T09:25:40Z</time>
      </trkpt>
      <trkpt lat="45.17264" lon="5.93637">
        <ele>1966.6</ele>
        <time>2021-02-20T09:25:41Z</time>
      </trkpt>
      <trkpt lat="45.17263" lon="5.93638">
        <ele>1966.6</ele>
        <time>2021-02-20T09:25:42Z</time>
      </trkpt>
      <trkpt lat="45.17262" lon="5.93638">
        <ele>1966.2</ele>
        <time>2021-02-20T09:25:43Z</time>
      </trkpt>
      <trkpt lat="45.17262" lon="5.93639">
        <ele>1966.2</ele>
        <time>2021-02-20T09:25:44Z</time>
      </trkpt>
      <trkpt lat="45.17261" lon="5.93639">
        <ele>1966.1</ele>
        <time>2021-02-20T09:25:45Z</time>
      </trkpt>
      <trkpt lat="45.1726" lon="5.9364">
        <ele>1967.9</ele>
        <time>2021-02-20T09:25:46Z</time>
      </trkpt>
      <trkpt lat="45.17259" lon="5.9364">
        <ele>1967.6</ele>
        <time>2021-02-20T09:25:47Z</time>
      </trkpt>
      <trkpt lat="45.17258" lon="5.93641">
        <ele>1967.6</ele>
        <time>2021-02-20T09:25:48Z</time>
      </trkpt>
      <trkpt lat="45.17257" lon="5.93641">
        <ele>1967.5</ele>
        <time>2021-02-20T09:25:49Z</time>
      </trkpt>
      <trkpt lat="45.17256" lon="5.93642">
        <ele>1967.1</ele>
        <time>2021-02-20T09:25:50Z</time>
      </trkpt>
      <trkpt lat="45.17255" lon="5.93642">
        <ele>1967.1</ele>
        <time>2021-02-20T09:25:51Z</time>
      </trkpt>
      <trkpt lat="45.17255" lon="5.93643">
        <ele>1967.1</ele>
        <time>2021-02-20T09:25:52Z</time>
      </trkpt>
      <trkpt lat="45.17254" lon="5.93643">
        <ele>1966.6</ele>
        <time>2021-02-20T09:25:53Z</time>
      </trkpt>
      <trkpt lat="45.17253" lon="5.93643">
        <ele>1966.6</ele>
        <time>2021-02-20T09:25:54Z</time>
      </trkpt>
      <trkpt lat="45.17252" lon="5.93643">
        <ele>1966.6</ele>
        <time>2021-02-20T09:25:55Z</time>
      </trkpt>
      <trkpt lat="45.17251" lon="5.93644">
        <ele>1966.5</ele>
        <time>2021-02-20T09:25:56Z</time>
      </trkpt>
      <trkpt lat="45.1725" lon="5.93644">
        <ele>1968.8</ele>
        <time>2021-02-20T09:25:57Z</time>
      </trkpt>
      <trkpt lat="45.17249" lon="5.93644">
        <ele>1968.8</ele>
        <time>2021-02-20T09:25:58Z</time>
      </trkpt>
      <trkpt lat="45.17248" lon="5.93644">
        <ele>1968.8</ele>
        <time>2021-02-20T09:25:59Z</time>
      </trkpt>
      <trkpt lat="45.17247" lon="5.93644">
        <ele>1968.6</ele>
        <time>2021-02-20T09:26:00Z</time>
      </trkpt>
      <trkpt lat="45.17247" lon="5.93644">
        <ele>1968.5</ele>
        <time>2021-02-20T09:26:01Z</time>
      </trkpt>
      <trkpt lat="45.17246" lon="5.93645">
        <ele>1968.5</ele>
        <time>2021-02-20T09:26:02Z</time>
      </trkpt>
      <trkpt lat="45.17245" lon="5.93645">
        <ele>1968.5</ele>
        <time>2021-02-20T09:26:03Z</time>
      </trkpt>
      <trkpt lat="45.17244" lon="5.93645">
        <ele>1968.3</ele>
        <time>2021-02-20T09:26:04Z</time>
      </trkpt>
      <trkpt lat="45.17244" lon="5.93645">
        <ele>1968.3</ele>
        <time>2021-02-20T09:26:05Z</time>
      </trkpt>
      <trkpt lat="45.17243" lon="5.93645">
        <ele>1968.2</ele>
        <time>2021-02-20T09:26:06Z</time>
      </trkpt>
      <trkpt lat="45.17242" lon="5.93646">
        <ele>1968.2</ele>
        <time>2021-02-20T09:26:07Z</time>
      </trkpt>
      <trkpt lat="45.17241" lon="5.93646">
        <ele>1968.1</ele>
        <time>2021-02-20T09:26:08Z</time>
      </trkpt>
      <trkpt lat="45.1724" lon="5.93646">
        <ele>1968</ele>
        <time>2021-02-20T09:26:09Z</time>
      </trkpt>
      <trkpt lat="45.17239" lon="5.93647">
        <ele>1968</ele>
        <time>2021-02-20T09:26:10Z</time>
      </trkpt>
      <trkpt lat="45.17238" lon="5.93647">
        <ele>1967.9</ele>
        <time>2021-02-20T09:26:11Z</time>
      </trkpt>
      <trkpt lat="45.17238" lon="5.93647">
        <ele>1967.8</ele>
        <time>2021-02-20T09:26:12Z</time>
      </trkpt>
      <trkpt lat="45.17237" lon="5.93649">
        <ele>1971.1</ele>
        <time>2021-02-20T09:26:13Z</time>
      </trkpt>
      <trkpt lat="45.17236" lon="5.9365">
        <ele>1971.1</ele>
        <time>2021-02-20T09:26:14Z</time>
      </trkpt>
      <trkpt lat="45.17235" lon="5.9365">
        <ele>1971.2</ele>
        <time>2021-02-20T09:26:15Z</time>
      </trkpt>
      <trkpt lat="45.17235" lon="5.93651">
        <ele>1971.1</ele>
        <time>2021-02-20T09:26:16Z</time>
      </trkpt>
      <trkpt lat="45.17234" lon="5.93652">
        <ele>1971.1</ele>
        <time>2021-02-20T09:26:17Z</time>
      </trkpt>
      <trkpt lat="45.17233" lon="5.93653">
        <ele>1973.9</ele>
        <time>2021-02-20T09:26:18Z</time>
      </trkpt>
      <trkpt lat="45.17232" lon="5.93653">
        <ele>1974</ele>
        <time>2021-02-20T09:26:19Z</time>
      </trkpt>
      <trkpt lat="45.17231" lon="5.93654">
        <ele>1974</ele>
        <time>2021-02-20T09:26:20Z</time>
      </trkpt>
      <trkpt lat="45.1723" lon="5.93655">
        <ele>1974</ele>
        <time>2021-02-20T09:26:21Z</time>
      </trkpt>
      <trkpt lat="45.17229" lon="5.93655">
        <ele>1974.1</ele>
        <time>2021-02-20T09:26:22Z</time>
      </trkpt>
      <trkpt lat="45.17228" lon="5.93655">
        <ele>1974.1</ele>
        <time>2021-02-20T09:26:23Z</time>
      </trkpt>
      <trkpt lat="45.17228" lon="5.93656">
        <ele>1974</ele>
        <time>2021-02-20T09:26:24Z</time>
      </trkpt>
      <trkpt lat="45.17227" lon="5.93656">
        <ele>1974.2</ele>
        <time>2021-02-20T09:26:25Z</time>
      </trkpt>
      <trkpt lat="45.17225" lon="5.93656">
        <ele>1974.2</ele>
        <time>2021-02-20T09:26:26Z</time>
      </trkpt>
      <trkpt lat="45.17224" lon="5.93657">
        <ele>1976.4</ele>
        <time>2021-02-20T09:26:27Z</time>
      </trkpt>
      <trkpt lat="45.17224" lon="5.93657">
        <ele>1976.5</ele>
        <time>2021-02-20T09:26:28Z</time>
      </trkpt>
      <trkpt lat="45.17223" lon="5.93658">
        <ele>1976.5</ele>
        <time>2021-02-20T09:26:29Z</time>
      </trkpt>
      <trkpt lat="45.17222" lon="5.93658">
        <ele>1976.4</ele>
        <time>2021-02-20T09:26:30Z</time>
      </trkpt>
      <trkpt lat="45.17221" lon="5.93659">
        <ele>1976.4</ele>
        <time>2021-02-20T09:26:31Z</time>
      </trkpt>
      <trkpt lat="45.1722" lon="5.93659">
        <ele>1976.5</ele>
        <time>2021-02-20T09:26:32Z</time>
      </trkpt>
      <trkpt lat="45.17219" lon="5.93659">
        <ele>1976.4</ele>
        <time>2021-02-20T09:26:33Z</time>
      </trkpt>
      <trkpt lat="45.17218" lon="5.9366">
        <ele>1976.4</ele>
        <time>2021-02-20T09:26:34Z</time>
      </trkpt>
      <trkpt lat="45.17217" lon="5.9366">
        <ele>1976.5</ele>
        <time>2021-02-20T09:26:35Z</time>
      </trkpt>
      <trkpt lat="45.17216" lon="5.9366">
        <ele>1976.4</ele>
        <time>2021-02-20T09:26:36Z</time>
      </trkpt>
      <trkpt lat="45.17215" lon="5.93661">
        <ele>1976.4</ele>
        <time>2021-02-20T09:26:37Z</time>
      </trkpt>
      <trkpt lat="45.17215" lon="5.93662">
        <ele>1978</ele>
        <time>2021-02-20T09:26:38Z</time>
      </trkpt>
      <trkpt lat="45.17214" lon="5.93663">
        <ele>1978</ele>
        <time>2021-02-20T09:26:39Z</time>
      </trkpt>
      <trkpt lat="45.17213" lon="5.93663">
        <ele>1977.9</ele>
        <time>2021-02-20T09:26:40Z</time>
      </trkpt>
      <trkpt lat="45.17212" lon="5.93663">
        <ele>1977.9</ele>
        <time>2021-02-20T09:26:41Z</time>
      </trkpt>
      <trkpt lat="45.17212" lon="5.93664">
        <ele>1977.9</ele>
        <time>2021-02-20T09:26:42Z</time>
      </trkpt>
      <trkpt lat="45.17211" lon="5.93664">
        <ele>1977.9</ele>
        <time>2021-02-20T09:26:43Z</time>
      </trkpt>
      <trkpt lat="45.1721" lon="5.93664">
        <ele>1977.8</ele>
        <time>2021-02-20T09:26:44Z</time>
      </trkpt>
      <trkpt lat="45.17209" lon="5.93665">
        <ele>1977.8</ele>
        <time>2021-02-20T09:26:45Z</time>
      </trkpt>
      <trkpt lat="45.17208" lon="5.93665">
        <ele>1977.7</ele>
        <time>2021-02-20T09:26:46Z</time>
      </trkpt>
      <trkpt lat="45.17207" lon="5.93665">
        <ele>1978.8</ele>
        <time>2021-02-20T09:26:47Z</time>
      </trkpt>
      <trkpt lat="45.17205" lon="5.93666">
        <ele>1978.7</ele>
        <time>2021-02-20T09:26:48Z</time>
      </trkpt>
      <trkpt lat="45.17205" lon="5.93666">
        <ele>1978.7</ele>
        <time>2021-02-20T09:26:49Z</time>
      </trkpt>
      <trkpt lat="45.17203" lon="5.93667">
        <ele>1978.6</ele>
        <time>2021-02-20T09:26:50Z</time>
      </trkpt>
      <trkpt lat="45.17203" lon="5.93667">
        <ele>1978.6</ele>
        <time>2021-02-20T09:26:51Z</time>
      </trkpt>
      <trkpt lat="45.17202" lon="5.93668">
        <ele>1978.5</ele>
        <time>2021-02-20T09:26:52Z</time>
      </trkpt>
      <trkpt lat="45.17201" lon="5.93668">
        <ele>1978.4</ele>
        <time>2021-02-20T09:26:53Z</time>
      </trkpt>
      <trkpt lat="45.172" lon="5.93668">
        <ele>1978.4</ele>
        <time>2021-02-20T09:26:54Z</time>
      </trkpt>
      <trkpt lat="45.17199" lon="5.93669">
        <ele>1978.2</ele>
        <time>2021-02-20T09:26:55Z</time>
      </trkpt>
      <trkpt lat="45.17198" lon="5.93669">
        <ele>1978.2</ele>
        <time>2021-02-20T09:26:56Z</time>
      </trkpt>
      <trkpt lat="45.17197" lon="5.9367">
        <ele>1978.8</ele>
        <time>2021-02-20T09:26:57Z</time>
      </trkpt>
      <trkpt lat="45.17196" lon="5.9367">
        <ele>1978.6</ele>
        <time>2021-02-20T09:26:58Z</time>
      </trkpt>
      <trkpt lat="45.17195" lon="5.93671">
        <ele>1978.6</ele>
        <time>2021-02-20T09:26:59Z</time>
      </trkpt>
      <trkpt lat="45.17194" lon="5.93671">
        <ele>1978.5</ele>
        <time>2021-02-20T09:27:00Z</time>
      </trkpt>
      <trkpt lat="45.17193" lon="5.93672">
        <ele>1978.5</ele>
        <time>2021-02-20T09:27:01Z</time>
      </trkpt>
      <trkpt lat="45.17193" lon="5.93672">
        <ele>1978.2</ele>
        <time>2021-02-20T09:27:02Z</time>
      </trkpt>
      <trkpt lat="45.17192" lon="5.93672">
        <ele>1978.2</ele>
        <time>2021-02-20T09:27:03Z</time>
      </trkpt>
      <trkpt lat="45.17191" lon="5.93673">
        <ele>1978.1</ele>
        <time>2021-02-20T09:27:04Z</time>
      </trkpt>
      <trkpt lat="45.1719" lon="5.93674">
        <ele>1978.1</ele>
        <time>2021-02-20T09:27:05Z</time>
      </trkpt>
      <trkpt lat="45.1719" lon="5.93674">
        <ele>1978.3</ele>
        <time>2021-02-20T09:27:06Z</time>
      </trkpt>
      <trkpt lat="45.17189" lon="5.93674">
        <ele>1978.2</ele>
        <time>2021-02-20T09:27:07Z</time>
      </trkpt>
      <trkpt lat="45.17188" lon="5.93674">
        <ele>1978.2</ele>
        <time>2021-02-20T09:27:08Z</time>
      </trkpt>
      <trkpt lat="45.17187" lon="5.93674">
        <ele>1978.1</ele>
        <time>2021-02-20T09:27:09Z</time>
      </trkpt>
      <trkpt lat="45.17187" lon="5.93674">
        <ele>1977.8</ele>
        <time>2021-02-20T09:27:10Z</time>
      </trkpt>
      <trkpt lat="45.17186" lon="5.93675">
        <ele>1977.7</ele>
        <time>2021-02-20T09:27:11Z</time>
      </trkpt>
      <trkpt lat="45.17185" lon="5.93675">
        <ele>1977.7</ele>
        <time>2021-02-20T09:27:12Z</time>
      </trkpt>
      <trkpt lat="45.17184" lon="5.93675">
        <ele>1977.3</ele>
        <time>2021-02-20T09:27:13Z</time>
      </trkpt>
      <trkpt lat="45.17183" lon="5.93675">
        <ele>1977.3</ele>
        <time>2021-02-20T09:27:14Z</time>
      </trkpt>
      <trkpt lat="45.17182" lon="5.93675">
        <ele>1977.2</ele>
        <time>2021-02-20T09:27:15Z</time>
      </trkpt>
      <trkpt lat="45.17181" lon="5.93676">
        <ele>1976.8</ele>
        <time>2021-02-20T09:27:16Z</time>
      </trkpt>
      <trkpt lat="45.1718" lon="5.93676">
        <ele>1976.8</ele>
        <time>2021-02-20T09:27:17Z</time>
      </trkpt>
      <trkpt lat="45.17179" lon="5.93676">
        <ele>1976.7</ele>
        <time>2021-02-20T09:27:18Z</time>
      </trkpt>
      <trkpt lat="45.17178" lon="5.93677">
        <ele>1976.3</ele>
        <time>2021-02-20T09:27:19Z</time>
      </trkpt>
      <trkpt lat="45.17177" lon="5.93677">
        <ele>1976.3</ele>
        <time>2021-02-20T09:27:20Z</time>
      </trkpt>
      <trkpt lat="45.17176" lon="5.93678">
        <ele>1977</ele>
        <time>2021-02-20T09:27:21Z</time>
      </trkpt>
      <trkpt lat="45.17175" lon="5.93678">
        <ele>1976.6</ele>
        <time>2021-02-20T09:27:22Z</time>
      </trkpt>
      <trkpt lat="45.17174" lon="5.93679">
        <ele>1976.6</ele>
        <time>2021-02-20T09:27:23Z</time>
      </trkpt>
      <trkpt lat="45.17174" lon="5.93679">
        <ele>1976.5</ele>
        <time>2021-02-20T09:27:24Z</time>
      </trkpt>
      <trkpt lat="45.17173" lon="5.93679">
        <ele>1976.5</ele>
        <time>2021-02-20T09:27:25Z</time>
      </trkpt>
      <trkpt lat="45.17172" lon="5.9368">
        <ele>1976</ele>
        <time>2021-02-20T09:27:26Z</time>
      </trkpt>
      <trkpt lat="45.17171" lon="5.9368">
        <ele>1976</ele>
        <time>2021-02-20T09:27:27Z</time>
      </trkpt>
      <trkpt lat="45.1717" lon="5.93681">
        <ele>1976</ele>
        <time>2021-02-20T09:27:28Z</time>
      </trkpt>
      <trkpt lat="45.17169" lon="5.93681">
        <ele>1975.9</ele>
        <time>2021-02-20T09:27:29Z</time>
      </trkpt>
      <trkpt lat="45.17169" lon="5.93682">
        <ele>1975.5</ele>
        <time>2021-02-20T09:27:30Z</time>
      </trkpt>
      <trkpt lat="45.17168" lon="5.93682">
        <ele>1975.4</ele>
        <time>2021-02-20T09:27:31Z</time>
      </trkpt>
      <trkpt lat="45.17167" lon="5.93683">
        <ele>1976.6</ele>
        <time>2021-02-20T09:27:32Z</time>
      </trkpt>
      <trkpt lat="45.17167" lon="5.93683">
        <ele>1976.6</ele>
        <time>2021-02-20T09:27:33Z</time>
      </trkpt>
      <trkpt lat="45.17166" lon="5.93684">
        <ele>1976.1</ele>
        <time>2021-02-20T09:27:34Z</time>
      </trkpt>
      <trkpt lat="45.17165" lon="5.93684">
        <ele>1976.1</ele>
        <time>2021-02-20T09:27:35Z</time>
      </trkpt>
      <trkpt lat="45.17164" lon="5.93684">
        <ele>1976.1</ele>
        <time>2021-02-20T09:27:36Z</time>
      </trkpt>
      <trkpt lat="45.17163" lon="5.93685">
        <ele>1976</ele>
        <time>2021-02-20T09:27:37Z</time>
      </trkpt>
      <trkpt lat="45.17162" lon="5.93685">
        <ele>1975.6</ele>
        <time>2021-02-20T09:27:38Z</time>
      </trkpt>
      <trkpt lat="45.17161" lon="5.93686">
        <ele>1975.5</ele>
        <time>2021-02-20T09:27:39Z</time>
      </trkpt>
      <trkpt lat="45.1716" lon="5.93686">
        <ele>1975.5</ele>
        <time>2021-02-20T09:27:40Z</time>
      </trkpt>
      <trkpt lat="45.17159" lon="5.93686">
        <ele>1975.1</ele>
        <time>2021-02-20T09:27:41Z</time>
      </trkpt>
      <trkpt lat="45.17159" lon="5.93687">
        <ele>1976.5</ele>
        <time>2021-02-20T09:27:42Z</time>
      </trkpt>
      <trkpt lat="45.17158" lon="5.93687">
        <ele>1976.5</ele>
        <time>2021-02-20T09:27:43Z</time>
      </trkpt>
      <trkpt lat="45.17157" lon="5.93687">
        <ele>1976.5</ele>
        <time>2021-02-20T09:27:44Z</time>
      </trkpt>
      <trkpt lat="45.17156" lon="5.93687">
        <ele>1976.1</ele>
        <time>2021-02-20T09:27:45Z</time>
      </trkpt>
      <trkpt lat="45.17156" lon="5.93687">
        <ele>1976</ele>
        <time>2021-02-20T09:27:46Z</time>
      </trkpt>
      <trkpt lat="45.17154" lon="5.93687">
        <ele>1976</ele>
        <time>2021-02-20T09:27:47Z</time>
      </trkpt>
      <trkpt lat="45.17153" lon="5.93687">
        <ele>1975.6</ele>
        <time>2021-02-20T09:27:48Z</time>
      </trkpt>
      <trkpt lat="45.17153" lon="5.93687">
        <ele>1975.6</ele>
        <time>2021-02-20T09:27:49Z</time>
      </trkpt>
      <trkpt lat="45.17152" lon="5.93687">
        <ele>1975.5</ele>
        <time>2021-02-20T09:27:50Z</time>
      </trkpt>
      <trkpt lat="45.17151" lon="5.93687">
        <ele>1975.5</ele>
        <time>2021-02-20T09:27:51Z</time>
      </trkpt>
      <trkpt lat="45.1715" lon="5.93687">
        <ele>1975.1</ele>
        <time>2021-02-20T09:27:52Z</time>
      </trkpt>
      <trkpt lat="45.17149" lon="5.93688">
        <ele>1975</ele>
        <time>2021-02-20T09:27:53Z</time>
      </trkpt>
      <trkpt lat="45.17149" lon="5.93688">
        <ele>1975</ele>
        <time>2021-02-20T09:27:54Z</time>
      </trkpt>
      <trkpt lat="45.17148" lon="5.93689">
        <ele>1974.6</ele>
        <time>2021-02-20T09:27:55Z</time>
      </trkpt>
      <trkpt lat="45.17147" lon="5.93689">
        <ele>1974.5</ele>
        <time>2021-02-20T09:27:56Z</time>
      </trkpt>
      <trkpt lat="45.17146" lon="5.93689">
        <ele>1974.5</ele>
        <time>2021-02-20T09:27:57Z</time>
      </trkpt>
      <trkpt lat="45.17145" lon="5.93689">
        <ele>1974</ele>
        <time>2021-02-20T09:27:58Z</time>
      </trkpt>
      <trkpt lat="45.17144" lon="5.93689">
        <ele>1973.9</ele>
        <time>2021-02-20T09:27:59Z</time>
      </trkpt>
      <trkpt lat="45.17143" lon="5.93689">
        <ele>1973.9</ele>
        <time>2021-02-20T09:28:00Z</time>
      </trkpt>
      <trkpt lat="45.17142" lon="5.93689">
        <ele>1973.9</ele>
        <time>2021-02-20T09:28:01Z</time>
      </trkpt>
      <trkpt lat="45.17141" lon="5.93689">
        <ele>1973.3</ele>
        <time>2021-02-20T09:28:02Z</time>
      </trkpt>
      <trkpt lat="45.1714" lon="5.93689">
        <ele>1973.3</ele>
        <time>2021-02-20T09:28:03Z</time>
      </trkpt>
      <trkpt lat="45.17139" lon="5.93689">
        <ele>1973.2</ele>
        <time>2021-02-20T09:28:04Z</time>
      </trkpt>
      <trkpt lat="45.17137" lon="5.93688">
        <ele>1972.6</ele>
        <time>2021-02-20T09:28:05Z</time>
      </trkpt>
      <trkpt lat="45.17136" lon="5.93688">
        <ele>1972.6</ele>
        <time>2021-02-20T09:28:06Z</time>
      </trkpt>
      <trkpt lat="45.17135" lon="5.93688">
        <ele>1972</ele>
        <time>2021-02-20T09:28:07Z</time>
      </trkpt>
      <trkpt lat="45.17133" lon="5.93688">
        <ele>1972</ele>
        <time>2021-02-20T09:28:08Z</time>
      </trkpt>
      <trkpt lat="45.17132" lon="5.93688">
        <ele>1971.5</ele>
        <time>2021-02-20T09:28:09Z</time>
      </trkpt>
      <trkpt lat="45.17131" lon="5.93688">
        <ele>1971.5</ele>
        <time>2021-02-20T09:28:10Z</time>
      </trkpt>
      <trkpt lat="45.1713" lon="5.93689">
        <ele>1971.1</ele>
        <time>2021-02-20T09:28:11Z</time>
      </trkpt>
      <trkpt lat="45.17128" lon="5.93689">
        <ele>1971</ele>
        <time>2021-02-20T09:28:12Z</time>
      </trkpt>
      <trkpt lat="45.17125" lon="5.9369">
        <ele>1970.7</ele>
        <time>2021-02-20T09:28:13Z</time>
      </trkpt>
      <trkpt lat="45.17123" lon="5.9369">
        <ele>1970.3</ele>
        <time>2021-02-20T09:28:14Z</time>
      </trkpt>
      <trkpt lat="45.1712" lon="5.93691">
        <ele>1969.9</ele>
        <time>2021-02-20T09:28:15Z</time>
      </trkpt>
      <trkpt lat="45.17116" lon="5.93692">
        <ele>1970.9</ele>
        <time>2021-02-20T09:28:16Z</time>
      </trkpt>
      <trkpt lat="45.17115" lon="5.93692">
        <ele>1970.9</ele>
        <time>2021-02-20T09:28:17Z</time>
      </trkpt>
      <trkpt lat="45.17114" lon="5.93693">
        <ele>1970.3</ele>
        <time>2021-02-20T09:28:18Z</time>
      </trkpt>
      <trkpt lat="45.17113" lon="5.93693">
        <ele>1970.2</ele>
        <time>2021-02-20T09:28:19Z</time>
      </trkpt>
      <trkpt lat="45.17111" lon="5.93694">
        <ele>1969.6</ele>
        <time>2021-02-20T09:28:20Z</time>
      </trkpt>
      <trkpt lat="45.1711" lon="5.93695">
        <ele>1969.5</ele>
        <time>2021-02-20T09:28:21Z</time>
      </trkpt>
      <trkpt lat="45.17109" lon="5.93695">
        <ele>1969.5</ele>
        <time>2021-02-20T09:28:22Z</time>
      </trkpt>
      <trkpt lat="45.17108" lon="5.93696">
        <ele>1970.3</ele>
        <time>2021-02-20T09:28:23Z</time>
      </trkpt>
      <trkpt lat="45.17106" lon="5.93696">
        <ele>1970.2</ele>
        <time>2021-02-20T09:28:24Z</time>
      </trkpt>
      <trkpt lat="45.17105" lon="5.93697">
        <ele>1969.5</ele>
        <time>2021-02-20T09:28:25Z</time>
      </trkpt>
      <trkpt lat="45.17104" lon="5.93698">
        <ele>1969.5</ele>
        <time>2021-02-20T09:28:26Z</time>
      </trkpt>
      <trkpt lat="45.17103" lon="5.93698">
        <ele>1969.4</ele>
        <time>2021-02-20T09:28:27Z</time>
      </trkpt>
      <trkpt lat="45.17102" lon="5.93699">
        <ele>1968.7</ele>
        <time>2021-02-20T09:28:28Z</time>
      </trkpt>
      <trkpt lat="45.17101" lon="5.93699">
        <ele>1968.7</ele>
        <time>2021-02-20T09:28:29Z</time>
      </trkpt>
      <trkpt lat="45.17101" lon="5.93699">
        <ele>1968.6</ele>
        <time>2021-02-20T09:28:30Z</time>
      </trkpt>
      <trkpt lat="45.171" lon="5.937">
        <ele>1970.3</ele>
        <time>2021-02-20T09:28:31Z</time>
      </trkpt>
      <trkpt lat="45.17099" lon="5.937">
        <ele>1969.6</ele>
        <time>2021-02-20T09:28:32Z</time>
      </trkpt>
      <trkpt lat="45.17098" lon="5.937">
        <ele>1969.6</ele>
        <time>2021-02-20T09:28:33Z</time>
      </trkpt>
      <trkpt lat="45.17097" lon="5.93701">
        <ele>1969.6</ele>
        <time>2021-02-20T09:28:34Z</time>
      </trkpt>
      <trkpt lat="45.17096" lon="5.93701">
        <ele>1969</ele>
        <time>2021-02-20T09:28:35Z</time>
      </trkpt>
      <trkpt lat="45.17095" lon="5.93702">
        <ele>1968.9</ele>
        <time>2021-02-20T09:28:36Z</time>
      </trkpt>
      <trkpt lat="45.17095" lon="5.93703">
        <ele>1968.9</ele>
        <time>2021-02-20T09:28:37Z</time>
      </trkpt>
      <trkpt lat="45.17094" lon="5.93703">
        <ele>1968.8</ele>
        <time>2021-02-20T09:28:38Z</time>
      </trkpt>
      <trkpt lat="45.17094" lon="5.93704">
        <ele>1970.8</ele>
        <time>2021-02-20T09:28:39Z</time>
      </trkpt>
      <trkpt lat="45.17093" lon="5.93704">
        <ele>1970.4</ele>
        <time>2021-02-20T09:28:40Z</time>
      </trkpt>
      <trkpt lat="45.17092" lon="5.93705">
        <ele>1970.3</ele>
        <time>2021-02-20T09:28:41Z</time>
      </trkpt>
      <trkpt lat="45.17091" lon="5.93705">
        <ele>1970.3</ele>
        <time>2021-02-20T09:28:42Z</time>
      </trkpt>
      <trkpt lat="45.1709" lon="5.93705">
        <ele>1969.8</ele>
        <time>2021-02-20T09:28:43Z</time>
      </trkpt>
      <trkpt lat="45.1709" lon="5.93706">
        <ele>1969.8</ele>
        <time>2021-02-20T09:28:44Z</time>
      </trkpt>
      <trkpt lat="45.17089" lon="5.93707">
        <ele>1969.8</ele>
        <time>2021-02-20T09:28:45Z</time>
      </trkpt>
      <trkpt lat="45.17088" lon="5.93708">
        <ele>1969.9</ele>
        <time>2021-02-20T09:28:46Z</time>
      </trkpt>
      <trkpt lat="45.17088" lon="5.93709">
        <ele>1970</ele>
        <time>2021-02-20T09:28:47Z</time>
      </trkpt>
      <trkpt lat="45.17087" lon="5.93709">
        <ele>1970</ele>
        <time>2021-02-20T09:28:48Z</time>
      </trkpt>
      <trkpt lat="45.17086" lon="5.9371">
        <ele>1970.1</ele>
        <time>2021-02-20T09:28:49Z</time>
      </trkpt>
      <trkpt lat="45.17086" lon="5.9371">
        <ele>1970.1</ele>
        <time>2021-02-20T09:28:50Z</time>
      </trkpt>
      <trkpt lat="45.17086" lon="5.93711">
        <ele>1970.2</ele>
        <time>2021-02-20T09:28:51Z</time>
      </trkpt>
      <trkpt lat="45.17085" lon="5.93711">
        <ele>1970.3</ele>
        <time>2021-02-20T09:28:52Z</time>
      </trkpt>
      <trkpt lat="45.17084" lon="5.93712">
        <ele>1970.5</ele>
        <time>2021-02-20T09:28:53Z</time>
      </trkpt>
      <trkpt lat="45.17083" lon="5.93714">
        <ele>1970.7</ele>
        <time>2021-02-20T09:28:54Z</time>
      </trkpt>
      <trkpt lat="45.17082" lon="5.93715">
        <ele>1970.8</ele>
        <time>2021-02-20T09:28:55Z</time>
      </trkpt>
      <trkpt lat="45.17082" lon="5.93715">
        <ele>1970.9</ele>
        <time>2021-02-20T09:28:56Z</time>
      </trkpt>
      <trkpt lat="45.17082" lon="5.93715">
        <ele>1970.9</ele>
        <time>2021-02-20T09:28:57Z</time>
      </trkpt>
      <trkpt lat="45.17081" lon="5.93716">
        <ele>1971.1</ele>
        <time>2021-02-20T09:28:58Z</time>
      </trkpt>
      <trkpt lat="45.1708" lon="5.93717">
        <ele>1971.2</ele>
        <time>2021-02-20T09:28:59Z</time>
      </trkpt>
      <trkpt lat="45.1708" lon="5.93717">
        <ele>1971.3</ele>
        <time>2021-02-20T09:29:00Z</time>
      </trkpt>
      <trkpt lat="45.17079" lon="5.93718">
        <ele>1971.5</ele>
        <time>2021-02-20T09:29:01Z</time>
      </trkpt>
      <trkpt lat="45.17078" lon="5.93719">
        <ele>1971.7</ele>
        <time>2021-02-20T09:29:02Z</time>
      </trkpt>
      <trkpt lat="45.17077" lon="5.9372">
        <ele>1972</ele>
        <time>2021-02-20T09:29:03Z</time>
      </trkpt>
      <trkpt lat="45.17076" lon="5.93722">
        <ele>1972.3</ele>
        <time>2021-02-20T09:29:04Z</time>
      </trkpt>
      <trkpt lat="45.17075" lon="5.93723">
        <ele>1972.5</ele>
        <time>2021-02-20T09:29:05Z</time>
      </trkpt>
      <trkpt lat="45.17074" lon="5.93724">
        <ele>1972.7</ele>
        <time>2021-02-20T09:29:06Z</time>
      </trkpt>
      <trkpt lat="45.17073" lon="5.93725">
        <ele>1972.9</ele>
        <time>2021-02-20T09:29:07Z</time>
      </trkpt>
      <trkpt lat="45.17072" lon="5.93727">
        <ele>1973.1</ele>
        <time>2021-02-20T09:29:08Z</time>
      </trkpt>
      <trkpt lat="45.1707" lon="5.93729">
        <ele>1973.4</ele>
        <time>2021-02-20T09:29:09Z</time>
      </trkpt>
      <trkpt lat="45.1707" lon="5.93729">
        <ele>1973.5</ele>
        <time>2021-02-20T09:29:10Z</time>
      </trkpt>
      <trkpt lat="45.17069" lon="5.9373">
        <ele>1973.6</ele>
        <time>2021-02-20T09:29:11Z</time>
      </trkpt>
      <trkpt lat="45.17068" lon="5.93731">
        <ele>1973.8</ele>
        <time>2021-02-20T09:29:12Z</time>
      </trkpt>
      <trkpt lat="45.17067" lon="5.93731">
        <ele>1973.9</ele>
        <time>2021-02-20T09:29:13Z</time>
      </trkpt>
      <trkpt lat="45.17066" lon="5.93732">
        <ele>1974.1</ele>
        <time>2021-02-20T09:29:14Z</time>
      </trkpt>
      <trkpt lat="45.17065" lon="5.93734">
        <ele>1974.3</ele>
        <time>2021-02-20T09:29:15Z</time>
      </trkpt>
      <trkpt lat="45.17064" lon="5.93736">
        <ele>1974.4</ele>
        <time>2021-02-20T09:29:16Z</time>
      </trkpt>
      <trkpt lat="45.17064" lon="5.93737">
        <ele>1974.5</ele>
        <time>2021-02-20T09:29:17Z</time>
      </trkpt>
      <trkpt lat="45.17063" lon="5.93738">
        <ele>1974.6</ele>
        <time>2021-02-20T09:29:18Z</time>
      </trkpt>
      <trkpt lat="45.17061" lon="5.93739">
        <ele>1974.7</ele>
        <time>2021-02-20T09:29:19Z</time>
      </trkpt>
      <trkpt lat="45.1706" lon="5.93738">
        <ele>1974.9</ele>
        <time>2021-02-20T09:29:20Z</time>
      </trkpt>
      <trkpt lat="45.17058" lon="5.93738">
        <ele>1975</ele>
        <time>2021-02-20T09:29:21Z</time>
      </trkpt>
      <trkpt lat="45.17057" lon="5.93738">
        <ele>1975.1</ele>
        <time>2021-02-20T09:29:22Z</time>
      </trkpt>
      <trkpt lat="45.17056" lon="5.93737">
        <ele>1975.2</ele>
        <time>2021-02-20T09:29:23Z</time>
      </trkpt>
      <trkpt lat="45.17055" lon="5.93737">
        <ele>1975.3</ele>
        <time>2021-02-20T09:29:24Z</time>
      </trkpt>
      <trkpt lat="45.17054" lon="5.93737">
        <ele>1975.4</ele>
        <time>2021-02-20T09:29:25Z</time>
      </trkpt>
      <trkpt lat="45.17053" lon="5.93736">
        <ele>1975.5</ele>
        <time>2021-02-20T09:29:26Z</time>
      </trkpt>
      <trkpt lat="45.17052" lon="5.93735">
        <ele>1975.6</ele>
        <time>2021-02-20T09:29:27Z</time>
      </trkpt>
      <trkpt lat="45.1705" lon="5.93734">
        <ele>1975.7</ele>
        <time>2021-02-20T09:29:28Z</time>
      </trkpt>
      <trkpt lat="45.17049" lon="5.93733">
        <ele>1975.8</ele>
        <time>2021-02-20T09:29:29Z</time>
      </trkpt>
      <trkpt lat="45.17049" lon="5.93733">
        <ele>1975.9</ele>
        <time>2021-02-20T09:29:30Z</time>
      </trkpt>
      <trkpt lat="45.17048" lon="5.93732">
        <ele>1976</ele>
        <time>2021-02-20T09:29:31Z</time>
      </trkpt>
      <trkpt lat="45.17047" lon="5.93731">
        <ele>1976.1</ele>
        <time>2021-02-20T09:29:32Z</time>
      </trkpt>
      <trkpt lat="45.17046" lon="5.9373">
        <ele>1976.2</ele>
        <time>2021-02-20T09:29:33Z</time>
      </trkpt>
      <trkpt lat="45.17045" lon="5.93729">
        <ele>1976.3</ele>
        <time>2021-02-20T09:29:34Z</time>
      </trkpt>
      <trkpt lat="45.17044" lon="5.93729">
        <ele>1976.4</ele>
        <time>2021-02-20T09:29:35Z</time>
      </trkpt>
      <trkpt lat="45.17043" lon="5.93729">
        <ele>1976.5</ele>
        <time>2021-02-20T09:29:36Z</time>
      </trkpt>
      <trkpt lat="45.17042" lon="5.93728">
        <ele>1976.6</ele>
        <time>2021-02-20T09:29:37Z</time>
      </trkpt>
      <trkpt lat="45.17042" lon="5.93728">
        <ele>1976.6</ele>
        <time>2021-02-20T09:29:38Z</time>
      </trkpt>
      <trkpt lat="45.17041" lon="5.93728">
        <ele>1976.7</ele>
        <time>2021-02-20T09:29:39Z</time>
      </trkpt>
      <trkpt lat="45.17041" lon="5.93727">
        <ele>1976.8</ele>
        <time>2021-02-20T09:29:40Z</time>
      </trkpt>
      <trkpt lat="45.1704" lon="5.93727">
        <ele>1976.8</ele>
        <time>2021-02-20T09:29:41Z</time>
      </trkpt>
      <trkpt lat="45.17038" lon="5.93727">
        <ele>1977</ele>
        <time>2021-02-20T09:29:42Z</time>
      </trkpt>
      <trkpt lat="45.17038" lon="5.93727">
        <ele>1977.1</ele>
        <time>2021-02-20T09:29:43Z</time>
      </trkpt>
      <trkpt lat="45.17037" lon="5.93727">
        <ele>1977.2</ele>
        <time>2021-02-20T09:29:44Z</time>
      </trkpt>
      <trkpt lat="45.17036" lon="5.93727">
        <ele>1977.3</ele>
        <time>2021-02-20T09:29:45Z</time>
      </trkpt>
      <trkpt lat="45.17035" lon="5.93727">
        <ele>1977.3</ele>
        <time>2021-02-20T09:29:46Z</time>
      </trkpt>
      <trkpt lat="45.17035" lon="5.93727">
        <ele>1977.4</ele>
        <time>2021-02-20T09:29:47Z</time>
      </trkpt>
      <trkpt lat="45.17034" lon="5.93727">
        <ele>1977.5</ele>
        <time>2021-02-20T09:29:48Z</time>
      </trkpt>
      <trkpt lat="45.17033" lon="5.93727">
        <ele>1977.6</ele>
        <time>2021-02-20T09:29:49Z</time>
      </trkpt>
      <trkpt lat="45.17032" lon="5.93727">
        <ele>1977.7</ele>
        <time>2021-02-20T09:29:50Z</time>
      </trkpt>
      <trkpt lat="45.17031" lon="5.93728">
        <ele>1977.8</ele>
        <time>2021-02-20T09:29:51Z</time>
      </trkpt>
      <trkpt lat="45.17031" lon="5.93728">
        <ele>1977.9</ele>
        <time>2021-02-20T09:29:52Z</time>
      </trkpt>
      <trkpt lat="45.1703" lon="5.93728">
        <ele>1978</ele>
        <time>2021-02-20T09:29:53Z</time>
      </trkpt>
      <trkpt lat="45.17029" lon="5.93728">
        <ele>1978.1</ele>
        <time>2021-02-20T09:29:54Z</time>
      </trkpt>
      <trkpt lat="45.17028" lon="5.93729">
        <ele>1978.2</ele>
        <time>2021-02-20T09:29:55Z</time>
      </trkpt>
      <trkpt lat="45.17027" lon="5.93729">
        <ele>1978.4</ele>
        <time>2021-02-20T09:29:56Z</time>
      </trkpt>
      <trkpt lat="45.17026" lon="5.93729">
        <ele>1978.5</ele>
        <time>2021-02-20T09:29:57Z</time>
      </trkpt>
      <trkpt lat="45.17025" lon="5.93729">
        <ele>1978.6</ele>
        <time>2021-02-20T09:29:58Z</time>
      </trkpt>
      <trkpt lat="45.17025" lon="5.93729">
        <ele>1978.7</ele>
        <time>2021-02-20T09:29:59Z</time>
      </trkpt>
      <trkpt lat="45.17024" lon="5.93729">
        <ele>1978.7</ele>
        <time>2021-02-20T09:30:00Z</time>
      </trkpt>
      <trkpt lat="45.17024" lon="5.93729">
        <ele>1978.8</ele>
        <time>2021-02-20T09:30:01Z</time>
      </trkpt>
      <trkpt lat="45.17023" lon="5.93729">
        <ele>1978.9</ele>
        <time>2021-02-20T09:30:02Z</time>
      </trkpt>
      <trkpt lat="45.17023" lon="5.9373">
        <ele>1979</ele>
        <time>2021-02-20T09:30:03Z</time>
      </trkpt>
      <trkpt lat="45.17022" lon="5.9373">
        <ele>1979.1</ele>
        <time>2021-02-20T09:30:04Z</time>
      </trkpt>
      <trkpt lat="45.17021" lon="5.9373">
        <ele>1979.2</ele>
        <time>2021-02-20T09:30:05Z</time>
      </trkpt>
      <trkpt lat="45.17021" lon="5.9373">
        <ele>1979.3</ele>
        <time>2021-02-20T09:30:06Z</time>
      </trkpt>
      <trkpt lat="45.1702" lon="5.9373">
        <ele>1979.3</ele>
        <time>2021-02-20T09:30:07Z</time>
      </trkpt>
      <trkpt lat="45.17019" lon="5.9373">
        <ele>1979.5</ele>
        <time>2021-02-20T09:30:08Z</time>
      </trkpt>
      <trkpt lat="45.17019" lon="5.93731">
        <ele>1979.6</ele>
        <time>2021-02-20T09:30:09Z</time>
      </trkpt>
      <trkpt lat="45.17018" lon="5.93731">
        <ele>1979.7</ele>
        <time>2021-02-20T09:30:10Z</time>
      </trkpt>
      <trkpt lat="45.17017" lon="5.93731">
        <ele>1979.8</ele>
        <time>2021-02-20T09:30:11Z</time>
      </trkpt>
      <trkpt lat="45.17017" lon="5.93731">
        <ele>1979.9</ele>
        <time>2021-02-20T09:30:12Z</time>
      </trkpt>
      <trkpt lat="45.17016" lon="5.93732">
        <ele>1980</ele>
        <time>2021-02-20T09:30:13Z</time>
      </trkpt>
      <trkpt lat="45.17015" lon="5.93732">
        <ele>1980.2</ele>
        <time>2021-02-20T09:30:14Z</time>
      </trkpt>
      <trkpt lat="45.17015" lon="5.93733">
        <ele>1980.3</ele>
        <time>2021-02-20T09:30:15Z</time>
      </trkpt>
      <trkpt lat="45.17014" lon="5.93733">
        <ele>1980.5</ele>
        <time>2021-02-20T09:30:16Z</time>
      </trkpt>
      <trkpt lat="45.17013" lon="5.93733">
        <ele>1980.6</ele>
        <time>2021-02-20T09:30:17Z</time>
      </trkpt>
      <trkpt lat="45.17012" lon="5.93733">
        <ele>1980.8</ele>
        <time>2021-02-20T09:30:18Z</time>
      </trkpt>
      <trkpt lat="45.17011" lon="5.93734">
        <ele>1980.9</ele>
        <time>2021-02-20T09:30:19Z</time>
      </trkpt>
      <trkpt lat="45.17011" lon="5.93734">
        <ele>1981.1</ele>
        <time>2021-02-20T09:30:20Z</time>
      </trkpt>
      <trkpt lat="45.1701" lon="5.93734">
        <ele>1981.2</ele>
        <time>2021-02-20T09:30:21Z</time>
      </trkpt>
      <trkpt lat="45.17009" lon="5.93734">
        <ele>1981.4</ele>
        <time>2021-02-20T09:30:22Z</time>
      </trkpt>
      <trkpt lat="45.17008" lon="5.93735">
        <ele>1981.6</ele>
        <time>2021-02-20T09:30:23Z</time>
      </trkpt>
      <trkpt lat="45.17007" lon="5.93735">
        <ele>1981.8</ele>
        <time>2021-02-20T09:30:24Z</time>
      </trkpt>
      <trkpt lat="45.17006" lon="5.93735">
        <ele>1982</ele>
        <time>2021-02-20T09:30:25Z</time>
      </trkpt>
      <trkpt lat="45.17006" lon="5.93735">
        <ele>1982.1</ele>
        <time>2021-02-20T09:30:26Z</time>
      </trkpt>
      <trkpt lat="45.17005" lon="5.93735">
        <ele>1982.3</ele>
        <time>2021-02-20T09:30:27Z</time>
      </trkpt>
      <trkpt lat="45.17004" lon="5.93736">
        <ele>1982.5</ele>
        <time>2021-02-20T09:30:28Z</time>
      </trkpt>
      <trkpt lat="45.17003" lon="5.93736">
        <ele>1982.6</ele>
        <time>2021-02-20T09:30:29Z</time>
      </trkpt>
      <trkpt lat="45.17002" lon="5.93736">
        <ele>1982.8</ele>
        <time>2021-02-20T09:30:30Z</time>
      </trkpt>
      <trkpt lat="45.17001" lon="5.93736">
        <ele>1983</ele>
        <time>2021-02-20T09:30:31Z</time>
      </trkpt>
      <trkpt lat="45.17" lon="5.93737">
        <ele>1983.2</ele>
        <time>2021-02-20T09:30:32Z</time>
      </trkpt>
      <trkpt lat="45.17" lon="5.93737">
        <ele>1983.3</ele>
        <time>2021-02-20T09:30:33Z</time>
      </trkpt>
      <trkpt lat="45.16999" lon="5.93737">
        <ele>1983.5</ele>
        <time>2021-02-20T09:30:34Z</time>
      </trkpt>
      <trkpt lat="45.16998" lon="5.93738">
        <ele>1983.7</ele>
        <time>2021-02-20T09:30:35Z</time>
      </trkpt>
      <trkpt lat="45.16997" lon="5.93738">
        <ele>1983.9</ele>
        <time>2021-02-20T09:30:36Z</time>
      </trkpt>
      <trkpt lat="45.16997" lon="5.93738">
        <ele>1984</ele>
        <time>2021-02-20T09:30:37Z</time>
      </trkpt>
      <trkpt lat="45.16996" lon="5.93738">
        <ele>1984.3</ele>
        <time>2021-02-20T09:30:38Z</time>
      </trkpt>
      <trkpt lat="45.16995" lon="5.93739">
        <ele>1984.5</ele>
        <time>2021-02-20T09:30:39Z</time>
      </trkpt>
      <trkpt lat="45.16994" lon="5.93739">
        <ele>1984.7</ele>
        <time>2021-02-20T09:30:40Z</time>
      </trkpt>
      <trkpt lat="45.16993" lon="5.93739">
        <ele>1984.8</ele>
        <time>2021-02-20T09:30:41Z</time>
      </trkpt>
      <trkpt lat="45.16992" lon="5.9374">
        <ele>1985</ele>
        <time>2021-02-20T09:30:42Z</time>
      </trkpt>
      <trkpt lat="45.16992" lon="5.9374">
        <ele>1985.1</ele>
        <time>2021-02-20T09:30:43Z</time>
      </trkpt>
      <trkpt lat="45.16991" lon="5.9374">
        <ele>1985.3</ele>
        <time>2021-02-20T09:30:44Z</time>
      </trkpt>
      <trkpt lat="45.1699" lon="5.93741">
        <ele>1985.5</ele>
        <time>2021-02-20T09:30:45Z</time>
      </trkpt>
      <trkpt lat="45.1699" lon="5.93741">
        <ele>1985.6</ele>
        <time>2021-02-20T09:30:46Z</time>
      </trkpt>
      <trkpt lat="45.16989" lon="5.93742">
        <ele>1985.8</ele>
        <time>2021-02-20T09:30:47Z</time>
      </trkpt>
      <trkpt lat="45.16988" lon="5.93743">
        <ele>1986</ele>
        <time>2021-02-20T09:30:48Z</time>
      </trkpt>
      <trkpt lat="45.16987" lon="5.93743">
        <ele>1986.2</ele>
        <time>2021-02-20T09:30:49Z</time>
      </trkpt>
      <trkpt lat="45.16986" lon="5.93744">
        <ele>1986.4</ele>
        <time>2021-02-20T09:30:50Z</time>
      </trkpt>
      <trkpt lat="45.16986" lon="5.93744">
        <ele>1986.5</ele>
        <time>2021-02-20T09:30:51Z</time>
      </trkpt>
      <trkpt lat="45.16985" lon="5.93744">
        <ele>1986.6</ele>
        <time>2021-02-20T09:30:52Z</time>
      </trkpt>
      <trkpt lat="45.16985" lon="5.93745">
        <ele>1986.7</ele>
        <time>2021-02-20T09:30:53Z</time>
      </trkpt>
      <trkpt lat="45.16985" lon="5.93745">
        <ele>1986.8</ele>
        <time>2021-02-20T09:30:54Z</time>
      </trkpt>
      <trkpt lat="45.16984" lon="5.93745">
        <ele>1986.9</ele>
        <time>2021-02-20T09:30:55Z</time>
      </trkpt>
      <trkpt lat="45.16984" lon="5.93746">
        <ele>1987.1</ele>
        <time>2021-02-20T09:30:56Z</time>
      </trkpt>
      <trkpt lat="45.16983" lon="5.93747">
        <ele>1987.2</ele>
        <time>2021-02-20T09:30:57Z</time>
      </trkpt>
      <trkpt lat="45.16982" lon="5.93747">
        <ele>1987.3</ele>
        <time>2021-02-20T09:30:58Z</time>
      </trkpt>
      <trkpt lat="45.16982" lon="5.93748">
        <ele>1987.5</ele>
        <time>2021-02-20T09:30:59Z</time>
      </trkpt>
      <trkpt lat="45.16981" lon="5.93748">
        <ele>1987.6</ele>
        <time>2021-02-20T09:31:00Z</time>
      </trkpt>
      <trkpt lat="45.16981" lon="5.93749">
        <ele>1987.7</ele>
        <time>2021-02-20T09:31:01Z</time>
      </trkpt>
      <trkpt lat="45.1698" lon="5.93749">
        <ele>1987.8</ele>
        <time>2021-02-20T09:31:02Z</time>
      </trkpt>
      <trkpt lat="45.16979" lon="5.93749">
        <ele>1987.9</ele>
        <time>2021-02-20T09:31:03Z</time>
      </trkpt>
      <trkpt lat="45.16979" lon="5.9375">
        <ele>1988.1</ele>
        <time>2021-02-20T09:31:04Z</time>
      </trkpt>
      <trkpt lat="45.16978" lon="5.9375">
        <ele>1988.2</ele>
        <time>2021-02-20T09:31:05Z</time>
      </trkpt>
      <trkpt lat="45.16978" lon="5.9375">
        <ele>1988.2</ele>
        <time>2021-02-20T09:31:06Z</time>
      </trkpt>
      <trkpt lat="45.16978" lon="5.93751">
        <ele>1988.3</ele>
        <time>2021-02-20T09:31:07Z</time>
      </trkpt>
      <trkpt lat="45.16977" lon="5.93752">
        <ele>1988.4</ele>
        <time>2021-02-20T09:31:08Z</time>
      </trkpt>
      <trkpt lat="45.16976" lon="5.93752">
        <ele>1988.6</ele>
        <time>2021-02-20T09:31:09Z</time>
      </trkpt>
      <trkpt lat="45.16976" lon="5.93753">
        <ele>1988.7</ele>
        <time>2021-02-20T09:31:10Z</time>
      </trkpt>
      <trkpt lat="45.16975" lon="5.93754">
        <ele>1988.8</ele>
        <time>2021-02-20T09:31:11Z</time>
      </trkpt>
      <trkpt lat="45.16975" lon="5.93754">
        <ele>1989</ele>
        <time>2021-02-20T09:31:12Z</time>
      </trkpt>
      <trkpt lat="45.16974" lon="5.93755">
        <ele>1989.2</ele>
        <time>2021-02-20T09:31:13Z</time>
      </trkpt>
      <trkpt lat="45.16974" lon="5.93756">
        <ele>1989.3</ele>
        <time>2021-02-20T09:31:14Z</time>
      </trkpt>
      <trkpt lat="45.16973" lon="5.93757">
        <ele>1989.3</ele>
        <time>2021-02-20T09:31:15Z</time>
      </trkpt>
      <trkpt lat="45.16973" lon="5.93757">
        <ele>1989.4</ele>
        <time>2021-02-20T09:31:16Z</time>
      </trkpt>
      <trkpt lat="45.16973" lon="5.93758">
        <ele>1989.5</ele>
        <time>2021-02-20T09:31:17Z</time>
      </trkpt>
      <trkpt lat="45.16972" lon="5.93759">
        <ele>1989.7</ele>
        <time>2021-02-20T09:31:18Z</time>
      </trkpt>
      <trkpt lat="45.16972" lon="5.9376">
        <ele>1989.8</ele>
        <time>2021-02-20T09:31:19Z</time>
      </trkpt>
      <trkpt lat="45.16972" lon="5.9376">
        <ele>1989.9</ele>
        <time>2021-02-20T09:31:20Z</time>
      </trkpt>
      <trkpt lat="45.16971" lon="5.93761">
        <ele>1990</ele>
        <time>2021-02-20T09:31:21Z</time>
      </trkpt>
      <trkpt lat="45.16971" lon="5.93761">
        <ele>1990.1</ele>
        <time>2021-02-20T09:31:22Z</time>
      </trkpt>
      <trkpt lat="45.1697" lon="5.93762">
        <ele>1990.2</ele>
        <time>2021-02-20T09:31:23Z</time>
      </trkpt>
      <trkpt lat="45.1697" lon="5.93762">
        <ele>1990.3</ele>
        <time>2021-02-20T09:31:24Z</time>
      </trkpt>
      <trkpt lat="45.16969" lon="5.93763">
        <ele>1990.4</ele>
        <time>2021-02-20T09:31:25Z</time>
      </trkpt>
      <trkpt lat="45.16969" lon="5.93763">
        <ele>1990.5</ele>
        <time>2021-02-20T09:31:26Z</time>
      </trkpt>
      <trkpt lat="45.16968" lon="5.93764">
        <ele>1990.6</ele>
        <time>2021-02-20T09:31:27Z</time>
      </trkpt>
      <trkpt lat="45.16968" lon="5.93764">
        <ele>1990.7</ele>
        <time>2021-02-20T09:31:28Z</time>
      </trkpt>
      <trkpt lat="45.16967" lon="5.93765">
        <ele>1990.8</ele>
        <time>2021-02-20T09:31:29Z</time>
      </trkpt>
      <trkpt lat="45.16967" lon="5.93766">
        <ele>1990.9</ele>
        <time>2021-02-20T09:31:30Z</time>
      </trkpt>
      <trkpt lat="45.16966" lon="5.93766">
        <ele>1991.1</ele>
        <time>2021-02-20T09:31:31Z</time>
      </trkpt>
      <trkpt lat="45.16965" lon="5.93767">
        <ele>1991.2</ele>
        <time>2021-02-20T09:31:32Z</time>
      </trkpt>
      <trkpt lat="45.16965" lon="5.93768">
        <ele>1991.4</ele>
        <time>2021-02-20T09:31:33Z</time>
      </trkpt>
      <trkpt lat="45.16964" lon="5.93768">
        <ele>1991.5</ele>
        <time>2021-02-20T09:31:34Z</time>
      </trkpt>
      <trkpt lat="45.16963" lon="5.93769">
        <ele>1991.6</ele>
        <time>2021-02-20T09:31:35Z</time>
      </trkpt>
      <trkpt lat="45.16962" lon="5.9377">
        <ele>1991.8</ele>
        <time>2021-02-20T09:31:36Z</time>
      </trkpt>
      <trkpt lat="45.16962" lon="5.9377">
        <ele>1991.9</ele>
        <time>2021-02-20T09:31:37Z</time>
      </trkpt>
      <trkpt lat="45.16961" lon="5.9377">
        <ele>1992</ele>
        <time>2021-02-20T09:31:38Z</time>
      </trkpt>
      <trkpt lat="45.1696" lon="5.93771">
        <ele>1992.1</ele>
        <time>2021-02-20T09:31:39Z</time>
      </trkpt>
      <trkpt lat="45.1696" lon="5.93772">
        <ele>1992.3</ele>
        <time>2021-02-20T09:31:40Z</time>
      </trkpt>
      <trkpt lat="45.16959" lon="5.93772">
        <ele>1992.4</ele>
        <time>2021-02-20T09:31:41Z</time>
      </trkpt>
      <trkpt lat="45.16958" lon="5.93773">
        <ele>1992.5</ele>
        <time>2021-02-20T09:31:42Z</time>
      </trkpt>
      <trkpt lat="45.16957" lon="5.93774">
        <ele>1992.7</ele>
        <time>2021-02-20T09:31:43Z</time>
      </trkpt>
      <trkpt lat="45.16957" lon="5.93774">
        <ele>1992.8</ele>
        <time>2021-02-20T09:31:44Z</time>
      </trkpt>
      <trkpt lat="45.16956" lon="5.93774">
        <ele>1992.8</ele>
        <time>2021-02-20T09:31:45Z</time>
      </trkpt>
      <trkpt lat="45.16956" lon="5.93775">
        <ele>1992.9</ele>
        <time>2021-02-20T09:31:46Z</time>
      </trkpt>
      <trkpt lat="45.16956" lon="5.93775">
        <ele>1993</ele>
        <time>2021-02-20T09:31:47Z</time>
      </trkpt>
      <trkpt lat="45.16956" lon="5.93775">
        <ele>1993</ele>
        <time>2021-02-20T09:31:48Z</time>
      </trkpt>
      <trkpt lat="45.16956" lon="5.93776">
        <ele>1993.1</ele>
        <time>2021-02-20T09:31:49Z</time>
      </trkpt>
      <trkpt lat="45.16955" lon="5.93776">
        <ele>1993.2</ele>
        <time>2021-02-20T09:31:50Z</time>
      </trkpt>
      <trkpt lat="45.16955" lon="5.93776">
        <ele>1993.2</ele>
        <time>2021-02-20T09:31:51Z</time>
      </trkpt>
      <trkpt lat="45.16954" lon="5.93777">
        <ele>1993.3</ele>
        <time>2021-02-20T09:31:52Z</time>
      </trkpt>
      <trkpt lat="45.16954" lon="5.93778">
        <ele>1993.4</ele>
        <time>2021-02-20T09:31:53Z</time>
      </trkpt>
      <trkpt lat="45.16953" lon="5.93779">
        <ele>1993.6</ele>
        <time>2021-02-20T09:31:54Z</time>
      </trkpt>
      <trkpt lat="45.16953" lon="5.9378">
        <ele>1993.7</ele>
        <time>2021-02-20T09:31:55Z</time>
      </trkpt>
      <trkpt lat="45.16952" lon="5.9378">
        <ele>1993.8</ele>
        <time>2021-02-20T09:31:56Z</time>
      </trkpt>
      <trkpt lat="45.16951" lon="5.93781">
        <ele>1994</ele>
        <time>2021-02-20T09:31:57Z</time>
      </trkpt>
      <trkpt lat="45.16951" lon="5.93782">
        <ele>1994.1</ele>
        <time>2021-02-20T09:31:58Z</time>
      </trkpt>
      <trkpt lat="45.1695" lon="5.93783">
        <ele>1994.3</ele>
        <time>2021-02-20T09:31:59Z</time>
      </trkpt>
      <trkpt lat="45.16949" lon="5.93784">
        <ele>1994.5</ele>
        <time>2021-02-20T09:32:00Z</time>
      </trkpt>
      <trkpt lat="45.16948" lon="5.93784">
        <ele>1994.6</ele>
        <time>2021-02-20T09:32:01Z</time>
      </trkpt>
      <trkpt lat="45.16948" lon="5.93785">
        <ele>1994.7</ele>
        <time>2021-02-20T09:32:02Z</time>
      </trkpt>
      <trkpt lat="45.16947" lon="5.93785">
        <ele>1994.9</ele>
        <time>2021-02-20T09:32:03Z</time>
      </trkpt>
      <trkpt lat="45.16946" lon="5.93786">
        <ele>1995</ele>
        <time>2021-02-20T09:32:04Z</time>
      </trkpt>
      <trkpt lat="45.16946" lon="5.93786">
        <ele>1995.1</ele>
        <time>2021-02-20T09:32:05Z</time>
      </trkpt>
      <trkpt lat="45.16945" lon="5.93787">
        <ele>1995.2</ele>
        <time>2021-02-20T09:32:06Z</time>
      </trkpt>
      <trkpt lat="45.16945" lon="5.93787">
        <ele>1995.3</ele>
        <time>2021-02-20T09:32:07Z</time>
      </trkpt>
      <trkpt lat="45.16944" lon="5.93789">
        <ele>1995.5</ele>
        <time>2021-02-20T09:32:08Z</time>
      </trkpt>
      <trkpt lat="45.16944" lon="5.9379">
        <ele>1995.7</ele>
        <time>2021-02-20T09:32:09Z</time>
      </trkpt>
      <trkpt lat="45.16943" lon="5.93791">
        <ele>1995.9</ele>
        <time>2021-02-20T09:32:10Z</time>
      </trkpt>
      <trkpt lat="45.16942" lon="5.93792">
        <ele>1996.1</ele>
        <time>2021-02-20T09:32:11Z</time>
      </trkpt>
      <trkpt lat="45.16942" lon="5.93793">
        <ele>1996.2</ele>
        <time>2021-02-20T09:32:12Z</time>
      </trkpt>
      <trkpt lat="45.16941" lon="5.93794">
        <ele>1996.3</ele>
        <time>2021-02-20T09:32:13Z</time>
      </trkpt>
      <trkpt lat="45.16941" lon="5.93794">
        <ele>1996.4</ele>
        <time>2021-02-20T09:32:14Z</time>
      </trkpt>
      <trkpt lat="45.16941" lon="5.93795">
        <ele>1996.5</ele>
        <time>2021-02-20T09:32:15Z</time>
      </trkpt>
      <trkpt lat="45.16941" lon="5.93796">
        <ele>1996.6</ele>
        <time>2021-02-20T09:32:16Z</time>
      </trkpt>
      <trkpt lat="45.1694" lon="5.93797">
        <ele>1996.8</ele>
        <time>2021-02-20T09:32:17Z</time>
      </trkpt>
      <trkpt lat="45.1694" lon="5.93798">
        <ele>1996.9</ele>
        <time>2021-02-20T09:32:18Z</time>
      </trkpt>
      <trkpt lat="45.1694" lon="5.93798">
        <ele>1997</ele>
        <time>2021-02-20T09:32:19Z</time>
      </trkpt>
      <trkpt lat="45.16939" lon="5.93799">
        <ele>1997.1</ele>
        <time>2021-02-20T09:32:20Z</time>
      </trkpt>
      <trkpt lat="45.16939" lon="5.93799">
        <ele>1997.2</ele>
        <time>2021-02-20T09:32:21Z</time>
      </trkpt>
      <trkpt lat="45.16939" lon="5.938">
        <ele>1997.2</ele>
        <time>2021-02-20T09:32:22Z</time>
      </trkpt>
      <trkpt lat="45.16939" lon="5.938">
        <ele>1997.3</ele>
        <time>2021-02-20T09:32:23Z</time>
      </trkpt>
      <trkpt lat="45.16939" lon="5.938">
        <ele>1997.4</ele>
        <time>2021-02-20T09:32:24Z</time>
      </trkpt>
      <trkpt lat="45.16938" lon="5.93801">
        <ele>1997.4</ele>
        <time>2021-02-20T09:32:25Z</time>
      </trkpt>
      <trkpt lat="45.16938" lon="5.93802">
        <ele>1997.5</ele>
        <time>2021-02-20T09:32:26Z</time>
      </trkpt>
      <trkpt lat="45.16938" lon="5.93802">
        <ele>1997.6</ele>
        <time>2021-02-20T09:32:27Z</time>
      </trkpt>
      <trkpt lat="45.16938" lon="5.93804">
        <ele>1997.7</ele>
        <time>2021-02-20T09:32:28Z</time>
      </trkpt>
      <trkpt lat="45.16937" lon="5.93805">
        <ele>1997.9</ele>
        <time>2021-02-20T09:32:29Z</time>
      </trkpt>
      <trkpt lat="45.16937" lon="5.93806">
        <ele>1998.1</ele>
        <time>2021-02-20T09:32:30Z</time>
      </trkpt>
      <trkpt lat="45.16936" lon="5.93807">
        <ele>1998.2</ele>
        <time>2021-02-20T09:32:31Z</time>
      </trkpt>
      <trkpt lat="45.16936" lon="5.93807">
        <ele>1998.2</ele>
        <time>2021-02-20T09:32:32Z</time>
      </trkpt>
      <trkpt lat="45.16935" lon="5.93809">
        <ele>1998.4</ele>
        <time>2021-02-20T09:32:33Z</time>
      </trkpt>
      <trkpt lat="45.16935" lon="5.93809">
        <ele>1998.4</ele>
        <time>2021-02-20T09:32:34Z</time>
      </trkpt>
      <trkpt lat="45.16935" lon="5.9381">
        <ele>1998.5</ele>
        <time>2021-02-20T09:32:35Z</time>
      </trkpt>
      <trkpt lat="45.16935" lon="5.9381">
        <ele>1998.5</ele>
        <time>2021-02-20T09:32:36Z</time>
      </trkpt>
      <trkpt lat="45.16934" lon="5.93811">
        <ele>1998.6</ele>
        <time>2021-02-20T09:32:37Z</time>
      </trkpt>
      <trkpt lat="45.16934" lon="5.93811">
        <ele>1998.7</ele>
        <time>2021-02-20T09:32:38Z</time>
      </trkpt>
      <trkpt lat="45.16934" lon="5.93812">
        <ele>1998.7</ele>
        <time>2021-02-20T09:32:39Z</time>
      </trkpt>
      <trkpt lat="45.16933" lon="5.93813">
        <ele>1998.9</ele>
        <time>2021-02-20T09:32:40Z</time>
      </trkpt>
      <trkpt lat="45.16932" lon="5.93813">
        <ele>1999</ele>
        <time>2021-02-20T09:32:41Z</time>
      </trkpt>
      <trkpt lat="45.16932" lon="5.93813">
        <ele>1999</ele>
        <time>2021-02-20T09:32:42Z</time>
      </trkpt>
      <trkpt lat="45.16931" lon="5.93814">
        <ele>1999.1</ele>
        <time>2021-02-20T09:32:43Z</time>
      </trkpt>
      <trkpt lat="45.1693" lon="5.93815">
        <ele>1999.2</ele>
        <time>2021-02-20T09:32:44Z</time>
      </trkpt>
      <trkpt lat="45.16929" lon="5.93815">
        <ele>1999.3</ele>
        <time>2021-02-20T09:32:45Z</time>
      </trkpt>
      <trkpt lat="45.16929" lon="5.93816">
        <ele>1999.4</ele>
        <time>2021-02-20T09:32:46Z</time>
      </trkpt>
      <trkpt lat="45.16928" lon="5.93817">
        <ele>1999.5</ele>
        <time>2021-02-20T09:32:47Z</time>
      </trkpt>
      <trkpt lat="45.16928" lon="5.93817">
        <ele>1999.5</ele>
        <time>2021-02-20T09:32:48Z</time>
      </trkpt>
      <trkpt lat="45.16928" lon="5.93817">
        <ele>1999.6</ele>
        <time>2021-02-20T09:32:49Z</time>
      </trkpt>
      <trkpt lat="45.16927" lon="5.93818">
        <ele>1999.7</ele>
        <time>2021-02-20T09:32:50Z</time>
      </trkpt>
      <trkpt lat="45.16927" lon="5.93819">
        <ele>1999.7</ele>
        <time>2021-02-20T09:32:51Z</time>
      </trkpt>
      <trkpt lat="45.16926" lon="5.9382">
        <ele>1999.8</ele>
        <time>2021-02-20T09:32:52Z</time>
      </trkpt>
      <trkpt lat="45.16925" lon="5.9382">
        <ele>1999.9</ele>
        <time>2021-02-20T09:32:53Z</time>
      </trkpt>
      <trkpt lat="45.16925" lon="5.93821">
        <ele>1999.9</ele>
        <time>2021-02-20T09:32:54Z</time>
      </trkpt>
      <trkpt lat="45.16924" lon="5.93821">
        <ele>2000</ele>
        <time>2021-02-20T09:32:55Z</time>
      </trkpt>
      <trkpt lat="45.16924" lon="5.93823">
        <ele>2000.1</ele>
        <time>2021-02-20T09:32:56Z</time>
      </trkpt>
      <trkpt lat="45.16923" lon="5.93823">
        <ele>2000.2</ele>
        <time>2021-02-20T09:32:57Z</time>
      </trkpt>
      <trkpt lat="45.16923" lon="5.93824">
        <ele>2000.2</ele>
        <time>2021-02-20T09:32:58Z</time>
      </trkpt>
      <trkpt lat="45.16923" lon="5.93824">
        <ele>2000.2</ele>
        <time>2021-02-20T09:32:59Z</time>
      </trkpt>
      <trkpt lat="45.16923" lon="5.93824">
        <ele>2000.2</ele>
        <time>2021-02-20T09:33:00Z</time>
      </trkpt>
      <trkpt lat="45.16922" lon="5.93825">
        <ele>2000.3</ele>
        <time>2021-02-20T09:33:01Z</time>
      </trkpt>
      <trkpt lat="45.16922" lon="5.93826">
        <ele>2000.4</ele>
        <time>2021-02-20T09:33:02Z</time>
      </trkpt>
      <trkpt lat="45.16921" lon="5.93827">
        <ele>2000.5</ele>
        <time>2021-02-20T09:33:03Z</time>
      </trkpt>
      <trkpt lat="45.16921" lon="5.93827">
        <ele>2000.5</ele>
        <time>2021-02-20T09:33:04Z</time>
      </trkpt>
      <trkpt lat="45.16921" lon="5.93827">
        <ele>2000.5</ele>
        <time>2021-02-20T09:33:05Z</time>
      </trkpt>
      <trkpt lat="45.1692" lon="5.93828">
        <ele>2000.6</ele>
        <time>2021-02-20T09:33:06Z</time>
      </trkpt>
      <trkpt lat="45.1692" lon="5.93828">
        <ele>2000.6</ele>
        <time>2021-02-20T09:33:07Z</time>
      </trkpt>
      <trkpt lat="45.1692" lon="5.93828">
        <ele>2000.6</ele>
        <time>2021-02-20T09:33:08Z</time>
      </trkpt>
      <trkpt lat="45.16919" lon="5.93828">
        <ele>2000.7</ele>
        <time>2021-02-20T09:33:09Z</time>
      </trkpt>
      <trkpt lat="45.16919" lon="5.93829">
        <ele>2000.7</ele>
        <time>2021-02-20T09:33:10Z</time>
      </trkpt>
      <trkpt lat="45.16918" lon="5.93829">
        <ele>2000.8</ele>
        <time>2021-02-20T09:33:11Z</time>
      </trkpt>
      <trkpt lat="45.16917" lon="5.9383">
        <ele>2000.9</ele>
        <time>2021-02-20T09:33:12Z</time>
      </trkpt>
      <trkpt lat="45.16916" lon="5.9383">
        <ele>2001</ele>
        <time>2021-02-20T09:33:13Z</time>
      </trkpt>
      <trkpt lat="45.16916" lon="5.93831">
        <ele>2001</ele>
        <time>2021-02-20T09:33:14Z</time>
      </trkpt>
      <trkpt lat="45.16915" lon="5.93832">
        <ele>2001.1</ele>
        <time>2021-02-20T09:33:15Z</time>
      </trkpt>
      <trkpt lat="45.16915" lon="5.93832">
        <ele>2001.2</ele>
        <time>2021-02-20T09:33:16Z</time>
      </trkpt>
      <trkpt lat="45.16914" lon="5.93833">
        <ele>2001.2</ele>
        <time>2021-02-20T09:33:17Z</time>
      </trkpt>
      <trkpt lat="45.16914" lon="5.93833">
        <ele>2001.3</ele>
        <time>2021-02-20T09:33:18Z</time>
      </trkpt>
      <trkpt lat="45.16913" lon="5.93834">
        <ele>2001.3</ele>
        <time>2021-02-20T09:33:19Z</time>
      </trkpt>
      <trkpt lat="45.16913" lon="5.93835">
        <ele>2001.4</ele>
        <time>2021-02-20T09:33:20Z</time>
      </trkpt>
      <trkpt lat="45.16913" lon="5.93835">
        <ele>2001.4</ele>
        <time>2021-02-20T09:33:21Z</time>
      </trkpt>
      <trkpt lat="45.16913" lon="5.93835">
        <ele>2001.4</ele>
        <time>2021-02-20T09:33:22Z</time>
      </trkpt>
      <trkpt lat="45.16912" lon="5.93836">
        <ele>2001.5</ele>
        <time>2021-02-20T09:33:23Z</time>
      </trkpt>
      <trkpt lat="45.16912" lon="5.93837">
        <ele>2001.6</ele>
        <time>2021-02-20T09:33:24Z</time>
      </trkpt>
      <trkpt lat="45.16911" lon="5.93837">
        <ele>2001.6</ele>
        <time>2021-02-20T09:33:25Z</time>
      </trkpt>
      <trkpt lat="45.16911" lon="5.93838">
        <ele>2001.7</ele>
        <time>2021-02-20T09:33:26Z</time>
      </trkpt>
      <trkpt lat="45.16911" lon="5.93838">
        <ele>2001.7</ele>
        <time>2021-02-20T09:33:27Z</time>
      </trkpt>
      <trkpt lat="45.1691" lon="5.93839">
        <ele>2001.8</ele>
        <time>2021-02-20T09:33:28Z</time>
      </trkpt>
      <trkpt lat="45.16909" lon="5.9384">
        <ele>2001.9</ele>
        <time>2021-02-20T09:33:29Z</time>
      </trkpt>
      <trkpt lat="45.16909" lon="5.9384">
        <ele>2001.9</ele>
        <time>2021-02-20T09:33:30Z</time>
      </trkpt>
      <trkpt lat="45.16908" lon="5.93841">
        <ele>2002</ele>
        <time>2021-02-20T09:33:31Z</time>
      </trkpt>
      <trkpt lat="45.16908" lon="5.93842">
        <ele>2002.1</ele>
        <time>2021-02-20T09:33:32Z</time>
      </trkpt>
      <trkpt lat="45.16907" lon="5.93842">
        <ele>2002.1</ele>
        <time>2021-02-20T09:33:33Z</time>
      </trkpt>
      <trkpt lat="45.16906" lon="5.93843">
        <ele>2002.2</ele>
        <time>2021-02-20T09:33:34Z</time>
      </trkpt>
      <trkpt lat="45.16906" lon="5.93844">
        <ele>2002.3</ele>
        <time>2021-02-20T09:33:35Z</time>
      </trkpt>
      <trkpt lat="45.16906" lon="5.93844">
        <ele>2002.3</ele>
        <time>2021-02-20T09:33:36Z</time>
      </trkpt>
      <trkpt lat="45.16905" lon="5.93845">
        <ele>2002.4</ele>
        <time>2021-02-20T09:33:37Z</time>
      </trkpt>
      <trkpt lat="45.16904" lon="5.93846">
        <ele>2002.5</ele>
        <time>2021-02-20T09:33:38Z</time>
      </trkpt>
      <trkpt lat="45.16904" lon="5.93847">
        <ele>2002.6</ele>
        <time>2021-02-20T09:33:39Z</time>
      </trkpt>
      <trkpt lat="45.16903" lon="5.93848">
        <ele>2002.6</ele>
        <time>2021-02-20T09:33:40Z</time>
      </trkpt>
      <trkpt lat="45.16903" lon="5.93849">
        <ele>2002.7</ele>
        <time>2021-02-20T09:33:41Z</time>
      </trkpt>
      <trkpt lat="45.16902" lon="5.93849">
        <ele>2002.8</ele>
        <time>2021-02-20T09:33:42Z</time>
      </trkpt>
      <trkpt lat="45.16902" lon="5.9385">
        <ele>2002.9</ele>
        <time>2021-02-20T09:33:43Z</time>
      </trkpt>
      <trkpt lat="45.16901" lon="5.93851">
        <ele>2003</ele>
        <time>2021-02-20T09:33:44Z</time>
      </trkpt>
      <trkpt lat="45.169" lon="5.93852">
        <ele>2003.1</ele>
        <time>2021-02-20T09:33:45Z</time>
      </trkpt>
      <trkpt lat="45.16899" lon="5.93852">
        <ele>2003.1</ele>
        <time>2021-02-20T09:33:46Z</time>
      </trkpt>
      <trkpt lat="45.16899" lon="5.93853">
        <ele>2003.2</ele>
        <time>2021-02-20T09:33:47Z</time>
      </trkpt>
      <trkpt lat="45.16898" lon="5.93854">
        <ele>2003.3</ele>
        <time>2021-02-20T09:33:48Z</time>
      </trkpt>
      <trkpt lat="45.16898" lon="5.93854">
        <ele>2003.3</ele>
        <time>2021-02-20T09:33:49Z</time>
      </trkpt>
      <trkpt lat="45.16898" lon="5.93855">
        <ele>2003.4</ele>
        <time>2021-02-20T09:33:50Z</time>
      </trkpt>
      <trkpt lat="45.16897" lon="5.93856">
        <ele>2003.5</ele>
        <time>2021-02-20T09:33:51Z</time>
      </trkpt>
      <trkpt lat="45.16897" lon="5.93856">
        <ele>2003.5</ele>
        <time>2021-02-20T09:33:52Z</time>
      </trkpt>
      <trkpt lat="45.16896" lon="5.93857">
        <ele>2003.6</ele>
        <time>2021-02-20T09:33:53Z</time>
      </trkpt>
      <trkpt lat="45.16896" lon="5.93857">
        <ele>2003.6</ele>
        <time>2021-02-20T09:33:54Z</time>
      </trkpt>
      <trkpt lat="45.16896" lon="5.93858">
        <ele>2003.7</ele>
        <time>2021-02-20T09:33:55Z</time>
      </trkpt>
      <trkpt lat="45.16895" lon="5.93859">
        <ele>2003.8</ele>
        <time>2021-02-20T09:33:56Z</time>
      </trkpt>
      <trkpt lat="45.16895" lon="5.93859">
        <ele>2003.9</ele>
        <time>2021-02-20T09:33:57Z</time>
      </trkpt>
      <trkpt lat="45.16894" lon="5.93859">
        <ele>2003.9</ele>
        <time>2021-02-20T09:33:58Z</time>
      </trkpt>
      <trkpt lat="45.16894" lon="5.9386">
        <ele>2004</ele>
        <time>2021-02-20T09:33:59Z</time>
      </trkpt>
      <trkpt lat="45.16893" lon="5.93861">
        <ele>2004.1</ele>
        <time>2021-02-20T09:34:00Z</time>
      </trkpt>
      <trkpt lat="45.16893" lon="5.93862">
        <ele>2004.2</ele>
        <time>2021-02-20T09:34:01Z</time>
      </trkpt>
      <trkpt lat="45.16892" lon="5.93862">
        <ele>2004.3</ele>
        <time>2021-02-20T09:34:02Z</time>
      </trkpt>
      <trkpt lat="45.16891" lon="5.93863">
        <ele>2004.4</ele>
        <time>2021-02-20T09:34:03Z</time>
      </trkpt>
      <trkpt lat="45.1689" lon="5.93864">
        <ele>2004.5</ele>
        <time>2021-02-20T09:34:04Z</time>
      </trkpt>
      <trkpt lat="45.16889" lon="5.93865">
        <ele>2004.6</ele>
        <time>2021-02-20T09:34:05Z</time>
      </trkpt>
      <trkpt lat="45.16889" lon="5.93866">
        <ele>2004.7</ele>
        <time>2021-02-20T09:34:06Z</time>
      </trkpt>
      <trkpt lat="45.16889" lon="5.93867">
        <ele>2004.7</ele>
        <time>2021-02-20T09:34:07Z</time>
      </trkpt>
      <trkpt lat="45.16889" lon="5.93868">
        <ele>2004.8</ele>
        <time>2021-02-20T09:34:08Z</time>
      </trkpt>
      <trkpt lat="45.16888" lon="5.93869">
        <ele>2004.9</ele>
        <time>2021-02-20T09:34:09Z</time>
      </trkpt>
      <trkpt lat="45.16887" lon="5.9387">
        <ele>2005.1</ele>
        <time>2021-02-20T09:34:10Z</time>
      </trkpt>
      <trkpt lat="45.16887" lon="5.93871">
        <ele>2005.2</ele>
        <time>2021-02-20T09:34:11Z</time>
      </trkpt>
      <trkpt lat="45.16886" lon="5.93872">
        <ele>2005.3</ele>
        <time>2021-02-20T09:34:12Z</time>
      </trkpt>
      <trkpt lat="45.16886" lon="5.93873">
        <ele>2005.4</ele>
        <time>2021-02-20T09:34:13Z</time>
      </trkpt>
      <trkpt lat="45.16885" lon="5.93874">
        <ele>2005.4</ele>
        <time>2021-02-20T09:34:14Z</time>
      </trkpt>
      <trkpt lat="45.16885" lon="5.93875">
        <ele>2005.5</ele>
        <time>2021-02-20T09:34:15Z</time>
      </trkpt>
      <trkpt lat="45.16884" lon="5.93876">
        <ele>2005.6</ele>
        <time>2021-02-20T09:34:16Z</time>
      </trkpt>
      <trkpt lat="45.16883" lon="5.93877">
        <ele>2005.8</ele>
        <time>2021-02-20T09:34:17Z</time>
      </trkpt>
      <trkpt lat="45.16882" lon="5.93878">
        <ele>2005.8</ele>
        <time>2021-02-20T09:34:18Z</time>
      </trkpt>
      <trkpt lat="45.16882" lon="5.93878">
        <ele>2005.9</ele>
        <time>2021-02-20T09:34:19Z</time>
      </trkpt>
      <trkpt lat="45.16881" lon="5.93879">
        <ele>2005.9</ele>
        <time>2021-02-20T09:34:20Z</time>
      </trkpt>
      <trkpt lat="45.1688" lon="5.9388">
        <ele>2006</ele>
        <time>2021-02-20T09:34:21Z</time>
      </trkpt>
      <trkpt lat="45.16879" lon="5.9388">
        <ele>2006.1</ele>
        <time>2021-02-20T09:34:22Z</time>
      </trkpt>
      <trkpt lat="45.16878" lon="5.93881">
        <ele>2006.2</ele>
        <time>2021-02-20T09:34:23Z</time>
      </trkpt>
      <trkpt lat="45.16877" lon="5.93882">
        <ele>2006.3</ele>
        <time>2021-02-20T09:34:24Z</time>
      </trkpt>
      <trkpt lat="45.16877" lon="5.93883">
        <ele>2006.3</ele>
        <time>2021-02-20T09:34:25Z</time>
      </trkpt>
      <trkpt lat="45.16876" lon="5.93883">
        <ele>2006.4</ele>
        <time>2021-02-20T09:34:26Z</time>
      </trkpt>
      <trkpt lat="45.16875" lon="5.93884">
        <ele>2006.5</ele>
        <time>2021-02-20T09:34:27Z</time>
      </trkpt>
      <trkpt lat="45.16874" lon="5.93885">
        <ele>2006.5</ele>
        <time>2021-02-20T09:34:28Z</time>
      </trkpt>
      <trkpt lat="45.16874" lon="5.93885">
        <ele>2006.6</ele>
        <time>2021-02-20T09:34:29Z</time>
      </trkpt>
      <trkpt lat="45.16873" lon="5.93886">
        <ele>2006.6</ele>
        <time>2021-02-20T09:34:30Z</time>
      </trkpt>
      <trkpt lat="45.16872" lon="5.93887">
        <ele>2006.7</ele>
        <time>2021-02-20T09:34:31Z</time>
      </trkpt>
      <trkpt lat="45.16871" lon="5.93888">
        <ele>2006.8</ele>
        <time>2021-02-20T09:34:32Z</time>
      </trkpt>
      <trkpt lat="45.1687" lon="5.93889">
        <ele>2007</ele>
        <time>2021-02-20T09:34:33Z</time>
      </trkpt>
      <trkpt lat="45.16869" lon="5.9389">
        <ele>2007.1</ele>
        <time>2021-02-20T09:34:34Z</time>
      </trkpt>
      <trkpt lat="45.16868" lon="5.93891">
        <ele>2007.2</ele>
        <time>2021-02-20T09:34:35Z</time>
      </trkpt>
      <trkpt lat="45.16867" lon="5.93892">
        <ele>2007.3</ele>
        <time>2021-02-20T09:34:36Z</time>
      </trkpt>
      <trkpt lat="45.16866" lon="5.93892">
        <ele>2007.4</ele>
        <time>2021-02-20T09:34:37Z</time>
      </trkpt>
      <trkpt lat="45.16865" lon="5.93893">
        <ele>2007.5</ele>
        <time>2021-02-20T09:34:38Z</time>
      </trkpt>
      <trkpt lat="45.16864" lon="5.93894">
        <ele>2007.6</ele>
        <time>2021-02-20T09:34:39Z</time>
      </trkpt>
      <trkpt lat="45.16863" lon="5.93895">
        <ele>2007.8</ele>
        <time>2021-02-20T09:34:40Z</time>
      </trkpt>
      <trkpt lat="45.16862" lon="5.93896">
        <ele>2007.9</ele>
        <time>2021-02-20T09:34:41Z</time>
      </trkpt>
      <trkpt lat="45.16861" lon="5.93897">
        <ele>2008</ele>
        <time>2021-02-20T09:34:42Z</time>
      </trkpt>
      <trkpt lat="45.1686" lon="5.93898">
        <ele>2008.2</ele>
        <time>2021-02-20T09:34:43Z</time>
      </trkpt>
      <trkpt lat="45.1686" lon="5.93898">
        <ele>2008.3</ele>
        <time>2021-02-20T09:34:44Z</time>
      </trkpt>
      <trkpt lat="45.16859" lon="5.93899">
        <ele>2008.4</ele>
        <time>2021-02-20T09:34:45Z</time>
      </trkpt>
      <trkpt lat="45.16858" lon="5.939">
        <ele>2008.6</ele>
        <time>2021-02-20T09:34:46Z</time>
      </trkpt>
      <trkpt lat="45.16857" lon="5.93901">
        <ele>2008.8</ele>
        <time>2021-02-20T09:34:47Z</time>
      </trkpt>
      <trkpt lat="45.16856" lon="5.93902">
        <ele>2009</ele>
        <time>2021-02-20T09:34:48Z</time>
      </trkpt>
      <trkpt lat="45.16855" lon="5.93903">
        <ele>2009.3</ele>
        <time>2021-02-20T09:34:49Z</time>
      </trkpt>
      <trkpt lat="45.16854" lon="5.93904">
        <ele>2009.4</ele>
        <time>2021-02-20T09:34:50Z</time>
      </trkpt>
      <trkpt lat="45.16853" lon="5.93905">
        <ele>2009.6</ele>
        <time>2021-02-20T09:34:51Z</time>
      </trkpt>
      <trkpt lat="45.16852" lon="5.93905">
        <ele>2009.8</ele>
        <time>2021-02-20T09:34:52Z</time>
      </trkpt>
      <trkpt lat="45.16851" lon="5.93906">
        <ele>2010</ele>
        <time>2021-02-20T09:34:53Z</time>
      </trkpt>
      <trkpt lat="45.16851" lon="5.93907">
        <ele>2010.2</ele>
        <time>2021-02-20T09:34:54Z</time>
      </trkpt>
      <trkpt lat="45.1685" lon="5.93908">
        <ele>2010.3</ele>
        <time>2021-02-20T09:34:55Z</time>
      </trkpt>
      <trkpt lat="45.16849" lon="5.93909">
        <ele>2010.5</ele>
        <time>2021-02-20T09:34:56Z</time>
      </trkpt>
      <trkpt lat="45.16849" lon="5.93909">
        <ele>2010.6</ele>
        <time>2021-02-20T09:34:57Z</time>
      </trkpt>
      <trkpt lat="45.16847" lon="5.9391">
        <ele>2010.9</ele>
        <time>2021-02-20T09:34:58Z</time>
      </trkpt>
      <trkpt lat="45.16846" lon="5.9391">
        <ele>2011</ele>
        <time>2021-02-20T09:34:59Z</time>
      </trkpt>
      <trkpt lat="45.16846" lon="5.9391">
        <ele>2011.2</ele>
        <time>2021-02-20T09:35:00Z</time>
      </trkpt>
      <trkpt lat="45.16845" lon="5.93911">
        <ele>2011.4</ele>
        <time>2021-02-20T09:35:01Z</time>
      </trkpt>
      <trkpt lat="45.16844" lon="5.93911">
        <ele>2011.5</ele>
        <time>2021-02-20T09:35:02Z</time>
      </trkpt>
      <trkpt lat="45.16843" lon="5.93912">
        <ele>2011.7</ele>
        <time>2021-02-20T09:35:03Z</time>
      </trkpt>
      <trkpt lat="45.16842" lon="5.93912">
        <ele>2011.9</ele>
        <time>2021-02-20T09:35:04Z</time>
      </trkpt>
      <trkpt lat="45.16841" lon="5.93913">
        <ele>2012.1</ele>
        <time>2021-02-20T09:35:05Z</time>
      </trkpt>
      <trkpt lat="45.1684" lon="5.93913">
        <ele>2012.2</ele>
        <time>2021-02-20T09:35:06Z</time>
      </trkpt>
      <trkpt lat="45.16839" lon="5.93914">
        <ele>2012.4</ele>
        <time>2021-02-20T09:35:07Z</time>
      </trkpt>
      <trkpt lat="45.16839" lon="5.93915">
        <ele>2012.5</ele>
        <time>2021-02-20T09:35:08Z</time>
      </trkpt>
      <trkpt lat="45.16838" lon="5.93915">
        <ele>2012.7</ele>
        <time>2021-02-20T09:35:09Z</time>
      </trkpt>
      <trkpt lat="45.16837" lon="5.93916">
        <ele>2012.8</ele>
        <time>2021-02-20T09:35:10Z</time>
      </trkpt>
      <trkpt lat="45.16836" lon="5.93916">
        <ele>2012.9</ele>
        <time>2021-02-20T09:35:11Z</time>
      </trkpt>
      <trkpt lat="45.16835" lon="5.93917">
        <ele>2013.1</ele>
        <time>2021-02-20T09:35:12Z</time>
      </trkpt>
      <trkpt lat="45.16834" lon="5.93917">
        <ele>2013.2</ele>
        <time>2021-02-20T09:35:13Z</time>
      </trkpt>
      <trkpt lat="45.16834" lon="5.93917">
        <ele>2013.4</ele>
        <time>2021-02-20T09:35:14Z</time>
      </trkpt>
      <trkpt lat="45.16833" lon="5.93917">
        <ele>2013.5</ele>
        <time>2021-02-20T09:35:15Z</time>
      </trkpt>
      <trkpt lat="45.16832" lon="5.93917">
        <ele>2013.7</ele>
        <time>2021-02-20T09:35:16Z</time>
      </trkpt>
      <trkpt lat="45.16831" lon="5.93918">
        <ele>2013.8</ele>
        <time>2021-02-20T09:35:17Z</time>
      </trkpt>
      <trkpt lat="45.1683" lon="5.93918">
        <ele>2013.9</ele>
        <time>2021-02-20T09:35:18Z</time>
      </trkpt>
      <trkpt lat="45.1683" lon="5.93918">
        <ele>2014</ele>
        <time>2021-02-20T09:35:19Z</time>
      </trkpt>
      <trkpt lat="45.16829" lon="5.93918">
        <ele>2014.1</ele>
        <time>2021-02-20T09:35:20Z</time>
      </trkpt>
      <trkpt lat="45.16828" lon="5.93918">
        <ele>2014.3</ele>
        <time>2021-02-20T09:35:21Z</time>
      </trkpt>
      <trkpt lat="45.16827" lon="5.93919">
        <ele>2014.4</ele>
        <time>2021-02-20T09:35:22Z</time>
      </trkpt>
      <trkpt lat="45.16826" lon="5.93919">
        <ele>2014.6</ele>
        <time>2021-02-20T09:35:23Z</time>
      </trkpt>
      <trkpt lat="45.16825" lon="5.93919">
        <ele>2014.8</ele>
        <time>2021-02-20T09:35:24Z</time>
      </trkpt>
      <trkpt lat="45.16823" lon="5.93919">
        <ele>2015.1</ele>
        <time>2021-02-20T09:35:25Z</time>
      </trkpt>
      <trkpt lat="45.16822" lon="5.93918">
        <ele>2015.2</ele>
        <time>2021-02-20T09:35:26Z</time>
      </trkpt>
      <trkpt lat="45.16821" lon="5.93918">
        <ele>2015.4</ele>
        <time>2021-02-20T09:35:27Z</time>
      </trkpt>
      <trkpt lat="45.16819" lon="5.93917">
        <ele>2015.8</ele>
        <time>2021-02-20T09:35:28Z</time>
      </trkpt>
      <trkpt lat="45.16818" lon="5.93916">
        <ele>2015.9</ele>
        <time>2021-02-20T09:35:29Z</time>
      </trkpt>
      <trkpt lat="45.16817" lon="5.93916">
        <ele>2016.1</ele>
        <time>2021-02-20T09:35:30Z</time>
      </trkpt>
      <trkpt lat="45.16816" lon="5.93916">
        <ele>2016.3</ele>
        <time>2021-02-20T09:35:31Z</time>
      </trkpt>
      <trkpt lat="45.16816" lon="5.93915">
        <ele>2016.4</ele>
        <time>2021-02-20T09:35:32Z</time>
      </trkpt>
      <trkpt lat="45.16815" lon="5.93915">
        <ele>2016.6</ele>
        <time>2021-02-20T09:35:33Z</time>
      </trkpt>
      <trkpt lat="45.16814" lon="5.93915">
        <ele>2016.7</ele>
        <time>2021-02-20T09:35:34Z</time>
      </trkpt>
      <trkpt lat="45.16814" lon="5.93914">
        <ele>2016.9</ele>
        <time>2021-02-20T09:35:35Z</time>
      </trkpt>
      <trkpt lat="45.16812" lon="5.93914">
        <ele>2017.1</ele>
        <time>2021-02-20T09:35:36Z</time>
      </trkpt>
      <trkpt lat="45.16811" lon="5.93913">
        <ele>2017.4</ele>
        <time>2021-02-20T09:35:37Z</time>
      </trkpt>
      <trkpt lat="45.1681" lon="5.93913">
        <ele>2017.6</ele>
        <time>2021-02-20T09:35:38Z</time>
      </trkpt>
      <trkpt lat="45.16809" lon="5.93912">
        <ele>2017.9</ele>
        <time>2021-02-20T09:35:39Z</time>
      </trkpt>
      <trkpt lat="45.16808" lon="5.93911">
        <ele>2018.1</ele>
        <time>2021-02-20T09:35:40Z</time>
      </trkpt>
      <trkpt lat="45.16807" lon="5.9391">
        <ele>2018.5</ele>
        <time>2021-02-20T09:35:41Z</time>
      </trkpt>
      <trkpt lat="45.16806" lon="5.93908">
        <ele>2018.8</ele>
        <time>2021-02-20T09:35:42Z</time>
      </trkpt>
      <trkpt lat="45.16804" lon="5.93906">
        <ele>2019.4</ele>
        <time>2021-02-20T09:35:43Z</time>
      </trkpt>
      <trkpt lat="45.16804" lon="5.93905">
        <ele>2019.6</ele>
        <time>2021-02-20T09:35:44Z</time>
      </trkpt>
      <trkpt lat="45.16803" lon="5.93905">
        <ele>2019.8</ele>
        <time>2021-02-20T09:35:45Z</time>
      </trkpt>
      <trkpt lat="45.16802" lon="5.93904">
        <ele>2020.1</ele>
        <time>2021-02-20T09:35:46Z</time>
      </trkpt>
      <trkpt lat="45.16802" lon="5.93903">
        <ele>2020.3</ele>
        <time>2021-02-20T09:35:47Z</time>
      </trkpt>
      <trkpt lat="45.16801" lon="5.93902">
        <ele>2020.6</ele>
        <time>2021-02-20T09:35:48Z</time>
      </trkpt>
      <trkpt lat="45.168" lon="5.93901">
        <ele>2020.8</ele>
        <time>2021-02-20T09:35:49Z</time>
      </trkpt>
      <trkpt lat="45.16799" lon="5.939">
        <ele>2021.1</ele>
        <time>2021-02-20T09:35:50Z</time>
      </trkpt>
      <trkpt lat="45.16799" lon="5.93899">
        <ele>2021.3</ele>
        <time>2021-02-20T09:35:51Z</time>
      </trkpt>
      <trkpt lat="45.16798" lon="5.93898">
        <ele>2021.6</ele>
        <time>2021-02-20T09:35:52Z</time>
      </trkpt>
      <trkpt lat="45.16797" lon="5.93897">
        <ele>2021.9</ele>
        <time>2021-02-20T09:35:53Z</time>
      </trkpt>
      <trkpt lat="45.16797" lon="5.93896">
        <ele>2022.1</ele>
        <time>2021-02-20T09:35:54Z</time>
      </trkpt>
      <trkpt lat="45.16796" lon="5.93895">
        <ele>2022.3</ele>
        <time>2021-02-20T09:35:55Z</time>
      </trkpt>
      <trkpt lat="45.16795" lon="5.93894">
        <ele>2022.6</ele>
        <time>2021-02-20T09:35:56Z</time>
      </trkpt>
      <trkpt lat="45.16795" lon="5.93893">
        <ele>2022.8</ele>
        <time>2021-02-20T09:35:57Z</time>
      </trkpt>
      <trkpt lat="45.16794" lon="5.93893">
        <ele>2022.9</ele>
        <time>2021-02-20T09:35:58Z</time>
      </trkpt>
      <trkpt lat="45.16794" lon="5.93892">
        <ele>2023.1</ele>
        <time>2021-02-20T09:35:59Z</time>
      </trkpt>
      <trkpt lat="45.16793" lon="5.93892">
        <ele>2023.3</ele>
        <time>2021-02-20T09:36:00Z</time>
      </trkpt>
      <trkpt lat="45.16792" lon="5.93891">
        <ele>2023.5</ele>
        <time>2021-02-20T09:36:01Z</time>
      </trkpt>
      <trkpt lat="45.16791" lon="5.93891">
        <ele>2023.7</ele>
        <time>2021-02-20T09:36:02Z</time>
      </trkpt>
      <trkpt lat="45.16791" lon="5.9389">
        <ele>2023.9</ele>
        <time>2021-02-20T09:36:03Z</time>
      </trkpt>
      <trkpt lat="45.1679" lon="5.9389">
        <ele>2024.1</ele>
        <time>2021-02-20T09:36:04Z</time>
      </trkpt>
      <trkpt lat="45.1679" lon="5.93889">
        <ele>2024.2</ele>
        <time>2021-02-20T09:36:05Z</time>
      </trkpt>
      <trkpt lat="45.16789" lon="5.93889">
        <ele>2024.3</ele>
        <time>2021-02-20T09:36:06Z</time>
      </trkpt>
      <trkpt lat="45.16788" lon="5.93889">
        <ele>2024.5</ele>
        <time>2021-02-20T09:36:07Z</time>
      </trkpt>
      <trkpt lat="45.16788" lon="5.93889">
        <ele>2024.6</ele>
        <time>2021-02-20T09:36:08Z</time>
      </trkpt>
      <trkpt lat="45.16787" lon="5.93889">
        <ele>2024.8</ele>
        <time>2021-02-20T09:36:09Z</time>
      </trkpt>
      <trkpt lat="45.16787" lon="5.93889">
        <ele>2024.9</ele>
        <time>2021-02-20T09:36:10Z</time>
      </trkpt>
      <trkpt lat="45.16786" lon="5.93889">
        <ele>2025.1</ele>
        <time>2021-02-20T09:36:11Z</time>
      </trkpt>
      <trkpt lat="45.16786" lon="5.93889">
        <ele>2025.2</ele>
        <time>2021-02-20T09:36:12Z</time>
      </trkpt>
      <trkpt lat="45.16785" lon="5.93889">
        <ele>2025.2</ele>
        <time>2021-02-20T09:36:13Z</time>
      </trkpt>
      <trkpt lat="45.16785" lon="5.93889">
        <ele>2025.4</ele>
        <time>2021-02-20T09:36:14Z</time>
      </trkpt>
      <trkpt lat="45.16784" lon="5.93889">
        <ele>2025.5</ele>
        <time>2021-02-20T09:36:15Z</time>
      </trkpt>
      <trkpt lat="45.16784" lon="5.93889">
        <ele>2025.7</ele>
        <time>2021-02-20T09:36:16Z</time>
      </trkpt>
      <trkpt lat="45.16783" lon="5.93889">
        <ele>2025.8</ele>
        <time>2021-02-20T09:36:17Z</time>
      </trkpt>
      <trkpt lat="45.16783" lon="5.93889">
        <ele>2026</ele>
        <time>2021-02-20T09:36:18Z</time>
      </trkpt>
      <trkpt lat="45.16782" lon="5.93889">
        <ele>2026.2</ele>
        <time>2021-02-20T09:36:19Z</time>
      </trkpt>
      <trkpt lat="45.16781" lon="5.9389">
        <ele>2026.3</ele>
        <time>2021-02-20T09:36:20Z</time>
      </trkpt>
      <trkpt lat="45.16781" lon="5.9389">
        <ele>2026.5</ele>
        <time>2021-02-20T09:36:21Z</time>
      </trkpt>
      <trkpt lat="45.1678" lon="5.9389">
        <ele>2026.6</ele>
        <time>2021-02-20T09:36:22Z</time>
      </trkpt>
      <trkpt lat="45.1678" lon="5.9389">
        <ele>2026.7</ele>
        <time>2021-02-20T09:36:23Z</time>
      </trkpt>
      <trkpt lat="45.16779" lon="5.93891">
        <ele>2026.9</ele>
        <time>2021-02-20T09:36:24Z</time>
      </trkpt>
      <trkpt lat="45.16778" lon="5.93891">
        <ele>2027.1</ele>
        <time>2021-02-20T09:36:25Z</time>
      </trkpt>
      <trkpt lat="45.16778" lon="5.93892">
        <ele>2027.2</ele>
        <time>2021-02-20T09:36:26Z</time>
      </trkpt>
      <trkpt lat="45.16777" lon="5.93892">
        <ele>2027.4</ele>
        <time>2021-02-20T09:36:27Z</time>
      </trkpt>
      <trkpt lat="45.16777" lon="5.93892">
        <ele>2027.6</ele>
        <time>2021-02-20T09:36:28Z</time>
      </trkpt>
      <trkpt lat="45.16776" lon="5.93893">
        <ele>2027.7</ele>
        <time>2021-02-20T09:36:29Z</time>
      </trkpt>
      <trkpt lat="45.16776" lon="5.93893">
        <ele>2027.9</ele>
        <time>2021-02-20T09:36:30Z</time>
      </trkpt>
      <trkpt lat="45.16775" lon="5.93894">
        <ele>2028</ele>
        <time>2021-02-20T09:36:31Z</time>
      </trkpt>
      <trkpt lat="45.16775" lon="5.93895">
        <ele>2028.3</ele>
        <time>2021-02-20T09:36:32Z</time>
      </trkpt>
      <trkpt lat="45.16775" lon="5.93896">
        <ele>2028.5</ele>
        <time>2021-02-20T09:36:33Z</time>
      </trkpt>
      <trkpt lat="45.16774" lon="5.93897">
        <ele>2028.7</ele>
        <time>2021-02-20T09:36:34Z</time>
      </trkpt>
      <trkpt lat="45.16774" lon="5.93899">
        <ele>2029</ele>
        <time>2021-02-20T09:36:35Z</time>
      </trkpt>
      <trkpt lat="45.16774" lon="5.939">
        <ele>2029.1</ele>
        <time>2021-02-20T09:36:36Z</time>
      </trkpt>
      <trkpt lat="45.16774" lon="5.93901">
        <ele>2029.3</ele>
        <time>2021-02-20T09:36:37Z</time>
      </trkpt>
      <trkpt lat="45.16774" lon="5.93902">
        <ele>2029.5</ele>
        <time>2021-02-20T09:36:38Z</time>
      </trkpt>
      <trkpt lat="45.16773" lon="5.93903">
        <ele>2029.5</ele>
        <time>2021-02-20T09:36:39Z</time>
      </trkpt>
      <trkpt lat="45.16773" lon="5.93903">
        <ele>2029.5</ele>
        <time>2021-02-20T09:36:40Z</time>
      </trkpt>
      <trkpt lat="45.16773" lon="5.93904">
        <ele>2029.7</ele>
        <time>2021-02-20T09:36:41Z</time>
      </trkpt>
      <trkpt lat="45.16773" lon="5.93904">
        <ele>2029.8</ele>
        <time>2021-02-20T09:36:42Z</time>
      </trkpt>
      <trkpt lat="45.16772" lon="5.93905">
        <ele>2030</ele>
        <time>2021-02-20T09:36:43Z</time>
      </trkpt>
      <trkpt lat="45.16771" lon="5.93906">
        <ele>2030</ele>
        <time>2021-02-20T09:36:44Z</time>
      </trkpt>
      <trkpt lat="45.16771" lon="5.93907">
        <ele>2030.2</ele>
        <time>2021-02-20T09:36:45Z</time>
      </trkpt>
      <trkpt lat="45.1677" lon="5.93908">
        <ele>2030.4</ele>
        <time>2021-02-20T09:36:46Z</time>
      </trkpt>
      <trkpt lat="45.1677" lon="5.9391">
        <ele>2030.6</ele>
        <time>2021-02-20T09:36:47Z</time>
      </trkpt>
      <trkpt lat="45.1677" lon="5.93911">
        <ele>2030.7</ele>
        <time>2021-02-20T09:36:48Z</time>
      </trkpt>
      <trkpt lat="45.16769" lon="5.93912">
        <ele>2030.8</ele>
        <time>2021-02-20T09:36:49Z</time>
      </trkpt>
      <trkpt lat="45.16769" lon="5.93914">
        <ele>2031</ele>
        <time>2021-02-20T09:36:50Z</time>
      </trkpt>
      <trkpt lat="45.16768" lon="5.93915">
        <ele>2031.1</ele>
        <time>2021-02-20T09:36:51Z</time>
      </trkpt>
      <trkpt lat="45.16768" lon="5.93916">
        <ele>2031.2</ele>
        <time>2021-02-20T09:36:52Z</time>
      </trkpt>
      <trkpt lat="45.16768" lon="5.93916">
        <ele>2031.2</ele>
        <time>2021-02-20T09:36:53Z</time>
      </trkpt>
      <trkpt lat="45.16767" lon="5.93917">
        <ele>2031.3</ele>
        <time>2021-02-20T09:36:54Z</time>
      </trkpt>
      <trkpt lat="45.16767" lon="5.93918">
        <ele>2031.4</ele>
        <time>2021-02-20T09:36:55Z</time>
      </trkpt>
      <trkpt lat="45.16767" lon="5.93919">
        <ele>2031.5</ele>
        <time>2021-02-20T09:36:56Z</time>
      </trkpt>
      <trkpt lat="45.16766" lon="5.9392">
        <ele>2031.5</ele>
        <time>2021-02-20T09:36:57Z</time>
      </trkpt>
      <trkpt lat="45.16766" lon="5.93921">
        <ele>2031.6</ele>
        <time>2021-02-20T09:36:58Z</time>
      </trkpt>
      <trkpt lat="45.16765" lon="5.93922">
        <ele>2031.6</ele>
        <time>2021-02-20T09:36:59Z</time>
      </trkpt>
      <trkpt lat="45.16764" lon="5.93923">
        <ele>2031.7</ele>
        <time>2021-02-20T09:37:00Z</time>
      </trkpt>
      <trkpt lat="45.16764" lon="5.93924">
        <ele>2031.8</ele>
        <time>2021-02-20T09:37:01Z</time>
      </trkpt>
      <trkpt lat="45.16763" lon="5.93925">
        <ele>2031.8</ele>
        <time>2021-02-20T09:37:02Z</time>
      </trkpt>
      <trkpt lat="45.16762" lon="5.93926">
        <ele>2031.9</ele>
        <time>2021-02-20T09:37:03Z</time>
      </trkpt>
      <trkpt lat="45.16761" lon="5.93928">
        <ele>2032</ele>
        <time>2021-02-20T09:37:04Z</time>
      </trkpt>
      <trkpt lat="45.16761" lon="5.93928">
        <ele>2032</ele>
        <time>2021-02-20T09:37:05Z</time>
      </trkpt>
      <trkpt lat="45.1676" lon="5.93929">
        <ele>2032</ele>
        <time>2021-02-20T09:37:06Z</time>
      </trkpt>
      <trkpt lat="45.1676" lon="5.9393">
        <ele>2032</ele>
        <time>2021-02-20T09:37:07Z</time>
      </trkpt>
      <trkpt lat="45.16759" lon="5.93931">
        <ele>2032</ele>
        <time>2021-02-20T09:37:08Z</time>
      </trkpt>
      <trkpt lat="45.16759" lon="5.93932">
        <ele>2032</ele>
        <time>2021-02-20T09:37:09Z</time>
      </trkpt>
      <trkpt lat="45.16759" lon="5.93933">
        <ele>2032.1</ele>
        <time>2021-02-20T09:37:10Z</time>
      </trkpt>
      <trkpt lat="45.16758" lon="5.93934">
        <ele>2032.1</ele>
        <time>2021-02-20T09:37:11Z</time>
      </trkpt>
      <trkpt lat="45.16758" lon="5.93935">
        <ele>2032.1</ele>
        <time>2021-02-20T09:37:12Z</time>
      </trkpt>
      <trkpt lat="45.16758" lon="5.93937">
        <ele>2032.1</ele>
        <time>2021-02-20T09:37:13Z</time>
      </trkpt>
      <trkpt lat="45.16757" lon="5.93938">
        <ele>2032.2</ele>
        <time>2021-02-20T09:37:14Z</time>
      </trkpt>
      <trkpt lat="45.16757" lon="5.93939">
        <ele>2032.2</ele>
        <time>2021-02-20T09:37:15Z</time>
      </trkpt>
      <trkpt lat="45.16756" lon="5.9394">
        <ele>2032.2</ele>
        <time>2021-02-20T09:37:16Z</time>
      </trkpt>
      <trkpt lat="45.16756" lon="5.93941">
        <ele>2032.2</ele>
        <time>2021-02-20T09:37:17Z</time>
      </trkpt>
      <trkpt lat="45.16756" lon="5.93942">
        <ele>2032.2</ele>
        <time>2021-02-20T09:37:18Z</time>
      </trkpt>
      <trkpt lat="45.16756" lon="5.93944">
        <ele>2032.2</ele>
        <time>2021-02-20T09:37:19Z</time>
      </trkpt>
      <trkpt lat="45.16755" lon="5.93945">
        <ele>2032.2</ele>
        <time>2021-02-20T09:37:20Z</time>
      </trkpt>
      <trkpt lat="45.16755" lon="5.93946">
        <ele>2032.2</ele>
        <time>2021-02-20T09:37:21Z</time>
      </trkpt>
      <trkpt lat="45.16755" lon="5.93947">
        <ele>2032.2</ele>
        <time>2021-02-20T09:37:22Z</time>
      </trkpt>
      <trkpt lat="45.16755" lon="5.93949">
        <ele>2032.3</ele>
        <time>2021-02-20T09:37:23Z</time>
      </trkpt>
      <trkpt lat="45.16755" lon="5.9395">
        <ele>2032.3</ele>
        <time>2021-02-20T09:37:24Z</time>
      </trkpt>
      <trkpt lat="45.16755" lon="5.93952">
        <ele>2032.3</ele>
        <time>2021-02-20T09:37:25Z</time>
      </trkpt>
      <trkpt lat="45.16755" lon="5.93953">
        <ele>2032.3</ele>
        <time>2021-02-20T09:37:26Z</time>
      </trkpt>
      <trkpt lat="45.16755" lon="5.93954">
        <ele>2032.3</ele>
        <time>2021-02-20T09:37:27Z</time>
      </trkpt>
      <trkpt lat="45.16755" lon="5.93956">
        <ele>2032.3</ele>
        <time>2021-02-20T09:37:28Z</time>
      </trkpt>
      <trkpt lat="45.16754" lon="5.93957">
        <ele>2032.4</ele>
        <time>2021-02-20T09:37:29Z</time>
      </trkpt>
      <trkpt lat="45.16754" lon="5.93958">
        <ele>2032.4</ele>
        <time>2021-02-20T09:37:30Z</time>
      </trkpt>
      <trkpt lat="45.16754" lon="5.9396">
        <ele>2032.5</ele>
        <time>2021-02-20T09:37:31Z</time>
      </trkpt>
      <trkpt lat="45.16754" lon="5.93961">
        <ele>2032.5</ele>
        <time>2021-02-20T09:37:32Z</time>
      </trkpt>
      <trkpt lat="45.16754" lon="5.93963">
        <ele>2032.6</ele>
        <time>2021-02-20T09:37:33Z</time>
      </trkpt>
      <trkpt lat="45.16753" lon="5.93964">
        <ele>2032.6</ele>
        <time>2021-02-20T09:37:34Z</time>
      </trkpt>
      <trkpt lat="45.16753" lon="5.93966">
        <ele>2032.7</ele>
        <time>2021-02-20T09:37:35Z</time>
      </trkpt>
      <trkpt lat="45.16753" lon="5.93967">
        <ele>2032.8</ele>
        <time>2021-02-20T09:37:36Z</time>
      </trkpt>
      <trkpt lat="45.16752" lon="5.93968">
        <ele>2032.8</ele>
        <time>2021-02-20T09:37:37Z</time>
      </trkpt>
      <trkpt lat="45.16752" lon="5.9397">
        <ele>2032.9</ele>
        <time>2021-02-20T09:37:38Z</time>
      </trkpt>
      <trkpt lat="45.16752" lon="5.93971">
        <ele>2032.8</ele>
        <time>2021-02-20T09:37:39Z</time>
      </trkpt>
      <trkpt lat="45.16752" lon="5.93973">
        <ele>2032.9</ele>
        <time>2021-02-20T09:37:40Z</time>
      </trkpt>
      <trkpt lat="45.16751" lon="5.93975">
        <ele>2033</ele>
        <time>2021-02-20T09:37:41Z</time>
      </trkpt>
      <trkpt lat="45.16751" lon="5.93977">
        <ele>2033</ele>
        <time>2021-02-20T09:37:42Z</time>
      </trkpt>
      <trkpt lat="45.1675" lon="5.93978">
        <ele>2033.1</ele>
        <time>2021-02-20T09:37:43Z</time>
      </trkpt>
      <trkpt lat="45.1675" lon="5.93979">
        <ele>2033.1</ele>
        <time>2021-02-20T09:37:44Z</time>
      </trkpt>
      <trkpt lat="45.16749" lon="5.9398">
        <ele>2033.2</ele>
        <time>2021-02-20T09:37:45Z</time>
      </trkpt>
      <trkpt lat="45.16749" lon="5.93981">
        <ele>2033.2</ele>
        <time>2021-02-20T09:37:46Z</time>
      </trkpt>
      <trkpt lat="45.16748" lon="5.93982">
        <ele>2033.3</ele>
        <time>2021-02-20T09:37:47Z</time>
      </trkpt>
      <trkpt lat="45.16748" lon="5.93983">
        <ele>2033.4</ele>
        <time>2021-02-20T09:37:48Z</time>
      </trkpt>
      <trkpt lat="45.16747" lon="5.93984">
        <ele>2033.4</ele>
        <time>2021-02-20T09:37:49Z</time>
      </trkpt>
      <trkpt lat="45.16747" lon="5.93985">
        <ele>2033.4</ele>
        <time>2021-02-20T09:37:50Z</time>
      </trkpt>
      <trkpt lat="45.16746" lon="5.93986">
        <ele>2033.5</ele>
        <time>2021-02-20T09:37:51Z</time>
      </trkpt>
      <trkpt lat="45.16745" lon="5.93987">
        <ele>2033.5</ele>
        <time>2021-02-20T09:37:52Z</time>
      </trkpt>
      <trkpt lat="45.16744" lon="5.93989">
        <ele>2033.6</ele>
        <time>2021-02-20T09:37:53Z</time>
      </trkpt>
      <trkpt lat="45.16744" lon="5.9399">
        <ele>2033.6</ele>
        <time>2021-02-20T09:37:54Z</time>
      </trkpt>
      <trkpt lat="45.16743" lon="5.93991">
        <ele>2033.7</ele>
        <time>2021-02-20T09:37:55Z</time>
      </trkpt>
      <trkpt lat="45.16742" lon="5.93992">
        <ele>2033.7</ele>
        <time>2021-02-20T09:37:56Z</time>
      </trkpt>
      <trkpt lat="45.16741" lon="5.93993">
        <ele>2033.8</ele>
        <time>2021-02-20T09:37:57Z</time>
      </trkpt>
      <trkpt lat="45.16741" lon="5.93994">
        <ele>2033.8</ele>
        <time>2021-02-20T09:37:58Z</time>
      </trkpt>
      <trkpt lat="45.1674" lon="5.93994">
        <ele>2033.9</ele>
        <time>2021-02-20T09:37:59Z</time>
      </trkpt>
      <trkpt lat="45.1674" lon="5.93995">
        <ele>2033.8</ele>
        <time>2021-02-20T09:38:00Z</time>
      </trkpt>
      <trkpt lat="45.16739" lon="5.93996">
        <ele>2033.9</ele>
        <time>2021-02-20T09:38:01Z</time>
      </trkpt>
      <trkpt lat="45.16739" lon="5.93997">
        <ele>2033.9</ele>
        <time>2021-02-20T09:38:02Z</time>
      </trkpt>
      <trkpt lat="45.16738" lon="5.93998">
        <ele>2034</ele>
        <time>2021-02-20T09:38:03Z</time>
      </trkpt>
      <trkpt lat="45.16737" lon="5.94">
        <ele>2034</ele>
        <time>2021-02-20T09:38:04Z</time>
      </trkpt>
      <trkpt lat="45.16736" lon="5.94">
        <ele>2034</ele>
        <time>2021-02-20T09:38:05Z</time>
      </trkpt>
      <trkpt lat="45.16734" lon="5.94002">
        <ele>2034.1</ele>
        <time>2021-02-20T09:38:06Z</time>
      </trkpt>
      <trkpt lat="45.16734" lon="5.94002">
        <ele>2034.2</ele>
        <time>2021-02-20T09:38:07Z</time>
      </trkpt>
      <trkpt lat="45.16733" lon="5.94003">
        <ele>2034.2</ele>
        <time>2021-02-20T09:38:08Z</time>
      </trkpt>
      <trkpt lat="45.16732" lon="5.94004">
        <ele>2034.3</ele>
        <time>2021-02-20T09:38:09Z</time>
      </trkpt>
      <trkpt lat="45.16731" lon="5.94004">
        <ele>2034.3</ele>
        <time>2021-02-20T09:38:10Z</time>
      </trkpt>
      <trkpt lat="45.1673" lon="5.94005">
        <ele>2034.4</ele>
        <time>2021-02-20T09:38:11Z</time>
      </trkpt>
      <trkpt lat="45.16729" lon="5.94005">
        <ele>2034.4</ele>
        <time>2021-02-20T09:38:12Z</time>
      </trkpt>
      <trkpt lat="45.16729" lon="5.94006">
        <ele>2034.5</ele>
        <time>2021-02-20T09:38:13Z</time>
      </trkpt>
      <trkpt lat="45.16728" lon="5.94007">
        <ele>2034.5</ele>
        <time>2021-02-20T09:38:14Z</time>
      </trkpt>
      <trkpt lat="45.16727" lon="5.94008">
        <ele>2034.6</ele>
        <time>2021-02-20T09:38:15Z</time>
      </trkpt>
      <trkpt lat="45.16726" lon="5.94008">
        <ele>2034.7</ele>
        <time>2021-02-20T09:38:16Z</time>
      </trkpt>
      <trkpt lat="45.16725" lon="5.94009">
        <ele>2034.8</ele>
        <time>2021-02-20T09:38:17Z</time>
      </trkpt>
      <trkpt lat="45.16724" lon="5.94009">
        <ele>2034.9</ele>
        <time>2021-02-20T09:38:18Z</time>
      </trkpt>
      <trkpt lat="45.16723" lon="5.9401">
        <ele>2035</ele>
        <time>2021-02-20T09:38:19Z</time>
      </trkpt>
      <trkpt lat="45.16722" lon="5.9401">
        <ele>2035.1</ele>
        <time>2021-02-20T09:38:20Z</time>
      </trkpt>
      <trkpt lat="45.16721" lon="5.94011">
        <ele>2035.2</ele>
        <time>2021-02-20T09:38:21Z</time>
      </trkpt>
      <trkpt lat="45.1672" lon="5.94011">
        <ele>2035.3</ele>
        <time>2021-02-20T09:38:22Z</time>
      </trkpt>
      <trkpt lat="45.16719" lon="5.94012">
        <ele>2035.4</ele>
        <time>2021-02-20T09:38:23Z</time>
      </trkpt>
      <trkpt lat="45.16718" lon="5.94013">
        <ele>2035.6</ele>
        <time>2021-02-20T09:38:24Z</time>
      </trkpt>
      <trkpt lat="45.16717" lon="5.94013">
        <ele>2035.7</ele>
        <time>2021-02-20T09:38:25Z</time>
      </trkpt>
      <trkpt lat="45.16717" lon="5.94014">
        <ele>2035.8</ele>
        <time>2021-02-20T09:38:26Z</time>
      </trkpt>
      <trkpt lat="45.16716" lon="5.94015">
        <ele>2035.9</ele>
        <time>2021-02-20T09:38:27Z</time>
      </trkpt>
      <trkpt lat="45.16715" lon="5.94015">
        <ele>2036.1</ele>
        <time>2021-02-20T09:38:28Z</time>
      </trkpt>
      <trkpt lat="45.16714" lon="5.94016">
        <ele>2036.2</ele>
        <time>2021-02-20T09:38:29Z</time>
      </trkpt>
      <trkpt lat="45.16714" lon="5.94016">
        <ele>2036.3</ele>
        <time>2021-02-20T09:38:30Z</time>
      </trkpt>
      <trkpt lat="45.16713" lon="5.94017">
        <ele>2036.4</ele>
        <time>2021-02-20T09:38:31Z</time>
      </trkpt>
      <trkpt lat="45.16713" lon="5.94018">
        <ele>2036.5</ele>
        <time>2021-02-20T09:38:32Z</time>
      </trkpt>
      <trkpt lat="45.16712" lon="5.94019">
        <ele>2036.7</ele>
        <time>2021-02-20T09:38:33Z</time>
      </trkpt>
      <trkpt lat="45.16711" lon="5.9402">
        <ele>2036.8</ele>
        <time>2021-02-20T09:38:34Z</time>
      </trkpt>
      <trkpt lat="45.1671" lon="5.94021">
        <ele>2037</ele>
        <time>2021-02-20T09:38:35Z</time>
      </trkpt>
      <trkpt lat="45.1671" lon="5.94022">
        <ele>2037.1</ele>
        <time>2021-02-20T09:38:36Z</time>
      </trkpt>
      <trkpt lat="45.16709" lon="5.94022">
        <ele>2037.3</ele>
        <time>2021-02-20T09:38:37Z</time>
      </trkpt>
      <trkpt lat="45.16708" lon="5.94023">
        <ele>2037.5</ele>
        <time>2021-02-20T09:38:38Z</time>
      </trkpt>
      <trkpt lat="45.16707" lon="5.94024">
        <ele>2037.6</ele>
        <time>2021-02-20T09:38:39Z</time>
      </trkpt>
      <trkpt lat="45.16706" lon="5.94025">
        <ele>2037.8</ele>
        <time>2021-02-20T09:38:40Z</time>
      </trkpt>
      <trkpt lat="45.16705" lon="5.94026">
        <ele>2037.9</ele>
        <time>2021-02-20T09:38:41Z</time>
      </trkpt>
      <trkpt lat="45.16704" lon="5.94027">
        <ele>2038.1</ele>
        <time>2021-02-20T09:38:42Z</time>
      </trkpt>
      <trkpt lat="45.16703" lon="5.94028">
        <ele>2038.2</ele>
        <time>2021-02-20T09:38:43Z</time>
      </trkpt>
      <trkpt lat="45.16703" lon="5.94028">
        <ele>2038.3</ele>
        <time>2021-02-20T09:38:44Z</time>
      </trkpt>
      <trkpt lat="45.16703" lon="5.94029">
        <ele>2038.4</ele>
        <time>2021-02-20T09:38:45Z</time>
      </trkpt>
      <trkpt lat="45.16702" lon="5.9403">
        <ele>2038.5</ele>
        <time>2021-02-20T09:38:46Z</time>
      </trkpt>
      <trkpt lat="45.167" lon="5.94032">
        <ele>2038.8</ele>
        <time>2021-02-20T09:38:47Z</time>
      </trkpt>
      <trkpt lat="45.167" lon="5.94033">
        <ele>2038.9</ele>
        <time>2021-02-20T09:38:48Z</time>
      </trkpt>
      <trkpt lat="45.16699" lon="5.94033">
        <ele>2039</ele>
        <time>2021-02-20T09:38:49Z</time>
      </trkpt>
      <trkpt lat="45.16698" lon="5.94035">
        <ele>2039.3</ele>
        <time>2021-02-20T09:38:50Z</time>
      </trkpt>
      <trkpt lat="45.16697" lon="5.94036">
        <ele>2039.4</ele>
        <time>2021-02-20T09:38:51Z</time>
      </trkpt>
      <trkpt lat="45.16696" lon="5.94037">
        <ele>2039.6</ele>
        <time>2021-02-20T09:38:52Z</time>
      </trkpt>
      <trkpt lat="45.16696" lon="5.94038">
        <ele>2039.7</ele>
        <time>2021-02-20T09:38:53Z</time>
      </trkpt>
      <trkpt lat="45.16696" lon="5.94039">
        <ele>2039.8</ele>
        <time>2021-02-20T09:38:54Z</time>
      </trkpt>
      <trkpt lat="45.16695" lon="5.9404">
        <ele>2039.9</ele>
        <time>2021-02-20T09:38:55Z</time>
      </trkpt>
      <trkpt lat="45.16695" lon="5.94041">
        <ele>2040</ele>
        <time>2021-02-20T09:38:56Z</time>
      </trkpt>
      <trkpt lat="45.16694" lon="5.94042">
        <ele>2040.2</ele>
        <time>2021-02-20T09:38:57Z</time>
      </trkpt>
      <trkpt lat="45.16694" lon="5.94043">
        <ele>2040.3</ele>
        <time>2021-02-20T09:38:58Z</time>
      </trkpt>
      <trkpt lat="45.16694" lon="5.94044">
        <ele>2040.4</ele>
        <time>2021-02-20T09:38:59Z</time>
      </trkpt>
      <trkpt lat="45.16693" lon="5.94045">
        <ele>2040.6</ele>
        <time>2021-02-20T09:39:00Z</time>
      </trkpt>
      <trkpt lat="45.16693" lon="5.94046">
        <ele>2040.7</ele>
        <time>2021-02-20T09:39:01Z</time>
      </trkpt>
      <trkpt lat="45.16692" lon="5.94048">
        <ele>2040.9</ele>
        <time>2021-02-20T09:39:02Z</time>
      </trkpt>
      <trkpt lat="45.16691" lon="5.94049">
        <ele>2041.1</ele>
        <time>2021-02-20T09:39:03Z</time>
      </trkpt>
      <trkpt lat="45.16691" lon="5.94051">
        <ele>2041.2</ele>
        <time>2021-02-20T09:39:04Z</time>
      </trkpt>
      <trkpt lat="45.1669" lon="5.94052">
        <ele>2041.3</ele>
        <time>2021-02-20T09:39:05Z</time>
      </trkpt>
      <trkpt lat="45.1669" lon="5.94053">
        <ele>2041.5</ele>
        <time>2021-02-20T09:39:06Z</time>
      </trkpt>
      <trkpt lat="45.1669" lon="5.94055">
        <ele>2041.6</ele>
        <time>2021-02-20T09:39:07Z</time>
      </trkpt>
      <trkpt lat="45.1669" lon="5.94056">
        <ele>2041.7</ele>
        <time>2021-02-20T09:39:08Z</time>
      </trkpt>
      <trkpt lat="45.16689" lon="5.94058">
        <ele>2041.8</ele>
        <time>2021-02-20T09:39:09Z</time>
      </trkpt>
      <trkpt lat="45.16689" lon="5.94059">
        <ele>2041.9</ele>
        <time>2021-02-20T09:39:10Z</time>
      </trkpt>
      <trkpt lat="45.16689" lon="5.9406">
        <ele>2042.1</ele>
        <time>2021-02-20T09:39:11Z</time>
      </trkpt>
      <trkpt lat="45.16688" lon="5.94062">
        <ele>2042.2</ele>
        <time>2021-02-20T09:39:12Z</time>
      </trkpt>
      <trkpt lat="45.16688" lon="5.94063">
        <ele>2042.3</ele>
        <time>2021-02-20T09:39:13Z</time>
      </trkpt>
      <trkpt lat="45.16688" lon="5.94064">
        <ele>2042.4</ele>
        <time>2021-02-20T09:39:14Z</time>
      </trkpt>
      <trkpt lat="45.16687" lon="5.94066">
        <ele>2042.6</ele>
        <time>2021-02-20T09:39:15Z</time>
      </trkpt>
      <trkpt lat="45.16686" lon="5.94067">
        <ele>2042.7</ele>
        <time>2021-02-20T09:39:16Z</time>
      </trkpt>
      <trkpt lat="45.16686" lon="5.94069">
        <ele>2042.9</ele>
        <time>2021-02-20T09:39:17Z</time>
      </trkpt>
      <trkpt lat="45.16685" lon="5.9407">
        <ele>2043</ele>
        <time>2021-02-20T09:39:18Z</time>
      </trkpt>
      <trkpt lat="45.16684" lon="5.94071">
        <ele>2043.1</ele>
        <time>2021-02-20T09:39:19Z</time>
      </trkpt>
      <trkpt lat="45.16684" lon="5.94071">
        <ele>2043.2</ele>
        <time>2021-02-20T09:39:20Z</time>
      </trkpt>
      <trkpt lat="45.16683" lon="5.94072">
        <ele>2043.3</ele>
        <time>2021-02-20T09:39:21Z</time>
      </trkpt>
      <trkpt lat="45.16683" lon="5.94073">
        <ele>2043.4</ele>
        <time>2021-02-20T09:39:22Z</time>
      </trkpt>
      <trkpt lat="45.16682" lon="5.94074">
        <ele>2043.6</ele>
        <time>2021-02-20T09:39:23Z</time>
      </trkpt>
      <trkpt lat="45.16681" lon="5.94075">
        <ele>2043.7</ele>
        <time>2021-02-20T09:39:24Z</time>
      </trkpt>
      <trkpt lat="45.16681" lon="5.94076">
        <ele>2043.9</ele>
        <time>2021-02-20T09:39:25Z</time>
      </trkpt>
      <trkpt lat="45.1668" lon="5.94077">
        <ele>2044</ele>
        <time>2021-02-20T09:39:26Z</time>
      </trkpt>
      <trkpt lat="45.1668" lon="5.94078">
        <ele>2044.1</ele>
        <time>2021-02-20T09:39:27Z</time>
      </trkpt>
      <trkpt lat="45.1668" lon="5.94078">
        <ele>2044.2</ele>
        <time>2021-02-20T09:39:28Z</time>
      </trkpt>
      <trkpt lat="45.16679" lon="5.94079">
        <ele>2044.3</ele>
        <time>2021-02-20T09:39:29Z</time>
      </trkpt>
      <trkpt lat="45.16678" lon="5.9408">
        <ele>2044.5</ele>
        <time>2021-02-20T09:39:30Z</time>
      </trkpt>
      <trkpt lat="45.16678" lon="5.94081">
        <ele>2044.7</ele>
        <time>2021-02-20T09:39:31Z</time>
      </trkpt>
      <trkpt lat="45.16677" lon="5.94082">
        <ele>2044.8</ele>
        <time>2021-02-20T09:39:32Z</time>
      </trkpt>
      <trkpt lat="45.16676" lon="5.94083">
        <ele>2045</ele>
        <time>2021-02-20T09:39:33Z</time>
      </trkpt>
      <trkpt lat="45.16675" lon="5.94084">
        <ele>2045.2</ele>
        <time>2021-02-20T09:39:34Z</time>
      </trkpt>
      <trkpt lat="45.16675" lon="5.94085">
        <ele>2045.4</ele>
        <time>2021-02-20T09:39:35Z</time>
      </trkpt>
      <trkpt lat="45.16674" lon="5.94086">
        <ele>2045.6</ele>
        <time>2021-02-20T09:39:36Z</time>
      </trkpt>
      <trkpt lat="45.16673" lon="5.94087">
        <ele>2045.8</ele>
        <time>2021-02-20T09:39:37Z</time>
      </trkpt>
      <trkpt lat="45.16673" lon="5.94088">
        <ele>2046</ele>
        <time>2021-02-20T09:39:38Z</time>
      </trkpt>
      <trkpt lat="45.16672" lon="5.94089">
        <ele>2046.2</ele>
        <time>2021-02-20T09:39:39Z</time>
      </trkpt>
      <trkpt lat="45.16671" lon="5.94091">
        <ele>2046.4</ele>
        <time>2021-02-20T09:39:40Z</time>
      </trkpt>
      <trkpt lat="45.16671" lon="5.94092">
        <ele>2046.6</ele>
        <time>2021-02-20T09:39:41Z</time>
      </trkpt>
      <trkpt lat="45.1667" lon="5.94093">
        <ele>2046.8</ele>
        <time>2021-02-20T09:39:42Z</time>
      </trkpt>
      <trkpt lat="45.16669" lon="5.94094">
        <ele>2047</ele>
        <time>2021-02-20T09:39:43Z</time>
      </trkpt>
      <trkpt lat="45.16669" lon="5.94095">
        <ele>2047.2</ele>
        <time>2021-02-20T09:39:44Z</time>
      </trkpt>
      <trkpt lat="45.16668" lon="5.94096">
        <ele>2047.4</ele>
        <time>2021-02-20T09:39:45Z</time>
      </trkpt>
      <trkpt lat="45.16667" lon="5.94097">
        <ele>2047.6</ele>
        <time>2021-02-20T09:39:46Z</time>
      </trkpt>
      <trkpt lat="45.16667" lon="5.94098">
        <ele>2047.8</ele>
        <time>2021-02-20T09:39:47Z</time>
      </trkpt>
      <trkpt lat="45.16666" lon="5.94099">
        <ele>2048</ele>
        <time>2021-02-20T09:39:48Z</time>
      </trkpt>
      <trkpt lat="45.16665" lon="5.941">
        <ele>2048.3</ele>
        <time>2021-02-20T09:39:49Z</time>
      </trkpt>
      <trkpt lat="45.16664" lon="5.94101">
        <ele>2048.4</ele>
        <time>2021-02-20T09:39:50Z</time>
      </trkpt>
      <trkpt lat="45.16664" lon="5.94101">
        <ele>2048.6</ele>
        <time>2021-02-20T09:39:51Z</time>
      </trkpt>
      <trkpt lat="45.16663" lon="5.94102">
        <ele>2048.7</ele>
        <time>2021-02-20T09:39:52Z</time>
      </trkpt>
      <trkpt lat="45.16663" lon="5.94102">
        <ele>2048.7</ele>
        <time>2021-02-20T09:39:53Z</time>
      </trkpt>
      <trkpt lat="45.16662" lon="5.94102">
        <ele>2048.8</ele>
        <time>2021-02-20T09:39:54Z</time>
      </trkpt>
      <trkpt lat="45.16663" lon="5.94101">
        <ele>2048.9</ele>
        <time>2021-02-20T09:39:55Z</time>
      </trkpt>
      <trkpt lat="45.16663" lon="5.941">
        <ele>2049</ele>
        <time>2021-02-20T09:39:56Z</time>
      </trkpt>
      <trkpt lat="45.16663" lon="5.941">
        <ele>2049.1</ele>
        <time>2021-02-20T09:39:57Z</time>
      </trkpt>
      <trkpt lat="45.16663" lon="5.941">
        <ele>2049.1</ele>
        <time>2021-02-20T09:39:58Z</time>
      </trkpt>
      <trkpt lat="45.16663" lon="5.941">
        <ele>2049.1</ele>
        <time>2021-02-20T09:39:59Z</time>
      </trkpt>
      <trkpt lat="45.16663" lon="5.941">
        <ele>2049.1</ele>
        <time>2021-02-20T09:40:00Z</time>
      </trkpt>
      <trkpt lat="45.16663" lon="5.941">
        <ele>2049.1</ele>
        <time>2021-02-20T09:40:01Z</time>
      </trkpt>
      <trkpt lat="45.16663" lon="5.941">
        <ele>2049.1</ele>
        <time>2021-02-20T09:40:02Z</time>
      </trkpt>
      <trkpt lat="45.16663" lon="5.941">
        <ele>2049.1</ele>
        <time>2021-02-20T09:40:03Z</time>
      </trkpt>
      <trkpt lat="45.16663" lon="5.941">
        <ele>2049.1</ele>
        <time>2021-02-20T09:40:04Z</time>
      </trkpt>
      <trkpt lat="45.16663" lon="5.941">
        <ele>2049.1</ele>
        <time>2021-02-20T09:40:05Z</time>
      </trkpt>
      <trkpt lat="45.16663" lon="5.941">
        <ele>2049.1</ele>
        <time>2021-02-20T09:40:06Z</time>
      </trkpt>
      <trkpt lat="45.16661" lon="5.94101">
        <ele>2049.5</ele>
        <time>2021-02-20T09:40:07Z</time>
      </trkpt>
      <trkpt lat="45.16661" lon="5.94101">
        <ele>2049.5</ele>
        <time>2021-02-20T09:40:08Z</time>
      </trkpt>
      <trkpt lat="45.16661" lon="5.94101">
        <ele>2049.5</ele>
        <time>2021-02-20T09:40:09Z</time>
      </trkpt>
      <trkpt lat="45.16661" lon="5.94101">
        <ele>2049.5</ele>
        <time>2021-02-20T09:40:10Z</time>
      </trkpt>
      <trkpt lat="45.16661" lon="5.94101">
        <ele>2049.5</ele>
        <time>2021-02-20T09:40:11Z</time>
      </trkpt>
      <trkpt lat="45.16661" lon="5.94101">
        <ele>2049.5</ele>
        <time>2021-02-20T09:40:12Z</time>
      </trkpt>
      <trkpt lat="45.1666" lon="5.941">
        <ele>2049.8</ele>
        <time>2021-02-20T09:40:13Z</time>
      </trkpt>
      <trkpt lat="45.1666" lon="5.941">
        <ele>2049.8</ele>
        <time>2021-02-20T09:40:14Z</time>
      </trkpt>
      <trkpt lat="45.1666" lon="5.941">
        <ele>2049.8</ele>
        <time>2021-02-20T09:40:15Z</time>
      </trkpt>
      <trkpt lat="45.1666" lon="5.94099">
        <ele>2049.9</ele>
        <time>2021-02-20T09:40:16Z</time>
      </trkpt>
      <trkpt lat="45.1666" lon="5.94099">
        <ele>2049.9</ele>
        <time>2021-02-20T09:40:17Z</time>
      </trkpt>
      <trkpt lat="45.1666" lon="5.94099">
        <ele>2049.9</ele>
        <time>2021-02-20T09:40:18Z</time>
      </trkpt>
      <trkpt lat="45.1666" lon="5.94099">
        <ele>2049.9</ele>
        <time>2021-02-20T09:40:19Z</time>
      </trkpt>
      <trkpt lat="45.1666" lon="5.94099">
        <ele>2049.9</ele>
        <time>2021-02-20T09:40:20Z</time>
      </trkpt>
      <trkpt lat="45.1666" lon="5.94099">
        <ele>2049.9</ele>
        <time>2021-02-20T09:40:21Z</time>
      </trkpt>
      <trkpt lat="45.1666" lon="5.94099">
        <ele>2049.9</ele>
        <time>2021-02-20T09:40:22Z</time>
      </trkpt>
      <trkpt lat="45.1666" lon="5.94099">
        <ele>2049.9</ele>
        <time>2021-02-20T09:40:23Z</time>
      </trkpt>
      <trkpt lat="45.1666" lon="5.94099">
        <ele>2049.9</ele>
        <time>2021-02-20T09:40:24Z</time>
      </trkpt>
      <trkpt lat="45.1666" lon="5.94099">
        <ele>2049.9</ele>
        <time>2021-02-20T09:40:25Z</time>
      </trkpt>
      <trkpt lat="45.1666" lon="5.941">
        <ele>2050</ele>
        <time>2021-02-20T09:40:26Z</time>
      </trkpt>
      <trkpt lat="45.1666" lon="5.941">
        <ele>2050</ele>
        <time>2021-02-20T09:40:27Z</time>
      </trkpt>
      <trkpt lat="45.1666" lon="5.941">
        <ele>2050.1</ele>
        <time>2021-02-20T09:40:28Z</time>
      </trkpt>
      <trkpt lat="45.1666" lon="5.94101">
        <ele>2050.1</ele>
        <time>2021-02-20T09:40:29Z</time>
      </trkpt>
      <trkpt lat="45.16661" lon="5.94102">
        <ele>2050.2</ele>
        <time>2021-02-20T09:40:30Z</time>
      </trkpt>
      <trkpt lat="45.16661" lon="5.94102">
        <ele>2050.3</ele>
        <time>2021-02-20T09:40:31Z</time>
      </trkpt>
      <trkpt lat="45.16661" lon="5.94102">
        <ele>2050.3</ele>
        <time>2021-02-20T09:40:32Z</time>
      </trkpt>
      <trkpt lat="45.16662" lon="5.94103">
        <ele>2050.5</ele>
        <time>2021-02-20T09:40:33Z</time>
      </trkpt>
      <trkpt lat="45.16663" lon="5.94103">
        <ele>2050.5</ele>
        <time>2021-02-20T09:40:34Z</time>
      </trkpt>
      <trkpt lat="45.16663" lon="5.94103">
        <ele>2050.5</ele>
        <time>2021-02-20T09:40:35Z</time>
      </trkpt>
      <trkpt lat="45.16663" lon="5.94103">
        <ele>2050.5</ele>
        <time>2021-02-20T09:40:36Z</time>
      </trkpt>
      <trkpt lat="45.16663" lon="5.94103">
        <ele>2050.5</ele>
        <time>2021-02-20T09:40:37Z</time>
      </trkpt>
      <trkpt lat="45.16663" lon="5.94103">
        <ele>2050.5</ele>
        <time>2021-02-20T09:40:38Z</time>
      </trkpt>
      <trkpt lat="45.16663" lon="5.94103">
        <ele>2050.5</ele>
        <time>2021-02-20T09:40:39Z</time>
      </trkpt>
      <trkpt lat="45.16663" lon="5.94103">
        <ele>2050.5</ele>
        <time>2021-02-20T09:40:40Z</time>
      </trkpt>
      <trkpt lat="45.16664" lon="5.94103">
        <ele>2050.8</ele>
        <time>2021-02-20T09:40:41Z</time>
      </trkpt>
      <trkpt lat="45.16664" lon="5.94103">
        <ele>2050.8</ele>
        <time>2021-02-20T09:40:42Z</time>
      </trkpt>
      <trkpt lat="45.16664" lon="5.94103">
        <ele>2050.8</ele>
        <time>2021-02-20T09:40:43Z</time>
      </trkpt>
      <trkpt lat="45.16664" lon="5.94103">
        <ele>2050.8</ele>
        <time>2021-02-20T09:40:44Z</time>
      </trkpt>
      <trkpt lat="45.16664" lon="5.94103">
        <ele>2050.8</ele>
        <time>2021-02-20T09:40:45Z</time>
      </trkpt>
      <trkpt lat="45.16664" lon="5.94103">
        <ele>2050.8</ele>
        <time>2021-02-20T09:40:46Z</time>
      </trkpt>
      <trkpt lat="45.16664" lon="5.94103">
        <ele>2050.8</ele>
        <time>2021-02-20T09:40:47Z</time>
      </trkpt>
      <trkpt lat="45.16664" lon="5.94103">
        <ele>2050.8</ele>
        <time>2021-02-20T09:40:48Z</time>
      </trkpt>
      <trkpt lat="45.16664" lon="5.94103">
        <ele>2050.8</ele>
        <time>2021-02-20T09:40:49Z</time>
      </trkpt>
      <trkpt lat="45.16664" lon="5.94103">
        <ele>2050.8</ele>
        <time>2021-02-20T09:40:50Z</time>
      </trkpt>
      <trkpt lat="45.16664" lon="5.94103">
        <ele>2050.8</ele>
        <time>2021-02-20T09:40:51Z</time>
      </trkpt>
      <trkpt lat="45.16664" lon="5.94103">
        <ele>2050.8</ele>
        <time>2021-02-20T09:40:52Z</time>
      </trkpt>
      <trkpt lat="45.16664" lon="5.94103">
        <ele>2050.8</ele>
        <time>2021-02-20T09:40:53Z</time>
      </trkpt>
      <trkpt lat="45.16664" lon="5.94103">
        <ele>2050.8</ele>
        <time>2021-02-20T09:40:54Z</time>
      </trkpt>
      <trkpt lat="45.16664" lon="5.94103">
        <ele>2050.8</ele>
        <time>2021-02-20T09:40:55Z</time>
      </trkpt>
      <trkpt lat="45.16664" lon="5.94103">
        <ele>2050.8</ele>
        <time>2021-02-20T09:40:56Z</time>
      </trkpt>
      <trkpt lat="45.16664" lon="5.94103">
        <ele>2050.8</ele>
        <time>2021-02-20T09:40:57Z</time>
      </trkpt>
      <trkpt lat="45.16664" lon="5.94103">
        <ele>2050.8</ele>
        <time>2021-02-20T09:40:58Z</time>
      </trkpt>
      <trkpt lat="45.16664" lon="5.94103">
        <ele>2050.8</ele>
        <time>2021-02-20T09:40:59Z</time>
      </trkpt>
      <trkpt lat="45.16664" lon="5.94103">
        <ele>2050.8</ele>
        <time>2021-02-20T09:41:00Z</time>
      </trkpt>
      <trkpt lat="45.16664" lon="5.94103">
        <ele>2050.8</ele>
        <time>2021-02-20T09:41:01Z</time>
      </trkpt>
      <trkpt lat="45.16664" lon="5.94103">
        <ele>2050.8</ele>
        <time>2021-02-20T09:41:02Z</time>
      </trkpt>
      <trkpt lat="45.16664" lon="5.94103">
        <ele>2050.8</ele>
        <time>2021-02-20T09:41:03Z</time>
      </trkpt>
      <trkpt lat="45.16664" lon="5.94103">
        <ele>2050.8</ele>
        <time>2021-02-20T09:41:04Z</time>
      </trkpt>
      <trkpt lat="45.16664" lon="5.94103">
        <ele>2050.8</ele>
        <time>2021-02-20T09:41:05Z</time>
      </trkpt>
      <trkpt lat="45.16664" lon="5.94103">
        <ele>2050.8</ele>
        <time>2021-02-20T09:41:06Z</time>
      </trkpt>
      <trkpt lat="45.16664" lon="5.94103">
        <ele>2050.8</ele>
        <time>2021-02-20T09:41:07Z</time>
      </trkpt>
      <trkpt lat="45.16664" lon="5.94103">
        <ele>2050.8</ele>
        <time>2021-02-20T09:41:08Z</time>
      </trkpt>
      <trkpt lat="45.16664" lon="5.94103">
        <ele>2050.8</ele>
        <time>2021-02-20T09:41:09Z</time>
      </trkpt>
      <trkpt lat="45.16664" lon="5.94103">
        <ele>2050.8</ele>
        <time>2021-02-20T09:41:10Z</time>
      </trkpt>
      <trkpt lat="45.16664" lon="5.94103">
        <ele>2050.8</ele>
        <time>2021-02-20T09:41:11Z</time>
      </trkpt>
      <trkpt lat="45.16664" lon="5.94103">
        <ele>2050.8</ele>
        <time>2021-02-20T09:41:12Z</time>
      </trkpt>
      <trkpt lat="45.16664" lon="5.94103">
        <ele>2050.8</ele>
        <time>2021-02-20T09:41:13Z</time>
      </trkpt>
      <trkpt lat="45.16664" lon="5.94103">
        <ele>2050.8</ele>
        <time>2021-02-20T09:41:14Z</time>
      </trkpt>
      <trkpt lat="45.16664" lon="5.94103">
        <ele>2050.8</ele>
        <time>2021-02-20T09:41:15Z</time>
      </trkpt>
      <trkpt lat="45.16664" lon="5.94103">
        <ele>2050.8</ele>
        <time>2021-02-20T09:41:16Z</time>
      </trkpt>
      <trkpt lat="45.16664" lon="5.94103">
        <ele>2050.8</ele>
        <time>2021-02-20T09:41:17Z</time>
      </trkpt>
      <trkpt lat="45.16664" lon="5.94103">
        <ele>2050.8</ele>
        <time>2021-02-20T09:41:18Z</time>
      </trkpt>
      <trkpt lat="45.16664" lon="5.94103">
        <ele>2050.8</ele>
        <time>2021-02-20T09:41:19Z</time>
      </trkpt>
      <trkpt lat="45.16664" lon="5.94103">
        <ele>2050.8</ele>
        <time>2021-02-20T09:41:20Z</time>
      </trkpt>
      <trkpt lat="45.16664" lon="5.94103">
        <ele>2050.8</ele>
        <time>2021-02-20T09:41:21Z</time>
      </trkpt>
      <trkpt lat="45.16664" lon="5.94103">
        <ele>2050.8</ele>
        <time>2021-02-20T09:41:22Z</time>
      </trkpt>
      <trkpt lat="45.16664" lon="5.94103">
        <ele>2050.8</ele>
        <time>2021-02-20T09:41:23Z</time>
      </trkpt>
      <trkpt lat="45.16664" lon="5.94103">
        <ele>2050.8</ele>
        <time>2021-02-20T09:41:24Z</time>
      </trkpt>
      <trkpt lat="45.16664" lon="5.94103">
        <ele>2050.8</ele>
        <time>2021-02-20T09:41:25Z</time>
      </trkpt>
      <trkpt lat="45.16664" lon="5.94103">
        <ele>2050.8</ele>
        <time>2021-02-20T09:41:26Z</time>
      </trkpt>
      <trkpt lat="45.16664" lon="5.94103">
        <ele>2050.8</ele>
        <time>2021-02-20T09:41:27Z</time>
      </trkpt>
      <trkpt lat="45.16664" lon="5.94103">
        <ele>2050.8</ele>
        <time>2021-02-20T09:41:28Z</time>
      </trkpt>
      <trkpt lat="45.16664" lon="5.94103">
        <ele>2050.8</ele>
        <time>2021-02-20T09:41:29Z</time>
      </trkpt>
      <trkpt lat="45.16664" lon="5.94103">
        <ele>2050.8</ele>
        <time>2021-02-20T09:41:30Z</time>
      </trkpt>
      <trkpt lat="45.16664" lon="5.94103">
        <ele>2050.8</ele>
        <time>2021-02-20T09:41:31Z</time>
      </trkpt>
      <trkpt lat="45.16664" lon="5.94103">
        <ele>2050.8</ele>
        <time>2021-02-20T09:41:32Z</time>
      </trkpt>
      <trkpt lat="45.16664" lon="5.94103">
        <ele>2050.8</ele>
        <time>2021-02-20T09:41:33Z</time>
      </trkpt>
      <trkpt lat="45.16664" lon="5.94103">
        <ele>2050.8</ele>
        <time>2021-02-20T09:41:34Z</time>
      </trkpt>
      <trkpt lat="45.16664" lon="5.94103">
        <ele>2050.8</ele>
        <time>2021-02-20T09:41:35Z</time>
      </trkpt>
      <trkpt lat="45.16664" lon="5.94103">
        <ele>2050.8</ele>
        <time>2021-02-20T09:41:36Z</time>
      </trkpt>
      <trkpt lat="45.16664" lon="5.94103">
        <ele>2050.8</ele>
        <time>2021-02-20T09:41:37Z</time>
      </trkpt>
      <trkpt lat="45.16664" lon="5.94103">
        <ele>2050.8</ele>
        <time>2021-02-20T09:41:38Z</time>
      </trkpt>
      <trkpt lat="45.16664" lon="5.94103">
        <ele>2050.8</ele>
        <time>2021-02-20T09:41:39Z</time>
      </trkpt>
      <trkpt lat="45.16664" lon="5.94103">
        <ele>2050.8</ele>
        <time>2021-02-20T09:41:40Z</time>
      </trkpt>
      <trkpt lat="45.16664" lon="5.94103">
        <ele>2050.8</ele>
        <time>2021-02-20T09:41:41Z</time>
      </trkpt>
      <trkpt lat="45.16663" lon="5.94102">
        <ele>2050.9</ele>
        <time>2021-02-20T09:41:42Z</time>
      </trkpt>
      <trkpt lat="45.16663" lon="5.94102">
        <ele>2050.9</ele>
        <time>2021-02-20T09:41:43Z</time>
      </trkpt>
      <trkpt lat="45.16663" lon="5.94102">
        <ele>2050.9</ele>
        <time>2021-02-20T09:41:44Z</time>
      </trkpt>
      <trkpt lat="45.16663" lon="5.94102">
        <ele>2050.9</ele>
        <time>2021-02-20T09:41:45Z</time>
      </trkpt>
      <trkpt lat="45.16663" lon="5.94102">
        <ele>2050.9</ele>
        <time>2021-02-20T09:41:46Z</time>
      </trkpt>
      <trkpt lat="45.16663" lon="5.94102">
        <ele>2050.9</ele>
        <time>2021-02-20T09:41:47Z</time>
      </trkpt>
      <trkpt lat="45.16663" lon="5.94102">
        <ele>2050.9</ele>
        <time>2021-02-20T09:41:48Z</time>
      </trkpt>
      <trkpt lat="45.16663" lon="5.94102">
        <ele>2050.9</ele>
        <time>2021-02-20T09:41:49Z</time>
      </trkpt>
      <trkpt lat="45.16663" lon="5.94102">
        <ele>2050.9</ele>
        <time>2021-02-20T09:41:50Z</time>
      </trkpt>
      <trkpt lat="45.16663" lon="5.94102">
        <ele>2050.9</ele>
        <time>2021-02-20T09:41:51Z</time>
      </trkpt>
      <trkpt lat="45.16663" lon="5.94102">
        <ele>2050.9</ele>
        <time>2021-02-20T09:41:52Z</time>
      </trkpt>
      <trkpt lat="45.16663" lon="5.94102">
        <ele>2050.9</ele>
        <time>2021-02-20T09:41:53Z</time>
      </trkpt>
      <trkpt lat="45.16663" lon="5.94102">
        <ele>2050.9</ele>
        <time>2021-02-20T09:41:54Z</time>
      </trkpt>
      <trkpt lat="45.16663" lon="5.94102">
        <ele>2050.9</ele>
        <time>2021-02-20T09:41:55Z</time>
      </trkpt>
      <trkpt lat="45.16663" lon="5.94102">
        <ele>2050.9</ele>
        <time>2021-02-20T09:41:56Z</time>
      </trkpt>
      <trkpt lat="45.16663" lon="5.94102">
        <ele>2050.9</ele>
        <time>2021-02-20T09:41:57Z</time>
      </trkpt>
      <trkpt lat="45.16663" lon="5.94102">
        <ele>2050.9</ele>
        <time>2021-02-20T09:41:58Z</time>
      </trkpt>
      <trkpt lat="45.16663" lon="5.94102">
        <ele>2050.9</ele>
        <time>2021-02-20T09:41:59Z</time>
      </trkpt>
      <trkpt lat="45.16663" lon="5.94102">
        <ele>2050.9</ele>
        <time>2021-02-20T09:42:00Z</time>
      </trkpt>
      <trkpt lat="45.16663" lon="5.94102">
        <ele>2050.9</ele>
        <time>2021-02-20T09:42:01Z</time>
      </trkpt>
      <trkpt lat="45.16663" lon="5.94102">
        <ele>2050.9</ele>
        <time>2021-02-20T09:42:02Z</time>
      </trkpt>
      <trkpt lat="45.16663" lon="5.94102">
        <ele>2050.9</ele>
        <time>2021-02-20T09:42:03Z</time>
      </trkpt>
      <trkpt lat="45.16663" lon="5.94102">
        <ele>2050.9</ele>
        <time>2021-02-20T09:42:04Z</time>
      </trkpt>
      <trkpt lat="45.16663" lon="5.94102">
        <ele>2050.9</ele>
        <time>2021-02-20T09:42:05Z</time>
      </trkpt>
      <trkpt lat="45.16663" lon="5.94102">
        <ele>2050.9</ele>
        <time>2021-02-20T09:42:06Z</time>
      </trkpt>
      <trkpt lat="45.16663" lon="5.94102">
        <ele>2050.9</ele>
        <time>2021-02-20T09:42:07Z</time>
      </trkpt>
      <trkpt lat="45.16663" lon="5.94102">
        <ele>2050.9</ele>
        <time>2021-02-20T09:42:08Z</time>
      </trkpt>
      <trkpt lat="45.16663" lon="5.94102">
        <ele>2050.9</ele>
        <time>2021-02-20T09:42:09Z</time>
      </trkpt>
      <trkpt lat="45.16663" lon="5.94102">
        <ele>2050.9</ele>
        <time>2021-02-20T09:42:10Z</time>
      </trkpt>
      <trkpt lat="45.16663" lon="5.94102">
        <ele>2050.9</ele>
        <time>2021-02-20T09:42:11Z</time>
      </trkpt>
      <trkpt lat="45.16663" lon="5.94102">
        <ele>2050.9</ele>
        <time>2021-02-20T09:42:12Z</time>
      </trkpt>
      <trkpt lat="45.16663" lon="5.94102">
        <ele>2050.9</ele>
        <time>2021-02-20T09:42:13Z</time>
      </trkpt>
      <trkpt lat="45.16663" lon="5.94102">
        <ele>2050.9</ele>
        <time>2021-02-20T09:42:14Z</time>
      </trkpt>
      <trkpt lat="45.16663" lon="5.94102">
        <ele>2050.9</ele>
        <time>2021-02-20T09:42:15Z</time>
      </trkpt>
      <trkpt lat="45.16663" lon="5.94102">
        <ele>2050.9</ele>
        <time>2021-02-20T09:42:16Z</time>
      </trkpt>
      <trkpt lat="45.16663" lon="5.94102">
        <ele>2050.9</ele>
        <time>2021-02-20T09:42:17Z</time>
      </trkpt>
      <trkpt lat="45.16663" lon="5.94102">
        <ele>2050.9</ele>
        <time>2021-02-20T09:42:18Z</time>
      </trkpt>
      <trkpt lat="45.16663" lon="5.94102">
        <ele>2050.9</ele>
        <time>2021-02-20T09:42:19Z</time>
      </trkpt>
      <trkpt lat="45.16663" lon="5.94102">
        <ele>2050.9</ele>
        <time>2021-02-20T09:42:20Z</time>
      </trkpt>
      <trkpt lat="45.16663" lon="5.94102">
        <ele>2050.9</ele>
        <time>2021-02-20T09:42:21Z</time>
      </trkpt>
      <trkpt lat="45.16663" lon="5.94102">
        <ele>2050.9</ele>
        <time>2021-02-20T09:42:22Z</time>
      </trkpt>
      <trkpt lat="45.16663" lon="5.94102">
        <ele>2050.9</ele>
        <time>2021-02-20T09:42:23Z</time>
      </trkpt>
      <trkpt lat="45.16663" lon="5.94102">
        <ele>2050.9</ele>
        <time>2021-02-20T09:42:24Z</time>
      </trkpt>
      <trkpt lat="45.16663" lon="5.94102">
        <ele>2050.9</ele>
        <time>2021-02-20T09:42:25Z</time>
      </trkpt>
      <trkpt lat="45.16663" lon="5.94102">
        <ele>2050.9</ele>
        <time>2021-02-20T09:42:26Z</time>
      </trkpt>
      <trkpt lat="45.16663" lon="5.94102">
        <ele>2050.9</ele>
        <time>2021-02-20T09:42:27Z</time>
      </trkpt>
      <trkpt lat="45.16663" lon="5.94102">
        <ele>2050.9</ele>
        <time>2021-02-20T09:42:28Z</time>
      </trkpt>
      <trkpt lat="45.16663" lon="5.94102">
        <ele>2050.9</ele>
        <time>2021-02-20T09:42:29Z</time>
      </trkpt>
      <trkpt lat="45.16663" lon="5.94102">
        <ele>2050.9</ele>
        <time>2021-02-20T09:42:30Z</time>
      </trkpt>
      <trkpt lat="45.16663" lon="5.94102">
        <ele>2050.9</ele>
        <time>2021-02-20T09:42:31Z</time>
      </trkpt>
      <trkpt lat="45.16663" lon="5.94102">
        <ele>2050.9</ele>
        <time>2021-02-20T09:42:32Z</time>
      </trkpt>
      <trkpt lat="45.16663" lon="5.94102">
        <ele>2050.9</ele>
        <time>2021-02-20T09:42:33Z</time>
      </trkpt>
      <trkpt lat="45.16663" lon="5.94102">
        <ele>2050.9</ele>
        <time>2021-02-20T09:42:34Z</time>
      </trkpt>
      <trkpt lat="45.16663" lon="5.94102">
        <ele>2050.9</ele>
        <time>2021-02-20T09:42:35Z</time>
      </trkpt>
      <trkpt lat="45.16663" lon="5.94102">
        <ele>2050.9</ele>
        <time>2021-02-20T09:42:36Z</time>
      </trkpt>
      <trkpt lat="45.16663" lon="5.94102">
        <ele>2050.9</ele>
        <time>2021-02-20T09:42:37Z</time>
      </trkpt>
      <trkpt lat="45.16662" lon="5.94101">
        <ele>2051.1</ele>
        <time>2021-02-20T09:42:38Z</time>
      </trkpt>
      <trkpt lat="45.16663" lon="5.94101">
        <ele>2051.2</ele>
        <time>2021-02-20T09:42:39Z</time>
      </trkpt>
      <trkpt lat="45.16663" lon="5.94101">
        <ele>2051.2</ele>
        <time>2021-02-20T09:42:40Z</time>
      </trkpt>
      <trkpt lat="45.16663" lon="5.94101">
        <ele>2051.2</ele>
        <time>2021-02-20T09:42:41Z</time>
      </trkpt>
      <trkpt lat="45.16663" lon="5.94101">
        <ele>2051.3</ele>
        <time>2021-02-20T09:42:42Z</time>
      </trkpt>
      <trkpt lat="45.16663" lon="5.94101">
        <ele>2051.3</ele>
        <time>2021-02-20T09:42:43Z</time>
      </trkpt>
      <trkpt lat="45.16663" lon="5.94101">
        <ele>2051.3</ele>
        <time>2021-02-20T09:42:44Z</time>
      </trkpt>
      <trkpt lat="45.16663" lon="5.94101">
        <ele>2051.3</ele>
        <time>2021-02-20T09:42:45Z</time>
      </trkpt>
      <trkpt lat="45.16663" lon="5.94101">
        <ele>2051.3</ele>
        <time>2021-02-20T09:42:46Z</time>
      </trkpt>
      <trkpt lat="45.16663" lon="5.94101">
        <ele>2051.3</ele>
        <time>2021-02-20T09:42:47Z</time>
      </trkpt>
      <trkpt lat="45.16663" lon="5.94101">
        <ele>2051.3</ele>
        <time>2021-02-20T09:42:48Z</time>
      </trkpt>
      <trkpt lat="45.16663" lon="5.94101">
        <ele>2051.3</ele>
        <time>2021-02-20T09:42:49Z</time>
      </trkpt>
      <trkpt lat="45.16663" lon="5.94101">
        <ele>2051.3</ele>
        <time>2021-02-20T09:42:50Z</time>
      </trkpt>
      <trkpt lat="45.16663" lon="5.94101">
        <ele>2051.3</ele>
        <time>2021-02-20T09:42:51Z</time>
      </trkpt>
      <trkpt lat="45.16663" lon="5.94101">
        <ele>2051.3</ele>
        <time>2021-02-20T09:42:52Z</time>
      </trkpt>
      <trkpt lat="45.16663" lon="5.94101">
        <ele>2051.3</ele>
        <time>2021-02-20T09:42:53Z</time>
      </trkpt>
      <trkpt lat="45.16663" lon="5.94101">
        <ele>2051.3</ele>
        <time>2021-02-20T09:42:54Z</time>
      </trkpt>
      <trkpt lat="45.16663" lon="5.94101">
        <ele>2051.3</ele>
        <time>2021-02-20T09:42:55Z</time>
      </trkpt>
      <trkpt lat="45.16663" lon="5.94101">
        <ele>2051.3</ele>
        <time>2021-02-20T09:42:56Z</time>
      </trkpt>
      <trkpt lat="45.16663" lon="5.94101">
        <ele>2051.3</ele>
        <time>2021-02-20T09:42:57Z</time>
      </trkpt>
      <trkpt lat="45.16663" lon="5.94101">
        <ele>2051.3</ele>
        <time>2021-02-20T09:42:58Z</time>
      </trkpt>
      <trkpt lat="45.16663" lon="5.94101">
        <ele>2051.3</ele>
        <time>2021-02-20T09:42:59Z</time>
      </trkpt>
      <trkpt lat="45.16663" lon="5.94101">
        <ele>2051.3</ele>
        <time>2021-02-20T09:43:00Z</time>
      </trkpt>
      <trkpt lat="45.16663" lon="5.94101">
        <ele>2051.3</ele>
        <time>2021-02-20T09:43:01Z</time>
      </trkpt>
      <trkpt lat="45.16663" lon="5.94101">
        <ele>2051.3</ele>
        <time>2021-02-20T09:43:02Z</time>
      </trkpt>
      <trkpt lat="45.16663" lon="5.94101">
        <ele>2051.3</ele>
        <time>2021-02-20T09:43:03Z</time>
      </trkpt>
      <trkpt lat="45.16663" lon="5.94101">
        <ele>2051.3</ele>
        <time>2021-02-20T09:43:04Z</time>
      </trkpt>
      <trkpt lat="45.16663" lon="5.94101">
        <ele>2051.3</ele>
        <time>2021-02-20T09:43:05Z</time>
      </trkpt>
      <trkpt lat="45.16663" lon="5.94101">
        <ele>2051.3</ele>
        <time>2021-02-20T09:43:06Z</time>
      </trkpt>
      <trkpt lat="45.16663" lon="5.94101">
        <ele>2051.3</ele>
        <time>2021-02-20T09:43:07Z</time>
      </trkpt>
      <trkpt lat="45.16663" lon="5.94101">
        <ele>2051.3</ele>
        <time>2021-02-20T09:43:08Z</time>
      </trkpt>
      <trkpt lat="45.16663" lon="5.94101">
        <ele>2051.3</ele>
        <time>2021-02-20T09:43:09Z</time>
      </trkpt>
      <trkpt lat="45.16663" lon="5.94101">
        <ele>2051.3</ele>
        <time>2021-02-20T09:43:10Z</time>
      </trkpt>
      <trkpt lat="45.16663" lon="5.94101">
        <ele>2051.3</ele>
        <time>2021-02-20T09:43:11Z</time>
      </trkpt>
      <trkpt lat="45.16663" lon="5.94101">
        <ele>2051.3</ele>
        <time>2021-02-20T09:43:12Z</time>
      </trkpt>
      <trkpt lat="45.16663" lon="5.94101">
        <ele>2051.3</ele>
        <time>2021-02-20T09:43:13Z</time>
      </trkpt>
      <trkpt lat="45.16663" lon="5.94101">
        <ele>2051.3</ele>
        <time>2021-02-20T09:43:14Z</time>
      </trkpt>
      <trkpt lat="45.16663" lon="5.94101">
        <ele>2051.3</ele>
        <time>2021-02-20T09:43:15Z</time>
      </trkpt>
      <trkpt lat="45.16663" lon="5.94101">
        <ele>2051.3</ele>
        <time>2021-02-20T09:43:16Z</time>
      </trkpt>
      <trkpt lat="45.16663" lon="5.94101">
        <ele>2051.3</ele>
        <time>2021-02-20T09:43:17Z</time>
      </trkpt>
      <trkpt lat="45.16663" lon="5.94101">
        <ele>2051.3</ele>
        <time>2021-02-20T09:43:18Z</time>
      </trkpt>
      <trkpt lat="45.16663" lon="5.94101">
        <ele>2051.3</ele>
        <time>2021-02-20T09:43:19Z</time>
      </trkpt>
      <trkpt lat="45.16663" lon="5.94101">
        <ele>2051.3</ele>
        <time>2021-02-20T09:43:20Z</time>
      </trkpt>
      <trkpt lat="45.16663" lon="5.94101">
        <ele>2051.3</ele>
        <time>2021-02-20T09:43:21Z</time>
      </trkpt>
      <trkpt lat="45.16663" lon="5.94101">
        <ele>2051.3</ele>
        <time>2021-02-20T09:43:22Z</time>
      </trkpt>
      <trkpt lat="45.16664" lon="5.94101">
        <ele>2051.4</ele>
        <time>2021-02-20T09:43:37Z</time>
      </trkpt>
      <trkpt lat="45.16664" lon="5.94101">
        <ele>2051.4</ele>
        <time>2021-02-20T09:43:38Z</time>
      </trkpt>
      <trkpt lat="45.16664" lon="5.94101">
        <ele>2051.4</ele>
        <time>2021-02-20T09:43:39Z</time>
      </trkpt>
      <trkpt lat="45.16664" lon="5.94101">
        <ele>2051.4</ele>
        <time>2021-02-20T09:43:40Z</time>
      </trkpt>
      <trkpt lat="45.16664" lon="5.94101">
        <ele>2051.4</ele>
        <time>2021-02-20T09:43:41Z</time>
      </trkpt>
      <trkpt lat="45.16664" lon="5.94101">
        <ele>2051.4</ele>
        <time>2021-02-20T09:43:42Z</time>
      </trkpt>
      <trkpt lat="45.16664" lon="5.94101">
        <ele>2051.4</ele>
        <time>2021-02-20T09:43:43Z</time>
      </trkpt>
      <trkpt lat="45.16664" lon="5.94101">
        <ele>2051.4</ele>
        <time>2021-02-20T09:43:44Z</time>
      </trkpt>
      <trkpt lat="45.16664" lon="5.94101">
        <ele>2051.4</ele>
        <time>2021-02-20T09:43:45Z</time>
      </trkpt>
      <trkpt lat="45.16664" lon="5.94101">
        <ele>2051.4</ele>
        <time>2021-02-20T09:43:46Z</time>
      </trkpt>
      <trkpt lat="45.16664" lon="5.94101">
        <ele>2051.4</ele>
        <time>2021-02-20T09:43:47Z</time>
      </trkpt>
      <trkpt lat="45.16664" lon="5.94101">
        <ele>2051.4</ele>
        <time>2021-02-20T09:43:48Z</time>
      </trkpt>
      <trkpt lat="45.16664" lon="5.94101">
        <ele>2051.4</ele>
        <time>2021-02-20T09:43:49Z</time>
      </trkpt>
      <trkpt lat="45.16664" lon="5.94101">
        <ele>2051.4</ele>
        <time>2021-02-20T09:43:50Z</time>
      </trkpt>
      <trkpt lat="45.16664" lon="5.94101">
        <ele>2051.4</ele>
        <time>2021-02-20T09:43:51Z</time>
      </trkpt>
      <trkpt lat="45.16664" lon="5.94101">
        <ele>2051.4</ele>
        <time>2021-02-20T09:43:52Z</time>
      </trkpt>
      <trkpt lat="45.16664" lon="5.94101">
        <ele>2051.4</ele>
        <time>2021-02-20T09:43:53Z</time>
      </trkpt>
      <trkpt lat="45.16664" lon="5.94101">
        <ele>2051.4</ele>
        <time>2021-02-20T09:43:54Z</time>
      </trkpt>
      <trkpt lat="45.16664" lon="5.94101">
        <ele>2051.4</ele>
        <time>2021-02-20T09:43:55Z</time>
      </trkpt>
      <trkpt lat="45.16664" lon="5.94101">
        <ele>2051.4</ele>
        <time>2021-02-20T09:43:56Z</time>
      </trkpt>
      <trkpt lat="45.16664" lon="5.94101">
        <ele>2051.4</ele>
        <time>2021-02-20T09:43:57Z</time>
      </trkpt>
      <trkpt lat="45.16664" lon="5.94101">
        <ele>2051.4</ele>
        <time>2021-02-20T09:43:58Z</time>
      </trkpt>
      <trkpt lat="45.16664" lon="5.94101">
        <ele>2051.4</ele>
        <time>2021-02-20T09:43:59Z</time>
      </trkpt>
      <trkpt lat="45.16664" lon="5.94101">
        <ele>2051.4</ele>
        <time>2021-02-20T09:44:00Z</time>
      </trkpt>
      <trkpt lat="45.16664" lon="5.94101">
        <ele>2051.4</ele>
        <time>2021-02-20T09:44:01Z</time>
      </trkpt>
      <trkpt lat="45.16664" lon="5.94101">
        <ele>2051.4</ele>
        <time>2021-02-20T09:44:02Z</time>
      </trkpt>
      <trkpt lat="45.16664" lon="5.94101">
        <ele>2051.4</ele>
        <time>2021-02-20T09:44:03Z</time>
      </trkpt>
      <trkpt lat="45.16664" lon="5.94101">
        <ele>2051.4</ele>
        <time>2021-02-20T09:44:04Z</time>
      </trkpt>
      <trkpt lat="45.16664" lon="5.94101">
        <ele>2051.4</ele>
        <time>2021-02-20T09:44:05Z</time>
      </trkpt>
      <trkpt lat="45.16664" lon="5.94101">
        <ele>2051.4</ele>
        <time>2021-02-20T09:44:06Z</time>
      </trkpt>
      <trkpt lat="45.16664" lon="5.94101">
        <ele>2051.4</ele>
        <time>2021-02-20T09:44:07Z</time>
      </trkpt>
      <trkpt lat="45.16664" lon="5.94101">
        <ele>2051.4</ele>
        <time>2021-02-20T09:44:08Z</time>
      </trkpt>
      <trkpt lat="45.16664" lon="5.94101">
        <ele>2051.4</ele>
        <time>2021-02-20T09:44:09Z</time>
      </trkpt>
      <trkpt lat="45.16664" lon="5.94101">
        <ele>2051.4</ele>
        <time>2021-02-20T09:44:10Z</time>
      </trkpt>
      <trkpt lat="45.16664" lon="5.94101">
        <ele>2051.4</ele>
        <time>2021-02-20T09:44:11Z</time>
      </trkpt>
      <trkpt lat="45.16664" lon="5.94101">
        <ele>2051.4</ele>
        <time>2021-02-20T09:44:12Z</time>
      </trkpt>
      <trkpt lat="45.16664" lon="5.94101">
        <ele>2051.4</ele>
        <time>2021-02-20T09:44:13Z</time>
      </trkpt>
      <trkpt lat="45.16664" lon="5.94101">
        <ele>2051.4</ele>
        <time>2021-02-20T09:44:14Z</time>
      </trkpt>
      <trkpt lat="45.16664" lon="5.94101">
        <ele>2051.4</ele>
        <time>2021-02-20T09:44:15Z</time>
      </trkpt>
      <trkpt lat="45.16664" lon="5.94101">
        <ele>2051.4</ele>
        <time>2021-02-20T09:44:16Z</time>
      </trkpt>
      <trkpt lat="45.16664" lon="5.94101">
        <ele>2051.4</ele>
        <time>2021-02-20T09:44:17Z</time>
      </trkpt>
      <trkpt lat="45.16664" lon="5.94101">
        <ele>2051.4</ele>
        <time>2021-02-20T09:44:18Z</time>
      </trkpt>
      <trkpt lat="45.16664" lon="5.94101">
        <ele>2051.4</ele>
        <time>2021-02-20T09:44:19Z</time>
      </trkpt>
      <trkpt lat="45.16664" lon="5.94101">
        <ele>2051.4</ele>
        <time>2021-02-20T09:44:20Z</time>
      </trkpt>
      <trkpt lat="45.16664" lon="5.94101">
        <ele>2051.4</ele>
        <time>2021-02-20T09:44:21Z</time>
      </trkpt>
      <trkpt lat="45.16664" lon="5.94101">
        <ele>2051.4</ele>
        <time>2021-02-20T09:44:22Z</time>
      </trkpt>
      <trkpt lat="45.16664" lon="5.94101">
        <ele>2051.4</ele>
        <time>2021-02-20T09:44:23Z</time>
      </trkpt>
      <trkpt lat="45.16664" lon="5.94101">
        <ele>2051.4</ele>
        <time>2021-02-20T09:44:24Z</time>
      </trkpt>
      <trkpt lat="45.16664" lon="5.94101">
        <ele>2051.4</ele>
        <time>2021-02-20T09:44:25Z</time>
      </trkpt>
      <trkpt lat="45.16664" lon="5.94101">
        <ele>2051.4</ele>
        <time>2021-02-20T09:44:26Z</time>
      </trkpt>
      <trkpt lat="45.16664" lon="5.94101">
        <ele>2051.4</ele>
        <time>2021-02-20T09:44:27Z</time>
      </trkpt>
      <trkpt lat="45.16664" lon="5.94101">
        <ele>2051.4</ele>
        <time>2021-02-20T09:44:28Z</time>
      </trkpt>
      <trkpt lat="45.16664" lon="5.94101">
        <ele>2051.4</ele>
        <time>2021-02-20T09:44:29Z</time>
      </trkpt>
      <trkpt lat="45.16664" lon="5.94101">
        <ele>2051.4</ele>
        <time>2021-02-20T09:44:30Z</time>
      </trkpt>
      <trkpt lat="45.16664" lon="5.94101">
        <ele>2051.4</ele>
        <time>2021-02-20T09:44:31Z</time>
      </trkpt>
      <trkpt lat="45.16664" lon="5.94101">
        <ele>2051.4</ele>
        <time>2021-02-20T09:44:32Z</time>
      </trkpt>
      <trkpt lat="45.16664" lon="5.94101">
        <ele>2051.4</ele>
        <time>2021-02-20T09:44:33Z</time>
      </trkpt>
      <trkpt lat="45.16664" lon="5.94101">
        <ele>2051.4</ele>
        <time>2021-02-20T09:44:34Z</time>
      </trkpt>
      <trkpt lat="45.16664" lon="5.94101">
        <ele>2051.4</ele>
        <time>2021-02-20T09:44:35Z</time>
      </trkpt>
      <trkpt lat="45.16664" lon="5.94101">
        <ele>2051.4</ele>
        <time>2021-02-20T09:44:36Z</time>
      </trkpt>
      <trkpt lat="45.16664" lon="5.94101">
        <ele>2051.4</ele>
        <time>2021-02-20T09:44:37Z</time>
      </trkpt>
      <trkpt lat="45.16664" lon="5.94101">
        <ele>2051.4</ele>
        <time>2021-02-20T09:44:38Z</time>
      </trkpt>
      <trkpt lat="45.16664" lon="5.94101">
        <ele>2051.4</ele>
        <time>2021-02-20T09:44:39Z</time>
      </trkpt>
      <trkpt lat="45.16664" lon="5.94101">
        <ele>2051.4</ele>
        <time>2021-02-20T09:44:40Z</time>
      </trkpt>
      <trkpt lat="45.16664" lon="5.94101">
        <ele>2051.4</ele>
        <time>2021-02-20T09:44:41Z</time>
      </trkpt>
      <trkpt lat="45.16664" lon="5.94101">
        <ele>2051.4</ele>
        <time>2021-02-20T09:44:42Z</time>
      </trkpt>
      <trkpt lat="45.16664" lon="5.94101">
        <ele>2051.4</ele>
        <time>2021-02-20T09:44:43Z</time>
      </trkpt>
      <trkpt lat="45.16664" lon="5.94101">
        <ele>2051.4</ele>
        <time>2021-02-20T09:44:44Z</time>
      </trkpt>
      <trkpt lat="45.16664" lon="5.94101">
        <ele>2051.4</ele>
        <time>2021-02-20T09:44:45Z</time>
      </trkpt>
      <trkpt lat="45.16664" lon="5.94101">
        <ele>2051.4</ele>
        <time>2021-02-20T09:44:46Z</time>
      </trkpt>
      <trkpt lat="45.16664" lon="5.94101">
        <ele>2051.4</ele>
        <time>2021-02-20T09:44:47Z</time>
      </trkpt>
      <trkpt lat="45.16664" lon="5.94101">
        <ele>2051.4</ele>
        <time>2021-02-20T09:44:48Z</time>
      </trkpt>
      <trkpt lat="45.16664" lon="5.94101">
        <ele>2051.4</ele>
        <time>2021-02-20T09:44:49Z</time>
      </trkpt>
      <trkpt lat="45.16664" lon="5.94101">
        <ele>2051.4</ele>
        <time>2021-02-20T09:44:50Z</time>
      </trkpt>
      <trkpt lat="45.16664" lon="5.94101">
        <ele>2051.4</ele>
        <time>2021-02-20T09:44:51Z</time>
      </trkpt>
      <trkpt lat="45.16664" lon="5.94101">
        <ele>2051.4</ele>
        <time>2021-02-20T09:44:52Z</time>
      </trkpt>
      <trkpt lat="45.16664" lon="5.94101">
        <ele>2051.4</ele>
        <time>2021-02-20T09:44:53Z</time>
      </trkpt>
      <trkpt lat="45.16664" lon="5.94101">
        <ele>2051.4</ele>
        <time>2021-02-20T09:44:54Z</time>
      </trkpt>
      <trkpt lat="45.16664" lon="5.94101">
        <ele>2051.4</ele>
        <time>2021-02-20T09:44:55Z</time>
      </trkpt>
      <trkpt lat="45.16664" lon="5.94101">
        <ele>2051.4</ele>
        <time>2021-02-20T09:44:56Z</time>
      </trkpt>
      <trkpt lat="45.16664" lon="5.94101">
        <ele>2051.4</ele>
        <time>2021-02-20T09:44:57Z</time>
      </trkpt>
      <trkpt lat="45.16664" lon="5.94101">
        <ele>2051.4</ele>
        <time>2021-02-20T09:44:58Z</time>
      </trkpt>
      <trkpt lat="45.16664" lon="5.94101">
        <ele>2051.4</ele>
        <time>2021-02-20T09:44:59Z</time>
      </trkpt>
      <trkpt lat="45.16664" lon="5.94101">
        <ele>2051.4</ele>
        <time>2021-02-20T09:45:00Z</time>
      </trkpt>
      <trkpt lat="45.16664" lon="5.94101">
        <ele>2051.4</ele>
        <time>2021-02-20T09:45:01Z</time>
      </trkpt>
      <trkpt lat="45.16664" lon="5.94101">
        <ele>2051.4</ele>
        <time>2021-02-20T09:45:02Z</time>
      </trkpt>
      <trkpt lat="45.16664" lon="5.94101">
        <ele>2051.4</ele>
        <time>2021-02-20T09:45:03Z</time>
      </trkpt>
      <trkpt lat="45.16664" lon="5.94101">
        <ele>2051.4</ele>
        <time>2021-02-20T09:45:04Z</time>
      </trkpt>
      <trkpt lat="45.16664" lon="5.94101">
        <ele>2051.4</ele>
        <time>2021-02-20T09:45:05Z</time>
      </trkpt>
      <trkpt lat="45.16664" lon="5.94101">
        <ele>2051.4</ele>
        <time>2021-02-20T09:45:06Z</time>
      </trkpt>
      <trkpt lat="45.16664" lon="5.94101">
        <ele>2051.4</ele>
        <time>2021-02-20T09:45:07Z</time>
      </trkpt>
      <trkpt lat="45.16664" lon="5.94101">
        <ele>2051.4</ele>
        <time>2021-02-20T09:45:08Z</time>
      </trkpt>
      <trkpt lat="45.16664" lon="5.94101">
        <ele>2051.4</ele>
        <time>2021-02-20T09:45:09Z</time>
      </trkpt>
      <trkpt lat="45.16664" lon="5.94101">
        <ele>2051.4</ele>
        <time>2021-02-20T09:45:10Z</time>
      </trkpt>
      <trkpt lat="45.16664" lon="5.94101">
        <ele>2051.4</ele>
        <time>2021-02-20T09:45:11Z</time>
      </trkpt>
      <trkpt lat="45.16664" lon="5.94101">
        <ele>2051.4</ele>
        <time>2021-02-20T09:45:12Z</time>
      </trkpt>
      <trkpt lat="45.16664" lon="5.94101">
        <ele>2051.4</ele>
        <time>2021-02-20T09:45:13Z</time>
      </trkpt>
      <trkpt lat="45.16664" lon="5.94101">
        <ele>2051.4</ele>
        <time>2021-02-20T09:45:14Z</time>
      </trkpt>
      <trkpt lat="45.16664" lon="5.94101">
        <ele>2051.4</ele>
        <time>2021-02-20T09:45:15Z</time>
      </trkpt>
      <trkpt lat="45.16664" lon="5.94101">
        <ele>2051.4</ele>
        <time>2021-02-20T09:45:16Z</time>
      </trkpt>
      <trkpt lat="45.16664" lon="5.94101">
        <ele>2051.4</ele>
        <time>2021-02-20T09:45:17Z</time>
      </trkpt>
      <trkpt lat="45.16664" lon="5.94101">
        <ele>2051.4</ele>
        <time>2021-02-20T09:45:18Z</time>
      </trkpt>
      <trkpt lat="45.16664" lon="5.94101">
        <ele>2051.4</ele>
        <time>2021-02-20T09:45:19Z</time>
      </trkpt>
      <trkpt lat="45.16664" lon="5.94101">
        <ele>2051.4</ele>
        <time>2021-02-20T09:45:20Z</time>
      </trkpt>
      <trkpt lat="45.16664" lon="5.94101">
        <ele>2051.4</ele>
        <time>2021-02-20T09:45:21Z</time>
      </trkpt>
      <trkpt lat="45.16664" lon="5.94101">
        <ele>2051.4</ele>
        <time>2021-02-20T09:45:22Z</time>
      </trkpt>
      <trkpt lat="45.16664" lon="5.94101">
        <ele>2051.4</ele>
        <time>2021-02-20T09:45:23Z</time>
      </trkpt>
      <trkpt lat="45.16664" lon="5.94101">
        <ele>2051.4</ele>
        <time>2021-02-20T09:45:24Z</time>
      </trkpt>
      <trkpt lat="45.16664" lon="5.94101">
        <ele>2051.4</ele>
        <time>2021-02-20T09:45:25Z</time>
      </trkpt>
      <trkpt lat="45.16664" lon="5.94101">
        <ele>2051.4</ele>
        <time>2021-02-20T09:45:26Z</time>
      </trkpt>
      <trkpt lat="45.16664" lon="5.94101">
        <ele>2051.4</ele>
        <time>2021-02-20T09:45:27Z</time>
      </trkpt>
      <trkpt lat="45.16664" lon="5.94101">
        <ele>2051.4</ele>
        <time>2021-02-20T09:45:28Z</time>
      </trkpt>
      <trkpt lat="45.16664" lon="5.94101">
        <ele>2051.4</ele>
        <time>2021-02-20T09:45:29Z</time>
      </trkpt>
      <trkpt lat="45.16664" lon="5.94101">
        <ele>2051.4</ele>
        <time>2021-02-20T09:45:30Z</time>
      </trkpt>
      <trkpt lat="45.16664" lon="5.94101">
        <ele>2051.4</ele>
        <time>2021-02-20T09:45:31Z</time>
      </trkpt>
      <trkpt lat="45.16664" lon="5.94101">
        <ele>2051.4</ele>
        <time>2021-02-20T09:45:32Z</time>
      </trkpt>
      <trkpt lat="45.16664" lon="5.94101">
        <ele>2051.4</ele>
        <time>2021-02-20T09:45:33Z</time>
      </trkpt>
      <trkpt lat="45.16664" lon="5.94101">
        <ele>2051.4</ele>
        <time>2021-02-20T09:45:34Z</time>
      </trkpt>
      <trkpt lat="45.16664" lon="5.94101">
        <ele>2051.4</ele>
        <time>2021-02-20T09:45:35Z</time>
      </trkpt>
      <trkpt lat="45.16664" lon="5.94101">
        <ele>2051.4</ele>
        <time>2021-02-20T09:45:36Z</time>
      </trkpt>
      <trkpt lat="45.16664" lon="5.94101">
        <ele>2051.4</ele>
        <time>2021-02-20T09:45:37Z</time>
      </trkpt>
      <trkpt lat="45.16664" lon="5.94101">
        <ele>2051.4</ele>
        <time>2021-02-20T09:45:38Z</time>
      </trkpt>
      <trkpt lat="45.16664" lon="5.94101">
        <ele>2051.4</ele>
        <time>2021-02-20T09:45:39Z</time>
      </trkpt>
      <trkpt lat="45.16664" lon="5.94101">
        <ele>2051.4</ele>
        <time>2021-02-20T09:45:40Z</time>
      </trkpt>
      <trkpt lat="45.16664" lon="5.94101">
        <ele>2051.4</ele>
        <time>2021-02-20T09:45:41Z</time>
      </trkpt>
      <trkpt lat="45.16664" lon="5.94101">
        <ele>2051.4</ele>
        <time>2021-02-20T09:45:42Z</time>
      </trkpt>
      <trkpt lat="45.16664" lon="5.94101">
        <ele>2051.4</ele>
        <time>2021-02-20T09:45:43Z</time>
      </trkpt>
      <trkpt lat="45.16664" lon="5.94101">
        <ele>2051.4</ele>
        <time>2021-02-20T09:45:44Z</time>
      </trkpt>
      <trkpt lat="45.16664" lon="5.94101">
        <ele>2051.4</ele>
        <time>2021-02-20T09:45:45Z</time>
      </trkpt>
      <trkpt lat="45.16664" lon="5.94101">
        <ele>2051.4</ele>
        <time>2021-02-20T09:45:46Z</time>
      </trkpt>
      <trkpt lat="45.16664" lon="5.94101">
        <ele>2051.4</ele>
        <time>2021-02-20T09:45:47Z</time>
      </trkpt>
      <trkpt lat="45.16664" lon="5.94101">
        <ele>2051.4</ele>
        <time>2021-02-20T09:45:48Z</time>
      </trkpt>
      <trkpt lat="45.16664" lon="5.94101">
        <ele>2051.4</ele>
        <time>2021-02-20T09:45:49Z</time>
      </trkpt>
      <trkpt lat="45.16664" lon="5.94101">
        <ele>2051.4</ele>
        <time>2021-02-20T09:45:50Z</time>
      </trkpt>
      <trkpt lat="45.16664" lon="5.94101">
        <ele>2051.4</ele>
        <time>2021-02-20T09:45:51Z</time>
      </trkpt>
      <trkpt lat="45.16664" lon="5.94101">
        <ele>2051.4</ele>
        <time>2021-02-20T09:45:52Z</time>
      </trkpt>
      <trkpt lat="45.16664" lon="5.94101">
        <ele>2051.4</ele>
        <time>2021-02-20T09:45:53Z</time>
      </trkpt>
      <trkpt lat="45.16664" lon="5.94101">
        <ele>2051.4</ele>
        <time>2021-02-20T09:45:54Z</time>
      </trkpt>
      <trkpt lat="45.16664" lon="5.94101">
        <ele>2051.4</ele>
        <time>2021-02-20T09:45:55Z</time>
      </trkpt>
      <trkpt lat="45.16664" lon="5.94101">
        <ele>2051.4</ele>
        <time>2021-02-20T09:45:56Z</time>
      </trkpt>
      <trkpt lat="45.16664" lon="5.94101">
        <ele>2051.4</ele>
        <time>2021-02-20T09:45:57Z</time>
      </trkpt>
      <trkpt lat="45.16664" lon="5.94101">
        <ele>2051.4</ele>
        <time>2021-02-20T09:45:58Z</time>
      </trkpt>
      <trkpt lat="45.16664" lon="5.94101">
        <ele>2051.4</ele>
        <time>2021-02-20T09:45:59Z</time>
      </trkpt>
      <trkpt lat="45.16664" lon="5.94101">
        <ele>2051.4</ele>
        <time>2021-02-20T09:46:00Z</time>
      </trkpt>
      <trkpt lat="45.16664" lon="5.94101">
        <ele>2051.4</ele>
        <time>2021-02-20T09:46:01Z</time>
      </trkpt>
      <trkpt lat="45.16664" lon="5.94101">
        <ele>2051.4</ele>
        <time>2021-02-20T09:46:02Z</time>
      </trkpt>
      <trkpt lat="45.16664" lon="5.94101">
        <ele>2051.4</ele>
        <time>2021-02-20T09:46:03Z</time>
      </trkpt>
      <trkpt lat="45.16664" lon="5.94101">
        <ele>2051.4</ele>
        <time>2021-02-20T09:46:04Z</time>
      </trkpt>
      <trkpt lat="45.16664" lon="5.94101">
        <ele>2051.4</ele>
        <time>2021-02-20T09:46:05Z</time>
      </trkpt>
      <trkpt lat="45.16664" lon="5.94101">
        <ele>2051.4</ele>
        <time>2021-02-20T09:46:06Z</time>
      </trkpt>
      <trkpt lat="45.16664" lon="5.94101">
        <ele>2051.4</ele>
        <time>2021-02-20T09:46:07Z</time>
      </trkpt>
      <trkpt lat="45.16664" lon="5.94101">
        <ele>2051.4</ele>
        <time>2021-02-20T09:46:08Z</time>
      </trkpt>
      <trkpt lat="45.16664" lon="5.94101">
        <ele>2051.4</ele>
        <time>2021-02-20T09:46:09Z</time>
      </trkpt>
      <trkpt lat="45.16664" lon="5.94101">
        <ele>2051.4</ele>
        <time>2021-02-20T09:46:10Z</time>
      </trkpt>
      <trkpt lat="45.16664" lon="5.94101">
        <ele>2051.4</ele>
        <time>2021-02-20T09:46:11Z</time>
      </trkpt>
      <trkpt lat="45.16664" lon="5.94101">
        <ele>2051.4</ele>
        <time>2021-02-20T09:46:12Z</time>
      </trkpt>
      <trkpt lat="45.16664" lon="5.94101">
        <ele>2051.4</ele>
        <time>2021-02-20T09:46:13Z</time>
      </trkpt>
      <trkpt lat="45.16664" lon="5.94101">
        <ele>2051.4</ele>
        <time>2021-02-20T09:46:14Z</time>
      </trkpt>
      <trkpt lat="45.16664" lon="5.94101">
        <ele>2051.4</ele>
        <time>2021-02-20T09:46:15Z</time>
      </trkpt>
      <trkpt lat="45.16664" lon="5.94101">
        <ele>2051.4</ele>
        <time>2021-02-20T09:46:16Z</time>
      </trkpt>
      <trkpt lat="45.16664" lon="5.94101">
        <ele>2051.4</ele>
        <time>2021-02-20T09:46:17Z</time>
      </trkpt>
      <trkpt lat="45.16664" lon="5.94101">
        <ele>2051.4</ele>
        <time>2021-02-20T09:46:18Z</time>
      </trkpt>
      <trkpt lat="45.16664" lon="5.94101">
        <ele>2051.4</ele>
        <time>2021-02-20T09:46:19Z</time>
      </trkpt>
      <trkpt lat="45.16664" lon="5.94101">
        <ele>2051.4</ele>
        <time>2021-02-20T09:46:20Z</time>
      </trkpt>
      <trkpt lat="45.16664" lon="5.94101">
        <ele>2051.4</ele>
        <time>2021-02-20T09:46:21Z</time>
      </trkpt>
      <trkpt lat="45.16664" lon="5.94101">
        <ele>2051.4</ele>
        <time>2021-02-20T09:46:22Z</time>
      </trkpt>
      <trkpt lat="45.16664" lon="5.94101">
        <ele>2051.4</ele>
        <time>2021-02-20T09:46:23Z</time>
      </trkpt>
      <trkpt lat="45.16664" lon="5.94101">
        <ele>2051.4</ele>
        <time>2021-02-20T09:46:24Z</time>
      </trkpt>
      <trkpt lat="45.16664" lon="5.94101">
        <ele>2051.4</ele>
        <time>2021-02-20T09:46:25Z</time>
      </trkpt>
      <trkpt lat="45.16664" lon="5.94101">
        <ele>2051.4</ele>
        <time>2021-02-20T09:46:26Z</time>
      </trkpt>
      <trkpt lat="45.16664" lon="5.94101">
        <ele>2051.4</ele>
        <time>2021-02-20T09:46:27Z</time>
      </trkpt>
      <trkpt lat="45.16664" lon="5.94101">
        <ele>2051.4</ele>
        <time>2021-02-20T09:46:28Z</time>
      </trkpt>
      <trkpt lat="45.16664" lon="5.94101">
        <ele>2051.4</ele>
        <time>2021-02-20T09:46:29Z</time>
      </trkpt>
      <trkpt lat="45.16664" lon="5.94101">
        <ele>2051.4</ele>
        <time>2021-02-20T09:46:30Z</time>
      </trkpt>
      <trkpt lat="45.16664" lon="5.94101">
        <ele>2051.4</ele>
        <time>2021-02-20T09:46:31Z</time>
      </trkpt>
      <trkpt lat="45.16664" lon="5.94101">
        <ele>2051.4</ele>
        <time>2021-02-20T09:46:32Z</time>
      </trkpt>
      <trkpt lat="45.16664" lon="5.94101">
        <ele>2051.4</ele>
        <time>2021-02-20T09:46:33Z</time>
      </trkpt>
      <trkpt lat="45.16664" lon="5.94101">
        <ele>2051.4</ele>
        <time>2021-02-20T09:46:34Z</time>
      </trkpt>
      <trkpt lat="45.16664" lon="5.94101">
        <ele>2051.4</ele>
        <time>2021-02-20T09:46:35Z</time>
      </trkpt>
      <trkpt lat="45.16664" lon="5.94101">
        <ele>2051.4</ele>
        <time>2021-02-20T09:46:36Z</time>
      </trkpt>
      <trkpt lat="45.16664" lon="5.94101">
        <ele>2051.4</ele>
        <time>2021-02-20T09:46:37Z</time>
      </trkpt>
      <trkpt lat="45.16664" lon="5.94101">
        <ele>2051.4</ele>
        <time>2021-02-20T09:46:38Z</time>
      </trkpt>
      <trkpt lat="45.16664" lon="5.94101">
        <ele>2051.4</ele>
        <time>2021-02-20T09:46:39Z</time>
      </trkpt>
      <trkpt lat="45.16664" lon="5.94101">
        <ele>2051.4</ele>
        <time>2021-02-20T09:46:40Z</time>
      </trkpt>
      <trkpt lat="45.16664" lon="5.94101">
        <ele>2051.4</ele>
        <time>2021-02-20T09:46:41Z</time>
      </trkpt>
      <trkpt lat="45.16664" lon="5.94101">
        <ele>2051.4</ele>
        <time>2021-02-20T09:46:42Z</time>
      </trkpt>
      <trkpt lat="45.16664" lon="5.94101">
        <ele>2051.4</ele>
        <time>2021-02-20T09:46:43Z</time>
      </trkpt>
      <trkpt lat="45.16664" lon="5.94101">
        <ele>2051.4</ele>
        <time>2021-02-20T09:46:44Z</time>
      </trkpt>
      <trkpt lat="45.16664" lon="5.94101">
        <ele>2051.4</ele>
        <time>2021-02-20T09:46:45Z</time>
      </trkpt>
      <trkpt lat="45.16664" lon="5.94101">
        <ele>2051.4</ele>
        <time>2021-02-20T09:46:46Z</time>
      </trkpt>
      <trkpt lat="45.16664" lon="5.94101">
        <ele>2051.4</ele>
        <time>2021-02-20T09:46:47Z</time>
      </trkpt>
      <trkpt lat="45.16664" lon="5.94101">
        <ele>2051.4</ele>
        <time>2021-02-20T09:46:48Z</time>
      </trkpt>
      <trkpt lat="45.16664" lon="5.94101">
        <ele>2051.4</ele>
        <time>2021-02-20T09:46:49Z</time>
      </trkpt>
      <trkpt lat="45.16664" lon="5.94101">
        <ele>2051.4</ele>
        <time>2021-02-20T09:46:50Z</time>
      </trkpt>
      <trkpt lat="45.16664" lon="5.94101">
        <ele>2051.4</ele>
        <time>2021-02-20T09:46:51Z</time>
      </trkpt>
      <trkpt lat="45.16664" lon="5.94101">
        <ele>2051.4</ele>
        <time>2021-02-20T09:46:52Z</time>
      </trkpt>
      <trkpt lat="45.16664" lon="5.94101">
        <ele>2051.4</ele>
        <time>2021-02-20T09:46:53Z</time>
      </trkpt>
      <trkpt lat="45.16664" lon="5.94101">
        <ele>2051.4</ele>
        <time>2021-02-20T09:46:54Z</time>
      </trkpt>
      <trkpt lat="45.16664" lon="5.94101">
        <ele>2051.4</ele>
        <time>2021-02-20T09:46:55Z</time>
      </trkpt>
      <trkpt lat="45.16664" lon="5.94101">
        <ele>2051.4</ele>
        <time>2021-02-20T09:46:56Z</time>
      </trkpt>
      <trkpt lat="45.16664" lon="5.94101">
        <ele>2051.4</ele>
        <time>2021-02-20T09:46:57Z</time>
      </trkpt>
      <trkpt lat="45.16664" lon="5.94101">
        <ele>2051.4</ele>
        <time>2021-02-20T09:46:58Z</time>
      </trkpt>
      <trkpt lat="45.16664" lon="5.94101">
        <ele>2051.4</ele>
        <time>2021-02-20T09:46:59Z</time>
      </trkpt>
      <trkpt lat="45.16664" lon="5.94101">
        <ele>2051.4</ele>
        <time>2021-02-20T09:47:00Z</time>
      </trkpt>
      <trkpt lat="45.16664" lon="5.94101">
        <ele>2051.4</ele>
        <time>2021-02-20T09:47:01Z</time>
      </trkpt>
      <trkpt lat="45.16664" lon="5.94101">
        <ele>2051.4</ele>
        <time>2021-02-20T09:47:02Z</time>
      </trkpt>
      <trkpt lat="45.16664" lon="5.94101">
        <ele>2051.4</ele>
        <time>2021-02-20T09:47:03Z</time>
      </trkpt>
      <trkpt lat="45.16664" lon="5.94101">
        <ele>2051.4</ele>
        <time>2021-02-20T09:47:04Z</time>
      </trkpt>
      <trkpt lat="45.16664" lon="5.94101">
        <ele>2051.4</ele>
        <time>2021-02-20T09:47:05Z</time>
      </trkpt>
      <trkpt lat="45.16664" lon="5.94101">
        <ele>2051.4</ele>
        <time>2021-02-20T09:47:06Z</time>
      </trkpt>
      <trkpt lat="45.16664" lon="5.94101">
        <ele>2051.4</ele>
        <time>2021-02-20T09:47:07Z</time>
      </trkpt>
      <trkpt lat="45.16664" lon="5.94101">
        <ele>2051.4</ele>
        <time>2021-02-20T09:47:08Z</time>
      </trkpt>
      <trkpt lat="45.16664" lon="5.94101">
        <ele>2051.4</ele>
        <time>2021-02-20T09:47:09Z</time>
      </trkpt>
      <trkpt lat="45.16664" lon="5.94101">
        <ele>2051.4</ele>
        <time>2021-02-20T09:47:10Z</time>
      </trkpt>
      <trkpt lat="45.16664" lon="5.94101">
        <ele>2051.4</ele>
        <time>2021-02-20T09:47:11Z</time>
      </trkpt>
      <trkpt lat="45.16664" lon="5.94101">
        <ele>2051.4</ele>
        <time>2021-02-20T09:47:12Z</time>
      </trkpt>
      <trkpt lat="45.16664" lon="5.94101">
        <ele>2051.4</ele>
        <time>2021-02-20T09:47:13Z</time>
      </trkpt>
      <trkpt lat="45.16664" lon="5.94101">
        <ele>2051.4</ele>
        <time>2021-02-20T09:47:14Z</time>
      </trkpt>
      <trkpt lat="45.16664" lon="5.94101">
        <ele>2051.4</ele>
        <time>2021-02-20T09:47:15Z</time>
      </trkpt>
      <trkpt lat="45.16664" lon="5.94101">
        <ele>2051.4</ele>
        <time>2021-02-20T09:47:16Z</time>
      </trkpt>
      <trkpt lat="45.16664" lon="5.94101">
        <ele>2051.4</ele>
        <time>2021-02-20T09:47:17Z</time>
      </trkpt>
      <trkpt lat="45.16664" lon="5.94101">
        <ele>2051.4</ele>
        <time>2021-02-20T09:47:18Z</time>
      </trkpt>
      <trkpt lat="45.16664" lon="5.94101">
        <ele>2051.4</ele>
        <time>2021-02-20T09:47:19Z</time>
      </trkpt>
      <trkpt lat="45.16664" lon="5.94101">
        <ele>2051.4</ele>
        <time>2021-02-20T09:47:20Z</time>
      </trkpt>
      <trkpt lat="45.16664" lon="5.94101">
        <ele>2051.4</ele>
        <time>2021-02-20T09:47:21Z</time>
      </trkpt>
      <trkpt lat="45.16664" lon="5.94101">
        <ele>2051.4</ele>
        <time>2021-02-20T09:47:22Z</time>
      </trkpt>
      <trkpt lat="45.16664" lon="5.94101">
        <ele>2051.4</ele>
        <time>2021-02-20T09:47:23Z</time>
      </trkpt>
      <trkpt lat="45.16664" lon="5.94101">
        <ele>2051.4</ele>
        <time>2021-02-20T09:47:24Z</time>
      </trkpt>
      <trkpt lat="45.16664" lon="5.94101">
        <ele>2051.4</ele>
        <time>2021-02-20T09:47:25Z</time>
      </trkpt>
      <trkpt lat="45.16664" lon="5.94101">
        <ele>2051.4</ele>
        <time>2021-02-20T09:47:26Z</time>
      </trkpt>
      <trkpt lat="45.16664" lon="5.94101">
        <ele>2051.4</ele>
        <time>2021-02-20T09:47:27Z</time>
      </trkpt>
      <trkpt lat="45.16664" lon="5.94101">
        <ele>2051.4</ele>
        <time>2021-02-20T09:47:28Z</time>
      </trkpt>
      <trkpt lat="45.16664" lon="5.94101">
        <ele>2051.4</ele>
        <time>2021-02-20T09:47:29Z</time>
      </trkpt>
      <trkpt lat="45.16664" lon="5.94101">
        <ele>2051.4</ele>
        <time>2021-02-20T09:47:30Z</time>
      </trkpt>
      <trkpt lat="45.16664" lon="5.94101">
        <ele>2051.4</ele>
        <time>2021-02-20T09:47:31Z</time>
      </trkpt>
      <trkpt lat="45.16664" lon="5.94101">
        <ele>2051.4</ele>
        <time>2021-02-20T09:47:32Z</time>
      </trkpt>
      <trkpt lat="45.16664" lon="5.94101">
        <ele>2051.4</ele>
        <time>2021-02-20T09:47:33Z</time>
      </trkpt>
      <trkpt lat="45.16664" lon="5.94101">
        <ele>2051.4</ele>
        <time>2021-02-20T09:47:34Z</time>
      </trkpt>
      <trkpt lat="45.16664" lon="5.94101">
        <ele>2051.4</ele>
        <time>2021-02-20T09:47:35Z</time>
      </trkpt>
      <trkpt lat="45.16664" lon="5.94101">
        <ele>2051.4</ele>
        <time>2021-02-20T09:47:36Z</time>
      </trkpt>
      <trkpt lat="45.16664" lon="5.94101">
        <ele>2051.4</ele>
        <time>2021-02-20T09:47:37Z</time>
      </trkpt>
      <trkpt lat="45.16664" lon="5.94101">
        <ele>2051.4</ele>
        <time>2021-02-20T09:47:38Z</time>
      </trkpt>
      <trkpt lat="45.16664" lon="5.94101">
        <ele>2051.4</ele>
        <time>2021-02-20T09:47:39Z</time>
      </trkpt>
      <trkpt lat="45.16664" lon="5.94101">
        <ele>2051.4</ele>
        <time>2021-02-20T09:47:40Z</time>
      </trkpt>
      <trkpt lat="45.16664" lon="5.94101">
        <ele>2051.4</ele>
        <time>2021-02-20T09:47:41Z</time>
      </trkpt>
      <trkpt lat="45.16664" lon="5.94101">
        <ele>2051.4</ele>
        <time>2021-02-20T09:47:42Z</time>
      </trkpt>
      <trkpt lat="45.16664" lon="5.94101">
        <ele>2051.4</ele>
        <time>2021-02-20T09:47:43Z</time>
      </trkpt>
      <trkpt lat="45.16664" lon="5.94101">
        <ele>2051.4</ele>
        <time>2021-02-20T09:47:44Z</time>
      </trkpt>
      <trkpt lat="45.16664" lon="5.94101">
        <ele>2051.4</ele>
        <time>2021-02-20T09:47:45Z</time>
      </trkpt>
      <trkpt lat="45.16664" lon="5.94101">
        <ele>2051.4</ele>
        <time>2021-02-20T09:47:46Z</time>
      </trkpt>
      <trkpt lat="45.16664" lon="5.94101">
        <ele>2051.4</ele>
        <time>2021-02-20T09:47:47Z</time>
      </trkpt>
      <trkpt lat="45.16664" lon="5.94101">
        <ele>2051.4</ele>
        <time>2021-02-20T09:47:48Z</time>
      </trkpt>
      <trkpt lat="45.16664" lon="5.94101">
        <ele>2051.4</ele>
        <time>2021-02-20T09:47:49Z</time>
      </trkpt>
      <trkpt lat="45.16664" lon="5.94101">
        <ele>2051.4</ele>
        <time>2021-02-20T09:47:50Z</time>
      </trkpt>
      <trkpt lat="45.16664" lon="5.94101">
        <ele>2051.4</ele>
        <time>2021-02-20T09:47:51Z</time>
      </trkpt>
      <trkpt lat="45.16664" lon="5.94101">
        <ele>2051.4</ele>
        <time>2021-02-20T09:47:52Z</time>
      </trkpt>
      <trkpt lat="45.16664" lon="5.94101">
        <ele>2051.4</ele>
        <time>2021-02-20T09:47:53Z</time>
      </trkpt>
      <trkpt lat="45.16664" lon="5.94101">
        <ele>2051.4</ele>
        <time>2021-02-20T09:47:54Z</time>
      </trkpt>
      <trkpt lat="45.16664" lon="5.94101">
        <ele>2051.4</ele>
        <time>2021-02-20T09:47:55Z</time>
      </trkpt>
      <trkpt lat="45.16664" lon="5.94101">
        <ele>2051.4</ele>
        <time>2021-02-20T09:47:56Z</time>
      </trkpt>
      <trkpt lat="45.16664" lon="5.94101">
        <ele>2051.4</ele>
        <time>2021-02-20T09:47:57Z</time>
      </trkpt>
      <trkpt lat="45.16664" lon="5.94101">
        <ele>2051.4</ele>
        <time>2021-02-20T09:47:58Z</time>
      </trkpt>
      <trkpt lat="45.16664" lon="5.94101">
        <ele>2051.4</ele>
        <time>2021-02-20T09:47:59Z</time>
      </trkpt>
      <trkpt lat="45.16664" lon="5.94101">
        <ele>2051.4</ele>
        <time>2021-02-20T09:48:00Z</time>
      </trkpt>
      <trkpt lat="45.16664" lon="5.94101">
        <ele>2051.4</ele>
        <time>2021-02-20T09:48:01Z</time>
      </trkpt>
      <trkpt lat="45.16664" lon="5.94101">
        <ele>2051.4</ele>
        <time>2021-02-20T09:48:02Z</time>
      </trkpt>
      <trkpt lat="45.16664" lon="5.94101">
        <ele>2051.4</ele>
        <time>2021-02-20T09:48:03Z</time>
      </trkpt>
      <trkpt lat="45.16664" lon="5.94101">
        <ele>2051.4</ele>
        <time>2021-02-20T09:48:04Z</time>
      </trkpt>
      <trkpt lat="45.16664" lon="5.94101">
        <ele>2051.4</ele>
        <time>2021-02-20T09:48:05Z</time>
      </trkpt>
      <trkpt lat="45.16664" lon="5.94101">
        <ele>2051.4</ele>
        <time>2021-02-20T09:48:06Z</time>
      </trkpt>
      <trkpt lat="45.16664" lon="5.94101">
        <ele>2051.4</ele>
        <time>2021-02-20T09:48:07Z</time>
      </trkpt>
      <trkpt lat="45.16664" lon="5.94101">
        <ele>2051.4</ele>
        <time>2021-02-20T09:48:08Z</time>
      </trkpt>
      <trkpt lat="45.16664" lon="5.94101">
        <ele>2051.4</ele>
        <time>2021-02-20T09:48:09Z</time>
      </trkpt>
      <trkpt lat="45.16664" lon="5.94101">
        <ele>2051.4</ele>
        <time>2021-02-20T09:48:10Z</time>
      </trkpt>
      <trkpt lat="45.16664" lon="5.94101">
        <ele>2051.4</ele>
        <time>2021-02-20T09:48:11Z</time>
      </trkpt>
      <trkpt lat="45.16664" lon="5.94101">
        <ele>2051.4</ele>
        <time>2021-02-20T09:48:12Z</time>
      </trkpt>
      <trkpt lat="45.16664" lon="5.94101">
        <ele>2051.4</ele>
        <time>2021-02-20T09:48:13Z</time>
      </trkpt>
      <trkpt lat="45.16664" lon="5.94101">
        <ele>2051.4</ele>
        <time>2021-02-20T09:48:14Z</time>
      </trkpt>
      <trkpt lat="45.16664" lon="5.94101">
        <ele>2051.4</ele>
        <time>2021-02-20T09:48:15Z</time>
      </trkpt>
      <trkpt lat="45.16664" lon="5.94101">
        <ele>2051.4</ele>
        <time>2021-02-20T09:48:16Z</time>
      </trkpt>
      <trkpt lat="45.16664" lon="5.94101">
        <ele>2051.4</ele>
        <time>2021-02-20T09:48:17Z</time>
      </trkpt>
      <trkpt lat="45.16664" lon="5.94101">
        <ele>2051.4</ele>
        <time>2021-02-20T09:48:18Z</time>
      </trkpt>
      <trkpt lat="45.16664" lon="5.94101">
        <ele>2051.4</ele>
        <time>2021-02-20T09:48:19Z</time>
      </trkpt>
      <trkpt lat="45.16664" lon="5.94101">
        <ele>2051.4</ele>
        <time>2021-02-20T09:48:20Z</time>
      </trkpt>
      <trkpt lat="45.16664" lon="5.94101">
        <ele>2051.4</ele>
        <time>2021-02-20T09:48:21Z</time>
      </trkpt>
      <trkpt lat="45.16664" lon="5.94101">
        <ele>2051.4</ele>
        <time>2021-02-20T09:48:22Z</time>
      </trkpt>
      <trkpt lat="45.16664" lon="5.94101">
        <ele>2051.4</ele>
        <time>2021-02-20T09:48:23Z</time>
      </trkpt>
      <trkpt lat="45.16664" lon="5.94101">
        <ele>2051.4</ele>
        <time>2021-02-20T09:48:24Z</time>
      </trkpt>
      <trkpt lat="45.16664" lon="5.94101">
        <ele>2051.4</ele>
        <time>2021-02-20T09:48:25Z</time>
      </trkpt>
      <trkpt lat="45.16664" lon="5.94101">
        <ele>2051.4</ele>
        <time>2021-02-20T09:48:26Z</time>
      </trkpt>
      <trkpt lat="45.16664" lon="5.94101">
        <ele>2051.4</ele>
        <time>2021-02-20T09:48:27Z</time>
      </trkpt>
      <trkpt lat="45.16664" lon="5.94101">
        <ele>2051.4</ele>
        <time>2021-02-20T09:48:28Z</time>
      </trkpt>
      <trkpt lat="45.16664" lon="5.94101">
        <ele>2051.4</ele>
        <time>2021-02-20T09:48:29Z</time>
      </trkpt>
      <trkpt lat="45.16664" lon="5.94101">
        <ele>2051.4</ele>
        <time>2021-02-20T09:48:30Z</time>
      </trkpt>
      <trkpt lat="45.16664" lon="5.94101">
        <ele>2051.4</ele>
        <time>2021-02-20T09:48:31Z</time>
      </trkpt>
      <trkpt lat="45.16664" lon="5.94101">
        <ele>2051.4</ele>
        <time>2021-02-20T09:48:32Z</time>
      </trkpt>
      <trkpt lat="45.16664" lon="5.94101">
        <ele>2051.4</ele>
        <time>2021-02-20T09:48:33Z</time>
      </trkpt>
      <trkpt lat="45.16664" lon="5.94101">
        <ele>2051.4</ele>
        <time>2021-02-20T09:48:34Z</time>
      </trkpt>
      <trkpt lat="45.16664" lon="5.94101">
        <ele>2051.4</ele>
        <time>2021-02-20T09:48:35Z</time>
      </trkpt>
      <trkpt lat="45.16664" lon="5.94101">
        <ele>2051.4</ele>
        <time>2021-02-20T09:48:36Z</time>
      </trkpt>
      <trkpt lat="45.16664" lon="5.94103">
        <ele>2051.6</ele>
        <time>2021-02-20T09:48:37Z</time>
      </trkpt>
      <trkpt lat="45.16664" lon="5.94103">
        <ele>2051.6</ele>
        <time>2021-02-20T09:48:38Z</time>
      </trkpt>
      <trkpt lat="45.16664" lon="5.94103">
        <ele>2051.6</ele>
        <time>2021-02-20T09:48:39Z</time>
      </trkpt>
      <trkpt lat="45.16664" lon="5.94103">
        <ele>2051.6</ele>
        <time>2021-02-20T09:48:40Z</time>
      </trkpt>
      <trkpt lat="45.16664" lon="5.94103">
        <ele>2051.6</ele>
        <time>2021-02-20T09:48:41Z</time>
      </trkpt>
      <trkpt lat="45.16664" lon="5.94103">
        <ele>2051.6</ele>
        <time>2021-02-20T09:48:42Z</time>
      </trkpt>
      <trkpt lat="45.16664" lon="5.94103">
        <ele>2051.6</ele>
        <time>2021-02-20T09:48:43Z</time>
      </trkpt>
      <trkpt lat="45.16664" lon="5.94103">
        <ele>2051.6</ele>
        <time>2021-02-20T09:48:44Z</time>
      </trkpt>
      <trkpt lat="45.16664" lon="5.94103">
        <ele>2051.6</ele>
        <time>2021-02-20T09:48:45Z</time>
      </trkpt>
      <trkpt lat="45.16664" lon="5.94103">
        <ele>2051.6</ele>
        <time>2021-02-20T09:48:46Z</time>
      </trkpt>
      <trkpt lat="45.16664" lon="5.94103">
        <ele>2051.6</ele>
        <time>2021-02-20T09:48:47Z</time>
      </trkpt>
      <trkpt lat="45.16664" lon="5.94103">
        <ele>2051.6</ele>
        <time>2021-02-20T09:48:48Z</time>
      </trkpt>
      <trkpt lat="45.16664" lon="5.94103">
        <ele>2051.6</ele>
        <time>2021-02-20T09:48:49Z</time>
      </trkpt>
      <trkpt lat="45.16664" lon="5.94103">
        <ele>2051.6</ele>
        <time>2021-02-20T09:48:50Z</time>
      </trkpt>
      <trkpt lat="45.16664" lon="5.94103">
        <ele>2051.6</ele>
        <time>2021-02-20T09:48:51Z</time>
      </trkpt>
      <trkpt lat="45.16663" lon="5.94102">
        <ele>2051.7</ele>
        <time>2021-02-20T09:48:52Z</time>
      </trkpt>
      <trkpt lat="45.16663" lon="5.94102">
        <ele>2051.7</ele>
        <time>2021-02-20T09:48:53Z</time>
      </trkpt>
      <trkpt lat="45.16663" lon="5.94102">
        <ele>2051.7</ele>
        <time>2021-02-20T09:48:54Z</time>
      </trkpt>
      <trkpt lat="45.16663" lon="5.94102">
        <ele>2051.7</ele>
        <time>2021-02-20T09:48:55Z</time>
      </trkpt>
      <trkpt lat="45.16663" lon="5.94102">
        <ele>2051.7</ele>
        <time>2021-02-20T09:48:56Z</time>
      </trkpt>
      <trkpt lat="45.16663" lon="5.94102">
        <ele>2051.7</ele>
        <time>2021-02-20T09:48:57Z</time>
      </trkpt>
      <trkpt lat="45.16663" lon="5.94102">
        <ele>2051.7</ele>
        <time>2021-02-20T09:48:58Z</time>
      </trkpt>
      <trkpt lat="45.16663" lon="5.94102">
        <ele>2051.7</ele>
        <time>2021-02-20T09:48:59Z</time>
      </trkpt>
      <trkpt lat="45.16663" lon="5.94102">
        <ele>2051.7</ele>
        <time>2021-02-20T09:49:00Z</time>
      </trkpt>
      <trkpt lat="45.16663" lon="5.94102">
        <ele>2051.7</ele>
        <time>2021-02-20T09:49:01Z</time>
      </trkpt>
      <trkpt lat="45.16663" lon="5.94102">
        <ele>2051.7</ele>
        <time>2021-02-20T09:49:02Z</time>
      </trkpt>
      <trkpt lat="45.16663" lon="5.94102">
        <ele>2051.7</ele>
        <time>2021-02-20T09:49:03Z</time>
      </trkpt>
      <trkpt lat="45.16663" lon="5.94102">
        <ele>2051.7</ele>
        <time>2021-02-20T09:49:04Z</time>
      </trkpt>
      <trkpt lat="45.16663" lon="5.94102">
        <ele>2051.7</ele>
        <time>2021-02-20T09:49:05Z</time>
      </trkpt>
      <trkpt lat="45.16663" lon="5.94102">
        <ele>2051.7</ele>
        <time>2021-02-20T09:49:06Z</time>
      </trkpt>
      <trkpt lat="45.16663" lon="5.94102">
        <ele>2051.7</ele>
        <time>2021-02-20T09:49:07Z</time>
      </trkpt>
      <trkpt lat="45.16663" lon="5.94102">
        <ele>2051.7</ele>
        <time>2021-02-20T09:49:08Z</time>
      </trkpt>
      <trkpt lat="45.16663" lon="5.94102">
        <ele>2051.7</ele>
        <time>2021-02-20T09:49:09Z</time>
      </trkpt>
      <trkpt lat="45.16663" lon="5.94102">
        <ele>2051.7</ele>
        <time>2021-02-20T09:49:10Z</time>
      </trkpt>
      <trkpt lat="45.16663" lon="5.94102">
        <ele>2051.7</ele>
        <time>2021-02-20T09:49:11Z</time>
      </trkpt>
      <trkpt lat="45.16663" lon="5.94102">
        <ele>2051.7</ele>
        <time>2021-02-20T09:49:12Z</time>
      </trkpt>
      <trkpt lat="45.16663" lon="5.94102">
        <ele>2051.7</ele>
        <time>2021-02-20T09:49:13Z</time>
      </trkpt>
      <trkpt lat="45.16663" lon="5.94102">
        <ele>2051.7</ele>
        <time>2021-02-20T09:49:14Z</time>
      </trkpt>
      <trkpt lat="45.16663" lon="5.94102">
        <ele>2051.7</ele>
        <time>2021-02-20T09:49:15Z</time>
      </trkpt>
      <trkpt lat="45.16663" lon="5.94102">
        <ele>2051.7</ele>
        <time>2021-02-20T09:49:16Z</time>
      </trkpt>
      <trkpt lat="45.16663" lon="5.94102">
        <ele>2051.7</ele>
        <time>2021-02-20T09:49:17Z</time>
      </trkpt>
      <trkpt lat="45.16663" lon="5.94102">
        <ele>2051.7</ele>
        <time>2021-02-20T09:49:18Z</time>
      </trkpt>
      <trkpt lat="45.16663" lon="5.94102">
        <ele>2051.7</ele>
        <time>2021-02-20T09:49:19Z</time>
      </trkpt>
      <trkpt lat="45.16663" lon="5.94102">
        <ele>2051.7</ele>
        <time>2021-02-20T09:49:20Z</time>
      </trkpt>
      <trkpt lat="45.16663" lon="5.94102">
        <ele>2051.7</ele>
        <time>2021-02-20T09:49:21Z</time>
      </trkpt>
      <trkpt lat="45.16663" lon="5.94102">
        <ele>2051.7</ele>
        <time>2021-02-20T09:49:22Z</time>
      </trkpt>
      <trkpt lat="45.16663" lon="5.94102">
        <ele>2051.7</ele>
        <time>2021-02-20T09:49:23Z</time>
      </trkpt>
      <trkpt lat="45.16663" lon="5.94102">
        <ele>2051.7</ele>
        <time>2021-02-20T09:49:24Z</time>
      </trkpt>
      <trkpt lat="45.16663" lon="5.94102">
        <ele>2051.7</ele>
        <time>2021-02-20T09:49:25Z</time>
      </trkpt>
      <trkpt lat="45.16663" lon="5.94102">
        <ele>2051.8</ele>
        <time>2021-02-20T09:49:26Z</time>
      </trkpt>
      <trkpt lat="45.16663" lon="5.94102">
        <ele>2051.8</ele>
        <time>2021-02-20T09:49:27Z</time>
      </trkpt>
      <trkpt lat="45.16663" lon="5.94102">
        <ele>2051.8</ele>
        <time>2021-02-20T09:49:28Z</time>
      </trkpt>
      <trkpt lat="45.16663" lon="5.94102">
        <ele>2051.8</ele>
        <time>2021-02-20T09:49:29Z</time>
      </trkpt>
      <trkpt lat="45.16663" lon="5.94102">
        <ele>2051.8</ele>
        <time>2021-02-20T09:49:30Z</time>
      </trkpt>
      <trkpt lat="45.16663" lon="5.94102">
        <ele>2051.8</ele>
        <time>2021-02-20T09:49:31Z</time>
      </trkpt>
      <trkpt lat="45.16663" lon="5.94102">
        <ele>2051.8</ele>
        <time>2021-02-20T09:49:32Z</time>
      </trkpt>
      <trkpt lat="45.16663" lon="5.94102">
        <ele>2051.8</ele>
        <time>2021-02-20T09:49:33Z</time>
      </trkpt>
      <trkpt lat="45.16663" lon="5.94102">
        <ele>2051.8</ele>
        <time>2021-02-20T09:49:34Z</time>
      </trkpt>
      <trkpt lat="45.16663" lon="5.94103">
        <ele>2051.8</ele>
        <time>2021-02-20T09:49:35Z</time>
      </trkpt>
      <trkpt lat="45.16663" lon="5.94103">
        <ele>2051.8</ele>
        <time>2021-02-20T09:49:36Z</time>
      </trkpt>
      <trkpt lat="45.16663" lon="5.94103">
        <ele>2051.8</ele>
        <time>2021-02-20T09:49:37Z</time>
      </trkpt>
      <trkpt lat="45.16663" lon="5.94103">
        <ele>2051.9</ele>
        <time>2021-02-20T09:49:38Z</time>
      </trkpt>
      <trkpt lat="45.16663" lon="5.94103">
        <ele>2051.9</ele>
        <time>2021-02-20T09:49:39Z</time>
      </trkpt>
      <trkpt lat="45.16663" lon="5.94103">
        <ele>2051.9</ele>
        <time>2021-02-20T09:49:40Z</time>
      </trkpt>
      <trkpt lat="45.16663" lon="5.94103">
        <ele>2051.9</ele>
        <time>2021-02-20T09:49:41Z</time>
      </trkpt>
      <trkpt lat="45.16663" lon="5.94103">
        <ele>2051.9</ele>
        <time>2021-02-20T09:49:42Z</time>
      </trkpt>
      <trkpt lat="45.16663" lon="5.94103">
        <ele>2051.9</ele>
        <time>2021-02-20T09:49:43Z</time>
      </trkpt>
      <trkpt lat="45.16663" lon="5.94103">
        <ele>2051.9</ele>
        <time>2021-02-20T09:49:44Z</time>
      </trkpt>
      <trkpt lat="45.16663" lon="5.94103">
        <ele>2051.9</ele>
        <time>2021-02-20T09:49:45Z</time>
      </trkpt>
      <trkpt lat="45.16663" lon="5.94103">
        <ele>2051.9</ele>
        <time>2021-02-20T09:49:46Z</time>
      </trkpt>
      <trkpt lat="45.16663" lon="5.94103">
        <ele>2051.9</ele>
        <time>2021-02-20T09:49:47Z</time>
      </trkpt>
      <trkpt lat="45.16663" lon="5.94103">
        <ele>2051.9</ele>
        <time>2021-02-20T09:49:48Z</time>
      </trkpt>
      <trkpt lat="45.16663" lon="5.94103">
        <ele>2051.9</ele>
        <time>2021-02-20T09:49:49Z</time>
      </trkpt>
      <trkpt lat="45.16663" lon="5.94103">
        <ele>2051.9</ele>
        <time>2021-02-20T09:49:50Z</time>
      </trkpt>
      <trkpt lat="45.16663" lon="5.94103">
        <ele>2051.9</ele>
        <time>2021-02-20T09:49:51Z</time>
      </trkpt>
      <trkpt lat="45.16663" lon="5.94103">
        <ele>2051.9</ele>
        <time>2021-02-20T09:49:52Z</time>
      </trkpt>
      <trkpt lat="45.16663" lon="5.94103">
        <ele>2051.9</ele>
        <time>2021-02-20T09:49:53Z</time>
      </trkpt>
      <trkpt lat="45.16663" lon="5.94103">
        <ele>2051.9</ele>
        <time>2021-02-20T09:49:54Z</time>
      </trkpt>
      <trkpt lat="45.16663" lon="5.94103">
        <ele>2051.9</ele>
        <time>2021-02-20T09:49:55Z</time>
      </trkpt>
      <trkpt lat="45.16663" lon="5.94103">
        <ele>2051.9</ele>
        <time>2021-02-20T09:49:56Z</time>
      </trkpt>
      <trkpt lat="45.16663" lon="5.94103">
        <ele>2051.9</ele>
        <time>2021-02-20T09:49:57Z</time>
      </trkpt>
      <trkpt lat="45.16663" lon="5.94103">
        <ele>2051.9</ele>
        <time>2021-02-20T09:49:58Z</time>
      </trkpt>
      <trkpt lat="45.16663" lon="5.94103">
        <ele>2051.9</ele>
        <time>2021-02-20T09:49:59Z</time>
      </trkpt>
      <trkpt lat="45.16663" lon="5.94103">
        <ele>2051.9</ele>
        <time>2021-02-20T09:50:00Z</time>
      </trkpt>
      <trkpt lat="45.16663" lon="5.94103">
        <ele>2051.9</ele>
        <time>2021-02-20T09:50:01Z</time>
      </trkpt>
      <trkpt lat="45.16663" lon="5.94103">
        <ele>2051.9</ele>
        <time>2021-02-20T09:50:02Z</time>
      </trkpt>
      <trkpt lat="45.16663" lon="5.94103">
        <ele>2051.9</ele>
        <time>2021-02-20T09:50:03Z</time>
      </trkpt>
      <trkpt lat="45.16663" lon="5.94103">
        <ele>2051.9</ele>
        <time>2021-02-20T09:50:04Z</time>
      </trkpt>
      <trkpt lat="45.16662" lon="5.94102">
        <ele>2052</ele>
        <time>2021-02-20T09:50:05Z</time>
      </trkpt>
      <trkpt lat="45.16662" lon="5.94103">
        <ele>2052</ele>
        <time>2021-02-20T09:50:06Z</time>
      </trkpt>
      <trkpt lat="45.16661" lon="5.94103">
        <ele>2052.1</ele>
        <time>2021-02-20T09:50:07Z</time>
      </trkpt>
      <trkpt lat="45.16661" lon="5.94104">
        <ele>2052.2</ele>
        <time>2021-02-20T09:50:08Z</time>
      </trkpt>
      <trkpt lat="45.16661" lon="5.94104">
        <ele>2052.2</ele>
        <time>2021-02-20T09:50:09Z</time>
      </trkpt>
      <trkpt lat="45.16661" lon="5.94104">
        <ele>2052.3</ele>
        <time>2021-02-20T09:50:10Z</time>
      </trkpt>
      <trkpt lat="45.1666" lon="5.94104">
        <ele>2052.3</ele>
        <time>2021-02-20T09:50:11Z</time>
      </trkpt>
      <trkpt lat="45.1666" lon="5.94104">
        <ele>2052.4</ele>
        <time>2021-02-20T09:50:12Z</time>
      </trkpt>
      <trkpt lat="45.16659" lon="5.94105">
        <ele>2052.6</ele>
        <time>2021-02-20T09:50:13Z</time>
      </trkpt>
      <trkpt lat="45.16658" lon="5.94106">
        <ele>2052.7</ele>
        <time>2021-02-20T09:50:14Z</time>
      </trkpt>
      <trkpt lat="45.16658" lon="5.94107">
        <ele>2052.9</ele>
        <time>2021-02-20T09:50:15Z</time>
      </trkpt>
      <trkpt lat="45.16657" lon="5.94107">
        <ele>2053</ele>
        <time>2021-02-20T09:50:16Z</time>
      </trkpt>
      <trkpt lat="45.16656" lon="5.94108">
        <ele>2053.1</ele>
        <time>2021-02-20T09:50:17Z</time>
      </trkpt>
      <trkpt lat="45.16656" lon="5.94108">
        <ele>2053.2</ele>
        <time>2021-02-20T09:50:18Z</time>
      </trkpt>
      <trkpt lat="45.16655" lon="5.94109">
        <ele>2053.4</ele>
        <time>2021-02-20T09:50:19Z</time>
      </trkpt>
      <trkpt lat="45.16654" lon="5.94109">
        <ele>2053.5</ele>
        <time>2021-02-20T09:50:20Z</time>
      </trkpt>
      <trkpt lat="45.16654" lon="5.94109">
        <ele>2053.6</ele>
        <time>2021-02-20T09:50:21Z</time>
      </trkpt>
      <trkpt lat="45.16653" lon="5.94109">
        <ele>2053.7</ele>
        <time>2021-02-20T09:50:22Z</time>
      </trkpt>
      <trkpt lat="45.16652" lon="5.9411">
        <ele>2053.8</ele>
        <time>2021-02-20T09:50:23Z</time>
      </trkpt>
      <trkpt lat="45.16652" lon="5.9411">
        <ele>2054</ele>
        <time>2021-02-20T09:50:24Z</time>
      </trkpt>
      <trkpt lat="45.16651" lon="5.94111">
        <ele>2054.1</ele>
        <time>2021-02-20T09:50:25Z</time>
      </trkpt>
      <trkpt lat="45.16651" lon="5.94112">
        <ele>2054.2</ele>
        <time>2021-02-20T09:50:26Z</time>
      </trkpt>
      <trkpt lat="45.16651" lon="5.94112">
        <ele>2054.2</ele>
        <time>2021-02-20T09:50:27Z</time>
      </trkpt>
      <trkpt lat="45.16651" lon="5.94112">
        <ele>2054.2</ele>
        <time>2021-02-20T09:50:28Z</time>
      </trkpt>
      <trkpt lat="45.16651" lon="5.94112">
        <ele>2054.3</ele>
        <time>2021-02-20T09:50:29Z</time>
      </trkpt>
      <trkpt lat="45.16651" lon="5.94113">
        <ele>2054.3</ele>
        <time>2021-02-20T09:50:30Z</time>
      </trkpt>
      <trkpt lat="45.16651" lon="5.94113">
        <ele>2054.3</ele>
        <time>2021-02-20T09:50:31Z</time>
      </trkpt>
      <trkpt lat="45.16651" lon="5.94113">
        <ele>2054.4</ele>
        <time>2021-02-20T09:50:32Z</time>
      </trkpt>
      <trkpt lat="45.16651" lon="5.94113">
        <ele>2054.4</ele>
        <time>2021-02-20T09:50:33Z</time>
      </trkpt>
      <trkpt lat="45.1665" lon="5.94112">
        <ele>2054.5</ele>
        <time>2021-02-20T09:50:34Z</time>
      </trkpt>
      <trkpt lat="45.16649" lon="5.94113">
        <ele>2054.7</ele>
        <time>2021-02-20T09:50:35Z</time>
      </trkpt>
      <trkpt lat="45.16648" lon="5.94113">
        <ele>2054.9</ele>
        <time>2021-02-20T09:50:36Z</time>
      </trkpt>
      <trkpt lat="45.16647" lon="5.94115">
        <ele>2055.2</ele>
        <time>2021-02-20T09:50:37Z</time>
      </trkpt>
      <trkpt lat="45.16646" lon="5.94115">
        <ele>2055.3</ele>
        <time>2021-02-20T09:50:38Z</time>
      </trkpt>
      <trkpt lat="45.16646" lon="5.94116">
        <ele>2055.4</ele>
        <time>2021-02-20T09:50:39Z</time>
      </trkpt>
      <trkpt lat="45.16646" lon="5.94117">
        <ele>2055.5</ele>
        <time>2021-02-20T09:50:40Z</time>
      </trkpt>
      <trkpt lat="45.16646" lon="5.94118">
        <ele>2055.7</ele>
        <time>2021-02-20T09:50:41Z</time>
      </trkpt>
      <trkpt lat="45.16645" lon="5.94119">
        <ele>2055.9</ele>
        <time>2021-02-20T09:50:42Z</time>
      </trkpt>
      <trkpt lat="45.16644" lon="5.94119">
        <ele>2056.1</ele>
        <time>2021-02-20T09:50:43Z</time>
      </trkpt>
      <trkpt lat="45.16643" lon="5.9412">
        <ele>2056.4</ele>
        <time>2021-02-20T09:50:44Z</time>
      </trkpt>
      <trkpt lat="45.16642" lon="5.94121">
        <ele>2056.6</ele>
        <time>2021-02-20T09:50:45Z</time>
      </trkpt>
      <trkpt lat="45.16641" lon="5.94121">
        <ele>2056.7</ele>
        <time>2021-02-20T09:50:46Z</time>
      </trkpt>
      <trkpt lat="45.16641" lon="5.94122">
        <ele>2056.9</ele>
        <time>2021-02-20T09:50:47Z</time>
      </trkpt>
      <trkpt lat="45.1664" lon="5.94123">
        <ele>2057</ele>
        <time>2021-02-20T09:50:48Z</time>
      </trkpt>
      <trkpt lat="45.1664" lon="5.94123">
        <ele>2057</ele>
        <time>2021-02-20T09:50:49Z</time>
      </trkpt>
      <trkpt lat="45.1664" lon="5.94123">
        <ele>2057</ele>
        <time>2021-02-20T09:50:50Z</time>
      </trkpt>
      <trkpt lat="45.1664" lon="5.94123">
        <ele>2057</ele>
        <time>2021-02-20T09:50:51Z</time>
      </trkpt>
      <trkpt lat="45.1664" lon="5.94123">
        <ele>2057</ele>
        <time>2021-02-20T09:50:52Z</time>
      </trkpt>
      <trkpt lat="45.1664" lon="5.94123">
        <ele>2057</ele>
        <time>2021-02-20T09:50:53Z</time>
      </trkpt>
      <trkpt lat="45.1664" lon="5.94123">
        <ele>2057</ele>
        <time>2021-02-20T09:50:54Z</time>
      </trkpt>
      <trkpt lat="45.1664" lon="5.94123">
        <ele>2057</ele>
        <time>2021-02-20T09:50:55Z</time>
      </trkpt>
      <trkpt lat="45.1664" lon="5.94123">
        <ele>2057</ele>
        <time>2021-02-20T09:50:56Z</time>
      </trkpt>
      <trkpt lat="45.1664" lon="5.94123">
        <ele>2057</ele>
        <time>2021-02-20T09:50:57Z</time>
      </trkpt>
      <trkpt lat="45.1664" lon="5.94123">
        <ele>2057</ele>
        <time>2021-02-20T09:50:58Z</time>
      </trkpt>
      <trkpt lat="45.1664" lon="5.94123">
        <ele>2057</ele>
        <time>2021-02-20T09:50:59Z</time>
      </trkpt>
      <trkpt lat="45.1664" lon="5.94123">
        <ele>2057</ele>
        <time>2021-02-20T09:51:00Z</time>
      </trkpt>
      <trkpt lat="45.1664" lon="5.94123">
        <ele>2057</ele>
        <time>2021-02-20T09:51:01Z</time>
      </trkpt>
      <trkpt lat="45.1664" lon="5.94123">
        <ele>2057</ele>
        <time>2021-02-20T09:51:02Z</time>
      </trkpt>
      <trkpt lat="45.1664" lon="5.94123">
        <ele>2057</ele>
        <time>2021-02-20T09:51:03Z</time>
      </trkpt>
      <trkpt lat="45.1664" lon="5.94123">
        <ele>2057</ele>
        <time>2021-02-20T09:51:04Z</time>
      </trkpt>
      <trkpt lat="45.1664" lon="5.94123">
        <ele>2057</ele>
        <time>2021-02-20T09:51:05Z</time>
      </trkpt>
      <trkpt lat="45.1664" lon="5.94123">
        <ele>2057</ele>
        <time>2021-02-20T09:51:06Z</time>
      </trkpt>
      <trkpt lat="45.1664" lon="5.94123">
        <ele>2057</ele>
        <time>2021-02-20T09:51:07Z</time>
      </trkpt>
      <trkpt lat="45.1664" lon="5.94123">
        <ele>2057</ele>
        <time>2021-02-20T09:51:08Z</time>
      </trkpt>
      <trkpt lat="45.1664" lon="5.94123">
        <ele>2057</ele>
        <time>2021-02-20T09:51:09Z</time>
      </trkpt>
      <trkpt lat="45.1664" lon="5.94123">
        <ele>2057</ele>
        <time>2021-02-20T09:51:10Z</time>
      </trkpt>
      <trkpt lat="45.16642" lon="5.94124">
        <ele>2057.4</ele>
        <time>2021-02-20T09:51:11Z</time>
      </trkpt>
      <trkpt lat="45.16641" lon="5.94124">
        <ele>2057.6</ele>
        <time>2021-02-20T09:51:12Z</time>
      </trkpt>
      <trkpt lat="45.16641" lon="5.94123">
        <ele>2057.7</ele>
        <time>2021-02-20T09:51:13Z</time>
      </trkpt>
      <trkpt lat="45.16641" lon="5.94123">
        <ele>2057.7</ele>
        <time>2021-02-20T09:51:14Z</time>
      </trkpt>
      <trkpt lat="45.1664" lon="5.94123">
        <ele>2057.8</ele>
        <time>2021-02-20T09:51:15Z</time>
      </trkpt>
      <trkpt lat="45.1664" lon="5.94123">
        <ele>2057.8</ele>
        <time>2021-02-20T09:51:16Z</time>
      </trkpt>
      <trkpt lat="45.1664" lon="5.94123">
        <ele>2057.8</ele>
        <time>2021-02-20T09:51:17Z</time>
      </trkpt>
      <trkpt lat="45.1664" lon="5.94123">
        <ele>2057.8</ele>
        <time>2021-02-20T09:51:18Z</time>
      </trkpt>
      <trkpt lat="45.16639" lon="5.94123">
        <ele>2058</ele>
        <time>2021-02-20T09:51:19Z</time>
      </trkpt>
      <trkpt lat="45.16639" lon="5.94123">
        <ele>2058</ele>
        <time>2021-02-20T09:51:20Z</time>
      </trkpt>
      <trkpt lat="45.16639" lon="5.94124">
        <ele>2058.2</ele>
        <time>2021-02-20T09:51:21Z</time>
      </trkpt>
      <trkpt lat="45.16639" lon="5.94124">
        <ele>2058.2</ele>
        <time>2021-02-20T09:51:22Z</time>
      </trkpt>
      <trkpt lat="45.16639" lon="5.94124">
        <ele>2058.2</ele>
        <time>2021-02-20T09:51:23Z</time>
      </trkpt>
      <trkpt lat="45.16639" lon="5.94124">
        <ele>2058.2</ele>
        <time>2021-02-20T09:51:24Z</time>
      </trkpt>
      <trkpt lat="45.16639" lon="5.94125">
        <ele>2058.2</ele>
        <time>2021-02-20T09:51:25Z</time>
      </trkpt>
      <trkpt lat="45.16639" lon="5.94125">
        <ele>2058.3</ele>
        <time>2021-02-20T09:51:26Z</time>
      </trkpt>
      <trkpt lat="45.16639" lon="5.94125">
        <ele>2058.3</ele>
        <time>2021-02-20T09:51:27Z</time>
      </trkpt>
      <trkpt lat="45.16639" lon="5.94125">
        <ele>2058.3</ele>
        <time>2021-02-20T09:51:28Z</time>
      </trkpt>
      <trkpt lat="45.16639" lon="5.94125">
        <ele>2058.3</ele>
        <time>2021-02-20T09:51:29Z</time>
      </trkpt>
      <trkpt lat="45.16639" lon="5.94125">
        <ele>2058.4</ele>
        <time>2021-02-20T09:51:30Z</time>
      </trkpt>
      <trkpt lat="45.16639" lon="5.94125">
        <ele>2058.4</ele>
        <time>2021-02-20T09:51:31Z</time>
      </trkpt>
      <trkpt lat="45.16639" lon="5.94125">
        <ele>2058.4</ele>
        <time>2021-02-20T09:51:32Z</time>
      </trkpt>
      <trkpt lat="45.16639" lon="5.94125">
        <ele>2058.4</ele>
        <time>2021-02-20T09:51:33Z</time>
      </trkpt>
      <trkpt lat="45.16639" lon="5.94125">
        <ele>2058.4</ele>
        <time>2021-02-20T09:51:34Z</time>
      </trkpt>
      <trkpt lat="45.16639" lon="5.94124">
        <ele>2058.5</ele>
        <time>2021-02-20T09:51:35Z</time>
      </trkpt>
      <trkpt lat="45.16639" lon="5.94124">
        <ele>2058.5</ele>
        <time>2021-02-20T09:51:36Z</time>
      </trkpt>
      <trkpt lat="45.16639" lon="5.94124">
        <ele>2058.5</ele>
        <time>2021-02-20T09:51:37Z</time>
      </trkpt>
      <trkpt lat="45.16639" lon="5.94124">
        <ele>2058.5</ele>
        <time>2021-02-20T09:51:38Z</time>
      </trkpt>
      <trkpt lat="45.16639" lon="5.94124">
        <ele>2058.5</ele>
        <time>2021-02-20T09:51:39Z</time>
      </trkpt>
      <trkpt lat="45.16639" lon="5.94124">
        <ele>2058.5</ele>
        <time>2021-02-20T09:51:40Z</time>
      </trkpt>
      <trkpt lat="45.16639" lon="5.94124">
        <ele>2058.5</ele>
        <time>2021-02-20T09:51:41Z</time>
      </trkpt>
      <trkpt lat="45.16639" lon="5.94124">
        <ele>2058.5</ele>
        <time>2021-02-20T09:51:42Z</time>
      </trkpt>
      <trkpt lat="45.16639" lon="5.94124">
        <ele>2058.5</ele>
        <time>2021-02-20T09:51:43Z</time>
      </trkpt>
      <trkpt lat="45.16639" lon="5.94124">
        <ele>2058.5</ele>
        <time>2021-02-20T09:51:44Z</time>
      </trkpt>
      <trkpt lat="45.16639" lon="5.94124">
        <ele>2058.5</ele>
        <time>2021-02-20T09:51:45Z</time>
      </trkpt>
      <trkpt lat="45.16639" lon="5.94124">
        <ele>2058.5</ele>
        <time>2021-02-20T09:51:46Z</time>
      </trkpt>
      <trkpt lat="45.16639" lon="5.94124">
        <ele>2058.5</ele>
        <time>2021-02-20T09:51:47Z</time>
      </trkpt>
      <trkpt lat="45.16639" lon="5.94124">
        <ele>2058.5</ele>
        <time>2021-02-20T09:51:48Z</time>
      </trkpt>
      <trkpt lat="45.16639" lon="5.94124">
        <ele>2058.5</ele>
        <time>2021-02-20T09:51:49Z</time>
      </trkpt>
      <trkpt lat="45.16639" lon="5.94124">
        <ele>2058.5</ele>
        <time>2021-02-20T09:51:50Z</time>
      </trkpt>
      <trkpt lat="45.16639" lon="5.94124">
        <ele>2058.5</ele>
        <time>2021-02-20T09:51:51Z</time>
      </trkpt>
      <trkpt lat="45.16639" lon="5.94124">
        <ele>2058.5</ele>
        <time>2021-02-20T09:51:52Z</time>
      </trkpt>
      <trkpt lat="45.16639" lon="5.94124">
        <ele>2058.5</ele>
        <time>2021-02-20T09:51:53Z</time>
      </trkpt>
      <trkpt lat="45.16639" lon="5.94124">
        <ele>2058.5</ele>
        <time>2021-02-20T09:51:54Z</time>
      </trkpt>
      <trkpt lat="45.16639" lon="5.94124">
        <ele>2058.5</ele>
        <time>2021-02-20T09:51:55Z</time>
      </trkpt>
      <trkpt lat="45.16639" lon="5.94124">
        <ele>2058.5</ele>
        <time>2021-02-20T09:51:56Z</time>
      </trkpt>
      <trkpt lat="45.16639" lon="5.94124">
        <ele>2058.5</ele>
        <time>2021-02-20T09:51:57Z</time>
      </trkpt>
      <trkpt lat="45.16639" lon="5.94124">
        <ele>2058.5</ele>
        <time>2021-02-20T09:51:58Z</time>
      </trkpt>
      <trkpt lat="45.16639" lon="5.94124">
        <ele>2058.5</ele>
        <time>2021-02-20T09:51:59Z</time>
      </trkpt>
      <trkpt lat="45.16639" lon="5.94124">
        <ele>2058.5</ele>
        <time>2021-02-20T09:52:00Z</time>
      </trkpt>
      <trkpt lat="45.16639" lon="5.94124">
        <ele>2058.5</ele>
        <time>2021-02-20T09:52:01Z</time>
      </trkpt>
      <trkpt lat="45.16639" lon="5.94124">
        <ele>2058.5</ele>
        <time>2021-02-20T09:52:02Z</time>
      </trkpt>
      <trkpt lat="45.16639" lon="5.94124">
        <ele>2058.5</ele>
        <time>2021-02-20T09:52:03Z</time>
      </trkpt>
      <trkpt lat="45.16639" lon="5.94125">
        <ele>2058.5</ele>
        <time>2021-02-20T09:52:04Z</time>
      </trkpt>
      <trkpt lat="45.16639" lon="5.94125">
        <ele>2058.6</ele>
        <time>2021-02-20T09:52:05Z</time>
      </trkpt>
      <trkpt lat="45.16639" lon="5.94126">
        <ele>2058.7</ele>
        <time>2021-02-20T09:52:06Z</time>
      </trkpt>
      <trkpt lat="45.16638" lon="5.94127">
        <ele>2058.9</ele>
        <time>2021-02-20T09:52:07Z</time>
      </trkpt>
      <trkpt lat="45.16638" lon="5.94127">
        <ele>2059.1</ele>
        <time>2021-02-20T09:52:08Z</time>
      </trkpt>
      <trkpt lat="45.16637" lon="5.94128">
        <ele>2059.3</ele>
        <time>2021-02-20T09:52:09Z</time>
      </trkpt>
      <trkpt lat="45.16636" lon="5.94129">
        <ele>2059.5</ele>
        <time>2021-02-20T09:52:10Z</time>
      </trkpt>
      <trkpt lat="45.16635" lon="5.94129">
        <ele>2059.6</ele>
        <time>2021-02-20T09:52:11Z</time>
      </trkpt>
      <trkpt lat="45.16635" lon="5.9413">
        <ele>2059.8</ele>
        <time>2021-02-20T09:52:12Z</time>
      </trkpt>
      <trkpt lat="45.16634" lon="5.9413">
        <ele>2059.9</ele>
        <time>2021-02-20T09:52:13Z</time>
      </trkpt>
      <trkpt lat="45.16634" lon="5.9413">
        <ele>2060</ele>
        <time>2021-02-20T09:52:14Z</time>
      </trkpt>
      <trkpt lat="45.16634" lon="5.9413">
        <ele>2060.1</ele>
        <time>2021-02-20T09:52:15Z</time>
      </trkpt>
      <trkpt lat="45.16633" lon="5.9413">
        <ele>2060.3</ele>
        <time>2021-02-20T09:52:16Z</time>
      </trkpt>
      <trkpt lat="45.16632" lon="5.9413">
        <ele>2060.4</ele>
        <time>2021-02-20T09:52:17Z</time>
      </trkpt>
      <trkpt lat="45.16632" lon="5.94131">
        <ele>2060.5</ele>
        <time>2021-02-20T09:52:18Z</time>
      </trkpt>
      <trkpt lat="45.16631" lon="5.94132">
        <ele>2060.7</ele>
        <time>2021-02-20T09:52:19Z</time>
      </trkpt>
      <trkpt lat="45.16631" lon="5.94133">
        <ele>2060.8</ele>
        <time>2021-02-20T09:52:20Z</time>
      </trkpt>
      <trkpt lat="45.16631" lon="5.94134">
        <ele>2060.9</ele>
        <time>2021-02-20T09:52:21Z</time>
      </trkpt>
      <trkpt lat="45.1663" lon="5.94134">
        <ele>2061.1</ele>
        <time>2021-02-20T09:52:22Z</time>
      </trkpt>
      <trkpt lat="45.16629" lon="5.94134">
        <ele>2061.3</ele>
        <time>2021-02-20T09:52:23Z</time>
      </trkpt>
      <trkpt lat="45.16628" lon="5.94135">
        <ele>2061.4</ele>
        <time>2021-02-20T09:52:24Z</time>
      </trkpt>
      <trkpt lat="45.16628" lon="5.94136">
        <ele>2061.5</ele>
        <time>2021-02-20T09:52:25Z</time>
      </trkpt>
      <trkpt lat="45.16628" lon="5.94136">
        <ele>2061.6</ele>
        <time>2021-02-20T09:52:26Z</time>
      </trkpt>
      <trkpt lat="45.16627" lon="5.94136">
        <ele>2061.8</ele>
        <time>2021-02-20T09:52:27Z</time>
      </trkpt>
      <trkpt lat="45.16626" lon="5.94136">
        <ele>2061.9</ele>
        <time>2021-02-20T09:52:28Z</time>
      </trkpt>
      <trkpt lat="45.16625" lon="5.94137">
        <ele>2062.1</ele>
        <time>2021-02-20T09:52:29Z</time>
      </trkpt>
      <trkpt lat="45.16623" lon="5.94137">
        <ele>2062.3</ele>
        <time>2021-02-20T09:52:30Z</time>
      </trkpt>
      <trkpt lat="45.16622" lon="5.94137">
        <ele>2062.4</ele>
        <time>2021-02-20T09:52:31Z</time>
      </trkpt>
      <trkpt lat="45.16621" lon="5.94137">
        <ele>2062.5</ele>
        <time>2021-02-20T09:52:32Z</time>
      </trkpt>
      <trkpt lat="45.16621" lon="5.94137">
        <ele>2062.6</ele>
        <time>2021-02-20T09:52:33Z</time>
      </trkpt>
      <trkpt lat="45.1662" lon="5.94137">
        <ele>2062.6</ele>
        <time>2021-02-20T09:52:34Z</time>
      </trkpt>
      <trkpt lat="45.1662" lon="5.94137">
        <ele>2062.7</ele>
        <time>2021-02-20T09:52:35Z</time>
      </trkpt>
      <trkpt lat="45.16619" lon="5.94138">
        <ele>2062.8</ele>
        <time>2021-02-20T09:52:36Z</time>
      </trkpt>
      <trkpt lat="45.16618" lon="5.94138">
        <ele>2062.8</ele>
        <time>2021-02-20T09:52:37Z</time>
      </trkpt>
      <trkpt lat="45.16618" lon="5.94138">
        <ele>2062.9</ele>
        <time>2021-02-20T09:52:38Z</time>
      </trkpt>
      <trkpt lat="45.16617" lon="5.94138">
        <ele>2063</ele>
        <time>2021-02-20T09:52:39Z</time>
      </trkpt>
      <trkpt lat="45.16616" lon="5.94138">
        <ele>2063.1</ele>
        <time>2021-02-20T09:52:40Z</time>
      </trkpt>
      <trkpt lat="45.16615" lon="5.94139">
        <ele>2063.1</ele>
        <time>2021-02-20T09:52:41Z</time>
      </trkpt>
      <trkpt lat="45.16614" lon="5.94139">
        <ele>2063.2</ele>
        <time>2021-02-20T09:52:42Z</time>
      </trkpt>
      <trkpt lat="45.16613" lon="5.9414">
        <ele>2063.2</ele>
        <time>2021-02-20T09:52:43Z</time>
      </trkpt>
      <trkpt lat="45.16612" lon="5.94141">
        <ele>2063.3</ele>
        <time>2021-02-20T09:52:44Z</time>
      </trkpt>
      <trkpt lat="45.16611" lon="5.94141">
        <ele>2063.3</ele>
        <time>2021-02-20T09:52:45Z</time>
      </trkpt>
      <trkpt lat="45.16611" lon="5.94142">
        <ele>2063.4</ele>
        <time>2021-02-20T09:52:46Z</time>
      </trkpt>
      <trkpt lat="45.1661" lon="5.94142">
        <ele>2063.4</ele>
        <time>2021-02-20T09:52:47Z</time>
      </trkpt>
      <trkpt lat="45.16609" lon="5.94142">
        <ele>2063.4</ele>
        <time>2021-02-20T09:52:48Z</time>
      </trkpt>
      <trkpt lat="45.16608" lon="5.94143">
        <ele>2063.4</ele>
        <time>2021-02-20T09:52:49Z</time>
      </trkpt>
      <trkpt lat="45.16607" lon="5.94143">
        <ele>2063.4</ele>
        <time>2021-02-20T09:52:50Z</time>
      </trkpt>
      <trkpt lat="45.16607" lon="5.94143">
        <ele>2063.4</ele>
        <time>2021-02-20T09:52:51Z</time>
      </trkpt>
      <trkpt lat="45.16607" lon="5.94144">
        <ele>2063.4</ele>
        <time>2021-02-20T09:52:52Z</time>
      </trkpt>
      <trkpt lat="45.16606" lon="5.94144">
        <ele>2063.4</ele>
        <time>2021-02-20T09:52:53Z</time>
      </trkpt>
      <trkpt lat="45.16605" lon="5.94144">
        <ele>2063.4</ele>
        <time>2021-02-20T09:52:54Z</time>
      </trkpt>
      <trkpt lat="45.16604" lon="5.94144">
        <ele>2063.5</ele>
        <time>2021-02-20T09:52:55Z</time>
      </trkpt>
      <trkpt lat="45.16604" lon="5.94144">
        <ele>2063.5</ele>
        <time>2021-02-20T09:52:56Z</time>
      </trkpt>
      <trkpt lat="45.16603" lon="5.94144">
        <ele>2063.5</ele>
        <time>2021-02-20T09:52:57Z</time>
      </trkpt>
      <trkpt lat="45.16602" lon="5.94144">
        <ele>2063.5</ele>
        <time>2021-02-20T09:52:58Z</time>
      </trkpt>
      <trkpt lat="45.16601" lon="5.94144">
        <ele>2063.5</ele>
        <time>2021-02-20T09:52:59Z</time>
      </trkpt>
      <trkpt lat="45.16601" lon="5.94144">
        <ele>2063.5</ele>
        <time>2021-02-20T09:53:00Z</time>
      </trkpt>
      <trkpt lat="45.166" lon="5.94144">
        <ele>2063.5</ele>
        <time>2021-02-20T09:53:01Z</time>
      </trkpt>
      <trkpt lat="45.16599" lon="5.94144">
        <ele>2063.5</ele>
        <time>2021-02-20T09:53:02Z</time>
      </trkpt>
      <trkpt lat="45.16599" lon="5.94144">
        <ele>2063.5</ele>
        <time>2021-02-20T09:53:03Z</time>
      </trkpt>
      <trkpt lat="45.16598" lon="5.94144">
        <ele>2063.5</ele>
        <time>2021-02-20T09:53:04Z</time>
      </trkpt>
      <trkpt lat="45.16597" lon="5.94144">
        <ele>2063.5</ele>
        <time>2021-02-20T09:53:05Z</time>
      </trkpt>
      <trkpt lat="45.16597" lon="5.94145">
        <ele>2063.5</ele>
        <time>2021-02-20T09:53:06Z</time>
      </trkpt>
      <trkpt lat="45.16596" lon="5.94145">
        <ele>2063.6</ele>
        <time>2021-02-20T09:53:07Z</time>
      </trkpt>
      <trkpt lat="45.16596" lon="5.94145">
        <ele>2063.6</ele>
        <time>2021-02-20T09:53:08Z</time>
      </trkpt>
      <trkpt lat="45.16595" lon="5.94145">
        <ele>2063.6</ele>
        <time>2021-02-20T09:53:09Z</time>
      </trkpt>
      <trkpt lat="45.16594" lon="5.94146">
        <ele>2063.6</ele>
        <time>2021-02-20T09:53:10Z</time>
      </trkpt>
      <trkpt lat="45.16593" lon="5.94146">
        <ele>2063.7</ele>
        <time>2021-02-20T09:53:11Z</time>
      </trkpt>
      <trkpt lat="45.16593" lon="5.94146">
        <ele>2063.7</ele>
        <time>2021-02-20T09:53:12Z</time>
      </trkpt>
      <trkpt lat="45.16592" lon="5.94146">
        <ele>2063.7</ele>
        <time>2021-02-20T09:53:13Z</time>
      </trkpt>
      <trkpt lat="45.16591" lon="5.94147">
        <ele>2063.8</ele>
        <time>2021-02-20T09:53:14Z</time>
      </trkpt>
      <trkpt lat="45.16591" lon="5.94147">
        <ele>2063.8</ele>
        <time>2021-02-20T09:53:15Z</time>
      </trkpt>
      <trkpt lat="45.16589" lon="5.94148">
        <ele>2063.9</ele>
        <time>2021-02-20T09:53:16Z</time>
      </trkpt>
      <trkpt lat="45.16588" lon="5.94148">
        <ele>2064</ele>
        <time>2021-02-20T09:53:17Z</time>
      </trkpt>
      <trkpt lat="45.16587" lon="5.94148">
        <ele>2064</ele>
        <time>2021-02-20T09:53:18Z</time>
      </trkpt>
      <trkpt lat="45.16586" lon="5.94147">
        <ele>2064.1</ele>
        <time>2021-02-20T09:53:19Z</time>
      </trkpt>
      <trkpt lat="45.16585" lon="5.94148">
        <ele>2064.2</ele>
        <time>2021-02-20T09:53:20Z</time>
      </trkpt>
      <trkpt lat="45.16584" lon="5.94148">
        <ele>2064.3</ele>
        <time>2021-02-20T09:53:21Z</time>
      </trkpt>
      <trkpt lat="45.16584" lon="5.94148">
        <ele>2064.3</ele>
        <time>2021-02-20T09:53:22Z</time>
      </trkpt>
      <trkpt lat="45.16583" lon="5.94149">
        <ele>2064.4</ele>
        <time>2021-02-20T09:53:23Z</time>
      </trkpt>
      <trkpt lat="45.16582" lon="5.94149">
        <ele>2064.5</ele>
        <time>2021-02-20T09:53:24Z</time>
      </trkpt>
      <trkpt lat="45.16581" lon="5.9415">
        <ele>2064.5</ele>
        <time>2021-02-20T09:53:25Z</time>
      </trkpt>
      <trkpt lat="45.16581" lon="5.9415">
        <ele>2064.6</ele>
        <time>2021-02-20T09:53:26Z</time>
      </trkpt>
      <trkpt lat="45.1658" lon="5.9415">
        <ele>2064.6</ele>
        <time>2021-02-20T09:53:27Z</time>
      </trkpt>
      <trkpt lat="45.1658" lon="5.9415">
        <ele>2064.7</ele>
        <time>2021-02-20T09:53:28Z</time>
      </trkpt>
      <trkpt lat="45.16578" lon="5.94151">
        <ele>2064.8</ele>
        <time>2021-02-20T09:53:29Z</time>
      </trkpt>
      <trkpt lat="45.16578" lon="5.94151">
        <ele>2064.9</ele>
        <time>2021-02-20T09:53:30Z</time>
      </trkpt>
      <trkpt lat="45.16577" lon="5.94151">
        <ele>2065</ele>
        <time>2021-02-20T09:53:31Z</time>
      </trkpt>
      <trkpt lat="45.16576" lon="5.94151">
        <ele>2065</ele>
        <time>2021-02-20T09:53:32Z</time>
      </trkpt>
      <trkpt lat="45.16575" lon="5.94152">
        <ele>2065.2</ele>
        <time>2021-02-20T09:53:33Z</time>
      </trkpt>
      <trkpt lat="45.16574" lon="5.94152">
        <ele>2065.2</ele>
        <time>2021-02-20T09:53:34Z</time>
      </trkpt>
      <trkpt lat="45.16574" lon="5.94152">
        <ele>2065.3</ele>
        <time>2021-02-20T09:53:35Z</time>
      </trkpt>
      <trkpt lat="45.16573" lon="5.94153">
        <ele>2065.4</ele>
        <time>2021-02-20T09:53:36Z</time>
      </trkpt>
      <trkpt lat="45.16572" lon="5.94153">
        <ele>2065.5</ele>
        <time>2021-02-20T09:53:37Z</time>
      </trkpt>
      <trkpt lat="45.16571" lon="5.94153">
        <ele>2065.6</ele>
        <time>2021-02-20T09:53:38Z</time>
      </trkpt>
      <trkpt lat="45.1657" lon="5.94153">
        <ele>2065.7</ele>
        <time>2021-02-20T09:53:39Z</time>
      </trkpt>
      <trkpt lat="45.1657" lon="5.94153">
        <ele>2065.8</ele>
        <time>2021-02-20T09:53:40Z</time>
      </trkpt>
      <trkpt lat="45.16569" lon="5.94154">
        <ele>2065.8</ele>
        <time>2021-02-20T09:53:41Z</time>
      </trkpt>
      <trkpt lat="45.16569" lon="5.94154">
        <ele>2065.9</ele>
        <time>2021-02-20T09:53:42Z</time>
      </trkpt>
      <trkpt lat="45.16569" lon="5.94156">
        <ele>2066</ele>
        <time>2021-02-20T09:53:43Z</time>
      </trkpt>
      <trkpt lat="45.16569" lon="5.94157">
        <ele>2066.1</ele>
        <time>2021-02-20T09:53:44Z</time>
      </trkpt>
      <trkpt lat="45.16569" lon="5.94158">
        <ele>2066.2</ele>
        <time>2021-02-20T09:53:45Z</time>
      </trkpt>
      <trkpt lat="45.16569" lon="5.9416">
        <ele>2066.3</ele>
        <time>2021-02-20T09:53:46Z</time>
      </trkpt>
      <trkpt lat="45.16568" lon="5.94161">
        <ele>2066.4</ele>
        <time>2021-02-20T09:53:47Z</time>
      </trkpt>
      <trkpt lat="45.16568" lon="5.94162">
        <ele>2066.5</ele>
        <time>2021-02-20T09:53:48Z</time>
      </trkpt>
      <trkpt lat="45.16568" lon="5.94164">
        <ele>2066.6</ele>
        <time>2021-02-20T09:53:49Z</time>
      </trkpt>
      <trkpt lat="45.16567" lon="5.94165">
        <ele>2066.7</ele>
        <time>2021-02-20T09:53:50Z</time>
      </trkpt>
      <trkpt lat="45.16567" lon="5.94166">
        <ele>2066.8</ele>
        <time>2021-02-20T09:53:51Z</time>
      </trkpt>
      <trkpt lat="45.16567" lon="5.94167">
        <ele>2066.8</ele>
        <time>2021-02-20T09:53:52Z</time>
      </trkpt>
      <trkpt lat="45.16567" lon="5.94169">
        <ele>2067</ele>
        <time>2021-02-20T09:53:53Z</time>
      </trkpt>
      <trkpt lat="45.16567" lon="5.9417">
        <ele>2067</ele>
        <time>2021-02-20T09:53:54Z</time>
      </trkpt>
      <trkpt lat="45.16567" lon="5.94171">
        <ele>2067.1</ele>
        <time>2021-02-20T09:53:55Z</time>
      </trkpt>
      <trkpt lat="45.16567" lon="5.94172">
        <ele>2067.1</ele>
        <time>2021-02-20T09:53:56Z</time>
      </trkpt>
      <trkpt lat="45.16567" lon="5.94174">
        <ele>2067.2</ele>
        <time>2021-02-20T09:53:57Z</time>
      </trkpt>
      <trkpt lat="45.16566" lon="5.94175">
        <ele>2067.3</ele>
        <time>2021-02-20T09:53:58Z</time>
      </trkpt>
      <trkpt lat="45.16566" lon="5.94177">
        <ele>2067.3</ele>
        <time>2021-02-20T09:53:59Z</time>
      </trkpt>
      <trkpt lat="45.16566" lon="5.94179">
        <ele>2067.4</ele>
        <time>2021-02-20T09:54:00Z</time>
      </trkpt>
      <trkpt lat="45.16566" lon="5.94181">
        <ele>2067.5</ele>
        <time>2021-02-20T09:54:01Z</time>
      </trkpt>
      <trkpt lat="45.16565" lon="5.94182">
        <ele>2067.5</ele>
        <time>2021-02-20T09:54:02Z</time>
      </trkpt>
      <trkpt lat="45.16565" lon="5.94184">
        <ele>2067.6</ele>
        <time>2021-02-20T09:54:03Z</time>
      </trkpt>
      <trkpt lat="45.16565" lon="5.94185">
        <ele>2067.6</ele>
        <time>2021-02-20T09:54:04Z</time>
      </trkpt>
      <trkpt lat="45.16564" lon="5.94186">
        <ele>2067.7</ele>
        <time>2021-02-20T09:54:05Z</time>
      </trkpt>
      <trkpt lat="45.16564" lon="5.94188">
        <ele>2067.7</ele>
        <time>2021-02-20T09:54:06Z</time>
      </trkpt>
      <trkpt lat="45.16563" lon="5.94189">
        <ele>2067.8</ele>
        <time>2021-02-20T09:54:07Z</time>
      </trkpt>
      <trkpt lat="45.16563" lon="5.9419">
        <ele>2067.8</ele>
        <time>2021-02-20T09:54:08Z</time>
      </trkpt>
      <trkpt lat="45.16562" lon="5.9419">
        <ele>2067.8</ele>
        <time>2021-02-20T09:54:09Z</time>
      </trkpt>
      <trkpt lat="45.16562" lon="5.94192">
        <ele>2067.9</ele>
        <time>2021-02-20T09:54:10Z</time>
      </trkpt>
      <trkpt lat="45.16562" lon="5.94193">
        <ele>2067.9</ele>
        <time>2021-02-20T09:54:11Z</time>
      </trkpt>
      <trkpt lat="45.16562" lon="5.94193">
        <ele>2067.9</ele>
        <time>2021-02-20T09:54:12Z</time>
      </trkpt>
      <trkpt lat="45.16562" lon="5.94194">
        <ele>2068</ele>
        <time>2021-02-20T09:54:13Z</time>
      </trkpt>
      <trkpt lat="45.16561" lon="5.94194">
        <ele>2068</ele>
        <time>2021-02-20T09:54:14Z</time>
      </trkpt>
      <trkpt lat="45.16561" lon="5.94195">
        <ele>2068.1</ele>
        <time>2021-02-20T09:54:15Z</time>
      </trkpt>
      <trkpt lat="45.1656" lon="5.94195">
        <ele>2068.1</ele>
        <time>2021-02-20T09:54:16Z</time>
      </trkpt>
      <trkpt lat="45.1656" lon="5.94195">
        <ele>2068.2</ele>
        <time>2021-02-20T09:54:17Z</time>
      </trkpt>
      <trkpt lat="45.16559" lon="5.94196">
        <ele>2068.2</ele>
        <time>2021-02-20T09:54:18Z</time>
      </trkpt>
      <trkpt lat="45.16558" lon="5.94196">
        <ele>2068.2</ele>
        <time>2021-02-20T09:54:19Z</time>
      </trkpt>
      <trkpt lat="45.16558" lon="5.94197">
        <ele>2068.3</ele>
        <time>2021-02-20T09:54:20Z</time>
      </trkpt>
      <trkpt lat="45.16558" lon="5.94198">
        <ele>2068.4</ele>
        <time>2021-02-20T09:54:21Z</time>
      </trkpt>
      <trkpt lat="45.16557" lon="5.94198">
        <ele>2068.4</ele>
        <time>2021-02-20T09:54:22Z</time>
      </trkpt>
      <trkpt lat="45.16557" lon="5.94199">
        <ele>2068.5</ele>
        <time>2021-02-20T09:54:23Z</time>
      </trkpt>
      <trkpt lat="45.16556" lon="5.942">
        <ele>2068.6</ele>
        <time>2021-02-20T09:54:24Z</time>
      </trkpt>
      <trkpt lat="45.16556" lon="5.94201">
        <ele>2068.7</ele>
        <time>2021-02-20T09:54:25Z</time>
      </trkpt>
      <trkpt lat="45.16555" lon="5.94202">
        <ele>2068.8</ele>
        <time>2021-02-20T09:54:26Z</time>
      </trkpt>
      <trkpt lat="45.16555" lon="5.94203">
        <ele>2068.9</ele>
        <time>2021-02-20T09:54:27Z</time>
      </trkpt>
      <trkpt lat="45.16555" lon="5.94204">
        <ele>2069</ele>
        <time>2021-02-20T09:54:28Z</time>
      </trkpt>
      <trkpt lat="45.16554" lon="5.94205">
        <ele>2069.1</ele>
        <time>2021-02-20T09:54:29Z</time>
      </trkpt>
      <trkpt lat="45.16553" lon="5.94207">
        <ele>2069.3</ele>
        <time>2021-02-20T09:54:30Z</time>
      </trkpt>
      <trkpt lat="45.16553" lon="5.94208">
        <ele>2069.4</ele>
        <time>2021-02-20T09:54:31Z</time>
      </trkpt>
      <trkpt lat="45.16552" lon="5.94209">
        <ele>2069.5</ele>
        <time>2021-02-20T09:54:32Z</time>
      </trkpt>
      <trkpt lat="45.16552" lon="5.9421">
        <ele>2069.6</ele>
        <time>2021-02-20T09:54:33Z</time>
      </trkpt>
      <trkpt lat="45.16551" lon="5.94211">
        <ele>2069.7</ele>
        <time>2021-02-20T09:54:34Z</time>
      </trkpt>
      <trkpt lat="45.16551" lon="5.94211">
        <ele>2069.9</ele>
        <time>2021-02-20T09:54:35Z</time>
      </trkpt>
      <trkpt lat="45.1655" lon="5.94212">
        <ele>2070</ele>
        <time>2021-02-20T09:54:36Z</time>
      </trkpt>
      <trkpt lat="45.1655" lon="5.94213">
        <ele>2070.1</ele>
        <time>2021-02-20T09:54:37Z</time>
      </trkpt>
      <trkpt lat="45.16549" lon="5.94214">
        <ele>2070.2</ele>
        <time>2021-02-20T09:54:38Z</time>
      </trkpt>
      <trkpt lat="45.16549" lon="5.94215">
        <ele>2070.3</ele>
        <time>2021-02-20T09:54:39Z</time>
      </trkpt>
      <trkpt lat="45.16548" lon="5.94216">
        <ele>2070.5</ele>
        <time>2021-02-20T09:54:40Z</time>
      </trkpt>
      <trkpt lat="45.16547" lon="5.94217">
        <ele>2070.6</ele>
        <time>2021-02-20T09:54:41Z</time>
      </trkpt>
      <trkpt lat="45.16547" lon="5.94217">
        <ele>2070.7</ele>
        <time>2021-02-20T09:54:42Z</time>
      </trkpt>
      <trkpt lat="45.16546" lon="5.94218">
        <ele>2070.9</ele>
        <time>2021-02-20T09:54:43Z</time>
      </trkpt>
      <trkpt lat="45.16545" lon="5.94219">
        <ele>2071</ele>
        <time>2021-02-20T09:54:44Z</time>
      </trkpt>
      <trkpt lat="45.16544" lon="5.9422">
        <ele>2071.1</ele>
        <time>2021-02-20T09:54:45Z</time>
      </trkpt>
      <trkpt lat="45.16543" lon="5.94221">
        <ele>2071.3</ele>
        <time>2021-02-20T09:54:46Z</time>
      </trkpt>
      <trkpt lat="45.16542" lon="5.94222">
        <ele>2071.4</ele>
        <time>2021-02-20T09:54:47Z</time>
      </trkpt>
      <trkpt lat="45.16542" lon="5.94223">
        <ele>2071.5</ele>
        <time>2021-02-20T09:54:48Z</time>
      </trkpt>
      <trkpt lat="45.16541" lon="5.94224">
        <ele>2071.6</ele>
        <time>2021-02-20T09:54:49Z</time>
      </trkpt>
      <trkpt lat="45.16541" lon="5.94225">
        <ele>2071.8</ele>
        <time>2021-02-20T09:54:50Z</time>
      </trkpt>
      <trkpt lat="45.1654" lon="5.94226">
        <ele>2071.9</ele>
        <time>2021-02-20T09:54:51Z</time>
      </trkpt>
      <trkpt lat="45.1654" lon="5.94228">
        <ele>2072</ele>
        <time>2021-02-20T09:54:52Z</time>
      </trkpt>
      <trkpt lat="45.16539" lon="5.9423">
        <ele>2072.2</ele>
        <time>2021-02-20T09:54:53Z</time>
      </trkpt>
      <trkpt lat="45.16538" lon="5.94231">
        <ele>2072.2</ele>
        <time>2021-02-20T09:54:54Z</time>
      </trkpt>
      <trkpt lat="45.16538" lon="5.94232">
        <ele>2072.3</ele>
        <time>2021-02-20T09:54:55Z</time>
      </trkpt>
      <trkpt lat="45.16538" lon="5.94233">
        <ele>2072.3</ele>
        <time>2021-02-20T09:54:56Z</time>
      </trkpt>
      <trkpt lat="45.16537" lon="5.94234">
        <ele>2072.4</ele>
        <time>2021-02-20T09:54:57Z</time>
      </trkpt>
      <trkpt lat="45.16537" lon="5.94235">
        <ele>2072.4</ele>
        <time>2021-02-20T09:54:58Z</time>
      </trkpt>
      <trkpt lat="45.16536" lon="5.94236">
        <ele>2072.5</ele>
        <time>2021-02-20T09:54:59Z</time>
      </trkpt>
      <trkpt lat="45.16536" lon="5.94237">
        <ele>2072.5</ele>
        <time>2021-02-20T09:55:00Z</time>
      </trkpt>
      <trkpt lat="45.16535" lon="5.94237">
        <ele>2072.6</ele>
        <time>2021-02-20T09:55:01Z</time>
      </trkpt>
      <trkpt lat="45.16534" lon="5.94238">
        <ele>2072.6</ele>
        <time>2021-02-20T09:55:02Z</time>
      </trkpt>
      <trkpt lat="45.16534" lon="5.94239">
        <ele>2072.6</ele>
        <time>2021-02-20T09:55:03Z</time>
      </trkpt>
      <trkpt lat="45.16532" lon="5.94241">
        <ele>2072.6</ele>
        <time>2021-02-20T09:55:04Z</time>
      </trkpt>
      <trkpt lat="45.16531" lon="5.94242">
        <ele>2072.6</ele>
        <time>2021-02-20T09:55:05Z</time>
      </trkpt>
      <trkpt lat="45.16531" lon="5.94243">
        <ele>2072.6</ele>
        <time>2021-02-20T09:55:06Z</time>
      </trkpt>
      <trkpt lat="45.16528" lon="5.94245">
        <ele>2072.6</ele>
        <time>2021-02-20T09:55:07Z</time>
      </trkpt>
      <trkpt lat="45.16527" lon="5.94246">
        <ele>2072.6</ele>
        <time>2021-02-20T09:55:08Z</time>
      </trkpt>
      <trkpt lat="45.16526" lon="5.94246">
        <ele>2072.6</ele>
        <time>2021-02-20T09:55:09Z</time>
      </trkpt>
      <trkpt lat="45.16525" lon="5.94247">
        <ele>2072.5</ele>
        <time>2021-02-20T09:55:10Z</time>
      </trkpt>
      <trkpt lat="45.16524" lon="5.94247">
        <ele>2072.5</ele>
        <time>2021-02-20T09:55:11Z</time>
      </trkpt>
      <trkpt lat="45.16522" lon="5.94248">
        <ele>2072.4</ele>
        <time>2021-02-20T09:55:12Z</time>
      </trkpt>
      <trkpt lat="45.16521" lon="5.94248">
        <ele>2072.4</ele>
        <time>2021-02-20T09:55:13Z</time>
      </trkpt>
      <trkpt lat="45.1652" lon="5.94248">
        <ele>2072.4</ele>
        <time>2021-02-20T09:55:14Z</time>
      </trkpt>
      <trkpt lat="45.16519" lon="5.94248">
        <ele>2072.4</ele>
        <time>2021-02-20T09:55:15Z</time>
      </trkpt>
      <trkpt lat="45.16518" lon="5.94248">
        <ele>2072.3</ele>
        <time>2021-02-20T09:55:16Z</time>
      </trkpt>
      <trkpt lat="45.16517" lon="5.94248">
        <ele>2072.1</ele>
        <time>2021-02-20T09:55:17Z</time>
      </trkpt>
      <trkpt lat="45.16516" lon="5.94249">
        <ele>2072.1</ele>
        <time>2021-02-20T09:55:18Z</time>
      </trkpt>
      <trkpt lat="45.16514" lon="5.94249">
        <ele>2072.1</ele>
        <time>2021-02-20T09:55:19Z</time>
      </trkpt>
      <trkpt lat="45.16513" lon="5.94249">
        <ele>2072.1</ele>
        <time>2021-02-20T09:55:20Z</time>
      </trkpt>
      <trkpt lat="45.16512" lon="5.9425">
        <ele>2072.1</ele>
        <time>2021-02-20T09:55:21Z</time>
      </trkpt>
      <trkpt lat="45.16512" lon="5.9425">
        <ele>2072.1</ele>
        <time>2021-02-20T09:55:22Z</time>
      </trkpt>
      <trkpt lat="45.16511" lon="5.94251">
        <ele>2072.1</ele>
        <time>2021-02-20T09:55:23Z</time>
      </trkpt>
      <trkpt lat="45.1651" lon="5.94251">
        <ele>2072.1</ele>
        <time>2021-02-20T09:55:24Z</time>
      </trkpt>
      <trkpt lat="45.16509" lon="5.94251">
        <ele>2072.1</ele>
        <time>2021-02-20T09:55:25Z</time>
      </trkpt>
      <trkpt lat="45.16507" lon="5.94251">
        <ele>2072.4</ele>
        <time>2021-02-20T09:55:26Z</time>
      </trkpt>
      <trkpt lat="45.16506" lon="5.94251">
        <ele>2072.7</ele>
        <time>2021-02-20T09:55:27Z</time>
      </trkpt>
      <trkpt lat="45.16505" lon="5.94252">
        <ele>2072.9</ele>
        <time>2021-02-20T09:55:28Z</time>
      </trkpt>
      <trkpt lat="45.16505" lon="5.94252">
        <ele>2073.2</ele>
        <time>2021-02-20T09:55:29Z</time>
      </trkpt>
      <trkpt lat="45.16503" lon="5.94253">
        <ele>2073.5</ele>
        <time>2021-02-20T09:55:30Z</time>
      </trkpt>
      <trkpt lat="45.16503" lon="5.94253">
        <ele>2073.7</ele>
        <time>2021-02-20T09:55:31Z</time>
      </trkpt>
      <trkpt lat="45.16502" lon="5.94253">
        <ele>2073.9</ele>
        <time>2021-02-20T09:55:32Z</time>
      </trkpt>
      <trkpt lat="45.16501" lon="5.94254">
        <ele>2074.2</ele>
        <time>2021-02-20T09:55:33Z</time>
      </trkpt>
      <trkpt lat="45.165" lon="5.94254">
        <ele>2074.4</ele>
        <time>2021-02-20T09:55:34Z</time>
      </trkpt>
      <trkpt lat="45.16499" lon="5.94254">
        <ele>2074.6</ele>
        <time>2021-02-20T09:55:35Z</time>
      </trkpt>
      <trkpt lat="45.16498" lon="5.94255">
        <ele>2074.9</ele>
        <time>2021-02-20T09:55:36Z</time>
      </trkpt>
      <trkpt lat="45.16497" lon="5.94255">
        <ele>2075.2</ele>
        <time>2021-02-20T09:55:37Z</time>
      </trkpt>
      <trkpt lat="45.16496" lon="5.94256">
        <ele>2075.5</ele>
        <time>2021-02-20T09:55:38Z</time>
      </trkpt>
      <trkpt lat="45.16495" lon="5.94256">
        <ele>2075.8</ele>
        <time>2021-02-20T09:55:39Z</time>
      </trkpt>
      <trkpt lat="45.16494" lon="5.94257">
        <ele>2076.1</ele>
        <time>2021-02-20T09:55:40Z</time>
      </trkpt>
      <trkpt lat="45.16493" lon="5.94258">
        <ele>2076.4</ele>
        <time>2021-02-20T09:55:41Z</time>
      </trkpt>
      <trkpt lat="45.16492" lon="5.94258">
        <ele>2076.7</ele>
        <time>2021-02-20T09:55:42Z</time>
      </trkpt>
      <trkpt lat="45.16491" lon="5.94259">
        <ele>2077</ele>
        <time>2021-02-20T09:55:43Z</time>
      </trkpt>
      <trkpt lat="45.1649" lon="5.94259">
        <ele>2077.3</ele>
        <time>2021-02-20T09:55:44Z</time>
      </trkpt>
      <trkpt lat="45.16489" lon="5.9426">
        <ele>2077.7</ele>
        <time>2021-02-20T09:55:45Z</time>
      </trkpt>
      <trkpt lat="45.16488" lon="5.9426">
        <ele>2078</ele>
        <time>2021-02-20T09:55:46Z</time>
      </trkpt>
      <trkpt lat="45.16487" lon="5.94261">
        <ele>2078.2</ele>
        <time>2021-02-20T09:55:47Z</time>
      </trkpt>
      <trkpt lat="45.16486" lon="5.94261">
        <ele>2078.6</ele>
        <time>2021-02-20T09:55:48Z</time>
      </trkpt>
      <trkpt lat="45.16485" lon="5.94261">
        <ele>2078.9</ele>
        <time>2021-02-20T09:55:49Z</time>
      </trkpt>
      <trkpt lat="45.16484" lon="5.94262">
        <ele>2079.2</ele>
        <time>2021-02-20T09:55:50Z</time>
      </trkpt>
      <trkpt lat="45.16483" lon="5.94262">
        <ele>2079.5</ele>
        <time>2021-02-20T09:55:51Z</time>
      </trkpt>
      <trkpt lat="45.16482" lon="5.94263">
        <ele>2079.8</ele>
        <time>2021-02-20T09:55:52Z</time>
      </trkpt>
      <trkpt lat="45.16482" lon="5.94264">
        <ele>2080</ele>
        <time>2021-02-20T09:55:53Z</time>
      </trkpt>
      <trkpt lat="45.16481" lon="5.94264">
        <ele>2080</ele>
        <time>2021-02-20T09:55:54Z</time>
      </trkpt>
      <trkpt lat="45.16481" lon="5.94265">
        <ele>2080.2</ele>
        <time>2021-02-20T09:55:55Z</time>
      </trkpt>
      <trkpt lat="45.1648" lon="5.94266">
        <ele>2080.3</ele>
        <time>2021-02-20T09:55:56Z</time>
      </trkpt>
      <trkpt lat="45.1648" lon="5.94266">
        <ele>2080.4</ele>
        <time>2021-02-20T09:55:57Z</time>
      </trkpt>
      <trkpt lat="45.16479" lon="5.94267">
        <ele>2080.6</ele>
        <time>2021-02-20T09:55:58Z</time>
      </trkpt>
      <trkpt lat="45.16478" lon="5.94267">
        <ele>2080.8</ele>
        <time>2021-02-20T09:55:59Z</time>
      </trkpt>
      <trkpt lat="45.16477" lon="5.94268">
        <ele>2081</ele>
        <time>2021-02-20T09:56:00Z</time>
      </trkpt>
      <trkpt lat="45.16477" lon="5.94268">
        <ele>2081.1</ele>
        <time>2021-02-20T09:56:01Z</time>
      </trkpt>
      <trkpt lat="45.16476" lon="5.94268">
        <ele>2081.2</ele>
        <time>2021-02-20T09:56:02Z</time>
      </trkpt>
      <trkpt lat="45.16475" lon="5.94269">
        <ele>2081.4</ele>
        <time>2021-02-20T09:56:03Z</time>
      </trkpt>
      <trkpt lat="45.16474" lon="5.94269">
        <ele>2081.5</ele>
        <time>2021-02-20T09:56:04Z</time>
      </trkpt>
      <trkpt lat="45.16474" lon="5.94269">
        <ele>2081.7</ele>
        <time>2021-02-20T09:56:05Z</time>
      </trkpt>
      <trkpt lat="45.16473" lon="5.94269">
        <ele>2081.8</ele>
        <time>2021-02-20T09:56:06Z</time>
      </trkpt>
      <trkpt lat="45.16472" lon="5.94269">
        <ele>2082</ele>
        <time>2021-02-20T09:56:07Z</time>
      </trkpt>
      <trkpt lat="45.16471" lon="5.9427">
        <ele>2082.1</ele>
        <time>2021-02-20T09:56:08Z</time>
      </trkpt>
      <trkpt lat="45.16471" lon="5.9427">
        <ele>2082.3</ele>
        <time>2021-02-20T09:56:09Z</time>
      </trkpt>
      <trkpt lat="45.1647" lon="5.9427">
        <ele>2082.5</ele>
        <time>2021-02-20T09:56:10Z</time>
      </trkpt>
      <trkpt lat="45.16469" lon="5.94271">
        <ele>2082.6</ele>
        <time>2021-02-20T09:56:11Z</time>
      </trkpt>
      <trkpt lat="45.16468" lon="5.94271">
        <ele>2082.8</ele>
        <time>2021-02-20T09:56:12Z</time>
      </trkpt>
      <trkpt lat="45.16467" lon="5.94272">
        <ele>2083</ele>
        <time>2021-02-20T09:56:13Z</time>
      </trkpt>
      <trkpt lat="45.16466" lon="5.94272">
        <ele>2083.2</ele>
        <time>2021-02-20T09:56:14Z</time>
      </trkpt>
      <trkpt lat="45.16466" lon="5.94272">
        <ele>2083.3</ele>
        <time>2021-02-20T09:56:15Z</time>
      </trkpt>
      <trkpt lat="45.16465" lon="5.94273">
        <ele>2083.5</ele>
        <time>2021-02-20T09:56:16Z</time>
      </trkpt>
      <trkpt lat="45.16464" lon="5.94273">
        <ele>2083.7</ele>
        <time>2021-02-20T09:56:17Z</time>
      </trkpt>
      <trkpt lat="45.16463" lon="5.94273">
        <ele>2083.8</ele>
        <time>2021-02-20T09:56:18Z</time>
      </trkpt>
      <trkpt lat="45.16463" lon="5.94274">
        <ele>2083.9</ele>
        <time>2021-02-20T09:56:19Z</time>
      </trkpt>
      <trkpt lat="45.16462" lon="5.94274">
        <ele>2084</ele>
        <time>2021-02-20T09:56:20Z</time>
      </trkpt>
      <trkpt lat="45.16462" lon="5.94274">
        <ele>2084.1</ele>
        <time>2021-02-20T09:56:21Z</time>
      </trkpt>
      <trkpt lat="45.16461" lon="5.94275">
        <ele>2084.2</ele>
        <time>2021-02-20T09:56:22Z</time>
      </trkpt>
      <trkpt lat="45.16461" lon="5.94275">
        <ele>2084.3</ele>
        <time>2021-02-20T09:56:23Z</time>
      </trkpt>
      <trkpt lat="45.1646" lon="5.94276">
        <ele>2084.5</ele>
        <time>2021-02-20T09:56:24Z</time>
      </trkpt>
      <trkpt lat="45.1646" lon="5.94276">
        <ele>2084.6</ele>
        <time>2021-02-20T09:56:25Z</time>
      </trkpt>
      <trkpt lat="45.16459" lon="5.94277">
        <ele>2084.7</ele>
        <time>2021-02-20T09:56:26Z</time>
      </trkpt>
      <trkpt lat="45.16459" lon="5.94278">
        <ele>2084.9</ele>
        <time>2021-02-20T09:56:27Z</time>
      </trkpt>
      <trkpt lat="45.16459" lon="5.94279">
        <ele>2085</ele>
        <time>2021-02-20T09:56:28Z</time>
      </trkpt>
      <trkpt lat="45.16458" lon="5.94279">
        <ele>2085.1</ele>
        <time>2021-02-20T09:56:29Z</time>
      </trkpt>
      <trkpt lat="45.16458" lon="5.9428">
        <ele>2085.2</ele>
        <time>2021-02-20T09:56:30Z</time>
      </trkpt>
      <trkpt lat="45.16458" lon="5.9428">
        <ele>2085.3</ele>
        <time>2021-02-20T09:56:31Z</time>
      </trkpt>
      <trkpt lat="45.16457" lon="5.94281">
        <ele>2085.4</ele>
        <time>2021-02-20T09:56:32Z</time>
      </trkpt>
      <trkpt lat="45.16457" lon="5.94281">
        <ele>2085.5</ele>
        <time>2021-02-20T09:56:33Z</time>
      </trkpt>
      <trkpt lat="45.16457" lon="5.94282">
        <ele>2085.6</ele>
        <time>2021-02-20T09:56:34Z</time>
      </trkpt>
      <trkpt lat="45.16456" lon="5.94283">
        <ele>2085.8</ele>
        <time>2021-02-20T09:56:35Z</time>
      </trkpt>
      <trkpt lat="45.16456" lon="5.94284">
        <ele>2086</ele>
        <time>2021-02-20T09:56:36Z</time>
      </trkpt>
      <trkpt lat="45.16455" lon="5.94285">
        <ele>2086.1</ele>
        <time>2021-02-20T09:56:37Z</time>
      </trkpt>
      <trkpt lat="45.16455" lon="5.94285">
        <ele>2086.1</ele>
        <time>2021-02-20T09:56:38Z</time>
      </trkpt>
      <trkpt lat="45.16455" lon="5.94286">
        <ele>2086.2</ele>
        <time>2021-02-20T09:56:39Z</time>
      </trkpt>
      <trkpt lat="45.16455" lon="5.94286">
        <ele>2086.2</ele>
        <time>2021-02-20T09:56:40Z</time>
      </trkpt>
      <trkpt lat="45.16455" lon="5.94287">
        <ele>2086.4</ele>
        <time>2021-02-20T09:56:41Z</time>
      </trkpt>
      <trkpt lat="45.16454" lon="5.94288">
        <ele>2086.6</ele>
        <time>2021-02-20T09:56:42Z</time>
      </trkpt>
      <trkpt lat="45.16454" lon="5.9429">
        <ele>2086.8</ele>
        <time>2021-02-20T09:56:43Z</time>
      </trkpt>
      <trkpt lat="45.16453" lon="5.94291">
        <ele>2087</ele>
        <time>2021-02-20T09:56:44Z</time>
      </trkpt>
      <trkpt lat="45.16452" lon="5.94292">
        <ele>2087.2</ele>
        <time>2021-02-20T09:56:45Z</time>
      </trkpt>
      <trkpt lat="45.16452" lon="5.94293">
        <ele>2087.3</ele>
        <time>2021-02-20T09:56:46Z</time>
      </trkpt>
      <trkpt lat="45.16452" lon="5.94294">
        <ele>2087.4</ele>
        <time>2021-02-20T09:56:47Z</time>
      </trkpt>
      <trkpt lat="45.16452" lon="5.94294">
        <ele>2087.4</ele>
        <time>2021-02-20T09:56:48Z</time>
      </trkpt>
      <trkpt lat="45.16451" lon="5.94295">
        <ele>2087.4</ele>
        <time>2021-02-20T09:56:49Z</time>
      </trkpt>
      <trkpt lat="45.16451" lon="5.94295">
        <ele>2087.4</ele>
        <time>2021-02-20T09:56:50Z</time>
      </trkpt>
      <trkpt lat="45.16449" lon="5.94297">
        <ele>2088</ele>
        <time>2021-02-20T09:56:51Z</time>
      </trkpt>
      <trkpt lat="45.16448" lon="5.94298">
        <ele>2088.9</ele>
        <time>2021-02-20T09:56:52Z</time>
      </trkpt>
      <trkpt lat="45.16448" lon="5.94299">
        <ele>2088.9</ele>
        <time>2021-02-20T09:56:53Z</time>
      </trkpt>
      <trkpt lat="45.16447" lon="5.943">
        <ele>2088.9</ele>
        <time>2021-02-20T09:56:54Z</time>
      </trkpt>
      <trkpt lat="45.16446" lon="5.94301">
        <ele>2089.5</ele>
        <time>2021-02-20T09:56:55Z</time>
      </trkpt>
      <trkpt lat="45.16446" lon="5.94303">
        <ele>2090.5</ele>
        <time>2021-02-20T09:56:56Z</time>
      </trkpt>
      <trkpt lat="45.16445" lon="5.94304">
        <ele>2090.5</ele>
        <time>2021-02-20T09:56:57Z</time>
      </trkpt>
      <trkpt lat="45.16445" lon="5.94305">
        <ele>2091.2</ele>
        <time>2021-02-20T09:56:58Z</time>
      </trkpt>
      <trkpt lat="45.16444" lon="5.94307">
        <ele>2091.2</ele>
        <time>2021-02-20T09:56:59Z</time>
      </trkpt>
      <trkpt lat="45.16444" lon="5.94308">
        <ele>2091.2</ele>
        <time>2021-02-20T09:57:00Z</time>
      </trkpt>
      <trkpt lat="45.16443" lon="5.94308">
        <ele>2092.2</ele>
        <time>2021-02-20T09:57:01Z</time>
      </trkpt>
      <trkpt lat="45.16442" lon="5.94309">
        <ele>2092.9</ele>
        <time>2021-02-20T09:57:02Z</time>
      </trkpt>
      <trkpt lat="45.16442" lon="5.94311">
        <ele>2092.9</ele>
        <time>2021-02-20T09:57:03Z</time>
      </trkpt>
      <trkpt lat="45.16441" lon="5.94312">
        <ele>2092.9</ele>
        <time>2021-02-20T09:57:04Z</time>
      </trkpt>
      <trkpt lat="45.16441" lon="5.94312">
        <ele>2092.9</ele>
        <time>2021-02-20T09:57:05Z</time>
      </trkpt>
      <trkpt lat="45.16441" lon="5.94313">
        <ele>2093.6</ele>
        <time>2021-02-20T09:57:06Z</time>
      </trkpt>
      <trkpt lat="45.1644" lon="5.94315">
        <ele>2093.6</ele>
        <time>2021-02-20T09:57:07Z</time>
      </trkpt>
      <trkpt lat="45.1644" lon="5.94316">
        <ele>2094.6</ele>
        <time>2021-02-20T09:57:08Z</time>
      </trkpt>
      <trkpt lat="45.16439" lon="5.94317">
        <ele>2094.6</ele>
        <time>2021-02-20T09:57:09Z</time>
      </trkpt>
      <trkpt lat="45.16439" lon="5.94318">
        <ele>2095.2</ele>
        <time>2021-02-20T09:57:10Z</time>
      </trkpt>
      <trkpt lat="45.16439" lon="5.94319">
        <ele>2095.2</ele>
        <time>2021-02-20T09:57:11Z</time>
      </trkpt>
      <trkpt lat="45.16439" lon="5.9432">
        <ele>2095.2</ele>
        <time>2021-02-20T09:57:12Z</time>
      </trkpt>
      <trkpt lat="45.16439" lon="5.94322">
        <ele>2095.8</ele>
        <time>2021-02-20T09:57:13Z</time>
      </trkpt>
      <trkpt lat="45.16439" lon="5.94323">
        <ele>2095.8</ele>
        <time>2021-02-20T09:57:14Z</time>
      </trkpt>
      <trkpt lat="45.16438" lon="5.94325">
        <ele>2095.8</ele>
        <time>2021-02-20T09:57:15Z</time>
      </trkpt>
      <trkpt lat="45.16438" lon="5.94327">
        <ele>2096.4</ele>
        <time>2021-02-20T09:57:16Z</time>
      </trkpt>
      <trkpt lat="45.16438" lon="5.94328">
        <ele>2096.4</ele>
        <time>2021-02-20T09:57:17Z</time>
      </trkpt>
      <trkpt lat="45.16438" lon="5.94328">
        <ele>2096.4</ele>
        <time>2021-02-20T09:57:18Z</time>
      </trkpt>
      <trkpt lat="45.16438" lon="5.94329">
        <ele>2096.4</ele>
        <time>2021-02-20T09:57:19Z</time>
      </trkpt>
      <trkpt lat="45.16438" lon="5.9433">
        <ele>2096.4</ele>
        <time>2021-02-20T09:57:20Z</time>
      </trkpt>
      <trkpt lat="45.16439" lon="5.94331">
        <ele>2097</ele>
        <time>2021-02-20T09:57:21Z</time>
      </trkpt>
      <trkpt lat="45.16438" lon="5.94332">
        <ele>2097</ele>
        <time>2021-02-20T09:57:22Z</time>
      </trkpt>
      <trkpt lat="45.16438" lon="5.94334">
        <ele>2097</ele>
        <time>2021-02-20T09:57:23Z</time>
      </trkpt>
      <trkpt lat="45.16438" lon="5.94335">
        <ele>2097</ele>
        <time>2021-02-20T09:57:24Z</time>
      </trkpt>
      <trkpt lat="45.16437" lon="5.94335">
        <ele>2097.6</ele>
        <time>2021-02-20T09:57:25Z</time>
      </trkpt>
      <trkpt lat="45.16437" lon="5.94336">
        <ele>2097.6</ele>
        <time>2021-02-20T09:57:26Z</time>
      </trkpt>
      <trkpt lat="45.16438" lon="5.94337">
        <ele>2097.6</ele>
        <time>2021-02-20T09:57:27Z</time>
      </trkpt>
      <trkpt lat="45.16438" lon="5.94338">
        <ele>2097.6</ele>
        <time>2021-02-20T09:57:28Z</time>
      </trkpt>
      <trkpt lat="45.16437" lon="5.94338">
        <ele>2097.6</ele>
        <time>2021-02-20T09:57:29Z</time>
      </trkpt>
      <trkpt lat="45.16437" lon="5.94338">
        <ele>2098.5</ele>
        <time>2021-02-20T09:57:30Z</time>
      </trkpt>
      <trkpt lat="45.16436" lon="5.94338">
        <ele>2098.5</ele>
        <time>2021-02-20T09:57:31Z</time>
      </trkpt>
      <trkpt lat="45.16435" lon="5.94339">
        <ele>2098.5</ele>
        <time>2021-02-20T09:57:32Z</time>
      </trkpt>
      <trkpt lat="45.16434" lon="5.94339">
        <ele>2100</ele>
        <time>2021-02-20T09:57:33Z</time>
      </trkpt>
      <trkpt lat="45.16433" lon="5.94339">
        <ele>2100</ele>
        <time>2021-02-20T09:57:34Z</time>
      </trkpt>
      <trkpt lat="45.16432" lon="5.94339">
        <ele>2100</ele>
        <time>2021-02-20T09:57:35Z</time>
      </trkpt>
      <trkpt lat="45.16432" lon="5.94339">
        <ele>2100</ele>
        <time>2021-02-20T09:57:36Z</time>
      </trkpt>
      <trkpt lat="45.16431" lon="5.94339">
        <ele>2100</ele>
        <time>2021-02-20T09:57:37Z</time>
      </trkpt>
      <trkpt lat="45.16431" lon="5.94338">
        <ele>2099.3</ele>
        <time>2021-02-20T09:57:38Z</time>
      </trkpt>
      <trkpt lat="45.16431" lon="5.94337">
        <ele>2099.3</ele>
        <time>2021-02-20T09:57:39Z</time>
      </trkpt>
      <trkpt lat="45.1643" lon="5.94336">
        <ele>2100.2</ele>
        <time>2021-02-20T09:57:40Z</time>
      </trkpt>
      <trkpt lat="45.1643" lon="5.94336">
        <ele>2100.2</ele>
        <time>2021-02-20T09:57:41Z</time>
      </trkpt>
      <trkpt lat="45.16429" lon="5.94335">
        <ele>2100.1</ele>
        <time>2021-02-20T09:57:42Z</time>
      </trkpt>
      <trkpt lat="45.16428" lon="5.94335">
        <ele>2100.1</ele>
        <time>2021-02-20T09:57:43Z</time>
      </trkpt>
      <trkpt lat="45.16428" lon="5.94334">
        <ele>2100.6</ele>
        <time>2021-02-20T09:57:44Z</time>
      </trkpt>
      <trkpt lat="45.16427" lon="5.94333">
        <ele>2100.6</ele>
        <time>2021-02-20T09:57:45Z</time>
      </trkpt>
      <trkpt lat="45.16427" lon="5.94331">
        <ele>2100.6</ele>
        <time>2021-02-20T09:57:46Z</time>
      </trkpt>
      <trkpt lat="45.16427" lon="5.9433">
        <ele>2100.2</ele>
        <time>2021-02-20T09:57:47Z</time>
      </trkpt>
      <trkpt lat="45.16427" lon="5.94329">
        <ele>2100.2</ele>
        <time>2021-02-20T09:57:48Z</time>
      </trkpt>
      <trkpt lat="45.16426" lon="5.94328">
        <ele>2100.2</ele>
        <time>2021-02-20T09:57:49Z</time>
      </trkpt>
      <trkpt lat="45.16426" lon="5.94327">
        <ele>2100.2</ele>
        <time>2021-02-20T09:57:50Z</time>
      </trkpt>
      <trkpt lat="45.16426" lon="5.94326">
        <ele>2100.1</ele>
        <time>2021-02-20T09:57:51Z</time>
      </trkpt>
      <trkpt lat="45.16426" lon="5.94325">
        <ele>2099.7</ele>
        <time>2021-02-20T09:57:52Z</time>
      </trkpt>
      <trkpt lat="45.16426" lon="5.94324">
        <ele>2099.7</ele>
        <time>2021-02-20T09:57:53Z</time>
      </trkpt>
      <trkpt lat="45.16425" lon="5.94323">
        <ele>2099.7</ele>
        <time>2021-02-20T09:57:54Z</time>
      </trkpt>
      <trkpt lat="45.16425" lon="5.94322">
        <ele>2100.4</ele>
        <time>2021-02-20T09:57:55Z</time>
      </trkpt>
      <trkpt lat="45.16424" lon="5.94321">
        <ele>2100.4</ele>
        <time>2021-02-20T09:57:56Z</time>
      </trkpt>
      <trkpt lat="45.16424" lon="5.9432">
        <ele>2100.4</ele>
        <time>2021-02-20T09:57:57Z</time>
      </trkpt>
      <trkpt lat="45.16423" lon="5.94319">
        <ele>2100.4</ele>
        <time>2021-02-20T09:57:58Z</time>
      </trkpt>
      <trkpt lat="45.16423" lon="5.94318">
        <ele>2100.4</ele>
        <time>2021-02-20T09:57:59Z</time>
      </trkpt>
      <trkpt lat="45.16423" lon="5.94317">
        <ele>2100</ele>
        <time>2021-02-20T09:58:00Z</time>
      </trkpt>
      <trkpt lat="45.16422" lon="5.94316">
        <ele>2100.1</ele>
        <time>2021-02-20T09:58:01Z</time>
      </trkpt>
      <trkpt lat="45.16422" lon="5.94316">
        <ele>2101.1</ele>
        <time>2021-02-20T09:58:02Z</time>
      </trkpt>
      <trkpt lat="45.16421" lon="5.94315">
        <ele>2101.1</ele>
        <time>2021-02-20T09:58:03Z</time>
      </trkpt>
      <trkpt lat="45.16421" lon="5.94314">
        <ele>2101.1</ele>
        <time>2021-02-20T09:58:04Z</time>
      </trkpt>
      <trkpt lat="45.1642" lon="5.94313">
        <ele>2101.1</ele>
        <time>2021-02-20T09:58:05Z</time>
      </trkpt>
      <trkpt lat="45.1642" lon="5.94313">
        <ele>2100.9</ele>
        <time>2021-02-20T09:58:06Z</time>
      </trkpt>
      <trkpt lat="45.16419" lon="5.94312">
        <ele>2100.9</ele>
        <time>2021-02-20T09:58:07Z</time>
      </trkpt>
      <trkpt lat="45.16419" lon="5.94311">
        <ele>2101.9</ele>
        <time>2021-02-20T09:58:08Z</time>
      </trkpt>
      <trkpt lat="45.16418" lon="5.94311">
        <ele>2101.9</ele>
        <time>2021-02-20T09:58:09Z</time>
      </trkpt>
      <trkpt lat="45.16418" lon="5.9431">
        <ele>2101.9</ele>
        <time>2021-02-20T09:58:10Z</time>
      </trkpt>
      <trkpt lat="45.16417" lon="5.94309">
        <ele>2102</ele>
        <time>2021-02-20T09:58:11Z</time>
      </trkpt>
      <trkpt lat="45.16417" lon="5.94309">
        <ele>2101.7</ele>
        <time>2021-02-20T09:58:12Z</time>
      </trkpt>
      <trkpt lat="45.16416" lon="5.94308">
        <ele>2101.8</ele>
        <time>2021-02-20T09:58:13Z</time>
      </trkpt>
      <trkpt lat="45.16416" lon="5.94308">
        <ele>2101.7</ele>
        <time>2021-02-20T09:58:14Z</time>
      </trkpt>
      <trkpt lat="45.16416" lon="5.94308">
        <ele>2102.8</ele>
        <time>2021-02-20T09:58:15Z</time>
      </trkpt>
      <trkpt lat="45.16415" lon="5.94308">
        <ele>2102.8</ele>
        <time>2021-02-20T09:58:16Z</time>
      </trkpt>
      <trkpt lat="45.16414" lon="5.94307">
        <ele>2102.8</ele>
        <time>2021-02-20T09:58:17Z</time>
      </trkpt>
      <trkpt lat="45.16414" lon="5.94307">
        <ele>2102.9</ele>
        <time>2021-02-20T09:58:18Z</time>
      </trkpt>
      <trkpt lat="45.16413" lon="5.94307">
        <ele>2102.9</ele>
        <time>2021-02-20T09:58:19Z</time>
      </trkpt>
      <trkpt lat="45.16412" lon="5.94306">
        <ele>2103.9</ele>
        <time>2021-02-20T09:58:20Z</time>
      </trkpt>
      <trkpt lat="45.16412" lon="5.94305">
        <ele>2103.9</ele>
        <time>2021-02-20T09:58:21Z</time>
      </trkpt>
      <trkpt lat="45.16411" lon="5.94304">
        <ele>2103.8</ele>
        <time>2021-02-20T09:58:22Z</time>
      </trkpt>
      <trkpt lat="45.1641" lon="5.94303">
        <ele>2103.7</ele>
        <time>2021-02-20T09:58:23Z</time>
      </trkpt>
      <trkpt lat="45.1641" lon="5.94302">
        <ele>2103.7</ele>
        <time>2021-02-20T09:58:24Z</time>
      </trkpt>
      <trkpt lat="45.16409" lon="5.94301">
        <ele>2105.4</ele>
        <time>2021-02-20T09:58:25Z</time>
      </trkpt>
      <trkpt lat="45.16409" lon="5.94301">
        <ele>2105.4</ele>
        <time>2021-02-20T09:58:26Z</time>
      </trkpt>
      <trkpt lat="45.16409" lon="5.94301">
        <ele>2105.4</ele>
        <time>2021-02-20T09:58:27Z</time>
      </trkpt>
      <trkpt lat="45.16409" lon="5.94301">
        <ele>2105.3</ele>
        <time>2021-02-20T09:58:28Z</time>
      </trkpt>
      <trkpt lat="45.16409" lon="5.94301">
        <ele>2105.3</ele>
        <time>2021-02-20T09:58:29Z</time>
      </trkpt>
      <trkpt lat="45.16408" lon="5.943">
        <ele>2105</ele>
        <time>2021-02-20T09:58:30Z</time>
      </trkpt>
      <trkpt lat="45.16408" lon="5.943">
        <ele>2105</ele>
        <time>2021-02-20T09:58:31Z</time>
      </trkpt>
      <trkpt lat="45.16408" lon="5.943">
        <ele>2105</ele>
        <time>2021-02-20T09:58:32Z</time>
      </trkpt>
      <trkpt lat="45.16408" lon="5.943">
        <ele>2104.9</ele>
        <time>2021-02-20T09:58:33Z</time>
      </trkpt>
      <trkpt lat="45.16408" lon="5.94301">
        <ele>2105.1</ele>
        <time>2021-02-20T09:58:34Z</time>
      </trkpt>
      <trkpt lat="45.16408" lon="5.94302">
        <ele>2105</ele>
        <time>2021-02-20T09:58:35Z</time>
      </trkpt>
      <trkpt lat="45.16408" lon="5.94303">
        <ele>2105</ele>
        <time>2021-02-20T09:58:36Z</time>
      </trkpt>
      <trkpt lat="45.16408" lon="5.94304">
        <ele>2105</ele>
        <time>2021-02-20T09:58:37Z</time>
      </trkpt>
      <trkpt lat="45.16408" lon="5.94305">
        <ele>2105.2</ele>
        <time>2021-02-20T09:58:38Z</time>
      </trkpt>
      <trkpt lat="45.16408" lon="5.94307">
        <ele>2105.1</ele>
        <time>2021-02-20T09:58:39Z</time>
      </trkpt>
      <trkpt lat="45.16408" lon="5.94308">
        <ele>2105.1</ele>
        <time>2021-02-20T09:58:40Z</time>
      </trkpt>
      <trkpt lat="45.16408" lon="5.9431">
        <ele>2105.3</ele>
        <time>2021-02-20T09:58:41Z</time>
      </trkpt>
      <trkpt lat="45.16408" lon="5.94313">
        <ele>2105.3</ele>
        <time>2021-02-20T09:58:42Z</time>
      </trkpt>
      <trkpt lat="45.16408" lon="5.94314">
        <ele>2105.5</ele>
        <time>2021-02-20T09:58:43Z</time>
      </trkpt>
      <trkpt lat="45.16408" lon="5.94315">
        <ele>2105.5</ele>
        <time>2021-02-20T09:58:44Z</time>
      </trkpt>
      <trkpt lat="45.16407" lon="5.94318">
        <ele>2105.7</ele>
        <time>2021-02-20T09:58:45Z</time>
      </trkpt>
      <trkpt lat="45.16407" lon="5.94319">
        <ele>2105.7</ele>
        <time>2021-02-20T09:58:46Z</time>
      </trkpt>
      <trkpt lat="45.16406" lon="5.9432">
        <ele>2107.3</ele>
        <time>2021-02-20T09:58:47Z</time>
      </trkpt>
      <trkpt lat="45.16406" lon="5.94322">
        <ele>2107.2</ele>
        <time>2021-02-20T09:58:48Z</time>
      </trkpt>
      <trkpt lat="45.16406" lon="5.94323">
        <ele>2107.5</ele>
        <time>2021-02-20T09:58:49Z</time>
      </trkpt>
      <trkpt lat="45.16406" lon="5.94324">
        <ele>2107.5</ele>
        <time>2021-02-20T09:58:50Z</time>
      </trkpt>
      <trkpt lat="45.16405" lon="5.94325">
        <ele>2107.4</ele>
        <time>2021-02-20T09:58:51Z</time>
      </trkpt>
      <trkpt lat="45.16405" lon="5.94327">
        <ele>2107.7</ele>
        <time>2021-02-20T09:58:52Z</time>
      </trkpt>
      <trkpt lat="45.16405" lon="5.94328">
        <ele>2107.6</ele>
        <time>2021-02-20T09:58:53Z</time>
      </trkpt>
      <trkpt lat="45.16405" lon="5.94329">
        <ele>2107.6</ele>
        <time>2021-02-20T09:58:54Z</time>
      </trkpt>
      <trkpt lat="45.16405" lon="5.94331">
        <ele>2107.9</ele>
        <time>2021-02-20T09:58:55Z</time>
      </trkpt>
      <trkpt lat="45.16406" lon="5.94332">
        <ele>2107.8</ele>
        <time>2021-02-20T09:58:56Z</time>
      </trkpt>
      <trkpt lat="45.16406" lon="5.94333">
        <ele>2107.8</ele>
        <time>2021-02-20T09:58:57Z</time>
      </trkpt>
      <trkpt lat="45.16406" lon="5.94333">
        <ele>2107.7</ele>
        <time>2021-02-20T09:58:58Z</time>
      </trkpt>
      <trkpt lat="45.16406" lon="5.94334">
        <ele>2107.7</ele>
        <time>2021-02-20T09:58:59Z</time>
      </trkpt>
      <trkpt lat="45.16406" lon="5.94335">
        <ele>2108</ele>
        <time>2021-02-20T09:59:00Z</time>
      </trkpt>
      <trkpt lat="45.16406" lon="5.94336">
        <ele>2108</ele>
        <time>2021-02-20T09:59:01Z</time>
      </trkpt>
      <trkpt lat="45.16406" lon="5.94337">
        <ele>2108</ele>
        <time>2021-02-20T09:59:02Z</time>
      </trkpt>
      <trkpt lat="45.16406" lon="5.94338">
        <ele>2107.9</ele>
        <time>2021-02-20T09:59:03Z</time>
      </trkpt>
      <trkpt lat="45.16406" lon="5.94339">
        <ele>2107.9</ele>
        <time>2021-02-20T09:59:04Z</time>
      </trkpt>
      <trkpt lat="45.16405" lon="5.9434">
        <ele>2108.1</ele>
        <time>2021-02-20T09:59:05Z</time>
      </trkpt>
      <trkpt lat="45.16406" lon="5.94341">
        <ele>2108.1</ele>
        <time>2021-02-20T09:59:06Z</time>
      </trkpt>
      <trkpt lat="45.16406" lon="5.94342">
        <ele>2108.1</ele>
        <time>2021-02-20T09:59:07Z</time>
      </trkpt>
      <trkpt lat="45.16406" lon="5.94343">
        <ele>2108</ele>
        <time>2021-02-20T09:59:08Z</time>
      </trkpt>
      <trkpt lat="45.16407" lon="5.94344">
        <ele>2106.8</ele>
        <time>2021-02-20T09:59:09Z</time>
      </trkpt>
      <trkpt lat="45.16407" lon="5.94345">
        <ele>2106.7</ele>
        <time>2021-02-20T09:59:10Z</time>
      </trkpt>
      <trkpt lat="45.16407" lon="5.94346">
        <ele>2106.7</ele>
        <time>2021-02-20T09:59:11Z</time>
      </trkpt>
      <trkpt lat="45.16407" lon="5.94347">
        <ele>2106.7</ele>
        <time>2021-02-20T09:59:12Z</time>
      </trkpt>
      <trkpt lat="45.16408" lon="5.94348">
        <ele>2107</ele>
        <time>2021-02-20T09:59:13Z</time>
      </trkpt>
      <trkpt lat="45.16408" lon="5.94349">
        <ele>2107</ele>
        <time>2021-02-20T09:59:14Z</time>
      </trkpt>
      <trkpt lat="45.16408" lon="5.9435">
        <ele>2106.9</ele>
        <time>2021-02-20T09:59:15Z</time>
      </trkpt>
      <trkpt lat="45.16408" lon="5.94351">
        <ele>2106.9</ele>
        <time>2021-02-20T09:59:16Z</time>
      </trkpt>
      <trkpt lat="45.16407" lon="5.94353">
        <ele>2107.4</ele>
        <time>2021-02-20T09:59:17Z</time>
      </trkpt>
      <trkpt lat="45.16407" lon="5.94354">
        <ele>2107.4</ele>
        <time>2021-02-20T09:59:18Z</time>
      </trkpt>
      <trkpt lat="45.16407" lon="5.94355">
        <ele>2107.4</ele>
        <time>2021-02-20T09:59:19Z</time>
      </trkpt>
      <trkpt lat="45.16407" lon="5.94356">
        <ele>2107.9</ele>
        <time>2021-02-20T09:59:20Z</time>
      </trkpt>
      <trkpt lat="45.16407" lon="5.94357">
        <ele>2107.9</ele>
        <time>2021-02-20T09:59:21Z</time>
      </trkpt>
      <trkpt lat="45.16407" lon="5.94358">
        <ele>2107.9</ele>
        <time>2021-02-20T09:59:22Z</time>
      </trkpt>
      <trkpt lat="45.16407" lon="5.94359">
        <ele>2107.9</ele>
        <time>2021-02-20T09:59:23Z</time>
      </trkpt>
      <trkpt lat="45.16408" lon="5.9436">
        <ele>2107.9</ele>
        <time>2021-02-20T09:59:24Z</time>
      </trkpt>
      <trkpt lat="45.16408" lon="5.9436">
        <ele>2107.9</ele>
        <time>2021-02-20T09:59:25Z</time>
      </trkpt>
      <trkpt lat="45.16408" lon="5.94361">
        <ele>2108.7</ele>
        <time>2021-02-20T09:59:26Z</time>
      </trkpt>
      <trkpt lat="45.16408" lon="5.94361">
        <ele>2108.7</ele>
        <time>2021-02-20T09:59:27Z</time>
      </trkpt>
      <trkpt lat="45.16408" lon="5.94362">
        <ele>2108.7</ele>
        <time>2021-02-20T09:59:28Z</time>
      </trkpt>
      <trkpt lat="45.16409" lon="5.94363">
        <ele>2108.7</ele>
        <time>2021-02-20T09:59:29Z</time>
      </trkpt>
      <trkpt lat="45.1641" lon="5.94364">
        <ele>2107.4</ele>
        <time>2021-02-20T09:59:30Z</time>
      </trkpt>
      <trkpt lat="45.16411" lon="5.94365">
        <ele>2108</ele>
        <time>2021-02-20T09:59:31Z</time>
      </trkpt>
      <trkpt lat="45.16412" lon="5.94366">
        <ele>2108</ele>
        <time>2021-02-20T09:59:32Z</time>
      </trkpt>
      <trkpt lat="45.16412" lon="5.94366">
        <ele>2108</ele>
        <time>2021-02-20T09:59:33Z</time>
      </trkpt>
      <trkpt lat="45.16412" lon="5.94367">
        <ele>2108</ele>
        <time>2021-02-20T09:59:34Z</time>
      </trkpt>
      <trkpt lat="45.16412" lon="5.94368">
        <ele>2108</ele>
        <time>2021-02-20T09:59:35Z</time>
      </trkpt>
      <trkpt lat="45.16412" lon="5.94368">
        <ele>2108</ele>
        <time>2021-02-20T09:59:36Z</time>
      </trkpt>
      <trkpt lat="45.16411" lon="5.94369">
        <ele>2108.6</ele>
        <time>2021-02-20T09:59:37Z</time>
      </trkpt>
      <trkpt lat="45.16411" lon="5.9437">
        <ele>2108.6</ele>
        <time>2021-02-20T09:59:38Z</time>
      </trkpt>
      <trkpt lat="45.16411" lon="5.94371">
        <ele>2108.6</ele>
        <time>2021-02-20T09:59:39Z</time>
      </trkpt>
      <trkpt lat="45.16411" lon="5.94371">
        <ele>2108.6</ele>
        <time>2021-02-20T09:59:40Z</time>
      </trkpt>
      <trkpt lat="45.1641" lon="5.94371">
        <ele>2108.6</ele>
        <time>2021-02-20T09:59:41Z</time>
      </trkpt>
      <trkpt lat="45.16409" lon="5.94371">
        <ele>2109.9</ele>
        <time>2021-02-20T09:59:42Z</time>
      </trkpt>
      <trkpt lat="45.16409" lon="5.9437">
        <ele>2109.9</ele>
        <time>2021-02-20T09:59:43Z</time>
      </trkpt>
      <trkpt lat="45.16409" lon="5.9437">
        <ele>2109.9</ele>
        <time>2021-02-20T09:59:44Z</time>
      </trkpt>
      <trkpt lat="45.16409" lon="5.94369">
        <ele>2109.9</ele>
        <time>2021-02-20T09:59:45Z</time>
      </trkpt>
      <trkpt lat="45.16409" lon="5.94368">
        <ele>2109.3</ele>
        <time>2021-02-20T09:59:46Z</time>
      </trkpt>
      <trkpt lat="45.16409" lon="5.94367">
        <ele>2109.3</ele>
        <time>2021-02-20T09:59:47Z</time>
      </trkpt>
      <trkpt lat="45.1641" lon="5.94366">
        <ele>2108</ele>
        <time>2021-02-20T09:59:48Z</time>
      </trkpt>
      <trkpt lat="45.16411" lon="5.94366">
        <ele>2108</ele>
        <time>2021-02-20T09:59:49Z</time>
      </trkpt>
      <trkpt lat="45.16411" lon="5.94366">
        <ele>2108</ele>
        <time>2021-02-20T09:59:50Z</time>
      </trkpt>
      <trkpt lat="45.16412" lon="5.94366">
        <ele>2108</ele>
        <time>2021-02-20T09:59:51Z</time>
      </trkpt>
      <trkpt lat="45.16412" lon="5.94367">
        <ele>2108</ele>
        <time>2021-02-20T09:59:52Z</time>
      </trkpt>
      <trkpt lat="45.16412" lon="5.94368">
        <ele>2108</ele>
        <time>2021-02-20T09:59:53Z</time>
      </trkpt>
      <trkpt lat="45.16413" lon="5.94369">
        <ele>2108</ele>
        <time>2021-02-20T09:59:54Z</time>
      </trkpt>
      <trkpt lat="45.16413" lon="5.9437">
        <ele>2108.6</ele>
        <time>2021-02-20T09:59:55Z</time>
      </trkpt>
      <trkpt lat="45.16413" lon="5.94371">
        <ele>2108.6</ele>
        <time>2021-02-20T09:59:56Z</time>
      </trkpt>
      <trkpt lat="45.16413" lon="5.94372">
        <ele>2108.6</ele>
        <time>2021-02-20T09:59:57Z</time>
      </trkpt>
      <trkpt lat="45.16413" lon="5.94373">
        <ele>2107.3</ele>
        <time>2021-02-20T09:59:58Z</time>
      </trkpt>
      <trkpt lat="45.16413" lon="5.94375">
        <ele>2108</ele>
        <time>2021-02-20T09:59:59Z</time>
      </trkpt>
      <trkpt lat="45.16413" lon="5.94376">
        <ele>2108</ele>
        <time>2021-02-20T10:00:00Z</time>
      </trkpt>
      <trkpt lat="45.16413" lon="5.94377">
        <ele>2108</ele>
        <time>2021-02-20T10:00:01Z</time>
      </trkpt>
      <trkpt lat="45.16413" lon="5.94378">
        <ele>2108.7</ele>
        <time>2021-02-20T10:00:02Z</time>
      </trkpt>
      <trkpt lat="45.16413" lon="5.9438">
        <ele>2108.7</ele>
        <time>2021-02-20T10:00:03Z</time>
      </trkpt>
      <trkpt lat="45.16413" lon="5.94381">
        <ele>2108.7</ele>
        <time>2021-02-20T10:00:04Z</time>
      </trkpt>
      <trkpt lat="45.16413" lon="5.94382">
        <ele>2109.4</ele>
        <time>2021-02-20T10:00:05Z</time>
      </trkpt>
      <trkpt lat="45.16413" lon="5.94384">
        <ele>2109.4</ele>
        <time>2021-02-20T10:00:06Z</time>
      </trkpt>
      <trkpt lat="45.16413" lon="5.94385">
        <ele>2109.4</ele>
        <time>2021-02-20T10:00:07Z</time>
      </trkpt>
      <trkpt lat="45.16413" lon="5.94386">
        <ele>2110.2</ele>
        <time>2021-02-20T10:00:08Z</time>
      </trkpt>
      <trkpt lat="45.16414" lon="5.94387">
        <ele>2110.2</ele>
        <time>2021-02-20T10:00:09Z</time>
      </trkpt>
      <trkpt lat="45.16415" lon="5.94389">
        <ele>2110.2</ele>
        <time>2021-02-20T10:00:10Z</time>
      </trkpt>
      <trkpt lat="45.16415" lon="5.9439">
        <ele>2110.2</ele>
        <time>2021-02-20T10:00:11Z</time>
      </trkpt>
      <trkpt lat="45.16416" lon="5.9439">
        <ele>2110.1</ele>
        <time>2021-02-20T10:00:12Z</time>
      </trkpt>
      <trkpt lat="45.16416" lon="5.94391">
        <ele>2110.1</ele>
        <time>2021-02-20T10:00:13Z</time>
      </trkpt>
      <trkpt lat="45.16416" lon="5.94393">
        <ele>2110.1</ele>
        <time>2021-02-20T10:00:14Z</time>
      </trkpt>
      <trkpt lat="45.16416" lon="5.94394">
        <ele>2110.1</ele>
        <time>2021-02-20T10:00:15Z</time>
      </trkpt>
      <trkpt lat="45.16417" lon="5.94394">
        <ele>2110.1</ele>
        <time>2021-02-20T10:00:16Z</time>
      </trkpt>
      <trkpt lat="45.16417" lon="5.94394">
        <ele>2110.1</ele>
        <time>2021-02-20T10:00:17Z</time>
      </trkpt>
      <trkpt lat="45.16417" lon="5.94395">
        <ele>2111</ele>
        <time>2021-02-20T10:00:18Z</time>
      </trkpt>
      <trkpt lat="45.16417" lon="5.94395">
        <ele>2111</ele>
        <time>2021-02-20T10:00:19Z</time>
      </trkpt>
      <trkpt lat="45.16417" lon="5.94395">
        <ele>2111</ele>
        <time>2021-02-20T10:00:20Z</time>
      </trkpt>
      <trkpt lat="45.16417" lon="5.94395">
        <ele>2111</ele>
        <time>2021-02-20T10:00:21Z</time>
      </trkpt>
      <trkpt lat="45.16417" lon="5.94394">
        <ele>2110.1</ele>
        <time>2021-02-20T10:00:22Z</time>
      </trkpt>
      <trkpt lat="45.16416" lon="5.94394">
        <ele>2110.1</ele>
        <time>2021-02-20T10:00:23Z</time>
      </trkpt>
      <trkpt lat="45.16416" lon="5.94393">
        <ele>2111</ele>
        <time>2021-02-20T10:00:24Z</time>
      </trkpt>
      <trkpt lat="45.16415" lon="5.94392">
        <ele>2111</ele>
        <time>2021-02-20T10:00:25Z</time>
      </trkpt>
      <trkpt lat="45.16414" lon="5.94391">
        <ele>2111</ele>
        <time>2021-02-20T10:00:26Z</time>
      </trkpt>
      <trkpt lat="45.16414" lon="5.9439">
        <ele>2110.2</ele>
        <time>2021-02-20T10:00:27Z</time>
      </trkpt>
      <trkpt lat="45.16413" lon="5.94389">
        <ele>2110.2</ele>
        <time>2021-02-20T10:00:28Z</time>
      </trkpt>
      <trkpt lat="45.16413" lon="5.94389">
        <ele>2110.2</ele>
        <time>2021-02-20T10:00:29Z</time>
      </trkpt>
      <trkpt lat="45.16413" lon="5.94388">
        <ele>2110.2</ele>
        <time>2021-02-20T10:00:30Z</time>
      </trkpt>
      <trkpt lat="45.16413" lon="5.94389">
        <ele>2110.2</ele>
        <time>2021-02-20T10:00:31Z</time>
      </trkpt>
      <trkpt lat="45.16413" lon="5.94389">
        <ele>2110.2</ele>
        <time>2021-02-20T10:00:32Z</time>
      </trkpt>
      <trkpt lat="45.16412" lon="5.9439">
        <ele>2111.3</ele>
        <time>2021-02-20T10:00:33Z</time>
      </trkpt>
      <trkpt lat="45.16412" lon="5.9439">
        <ele>2112.1</ele>
        <time>2021-02-20T10:00:34Z</time>
      </trkpt>
      <trkpt lat="45.16412" lon="5.94391">
        <ele>2112.1</ele>
        <time>2021-02-20T10:00:35Z</time>
      </trkpt>
      <trkpt lat="45.16411" lon="5.94392">
        <ele>2112.1</ele>
        <time>2021-02-20T10:00:36Z</time>
      </trkpt>
      <trkpt lat="45.16411" lon="5.94393">
        <ele>2112.1</ele>
        <time>2021-02-20T10:00:37Z</time>
      </trkpt>
      <trkpt lat="45.1641" lon="5.94394">
        <ele>2112.1</ele>
        <time>2021-02-20T10:00:38Z</time>
      </trkpt>
      <trkpt lat="45.1641" lon="5.94394">
        <ele>2113.2</ele>
        <time>2021-02-20T10:00:39Z</time>
      </trkpt>
      <trkpt lat="45.16409" lon="5.94395">
        <ele>2114</ele>
        <time>2021-02-20T10:00:40Z</time>
      </trkpt>
      <trkpt lat="45.16408" lon="5.94396">
        <ele>2114</ele>
        <time>2021-02-20T10:00:41Z</time>
      </trkpt>
      <trkpt lat="45.16408" lon="5.94397">
        <ele>2114</ele>
        <time>2021-02-20T10:00:42Z</time>
      </trkpt>
      <trkpt lat="45.16407" lon="5.94398">
        <ele>2114</ele>
        <time>2021-02-20T10:00:43Z</time>
      </trkpt>
      <trkpt lat="45.16407" lon="5.94398">
        <ele>2114</ele>
        <time>2021-02-20T10:00:44Z</time>
      </trkpt>
      <trkpt lat="45.16407" lon="5.94399">
        <ele>2114</ele>
        <time>2021-02-20T10:00:45Z</time>
      </trkpt>
      <trkpt lat="45.16407" lon="5.94399">
        <ele>2114.9</ele>
        <time>2021-02-20T10:00:46Z</time>
      </trkpt>
      <trkpt lat="45.16406" lon="5.944">
        <ele>2115.9</ele>
        <time>2021-02-20T10:00:47Z</time>
      </trkpt>
      <trkpt lat="45.16405" lon="5.94401">
        <ele>2115.9</ele>
        <time>2021-02-20T10:00:48Z</time>
      </trkpt>
      <trkpt lat="45.16405" lon="5.94402">
        <ele>2115.9</ele>
        <time>2021-02-20T10:00:49Z</time>
      </trkpt>
      <trkpt lat="45.16405" lon="5.94402">
        <ele>2115.9</ele>
        <time>2021-02-20T10:00:50Z</time>
      </trkpt>
      <trkpt lat="45.16404" lon="5.94402">
        <ele>2115.9</ele>
        <time>2021-02-20T10:00:51Z</time>
      </trkpt>
      <trkpt lat="45.16404" lon="5.94402">
        <ele>2115.9</ele>
        <time>2021-02-20T10:00:52Z</time>
      </trkpt>
      <trkpt lat="45.16404" lon="5.94401">
        <ele>2115.9</ele>
        <time>2021-02-20T10:00:53Z</time>
      </trkpt>
      <trkpt lat="45.16404" lon="5.94401">
        <ele>2115.9</ele>
        <time>2021-02-20T10:00:54Z</time>
      </trkpt>
      <trkpt lat="45.16403" lon="5.94399">
        <ele>2116.9</ele>
        <time>2021-02-20T10:00:55Z</time>
      </trkpt>
      <trkpt lat="45.16403" lon="5.94399">
        <ele>2116.1</ele>
        <time>2021-02-20T10:00:56Z</time>
      </trkpt>
      <trkpt lat="45.16402" lon="5.94398">
        <ele>2116.1</ele>
        <time>2021-02-20T10:00:57Z</time>
      </trkpt>
      <trkpt lat="45.16402" lon="5.94397">
        <ele>2116.1</ele>
        <time>2021-02-20T10:00:58Z</time>
      </trkpt>
      <trkpt lat="45.16401" lon="5.94396">
        <ele>2116.1</ele>
        <time>2021-02-20T10:00:59Z</time>
      </trkpt>
      <trkpt lat="45.16401" lon="5.94395">
        <ele>2116.1</ele>
        <time>2021-02-20T10:01:00Z</time>
      </trkpt>
      <trkpt lat="45.16401" lon="5.94395">
        <ele>2116.1</ele>
        <time>2021-02-20T10:01:01Z</time>
      </trkpt>
      <trkpt lat="45.164" lon="5.94394">
        <ele>2116.5</ele>
        <time>2021-02-20T10:01:02Z</time>
      </trkpt>
      <trkpt lat="45.164" lon="5.94392">
        <ele>2116.5</ele>
        <time>2021-02-20T10:01:03Z</time>
      </trkpt>
      <trkpt lat="45.16399" lon="5.94391">
        <ele>2116.5</ele>
        <time>2021-02-20T10:01:04Z</time>
      </trkpt>
      <trkpt lat="45.16399" lon="5.9439">
        <ele>2115.9</ele>
        <time>2021-02-20T10:01:05Z</time>
      </trkpt>
      <trkpt lat="45.16398" lon="5.94389">
        <ele>2115.9</ele>
        <time>2021-02-20T10:01:06Z</time>
      </trkpt>
      <trkpt lat="45.16398" lon="5.94389">
        <ele>2115.9</ele>
        <time>2021-02-20T10:01:07Z</time>
      </trkpt>
      <trkpt lat="45.16398" lon="5.94389">
        <ele>2115.9</ele>
        <time>2021-02-20T10:01:08Z</time>
      </trkpt>
      <trkpt lat="45.16398" lon="5.94388">
        <ele>2117.2</ele>
        <time>2021-02-20T10:01:09Z</time>
      </trkpt>
      <trkpt lat="45.16397" lon="5.94388">
        <ele>2117.2</ele>
        <time>2021-02-20T10:01:10Z</time>
      </trkpt>
      <trkpt lat="45.16396" lon="5.94388">
        <ele>2117.2</ele>
        <time>2021-02-20T10:01:11Z</time>
      </trkpt>
      <trkpt lat="45.16396" lon="5.94388">
        <ele>2117.2</ele>
        <time>2021-02-20T10:01:12Z</time>
      </trkpt>
      <trkpt lat="45.16395" lon="5.94388">
        <ele>2117.2</ele>
        <time>2021-02-20T10:01:13Z</time>
      </trkpt>
      <trkpt lat="45.16394" lon="5.94388">
        <ele>2118.6</ele>
        <time>2021-02-20T10:01:14Z</time>
      </trkpt>
      <trkpt lat="45.16394" lon="5.94389">
        <ele>2118.6</ele>
        <time>2021-02-20T10:01:15Z</time>
      </trkpt>
      <trkpt lat="45.16394" lon="5.94391">
        <ele>2119.1</ele>
        <time>2021-02-20T10:01:16Z</time>
      </trkpt>
      <trkpt lat="45.16394" lon="5.94393">
        <ele>2119.1</ele>
        <time>2021-02-20T10:01:17Z</time>
      </trkpt>
      <trkpt lat="45.16393" lon="5.94397">
        <ele>2119.7</ele>
        <time>2021-02-20T10:01:18Z</time>
      </trkpt>
      <trkpt lat="45.16392" lon="5.94398">
        <ele>2119.7</ele>
        <time>2021-02-20T10:01:19Z</time>
      </trkpt>
      <trkpt lat="45.16391" lon="5.944">
        <ele>2121.6</ele>
        <time>2021-02-20T10:01:20Z</time>
      </trkpt>
      <trkpt lat="45.16391" lon="5.94401">
        <ele>2121.6</ele>
        <time>2021-02-20T10:01:21Z</time>
      </trkpt>
      <trkpt lat="45.1639" lon="5.94403">
        <ele>2121.6</ele>
        <time>2021-02-20T10:01:22Z</time>
      </trkpt>
      <trkpt lat="45.16389" lon="5.94404">
        <ele>2122.3</ele>
        <time>2021-02-20T10:01:23Z</time>
      </trkpt>
      <trkpt lat="45.16389" lon="5.94405">
        <ele>2122.3</ele>
        <time>2021-02-20T10:01:24Z</time>
      </trkpt>
      <trkpt lat="45.16388" lon="5.94406">
        <ele>2123.6</ele>
        <time>2021-02-20T10:01:25Z</time>
      </trkpt>
      <trkpt lat="45.16388" lon="5.94407">
        <ele>2123.6</ele>
        <time>2021-02-20T10:01:26Z</time>
      </trkpt>
      <trkpt lat="45.16388" lon="5.94408">
        <ele>2124.1</ele>
        <time>2021-02-20T10:01:27Z</time>
      </trkpt>
      <trkpt lat="45.16388" lon="5.9441">
        <ele>2124.1</ele>
        <time>2021-02-20T10:01:28Z</time>
      </trkpt>
      <trkpt lat="45.16388" lon="5.9441">
        <ele>2124.1</ele>
        <time>2021-02-20T10:01:29Z</time>
      </trkpt>
      <trkpt lat="45.16389" lon="5.94411">
        <ele>2122.9</ele>
        <time>2021-02-20T10:01:30Z</time>
      </trkpt>
      <trkpt lat="45.16389" lon="5.94412">
        <ele>2123.5</ele>
        <time>2021-02-20T10:01:31Z</time>
      </trkpt>
      <trkpt lat="45.16389" lon="5.94413">
        <ele>2123.5</ele>
        <time>2021-02-20T10:01:32Z</time>
      </trkpt>
      <trkpt lat="45.16389" lon="5.94414">
        <ele>2123.5</ele>
        <time>2021-02-20T10:01:33Z</time>
      </trkpt>
      <trkpt lat="45.16389" lon="5.94415">
        <ele>2123.5</ele>
        <time>2021-02-20T10:01:34Z</time>
      </trkpt>
      <trkpt lat="45.16388" lon="5.94415">
        <ele>2124.8</ele>
        <time>2021-02-20T10:01:35Z</time>
      </trkpt>
      <trkpt lat="45.16388" lon="5.94416">
        <ele>2124.8</ele>
        <time>2021-02-20T10:01:36Z</time>
      </trkpt>
      <trkpt lat="45.16387" lon="5.94417">
        <ele>2125.4</ele>
        <time>2021-02-20T10:01:37Z</time>
      </trkpt>
      <trkpt lat="45.16387" lon="5.94418">
        <ele>2125.4</ele>
        <time>2021-02-20T10:01:38Z</time>
      </trkpt>
      <trkpt lat="45.16386" lon="5.94418">
        <ele>2125.4</ele>
        <time>2021-02-20T10:01:39Z</time>
      </trkpt>
      <trkpt lat="45.16385" lon="5.94419">
        <ele>2126.5</ele>
        <time>2021-02-20T10:01:40Z</time>
      </trkpt>
      <trkpt lat="45.16385" lon="5.9442">
        <ele>2126.5</ele>
        <time>2021-02-20T10:01:41Z</time>
      </trkpt>
      <trkpt lat="45.16385" lon="5.94421">
        <ele>2127.1</ele>
        <time>2021-02-20T10:01:42Z</time>
      </trkpt>
      <trkpt lat="45.16384" lon="5.94423">
        <ele>2127.1</ele>
        <time>2021-02-20T10:01:43Z</time>
      </trkpt>
      <trkpt lat="45.16384" lon="5.94424">
        <ele>2127.1</ele>
        <time>2021-02-20T10:01:44Z</time>
      </trkpt>
      <trkpt lat="45.16384" lon="5.94425">
        <ele>2127.8</ele>
        <time>2021-02-20T10:01:45Z</time>
      </trkpt>
      <trkpt lat="45.16384" lon="5.94427">
        <ele>2127.8</ele>
        <time>2021-02-20T10:01:46Z</time>
      </trkpt>
      <trkpt lat="45.16384" lon="5.94428">
        <ele>2127.8</ele>
        <time>2021-02-20T10:01:47Z</time>
      </trkpt>
      <trkpt lat="45.16384" lon="5.9443">
        <ele>2128.4</ele>
        <time>2021-02-20T10:01:48Z</time>
      </trkpt>
      <trkpt lat="45.16383" lon="5.94431">
        <ele>2128.4</ele>
        <time>2021-02-20T10:01:49Z</time>
      </trkpt>
      <trkpt lat="45.16383" lon="5.94433">
        <ele>2128.4</ele>
        <time>2021-02-20T10:01:50Z</time>
      </trkpt>
      <trkpt lat="45.16382" lon="5.94434">
        <ele>2129.1</ele>
        <time>2021-02-20T10:01:51Z</time>
      </trkpt>
      <trkpt lat="45.16382" lon="5.94435">
        <ele>2130.2</ele>
        <time>2021-02-20T10:01:52Z</time>
      </trkpt>
      <trkpt lat="45.16381" lon="5.94436">
        <ele>2130.2</ele>
        <time>2021-02-20T10:01:53Z</time>
      </trkpt>
      <trkpt lat="45.16381" lon="5.94437">
        <ele>2130.2</ele>
        <time>2021-02-20T10:01:54Z</time>
      </trkpt>
      <trkpt lat="45.16381" lon="5.94438">
        <ele>2131</ele>
        <time>2021-02-20T10:01:55Z</time>
      </trkpt>
      <trkpt lat="45.1638" lon="5.94439">
        <ele>2131</ele>
        <time>2021-02-20T10:01:56Z</time>
      </trkpt>
      <trkpt lat="45.1638" lon="5.9444">
        <ele>2131</ele>
        <time>2021-02-20T10:01:57Z</time>
      </trkpt>
      <trkpt lat="45.16379" lon="5.94441">
        <ele>2131</ele>
        <time>2021-02-20T10:01:58Z</time>
      </trkpt>
      <trkpt lat="45.1638" lon="5.94441">
        <ele>2131</ele>
        <time>2021-02-20T10:01:59Z</time>
      </trkpt>
      <trkpt lat="45.1638" lon="5.9444">
        <ele>2131</ele>
        <time>2021-02-20T10:02:00Z</time>
      </trkpt>
      <trkpt lat="45.16379" lon="5.94441">
        <ele>2132</ele>
        <time>2021-02-20T10:02:01Z</time>
      </trkpt>
      <trkpt lat="45.16379" lon="5.94441">
        <ele>2132</ele>
        <time>2021-02-20T10:02:02Z</time>
      </trkpt>
      <trkpt lat="45.16378" lon="5.94442">
        <ele>2132</ele>
        <time>2021-02-20T10:02:03Z</time>
      </trkpt>
      <trkpt lat="45.16378" lon="5.94443">
        <ele>2132.8</ele>
        <time>2021-02-20T10:02:04Z</time>
      </trkpt>
      <trkpt lat="45.16377" lon="5.94444">
        <ele>2132.8</ele>
        <time>2021-02-20T10:02:05Z</time>
      </trkpt>
      <trkpt lat="45.16377" lon="5.94445">
        <ele>2132.8</ele>
        <time>2021-02-20T10:02:06Z</time>
      </trkpt>
      <trkpt lat="45.16377" lon="5.94446">
        <ele>2132.8</ele>
        <time>2021-02-20T10:02:07Z</time>
      </trkpt>
      <trkpt lat="45.16377" lon="5.94446">
        <ele>2133.7</ele>
        <time>2021-02-20T10:02:08Z</time>
      </trkpt>
      <trkpt lat="45.16377" lon="5.94447">
        <ele>2133.7</ele>
        <time>2021-02-20T10:02:09Z</time>
      </trkpt>
      <trkpt lat="45.16377" lon="5.94447">
        <ele>2133.7</ele>
        <time>2021-02-20T10:02:10Z</time>
      </trkpt>
      <trkpt lat="45.16377" lon="5.94447">
        <ele>2133.7</ele>
        <time>2021-02-20T10:02:11Z</time>
      </trkpt>
      <trkpt lat="45.16377" lon="5.94447">
        <ele>2133.7</ele>
        <time>2021-02-20T10:02:12Z</time>
      </trkpt>
      <trkpt lat="45.16377" lon="5.94447">
        <ele>2133.7</ele>
        <time>2021-02-20T10:02:13Z</time>
      </trkpt>
      <trkpt lat="45.16378" lon="5.94447">
        <ele>2133.7</ele>
        <time>2021-02-20T10:02:14Z</time>
      </trkpt>
      <trkpt lat="45.16379" lon="5.94448">
        <ele>2133.7</ele>
        <time>2021-02-20T10:02:15Z</time>
      </trkpt>
      <trkpt lat="45.1638" lon="5.94448">
        <ele>2132.7</ele>
        <time>2021-02-20T10:02:16Z</time>
      </trkpt>
      <trkpt lat="45.1638" lon="5.94449">
        <ele>2132.7</ele>
        <time>2021-02-20T10:02:17Z</time>
      </trkpt>
      <trkpt lat="45.1638" lon="5.94449">
        <ele>2132.7</ele>
        <time>2021-02-20T10:02:18Z</time>
      </trkpt>
      <trkpt lat="45.16381" lon="5.94449">
        <ele>2132.7</ele>
        <time>2021-02-20T10:02:19Z</time>
      </trkpt>
      <trkpt lat="45.16382" lon="5.94449">
        <ele>2132.7</ele>
        <time>2021-02-20T10:02:20Z</time>
      </trkpt>
      <trkpt lat="45.16382" lon="5.9445">
        <ele>2131.7</ele>
        <time>2021-02-20T10:02:21Z</time>
      </trkpt>
      <trkpt lat="45.16383" lon="5.9445">
        <ele>2131.7</ele>
        <time>2021-02-20T10:02:22Z</time>
      </trkpt>
      <trkpt lat="45.16383" lon="5.94451">
        <ele>2132.7</ele>
        <time>2021-02-20T10:02:23Z</time>
      </trkpt>
      <trkpt lat="45.16383" lon="5.94451">
        <ele>2132.7</ele>
        <time>2021-02-20T10:02:24Z</time>
      </trkpt>
      <trkpt lat="45.16384" lon="5.94451">
        <ele>2132.7</ele>
        <time>2021-02-20T10:02:25Z</time>
      </trkpt>
      <trkpt lat="45.16384" lon="5.94452">
        <ele>2132.7</ele>
        <time>2021-02-20T10:02:26Z</time>
      </trkpt>
      <trkpt lat="45.16384" lon="5.94452">
        <ele>2132.7</ele>
        <time>2021-02-20T10:02:27Z</time>
      </trkpt>
      <trkpt lat="45.16384" lon="5.94453">
        <ele>2132.7</ele>
        <time>2021-02-20T10:02:28Z</time>
      </trkpt>
      <trkpt lat="45.16385" lon="5.94454">
        <ele>2132.7</ele>
        <time>2021-02-20T10:02:29Z</time>
      </trkpt>
      <trkpt lat="45.16385" lon="5.94454">
        <ele>2132.7</ele>
        <time>2021-02-20T10:02:30Z</time>
      </trkpt>
      <trkpt lat="45.16385" lon="5.94454">
        <ele>2132.7</ele>
        <time>2021-02-20T10:02:31Z</time>
      </trkpt>
      <trkpt lat="45.16385" lon="5.94455">
        <ele>2133.6</ele>
        <time>2021-02-20T10:02:32Z</time>
      </trkpt>
      <trkpt lat="45.16385" lon="5.94455">
        <ele>2133.6</ele>
        <time>2021-02-20T10:02:33Z</time>
      </trkpt>
      <trkpt lat="45.16385" lon="5.94456">
        <ele>2133.6</ele>
        <time>2021-02-20T10:02:34Z</time>
      </trkpt>
      <trkpt lat="45.16385" lon="5.94456">
        <ele>2133.6</ele>
        <time>2021-02-20T10:02:35Z</time>
      </trkpt>
      <trkpt lat="45.16385" lon="5.94457">
        <ele>2133.6</ele>
        <time>2021-02-20T10:02:36Z</time>
      </trkpt>
      <trkpt lat="45.16385" lon="5.94457">
        <ele>2133.6</ele>
        <time>2021-02-20T10:02:37Z</time>
      </trkpt>
      <trkpt lat="45.16386" lon="5.94458">
        <ele>2132.7</ele>
        <time>2021-02-20T10:02:38Z</time>
      </trkpt>
      <trkpt lat="45.16386" lon="5.94458">
        <ele>2132.7</ele>
        <time>2021-02-20T10:02:39Z</time>
      </trkpt>
      <trkpt lat="45.16386" lon="5.94459">
        <ele>2132.7</ele>
        <time>2021-02-20T10:02:40Z</time>
      </trkpt>
      <trkpt lat="45.16386" lon="5.94459">
        <ele>2133.6</ele>
        <time>2021-02-20T10:02:41Z</time>
      </trkpt>
      <trkpt lat="45.16386" lon="5.9446">
        <ele>2133.6</ele>
        <time>2021-02-20T10:02:42Z</time>
      </trkpt>
      <trkpt lat="45.16386" lon="5.9446">
        <ele>2133.6</ele>
        <time>2021-02-20T10:02:43Z</time>
      </trkpt>
      <trkpt lat="45.16386" lon="5.94461">
        <ele>2133.6</ele>
        <time>2021-02-20T10:02:44Z</time>
      </trkpt>
      <trkpt lat="45.16386" lon="5.94462">
        <ele>2133.6</ele>
        <time>2021-02-20T10:02:45Z</time>
      </trkpt>
      <trkpt lat="45.16386" lon="5.94463">
        <ele>2133.6</ele>
        <time>2021-02-20T10:02:46Z</time>
      </trkpt>
      <trkpt lat="45.16386" lon="5.94463">
        <ele>2133.6</ele>
        <time>2021-02-20T10:02:47Z</time>
      </trkpt>
      <trkpt lat="45.16386" lon="5.94464">
        <ele>2134.6</ele>
        <time>2021-02-20T10:02:48Z</time>
      </trkpt>
      <trkpt lat="45.16386" lon="5.94465">
        <ele>2134.6</ele>
        <time>2021-02-20T10:02:49Z</time>
      </trkpt>
      <trkpt lat="45.16386" lon="5.94466">
        <ele>2134.6</ele>
        <time>2021-02-20T10:02:50Z</time>
      </trkpt>
      <trkpt lat="45.16386" lon="5.94466">
        <ele>2134.6</ele>
        <time>2021-02-20T10:02:51Z</time>
      </trkpt>
      <trkpt lat="45.16386" lon="5.94467">
        <ele>2134.6</ele>
        <time>2021-02-20T10:02:52Z</time>
      </trkpt>
      <trkpt lat="45.16386" lon="5.94468">
        <ele>2135.5</ele>
        <time>2021-02-20T10:02:53Z</time>
      </trkpt>
      <trkpt lat="45.16385" lon="5.94469">
        <ele>2136.3</ele>
        <time>2021-02-20T10:02:54Z</time>
      </trkpt>
      <trkpt lat="45.16385" lon="5.9447">
        <ele>2136.3</ele>
        <time>2021-02-20T10:02:55Z</time>
      </trkpt>
      <trkpt lat="45.16385" lon="5.94471">
        <ele>2136.3</ele>
        <time>2021-02-20T10:02:56Z</time>
      </trkpt>
      <trkpt lat="45.16385" lon="5.94471">
        <ele>2136.3</ele>
        <time>2021-02-20T10:02:57Z</time>
      </trkpt>
      <trkpt lat="45.16385" lon="5.94472">
        <ele>2136.3</ele>
        <time>2021-02-20T10:02:58Z</time>
      </trkpt>
      <trkpt lat="45.16385" lon="5.94473">
        <ele>2137.2</ele>
        <time>2021-02-20T10:02:59Z</time>
      </trkpt>
      <trkpt lat="45.16385" lon="5.94473">
        <ele>2137.2</ele>
        <time>2021-02-20T10:03:00Z</time>
      </trkpt>
      <trkpt lat="45.16385" lon="5.94474">
        <ele>2137.2</ele>
        <time>2021-02-20T10:03:01Z</time>
      </trkpt>
      <trkpt lat="45.16385" lon="5.94474">
        <ele>2137.2</ele>
        <time>2021-02-20T10:03:02Z</time>
      </trkpt>
      <trkpt lat="45.16385" lon="5.94475">
        <ele>2137.2</ele>
        <time>2021-02-20T10:03:03Z</time>
      </trkpt>
      <trkpt lat="45.16385" lon="5.94476">
        <ele>2137.2</ele>
        <time>2021-02-20T10:03:04Z</time>
      </trkpt>
      <trkpt lat="45.16385" lon="5.94477">
        <ele>2138.2</ele>
        <time>2021-02-20T10:03:05Z</time>
      </trkpt>
      <trkpt lat="45.16385" lon="5.94477">
        <ele>2138.2</ele>
        <time>2021-02-20T10:03:06Z</time>
      </trkpt>
      <trkpt lat="45.16384" lon="5.94477">
        <ele>2138.2</ele>
        <time>2021-02-20T10:03:07Z</time>
      </trkpt>
      <trkpt lat="45.16384" lon="5.94478">
        <ele>2138.2</ele>
        <time>2021-02-20T10:03:08Z</time>
      </trkpt>
      <trkpt lat="45.16384" lon="5.94478">
        <ele>2138.2</ele>
        <time>2021-02-20T10:03:09Z</time>
      </trkpt>
      <trkpt lat="45.16384" lon="5.94478">
        <ele>2138.2</ele>
        <time>2021-02-20T10:03:10Z</time>
      </trkpt>
      <trkpt lat="45.16384" lon="5.94479">
        <ele>2138.2</ele>
        <time>2021-02-20T10:03:11Z</time>
      </trkpt>
      <trkpt lat="45.16384" lon="5.94479">
        <ele>2138.2</ele>
        <time>2021-02-20T10:03:12Z</time>
      </trkpt>
      <trkpt lat="45.16384" lon="5.9448">
        <ele>2138.2</ele>
        <time>2021-02-20T10:03:13Z</time>
      </trkpt>
      <trkpt lat="45.16384" lon="5.9448">
        <ele>2138.2</ele>
        <time>2021-02-20T10:03:14Z</time>
      </trkpt>
      <trkpt lat="45.16384" lon="5.94481">
        <ele>2138.2</ele>
        <time>2021-02-20T10:03:15Z</time>
      </trkpt>
      <trkpt lat="45.16384" lon="5.94481">
        <ele>2139.1</ele>
        <time>2021-02-20T10:03:16Z</time>
      </trkpt>
      <trkpt lat="45.16384" lon="5.94481">
        <ele>2139.1</ele>
        <time>2021-02-20T10:03:17Z</time>
      </trkpt>
      <trkpt lat="45.16384" lon="5.94482">
        <ele>2139.1</ele>
        <time>2021-02-20T10:03:18Z</time>
      </trkpt>
      <trkpt lat="45.16384" lon="5.94483">
        <ele>2139.1</ele>
        <time>2021-02-20T10:03:19Z</time>
      </trkpt>
      <trkpt lat="45.16384" lon="5.94484">
        <ele>2139.1</ele>
        <time>2021-02-20T10:03:20Z</time>
      </trkpt>
      <trkpt lat="45.16384" lon="5.94485">
        <ele>2139.1</ele>
        <time>2021-02-20T10:03:21Z</time>
      </trkpt>
      <trkpt lat="45.16384" lon="5.94485">
        <ele>2140</ele>
        <time>2021-02-20T10:03:22Z</time>
      </trkpt>
      <trkpt lat="45.16384" lon="5.94486">
        <ele>2140</ele>
        <time>2021-02-20T10:03:23Z</time>
      </trkpt>
      <trkpt lat="45.16384" lon="5.94487">
        <ele>2140</ele>
        <time>2021-02-20T10:03:24Z</time>
      </trkpt>
      <trkpt lat="45.16384" lon="5.94488">
        <ele>2140</ele>
        <time>2021-02-20T10:03:25Z</time>
      </trkpt>
      <trkpt lat="45.16384" lon="5.94488">
        <ele>2140</ele>
        <time>2021-02-20T10:03:26Z</time>
      </trkpt>
      <trkpt lat="45.16384" lon="5.94489">
        <ele>2141</ele>
        <time>2021-02-20T10:03:27Z</time>
      </trkpt>
      <trkpt lat="45.16385" lon="5.9449">
        <ele>2141</ele>
        <time>2021-02-20T10:03:28Z</time>
      </trkpt>
      <trkpt lat="45.16385" lon="5.94491">
        <ele>2141</ele>
        <time>2021-02-20T10:03:29Z</time>
      </trkpt>
      <trkpt lat="45.16385" lon="5.94492">
        <ele>2141</ele>
        <time>2021-02-20T10:03:30Z</time>
      </trkpt>
      <trkpt lat="45.16385" lon="5.94493">
        <ele>2141</ele>
        <time>2021-02-20T10:03:31Z</time>
      </trkpt>
      <trkpt lat="45.16385" lon="5.94494">
        <ele>2142</ele>
        <time>2021-02-20T10:03:32Z</time>
      </trkpt>
      <trkpt lat="45.16385" lon="5.94494">
        <ele>2142</ele>
        <time>2021-02-20T10:03:33Z</time>
      </trkpt>
      <trkpt lat="45.16386" lon="5.94495">
        <ele>2141.4</ele>
        <time>2021-02-20T10:03:34Z</time>
      </trkpt>
      <trkpt lat="45.16386" lon="5.94496">
        <ele>2141.4</ele>
        <time>2021-02-20T10:03:35Z</time>
      </trkpt>
      <trkpt lat="45.16386" lon="5.94497">
        <ele>2141.4</ele>
        <time>2021-02-20T10:03:36Z</time>
      </trkpt>
      <trkpt lat="45.16386" lon="5.94498">
        <ele>2142.4</ele>
        <time>2021-02-20T10:03:37Z</time>
      </trkpt>
      <trkpt lat="45.16386" lon="5.94499">
        <ele>2142.4</ele>
        <time>2021-02-20T10:03:38Z</time>
      </trkpt>
      <trkpt lat="45.16386" lon="5.945">
        <ele>2142.4</ele>
        <time>2021-02-20T10:03:39Z</time>
      </trkpt>
      <trkpt lat="45.16386" lon="5.945">
        <ele>2142.4</ele>
        <time>2021-02-20T10:03:40Z</time>
      </trkpt>
      <trkpt lat="45.16386" lon="5.945">
        <ele>2142.4</ele>
        <time>2021-02-20T10:03:41Z</time>
      </trkpt>
      <trkpt lat="45.16386" lon="5.94501">
        <ele>2142.4</ele>
        <time>2021-02-20T10:03:42Z</time>
      </trkpt>
      <trkpt lat="45.16386" lon="5.94501">
        <ele>2142.4</ele>
        <time>2021-02-20T10:03:43Z</time>
      </trkpt>
      <trkpt lat="45.16386" lon="5.94502">
        <ele>2143.4</ele>
        <time>2021-02-20T10:03:44Z</time>
      </trkpt>
      <trkpt lat="45.16386" lon="5.94503">
        <ele>2143.4</ele>
        <time>2021-02-20T10:03:45Z</time>
      </trkpt>
      <trkpt lat="45.16386" lon="5.94504">
        <ele>2143.4</ele>
        <time>2021-02-20T10:03:46Z</time>
      </trkpt>
      <trkpt lat="45.16386" lon="5.94505">
        <ele>2143.4</ele>
        <time>2021-02-20T10:03:47Z</time>
      </trkpt>
      <trkpt lat="45.16386" lon="5.94506">
        <ele>2143.4</ele>
        <time>2021-02-20T10:03:48Z</time>
      </trkpt>
      <trkpt lat="45.16386" lon="5.94506">
        <ele>2143.4</ele>
        <time>2021-02-20T10:03:49Z</time>
      </trkpt>
      <trkpt lat="45.16386" lon="5.94507">
        <ele>2144.3</ele>
        <time>2021-02-20T10:03:50Z</time>
      </trkpt>
      <trkpt lat="45.16386" lon="5.94508">
        <ele>2144.3</ele>
        <time>2021-02-20T10:03:51Z</time>
      </trkpt>
      <trkpt lat="45.16385" lon="5.9451">
        <ele>2144.8</ele>
        <time>2021-02-20T10:03:52Z</time>
      </trkpt>
      <trkpt lat="45.16385" lon="5.94511">
        <ele>2145.7</ele>
        <time>2021-02-20T10:03:53Z</time>
      </trkpt>
      <trkpt lat="45.16385" lon="5.94513">
        <ele>2145.7</ele>
        <time>2021-02-20T10:03:54Z</time>
      </trkpt>
      <trkpt lat="45.16385" lon="5.94515">
        <ele>2146.6</ele>
        <time>2021-02-20T10:03:55Z</time>
      </trkpt>
      <trkpt lat="45.16385" lon="5.94516">
        <ele>2146.6</ele>
        <time>2021-02-20T10:03:56Z</time>
      </trkpt>
      <trkpt lat="45.16386" lon="5.94518">
        <ele>2146.1</ele>
        <time>2021-02-20T10:03:57Z</time>
      </trkpt>
      <trkpt lat="45.16386" lon="5.94519">
        <ele>2146.1</ele>
        <time>2021-02-20T10:03:58Z</time>
      </trkpt>
      <trkpt lat="45.16386" lon="5.9452">
        <ele>2147</ele>
        <time>2021-02-20T10:03:59Z</time>
      </trkpt>
      <trkpt lat="45.16385" lon="5.9452">
        <ele>2147.4</ele>
        <time>2021-02-20T10:04:00Z</time>
      </trkpt>
      <trkpt lat="45.16385" lon="5.94521">
        <ele>2147.4</ele>
        <time>2021-02-20T10:04:01Z</time>
      </trkpt>
      <trkpt lat="45.16385" lon="5.94522">
        <ele>2147.4</ele>
        <time>2021-02-20T10:04:02Z</time>
      </trkpt>
      <trkpt lat="45.16384" lon="5.94523">
        <ele>2147.4</ele>
        <time>2021-02-20T10:04:03Z</time>
      </trkpt>
      <trkpt lat="45.16384" lon="5.94524">
        <ele>2148.3</ele>
        <time>2021-02-20T10:04:04Z</time>
      </trkpt>
      <trkpt lat="45.16384" lon="5.94524">
        <ele>2148.3</ele>
        <time>2021-02-20T10:04:05Z</time>
      </trkpt>
      <trkpt lat="45.16383" lon="5.94524">
        <ele>2148.3</ele>
        <time>2021-02-20T10:04:06Z</time>
      </trkpt>
      <trkpt lat="45.16382" lon="5.94524">
        <ele>2148.7</ele>
        <time>2021-02-20T10:04:07Z</time>
      </trkpt>
      <trkpt lat="45.16382" lon="5.94525">
        <ele>2148.7</ele>
        <time>2021-02-20T10:04:08Z</time>
      </trkpt>
      <trkpt lat="45.16381" lon="5.94525">
        <ele>2148.7</ele>
        <time>2021-02-20T10:04:09Z</time>
      </trkpt>
      <trkpt lat="45.16381" lon="5.94526">
        <ele>2148.7</ele>
        <time>2021-02-20T10:04:10Z</time>
      </trkpt>
      <trkpt lat="45.16381" lon="5.94527">
        <ele>2148.7</ele>
        <time>2021-02-20T10:04:11Z</time>
      </trkpt>
      <trkpt lat="45.16381" lon="5.94527">
        <ele>2148.7</ele>
        <time>2021-02-20T10:04:12Z</time>
      </trkpt>
      <trkpt lat="45.16382" lon="5.94528">
        <ele>2148.7</ele>
        <time>2021-02-20T10:04:13Z</time>
      </trkpt>
      <trkpt lat="45.16382" lon="5.94528">
        <ele>2149.6</ele>
        <time>2021-02-20T10:04:14Z</time>
      </trkpt>
      <trkpt lat="45.16382" lon="5.94529">
        <ele>2149.6</ele>
        <time>2021-02-20T10:04:15Z</time>
      </trkpt>
      <trkpt lat="45.16382" lon="5.94529">
        <ele>2149.6</ele>
        <time>2021-02-20T10:04:16Z</time>
      </trkpt>
      <trkpt lat="45.16382" lon="5.94529">
        <ele>2149.6</ele>
        <time>2021-02-20T10:04:17Z</time>
      </trkpt>
      <trkpt lat="45.16382" lon="5.9453">
        <ele>2149.6</ele>
        <time>2021-02-20T10:04:18Z</time>
      </trkpt>
      <trkpt lat="45.16382" lon="5.94531">
        <ele>2149.6</ele>
        <time>2021-02-20T10:04:19Z</time>
      </trkpt>
      <trkpt lat="45.16382" lon="5.94531">
        <ele>2149.6</ele>
        <time>2021-02-20T10:04:20Z</time>
      </trkpt>
      <trkpt lat="45.16382" lon="5.94532">
        <ele>2150.5</ele>
        <time>2021-02-20T10:04:21Z</time>
      </trkpt>
      <trkpt lat="45.16382" lon="5.94533">
        <ele>2150.5</ele>
        <time>2021-02-20T10:04:22Z</time>
      </trkpt>
      <trkpt lat="45.16382" lon="5.94534">
        <ele>2150.5</ele>
        <time>2021-02-20T10:04:23Z</time>
      </trkpt>
      <trkpt lat="45.16381" lon="5.94535">
        <ele>2150.5</ele>
        <time>2021-02-20T10:04:24Z</time>
      </trkpt>
      <trkpt lat="45.16381" lon="5.94535">
        <ele>2150.5</ele>
        <time>2021-02-20T10:04:25Z</time>
      </trkpt>
      <trkpt lat="45.16381" lon="5.94536">
        <ele>2150.5</ele>
        <time>2021-02-20T10:04:26Z</time>
      </trkpt>
      <trkpt lat="45.16381" lon="5.94536">
        <ele>2150.5</ele>
        <time>2021-02-20T10:04:27Z</time>
      </trkpt>
      <trkpt lat="45.16381" lon="5.94537">
        <ele>2151.4</ele>
        <time>2021-02-20T10:04:28Z</time>
      </trkpt>
      <trkpt lat="45.16381" lon="5.94538">
        <ele>2151.4</ele>
        <time>2021-02-20T10:04:29Z</time>
      </trkpt>
      <trkpt lat="45.1638" lon="5.9454">
        <ele>2151.4</ele>
        <time>2021-02-20T10:04:30Z</time>
      </trkpt>
      <trkpt lat="45.1638" lon="5.94541">
        <ele>2152.3</ele>
        <time>2021-02-20T10:04:31Z</time>
      </trkpt>
      <trkpt lat="45.16381" lon="5.94542">
        <ele>2152.3</ele>
        <time>2021-02-20T10:04:32Z</time>
      </trkpt>
      <trkpt lat="45.16381" lon="5.94543">
        <ele>2152.3</ele>
        <time>2021-02-20T10:04:33Z</time>
      </trkpt>
      <trkpt lat="45.16382" lon="5.94544">
        <ele>2152.3</ele>
        <time>2021-02-20T10:04:34Z</time>
      </trkpt>
      <trkpt lat="45.16383" lon="5.94545">
        <ele>2152.1</ele>
        <time>2021-02-20T10:04:35Z</time>
      </trkpt>
      <trkpt lat="45.16383" lon="5.94545">
        <ele>2153</ele>
        <time>2021-02-20T10:04:36Z</time>
      </trkpt>
      <trkpt lat="45.16383" lon="5.94546">
        <ele>2153</ele>
        <time>2021-02-20T10:04:37Z</time>
      </trkpt>
      <trkpt lat="45.16382" lon="5.94547">
        <ele>2153.1</ele>
        <time>2021-02-20T10:04:38Z</time>
      </trkpt>
      <trkpt lat="45.16382" lon="5.94548">
        <ele>2153.1</ele>
        <time>2021-02-20T10:04:39Z</time>
      </trkpt>
      <trkpt lat="45.16382" lon="5.9455">
        <ele>2153.9</ele>
        <time>2021-02-20T10:04:40Z</time>
      </trkpt>
      <trkpt lat="45.16382" lon="5.94551">
        <ele>2153.9</ele>
        <time>2021-02-20T10:04:41Z</time>
      </trkpt>
      <trkpt lat="45.16382" lon="5.94552">
        <ele>2153.9</ele>
        <time>2021-02-20T10:04:42Z</time>
      </trkpt>
      <trkpt lat="45.16382" lon="5.94553">
        <ele>2153.9</ele>
        <time>2021-02-20T10:04:43Z</time>
      </trkpt>
      <trkpt lat="45.16382" lon="5.94554">
        <ele>2154.7</ele>
        <time>2021-02-20T10:04:44Z</time>
      </trkpt>
      <trkpt lat="45.16382" lon="5.94554">
        <ele>2154.7</ele>
        <time>2021-02-20T10:04:45Z</time>
      </trkpt>
      <trkpt lat="45.16382" lon="5.94555">
        <ele>2154.7</ele>
        <time>2021-02-20T10:04:46Z</time>
      </trkpt>
      <trkpt lat="45.16381" lon="5.94556">
        <ele>2154.7</ele>
        <time>2021-02-20T10:04:47Z</time>
      </trkpt>
      <trkpt lat="45.16381" lon="5.94557">
        <ele>2154.7</ele>
        <time>2021-02-20T10:04:48Z</time>
      </trkpt>
      <trkpt lat="45.16381" lon="5.94558">
        <ele>2155.4</ele>
        <time>2021-02-20T10:04:49Z</time>
      </trkpt>
      <trkpt lat="45.16381" lon="5.94559">
        <ele>2155.4</ele>
        <time>2021-02-20T10:04:50Z</time>
      </trkpt>
      <trkpt lat="45.16381" lon="5.9456">
        <ele>2155.4</ele>
        <time>2021-02-20T10:04:51Z</time>
      </trkpt>
      <trkpt lat="45.16381" lon="5.94561">
        <ele>2155.4</ele>
        <time>2021-02-20T10:04:52Z</time>
      </trkpt>
      <trkpt lat="45.16381" lon="5.94562">
        <ele>2155.4</ele>
        <time>2021-02-20T10:04:53Z</time>
      </trkpt>
      <trkpt lat="45.16382" lon="5.94563">
        <ele>2156.1</ele>
        <time>2021-02-20T10:04:54Z</time>
      </trkpt>
      <trkpt lat="45.16382" lon="5.94563">
        <ele>2156.1</ele>
        <time>2021-02-20T10:04:55Z</time>
      </trkpt>
      <trkpt lat="45.16382" lon="5.94563">
        <ele>2156.1</ele>
        <time>2021-02-20T10:04:56Z</time>
      </trkpt>
      <trkpt lat="45.16382" lon="5.94563">
        <ele>2156.1</ele>
        <time>2021-02-20T10:04:57Z</time>
      </trkpt>
      <trkpt lat="45.16382" lon="5.94564">
        <ele>2156.1</ele>
        <time>2021-02-20T10:04:58Z</time>
      </trkpt>
      <trkpt lat="45.16382" lon="5.94564">
        <ele>2156.1</ele>
        <time>2021-02-20T10:04:59Z</time>
      </trkpt>
      <trkpt lat="45.16381" lon="5.94565">
        <ele>2156.1</ele>
        <time>2021-02-20T10:05:00Z</time>
      </trkpt>
      <trkpt lat="45.16381" lon="5.94565">
        <ele>2156.1</ele>
        <time>2021-02-20T10:05:01Z</time>
      </trkpt>
      <trkpt lat="45.16381" lon="5.94565">
        <ele>2156.1</ele>
        <time>2021-02-20T10:05:02Z</time>
      </trkpt>
      <trkpt lat="45.16381" lon="5.94565">
        <ele>2156.1</ele>
        <time>2021-02-20T10:05:03Z</time>
      </trkpt>
      <trkpt lat="45.16381" lon="5.94565">
        <ele>2156.1</ele>
        <time>2021-02-20T10:05:04Z</time>
      </trkpt>
      <trkpt lat="45.16381" lon="5.94565">
        <ele>2156.1</ele>
        <time>2021-02-20T10:05:05Z</time>
      </trkpt>
      <trkpt lat="45.16381" lon="5.94565">
        <ele>2156.1</ele>
        <time>2021-02-20T10:05:06Z</time>
      </trkpt>
      <trkpt lat="45.1638" lon="5.94565">
        <ele>2156.1</ele>
        <time>2021-02-20T10:05:07Z</time>
      </trkpt>
      <trkpt lat="45.1638" lon="5.94565">
        <ele>2156.1</ele>
        <time>2021-02-20T10:05:08Z</time>
      </trkpt>
      <trkpt lat="45.16379" lon="5.94566">
        <ele>2156.1</ele>
        <time>2021-02-20T10:05:09Z</time>
      </trkpt>
      <trkpt lat="45.16379" lon="5.94567">
        <ele>2156.7</ele>
        <time>2021-02-20T10:05:10Z</time>
      </trkpt>
      <trkpt lat="45.16379" lon="5.94568">
        <ele>2156.7</ele>
        <time>2021-02-20T10:05:11Z</time>
      </trkpt>
      <trkpt lat="45.16379" lon="5.94569">
        <ele>2156.7</ele>
        <time>2021-02-20T10:05:12Z</time>
      </trkpt>
      <trkpt lat="45.16379" lon="5.9457">
        <ele>2156.7</ele>
        <time>2021-02-20T10:05:13Z</time>
      </trkpt>
      <trkpt lat="45.16379" lon="5.94571">
        <ele>2157.4</ele>
        <time>2021-02-20T10:05:14Z</time>
      </trkpt>
      <trkpt lat="45.16379" lon="5.94572">
        <ele>2157.4</ele>
        <time>2021-02-20T10:05:15Z</time>
      </trkpt>
      <trkpt lat="45.16379" lon="5.94573">
        <ele>2157.4</ele>
        <time>2021-02-20T10:05:16Z</time>
      </trkpt>
      <trkpt lat="45.16379" lon="5.94574">
        <ele>2157.4</ele>
        <time>2021-02-20T10:05:17Z</time>
      </trkpt>
      <trkpt lat="45.16379" lon="5.94575">
        <ele>2158.2</ele>
        <time>2021-02-20T10:05:18Z</time>
      </trkpt>
      <trkpt lat="45.16379" lon="5.94576">
        <ele>2158.2</ele>
        <time>2021-02-20T10:05:19Z</time>
      </trkpt>
      <trkpt lat="45.1638" lon="5.94577">
        <ele>2158.2</ele>
        <time>2021-02-20T10:05:20Z</time>
      </trkpt>
      <trkpt lat="45.1638" lon="5.94578">
        <ele>2158.2</ele>
        <time>2021-02-20T10:05:21Z</time>
      </trkpt>
      <trkpt lat="45.1638" lon="5.94578">
        <ele>2158.2</ele>
        <time>2021-02-20T10:05:22Z</time>
      </trkpt>
      <trkpt lat="45.1638" lon="5.94579">
        <ele>2158.2</ele>
        <time>2021-02-20T10:05:23Z</time>
      </trkpt>
      <trkpt lat="45.16381" lon="5.9458">
        <ele>2158.9</ele>
        <time>2021-02-20T10:05:24Z</time>
      </trkpt>
      <trkpt lat="45.16381" lon="5.9458">
        <ele>2158.9</ele>
        <time>2021-02-20T10:05:25Z</time>
      </trkpt>
      <trkpt lat="45.16382" lon="5.94581">
        <ele>2158.9</ele>
        <time>2021-02-20T10:05:26Z</time>
      </trkpt>
      <trkpt lat="45.16382" lon="5.94581">
        <ele>2158.9</ele>
        <time>2021-02-20T10:05:27Z</time>
      </trkpt>
      <trkpt lat="45.16383" lon="5.94581">
        <ele>2159.1</ele>
        <time>2021-02-20T10:05:28Z</time>
      </trkpt>
      <trkpt lat="45.16383" lon="5.94582">
        <ele>2159.1</ele>
        <time>2021-02-20T10:05:29Z</time>
      </trkpt>
      <trkpt lat="45.16384" lon="5.94583">
        <ele>2159.1</ele>
        <time>2021-02-20T10:05:30Z</time>
      </trkpt>
      <trkpt lat="45.16385" lon="5.94583">
        <ele>2159.1</ele>
        <time>2021-02-20T10:05:31Z</time>
      </trkpt>
      <trkpt lat="45.16386" lon="5.94583">
        <ele>2159.3</ele>
        <time>2021-02-20T10:05:32Z</time>
      </trkpt>
      <trkpt lat="45.16386" lon="5.94583">
        <ele>2159.3</ele>
        <time>2021-02-20T10:05:33Z</time>
      </trkpt>
      <trkpt lat="45.16386" lon="5.94582">
        <ele>2159.3</ele>
        <time>2021-02-20T10:05:34Z</time>
      </trkpt>
      <trkpt lat="45.16387" lon="5.94582">
        <ele>2159.3</ele>
        <time>2021-02-20T10:05:35Z</time>
      </trkpt>
      <trkpt lat="45.16387" lon="5.94581">
        <ele>2159.3</ele>
        <time>2021-02-20T10:05:36Z</time>
      </trkpt>
      <trkpt lat="45.16388" lon="5.9458">
        <ele>2159.3</ele>
        <time>2021-02-20T10:05:37Z</time>
      </trkpt>
      <trkpt lat="45.16389" lon="5.9458">
        <ele>2159.6</ele>
        <time>2021-02-20T10:05:38Z</time>
      </trkpt>
      <trkpt lat="45.16389" lon="5.9458">
        <ele>2159.6</ele>
        <time>2021-02-20T10:05:39Z</time>
      </trkpt>
      <trkpt lat="45.16389" lon="5.94581">
        <ele>2159.6</ele>
        <time>2021-02-20T10:05:40Z</time>
      </trkpt>
      <trkpt lat="45.1639" lon="5.94582">
        <ele>2159.6</ele>
        <time>2021-02-20T10:05:41Z</time>
      </trkpt>
      <trkpt lat="45.1639" lon="5.94583">
        <ele>2159.6</ele>
        <time>2021-02-20T10:05:42Z</time>
      </trkpt>
      <trkpt lat="45.1639" lon="5.94584">
        <ele>2160.4</ele>
        <time>2021-02-20T10:05:43Z</time>
      </trkpt>
      <trkpt lat="45.1639" lon="5.94584">
        <ele>2160.4</ele>
        <time>2021-02-20T10:05:44Z</time>
      </trkpt>
      <trkpt lat="45.1639" lon="5.94585">
        <ele>2160.4</ele>
        <time>2021-02-20T10:05:45Z</time>
      </trkpt>
      <trkpt lat="45.1639" lon="5.94586">
        <ele>2160.4</ele>
        <time>2021-02-20T10:05:46Z</time>
      </trkpt>
      <trkpt lat="45.1639" lon="5.94587">
        <ele>2160.4</ele>
        <time>2021-02-20T10:05:47Z</time>
      </trkpt>
      <trkpt lat="45.1639" lon="5.94588">
        <ele>2160.4</ele>
        <time>2021-02-20T10:05:48Z</time>
      </trkpt>
      <trkpt lat="45.1639" lon="5.94588">
        <ele>2161.2</ele>
        <time>2021-02-20T10:05:49Z</time>
      </trkpt>
      <trkpt lat="45.1639" lon="5.94589">
        <ele>2161.2</ele>
        <time>2021-02-20T10:05:50Z</time>
      </trkpt>
      <trkpt lat="45.1639" lon="5.94589">
        <ele>2161.2</ele>
        <time>2021-02-20T10:05:51Z</time>
      </trkpt>
      <trkpt lat="45.1639" lon="5.9459">
        <ele>2161.2</ele>
        <time>2021-02-20T10:05:52Z</time>
      </trkpt>
      <trkpt lat="45.1639" lon="5.9459">
        <ele>2161.2</ele>
        <time>2021-02-20T10:05:53Z</time>
      </trkpt>
      <trkpt lat="45.1639" lon="5.94592">
        <ele>2161.2</ele>
        <time>2021-02-20T10:05:54Z</time>
      </trkpt>
      <trkpt lat="45.1639" lon="5.94592">
        <ele>2162</ele>
        <time>2021-02-20T10:05:55Z</time>
      </trkpt>
      <trkpt lat="45.16391" lon="5.94593">
        <ele>2162</ele>
        <time>2021-02-20T10:05:56Z</time>
      </trkpt>
      <trkpt lat="45.16392" lon="5.94593">
        <ele>2162.3</ele>
        <time>2021-02-20T10:05:57Z</time>
      </trkpt>
      <trkpt lat="45.16392" lon="5.94593">
        <ele>2162.3</ele>
        <time>2021-02-20T10:05:58Z</time>
      </trkpt>
      <trkpt lat="45.16393" lon="5.94594">
        <ele>2162.3</ele>
        <time>2021-02-20T10:05:59Z</time>
      </trkpt>
      <trkpt lat="45.16394" lon="5.94594">
        <ele>2162.3</ele>
        <time>2021-02-20T10:06:00Z</time>
      </trkpt>
      <trkpt lat="45.16394" lon="5.94594">
        <ele>2162.3</ele>
        <time>2021-02-20T10:06:01Z</time>
      </trkpt>
      <trkpt lat="45.16394" lon="5.94594">
        <ele>2162.3</ele>
        <time>2021-02-20T10:06:02Z</time>
      </trkpt>
      <trkpt lat="45.16395" lon="5.94594">
        <ele>2162.6</ele>
        <time>2021-02-20T10:06:03Z</time>
      </trkpt>
      <trkpt lat="45.16395" lon="5.94593">
        <ele>2162.6</ele>
        <time>2021-02-20T10:06:04Z</time>
      </trkpt>
      <trkpt lat="45.16396" lon="5.94593">
        <ele>2162.6</ele>
        <time>2021-02-20T10:06:05Z</time>
      </trkpt>
      <trkpt lat="45.16396" lon="5.94593">
        <ele>2162.6</ele>
        <time>2021-02-20T10:06:06Z</time>
      </trkpt>
      <trkpt lat="45.16397" lon="5.94593">
        <ele>2162.6</ele>
        <time>2021-02-20T10:06:07Z</time>
      </trkpt>
      <trkpt lat="45.16397" lon="5.94593">
        <ele>2162.6</ele>
        <time>2021-02-20T10:06:08Z</time>
      </trkpt>
      <trkpt lat="45.16397" lon="5.94594">
        <ele>2162.6</ele>
        <time>2021-02-20T10:06:09Z</time>
      </trkpt>
      <trkpt lat="45.16398" lon="5.94594">
        <ele>2162.9</ele>
        <time>2021-02-20T10:06:10Z</time>
      </trkpt>
      <trkpt lat="45.16399" lon="5.94595">
        <ele>2162.9</ele>
        <time>2021-02-20T10:06:11Z</time>
      </trkpt>
      <trkpt lat="45.16399" lon="5.94595">
        <ele>2162.9</ele>
        <time>2021-02-20T10:06:12Z</time>
      </trkpt>
      <trkpt lat="45.164" lon="5.94595">
        <ele>2162.9</ele>
        <time>2021-02-20T10:06:13Z</time>
      </trkpt>
      <trkpt lat="45.164" lon="5.94596">
        <ele>2162.9</ele>
        <time>2021-02-20T10:06:14Z</time>
      </trkpt>
      <trkpt lat="45.164" lon="5.94597">
        <ele>2163.7</ele>
        <time>2021-02-20T10:06:15Z</time>
      </trkpt>
      <trkpt lat="45.16401" lon="5.94598">
        <ele>2163.9</ele>
        <time>2021-02-20T10:06:16Z</time>
      </trkpt>
      <trkpt lat="45.16401" lon="5.94598">
        <ele>2163.9</ele>
        <time>2021-02-20T10:06:17Z</time>
      </trkpt>
      <trkpt lat="45.16401" lon="5.94598">
        <ele>2163.9</ele>
        <time>2021-02-20T10:06:18Z</time>
      </trkpt>
      <trkpt lat="45.16402" lon="5.94599">
        <ele>2163.9</ele>
        <time>2021-02-20T10:06:19Z</time>
      </trkpt>
      <trkpt lat="45.16402" lon="5.94599">
        <ele>2163.9</ele>
        <time>2021-02-20T10:06:20Z</time>
      </trkpt>
      <trkpt lat="45.16402" lon="5.946">
        <ele>2163.9</ele>
        <time>2021-02-20T10:06:21Z</time>
      </trkpt>
      <trkpt lat="45.16403" lon="5.94601">
        <ele>2163.9</ele>
        <time>2021-02-20T10:06:22Z</time>
      </trkpt>
      <trkpt lat="45.16403" lon="5.94601">
        <ele>2164.7</ele>
        <time>2021-02-20T10:06:23Z</time>
      </trkpt>
      <trkpt lat="45.16402" lon="5.94602">
        <ele>2164.7</ele>
        <time>2021-02-20T10:06:24Z</time>
      </trkpt>
      <trkpt lat="45.16403" lon="5.94603">
        <ele>2164.7</ele>
        <time>2021-02-20T10:06:25Z</time>
      </trkpt>
      <trkpt lat="45.16403" lon="5.94604">
        <ele>2164.7</ele>
        <time>2021-02-20T10:06:26Z</time>
      </trkpt>
      <trkpt lat="45.16404" lon="5.94604">
        <ele>2164.9</ele>
        <time>2021-02-20T10:06:27Z</time>
      </trkpt>
      <trkpt lat="45.16404" lon="5.94605">
        <ele>2164.9</ele>
        <time>2021-02-20T10:06:28Z</time>
      </trkpt>
      <trkpt lat="45.16405" lon="5.94605">
        <ele>2164.9</ele>
        <time>2021-02-20T10:06:29Z</time>
      </trkpt>
      <trkpt lat="45.16405" lon="5.94605">
        <ele>2164.9</ele>
        <time>2021-02-20T10:06:30Z</time>
      </trkpt>
      <trkpt lat="45.16405" lon="5.94605">
        <ele>2165.7</ele>
        <time>2021-02-20T10:06:31Z</time>
      </trkpt>
      <trkpt lat="45.16406" lon="5.94605">
        <ele>2165.7</ele>
        <time>2021-02-20T10:06:32Z</time>
      </trkpt>
      <trkpt lat="45.16406" lon="5.94606">
        <ele>2165.7</ele>
        <time>2021-02-20T10:06:33Z</time>
      </trkpt>
      <trkpt lat="45.16407" lon="5.94606">
        <ele>2165.9</ele>
        <time>2021-02-20T10:06:34Z</time>
      </trkpt>
      <trkpt lat="45.16408" lon="5.94606">
        <ele>2165.9</ele>
        <time>2021-02-20T10:06:35Z</time>
      </trkpt>
      <trkpt lat="45.16408" lon="5.94607">
        <ele>2165.9</ele>
        <time>2021-02-20T10:06:36Z</time>
      </trkpt>
      <trkpt lat="45.16408" lon="5.94608">
        <ele>2165.9</ele>
        <time>2021-02-20T10:06:37Z</time>
      </trkpt>
      <trkpt lat="45.16408" lon="5.94609">
        <ele>2165.9</ele>
        <time>2021-02-20T10:06:38Z</time>
      </trkpt>
      <trkpt lat="45.16408" lon="5.9461">
        <ele>2166.7</ele>
        <time>2021-02-20T10:06:39Z</time>
      </trkpt>
      <trkpt lat="45.16408" lon="5.9461">
        <ele>2166.7</ele>
        <time>2021-02-20T10:06:40Z</time>
      </trkpt>
      <trkpt lat="45.16408" lon="5.94611">
        <ele>2166.7</ele>
        <time>2021-02-20T10:06:41Z</time>
      </trkpt>
      <trkpt lat="45.16409" lon="5.94611">
        <ele>2166.7</ele>
        <time>2021-02-20T10:06:42Z</time>
      </trkpt>
      <trkpt lat="45.1641" lon="5.94611">
        <ele>2166.7</ele>
        <time>2021-02-20T10:06:43Z</time>
      </trkpt>
      <trkpt lat="45.16411" lon="5.94612">
        <ele>2167</ele>
        <time>2021-02-20T10:06:44Z</time>
      </trkpt>
      <trkpt lat="45.16411" lon="5.94612">
        <ele>2167</ele>
        <time>2021-02-20T10:06:45Z</time>
      </trkpt>
      <trkpt lat="45.16411" lon="5.94613">
        <ele>2167</ele>
        <time>2021-02-20T10:06:46Z</time>
      </trkpt>
      <trkpt lat="45.16412" lon="5.94613">
        <ele>2167</ele>
        <time>2021-02-20T10:06:47Z</time>
      </trkpt>
      <trkpt lat="45.16412" lon="5.94613">
        <ele>2167</ele>
        <time>2021-02-20T10:06:48Z</time>
      </trkpt>
      <trkpt lat="45.16413" lon="5.94613">
        <ele>2167.3</ele>
        <time>2021-02-20T10:06:49Z</time>
      </trkpt>
      <trkpt lat="45.16414" lon="5.94613">
        <ele>2167.3</ele>
        <time>2021-02-20T10:06:50Z</time>
      </trkpt>
      <trkpt lat="45.16415" lon="5.94614">
        <ele>2168</ele>
        <time>2021-02-20T10:06:51Z</time>
      </trkpt>
      <trkpt lat="45.16415" lon="5.94614">
        <ele>2168</ele>
        <time>2021-02-20T10:06:52Z</time>
      </trkpt>
      <trkpt lat="45.16416" lon="5.94614">
        <ele>2168.3</ele>
        <time>2021-02-20T10:06:53Z</time>
      </trkpt>
      <trkpt lat="45.16417" lon="5.94614">
        <ele>2168.3</ele>
        <time>2021-02-20T10:06:54Z</time>
      </trkpt>
      <trkpt lat="45.16417" lon="5.94614">
        <ele>2168.3</ele>
        <time>2021-02-20T10:06:55Z</time>
      </trkpt>
      <trkpt lat="45.16417" lon="5.94614">
        <ele>2168.3</ele>
        <time>2021-02-20T10:06:56Z</time>
      </trkpt>
      <trkpt lat="45.16418" lon="5.94614">
        <ele>2168.3</ele>
        <time>2021-02-20T10:06:57Z</time>
      </trkpt>
      <trkpt lat="45.16419" lon="5.94615">
        <ele>2168.6</ele>
        <time>2021-02-20T10:06:58Z</time>
      </trkpt>
      <trkpt lat="45.16419" lon="5.94615">
        <ele>2168.6</ele>
        <time>2021-02-20T10:06:59Z</time>
      </trkpt>
      <trkpt lat="45.1642" lon="5.94615">
        <ele>2168.6</ele>
        <time>2021-02-20T10:07:00Z</time>
      </trkpt>
      <trkpt lat="45.16421" lon="5.94616">
        <ele>2168.6</ele>
        <time>2021-02-20T10:07:01Z</time>
      </trkpt>
      <trkpt lat="45.16422" lon="5.94616">
        <ele>2168.6</ele>
        <time>2021-02-20T10:07:02Z</time>
      </trkpt>
      <trkpt lat="45.16422" lon="5.94616">
        <ele>2168.9</ele>
        <time>2021-02-20T10:07:03Z</time>
      </trkpt>
      <trkpt lat="45.16423" lon="5.94616">
        <ele>2168.9</ele>
        <time>2021-02-20T10:07:04Z</time>
      </trkpt>
      <trkpt lat="45.16423" lon="5.94616">
        <ele>2168.9</ele>
        <time>2021-02-20T10:07:05Z</time>
      </trkpt>
      <trkpt lat="45.16424" lon="5.94617">
        <ele>2168.9</ele>
        <time>2021-02-20T10:07:06Z</time>
      </trkpt>
      <trkpt lat="45.16425" lon="5.94617">
        <ele>2169.2</ele>
        <time>2021-02-20T10:07:07Z</time>
      </trkpt>
      <trkpt lat="45.16426" lon="5.94618">
        <ele>2169.2</ele>
        <time>2021-02-20T10:07:08Z</time>
      </trkpt>
      <trkpt lat="45.16426" lon="5.94618">
        <ele>2169.2</ele>
        <time>2021-02-20T10:07:09Z</time>
      </trkpt>
      <trkpt lat="45.16427" lon="5.94618">
        <ele>2169.2</ele>
        <time>2021-02-20T10:07:10Z</time>
      </trkpt>
      <trkpt lat="45.16428" lon="5.94618">
        <ele>2170.2</ele>
        <time>2021-02-20T10:07:11Z</time>
      </trkpt>
      <trkpt lat="45.16429" lon="5.94618">
        <ele>2170.2</ele>
        <time>2021-02-20T10:07:12Z</time>
      </trkpt>
      <trkpt lat="45.1643" lon="5.94618">
        <ele>2170.2</ele>
        <time>2021-02-20T10:07:13Z</time>
      </trkpt>
      <trkpt lat="45.16431" lon="5.94618">
        <ele>2170.5</ele>
        <time>2021-02-20T10:07:14Z</time>
      </trkpt>
      <trkpt lat="45.16431" lon="5.94618">
        <ele>2170.5</ele>
        <time>2021-02-20T10:07:15Z</time>
      </trkpt>
      <trkpt lat="45.16432" lon="5.94618">
        <ele>2169.8</ele>
        <time>2021-02-20T10:07:16Z</time>
      </trkpt>
      <trkpt lat="45.16432" lon="5.94618">
        <ele>2169.8</ele>
        <time>2021-02-20T10:07:17Z</time>
      </trkpt>
      <trkpt lat="45.16433" lon="5.94618">
        <ele>2170.5</ele>
        <time>2021-02-20T10:07:18Z</time>
      </trkpt>
      <trkpt lat="45.16433" lon="5.94618">
        <ele>2170.5</ele>
        <time>2021-02-20T10:07:19Z</time>
      </trkpt>
      <trkpt lat="45.16434" lon="5.94618">
        <ele>2170.5</ele>
        <time>2021-02-20T10:07:20Z</time>
      </trkpt>
      <trkpt lat="45.16434" lon="5.94618">
        <ele>2170.1</ele>
        <time>2021-02-20T10:07:21Z</time>
      </trkpt>
      <trkpt lat="45.16434" lon="5.94618">
        <ele>2170.1</ele>
        <time>2021-02-20T10:07:22Z</time>
      </trkpt>
      <trkpt lat="45.16434" lon="5.94618">
        <ele>2170.8</ele>
        <time>2021-02-20T10:07:23Z</time>
      </trkpt>
      <trkpt lat="45.16435" lon="5.94618">
        <ele>2170.8</ele>
        <time>2021-02-20T10:07:24Z</time>
      </trkpt>
      <trkpt lat="45.16435" lon="5.94618">
        <ele>2170.8</ele>
        <time>2021-02-20T10:07:25Z</time>
      </trkpt>
      <trkpt lat="45.16436" lon="5.94618">
        <ele>2170.8</ele>
        <time>2021-02-20T10:07:26Z</time>
      </trkpt>
      <trkpt lat="45.16437" lon="5.94619">
        <ele>2171.2</ele>
        <time>2021-02-20T10:07:27Z</time>
      </trkpt>
      <trkpt lat="45.16438" lon="5.94619">
        <ele>2171.2</ele>
        <time>2021-02-20T10:07:28Z</time>
      </trkpt>
      <trkpt lat="45.16438" lon="5.94619">
        <ele>2171.2</ele>
        <time>2021-02-20T10:07:29Z</time>
      </trkpt>
      <trkpt lat="45.16438" lon="5.94619">
        <ele>2171.2</ele>
        <time>2021-02-20T10:07:30Z</time>
      </trkpt>
      <trkpt lat="45.16438" lon="5.94619">
        <ele>2171.2</ele>
        <time>2021-02-20T10:07:31Z</time>
      </trkpt>
      <trkpt lat="45.16438" lon="5.94619">
        <ele>2171.2</ele>
        <time>2021-02-20T10:07:32Z</time>
      </trkpt>
      <trkpt lat="45.16439" lon="5.94619">
        <ele>2171.2</ele>
        <time>2021-02-20T10:07:33Z</time>
      </trkpt>
      <trkpt lat="45.16439" lon="5.94619">
        <ele>2171.2</ele>
        <time>2021-02-20T10:07:34Z</time>
      </trkpt>
      <trkpt lat="45.16439" lon="5.94619">
        <ele>2171.2</ele>
        <time>2021-02-20T10:07:35Z</time>
      </trkpt>
      <trkpt lat="45.1644" lon="5.9462">
        <ele>2171.2</ele>
        <time>2021-02-20T10:07:36Z</time>
      </trkpt>
      <trkpt lat="45.16441" lon="5.9462">
        <ele>2171.5</ele>
        <time>2021-02-20T10:07:37Z</time>
      </trkpt>
      <trkpt lat="45.16441" lon="5.94621">
        <ele>2171.5</ele>
        <time>2021-02-20T10:07:38Z</time>
      </trkpt>
      <trkpt lat="45.16442" lon="5.94621">
        <ele>2171.5</ele>
        <time>2021-02-20T10:07:39Z</time>
      </trkpt>
      <trkpt lat="45.16442" lon="5.94621">
        <ele>2171.5</ele>
        <time>2021-02-20T10:07:40Z</time>
      </trkpt>
      <trkpt lat="45.16443" lon="5.94622">
        <ele>2171.5</ele>
        <time>2021-02-20T10:07:41Z</time>
      </trkpt>
      <trkpt lat="45.16443" lon="5.94623">
        <ele>2172.7</ele>
        <time>2021-02-20T10:07:42Z</time>
      </trkpt>
      <trkpt lat="45.16443" lon="5.94624">
        <ele>2172.7</ele>
        <time>2021-02-20T10:07:43Z</time>
      </trkpt>
      <trkpt lat="45.16443" lon="5.94625">
        <ele>2172.7</ele>
        <time>2021-02-20T10:07:44Z</time>
      </trkpt>
      <trkpt lat="45.16443" lon="5.94625">
        <ele>2172.7</ele>
        <time>2021-02-20T10:07:45Z</time>
      </trkpt>
      <trkpt lat="45.16444" lon="5.94626">
        <ele>2172.7</ele>
        <time>2021-02-20T10:07:46Z</time>
      </trkpt>
      <trkpt lat="45.16444" lon="5.94627">
        <ele>2173.5</ele>
        <time>2021-02-20T10:07:47Z</time>
      </trkpt>
      <trkpt lat="45.16445" lon="5.94628">
        <ele>2173.5</ele>
        <time>2021-02-20T10:07:48Z</time>
      </trkpt>
      <trkpt lat="45.16445" lon="5.94628">
        <ele>2173.5</ele>
        <time>2021-02-20T10:07:49Z</time>
      </trkpt>
      <trkpt lat="45.16446" lon="5.9463">
        <ele>2173.5</ele>
        <time>2021-02-20T10:07:50Z</time>
      </trkpt>
      <trkpt lat="45.16447" lon="5.9463">
        <ele>2174</ele>
        <time>2021-02-20T10:07:51Z</time>
      </trkpt>
      <trkpt lat="45.16447" lon="5.94631">
        <ele>2174.8</ele>
        <time>2021-02-20T10:07:52Z</time>
      </trkpt>
      <trkpt lat="45.16447" lon="5.94632">
        <ele>2174.8</ele>
        <time>2021-02-20T10:07:53Z</time>
      </trkpt>
      <trkpt lat="45.16447" lon="5.94633">
        <ele>2174.8</ele>
        <time>2021-02-20T10:07:54Z</time>
      </trkpt>
      <trkpt lat="45.16448" lon="5.94634">
        <ele>2174.8</ele>
        <time>2021-02-20T10:07:55Z</time>
      </trkpt>
      <trkpt lat="45.16448" lon="5.94635">
        <ele>2174.8</ele>
        <time>2021-02-20T10:07:56Z</time>
      </trkpt>
      <trkpt lat="45.16449" lon="5.94636">
        <ele>2175.6</ele>
        <time>2021-02-20T10:07:57Z</time>
      </trkpt>
      <trkpt lat="45.16449" lon="5.94637">
        <ele>2176.1</ele>
        <time>2021-02-20T10:07:58Z</time>
      </trkpt>
      <trkpt lat="45.1645" lon="5.94638">
        <ele>2176.1</ele>
        <time>2021-02-20T10:07:59Z</time>
      </trkpt>
      <trkpt lat="45.16451" lon="5.94639">
        <ele>2176.1</ele>
        <time>2021-02-20T10:08:00Z</time>
      </trkpt>
      <trkpt lat="45.16452" lon="5.94639">
        <ele>2176.1</ele>
        <time>2021-02-20T10:08:01Z</time>
      </trkpt>
      <trkpt lat="45.16452" lon="5.9464">
        <ele>2177.3</ele>
        <time>2021-02-20T10:08:02Z</time>
      </trkpt>
      <trkpt lat="45.16453" lon="5.94641">
        <ele>2177.3</ele>
        <time>2021-02-20T10:08:03Z</time>
      </trkpt>
      <trkpt lat="45.16454" lon="5.94641">
        <ele>2177.3</ele>
        <time>2021-02-20T10:08:04Z</time>
      </trkpt>
      <trkpt lat="45.16455" lon="5.94641">
        <ele>2177.3</ele>
        <time>2021-02-20T10:08:05Z</time>
      </trkpt>
      <trkpt lat="45.16455" lon="5.94642">
        <ele>2177.8</ele>
        <time>2021-02-20T10:08:06Z</time>
      </trkpt>
      <trkpt lat="45.16456" lon="5.94642">
        <ele>2177.8</ele>
        <time>2021-02-20T10:08:07Z</time>
      </trkpt>
      <trkpt lat="45.16457" lon="5.94643">
        <ele>2177.8</ele>
        <time>2021-02-20T10:08:08Z</time>
      </trkpt>
      <trkpt lat="45.16458" lon="5.94644">
        <ele>2178.5</ele>
        <time>2021-02-20T10:08:09Z</time>
      </trkpt>
      <trkpt lat="45.16458" lon="5.94644">
        <ele>2178.9</ele>
        <time>2021-02-20T10:08:10Z</time>
      </trkpt>
      <trkpt lat="45.16459" lon="5.94644">
        <ele>2178.9</ele>
        <time>2021-02-20T10:08:11Z</time>
      </trkpt>
      <trkpt lat="45.1646" lon="5.94645">
        <ele>2178.9</ele>
        <time>2021-02-20T10:08:12Z</time>
      </trkpt>
      <trkpt lat="45.16461" lon="5.94644">
        <ele>2178.9</ele>
        <time>2021-02-20T10:08:13Z</time>
      </trkpt>
      <trkpt lat="45.16461" lon="5.94644">
        <ele>2179.3</ele>
        <time>2021-02-20T10:08:14Z</time>
      </trkpt>
      <trkpt lat="45.16462" lon="5.94644">
        <ele>2179.3</ele>
        <time>2021-02-20T10:08:15Z</time>
      </trkpt>
      <trkpt lat="45.16463" lon="5.94644">
        <ele>2179.3</ele>
        <time>2021-02-20T10:08:16Z</time>
      </trkpt>
      <trkpt lat="45.16463" lon="5.94644">
        <ele>2179.3</ele>
        <time>2021-02-20T10:08:17Z</time>
      </trkpt>
      <trkpt lat="45.16464" lon="5.94644">
        <ele>2179.3</ele>
        <time>2021-02-20T10:08:18Z</time>
      </trkpt>
      <trkpt lat="45.16465" lon="5.94645">
        <ele>2179.8</ele>
        <time>2021-02-20T10:08:19Z</time>
      </trkpt>
      <trkpt lat="45.16465" lon="5.94645">
        <ele>2179.8</ele>
        <time>2021-02-20T10:08:20Z</time>
      </trkpt>
      <trkpt lat="45.16466" lon="5.94645">
        <ele>2179.8</ele>
        <time>2021-02-20T10:08:21Z</time>
      </trkpt>
      <trkpt lat="45.16467" lon="5.94646">
        <ele>2179.8</ele>
        <time>2021-02-20T10:08:22Z</time>
      </trkpt>
      <trkpt lat="45.16468" lon="5.94646">
        <ele>2180.5</ele>
        <time>2021-02-20T10:08:23Z</time>
      </trkpt>
      <trkpt lat="45.16469" lon="5.94646">
        <ele>2180.5</ele>
        <time>2021-02-20T10:08:24Z</time>
      </trkpt>
      <trkpt lat="45.1647" lon="5.94646">
        <ele>2180.5</ele>
        <time>2021-02-20T10:08:25Z</time>
      </trkpt>
      <trkpt lat="45.16471" lon="5.94646">
        <ele>2181.2</ele>
        <time>2021-02-20T10:08:26Z</time>
      </trkpt>
      <trkpt lat="45.16472" lon="5.94647">
        <ele>2181.2</ele>
        <time>2021-02-20T10:08:27Z</time>
      </trkpt>
      <trkpt lat="45.16472" lon="5.94648">
        <ele>2181.7</ele>
        <time>2021-02-20T10:08:28Z</time>
      </trkpt>
      <trkpt lat="45.16473" lon="5.94649">
        <ele>2181.7</ele>
        <time>2021-02-20T10:08:29Z</time>
      </trkpt>
      <trkpt lat="45.16474" lon="5.94649">
        <ele>2182.5</ele>
        <time>2021-02-20T10:08:30Z</time>
      </trkpt>
      <trkpt lat="45.16475" lon="5.9465">
        <ele>2182.5</ele>
        <time>2021-02-20T10:08:31Z</time>
      </trkpt>
      <trkpt lat="45.16476" lon="5.9465">
        <ele>2182.5</ele>
        <time>2021-02-20T10:08:32Z</time>
      </trkpt>
      <trkpt lat="45.16477" lon="5.9465">
        <ele>2183.2</ele>
        <time>2021-02-20T10:08:33Z</time>
      </trkpt>
      <trkpt lat="45.16478" lon="5.9465">
        <ele>2183.2</ele>
        <time>2021-02-20T10:08:34Z</time>
      </trkpt>
      <trkpt lat="45.16479" lon="5.9465">
        <ele>2183.2</ele>
        <time>2021-02-20T10:08:35Z</time>
      </trkpt>
      <trkpt lat="45.1648" lon="5.94651">
        <ele>2184</ele>
        <time>2021-02-20T10:08:36Z</time>
      </trkpt>
      <trkpt lat="45.16481" lon="5.94651">
        <ele>2184</ele>
        <time>2021-02-20T10:08:37Z</time>
      </trkpt>
      <trkpt lat="45.16481" lon="5.9465">
        <ele>2184</ele>
        <time>2021-02-20T10:08:38Z</time>
      </trkpt>
      <trkpt lat="45.16481" lon="5.9465">
        <ele>2184</ele>
        <time>2021-02-20T10:08:39Z</time>
      </trkpt>
      <trkpt lat="45.16482" lon="5.9465">
        <ele>2184</ele>
        <time>2021-02-20T10:08:40Z</time>
      </trkpt>
      <trkpt lat="45.16483" lon="5.94651">
        <ele>2184.7</ele>
        <time>2021-02-20T10:08:41Z</time>
      </trkpt>
      <trkpt lat="45.16483" lon="5.94651">
        <ele>2184.7</ele>
        <time>2021-02-20T10:08:42Z</time>
      </trkpt>
      <trkpt lat="45.16484" lon="5.94651">
        <ele>2184.7</ele>
        <time>2021-02-20T10:08:43Z</time>
      </trkpt>
      <trkpt lat="45.16485" lon="5.94652">
        <ele>2184.7</ele>
        <time>2021-02-20T10:08:44Z</time>
      </trkpt>
      <trkpt lat="45.16485" lon="5.94652">
        <ele>2185.4</ele>
        <time>2021-02-20T10:08:45Z</time>
      </trkpt>
      <trkpt lat="45.16486" lon="5.94652">
        <ele>2185.4</ele>
        <time>2021-02-20T10:08:46Z</time>
      </trkpt>
      <trkpt lat="45.16487" lon="5.94652">
        <ele>2185.8</ele>
        <time>2021-02-20T10:08:47Z</time>
      </trkpt>
      <trkpt lat="45.16488" lon="5.94653">
        <ele>2185.8</ele>
        <time>2021-02-20T10:08:48Z</time>
      </trkpt>
      <trkpt lat="45.16489" lon="5.94654">
        <ele>2186.6</ele>
        <time>2021-02-20T10:08:49Z</time>
      </trkpt>
      <trkpt lat="45.16489" lon="5.94654">
        <ele>2186.6</ele>
        <time>2021-02-20T10:08:50Z</time>
      </trkpt>
      <trkpt lat="45.1649" lon="5.94654">
        <ele>2186.6</ele>
        <time>2021-02-20T10:08:51Z</time>
      </trkpt>
      <trkpt lat="45.16491" lon="5.94655">
        <ele>2186.6</ele>
        <time>2021-02-20T10:08:52Z</time>
      </trkpt>
      <trkpt lat="45.16492" lon="5.94655">
        <ele>2187.4</ele>
        <time>2021-02-20T10:08:53Z</time>
      </trkpt>
      <trkpt lat="45.16492" lon="5.94655">
        <ele>2187.4</ele>
        <time>2021-02-20T10:08:54Z</time>
      </trkpt>
      <trkpt lat="45.16493" lon="5.94656">
        <ele>2187.4</ele>
        <time>2021-02-20T10:08:55Z</time>
      </trkpt>
      <trkpt lat="45.16494" lon="5.94657">
        <ele>2187.9</ele>
        <time>2021-02-20T10:08:56Z</time>
      </trkpt>
      <trkpt lat="45.16494" lon="5.94658">
        <ele>2187.9</ele>
        <time>2021-02-20T10:08:57Z</time>
      </trkpt>
      <trkpt lat="45.16494" lon="5.94658">
        <ele>2187.9</ele>
        <time>2021-02-20T10:08:58Z</time>
      </trkpt>
      <trkpt lat="45.16495" lon="5.94659">
        <ele>2188.8</ele>
        <time>2021-02-20T10:08:59Z</time>
      </trkpt>
      <trkpt lat="45.16495" lon="5.94659">
        <ele>2188.8</ele>
        <time>2021-02-20T10:09:00Z</time>
      </trkpt>
      <trkpt lat="45.16495" lon="5.9466">
        <ele>2188.8</ele>
        <time>2021-02-20T10:09:01Z</time>
      </trkpt>
      <trkpt lat="45.16495" lon="5.9466">
        <ele>2188.8</ele>
        <time>2021-02-20T10:09:02Z</time>
      </trkpt>
      <trkpt lat="45.16496" lon="5.9466">
        <ele>2188.8</ele>
        <time>2021-02-20T10:09:03Z</time>
      </trkpt>
      <trkpt lat="45.16496" lon="5.94661">
        <ele>2189.3</ele>
        <time>2021-02-20T10:09:04Z</time>
      </trkpt>
      <trkpt lat="45.16496" lon="5.94662">
        <ele>2189.3</ele>
        <time>2021-02-20T10:09:05Z</time>
      </trkpt>
      <trkpt lat="45.16496" lon="5.94664">
        <ele>2189.3</ele>
        <time>2021-02-20T10:09:06Z</time>
      </trkpt>
      <trkpt lat="45.16496" lon="5.94665">
        <ele>2189.3</ele>
        <time>2021-02-20T10:09:07Z</time>
      </trkpt>
      <trkpt lat="45.16496" lon="5.94666">
        <ele>2189.9</ele>
        <time>2021-02-20T10:09:08Z</time>
      </trkpt>
      <trkpt lat="45.16496" lon="5.94666">
        <ele>2189.9</ele>
        <time>2021-02-20T10:09:09Z</time>
      </trkpt>
      <trkpt lat="45.16497" lon="5.94668">
        <ele>2189.9</ele>
        <time>2021-02-20T10:09:10Z</time>
      </trkpt>
      <trkpt lat="45.16497" lon="5.94669">
        <ele>2189.9</ele>
        <time>2021-02-20T10:09:11Z</time>
      </trkpt>
      <trkpt lat="45.16498" lon="5.9467">
        <ele>2191.4</ele>
        <time>2021-02-20T10:09:12Z</time>
      </trkpt>
      <trkpt lat="45.16498" lon="5.94671">
        <ele>2191.4</ele>
        <time>2021-02-20T10:09:13Z</time>
      </trkpt>
      <trkpt lat="45.16499" lon="5.94673">
        <ele>2191.4</ele>
        <time>2021-02-20T10:09:14Z</time>
      </trkpt>
      <trkpt lat="45.16499" lon="5.94674">
        <ele>2191.9</ele>
        <time>2021-02-20T10:09:15Z</time>
      </trkpt>
      <trkpt lat="45.165" lon="5.94675">
        <ele>2191.9</ele>
        <time>2021-02-20T10:09:16Z</time>
      </trkpt>
      <trkpt lat="45.165" lon="5.94677">
        <ele>2191.9</ele>
        <time>2021-02-20T10:09:17Z</time>
      </trkpt>
      <trkpt lat="45.16501" lon="5.94678">
        <ele>2193.4</ele>
        <time>2021-02-20T10:09:18Z</time>
      </trkpt>
      <trkpt lat="45.16501" lon="5.94679">
        <ele>2193.4</ele>
        <time>2021-02-20T10:09:19Z</time>
      </trkpt>
      <trkpt lat="45.16501" lon="5.9468">
        <ele>2193.4</ele>
        <time>2021-02-20T10:09:20Z</time>
      </trkpt>
      <trkpt lat="45.16502" lon="5.9468">
        <ele>2193.4</ele>
        <time>2021-02-20T10:09:21Z</time>
      </trkpt>
      <trkpt lat="45.16502" lon="5.94681">
        <ele>2193.4</ele>
        <time>2021-02-20T10:09:22Z</time>
      </trkpt>
      <trkpt lat="45.16503" lon="5.94681">
        <ele>2193.4</ele>
        <time>2021-02-20T10:09:23Z</time>
      </trkpt>
      <trkpt lat="45.16503" lon="5.94681">
        <ele>2193.4</ele>
        <time>2021-02-20T10:09:24Z</time>
      </trkpt>
      <trkpt lat="45.16504" lon="5.94682">
        <ele>2194.4</ele>
        <time>2021-02-20T10:09:25Z</time>
      </trkpt>
      <trkpt lat="45.16504" lon="5.94682">
        <ele>2194.4</ele>
        <time>2021-02-20T10:09:26Z</time>
      </trkpt>
      <trkpt lat="45.16505" lon="5.94682">
        <ele>2194.8</ele>
        <time>2021-02-20T10:09:27Z</time>
      </trkpt>
      <trkpt lat="45.16506" lon="5.94683">
        <ele>2194.8</ele>
        <time>2021-02-20T10:09:28Z</time>
      </trkpt>
      <trkpt lat="45.16506" lon="5.94683">
        <ele>2194.8</ele>
        <time>2021-02-20T10:09:29Z</time>
      </trkpt>
      <trkpt lat="45.16506" lon="5.94684">
        <ele>2194.8</ele>
        <time>2021-02-20T10:09:30Z</time>
      </trkpt>
      <trkpt lat="45.16507" lon="5.94684">
        <ele>2195.7</ele>
        <time>2021-02-20T10:09:31Z</time>
      </trkpt>
      <trkpt lat="45.16508" lon="5.94684">
        <ele>2195.7</ele>
        <time>2021-02-20T10:09:32Z</time>
      </trkpt>
      <trkpt lat="45.16508" lon="5.94685">
        <ele>2195.7</ele>
        <time>2021-02-20T10:09:33Z</time>
      </trkpt>
      <trkpt lat="45.16509" lon="5.94685">
        <ele>2195.7</ele>
        <time>2021-02-20T10:09:34Z</time>
      </trkpt>
      <trkpt lat="45.16509" lon="5.94686">
        <ele>2195.7</ele>
        <time>2021-02-20T10:09:35Z</time>
      </trkpt>
      <trkpt lat="45.1651" lon="5.94686">
        <ele>2196.6</ele>
        <time>2021-02-20T10:09:36Z</time>
      </trkpt>
      <trkpt lat="45.16511" lon="5.94687">
        <ele>2197</ele>
        <time>2021-02-20T10:09:37Z</time>
      </trkpt>
      <trkpt lat="45.16511" lon="5.94688">
        <ele>2197</ele>
        <time>2021-02-20T10:09:38Z</time>
      </trkpt>
      <trkpt lat="45.16512" lon="5.94688">
        <ele>2197</ele>
        <time>2021-02-20T10:09:39Z</time>
      </trkpt>
      <trkpt lat="45.16513" lon="5.94688">
        <ele>2197</ele>
        <time>2021-02-20T10:09:40Z</time>
      </trkpt>
      <trkpt lat="45.16513" lon="5.94689">
        <ele>2197.9</ele>
        <time>2021-02-20T10:09:41Z</time>
      </trkpt>
      <trkpt lat="45.16514" lon="5.9469">
        <ele>2197.9</ele>
        <time>2021-02-20T10:09:42Z</time>
      </trkpt>
      <trkpt lat="45.16515" lon="5.9469">
        <ele>2197.9</ele>
        <time>2021-02-20T10:09:43Z</time>
      </trkpt>
      <trkpt lat="45.16516" lon="5.94691">
        <ele>2199.1</ele>
        <time>2021-02-20T10:09:44Z</time>
      </trkpt>
      <trkpt lat="45.16517" lon="5.94691">
        <ele>2199.1</ele>
        <time>2021-02-20T10:09:45Z</time>
      </trkpt>
      <trkpt lat="45.16518" lon="5.94692">
        <ele>2199.1</ele>
        <time>2021-02-20T10:09:46Z</time>
      </trkpt>
      <trkpt lat="45.16519" lon="5.94692">
        <ele>2200.1</ele>
        <time>2021-02-20T10:09:47Z</time>
      </trkpt>
      <trkpt lat="45.1652" lon="5.94693">
        <ele>2200.1</ele>
        <time>2021-02-20T10:09:48Z</time>
      </trkpt>
      <trkpt lat="45.16521" lon="5.94695">
        <ele>2200.1</ele>
        <time>2021-02-20T10:09:49Z</time>
      </trkpt>
      <trkpt lat="45.16524" lon="5.94698">
        <ele>2201.4</ele>
        <time>2021-02-20T10:09:50Z</time>
      </trkpt>
      <trkpt lat="45.16527" lon="5.94701">
        <ele>2202.8</ele>
        <time>2021-02-20T10:09:51Z</time>
      </trkpt>
      <trkpt lat="45.1653" lon="5.94704">
        <ele>2204.2</ele>
        <time>2021-02-20T10:09:52Z</time>
      </trkpt>
      <trkpt lat="45.16532" lon="5.94707">
        <ele>2205.4</ele>
        <time>2021-02-20T10:09:53Z</time>
      </trkpt>
      <trkpt lat="45.16534" lon="5.94708">
        <ele>2206.8</ele>
        <time>2021-02-20T10:09:54Z</time>
      </trkpt>
      <trkpt lat="45.16535" lon="5.94709">
        <ele>2206.8</ele>
        <time>2021-02-20T10:09:55Z</time>
      </trkpt>
      <trkpt lat="45.16535" lon="5.9471">
        <ele>2206.8</ele>
        <time>2021-02-20T10:09:56Z</time>
      </trkpt>
      <trkpt lat="45.16536" lon="5.94711">
        <ele>2206.8</ele>
        <time>2021-02-20T10:09:57Z</time>
      </trkpt>
      <trkpt lat="45.16537" lon="5.94712">
        <ele>2206.8</ele>
        <time>2021-02-20T10:09:58Z</time>
      </trkpt>
      <trkpt lat="45.16537" lon="5.94714">
        <ele>2208.2</ele>
        <time>2021-02-20T10:09:59Z</time>
      </trkpt>
      <trkpt lat="45.16538" lon="5.94715">
        <ele>2208.2</ele>
        <time>2021-02-20T10:10:00Z</time>
      </trkpt>
      <trkpt lat="45.16537" lon="5.94716">
        <ele>2208.2</ele>
        <time>2021-02-20T10:10:01Z</time>
      </trkpt>
      <trkpt lat="45.16537" lon="5.94717">
        <ele>2208.5</ele>
        <time>2021-02-20T10:10:02Z</time>
      </trkpt>
      <trkpt lat="45.16537" lon="5.94718">
        <ele>2208.5</ele>
        <time>2021-02-20T10:10:03Z</time>
      </trkpt>
      <trkpt lat="45.16537" lon="5.94719">
        <ele>2208.5</ele>
        <time>2021-02-20T10:10:04Z</time>
      </trkpt>
      <trkpt lat="45.16537" lon="5.9472">
        <ele>2207.4</ele>
        <time>2021-02-20T10:10:05Z</time>
      </trkpt>
      <trkpt lat="45.16537" lon="5.94722">
        <ele>2208.8</ele>
        <time>2021-02-20T10:10:06Z</time>
      </trkpt>
      <trkpt lat="45.16537" lon="5.94723">
        <ele>2208.8</ele>
        <time>2021-02-20T10:10:07Z</time>
      </trkpt>
      <trkpt lat="45.16537" lon="5.94725">
        <ele>2208.8</ele>
        <time>2021-02-20T10:10:08Z</time>
      </trkpt>
      <trkpt lat="45.16537" lon="5.94726">
        <ele>2209.1</ele>
        <time>2021-02-20T10:10:09Z</time>
      </trkpt>
      <trkpt lat="45.16537" lon="5.94727">
        <ele>2209.1</ele>
        <time>2021-02-20T10:10:10Z</time>
      </trkpt>
      <trkpt lat="45.16537" lon="5.94728">
        <ele>2209.1</ele>
        <time>2021-02-20T10:10:11Z</time>
      </trkpt>
      <trkpt lat="45.16538" lon="5.94729">
        <ele>2209.1</ele>
        <time>2021-02-20T10:10:12Z</time>
      </trkpt>
      <trkpt lat="45.16538" lon="5.9473">
        <ele>2209.4</ele>
        <time>2021-02-20T10:10:13Z</time>
      </trkpt>
      <trkpt lat="45.16538" lon="5.94731">
        <ele>2209.4</ele>
        <time>2021-02-20T10:10:14Z</time>
      </trkpt>
      <trkpt lat="45.16538" lon="5.94732">
        <ele>2209.4</ele>
        <time>2021-02-20T10:10:15Z</time>
      </trkpt>
      <trkpt lat="45.16538" lon="5.94733">
        <ele>2209.4</ele>
        <time>2021-02-20T10:10:16Z</time>
      </trkpt>
      <trkpt lat="45.16538" lon="5.94733">
        <ele>2209.4</ele>
        <time>2021-02-20T10:10:17Z</time>
      </trkpt>
      <trkpt lat="45.16538" lon="5.94734">
        <ele>2209.4</ele>
        <time>2021-02-20T10:10:18Z</time>
      </trkpt>
      <trkpt lat="45.16538" lon="5.94734">
        <ele>2209.6</ele>
        <time>2021-02-20T10:10:19Z</time>
      </trkpt>
      <trkpt lat="45.16539" lon="5.94735">
        <ele>2209.6</ele>
        <time>2021-02-20T10:10:20Z</time>
      </trkpt>
      <trkpt lat="45.16539" lon="5.94736">
        <ele>2209.6</ele>
        <time>2021-02-20T10:10:21Z</time>
      </trkpt>
      <trkpt lat="45.16539" lon="5.94737">
        <ele>2209.6</ele>
        <time>2021-02-20T10:10:22Z</time>
      </trkpt>
      <trkpt lat="45.16539" lon="5.94738">
        <ele>2209.6</ele>
        <time>2021-02-20T10:10:23Z</time>
      </trkpt>
      <trkpt lat="45.16539" lon="5.94739">
        <ele>2209.9</ele>
        <time>2021-02-20T10:10:24Z</time>
      </trkpt>
      <trkpt lat="45.16539" lon="5.9474">
        <ele>2209.9</ele>
        <time>2021-02-20T10:10:25Z</time>
      </trkpt>
      <trkpt lat="45.1654" lon="5.94742">
        <ele>2209.9</ele>
        <time>2021-02-20T10:10:26Z</time>
      </trkpt>
      <trkpt lat="45.1654" lon="5.94743">
        <ele>2211.1</ele>
        <time>2021-02-20T10:10:27Z</time>
      </trkpt>
      <trkpt lat="45.1654" lon="5.94744">
        <ele>2211.1</ele>
        <time>2021-02-20T10:10:28Z</time>
      </trkpt>
      <trkpt lat="45.16541" lon="5.94746">
        <ele>2211.1</ele>
        <time>2021-02-20T10:10:29Z</time>
      </trkpt>
      <trkpt lat="45.16541" lon="5.94748">
        <ele>2211.4</ele>
        <time>2021-02-20T10:10:30Z</time>
      </trkpt>
      <trkpt lat="45.16542" lon="5.94749">
        <ele>2211.4</ele>
        <time>2021-02-20T10:10:31Z</time>
      </trkpt>
      <trkpt lat="45.16542" lon="5.94749">
        <ele>2211.4</ele>
        <time>2021-02-20T10:10:32Z</time>
      </trkpt>
      <trkpt lat="45.16543" lon="5.9475">
        <ele>2212.3</ele>
        <time>2021-02-20T10:10:33Z</time>
      </trkpt>
      <trkpt lat="45.16544" lon="5.9475">
        <ele>2212.3</ele>
        <time>2021-02-20T10:10:34Z</time>
      </trkpt>
      <trkpt lat="45.16544" lon="5.94751">
        <ele>2212.3</ele>
        <time>2021-02-20T10:10:35Z</time>
      </trkpt>
      <trkpt lat="45.16545" lon="5.94751">
        <ele>2212.6</ele>
        <time>2021-02-20T10:10:36Z</time>
      </trkpt>
      <trkpt lat="45.16546" lon="5.94752">
        <ele>2213.4</ele>
        <time>2021-02-20T10:10:37Z</time>
      </trkpt>
      <trkpt lat="45.16546" lon="5.94753">
        <ele>2213.4</ele>
        <time>2021-02-20T10:10:38Z</time>
      </trkpt>
      <trkpt lat="45.16547" lon="5.94753">
        <ele>2213.4</ele>
        <time>2021-02-20T10:10:39Z</time>
      </trkpt>
      <trkpt lat="45.16548" lon="5.94754">
        <ele>2213.4</ele>
        <time>2021-02-20T10:10:40Z</time>
      </trkpt>
      <trkpt lat="45.16548" lon="5.94755">
        <ele>2213.4</ele>
        <time>2021-02-20T10:10:41Z</time>
      </trkpt>
      <trkpt lat="45.16548" lon="5.94755">
        <ele>2213.4</ele>
        <time>2021-02-20T10:10:42Z</time>
      </trkpt>
      <trkpt lat="45.16549" lon="5.94755">
        <ele>2213.8</ele>
        <time>2021-02-20T10:10:43Z</time>
      </trkpt>
      <trkpt lat="45.1655" lon="5.94756">
        <ele>2214.7</ele>
        <time>2021-02-20T10:10:44Z</time>
      </trkpt>
      <trkpt lat="45.1655" lon="5.94756">
        <ele>2214.7</ele>
        <time>2021-02-20T10:10:45Z</time>
      </trkpt>
      <trkpt lat="45.16551" lon="5.94756">
        <ele>2214.7</ele>
        <time>2021-02-20T10:10:46Z</time>
      </trkpt>
      <trkpt lat="45.16552" lon="5.94757">
        <ele>2214.7</ele>
        <time>2021-02-20T10:10:47Z</time>
      </trkpt>
      <trkpt lat="45.16553" lon="5.94757">
        <ele>2215.6</ele>
        <time>2021-02-20T10:10:48Z</time>
      </trkpt>
      <trkpt lat="45.16553" lon="5.94758">
        <ele>2215.6</ele>
        <time>2021-02-20T10:10:49Z</time>
      </trkpt>
      <trkpt lat="45.16554" lon="5.94758">
        <ele>2215.6</ele>
        <time>2021-02-20T10:10:50Z</time>
      </trkpt>
      <trkpt lat="45.16555" lon="5.94758">
        <ele>2215.6</ele>
        <time>2021-02-20T10:10:51Z</time>
      </trkpt>
      <trkpt lat="45.16555" lon="5.94758">
        <ele>2216.7</ele>
        <time>2021-02-20T10:10:52Z</time>
      </trkpt>
      <trkpt lat="45.16556" lon="5.94758">
        <ele>2216.7</ele>
        <time>2021-02-20T10:10:53Z</time>
      </trkpt>
      <trkpt lat="45.16556" lon="5.94758">
        <ele>2216.7</ele>
        <time>2021-02-20T10:10:54Z</time>
      </trkpt>
      <trkpt lat="45.16557" lon="5.94759">
        <ele>2216.7</ele>
        <time>2021-02-20T10:10:55Z</time>
      </trkpt>
      <trkpt lat="45.16557" lon="5.9476">
        <ele>2217</ele>
        <time>2021-02-20T10:10:56Z</time>
      </trkpt>
      <trkpt lat="45.16558" lon="5.9476">
        <ele>2218.1</ele>
        <time>2021-02-20T10:10:57Z</time>
      </trkpt>
      <trkpt lat="45.16559" lon="5.9476">
        <ele>2218.1</ele>
        <time>2021-02-20T10:10:58Z</time>
      </trkpt>
      <trkpt lat="45.16559" lon="5.9476">
        <ele>2218.1</ele>
        <time>2021-02-20T10:10:59Z</time>
      </trkpt>
      <trkpt lat="45.1656" lon="5.94761">
        <ele>2218.1</ele>
        <time>2021-02-20T10:11:00Z</time>
      </trkpt>
      <trkpt lat="45.16561" lon="5.94761">
        <ele>2218.1</ele>
        <time>2021-02-20T10:11:01Z</time>
      </trkpt>
      <trkpt lat="45.16561" lon="5.94761">
        <ele>2219.2</ele>
        <time>2021-02-20T10:11:02Z</time>
      </trkpt>
      <trkpt lat="45.16562" lon="5.94762">
        <ele>2219.2</ele>
        <time>2021-02-20T10:11:03Z</time>
      </trkpt>
      <trkpt lat="45.16563" lon="5.94762">
        <ele>2219.2</ele>
        <time>2021-02-20T10:11:04Z</time>
      </trkpt>
      <trkpt lat="45.16563" lon="5.94762">
        <ele>2219.2</ele>
        <time>2021-02-20T10:11:05Z</time>
      </trkpt>
      <trkpt lat="45.16563" lon="5.94762">
        <ele>2219.2</ele>
        <time>2021-02-20T10:11:06Z</time>
      </trkpt>
      <trkpt lat="45.16564" lon="5.94763">
        <ele>2219.2</ele>
        <time>2021-02-20T10:11:07Z</time>
      </trkpt>
      <trkpt lat="45.16564" lon="5.94763">
        <ele>2220.2</ele>
        <time>2021-02-20T10:11:08Z</time>
      </trkpt>
      <trkpt lat="45.16565" lon="5.94763">
        <ele>2220.2</ele>
        <time>2021-02-20T10:11:09Z</time>
      </trkpt>
      <trkpt lat="45.16565" lon="5.94763">
        <ele>2220.2</ele>
        <time>2021-02-20T10:11:10Z</time>
      </trkpt>
      <trkpt lat="45.16566" lon="5.94763">
        <ele>2220.2</ele>
        <time>2021-02-20T10:11:11Z</time>
      </trkpt>
      <trkpt lat="45.16566" lon="5.94764">
        <ele>2220.2</ele>
        <time>2021-02-20T10:11:12Z</time>
      </trkpt>
      <trkpt lat="45.16567" lon="5.94764">
        <ele>2220.5</ele>
        <time>2021-02-20T10:11:13Z</time>
      </trkpt>
      <trkpt lat="45.16567" lon="5.94765">
        <ele>2221.4</ele>
        <time>2021-02-20T10:11:14Z</time>
      </trkpt>
      <trkpt lat="45.16568" lon="5.94765">
        <ele>2221.4</ele>
        <time>2021-02-20T10:11:15Z</time>
      </trkpt>
      <trkpt lat="45.16568" lon="5.94766">
        <ele>2221.4</ele>
        <time>2021-02-20T10:11:16Z</time>
      </trkpt>
      <trkpt lat="45.16569" lon="5.94767">
        <ele>2221.4</ele>
        <time>2021-02-20T10:11:17Z</time>
      </trkpt>
      <trkpt lat="45.1657" lon="5.94768">
        <ele>2221.4</ele>
        <time>2021-02-20T10:11:18Z</time>
      </trkpt>
      <trkpt lat="45.1657" lon="5.94768">
        <ele>2222.4</ele>
        <time>2021-02-20T10:11:19Z</time>
      </trkpt>
      <trkpt lat="45.16571" lon="5.94769">
        <ele>2222.7</ele>
        <time>2021-02-20T10:11:20Z</time>
      </trkpt>
      <trkpt lat="45.16571" lon="5.94769">
        <ele>2222.7</ele>
        <time>2021-02-20T10:11:21Z</time>
      </trkpt>
      <trkpt lat="45.16571" lon="5.9477">
        <ele>2222.7</ele>
        <time>2021-02-20T10:11:22Z</time>
      </trkpt>
      <trkpt lat="45.16571" lon="5.94771">
        <ele>2222.7</ele>
        <time>2021-02-20T10:11:23Z</time>
      </trkpt>
      <trkpt lat="45.16572" lon="5.94772">
        <ele>2222.7</ele>
        <time>2021-02-20T10:11:24Z</time>
      </trkpt>
      <trkpt lat="45.16572" lon="5.94772">
        <ele>2222.7</ele>
        <time>2021-02-20T10:11:25Z</time>
      </trkpt>
      <trkpt lat="45.16572" lon="5.94772">
        <ele>2223</ele>
        <time>2021-02-20T10:11:26Z</time>
      </trkpt>
      <trkpt lat="45.16572" lon="5.94773">
        <ele>2223</ele>
        <time>2021-02-20T10:11:27Z</time>
      </trkpt>
      <trkpt lat="45.16572" lon="5.94774">
        <ele>2223</ele>
        <time>2021-02-20T10:11:28Z</time>
      </trkpt>
      <trkpt lat="45.16573" lon="5.94774">
        <ele>2223</ele>
        <time>2021-02-20T10:11:29Z</time>
      </trkpt>
      <trkpt lat="45.16573" lon="5.94775">
        <ele>2224</ele>
        <time>2021-02-20T10:11:30Z</time>
      </trkpt>
      <trkpt lat="45.16574" lon="5.94776">
        <ele>2224</ele>
        <time>2021-02-20T10:11:31Z</time>
      </trkpt>
      <trkpt lat="45.16574" lon="5.94777">
        <ele>2224.3</ele>
        <time>2021-02-20T10:11:32Z</time>
      </trkpt>
      <trkpt lat="45.16575" lon="5.94778">
        <ele>2224.3</ele>
        <time>2021-02-20T10:11:33Z</time>
      </trkpt>
      <trkpt lat="45.16576" lon="5.94779">
        <ele>2224.3</ele>
        <time>2021-02-20T10:11:34Z</time>
      </trkpt>
      <trkpt lat="45.16576" lon="5.94779">
        <ele>2225.4</ele>
        <time>2021-02-20T10:11:35Z</time>
      </trkpt>
      <trkpt lat="45.16576" lon="5.9478">
        <ele>2225.4</ele>
        <time>2021-02-20T10:11:36Z</time>
      </trkpt>
      <trkpt lat="45.16577" lon="5.94781">
        <ele>2225.4</ele>
        <time>2021-02-20T10:11:37Z</time>
      </trkpt>
      <trkpt lat="45.16577" lon="5.94782">
        <ele>2225.7</ele>
        <time>2021-02-20T10:11:38Z</time>
      </trkpt>
      <trkpt lat="45.16577" lon="5.94783">
        <ele>2225.7</ele>
        <time>2021-02-20T10:11:39Z</time>
      </trkpt>
      <trkpt lat="45.16577" lon="5.94784">
        <ele>2225.7</ele>
        <time>2021-02-20T10:11:40Z</time>
      </trkpt>
      <trkpt lat="45.16577" lon="5.94785">
        <ele>2225.7</ele>
        <time>2021-02-20T10:11:41Z</time>
      </trkpt>
      <trkpt lat="45.16577" lon="5.94786">
        <ele>2226</ele>
        <time>2021-02-20T10:11:42Z</time>
      </trkpt>
      <trkpt lat="45.16578" lon="5.94787">
        <ele>2226</ele>
        <time>2021-02-20T10:11:43Z</time>
      </trkpt>
      <trkpt lat="45.16578" lon="5.94788">
        <ele>2226</ele>
        <time>2021-02-20T10:11:44Z</time>
      </trkpt>
      <trkpt lat="45.16579" lon="5.94789">
        <ele>2226</ele>
        <time>2021-02-20T10:11:45Z</time>
      </trkpt>
      <trkpt lat="45.16579" lon="5.94789">
        <ele>2226</ele>
        <time>2021-02-20T10:11:46Z</time>
      </trkpt>
      <trkpt lat="45.16579" lon="5.94789">
        <ele>2227.2</ele>
        <time>2021-02-20T10:11:47Z</time>
      </trkpt>
      <trkpt lat="45.1658" lon="5.9479">
        <ele>2227.6</ele>
        <time>2021-02-20T10:11:48Z</time>
      </trkpt>
      <trkpt lat="45.1658" lon="5.9479">
        <ele>2227.6</ele>
        <time>2021-02-20T10:11:49Z</time>
      </trkpt>
      <trkpt lat="45.16581" lon="5.94791">
        <ele>2227.6</ele>
        <time>2021-02-20T10:11:50Z</time>
      </trkpt>
      <trkpt lat="45.16581" lon="5.94791">
        <ele>2227.6</ele>
        <time>2021-02-20T10:11:51Z</time>
      </trkpt>
      <trkpt lat="45.16581" lon="5.94791">
        <ele>2227.6</ele>
        <time>2021-02-20T10:11:52Z</time>
      </trkpt>
      <trkpt lat="45.16581" lon="5.94792">
        <ele>2227.6</ele>
        <time>2021-02-20T10:11:53Z</time>
      </trkpt>
      <trkpt lat="45.16582" lon="5.94793">
        <ele>2227.6</ele>
        <time>2021-02-20T10:11:54Z</time>
      </trkpt>
      <trkpt lat="45.16582" lon="5.94793">
        <ele>2227.6</ele>
        <time>2021-02-20T10:11:55Z</time>
      </trkpt>
      <trkpt lat="45.16582" lon="5.94793">
        <ele>2227.6</ele>
        <time>2021-02-20T10:11:56Z</time>
      </trkpt>
      <trkpt lat="45.16582" lon="5.94792">
        <ele>2228.9</ele>
        <time>2021-02-20T10:11:57Z</time>
      </trkpt>
      <trkpt lat="45.16583" lon="5.94791">
        <ele>2228.9</ele>
        <time>2021-02-20T10:11:58Z</time>
      </trkpt>
      <trkpt lat="45.16584" lon="5.9479">
        <ele>2228.9</ele>
        <time>2021-02-20T10:11:59Z</time>
      </trkpt>
      <trkpt lat="45.16584" lon="5.9479">
        <ele>2228.9</ele>
        <time>2021-02-20T10:12:00Z</time>
      </trkpt>
      <trkpt lat="45.16585" lon="5.94789">
        <ele>2228.5</ele>
        <time>2021-02-20T10:12:01Z</time>
      </trkpt>
      <trkpt lat="45.16586" lon="5.94788">
        <ele>2229.8</ele>
        <time>2021-02-20T10:12:02Z</time>
      </trkpt>
      <trkpt lat="45.16587" lon="5.94787">
        <ele>2229.8</ele>
        <time>2021-02-20T10:12:03Z</time>
      </trkpt>
      <trkpt lat="45.16587" lon="5.94787">
        <ele>2229.8</ele>
        <time>2021-02-20T10:12:04Z</time>
      </trkpt>
      <trkpt lat="45.16588" lon="5.94787">
        <ele>2229.8</ele>
        <time>2021-02-20T10:12:05Z</time>
      </trkpt>
      <trkpt lat="45.16589" lon="5.94786">
        <ele>2231</ele>
        <time>2021-02-20T10:12:06Z</time>
      </trkpt>
      <trkpt lat="45.16589" lon="5.94785">
        <ele>2231</ele>
        <time>2021-02-20T10:12:07Z</time>
      </trkpt>
      <trkpt lat="45.1659" lon="5.94784">
        <ele>2230.7</ele>
        <time>2021-02-20T10:12:08Z</time>
      </trkpt>
      <trkpt lat="45.1659" lon="5.94783">
        <ele>2230.7</ele>
        <time>2021-02-20T10:12:09Z</time>
      </trkpt>
      <trkpt lat="45.1659" lon="5.94783">
        <ele>2230.7</ele>
        <time>2021-02-20T10:12:10Z</time>
      </trkpt>
      <trkpt lat="45.16591" lon="5.94783">
        <ele>2230.7</ele>
        <time>2021-02-20T10:12:11Z</time>
      </trkpt>
      <trkpt lat="45.16591" lon="5.94782">
        <ele>2230.7</ele>
        <time>2021-02-20T10:12:12Z</time>
      </trkpt>
      <trkpt lat="45.16592" lon="5.94782">
        <ele>2231.8</ele>
        <time>2021-02-20T10:12:13Z</time>
      </trkpt>
      <trkpt lat="45.16592" lon="5.94781">
        <ele>2231.8</ele>
        <time>2021-02-20T10:12:14Z</time>
      </trkpt>
      <trkpt lat="45.16592" lon="5.94781">
        <ele>2231.5</ele>
        <time>2021-02-20T10:12:15Z</time>
      </trkpt>
      <trkpt lat="45.16593" lon="5.9478">
        <ele>2231.5</ele>
        <time>2021-02-20T10:12:16Z</time>
      </trkpt>
      <trkpt lat="45.16593" lon="5.94779">
        <ele>2231.5</ele>
        <time>2021-02-20T10:12:17Z</time>
      </trkpt>
      <trkpt lat="45.16594" lon="5.94779">
        <ele>2231.5</ele>
        <time>2021-02-20T10:12:18Z</time>
      </trkpt>
      <trkpt lat="45.16595" lon="5.94778">
        <ele>2232.6</ele>
        <time>2021-02-20T10:12:19Z</time>
      </trkpt>
      <trkpt lat="45.16596" lon="5.94777">
        <ele>2232.6</ele>
        <time>2021-02-20T10:12:20Z</time>
      </trkpt>
      <trkpt lat="45.16596" lon="5.94776">
        <ele>2232.3</ele>
        <time>2021-02-20T10:12:21Z</time>
      </trkpt>
      <trkpt lat="45.16596" lon="5.94775">
        <ele>2232.3</ele>
        <time>2021-02-20T10:12:22Z</time>
      </trkpt>
      <trkpt lat="45.16596" lon="5.94775">
        <ele>2232.3</ele>
        <time>2021-02-20T10:12:23Z</time>
      </trkpt>
      <trkpt lat="45.16596" lon="5.94774">
        <ele>2232.3</ele>
        <time>2021-02-20T10:12:24Z</time>
      </trkpt>
      <trkpt lat="45.16596" lon="5.94773">
        <ele>2232.3</ele>
        <time>2021-02-20T10:12:25Z</time>
      </trkpt>
      <trkpt lat="45.16596" lon="5.94773">
        <ele>2232.3</ele>
        <time>2021-02-20T10:12:26Z</time>
      </trkpt>
      <trkpt lat="45.16596" lon="5.94773">
        <ele>2232.3</ele>
        <time>2021-02-20T10:12:27Z</time>
      </trkpt>
      <trkpt lat="45.16596" lon="5.94772">
        <ele>2232.1</ele>
        <time>2021-02-20T10:12:28Z</time>
      </trkpt>
      <trkpt lat="45.16597" lon="5.94771">
        <ele>2232.1</ele>
        <time>2021-02-20T10:12:29Z</time>
      </trkpt>
      <trkpt lat="45.16597" lon="5.94769">
        <ele>2232.1</ele>
        <time>2021-02-20T10:12:30Z</time>
      </trkpt>
      <trkpt lat="45.16597" lon="5.94767">
        <ele>2232.9</ele>
        <time>2021-02-20T10:12:31Z</time>
      </trkpt>
      <trkpt lat="45.16598" lon="5.94765">
        <ele>2232.9</ele>
        <time>2021-02-20T10:12:32Z</time>
      </trkpt>
      <trkpt lat="45.16598" lon="5.94764">
        <ele>2232.9</ele>
        <time>2021-02-20T10:12:33Z</time>
      </trkpt>
      <trkpt lat="45.16599" lon="5.94763">
        <ele>2232.8</ele>
        <time>2021-02-20T10:12:34Z</time>
      </trkpt>
      <trkpt lat="45.16599" lon="5.94762">
        <ele>2232.8</ele>
        <time>2021-02-20T10:12:35Z</time>
      </trkpt>
      <trkpt lat="45.166" lon="5.9476">
        <ele>2232.8</ele>
        <time>2021-02-20T10:12:36Z</time>
      </trkpt>
      <trkpt lat="45.166" lon="5.94759">
        <ele>2232.6</ele>
        <time>2021-02-20T10:12:37Z</time>
      </trkpt>
      <trkpt lat="45.166" lon="5.94759">
        <ele>2232.6</ele>
        <time>2021-02-20T10:12:38Z</time>
      </trkpt>
      <trkpt lat="45.16601" lon="5.94758">
        <ele>2233.8</ele>
        <time>2021-02-20T10:12:39Z</time>
      </trkpt>
      <trkpt lat="45.16601" lon="5.94758">
        <ele>2233.8</ele>
        <time>2021-02-20T10:12:40Z</time>
      </trkpt>
      <trkpt lat="45.16601" lon="5.94757">
        <ele>2233.8</ele>
        <time>2021-02-20T10:12:41Z</time>
      </trkpt>
      <trkpt lat="45.16602" lon="5.94756">
        <ele>2233.8</ele>
        <time>2021-02-20T10:12:42Z</time>
      </trkpt>
      <trkpt lat="45.16603" lon="5.94756">
        <ele>2233.8</ele>
        <time>2021-02-20T10:12:43Z</time>
      </trkpt>
      <trkpt lat="45.16603" lon="5.94755">
        <ele>2234.8</ele>
        <time>2021-02-20T10:12:44Z</time>
      </trkpt>
      <trkpt lat="45.16604" lon="5.94754">
        <ele>2234.8</ele>
        <time>2021-02-20T10:12:45Z</time>
      </trkpt>
      <trkpt lat="45.16604" lon="5.94753">
        <ele>2234.8</ele>
        <time>2021-02-20T10:12:46Z</time>
      </trkpt>
      <trkpt lat="45.16604" lon="5.94751">
        <ele>2234.8</ele>
        <time>2021-02-20T10:12:47Z</time>
      </trkpt>
      <trkpt lat="45.16604" lon="5.94749">
        <ele>2234.8</ele>
        <time>2021-02-20T10:12:48Z</time>
      </trkpt>
      <trkpt lat="45.16605" lon="5.94748">
        <ele>2234.8</ele>
        <time>2021-02-20T10:12:49Z</time>
      </trkpt>
      <trkpt lat="45.16605" lon="5.94748">
        <ele>2234.8</ele>
        <time>2021-02-20T10:12:50Z</time>
      </trkpt>
      <trkpt lat="45.16605" lon="5.94748">
        <ele>2234.8</ele>
        <time>2021-02-20T10:12:51Z</time>
      </trkpt>
      <trkpt lat="45.16606" lon="5.94747">
        <ele>2234.8</ele>
        <time>2021-02-20T10:12:52Z</time>
      </trkpt>
      <trkpt lat="45.16606" lon="5.94747">
        <ele>2234.8</ele>
        <time>2021-02-20T10:12:53Z</time>
      </trkpt>
      <trkpt lat="45.16606" lon="5.94746">
        <ele>2234.8</ele>
        <time>2021-02-20T10:12:54Z</time>
      </trkpt>
      <trkpt lat="45.16607" lon="5.94745">
        <ele>2236</ele>
        <time>2021-02-20T10:12:55Z</time>
      </trkpt>
      <trkpt lat="45.16607" lon="5.94744">
        <ele>2236</ele>
        <time>2021-02-20T10:12:56Z</time>
      </trkpt>
      <trkpt lat="45.16608" lon="5.94743">
        <ele>2236</ele>
        <time>2021-02-20T10:12:57Z</time>
      </trkpt>
      <trkpt lat="45.16608" lon="5.94743">
        <ele>2236</ele>
        <time>2021-02-20T10:12:58Z</time>
      </trkpt>
      <trkpt lat="45.16609" lon="5.94743">
        <ele>2236</ele>
        <time>2021-02-20T10:12:59Z</time>
      </trkpt>
      <trkpt lat="45.16609" lon="5.94743">
        <ele>2236</ele>
        <time>2021-02-20T10:13:00Z</time>
      </trkpt>
      <trkpt lat="45.16609" lon="5.94743">
        <ele>2237.2</ele>
        <time>2021-02-20T10:13:01Z</time>
      </trkpt>
      <trkpt lat="45.1661" lon="5.94743">
        <ele>2237.2</ele>
        <time>2021-02-20T10:13:02Z</time>
      </trkpt>
      <trkpt lat="45.1661" lon="5.94742">
        <ele>2237.2</ele>
        <time>2021-02-20T10:13:03Z</time>
      </trkpt>
      <trkpt lat="45.1661" lon="5.94742">
        <ele>2237.2</ele>
        <time>2021-02-20T10:13:04Z</time>
      </trkpt>
      <trkpt lat="45.1661" lon="5.9474">
        <ele>2237.2</ele>
        <time>2021-02-20T10:13:05Z</time>
      </trkpt>
      <trkpt lat="45.1661" lon="5.94739">
        <ele>2237.2</ele>
        <time>2021-02-20T10:13:06Z</time>
      </trkpt>
      <trkpt lat="45.1661" lon="5.94737">
        <ele>2237.2</ele>
        <time>2021-02-20T10:13:07Z</time>
      </trkpt>
      <trkpt lat="45.1661" lon="5.94736">
        <ele>2237.2</ele>
        <time>2021-02-20T10:13:08Z</time>
      </trkpt>
      <trkpt lat="45.1661" lon="5.94735">
        <ele>2237.2</ele>
        <time>2021-02-20T10:13:09Z</time>
      </trkpt>
      <trkpt lat="45.1661" lon="5.94735">
        <ele>2237.2</ele>
        <time>2021-02-20T10:13:10Z</time>
      </trkpt>
      <trkpt lat="45.16609" lon="5.94734">
        <ele>2236</ele>
        <time>2021-02-20T10:13:11Z</time>
      </trkpt>
      <trkpt lat="45.16609" lon="5.94733">
        <ele>2236.1</ele>
        <time>2021-02-20T10:13:12Z</time>
      </trkpt>
      <trkpt lat="45.16608" lon="5.94732">
        <ele>2236.1</ele>
        <time>2021-02-20T10:13:13Z</time>
      </trkpt>
      <trkpt lat="45.16608" lon="5.94732">
        <ele>2236.1</ele>
        <time>2021-02-20T10:13:14Z</time>
      </trkpt>
      <trkpt lat="45.16608" lon="5.94732">
        <ele>2236.1</ele>
        <time>2021-02-20T10:13:15Z</time>
      </trkpt>
      <trkpt lat="45.16609" lon="5.94732">
        <ele>2236.1</ele>
        <time>2021-02-20T10:13:16Z</time>
      </trkpt>
      <trkpt lat="45.16609" lon="5.94732">
        <ele>2236.1</ele>
        <time>2021-02-20T10:13:17Z</time>
      </trkpt>
      <trkpt lat="45.16609" lon="5.94732">
        <ele>2236.1</ele>
        <time>2021-02-20T10:13:18Z</time>
      </trkpt>
      <trkpt lat="45.1661" lon="5.94732">
        <ele>2237.3</ele>
        <time>2021-02-20T10:13:19Z</time>
      </trkpt>
      <trkpt lat="45.1661" lon="5.94732">
        <ele>2237.3</ele>
        <time>2021-02-20T10:13:20Z</time>
      </trkpt>
      <trkpt lat="45.16611" lon="5.94733">
        <ele>2237.3</ele>
        <time>2021-02-20T10:13:21Z</time>
      </trkpt>
      <trkpt lat="45.16611" lon="5.94733">
        <ele>2237.3</ele>
        <time>2021-02-20T10:13:22Z</time>
      </trkpt>
      <trkpt lat="45.16611" lon="5.94733">
        <ele>2237.3</ele>
        <time>2021-02-20T10:13:23Z</time>
      </trkpt>
      <trkpt lat="45.16612" lon="5.94734">
        <ele>2237.2</ele>
        <time>2021-02-20T10:13:24Z</time>
      </trkpt>
      <trkpt lat="45.16613" lon="5.94734">
        <ele>2238.4</ele>
        <time>2021-02-20T10:13:25Z</time>
      </trkpt>
      <trkpt lat="45.16613" lon="5.94735">
        <ele>2238.4</ele>
        <time>2021-02-20T10:13:26Z</time>
      </trkpt>
      <trkpt lat="45.16614" lon="5.94735">
        <ele>2238.4</ele>
        <time>2021-02-20T10:13:27Z</time>
      </trkpt>
      <trkpt lat="45.16615" lon="5.94736">
        <ele>2238.4</ele>
        <time>2021-02-20T10:13:28Z</time>
      </trkpt>
      <trkpt lat="45.16615" lon="5.94736">
        <ele>2238.4</ele>
        <time>2021-02-20T10:13:29Z</time>
      </trkpt>
      <trkpt lat="45.16615" lon="5.94736">
        <ele>2238.4</ele>
        <time>2021-02-20T10:13:30Z</time>
      </trkpt>
      <trkpt lat="45.16616" lon="5.94737">
        <ele>2239.5</ele>
        <time>2021-02-20T10:13:31Z</time>
      </trkpt>
      <trkpt lat="45.16617" lon="5.94738">
        <ele>2239.5</ele>
        <time>2021-02-20T10:13:32Z</time>
      </trkpt>
      <trkpt lat="45.16618" lon="5.94738">
        <ele>2239.5</ele>
        <time>2021-02-20T10:13:33Z</time>
      </trkpt>
      <trkpt lat="45.16618" lon="5.94739">
        <ele>2239.5</ele>
        <time>2021-02-20T10:13:34Z</time>
      </trkpt>
      <trkpt lat="45.16619" lon="5.94739">
        <ele>2240.6</ele>
        <time>2021-02-20T10:13:35Z</time>
      </trkpt>
      <trkpt lat="45.16619" lon="5.9474">
        <ele>2240.6</ele>
        <time>2021-02-20T10:13:36Z</time>
      </trkpt>
      <trkpt lat="45.16619" lon="5.94741">
        <ele>2240.6</ele>
        <time>2021-02-20T10:13:37Z</time>
      </trkpt>
      <trkpt lat="45.1662" lon="5.94742">
        <ele>2240.6</ele>
        <time>2021-02-20T10:13:38Z</time>
      </trkpt>
      <trkpt lat="45.1662" lon="5.94743">
        <ele>2240.6</ele>
        <time>2021-02-20T10:13:39Z</time>
      </trkpt>
      <trkpt lat="45.16621" lon="5.94744">
        <ele>2240.6</ele>
        <time>2021-02-20T10:13:40Z</time>
      </trkpt>
      <trkpt lat="45.16622" lon="5.94745">
        <ele>2241.8</ele>
        <time>2021-02-20T10:13:41Z</time>
      </trkpt>
      <trkpt lat="45.16623" lon="5.94746">
        <ele>2241.8</ele>
        <time>2021-02-20T10:13:42Z</time>
      </trkpt>
      <trkpt lat="45.16623" lon="5.94746">
        <ele>2241.8</ele>
        <time>2021-02-20T10:13:43Z</time>
      </trkpt>
      <trkpt lat="45.16623" lon="5.94746">
        <ele>2241.8</ele>
        <time>2021-02-20T10:13:44Z</time>
      </trkpt>
      <trkpt lat="45.16623" lon="5.94746">
        <ele>2241.8</ele>
        <time>2021-02-20T10:13:45Z</time>
      </trkpt>
      <trkpt lat="45.16623" lon="5.94747">
        <ele>2241.8</ele>
        <time>2021-02-20T10:13:46Z</time>
      </trkpt>
      <trkpt lat="45.16623" lon="5.94747">
        <ele>2241.8</ele>
        <time>2021-02-20T10:13:47Z</time>
      </trkpt>
      <trkpt lat="45.16623" lon="5.94747">
        <ele>2241.8</ele>
        <time>2021-02-20T10:13:48Z</time>
      </trkpt>
      <trkpt lat="45.16623" lon="5.94746">
        <ele>2241.8</ele>
        <time>2021-02-20T10:13:49Z</time>
      </trkpt>
      <trkpt lat="45.16624" lon="5.94746">
        <ele>2241.8</ele>
        <time>2021-02-20T10:13:50Z</time>
      </trkpt>
      <trkpt lat="45.16625" lon="5.94744">
        <ele>2242.9</ele>
        <time>2021-02-20T10:13:51Z</time>
      </trkpt>
      <trkpt lat="45.16625" lon="5.94743">
        <ele>2242.9</ele>
        <time>2021-02-20T10:13:52Z</time>
      </trkpt>
      <trkpt lat="45.16625" lon="5.94742">
        <ele>2242.8</ele>
        <time>2021-02-20T10:13:53Z</time>
      </trkpt>
      <trkpt lat="45.16626" lon="5.94741">
        <ele>2242.8</ele>
        <time>2021-02-20T10:13:54Z</time>
      </trkpt>
      <trkpt lat="45.16626" lon="5.94739">
        <ele>2242.8</ele>
        <time>2021-02-20T10:13:55Z</time>
      </trkpt>
      <trkpt lat="45.16626" lon="5.94739">
        <ele>2242.8</ele>
        <time>2021-02-20T10:13:56Z</time>
      </trkpt>
      <trkpt lat="45.16626" lon="5.94739">
        <ele>2242.8</ele>
        <time>2021-02-20T10:13:57Z</time>
      </trkpt>
      <trkpt lat="45.16626" lon="5.94739">
        <ele>2242.8</ele>
        <time>2021-02-20T10:13:58Z</time>
      </trkpt>
      <trkpt lat="45.16626" lon="5.94738">
        <ele>2242.8</ele>
        <time>2021-02-20T10:13:59Z</time>
      </trkpt>
      <trkpt lat="45.16626" lon="5.94738">
        <ele>2242.8</ele>
        <time>2021-02-20T10:14:00Z</time>
      </trkpt>
      <trkpt lat="45.16626" lon="5.94738">
        <ele>2242.8</ele>
        <time>2021-02-20T10:14:01Z</time>
      </trkpt>
      <trkpt lat="45.16626" lon="5.94738">
        <ele>2242.8</ele>
        <time>2021-02-20T10:14:02Z</time>
      </trkpt>
      <trkpt lat="45.16626" lon="5.94738">
        <ele>2242.8</ele>
        <time>2021-02-20T10:14:03Z</time>
      </trkpt>
      <trkpt lat="45.16626" lon="5.94739">
        <ele>2242.8</ele>
        <time>2021-02-20T10:14:04Z</time>
      </trkpt>
      <trkpt lat="45.16626" lon="5.94739">
        <ele>2242.8</ele>
        <time>2021-02-20T10:14:05Z</time>
      </trkpt>
      <trkpt lat="45.16626" lon="5.9474">
        <ele>2242.8</ele>
        <time>2021-02-20T10:14:06Z</time>
      </trkpt>
      <trkpt lat="45.16626" lon="5.9474">
        <ele>2242.8</ele>
        <time>2021-02-20T10:14:07Z</time>
      </trkpt>
      <trkpt lat="45.16627" lon="5.94741">
        <ele>2242.8</ele>
        <time>2021-02-20T10:14:08Z</time>
      </trkpt>
      <trkpt lat="45.16627" lon="5.94742">
        <ele>2242.8</ele>
        <time>2021-02-20T10:14:09Z</time>
      </trkpt>
      <trkpt lat="45.16627" lon="5.94743">
        <ele>2242.9</ele>
        <time>2021-02-20T10:14:10Z</time>
      </trkpt>
      <trkpt lat="45.16628" lon="5.94743">
        <ele>2244</ele>
        <time>2021-02-20T10:14:11Z</time>
      </trkpt>
      <trkpt lat="45.16628" lon="5.94743">
        <ele>2244</ele>
        <time>2021-02-20T10:14:12Z</time>
      </trkpt>
      <trkpt lat="45.16629" lon="5.94744">
        <ele>2244</ele>
        <time>2021-02-20T10:14:13Z</time>
      </trkpt>
      <trkpt lat="45.16629" lon="5.94745">
        <ele>2244</ele>
        <time>2021-02-20T10:14:14Z</time>
      </trkpt>
      <trkpt lat="45.16629" lon="5.94745">
        <ele>2244</ele>
        <time>2021-02-20T10:14:15Z</time>
      </trkpt>
      <trkpt lat="45.1663" lon="5.94746">
        <ele>2244</ele>
        <time>2021-02-20T10:14:16Z</time>
      </trkpt>
      <trkpt lat="45.1663" lon="5.94747">
        <ele>2244.1</ele>
        <time>2021-02-20T10:14:17Z</time>
      </trkpt>
      <trkpt lat="45.1663" lon="5.94747">
        <ele>2244.1</ele>
        <time>2021-02-20T10:14:18Z</time>
      </trkpt>
      <trkpt lat="45.1663" lon="5.94748">
        <ele>2244.1</ele>
        <time>2021-02-20T10:14:19Z</time>
      </trkpt>
      <trkpt lat="45.1663" lon="5.94749">
        <ele>2244.1</ele>
        <time>2021-02-20T10:14:20Z</time>
      </trkpt>
      <trkpt lat="45.1663" lon="5.94749">
        <ele>2244.1</ele>
        <time>2021-02-20T10:14:21Z</time>
      </trkpt>
      <trkpt lat="45.1663" lon="5.9475">
        <ele>2244.1</ele>
        <time>2021-02-20T10:14:22Z</time>
      </trkpt>
      <trkpt lat="45.1663" lon="5.94751">
        <ele>2244.1</ele>
        <time>2021-02-20T10:14:23Z</time>
      </trkpt>
      <trkpt lat="45.1663" lon="5.94751">
        <ele>2244.3</ele>
        <time>2021-02-20T10:14:24Z</time>
      </trkpt>
      <trkpt lat="45.16631" lon="5.94752">
        <ele>2245.5</ele>
        <time>2021-02-20T10:14:25Z</time>
      </trkpt>
      <trkpt lat="45.16632" lon="5.94752">
        <ele>2245.5</ele>
        <time>2021-02-20T10:14:26Z</time>
      </trkpt>
      <trkpt lat="45.16632" lon="5.94753">
        <ele>2245.5</ele>
        <time>2021-02-20T10:14:27Z</time>
      </trkpt>
      <trkpt lat="45.16633" lon="5.94754">
        <ele>2245.5</ele>
        <time>2021-02-20T10:14:28Z</time>
      </trkpt>
      <trkpt lat="45.16633" lon="5.94754">
        <ele>2245.5</ele>
        <time>2021-02-20T10:14:29Z</time>
      </trkpt>
      <trkpt lat="45.16633" lon="5.94755">
        <ele>2245.5</ele>
        <time>2021-02-20T10:14:30Z</time>
      </trkpt>
      <trkpt lat="45.16632" lon="5.94755">
        <ele>2245.7</ele>
        <time>2021-02-20T10:14:31Z</time>
      </trkpt>
      <trkpt lat="45.16632" lon="5.94756">
        <ele>2245.7</ele>
        <time>2021-02-20T10:14:32Z</time>
      </trkpt>
      <trkpt lat="45.16631" lon="5.94757">
        <ele>2245.7</ele>
        <time>2021-02-20T10:14:33Z</time>
      </trkpt>
      <trkpt lat="45.1663" lon="5.94758">
        <ele>2244.5</ele>
        <time>2021-02-20T10:14:34Z</time>
      </trkpt>
      <trkpt lat="45.1663" lon="5.94759">
        <ele>2244.5</ele>
        <time>2021-02-20T10:14:35Z</time>
      </trkpt>
      <trkpt lat="45.16629" lon="5.94759">
        <ele>2244.5</ele>
        <time>2021-02-20T10:14:36Z</time>
      </trkpt>
      <trkpt lat="45.16629" lon="5.94759">
        <ele>2244.5</ele>
        <time>2021-02-20T10:14:37Z</time>
      </trkpt>
      <trkpt lat="45.16629" lon="5.9476">
        <ele>2244.8</ele>
        <time>2021-02-20T10:14:38Z</time>
      </trkpt>
      <trkpt lat="45.16629" lon="5.9476">
        <ele>2244.8</ele>
        <time>2021-02-20T10:14:39Z</time>
      </trkpt>
      <trkpt lat="45.16628" lon="5.94761">
        <ele>2244.8</ele>
        <time>2021-02-20T10:14:40Z</time>
      </trkpt>
      <trkpt lat="45.16628" lon="5.94761">
        <ele>2244.8</ele>
        <time>2021-02-20T10:14:41Z</time>
      </trkpt>
      <trkpt lat="45.16627" lon="5.94762">
        <ele>2243.6</ele>
        <time>2021-02-20T10:14:42Z</time>
      </trkpt>
      <trkpt lat="45.16627" lon="5.94763">
        <ele>2243.6</ele>
        <time>2021-02-20T10:14:43Z</time>
      </trkpt>
      <trkpt lat="45.16627" lon="5.94764">
        <ele>2243.6</ele>
        <time>2021-02-20T10:14:44Z</time>
      </trkpt>
      <trkpt lat="45.16627" lon="5.94764">
        <ele>2244</ele>
        <time>2021-02-20T10:14:45Z</time>
      </trkpt>
      <trkpt lat="45.16627" lon="5.94764">
        <ele>2244</ele>
        <time>2021-02-20T10:14:46Z</time>
      </trkpt>
      <trkpt lat="45.16627" lon="5.94764">
        <ele>2244</ele>
        <time>2021-02-20T10:14:47Z</time>
      </trkpt>
      <trkpt lat="45.16627" lon="5.94763">
        <ele>2243.6</ele>
        <time>2021-02-20T10:14:48Z</time>
      </trkpt>
      <trkpt lat="45.16628" lon="5.94763">
        <ele>2244.8</ele>
        <time>2021-02-20T10:14:49Z</time>
      </trkpt>
      <trkpt lat="45.16628" lon="5.94763">
        <ele>2244.8</ele>
        <time>2021-02-20T10:14:50Z</time>
      </trkpt>
      <trkpt lat="45.16629" lon="5.94762">
        <ele>2244.8</ele>
        <time>2021-02-20T10:14:51Z</time>
      </trkpt>
      <trkpt lat="45.16629" lon="5.94761">
        <ele>2244.8</ele>
        <time>2021-02-20T10:14:52Z</time>
      </trkpt>
      <trkpt lat="45.16629" lon="5.9476">
        <ele>2244.8</ele>
        <time>2021-02-20T10:14:53Z</time>
      </trkpt>
      <trkpt lat="45.1663" lon="5.9476">
        <ele>2244.8</ele>
        <time>2021-02-20T10:14:54Z</time>
      </trkpt>
      <trkpt lat="45.16631" lon="5.9476">
        <ele>2244.8</ele>
        <time>2021-02-20T10:14:55Z</time>
      </trkpt>
      <trkpt lat="45.16631" lon="5.9476">
        <ele>2246</ele>
        <time>2021-02-20T10:14:56Z</time>
      </trkpt>
      <trkpt lat="45.16631" lon="5.9476">
        <ele>2246</ele>
        <time>2021-02-20T10:14:57Z</time>
      </trkpt>
      <trkpt lat="45.16631" lon="5.94761">
        <ele>2246</ele>
        <time>2021-02-20T10:14:58Z</time>
      </trkpt>
      <trkpt lat="45.16632" lon="5.9476">
        <ele>2246</ele>
        <time>2021-02-20T10:14:59Z</time>
      </trkpt>
      <trkpt lat="45.16632" lon="5.9476">
        <ele>2246</ele>
        <time>2021-02-20T10:15:00Z</time>
      </trkpt>
      <trkpt lat="45.16633" lon="5.9476">
        <ele>2246</ele>
        <time>2021-02-20T10:15:01Z</time>
      </trkpt>
      <trkpt lat="45.16633" lon="5.94759">
        <ele>2245.7</ele>
        <time>2021-02-20T10:15:02Z</time>
      </trkpt>
      <trkpt lat="45.16634" lon="5.94758">
        <ele>2247</ele>
        <time>2021-02-20T10:15:03Z</time>
      </trkpt>
      <trkpt lat="45.16635" lon="5.94758">
        <ele>2247</ele>
        <time>2021-02-20T10:15:04Z</time>
      </trkpt>
      <trkpt lat="45.16636" lon="5.94758">
        <ele>2247</ele>
        <time>2021-02-20T10:15:05Z</time>
      </trkpt>
      <trkpt lat="45.16637" lon="5.94759">
        <ele>2248.4</ele>
        <time>2021-02-20T10:15:06Z</time>
      </trkpt>
      <trkpt lat="45.16638" lon="5.9476">
        <ele>2248.7</ele>
        <time>2021-02-20T10:15:07Z</time>
      </trkpt>
      <trkpt lat="45.16638" lon="5.94761">
        <ele>2248.7</ele>
        <time>2021-02-20T10:15:08Z</time>
      </trkpt>
      <trkpt lat="45.16639" lon="5.94762">
        <ele>2248.7</ele>
        <time>2021-02-20T10:15:09Z</time>
      </trkpt>
      <trkpt lat="45.16638" lon="5.94761">
        <ele>2248.7</ele>
        <time>2021-02-20T10:15:10Z</time>
      </trkpt>
      <trkpt lat="45.16638" lon="5.94761">
        <ele>2248.7</ele>
        <time>2021-02-20T10:15:11Z</time>
      </trkpt>
      <trkpt lat="45.16639" lon="5.9476">
        <ele>2248.7</ele>
        <time>2021-02-20T10:15:12Z</time>
      </trkpt>
      <trkpt lat="45.16639" lon="5.94759">
        <ele>2248.4</ele>
        <time>2021-02-20T10:15:13Z</time>
      </trkpt>
      <trkpt lat="45.16639" lon="5.94759">
        <ele>2248.4</ele>
        <time>2021-02-20T10:15:14Z</time>
      </trkpt>
      <trkpt lat="45.16639" lon="5.94759">
        <ele>2248.4</ele>
        <time>2021-02-20T10:15:15Z</time>
      </trkpt>
      <trkpt lat="45.1664" lon="5.94759">
        <ele>2248.4</ele>
        <time>2021-02-20T10:15:16Z</time>
      </trkpt>
      <trkpt lat="45.1664" lon="5.9476">
        <ele>2250.2</ele>
        <time>2021-02-20T10:15:17Z</time>
      </trkpt>
      <trkpt lat="45.1664" lon="5.94761">
        <ele>2250.2</ele>
        <time>2021-02-20T10:15:18Z</time>
      </trkpt>
      <trkpt lat="45.1664" lon="5.94761">
        <ele>2250.2</ele>
        <time>2021-02-20T10:15:19Z</time>
      </trkpt>
      <trkpt lat="45.16641" lon="5.94761">
        <ele>2250.2</ele>
        <time>2021-02-20T10:15:20Z</time>
      </trkpt>
      <trkpt lat="45.16641" lon="5.9476">
        <ele>2250.2</ele>
        <time>2021-02-20T10:15:21Z</time>
      </trkpt>
      <trkpt lat="45.16641" lon="5.94759">
        <ele>2249.9</ele>
        <time>2021-02-20T10:15:22Z</time>
      </trkpt>
      <trkpt lat="45.16642" lon="5.94759">
        <ele>2249.9</ele>
        <time>2021-02-20T10:15:23Z</time>
      </trkpt>
      <trkpt lat="45.16641" lon="5.94758">
        <ele>2249.9</ele>
        <time>2021-02-20T10:15:24Z</time>
      </trkpt>
      <trkpt lat="45.16642" lon="5.94757">
        <ele>2249.9</ele>
        <time>2021-02-20T10:15:25Z</time>
      </trkpt>
      <trkpt lat="45.16642" lon="5.94757">
        <ele>2249.9</ele>
        <time>2021-02-20T10:15:26Z</time>
      </trkpt>
      <trkpt lat="45.16643" lon="5.94756">
        <ele>2251.5</ele>
        <time>2021-02-20T10:15:27Z</time>
      </trkpt>
      <trkpt lat="45.16643" lon="5.94756">
        <ele>2251.5</ele>
        <time>2021-02-20T10:15:28Z</time>
      </trkpt>
      <trkpt lat="45.16644" lon="5.94756">
        <ele>2251.5</ele>
        <time>2021-02-20T10:15:29Z</time>
      </trkpt>
      <trkpt lat="45.16644" lon="5.94756">
        <ele>2251.5</ele>
        <time>2021-02-20T10:15:30Z</time>
      </trkpt>
      <trkpt lat="45.16644" lon="5.94756">
        <ele>2251.5</ele>
        <time>2021-02-20T10:15:31Z</time>
      </trkpt>
      <trkpt lat="45.16644" lon="5.94755">
        <ele>2251.2</ele>
        <time>2021-02-20T10:15:32Z</time>
      </trkpt>
      <trkpt lat="45.16644" lon="5.94754">
        <ele>2251.2</ele>
        <time>2021-02-20T10:15:33Z</time>
      </trkpt>
      <trkpt lat="45.16643" lon="5.94752">
        <ele>2251.2</ele>
        <time>2021-02-20T10:15:34Z</time>
      </trkpt>
      <trkpt lat="45.16643" lon="5.94751">
        <ele>2251.2</ele>
        <time>2021-02-20T10:15:35Z</time>
      </trkpt>
      <trkpt lat="45.16643" lon="5.9475">
        <ele>2251</ele>
        <time>2021-02-20T10:15:36Z</time>
      </trkpt>
      <trkpt lat="45.16643" lon="5.94749">
        <ele>2251</ele>
        <time>2021-02-20T10:15:37Z</time>
      </trkpt>
      <trkpt lat="45.16643" lon="5.94749">
        <ele>2251</ele>
        <time>2021-02-20T10:15:38Z</time>
      </trkpt>
      <trkpt lat="45.16643" lon="5.94749">
        <ele>2249.4</ele>
        <time>2021-02-20T10:15:39Z</time>
      </trkpt>
      <trkpt lat="45.16642" lon="5.94748">
        <ele>2249.4</ele>
        <time>2021-02-20T10:15:40Z</time>
      </trkpt>
      <trkpt lat="45.16642" lon="5.94747">
        <ele>2249.4</ele>
        <time>2021-02-20T10:15:41Z</time>
      </trkpt>
      <trkpt lat="45.16642" lon="5.94746">
        <ele>2249.3</ele>
        <time>2021-02-20T10:15:42Z</time>
      </trkpt>
      <trkpt lat="45.16641" lon="5.94745">
        <ele>2249.3</ele>
        <time>2021-02-20T10:15:43Z</time>
      </trkpt>
      <trkpt lat="45.16641" lon="5.94744">
        <ele>2249.3</ele>
        <time>2021-02-20T10:15:44Z</time>
      </trkpt>
      <trkpt lat="45.16641" lon="5.94744">
        <ele>2249.3</ele>
        <time>2021-02-20T10:15:45Z</time>
      </trkpt>
      <trkpt lat="45.16641" lon="5.94742">
        <ele>2249.3</ele>
        <time>2021-02-20T10:15:46Z</time>
      </trkpt>
      <trkpt lat="45.16642" lon="5.94742">
        <ele>2249.2</ele>
        <time>2021-02-20T10:15:47Z</time>
      </trkpt>
      <trkpt lat="45.16642" lon="5.94741">
        <ele>2249.2</ele>
        <time>2021-02-20T10:15:48Z</time>
      </trkpt>
      <trkpt lat="45.16642" lon="5.9474">
        <ele>2249.2</ele>
        <time>2021-02-20T10:15:49Z</time>
      </trkpt>
      <trkpt lat="45.16643" lon="5.94739">
        <ele>2250.7</ele>
        <time>2021-02-20T10:15:50Z</time>
      </trkpt>
      <trkpt lat="45.16643" lon="5.94739">
        <ele>2250.7</ele>
        <time>2021-02-20T10:15:51Z</time>
      </trkpt>
      <trkpt lat="45.16644" lon="5.94739">
        <ele>2250.7</ele>
        <time>2021-02-20T10:15:52Z</time>
      </trkpt>
      <trkpt lat="45.16645" lon="5.94738">
        <ele>2250.6</ele>
        <time>2021-02-20T10:15:53Z</time>
      </trkpt>
      <trkpt lat="45.16645" lon="5.94737">
        <ele>2250.6</ele>
        <time>2021-02-20T10:15:54Z</time>
      </trkpt>
      <trkpt lat="45.16646" lon="5.94736">
        <ele>2250.6</ele>
        <time>2021-02-20T10:15:55Z</time>
      </trkpt>
      <trkpt lat="45.16646" lon="5.94736">
        <ele>2252.1</ele>
        <time>2021-02-20T10:15:56Z</time>
      </trkpt>
      <trkpt lat="45.16647" lon="5.94736">
        <ele>2252.1</ele>
        <time>2021-02-20T10:15:57Z</time>
      </trkpt>
      <trkpt lat="45.16648" lon="5.94736">
        <ele>2252.1</ele>
        <time>2021-02-20T10:15:58Z</time>
      </trkpt>
      <trkpt lat="45.16649" lon="5.94736">
        <ele>2252.1</ele>
        <time>2021-02-20T10:15:59Z</time>
      </trkpt>
      <trkpt lat="45.16649" lon="5.94737">
        <ele>2253.5</ele>
        <time>2021-02-20T10:16:00Z</time>
      </trkpt>
      <trkpt lat="45.1665" lon="5.94737">
        <ele>2253.5</ele>
        <time>2021-02-20T10:16:01Z</time>
      </trkpt>
      <trkpt lat="45.16651" lon="5.94737">
        <ele>2253.5</ele>
        <time>2021-02-20T10:16:02Z</time>
      </trkpt>
      <trkpt lat="45.16652" lon="5.94738">
        <ele>2253.5</ele>
        <time>2021-02-20T10:16:03Z</time>
      </trkpt>
      <trkpt lat="45.16652" lon="5.94738">
        <ele>2255</ele>
        <time>2021-02-20T10:16:04Z</time>
      </trkpt>
      <trkpt lat="45.16653" lon="5.94739">
        <ele>2255</ele>
        <time>2021-02-20T10:16:05Z</time>
      </trkpt>
      <trkpt lat="45.16653" lon="5.9474">
        <ele>2255</ele>
        <time>2021-02-20T10:16:06Z</time>
      </trkpt>
      <trkpt lat="45.16654" lon="5.94741">
        <ele>2255</ele>
        <time>2021-02-20T10:16:07Z</time>
      </trkpt>
      <trkpt lat="45.16655" lon="5.94742">
        <ele>2255</ele>
        <time>2021-02-20T10:16:08Z</time>
      </trkpt>
      <trkpt lat="45.16655" lon="5.94743">
        <ele>2257.5</ele>
        <time>2021-02-20T10:16:09Z</time>
      </trkpt>
      <trkpt lat="45.16656" lon="5.94743">
        <ele>2257.5</ele>
        <time>2021-02-20T10:16:10Z</time>
      </trkpt>
      <trkpt lat="45.16656" lon="5.94744">
        <ele>2257.5</ele>
        <time>2021-02-20T10:16:11Z</time>
      </trkpt>
      <trkpt lat="45.16656" lon="5.94744">
        <ele>2257.5</ele>
        <time>2021-02-20T10:16:12Z</time>
      </trkpt>
      <trkpt lat="45.16656" lon="5.94745">
        <ele>2257.5</ele>
        <time>2021-02-20T10:16:13Z</time>
      </trkpt>
      <trkpt lat="45.16657" lon="5.94746">
        <ele>2257.5</ele>
        <time>2021-02-20T10:16:14Z</time>
      </trkpt>
      <trkpt lat="45.16657" lon="5.94746">
        <ele>2257.5</ele>
        <time>2021-02-20T10:16:15Z</time>
      </trkpt>
      <trkpt lat="45.16658" lon="5.94747">
        <ele>2259.3</ele>
        <time>2021-02-20T10:16:16Z</time>
      </trkpt>
      <trkpt lat="45.16658" lon="5.94748">
        <ele>2259.3</ele>
        <time>2021-02-20T10:16:17Z</time>
      </trkpt>
      <trkpt lat="45.16659" lon="5.94748">
        <ele>2259.3</ele>
        <time>2021-02-20T10:16:18Z</time>
      </trkpt>
      <trkpt lat="45.16659" lon="5.94748">
        <ele>2259.3</ele>
        <time>2021-02-20T10:16:19Z</time>
      </trkpt>
      <trkpt lat="45.1666" lon="5.94748">
        <ele>2259.3</ele>
        <time>2021-02-20T10:16:20Z</time>
      </trkpt>
      <trkpt lat="45.1666" lon="5.94749">
        <ele>2259.3</ele>
        <time>2021-02-20T10:16:21Z</time>
      </trkpt>
      <trkpt lat="45.1666" lon="5.9475">
        <ele>2259.3</ele>
        <time>2021-02-20T10:16:22Z</time>
      </trkpt>
      <trkpt lat="45.1666" lon="5.9475">
        <ele>2259.3</ele>
        <time>2021-02-20T10:16:23Z</time>
      </trkpt>
      <trkpt lat="45.1666" lon="5.9475">
        <ele>2259.3</ele>
        <time>2021-02-20T10:16:24Z</time>
      </trkpt>
      <trkpt lat="45.1666" lon="5.94752">
        <ele>2259.6</ele>
        <time>2021-02-20T10:16:25Z</time>
      </trkpt>
      <trkpt lat="45.1666" lon="5.94752">
        <ele>2259.6</ele>
        <time>2021-02-20T10:16:26Z</time>
      </trkpt>
      <trkpt lat="45.16661" lon="5.94752">
        <ele>2261.4</ele>
        <time>2021-02-20T10:16:27Z</time>
      </trkpt>
      <trkpt lat="45.16662" lon="5.94752">
        <ele>2261.4</ele>
        <time>2021-02-20T10:16:28Z</time>
      </trkpt>
      <trkpt lat="45.16662" lon="5.94752">
        <ele>2261.4</ele>
        <time>2021-02-20T10:16:29Z</time>
      </trkpt>
      <trkpt lat="45.16663" lon="5.94752">
        <ele>2261.4</ele>
        <time>2021-02-20T10:16:30Z</time>
      </trkpt>
      <trkpt lat="45.16663" lon="5.94752">
        <ele>2261.4</ele>
        <time>2021-02-20T10:16:31Z</time>
      </trkpt>
      <trkpt lat="45.16664" lon="5.94752">
        <ele>2261.4</ele>
        <time>2021-02-20T10:16:32Z</time>
      </trkpt>
      <trkpt lat="45.16664" lon="5.94752">
        <ele>2261.4</ele>
        <time>2021-02-20T10:16:33Z</time>
      </trkpt>
      <trkpt lat="45.16664" lon="5.94752">
        <ele>2263.3</ele>
        <time>2021-02-20T10:16:34Z</time>
      </trkpt>
      <trkpt lat="45.16664" lon="5.94751">
        <ele>2263.3</ele>
        <time>2021-02-20T10:16:35Z</time>
      </trkpt>
      <trkpt lat="45.16665" lon="5.94751">
        <ele>2262.9</ele>
        <time>2021-02-20T10:16:36Z</time>
      </trkpt>
      <trkpt lat="45.16664" lon="5.9475">
        <ele>2262.9</ele>
        <time>2021-02-20T10:16:37Z</time>
      </trkpt>
      <trkpt lat="45.16665" lon="5.94749">
        <ele>2262.9</ele>
        <time>2021-02-20T10:16:38Z</time>
      </trkpt>
      <trkpt lat="45.16665" lon="5.94748">
        <ele>2262.9</ele>
        <time>2021-02-20T10:16:39Z</time>
      </trkpt>
      <trkpt lat="45.16665" lon="5.94747">
        <ele>2262.9</ele>
        <time>2021-02-20T10:16:40Z</time>
      </trkpt>
      <trkpt lat="45.16665" lon="5.94746">
        <ele>2262.6</ele>
        <time>2021-02-20T10:16:41Z</time>
      </trkpt>
      <trkpt lat="45.16666" lon="5.94746">
        <ele>2262.6</ele>
        <time>2021-02-20T10:16:42Z</time>
      </trkpt>
      <trkpt lat="45.16666" lon="5.94746">
        <ele>2262.6</ele>
        <time>2021-02-20T10:16:43Z</time>
      </trkpt>
      <trkpt lat="45.16666" lon="5.94745">
        <ele>2262.6</ele>
        <time>2021-02-20T10:16:44Z</time>
      </trkpt>
      <trkpt lat="45.16666" lon="5.94744">
        <ele>2262.6</ele>
        <time>2021-02-20T10:16:45Z</time>
      </trkpt>
      <trkpt lat="45.16666" lon="5.94743">
        <ele>2262.6</ele>
        <time>2021-02-20T10:16:46Z</time>
      </trkpt>
      <trkpt lat="45.16666" lon="5.94742">
        <ele>2262.2</ele>
        <time>2021-02-20T10:16:47Z</time>
      </trkpt>
      <trkpt lat="45.16666" lon="5.94741">
        <ele>2262.2</ele>
        <time>2021-02-20T10:16:48Z</time>
      </trkpt>
      <trkpt lat="45.16667" lon="5.94741">
        <ele>2262.2</ele>
        <time>2021-02-20T10:16:49Z</time>
      </trkpt>
      <trkpt lat="45.16667" lon="5.9474">
        <ele>2264.1</ele>
        <time>2021-02-20T10:16:50Z</time>
      </trkpt>
      <trkpt lat="45.16668" lon="5.94739">
        <ele>2264.1</ele>
        <time>2021-02-20T10:16:51Z</time>
      </trkpt>
      <trkpt lat="45.16668" lon="5.94738">
        <ele>2263.8</ele>
        <time>2021-02-20T10:16:52Z</time>
      </trkpt>
      <trkpt lat="45.16669" lon="5.94737">
        <ele>2263.8</ele>
        <time>2021-02-20T10:16:53Z</time>
      </trkpt>
      <trkpt lat="45.1667" lon="5.94737">
        <ele>2263.8</ele>
        <time>2021-02-20T10:16:54Z</time>
      </trkpt>
      <trkpt lat="45.1667" lon="5.94736">
        <ele>2265.6</ele>
        <time>2021-02-20T10:16:55Z</time>
      </trkpt>
      <trkpt lat="45.1667" lon="5.94734">
        <ele>2265.6</ele>
        <time>2021-02-20T10:16:56Z</time>
      </trkpt>
      <trkpt lat="45.16671" lon="5.94733">
        <ele>2265.3</ele>
        <time>2021-02-20T10:16:57Z</time>
      </trkpt>
      <trkpt lat="45.16671" lon="5.94732">
        <ele>2265.3</ele>
        <time>2021-02-20T10:16:58Z</time>
      </trkpt>
      <trkpt lat="45.16671" lon="5.94732">
        <ele>2265.3</ele>
        <time>2021-02-20T10:16:59Z</time>
      </trkpt>
      <trkpt lat="45.16672" lon="5.94731">
        <ele>2265.3</ele>
        <time>2021-02-20T10:17:00Z</time>
      </trkpt>
      <trkpt lat="45.16672" lon="5.9473">
        <ele>2265.3</ele>
        <time>2021-02-20T10:17:01Z</time>
      </trkpt>
      <trkpt lat="45.16673" lon="5.9473">
        <ele>2265.3</ele>
        <time>2021-02-20T10:17:02Z</time>
      </trkpt>
      <trkpt lat="45.16673" lon="5.94729">
        <ele>2266.5</ele>
        <time>2021-02-20T10:17:03Z</time>
      </trkpt>
      <trkpt lat="45.16673" lon="5.94729">
        <ele>2266.5</ele>
        <time>2021-02-20T10:17:04Z</time>
      </trkpt>
      <trkpt lat="45.16674" lon="5.94728">
        <ele>2266.5</ele>
        <time>2021-02-20T10:17:05Z</time>
      </trkpt>
      <trkpt lat="45.16674" lon="5.94727">
        <ele>2266.5</ele>
        <time>2021-02-20T10:17:06Z</time>
      </trkpt>
      <trkpt lat="45.16675" lon="5.94727">
        <ele>2266.5</ele>
        <time>2021-02-20T10:17:07Z</time>
      </trkpt>
      <trkpt lat="45.16675" lon="5.94726">
        <ele>2266.5</ele>
        <time>2021-02-20T10:17:08Z</time>
      </trkpt>
      <trkpt lat="45.16677" lon="5.94726">
        <ele>2268.1</ele>
        <time>2021-02-20T10:17:09Z</time>
      </trkpt>
      <trkpt lat="45.16678" lon="5.94726">
        <ele>2268.1</ele>
        <time>2021-02-20T10:17:10Z</time>
      </trkpt>
      <trkpt lat="45.16679" lon="5.94725">
        <ele>2268.1</ele>
        <time>2021-02-20T10:17:11Z</time>
      </trkpt>
      <trkpt lat="45.16679" lon="5.94725">
        <ele>2269.7</ele>
        <time>2021-02-20T10:17:12Z</time>
      </trkpt>
      <trkpt lat="45.16679" lon="5.94725">
        <ele>2269.2</ele>
        <time>2021-02-20T10:17:13Z</time>
      </trkpt>
      <trkpt lat="45.16679" lon="5.94724">
        <ele>2269.2</ele>
        <time>2021-02-20T10:17:14Z</time>
      </trkpt>
      <trkpt lat="45.1668" lon="5.94724">
        <ele>2269.2</ele>
        <time>2021-02-20T10:17:15Z</time>
      </trkpt>
      <trkpt lat="45.1668" lon="5.94723">
        <ele>2269.2</ele>
        <time>2021-02-20T10:17:16Z</time>
      </trkpt>
      <trkpt lat="45.16681" lon="5.94722">
        <ele>2269.2</ele>
        <time>2021-02-20T10:17:17Z</time>
      </trkpt>
      <trkpt lat="45.16682" lon="5.94722">
        <ele>2269.2</ele>
        <time>2021-02-20T10:17:18Z</time>
      </trkpt>
      <trkpt lat="45.16682" lon="5.94722">
        <ele>2270.8</ele>
        <time>2021-02-20T10:17:19Z</time>
      </trkpt>
      <trkpt lat="45.16683" lon="5.94721">
        <ele>2270.8</ele>
        <time>2021-02-20T10:17:20Z</time>
      </trkpt>
      <trkpt lat="45.16683" lon="5.94721">
        <ele>2270.3</ele>
        <time>2021-02-20T10:17:21Z</time>
      </trkpt>
      <trkpt lat="45.16683" lon="5.9472">
        <ele>2270.3</ele>
        <time>2021-02-20T10:17:22Z</time>
      </trkpt>
      <trkpt lat="45.16684" lon="5.9472">
        <ele>2270.3</ele>
        <time>2021-02-20T10:17:23Z</time>
      </trkpt>
      <trkpt lat="45.16684" lon="5.94719">
        <ele>2270.3</ele>
        <time>2021-02-20T10:17:24Z</time>
      </trkpt>
      <trkpt lat="45.16684" lon="5.94719">
        <ele>2270.3</ele>
        <time>2021-02-20T10:17:25Z</time>
      </trkpt>
      <trkpt lat="45.16684" lon="5.94719">
        <ele>2270.3</ele>
        <time>2021-02-20T10:17:26Z</time>
      </trkpt>
      <trkpt lat="45.16685" lon="5.94719">
        <ele>2270.3</ele>
        <time>2021-02-20T10:17:27Z</time>
      </trkpt>
      <trkpt lat="45.16685" lon="5.94718">
        <ele>2272.1</ele>
        <time>2021-02-20T10:17:28Z</time>
      </trkpt>
      <trkpt lat="45.16686" lon="5.94718">
        <ele>2272.1</ele>
        <time>2021-02-20T10:17:29Z</time>
      </trkpt>
      <trkpt lat="45.16685" lon="5.94718">
        <ele>2272.1</ele>
        <time>2021-02-20T10:17:30Z</time>
      </trkpt>
      <trkpt lat="45.16685" lon="5.94717">
        <ele>2270.3</ele>
        <time>2021-02-20T10:17:31Z</time>
      </trkpt>
      <trkpt lat="45.16684" lon="5.94717">
        <ele>2270.3</ele>
        <time>2021-02-20T10:17:32Z</time>
      </trkpt>
      <trkpt lat="45.16685" lon="5.94716">
        <ele>2269.8</ele>
        <time>2021-02-20T10:17:33Z</time>
      </trkpt>
      <trkpt lat="45.16685" lon="5.94716">
        <ele>2271.5</ele>
        <time>2021-02-20T10:17:34Z</time>
      </trkpt>
      <trkpt lat="45.16686" lon="5.94716">
        <ele>2271.5</ele>
        <time>2021-02-20T10:17:35Z</time>
      </trkpt>
      <trkpt lat="45.16686" lon="5.94716">
        <ele>2271.5</ele>
        <time>2021-02-20T10:17:36Z</time>
      </trkpt>
      <trkpt lat="45.16686" lon="5.94715">
        <ele>2271.5</ele>
        <time>2021-02-20T10:17:37Z</time>
      </trkpt>
      <trkpt lat="45.16686" lon="5.94715">
        <ele>2271.5</ele>
        <time>2021-02-20T10:17:38Z</time>
      </trkpt>
      <trkpt lat="45.16687" lon="5.94715">
        <ele>2271.5</ele>
        <time>2021-02-20T10:17:39Z</time>
      </trkpt>
      <trkpt lat="45.16687" lon="5.94714">
        <ele>2271.5</ele>
        <time>2021-02-20T10:17:40Z</time>
      </trkpt>
      <trkpt lat="45.16688" lon="5.94714">
        <ele>2271.5</ele>
        <time>2021-02-20T10:17:41Z</time>
      </trkpt>
      <trkpt lat="45.16688" lon="5.94715">
        <ele>2273.4</ele>
        <time>2021-02-20T10:17:42Z</time>
      </trkpt>
      <trkpt lat="45.16689" lon="5.94715">
        <ele>2273.4</ele>
        <time>2021-02-20T10:17:43Z</time>
      </trkpt>
      <trkpt lat="45.1669" lon="5.94716">
        <ele>2273.4</ele>
        <time>2021-02-20T10:17:44Z</time>
      </trkpt>
      <trkpt lat="45.1669" lon="5.94716">
        <ele>2273.4</ele>
        <time>2021-02-20T10:17:45Z</time>
      </trkpt>
      <trkpt lat="45.16691" lon="5.94716">
        <ele>2273.4</ele>
        <time>2021-02-20T10:17:46Z</time>
      </trkpt>
      <trkpt lat="45.16691" lon="5.94715">
        <ele>2273.4</ele>
        <time>2021-02-20T10:17:47Z</time>
      </trkpt>
      <trkpt lat="45.16691" lon="5.94714">
        <ele>2273.4</ele>
        <time>2021-02-20T10:17:48Z</time>
      </trkpt>
      <trkpt lat="45.16691" lon="5.94714">
        <ele>2275.3</ele>
        <time>2021-02-20T10:17:49Z</time>
      </trkpt>
      <trkpt lat="45.16692" lon="5.94713">
        <ele>2275.3</ele>
        <time>2021-02-20T10:17:50Z</time>
      </trkpt>
      <trkpt lat="45.16692" lon="5.94712">
        <ele>2274.7</ele>
        <time>2021-02-20T10:17:51Z</time>
      </trkpt>
      <trkpt lat="45.16693" lon="5.94712">
        <ele>2274.7</ele>
        <time>2021-02-20T10:17:52Z</time>
      </trkpt>
      <trkpt lat="45.16694" lon="5.94711">
        <ele>2276.5</ele>
        <time>2021-02-20T10:17:53Z</time>
      </trkpt>
      <trkpt lat="45.16695" lon="5.9471">
        <ele>2276.5</ele>
        <time>2021-02-20T10:17:54Z</time>
      </trkpt>
      <trkpt lat="45.16695" lon="5.94709">
        <ele>2276.5</ele>
        <time>2021-02-20T10:17:55Z</time>
      </trkpt>
      <trkpt lat="45.16695" lon="5.94709">
        <ele>2276.5</ele>
        <time>2021-02-20T10:17:56Z</time>
      </trkpt>
      <trkpt lat="45.16696" lon="5.94708">
        <ele>2276.5</ele>
        <time>2021-02-20T10:17:57Z</time>
      </trkpt>
      <trkpt lat="45.16697" lon="5.94707">
        <ele>2276</ele>
        <time>2021-02-20T10:17:58Z</time>
      </trkpt>
      <trkpt lat="45.16698" lon="5.94707">
        <ele>2277.7</ele>
        <time>2021-02-20T10:17:59Z</time>
      </trkpt>
      <trkpt lat="45.16698" lon="5.94707">
        <ele>2277.7</ele>
        <time>2021-02-20T10:18:00Z</time>
      </trkpt>
      <trkpt lat="45.16699" lon="5.94707">
        <ele>2277.7</ele>
        <time>2021-02-20T10:18:01Z</time>
      </trkpt>
      <trkpt lat="45.167" lon="5.94707">
        <ele>2277.7</ele>
        <time>2021-02-20T10:18:02Z</time>
      </trkpt>
      <trkpt lat="45.16701" lon="5.94707">
        <ele>2279.4</ele>
        <time>2021-02-20T10:18:03Z</time>
      </trkpt>
      <trkpt lat="45.16701" lon="5.94706">
        <ele>2279.4</ele>
        <time>2021-02-20T10:18:04Z</time>
      </trkpt>
      <trkpt lat="45.16702" lon="5.94706">
        <ele>2279.4</ele>
        <time>2021-02-20T10:18:05Z</time>
      </trkpt>
      <trkpt lat="45.16702" lon="5.94706">
        <ele>2279.4</ele>
        <time>2021-02-20T10:18:06Z</time>
      </trkpt>
      <trkpt lat="45.16703" lon="5.94705">
        <ele>2281.1</ele>
        <time>2021-02-20T10:18:07Z</time>
      </trkpt>
      <trkpt lat="45.16704" lon="5.94705">
        <ele>2281.1</ele>
        <time>2021-02-20T10:18:08Z</time>
      </trkpt>
      <trkpt lat="45.16705" lon="5.94704">
        <ele>2281.1</ele>
        <time>2021-02-20T10:18:09Z</time>
      </trkpt>
      <trkpt lat="45.16705" lon="5.94704">
        <ele>2281.1</ele>
        <time>2021-02-20T10:18:10Z</time>
      </trkpt>
      <trkpt lat="45.16704" lon="5.94704">
        <ele>2280.5</ele>
        <time>2021-02-20T10:18:11Z</time>
      </trkpt>
      <trkpt lat="45.16704" lon="5.94703">
        <ele>2280.5</ele>
        <time>2021-02-20T10:18:12Z</time>
      </trkpt>
      <trkpt lat="45.16703" lon="5.94703">
        <ele>2278.8</ele>
        <time>2021-02-20T10:18:13Z</time>
      </trkpt>
      <trkpt lat="45.16703" lon="5.94702">
        <ele>2280.5</ele>
        <time>2021-02-20T10:18:14Z</time>
      </trkpt>
      <trkpt lat="45.16704" lon="5.94702">
        <ele>2280.5</ele>
        <time>2021-02-20T10:18:15Z</time>
      </trkpt>
      <trkpt lat="45.16704" lon="5.94701">
        <ele>2280.5</ele>
        <time>2021-02-20T10:18:16Z</time>
      </trkpt>
      <trkpt lat="45.16704" lon="5.94701">
        <ele>2280.5</ele>
        <time>2021-02-20T10:18:17Z</time>
      </trkpt>
      <trkpt lat="45.16705" lon="5.94701">
        <ele>2280.5</ele>
        <time>2021-02-20T10:18:18Z</time>
      </trkpt>
      <trkpt lat="45.16706" lon="5.94701">
        <ele>2280.5</ele>
        <time>2021-02-20T10:18:19Z</time>
      </trkpt>
      <trkpt lat="45.16707" lon="5.947">
        <ele>2282.1</ele>
        <time>2021-02-20T10:18:20Z</time>
      </trkpt>
      <trkpt lat="45.16707" lon="5.94699">
        <ele>2282.1</ele>
        <time>2021-02-20T10:18:21Z</time>
      </trkpt>
      <trkpt lat="45.16708" lon="5.94699">
        <ele>2281.6</ele>
        <time>2021-02-20T10:18:22Z</time>
      </trkpt>
      <trkpt lat="45.16709" lon="5.94698">
        <ele>2281.7</ele>
        <time>2021-02-20T10:18:23Z</time>
      </trkpt>
      <trkpt lat="45.1671" lon="5.94697">
        <ele>2283.5</ele>
        <time>2021-02-20T10:18:24Z</time>
      </trkpt>
      <trkpt lat="45.1671" lon="5.94697">
        <ele>2283.6</ele>
        <time>2021-02-20T10:18:25Z</time>
      </trkpt>
      <trkpt lat="45.16709" lon="5.94696">
        <ele>2283.6</ele>
        <time>2021-02-20T10:18:26Z</time>
      </trkpt>
      <trkpt lat="45.1671" lon="5.94696">
        <ele>2283.7</ele>
        <time>2021-02-20T10:18:27Z</time>
      </trkpt>
      <trkpt lat="45.1671" lon="5.94696">
        <ele>2283.8</ele>
        <time>2021-02-20T10:18:28Z</time>
      </trkpt>
      <trkpt lat="45.16711" lon="5.94695">
        <ele>2283.3</ele>
        <time>2021-02-20T10:18:29Z</time>
      </trkpt>
      <trkpt lat="45.16712" lon="5.94695">
        <ele>2283.4</ele>
        <time>2021-02-20T10:18:30Z</time>
      </trkpt>
      <trkpt lat="45.16712" lon="5.94694">
        <ele>2283.5</ele>
        <time>2021-02-20T10:18:31Z</time>
      </trkpt>
      <trkpt lat="45.16713" lon="5.94694">
        <ele>2285.4</ele>
        <time>2021-02-20T10:18:32Z</time>
      </trkpt>
      <trkpt lat="45.16713" lon="5.94694">
        <ele>2285.4</ele>
        <time>2021-02-20T10:18:33Z</time>
      </trkpt>
      <trkpt lat="45.16714" lon="5.94693">
        <ele>2285.5</ele>
        <time>2021-02-20T10:18:34Z</time>
      </trkpt>
      <trkpt lat="45.16714" lon="5.94692">
        <ele>2285.6</ele>
        <time>2021-02-20T10:18:35Z</time>
      </trkpt>
      <trkpt lat="45.16715" lon="5.94691">
        <ele>2285.7</ele>
        <time>2021-02-20T10:18:36Z</time>
      </trkpt>
      <trkpt lat="45.16715" lon="5.94691">
        <ele>2285.8</ele>
        <time>2021-02-20T10:18:37Z</time>
      </trkpt>
      <trkpt lat="45.16716" lon="5.94691">
        <ele>2287.7</ele>
        <time>2021-02-20T10:18:38Z</time>
      </trkpt>
      <trkpt lat="45.16717" lon="5.94691">
        <ele>2287.3</ele>
        <time>2021-02-20T10:18:39Z</time>
      </trkpt>
      <trkpt lat="45.16718" lon="5.94691">
        <ele>2289.3</ele>
        <time>2021-02-20T10:18:40Z</time>
      </trkpt>
      <trkpt lat="45.1672" lon="5.9469">
        <ele>2289.4</ele>
        <time>2021-02-20T10:18:41Z</time>
      </trkpt>
      <trkpt lat="45.1672" lon="5.9469">
        <ele>2289.5</ele>
        <time>2021-02-20T10:18:42Z</time>
      </trkpt>
      <trkpt lat="45.16721" lon="5.9469">
        <ele>2289.6</ele>
        <time>2021-02-20T10:18:43Z</time>
      </trkpt>
      <trkpt lat="45.16721" lon="5.94689">
        <ele>2289.7</ele>
        <time>2021-02-20T10:18:44Z</time>
      </trkpt>
      <trkpt lat="45.16722" lon="5.94689">
        <ele>2291.8</ele>
        <time>2021-02-20T10:18:45Z</time>
      </trkpt>
      <trkpt lat="45.16723" lon="5.94688">
        <ele>2291.8</ele>
        <time>2021-02-20T10:18:46Z</time>
      </trkpt>
      <trkpt lat="45.16724" lon="5.94688">
        <ele>2291.9</ele>
        <time>2021-02-20T10:18:47Z</time>
      </trkpt>
      <trkpt lat="45.16724" lon="5.94688">
        <ele>2292</ele>
        <time>2021-02-20T10:18:48Z</time>
      </trkpt>
      <trkpt lat="45.16724" lon="5.94687">
        <ele>2292.1</ele>
        <time>2021-02-20T10:18:49Z</time>
      </trkpt>
      <trkpt lat="45.16723" lon="5.94687">
        <ele>2292.2</ele>
        <time>2021-02-20T10:18:50Z</time>
      </trkpt>
      <trkpt lat="45.16723" lon="5.94687">
        <ele>2292.3</ele>
        <time>2021-02-20T10:18:51Z</time>
      </trkpt>
      <trkpt lat="45.16723" lon="5.94687">
        <ele>2292.4</ele>
        <time>2021-02-20T10:18:52Z</time>
      </trkpt>
      <trkpt lat="45.16723" lon="5.94687">
        <ele>2292.4</ele>
        <time>2021-02-20T10:18:53Z</time>
      </trkpt>
      <trkpt lat="45.16723" lon="5.94687">
        <ele>2292.5</ele>
        <time>2021-02-20T10:18:54Z</time>
      </trkpt>
      <trkpt lat="45.16723" lon="5.94686">
        <ele>2292.1</ele>
        <time>2021-02-20T10:18:55Z</time>
      </trkpt>
      <trkpt lat="45.16723" lon="5.94686">
        <ele>2292.2</ele>
        <time>2021-02-20T10:18:56Z</time>
      </trkpt>
      <trkpt lat="45.16723" lon="5.94685">
        <ele>2292.3</ele>
        <time>2021-02-20T10:18:57Z</time>
      </trkpt>
      <trkpt lat="45.16724" lon="5.94685">
        <ele>2292.4</ele>
        <time>2021-02-20T10:18:58Z</time>
      </trkpt>
      <trkpt lat="45.16725" lon="5.94684">
        <ele>2294.4</ele>
        <time>2021-02-20T10:18:59Z</time>
      </trkpt>
      <trkpt lat="45.16726" lon="5.94684">
        <ele>2294.5</ele>
        <time>2021-02-20T10:19:00Z</time>
      </trkpt>
      <trkpt lat="45.16726" lon="5.94683">
        <ele>2294.6</ele>
        <time>2021-02-20T10:19:01Z</time>
      </trkpt>
      <trkpt lat="45.16727" lon="5.94683">
        <ele>2294.7</ele>
        <time>2021-02-20T10:19:02Z</time>
      </trkpt>
      <trkpt lat="45.16727" lon="5.94682">
        <ele>2294.8</ele>
        <time>2021-02-20T10:19:03Z</time>
      </trkpt>
      <trkpt lat="45.16727" lon="5.94682">
        <ele>2294.4</ele>
        <time>2021-02-20T10:19:04Z</time>
      </trkpt>
      <trkpt lat="45.16727" lon="5.94681">
        <ele>2294.5</ele>
        <time>2021-02-20T10:19:05Z</time>
      </trkpt>
      <trkpt lat="45.16727" lon="5.94681">
        <ele>2296.6</ele>
        <time>2021-02-20T10:19:06Z</time>
      </trkpt>
      <trkpt lat="45.16727" lon="5.9468">
        <ele>2296.7</ele>
        <time>2021-02-20T10:19:07Z</time>
      </trkpt>
      <trkpt lat="45.16727" lon="5.9468">
        <ele>2294.7</ele>
        <time>2021-02-20T10:19:08Z</time>
      </trkpt>
      <trkpt lat="45.16727" lon="5.9468">
        <ele>2294.8</ele>
        <time>2021-02-20T10:19:09Z</time>
      </trkpt>
      <trkpt lat="45.16727" lon="5.94679">
        <ele>2294.9</ele>
        <time>2021-02-20T10:19:10Z</time>
      </trkpt>
      <trkpt lat="45.16728" lon="5.94678">
        <ele>2297.1</ele>
        <time>2021-02-20T10:19:11Z</time>
      </trkpt>
      <trkpt lat="45.16728" lon="5.94678">
        <ele>2296.7</ele>
        <time>2021-02-20T10:19:12Z</time>
      </trkpt>
      <trkpt lat="45.16729" lon="5.94677">
        <ele>2296.7</ele>
        <time>2021-02-20T10:19:13Z</time>
      </trkpt>
      <trkpt lat="45.1673" lon="5.94677">
        <ele>2296.8</ele>
        <time>2021-02-20T10:19:14Z</time>
      </trkpt>
      <trkpt lat="45.16731" lon="5.94677">
        <ele>2298.9</ele>
        <time>2021-02-20T10:19:15Z</time>
      </trkpt>
      <trkpt lat="45.16732" lon="5.94677">
        <ele>2299</ele>
        <time>2021-02-20T10:19:16Z</time>
      </trkpt>
      <trkpt lat="45.16733" lon="5.94676">
        <ele>2299.1</ele>
        <time>2021-02-20T10:19:17Z</time>
      </trkpt>
      <trkpt lat="45.16734" lon="5.94676">
        <ele>2301.1</ele>
        <time>2021-02-20T10:19:18Z</time>
      </trkpt>
      <trkpt lat="45.16735" lon="5.94675">
        <ele>2301.1</ele>
        <time>2021-02-20T10:19:19Z</time>
      </trkpt>
      <trkpt lat="45.16736" lon="5.94675">
        <ele>2301.2</ele>
        <time>2021-02-20T10:19:20Z</time>
      </trkpt>
      <trkpt lat="45.16737" lon="5.94674">
        <ele>2303.2</ele>
        <time>2021-02-20T10:19:21Z</time>
      </trkpt>
      <trkpt lat="45.16737" lon="5.94674">
        <ele>2303.3</ele>
        <time>2021-02-20T10:19:22Z</time>
      </trkpt>
      <trkpt lat="45.16737" lon="5.94674">
        <ele>2302.9</ele>
        <time>2021-02-20T10:19:23Z</time>
      </trkpt>
      <trkpt lat="45.16737" lon="5.94674">
        <ele>2303</ele>
        <time>2021-02-20T10:19:24Z</time>
      </trkpt>
      <trkpt lat="45.16737" lon="5.94674">
        <ele>2303.1</ele>
        <time>2021-02-20T10:19:25Z</time>
      </trkpt>
      <trkpt lat="45.16737" lon="5.94673">
        <ele>2303.1</ele>
        <time>2021-02-20T10:19:26Z</time>
      </trkpt>
      <trkpt lat="45.16738" lon="5.94672">
        <ele>2303.2</ele>
        <time>2021-02-20T10:19:27Z</time>
      </trkpt>
      <trkpt lat="45.16738" lon="5.94672">
        <ele>2303.3</ele>
        <time>2021-02-20T10:19:28Z</time>
      </trkpt>
      <trkpt lat="45.16738" lon="5.94671">
        <ele>2303.4</ele>
        <time>2021-02-20T10:19:29Z</time>
      </trkpt>
      <trkpt lat="45.16738" lon="5.94671">
        <ele>2303.5</ele>
        <time>2021-02-20T10:19:30Z</time>
      </trkpt>
      <trkpt lat="45.16739" lon="5.9467">
        <ele>2303.6</ele>
        <time>2021-02-20T10:19:31Z</time>
      </trkpt>
      <trkpt lat="45.1674" lon="5.9467">
        <ele>2305.6</ele>
        <time>2021-02-20T10:19:32Z</time>
      </trkpt>
      <trkpt lat="45.16741" lon="5.94669">
        <ele>2305.6</ele>
        <time>2021-02-20T10:19:33Z</time>
      </trkpt>
      <trkpt lat="45.16742" lon="5.94669">
        <ele>2305.2</ele>
        <time>2021-02-20T10:19:34Z</time>
      </trkpt>
      <trkpt lat="45.16743" lon="5.94668">
        <ele>2307.4</ele>
        <time>2021-02-20T10:19:35Z</time>
      </trkpt>
      <trkpt lat="45.16744" lon="5.94668">
        <ele>2307.5</ele>
        <time>2021-02-20T10:19:36Z</time>
      </trkpt>
      <trkpt lat="45.16744" lon="5.94668">
        <ele>2307.6</ele>
        <time>2021-02-20T10:19:37Z</time>
      </trkpt>
      <trkpt lat="45.16745" lon="5.94667">
        <ele>2307.7</ele>
        <time>2021-02-20T10:19:38Z</time>
      </trkpt>
      <trkpt lat="45.16746" lon="5.94667">
        <ele>2310</ele>
        <time>2021-02-20T10:19:39Z</time>
      </trkpt>
      <trkpt lat="45.16747" lon="5.94666">
        <ele>2310.1</ele>
        <time>2021-02-20T10:19:40Z</time>
      </trkpt>
      <trkpt lat="45.16748" lon="5.94666">
        <ele>2310.2</ele>
        <time>2021-02-20T10:19:41Z</time>
      </trkpt>
      <trkpt lat="45.16748" lon="5.94665">
        <ele>2309.8</ele>
        <time>2021-02-20T10:19:42Z</time>
      </trkpt>
      <trkpt lat="45.16749" lon="5.94664">
        <ele>2309.9</ele>
        <time>2021-02-20T10:19:43Z</time>
      </trkpt>
      <trkpt lat="45.16749" lon="5.94664">
        <ele>2310</ele>
        <time>2021-02-20T10:19:44Z</time>
      </trkpt>
      <trkpt lat="45.16749" lon="5.94664">
        <ele>2312.6</ele>
        <time>2021-02-20T10:19:45Z</time>
      </trkpt>
      <trkpt lat="45.16749" lon="5.94663">
        <ele>2312.6</ele>
        <time>2021-02-20T10:19:46Z</time>
      </trkpt>
      <trkpt lat="45.16749" lon="5.94662">
        <ele>2312.7</ele>
        <time>2021-02-20T10:19:47Z</time>
      </trkpt>
      <trkpt lat="45.16749" lon="5.94661">
        <ele>2312.8</ele>
        <time>2021-02-20T10:19:48Z</time>
      </trkpt>
      <trkpt lat="45.16749" lon="5.9466">
        <ele>2312.4</ele>
        <time>2021-02-20T10:19:49Z</time>
      </trkpt>
      <trkpt lat="45.1675" lon="5.9466">
        <ele>2312.5</ele>
        <time>2021-02-20T10:19:50Z</time>
      </trkpt>
      <trkpt lat="45.1675" lon="5.94659">
        <ele>2312.6</ele>
        <time>2021-02-20T10:19:51Z</time>
      </trkpt>
      <trkpt lat="45.16749" lon="5.94659">
        <ele>2312.7</ele>
        <time>2021-02-20T10:19:52Z</time>
      </trkpt>
      <trkpt lat="45.16749" lon="5.94659">
        <ele>2312.7</ele>
        <time>2021-02-20T10:19:53Z</time>
      </trkpt>
      <trkpt lat="45.16749" lon="5.94658">
        <ele>2312.8</ele>
        <time>2021-02-20T10:19:54Z</time>
      </trkpt>
      <trkpt lat="45.16749" lon="5.94658">
        <ele>2312.9</ele>
        <time>2021-02-20T10:19:55Z</time>
      </trkpt>
      <trkpt lat="45.16749" lon="5.94658">
        <ele>2313</ele>
        <time>2021-02-20T10:19:56Z</time>
      </trkpt>
      <trkpt lat="45.16749" lon="5.94657">
        <ele>2313.1</ele>
        <time>2021-02-20T10:19:57Z</time>
      </trkpt>
      <trkpt lat="45.16749" lon="5.94656">
        <ele>2312.8</ele>
        <time>2021-02-20T10:19:58Z</time>
      </trkpt>
      <trkpt lat="45.16748" lon="5.94656">
        <ele>2310.3</ele>
        <time>2021-02-20T10:19:59Z</time>
      </trkpt>
      <trkpt lat="45.16747" lon="5.94655">
        <ele>2310.4</ele>
        <time>2021-02-20T10:20:00Z</time>
      </trkpt>
      <trkpt lat="45.16747" lon="5.94655">
        <ele>2310.5</ele>
        <time>2021-02-20T10:20:01Z</time>
      </trkpt>
      <trkpt lat="45.16746" lon="5.94653">
        <ele>2310.6</ele>
        <time>2021-02-20T10:20:02Z</time>
      </trkpt>
      <trkpt lat="45.16747" lon="5.94653">
        <ele>2310.6</ele>
        <time>2021-02-20T10:20:03Z</time>
      </trkpt>
      <trkpt lat="45.16748" lon="5.94652">
        <ele>2310.3</ele>
        <time>2021-02-20T10:20:04Z</time>
      </trkpt>
      <trkpt lat="45.16748" lon="5.94652">
        <ele>2310.3</ele>
        <time>2021-02-20T10:20:05Z</time>
      </trkpt>
      <trkpt lat="45.16749" lon="5.94652">
        <ele>2312.7</ele>
        <time>2021-02-20T10:20:06Z</time>
      </trkpt>
      <trkpt lat="45.16749" lon="5.94651">
        <ele>2312.7</ele>
        <time>2021-02-20T10:20:07Z</time>
      </trkpt>
      <trkpt lat="45.16749" lon="5.94651">
        <ele>2312.7</ele>
        <time>2021-02-20T10:20:08Z</time>
      </trkpt>
      <trkpt lat="45.16749" lon="5.94651">
        <ele>2312.7</ele>
        <time>2021-02-20T10:20:09Z</time>
      </trkpt>
      <trkpt lat="45.16749" lon="5.94651">
        <ele>2312.7</ele>
        <time>2021-02-20T10:20:10Z</time>
      </trkpt>
      <trkpt lat="45.16749" lon="5.94651">
        <ele>2312.7</ele>
        <time>2021-02-20T10:20:11Z</time>
      </trkpt>
      <trkpt lat="45.16749" lon="5.94651">
        <ele>2312.7</ele>
        <time>2021-02-20T10:20:12Z</time>
      </trkpt>
      <trkpt lat="45.16752" lon="5.9465">
        <ele>2315.2</ele>
        <time>2021-02-20T10:20:13Z</time>
      </trkpt>
      <trkpt lat="45.16752" lon="5.9465">
        <ele>2315.2</ele>
        <time>2021-02-20T10:20:14Z</time>
      </trkpt>
      <trkpt lat="45.16752" lon="5.94651">
        <ele>2315.2</ele>
        <time>2021-02-20T10:20:15Z</time>
      </trkpt>
      <trkpt lat="45.16752" lon="5.94651">
        <ele>2315.2</ele>
        <time>2021-02-20T10:20:16Z</time>
      </trkpt>
      <trkpt lat="45.16752" lon="5.94651">
        <ele>2315.2</ele>
        <time>2021-02-20T10:20:17Z</time>
      </trkpt>
      <trkpt lat="45.16752" lon="5.94651">
        <ele>2315.2</ele>
        <time>2021-02-20T10:20:18Z</time>
      </trkpt>
      <trkpt lat="45.16752" lon="5.94651">
        <ele>2315.2</ele>
        <time>2021-02-20T10:20:19Z</time>
      </trkpt>
      <trkpt lat="45.16752" lon="5.94651">
        <ele>2315.2</ele>
        <time>2021-02-20T10:20:20Z</time>
      </trkpt>
      <trkpt lat="45.16752" lon="5.94651">
        <ele>2315.2</ele>
        <time>2021-02-20T10:20:21Z</time>
      </trkpt>
      <trkpt lat="45.16752" lon="5.94651">
        <ele>2315.2</ele>
        <time>2021-02-20T10:20:22Z</time>
      </trkpt>
      <trkpt lat="45.16752" lon="5.94651">
        <ele>2315.2</ele>
        <time>2021-02-20T10:20:23Z</time>
      </trkpt>
      <trkpt lat="45.16752" lon="5.94649">
        <ele>2315.2</ele>
        <time>2021-02-20T10:20:24Z</time>
      </trkpt>
      <trkpt lat="45.16753" lon="5.9465">
        <ele>2315.2</ele>
        <time>2021-02-20T10:20:25Z</time>
      </trkpt>
      <trkpt lat="45.16753" lon="5.94651">
        <ele>2315.2</ele>
        <time>2021-02-20T10:20:26Z</time>
      </trkpt>
      <trkpt lat="45.16753" lon="5.94651">
        <ele>2315.2</ele>
        <time>2021-02-20T10:20:27Z</time>
      </trkpt>
      <trkpt lat="45.16753" lon="5.94652">
        <ele>2315.2</ele>
        <time>2021-02-20T10:20:28Z</time>
      </trkpt>
      <trkpt lat="45.16753" lon="5.94653">
        <ele>2315.6</ele>
        <time>2021-02-20T10:20:29Z</time>
      </trkpt>
      <trkpt lat="45.16753" lon="5.94654">
        <ele>2315.6</ele>
        <time>2021-02-20T10:20:30Z</time>
      </trkpt>
      <trkpt lat="45.16754" lon="5.94655">
        <ele>2315.6</ele>
        <time>2021-02-20T10:20:31Z</time>
      </trkpt>
      <trkpt lat="45.16754" lon="5.94656">
        <ele>2315.6</ele>
        <time>2021-02-20T10:20:32Z</time>
      </trkpt>
      <trkpt lat="45.16755" lon="5.94657">
        <ele>2318.5</ele>
        <time>2021-02-20T10:20:33Z</time>
      </trkpt>
      <trkpt lat="45.16755" lon="5.94658">
        <ele>2318.5</ele>
        <time>2021-02-20T10:20:34Z</time>
      </trkpt>
      <trkpt lat="45.16756" lon="5.9466">
        <ele>2318.5</ele>
        <time>2021-02-20T10:20:35Z</time>
      </trkpt>
      <trkpt lat="45.16756" lon="5.94661">
        <ele>2319</ele>
        <time>2021-02-20T10:20:36Z</time>
      </trkpt>
      <trkpt lat="45.16756" lon="5.94662">
        <ele>2319</ele>
        <time>2021-02-20T10:20:37Z</time>
      </trkpt>
      <trkpt lat="45.16757" lon="5.94663">
        <ele>2319</ele>
        <time>2021-02-20T10:20:38Z</time>
      </trkpt>
      <trkpt lat="45.16757" lon="5.94664">
        <ele>2319</ele>
        <time>2021-02-20T10:20:39Z</time>
      </trkpt>
      <trkpt lat="45.16758" lon="5.94665">
        <ele>2321.3</ele>
        <time>2021-02-20T10:20:40Z</time>
      </trkpt>
      <trkpt lat="45.16758" lon="5.94666">
        <ele>2321.8</ele>
        <time>2021-02-20T10:20:41Z</time>
      </trkpt>
      <trkpt lat="45.16759" lon="5.94667">
        <ele>2321.8</ele>
        <time>2021-02-20T10:20:42Z</time>
      </trkpt>
      <trkpt lat="45.16759" lon="5.94667">
        <ele>2321.8</ele>
        <time>2021-02-20T10:20:43Z</time>
      </trkpt>
      <trkpt lat="45.16759" lon="5.94668">
        <ele>2321.8</ele>
        <time>2021-02-20T10:20:44Z</time>
      </trkpt>
      <trkpt lat="45.16759" lon="5.94669">
        <ele>2321.8</ele>
        <time>2021-02-20T10:20:45Z</time>
      </trkpt>
      <trkpt lat="45.16759" lon="5.9467">
        <ele>2322.3</ele>
        <time>2021-02-20T10:20:46Z</time>
      </trkpt>
      <trkpt lat="45.16759" lon="5.9467">
        <ele>2322.3</ele>
        <time>2021-02-20T10:20:47Z</time>
      </trkpt>
      <trkpt lat="45.16759" lon="5.94671">
        <ele>2322.3</ele>
        <time>2021-02-20T10:20:48Z</time>
      </trkpt>
      <trkpt lat="45.16759" lon="5.94672">
        <ele>2322.3</ele>
        <time>2021-02-20T10:20:49Z</time>
      </trkpt>
      <trkpt lat="45.1676" lon="5.94673">
        <ele>2322.3</ele>
        <time>2021-02-20T10:20:50Z</time>
      </trkpt>
      <trkpt lat="45.1676" lon="5.94673">
        <ele>2322.3</ele>
        <time>2021-02-20T10:20:51Z</time>
      </trkpt>
      <trkpt lat="45.1676" lon="5.94674">
        <ele>2322.8</ele>
        <time>2021-02-20T10:20:52Z</time>
      </trkpt>
      <trkpt lat="45.1676" lon="5.94675">
        <ele>2322.8</ele>
        <time>2021-02-20T10:20:53Z</time>
      </trkpt>
      <trkpt lat="45.1676" lon="5.94676">
        <ele>2322.8</ele>
        <time>2021-02-20T10:20:54Z</time>
      </trkpt>
      <trkpt lat="45.16761" lon="5.94677">
        <ele>2325</ele>
        <time>2021-02-20T10:20:55Z</time>
      </trkpt>
      <trkpt lat="45.16761" lon="5.94677">
        <ele>2325</ele>
        <time>2021-02-20T10:20:56Z</time>
      </trkpt>
      <trkpt lat="45.16762" lon="5.94678">
        <ele>2325</ele>
        <time>2021-02-20T10:20:57Z</time>
      </trkpt>
      <trkpt lat="45.16762" lon="5.94679">
        <ele>2325.5</ele>
        <time>2021-02-20T10:20:58Z</time>
      </trkpt>
      <trkpt lat="45.16762" lon="5.94679">
        <ele>2325.5</ele>
        <time>2021-02-20T10:20:59Z</time>
      </trkpt>
      <trkpt lat="45.16762" lon="5.9468">
        <ele>2325.5</ele>
        <time>2021-02-20T10:21:00Z</time>
      </trkpt>
      <trkpt lat="45.16763" lon="5.9468">
        <ele>2325.5</ele>
        <time>2021-02-20T10:21:01Z</time>
      </trkpt>
      <trkpt lat="45.16763" lon="5.94681">
        <ele>2325.5</ele>
        <time>2021-02-20T10:21:02Z</time>
      </trkpt>
      <trkpt lat="45.16763" lon="5.94681">
        <ele>2325.5</ele>
        <time>2021-02-20T10:21:03Z</time>
      </trkpt>
      <trkpt lat="45.16763" lon="5.94682">
        <ele>2325.5</ele>
        <time>2021-02-20T10:21:04Z</time>
      </trkpt>
      <trkpt lat="45.16763" lon="5.94683">
        <ele>2325.9</ele>
        <time>2021-02-20T10:21:05Z</time>
      </trkpt>
      <trkpt lat="45.16763" lon="5.94684">
        <ele>2325.9</ele>
        <time>2021-02-20T10:21:06Z</time>
      </trkpt>
      <trkpt lat="45.16763" lon="5.94685">
        <ele>2325.9</ele>
        <time>2021-02-20T10:21:07Z</time>
      </trkpt>
      <trkpt lat="45.16764" lon="5.94685">
        <ele>2325.9</ele>
        <time>2021-02-20T10:21:08Z</time>
      </trkpt>
      <trkpt lat="45.16764" lon="5.94685">
        <ele>2328.1</ele>
        <time>2021-02-20T10:21:09Z</time>
      </trkpt>
      <trkpt lat="45.16764" lon="5.94686">
        <ele>2328.1</ele>
        <time>2021-02-20T10:21:10Z</time>
      </trkpt>
      <trkpt lat="45.16764" lon="5.94686">
        <ele>2328.1</ele>
        <time>2021-02-20T10:21:11Z</time>
      </trkpt>
      <trkpt lat="45.16764" lon="5.94686">
        <ele>2328.1</ele>
        <time>2021-02-20T10:21:12Z</time>
      </trkpt>
      <trkpt lat="45.16764" lon="5.94686">
        <ele>2328.1</ele>
        <time>2021-02-20T10:21:13Z</time>
      </trkpt>
      <trkpt lat="45.16764" lon="5.94687">
        <ele>2328.5</ele>
        <time>2021-02-20T10:21:14Z</time>
      </trkpt>
      <trkpt lat="45.16764" lon="5.94687">
        <ele>2328.5</ele>
        <time>2021-02-20T10:21:15Z</time>
      </trkpt>
      <trkpt lat="45.16764" lon="5.94688">
        <ele>2328.5</ele>
        <time>2021-02-20T10:21:16Z</time>
      </trkpt>
      <trkpt lat="45.16764" lon="5.94689">
        <ele>2328.5</ele>
        <time>2021-02-20T10:21:17Z</time>
      </trkpt>
      <trkpt lat="45.16765" lon="5.94689">
        <ele>2328.5</ele>
        <time>2021-02-20T10:21:18Z</time>
      </trkpt>
      <trkpt lat="45.16765" lon="5.9469">
        <ele>2328.5</ele>
        <time>2021-02-20T10:21:19Z</time>
      </trkpt>
      <trkpt lat="45.16765" lon="5.94691">
        <ele>2328.5</ele>
        <time>2021-02-20T10:21:20Z</time>
      </trkpt>
      <trkpt lat="45.16765" lon="5.94692">
        <ele>2328.9</ele>
        <time>2021-02-20T10:21:21Z</time>
      </trkpt>
      <trkpt lat="45.16766" lon="5.94693">
        <ele>2328.9</ele>
        <time>2021-02-20T10:21:22Z</time>
      </trkpt>
      <trkpt lat="45.16766" lon="5.94693">
        <ele>2328.9</ele>
        <time>2021-02-20T10:21:23Z</time>
      </trkpt>
      <trkpt lat="45.16766" lon="5.94694">
        <ele>2328.9</ele>
        <time>2021-02-20T10:21:24Z</time>
      </trkpt>
      <trkpt lat="45.16766" lon="5.94695">
        <ele>2328.9</ele>
        <time>2021-02-20T10:21:25Z</time>
      </trkpt>
      <trkpt lat="45.16766" lon="5.94696">
        <ele>2329.4</ele>
        <time>2021-02-20T10:21:26Z</time>
      </trkpt>
      <trkpt lat="45.16766" lon="5.94696">
        <ele>2329.4</ele>
        <time>2021-02-20T10:21:27Z</time>
      </trkpt>
      <trkpt lat="45.16766" lon="5.94697">
        <ele>2329.4</ele>
        <time>2021-02-20T10:21:28Z</time>
      </trkpt>
      <trkpt lat="45.16766" lon="5.94698">
        <ele>2329.4</ele>
        <time>2021-02-20T10:21:29Z</time>
      </trkpt>
      <trkpt lat="45.16767" lon="5.94699">
        <ele>2329.4</ele>
        <time>2021-02-20T10:21:30Z</time>
      </trkpt>
      <trkpt lat="45.16767" lon="5.94699">
        <ele>2329.4</ele>
        <time>2021-02-20T10:21:31Z</time>
      </trkpt>
      <trkpt lat="45.16767" lon="5.94699">
        <ele>2329.4</ele>
        <time>2021-02-20T10:21:32Z</time>
      </trkpt>
      <trkpt lat="45.16767" lon="5.94699">
        <ele>2329.4</ele>
        <time>2021-02-20T10:21:33Z</time>
      </trkpt>
      <trkpt lat="45.16766" lon="5.94698">
        <ele>2329.4</ele>
        <time>2021-02-20T10:21:34Z</time>
      </trkpt>
      <trkpt lat="45.16766" lon="5.94698">
        <ele>2329.4</ele>
        <time>2021-02-20T10:21:35Z</time>
      </trkpt>
      <trkpt lat="45.16766" lon="5.94698">
        <ele>2329.4</ele>
        <time>2021-02-20T10:21:36Z</time>
      </trkpt>
      <trkpt lat="45.16766" lon="5.94698">
        <ele>2329.4</ele>
        <time>2021-02-20T10:21:37Z</time>
      </trkpt>
      <trkpt lat="45.16766" lon="5.94698">
        <ele>2329.4</ele>
        <time>2021-02-20T10:21:38Z</time>
      </trkpt>
      <trkpt lat="45.16767" lon="5.94697">
        <ele>2329.4</ele>
        <time>2021-02-20T10:21:39Z</time>
      </trkpt>
      <trkpt lat="45.16767" lon="5.94696">
        <ele>2331.6</ele>
        <time>2021-02-20T10:21:40Z</time>
      </trkpt>
      <trkpt lat="45.16767" lon="5.94696">
        <ele>2331.6</ele>
        <time>2021-02-20T10:21:41Z</time>
      </trkpt>
      <trkpt lat="45.16767" lon="5.94696">
        <ele>2329.4</ele>
        <time>2021-02-20T10:21:42Z</time>
      </trkpt>
      <trkpt lat="45.16767" lon="5.94696">
        <ele>2331.6</ele>
        <time>2021-02-20T10:21:43Z</time>
      </trkpt>
      <trkpt lat="45.16767" lon="5.94695">
        <ele>2331.6</ele>
        <time>2021-02-20T10:21:44Z</time>
      </trkpt>
      <trkpt lat="45.16767" lon="5.94695">
        <ele>2331.2</ele>
        <time>2021-02-20T10:21:45Z</time>
      </trkpt>
      <trkpt lat="45.16767" lon="5.94694">
        <ele>2331.2</ele>
        <time>2021-02-20T10:21:46Z</time>
      </trkpt>
      <trkpt lat="45.16767" lon="5.94694">
        <ele>2331.2</ele>
        <time>2021-02-20T10:21:47Z</time>
      </trkpt>
      <trkpt lat="45.16767" lon="5.94693">
        <ele>2331.2</ele>
        <time>2021-02-20T10:21:48Z</time>
      </trkpt>
      <trkpt lat="45.16767" lon="5.94693">
        <ele>2331.2</ele>
        <time>2021-02-20T10:21:49Z</time>
      </trkpt>
      <trkpt lat="45.16767" lon="5.94692">
        <ele>2331.2</ele>
        <time>2021-02-20T10:21:50Z</time>
      </trkpt>
      <trkpt lat="45.16767" lon="5.94691">
        <ele>2331.2</ele>
        <time>2021-02-20T10:21:51Z</time>
      </trkpt>
      <trkpt lat="45.16767" lon="5.94691">
        <ele>2331.2</ele>
        <time>2021-02-20T10:21:52Z</time>
      </trkpt>
      <trkpt lat="45.16767" lon="5.94691">
        <ele>2331.2</ele>
        <time>2021-02-20T10:21:53Z</time>
      </trkpt>
      <trkpt lat="45.16767" lon="5.94691">
        <ele>2331.2</ele>
        <time>2021-02-20T10:21:54Z</time>
      </trkpt>
      <trkpt lat="45.16768" lon="5.94691">
        <ele>2331.2</ele>
        <time>2021-02-20T10:21:55Z</time>
      </trkpt>
      <trkpt lat="45.16768" lon="5.9469">
        <ele>2330.8</ele>
        <time>2021-02-20T10:21:56Z</time>
      </trkpt>
      <trkpt lat="45.16769" lon="5.94689">
        <ele>2330.8</ele>
        <time>2021-02-20T10:21:57Z</time>
      </trkpt>
      <trkpt lat="45.16769" lon="5.94688">
        <ele>2330.8</ele>
        <time>2021-02-20T10:21:58Z</time>
      </trkpt>
      <trkpt lat="45.16769" lon="5.94687">
        <ele>2330.8</ele>
        <time>2021-02-20T10:21:59Z</time>
      </trkpt>
      <trkpt lat="45.16769" lon="5.94687">
        <ele>2330.8</ele>
        <time>2021-02-20T10:22:00Z</time>
      </trkpt>
      <trkpt lat="45.16769" lon="5.94686">
        <ele>2330.4</ele>
        <time>2021-02-20T10:22:01Z</time>
      </trkpt>
      <trkpt lat="45.16769" lon="5.94685">
        <ele>2330.4</ele>
        <time>2021-02-20T10:22:02Z</time>
      </trkpt>
      <trkpt lat="45.1677" lon="5.94685">
        <ele>2332.8</ele>
        <time>2021-02-20T10:22:03Z</time>
      </trkpt>
      <trkpt lat="45.1677" lon="5.94684">
        <ele>2332.8</ele>
        <time>2021-02-20T10:22:04Z</time>
      </trkpt>
      <trkpt lat="45.1677" lon="5.94684">
        <ele>2332.8</ele>
        <time>2021-02-20T10:22:05Z</time>
      </trkpt>
      <trkpt lat="45.16771" lon="5.94684">
        <ele>2332.8</ele>
        <time>2021-02-20T10:22:06Z</time>
      </trkpt>
      <trkpt lat="45.16771" lon="5.94683">
        <ele>2332.8</ele>
        <time>2021-02-20T10:22:07Z</time>
      </trkpt>
      <trkpt lat="45.16771" lon="5.94682">
        <ele>2332.4</ele>
        <time>2021-02-20T10:22:08Z</time>
      </trkpt>
      <trkpt lat="45.16772" lon="5.94681">
        <ele>2332.4</ele>
        <time>2021-02-20T10:22:09Z</time>
      </trkpt>
      <trkpt lat="45.16772" lon="5.9468">
        <ele>2332.4</ele>
        <time>2021-02-20T10:22:10Z</time>
      </trkpt>
      <trkpt lat="45.16773" lon="5.9468">
        <ele>2335</ele>
        <time>2021-02-20T10:22:11Z</time>
      </trkpt>
      <trkpt lat="45.16773" lon="5.94679">
        <ele>2335</ele>
        <time>2021-02-20T10:22:12Z</time>
      </trkpt>
      <trkpt lat="45.16774" lon="5.94678">
        <ele>2335</ele>
        <time>2021-02-20T10:22:13Z</time>
      </trkpt>
      <trkpt lat="45.16774" lon="5.94678">
        <ele>2334.5</ele>
        <time>2021-02-20T10:22:14Z</time>
      </trkpt>
      <trkpt lat="45.16774" lon="5.94677">
        <ele>2334.5</ele>
        <time>2021-02-20T10:22:15Z</time>
      </trkpt>
      <trkpt lat="45.16774" lon="5.94676">
        <ele>2334.5</ele>
        <time>2021-02-20T10:22:16Z</time>
      </trkpt>
      <trkpt lat="45.16773" lon="5.94675">
        <ele>2334.5</ele>
        <time>2021-02-20T10:22:17Z</time>
      </trkpt>
      <trkpt lat="45.16773" lon="5.94674">
        <ele>2334</ele>
        <time>2021-02-20T10:22:18Z</time>
      </trkpt>
      <trkpt lat="45.16774" lon="5.94672">
        <ele>2334</ele>
        <time>2021-02-20T10:22:19Z</time>
      </trkpt>
      <trkpt lat="45.16774" lon="5.94671">
        <ele>2334</ele>
        <time>2021-02-20T10:22:20Z</time>
      </trkpt>
      <trkpt lat="45.16775" lon="5.9467">
        <ele>2334</ele>
        <time>2021-02-20T10:22:21Z</time>
      </trkpt>
      <trkpt lat="45.16775" lon="5.9467">
        <ele>2334</ele>
        <time>2021-02-20T10:22:22Z</time>
      </trkpt>
      <trkpt lat="45.16775" lon="5.9467">
        <ele>2334</ele>
        <time>2021-02-20T10:22:23Z</time>
      </trkpt>
      <trkpt lat="45.16775" lon="5.9467">
        <ele>2334</ele>
        <time>2021-02-20T10:22:24Z</time>
      </trkpt>
      <trkpt lat="45.16776" lon="5.9467">
        <ele>2334</ele>
        <time>2021-02-20T10:22:25Z</time>
      </trkpt>
      <trkpt lat="45.16776" lon="5.9467">
        <ele>2334</ele>
        <time>2021-02-20T10:22:26Z</time>
      </trkpt>
      <trkpt lat="45.16776" lon="5.9467">
        <ele>2336.7</ele>
        <time>2021-02-20T10:22:27Z</time>
      </trkpt>
      <trkpt lat="45.16776" lon="5.9467">
        <ele>2336.7</ele>
        <time>2021-02-20T10:22:28Z</time>
      </trkpt>
      <trkpt lat="45.16776" lon="5.9467">
        <ele>2336.7</ele>
        <time>2021-02-20T10:22:29Z</time>
      </trkpt>
      <trkpt lat="45.16776" lon="5.9467">
        <ele>2336.7</ele>
        <time>2021-02-20T10:22:30Z</time>
      </trkpt>
      <trkpt lat="45.16776" lon="5.9467">
        <ele>2336.7</ele>
        <time>2021-02-20T10:22:31Z</time>
      </trkpt>
      <trkpt lat="45.16777" lon="5.9467">
        <ele>2336.7</ele>
        <time>2021-02-20T10:22:32Z</time>
      </trkpt>
      <trkpt lat="45.16777" lon="5.9467">
        <ele>2336.7</ele>
        <time>2021-02-20T10:22:33Z</time>
      </trkpt>
      <trkpt lat="45.16777" lon="5.9467">
        <ele>2336.7</ele>
        <time>2021-02-20T10:22:34Z</time>
      </trkpt>
      <trkpt lat="45.16777" lon="5.9467">
        <ele>2336.7</ele>
        <time>2021-02-20T10:22:35Z</time>
      </trkpt>
      <trkpt lat="45.16777" lon="5.9467">
        <ele>2336.7</ele>
        <time>2021-02-20T10:22:36Z</time>
      </trkpt>
      <trkpt lat="45.16777" lon="5.9467">
        <ele>2336.7</ele>
        <time>2021-02-20T10:22:37Z</time>
      </trkpt>
      <trkpt lat="45.16777" lon="5.9467">
        <ele>2336.7</ele>
        <time>2021-02-20T10:22:38Z</time>
      </trkpt>
      <trkpt lat="45.16778" lon="5.9467">
        <ele>2336.7</ele>
        <time>2021-02-20T10:22:39Z</time>
      </trkpt>
      <trkpt lat="45.16778" lon="5.9467">
        <ele>2336.7</ele>
        <time>2021-02-20T10:22:40Z</time>
      </trkpt>
      <trkpt lat="45.16778" lon="5.9467">
        <ele>2336.7</ele>
        <time>2021-02-20T10:22:41Z</time>
      </trkpt>
      <trkpt lat="45.16778" lon="5.9467">
        <ele>2336.7</ele>
        <time>2021-02-20T10:22:42Z</time>
      </trkpt>
      <trkpt lat="45.16778" lon="5.9467">
        <ele>2336.7</ele>
        <time>2021-02-20T10:22:43Z</time>
      </trkpt>
      <trkpt lat="45.16779" lon="5.94671">
        <ele>2336.7</ele>
        <time>2021-02-20T10:22:44Z</time>
      </trkpt>
      <trkpt lat="45.16779" lon="5.94672">
        <ele>2339.3</ele>
        <time>2021-02-20T10:22:45Z</time>
      </trkpt>
      <trkpt lat="45.16779" lon="5.94673">
        <ele>2339.3</ele>
        <time>2021-02-20T10:22:46Z</time>
      </trkpt>
      <trkpt lat="45.16779" lon="5.94674">
        <ele>2339.9</ele>
        <time>2021-02-20T10:22:47Z</time>
      </trkpt>
      <trkpt lat="45.16779" lon="5.94675">
        <ele>2339.9</ele>
        <time>2021-02-20T10:22:48Z</time>
      </trkpt>
      <trkpt lat="45.16779" lon="5.94676">
        <ele>2339.9</ele>
        <time>2021-02-20T10:22:49Z</time>
      </trkpt>
      <trkpt lat="45.1678" lon="5.94677">
        <ele>2339.9</ele>
        <time>2021-02-20T10:22:50Z</time>
      </trkpt>
      <trkpt lat="45.1678" lon="5.94678">
        <ele>2340.4</ele>
        <time>2021-02-20T10:22:51Z</time>
      </trkpt>
      <trkpt lat="45.1678" lon="5.94679">
        <ele>2340.4</ele>
        <time>2021-02-20T10:22:52Z</time>
      </trkpt>
      <trkpt lat="45.1678" lon="5.9468">
        <ele>2340.4</ele>
        <time>2021-02-20T10:22:53Z</time>
      </trkpt>
      <trkpt lat="45.16781" lon="5.94681">
        <ele>2340.4</ele>
        <time>2021-02-20T10:22:54Z</time>
      </trkpt>
      <trkpt lat="45.16781" lon="5.94681">
        <ele>2340.4</ele>
        <time>2021-02-20T10:22:55Z</time>
      </trkpt>
      <trkpt lat="45.16781" lon="5.94682">
        <ele>2340.4</ele>
        <time>2021-02-20T10:22:56Z</time>
      </trkpt>
      <trkpt lat="45.16781" lon="5.94683">
        <ele>2340.9</ele>
        <time>2021-02-20T10:22:57Z</time>
      </trkpt>
      <trkpt lat="45.16781" lon="5.94684">
        <ele>2340.9</ele>
        <time>2021-02-20T10:22:58Z</time>
      </trkpt>
      <trkpt lat="45.16782" lon="5.94685">
        <ele>2340.9</ele>
        <time>2021-02-20T10:22:59Z</time>
      </trkpt>
      <trkpt lat="45.16782" lon="5.94686">
        <ele>2340.9</ele>
        <time>2021-02-20T10:23:00Z</time>
      </trkpt>
      <trkpt lat="45.16782" lon="5.94687">
        <ele>2343.8</ele>
        <time>2021-02-20T10:23:01Z</time>
      </trkpt>
      <trkpt lat="45.16782" lon="5.94687">
        <ele>2343.8</ele>
        <time>2021-02-20T10:23:02Z</time>
      </trkpt>
      <trkpt lat="45.16782" lon="5.94688">
        <ele>2343.8</ele>
        <time>2021-02-20T10:23:03Z</time>
      </trkpt>
      <trkpt lat="45.16782" lon="5.94689">
        <ele>2343.8</ele>
        <time>2021-02-20T10:23:04Z</time>
      </trkpt>
      <trkpt lat="45.16782" lon="5.9469">
        <ele>2343.8</ele>
        <time>2021-02-20T10:23:05Z</time>
      </trkpt>
      <trkpt lat="45.16783" lon="5.94691">
        <ele>2343.8</ele>
        <time>2021-02-20T10:23:06Z</time>
      </trkpt>
      <trkpt lat="45.16783" lon="5.94692">
        <ele>2344.2</ele>
        <time>2021-02-20T10:23:07Z</time>
      </trkpt>
      <trkpt lat="45.16783" lon="5.94692">
        <ele>2344.2</ele>
        <time>2021-02-20T10:23:08Z</time>
      </trkpt>
      <trkpt lat="45.16784" lon="5.94693">
        <ele>2344.2</ele>
        <time>2021-02-20T10:23:09Z</time>
      </trkpt>
      <trkpt lat="45.16784" lon="5.94694">
        <ele>2344.2</ele>
        <time>2021-02-20T10:23:10Z</time>
      </trkpt>
      <trkpt lat="45.16784" lon="5.94695">
        <ele>2344.2</ele>
        <time>2021-02-20T10:23:11Z</time>
      </trkpt>
      <trkpt lat="45.16784" lon="5.94695">
        <ele>2344.7</ele>
        <time>2021-02-20T10:23:12Z</time>
      </trkpt>
      <trkpt lat="45.16784" lon="5.94696">
        <ele>2344.7</ele>
        <time>2021-02-20T10:23:13Z</time>
      </trkpt>
      <trkpt lat="45.16784" lon="5.94696">
        <ele>2344.7</ele>
        <time>2021-02-20T10:23:14Z</time>
      </trkpt>
      <trkpt lat="45.16784" lon="5.94697">
        <ele>2344.7</ele>
        <time>2021-02-20T10:23:15Z</time>
      </trkpt>
      <trkpt lat="45.16784" lon="5.94697">
        <ele>2344.7</ele>
        <time>2021-02-20T10:23:16Z</time>
      </trkpt>
      <trkpt lat="45.16783" lon="5.94697">
        <ele>2344.7</ele>
        <time>2021-02-20T10:23:17Z</time>
      </trkpt>
      <trkpt lat="45.16783" lon="5.94697">
        <ele>2344.7</ele>
        <time>2021-02-20T10:23:18Z</time>
      </trkpt>
      <trkpt lat="45.16783" lon="5.94697">
        <ele>2344.7</ele>
        <time>2021-02-20T10:23:19Z</time>
      </trkpt>
      <trkpt lat="45.16783" lon="5.94697">
        <ele>2344.7</ele>
        <time>2021-02-20T10:23:20Z</time>
      </trkpt>
      <trkpt lat="45.16783" lon="5.94697">
        <ele>2344.7</ele>
        <time>2021-02-20T10:23:21Z</time>
      </trkpt>
      <trkpt lat="45.16783" lon="5.94697">
        <ele>2344.7</ele>
        <time>2021-02-20T10:23:22Z</time>
      </trkpt>
      <trkpt lat="45.16783" lon="5.94697">
        <ele>2344.7</ele>
        <time>2021-02-20T10:23:23Z</time>
      </trkpt>
      <trkpt lat="45.16783" lon="5.94697">
        <ele>2344.7</ele>
        <time>2021-02-20T10:23:24Z</time>
      </trkpt>
      <trkpt lat="45.16783" lon="5.94697">
        <ele>2344.7</ele>
        <time>2021-02-20T10:23:25Z</time>
      </trkpt>
      <trkpt lat="45.16784" lon="5.94696">
        <ele>2344.7</ele>
        <time>2021-02-20T10:23:26Z</time>
      </trkpt>
      <trkpt lat="45.16784" lon="5.94696">
        <ele>2344.7</ele>
        <time>2021-02-20T10:23:27Z</time>
      </trkpt>
      <trkpt lat="45.16784" lon="5.94696">
        <ele>2344.7</ele>
        <time>2021-02-20T10:23:28Z</time>
      </trkpt>
      <trkpt lat="45.16784" lon="5.94697">
        <ele>2344.7</ele>
        <time>2021-02-20T10:23:29Z</time>
      </trkpt>
      <trkpt lat="45.16784" lon="5.94697">
        <ele>2344.7</ele>
        <time>2021-02-20T10:23:30Z</time>
      </trkpt>
      <trkpt lat="45.16784" lon="5.94697">
        <ele>2344.7</ele>
        <time>2021-02-20T10:23:31Z</time>
      </trkpt>
      <trkpt lat="45.16784" lon="5.94696">
        <ele>2344.7</ele>
        <time>2021-02-20T10:23:32Z</time>
      </trkpt>
      <trkpt lat="45.16785" lon="5.94696">
        <ele>2344.7</ele>
        <time>2021-02-20T10:23:33Z</time>
      </trkpt>
      <trkpt lat="45.16785" lon="5.94696">
        <ele>2344.7</ele>
        <time>2021-02-20T10:23:34Z</time>
      </trkpt>
      <trkpt lat="45.16785" lon="5.94695">
        <ele>2347</ele>
        <time>2021-02-20T10:23:35Z</time>
      </trkpt>
      <trkpt lat="45.16786" lon="5.94695">
        <ele>2347</ele>
        <time>2021-02-20T10:23:36Z</time>
      </trkpt>
      <trkpt lat="45.16787" lon="5.94695">
        <ele>2346.5</ele>
        <time>2021-02-20T10:23:37Z</time>
      </trkpt>
      <trkpt lat="45.16787" lon="5.94694">
        <ele>2346.5</ele>
        <time>2021-02-20T10:23:38Z</time>
      </trkpt>
      <trkpt lat="45.16787" lon="5.94693">
        <ele>2346.5</ele>
        <time>2021-02-20T10:23:39Z</time>
      </trkpt>
      <trkpt lat="45.16787" lon="5.94692">
        <ele>2346.5</ele>
        <time>2021-02-20T10:23:40Z</time>
      </trkpt>
      <trkpt lat="45.16787" lon="5.94691">
        <ele>2346.1</ele>
        <time>2021-02-20T10:23:41Z</time>
      </trkpt>
      <trkpt lat="45.16787" lon="5.9469">
        <ele>2346.1</ele>
        <time>2021-02-20T10:23:42Z</time>
      </trkpt>
      <trkpt lat="45.16787" lon="5.94689">
        <ele>2346.1</ele>
        <time>2021-02-20T10:23:43Z</time>
      </trkpt>
      <trkpt lat="45.16788" lon="5.94689">
        <ele>2346.1</ele>
        <time>2021-02-20T10:23:44Z</time>
      </trkpt>
      <trkpt lat="45.16788" lon="5.9469">
        <ele>2346.1</ele>
        <time>2021-02-20T10:23:45Z</time>
      </trkpt>
      <trkpt lat="45.16788" lon="5.9469">
        <ele>2346.1</ele>
        <time>2021-02-20T10:23:46Z</time>
      </trkpt>
      <trkpt lat="45.16788" lon="5.9469">
        <ele>2346.1</ele>
        <time>2021-02-20T10:23:47Z</time>
      </trkpt>
      <trkpt lat="45.16787" lon="5.94689">
        <ele>2346.1</ele>
        <time>2021-02-20T10:23:48Z</time>
      </trkpt>
      <trkpt lat="45.16787" lon="5.94688">
        <ele>2346.1</ele>
        <time>2021-02-20T10:23:49Z</time>
      </trkpt>
      <trkpt lat="45.16787" lon="5.94687">
        <ele>2346.1</ele>
        <time>2021-02-20T10:23:50Z</time>
      </trkpt>
      <trkpt lat="45.16787" lon="5.94686">
        <ele>2345.6</ele>
        <time>2021-02-20T10:23:51Z</time>
      </trkpt>
      <trkpt lat="45.16788" lon="5.94685">
        <ele>2345.6</ele>
        <time>2021-02-20T10:23:52Z</time>
      </trkpt>
      <trkpt lat="45.16788" lon="5.94685">
        <ele>2345.6</ele>
        <time>2021-02-20T10:23:53Z</time>
      </trkpt>
      <trkpt lat="45.16788" lon="5.94685">
        <ele>2345.6</ele>
        <time>2021-02-20T10:23:54Z</time>
      </trkpt>
      <trkpt lat="45.16787" lon="5.94685">
        <ele>2345.6</ele>
        <time>2021-02-20T10:23:55Z</time>
      </trkpt>
      <trkpt lat="45.16787" lon="5.94685">
        <ele>2345.6</ele>
        <time>2021-02-20T10:23:56Z</time>
      </trkpt>
      <trkpt lat="45.16787" lon="5.94685">
        <ele>2345.6</ele>
        <time>2021-02-20T10:23:57Z</time>
      </trkpt>
      <trkpt lat="45.16788" lon="5.94686">
        <ele>2345.6</ele>
        <time>2021-02-20T10:23:58Z</time>
      </trkpt>
      <trkpt lat="45.16788" lon="5.94686">
        <ele>2345.6</ele>
        <time>2021-02-20T10:23:59Z</time>
      </trkpt>
      <trkpt lat="45.16788" lon="5.94686">
        <ele>2347.8</ele>
        <time>2021-02-20T10:24:00Z</time>
      </trkpt>
      <trkpt lat="45.16789" lon="5.94686">
        <ele>2347.8</ele>
        <time>2021-02-20T10:24:01Z</time>
      </trkpt>
      <trkpt lat="45.16789" lon="5.94686">
        <ele>2347.8</ele>
        <time>2021-02-20T10:24:02Z</time>
      </trkpt>
      <trkpt lat="45.16789" lon="5.94686">
        <ele>2347.8</ele>
        <time>2021-02-20T10:24:03Z</time>
      </trkpt>
      <trkpt lat="45.16789" lon="5.94686">
        <ele>2347.8</ele>
        <time>2021-02-20T10:24:04Z</time>
      </trkpt>
      <trkpt lat="45.16788" lon="5.94687">
        <ele>2348.3</ele>
        <time>2021-02-20T10:24:05Z</time>
      </trkpt>
      <trkpt lat="45.16789" lon="5.94686">
        <ele>2347.8</ele>
        <time>2021-02-20T10:24:06Z</time>
      </trkpt>
      <trkpt lat="45.16789" lon="5.94685">
        <ele>2347.8</ele>
        <time>2021-02-20T10:24:07Z</time>
      </trkpt>
      <trkpt lat="45.16789" lon="5.94683">
        <ele>2347.8</ele>
        <time>2021-02-20T10:24:08Z</time>
      </trkpt>
      <trkpt lat="45.1679" lon="5.94682">
        <ele>2347.3</ele>
        <time>2021-02-20T10:24:09Z</time>
      </trkpt>
      <trkpt lat="45.1679" lon="5.94681">
        <ele>2347.3</ele>
        <time>2021-02-20T10:24:10Z</time>
      </trkpt>
      <trkpt lat="45.1679" lon="5.9468">
        <ele>2347.3</ele>
        <time>2021-02-20T10:24:11Z</time>
      </trkpt>
      <trkpt lat="45.1679" lon="5.94679">
        <ele>2347.3</ele>
        <time>2021-02-20T10:24:12Z</time>
      </trkpt>
      <trkpt lat="45.16791" lon="5.94678">
        <ele>2346.8</ele>
        <time>2021-02-20T10:24:13Z</time>
      </trkpt>
      <trkpt lat="45.16791" lon="5.94676">
        <ele>2346.8</ele>
        <time>2021-02-20T10:24:14Z</time>
      </trkpt>
      <trkpt lat="45.16791" lon="5.94675">
        <ele>2346.8</ele>
        <time>2021-02-20T10:24:15Z</time>
      </trkpt>
      <trkpt lat="45.16791" lon="5.94673">
        <ele>2346.2</ele>
        <time>2021-02-20T10:24:16Z</time>
      </trkpt>
      <trkpt lat="45.16791" lon="5.94672">
        <ele>2346.2</ele>
        <time>2021-02-20T10:24:17Z</time>
      </trkpt>
      <trkpt lat="45.16791" lon="5.94671">
        <ele>2346.2</ele>
        <time>2021-02-20T10:24:18Z</time>
      </trkpt>
      <trkpt lat="45.16791" lon="5.94671">
        <ele>2346.2</ele>
        <time>2021-02-20T10:24:19Z</time>
      </trkpt>
      <trkpt lat="45.16791" lon="5.9467">
        <ele>2346.2</ele>
        <time>2021-02-20T10:24:20Z</time>
      </trkpt>
      <trkpt lat="45.16791" lon="5.9467">
        <ele>2346.2</ele>
        <time>2021-02-20T10:24:21Z</time>
      </trkpt>
      <trkpt lat="45.16791" lon="5.94669">
        <ele>2345.6</ele>
        <time>2021-02-20T10:24:22Z</time>
      </trkpt>
      <trkpt lat="45.16791" lon="5.94667">
        <ele>2345.6</ele>
        <time>2021-02-20T10:24:23Z</time>
      </trkpt>
      <trkpt lat="45.16791" lon="5.94666">
        <ele>2345.6</ele>
        <time>2021-02-20T10:24:24Z</time>
      </trkpt>
      <trkpt lat="45.1679" lon="5.94665">
        <ele>2345.6</ele>
        <time>2021-02-20T10:24:25Z</time>
      </trkpt>
      <trkpt lat="45.1679" lon="5.94665">
        <ele>2345.1</ele>
        <time>2021-02-20T10:24:26Z</time>
      </trkpt>
      <trkpt lat="45.1679" lon="5.94664">
        <ele>2345.1</ele>
        <time>2021-02-20T10:24:27Z</time>
      </trkpt>
      <trkpt lat="45.1679" lon="5.94663">
        <ele>2345.1</ele>
        <time>2021-02-20T10:24:28Z</time>
      </trkpt>
      <trkpt lat="45.1679" lon="5.94663">
        <ele>2345.1</ele>
        <time>2021-02-20T10:24:29Z</time>
      </trkpt>
      <trkpt lat="45.1679" lon="5.94661">
        <ele>2345.1</ele>
        <time>2021-02-20T10:24:30Z</time>
      </trkpt>
      <trkpt lat="45.1679" lon="5.94661">
        <ele>2344.5</ele>
        <time>2021-02-20T10:24:31Z</time>
      </trkpt>
      <trkpt lat="45.1679" lon="5.9466">
        <ele>2344.5</ele>
        <time>2021-02-20T10:24:32Z</time>
      </trkpt>
      <trkpt lat="45.1679" lon="5.94659">
        <ele>2344.5</ele>
        <time>2021-02-20T10:24:33Z</time>
      </trkpt>
      <trkpt lat="45.1679" lon="5.94659">
        <ele>2344.5</ele>
        <time>2021-02-20T10:24:34Z</time>
      </trkpt>
      <trkpt lat="45.1679" lon="5.94658">
        <ele>2344.5</ele>
        <time>2021-02-20T10:24:35Z</time>
      </trkpt>
      <trkpt lat="45.16791" lon="5.94658">
        <ele>2344.5</ele>
        <time>2021-02-20T10:24:36Z</time>
      </trkpt>
      <trkpt lat="45.16791" lon="5.94657">
        <ele>2346.7</ele>
        <time>2021-02-20T10:24:37Z</time>
      </trkpt>
      <trkpt lat="45.16791" lon="5.94657">
        <ele>2346.7</ele>
        <time>2021-02-20T10:24:38Z</time>
      </trkpt>
      <trkpt lat="45.16791" lon="5.94657">
        <ele>2346.7</ele>
        <time>2021-02-20T10:24:39Z</time>
      </trkpt>
      <trkpt lat="45.16791" lon="5.94656">
        <ele>2346.2</ele>
        <time>2021-02-20T10:24:40Z</time>
      </trkpt>
      <trkpt lat="45.16791" lon="5.94654">
        <ele>2346.2</ele>
        <time>2021-02-20T10:24:41Z</time>
      </trkpt>
      <trkpt lat="45.16792" lon="5.94653">
        <ele>2346.2</ele>
        <time>2021-02-20T10:24:42Z</time>
      </trkpt>
      <trkpt lat="45.16792" lon="5.94652">
        <ele>2346.2</ele>
        <time>2021-02-20T10:24:43Z</time>
      </trkpt>
      <trkpt lat="45.16792" lon="5.94652">
        <ele>2345.7</ele>
        <time>2021-02-20T10:24:44Z</time>
      </trkpt>
      <trkpt lat="45.16793" lon="5.94651">
        <ele>2345.7</ele>
        <time>2021-02-20T10:24:45Z</time>
      </trkpt>
      <trkpt lat="45.16793" lon="5.9465">
        <ele>2345.7</ele>
        <time>2021-02-20T10:24:46Z</time>
      </trkpt>
      <trkpt lat="45.16794" lon="5.9465">
        <ele>2345.7</ele>
        <time>2021-02-20T10:24:47Z</time>
      </trkpt>
      <trkpt lat="45.16794" lon="5.94649">
        <ele>2347.9</ele>
        <time>2021-02-20T10:24:48Z</time>
      </trkpt>
      <trkpt lat="45.16795" lon="5.94648">
        <ele>2347.9</ele>
        <time>2021-02-20T10:24:49Z</time>
      </trkpt>
      <trkpt lat="45.16795" lon="5.94647">
        <ele>2347.3</ele>
        <time>2021-02-20T10:24:50Z</time>
      </trkpt>
      <trkpt lat="45.16796" lon="5.94646">
        <ele>2347.3</ele>
        <time>2021-02-20T10:24:51Z</time>
      </trkpt>
      <trkpt lat="45.16797" lon="5.94645">
        <ele>2347.3</ele>
        <time>2021-02-20T10:24:52Z</time>
      </trkpt>
      <trkpt lat="45.16797" lon="5.94644">
        <ele>2349</ele>
        <time>2021-02-20T10:24:53Z</time>
      </trkpt>
      <trkpt lat="45.16798" lon="5.94642">
        <ele>2349</ele>
        <time>2021-02-20T10:24:54Z</time>
      </trkpt>
      <trkpt lat="45.16797" lon="5.94641">
        <ele>2349</ele>
        <time>2021-02-20T10:24:55Z</time>
      </trkpt>
      <trkpt lat="45.16797" lon="5.94639">
        <ele>2348.3</ele>
        <time>2021-02-20T10:24:56Z</time>
      </trkpt>
      <trkpt lat="45.16797" lon="5.94639">
        <ele>2346.1</ele>
        <time>2021-02-20T10:24:57Z</time>
      </trkpt>
      <trkpt lat="45.16797" lon="5.94638">
        <ele>2346.1</ele>
        <time>2021-02-20T10:24:58Z</time>
      </trkpt>
      <trkpt lat="45.16797" lon="5.94637">
        <ele>2348.3</ele>
        <time>2021-02-20T10:24:59Z</time>
      </trkpt>
      <trkpt lat="45.16797" lon="5.94636">
        <ele>2348.3</ele>
        <time>2021-02-20T10:25:00Z</time>
      </trkpt>
      <trkpt lat="45.16797" lon="5.94636">
        <ele>2348.3</ele>
        <time>2021-02-20T10:25:01Z</time>
      </trkpt>
      <trkpt lat="45.16797" lon="5.94635">
        <ele>2348.3</ele>
        <time>2021-02-20T10:25:02Z</time>
      </trkpt>
      <trkpt lat="45.16798" lon="5.94635">
        <ele>2347.6</ele>
        <time>2021-02-20T10:25:03Z</time>
      </trkpt>
      <trkpt lat="45.16798" lon="5.94634">
        <ele>2347.6</ele>
        <time>2021-02-20T10:25:04Z</time>
      </trkpt>
      <trkpt lat="45.16799" lon="5.94633">
        <ele>2347.6</ele>
        <time>2021-02-20T10:25:05Z</time>
      </trkpt>
      <trkpt lat="45.16799" lon="5.94633">
        <ele>2347.6</ele>
        <time>2021-02-20T10:25:06Z</time>
      </trkpt>
      <trkpt lat="45.168" lon="5.94633">
        <ele>2349.9</ele>
        <time>2021-02-20T10:25:07Z</time>
      </trkpt>
      <trkpt lat="45.168" lon="5.94633">
        <ele>2349.9</ele>
        <time>2021-02-20T10:25:08Z</time>
      </trkpt>
      <trkpt lat="45.16801" lon="5.94632">
        <ele>2349.9</ele>
        <time>2021-02-20T10:25:09Z</time>
      </trkpt>
      <trkpt lat="45.16801" lon="5.94632">
        <ele>2349.9</ele>
        <time>2021-02-20T10:25:10Z</time>
      </trkpt>
      <trkpt lat="45.16801" lon="5.94632">
        <ele>2349.9</ele>
        <time>2021-02-20T10:25:11Z</time>
      </trkpt>
      <trkpt lat="45.16801" lon="5.94632">
        <ele>2349.9</ele>
        <time>2021-02-20T10:25:12Z</time>
      </trkpt>
      <trkpt lat="45.16801" lon="5.94632">
        <ele>2349.9</ele>
        <time>2021-02-20T10:25:13Z</time>
      </trkpt>
      <trkpt lat="45.16801" lon="5.94632">
        <ele>2349.9</ele>
        <time>2021-02-20T10:25:14Z</time>
      </trkpt>
      <trkpt lat="45.16801" lon="5.94632">
        <ele>2349.9</ele>
        <time>2021-02-20T10:25:15Z</time>
      </trkpt>
      <trkpt lat="45.16802" lon="5.94631">
        <ele>2349.9</ele>
        <time>2021-02-20T10:25:16Z</time>
      </trkpt>
      <trkpt lat="45.16802" lon="5.94631">
        <ele>2349.9</ele>
        <time>2021-02-20T10:25:17Z</time>
      </trkpt>
      <trkpt lat="45.16802" lon="5.94631">
        <ele>2349.9</ele>
        <time>2021-02-20T10:25:18Z</time>
      </trkpt>
      <trkpt lat="45.16802" lon="5.94631">
        <ele>2349.9</ele>
        <time>2021-02-20T10:25:19Z</time>
      </trkpt>
      <trkpt lat="45.16802" lon="5.94631">
        <ele>2349.9</ele>
        <time>2021-02-20T10:25:20Z</time>
      </trkpt>
      <trkpt lat="45.16802" lon="5.94631">
        <ele>2349.9</ele>
        <time>2021-02-20T10:25:21Z</time>
      </trkpt>
      <trkpt lat="45.16802" lon="5.9463">
        <ele>2349.1</ele>
        <time>2021-02-20T10:25:22Z</time>
      </trkpt>
      <trkpt lat="45.16802" lon="5.9463">
        <ele>2349.1</ele>
        <time>2021-02-20T10:25:23Z</time>
      </trkpt>
      <trkpt lat="45.16802" lon="5.9463">
        <ele>2349.1</ele>
        <time>2021-02-20T10:25:24Z</time>
      </trkpt>
      <trkpt lat="45.16803" lon="5.9463">
        <ele>2349.1</ele>
        <time>2021-02-20T10:25:25Z</time>
      </trkpt>
      <trkpt lat="45.16803" lon="5.94631">
        <ele>2352.1</ele>
        <time>2021-02-20T10:25:26Z</time>
      </trkpt>
      <trkpt lat="45.16804" lon="5.94631">
        <ele>2352.1</ele>
        <time>2021-02-20T10:25:27Z</time>
      </trkpt>
      <trkpt lat="45.16804" lon="5.94631">
        <ele>2352.1</ele>
        <time>2021-02-20T10:25:28Z</time>
      </trkpt>
      <trkpt lat="45.16804" lon="5.94632">
        <ele>2352.1</ele>
        <time>2021-02-20T10:25:29Z</time>
      </trkpt>
      <trkpt lat="45.16804" lon="5.94633">
        <ele>2352.1</ele>
        <time>2021-02-20T10:25:30Z</time>
      </trkpt>
      <trkpt lat="45.16805" lon="5.94634">
        <ele>2352.1</ele>
        <time>2021-02-20T10:25:31Z</time>
      </trkpt>
      <trkpt lat="45.16805" lon="5.94635">
        <ele>2352.1</ele>
        <time>2021-02-20T10:25:32Z</time>
      </trkpt>
      <trkpt lat="45.16804" lon="5.94635">
        <ele>2352.8</ele>
        <time>2021-02-20T10:25:33Z</time>
      </trkpt>
      <trkpt lat="45.16803" lon="5.94636">
        <ele>2352.8</ele>
        <time>2021-02-20T10:25:34Z</time>
      </trkpt>
      <trkpt lat="45.16803" lon="5.94636">
        <ele>2350.6</ele>
        <time>2021-02-20T10:25:35Z</time>
      </trkpt>
      <trkpt lat="45.16803" lon="5.94637">
        <ele>2350.6</ele>
        <time>2021-02-20T10:25:36Z</time>
      </trkpt>
      <trkpt lat="45.16803" lon="5.94638">
        <ele>2352.8</ele>
        <time>2021-02-20T10:25:37Z</time>
      </trkpt>
      <trkpt lat="45.16804" lon="5.94639">
        <ele>2352.8</ele>
        <time>2021-02-20T10:25:38Z</time>
      </trkpt>
      <trkpt lat="45.16804" lon="5.9464">
        <ele>2353.5</ele>
        <time>2021-02-20T10:25:39Z</time>
      </trkpt>
      <trkpt lat="45.16804" lon="5.9464">
        <ele>2353.5</ele>
        <time>2021-02-20T10:25:40Z</time>
      </trkpt>
      <trkpt lat="45.16805" lon="5.94641">
        <ele>2353.5</ele>
        <time>2021-02-20T10:25:41Z</time>
      </trkpt>
      <trkpt lat="45.16805" lon="5.94641">
        <ele>2353.5</ele>
        <time>2021-02-20T10:25:42Z</time>
      </trkpt>
      <trkpt lat="45.16805" lon="5.94642">
        <ele>2353.5</ele>
        <time>2021-02-20T10:25:43Z</time>
      </trkpt>
      <trkpt lat="45.16806" lon="5.94643">
        <ele>2353.5</ele>
        <time>2021-02-20T10:25:44Z</time>
      </trkpt>
      <trkpt lat="45.16806" lon="5.94644">
        <ele>2356.4</ele>
        <time>2021-02-20T10:25:45Z</time>
      </trkpt>
      <trkpt lat="45.16807" lon="5.94645">
        <ele>2356.4</ele>
        <time>2021-02-20T10:25:46Z</time>
      </trkpt>
      <trkpt lat="45.16807" lon="5.94645">
        <ele>2356.4</ele>
        <time>2021-02-20T10:25:47Z</time>
      </trkpt>
      <trkpt lat="45.16808" lon="5.94646">
        <ele>2356.4</ele>
        <time>2021-02-20T10:25:48Z</time>
      </trkpt>
      <trkpt lat="45.16809" lon="5.94646">
        <ele>2356.4</ele>
        <time>2021-02-20T10:25:49Z</time>
      </trkpt>
      <trkpt lat="45.1681" lon="5.94646">
        <ele>2358.5</ele>
        <time>2021-02-20T10:25:50Z</time>
      </trkpt>
      <trkpt lat="45.1681" lon="5.94646">
        <ele>2358.5</ele>
        <time>2021-02-20T10:25:51Z</time>
      </trkpt>
      <trkpt lat="45.16811" lon="5.94646">
        <ele>2358.5</ele>
        <time>2021-02-20T10:25:52Z</time>
      </trkpt>
      <trkpt lat="45.16812" lon="5.94647">
        <ele>2358.5</ele>
        <time>2021-02-20T10:25:53Z</time>
      </trkpt>
      <trkpt lat="45.16813" lon="5.94647">
        <ele>2360.5</ele>
        <time>2021-02-20T10:25:54Z</time>
      </trkpt>
      <trkpt lat="45.16813" lon="5.94647">
        <ele>2360.5</ele>
        <time>2021-02-20T10:25:55Z</time>
      </trkpt>
      <trkpt lat="45.16814" lon="5.94648">
        <ele>2360.5</ele>
        <time>2021-02-20T10:25:56Z</time>
      </trkpt>
      <trkpt lat="45.16815" lon="5.94648">
        <ele>2360.5</ele>
        <time>2021-02-20T10:25:57Z</time>
      </trkpt>
      <trkpt lat="45.16816" lon="5.94648">
        <ele>2363.1</ele>
        <time>2021-02-20T10:25:58Z</time>
      </trkpt>
      <trkpt lat="45.16816" lon="5.94649">
        <ele>2363.1</ele>
        <time>2021-02-20T10:25:59Z</time>
      </trkpt>
      <trkpt lat="45.16816" lon="5.94649">
        <ele>2363.1</ele>
        <time>2021-02-20T10:26:00Z</time>
      </trkpt>
      <trkpt lat="45.16816" lon="5.94649">
        <ele>2363.1</ele>
        <time>2021-02-20T10:26:01Z</time>
      </trkpt>
      <trkpt lat="45.16816" lon="5.94649">
        <ele>2363.1</ele>
        <time>2021-02-20T10:26:02Z</time>
      </trkpt>
      <trkpt lat="45.16816" lon="5.94649">
        <ele>2363.1</ele>
        <time>2021-02-20T10:26:03Z</time>
      </trkpt>
      <trkpt lat="45.16816" lon="5.94649">
        <ele>2363.1</ele>
        <time>2021-02-20T10:26:04Z</time>
      </trkpt>
      <trkpt lat="45.16816" lon="5.94649">
        <ele>2363.1</ele>
        <time>2021-02-20T10:26:05Z</time>
      </trkpt>
      <trkpt lat="45.16815" lon="5.9465">
        <ele>2363.1</ele>
        <time>2021-02-20T10:26:06Z</time>
      </trkpt>
      <trkpt lat="45.16815" lon="5.9465">
        <ele>2363.1</ele>
        <time>2021-02-20T10:26:07Z</time>
      </trkpt>
      <trkpt lat="45.16815" lon="5.94651">
        <ele>2361.2</ele>
        <time>2021-02-20T10:26:08Z</time>
      </trkpt>
      <trkpt lat="45.16814" lon="5.94651">
        <ele>2361.2</ele>
        <time>2021-02-20T10:26:09Z</time>
      </trkpt>
      <trkpt lat="45.16814" lon="5.9465">
        <ele>2361.2</ele>
        <time>2021-02-20T10:26:10Z</time>
      </trkpt>
      <trkpt lat="45.16814" lon="5.9465">
        <ele>2361.2</ele>
        <time>2021-02-20T10:26:11Z</time>
      </trkpt>
      <trkpt lat="45.16814" lon="5.9465">
        <ele>2361.2</ele>
        <time>2021-02-20T10:26:12Z</time>
      </trkpt>
      <trkpt lat="45.16814" lon="5.94649">
        <ele>2361.2</ele>
        <time>2021-02-20T10:26:13Z</time>
      </trkpt>
      <trkpt lat="45.16814" lon="5.94649">
        <ele>2361.2</ele>
        <time>2021-02-20T10:26:14Z</time>
      </trkpt>
      <trkpt lat="45.16814" lon="5.94649">
        <ele>2361.2</ele>
        <time>2021-02-20T10:26:15Z</time>
      </trkpt>
      <trkpt lat="45.16814" lon="5.94649">
        <ele>2361.2</ele>
        <time>2021-02-20T10:26:16Z</time>
      </trkpt>
      <trkpt lat="45.16814" lon="5.94649">
        <ele>2361.2</ele>
        <time>2021-02-20T10:26:17Z</time>
      </trkpt>
      <trkpt lat="45.16814" lon="5.94648">
        <ele>2361.2</ele>
        <time>2021-02-20T10:26:18Z</time>
      </trkpt>
      <trkpt lat="45.16814" lon="5.94648">
        <ele>2361.2</ele>
        <time>2021-02-20T10:26:19Z</time>
      </trkpt>
      <trkpt lat="45.16814" lon="5.94648">
        <ele>2361.2</ele>
        <time>2021-02-20T10:26:20Z</time>
      </trkpt>
      <trkpt lat="45.16814" lon="5.94648">
        <ele>2360.5</ele>
        <time>2021-02-20T10:26:21Z</time>
      </trkpt>
      <trkpt lat="45.16814" lon="5.94647">
        <ele>2360.5</ele>
        <time>2021-02-20T10:26:22Z</time>
      </trkpt>
      <trkpt lat="45.16813" lon="5.94647">
        <ele>2360.5</ele>
        <time>2021-02-20T10:26:23Z</time>
      </trkpt>
      <trkpt lat="45.16814" lon="5.94646">
        <ele>2360.5</ele>
        <time>2021-02-20T10:26:24Z</time>
      </trkpt>
      <trkpt lat="45.16814" lon="5.94645">
        <ele>2360.5</ele>
        <time>2021-02-20T10:26:25Z</time>
      </trkpt>
      <trkpt lat="45.16814" lon="5.94645">
        <ele>2360.5</ele>
        <time>2021-02-20T10:26:26Z</time>
      </trkpt>
      <trkpt lat="45.16814" lon="5.94645">
        <ele>2360.5</ele>
        <time>2021-02-20T10:26:27Z</time>
      </trkpt>
      <trkpt lat="45.16815" lon="5.94644">
        <ele>2360.5</ele>
        <time>2021-02-20T10:26:28Z</time>
      </trkpt>
      <trkpt lat="45.16815" lon="5.94644">
        <ele>2360.5</ele>
        <time>2021-02-20T10:26:29Z</time>
      </trkpt>
      <trkpt lat="45.16814" lon="5.94644">
        <ele>2360.5</ele>
        <time>2021-02-20T10:26:30Z</time>
      </trkpt>
      <trkpt lat="45.16814" lon="5.94644">
        <ele>2360.5</ele>
        <time>2021-02-20T10:26:31Z</time>
      </trkpt>
      <trkpt lat="45.16814" lon="5.94644">
        <ele>2360.5</ele>
        <time>2021-02-20T10:26:32Z</time>
      </trkpt>
      <trkpt lat="45.16814" lon="5.94644">
        <ele>2360.5</ele>
        <time>2021-02-20T10:26:33Z</time>
      </trkpt>
      <trkpt lat="45.16814" lon="5.94643">
        <ele>2359.9</ele>
        <time>2021-02-20T10:26:34Z</time>
      </trkpt>
      <trkpt lat="45.16814" lon="5.94643">
        <ele>2359.9</ele>
        <time>2021-02-20T10:26:35Z</time>
      </trkpt>
      <trkpt lat="45.16815" lon="5.94643">
        <ele>2361.8</ele>
        <time>2021-02-20T10:26:36Z</time>
      </trkpt>
      <trkpt lat="45.16816" lon="5.94644">
        <ele>2362.5</ele>
        <time>2021-02-20T10:26:37Z</time>
      </trkpt>
      <trkpt lat="45.16817" lon="5.94644">
        <ele>2362.5</ele>
        <time>2021-02-20T10:26:38Z</time>
      </trkpt>
      <trkpt lat="45.16817" lon="5.94643">
        <ele>2361.8</ele>
        <time>2021-02-20T10:26:39Z</time>
      </trkpt>
      <trkpt lat="45.16818" lon="5.94643">
        <ele>2361.8</ele>
        <time>2021-02-20T10:26:40Z</time>
      </trkpt>
      <trkpt lat="45.16818" lon="5.94642">
        <ele>2363.7</ele>
        <time>2021-02-20T10:26:41Z</time>
      </trkpt>
      <trkpt lat="45.16819" lon="5.94641">
        <ele>2363.7</ele>
        <time>2021-02-20T10:26:42Z</time>
      </trkpt>
      <trkpt lat="45.1682" lon="5.9464">
        <ele>2363.7</ele>
        <time>2021-02-20T10:26:43Z</time>
      </trkpt>
      <trkpt lat="45.1682" lon="5.9464">
        <ele>2363.7</ele>
        <time>2021-02-20T10:26:44Z</time>
      </trkpt>
      <trkpt lat="45.1682" lon="5.94639">
        <ele>2363.7</ele>
        <time>2021-02-20T10:26:45Z</time>
      </trkpt>
      <trkpt lat="45.1682" lon="5.94638">
        <ele>2362.9</ele>
        <time>2021-02-20T10:26:46Z</time>
      </trkpt>
      <trkpt lat="45.1682" lon="5.94637">
        <ele>2362.9</ele>
        <time>2021-02-20T10:26:47Z</time>
      </trkpt>
      <trkpt lat="45.1682" lon="5.94637">
        <ele>2362.9</ele>
        <time>2021-02-20T10:26:48Z</time>
      </trkpt>
      <trkpt lat="45.1682" lon="5.94637">
        <ele>2362.9</ele>
        <time>2021-02-20T10:26:49Z</time>
      </trkpt>
      <trkpt lat="45.1682" lon="5.94636">
        <ele>2362.9</ele>
        <time>2021-02-20T10:26:50Z</time>
      </trkpt>
      <trkpt lat="45.16819" lon="5.94635">
        <ele>2362.1</ele>
        <time>2021-02-20T10:26:51Z</time>
      </trkpt>
      <trkpt lat="45.16819" lon="5.94634">
        <ele>2362.1</ele>
        <time>2021-02-20T10:26:52Z</time>
      </trkpt>
      <trkpt lat="45.16818" lon="5.94634">
        <ele>2362.1</ele>
        <time>2021-02-20T10:26:53Z</time>
      </trkpt>
      <trkpt lat="45.16818" lon="5.94632">
        <ele>2360.2</ele>
        <time>2021-02-20T10:26:54Z</time>
      </trkpt>
      <trkpt lat="45.16818" lon="5.94631">
        <ele>2360.2</ele>
        <time>2021-02-20T10:26:55Z</time>
      </trkpt>
      <trkpt lat="45.16817" lon="5.9463">
        <ele>2359.4</ele>
        <time>2021-02-20T10:26:56Z</time>
      </trkpt>
      <trkpt lat="45.16817" lon="5.9463">
        <ele>2359.4</ele>
        <time>2021-02-20T10:26:57Z</time>
      </trkpt>
      <trkpt lat="45.16817" lon="5.9463">
        <ele>2359.4</ele>
        <time>2021-02-20T10:26:58Z</time>
      </trkpt>
      <trkpt lat="45.16818" lon="5.94627">
        <ele>2359.4</ele>
        <time>2021-02-20T10:26:59Z</time>
      </trkpt>
      <trkpt lat="45.16818" lon="5.94627">
        <ele>2359.4</ele>
        <time>2021-02-20T10:27:00Z</time>
      </trkpt>
      <trkpt lat="45.16818" lon="5.94627">
        <ele>2359.4</ele>
        <time>2021-02-20T10:27:01Z</time>
      </trkpt>
      <trkpt lat="45.16819" lon="5.94627">
        <ele>2361.2</ele>
        <time>2021-02-20T10:27:02Z</time>
      </trkpt>
      <trkpt lat="45.16819" lon="5.94627">
        <ele>2361.2</ele>
        <time>2021-02-20T10:27:03Z</time>
      </trkpt>
      <trkpt lat="45.1682" lon="5.94627">
        <ele>2361.2</ele>
        <time>2021-02-20T10:27:04Z</time>
      </trkpt>
      <trkpt lat="45.1682" lon="5.94626">
        <ele>2360.4</ele>
        <time>2021-02-20T10:27:05Z</time>
      </trkpt>
      <trkpt lat="45.1682" lon="5.94626">
        <ele>2360.4</ele>
        <time>2021-02-20T10:27:06Z</time>
      </trkpt>
      <trkpt lat="45.1682" lon="5.94625">
        <ele>2360.4</ele>
        <time>2021-02-20T10:27:07Z</time>
      </trkpt>
      <trkpt lat="45.1682" lon="5.94625">
        <ele>2360.4</ele>
        <time>2021-02-20T10:27:08Z</time>
      </trkpt>
      <trkpt lat="45.1682" lon="5.94625">
        <ele>2360.4</ele>
        <time>2021-02-20T10:27:09Z</time>
      </trkpt>
      <trkpt lat="45.1682" lon="5.94625">
        <ele>2360.4</ele>
        <time>2021-02-20T10:27:10Z</time>
      </trkpt>
      <trkpt lat="45.16819" lon="5.94624">
        <ele>2360.4</ele>
        <time>2021-02-20T10:27:11Z</time>
      </trkpt>
      <trkpt lat="45.1682" lon="5.94624">
        <ele>2360.4</ele>
        <time>2021-02-20T10:27:12Z</time>
      </trkpt>
      <trkpt lat="45.1682" lon="5.94625">
        <ele>2360.4</ele>
        <time>2021-02-20T10:27:13Z</time>
      </trkpt>
      <trkpt lat="45.1682" lon="5.94625">
        <ele>2360.4</ele>
        <time>2021-02-20T10:27:14Z</time>
      </trkpt>
      <trkpt lat="45.16821" lon="5.94626">
        <ele>2360.4</ele>
        <time>2021-02-20T10:27:15Z</time>
      </trkpt>
      <trkpt lat="45.16821" lon="5.94626">
        <ele>2362.1</ele>
        <time>2021-02-20T10:27:16Z</time>
      </trkpt>
      <trkpt lat="45.16821" lon="5.94627">
        <ele>2362.9</ele>
        <time>2021-02-20T10:27:17Z</time>
      </trkpt>
      <trkpt lat="45.16821" lon="5.94627">
        <ele>2362.9</ele>
        <time>2021-02-20T10:27:18Z</time>
      </trkpt>
      <trkpt lat="45.16821" lon="5.94628">
        <ele>2362.9</ele>
        <time>2021-02-20T10:27:19Z</time>
      </trkpt>
      <trkpt lat="45.16821" lon="5.94629">
        <ele>2362.9</ele>
        <time>2021-02-20T10:27:20Z</time>
      </trkpt>
      <trkpt lat="45.16821" lon="5.9463">
        <ele>2362.9</ele>
        <time>2021-02-20T10:27:21Z</time>
      </trkpt>
      <trkpt lat="45.16821" lon="5.9463">
        <ele>2362.9</ele>
        <time>2021-02-20T10:27:22Z</time>
      </trkpt>
      <trkpt lat="45.16822" lon="5.9463">
        <ele>2362.9</ele>
        <time>2021-02-20T10:27:23Z</time>
      </trkpt>
      <trkpt lat="45.16822" lon="5.94631">
        <ele>2362.9</ele>
        <time>2021-02-20T10:27:24Z</time>
      </trkpt>
      <trkpt lat="45.16823" lon="5.94631">
        <ele>2363.8</ele>
        <time>2021-02-20T10:27:25Z</time>
      </trkpt>
      <trkpt lat="45.16823" lon="5.94632">
        <ele>2363.8</ele>
        <time>2021-02-20T10:27:26Z</time>
      </trkpt>
      <trkpt lat="45.16823" lon="5.94633">
        <ele>2363.8</ele>
        <time>2021-02-20T10:27:27Z</time>
      </trkpt>
      <trkpt lat="45.16823" lon="5.94633">
        <ele>2363.8</ele>
        <time>2021-02-20T10:27:28Z</time>
      </trkpt>
      <trkpt lat="45.16824" lon="5.94634">
        <ele>2363.8</ele>
        <time>2021-02-20T10:27:29Z</time>
      </trkpt>
      <trkpt lat="45.16824" lon="5.94634">
        <ele>2363.8</ele>
        <time>2021-02-20T10:27:30Z</time>
      </trkpt>
      <trkpt lat="45.16824" lon="5.94634">
        <ele>2363.8</ele>
        <time>2021-02-20T10:27:31Z</time>
      </trkpt>
      <trkpt lat="45.16824" lon="5.94634">
        <ele>2363.8</ele>
        <time>2021-02-20T10:27:32Z</time>
      </trkpt>
      <trkpt lat="45.16825" lon="5.94634">
        <ele>2365.6</ele>
        <time>2021-02-20T10:27:33Z</time>
      </trkpt>
      <trkpt lat="45.16825" lon="5.94635">
        <ele>2366.4</ele>
        <time>2021-02-20T10:27:34Z</time>
      </trkpt>
      <trkpt lat="45.16825" lon="5.94636">
        <ele>2366.4</ele>
        <time>2021-02-20T10:27:35Z</time>
      </trkpt>
      <trkpt lat="45.16826" lon="5.94637">
        <ele>2366.4</ele>
        <time>2021-02-20T10:27:36Z</time>
      </trkpt>
      <trkpt lat="45.16826" lon="5.94638">
        <ele>2366.4</ele>
        <time>2021-02-20T10:27:37Z</time>
      </trkpt>
      <trkpt lat="45.16826" lon="5.94638">
        <ele>2366.4</ele>
        <time>2021-02-20T10:27:38Z</time>
      </trkpt>
      <trkpt lat="45.16826" lon="5.94639">
        <ele>2366.4</ele>
        <time>2021-02-20T10:27:39Z</time>
      </trkpt>
      <trkpt lat="45.16826" lon="5.94639">
        <ele>2366.4</ele>
        <time>2021-02-20T10:27:40Z</time>
      </trkpt>
      <trkpt lat="45.16827" lon="5.94639">
        <ele>2366.4</ele>
        <time>2021-02-20T10:27:41Z</time>
      </trkpt>
      <trkpt lat="45.16827" lon="5.94639">
        <ele>2366.4</ele>
        <time>2021-02-20T10:27:42Z</time>
      </trkpt>
      <trkpt lat="45.16827" lon="5.94639">
        <ele>2366.4</ele>
        <time>2021-02-20T10:27:43Z</time>
      </trkpt>
      <trkpt lat="45.16827" lon="5.94639">
        <ele>2366.4</ele>
        <time>2021-02-20T10:27:44Z</time>
      </trkpt>
      <trkpt lat="45.16827" lon="5.94639">
        <ele>2366.4</ele>
        <time>2021-02-20T10:27:45Z</time>
      </trkpt>
      <trkpt lat="45.16827" lon="5.94639">
        <ele>2368.3</ele>
        <time>2021-02-20T10:27:46Z</time>
      </trkpt>
      <trkpt lat="45.16827" lon="5.94638">
        <ele>2368.3</ele>
        <time>2021-02-20T10:27:47Z</time>
      </trkpt>
      <trkpt lat="45.16827" lon="5.94638">
        <ele>2368.3</ele>
        <time>2021-02-20T10:27:48Z</time>
      </trkpt>
      <trkpt lat="45.16828" lon="5.94638">
        <ele>2368.3</ele>
        <time>2021-02-20T10:27:49Z</time>
      </trkpt>
      <trkpt lat="45.16828" lon="5.94638">
        <ele>2368.3</ele>
        <time>2021-02-20T10:27:50Z</time>
      </trkpt>
      <trkpt lat="45.16829" lon="5.94638">
        <ele>2368.3</ele>
        <time>2021-02-20T10:27:51Z</time>
      </trkpt>
      <trkpt lat="45.1683" lon="5.94638">
        <ele>2370.2</ele>
        <time>2021-02-20T10:27:52Z</time>
      </trkpt>
      <trkpt lat="45.16831" lon="5.94638">
        <ele>2370.2</ele>
        <time>2021-02-20T10:27:53Z</time>
      </trkpt>
      <trkpt lat="45.16831" lon="5.94637">
        <ele>2370.2</ele>
        <time>2021-02-20T10:27:54Z</time>
      </trkpt>
      <trkpt lat="45.16831" lon="5.94637">
        <ele>2370.2</ele>
        <time>2021-02-20T10:27:55Z</time>
      </trkpt>
      <trkpt lat="45.16831" lon="5.94636">
        <ele>2370.2</ele>
        <time>2021-02-20T10:27:56Z</time>
      </trkpt>
      <trkpt lat="45.16831" lon="5.94636">
        <ele>2370.2</ele>
        <time>2021-02-20T10:27:57Z</time>
      </trkpt>
      <trkpt lat="45.16831" lon="5.94635">
        <ele>2369.3</ele>
        <time>2021-02-20T10:27:58Z</time>
      </trkpt>
      <trkpt lat="45.16832" lon="5.94634">
        <ele>2369.3</ele>
        <time>2021-02-20T10:27:59Z</time>
      </trkpt>
      <trkpt lat="45.16832" lon="5.94633">
        <ele>2369.3</ele>
        <time>2021-02-20T10:28:00Z</time>
      </trkpt>
      <trkpt lat="45.16832" lon="5.94632">
        <ele>2369.3</ele>
        <time>2021-02-20T10:28:01Z</time>
      </trkpt>
      <trkpt lat="45.16832" lon="5.94631">
        <ele>2369.3</ele>
        <time>2021-02-20T10:28:02Z</time>
      </trkpt>
      <trkpt lat="45.16832" lon="5.9463">
        <ele>2368.3</ele>
        <time>2021-02-20T10:28:03Z</time>
      </trkpt>
      <trkpt lat="45.16832" lon="5.94629">
        <ele>2368.3</ele>
        <time>2021-02-20T10:28:04Z</time>
      </trkpt>
      <trkpt lat="45.16832" lon="5.94628">
        <ele>2368.3</ele>
        <time>2021-02-20T10:28:05Z</time>
      </trkpt>
      <trkpt lat="45.16832" lon="5.94627">
        <ele>2368.3</ele>
        <time>2021-02-20T10:28:06Z</time>
      </trkpt>
      <trkpt lat="45.16832" lon="5.94627">
        <ele>2368.3</ele>
        <time>2021-02-20T10:28:07Z</time>
      </trkpt>
      <trkpt lat="45.16831" lon="5.94626">
        <ele>2367.4</ele>
        <time>2021-02-20T10:28:08Z</time>
      </trkpt>
      <trkpt lat="45.16831" lon="5.94626">
        <ele>2367.4</ele>
        <time>2021-02-20T10:28:09Z</time>
      </trkpt>
      <trkpt lat="45.16831" lon="5.94626">
        <ele>2367.4</ele>
        <time>2021-02-20T10:28:10Z</time>
      </trkpt>
      <trkpt lat="45.16831" lon="5.94626">
        <ele>2367.4</ele>
        <time>2021-02-20T10:28:11Z</time>
      </trkpt>
      <trkpt lat="45.16831" lon="5.94626">
        <ele>2367.4</ele>
        <time>2021-02-20T10:28:12Z</time>
      </trkpt>
      <trkpt lat="45.16831" lon="5.94626">
        <ele>2367.4</ele>
        <time>2021-02-20T10:28:13Z</time>
      </trkpt>
      <trkpt lat="45.16831" lon="5.94626">
        <ele>2367.4</ele>
        <time>2021-02-20T10:28:14Z</time>
      </trkpt>
      <trkpt lat="45.16831" lon="5.94624">
        <ele>2367.4</ele>
        <time>2021-02-20T10:28:15Z</time>
      </trkpt>
      <trkpt lat="45.16831" lon="5.94624">
        <ele>2367.4</ele>
        <time>2021-02-20T10:28:16Z</time>
      </trkpt>
      <trkpt lat="45.1683" lon="5.94624">
        <ele>2365.5</ele>
        <time>2021-02-20T10:28:17Z</time>
      </trkpt>
      <trkpt lat="45.1683" lon="5.94624">
        <ele>2365.5</ele>
        <time>2021-02-20T10:28:18Z</time>
      </trkpt>
      <trkpt lat="45.1683" lon="5.94624">
        <ele>2365.5</ele>
        <time>2021-02-20T10:28:19Z</time>
      </trkpt>
      <trkpt lat="45.1683" lon="5.94624">
        <ele>2365.5</ele>
        <time>2021-02-20T10:28:20Z</time>
      </trkpt>
      <trkpt lat="45.1683" lon="5.94624">
        <ele>2365.5</ele>
        <time>2021-02-20T10:28:21Z</time>
      </trkpt>
      <trkpt lat="45.16831" lon="5.94623">
        <ele>2367.4</ele>
        <time>2021-02-20T10:28:22Z</time>
      </trkpt>
      <trkpt lat="45.16831" lon="5.94623">
        <ele>2367.4</ele>
        <time>2021-02-20T10:28:23Z</time>
      </trkpt>
      <trkpt lat="45.16831" lon="5.94623">
        <ele>2367.4</ele>
        <time>2021-02-20T10:28:24Z</time>
      </trkpt>
      <trkpt lat="45.16831" lon="5.94623">
        <ele>2367.4</ele>
        <time>2021-02-20T10:28:25Z</time>
      </trkpt>
      <trkpt lat="45.16831" lon="5.94622">
        <ele>2366.4</ele>
        <time>2021-02-20T10:28:26Z</time>
      </trkpt>
      <trkpt lat="45.16831" lon="5.94622">
        <ele>2366.4</ele>
        <time>2021-02-20T10:28:27Z</time>
      </trkpt>
      <trkpt lat="45.16831" lon="5.94622">
        <ele>2366.4</ele>
        <time>2021-02-20T10:28:28Z</time>
      </trkpt>
      <trkpt lat="45.16831" lon="5.94621">
        <ele>2366.4</ele>
        <time>2021-02-20T10:28:29Z</time>
      </trkpt>
      <trkpt lat="45.16831" lon="5.94621">
        <ele>2366.4</ele>
        <time>2021-02-20T10:28:30Z</time>
      </trkpt>
      <trkpt lat="45.16831" lon="5.94621">
        <ele>2366.4</ele>
        <time>2021-02-20T10:28:31Z</time>
      </trkpt>
      <trkpt lat="45.16831" lon="5.94621">
        <ele>2366.4</ele>
        <time>2021-02-20T10:28:32Z</time>
      </trkpt>
      <trkpt lat="45.16831" lon="5.94621">
        <ele>2366.4</ele>
        <time>2021-02-20T10:28:33Z</time>
      </trkpt>
      <trkpt lat="45.16831" lon="5.94621">
        <ele>2366.4</ele>
        <time>2021-02-20T10:28:34Z</time>
      </trkpt>
      <trkpt lat="45.16832" lon="5.94621">
        <ele>2366.4</ele>
        <time>2021-02-20T10:28:35Z</time>
      </trkpt>
      <trkpt lat="45.16832" lon="5.94621">
        <ele>2366.4</ele>
        <time>2021-02-20T10:28:36Z</time>
      </trkpt>
      <trkpt lat="45.16832" lon="5.94622">
        <ele>2366.4</ele>
        <time>2021-02-20T10:28:37Z</time>
      </trkpt>
      <trkpt lat="45.16833" lon="5.94622">
        <ele>2367.4</ele>
        <time>2021-02-20T10:28:38Z</time>
      </trkpt>
      <trkpt lat="45.16833" lon="5.94623">
        <ele>2367.4</ele>
        <time>2021-02-20T10:28:39Z</time>
      </trkpt>
      <trkpt lat="45.16833" lon="5.94624">
        <ele>2367.4</ele>
        <time>2021-02-20T10:28:40Z</time>
      </trkpt>
      <trkpt lat="45.16833" lon="5.94625">
        <ele>2369.3</ele>
        <time>2021-02-20T10:28:41Z</time>
      </trkpt>
      <trkpt lat="45.16834" lon="5.94626">
        <ele>2369.3</ele>
        <time>2021-02-20T10:28:42Z</time>
      </trkpt>
      <trkpt lat="45.16834" lon="5.94626">
        <ele>2369.3</ele>
        <time>2021-02-20T10:28:43Z</time>
      </trkpt>
      <trkpt lat="45.16834" lon="5.94627">
        <ele>2370.3</ele>
        <time>2021-02-20T10:28:44Z</time>
      </trkpt>
      <trkpt lat="45.16835" lon="5.94628">
        <ele>2370.3</ele>
        <time>2021-02-20T10:28:45Z</time>
      </trkpt>
      <trkpt lat="45.16835" lon="5.94629">
        <ele>2370.3</ele>
        <time>2021-02-20T10:28:46Z</time>
      </trkpt>
      <trkpt lat="45.16835" lon="5.9463">
        <ele>2370.3</ele>
        <time>2021-02-20T10:28:47Z</time>
      </trkpt>
      <trkpt lat="45.16835" lon="5.94631">
        <ele>2371.3</ele>
        <time>2021-02-20T10:28:48Z</time>
      </trkpt>
      <trkpt lat="45.16836" lon="5.94632">
        <ele>2371.3</ele>
        <time>2021-02-20T10:28:49Z</time>
      </trkpt>
      <trkpt lat="45.16836" lon="5.94632">
        <ele>2371.3</ele>
        <time>2021-02-20T10:28:50Z</time>
      </trkpt>
      <trkpt lat="45.16836" lon="5.94633">
        <ele>2373.3</ele>
        <time>2021-02-20T10:28:51Z</time>
      </trkpt>
      <trkpt lat="45.16837" lon="5.94634">
        <ele>2373.3</ele>
        <time>2021-02-20T10:28:52Z</time>
      </trkpt>
      <trkpt lat="45.16838" lon="5.94635">
        <ele>2373.3</ele>
        <time>2021-02-20T10:28:53Z</time>
      </trkpt>
      <trkpt lat="45.16838" lon="5.94636">
        <ele>2374.2</ele>
        <time>2021-02-20T10:28:54Z</time>
      </trkpt>
      <trkpt lat="45.16838" lon="5.94637">
        <ele>2374.2</ele>
        <time>2021-02-20T10:28:55Z</time>
      </trkpt>
      <trkpt lat="45.16838" lon="5.94637">
        <ele>2374.2</ele>
        <time>2021-02-20T10:28:56Z</time>
      </trkpt>
      <trkpt lat="45.16839" lon="5.94638">
        <ele>2374.2</ele>
        <time>2021-02-20T10:28:57Z</time>
      </trkpt>
      <trkpt lat="45.16839" lon="5.94638">
        <ele>2374.2</ele>
        <time>2021-02-20T10:28:58Z</time>
      </trkpt>
      <trkpt lat="45.16839" lon="5.94639">
        <ele>2374.2</ele>
        <time>2021-02-20T10:28:59Z</time>
      </trkpt>
      <trkpt lat="45.16839" lon="5.94639">
        <ele>2374.2</ele>
        <time>2021-02-20T10:29:00Z</time>
      </trkpt>
      <trkpt lat="45.16839" lon="5.9464">
        <ele>2375.1</ele>
        <time>2021-02-20T10:29:01Z</time>
      </trkpt>
      <trkpt lat="45.16839" lon="5.94641">
        <ele>2377.1</ele>
        <time>2021-02-20T10:29:02Z</time>
      </trkpt>
      <trkpt lat="45.1684" lon="5.94642">
        <ele>2377.1</ele>
        <time>2021-02-20T10:29:03Z</time>
      </trkpt>
      <trkpt lat="45.1684" lon="5.94642">
        <ele>2377.1</ele>
        <time>2021-02-20T10:29:04Z</time>
      </trkpt>
      <trkpt lat="45.1684" lon="5.94643">
        <ele>2377.1</ele>
        <time>2021-02-20T10:29:05Z</time>
      </trkpt>
      <trkpt lat="45.1684" lon="5.94644">
        <ele>2377.9</ele>
        <time>2021-02-20T10:29:06Z</time>
      </trkpt>
      <trkpt lat="45.1684" lon="5.94645">
        <ele>2377.9</ele>
        <time>2021-02-20T10:29:07Z</time>
      </trkpt>
      <trkpt lat="45.1684" lon="5.94646">
        <ele>2377.9</ele>
        <time>2021-02-20T10:29:08Z</time>
      </trkpt>
      <trkpt lat="45.16841" lon="5.94647">
        <ele>2377.9</ele>
        <time>2021-02-20T10:29:09Z</time>
      </trkpt>
      <trkpt lat="45.16841" lon="5.94648">
        <ele>2378.7</ele>
        <time>2021-02-20T10:29:10Z</time>
      </trkpt>
      <trkpt lat="45.16841" lon="5.94649">
        <ele>2378.7</ele>
        <time>2021-02-20T10:29:11Z</time>
      </trkpt>
      <trkpt lat="45.16841" lon="5.9465">
        <ele>2378.7</ele>
        <time>2021-02-20T10:29:12Z</time>
      </trkpt>
      <trkpt lat="45.1684" lon="5.94651">
        <ele>2378.7</ele>
        <time>2021-02-20T10:29:13Z</time>
      </trkpt>
      <trkpt lat="45.1684" lon="5.94652">
        <ele>2378.7</ele>
        <time>2021-02-20T10:29:14Z</time>
      </trkpt>
      <trkpt lat="45.16841" lon="5.94653">
        <ele>2379.4</ele>
        <time>2021-02-20T10:29:15Z</time>
      </trkpt>
      <trkpt lat="45.16841" lon="5.94653">
        <ele>2379.4</ele>
        <time>2021-02-20T10:29:16Z</time>
      </trkpt>
      <trkpt lat="45.16841" lon="5.94654">
        <ele>2379.4</ele>
        <time>2021-02-20T10:29:17Z</time>
      </trkpt>
      <trkpt lat="45.16841" lon="5.94654">
        <ele>2379.4</ele>
        <time>2021-02-20T10:29:18Z</time>
      </trkpt>
      <trkpt lat="45.16841" lon="5.94655">
        <ele>2379.4</ele>
        <time>2021-02-20T10:29:19Z</time>
      </trkpt>
      <trkpt lat="45.16841" lon="5.94655">
        <ele>2379.4</ele>
        <time>2021-02-20T10:29:20Z</time>
      </trkpt>
      <trkpt lat="45.16841" lon="5.94656">
        <ele>2379.4</ele>
        <time>2021-02-20T10:29:21Z</time>
      </trkpt>
      <trkpt lat="45.16841" lon="5.94657">
        <ele>2380.1</ele>
        <time>2021-02-20T10:29:22Z</time>
      </trkpt>
      <trkpt lat="45.16841" lon="5.94657">
        <ele>2380.1</ele>
        <time>2021-02-20T10:29:23Z</time>
      </trkpt>
      <trkpt lat="45.16842" lon="5.94658">
        <ele>2380.1</ele>
        <time>2021-02-20T10:29:24Z</time>
      </trkpt>
      <trkpt lat="45.16842" lon="5.94659">
        <ele>2380.1</ele>
        <time>2021-02-20T10:29:25Z</time>
      </trkpt>
      <trkpt lat="45.16842" lon="5.9466">
        <ele>2380.1</ele>
        <time>2021-02-20T10:29:26Z</time>
      </trkpt>
      <trkpt lat="45.16843" lon="5.94661">
        <ele>2382.6</ele>
        <time>2021-02-20T10:29:27Z</time>
      </trkpt>
      <trkpt lat="45.16843" lon="5.94662">
        <ele>2382.6</ele>
        <time>2021-02-20T10:29:28Z</time>
      </trkpt>
      <trkpt lat="45.16843" lon="5.94662">
        <ele>2382.6</ele>
        <time>2021-02-20T10:29:29Z</time>
      </trkpt>
      <trkpt lat="45.16843" lon="5.94663">
        <ele>2382.6</ele>
        <time>2021-02-20T10:29:30Z</time>
      </trkpt>
      <trkpt lat="45.16843" lon="5.94664">
        <ele>2382.6</ele>
        <time>2021-02-20T10:29:31Z</time>
      </trkpt>
      <trkpt lat="45.16844" lon="5.94664">
        <ele>2382.6</ele>
        <time>2021-02-20T10:29:32Z</time>
      </trkpt>
      <trkpt lat="45.16844" lon="5.94665">
        <ele>2382.6</ele>
        <time>2021-02-20T10:29:33Z</time>
      </trkpt>
      <trkpt lat="45.16844" lon="5.94665">
        <ele>2383.4</ele>
        <time>2021-02-20T10:29:34Z</time>
      </trkpt>
      <trkpt lat="45.16845" lon="5.94666">
        <ele>2383.4</ele>
        <time>2021-02-20T10:29:35Z</time>
      </trkpt>
      <trkpt lat="45.16845" lon="5.94667">
        <ele>2383.4</ele>
        <time>2021-02-20T10:29:36Z</time>
      </trkpt>
      <trkpt lat="45.16846" lon="5.94668">
        <ele>2385.1</ele>
        <time>2021-02-20T10:29:37Z</time>
      </trkpt>
      <trkpt lat="45.16846" lon="5.94669">
        <ele>2385.1</ele>
        <time>2021-02-20T10:29:38Z</time>
      </trkpt>
      <trkpt lat="45.16847" lon="5.9467">
        <ele>2385.8</ele>
        <time>2021-02-20T10:29:39Z</time>
      </trkpt>
      <trkpt lat="45.16847" lon="5.94671">
        <ele>2385.8</ele>
        <time>2021-02-20T10:29:40Z</time>
      </trkpt>
      <trkpt lat="45.16847" lon="5.94671">
        <ele>2385.8</ele>
        <time>2021-02-20T10:29:41Z</time>
      </trkpt>
      <trkpt lat="45.16847" lon="5.94672">
        <ele>2385.8</ele>
        <time>2021-02-20T10:29:42Z</time>
      </trkpt>
      <trkpt lat="45.16847" lon="5.94672">
        <ele>2385.8</ele>
        <time>2021-02-20T10:29:43Z</time>
      </trkpt>
      <trkpt lat="45.16847" lon="5.94673">
        <ele>2385.8</ele>
        <time>2021-02-20T10:29:44Z</time>
      </trkpt>
      <trkpt lat="45.16848" lon="5.94673">
        <ele>2385.8</ele>
        <time>2021-02-20T10:29:45Z</time>
      </trkpt>
      <trkpt lat="45.16848" lon="5.94674">
        <ele>2386.6</ele>
        <time>2021-02-20T10:29:46Z</time>
      </trkpt>
      <trkpt lat="45.16848" lon="5.94675">
        <ele>2386.6</ele>
        <time>2021-02-20T10:29:47Z</time>
      </trkpt>
      <trkpt lat="45.16848" lon="5.94676">
        <ele>2386.6</ele>
        <time>2021-02-20T10:29:48Z</time>
      </trkpt>
      <trkpt lat="45.16848" lon="5.94677">
        <ele>2386.6</ele>
        <time>2021-02-20T10:29:49Z</time>
      </trkpt>
      <trkpt lat="45.16848" lon="5.94678">
        <ele>2388.3</ele>
        <time>2021-02-20T10:29:50Z</time>
      </trkpt>
      <trkpt lat="45.16849" lon="5.94678">
        <ele>2389</ele>
        <time>2021-02-20T10:29:51Z</time>
      </trkpt>
      <trkpt lat="45.16849" lon="5.94679">
        <ele>2389</ele>
        <time>2021-02-20T10:29:52Z</time>
      </trkpt>
      <trkpt lat="45.16849" lon="5.9468">
        <ele>2389</ele>
        <time>2021-02-20T10:29:53Z</time>
      </trkpt>
      <trkpt lat="45.16849" lon="5.9468">
        <ele>2389</ele>
        <time>2021-02-20T10:29:54Z</time>
      </trkpt>
      <trkpt lat="45.16849" lon="5.94681">
        <ele>2389</ele>
        <time>2021-02-20T10:29:55Z</time>
      </trkpt>
      <trkpt lat="45.16849" lon="5.94681">
        <ele>2389</ele>
        <time>2021-02-20T10:29:56Z</time>
      </trkpt>
      <trkpt lat="45.16849" lon="5.94682">
        <ele>2389</ele>
        <time>2021-02-20T10:29:57Z</time>
      </trkpt>
      <trkpt lat="45.1685" lon="5.94682">
        <ele>2389.7</ele>
        <time>2021-02-20T10:29:58Z</time>
      </trkpt>
      <trkpt lat="45.1685" lon="5.94683">
        <ele>2389.7</ele>
        <time>2021-02-20T10:29:59Z</time>
      </trkpt>
      <trkpt lat="45.1685" lon="5.94684">
        <ele>2389.7</ele>
        <time>2021-02-20T10:30:00Z</time>
      </trkpt>
      <trkpt lat="45.16851" lon="5.94685">
        <ele>2389.7</ele>
        <time>2021-02-20T10:30:01Z</time>
      </trkpt>
      <trkpt lat="45.16851" lon="5.94686">
        <ele>2389.7</ele>
        <time>2021-02-20T10:30:02Z</time>
      </trkpt>
      <trkpt lat="45.16851" lon="5.94687">
        <ele>2390.4</ele>
        <time>2021-02-20T10:30:03Z</time>
      </trkpt>
      <trkpt lat="45.16851" lon="5.94688">
        <ele>2390.4</ele>
        <time>2021-02-20T10:30:04Z</time>
      </trkpt>
      <trkpt lat="45.16851" lon="5.94689">
        <ele>2390.4</ele>
        <time>2021-02-20T10:30:05Z</time>
      </trkpt>
      <trkpt lat="45.16851" lon="5.9469">
        <ele>2392.3</ele>
        <time>2021-02-20T10:30:06Z</time>
      </trkpt>
      <trkpt lat="45.16852" lon="5.9469">
        <ele>2392.3</ele>
        <time>2021-02-20T10:30:07Z</time>
      </trkpt>
      <trkpt lat="45.16852" lon="5.94691">
        <ele>2392.9</ele>
        <time>2021-02-20T10:30:08Z</time>
      </trkpt>
      <trkpt lat="45.16852" lon="5.94691">
        <ele>2392.9</ele>
        <time>2021-02-20T10:30:09Z</time>
      </trkpt>
      <trkpt lat="45.16852" lon="5.94692">
        <ele>2392.9</ele>
        <time>2021-02-20T10:30:10Z</time>
      </trkpt>
      <trkpt lat="45.16852" lon="5.94692">
        <ele>2392.9</ele>
        <time>2021-02-20T10:30:11Z</time>
      </trkpt>
      <trkpt lat="45.16852" lon="5.94693">
        <ele>2392.9</ele>
        <time>2021-02-20T10:30:12Z</time>
      </trkpt>
      <trkpt lat="45.16852" lon="5.94694">
        <ele>2392.9</ele>
        <time>2021-02-20T10:30:13Z</time>
      </trkpt>
      <trkpt lat="45.16852" lon="5.94694">
        <ele>2392.9</ele>
        <time>2021-02-20T10:30:14Z</time>
      </trkpt>
      <trkpt lat="45.16853" lon="5.94695">
        <ele>2392.9</ele>
        <time>2021-02-20T10:30:15Z</time>
      </trkpt>
      <trkpt lat="45.16853" lon="5.94696">
        <ele>2393.6</ele>
        <time>2021-02-20T10:30:16Z</time>
      </trkpt>
      <trkpt lat="45.16853" lon="5.94697">
        <ele>2393.6</ele>
        <time>2021-02-20T10:30:17Z</time>
      </trkpt>
      <trkpt lat="45.16854" lon="5.94697">
        <ele>2393.6</ele>
        <time>2021-02-20T10:30:18Z</time>
      </trkpt>
      <trkpt lat="45.16854" lon="5.94698">
        <ele>2393.6</ele>
        <time>2021-02-20T10:30:19Z</time>
      </trkpt>
      <trkpt lat="45.16854" lon="5.94699">
        <ele>2393.6</ele>
        <time>2021-02-20T10:30:20Z</time>
      </trkpt>
      <trkpt lat="45.16854" lon="5.94699">
        <ele>2393.6</ele>
        <time>2021-02-20T10:30:21Z</time>
      </trkpt>
      <trkpt lat="45.16854" lon="5.947">
        <ele>2394.3</ele>
        <time>2021-02-20T10:30:22Z</time>
      </trkpt>
      <trkpt lat="45.16855" lon="5.947">
        <ele>2396.4</ele>
        <time>2021-02-20T10:30:23Z</time>
      </trkpt>
      <trkpt lat="45.16855" lon="5.94701">
        <ele>2396.4</ele>
        <time>2021-02-20T10:30:24Z</time>
      </trkpt>
      <trkpt lat="45.16855" lon="5.94701">
        <ele>2396.4</ele>
        <time>2021-02-20T10:30:25Z</time>
      </trkpt>
      <trkpt lat="45.16855" lon="5.94702">
        <ele>2396.4</ele>
        <time>2021-02-20T10:30:26Z</time>
      </trkpt>
      <trkpt lat="45.16855" lon="5.94702">
        <ele>2396.4</ele>
        <time>2021-02-20T10:30:27Z</time>
      </trkpt>
      <trkpt lat="45.16855" lon="5.94702">
        <ele>2396.4</ele>
        <time>2021-02-20T10:30:28Z</time>
      </trkpt>
      <trkpt lat="45.16855" lon="5.94701">
        <ele>2396.4</ele>
        <time>2021-02-20T10:30:29Z</time>
      </trkpt>
      <trkpt lat="45.16855" lon="5.94701">
        <ele>2396.4</ele>
        <time>2021-02-20T10:30:30Z</time>
      </trkpt>
      <trkpt lat="45.16855" lon="5.947">
        <ele>2396.4</ele>
        <time>2021-02-20T10:30:31Z</time>
      </trkpt>
      <trkpt lat="45.16855" lon="5.94699">
        <ele>2396.4</ele>
        <time>2021-02-20T10:30:32Z</time>
      </trkpt>
      <trkpt lat="45.16855" lon="5.94699">
        <ele>2395.7</ele>
        <time>2021-02-20T10:30:33Z</time>
      </trkpt>
      <trkpt lat="45.16855" lon="5.94698">
        <ele>2395.7</ele>
        <time>2021-02-20T10:30:34Z</time>
      </trkpt>
      <trkpt lat="45.16855" lon="5.94698">
        <ele>2395.7</ele>
        <time>2021-02-20T10:30:35Z</time>
      </trkpt>
      <trkpt lat="45.16854" lon="5.94697">
        <ele>2393.6</ele>
        <time>2021-02-20T10:30:36Z</time>
      </trkpt>
      <trkpt lat="45.16854" lon="5.94697">
        <ele>2393.6</ele>
        <time>2021-02-20T10:30:37Z</time>
      </trkpt>
      <trkpt lat="45.16854" lon="5.94696">
        <ele>2393.6</ele>
        <time>2021-02-20T10:30:38Z</time>
      </trkpt>
      <trkpt lat="45.16855" lon="5.94696">
        <ele>2395.7</ele>
        <time>2021-02-20T10:30:39Z</time>
      </trkpt>
      <trkpt lat="45.16855" lon="5.94695">
        <ele>2395.7</ele>
        <time>2021-02-20T10:30:40Z</time>
      </trkpt>
      <trkpt lat="45.16855" lon="5.94695">
        <ele>2395</ele>
        <time>2021-02-20T10:30:41Z</time>
      </trkpt>
      <trkpt lat="45.16855" lon="5.94694">
        <ele>2395</ele>
        <time>2021-02-20T10:30:42Z</time>
      </trkpt>
      <trkpt lat="45.16855" lon="5.94693">
        <ele>2395</ele>
        <time>2021-02-20T10:30:43Z</time>
      </trkpt>
      <trkpt lat="45.16856" lon="5.94692">
        <ele>2395</ele>
        <time>2021-02-20T10:30:44Z</time>
      </trkpt>
      <trkpt lat="45.16856" lon="5.94691">
        <ele>2395</ele>
        <time>2021-02-20T10:30:45Z</time>
      </trkpt>
      <trkpt lat="45.16856" lon="5.94691">
        <ele>2395</ele>
        <time>2021-02-20T10:30:46Z</time>
      </trkpt>
      <trkpt lat="45.16856" lon="5.94691">
        <ele>2394.3</ele>
        <time>2021-02-20T10:30:47Z</time>
      </trkpt>
      <trkpt lat="45.16856" lon="5.9469">
        <ele>2394.3</ele>
        <time>2021-02-20T10:30:48Z</time>
      </trkpt>
      <trkpt lat="45.16856" lon="5.94689">
        <ele>2394.3</ele>
        <time>2021-02-20T10:30:49Z</time>
      </trkpt>
      <trkpt lat="45.16856" lon="5.94688">
        <ele>2394.3</ele>
        <time>2021-02-20T10:30:50Z</time>
      </trkpt>
      <trkpt lat="45.16856" lon="5.94688">
        <ele>2394.3</ele>
        <time>2021-02-20T10:30:51Z</time>
      </trkpt>
      <trkpt lat="45.16856" lon="5.94687">
        <ele>2394.3</ele>
        <time>2021-02-20T10:30:52Z</time>
      </trkpt>
      <trkpt lat="45.16857" lon="5.94688">
        <ele>2394.3</ele>
        <time>2021-02-20T10:30:53Z</time>
      </trkpt>
      <trkpt lat="45.16857" lon="5.94687">
        <ele>2394.3</ele>
        <time>2021-02-20T10:30:54Z</time>
      </trkpt>
      <trkpt lat="45.16857" lon="5.94687">
        <ele>2394.3</ele>
        <time>2021-02-20T10:30:55Z</time>
      </trkpt>
      <trkpt lat="45.16857" lon="5.94687">
        <ele>2394.3</ele>
        <time>2021-02-20T10:30:56Z</time>
      </trkpt>
      <trkpt lat="45.16857" lon="5.94687">
        <ele>2393.6</ele>
        <time>2021-02-20T10:30:57Z</time>
      </trkpt>
      <trkpt lat="45.16856" lon="5.94686">
        <ele>2393.6</ele>
        <time>2021-02-20T10:30:58Z</time>
      </trkpt>
      <trkpt lat="45.16856" lon="5.94686">
        <ele>2393.6</ele>
        <time>2021-02-20T10:30:59Z</time>
      </trkpt>
      <trkpt lat="45.16856" lon="5.94685">
        <ele>2393.6</ele>
        <time>2021-02-20T10:31:00Z</time>
      </trkpt>
      <trkpt lat="45.16856" lon="5.94685">
        <ele>2393.6</ele>
        <time>2021-02-20T10:31:01Z</time>
      </trkpt>
      <trkpt lat="45.16856" lon="5.94685">
        <ele>2393.6</ele>
        <time>2021-02-20T10:31:02Z</time>
      </trkpt>
      <trkpt lat="45.16856" lon="5.94685">
        <ele>2393.6</ele>
        <time>2021-02-20T10:31:03Z</time>
      </trkpt>
      <trkpt lat="45.16856" lon="5.94685">
        <ele>2393.6</ele>
        <time>2021-02-20T10:31:04Z</time>
      </trkpt>
      <trkpt lat="45.16856" lon="5.94685">
        <ele>2393.6</ele>
        <time>2021-02-20T10:31:05Z</time>
      </trkpt>
      <trkpt lat="45.16857" lon="5.94685">
        <ele>2393.6</ele>
        <time>2021-02-20T10:31:06Z</time>
      </trkpt>
      <trkpt lat="45.16858" lon="5.94685">
        <ele>2395.8</ele>
        <time>2021-02-20T10:31:07Z</time>
      </trkpt>
      <trkpt lat="45.16858" lon="5.94686">
        <ele>2395.8</ele>
        <time>2021-02-20T10:31:08Z</time>
      </trkpt>
      <trkpt lat="45.16859" lon="5.94687">
        <ele>2395.8</ele>
        <time>2021-02-20T10:31:09Z</time>
      </trkpt>
      <trkpt lat="45.16859" lon="5.94687">
        <ele>2396.6</ele>
        <time>2021-02-20T10:31:10Z</time>
      </trkpt>
      <trkpt lat="45.1686" lon="5.94687">
        <ele>2396.6</ele>
        <time>2021-02-20T10:31:11Z</time>
      </trkpt>
      <trkpt lat="45.1686" lon="5.94688">
        <ele>2396.6</ele>
        <time>2021-02-20T10:31:12Z</time>
      </trkpt>
      <trkpt lat="45.16861" lon="5.94689">
        <ele>2399</ele>
        <time>2021-02-20T10:31:13Z</time>
      </trkpt>
      <trkpt lat="45.16861" lon="5.9469">
        <ele>2399</ele>
        <time>2021-02-20T10:31:14Z</time>
      </trkpt>
      <trkpt lat="45.16862" lon="5.94691">
        <ele>2399</ele>
        <time>2021-02-20T10:31:15Z</time>
      </trkpt>
      <trkpt lat="45.16863" lon="5.94691">
        <ele>2399.7</ele>
        <time>2021-02-20T10:31:16Z</time>
      </trkpt>
      <trkpt lat="45.16863" lon="5.94692">
        <ele>2399.7</ele>
        <time>2021-02-20T10:31:17Z</time>
      </trkpt>
      <trkpt lat="45.16863" lon="5.94693">
        <ele>2399.7</ele>
        <time>2021-02-20T10:31:18Z</time>
      </trkpt>
      <trkpt lat="45.16864" lon="5.94693">
        <ele>2402.1</ele>
        <time>2021-02-20T10:31:19Z</time>
      </trkpt>
      <trkpt lat="45.16864" lon="5.94694">
        <ele>2402.1</ele>
        <time>2021-02-20T10:31:20Z</time>
      </trkpt>
      <trkpt lat="45.16865" lon="5.94695">
        <ele>2402.1</ele>
        <time>2021-02-20T10:31:21Z</time>
      </trkpt>
      <trkpt lat="45.16865" lon="5.94696">
        <ele>2402.9</ele>
        <time>2021-02-20T10:31:22Z</time>
      </trkpt>
      <trkpt lat="45.16866" lon="5.94697">
        <ele>2402.9</ele>
        <time>2021-02-20T10:31:23Z</time>
      </trkpt>
      <trkpt lat="45.16866" lon="5.94698">
        <ele>2402.9</ele>
        <time>2021-02-20T10:31:24Z</time>
      </trkpt>
      <trkpt lat="45.16866" lon="5.94698">
        <ele>2402.9</ele>
        <time>2021-02-20T10:31:25Z</time>
      </trkpt>
      <trkpt lat="45.16867" lon="5.94699">
        <ele>2402.9</ele>
        <time>2021-02-20T10:31:26Z</time>
      </trkpt>
      <trkpt lat="45.16867" lon="5.947">
        <ele>2405.9</ele>
        <time>2021-02-20T10:31:27Z</time>
      </trkpt>
      <trkpt lat="45.16867" lon="5.94701">
        <ele>2405.9</ele>
        <time>2021-02-20T10:31:28Z</time>
      </trkpt>
      <trkpt lat="45.16867" lon="5.94701">
        <ele>2405.9</ele>
        <time>2021-02-20T10:31:29Z</time>
      </trkpt>
      <trkpt lat="45.16868" lon="5.94702">
        <ele>2405.9</ele>
        <time>2021-02-20T10:31:30Z</time>
      </trkpt>
      <trkpt lat="45.16868" lon="5.94703">
        <ele>2405.9</ele>
        <time>2021-02-20T10:31:31Z</time>
      </trkpt>
      <trkpt lat="45.16868" lon="5.94704">
        <ele>2405.9</ele>
        <time>2021-02-20T10:31:32Z</time>
      </trkpt>
      <trkpt lat="45.16869" lon="5.94705">
        <ele>2406.6</ele>
        <time>2021-02-20T10:31:33Z</time>
      </trkpt>
      <trkpt lat="45.16869" lon="5.94705">
        <ele>2406.6</ele>
        <time>2021-02-20T10:31:34Z</time>
      </trkpt>
      <trkpt lat="45.16869" lon="5.94706">
        <ele>2406.6</ele>
        <time>2021-02-20T10:31:35Z</time>
      </trkpt>
      <trkpt lat="45.16869" lon="5.94706">
        <ele>2406.6</ele>
        <time>2021-02-20T10:31:36Z</time>
      </trkpt>
      <trkpt lat="45.1687" lon="5.94707">
        <ele>2408.8</ele>
        <time>2021-02-20T10:31:37Z</time>
      </trkpt>
      <trkpt lat="45.1687" lon="5.94708">
        <ele>2409.5</ele>
        <time>2021-02-20T10:31:38Z</time>
      </trkpt>
      <trkpt lat="45.1687" lon="5.94709">
        <ele>2409.5</ele>
        <time>2021-02-20T10:31:39Z</time>
      </trkpt>
      <trkpt lat="45.1687" lon="5.9471">
        <ele>2409.5</ele>
        <time>2021-02-20T10:31:40Z</time>
      </trkpt>
      <trkpt lat="45.16871" lon="5.94711">
        <ele>2409.5</ele>
        <time>2021-02-20T10:31:41Z</time>
      </trkpt>
      <trkpt lat="45.16871" lon="5.94711">
        <ele>2409.5</ele>
        <time>2021-02-20T10:31:42Z</time>
      </trkpt>
      <trkpt lat="45.16871" lon="5.94712">
        <ele>2409.5</ele>
        <time>2021-02-20T10:31:43Z</time>
      </trkpt>
      <trkpt lat="45.16871" lon="5.94712">
        <ele>2410.2</ele>
        <time>2021-02-20T10:31:44Z</time>
      </trkpt>
      <trkpt lat="45.16871" lon="5.94713">
        <ele>2410.2</ele>
        <time>2021-02-20T10:31:45Z</time>
      </trkpt>
      <trkpt lat="45.16871" lon="5.94714">
        <ele>2410.2</ele>
        <time>2021-02-20T10:31:46Z</time>
      </trkpt>
      <trkpt lat="45.16872" lon="5.94715">
        <ele>2410.2</ele>
        <time>2021-02-20T10:31:47Z</time>
      </trkpt>
      <trkpt lat="45.16872" lon="5.94716">
        <ele>2410.2</ele>
        <time>2021-02-20T10:31:48Z</time>
      </trkpt>
      <trkpt lat="45.16872" lon="5.94716">
        <ele>2410.2</ele>
        <time>2021-02-20T10:31:49Z</time>
      </trkpt>
      <trkpt lat="45.16872" lon="5.94717">
        <ele>2410.9</ele>
        <time>2021-02-20T10:31:50Z</time>
      </trkpt>
      <trkpt lat="45.16872" lon="5.94718">
        <ele>2410.9</ele>
        <time>2021-02-20T10:31:51Z</time>
      </trkpt>
      <trkpt lat="45.16872" lon="5.94719">
        <ele>2410.9</ele>
        <time>2021-02-20T10:31:52Z</time>
      </trkpt>
      <trkpt lat="45.16872" lon="5.9472">
        <ele>2410.9</ele>
        <time>2021-02-20T10:31:53Z</time>
      </trkpt>
      <trkpt lat="45.16872" lon="5.94721">
        <ele>2411.5</ele>
        <time>2021-02-20T10:31:54Z</time>
      </trkpt>
      <trkpt lat="45.16872" lon="5.94722">
        <ele>2411.5</ele>
        <time>2021-02-20T10:31:55Z</time>
      </trkpt>
      <trkpt lat="45.16872" lon="5.94723">
        <ele>2411.5</ele>
        <time>2021-02-20T10:31:56Z</time>
      </trkpt>
      <trkpt lat="45.16872" lon="5.94723">
        <ele>2411.5</ele>
        <time>2021-02-20T10:31:57Z</time>
      </trkpt>
      <trkpt lat="45.16873" lon="5.94724">
        <ele>2411.5</ele>
        <time>2021-02-20T10:31:58Z</time>
      </trkpt>
      <trkpt lat="45.16873" lon="5.94725">
        <ele>2411.5</ele>
        <time>2021-02-20T10:31:59Z</time>
      </trkpt>
      <trkpt lat="45.16873" lon="5.94726">
        <ele>2414.1</ele>
        <time>2021-02-20T10:32:00Z</time>
      </trkpt>
      <trkpt lat="45.16873" lon="5.94726">
        <ele>2414.1</ele>
        <time>2021-02-20T10:32:01Z</time>
      </trkpt>
      <trkpt lat="45.16873" lon="5.94727">
        <ele>2414.1</ele>
        <time>2021-02-20T10:32:02Z</time>
      </trkpt>
      <trkpt lat="45.16873" lon="5.94727">
        <ele>2414.1</ele>
        <time>2021-02-20T10:32:03Z</time>
      </trkpt>
      <trkpt lat="45.16873" lon="5.94728">
        <ele>2414.1</ele>
        <time>2021-02-20T10:32:04Z</time>
      </trkpt>
      <trkpt lat="45.16873" lon="5.94729">
        <ele>2414.1</ele>
        <time>2021-02-20T10:32:05Z</time>
      </trkpt>
      <trkpt lat="45.16873" lon="5.9473">
        <ele>2414.6</ele>
        <time>2021-02-20T10:32:06Z</time>
      </trkpt>
      <trkpt lat="45.16873" lon="5.94731">
        <ele>2414.6</ele>
        <time>2021-02-20T10:32:07Z</time>
      </trkpt>
      <trkpt lat="45.16873" lon="5.94732">
        <ele>2414.6</ele>
        <time>2021-02-20T10:32:08Z</time>
      </trkpt>
      <trkpt lat="45.16874" lon="5.94733">
        <ele>2414.6</ele>
        <time>2021-02-20T10:32:09Z</time>
      </trkpt>
      <trkpt lat="45.16874" lon="5.94734">
        <ele>2414.6</ele>
        <time>2021-02-20T10:32:10Z</time>
      </trkpt>
      <trkpt lat="45.16874" lon="5.94734">
        <ele>2415.1</ele>
        <time>2021-02-20T10:32:11Z</time>
      </trkpt>
      <trkpt lat="45.16874" lon="5.94735">
        <ele>2415.1</ele>
        <time>2021-02-20T10:32:12Z</time>
      </trkpt>
      <trkpt lat="45.16874" lon="5.94736">
        <ele>2415.1</ele>
        <time>2021-02-20T10:32:13Z</time>
      </trkpt>
      <trkpt lat="45.16874" lon="5.94737">
        <ele>2415.1</ele>
        <time>2021-02-20T10:32:14Z</time>
      </trkpt>
      <trkpt lat="45.16874" lon="5.94737">
        <ele>2415.1</ele>
        <time>2021-02-20T10:32:15Z</time>
      </trkpt>
      <trkpt lat="45.16875" lon="5.94738">
        <ele>2415.1</ele>
        <time>2021-02-20T10:32:16Z</time>
      </trkpt>
      <trkpt lat="45.16875" lon="5.94739">
        <ele>2415.5</ele>
        <time>2021-02-20T10:32:17Z</time>
      </trkpt>
      <trkpt lat="45.16875" lon="5.9474">
        <ele>2415.5</ele>
        <time>2021-02-20T10:32:18Z</time>
      </trkpt>
      <trkpt lat="45.16875" lon="5.9474">
        <ele>2415.5</ele>
        <time>2021-02-20T10:32:19Z</time>
      </trkpt>
      <trkpt lat="45.16875" lon="5.94741">
        <ele>2415.5</ele>
        <time>2021-02-20T10:32:20Z</time>
      </trkpt>
      <trkpt lat="45.16875" lon="5.94742">
        <ele>2415.5</ele>
        <time>2021-02-20T10:32:21Z</time>
      </trkpt>
      <trkpt lat="45.16875" lon="5.94742">
        <ele>2415.8</ele>
        <time>2021-02-20T10:32:22Z</time>
      </trkpt>
      <trkpt lat="45.16876" lon="5.94743">
        <ele>2417.8</ele>
        <time>2021-02-20T10:32:23Z</time>
      </trkpt>
      <trkpt lat="45.16876" lon="5.94744">
        <ele>2417.8</ele>
        <time>2021-02-20T10:32:24Z</time>
      </trkpt>
      <trkpt lat="45.16876" lon="5.94745">
        <ele>2417.8</ele>
        <time>2021-02-20T10:32:25Z</time>
      </trkpt>
      <trkpt lat="45.16876" lon="5.94746">
        <ele>2417.8</ele>
        <time>2021-02-20T10:32:26Z</time>
      </trkpt>
      <trkpt lat="45.16876" lon="5.94746">
        <ele>2417.8</ele>
        <time>2021-02-20T10:32:27Z</time>
      </trkpt>
      <trkpt lat="45.16877" lon="5.94747">
        <ele>2418.1</ele>
        <time>2021-02-20T10:32:28Z</time>
      </trkpt>
      <trkpt lat="45.16877" lon="5.94748">
        <ele>2418.1</ele>
        <time>2021-02-20T10:32:29Z</time>
      </trkpt>
      <trkpt lat="45.16877" lon="5.94749">
        <ele>2418.1</ele>
        <time>2021-02-20T10:32:30Z</time>
      </trkpt>
      <trkpt lat="45.16877" lon="5.9475">
        <ele>2418.1</ele>
        <time>2021-02-20T10:32:31Z</time>
      </trkpt>
      <trkpt lat="45.16877" lon="5.9475">
        <ele>2418.1</ele>
        <time>2021-02-20T10:32:32Z</time>
      </trkpt>
      <trkpt lat="45.16877" lon="5.94751">
        <ele>2418.1</ele>
        <time>2021-02-20T10:32:33Z</time>
      </trkpt>
      <trkpt lat="45.16877" lon="5.94751">
        <ele>2418.4</ele>
        <time>2021-02-20T10:32:34Z</time>
      </trkpt>
      <trkpt lat="45.16877" lon="5.94752">
        <ele>2418.4</ele>
        <time>2021-02-20T10:32:35Z</time>
      </trkpt>
      <trkpt lat="45.16877" lon="5.94751">
        <ele>2418.4</ele>
        <time>2021-02-20T10:32:36Z</time>
      </trkpt>
      <trkpt lat="45.16877" lon="5.94751">
        <ele>2418.4</ele>
        <time>2021-02-20T10:32:37Z</time>
      </trkpt>
      <trkpt lat="45.16877" lon="5.94751">
        <ele>2418.4</ele>
        <time>2021-02-20T10:32:38Z</time>
      </trkpt>
      <trkpt lat="45.16876" lon="5.94751">
        <ele>2418.1</ele>
        <time>2021-02-20T10:32:39Z</time>
      </trkpt>
      <trkpt lat="45.16876" lon="5.94751">
        <ele>2418.1</ele>
        <time>2021-02-20T10:32:40Z</time>
      </trkpt>
      <trkpt lat="45.16876" lon="5.94751">
        <ele>2418.4</ele>
        <time>2021-02-20T10:32:41Z</time>
      </trkpt>
      <trkpt lat="45.16876" lon="5.94751">
        <ele>2418.4</ele>
        <time>2021-02-20T10:32:42Z</time>
      </trkpt>
      <trkpt lat="45.16876" lon="5.94751">
        <ele>2418.4</ele>
        <time>2021-02-20T10:32:43Z</time>
      </trkpt>
      <trkpt lat="45.16876" lon="5.94751">
        <ele>2418.1</ele>
        <time>2021-02-20T10:32:44Z</time>
      </trkpt>
      <trkpt lat="45.16876" lon="5.94751">
        <ele>2418.1</ele>
        <time>2021-02-20T10:32:45Z</time>
      </trkpt>
      <trkpt lat="45.16877" lon="5.9475">
        <ele>2418.1</ele>
        <time>2021-02-20T10:32:46Z</time>
      </trkpt>
      <trkpt lat="45.16877" lon="5.9475">
        <ele>2418.1</ele>
        <time>2021-02-20T10:32:47Z</time>
      </trkpt>
      <trkpt lat="45.16878" lon="5.94751">
        <ele>2418.1</ele>
        <time>2021-02-20T10:32:48Z</time>
      </trkpt>
      <trkpt lat="45.16878" lon="5.94751">
        <ele>2418.1</ele>
        <time>2021-02-20T10:32:49Z</time>
      </trkpt>
      <trkpt lat="45.16878" lon="5.94751">
        <ele>2418.1</ele>
        <time>2021-02-20T10:32:50Z</time>
      </trkpt>
      <trkpt lat="45.16877" lon="5.9475">
        <ele>2418.1</ele>
        <time>2021-02-20T10:32:51Z</time>
      </trkpt>
      <trkpt lat="45.16877" lon="5.9475">
        <ele>2418.1</ele>
        <time>2021-02-20T10:32:52Z</time>
      </trkpt>
      <trkpt lat="45.16877" lon="5.9475">
        <ele>2418.1</ele>
        <time>2021-02-20T10:32:53Z</time>
      </trkpt>
      <trkpt lat="45.16877" lon="5.94749">
        <ele>2418.1</ele>
        <time>2021-02-20T10:32:54Z</time>
      </trkpt>
      <trkpt lat="45.16877" lon="5.94748">
        <ele>2418.1</ele>
        <time>2021-02-20T10:32:55Z</time>
      </trkpt>
      <trkpt lat="45.16878" lon="5.94748">
        <ele>2418.1</ele>
        <time>2021-02-20T10:32:56Z</time>
      </trkpt>
      <trkpt lat="45.16878" lon="5.94747">
        <ele>2418.1</ele>
        <time>2021-02-20T10:32:57Z</time>
      </trkpt>
      <trkpt lat="45.16878" lon="5.94747">
        <ele>2418.1</ele>
        <time>2021-02-20T10:32:58Z</time>
      </trkpt>
      <trkpt lat="45.16878" lon="5.94747">
        <ele>2418.1</ele>
        <time>2021-02-20T10:32:59Z</time>
      </trkpt>
      <trkpt lat="45.16878" lon="5.94746">
        <ele>2417.8</ele>
        <time>2021-02-20T10:33:00Z</time>
      </trkpt>
      <trkpt lat="45.16878" lon="5.94745">
        <ele>2417.8</ele>
        <time>2021-02-20T10:33:01Z</time>
      </trkpt>
      <trkpt lat="45.16878" lon="5.94744">
        <ele>2417.8</ele>
        <time>2021-02-20T10:33:02Z</time>
      </trkpt>
      <trkpt lat="45.16878" lon="5.94744">
        <ele>2417.8</ele>
        <time>2021-02-20T10:33:03Z</time>
      </trkpt>
      <trkpt lat="45.16878" lon="5.94743">
        <ele>2417.8</ele>
        <time>2021-02-20T10:33:04Z</time>
      </trkpt>
      <trkpt lat="45.16878" lon="5.94743">
        <ele>2417.8</ele>
        <time>2021-02-20T10:33:05Z</time>
      </trkpt>
      <trkpt lat="45.16878" lon="5.94742">
        <ele>2417.5</ele>
        <time>2021-02-20T10:33:06Z</time>
      </trkpt>
      <trkpt lat="45.16877" lon="5.94741">
        <ele>2417.5</ele>
        <time>2021-02-20T10:33:07Z</time>
      </trkpt>
      <trkpt lat="45.16877" lon="5.9474">
        <ele>2417.5</ele>
        <time>2021-02-20T10:33:08Z</time>
      </trkpt>
      <trkpt lat="45.16877" lon="5.9474">
        <ele>2417.5</ele>
        <time>2021-02-20T10:33:09Z</time>
      </trkpt>
      <trkpt lat="45.16876" lon="5.94739">
        <ele>2417.5</ele>
        <time>2021-02-20T10:33:10Z</time>
      </trkpt>
      <trkpt lat="45.16875" lon="5.94739">
        <ele>2415.5</ele>
        <time>2021-02-20T10:33:11Z</time>
      </trkpt>
      <trkpt lat="45.16875" lon="5.94738">
        <ele>2415.5</ele>
        <time>2021-02-20T10:33:12Z</time>
      </trkpt>
      <trkpt lat="45.16874" lon="5.94738">
        <ele>2415.1</ele>
        <time>2021-02-20T10:33:13Z</time>
      </trkpt>
      <trkpt lat="45.16874" lon="5.94737">
        <ele>2415.1</ele>
        <time>2021-02-20T10:33:14Z</time>
      </trkpt>
      <trkpt lat="45.16874" lon="5.94736">
        <ele>2415.1</ele>
        <time>2021-02-20T10:33:15Z</time>
      </trkpt>
      <trkpt lat="45.16874" lon="5.94736">
        <ele>2415.1</ele>
        <time>2021-02-20T10:33:16Z</time>
      </trkpt>
      <trkpt lat="45.16874" lon="5.94735">
        <ele>2415.1</ele>
        <time>2021-02-20T10:33:17Z</time>
      </trkpt>
      <trkpt lat="45.16875" lon="5.94735">
        <ele>2415.1</ele>
        <time>2021-02-20T10:33:18Z</time>
      </trkpt>
      <trkpt lat="45.16875" lon="5.94734">
        <ele>2415.1</ele>
        <time>2021-02-20T10:33:19Z</time>
      </trkpt>
      <trkpt lat="45.16876" lon="5.94734">
        <ele>2417.1</ele>
        <time>2021-02-20T10:33:20Z</time>
      </trkpt>
      <trkpt lat="45.16876" lon="5.94734">
        <ele>2416.7</ele>
        <time>2021-02-20T10:33:21Z</time>
      </trkpt>
      <trkpt lat="45.16877" lon="5.94733">
        <ele>2416.7</ele>
        <time>2021-02-20T10:33:22Z</time>
      </trkpt>
      <trkpt lat="45.16877" lon="5.94733">
        <ele>2416.7</ele>
        <time>2021-02-20T10:33:23Z</time>
      </trkpt>
      <trkpt lat="45.16878" lon="5.94732">
        <ele>2416.7</ele>
        <time>2021-02-20T10:33:24Z</time>
      </trkpt>
      <trkpt lat="45.16879" lon="5.94731">
        <ele>2416.7</ele>
        <time>2021-02-20T10:33:25Z</time>
      </trkpt>
      <trkpt lat="45.16879" lon="5.9473">
        <ele>2418.9</ele>
        <time>2021-02-20T10:33:26Z</time>
      </trkpt>
      <trkpt lat="45.1688" lon="5.94729">
        <ele>2418.4</ele>
        <time>2021-02-20T10:33:27Z</time>
      </trkpt>
      <trkpt lat="45.16881" lon="5.94728">
        <ele>2418.4</ele>
        <time>2021-02-20T10:33:28Z</time>
      </trkpt>
      <trkpt lat="45.16882" lon="5.94727">
        <ele>2420.8</ele>
        <time>2021-02-20T10:33:29Z</time>
      </trkpt>
      <trkpt lat="45.16883" lon="5.94726">
        <ele>2420.8</ele>
        <time>2021-02-20T10:33:30Z</time>
      </trkpt>
      <trkpt lat="45.16883" lon="5.94725">
        <ele>2420.3</ele>
        <time>2021-02-20T10:33:31Z</time>
      </trkpt>
      <trkpt lat="45.16884" lon="5.94725">
        <ele>2420.8</ele>
        <time>2021-02-20T10:33:32Z</time>
      </trkpt>
      <trkpt lat="45.16884" lon="5.94726">
        <ele>2420.8</ele>
        <time>2021-02-20T10:33:33Z</time>
      </trkpt>
      <trkpt lat="45.16884" lon="5.94726">
        <ele>2420.8</ele>
        <time>2021-02-20T10:33:34Z</time>
      </trkpt>
      <trkpt lat="45.16884" lon="5.94725">
        <ele>2420.3</ele>
        <time>2021-02-20T10:33:35Z</time>
      </trkpt>
      <trkpt lat="45.16884" lon="5.94723">
        <ele>2420.3</ele>
        <time>2021-02-20T10:33:36Z</time>
      </trkpt>
      <trkpt lat="45.16884" lon="5.94722">
        <ele>2420.3</ele>
        <time>2021-02-20T10:33:37Z</time>
      </trkpt>
      <trkpt lat="45.16884" lon="5.94722">
        <ele>2420.3</ele>
        <time>2021-02-20T10:33:38Z</time>
      </trkpt>
      <trkpt lat="45.16883" lon="5.94722">
        <ele>2420.3</ele>
        <time>2021-02-20T10:33:39Z</time>
      </trkpt>
      <trkpt lat="45.16883" lon="5.94722">
        <ele>2420.3</ele>
        <time>2021-02-20T10:33:40Z</time>
      </trkpt>
      <trkpt lat="45.16883" lon="5.94722">
        <ele>2420.3</ele>
        <time>2021-02-20T10:33:41Z</time>
      </trkpt>
      <trkpt lat="45.16883" lon="5.94722">
        <ele>2420.3</ele>
        <time>2021-02-20T10:33:42Z</time>
      </trkpt>
      <trkpt lat="45.16884" lon="5.94721">
        <ele>2419.8</ele>
        <time>2021-02-20T10:33:43Z</time>
      </trkpt>
      <trkpt lat="45.16884" lon="5.9472">
        <ele>2419.8</ele>
        <time>2021-02-20T10:33:44Z</time>
      </trkpt>
      <trkpt lat="45.16883" lon="5.94719">
        <ele>2419.8</ele>
        <time>2021-02-20T10:33:45Z</time>
      </trkpt>
      <trkpt lat="45.16883" lon="5.94718">
        <ele>2419.8</ele>
        <time>2021-02-20T10:33:46Z</time>
      </trkpt>
      <trkpt lat="45.16883" lon="5.94718">
        <ele>2419.8</ele>
        <time>2021-02-20T10:33:47Z</time>
      </trkpt>
      <trkpt lat="45.16883" lon="5.94716">
        <ele>2419.1</ele>
        <time>2021-02-20T10:33:48Z</time>
      </trkpt>
      <trkpt lat="45.16883" lon="5.94716">
        <ele>2419.1</ele>
        <time>2021-02-20T10:33:49Z</time>
      </trkpt>
      <trkpt lat="45.16883" lon="5.94716">
        <ele>2419.1</ele>
        <time>2021-02-20T10:33:50Z</time>
      </trkpt>
      <trkpt lat="45.16883" lon="5.94716">
        <ele>2419.1</ele>
        <time>2021-02-20T10:33:51Z</time>
      </trkpt>
      <trkpt lat="45.16883" lon="5.94716">
        <ele>2419.1</ele>
        <time>2021-02-20T10:33:52Z</time>
      </trkpt>
      <trkpt lat="45.16883" lon="5.94715">
        <ele>2419.1</ele>
        <time>2021-02-20T10:33:53Z</time>
      </trkpt>
      <trkpt lat="45.16883" lon="5.94715">
        <ele>2419.1</ele>
        <time>2021-02-20T10:33:54Z</time>
      </trkpt>
      <trkpt lat="45.16883" lon="5.94714">
        <ele>2419.1</ele>
        <time>2021-02-20T10:33:55Z</time>
      </trkpt>
      <trkpt lat="45.16883" lon="5.94714">
        <ele>2419.1</ele>
        <time>2021-02-20T10:33:56Z</time>
      </trkpt>
      <trkpt lat="45.16883" lon="5.94714">
        <ele>2419.1</ele>
        <time>2021-02-20T10:33:57Z</time>
      </trkpt>
      <trkpt lat="45.16884" lon="5.94714">
        <ele>2419.1</ele>
        <time>2021-02-20T10:33:58Z</time>
      </trkpt>
      <trkpt lat="45.16885" lon="5.94714">
        <ele>2419.1</ele>
        <time>2021-02-20T10:33:59Z</time>
      </trkpt>
      <trkpt lat="45.16885" lon="5.94715">
        <ele>2421.6</ele>
        <time>2021-02-20T10:34:00Z</time>
      </trkpt>
      <trkpt lat="45.16886" lon="5.94715">
        <ele>2421.6</ele>
        <time>2021-02-20T10:34:01Z</time>
      </trkpt>
      <trkpt lat="45.16886" lon="5.94715">
        <ele>2421.6</ele>
        <time>2021-02-20T10:34:02Z</time>
      </trkpt>
      <trkpt lat="45.16887" lon="5.94715">
        <ele>2421.6</ele>
        <time>2021-02-20T10:34:03Z</time>
      </trkpt>
      <trkpt lat="45.16888" lon="5.94716">
        <ele>2424.1</ele>
        <time>2021-02-20T10:34:04Z</time>
      </trkpt>
      <trkpt lat="45.16889" lon="5.94716">
        <ele>2424.1</ele>
        <time>2021-02-20T10:34:05Z</time>
      </trkpt>
      <trkpt lat="45.1689" lon="5.94717">
        <ele>2424.1</ele>
        <time>2021-02-20T10:34:06Z</time>
      </trkpt>
      <trkpt lat="45.1689" lon="5.94717">
        <ele>2424.6</ele>
        <time>2021-02-20T10:34:07Z</time>
      </trkpt>
      <trkpt lat="45.1689" lon="5.94718">
        <ele>2424.6</ele>
        <time>2021-02-20T10:34:08Z</time>
      </trkpt>
      <trkpt lat="45.16891" lon="5.94718">
        <ele>2426.9</ele>
        <time>2021-02-20T10:34:09Z</time>
      </trkpt>
      <trkpt lat="45.16891" lon="5.94719">
        <ele>2426.9</ele>
        <time>2021-02-20T10:34:10Z</time>
      </trkpt>
      <trkpt lat="45.16892" lon="5.9472">
        <ele>2426.9</ele>
        <time>2021-02-20T10:34:11Z</time>
      </trkpt>
      <trkpt lat="45.16892" lon="5.94721">
        <ele>2426.9</ele>
        <time>2021-02-20T10:34:12Z</time>
      </trkpt>
      <trkpt lat="45.16893" lon="5.94722">
        <ele>2427.4</ele>
        <time>2021-02-20T10:34:13Z</time>
      </trkpt>
      <trkpt lat="45.16893" lon="5.94722">
        <ele>2427.4</ele>
        <time>2021-02-20T10:34:14Z</time>
      </trkpt>
      <trkpt lat="45.16894" lon="5.94723">
        <ele>2427.4</ele>
        <time>2021-02-20T10:34:15Z</time>
      </trkpt>
      <trkpt lat="45.16894" lon="5.94724">
        <ele>2429.6</ele>
        <time>2021-02-20T10:34:16Z</time>
      </trkpt>
      <trkpt lat="45.16894" lon="5.94726">
        <ele>2429.9</ele>
        <time>2021-02-20T10:34:17Z</time>
      </trkpt>
      <trkpt lat="45.16895" lon="5.94727">
        <ele>2429.9</ele>
        <time>2021-02-20T10:34:18Z</time>
      </trkpt>
      <trkpt lat="45.16895" lon="5.94728">
        <ele>2429.9</ele>
        <time>2021-02-20T10:34:19Z</time>
      </trkpt>
      <trkpt lat="45.16895" lon="5.94729">
        <ele>2429.9</ele>
        <time>2021-02-20T10:34:20Z</time>
      </trkpt>
      <trkpt lat="45.16896" lon="5.9473">
        <ele>2430.2</ele>
        <time>2021-02-20T10:34:21Z</time>
      </trkpt>
      <trkpt lat="45.16896" lon="5.9473">
        <ele>2430.2</ele>
        <time>2021-02-20T10:34:22Z</time>
      </trkpt>
      <trkpt lat="45.16896" lon="5.94731">
        <ele>2430.2</ele>
        <time>2021-02-20T10:34:23Z</time>
      </trkpt>
      <trkpt lat="45.16897" lon="5.94732">
        <ele>2430.2</ele>
        <time>2021-02-20T10:34:24Z</time>
      </trkpt>
      <trkpt lat="45.16897" lon="5.94732">
        <ele>2432.2</ele>
        <time>2021-02-20T10:34:25Z</time>
      </trkpt>
      <trkpt lat="45.16897" lon="5.94734">
        <ele>2432.2</ele>
        <time>2021-02-20T10:34:26Z</time>
      </trkpt>
      <trkpt lat="45.16898" lon="5.94735">
        <ele>2432.3</ele>
        <time>2021-02-20T10:34:27Z</time>
      </trkpt>
      <trkpt lat="45.16898" lon="5.94735">
        <ele>2432.3</ele>
        <time>2021-02-20T10:34:28Z</time>
      </trkpt>
      <trkpt lat="45.16898" lon="5.94736">
        <ele>2432.3</ele>
        <time>2021-02-20T10:34:29Z</time>
      </trkpt>
      <trkpt lat="45.16899" lon="5.94737">
        <ele>2432.3</ele>
        <time>2021-02-20T10:34:30Z</time>
      </trkpt>
      <trkpt lat="45.16899" lon="5.94738">
        <ele>2432.4</ele>
        <time>2021-02-20T10:34:31Z</time>
      </trkpt>
      <trkpt lat="45.169" lon="5.94739">
        <ele>2432.4</ele>
        <time>2021-02-20T10:34:32Z</time>
      </trkpt>
      <trkpt lat="45.169" lon="5.9474">
        <ele>2434.2</ele>
        <time>2021-02-20T10:34:33Z</time>
      </trkpt>
      <trkpt lat="45.169" lon="5.94741">
        <ele>2434.2</ele>
        <time>2021-02-20T10:34:34Z</time>
      </trkpt>
      <trkpt lat="45.16901" lon="5.94742">
        <ele>2434.2</ele>
        <time>2021-02-20T10:34:35Z</time>
      </trkpt>
      <trkpt lat="45.16901" lon="5.94743">
        <ele>2434.2</ele>
        <time>2021-02-20T10:34:36Z</time>
      </trkpt>
      <trkpt lat="45.16901" lon="5.94743">
        <ele>2434.2</ele>
        <time>2021-02-20T10:34:37Z</time>
      </trkpt>
      <trkpt lat="45.16901" lon="5.94744">
        <ele>2434.2</ele>
        <time>2021-02-20T10:34:38Z</time>
      </trkpt>
      <trkpt lat="45.16902" lon="5.94745">
        <ele>2434.2</ele>
        <time>2021-02-20T10:34:39Z</time>
      </trkpt>
      <trkpt lat="45.16902" lon="5.94746">
        <ele>2434.2</ele>
        <time>2021-02-20T10:34:40Z</time>
      </trkpt>
      <trkpt lat="45.16903" lon="5.94747">
        <ele>2434.1</ele>
        <time>2021-02-20T10:34:41Z</time>
      </trkpt>
      <trkpt lat="45.16903" lon="5.94748">
        <ele>2435.8</ele>
        <time>2021-02-20T10:34:42Z</time>
      </trkpt>
      <trkpt lat="45.16903" lon="5.94749">
        <ele>2435.8</ele>
        <time>2021-02-20T10:34:43Z</time>
      </trkpt>
      <trkpt lat="45.16904" lon="5.94749">
        <ele>2435.8</ele>
        <time>2021-02-20T10:34:44Z</time>
      </trkpt>
      <trkpt lat="45.16904" lon="5.9475">
        <ele>2435.8</ele>
        <time>2021-02-20T10:34:45Z</time>
      </trkpt>
      <trkpt lat="45.16904" lon="5.94751">
        <ele>2435.7</ele>
        <time>2021-02-20T10:34:46Z</time>
      </trkpt>
      <trkpt lat="45.16905" lon="5.94752">
        <ele>2435.7</ele>
        <time>2021-02-20T10:34:47Z</time>
      </trkpt>
      <trkpt lat="45.16905" lon="5.94752">
        <ele>2435.7</ele>
        <time>2021-02-20T10:34:48Z</time>
      </trkpt>
      <trkpt lat="45.16905" lon="5.94752">
        <ele>2435.7</ele>
        <time>2021-02-20T10:34:49Z</time>
      </trkpt>
      <trkpt lat="45.16905" lon="5.94753">
        <ele>2435.7</ele>
        <time>2021-02-20T10:34:50Z</time>
      </trkpt>
      <trkpt lat="45.16906" lon="5.94754">
        <ele>2435.7</ele>
        <time>2021-02-20T10:34:51Z</time>
      </trkpt>
      <trkpt lat="45.16906" lon="5.94755">
        <ele>2437.3</ele>
        <time>2021-02-20T10:34:52Z</time>
      </trkpt>
      <trkpt lat="45.16906" lon="5.94756">
        <ele>2437.2</ele>
        <time>2021-02-20T10:34:53Z</time>
      </trkpt>
      <trkpt lat="45.16906" lon="5.94756">
        <ele>2437.2</ele>
        <time>2021-02-20T10:34:54Z</time>
      </trkpt>
      <trkpt lat="45.16907" lon="5.94756">
        <ele>2437.2</ele>
        <time>2021-02-20T10:34:55Z</time>
      </trkpt>
      <trkpt lat="45.16907" lon="5.94757">
        <ele>2437.2</ele>
        <time>2021-02-20T10:34:56Z</time>
      </trkpt>
      <trkpt lat="45.16907" lon="5.94758">
        <ele>2437.2</ele>
        <time>2021-02-20T10:34:57Z</time>
      </trkpt>
      <trkpt lat="45.16908" lon="5.94759">
        <ele>2437.2</ele>
        <time>2021-02-20T10:34:58Z</time>
      </trkpt>
      <trkpt lat="45.16908" lon="5.94759">
        <ele>2437.2</ele>
        <time>2021-02-20T10:34:59Z</time>
      </trkpt>
      <trkpt lat="45.16908" lon="5.94759">
        <ele>2437.2</ele>
        <time>2021-02-20T10:35:00Z</time>
      </trkpt>
      <trkpt lat="45.16908" lon="5.9476">
        <ele>2437</ele>
        <time>2021-02-20T10:35:01Z</time>
      </trkpt>
      <trkpt lat="45.16908" lon="5.9476">
        <ele>2437</ele>
        <time>2021-02-20T10:35:02Z</time>
      </trkpt>
      <trkpt lat="45.16909" lon="5.9476">
        <ele>2437</ele>
        <time>2021-02-20T10:35:03Z</time>
      </trkpt>
      <trkpt lat="45.16909" lon="5.94761">
        <ele>2438.6</ele>
        <time>2021-02-20T10:35:04Z</time>
      </trkpt>
      <trkpt lat="45.1691" lon="5.94762">
        <ele>2438.6</ele>
        <time>2021-02-20T10:35:05Z</time>
      </trkpt>
      <trkpt lat="45.1691" lon="5.94762">
        <ele>2438.6</ele>
        <time>2021-02-20T10:35:06Z</time>
      </trkpt>
      <trkpt lat="45.16911" lon="5.94763">
        <ele>2438.6</ele>
        <time>2021-02-20T10:35:07Z</time>
      </trkpt>
      <trkpt lat="45.16911" lon="5.94763">
        <ele>2438.6</ele>
        <time>2021-02-20T10:35:08Z</time>
      </trkpt>
      <trkpt lat="45.16911" lon="5.94764">
        <ele>2438.4</ele>
        <time>2021-02-20T10:35:09Z</time>
      </trkpt>
      <trkpt lat="45.16912" lon="5.94764">
        <ele>2438.4</ele>
        <time>2021-02-20T10:35:10Z</time>
      </trkpt>
      <trkpt lat="45.16912" lon="5.94765">
        <ele>2438.4</ele>
        <time>2021-02-20T10:35:11Z</time>
      </trkpt>
      <trkpt lat="45.16912" lon="5.94765">
        <ele>2440.1</ele>
        <time>2021-02-20T10:35:12Z</time>
      </trkpt>
      <trkpt lat="45.16913" lon="5.94766">
        <ele>2440.1</ele>
        <time>2021-02-20T10:35:13Z</time>
      </trkpt>
      <trkpt lat="45.16913" lon="5.94766">
        <ele>2440.1</ele>
        <time>2021-02-20T10:35:14Z</time>
      </trkpt>
      <trkpt lat="45.16913" lon="5.94767">
        <ele>2440.1</ele>
        <time>2021-02-20T10:35:15Z</time>
      </trkpt>
      <trkpt lat="45.16913" lon="5.94768">
        <ele>2440.1</ele>
        <time>2021-02-20T10:35:16Z</time>
      </trkpt>
      <trkpt lat="45.16914" lon="5.94769">
        <ele>2439.9</ele>
        <time>2021-02-20T10:35:17Z</time>
      </trkpt>
      <trkpt lat="45.16914" lon="5.94769">
        <ele>2439.9</ele>
        <time>2021-02-20T10:35:18Z</time>
      </trkpt>
      <trkpt lat="45.16914" lon="5.9477">
        <ele>2439.9</ele>
        <time>2021-02-20T10:35:19Z</time>
      </trkpt>
      <trkpt lat="45.16914" lon="5.9477">
        <ele>2439.9</ele>
        <time>2021-02-20T10:35:20Z</time>
      </trkpt>
      <trkpt lat="45.16915" lon="5.94772">
        <ele>2439.9</ele>
        <time>2021-02-20T10:35:21Z</time>
      </trkpt>
      <trkpt lat="45.16915" lon="5.94773">
        <ele>2439.7</ele>
        <time>2021-02-20T10:35:22Z</time>
      </trkpt>
      <trkpt lat="45.16915" lon="5.94773">
        <ele>2439.7</ele>
        <time>2021-02-20T10:35:23Z</time>
      </trkpt>
      <trkpt lat="45.16915" lon="5.94774">
        <ele>2441.4</ele>
        <time>2021-02-20T10:35:24Z</time>
      </trkpt>
      <trkpt lat="45.16915" lon="5.94775">
        <ele>2441.4</ele>
        <time>2021-02-20T10:35:25Z</time>
      </trkpt>
      <trkpt lat="45.16915" lon="5.94777">
        <ele>2441.4</ele>
        <time>2021-02-20T10:35:26Z</time>
      </trkpt>
      <trkpt lat="45.16915" lon="5.94778">
        <ele>2441.2</ele>
        <time>2021-02-20T10:35:27Z</time>
      </trkpt>
      <trkpt lat="45.16915" lon="5.94778">
        <ele>2441.2</ele>
        <time>2021-02-20T10:35:28Z</time>
      </trkpt>
      <trkpt lat="45.16915" lon="5.94779">
        <ele>2441.2</ele>
        <time>2021-02-20T10:35:29Z</time>
      </trkpt>
      <trkpt lat="45.16916" lon="5.9478">
        <ele>2441.2</ele>
        <time>2021-02-20T10:35:30Z</time>
      </trkpt>
      <trkpt lat="45.16916" lon="5.94781">
        <ele>2441.2</ele>
        <time>2021-02-20T10:35:31Z</time>
      </trkpt>
      <trkpt lat="45.16916" lon="5.94781">
        <ele>2441.1</ele>
        <time>2021-02-20T10:35:32Z</time>
      </trkpt>
      <trkpt lat="45.16916" lon="5.94781">
        <ele>2441.1</ele>
        <time>2021-02-20T10:35:33Z</time>
      </trkpt>
      <trkpt lat="45.16916" lon="5.94781">
        <ele>2441.1</ele>
        <time>2021-02-20T10:35:34Z</time>
      </trkpt>
      <trkpt lat="45.16916" lon="5.94781">
        <ele>2441.1</ele>
        <time>2021-02-20T10:35:35Z</time>
      </trkpt>
      <trkpt lat="45.16916" lon="5.94781">
        <ele>2441.1</ele>
        <time>2021-02-20T10:35:36Z</time>
      </trkpt>
      <trkpt lat="45.16916" lon="5.94781">
        <ele>2441.1</ele>
        <time>2021-02-20T10:35:37Z</time>
      </trkpt>
      <trkpt lat="45.16916" lon="5.94781">
        <ele>2441.1</ele>
        <time>2021-02-20T10:35:38Z</time>
      </trkpt>
      <trkpt lat="45.16916" lon="5.94781">
        <ele>2441.1</ele>
        <time>2021-02-20T10:35:39Z</time>
      </trkpt>
      <trkpt lat="45.16916" lon="5.94781">
        <ele>2441.1</ele>
        <time>2021-02-20T10:35:40Z</time>
      </trkpt>
      <trkpt lat="45.16916" lon="5.94781">
        <ele>2441.1</ele>
        <time>2021-02-20T10:35:41Z</time>
      </trkpt>
      <trkpt lat="45.16917" lon="5.9478">
        <ele>2441.2</ele>
        <time>2021-02-20T10:35:42Z</time>
      </trkpt>
      <trkpt lat="45.16917" lon="5.94781">
        <ele>2441.2</ele>
        <time>2021-02-20T10:35:43Z</time>
      </trkpt>
      <trkpt lat="45.16917" lon="5.94782">
        <ele>2441.1</ele>
        <time>2021-02-20T10:35:44Z</time>
      </trkpt>
      <trkpt lat="45.16917" lon="5.94783">
        <ele>2441.1</ele>
        <time>2021-02-20T10:35:45Z</time>
      </trkpt>
      <trkpt lat="45.16917" lon="5.94783">
        <ele>2441.1</ele>
        <time>2021-02-20T10:35:46Z</time>
      </trkpt>
      <trkpt lat="45.16917" lon="5.94783">
        <ele>2441.1</ele>
        <time>2021-02-20T10:35:47Z</time>
      </trkpt>
      <trkpt lat="45.16917" lon="5.94783">
        <ele>2441.1</ele>
        <time>2021-02-20T10:35:48Z</time>
      </trkpt>
      <trkpt lat="45.16917" lon="5.94783">
        <ele>2441.1</ele>
        <time>2021-02-20T10:35:49Z</time>
      </trkpt>
      <trkpt lat="45.16917" lon="5.94783">
        <ele>2441.1</ele>
        <time>2021-02-20T10:35:50Z</time>
      </trkpt>
      <trkpt lat="45.16917" lon="5.94783">
        <ele>2441.1</ele>
        <time>2021-02-20T10:35:51Z</time>
      </trkpt>
      <trkpt lat="45.16917" lon="5.94783">
        <ele>2441.1</ele>
        <time>2021-02-20T10:35:52Z</time>
      </trkpt>
      <trkpt lat="45.16916" lon="5.94785">
        <ele>2441.1</ele>
        <time>2021-02-20T10:35:53Z</time>
      </trkpt>
      <trkpt lat="45.16916" lon="5.94786">
        <ele>2441</ele>
        <time>2021-02-20T10:35:54Z</time>
      </trkpt>
      <trkpt lat="45.16916" lon="5.94786">
        <ele>2441</ele>
        <time>2021-02-20T10:35:55Z</time>
      </trkpt>
      <trkpt lat="45.16916" lon="5.94788">
        <ele>2441</ele>
        <time>2021-02-20T10:35:56Z</time>
      </trkpt>
      <trkpt lat="45.16915" lon="5.94789">
        <ele>2441</ele>
        <time>2021-02-20T10:35:57Z</time>
      </trkpt>
      <trkpt lat="45.16915" lon="5.94789">
        <ele>2441</ele>
        <time>2021-02-20T10:35:58Z</time>
      </trkpt>
      <trkpt lat="45.16915" lon="5.9479">
        <ele>2440.9</ele>
        <time>2021-02-20T10:35:59Z</time>
      </trkpt>
      <trkpt lat="45.16915" lon="5.94791">
        <ele>2439.2</ele>
        <time>2021-02-20T10:36:00Z</time>
      </trkpt>
      <trkpt lat="45.16915" lon="5.94792">
        <ele>2439.2</ele>
        <time>2021-02-20T10:36:01Z</time>
      </trkpt>
      <trkpt lat="45.16915" lon="5.94793">
        <ele>2439.2</ele>
        <time>2021-02-20T10:36:02Z</time>
      </trkpt>
      <trkpt lat="45.16914" lon="5.94794">
        <ele>2439.1</ele>
        <time>2021-02-20T10:36:03Z</time>
      </trkpt>
      <trkpt lat="45.16914" lon="5.94795">
        <ele>2439.1</ele>
        <time>2021-02-20T10:36:04Z</time>
      </trkpt>
      <trkpt lat="45.16914" lon="5.94796">
        <ele>2439.1</ele>
        <time>2021-02-20T10:36:05Z</time>
      </trkpt>
      <trkpt lat="45.16914" lon="5.94797">
        <ele>2439.1</ele>
        <time>2021-02-20T10:36:06Z</time>
      </trkpt>
      <trkpt lat="45.16914" lon="5.94799">
        <ele>2439</ele>
        <time>2021-02-20T10:36:07Z</time>
      </trkpt>
      <trkpt lat="45.16914" lon="5.948">
        <ele>2439</ele>
        <time>2021-02-20T10:36:08Z</time>
      </trkpt>
      <trkpt lat="45.16914" lon="5.94801">
        <ele>2439</ele>
        <time>2021-02-20T10:36:09Z</time>
      </trkpt>
      <trkpt lat="45.16914" lon="5.94802">
        <ele>2439</ele>
        <time>2021-02-20T10:36:10Z</time>
      </trkpt>
      <trkpt lat="45.16915" lon="5.94803">
        <ele>2438.9</ele>
        <time>2021-02-20T10:36:11Z</time>
      </trkpt>
      <trkpt lat="45.16915" lon="5.94804">
        <ele>2438.9</ele>
        <time>2021-02-20T10:36:12Z</time>
      </trkpt>
      <trkpt lat="45.16915" lon="5.94805">
        <ele>2438.9</ele>
        <time>2021-02-20T10:36:13Z</time>
      </trkpt>
      <trkpt lat="45.16915" lon="5.94806">
        <ele>2440.7</ele>
        <time>2021-02-20T10:36:14Z</time>
      </trkpt>
      <trkpt lat="45.16916" lon="5.94806">
        <ele>2440.7</ele>
        <time>2021-02-20T10:36:15Z</time>
      </trkpt>
      <trkpt lat="45.16916" lon="5.94806">
        <ele>2440.7</ele>
        <time>2021-02-20T10:36:16Z</time>
      </trkpt>
      <trkpt lat="45.16916" lon="5.94806">
        <ele>2440.7</ele>
        <time>2021-02-20T10:36:17Z</time>
      </trkpt>
      <trkpt lat="45.16917" lon="5.94806">
        <ele>2440.7</ele>
        <time>2021-02-20T10:36:18Z</time>
      </trkpt>
      <trkpt lat="45.16917" lon="5.94806">
        <ele>2440.7</ele>
        <time>2021-02-20T10:36:19Z</time>
      </trkpt>
      <trkpt lat="45.16918" lon="5.94806">
        <ele>2440.7</ele>
        <time>2021-02-20T10:36:20Z</time>
      </trkpt>
      <trkpt lat="45.16918" lon="5.94806">
        <ele>2440.7</ele>
        <time>2021-02-20T10:36:21Z</time>
      </trkpt>
      <trkpt lat="45.16918" lon="5.94806">
        <ele>2442.6</ele>
        <time>2021-02-20T10:36:22Z</time>
      </trkpt>
      <trkpt lat="45.16919" lon="5.94805">
        <ele>2442.6</ele>
        <time>2021-02-20T10:36:23Z</time>
      </trkpt>
      <trkpt lat="45.16919" lon="5.94805">
        <ele>2442.6</ele>
        <time>2021-02-20T10:36:24Z</time>
      </trkpt>
      <trkpt lat="45.1692" lon="5.94804">
        <ele>2442.6</ele>
        <time>2021-02-20T10:36:25Z</time>
      </trkpt>
      <trkpt lat="45.1692" lon="5.94804">
        <ele>2442.6</ele>
        <time>2021-02-20T10:36:26Z</time>
      </trkpt>
      <trkpt lat="45.16921" lon="5.94803">
        <ele>2442.6</ele>
        <time>2021-02-20T10:36:27Z</time>
      </trkpt>
      <trkpt lat="45.16921" lon="5.94803">
        <ele>2444.4</ele>
        <time>2021-02-20T10:36:28Z</time>
      </trkpt>
      <trkpt lat="45.16922" lon="5.94803">
        <ele>2444.4</ele>
        <time>2021-02-20T10:36:29Z</time>
      </trkpt>
      <trkpt lat="45.16922" lon="5.94802">
        <ele>2444.4</ele>
        <time>2021-02-20T10:36:30Z</time>
      </trkpt>
      <trkpt lat="45.16923" lon="5.94802">
        <ele>2444.4</ele>
        <time>2021-02-20T10:36:31Z</time>
      </trkpt>
      <trkpt lat="45.16923" lon="5.94801">
        <ele>2444.4</ele>
        <time>2021-02-20T10:36:32Z</time>
      </trkpt>
      <trkpt lat="45.16924" lon="5.94801">
        <ele>2444.4</ele>
        <time>2021-02-20T10:36:33Z</time>
      </trkpt>
      <trkpt lat="45.16925" lon="5.94801">
        <ele>2446.2</ele>
        <time>2021-02-20T10:36:34Z</time>
      </trkpt>
      <trkpt lat="45.16926" lon="5.948">
        <ele>2446.2</ele>
        <time>2021-02-20T10:36:35Z</time>
      </trkpt>
      <trkpt lat="45.16926" lon="5.948">
        <ele>2446.2</ele>
        <time>2021-02-20T10:36:36Z</time>
      </trkpt>
      <trkpt lat="45.16926" lon="5.94799">
        <ele>2446.2</ele>
        <time>2021-02-20T10:36:37Z</time>
      </trkpt>
      <trkpt lat="45.16926" lon="5.94799">
        <ele>2446.2</ele>
        <time>2021-02-20T10:36:38Z</time>
      </trkpt>
      <trkpt lat="45.16927" lon="5.94799">
        <ele>2446.2</ele>
        <time>2021-02-20T10:36:39Z</time>
      </trkpt>
      <trkpt lat="45.16928" lon="5.94798">
        <ele>2447.9</ele>
        <time>2021-02-20T10:36:40Z</time>
      </trkpt>
      <trkpt lat="45.16928" lon="5.94797">
        <ele>2447.9</ele>
        <time>2021-02-20T10:36:41Z</time>
      </trkpt>
      <trkpt lat="45.16929" lon="5.94797">
        <ele>2447.9</ele>
        <time>2021-02-20T10:36:42Z</time>
      </trkpt>
      <trkpt lat="45.16928" lon="5.94797">
        <ele>2447.9</ele>
        <time>2021-02-20T10:36:43Z</time>
      </trkpt>
      <trkpt lat="45.16928" lon="5.94796">
        <ele>2447.9</ele>
        <time>2021-02-20T10:36:44Z</time>
      </trkpt>
      <trkpt lat="45.16928" lon="5.94796">
        <ele>2447.9</ele>
        <time>2021-02-20T10:36:45Z</time>
      </trkpt>
      <trkpt lat="45.16929" lon="5.94795">
        <ele>2447.9</ele>
        <time>2021-02-20T10:36:46Z</time>
      </trkpt>
      <trkpt lat="45.16929" lon="5.94795">
        <ele>2447.9</ele>
        <time>2021-02-20T10:36:47Z</time>
      </trkpt>
      <trkpt lat="45.16929" lon="5.94794">
        <ele>2447.9</ele>
        <time>2021-02-20T10:36:48Z</time>
      </trkpt>
      <trkpt lat="45.16929" lon="5.94793">
        <ele>2447.8</ele>
        <time>2021-02-20T10:36:49Z</time>
      </trkpt>
      <trkpt lat="45.16929" lon="5.94793">
        <ele>2447.8</ele>
        <time>2021-02-20T10:36:50Z</time>
      </trkpt>
      <trkpt lat="45.16928" lon="5.94793">
        <ele>2447.8</ele>
        <time>2021-02-20T10:36:51Z</time>
      </trkpt>
      <trkpt lat="45.16928" lon="5.94793">
        <ele>2447.8</ele>
        <time>2021-02-20T10:36:52Z</time>
      </trkpt>
      <trkpt lat="45.16927" lon="5.94792">
        <ele>2447.8</ele>
        <time>2021-02-20T10:36:53Z</time>
      </trkpt>
      <trkpt lat="45.16927" lon="5.94792">
        <ele>2446.2</ele>
        <time>2021-02-20T10:36:54Z</time>
      </trkpt>
      <trkpt lat="45.16927" lon="5.94791">
        <ele>2446.2</ele>
        <time>2021-02-20T10:36:55Z</time>
      </trkpt>
      <trkpt lat="45.16927" lon="5.9479">
        <ele>2446.2</ele>
        <time>2021-02-20T10:36:56Z</time>
      </trkpt>
      <trkpt lat="45.16927" lon="5.9479">
        <ele>2446.2</ele>
        <time>2021-02-20T10:36:57Z</time>
      </trkpt>
      <trkpt lat="45.16928" lon="5.94789">
        <ele>2447.8</ele>
        <time>2021-02-20T10:36:58Z</time>
      </trkpt>
      <trkpt lat="45.16928" lon="5.94789">
        <ele>2447.8</ele>
        <time>2021-02-20T10:36:59Z</time>
      </trkpt>
      <trkpt lat="45.16928" lon="5.94788">
        <ele>2447.8</ele>
        <time>2021-02-20T10:37:00Z</time>
      </trkpt>
      <trkpt lat="45.16928" lon="5.94788">
        <ele>2447.8</ele>
        <time>2021-02-20T10:37:01Z</time>
      </trkpt>
      <trkpt lat="45.16928" lon="5.94787">
        <ele>2447.8</ele>
        <time>2021-02-20T10:37:02Z</time>
      </trkpt>
      <trkpt lat="45.16929" lon="5.94786">
        <ele>2447.8</ele>
        <time>2021-02-20T10:37:03Z</time>
      </trkpt>
      <trkpt lat="45.16929" lon="5.94785">
        <ele>2447.8</ele>
        <time>2021-02-20T10:37:04Z</time>
      </trkpt>
      <trkpt lat="45.16929" lon="5.94785">
        <ele>2447.8</ele>
        <time>2021-02-20T10:37:05Z</time>
      </trkpt>
      <trkpt lat="45.16929" lon="5.94784">
        <ele>2447.8</ele>
        <time>2021-02-20T10:37:06Z</time>
      </trkpt>
      <trkpt lat="45.16929" lon="5.94784">
        <ele>2447.8</ele>
        <time>2021-02-20T10:37:07Z</time>
      </trkpt>
      <trkpt lat="45.16929" lon="5.94783">
        <ele>2447.8</ele>
        <time>2021-02-20T10:37:08Z</time>
      </trkpt>
      <trkpt lat="45.16929" lon="5.94783">
        <ele>2447.8</ele>
        <time>2021-02-20T10:37:09Z</time>
      </trkpt>
      <trkpt lat="45.16929" lon="5.94782">
        <ele>2447.8</ele>
        <time>2021-02-20T10:37:10Z</time>
      </trkpt>
      <trkpt lat="45.16929" lon="5.94781">
        <ele>2447.8</ele>
        <time>2021-02-20T10:37:11Z</time>
      </trkpt>
      <trkpt lat="45.16929" lon="5.94781">
        <ele>2447.9</ele>
        <time>2021-02-20T10:37:12Z</time>
      </trkpt>
      <trkpt lat="45.16929" lon="5.9478">
        <ele>2447.9</ele>
        <time>2021-02-20T10:37:13Z</time>
      </trkpt>
      <trkpt lat="45.16929" lon="5.9478">
        <ele>2447.9</ele>
        <time>2021-02-20T10:37:14Z</time>
      </trkpt>
      <trkpt lat="45.16929" lon="5.9478">
        <ele>2447.9</ele>
        <time>2021-02-20T10:37:15Z</time>
      </trkpt>
      <trkpt lat="45.16929" lon="5.94781">
        <ele>2447.9</ele>
        <time>2021-02-20T10:37:16Z</time>
      </trkpt>
      <trkpt lat="45.1693" lon="5.94781">
        <ele>2447.9</ele>
        <time>2021-02-20T10:37:17Z</time>
      </trkpt>
      <trkpt lat="45.1693" lon="5.9478">
        <ele>2449.3</ele>
        <time>2021-02-20T10:37:18Z</time>
      </trkpt>
      <trkpt lat="45.16931" lon="5.94779">
        <ele>2449.3</ele>
        <time>2021-02-20T10:37:19Z</time>
      </trkpt>
      <trkpt lat="45.16931" lon="5.94778">
        <ele>2449.3</ele>
        <time>2021-02-20T10:37:20Z</time>
      </trkpt>
      <trkpt lat="45.1693" lon="5.94777">
        <ele>2449.4</ele>
        <time>2021-02-20T10:37:21Z</time>
      </trkpt>
      <trkpt lat="45.1693" lon="5.94775">
        <ele>2449.4</ele>
        <time>2021-02-20T10:37:22Z</time>
      </trkpt>
      <trkpt lat="45.1693" lon="5.94775">
        <ele>2449.4</ele>
        <time>2021-02-20T10:37:23Z</time>
      </trkpt>
      <trkpt lat="45.16931" lon="5.94774">
        <ele>2449.4</ele>
        <time>2021-02-20T10:37:24Z</time>
      </trkpt>
      <trkpt lat="45.16931" lon="5.94774">
        <ele>2449.4</ele>
        <time>2021-02-20T10:37:25Z</time>
      </trkpt>
      <trkpt lat="45.16931" lon="5.94774">
        <ele>2449.4</ele>
        <time>2021-02-20T10:37:26Z</time>
      </trkpt>
      <trkpt lat="45.16932" lon="5.94774">
        <ele>2449.4</ele>
        <time>2021-02-20T10:37:27Z</time>
      </trkpt>
      <trkpt lat="45.16932" lon="5.94773">
        <ele>2449.4</ele>
        <time>2021-02-20T10:37:28Z</time>
      </trkpt>
      <trkpt lat="45.16932" lon="5.94773">
        <ele>2449.4</ele>
        <time>2021-02-20T10:37:29Z</time>
      </trkpt>
      <trkpt lat="45.16933" lon="5.94773">
        <ele>2449.4</ele>
        <time>2021-02-20T10:37:30Z</time>
      </trkpt>
      <trkpt lat="45.16933" lon="5.94773">
        <ele>2450.8</ele>
        <time>2021-02-20T10:37:31Z</time>
      </trkpt>
      <trkpt lat="45.16933" lon="5.94773">
        <ele>2450.8</ele>
        <time>2021-02-20T10:37:32Z</time>
      </trkpt>
      <trkpt lat="45.16934" lon="5.94772">
        <ele>2450.8</ele>
        <time>2021-02-20T10:37:33Z</time>
      </trkpt>
      <trkpt lat="45.16934" lon="5.94772">
        <ele>2450.8</ele>
        <time>2021-02-20T10:37:34Z</time>
      </trkpt>
      <trkpt lat="45.16934" lon="5.94772">
        <ele>2450.8</ele>
        <time>2021-02-20T10:37:35Z</time>
      </trkpt>
      <trkpt lat="45.16934" lon="5.94772">
        <ele>2450.8</ele>
        <time>2021-02-20T10:37:36Z</time>
      </trkpt>
      <trkpt lat="45.16936" lon="5.94771">
        <ele>2450.8</ele>
        <time>2021-02-20T10:37:37Z</time>
      </trkpt>
      <trkpt lat="45.16937" lon="5.94771">
        <ele>2452.3</ele>
        <time>2021-02-20T10:37:38Z</time>
      </trkpt>
      <trkpt lat="45.16938" lon="5.94771">
        <ele>2452.3</ele>
        <time>2021-02-20T10:37:39Z</time>
      </trkpt>
      <trkpt lat="45.16938" lon="5.94771">
        <ele>2452.3</ele>
        <time>2021-02-20T10:37:40Z</time>
      </trkpt>
      <trkpt lat="45.1694" lon="5.94772">
        <ele>2453.9</ele>
        <time>2021-02-20T10:37:41Z</time>
      </trkpt>
      <trkpt lat="45.16941" lon="5.94772">
        <ele>2453.9</ele>
        <time>2021-02-20T10:37:42Z</time>
      </trkpt>
      <trkpt lat="45.16942" lon="5.94773">
        <ele>2453.9</ele>
        <time>2021-02-20T10:37:43Z</time>
      </trkpt>
      <trkpt lat="45.16942" lon="5.94774">
        <ele>2455.6</ele>
        <time>2021-02-20T10:37:44Z</time>
      </trkpt>
      <trkpt lat="45.16943" lon="5.94774">
        <ele>2455.6</ele>
        <time>2021-02-20T10:37:45Z</time>
      </trkpt>
      <trkpt lat="45.16944" lon="5.94775">
        <ele>2455.6</ele>
        <time>2021-02-20T10:37:46Z</time>
      </trkpt>
      <trkpt lat="45.16944" lon="5.94776">
        <ele>2455.6</ele>
        <time>2021-02-20T10:37:47Z</time>
      </trkpt>
      <trkpt lat="45.16945" lon="5.94776">
        <ele>2455.6</ele>
        <time>2021-02-20T10:37:48Z</time>
      </trkpt>
      <trkpt lat="45.16945" lon="5.94776">
        <ele>2457.4</ele>
        <time>2021-02-20T10:37:49Z</time>
      </trkpt>
      <trkpt lat="45.16946" lon="5.94777">
        <ele>2457.4</ele>
        <time>2021-02-20T10:37:50Z</time>
      </trkpt>
      <trkpt lat="45.16947" lon="5.94778">
        <ele>2457.4</ele>
        <time>2021-02-20T10:37:51Z</time>
      </trkpt>
      <trkpt lat="45.16947" lon="5.94779">
        <ele>2457.4</ele>
        <time>2021-02-20T10:37:52Z</time>
      </trkpt>
      <trkpt lat="45.16947" lon="5.94779">
        <ele>2457.4</ele>
        <time>2021-02-20T10:37:53Z</time>
      </trkpt>
      <trkpt lat="45.16948" lon="5.9478">
        <ele>2457.4</ele>
        <time>2021-02-20T10:37:54Z</time>
      </trkpt>
      <trkpt lat="45.16948" lon="5.94781">
        <ele>2459.3</ele>
        <time>2021-02-20T10:37:55Z</time>
      </trkpt>
      <trkpt lat="45.16949" lon="5.94783">
        <ele>2459.3</ele>
        <time>2021-02-20T10:37:56Z</time>
      </trkpt>
      <trkpt lat="45.16949" lon="5.94783">
        <ele>2459.3</ele>
        <time>2021-02-20T10:37:57Z</time>
      </trkpt>
      <trkpt lat="45.1695" lon="5.94784">
        <ele>2459.3</ele>
        <time>2021-02-20T10:37:58Z</time>
      </trkpt>
      <trkpt lat="45.16951" lon="5.94785">
        <ele>2459.3</ele>
        <time>2021-02-20T10:37:59Z</time>
      </trkpt>
      <trkpt lat="45.16951" lon="5.94786">
        <ele>2459.5</ele>
        <time>2021-02-20T10:38:00Z</time>
      </trkpt>
      <trkpt lat="45.16952" lon="5.94786">
        <ele>2461.1</ele>
        <time>2021-02-20T10:38:01Z</time>
      </trkpt>
      <trkpt lat="45.16952" lon="5.94787">
        <ele>2461.1</ele>
        <time>2021-02-20T10:38:02Z</time>
      </trkpt>
      <trkpt lat="45.16952" lon="5.94788">
        <ele>2461.1</ele>
        <time>2021-02-20T10:38:03Z</time>
      </trkpt>
      <trkpt lat="45.16952" lon="5.94789">
        <ele>2461.1</ele>
        <time>2021-02-20T10:38:04Z</time>
      </trkpt>
      <trkpt lat="45.16952" lon="5.94789">
        <ele>2461.1</ele>
        <time>2021-02-20T10:38:05Z</time>
      </trkpt>
      <trkpt lat="45.16953" lon="5.94789">
        <ele>2461.1</ele>
        <time>2021-02-20T10:38:06Z</time>
      </trkpt>
      <trkpt lat="45.16953" lon="5.9479">
        <ele>2461.3</ele>
        <time>2021-02-20T10:38:07Z</time>
      </trkpt>
      <trkpt lat="45.16953" lon="5.9479">
        <ele>2461.3</ele>
        <time>2021-02-20T10:38:08Z</time>
      </trkpt>
      <trkpt lat="45.16953" lon="5.94791">
        <ele>2461.3</ele>
        <time>2021-02-20T10:38:09Z</time>
      </trkpt>
      <trkpt lat="45.16953" lon="5.94792">
        <ele>2461.3</ele>
        <time>2021-02-20T10:38:10Z</time>
      </trkpt>
      <trkpt lat="45.16953" lon="5.94792">
        <ele>2461.3</ele>
        <time>2021-02-20T10:38:11Z</time>
      </trkpt>
      <trkpt lat="45.16953" lon="5.94793">
        <ele>2461.3</ele>
        <time>2021-02-20T10:38:12Z</time>
      </trkpt>
      <trkpt lat="45.16953" lon="5.94793">
        <ele>2461.3</ele>
        <time>2021-02-20T10:38:13Z</time>
      </trkpt>
      <trkpt lat="45.16954" lon="5.94793">
        <ele>2461.3</ele>
        <time>2021-02-20T10:38:14Z</time>
      </trkpt>
      <trkpt lat="45.16954" lon="5.94794">
        <ele>2463.1</ele>
        <time>2021-02-20T10:38:15Z</time>
      </trkpt>
      <trkpt lat="45.16954" lon="5.94795">
        <ele>2463.1</ele>
        <time>2021-02-20T10:38:16Z</time>
      </trkpt>
      <trkpt lat="45.16954" lon="5.94795">
        <ele>2461.5</ele>
        <time>2021-02-20T10:38:17Z</time>
      </trkpt>
      <trkpt lat="45.16953" lon="5.94795">
        <ele>2461.5</ele>
        <time>2021-02-20T10:38:18Z</time>
      </trkpt>
      <trkpt lat="45.16953" lon="5.94796">
        <ele>2461.5</ele>
        <time>2021-02-20T10:38:19Z</time>
      </trkpt>
      <trkpt lat="45.16952" lon="5.94797">
        <ele>2461.5</ele>
        <time>2021-02-20T10:38:20Z</time>
      </trkpt>
      <trkpt lat="45.16952" lon="5.94798">
        <ele>2461.5</ele>
        <time>2021-02-20T10:38:21Z</time>
      </trkpt>
      <trkpt lat="45.16952" lon="5.94799">
        <ele>2461.8</ele>
        <time>2021-02-20T10:38:22Z</time>
      </trkpt>
      <trkpt lat="45.16952" lon="5.94799">
        <ele>2461.8</ele>
        <time>2021-02-20T10:38:23Z</time>
      </trkpt>
      <trkpt lat="45.16953" lon="5.948">
        <ele>2461.8</ele>
        <time>2021-02-20T10:38:24Z</time>
      </trkpt>
      <trkpt lat="45.16953" lon="5.948">
        <ele>2461.8</ele>
        <time>2021-02-20T10:38:25Z</time>
      </trkpt>
      <trkpt lat="45.16953" lon="5.94801">
        <ele>2461.8</ele>
        <time>2021-02-20T10:38:26Z</time>
      </trkpt>
      <trkpt lat="45.16954" lon="5.94803">
        <ele>2462</ele>
        <time>2021-02-20T10:38:27Z</time>
      </trkpt>
      <trkpt lat="45.16954" lon="5.94804">
        <ele>2463.6</ele>
        <time>2021-02-20T10:38:28Z</time>
      </trkpt>
      <trkpt lat="45.16954" lon="5.94804">
        <ele>2463.6</ele>
        <time>2021-02-20T10:38:29Z</time>
      </trkpt>
      <trkpt lat="45.16954" lon="5.94805">
        <ele>2463.6</ele>
        <time>2021-02-20T10:38:30Z</time>
      </trkpt>
      <trkpt lat="45.16954" lon="5.94806">
        <ele>2463.6</ele>
        <time>2021-02-20T10:38:31Z</time>
      </trkpt>
      <trkpt lat="45.16954" lon="5.94806">
        <ele>2463.6</ele>
        <time>2021-02-20T10:38:32Z</time>
      </trkpt>
      <trkpt lat="45.16955" lon="5.94806">
        <ele>2463.6</ele>
        <time>2021-02-20T10:38:33Z</time>
      </trkpt>
      <trkpt lat="45.16955" lon="5.94807">
        <ele>2463.9</ele>
        <time>2021-02-20T10:38:34Z</time>
      </trkpt>
      <trkpt lat="45.16955" lon="5.94807">
        <ele>2463.9</ele>
        <time>2021-02-20T10:38:35Z</time>
      </trkpt>
      <trkpt lat="45.16955" lon="5.94808">
        <ele>2463.9</ele>
        <time>2021-02-20T10:38:36Z</time>
      </trkpt>
      <trkpt lat="45.16955" lon="5.94808">
        <ele>2463.9</ele>
        <time>2021-02-20T10:38:37Z</time>
      </trkpt>
      <trkpt lat="45.16955" lon="5.94808">
        <ele>2463.9</ele>
        <time>2021-02-20T10:38:38Z</time>
      </trkpt>
      <trkpt lat="45.16955" lon="5.94808">
        <ele>2463.9</ele>
        <time>2021-02-20T10:38:39Z</time>
      </trkpt>
      <trkpt lat="45.16955" lon="5.94807">
        <ele>2463.9</ele>
        <time>2021-02-20T10:38:40Z</time>
      </trkpt>
      <trkpt lat="45.16954" lon="5.94807">
        <ele>2463.9</ele>
        <time>2021-02-20T10:38:41Z</time>
      </trkpt>
      <trkpt lat="45.16954" lon="5.94806">
        <ele>2463.6</ele>
        <time>2021-02-20T10:38:42Z</time>
      </trkpt>
      <trkpt lat="45.16955" lon="5.94805">
        <ele>2463.6</ele>
        <time>2021-02-20T10:38:43Z</time>
      </trkpt>
      <trkpt lat="45.16955" lon="5.94805">
        <ele>2463.6</ele>
        <time>2021-02-20T10:38:44Z</time>
      </trkpt>
      <trkpt lat="45.16956" lon="5.94805">
        <ele>2463.6</ele>
        <time>2021-02-20T10:38:45Z</time>
      </trkpt>
      <trkpt lat="45.16957" lon="5.94804">
        <ele>2463.6</ele>
        <time>2021-02-20T10:38:46Z</time>
      </trkpt>
      <trkpt lat="45.16957" lon="5.94803">
        <ele>2465.2</ele>
        <time>2021-02-20T10:38:47Z</time>
      </trkpt>
      <trkpt lat="45.16958" lon="5.94803">
        <ele>2465.2</ele>
        <time>2021-02-20T10:38:48Z</time>
      </trkpt>
      <trkpt lat="45.16958" lon="5.94802">
        <ele>2465.2</ele>
        <time>2021-02-20T10:38:49Z</time>
      </trkpt>
      <trkpt lat="45.16958" lon="5.94802">
        <ele>2464.9</ele>
        <time>2021-02-20T10:38:50Z</time>
      </trkpt>
      <trkpt lat="45.16958" lon="5.94801">
        <ele>2464.9</ele>
        <time>2021-02-20T10:38:51Z</time>
      </trkpt>
      <trkpt lat="45.16959" lon="5.94801">
        <ele>2464.9</ele>
        <time>2021-02-20T10:38:52Z</time>
      </trkpt>
      <trkpt lat="45.16959" lon="5.948">
        <ele>2464.9</ele>
        <time>2021-02-20T10:38:53Z</time>
      </trkpt>
      <trkpt lat="45.16959" lon="5.948">
        <ele>2464.9</ele>
        <time>2021-02-20T10:38:54Z</time>
      </trkpt>
      <trkpt lat="45.1696" lon="5.948">
        <ele>2464.9</ele>
        <time>2021-02-20T10:38:55Z</time>
      </trkpt>
      <trkpt lat="45.1696" lon="5.94799">
        <ele>2464.9</ele>
        <time>2021-02-20T10:38:56Z</time>
      </trkpt>
      <trkpt lat="45.1696" lon="5.94798">
        <ele>2464.9</ele>
        <time>2021-02-20T10:38:57Z</time>
      </trkpt>
      <trkpt lat="45.1696" lon="5.94798">
        <ele>2464.6</ele>
        <time>2021-02-20T10:38:58Z</time>
      </trkpt>
      <trkpt lat="45.1696" lon="5.94798">
        <ele>2464.6</ele>
        <time>2021-02-20T10:38:59Z</time>
      </trkpt>
      <trkpt lat="45.16961" lon="5.94798">
        <ele>2466.5</ele>
        <time>2021-02-20T10:39:00Z</time>
      </trkpt>
      <trkpt lat="45.16961" lon="5.94799">
        <ele>2466.5</ele>
        <time>2021-02-20T10:39:01Z</time>
      </trkpt>
      <trkpt lat="45.16962" lon="5.94799">
        <ele>2466.5</ele>
        <time>2021-02-20T10:39:02Z</time>
      </trkpt>
      <trkpt lat="45.16962" lon="5.94799">
        <ele>2466.5</ele>
        <time>2021-02-20T10:39:03Z</time>
      </trkpt>
      <trkpt lat="45.16963" lon="5.94799">
        <ele>2466.5</ele>
        <time>2021-02-20T10:39:04Z</time>
      </trkpt>
      <trkpt lat="45.16963" lon="5.94799">
        <ele>2466.5</ele>
        <time>2021-02-20T10:39:05Z</time>
      </trkpt>
      <trkpt lat="45.16962" lon="5.94799">
        <ele>2466.5</ele>
        <time>2021-02-20T10:39:06Z</time>
      </trkpt>
      <trkpt lat="45.16961" lon="5.94799">
        <ele>2466.5</ele>
        <time>2021-02-20T10:39:07Z</time>
      </trkpt>
      <trkpt lat="45.1696" lon="5.94798">
        <ele>2464.9</ele>
        <time>2021-02-20T10:39:08Z</time>
      </trkpt>
      <trkpt lat="45.1696" lon="5.94798">
        <ele>2464.6</ele>
        <time>2021-02-20T10:39:09Z</time>
      </trkpt>
      <trkpt lat="45.16959" lon="5.94796">
        <ele>2464.6</ele>
        <time>2021-02-20T10:39:10Z</time>
      </trkpt>
      <trkpt lat="45.1696" lon="5.94795">
        <ele>2464.6</ele>
        <time>2021-02-20T10:39:11Z</time>
      </trkpt>
      <trkpt lat="45.1696" lon="5.94795">
        <ele>2464.6</ele>
        <time>2021-02-20T10:39:12Z</time>
      </trkpt>
      <trkpt lat="45.16959" lon="5.94794">
        <ele>2464.4</ele>
        <time>2021-02-20T10:39:13Z</time>
      </trkpt>
      <trkpt lat="45.16959" lon="5.94793">
        <ele>2464.4</ele>
        <time>2021-02-20T10:39:14Z</time>
      </trkpt>
      <trkpt lat="45.16959" lon="5.94792">
        <ele>2464.4</ele>
        <time>2021-02-20T10:39:15Z</time>
      </trkpt>
      <trkpt lat="45.16959" lon="5.94792">
        <ele>2464.4</ele>
        <time>2021-02-20T10:39:16Z</time>
      </trkpt>
      <trkpt lat="45.16959" lon="5.94791">
        <ele>2464.4</ele>
        <time>2021-02-20T10:39:17Z</time>
      </trkpt>
      <trkpt lat="45.1696" lon="5.94791">
        <ele>2464.4</ele>
        <time>2021-02-20T10:39:18Z</time>
      </trkpt>
      <trkpt lat="45.1696" lon="5.94791">
        <ele>2464.4</ele>
        <time>2021-02-20T10:39:19Z</time>
      </trkpt>
      <trkpt lat="45.1696" lon="5.9479">
        <ele>2464.4</ele>
        <time>2021-02-20T10:39:20Z</time>
      </trkpt>
      <trkpt lat="45.1696" lon="5.9479">
        <ele>2464.4</ele>
        <time>2021-02-20T10:39:21Z</time>
      </trkpt>
      <trkpt lat="45.1696" lon="5.9479">
        <ele>2465.9</ele>
        <time>2021-02-20T10:39:22Z</time>
      </trkpt>
      <trkpt lat="45.16961" lon="5.94789">
        <ele>2465.7</ele>
        <time>2021-02-20T10:39:23Z</time>
      </trkpt>
      <trkpt lat="45.16961" lon="5.94789">
        <ele>2465.7</ele>
        <time>2021-02-20T10:39:24Z</time>
      </trkpt>
      <trkpt lat="45.16962" lon="5.94788">
        <ele>2465.7</ele>
        <time>2021-02-20T10:39:25Z</time>
      </trkpt>
      <trkpt lat="45.16962" lon="5.94787">
        <ele>2465.7</ele>
        <time>2021-02-20T10:39:26Z</time>
      </trkpt>
      <trkpt lat="45.16962" lon="5.94787">
        <ele>2465.7</ele>
        <time>2021-02-20T10:39:27Z</time>
      </trkpt>
      <trkpt lat="45.16961" lon="5.94787">
        <ele>2465.7</ele>
        <time>2021-02-20T10:39:28Z</time>
      </trkpt>
      <trkpt lat="45.16961" lon="5.94787">
        <ele>2465.7</ele>
        <time>2021-02-20T10:39:29Z</time>
      </trkpt>
      <trkpt lat="45.16961" lon="5.94787">
        <ele>2465.7</ele>
        <time>2021-02-20T10:39:30Z</time>
      </trkpt>
      <trkpt lat="45.16961" lon="5.94786">
        <ele>2465.7</ele>
        <time>2021-02-20T10:39:31Z</time>
      </trkpt>
      <trkpt lat="45.16961" lon="5.94785">
        <ele>2465.4</ele>
        <time>2021-02-20T10:39:32Z</time>
      </trkpt>
      <trkpt lat="45.16961" lon="5.94785">
        <ele>2465.4</ele>
        <time>2021-02-20T10:39:33Z</time>
      </trkpt>
      <trkpt lat="45.16961" lon="5.94785">
        <ele>2465.4</ele>
        <time>2021-02-20T10:39:34Z</time>
      </trkpt>
      <trkpt lat="45.16961" lon="5.94784">
        <ele>2465.4</ele>
        <time>2021-02-20T10:39:35Z</time>
      </trkpt>
      <trkpt lat="45.1696" lon="5.94784">
        <ele>2463.9</ele>
        <time>2021-02-20T10:39:36Z</time>
      </trkpt>
      <trkpt lat="45.1696" lon="5.94784">
        <ele>2463.9</ele>
        <time>2021-02-20T10:39:37Z</time>
      </trkpt>
      <trkpt lat="45.1696" lon="5.94783">
        <ele>2463.9</ele>
        <time>2021-02-20T10:39:38Z</time>
      </trkpt>
      <trkpt lat="45.1696" lon="5.94782">
        <ele>2463.9</ele>
        <time>2021-02-20T10:39:39Z</time>
      </trkpt>
      <trkpt lat="45.1696" lon="5.94781">
        <ele>2463.7</ele>
        <time>2021-02-20T10:39:40Z</time>
      </trkpt>
      <trkpt lat="45.16961" lon="5.9478">
        <ele>2465.2</ele>
        <time>2021-02-20T10:39:41Z</time>
      </trkpt>
      <trkpt lat="45.16961" lon="5.9478">
        <ele>2465.2</ele>
        <time>2021-02-20T10:39:42Z</time>
      </trkpt>
      <trkpt lat="45.1696" lon="5.9478">
        <ele>2463.7</ele>
        <time>2021-02-20T10:39:43Z</time>
      </trkpt>
      <trkpt lat="45.1696" lon="5.9478">
        <ele>2463.7</ele>
        <time>2021-02-20T10:39:44Z</time>
      </trkpt>
      <trkpt lat="45.1696" lon="5.9478">
        <ele>2463.7</ele>
        <time>2021-02-20T10:39:45Z</time>
      </trkpt>
      <trkpt lat="45.16959" lon="5.94779">
        <ele>2463.7</ele>
        <time>2021-02-20T10:39:46Z</time>
      </trkpt>
      <trkpt lat="45.16959" lon="5.94778">
        <ele>2463.7</ele>
        <time>2021-02-20T10:39:47Z</time>
      </trkpt>
      <trkpt lat="45.16959" lon="5.94777">
        <ele>2463.7</ele>
        <time>2021-02-20T10:39:48Z</time>
      </trkpt>
      <trkpt lat="45.16959" lon="5.94777">
        <ele>2463.7</ele>
        <time>2021-02-20T10:39:49Z</time>
      </trkpt>
      <trkpt lat="45.16959" lon="5.94777">
        <ele>2463.7</ele>
        <time>2021-02-20T10:39:50Z</time>
      </trkpt>
      <trkpt lat="45.16958" lon="5.94777">
        <ele>2463.7</ele>
        <time>2021-02-20T10:39:51Z</time>
      </trkpt>
      <trkpt lat="45.16959" lon="5.94776">
        <ele>2463.5</ele>
        <time>2021-02-20T10:39:52Z</time>
      </trkpt>
      <trkpt lat="45.16959" lon="5.94776">
        <ele>2463.5</ele>
        <time>2021-02-20T10:39:53Z</time>
      </trkpt>
      <trkpt lat="45.16959" lon="5.94775">
        <ele>2463.5</ele>
        <time>2021-02-20T10:39:54Z</time>
      </trkpt>
      <trkpt lat="45.16959" lon="5.94775">
        <ele>2463.5</ele>
        <time>2021-02-20T10:39:55Z</time>
      </trkpt>
      <trkpt lat="45.16959" lon="5.94774">
        <ele>2463.5</ele>
        <time>2021-02-20T10:39:56Z</time>
      </trkpt>
      <trkpt lat="45.16959" lon="5.94773">
        <ele>2463.5</ele>
        <time>2021-02-20T10:39:57Z</time>
      </trkpt>
      <trkpt lat="45.16958" lon="5.94772">
        <ele>2463.3</ele>
        <time>2021-02-20T10:39:58Z</time>
      </trkpt>
      <trkpt lat="45.16958" lon="5.94771">
        <ele>2463.3</ele>
        <time>2021-02-20T10:39:59Z</time>
      </trkpt>
      <trkpt lat="45.16958" lon="5.9477">
        <ele>2463.3</ele>
        <time>2021-02-20T10:40:00Z</time>
      </trkpt>
      <trkpt lat="45.16958" lon="5.94769">
        <ele>2463.3</ele>
        <time>2021-02-20T10:40:01Z</time>
      </trkpt>
      <trkpt lat="45.16958" lon="5.94768">
        <ele>2463.1</ele>
        <time>2021-02-20T10:40:02Z</time>
      </trkpt>
      <trkpt lat="45.16957" lon="5.94767">
        <ele>2463.1</ele>
        <time>2021-02-20T10:40:03Z</time>
      </trkpt>
      <trkpt lat="45.16957" lon="5.94767">
        <ele>2461.8</ele>
        <time>2021-02-20T10:40:04Z</time>
      </trkpt>
      <trkpt lat="45.16957" lon="5.94766">
        <ele>2461.8</ele>
        <time>2021-02-20T10:40:05Z</time>
      </trkpt>
      <trkpt lat="45.16957" lon="5.94765">
        <ele>2461.8</ele>
        <time>2021-02-20T10:40:06Z</time>
      </trkpt>
      <trkpt lat="45.16957" lon="5.94763">
        <ele>2461.6</ele>
        <time>2021-02-20T10:40:07Z</time>
      </trkpt>
      <trkpt lat="45.16957" lon="5.94762">
        <ele>2461.6</ele>
        <time>2021-02-20T10:40:08Z</time>
      </trkpt>
      <trkpt lat="45.16957" lon="5.94762">
        <ele>2461.6</ele>
        <time>2021-02-20T10:40:09Z</time>
      </trkpt>
      <trkpt lat="45.16957" lon="5.94761">
        <ele>2461.6</ele>
        <time>2021-02-20T10:40:10Z</time>
      </trkpt>
      <trkpt lat="45.16956" lon="5.9476">
        <ele>2461.6</ele>
        <time>2021-02-20T10:40:11Z</time>
      </trkpt>
      <trkpt lat="45.16956" lon="5.94759">
        <ele>2461.4</ele>
        <time>2021-02-20T10:40:12Z</time>
      </trkpt>
      <trkpt lat="45.16956" lon="5.94758">
        <ele>2461.4</ele>
        <time>2021-02-20T10:40:13Z</time>
      </trkpt>
      <trkpt lat="45.16956" lon="5.94757">
        <ele>2461.4</ele>
        <time>2021-02-20T10:40:14Z</time>
      </trkpt>
      <trkpt lat="45.16956" lon="5.94756">
        <ele>2461.4</ele>
        <time>2021-02-20T10:40:15Z</time>
      </trkpt>
      <trkpt lat="45.16957" lon="5.94756">
        <ele>2461.4</ele>
        <time>2021-02-20T10:40:16Z</time>
      </trkpt>
      <trkpt lat="45.16957" lon="5.94755">
        <ele>2461.4</ele>
        <time>2021-02-20T10:40:17Z</time>
      </trkpt>
      <trkpt lat="45.16958" lon="5.94755">
        <ele>2462.4</ele>
        <time>2021-02-20T10:40:18Z</time>
      </trkpt>
      <trkpt lat="45.16958" lon="5.94754">
        <ele>2462.4</ele>
        <time>2021-02-20T10:40:19Z</time>
      </trkpt>
      <trkpt lat="45.16958" lon="5.94754">
        <ele>2462.4</ele>
        <time>2021-02-20T10:40:20Z</time>
      </trkpt>
      <trkpt lat="45.16959" lon="5.94753">
        <ele>2462.4</ele>
        <time>2021-02-20T10:40:21Z</time>
      </trkpt>
      <trkpt lat="45.16959" lon="5.94752">
        <ele>2462.4</ele>
        <time>2021-02-20T10:40:22Z</time>
      </trkpt>
      <trkpt lat="45.16959" lon="5.94752">
        <ele>2462.4</ele>
        <time>2021-02-20T10:40:23Z</time>
      </trkpt>
      <trkpt lat="45.16959" lon="5.94751">
        <ele>2462.4</ele>
        <time>2021-02-20T10:40:24Z</time>
      </trkpt>
      <trkpt lat="45.16959" lon="5.94751">
        <ele>2462.2</ele>
        <time>2021-02-20T10:40:25Z</time>
      </trkpt>
      <trkpt lat="45.1696" lon="5.9475">
        <ele>2462.2</ele>
        <time>2021-02-20T10:40:26Z</time>
      </trkpt>
      <trkpt lat="45.1696" lon="5.94749">
        <ele>2462.2</ele>
        <time>2021-02-20T10:40:27Z</time>
      </trkpt>
      <trkpt lat="45.16961" lon="5.94748">
        <ele>2463.3</ele>
        <time>2021-02-20T10:40:28Z</time>
      </trkpt>
      <trkpt lat="45.16962" lon="5.94747">
        <ele>2463.3</ele>
        <time>2021-02-20T10:40:29Z</time>
      </trkpt>
      <trkpt lat="45.16962" lon="5.94746">
        <ele>2463.1</ele>
        <time>2021-02-20T10:40:30Z</time>
      </trkpt>
      <trkpt lat="45.16963" lon="5.94744">
        <ele>2463.1</ele>
        <time>2021-02-20T10:40:31Z</time>
      </trkpt>
      <trkpt lat="45.16964" lon="5.94743">
        <ele>2464.2</ele>
        <time>2021-02-20T10:40:32Z</time>
      </trkpt>
      <trkpt lat="45.16965" lon="5.94742">
        <ele>2463.9</ele>
        <time>2021-02-20T10:40:33Z</time>
      </trkpt>
      <trkpt lat="45.16966" lon="5.94741">
        <ele>2463.9</ele>
        <time>2021-02-20T10:40:34Z</time>
      </trkpt>
      <trkpt lat="45.16967" lon="5.9474">
        <ele>2465.1</ele>
        <time>2021-02-20T10:40:35Z</time>
      </trkpt>
      <trkpt lat="45.16968" lon="5.94739">
        <ele>2465.1</ele>
        <time>2021-02-20T10:40:36Z</time>
      </trkpt>
      <trkpt lat="45.16969" lon="5.94738">
        <ele>2465.1</ele>
        <time>2021-02-20T10:40:37Z</time>
      </trkpt>
      <trkpt lat="45.1697" lon="5.94737">
        <ele>2465.9</ele>
        <time>2021-02-20T10:40:38Z</time>
      </trkpt>
      <trkpt lat="45.16972" lon="5.94737">
        <ele>2465.9</ele>
        <time>2021-02-20T10:40:39Z</time>
      </trkpt>
      <trkpt lat="45.16973" lon="5.94737">
        <ele>2467</ele>
        <time>2021-02-20T10:40:40Z</time>
      </trkpt>
      <trkpt lat="45.16975" lon="5.94736">
        <ele>2467</ele>
        <time>2021-02-20T10:40:41Z</time>
      </trkpt>
      <trkpt lat="45.16976" lon="5.94736">
        <ele>2468.1</ele>
        <time>2021-02-20T10:40:42Z</time>
      </trkpt>
      <trkpt lat="45.16978" lon="5.94736">
        <ele>2468.1</ele>
        <time>2021-02-20T10:40:43Z</time>
      </trkpt>
      <trkpt lat="45.1698" lon="5.94736">
        <ele>2469.1</ele>
        <time>2021-02-20T10:40:44Z</time>
      </trkpt>
      <trkpt lat="45.16981" lon="5.94737">
        <ele>2469.1</ele>
        <time>2021-02-20T10:40:45Z</time>
      </trkpt>
      <trkpt lat="45.16982" lon="5.94737">
        <ele>2470.2</ele>
        <time>2021-02-20T10:40:46Z</time>
      </trkpt>
      <trkpt lat="45.16983" lon="5.94738">
        <ele>2470.2</ele>
        <time>2021-02-20T10:40:47Z</time>
      </trkpt>
      <trkpt lat="45.16983" lon="5.94738">
        <ele>2470.7</ele>
        <time>2021-02-20T10:40:48Z</time>
      </trkpt>
      <trkpt lat="45.16984" lon="5.94739">
        <ele>2470.7</ele>
        <time>2021-02-20T10:40:49Z</time>
      </trkpt>
      <trkpt lat="45.16985" lon="5.9474">
        <ele>2471.8</ele>
        <time>2021-02-20T10:40:50Z</time>
      </trkpt>
      <trkpt lat="45.16986" lon="5.9474">
        <ele>2471.8</ele>
        <time>2021-02-20T10:40:51Z</time>
      </trkpt>
      <trkpt lat="45.16986" lon="5.9474">
        <ele>2471.8</ele>
        <time>2021-02-20T10:40:52Z</time>
      </trkpt>
      <trkpt lat="45.16987" lon="5.9474">
        <ele>2471.8</ele>
        <time>2021-02-20T10:40:53Z</time>
      </trkpt>
      <trkpt lat="45.16988" lon="5.9474">
        <ele>2471.8</ele>
        <time>2021-02-20T10:40:54Z</time>
      </trkpt>
      <trkpt lat="45.16988" lon="5.9474">
        <ele>2472.9</ele>
        <time>2021-02-20T10:40:55Z</time>
      </trkpt>
      <trkpt lat="45.16989" lon="5.94741">
        <ele>2472.9</ele>
        <time>2021-02-20T10:40:56Z</time>
      </trkpt>
      <trkpt lat="45.1699" lon="5.94742">
        <ele>2472.9</ele>
        <time>2021-02-20T10:40:57Z</time>
      </trkpt>
      <trkpt lat="45.1699" lon="5.94743">
        <ele>2473.4</ele>
        <time>2021-02-20T10:40:58Z</time>
      </trkpt>
      <trkpt lat="45.1699" lon="5.94744">
        <ele>2473.4</ele>
        <time>2021-02-20T10:40:59Z</time>
      </trkpt>
      <trkpt lat="45.1699" lon="5.94745">
        <ele>2473.4</ele>
        <time>2021-02-20T10:41:00Z</time>
      </trkpt>
      <trkpt lat="45.16991" lon="5.94745">
        <ele>2474.6</ele>
        <time>2021-02-20T10:41:01Z</time>
      </trkpt>
      <trkpt lat="45.16992" lon="5.94746">
        <ele>2474.6</ele>
        <time>2021-02-20T10:41:02Z</time>
      </trkpt>
      <trkpt lat="45.16992" lon="5.94747">
        <ele>2475.1</ele>
        <time>2021-02-20T10:41:03Z</time>
      </trkpt>
      <trkpt lat="45.16993" lon="5.94748">
        <ele>2475.1</ele>
        <time>2021-02-20T10:41:04Z</time>
      </trkpt>
      <trkpt lat="45.16993" lon="5.94748">
        <ele>2475.1</ele>
        <time>2021-02-20T10:41:05Z</time>
      </trkpt>
      <trkpt lat="45.16994" lon="5.94749">
        <ele>2476.3</ele>
        <time>2021-02-20T10:41:06Z</time>
      </trkpt>
      <trkpt lat="45.16994" lon="5.9475">
        <ele>2476.3</ele>
        <time>2021-02-20T10:41:07Z</time>
      </trkpt>
      <trkpt lat="45.16994" lon="5.9475">
        <ele>2476.3</ele>
        <time>2021-02-20T10:41:08Z</time>
      </trkpt>
      <trkpt lat="45.16995" lon="5.94751">
        <ele>2476.3</ele>
        <time>2021-02-20T10:41:09Z</time>
      </trkpt>
      <trkpt lat="45.16995" lon="5.94752">
        <ele>2476.9</ele>
        <time>2021-02-20T10:41:10Z</time>
      </trkpt>
      <trkpt lat="45.16995" lon="5.94752">
        <ele>2476.9</ele>
        <time>2021-02-20T10:41:11Z</time>
      </trkpt>
      <trkpt lat="45.16996" lon="5.94753">
        <ele>2476.9</ele>
        <time>2021-02-20T10:41:12Z</time>
      </trkpt>
      <trkpt lat="45.16996" lon="5.94754">
        <ele>2476.9</ele>
        <time>2021-02-20T10:41:13Z</time>
      </trkpt>
      <trkpt lat="45.16996" lon="5.94755">
        <ele>2476.9</ele>
        <time>2021-02-20T10:41:14Z</time>
      </trkpt>
      <trkpt lat="45.16996" lon="5.94756">
        <ele>2477.5</ele>
        <time>2021-02-20T10:41:15Z</time>
      </trkpt>
      <trkpt lat="45.16997" lon="5.94756">
        <ele>2478.6</ele>
        <time>2021-02-20T10:41:16Z</time>
      </trkpt>
      <trkpt lat="45.16997" lon="5.94757">
        <ele>2478.6</ele>
        <time>2021-02-20T10:41:17Z</time>
      </trkpt>
      <trkpt lat="45.16998" lon="5.94758">
        <ele>2478.6</ele>
        <time>2021-02-20T10:41:18Z</time>
      </trkpt>
      <trkpt lat="45.16998" lon="5.94758">
        <ele>2478.6</ele>
        <time>2021-02-20T10:41:19Z</time>
      </trkpt>
      <trkpt lat="45.16999" lon="5.94759">
        <ele>2478.6</ele>
        <time>2021-02-20T10:41:20Z</time>
      </trkpt>
      <trkpt lat="45.16999" lon="5.9476">
        <ele>2479.3</ele>
        <time>2021-02-20T10:41:21Z</time>
      </trkpt>
      <trkpt lat="45.16999" lon="5.9476">
        <ele>2479.3</ele>
        <time>2021-02-20T10:41:22Z</time>
      </trkpt>
      <trkpt lat="45.16999" lon="5.9476">
        <ele>2479.3</ele>
        <time>2021-02-20T10:41:23Z</time>
      </trkpt>
      <trkpt lat="45.16999" lon="5.94761">
        <ele>2479.3</ele>
        <time>2021-02-20T10:41:24Z</time>
      </trkpt>
      <trkpt lat="45.17" lon="5.94762">
        <ele>2479.3</ele>
        <time>2021-02-20T10:41:25Z</time>
      </trkpt>
      <trkpt lat="45.17" lon="5.94762">
        <ele>2480.4</ele>
        <time>2021-02-20T10:41:26Z</time>
      </trkpt>
      <trkpt lat="45.17" lon="5.94762">
        <ele>2480.4</ele>
        <time>2021-02-20T10:41:27Z</time>
      </trkpt>
      <trkpt lat="45.17" lon="5.94763">
        <ele>2480.4</ele>
        <time>2021-02-20T10:41:28Z</time>
      </trkpt>
      <trkpt lat="45.17" lon="5.94763">
        <ele>2480.4</ele>
        <time>2021-02-20T10:41:29Z</time>
      </trkpt>
      <trkpt lat="45.17" lon="5.94764">
        <ele>2480.4</ele>
        <time>2021-02-20T10:41:30Z</time>
      </trkpt>
      <trkpt lat="45.17001" lon="5.94764">
        <ele>2481.1</ele>
        <time>2021-02-20T10:41:31Z</time>
      </trkpt>
      <trkpt lat="45.17001" lon="5.94765">
        <ele>2481.1</ele>
        <time>2021-02-20T10:41:32Z</time>
      </trkpt>
      <trkpt lat="45.17001" lon="5.94766">
        <ele>2481.1</ele>
        <time>2021-02-20T10:41:33Z</time>
      </trkpt>
      <trkpt lat="45.17002" lon="5.94767">
        <ele>2481.1</ele>
        <time>2021-02-20T10:41:34Z</time>
      </trkpt>
      <trkpt lat="45.17002" lon="5.94767">
        <ele>2481.1</ele>
        <time>2021-02-20T10:41:35Z</time>
      </trkpt>
      <trkpt lat="45.17002" lon="5.94768">
        <ele>2481.1</ele>
        <time>2021-02-20T10:41:36Z</time>
      </trkpt>
      <trkpt lat="45.17002" lon="5.94768">
        <ele>2481.8</ele>
        <time>2021-02-20T10:41:37Z</time>
      </trkpt>
      <trkpt lat="45.17002" lon="5.94769">
        <ele>2481.8</ele>
        <time>2021-02-20T10:41:38Z</time>
      </trkpt>
      <trkpt lat="45.17003" lon="5.9477">
        <ele>2481.8</ele>
        <time>2021-02-20T10:41:39Z</time>
      </trkpt>
      <trkpt lat="45.17003" lon="5.94771">
        <ele>2483</ele>
        <time>2021-02-20T10:41:40Z</time>
      </trkpt>
      <trkpt lat="45.17003" lon="5.94772">
        <ele>2483</ele>
        <time>2021-02-20T10:41:41Z</time>
      </trkpt>
      <trkpt lat="45.17003" lon="5.94772">
        <ele>2483</ele>
        <time>2021-02-20T10:41:42Z</time>
      </trkpt>
      <trkpt lat="45.17003" lon="5.94772">
        <ele>2483</ele>
        <time>2021-02-20T10:41:43Z</time>
      </trkpt>
      <trkpt lat="45.17003" lon="5.94772">
        <ele>2483.7</ele>
        <time>2021-02-20T10:41:44Z</time>
      </trkpt>
      <trkpt lat="45.17003" lon="5.94773">
        <ele>2483.7</ele>
        <time>2021-02-20T10:41:45Z</time>
      </trkpt>
      <trkpt lat="45.17003" lon="5.94774">
        <ele>2483.7</ele>
        <time>2021-02-20T10:41:46Z</time>
      </trkpt>
      <trkpt lat="45.17003" lon="5.94774">
        <ele>2483.7</ele>
        <time>2021-02-20T10:41:47Z</time>
      </trkpt>
      <trkpt lat="45.17004" lon="5.94775">
        <ele>2483.7</ele>
        <time>2021-02-20T10:41:48Z</time>
      </trkpt>
      <trkpt lat="45.17004" lon="5.94776">
        <ele>2483.7</ele>
        <time>2021-02-20T10:41:49Z</time>
      </trkpt>
      <trkpt lat="45.17005" lon="5.94777">
        <ele>2484.5</ele>
        <time>2021-02-20T10:41:50Z</time>
      </trkpt>
      <trkpt lat="45.17005" lon="5.94778">
        <ele>2484.5</ele>
        <time>2021-02-20T10:41:51Z</time>
      </trkpt>
      <trkpt lat="45.17005" lon="5.94779">
        <ele>2484.5</ele>
        <time>2021-02-20T10:41:52Z</time>
      </trkpt>
      <trkpt lat="45.17005" lon="5.94779">
        <ele>2484.5</ele>
        <time>2021-02-20T10:41:53Z</time>
      </trkpt>
      <trkpt lat="45.17005" lon="5.94779">
        <ele>2484.5</ele>
        <time>2021-02-20T10:41:54Z</time>
      </trkpt>
      <trkpt lat="45.17005" lon="5.94779">
        <ele>2484.5</ele>
        <time>2021-02-20T10:41:55Z</time>
      </trkpt>
      <trkpt lat="45.17006" lon="5.94778">
        <ele>2485.6</ele>
        <time>2021-02-20T10:41:56Z</time>
      </trkpt>
      <trkpt lat="45.17006" lon="5.94777">
        <ele>2485.6</ele>
        <time>2021-02-20T10:41:57Z</time>
      </trkpt>
      <trkpt lat="45.17007" lon="5.94776">
        <ele>2484.8</ele>
        <time>2021-02-20T10:41:58Z</time>
      </trkpt>
      <trkpt lat="45.17007" lon="5.94776">
        <ele>2484.8</ele>
        <time>2021-02-20T10:41:59Z</time>
      </trkpt>
      <trkpt lat="45.17008" lon="5.94776">
        <ele>2484.8</ele>
        <time>2021-02-20T10:42:00Z</time>
      </trkpt>
      <trkpt lat="45.17008" lon="5.94776">
        <ele>2484.8</ele>
        <time>2021-02-20T10:42:01Z</time>
      </trkpt>
      <trkpt lat="45.17008" lon="5.94776">
        <ele>2484.8</ele>
        <time>2021-02-20T10:42:02Z</time>
      </trkpt>
      <trkpt lat="45.17008" lon="5.94776">
        <ele>2484.8</ele>
        <time>2021-02-20T10:42:03Z</time>
      </trkpt>
      <trkpt lat="45.17008" lon="5.94776">
        <ele>2484.8</ele>
        <time>2021-02-20T10:42:04Z</time>
      </trkpt>
      <trkpt lat="45.17008" lon="5.94776">
        <ele>2484.8</ele>
        <time>2021-02-20T10:42:05Z</time>
      </trkpt>
      <trkpt lat="45.17008" lon="5.94775">
        <ele>2484.8</ele>
        <time>2021-02-20T10:42:06Z</time>
      </trkpt>
      <trkpt lat="45.17008" lon="5.94774">
        <ele>2484.8</ele>
        <time>2021-02-20T10:42:07Z</time>
      </trkpt>
      <trkpt lat="45.17009" lon="5.94773">
        <ele>2484.8</ele>
        <time>2021-02-20T10:42:08Z</time>
      </trkpt>
      <trkpt lat="45.17009" lon="5.94773">
        <ele>2486</ele>
        <time>2021-02-20T10:42:09Z</time>
      </trkpt>
      <trkpt lat="45.17009" lon="5.94773">
        <ele>2486</ele>
        <time>2021-02-20T10:42:10Z</time>
      </trkpt>
      <trkpt lat="45.17009" lon="5.94773">
        <ele>2486</ele>
        <time>2021-02-20T10:42:11Z</time>
      </trkpt>
      <trkpt lat="45.1701" lon="5.94773">
        <ele>2486</ele>
        <time>2021-02-20T10:42:12Z</time>
      </trkpt>
      <trkpt lat="45.1701" lon="5.94773">
        <ele>2486</ele>
        <time>2021-02-20T10:42:13Z</time>
      </trkpt>
      <trkpt lat="45.1701" lon="5.94772">
        <ele>2485.2</ele>
        <time>2021-02-20T10:42:14Z</time>
      </trkpt>
      <trkpt lat="45.17011" lon="5.94771">
        <ele>2485.2</ele>
        <time>2021-02-20T10:42:15Z</time>
      </trkpt>
      <trkpt lat="45.17011" lon="5.9477">
        <ele>2485.2</ele>
        <time>2021-02-20T10:42:16Z</time>
      </trkpt>
      <trkpt lat="45.17011" lon="5.9477">
        <ele>2485.2</ele>
        <time>2021-02-20T10:42:17Z</time>
      </trkpt>
      <trkpt lat="45.17011" lon="5.9477">
        <ele>2485.2</ele>
        <time>2021-02-20T10:42:18Z</time>
      </trkpt>
      <trkpt lat="45.17011" lon="5.9477">
        <ele>2485.2</ele>
        <time>2021-02-20T10:42:19Z</time>
      </trkpt>
      <trkpt lat="45.17011" lon="5.94771">
        <ele>2485.2</ele>
        <time>2021-02-20T10:42:20Z</time>
      </trkpt>
      <trkpt lat="45.17011" lon="5.94772">
        <ele>2485.2</ele>
        <time>2021-02-20T10:42:21Z</time>
      </trkpt>
      <trkpt lat="45.1701" lon="5.94771">
        <ele>2485.2</ele>
        <time>2021-02-20T10:42:22Z</time>
      </trkpt>
      <trkpt lat="45.1701" lon="5.9477">
        <ele>2485.2</ele>
        <time>2021-02-20T10:42:23Z</time>
      </trkpt>
      <trkpt lat="45.1701" lon="5.9477">
        <ele>2485.2</ele>
        <time>2021-02-20T10:42:24Z</time>
      </trkpt>
      <trkpt lat="45.17011" lon="5.94768">
        <ele>2485.2</ele>
        <time>2021-02-20T10:42:25Z</time>
      </trkpt>
      <trkpt lat="45.17012" lon="5.94767">
        <ele>2484.4</ele>
        <time>2021-02-20T10:42:26Z</time>
      </trkpt>
      <trkpt lat="45.17012" lon="5.94766">
        <ele>2485.6</ele>
        <time>2021-02-20T10:42:27Z</time>
      </trkpt>
      <trkpt lat="45.17012" lon="5.94765">
        <ele>2485.6</ele>
        <time>2021-02-20T10:42:28Z</time>
      </trkpt>
      <trkpt lat="45.17013" lon="5.94764">
        <ele>2485.6</ele>
        <time>2021-02-20T10:42:29Z</time>
      </trkpt>
      <trkpt lat="45.17013" lon="5.94763">
        <ele>2484.7</ele>
        <time>2021-02-20T10:42:30Z</time>
      </trkpt>
      <trkpt lat="45.17013" lon="5.94762">
        <ele>2484.7</ele>
        <time>2021-02-20T10:42:31Z</time>
      </trkpt>
      <trkpt lat="45.17013" lon="5.94762">
        <ele>2484.7</ele>
        <time>2021-02-20T10:42:32Z</time>
      </trkpt>
      <trkpt lat="45.17014" lon="5.94761">
        <ele>2484.7</ele>
        <time>2021-02-20T10:42:33Z</time>
      </trkpt>
      <trkpt lat="45.17014" lon="5.94761">
        <ele>2484.7</ele>
        <time>2021-02-20T10:42:34Z</time>
      </trkpt>
      <trkpt lat="45.17014" lon="5.94761">
        <ele>2484.7</ele>
        <time>2021-02-20T10:42:35Z</time>
      </trkpt>
      <trkpt lat="45.17015" lon="5.94761">
        <ele>2484.7</ele>
        <time>2021-02-20T10:42:36Z</time>
      </trkpt>
      <trkpt lat="45.17015" lon="5.94762">
        <ele>2485.8</ele>
        <time>2021-02-20T10:42:37Z</time>
      </trkpt>
      <trkpt lat="45.17015" lon="5.94763">
        <ele>2485.8</ele>
        <time>2021-02-20T10:42:38Z</time>
      </trkpt>
      <trkpt lat="45.17015" lon="5.94763">
        <ele>2485.8</ele>
        <time>2021-02-20T10:42:39Z</time>
      </trkpt>
      <trkpt lat="45.17016" lon="5.94764">
        <ele>2485.8</ele>
        <time>2021-02-20T10:42:40Z</time>
      </trkpt>
      <trkpt lat="45.17016" lon="5.94764">
        <ele>2486.7</ele>
        <time>2021-02-20T10:42:41Z</time>
      </trkpt>
      <trkpt lat="45.17016" lon="5.94765">
        <ele>2486.7</ele>
        <time>2021-02-20T10:42:42Z</time>
      </trkpt>
      <trkpt lat="45.17017" lon="5.94766">
        <ele>2486.7</ele>
        <time>2021-02-20T10:42:43Z</time>
      </trkpt>
      <trkpt lat="45.17017" lon="5.94766">
        <ele>2486.7</ele>
        <time>2021-02-20T10:42:44Z</time>
      </trkpt>
      <trkpt lat="45.17018" lon="5.94767">
        <ele>2487.8</ele>
        <time>2021-02-20T10:42:45Z</time>
      </trkpt>
      <trkpt lat="45.17018" lon="5.94768">
        <ele>2487.8</ele>
        <time>2021-02-20T10:42:46Z</time>
      </trkpt>
      <trkpt lat="45.17019" lon="5.94769">
        <ele>2488.7</ele>
        <time>2021-02-20T10:42:47Z</time>
      </trkpt>
      <trkpt lat="45.17019" lon="5.9477">
        <ele>2488.7</ele>
        <time>2021-02-20T10:42:48Z</time>
      </trkpt>
      <trkpt lat="45.17019" lon="5.9477">
        <ele>2488.7</ele>
        <time>2021-02-20T10:42:49Z</time>
      </trkpt>
      <trkpt lat="45.17019" lon="5.94771">
        <ele>2488.7</ele>
        <time>2021-02-20T10:42:50Z</time>
      </trkpt>
      <trkpt lat="45.1702" lon="5.94771">
        <ele>2488.7</ele>
        <time>2021-02-20T10:42:51Z</time>
      </trkpt>
      <trkpt lat="45.1702" lon="5.94772">
        <ele>2488.7</ele>
        <time>2021-02-20T10:42:52Z</time>
      </trkpt>
      <trkpt lat="45.1702" lon="5.94772">
        <ele>2488.7</ele>
        <time>2021-02-20T10:42:53Z</time>
      </trkpt>
      <trkpt lat="45.17021" lon="5.94773">
        <ele>2489.4</ele>
        <time>2021-02-20T10:42:54Z</time>
      </trkpt>
      <trkpt lat="45.17021" lon="5.94773">
        <ele>2490.6</ele>
        <time>2021-02-20T10:42:55Z</time>
      </trkpt>
      <trkpt lat="45.17022" lon="5.94774">
        <ele>2490.6</ele>
        <time>2021-02-20T10:42:56Z</time>
      </trkpt>
      <trkpt lat="45.17022" lon="5.94774">
        <ele>2490.6</ele>
        <time>2021-02-20T10:42:57Z</time>
      </trkpt>
      <trkpt lat="45.17022" lon="5.94775">
        <ele>2490.6</ele>
        <time>2021-02-20T10:42:58Z</time>
      </trkpt>
      <trkpt lat="45.17022" lon="5.94775">
        <ele>2490.6</ele>
        <time>2021-02-20T10:42:59Z</time>
      </trkpt>
      <trkpt lat="45.17022" lon="5.94776">
        <ele>2490.6</ele>
        <time>2021-02-20T10:43:00Z</time>
      </trkpt>
      <trkpt lat="45.17023" lon="5.94776">
        <ele>2490.6</ele>
        <time>2021-02-20T10:43:01Z</time>
      </trkpt>
      <trkpt lat="45.17023" lon="5.94777">
        <ele>2490.6</ele>
        <time>2021-02-20T10:43:02Z</time>
      </trkpt>
      <trkpt lat="45.17023" lon="5.94777">
        <ele>2491.2</ele>
        <time>2021-02-20T10:43:03Z</time>
      </trkpt>
      <trkpt lat="45.17023" lon="5.94777">
        <ele>2491.2</ele>
        <time>2021-02-20T10:43:04Z</time>
      </trkpt>
      <trkpt lat="45.17024" lon="5.94777">
        <ele>2491.2</ele>
        <time>2021-02-20T10:43:05Z</time>
      </trkpt>
      <trkpt lat="45.17024" lon="5.94778">
        <ele>2491.2</ele>
        <time>2021-02-20T10:43:06Z</time>
      </trkpt>
      <trkpt lat="45.17024" lon="5.94779">
        <ele>2492.3</ele>
        <time>2021-02-20T10:43:07Z</time>
      </trkpt>
      <trkpt lat="45.17024" lon="5.9478">
        <ele>2492.3</ele>
        <time>2021-02-20T10:43:08Z</time>
      </trkpt>
      <trkpt lat="45.17024" lon="5.94781">
        <ele>2492.8</ele>
        <time>2021-02-20T10:43:09Z</time>
      </trkpt>
      <trkpt lat="45.17024" lon="5.94782">
        <ele>2492.8</ele>
        <time>2021-02-20T10:43:10Z</time>
      </trkpt>
      <trkpt lat="45.17024" lon="5.94783">
        <ele>2492.8</ele>
        <time>2021-02-20T10:43:11Z</time>
      </trkpt>
      <trkpt lat="45.17025" lon="5.94783">
        <ele>2492.8</ele>
        <time>2021-02-20T10:43:12Z</time>
      </trkpt>
      <trkpt lat="45.17025" lon="5.94783">
        <ele>2492.8</ele>
        <time>2021-02-20T10:43:13Z</time>
      </trkpt>
      <trkpt lat="45.17025" lon="5.94783">
        <ele>2492.8</ele>
        <time>2021-02-20T10:43:14Z</time>
      </trkpt>
      <trkpt lat="45.17026" lon="5.94784">
        <ele>2492.8</ele>
        <time>2021-02-20T10:43:15Z</time>
      </trkpt>
      <trkpt lat="45.17026" lon="5.94784">
        <ele>2492.8</ele>
        <time>2021-02-20T10:43:16Z</time>
      </trkpt>
      <trkpt lat="45.17026" lon="5.94784">
        <ele>2492.8</ele>
        <time>2021-02-20T10:43:17Z</time>
      </trkpt>
      <trkpt lat="45.17026" lon="5.94785">
        <ele>2492.8</ele>
        <time>2021-02-20T10:43:18Z</time>
      </trkpt>
      <trkpt lat="45.17026" lon="5.94785">
        <ele>2493.3</ele>
        <time>2021-02-20T10:43:19Z</time>
      </trkpt>
      <trkpt lat="45.17026" lon="5.94785">
        <ele>2493.3</ele>
        <time>2021-02-20T10:43:20Z</time>
      </trkpt>
      <trkpt lat="45.17026" lon="5.94785">
        <ele>2493.3</ele>
        <time>2021-02-20T10:43:21Z</time>
      </trkpt>
      <trkpt lat="45.17026" lon="5.94785">
        <ele>2493.3</ele>
        <time>2021-02-20T10:43:22Z</time>
      </trkpt>
      <trkpt lat="45.17026" lon="5.94785">
        <ele>2493.3</ele>
        <time>2021-02-20T10:43:23Z</time>
      </trkpt>
      <trkpt lat="45.17026" lon="5.94785">
        <ele>2493.3</ele>
        <time>2021-02-20T10:43:24Z</time>
      </trkpt>
      <trkpt lat="45.17026" lon="5.94785">
        <ele>2493.3</ele>
        <time>2021-02-20T10:43:25Z</time>
      </trkpt>
      <trkpt lat="45.17027" lon="5.94785">
        <ele>2493.9</ele>
        <time>2021-02-20T10:43:26Z</time>
      </trkpt>
      <trkpt lat="45.17027" lon="5.94785">
        <ele>2493.9</ele>
        <time>2021-02-20T10:43:27Z</time>
      </trkpt>
      <trkpt lat="45.17027" lon="5.94784">
        <ele>2493.9</ele>
        <time>2021-02-20T10:43:28Z</time>
      </trkpt>
      <trkpt lat="45.17027" lon="5.94783">
        <ele>2493.9</ele>
        <time>2021-02-20T10:43:29Z</time>
      </trkpt>
      <trkpt lat="45.17028" lon="5.94782">
        <ele>2493.9</ele>
        <time>2021-02-20T10:43:30Z</time>
      </trkpt>
      <trkpt lat="45.17028" lon="5.94782">
        <ele>2493.9</ele>
        <time>2021-02-20T10:43:31Z</time>
      </trkpt>
      <trkpt lat="45.17028" lon="5.94781">
        <ele>2493.9</ele>
        <time>2021-02-20T10:43:32Z</time>
      </trkpt>
      <trkpt lat="45.17028" lon="5.94781">
        <ele>2493.9</ele>
        <time>2021-02-20T10:43:33Z</time>
      </trkpt>
      <trkpt lat="45.17028" lon="5.94781">
        <ele>2493.9</ele>
        <time>2021-02-20T10:43:34Z</time>
      </trkpt>
      <trkpt lat="45.17029" lon="5.94781">
        <ele>2493.9</ele>
        <time>2021-02-20T10:43:35Z</time>
      </trkpt>
      <trkpt lat="45.17029" lon="5.94781">
        <ele>2493.4</ele>
        <time>2021-02-20T10:43:36Z</time>
      </trkpt>
      <trkpt lat="45.17029" lon="5.9478">
        <ele>2493.4</ele>
        <time>2021-02-20T10:43:37Z</time>
      </trkpt>
      <trkpt lat="45.17029" lon="5.94779">
        <ele>2493.4</ele>
        <time>2021-02-20T10:43:38Z</time>
      </trkpt>
      <trkpt lat="45.17029" lon="5.94778">
        <ele>2493.4</ele>
        <time>2021-02-20T10:43:39Z</time>
      </trkpt>
      <trkpt lat="45.17029" lon="5.94778">
        <ele>2493.4</ele>
        <time>2021-02-20T10:43:40Z</time>
      </trkpt>
      <trkpt lat="45.1703" lon="5.94778">
        <ele>2493.4</ele>
        <time>2021-02-20T10:43:41Z</time>
      </trkpt>
      <trkpt lat="45.1703" lon="5.94778">
        <ele>2493.4</ele>
        <time>2021-02-20T10:43:42Z</time>
      </trkpt>
      <trkpt lat="45.1703" lon="5.94777">
        <ele>2494.5</ele>
        <time>2021-02-20T10:43:43Z</time>
      </trkpt>
      <trkpt lat="45.1703" lon="5.94777">
        <ele>2494.5</ele>
        <time>2021-02-20T10:43:44Z</time>
      </trkpt>
      <trkpt lat="45.1703" lon="5.94777">
        <ele>2494.5</ele>
        <time>2021-02-20T10:43:45Z</time>
      </trkpt>
      <trkpt lat="45.1703" lon="5.94777">
        <ele>2494.5</ele>
        <time>2021-02-20T10:43:46Z</time>
      </trkpt>
      <trkpt lat="45.1703" lon="5.94777">
        <ele>2494.5</ele>
        <time>2021-02-20T10:43:47Z</time>
      </trkpt>
      <trkpt lat="45.1703" lon="5.94777">
        <ele>2494.5</ele>
        <time>2021-02-20T10:43:48Z</time>
      </trkpt>
      <trkpt lat="45.1703" lon="5.94777">
        <ele>2493.4</ele>
        <time>2021-02-20T10:43:49Z</time>
      </trkpt>
      <trkpt lat="45.1703" lon="5.94778">
        <ele>2494.5</ele>
        <time>2021-02-20T10:43:50Z</time>
      </trkpt>
      <trkpt lat="45.17031" lon="5.94778">
        <ele>2494.5</ele>
        <time>2021-02-20T10:43:51Z</time>
      </trkpt>
      <trkpt lat="45.17031" lon="5.94779">
        <ele>2494.5</ele>
        <time>2021-02-20T10:43:52Z</time>
      </trkpt>
      <trkpt lat="45.17032" lon="5.9478">
        <ele>2494.5</ele>
        <time>2021-02-20T10:43:53Z</time>
      </trkpt>
      <trkpt lat="45.17032" lon="5.9478">
        <ele>2494.5</ele>
        <time>2021-02-20T10:43:54Z</time>
      </trkpt>
      <trkpt lat="45.17033" lon="5.94781">
        <ele>2494.5</ele>
        <time>2021-02-20T10:43:55Z</time>
      </trkpt>
      <trkpt lat="45.17033" lon="5.94781">
        <ele>2496</ele>
        <time>2021-02-20T10:43:56Z</time>
      </trkpt>
      <trkpt lat="45.17034" lon="5.94781">
        <ele>2496</ele>
        <time>2021-02-20T10:43:57Z</time>
      </trkpt>
      <trkpt lat="45.17034" lon="5.94781">
        <ele>2496</ele>
        <time>2021-02-20T10:43:58Z</time>
      </trkpt>
      <trkpt lat="45.17034" lon="5.94781">
        <ele>2496</ele>
        <time>2021-02-20T10:43:59Z</time>
      </trkpt>
      <trkpt lat="45.17034" lon="5.94781">
        <ele>2496</ele>
        <time>2021-02-20T10:44:00Z</time>
      </trkpt>
      <trkpt lat="45.17034" lon="5.94782">
        <ele>2496</ele>
        <time>2021-02-20T10:44:01Z</time>
      </trkpt>
      <trkpt lat="45.17034" lon="5.94782">
        <ele>2496</ele>
        <time>2021-02-20T10:44:02Z</time>
      </trkpt>
      <trkpt lat="45.17034" lon="5.94783">
        <ele>2496</ele>
        <time>2021-02-20T10:44:03Z</time>
      </trkpt>
      <trkpt lat="45.17035" lon="5.94784">
        <ele>2496</ele>
        <time>2021-02-20T10:44:04Z</time>
      </trkpt>
      <trkpt lat="45.17035" lon="5.94785">
        <ele>2496</ele>
        <time>2021-02-20T10:44:05Z</time>
      </trkpt>
      <trkpt lat="45.17035" lon="5.94786">
        <ele>2496.5</ele>
        <time>2021-02-20T10:44:06Z</time>
      </trkpt>
      <trkpt lat="45.17035" lon="5.94787">
        <ele>2496.5</ele>
        <time>2021-02-20T10:44:07Z</time>
      </trkpt>
      <trkpt lat="45.17035" lon="5.94787">
        <ele>2496.5</ele>
        <time>2021-02-20T10:44:08Z</time>
      </trkpt>
      <trkpt lat="45.17036" lon="5.94788">
        <ele>2496.5</ele>
        <time>2021-02-20T10:44:09Z</time>
      </trkpt>
      <trkpt lat="45.17036" lon="5.94789">
        <ele>2497.4</ele>
        <time>2021-02-20T10:44:10Z</time>
      </trkpt>
      <trkpt lat="45.17037" lon="5.9479">
        <ele>2497.4</ele>
        <time>2021-02-20T10:44:11Z</time>
      </trkpt>
      <trkpt lat="45.17037" lon="5.9479">
        <ele>2498</ele>
        <time>2021-02-20T10:44:12Z</time>
      </trkpt>
      <trkpt lat="45.17037" lon="5.94791">
        <ele>2498</ele>
        <time>2021-02-20T10:44:13Z</time>
      </trkpt>
      <trkpt lat="45.17037" lon="5.94792">
        <ele>2498</ele>
        <time>2021-02-20T10:44:14Z</time>
      </trkpt>
      <trkpt lat="45.17037" lon="5.94793">
        <ele>2498</ele>
        <time>2021-02-20T10:44:15Z</time>
      </trkpt>
      <trkpt lat="45.17037" lon="5.94794">
        <ele>2498.6</ele>
        <time>2021-02-20T10:44:16Z</time>
      </trkpt>
      <trkpt lat="45.17037" lon="5.94794">
        <ele>2498.6</ele>
        <time>2021-02-20T10:44:17Z</time>
      </trkpt>
      <trkpt lat="45.17037" lon="5.94795">
        <ele>2498.6</ele>
        <time>2021-02-20T10:44:18Z</time>
      </trkpt>
      <trkpt lat="45.17037" lon="5.94796">
        <ele>2498.6</ele>
        <time>2021-02-20T10:44:19Z</time>
      </trkpt>
      <trkpt lat="45.17037" lon="5.94796">
        <ele>2498.6</ele>
        <time>2021-02-20T10:44:20Z</time>
      </trkpt>
      <trkpt lat="45.17037" lon="5.94796">
        <ele>2498.6</ele>
        <time>2021-02-20T10:44:21Z</time>
      </trkpt>
      <trkpt lat="45.17038" lon="5.94797">
        <ele>2498.6</ele>
        <time>2021-02-20T10:44:22Z</time>
      </trkpt>
      <trkpt lat="45.17038" lon="5.94797">
        <ele>2498.6</ele>
        <time>2021-02-20T10:44:23Z</time>
      </trkpt>
      <trkpt lat="45.17038" lon="5.94797">
        <ele>2498.6</ele>
        <time>2021-02-20T10:44:24Z</time>
      </trkpt>
      <trkpt lat="45.17039" lon="5.94797">
        <ele>2498.6</ele>
        <time>2021-02-20T10:44:25Z</time>
      </trkpt>
      <trkpt lat="45.17039" lon="5.94796">
        <ele>2499.6</ele>
        <time>2021-02-20T10:44:26Z</time>
      </trkpt>
      <trkpt lat="45.1704" lon="5.94796">
        <ele>2499.6</ele>
        <time>2021-02-20T10:44:27Z</time>
      </trkpt>
      <trkpt lat="45.1704" lon="5.94795">
        <ele>2499.6</ele>
        <time>2021-02-20T10:44:28Z</time>
      </trkpt>
      <trkpt lat="45.17041" lon="5.94794">
        <ele>2498.9</ele>
        <time>2021-02-20T10:44:29Z</time>
      </trkpt>
      <trkpt lat="45.17041" lon="5.94792">
        <ele>2498.9</ele>
        <time>2021-02-20T10:44:30Z</time>
      </trkpt>
      <trkpt lat="45.17041" lon="5.94791">
        <ele>2498.9</ele>
        <time>2021-02-20T10:44:31Z</time>
      </trkpt>
      <trkpt lat="45.17041" lon="5.9479">
        <ele>2498.9</ele>
        <time>2021-02-20T10:44:32Z</time>
      </trkpt>
      <trkpt lat="45.1704" lon="5.9479">
        <ele>2498.9</ele>
        <time>2021-02-20T10:44:33Z</time>
      </trkpt>
      <trkpt lat="45.1704" lon="5.9479">
        <ele>2498.9</ele>
        <time>2021-02-20T10:44:34Z</time>
      </trkpt>
      <trkpt lat="45.1704" lon="5.94791">
        <ele>2498.9</ele>
        <time>2021-02-20T10:44:35Z</time>
      </trkpt>
      <trkpt lat="45.17041" lon="5.94791">
        <ele>2498.9</ele>
        <time>2021-02-20T10:44:36Z</time>
      </trkpt>
      <trkpt lat="45.17041" lon="5.94791">
        <ele>2498.9</ele>
        <time>2021-02-20T10:44:37Z</time>
      </trkpt>
      <trkpt lat="45.17041" lon="5.9479">
        <ele>2498.9</ele>
        <time>2021-02-20T10:44:38Z</time>
      </trkpt>
      <trkpt lat="45.17041" lon="5.94789">
        <ele>2498.4</ele>
        <time>2021-02-20T10:44:39Z</time>
      </trkpt>
      <trkpt lat="45.1704" lon="5.94788">
        <ele>2498.4</ele>
        <time>2021-02-20T10:44:40Z</time>
      </trkpt>
      <trkpt lat="45.1704" lon="5.94787">
        <ele>2498.4</ele>
        <time>2021-02-20T10:44:41Z</time>
      </trkpt>
      <trkpt lat="45.1704" lon="5.94786">
        <ele>2498.4</ele>
        <time>2021-02-20T10:44:42Z</time>
      </trkpt>
      <trkpt lat="45.1704" lon="5.94785">
        <ele>2497.8</ele>
        <time>2021-02-20T10:44:43Z</time>
      </trkpt>
      <trkpt lat="45.1704" lon="5.94785">
        <ele>2497.8</ele>
        <time>2021-02-20T10:44:44Z</time>
      </trkpt>
      <trkpt lat="45.1704" lon="5.94785">
        <ele>2497.8</ele>
        <time>2021-02-20T10:44:45Z</time>
      </trkpt>
      <trkpt lat="45.1704" lon="5.94785">
        <ele>2497.8</ele>
        <time>2021-02-20T10:44:46Z</time>
      </trkpt>
      <trkpt lat="45.1704" lon="5.94785">
        <ele>2497.8</ele>
        <time>2021-02-20T10:44:47Z</time>
      </trkpt>
      <trkpt lat="45.17041" lon="5.94784">
        <ele>2497.8</ele>
        <time>2021-02-20T10:44:48Z</time>
      </trkpt>
      <trkpt lat="45.17042" lon="5.94785">
        <ele>2497.8</ele>
        <time>2021-02-20T10:44:49Z</time>
      </trkpt>
      <trkpt lat="45.17042" lon="5.94785">
        <ele>2498.6</ele>
        <time>2021-02-20T10:44:50Z</time>
      </trkpt>
      <trkpt lat="45.17043" lon="5.94785">
        <ele>2498.6</ele>
        <time>2021-02-20T10:44:51Z</time>
      </trkpt>
      <trkpt lat="45.17044" lon="5.94785">
        <ele>2498.6</ele>
        <time>2021-02-20T10:44:52Z</time>
      </trkpt>
      <trkpt lat="45.17045" lon="5.94785">
        <ele>2498.6</ele>
        <time>2021-02-20T10:44:53Z</time>
      </trkpt>
      <trkpt lat="45.17045" lon="5.94785">
        <ele>2498.6</ele>
        <time>2021-02-20T10:44:54Z</time>
      </trkpt>
      <trkpt lat="45.17045" lon="5.94785">
        <ele>2498.6</ele>
        <time>2021-02-20T10:44:55Z</time>
      </trkpt>
      <trkpt lat="45.17045" lon="5.94785">
        <ele>2498.6</ele>
        <time>2021-02-20T10:44:56Z</time>
      </trkpt>
      <trkpt lat="45.17045" lon="5.94785">
        <ele>2498.6</ele>
        <time>2021-02-20T10:44:57Z</time>
      </trkpt>
      <trkpt lat="45.17045" lon="5.94785">
        <ele>2498.6</ele>
        <time>2021-02-20T10:44:58Z</time>
      </trkpt>
      <trkpt lat="45.17045" lon="5.94785">
        <ele>2498.6</ele>
        <time>2021-02-20T10:44:59Z</time>
      </trkpt>
      <trkpt lat="45.17045" lon="5.94785">
        <ele>2498.6</ele>
        <time>2021-02-20T10:45:00Z</time>
      </trkpt>
      <trkpt lat="45.17045" lon="5.94785">
        <ele>2498.6</ele>
        <time>2021-02-20T10:45:01Z</time>
      </trkpt>
      <trkpt lat="45.17045" lon="5.94785">
        <ele>2498.6</ele>
        <time>2021-02-20T10:45:02Z</time>
      </trkpt>
      <trkpt lat="45.17045" lon="5.94785">
        <ele>2498.6</ele>
        <time>2021-02-20T10:45:03Z</time>
      </trkpt>
      <trkpt lat="45.17045" lon="5.94786">
        <ele>2499.2</ele>
        <time>2021-02-20T10:45:04Z</time>
      </trkpt>
      <trkpt lat="45.17045" lon="5.94786">
        <ele>2499.2</ele>
        <time>2021-02-20T10:45:05Z</time>
      </trkpt>
      <trkpt lat="45.17045" lon="5.94786">
        <ele>2499.2</ele>
        <time>2021-02-20T10:45:06Z</time>
      </trkpt>
      <trkpt lat="45.17045" lon="5.94787">
        <ele>2499.2</ele>
        <time>2021-02-20T10:45:07Z</time>
      </trkpt>
      <trkpt lat="45.17045" lon="5.94788">
        <ele>2500</ele>
        <time>2021-02-20T10:45:08Z</time>
      </trkpt>
      <trkpt lat="45.17046" lon="5.94789">
        <ele>2500</ele>
        <time>2021-02-20T10:45:09Z</time>
      </trkpt>
      <trkpt lat="45.17047" lon="5.9479">
        <ele>2500.7</ele>
        <time>2021-02-20T10:45:10Z</time>
      </trkpt>
      <trkpt lat="45.17047" lon="5.94791">
        <ele>2500.7</ele>
        <time>2021-02-20T10:45:11Z</time>
      </trkpt>
      <trkpt lat="45.17047" lon="5.94791">
        <ele>2500.7</ele>
        <time>2021-02-20T10:45:12Z</time>
      </trkpt>
      <trkpt lat="45.17047" lon="5.94792">
        <ele>2500.7</ele>
        <time>2021-02-20T10:45:13Z</time>
      </trkpt>
      <trkpt lat="45.17047" lon="5.94793">
        <ele>2500.7</ele>
        <time>2021-02-20T10:45:14Z</time>
      </trkpt>
      <trkpt lat="45.17047" lon="5.94794">
        <ele>2500.7</ele>
        <time>2021-02-20T10:45:15Z</time>
      </trkpt>
      <trkpt lat="45.17047" lon="5.94794">
        <ele>2501.4</ele>
        <time>2021-02-20T10:45:16Z</time>
      </trkpt>
      <trkpt lat="45.17047" lon="5.94795">
        <ele>2501.4</ele>
        <time>2021-02-20T10:45:17Z</time>
      </trkpt>
      <trkpt lat="45.17048" lon="5.94795">
        <ele>2501.4</ele>
        <time>2021-02-20T10:45:18Z</time>
      </trkpt>
      <trkpt lat="45.17048" lon="5.94796">
        <ele>2501.4</ele>
        <time>2021-02-20T10:45:19Z</time>
      </trkpt>
      <trkpt lat="45.17048" lon="5.94797">
        <ele>2502.3</ele>
        <time>2021-02-20T10:45:20Z</time>
      </trkpt>
      <trkpt lat="45.17048" lon="5.94797">
        <ele>2502.3</ele>
        <time>2021-02-20T10:45:21Z</time>
      </trkpt>
      <trkpt lat="45.17049" lon="5.94798">
        <ele>2503.2</ele>
        <time>2021-02-20T10:45:22Z</time>
      </trkpt>
      <trkpt lat="45.17049" lon="5.94799">
        <ele>2503.2</ele>
        <time>2021-02-20T10:45:23Z</time>
      </trkpt>
      <trkpt lat="45.17049" lon="5.948">
        <ele>2503.2</ele>
        <time>2021-02-20T10:45:24Z</time>
      </trkpt>
      <trkpt lat="45.17049" lon="5.948">
        <ele>2503.2</ele>
        <time>2021-02-20T10:45:25Z</time>
      </trkpt>
      <trkpt lat="45.17049" lon="5.94801">
        <ele>2503.2</ele>
        <time>2021-02-20T10:45:26Z</time>
      </trkpt>
      <trkpt lat="45.17048" lon="5.94801">
        <ele>2503.2</ele>
        <time>2021-02-20T10:45:27Z</time>
      </trkpt>
      <trkpt lat="45.17048" lon="5.94802">
        <ele>2503.2</ele>
        <time>2021-02-20T10:45:28Z</time>
      </trkpt>
      <trkpt lat="45.17049" lon="5.94802">
        <ele>2503.2</ele>
        <time>2021-02-20T10:45:29Z</time>
      </trkpt>
      <trkpt lat="45.17049" lon="5.94802">
        <ele>2503.2</ele>
        <time>2021-02-20T10:45:30Z</time>
      </trkpt>
      <trkpt lat="45.17049" lon="5.94803">
        <ele>2504.3</ele>
        <time>2021-02-20T10:45:31Z</time>
      </trkpt>
      <trkpt lat="45.1705" lon="5.94803">
        <ele>2504.3</ele>
        <time>2021-02-20T10:45:32Z</time>
      </trkpt>
      <trkpt lat="45.1705" lon="5.94803">
        <ele>2504.3</ele>
        <time>2021-02-20T10:45:33Z</time>
      </trkpt>
      <trkpt lat="45.1705" lon="5.94803">
        <ele>2504.3</ele>
        <time>2021-02-20T10:45:34Z</time>
      </trkpt>
      <trkpt lat="45.1705" lon="5.94803">
        <ele>2504.3</ele>
        <time>2021-02-20T10:45:35Z</time>
      </trkpt>
      <trkpt lat="45.1705" lon="5.94804">
        <ele>2504.3</ele>
        <time>2021-02-20T10:45:36Z</time>
      </trkpt>
      <trkpt lat="45.1705" lon="5.94804">
        <ele>2504.3</ele>
        <time>2021-02-20T10:45:37Z</time>
      </trkpt>
      <trkpt lat="45.1705" lon="5.94804">
        <ele>2504.3</ele>
        <time>2021-02-20T10:45:38Z</time>
      </trkpt>
      <trkpt lat="45.1705" lon="5.94803">
        <ele>2504.3</ele>
        <time>2021-02-20T10:45:39Z</time>
      </trkpt>
      <trkpt lat="45.1705" lon="5.94803">
        <ele>2504.3</ele>
        <time>2021-02-20T10:45:40Z</time>
      </trkpt>
      <trkpt lat="45.17051" lon="5.94802">
        <ele>2503.2</ele>
        <time>2021-02-20T10:45:41Z</time>
      </trkpt>
      <trkpt lat="45.17051" lon="5.94802">
        <ele>2503.2</ele>
        <time>2021-02-20T10:45:42Z</time>
      </trkpt>
      <trkpt lat="45.17051" lon="5.94802">
        <ele>2503.2</ele>
        <time>2021-02-20T10:45:43Z</time>
      </trkpt>
      <trkpt lat="45.17051" lon="5.94802">
        <ele>2503.2</ele>
        <time>2021-02-20T10:45:44Z</time>
      </trkpt>
      <trkpt lat="45.17052" lon="5.94802">
        <ele>2504.1</ele>
        <time>2021-02-20T10:45:45Z</time>
      </trkpt>
      <trkpt lat="45.17052" lon="5.94801">
        <ele>2504.1</ele>
        <time>2021-02-20T10:45:46Z</time>
      </trkpt>
      <trkpt lat="45.17053" lon="5.94801">
        <ele>2504.1</ele>
        <time>2021-02-20T10:45:47Z</time>
      </trkpt>
      <trkpt lat="45.17053" lon="5.94801">
        <ele>2504.1</ele>
        <time>2021-02-20T10:45:48Z</time>
      </trkpt>
      <trkpt lat="45.17053" lon="5.948">
        <ele>2504.1</ele>
        <time>2021-02-20T10:45:49Z</time>
      </trkpt>
      <trkpt lat="45.17054" lon="5.948">
        <ele>2504.1</ele>
        <time>2021-02-20T10:45:50Z</time>
      </trkpt>
      <trkpt lat="45.17054" lon="5.948">
        <ele>2504.1</ele>
        <time>2021-02-20T10:45:51Z</time>
      </trkpt>
      <trkpt lat="45.17055" lon="5.94799">
        <ele>2505</ele>
        <time>2021-02-20T10:45:52Z</time>
      </trkpt>
      <trkpt lat="45.17055" lon="5.94798">
        <ele>2504</ele>
        <time>2021-02-20T10:45:53Z</time>
      </trkpt>
      <trkpt lat="45.17055" lon="5.94798">
        <ele>2504</ele>
        <time>2021-02-20T10:45:54Z</time>
      </trkpt>
      <trkpt lat="45.17055" lon="5.94798">
        <ele>2504</ele>
        <time>2021-02-20T10:45:55Z</time>
      </trkpt>
      <trkpt lat="45.17055" lon="5.94797">
        <ele>2504</ele>
        <time>2021-02-20T10:45:56Z</time>
      </trkpt>
      <trkpt lat="45.17056" lon="5.94797">
        <ele>2504</ele>
        <time>2021-02-20T10:45:57Z</time>
      </trkpt>
      <trkpt lat="45.17056" lon="5.94797">
        <ele>2504</ele>
        <time>2021-02-20T10:45:58Z</time>
      </trkpt>
      <trkpt lat="45.17056" lon="5.94796">
        <ele>2504</ele>
        <time>2021-02-20T10:45:59Z</time>
      </trkpt>
      <trkpt lat="45.17057" lon="5.94795">
        <ele>2504</ele>
        <time>2021-02-20T10:46:00Z</time>
      </trkpt>
      <trkpt lat="45.17057" lon="5.94795">
        <ele>2504</ele>
        <time>2021-02-20T10:46:01Z</time>
      </trkpt>
      <trkpt lat="45.17057" lon="5.94794">
        <ele>2504</ele>
        <time>2021-02-20T10:46:02Z</time>
      </trkpt>
      <trkpt lat="45.17058" lon="5.94794">
        <ele>2504.7</ele>
        <time>2021-02-20T10:46:03Z</time>
      </trkpt>
      <trkpt lat="45.17058" lon="5.94793">
        <ele>2503.6</ele>
        <time>2021-02-20T10:46:04Z</time>
      </trkpt>
      <trkpt lat="45.17059" lon="5.94793">
        <ele>2503.6</ele>
        <time>2021-02-20T10:46:05Z</time>
      </trkpt>
      <trkpt lat="45.17059" lon="5.94793">
        <ele>2503.6</ele>
        <time>2021-02-20T10:46:06Z</time>
      </trkpt>
      <trkpt lat="45.17059" lon="5.94792">
        <ele>2503.6</ele>
        <time>2021-02-20T10:46:07Z</time>
      </trkpt>
      <trkpt lat="45.17059" lon="5.94792">
        <ele>2503.6</ele>
        <time>2021-02-20T10:46:08Z</time>
      </trkpt>
      <trkpt lat="45.17059" lon="5.94792">
        <ele>2503.6</ele>
        <time>2021-02-20T10:46:09Z</time>
      </trkpt>
      <trkpt lat="45.1706" lon="5.94791">
        <ele>2503.6</ele>
        <time>2021-02-20T10:46:10Z</time>
      </trkpt>
      <trkpt lat="45.1706" lon="5.9479">
        <ele>2503.6</ele>
        <time>2021-02-20T10:46:11Z</time>
      </trkpt>
      <trkpt lat="45.1706" lon="5.9479">
        <ele>2504</ele>
        <time>2021-02-20T10:46:12Z</time>
      </trkpt>
      <trkpt lat="45.17061" lon="5.94789">
        <ele>2502.7</ele>
        <time>2021-02-20T10:46:13Z</time>
      </trkpt>
      <trkpt lat="45.17061" lon="5.94788">
        <ele>2502.7</ele>
        <time>2021-02-20T10:46:14Z</time>
      </trkpt>
      <trkpt lat="45.17062" lon="5.94788">
        <ele>2502.7</ele>
        <time>2021-02-20T10:46:15Z</time>
      </trkpt>
      <trkpt lat="45.17062" lon="5.94788">
        <ele>2502.7</ele>
        <time>2021-02-20T10:46:16Z</time>
      </trkpt>
      <trkpt lat="45.17063" lon="5.94787">
        <ele>2502.7</ele>
        <time>2021-02-20T10:46:17Z</time>
      </trkpt>
      <trkpt lat="45.17063" lon="5.94787">
        <ele>2502.7</ele>
        <time>2021-02-20T10:46:18Z</time>
      </trkpt>
      <trkpt lat="45.17063" lon="5.94787">
        <ele>2502.8</ele>
        <time>2021-02-20T10:46:19Z</time>
      </trkpt>
      <trkpt lat="45.17064" lon="5.94787">
        <ele>2502.8</ele>
        <time>2021-02-20T10:46:20Z</time>
      </trkpt>
      <trkpt lat="45.17064" lon="5.94786">
        <ele>2502.8</ele>
        <time>2021-02-20T10:46:21Z</time>
      </trkpt>
      <trkpt lat="45.17065" lon="5.94786">
        <ele>2502.8</ele>
        <time>2021-02-20T10:46:22Z</time>
      </trkpt>
      <trkpt lat="45.17065" lon="5.94785">
        <ele>2502.8</ele>
        <time>2021-02-20T10:46:23Z</time>
      </trkpt>
      <trkpt lat="45.17066" lon="5.94785">
        <ele>2501</ele>
        <time>2021-02-20T10:46:24Z</time>
      </trkpt>
      <trkpt lat="45.17066" lon="5.94784">
        <ele>2500.6</ele>
        <time>2021-02-20T10:46:25Z</time>
      </trkpt>
      <trkpt lat="45.17067" lon="5.94784">
        <ele>2500.6</ele>
        <time>2021-02-20T10:46:26Z</time>
      </trkpt>
      <trkpt lat="45.17068" lon="5.94784">
        <ele>2500.6</ele>
        <time>2021-02-20T10:46:27Z</time>
      </trkpt>
      <trkpt lat="45.17069" lon="5.94784">
        <ele>2500.6</ele>
        <time>2021-02-20T10:46:28Z</time>
      </trkpt>
      <trkpt lat="45.1707" lon="5.94784">
        <ele>2500</ele>
        <time>2021-02-20T10:46:29Z</time>
      </trkpt>
      <trkpt lat="45.1707" lon="5.94784">
        <ele>2500</ele>
        <time>2021-02-20T10:46:30Z</time>
      </trkpt>
      <trkpt lat="45.17071" lon="5.94784">
        <ele>2500</ele>
        <time>2021-02-20T10:46:31Z</time>
      </trkpt>
      <trkpt lat="45.17071" lon="5.94784">
        <ele>2500</ele>
        <time>2021-02-20T10:46:32Z</time>
      </trkpt>
      <trkpt lat="45.17072" lon="5.94785">
        <ele>2500</ele>
        <time>2021-02-20T10:46:33Z</time>
      </trkpt>
      <trkpt lat="45.17072" lon="5.94785">
        <ele>2499.1</ele>
        <time>2021-02-20T10:46:34Z</time>
      </trkpt>
      <trkpt lat="45.17073" lon="5.94785">
        <ele>2501.5</ele>
        <time>2021-02-20T10:46:35Z</time>
      </trkpt>
      <trkpt lat="45.17073" lon="5.94786">
        <ele>2501.5</ele>
        <time>2021-02-20T10:46:36Z</time>
      </trkpt>
      <trkpt lat="45.17073" lon="5.94786">
        <ele>2501.5</ele>
        <time>2021-02-20T10:46:37Z</time>
      </trkpt>
      <trkpt lat="45.17072" lon="5.94786">
        <ele>2501.5</ele>
        <time>2021-02-20T10:46:38Z</time>
      </trkpt>
      <trkpt lat="45.17072" lon="5.94787">
        <ele>2502.2</ele>
        <time>2021-02-20T10:46:39Z</time>
      </trkpt>
      <trkpt lat="45.17072" lon="5.94788">
        <ele>2502.2</ele>
        <time>2021-02-20T10:46:40Z</time>
      </trkpt>
      <trkpt lat="45.17072" lon="5.94788">
        <ele>2501.5</ele>
        <time>2021-02-20T10:46:41Z</time>
      </trkpt>
      <trkpt lat="45.17072" lon="5.94789">
        <ele>2501.5</ele>
        <time>2021-02-20T10:46:42Z</time>
      </trkpt>
      <trkpt lat="45.17072" lon="5.9479">
        <ele>2503.7</ele>
        <time>2021-02-20T10:46:43Z</time>
      </trkpt>
      <trkpt lat="45.17072" lon="5.94791">
        <ele>2503.7</ele>
        <time>2021-02-20T10:46:44Z</time>
      </trkpt>
      <trkpt lat="45.17072" lon="5.94792">
        <ele>2504.1</ele>
        <time>2021-02-20T10:46:45Z</time>
      </trkpt>
      <trkpt lat="45.17072" lon="5.94792">
        <ele>2504.1</ele>
        <time>2021-02-20T10:46:46Z</time>
      </trkpt>
      <trkpt lat="45.17072" lon="5.94793">
        <ele>2504.1</ele>
        <time>2021-02-20T10:46:47Z</time>
      </trkpt>
      <trkpt lat="45.17072" lon="5.94793">
        <ele>2504.1</ele>
        <time>2021-02-20T10:46:48Z</time>
      </trkpt>
      <trkpt lat="45.17072" lon="5.94794">
        <ele>2504.1</ele>
        <time>2021-02-20T10:46:49Z</time>
      </trkpt>
      <trkpt lat="45.17072" lon="5.94794">
        <ele>2505.7</ele>
        <time>2021-02-20T10:46:50Z</time>
      </trkpt>
      <trkpt lat="45.17072" lon="5.94795">
        <ele>2505.7</ele>
        <time>2021-02-20T10:46:51Z</time>
      </trkpt>
      <trkpt lat="45.17072" lon="5.94797">
        <ele>2505.7</ele>
        <time>2021-02-20T10:46:52Z</time>
      </trkpt>
      <trkpt lat="45.17072" lon="5.94798">
        <ele>2505.7</ele>
        <time>2021-02-20T10:46:53Z</time>
      </trkpt>
      <trkpt lat="45.17072" lon="5.94798">
        <ele>2507.2</ele>
        <time>2021-02-20T10:46:54Z</time>
      </trkpt>
      <trkpt lat="45.17072" lon="5.94799">
        <ele>2507.2</ele>
        <time>2021-02-20T10:46:55Z</time>
      </trkpt>
      <trkpt lat="45.17072" lon="5.94799">
        <ele>2507.1</ele>
        <time>2021-02-20T10:46:56Z</time>
      </trkpt>
      <trkpt lat="45.17072" lon="5.948">
        <ele>2507.1</ele>
        <time>2021-02-20T10:46:57Z</time>
      </trkpt>
      <trkpt lat="45.17072" lon="5.94801">
        <ele>2507.1</ele>
        <time>2021-02-20T10:46:58Z</time>
      </trkpt>
      <trkpt lat="45.17073" lon="5.94802">
        <ele>2507.1</ele>
        <time>2021-02-20T10:46:59Z</time>
      </trkpt>
      <trkpt lat="45.17073" lon="5.94803">
        <ele>2508.6</ele>
        <time>2021-02-20T10:47:00Z</time>
      </trkpt>
      <trkpt lat="45.17073" lon="5.94804">
        <ele>2508.6</ele>
        <time>2021-02-20T10:47:01Z</time>
      </trkpt>
      <trkpt lat="45.17074" lon="5.94805">
        <ele>2508.6</ele>
        <time>2021-02-20T10:47:02Z</time>
      </trkpt>
      <trkpt lat="45.17074" lon="5.94806">
        <ele>2508.6</ele>
        <time>2021-02-20T10:47:03Z</time>
      </trkpt>
      <trkpt lat="45.17074" lon="5.94807">
        <ele>2509.8</ele>
        <time>2021-02-20T10:47:04Z</time>
      </trkpt>
      <trkpt lat="45.17074" lon="5.94807">
        <ele>2509.8</ele>
        <time>2021-02-20T10:47:05Z</time>
      </trkpt>
      <trkpt lat="45.17073" lon="5.94808">
        <ele>2509.8</ele>
        <time>2021-02-20T10:47:06Z</time>
      </trkpt>
      <trkpt lat="45.17073" lon="5.94809">
        <ele>2509.8</ele>
        <time>2021-02-20T10:47:07Z</time>
      </trkpt>
      <trkpt lat="45.17073" lon="5.9481">
        <ele>2509.8</ele>
        <time>2021-02-20T10:47:08Z</time>
      </trkpt>
      <trkpt lat="45.17073" lon="5.9481">
        <ele>2509.8</ele>
        <time>2021-02-20T10:47:09Z</time>
      </trkpt>
      <trkpt lat="45.17073" lon="5.94811">
        <ele>2509.8</ele>
        <time>2021-02-20T10:47:10Z</time>
      </trkpt>
      <trkpt lat="45.17073" lon="5.94812">
        <ele>2510.9</ele>
        <time>2021-02-20T10:47:11Z</time>
      </trkpt>
      <trkpt lat="45.17073" lon="5.94812">
        <ele>2510.9</ele>
        <time>2021-02-20T10:47:12Z</time>
      </trkpt>
      <trkpt lat="45.17074" lon="5.94813">
        <ele>2510.9</ele>
        <time>2021-02-20T10:47:13Z</time>
      </trkpt>
      <trkpt lat="45.17074" lon="5.94813">
        <ele>2510.9</ele>
        <time>2021-02-20T10:47:14Z</time>
      </trkpt>
      <trkpt lat="45.17074" lon="5.94814">
        <ele>2510.9</ele>
        <time>2021-02-20T10:47:15Z</time>
      </trkpt>
      <trkpt lat="45.17074" lon="5.94815">
        <ele>2510.9</ele>
        <time>2021-02-20T10:47:16Z</time>
      </trkpt>
      <trkpt lat="45.17074" lon="5.94815">
        <ele>2510.9</ele>
        <time>2021-02-20T10:47:17Z</time>
      </trkpt>
      <trkpt lat="45.17074" lon="5.94815">
        <ele>2512</ele>
        <time>2021-02-20T10:47:18Z</time>
      </trkpt>
      <trkpt lat="45.17074" lon="5.94816">
        <ele>2512</ele>
        <time>2021-02-20T10:47:19Z</time>
      </trkpt>
      <trkpt lat="45.17074" lon="5.94817">
        <ele>2512</ele>
        <time>2021-02-20T10:47:20Z</time>
      </trkpt>
      <trkpt lat="45.17074" lon="5.94817">
        <ele>2512</ele>
        <time>2021-02-20T10:47:21Z</time>
      </trkpt>
      <trkpt lat="45.17075" lon="5.94818">
        <ele>2512</ele>
        <time>2021-02-20T10:47:22Z</time>
      </trkpt>
      <trkpt lat="45.17075" lon="5.94819">
        <ele>2512</ele>
        <time>2021-02-20T10:47:23Z</time>
      </trkpt>
      <trkpt lat="45.17075" lon="5.9482">
        <ele>2512.9</ele>
        <time>2021-02-20T10:47:24Z</time>
      </trkpt>
      <trkpt lat="45.17075" lon="5.9482">
        <ele>2512.9</ele>
        <time>2021-02-20T10:47:25Z</time>
      </trkpt>
      <trkpt lat="45.17075" lon="5.94821">
        <ele>2512.9</ele>
        <time>2021-02-20T10:47:26Z</time>
      </trkpt>
      <trkpt lat="45.17075" lon="5.94822">
        <ele>2513.1</ele>
        <time>2021-02-20T10:47:27Z</time>
      </trkpt>
      <trkpt lat="45.17076" lon="5.94822">
        <ele>2513.1</ele>
        <time>2021-02-20T10:47:28Z</time>
      </trkpt>
      <trkpt lat="45.17076" lon="5.94822">
        <ele>2513.1</ele>
        <time>2021-02-20T10:47:29Z</time>
      </trkpt>
      <trkpt lat="45.17076" lon="5.94822">
        <ele>2513.1</ele>
        <time>2021-02-20T10:47:30Z</time>
      </trkpt>
      <trkpt lat="45.17076" lon="5.94822">
        <ele>2513.1</ele>
        <time>2021-02-20T10:47:31Z</time>
      </trkpt>
      <trkpt lat="45.17076" lon="5.94822">
        <ele>2513.1</ele>
        <time>2021-02-20T10:47:32Z</time>
      </trkpt>
      <trkpt lat="45.17076" lon="5.94822">
        <ele>2513.1</ele>
        <time>2021-02-20T10:47:33Z</time>
      </trkpt>
      <trkpt lat="45.17076" lon="5.94822">
        <ele>2513.1</ele>
        <time>2021-02-20T10:47:34Z</time>
      </trkpt>
      <trkpt lat="45.17076" lon="5.94822">
        <ele>2513.1</ele>
        <time>2021-02-20T10:47:35Z</time>
      </trkpt>
      <trkpt lat="45.17076" lon="5.94822">
        <ele>2513.1</ele>
        <time>2021-02-20T10:47:36Z</time>
      </trkpt>
      <trkpt lat="45.17076" lon="5.94822">
        <ele>2513.1</ele>
        <time>2021-02-20T10:47:37Z</time>
      </trkpt>
      <trkpt lat="45.17076" lon="5.94822">
        <ele>2513.1</ele>
        <time>2021-02-20T10:47:38Z</time>
      </trkpt>
      <trkpt lat="45.17076" lon="5.94822">
        <ele>2513.1</ele>
        <time>2021-02-20T10:47:39Z</time>
      </trkpt>
      <trkpt lat="45.17076" lon="5.94822">
        <ele>2513.1</ele>
        <time>2021-02-20T10:47:40Z</time>
      </trkpt>
      <trkpt lat="45.17076" lon="5.94822">
        <ele>2513.1</ele>
        <time>2021-02-20T10:47:41Z</time>
      </trkpt>
      <trkpt lat="45.17076" lon="5.94819">
        <ele>2512.1</ele>
        <time>2021-02-20T10:47:42Z</time>
      </trkpt>
      <trkpt lat="45.17076" lon="5.94819">
        <ele>2512.1</ele>
        <time>2021-02-20T10:47:43Z</time>
      </trkpt>
      <trkpt lat="45.17077" lon="5.94819">
        <ele>2512.1</ele>
        <time>2021-02-20T10:47:44Z</time>
      </trkpt>
      <trkpt lat="45.17078" lon="5.94819">
        <ele>2512.1</ele>
        <time>2021-02-20T10:47:45Z</time>
      </trkpt>
      <trkpt lat="45.17079" lon="5.94819">
        <ele>2512.1</ele>
        <time>2021-02-20T10:47:46Z</time>
      </trkpt>
      <trkpt lat="45.1708" lon="5.94819">
        <ele>2512.1</ele>
        <time>2021-02-20T10:47:47Z</time>
      </trkpt>
      <trkpt lat="45.1708" lon="5.9482">
        <ele>2513.1</ele>
        <time>2021-02-20T10:47:48Z</time>
      </trkpt>
      <trkpt lat="45.17081" lon="5.9482">
        <ele>2513.1</ele>
        <time>2021-02-20T10:47:49Z</time>
      </trkpt>
      <trkpt lat="45.17081" lon="5.9482">
        <ele>2512.1</ele>
        <time>2021-02-20T10:47:50Z</time>
      </trkpt>
      <trkpt lat="45.17082" lon="5.94819">
        <ele>2512</ele>
        <time>2021-02-20T10:47:51Z</time>
      </trkpt>
      <trkpt lat="45.17083" lon="5.94819">
        <ele>2512</ele>
        <time>2021-02-20T10:47:52Z</time>
      </trkpt>
      <trkpt lat="45.17083" lon="5.94819">
        <ele>2512</ele>
        <time>2021-02-20T10:47:53Z</time>
      </trkpt>
      <trkpt lat="45.17083" lon="5.94819">
        <ele>2512</ele>
        <time>2021-02-20T10:47:54Z</time>
      </trkpt>
      <trkpt lat="45.17084" lon="5.94819">
        <ele>2512</ele>
        <time>2021-02-20T10:47:55Z</time>
      </trkpt>
      <trkpt lat="45.17084" lon="5.94819">
        <ele>2512</ele>
        <time>2021-02-20T10:47:56Z</time>
      </trkpt>
      <trkpt lat="45.17085" lon="5.94819">
        <ele>2511.8</ele>
        <time>2021-02-20T10:47:57Z</time>
      </trkpt>
      <trkpt lat="45.17085" lon="5.94819">
        <ele>2511.8</ele>
        <time>2021-02-20T10:47:58Z</time>
      </trkpt>
      <trkpt lat="45.17085" lon="5.9482">
        <ele>2511.8</ele>
        <time>2021-02-20T10:47:59Z</time>
      </trkpt>
      <trkpt lat="45.17086" lon="5.9482">
        <ele>2513</ele>
        <time>2021-02-20T10:48:00Z</time>
      </trkpt>
      <trkpt lat="45.17086" lon="5.94821">
        <ele>2513</ele>
        <time>2021-02-20T10:48:01Z</time>
      </trkpt>
      <trkpt lat="45.17086" lon="5.94822">
        <ele>2513</ele>
        <time>2021-02-20T10:48:02Z</time>
      </trkpt>
      <trkpt lat="45.17086" lon="5.94823">
        <ele>2513</ele>
        <time>2021-02-20T10:48:03Z</time>
      </trkpt>
      <trkpt lat="45.17086" lon="5.94824">
        <ele>2513</ele>
        <time>2021-02-20T10:48:04Z</time>
      </trkpt>
      <trkpt lat="45.17085" lon="5.94825">
        <ele>2514</ele>
        <time>2021-02-20T10:48:05Z</time>
      </trkpt>
      <trkpt lat="45.17084" lon="5.94825">
        <ele>2514</ele>
        <time>2021-02-20T10:48:06Z</time>
      </trkpt>
      <trkpt lat="45.17084" lon="5.94826">
        <ele>2514.1</ele>
        <time>2021-02-20T10:48:07Z</time>
      </trkpt>
      <trkpt lat="45.17084" lon="5.94826">
        <ele>2514.1</ele>
        <time>2021-02-20T10:48:08Z</time>
      </trkpt>
      <trkpt lat="45.17084" lon="5.94827">
        <ele>2514.1</ele>
        <time>2021-02-20T10:48:09Z</time>
      </trkpt>
      <trkpt lat="45.17084" lon="5.94827">
        <ele>2514.1</ele>
        <time>2021-02-20T10:48:10Z</time>
      </trkpt>
      <trkpt lat="45.17083" lon="5.94828">
        <ele>2514.1</ele>
        <time>2021-02-20T10:48:11Z</time>
      </trkpt>
      <trkpt lat="45.17083" lon="5.94828">
        <ele>2515.2</ele>
        <time>2021-02-20T10:48:12Z</time>
      </trkpt>
      <trkpt lat="45.17083" lon="5.94829">
        <ele>2515.2</ele>
        <time>2021-02-20T10:48:13Z</time>
      </trkpt>
      <trkpt lat="45.17082" lon="5.94829">
        <ele>2515.2</ele>
        <time>2021-02-20T10:48:14Z</time>
      </trkpt>
      <trkpt lat="45.17082" lon="5.94829">
        <ele>2515.2</ele>
        <time>2021-02-20T10:48:15Z</time>
      </trkpt>
      <trkpt lat="45.17081" lon="5.9483">
        <ele>2515.1</ele>
        <time>2021-02-20T10:48:16Z</time>
      </trkpt>
      <trkpt lat="45.17081" lon="5.9483">
        <ele>2515.1</ele>
        <time>2021-02-20T10:48:17Z</time>
      </trkpt>
      <trkpt lat="45.1708" lon="5.94831">
        <ele>2515.1</ele>
        <time>2021-02-20T10:48:18Z</time>
      </trkpt>
      <trkpt lat="45.1708" lon="5.94831">
        <ele>2515.1</ele>
        <time>2021-02-20T10:48:19Z</time>
      </trkpt>
      <trkpt lat="45.1708" lon="5.94831">
        <ele>2515.1</ele>
        <time>2021-02-20T10:48:20Z</time>
      </trkpt>
      <trkpt lat="45.1708" lon="5.94831">
        <ele>2515.1</ele>
        <time>2021-02-20T10:48:21Z</time>
      </trkpt>
      <trkpt lat="45.1708" lon="5.94832">
        <ele>2515.1</ele>
        <time>2021-02-20T10:48:22Z</time>
      </trkpt>
      <trkpt lat="45.17079" lon="5.94832">
        <ele>2515.1</ele>
        <time>2021-02-20T10:48:23Z</time>
      </trkpt>
      <trkpt lat="45.17079" lon="5.94833">
        <ele>2516.2</ele>
        <time>2021-02-20T10:48:24Z</time>
      </trkpt>
      <trkpt lat="45.17079" lon="5.94834">
        <ele>2516.2</ele>
        <time>2021-02-20T10:48:25Z</time>
      </trkpt>
      <trkpt lat="45.17079" lon="5.94834">
        <ele>2516.2</ele>
        <time>2021-02-20T10:48:26Z</time>
      </trkpt>
      <trkpt lat="45.17079" lon="5.94835">
        <ele>2516.2</ele>
        <time>2021-02-20T10:48:27Z</time>
      </trkpt>
      <trkpt lat="45.17078" lon="5.94836">
        <ele>2516.2</ele>
        <time>2021-02-20T10:48:28Z</time>
      </trkpt>
      <trkpt lat="45.17078" lon="5.94836">
        <ele>2516.1</ele>
        <time>2021-02-20T10:48:29Z</time>
      </trkpt>
      <trkpt lat="45.17078" lon="5.94837">
        <ele>2516.1</ele>
        <time>2021-02-20T10:48:30Z</time>
      </trkpt>
      <trkpt lat="45.17077" lon="5.94837">
        <ele>2517.3</ele>
        <time>2021-02-20T10:48:31Z</time>
      </trkpt>
      <trkpt lat="45.17077" lon="5.94838">
        <ele>2517.3</ele>
        <time>2021-02-20T10:48:32Z</time>
      </trkpt>
      <trkpt lat="45.17077" lon="5.94838">
        <ele>2517.3</ele>
        <time>2021-02-20T10:48:33Z</time>
      </trkpt>
      <trkpt lat="45.17077" lon="5.94839">
        <ele>2517.3</ele>
        <time>2021-02-20T10:48:34Z</time>
      </trkpt>
      <trkpt lat="45.17076" lon="5.9484">
        <ele>2517.3</ele>
        <time>2021-02-20T10:48:35Z</time>
      </trkpt>
      <trkpt lat="45.17076" lon="5.94841">
        <ele>2517.3</ele>
        <time>2021-02-20T10:48:36Z</time>
      </trkpt>
      <trkpt lat="45.17076" lon="5.94841">
        <ele>2518.6</ele>
        <time>2021-02-20T10:48:37Z</time>
      </trkpt>
      <trkpt lat="45.17076" lon="5.94842">
        <ele>2518.6</ele>
        <time>2021-02-20T10:48:38Z</time>
      </trkpt>
      <trkpt lat="45.17076" lon="5.94842">
        <ele>2518.6</ele>
        <time>2021-02-20T10:48:39Z</time>
      </trkpt>
      <trkpt lat="45.17076" lon="5.94843">
        <ele>2518.6</ele>
        <time>2021-02-20T10:48:40Z</time>
      </trkpt>
      <trkpt lat="45.17077" lon="5.94844">
        <ele>2518.6</ele>
        <time>2021-02-20T10:48:41Z</time>
      </trkpt>
      <trkpt lat="45.17077" lon="5.94845">
        <ele>2519.9</ele>
        <time>2021-02-20T10:48:42Z</time>
      </trkpt>
      <trkpt lat="45.17077" lon="5.94846">
        <ele>2519.9</ele>
        <time>2021-02-20T10:48:43Z</time>
      </trkpt>
      <trkpt lat="45.17077" lon="5.94847">
        <ele>2519.9</ele>
        <time>2021-02-20T10:48:44Z</time>
      </trkpt>
      <trkpt lat="45.17077" lon="5.94848">
        <ele>2519.9</ele>
        <time>2021-02-20T10:48:45Z</time>
      </trkpt>
      <trkpt lat="45.17076" lon="5.94849">
        <ele>2519.9</ele>
        <time>2021-02-20T10:48:46Z</time>
      </trkpt>
      <trkpt lat="45.17076" lon="5.94849">
        <ele>2519.9</ele>
        <time>2021-02-20T10:48:47Z</time>
      </trkpt>
      <trkpt lat="45.17076" lon="5.9485">
        <ele>2521.4</ele>
        <time>2021-02-20T10:48:48Z</time>
      </trkpt>
      <trkpt lat="45.17076" lon="5.94851">
        <ele>2521.4</ele>
        <time>2021-02-20T10:48:49Z</time>
      </trkpt>
      <trkpt lat="45.17076" lon="5.94852">
        <ele>2521.4</ele>
        <time>2021-02-20T10:48:50Z</time>
      </trkpt>
      <trkpt lat="45.17076" lon="5.94852">
        <ele>2521.4</ele>
        <time>2021-02-20T10:48:51Z</time>
      </trkpt>
      <trkpt lat="45.17076" lon="5.94853">
        <ele>2521.4</ele>
        <time>2021-02-20T10:48:52Z</time>
      </trkpt>
      <trkpt lat="45.17075" lon="5.94854">
        <ele>2522.9</ele>
        <time>2021-02-20T10:48:53Z</time>
      </trkpt>
      <trkpt lat="45.17075" lon="5.94855">
        <ele>2522.9</ele>
        <time>2021-02-20T10:48:54Z</time>
      </trkpt>
      <trkpt lat="45.17075" lon="5.94856">
        <ele>2522.7</ele>
        <time>2021-02-20T10:48:55Z</time>
      </trkpt>
      <trkpt lat="45.17075" lon="5.94857">
        <ele>2522.7</ele>
        <time>2021-02-20T10:48:56Z</time>
      </trkpt>
      <trkpt lat="45.17075" lon="5.94857">
        <ele>2522.7</ele>
        <time>2021-02-20T10:48:57Z</time>
      </trkpt>
      <trkpt lat="45.17075" lon="5.94857">
        <ele>2522.7</ele>
        <time>2021-02-20T10:48:58Z</time>
      </trkpt>
      <trkpt lat="45.17075" lon="5.94857">
        <ele>2522.7</ele>
        <time>2021-02-20T10:48:59Z</time>
      </trkpt>
      <trkpt lat="45.17075" lon="5.94857">
        <ele>2522.7</ele>
        <time>2021-02-20T10:49:00Z</time>
      </trkpt>
      <trkpt lat="45.17075" lon="5.94858">
        <ele>2522.7</ele>
        <time>2021-02-20T10:49:01Z</time>
      </trkpt>
      <trkpt lat="45.17075" lon="5.94858">
        <ele>2524.2</ele>
        <time>2021-02-20T10:49:02Z</time>
      </trkpt>
      <trkpt lat="45.17075" lon="5.94859">
        <ele>2524.2</ele>
        <time>2021-02-20T10:49:03Z</time>
      </trkpt>
      <trkpt lat="45.17074" lon="5.9486">
        <ele>2524.2</ele>
        <time>2021-02-20T10:49:04Z</time>
      </trkpt>
      <trkpt lat="45.17074" lon="5.94861">
        <ele>2524.2</ele>
        <time>2021-02-20T10:49:05Z</time>
      </trkpt>
      <trkpt lat="45.17074" lon="5.94861">
        <ele>2524.2</ele>
        <time>2021-02-20T10:49:06Z</time>
      </trkpt>
      <trkpt lat="45.17074" lon="5.94861">
        <ele>2524.2</ele>
        <time>2021-02-20T10:49:07Z</time>
      </trkpt>
      <trkpt lat="45.17074" lon="5.94861">
        <ele>2524.2</ele>
        <time>2021-02-20T10:49:08Z</time>
      </trkpt>
      <trkpt lat="45.17074" lon="5.94861">
        <ele>2524.2</ele>
        <time>2021-02-20T10:49:09Z</time>
      </trkpt>
      <trkpt lat="45.17074" lon="5.9486">
        <ele>2524.2</ele>
        <time>2021-02-20T10:49:10Z</time>
      </trkpt>
      <trkpt lat="45.17074" lon="5.9486">
        <ele>2524.2</ele>
        <time>2021-02-20T10:49:11Z</time>
      </trkpt>
      <trkpt lat="45.17074" lon="5.9486">
        <ele>2524.2</ele>
        <time>2021-02-20T10:49:12Z</time>
      </trkpt>
      <trkpt lat="45.17074" lon="5.9486">
        <ele>2524.2</ele>
        <time>2021-02-20T10:49:13Z</time>
      </trkpt>
      <trkpt lat="45.17075" lon="5.9486">
        <ele>2524.2</ele>
        <time>2021-02-20T10:49:14Z</time>
      </trkpt>
      <trkpt lat="45.17075" lon="5.94859">
        <ele>2524.2</ele>
        <time>2021-02-20T10:49:15Z</time>
      </trkpt>
      <trkpt lat="45.17075" lon="5.94858">
        <ele>2524.4</ele>
        <time>2021-02-20T10:49:16Z</time>
      </trkpt>
      <trkpt lat="45.17076" lon="5.94858">
        <ele>2522.9</ele>
        <time>2021-02-20T10:49:17Z</time>
      </trkpt>
      <trkpt lat="45.17076" lon="5.94857">
        <ele>2522.9</ele>
        <time>2021-02-20T10:49:18Z</time>
      </trkpt>
      <trkpt lat="45.17077" lon="5.94857">
        <ele>2522.9</ele>
        <time>2021-02-20T10:49:19Z</time>
      </trkpt>
      <trkpt lat="45.17078" lon="5.94856">
        <ele>2522.9</ele>
        <time>2021-02-20T10:49:20Z</time>
      </trkpt>
      <trkpt lat="45.17079" lon="5.94856">
        <ele>2523</ele>
        <time>2021-02-20T10:49:21Z</time>
      </trkpt>
      <trkpt lat="45.1708" lon="5.94856">
        <ele>2523</ele>
        <time>2021-02-20T10:49:22Z</time>
      </trkpt>
      <trkpt lat="45.1708" lon="5.94856">
        <ele>2523</ele>
        <time>2021-02-20T10:49:23Z</time>
      </trkpt>
      <trkpt lat="45.1708" lon="5.94856">
        <ele>2523</ele>
        <time>2021-02-20T10:49:24Z</time>
      </trkpt>
      <trkpt lat="45.1708" lon="5.94857">
        <ele>2523</ele>
        <time>2021-02-20T10:49:25Z</time>
      </trkpt>
      <trkpt lat="45.1708" lon="5.94857">
        <ele>2523</ele>
        <time>2021-02-20T10:49:26Z</time>
      </trkpt>
      <trkpt lat="45.1708" lon="5.94858">
        <ele>2523</ele>
        <time>2021-02-20T10:49:27Z</time>
      </trkpt>
      <trkpt lat="45.1708" lon="5.94859">
        <ele>2524.5</ele>
        <time>2021-02-20T10:49:28Z</time>
      </trkpt>
      <trkpt lat="45.1708" lon="5.94859">
        <ele>2524.5</ele>
        <time>2021-02-20T10:49:29Z</time>
      </trkpt>
      <trkpt lat="45.17079" lon="5.94859">
        <ele>2524.5</ele>
        <time>2021-02-20T10:49:30Z</time>
      </trkpt>
      <trkpt lat="45.17079" lon="5.9486">
        <ele>2524.5</ele>
        <time>2021-02-20T10:49:31Z</time>
      </trkpt>
      <trkpt lat="45.17079" lon="5.9486">
        <ele>2524.5</ele>
        <time>2021-02-20T10:49:32Z</time>
      </trkpt>
      <trkpt lat="45.17079" lon="5.94861">
        <ele>2524.5</ele>
        <time>2021-02-20T10:49:33Z</time>
      </trkpt>
      <trkpt lat="45.17078" lon="5.94862">
        <ele>2524.5</ele>
        <time>2021-02-20T10:49:34Z</time>
      </trkpt>
      <trkpt lat="45.17078" lon="5.94862">
        <ele>2524.4</ele>
        <time>2021-02-20T10:49:35Z</time>
      </trkpt>
      <trkpt lat="45.17078" lon="5.94862">
        <ele>2524.4</ele>
        <time>2021-02-20T10:49:36Z</time>
      </trkpt>
      <trkpt lat="45.17078" lon="5.94862">
        <ele>2524.4</ele>
        <time>2021-02-20T10:49:37Z</time>
      </trkpt>
      <trkpt lat="45.17078" lon="5.94861">
        <ele>2524.4</ele>
        <time>2021-02-20T10:49:38Z</time>
      </trkpt>
      <trkpt lat="45.17078" lon="5.94862">
        <ele>2524.4</ele>
        <time>2021-02-20T10:49:39Z</time>
      </trkpt>
      <trkpt lat="45.17078" lon="5.94863">
        <ele>2526</ele>
        <time>2021-02-20T10:49:40Z</time>
      </trkpt>
      <trkpt lat="45.17078" lon="5.94863">
        <ele>2526</ele>
        <time>2021-02-20T10:49:41Z</time>
      </trkpt>
      <trkpt lat="45.17079" lon="5.94864">
        <ele>2526.1</ele>
        <time>2021-02-20T10:49:42Z</time>
      </trkpt>
      <trkpt lat="45.17079" lon="5.94864">
        <ele>2526.1</ele>
        <time>2021-02-20T10:49:43Z</time>
      </trkpt>
      <trkpt lat="45.17079" lon="5.94864">
        <ele>2526.1</ele>
        <time>2021-02-20T10:49:44Z</time>
      </trkpt>
      <trkpt lat="45.17079" lon="5.94865">
        <ele>2526.1</ele>
        <time>2021-02-20T10:49:45Z</time>
      </trkpt>
      <trkpt lat="45.17078" lon="5.94866">
        <ele>2526</ele>
        <time>2021-02-20T10:49:46Z</time>
      </trkpt>
      <trkpt lat="45.17078" lon="5.94867">
        <ele>2527.5</ele>
        <time>2021-02-20T10:49:47Z</time>
      </trkpt>
      <trkpt lat="45.17077" lon="5.94868">
        <ele>2527.5</ele>
        <time>2021-02-20T10:49:48Z</time>
      </trkpt>
      <trkpt lat="45.17077" lon="5.9487">
        <ele>2527.5</ele>
        <time>2021-02-20T10:49:49Z</time>
      </trkpt>
      <trkpt lat="45.17076" lon="5.94871">
        <ele>2527.5</ele>
        <time>2021-02-20T10:49:50Z</time>
      </trkpt>
      <trkpt lat="45.17076" lon="5.94872">
        <ele>2529.1</ele>
        <time>2021-02-20T10:49:51Z</time>
      </trkpt>
      <trkpt lat="45.17076" lon="5.94873">
        <ele>2529.1</ele>
        <time>2021-02-20T10:49:52Z</time>
      </trkpt>
      <trkpt lat="45.17076" lon="5.94873">
        <ele>2529.1</ele>
        <time>2021-02-20T10:49:53Z</time>
      </trkpt>
      <trkpt lat="45.17076" lon="5.94874">
        <ele>2529.1</ele>
        <time>2021-02-20T10:49:54Z</time>
      </trkpt>
      <trkpt lat="45.17075" lon="5.94875">
        <ele>2529.1</ele>
        <time>2021-02-20T10:49:55Z</time>
      </trkpt>
      <trkpt lat="45.17075" lon="5.94875">
        <ele>2529.1</ele>
        <time>2021-02-20T10:49:56Z</time>
      </trkpt>
      <trkpt lat="45.17075" lon="5.94875">
        <ele>2529.1</ele>
        <time>2021-02-20T10:49:57Z</time>
      </trkpt>
      <trkpt lat="45.17075" lon="5.94875">
        <ele>2529.1</ele>
        <time>2021-02-20T10:49:58Z</time>
      </trkpt>
      <trkpt lat="45.17076" lon="5.94875">
        <ele>2529.1</ele>
        <time>2021-02-20T10:49:59Z</time>
      </trkpt>
      <trkpt lat="45.17076" lon="5.94874">
        <ele>2529.1</ele>
        <time>2021-02-20T10:50:00Z</time>
      </trkpt>
      <trkpt lat="45.17076" lon="5.94874">
        <ele>2529.1</ele>
        <time>2021-02-20T10:50:01Z</time>
      </trkpt>
      <trkpt lat="45.17076" lon="5.94874">
        <ele>2529.1</ele>
        <time>2021-02-20T10:50:02Z</time>
      </trkpt>
      <trkpt lat="45.17076" lon="5.94875">
        <ele>2529.1</ele>
        <time>2021-02-20T10:50:03Z</time>
      </trkpt>
      <trkpt lat="45.17076" lon="5.94875">
        <ele>2529.1</ele>
        <time>2021-02-20T10:50:04Z</time>
      </trkpt>
      <trkpt lat="45.17076" lon="5.94875">
        <ele>2529.1</ele>
        <time>2021-02-20T10:50:05Z</time>
      </trkpt>
      <trkpt lat="45.17076" lon="5.94874">
        <ele>2529.1</ele>
        <time>2021-02-20T10:50:06Z</time>
      </trkpt>
      <trkpt lat="45.17076" lon="5.94873">
        <ele>2529.1</ele>
        <time>2021-02-20T10:50:07Z</time>
      </trkpt>
      <trkpt lat="45.17076" lon="5.94873">
        <ele>2529.1</ele>
        <time>2021-02-20T10:50:08Z</time>
      </trkpt>
      <trkpt lat="45.17077" lon="5.94872">
        <ele>2529.1</ele>
        <time>2021-02-20T10:50:09Z</time>
      </trkpt>
      <trkpt lat="45.17077" lon="5.94872">
        <ele>2529.1</ele>
        <time>2021-02-20T10:50:10Z</time>
      </trkpt>
      <trkpt lat="45.17078" lon="5.94871">
        <ele>2529.1</ele>
        <time>2021-02-20T10:50:11Z</time>
      </trkpt>
      <trkpt lat="45.17078" lon="5.9487">
        <ele>2527.5</ele>
        <time>2021-02-20T10:50:12Z</time>
      </trkpt>
      <trkpt lat="45.17079" lon="5.9487">
        <ele>2527.7</ele>
        <time>2021-02-20T10:50:13Z</time>
      </trkpt>
      <trkpt lat="45.17079" lon="5.9487">
        <ele>2527.7</ele>
        <time>2021-02-20T10:50:14Z</time>
      </trkpt>
      <trkpt lat="45.1708" lon="5.9487">
        <ele>2527.7</ele>
        <time>2021-02-20T10:50:15Z</time>
      </trkpt>
      <trkpt lat="45.1708" lon="5.9487">
        <ele>2527.7</ele>
        <time>2021-02-20T10:50:16Z</time>
      </trkpt>
      <trkpt lat="45.17081" lon="5.9487">
        <ele>2527.7</ele>
        <time>2021-02-20T10:50:17Z</time>
      </trkpt>
      <trkpt lat="45.17081" lon="5.9487">
        <ele>2527.7</ele>
        <time>2021-02-20T10:50:18Z</time>
      </trkpt>
      <trkpt lat="45.17081" lon="5.94869">
        <ele>2527.7</ele>
        <time>2021-02-20T10:50:19Z</time>
      </trkpt>
      <trkpt lat="45.17082" lon="5.94869">
        <ele>2527.7</ele>
        <time>2021-02-20T10:50:20Z</time>
      </trkpt>
      <trkpt lat="45.17082" lon="5.94869">
        <ele>2527.7</ele>
        <time>2021-02-20T10:50:21Z</time>
      </trkpt>
      <trkpt lat="45.17083" lon="5.94869">
        <ele>2527.7</ele>
        <time>2021-02-20T10:50:22Z</time>
      </trkpt>
      <trkpt lat="45.17084" lon="5.94868">
        <ele>2527.7</ele>
        <time>2021-02-20T10:50:23Z</time>
      </trkpt>
      <trkpt lat="45.17084" lon="5.94868">
        <ele>2527.7</ele>
        <time>2021-02-20T10:50:24Z</time>
      </trkpt>
      <trkpt lat="45.17084" lon="5.94868">
        <ele>2527.7</ele>
        <time>2021-02-20T10:50:25Z</time>
      </trkpt>
      <trkpt lat="45.17084" lon="5.94868">
        <ele>2527.7</ele>
        <time>2021-02-20T10:50:26Z</time>
      </trkpt>
      <trkpt lat="45.17084" lon="5.94868">
        <ele>2527.7</ele>
        <time>2021-02-20T10:50:27Z</time>
      </trkpt>
      <trkpt lat="45.17084" lon="5.94868">
        <ele>2527.7</ele>
        <time>2021-02-20T10:50:28Z</time>
      </trkpt>
      <trkpt lat="45.17084" lon="5.94867">
        <ele>2527.7</ele>
        <time>2021-02-20T10:50:29Z</time>
      </trkpt>
      <trkpt lat="45.17084" lon="5.94868">
        <ele>2527.7</ele>
        <time>2021-02-20T10:50:30Z</time>
      </trkpt>
      <trkpt lat="45.17084" lon="5.94868">
        <ele>2527.7</ele>
        <time>2021-02-20T10:50:31Z</time>
      </trkpt>
      <trkpt lat="45.17084" lon="5.94868">
        <ele>2527.7</ele>
        <time>2021-02-20T10:50:32Z</time>
      </trkpt>
      <trkpt lat="45.17084" lon="5.94869">
        <ele>2527.7</ele>
        <time>2021-02-20T10:50:33Z</time>
      </trkpt>
      <trkpt lat="45.17083" lon="5.9487">
        <ele>2527.7</ele>
        <time>2021-02-20T10:50:34Z</time>
      </trkpt>
      <trkpt lat="45.17083" lon="5.94871">
        <ele>2527.7</ele>
        <time>2021-02-20T10:50:35Z</time>
      </trkpt>
      <trkpt lat="45.17083" lon="5.94872">
        <ele>2529.3</ele>
        <time>2021-02-20T10:50:36Z</time>
      </trkpt>
      <trkpt lat="45.17083" lon="5.94872">
        <ele>2529.3</ele>
        <time>2021-02-20T10:50:37Z</time>
      </trkpt>
      <trkpt lat="45.17083" lon="5.94873">
        <ele>2529.3</ele>
        <time>2021-02-20T10:50:38Z</time>
      </trkpt>
      <trkpt lat="45.17082" lon="5.94874">
        <ele>2529.3</ele>
        <time>2021-02-20T10:50:39Z</time>
      </trkpt>
      <trkpt lat="45.17082" lon="5.94874">
        <ele>2529.3</ele>
        <time>2021-02-20T10:50:40Z</time>
      </trkpt>
      <trkpt lat="45.17082" lon="5.94875">
        <ele>2529.3</ele>
        <time>2021-02-20T10:50:41Z</time>
      </trkpt>
      <trkpt lat="45.17082" lon="5.94876">
        <ele>2531</ele>
        <time>2021-02-20T10:50:42Z</time>
      </trkpt>
      <trkpt lat="45.17082" lon="5.94876">
        <ele>2531</ele>
        <time>2021-02-20T10:50:43Z</time>
      </trkpt>
      <trkpt lat="45.17081" lon="5.94877">
        <ele>2531</ele>
        <time>2021-02-20T10:50:44Z</time>
      </trkpt>
      <trkpt lat="45.17081" lon="5.94878">
        <ele>2530.9</ele>
        <time>2021-02-20T10:50:45Z</time>
      </trkpt>
      <trkpt lat="45.17081" lon="5.94878">
        <ele>2530.9</ele>
        <time>2021-02-20T10:50:46Z</time>
      </trkpt>
      <trkpt lat="45.17081" lon="5.94879">
        <ele>2530.9</ele>
        <time>2021-02-20T10:50:47Z</time>
      </trkpt>
      <trkpt lat="45.17081" lon="5.94879">
        <ele>2530.9</ele>
        <time>2021-02-20T10:50:48Z</time>
      </trkpt>
      <trkpt lat="45.17081" lon="5.94879">
        <ele>2530.9</ele>
        <time>2021-02-20T10:50:49Z</time>
      </trkpt>
      <trkpt lat="45.1708" lon="5.94879">
        <ele>2530.9</ele>
        <time>2021-02-20T10:50:50Z</time>
      </trkpt>
      <trkpt lat="45.1708" lon="5.9488">
        <ele>2530.9</ele>
        <time>2021-02-20T10:50:51Z</time>
      </trkpt>
      <trkpt lat="45.1708" lon="5.9488">
        <ele>2532.6</ele>
        <time>2021-02-20T10:50:52Z</time>
      </trkpt>
      <trkpt lat="45.1708" lon="5.94881">
        <ele>2532.6</ele>
        <time>2021-02-20T10:50:53Z</time>
      </trkpt>
      <trkpt lat="45.1708" lon="5.94881">
        <ele>2532.6</ele>
        <time>2021-02-20T10:50:54Z</time>
      </trkpt>
      <trkpt lat="45.17079" lon="5.94882">
        <ele>2532.6</ele>
        <time>2021-02-20T10:50:55Z</time>
      </trkpt>
      <trkpt lat="45.17079" lon="5.94882">
        <ele>2532.6</ele>
        <time>2021-02-20T10:50:56Z</time>
      </trkpt>
      <trkpt lat="45.17079" lon="5.94882">
        <ele>2532.6</ele>
        <time>2021-02-20T10:50:57Z</time>
      </trkpt>
      <trkpt lat="45.17079" lon="5.94883">
        <ele>2532.6</ele>
        <time>2021-02-20T10:50:58Z</time>
      </trkpt>
      <trkpt lat="45.17079" lon="5.94883">
        <ele>2532.6</ele>
        <time>2021-02-20T10:50:59Z</time>
      </trkpt>
      <trkpt lat="45.17079" lon="5.94884">
        <ele>2532.6</ele>
        <time>2021-02-20T10:51:00Z</time>
      </trkpt>
      <trkpt lat="45.17078" lon="5.94884">
        <ele>2534.3</ele>
        <time>2021-02-20T10:51:01Z</time>
      </trkpt>
      <trkpt lat="45.17078" lon="5.94884">
        <ele>2534.3</ele>
        <time>2021-02-20T10:51:02Z</time>
      </trkpt>
      <trkpt lat="45.17078" lon="5.94885">
        <ele>2534.3</ele>
        <time>2021-02-20T10:51:03Z</time>
      </trkpt>
      <trkpt lat="45.17078" lon="5.94885">
        <ele>2534.3</ele>
        <time>2021-02-20T10:51:04Z</time>
      </trkpt>
      <trkpt lat="45.17078" lon="5.94885">
        <ele>2534.3</ele>
        <time>2021-02-20T10:51:05Z</time>
      </trkpt>
      <trkpt lat="45.17078" lon="5.94886">
        <ele>2534.3</ele>
        <time>2021-02-20T10:51:06Z</time>
      </trkpt>
      <trkpt lat="45.17078" lon="5.94887">
        <ele>2534.3</ele>
        <time>2021-02-20T10:51:07Z</time>
      </trkpt>
      <trkpt lat="45.17077" lon="5.94887">
        <ele>2534.3</ele>
        <time>2021-02-20T10:51:08Z</time>
      </trkpt>
      <trkpt lat="45.17077" lon="5.94888">
        <ele>2534.3</ele>
        <time>2021-02-20T10:51:09Z</time>
      </trkpt>
      <trkpt lat="45.17077" lon="5.94888">
        <ele>2534.3</ele>
        <time>2021-02-20T10:51:10Z</time>
      </trkpt>
      <trkpt lat="45.17077" lon="5.94889">
        <ele>2536.3</ele>
        <time>2021-02-20T10:51:11Z</time>
      </trkpt>
      <trkpt lat="45.17077" lon="5.94889">
        <ele>2536.3</ele>
        <time>2021-02-20T10:51:12Z</time>
      </trkpt>
      <trkpt lat="45.17077" lon="5.9489">
        <ele>2536.3</ele>
        <time>2021-02-20T10:51:13Z</time>
      </trkpt>
      <trkpt lat="45.17077" lon="5.9489">
        <ele>2536.3</ele>
        <time>2021-02-20T10:51:14Z</time>
      </trkpt>
      <trkpt lat="45.17077" lon="5.94891">
        <ele>2536.3</ele>
        <time>2021-02-20T10:51:15Z</time>
      </trkpt>
      <trkpt lat="45.17077" lon="5.94891">
        <ele>2536.3</ele>
        <time>2021-02-20T10:51:16Z</time>
      </trkpt>
      <trkpt lat="45.17077" lon="5.94892">
        <ele>2536.3</ele>
        <time>2021-02-20T10:51:17Z</time>
      </trkpt>
      <trkpt lat="45.17077" lon="5.94892">
        <ele>2536.3</ele>
        <time>2021-02-20T10:51:18Z</time>
      </trkpt>
      <trkpt lat="45.17077" lon="5.94893">
        <ele>2538.3</ele>
        <time>2021-02-20T10:51:19Z</time>
      </trkpt>
      <trkpt lat="45.17077" lon="5.94893">
        <ele>2538.3</ele>
        <time>2021-02-20T10:51:20Z</time>
      </trkpt>
      <trkpt lat="45.17077" lon="5.94894">
        <ele>2538.3</ele>
        <time>2021-02-20T10:51:21Z</time>
      </trkpt>
      <trkpt lat="45.17076" lon="5.94894">
        <ele>2538.3</ele>
        <time>2021-02-20T10:51:22Z</time>
      </trkpt>
      <trkpt lat="45.17076" lon="5.94895">
        <ele>2538.3</ele>
        <time>2021-02-20T10:51:23Z</time>
      </trkpt>
      <trkpt lat="45.17076" lon="5.94895">
        <ele>2538.3</ele>
        <time>2021-02-20T10:51:24Z</time>
      </trkpt>
      <trkpt lat="45.17076" lon="5.94896">
        <ele>2538.3</ele>
        <time>2021-02-20T10:51:25Z</time>
      </trkpt>
      <trkpt lat="45.17075" lon="5.94897">
        <ele>2540.4</ele>
        <time>2021-02-20T10:51:26Z</time>
      </trkpt>
      <trkpt lat="45.17075" lon="5.94898">
        <ele>2540</ele>
        <time>2021-02-20T10:51:27Z</time>
      </trkpt>
      <trkpt lat="45.17074" lon="5.94899">
        <ele>2540</ele>
        <time>2021-02-20T10:51:28Z</time>
      </trkpt>
      <trkpt lat="45.17074" lon="5.949">
        <ele>2540</ele>
        <time>2021-02-20T10:51:29Z</time>
      </trkpt>
      <trkpt lat="45.17074" lon="5.949">
        <ele>2540</ele>
        <time>2021-02-20T10:51:30Z</time>
      </trkpt>
      <trkpt lat="45.17074" lon="5.94901">
        <ele>2542</ele>
        <time>2021-02-20T10:51:31Z</time>
      </trkpt>
      <trkpt lat="45.17074" lon="5.94903">
        <ele>2542</ele>
        <time>2021-02-20T10:51:32Z</time>
      </trkpt>
      <trkpt lat="45.17074" lon="5.94904">
        <ele>2542</ele>
        <time>2021-02-20T10:51:33Z</time>
      </trkpt>
      <trkpt lat="45.17074" lon="5.94905">
        <ele>2542</ele>
        <time>2021-02-20T10:51:34Z</time>
      </trkpt>
      <trkpt lat="45.17074" lon="5.94905">
        <ele>2542</ele>
        <time>2021-02-20T10:51:35Z</time>
      </trkpt>
      <trkpt lat="45.17074" lon="5.94905">
        <ele>2542</ele>
        <time>2021-02-20T10:51:36Z</time>
      </trkpt>
      <trkpt lat="45.17074" lon="5.94905">
        <ele>2542</ele>
        <time>2021-02-20T10:51:37Z</time>
      </trkpt>
      <trkpt lat="45.17074" lon="5.94906">
        <ele>2544.1</ele>
        <time>2021-02-20T10:51:38Z</time>
      </trkpt>
      <trkpt lat="45.17074" lon="5.94905">
        <ele>2544.1</ele>
        <time>2021-02-20T10:51:39Z</time>
      </trkpt>
      <trkpt lat="45.17074" lon="5.94905">
        <ele>2544.1</ele>
        <time>2021-02-20T10:51:40Z</time>
      </trkpt>
      <trkpt lat="45.17074" lon="5.94905">
        <ele>2544.1</ele>
        <time>2021-02-20T10:51:41Z</time>
      </trkpt>
      <trkpt lat="45.17074" lon="5.94905">
        <ele>2544.1</ele>
        <time>2021-02-20T10:51:42Z</time>
      </trkpt>
      <trkpt lat="45.17074" lon="5.94906">
        <ele>2544.1</ele>
        <time>2021-02-20T10:51:43Z</time>
      </trkpt>
      <trkpt lat="45.17074" lon="5.94906">
        <ele>2544.1</ele>
        <time>2021-02-20T10:51:44Z</time>
      </trkpt>
      <trkpt lat="45.17074" lon="5.94906">
        <ele>2544.1</ele>
        <time>2021-02-20T10:51:45Z</time>
      </trkpt>
      <trkpt lat="45.17074" lon="5.94907">
        <ele>2544.1</ele>
        <time>2021-02-20T10:51:46Z</time>
      </trkpt>
      <trkpt lat="45.17075" lon="5.94908">
        <ele>2544.1</ele>
        <time>2021-02-20T10:51:47Z</time>
      </trkpt>
      <trkpt lat="45.17076" lon="5.94908">
        <ele>2544.6</ele>
        <time>2021-02-20T10:51:48Z</time>
      </trkpt>
      <trkpt lat="45.17076" lon="5.94908">
        <ele>2544.6</ele>
        <time>2021-02-20T10:51:49Z</time>
      </trkpt>
      <trkpt lat="45.17077" lon="5.94908">
        <ele>2544.6</ele>
        <time>2021-02-20T10:51:50Z</time>
      </trkpt>
      <trkpt lat="45.17077" lon="5.94908">
        <ele>2544.6</ele>
        <time>2021-02-20T10:51:51Z</time>
      </trkpt>
      <trkpt lat="45.17078" lon="5.94908">
        <ele>2544.6</ele>
        <time>2021-02-20T10:51:52Z</time>
      </trkpt>
      <trkpt lat="45.17079" lon="5.94908">
        <ele>2545.1</ele>
        <time>2021-02-20T10:51:53Z</time>
      </trkpt>
      <trkpt lat="45.17079" lon="5.94909">
        <ele>2545.1</ele>
        <time>2021-02-20T10:51:54Z</time>
      </trkpt>
      <trkpt lat="45.1708" lon="5.94908">
        <ele>2545.1</ele>
        <time>2021-02-20T10:51:55Z</time>
      </trkpt>
      <trkpt lat="45.17081" lon="5.94908">
        <ele>2545.1</ele>
        <time>2021-02-20T10:51:56Z</time>
      </trkpt>
      <trkpt lat="45.17081" lon="5.94908">
        <ele>2545.5</ele>
        <time>2021-02-20T10:51:57Z</time>
      </trkpt>
      <trkpt lat="45.17082" lon="5.94908">
        <ele>2545.5</ele>
        <time>2021-02-20T10:51:58Z</time>
      </trkpt>
      <trkpt lat="45.17083" lon="5.94908">
        <ele>2545.5</ele>
        <time>2021-02-20T10:51:59Z</time>
      </trkpt>
      <trkpt lat="45.17084" lon="5.94908">
        <ele>2545.5</ele>
        <time>2021-02-20T10:52:00Z</time>
      </trkpt>
      <trkpt lat="45.17084" lon="5.94908">
        <ele>2545.5</ele>
        <time>2021-02-20T10:52:01Z</time>
      </trkpt>
      <trkpt lat="45.17084" lon="5.94908">
        <ele>2545.5</ele>
        <time>2021-02-20T10:52:02Z</time>
      </trkpt>
      <trkpt lat="45.17085" lon="5.94908">
        <ele>2545.8</ele>
        <time>2021-02-20T10:52:03Z</time>
      </trkpt>
      <trkpt lat="45.17085" lon="5.94908">
        <ele>2545.8</ele>
        <time>2021-02-20T10:52:04Z</time>
      </trkpt>
      <trkpt lat="45.17085" lon="5.94907">
        <ele>2545.8</ele>
        <time>2021-02-20T10:52:05Z</time>
      </trkpt>
      <trkpt lat="45.17085" lon="5.94907">
        <ele>2545.8</ele>
        <time>2021-02-20T10:52:06Z</time>
      </trkpt>
      <trkpt lat="45.17086" lon="5.94907">
        <ele>2545.8</ele>
        <time>2021-02-20T10:52:07Z</time>
      </trkpt>
      <trkpt lat="45.17086" lon="5.94906">
        <ele>2545.8</ele>
        <time>2021-02-20T10:52:08Z</time>
      </trkpt>
      <trkpt lat="45.17087" lon="5.94906">
        <ele>2545.8</ele>
        <time>2021-02-20T10:52:09Z</time>
      </trkpt>
      <trkpt lat="45.17088" lon="5.94906">
        <ele>2546</ele>
        <time>2021-02-20T10:52:10Z</time>
      </trkpt>
      <trkpt lat="45.17088" lon="5.94906">
        <ele>2546</ele>
        <time>2021-02-20T10:52:11Z</time>
      </trkpt>
      <trkpt lat="45.17089" lon="5.94906">
        <ele>2546</ele>
        <time>2021-02-20T10:52:12Z</time>
      </trkpt>
      <trkpt lat="45.17089" lon="5.94906">
        <ele>2546</ele>
        <time>2021-02-20T10:52:13Z</time>
      </trkpt>
      <trkpt lat="45.1709" lon="5.94906">
        <ele>2546</ele>
        <time>2021-02-20T10:52:14Z</time>
      </trkpt>
      <trkpt lat="45.1709" lon="5.94905">
        <ele>2543.7</ele>
        <time>2021-02-20T10:52:15Z</time>
      </trkpt>
      <trkpt lat="45.1709" lon="5.94905">
        <ele>2543.7</ele>
        <time>2021-02-20T10:52:16Z</time>
      </trkpt>
      <trkpt lat="45.1709" lon="5.94905">
        <ele>2543.7</ele>
        <time>2021-02-20T10:52:17Z</time>
      </trkpt>
      <trkpt lat="45.1709" lon="5.94905">
        <ele>2543.7</ele>
        <time>2021-02-20T10:52:18Z</time>
      </trkpt>
      <trkpt lat="45.1709" lon="5.94905">
        <ele>2543.7</ele>
        <time>2021-02-20T10:52:19Z</time>
      </trkpt>
      <trkpt lat="45.1709" lon="5.94905">
        <ele>2543.7</ele>
        <time>2021-02-20T10:52:20Z</time>
      </trkpt>
      <trkpt lat="45.17089" lon="5.94904">
        <ele>2543.7</ele>
        <time>2021-02-20T10:52:21Z</time>
      </trkpt>
      <trkpt lat="45.17089" lon="5.94904">
        <ele>2543.7</ele>
        <time>2021-02-20T10:52:22Z</time>
      </trkpt>
      <trkpt lat="45.17089" lon="5.94904">
        <ele>2543.7</ele>
        <time>2021-02-20T10:52:23Z</time>
      </trkpt>
      <trkpt lat="45.17088" lon="5.94905">
        <ele>2543.7</ele>
        <time>2021-02-20T10:52:24Z</time>
      </trkpt>
      <trkpt lat="45.17088" lon="5.94905">
        <ele>2543.7</ele>
        <time>2021-02-20T10:52:25Z</time>
      </trkpt>
      <trkpt lat="45.17088" lon="5.94906">
        <ele>2546</ele>
        <time>2021-02-20T10:52:26Z</time>
      </trkpt>
      <trkpt lat="45.17087" lon="5.94906">
        <ele>2546</ele>
        <time>2021-02-20T10:52:27Z</time>
      </trkpt>
      <trkpt lat="45.17087" lon="5.94906">
        <ele>2546</ele>
        <time>2021-02-20T10:52:28Z</time>
      </trkpt>
      <trkpt lat="45.17087" lon="5.94906">
        <ele>2545.8</ele>
        <time>2021-02-20T10:52:29Z</time>
      </trkpt>
      <trkpt lat="45.17087" lon="5.94907">
        <ele>2545.8</ele>
        <time>2021-02-20T10:52:30Z</time>
      </trkpt>
      <trkpt lat="45.17087" lon="5.94907">
        <ele>2545.8</ele>
        <time>2021-02-20T10:52:31Z</time>
      </trkpt>
      <trkpt lat="45.17087" lon="5.94908">
        <ele>2545.8</ele>
        <time>2021-02-20T10:52:32Z</time>
      </trkpt>
      <trkpt lat="45.17087" lon="5.94909">
        <ele>2545.8</ele>
        <time>2021-02-20T10:52:33Z</time>
      </trkpt>
      <trkpt lat="45.17086" lon="5.9491">
        <ele>2548</ele>
        <time>2021-02-20T10:52:34Z</time>
      </trkpt>
      <trkpt lat="45.17086" lon="5.94911">
        <ele>2548</ele>
        <time>2021-02-20T10:52:35Z</time>
      </trkpt>
      <trkpt lat="45.17086" lon="5.94912">
        <ele>2548</ele>
        <time>2021-02-20T10:52:36Z</time>
      </trkpt>
      <trkpt lat="45.17086" lon="5.94913">
        <ele>2548</ele>
        <time>2021-02-20T10:52:37Z</time>
      </trkpt>
      <trkpt lat="45.17086" lon="5.94914">
        <ele>2550.2</ele>
        <time>2021-02-20T10:52:38Z</time>
      </trkpt>
      <trkpt lat="45.17085" lon="5.94915">
        <ele>2550.2</ele>
        <time>2021-02-20T10:52:39Z</time>
      </trkpt>
      <trkpt lat="45.17085" lon="5.94915">
        <ele>2550.2</ele>
        <time>2021-02-20T10:52:40Z</time>
      </trkpt>
      <trkpt lat="45.17085" lon="5.94916">
        <ele>2550.2</ele>
        <time>2021-02-20T10:52:41Z</time>
      </trkpt>
      <trkpt lat="45.17085" lon="5.94916">
        <ele>2550.2</ele>
        <time>2021-02-20T10:52:42Z</time>
      </trkpt>
      <trkpt lat="45.17084" lon="5.94917">
        <ele>2550.2</ele>
        <time>2021-02-20T10:52:43Z</time>
      </trkpt>
      <trkpt lat="45.17084" lon="5.94918">
        <ele>2549.8</ele>
        <time>2021-02-20T10:52:44Z</time>
      </trkpt>
      <trkpt lat="45.17084" lon="5.94918">
        <ele>2551.8</ele>
        <time>2021-02-20T10:52:45Z</time>
      </trkpt>
      <trkpt lat="45.17084" lon="5.94919">
        <ele>2551.8</ele>
        <time>2021-02-20T10:52:46Z</time>
      </trkpt>
      <trkpt lat="45.17084" lon="5.9492">
        <ele>2551.8</ele>
        <time>2021-02-20T10:52:47Z</time>
      </trkpt>
      <trkpt lat="45.17084" lon="5.94921">
        <ele>2551.8</ele>
        <time>2021-02-20T10:52:48Z</time>
      </trkpt>
      <trkpt lat="45.17084" lon="5.94922">
        <ele>2551.8</ele>
        <time>2021-02-20T10:52:49Z</time>
      </trkpt>
      <trkpt lat="45.17084" lon="5.94923">
        <ele>2551.8</ele>
        <time>2021-02-20T10:52:50Z</time>
      </trkpt>
      <trkpt lat="45.17084" lon="5.94923">
        <ele>2553.9</ele>
        <time>2021-02-20T10:52:51Z</time>
      </trkpt>
      <trkpt lat="45.17084" lon="5.94923">
        <ele>2553.9</ele>
        <time>2021-02-20T10:52:52Z</time>
      </trkpt>
      <trkpt lat="45.17084" lon="5.94924">
        <ele>2553.9</ele>
        <time>2021-02-20T10:52:53Z</time>
      </trkpt>
      <trkpt lat="45.17084" lon="5.94925">
        <ele>2553.9</ele>
        <time>2021-02-20T10:52:54Z</time>
      </trkpt>
      <trkpt lat="45.17084" lon="5.94926">
        <ele>2553.9</ele>
        <time>2021-02-20T10:52:55Z</time>
      </trkpt>
      <trkpt lat="45.17084" lon="5.94927">
        <ele>2553.9</ele>
        <time>2021-02-20T10:52:56Z</time>
      </trkpt>
      <trkpt lat="45.17084" lon="5.94927">
        <ele>2556.4</ele>
        <time>2021-02-20T10:52:57Z</time>
      </trkpt>
      <trkpt lat="45.17084" lon="5.94928">
        <ele>2556.4</ele>
        <time>2021-02-20T10:52:58Z</time>
      </trkpt>
      <trkpt lat="45.17084" lon="5.94928">
        <ele>2556.4</ele>
        <time>2021-02-20T10:52:59Z</time>
      </trkpt>
      <trkpt lat="45.17084" lon="5.94929">
        <ele>2555.9</ele>
        <time>2021-02-20T10:53:00Z</time>
      </trkpt>
      <trkpt lat="45.17084" lon="5.94929">
        <ele>2555.9</ele>
        <time>2021-02-20T10:53:01Z</time>
      </trkpt>
      <trkpt lat="45.17084" lon="5.9493">
        <ele>2555.9</ele>
        <time>2021-02-20T10:53:02Z</time>
      </trkpt>
      <trkpt lat="45.17084" lon="5.9493">
        <ele>2555.9</ele>
        <time>2021-02-20T10:53:03Z</time>
      </trkpt>
      <trkpt lat="45.17084" lon="5.94931">
        <ele>2555.9</ele>
        <time>2021-02-20T10:53:04Z</time>
      </trkpt>
      <trkpt lat="45.17084" lon="5.94932">
        <ele>2557.9</ele>
        <time>2021-02-20T10:53:05Z</time>
      </trkpt>
      <trkpt lat="45.17084" lon="5.94932">
        <ele>2557.9</ele>
        <time>2021-02-20T10:53:06Z</time>
      </trkpt>
      <trkpt lat="45.17084" lon="5.94933">
        <ele>2557.9</ele>
        <time>2021-02-20T10:53:07Z</time>
      </trkpt>
      <trkpt lat="45.17084" lon="5.94934">
        <ele>2557.9</ele>
        <time>2021-02-20T10:53:08Z</time>
      </trkpt>
      <trkpt lat="45.17085" lon="5.94935">
        <ele>2558.5</ele>
        <time>2021-02-20T10:53:09Z</time>
      </trkpt>
      <trkpt lat="45.17085" lon="5.94936">
        <ele>2560.7</ele>
        <time>2021-02-20T10:53:10Z</time>
      </trkpt>
      <trkpt lat="45.17085" lon="5.94936">
        <ele>2560.7</ele>
        <time>2021-02-20T10:53:11Z</time>
      </trkpt>
      <trkpt lat="45.17085" lon="5.94937">
        <ele>2560.7</ele>
        <time>2021-02-20T10:53:12Z</time>
      </trkpt>
      <trkpt lat="45.17086" lon="5.94938">
        <ele>2560.7</ele>
        <time>2021-02-20T10:53:13Z</time>
      </trkpt>
      <trkpt lat="45.17086" lon="5.9494">
        <ele>2560.7</ele>
        <time>2021-02-20T10:53:14Z</time>
      </trkpt>
      <trkpt lat="45.17086" lon="5.94941">
        <ele>2563</ele>
        <time>2021-02-20T10:53:15Z</time>
      </trkpt>
      <trkpt lat="45.17086" lon="5.94942">
        <ele>2563</ele>
        <time>2021-02-20T10:53:16Z</time>
      </trkpt>
      <trkpt lat="45.17086" lon="5.94943">
        <ele>2563</ele>
        <time>2021-02-20T10:53:17Z</time>
      </trkpt>
      <trkpt lat="45.17086" lon="5.94944">
        <ele>2563</ele>
        <time>2021-02-20T10:53:18Z</time>
      </trkpt>
      <trkpt lat="45.17086" lon="5.94944">
        <ele>2565.2</ele>
        <time>2021-02-20T10:53:19Z</time>
      </trkpt>
      <trkpt lat="45.17085" lon="5.94945">
        <ele>2565.2</ele>
        <time>2021-02-20T10:53:20Z</time>
      </trkpt>
      <trkpt lat="45.17085" lon="5.94945">
        <ele>2565.2</ele>
        <time>2021-02-20T10:53:21Z</time>
      </trkpt>
      <trkpt lat="45.17085" lon="5.94946">
        <ele>2565.2</ele>
        <time>2021-02-20T10:53:22Z</time>
      </trkpt>
      <trkpt lat="45.17085" lon="5.94946">
        <ele>2565.2</ele>
        <time>2021-02-20T10:53:23Z</time>
      </trkpt>
      <trkpt lat="45.17085" lon="5.94946">
        <ele>2565.2</ele>
        <time>2021-02-20T10:53:24Z</time>
      </trkpt>
      <trkpt lat="45.17085" lon="5.94946">
        <ele>2565.2</ele>
        <time>2021-02-20T10:53:25Z</time>
      </trkpt>
      <trkpt lat="45.17085" lon="5.94946">
        <ele>2565.2</ele>
        <time>2021-02-20T10:53:26Z</time>
      </trkpt>
      <trkpt lat="45.17085" lon="5.94945">
        <ele>2565.2</ele>
        <time>2021-02-20T10:53:27Z</time>
      </trkpt>
      <trkpt lat="45.17085" lon="5.94945">
        <ele>2565.2</ele>
        <time>2021-02-20T10:53:28Z</time>
      </trkpt>
      <trkpt lat="45.17085" lon="5.94945">
        <ele>2565.2</ele>
        <time>2021-02-20T10:53:29Z</time>
      </trkpt>
      <trkpt lat="45.17085" lon="5.94945">
        <ele>2565.2</ele>
        <time>2021-02-20T10:53:30Z</time>
      </trkpt>
      <trkpt lat="45.17085" lon="5.94945">
        <ele>2565.2</ele>
        <time>2021-02-20T10:53:31Z</time>
      </trkpt>
      <trkpt lat="45.17085" lon="5.94945">
        <ele>2565.2</ele>
        <time>2021-02-20T10:53:32Z</time>
      </trkpt>
      <trkpt lat="45.17085" lon="5.94944">
        <ele>2565.2</ele>
        <time>2021-02-20T10:53:33Z</time>
      </trkpt>
      <trkpt lat="45.17085" lon="5.94944">
        <ele>2565.2</ele>
        <time>2021-02-20T10:53:34Z</time>
      </trkpt>
      <trkpt lat="45.17085" lon="5.94944">
        <ele>2565.2</ele>
        <time>2021-02-20T10:53:35Z</time>
      </trkpt>
      <trkpt lat="45.17085" lon="5.94944">
        <ele>2565.2</ele>
        <time>2021-02-20T10:53:36Z</time>
      </trkpt>
      <trkpt lat="45.17085" lon="5.94944">
        <ele>2565.2</ele>
        <time>2021-02-20T10:53:37Z</time>
      </trkpt>
      <trkpt lat="45.17085" lon="5.94944">
        <ele>2565.2</ele>
        <time>2021-02-20T10:53:38Z</time>
      </trkpt>
      <trkpt lat="45.17085" lon="5.94944">
        <ele>2565.2</ele>
        <time>2021-02-20T10:53:39Z</time>
      </trkpt>
      <trkpt lat="45.17085" lon="5.94946">
        <ele>2565.2</ele>
        <time>2021-02-20T10:53:40Z</time>
      </trkpt>
      <trkpt lat="45.17086" lon="5.94947">
        <ele>2565.2</ele>
        <time>2021-02-20T10:53:41Z</time>
      </trkpt>
      <trkpt lat="45.17086" lon="5.94948">
        <ele>2565.2</ele>
        <time>2021-02-20T10:53:42Z</time>
      </trkpt>
      <trkpt lat="45.17086" lon="5.94949">
        <ele>2567.4</ele>
        <time>2021-02-20T10:53:43Z</time>
      </trkpt>
      <trkpt lat="45.17086" lon="5.94949">
        <ele>2567.4</ele>
        <time>2021-02-20T10:53:44Z</time>
      </trkpt>
      <trkpt lat="45.17086" lon="5.9495">
        <ele>2567.4</ele>
        <time>2021-02-20T10:53:45Z</time>
      </trkpt>
      <trkpt lat="45.17087" lon="5.94951">
        <ele>2567.4</ele>
        <time>2021-02-20T10:53:46Z</time>
      </trkpt>
      <trkpt lat="45.17087" lon="5.94952">
        <ele>2567.4</ele>
        <time>2021-02-20T10:53:47Z</time>
      </trkpt>
      <trkpt lat="45.17087" lon="5.94953">
        <ele>2569.5</ele>
        <time>2021-02-20T10:53:48Z</time>
      </trkpt>
      <trkpt lat="45.17088" lon="5.94954">
        <ele>2570.2</ele>
        <time>2021-02-20T10:53:49Z</time>
      </trkpt>
      <trkpt lat="45.17088" lon="5.94954">
        <ele>2570.2</ele>
        <time>2021-02-20T10:53:50Z</time>
      </trkpt>
      <trkpt lat="45.17089" lon="5.94955">
        <ele>2570.2</ele>
        <time>2021-02-20T10:53:51Z</time>
      </trkpt>
      <trkpt lat="45.17089" lon="5.94956">
        <ele>2570.2</ele>
        <time>2021-02-20T10:53:52Z</time>
      </trkpt>
      <trkpt lat="45.17089" lon="5.94956">
        <ele>2570.2</ele>
        <time>2021-02-20T10:53:53Z</time>
      </trkpt>
      <trkpt lat="45.1709" lon="5.94956">
        <ele>2570.2</ele>
        <time>2021-02-20T10:53:54Z</time>
      </trkpt>
      <trkpt lat="45.1709" lon="5.94956">
        <ele>2570.2</ele>
        <time>2021-02-20T10:53:55Z</time>
      </trkpt>
      <trkpt lat="45.1709" lon="5.94956">
        <ele>2570.2</ele>
        <time>2021-02-20T10:53:56Z</time>
      </trkpt>
      <trkpt lat="45.1709" lon="5.94956">
        <ele>2570.2</ele>
        <time>2021-02-20T10:53:57Z</time>
      </trkpt>
      <trkpt lat="45.17091" lon="5.94956">
        <ele>2570.8</ele>
        <time>2021-02-20T10:53:58Z</time>
      </trkpt>
      <trkpt lat="45.17091" lon="5.94955">
        <ele>2570.8</ele>
        <time>2021-02-20T10:53:59Z</time>
      </trkpt>
      <trkpt lat="45.17092" lon="5.94955">
        <ele>2570.8</ele>
        <time>2021-02-20T10:54:00Z</time>
      </trkpt>
      <trkpt lat="45.17092" lon="5.94955">
        <ele>2570.8</ele>
        <time>2021-02-20T10:54:01Z</time>
      </trkpt>
      <trkpt lat="45.17093" lon="5.94955">
        <ele>2570.8</ele>
        <time>2021-02-20T10:54:02Z</time>
      </trkpt>
      <trkpt lat="45.17094" lon="5.94955">
        <ele>2571.2</ele>
        <time>2021-02-20T10:54:03Z</time>
      </trkpt>
      <trkpt lat="45.17094" lon="5.94955">
        <ele>2571.2</ele>
        <time>2021-02-20T10:54:04Z</time>
      </trkpt>
      <trkpt lat="45.17095" lon="5.94955">
        <ele>2571.2</ele>
        <time>2021-02-20T10:54:05Z</time>
      </trkpt>
      <trkpt lat="45.17095" lon="5.94955">
        <ele>2571.2</ele>
        <time>2021-02-20T10:54:06Z</time>
      </trkpt>
      <trkpt lat="45.17095" lon="5.94955">
        <ele>2571.2</ele>
        <time>2021-02-20T10:54:07Z</time>
      </trkpt>
      <trkpt lat="45.17096" lon="5.94955">
        <ele>2571.2</ele>
        <time>2021-02-20T10:54:08Z</time>
      </trkpt>
      <trkpt lat="45.17096" lon="5.94955">
        <ele>2571.2</ele>
        <time>2021-02-20T10:54:09Z</time>
      </trkpt>
      <trkpt lat="45.17097" lon="5.94955">
        <ele>2571.5</ele>
        <time>2021-02-20T10:54:10Z</time>
      </trkpt>
      <trkpt lat="45.17098" lon="5.94956">
        <ele>2571.5</ele>
        <time>2021-02-20T10:54:11Z</time>
      </trkpt>
      <trkpt lat="45.17098" lon="5.94956">
        <ele>2571.5</ele>
        <time>2021-02-20T10:54:12Z</time>
      </trkpt>
      <trkpt lat="45.17098" lon="5.94956">
        <ele>2571.5</ele>
        <time>2021-02-20T10:54:13Z</time>
      </trkpt>
      <trkpt lat="45.17097" lon="5.94956">
        <ele>2571.5</ele>
        <time>2021-02-20T10:54:14Z</time>
      </trkpt>
      <trkpt lat="45.17098" lon="5.94956">
        <ele>2571.5</ele>
        <time>2021-02-20T10:54:15Z</time>
      </trkpt>
      <trkpt lat="45.17098" lon="5.94956">
        <ele>2571.5</ele>
        <time>2021-02-20T10:54:16Z</time>
      </trkpt>
      <trkpt lat="45.17098" lon="5.94956">
        <ele>2571.5</ele>
        <time>2021-02-20T10:54:17Z</time>
      </trkpt>
      <trkpt lat="45.17098" lon="5.94955">
        <ele>2571.5</ele>
        <time>2021-02-20T10:54:18Z</time>
      </trkpt>
      <trkpt lat="45.17098" lon="5.94955">
        <ele>2571.5</ele>
        <time>2021-02-20T10:54:19Z</time>
      </trkpt>
      <trkpt lat="45.17099" lon="5.94955">
        <ele>2571.5</ele>
        <time>2021-02-20T10:54:20Z</time>
      </trkpt>
      <trkpt lat="45.17099" lon="5.94955">
        <ele>2571.5</ele>
        <time>2021-02-20T10:54:21Z</time>
      </trkpt>
      <trkpt lat="45.171" lon="5.94955">
        <ele>2571.7</ele>
        <time>2021-02-20T10:54:22Z</time>
      </trkpt>
      <trkpt lat="45.171" lon="5.94955">
        <ele>2571.7</ele>
        <time>2021-02-20T10:54:23Z</time>
      </trkpt>
      <trkpt lat="45.171" lon="5.94955">
        <ele>2571.7</ele>
        <time>2021-02-20T10:54:24Z</time>
      </trkpt>
      <trkpt lat="45.17101" lon="5.94955">
        <ele>2571.7</ele>
        <time>2021-02-20T10:54:25Z</time>
      </trkpt>
      <trkpt lat="45.17101" lon="5.94955">
        <ele>2571.7</ele>
        <time>2021-02-20T10:54:26Z</time>
      </trkpt>
      <trkpt lat="45.17101" lon="5.94955">
        <ele>2571.7</ele>
        <time>2021-02-20T10:54:27Z</time>
      </trkpt>
      <trkpt lat="45.17102" lon="5.94956">
        <ele>2571.7</ele>
        <time>2021-02-20T10:54:28Z</time>
      </trkpt>
      <trkpt lat="45.17102" lon="5.94957">
        <ele>2573.8</ele>
        <time>2021-02-20T10:54:29Z</time>
      </trkpt>
      <trkpt lat="45.17101" lon="5.94959">
        <ele>2573.8</ele>
        <time>2021-02-20T10:54:30Z</time>
      </trkpt>
      <trkpt lat="45.17101" lon="5.9496">
        <ele>2573.8</ele>
        <time>2021-02-20T10:54:31Z</time>
      </trkpt>
      <trkpt lat="45.17101" lon="5.9496">
        <ele>2573.8</ele>
        <time>2021-02-20T10:54:32Z</time>
      </trkpt>
      <trkpt lat="45.17101" lon="5.94961">
        <ele>2575.8</ele>
        <time>2021-02-20T10:54:33Z</time>
      </trkpt>
      <trkpt lat="45.17101" lon="5.94962">
        <ele>2575.8</ele>
        <time>2021-02-20T10:54:34Z</time>
      </trkpt>
      <trkpt lat="45.17101" lon="5.94963">
        <ele>2575.8</ele>
        <time>2021-02-20T10:54:35Z</time>
      </trkpt>
      <trkpt lat="45.17101" lon="5.94963">
        <ele>2575.8</ele>
        <time>2021-02-20T10:54:36Z</time>
      </trkpt>
      <trkpt lat="45.17101" lon="5.94963">
        <ele>2575.8</ele>
        <time>2021-02-20T10:54:37Z</time>
      </trkpt>
      <trkpt lat="45.17101" lon="5.94963">
        <ele>2575.8</ele>
        <time>2021-02-20T10:54:38Z</time>
      </trkpt>
      <trkpt lat="45.17101" lon="5.94963">
        <ele>2575.8</ele>
        <time>2021-02-20T10:54:39Z</time>
      </trkpt>
      <trkpt lat="45.17101" lon="5.94963">
        <ele>2575.8</ele>
        <time>2021-02-20T10:54:40Z</time>
      </trkpt>
      <trkpt lat="45.17101" lon="5.94963">
        <ele>2575.8</ele>
        <time>2021-02-20T10:54:41Z</time>
      </trkpt>
      <trkpt lat="45.17102" lon="5.94964">
        <ele>2575.8</ele>
        <time>2021-02-20T10:54:42Z</time>
      </trkpt>
      <trkpt lat="45.17102" lon="5.94965">
        <ele>2575.8</ele>
        <time>2021-02-20T10:54:43Z</time>
      </trkpt>
      <trkpt lat="45.17101" lon="5.94965">
        <ele>2575.8</ele>
        <time>2021-02-20T10:54:44Z</time>
      </trkpt>
      <trkpt lat="45.17101" lon="5.94966">
        <ele>2577.8</ele>
        <time>2021-02-20T10:54:45Z</time>
      </trkpt>
      <trkpt lat="45.17101" lon="5.94966">
        <ele>2577.8</ele>
        <time>2021-02-20T10:54:46Z</time>
      </trkpt>
      <trkpt lat="45.17101" lon="5.94967">
        <ele>2577.8</ele>
        <time>2021-02-20T10:54:47Z</time>
      </trkpt>
      <trkpt lat="45.17101" lon="5.94967">
        <ele>2577.8</ele>
        <time>2021-02-20T10:54:48Z</time>
      </trkpt>
      <trkpt lat="45.17101" lon="5.94968">
        <ele>2577.8</ele>
        <time>2021-02-20T10:54:49Z</time>
      </trkpt>
      <trkpt lat="45.17101" lon="5.94968">
        <ele>2577.8</ele>
        <time>2021-02-20T10:54:50Z</time>
      </trkpt>
      <trkpt lat="45.17101" lon="5.94968">
        <ele>2577.8</ele>
        <time>2021-02-20T10:54:51Z</time>
      </trkpt>
      <trkpt lat="45.17101" lon="5.94968">
        <ele>2577.8</ele>
        <time>2021-02-20T10:54:52Z</time>
      </trkpt>
      <trkpt lat="45.17101" lon="5.94968">
        <ele>2577.8</ele>
        <time>2021-02-20T10:54:53Z</time>
      </trkpt>
      <trkpt lat="45.17101" lon="5.94968">
        <ele>2577.8</ele>
        <time>2021-02-20T10:54:54Z</time>
      </trkpt>
      <trkpt lat="45.17101" lon="5.94968">
        <ele>2577.8</ele>
        <time>2021-02-20T10:54:55Z</time>
      </trkpt>
      <trkpt lat="45.17101" lon="5.94969">
        <ele>2577.8</ele>
        <time>2021-02-20T10:54:56Z</time>
      </trkpt>
      <trkpt lat="45.17101" lon="5.94969">
        <ele>2577.8</ele>
        <time>2021-02-20T10:54:57Z</time>
      </trkpt>
      <trkpt lat="45.17101" lon="5.94969">
        <ele>2577.8</ele>
        <time>2021-02-20T10:54:58Z</time>
      </trkpt>
      <trkpt lat="45.17101" lon="5.94969">
        <ele>2577.8</ele>
        <time>2021-02-20T10:54:59Z</time>
      </trkpt>
      <trkpt lat="45.17101" lon="5.94969">
        <ele>2577.8</ele>
        <time>2021-02-20T10:55:00Z</time>
      </trkpt>
      <trkpt lat="45.17101" lon="5.94969">
        <ele>2577.8</ele>
        <time>2021-02-20T10:55:01Z</time>
      </trkpt>
      <trkpt lat="45.17101" lon="5.94969">
        <ele>2577.8</ele>
        <time>2021-02-20T10:55:02Z</time>
      </trkpt>
      <trkpt lat="45.17101" lon="5.9497">
        <ele>2577.8</ele>
        <time>2021-02-20T10:55:03Z</time>
      </trkpt>
      <trkpt lat="45.17101" lon="5.9497">
        <ele>2577.8</ele>
        <time>2021-02-20T10:55:04Z</time>
      </trkpt>
      <trkpt lat="45.17101" lon="5.9497">
        <ele>2579.8</ele>
        <time>2021-02-20T10:55:05Z</time>
      </trkpt>
      <trkpt lat="45.17101" lon="5.9497">
        <ele>2579.8</ele>
        <time>2021-02-20T10:55:06Z</time>
      </trkpt>
      <trkpt lat="45.17101" lon="5.9497">
        <ele>2579.8</ele>
        <time>2021-02-20T10:55:07Z</time>
      </trkpt>
      <trkpt lat="45.17101" lon="5.9497">
        <ele>2579.8</ele>
        <time>2021-02-20T10:55:08Z</time>
      </trkpt>
      <trkpt lat="45.17101" lon="5.9497">
        <ele>2579.8</ele>
        <time>2021-02-20T10:55:09Z</time>
      </trkpt>
      <trkpt lat="45.17101" lon="5.94971">
        <ele>2579.8</ele>
        <time>2021-02-20T10:55:10Z</time>
      </trkpt>
      <trkpt lat="45.17101" lon="5.94971">
        <ele>2579.8</ele>
        <time>2021-02-20T10:55:11Z</time>
      </trkpt>
      <trkpt lat="45.17101" lon="5.94971">
        <ele>2579.8</ele>
        <time>2021-02-20T10:55:12Z</time>
      </trkpt>
      <trkpt lat="45.17101" lon="5.94971">
        <ele>2579.8</ele>
        <time>2021-02-20T10:55:13Z</time>
      </trkpt>
      <trkpt lat="45.17101" lon="5.94971">
        <ele>2579.8</ele>
        <time>2021-02-20T10:55:14Z</time>
      </trkpt>
      <trkpt lat="45.17101" lon="5.94971">
        <ele>2579.8</ele>
        <time>2021-02-20T10:55:15Z</time>
      </trkpt>
      <trkpt lat="45.17101" lon="5.94972">
        <ele>2579.8</ele>
        <time>2021-02-20T10:55:16Z</time>
      </trkpt>
      <trkpt lat="45.17101" lon="5.94972">
        <ele>2579.8</ele>
        <time>2021-02-20T10:55:17Z</time>
      </trkpt>
      <trkpt lat="45.17101" lon="5.94972">
        <ele>2579.8</ele>
        <time>2021-02-20T10:55:18Z</time>
      </trkpt>
      <trkpt lat="45.17101" lon="5.94973">
        <ele>2579.8</ele>
        <time>2021-02-20T10:55:19Z</time>
      </trkpt>
      <trkpt lat="45.17101" lon="5.94973">
        <ele>2579.8</ele>
        <time>2021-02-20T10:55:20Z</time>
      </trkpt>
      <trkpt lat="45.17101" lon="5.94972">
        <ele>2579.8</ele>
        <time>2021-02-20T10:55:21Z</time>
      </trkpt>
      <trkpt lat="45.17102" lon="5.94973">
        <ele>2579.8</ele>
        <time>2021-02-20T10:55:22Z</time>
      </trkpt>
      <trkpt lat="45.17103" lon="5.94973">
        <ele>2579.8</ele>
        <time>2021-02-20T10:55:23Z</time>
      </trkpt>
      <trkpt lat="45.17103" lon="5.94973">
        <ele>2580</ele>
        <time>2021-02-20T10:55:24Z</time>
      </trkpt>
      <trkpt lat="45.17103" lon="5.94973">
        <ele>2580</ele>
        <time>2021-02-20T10:55:25Z</time>
      </trkpt>
      <trkpt lat="45.17104" lon="5.94973">
        <ele>2580</ele>
        <time>2021-02-20T10:55:26Z</time>
      </trkpt>
      <trkpt lat="45.17104" lon="5.94973">
        <ele>2580</ele>
        <time>2021-02-20T10:55:27Z</time>
      </trkpt>
      <trkpt lat="45.17104" lon="5.94973">
        <ele>2580</ele>
        <time>2021-02-20T10:55:28Z</time>
      </trkpt>
      <trkpt lat="45.17104" lon="5.94973">
        <ele>2580</ele>
        <time>2021-02-20T10:55:29Z</time>
      </trkpt>
      <trkpt lat="45.17104" lon="5.94972">
        <ele>2580</ele>
        <time>2021-02-20T10:55:30Z</time>
      </trkpt>
      <trkpt lat="45.17105" lon="5.94972">
        <ele>2580</ele>
        <time>2021-02-20T10:55:31Z</time>
      </trkpt>
      <trkpt lat="45.17105" lon="5.94972">
        <ele>2580</ele>
        <time>2021-02-20T10:55:32Z</time>
      </trkpt>
      <trkpt lat="45.17105" lon="5.94972">
        <ele>2580</ele>
        <time>2021-02-20T10:55:33Z</time>
      </trkpt>
      <trkpt lat="45.17106" lon="5.94972">
        <ele>2580.1</ele>
        <time>2021-02-20T10:55:34Z</time>
      </trkpt>
      <trkpt lat="45.17106" lon="5.94972">
        <ele>2580.1</ele>
        <time>2021-02-20T10:55:35Z</time>
      </trkpt>
      <trkpt lat="45.17106" lon="5.94973">
        <ele>2580.1</ele>
        <time>2021-02-20T10:55:36Z</time>
      </trkpt>
      <trkpt lat="45.17106" lon="5.94974">
        <ele>2580.1</ele>
        <time>2021-02-20T10:55:37Z</time>
      </trkpt>
      <trkpt lat="45.17106" lon="5.94974">
        <ele>2580.1</ele>
        <time>2021-02-20T10:55:38Z</time>
      </trkpt>
      <trkpt lat="45.17106" lon="5.94974">
        <ele>2580.1</ele>
        <time>2021-02-20T10:55:39Z</time>
      </trkpt>
      <trkpt lat="45.17106" lon="5.94974">
        <ele>2580.1</ele>
        <time>2021-02-20T10:55:40Z</time>
      </trkpt>
      <trkpt lat="45.17106" lon="5.94974">
        <ele>2580.1</ele>
        <time>2021-02-20T10:55:41Z</time>
      </trkpt>
      <trkpt lat="45.17106" lon="5.94974">
        <ele>2582.2</ele>
        <time>2021-02-20T10:55:42Z</time>
      </trkpt>
      <trkpt lat="45.17106" lon="5.94974">
        <ele>2582.2</ele>
        <time>2021-02-20T10:55:43Z</time>
      </trkpt>
      <trkpt lat="45.17106" lon="5.94974">
        <ele>2580.1</ele>
        <time>2021-02-20T10:55:44Z</time>
      </trkpt>
      <trkpt lat="45.17106" lon="5.94974">
        <ele>2580.1</ele>
        <time>2021-02-20T10:55:45Z</time>
      </trkpt>
      <trkpt lat="45.17106" lon="5.94974">
        <ele>2580.1</ele>
        <time>2021-02-20T10:55:46Z</time>
      </trkpt>
      <trkpt lat="45.17106" lon="5.94974">
        <ele>2580.1</ele>
        <time>2021-02-20T10:55:47Z</time>
      </trkpt>
      <trkpt lat="45.17106" lon="5.94974">
        <ele>2580.1</ele>
        <time>2021-02-20T10:55:48Z</time>
      </trkpt>
      <trkpt lat="45.17106" lon="5.94974">
        <ele>2580.1</ele>
        <time>2021-02-20T10:55:49Z</time>
      </trkpt>
      <trkpt lat="45.17106" lon="5.94975">
        <ele>2582.2</ele>
        <time>2021-02-20T10:55:50Z</time>
      </trkpt>
      <trkpt lat="45.17106" lon="5.94976">
        <ele>2582.1</ele>
        <time>2021-02-20T10:55:51Z</time>
      </trkpt>
      <trkpt lat="45.17105" lon="5.94977">
        <ele>2582.1</ele>
        <time>2021-02-20T10:55:52Z</time>
      </trkpt>
      <trkpt lat="45.17105" lon="5.94978">
        <ele>2582.1</ele>
        <time>2021-02-20T10:55:53Z</time>
      </trkpt>
      <trkpt lat="45.17105" lon="5.94979">
        <ele>2584.3</ele>
        <time>2021-02-20T10:55:54Z</time>
      </trkpt>
      <trkpt lat="45.17105" lon="5.94979">
        <ele>2584.3</ele>
        <time>2021-02-20T10:55:55Z</time>
      </trkpt>
      <trkpt lat="45.17105" lon="5.9498">
        <ele>2584.3</ele>
        <time>2021-02-20T10:55:56Z</time>
      </trkpt>
      <trkpt lat="45.17105" lon="5.94981">
        <ele>2584.3</ele>
        <time>2021-02-20T10:55:57Z</time>
      </trkpt>
      <trkpt lat="45.17105" lon="5.94982">
        <ele>2584.3</ele>
        <time>2021-02-20T10:55:58Z</time>
      </trkpt>
      <trkpt lat="45.17105" lon="5.94983">
        <ele>2586.5</ele>
        <time>2021-02-20T10:55:59Z</time>
      </trkpt>
      <trkpt lat="45.17106" lon="5.94985">
        <ele>2586.5</ele>
        <time>2021-02-20T10:56:00Z</time>
      </trkpt>
      <trkpt lat="45.17106" lon="5.94985">
        <ele>2586.7</ele>
        <time>2021-02-20T10:56:01Z</time>
      </trkpt>
      <trkpt lat="45.17106" lon="5.94986">
        <ele>2586.7</ele>
        <time>2021-02-20T10:56:02Z</time>
      </trkpt>
      <trkpt lat="45.17106" lon="5.94986">
        <ele>2586.7</ele>
        <time>2021-02-20T10:56:03Z</time>
      </trkpt>
      <trkpt lat="45.17107" lon="5.94986">
        <ele>2586.7</ele>
        <time>2021-02-20T10:56:04Z</time>
      </trkpt>
      <trkpt lat="45.17107" lon="5.94987">
        <ele>2586.7</ele>
        <time>2021-02-20T10:56:05Z</time>
      </trkpt>
      <trkpt lat="45.17107" lon="5.94987">
        <ele>2589</ele>
        <time>2021-02-20T10:56:06Z</time>
      </trkpt>
      <trkpt lat="45.17108" lon="5.94988">
        <ele>2589</ele>
        <time>2021-02-20T10:56:07Z</time>
      </trkpt>
      <trkpt lat="45.17108" lon="5.9499">
        <ele>2589</ele>
        <time>2021-02-20T10:56:08Z</time>
      </trkpt>
      <trkpt lat="45.17108" lon="5.94991">
        <ele>2589</ele>
        <time>2021-02-20T10:56:09Z</time>
      </trkpt>
      <trkpt lat="45.17108" lon="5.94992">
        <ele>2591.3</ele>
        <time>2021-02-20T10:56:10Z</time>
      </trkpt>
      <trkpt lat="45.17108" lon="5.94993">
        <ele>2591.3</ele>
        <time>2021-02-20T10:56:11Z</time>
      </trkpt>
      <trkpt lat="45.17108" lon="5.94993">
        <ele>2591.3</ele>
        <time>2021-02-20T10:56:12Z</time>
      </trkpt>
      <trkpt lat="45.17108" lon="5.94993">
        <ele>2591.3</ele>
        <time>2021-02-20T10:56:13Z</time>
      </trkpt>
      <trkpt lat="45.17108" lon="5.94993">
        <ele>2591.3</ele>
        <time>2021-02-20T10:56:14Z</time>
      </trkpt>
      <trkpt lat="45.17108" lon="5.94993">
        <ele>2591.3</ele>
        <time>2021-02-20T10:56:15Z</time>
      </trkpt>
      <trkpt lat="45.17108" lon="5.94993">
        <ele>2591.3</ele>
        <time>2021-02-20T10:56:16Z</time>
      </trkpt>
      <trkpt lat="45.17108" lon="5.94993">
        <ele>2591.3</ele>
        <time>2021-02-20T10:56:17Z</time>
      </trkpt>
      <trkpt lat="45.17108" lon="5.94993">
        <ele>2591.3</ele>
        <time>2021-02-20T10:56:18Z</time>
      </trkpt>
      <trkpt lat="45.17108" lon="5.94993">
        <ele>2591.3</ele>
        <time>2021-02-20T10:56:19Z</time>
      </trkpt>
      <trkpt lat="45.17108" lon="5.94993">
        <ele>2591.3</ele>
        <time>2021-02-20T10:56:20Z</time>
      </trkpt>
      <trkpt lat="45.17108" lon="5.94993">
        <ele>2591.3</ele>
        <time>2021-02-20T10:56:21Z</time>
      </trkpt>
      <trkpt lat="45.17108" lon="5.94994">
        <ele>2591.3</ele>
        <time>2021-02-20T10:56:22Z</time>
      </trkpt>
      <trkpt lat="45.17109" lon="5.94995">
        <ele>2591.4</ele>
        <time>2021-02-20T10:56:23Z</time>
      </trkpt>
      <trkpt lat="45.17109" lon="5.94996">
        <ele>2593.8</ele>
        <time>2021-02-20T10:56:24Z</time>
      </trkpt>
      <trkpt lat="45.17109" lon="5.94996">
        <ele>2593.8</ele>
        <time>2021-02-20T10:56:25Z</time>
      </trkpt>
      <trkpt lat="45.17109" lon="5.94997">
        <ele>2593.8</ele>
        <time>2021-02-20T10:56:26Z</time>
      </trkpt>
      <trkpt lat="45.17109" lon="5.94997">
        <ele>2593.8</ele>
        <time>2021-02-20T10:56:27Z</time>
      </trkpt>
      <trkpt lat="45.17109" lon="5.94998">
        <ele>2593.8</ele>
        <time>2021-02-20T10:56:28Z</time>
      </trkpt>
      <trkpt lat="45.17109" lon="5.94998">
        <ele>2593.8</ele>
        <time>2021-02-20T10:56:29Z</time>
      </trkpt>
      <trkpt lat="45.17109" lon="5.94999">
        <ele>2593.8</ele>
        <time>2021-02-20T10:56:30Z</time>
      </trkpt>
      <trkpt lat="45.17109" lon="5.95">
        <ele>2593.8</ele>
        <time>2021-02-20T10:56:31Z</time>
      </trkpt>
      <trkpt lat="45.17109" lon="5.95001">
        <ele>2595.9</ele>
        <time>2021-02-20T10:56:32Z</time>
      </trkpt>
      <trkpt lat="45.17108" lon="5.95001">
        <ele>2595.9</ele>
        <time>2021-02-20T10:56:33Z</time>
      </trkpt>
      <trkpt lat="45.17108" lon="5.95002">
        <ele>2595.9</ele>
        <time>2021-02-20T10:56:34Z</time>
      </trkpt>
      <trkpt lat="45.17108" lon="5.95002">
        <ele>2595.9</ele>
        <time>2021-02-20T10:56:35Z</time>
      </trkpt>
      <trkpt lat="45.17108" lon="5.95002">
        <ele>2595.9</ele>
        <time>2021-02-20T10:56:36Z</time>
      </trkpt>
      <trkpt lat="45.17108" lon="5.95002">
        <ele>2595.9</ele>
        <time>2021-02-20T10:56:37Z</time>
      </trkpt>
      <trkpt lat="45.17108" lon="5.95002">
        <ele>2595.9</ele>
        <time>2021-02-20T10:56:38Z</time>
      </trkpt>
      <trkpt lat="45.17108" lon="5.95002">
        <ele>2595.9</ele>
        <time>2021-02-20T10:56:39Z</time>
      </trkpt>
      <trkpt lat="45.17108" lon="5.95002">
        <ele>2595.9</ele>
        <time>2021-02-20T10:56:40Z</time>
      </trkpt>
      <trkpt lat="45.17108" lon="5.95002">
        <ele>2595.9</ele>
        <time>2021-02-20T10:56:41Z</time>
      </trkpt>
      <trkpt lat="45.17108" lon="5.95003">
        <ele>2595.9</ele>
        <time>2021-02-20T10:56:42Z</time>
      </trkpt>
      <trkpt lat="45.17108" lon="5.95003">
        <ele>2595.9</ele>
        <time>2021-02-20T10:56:43Z</time>
      </trkpt>
      <trkpt lat="45.17107" lon="5.95004">
        <ele>2598.1</ele>
        <time>2021-02-20T10:56:44Z</time>
      </trkpt>
      <trkpt lat="45.17107" lon="5.95005">
        <ele>2598.1</ele>
        <time>2021-02-20T10:56:45Z</time>
      </trkpt>
      <trkpt lat="45.17107" lon="5.95006">
        <ele>2598.1</ele>
        <time>2021-02-20T10:56:46Z</time>
      </trkpt>
      <trkpt lat="45.17107" lon="5.95007">
        <ele>2598.1</ele>
        <time>2021-02-20T10:56:47Z</time>
      </trkpt>
      <trkpt lat="45.17107" lon="5.95007">
        <ele>2598.1</ele>
        <time>2021-02-20T10:56:48Z</time>
      </trkpt>
      <trkpt lat="45.17107" lon="5.95008">
        <ele>2598.1</ele>
        <time>2021-02-20T10:56:49Z</time>
      </trkpt>
      <trkpt lat="45.17106" lon="5.95009">
        <ele>2600.2</ele>
        <time>2021-02-20T10:56:50Z</time>
      </trkpt>
      <trkpt lat="45.17106" lon="5.9501">
        <ele>2600.2</ele>
        <time>2021-02-20T10:56:51Z</time>
      </trkpt>
      <trkpt lat="45.17106" lon="5.9501">
        <ele>2600.2</ele>
        <time>2021-02-20T10:56:52Z</time>
      </trkpt>
      <trkpt lat="45.17106" lon="5.95011">
        <ele>2600.2</ele>
        <time>2021-02-20T10:56:53Z</time>
      </trkpt>
      <trkpt lat="45.17106" lon="5.95011">
        <ele>2600.2</ele>
        <time>2021-02-20T10:56:54Z</time>
      </trkpt>
      <trkpt lat="45.17106" lon="5.95012">
        <ele>2600.2</ele>
        <time>2021-02-20T10:56:55Z</time>
      </trkpt>
      <trkpt lat="45.17106" lon="5.95013">
        <ele>2600.2</ele>
        <time>2021-02-20T10:56:56Z</time>
      </trkpt>
      <trkpt lat="45.17106" lon="5.95013">
        <ele>2600.2</ele>
        <time>2021-02-20T10:56:57Z</time>
      </trkpt>
      <trkpt lat="45.17106" lon="5.95014">
        <ele>2602.3</ele>
        <time>2021-02-20T10:56:58Z</time>
      </trkpt>
      <trkpt lat="45.17106" lon="5.95015">
        <ele>2602.3</ele>
        <time>2021-02-20T10:56:59Z</time>
      </trkpt>
      <trkpt lat="45.17106" lon="5.95017">
        <ele>2602.3</ele>
        <time>2021-02-20T10:57:00Z</time>
      </trkpt>
      <trkpt lat="45.17106" lon="5.95018">
        <ele>2604.4</ele>
        <time>2021-02-20T10:57:01Z</time>
      </trkpt>
      <trkpt lat="45.17106" lon="5.95019">
        <ele>2604.4</ele>
        <time>2021-02-20T10:57:02Z</time>
      </trkpt>
      <trkpt lat="45.17106" lon="5.95021">
        <ele>2604.4</ele>
        <time>2021-02-20T10:57:03Z</time>
      </trkpt>
      <trkpt lat="45.17106" lon="5.95021">
        <ele>2606.5</ele>
        <time>2021-02-20T10:57:04Z</time>
      </trkpt>
      <trkpt lat="45.17106" lon="5.95022">
        <ele>2606</ele>
        <time>2021-02-20T10:57:05Z</time>
      </trkpt>
      <trkpt lat="45.17105" lon="5.95023">
        <ele>2606</ele>
        <time>2021-02-20T10:57:06Z</time>
      </trkpt>
      <trkpt lat="45.17105" lon="5.95024">
        <ele>2606</ele>
        <time>2021-02-20T10:57:07Z</time>
      </trkpt>
      <trkpt lat="45.17105" lon="5.95025">
        <ele>2606</ele>
        <time>2021-02-20T10:57:08Z</time>
      </trkpt>
      <trkpt lat="45.17105" lon="5.95026">
        <ele>2606</ele>
        <time>2021-02-20T10:57:09Z</time>
      </trkpt>
      <trkpt lat="45.17105" lon="5.95026">
        <ele>2608.1</ele>
        <time>2021-02-20T10:57:10Z</time>
      </trkpt>
      <trkpt lat="45.17105" lon="5.95027">
        <ele>2608.1</ele>
        <time>2021-02-20T10:57:11Z</time>
      </trkpt>
      <trkpt lat="45.17105" lon="5.95029">
        <ele>2608.1</ele>
        <time>2021-02-20T10:57:12Z</time>
      </trkpt>
      <trkpt lat="45.17105" lon="5.95029">
        <ele>2608.1</ele>
        <time>2021-02-20T10:57:13Z</time>
      </trkpt>
      <trkpt lat="45.17105" lon="5.9503">
        <ele>2608.1</ele>
        <time>2021-02-20T10:57:14Z</time>
      </trkpt>
      <trkpt lat="45.17105" lon="5.9503">
        <ele>2610.2</ele>
        <time>2021-02-20T10:57:15Z</time>
      </trkpt>
      <trkpt lat="45.17105" lon="5.95031">
        <ele>2610.2</ele>
        <time>2021-02-20T10:57:16Z</time>
      </trkpt>
      <trkpt lat="45.17105" lon="5.95031">
        <ele>2610.2</ele>
        <time>2021-02-20T10:57:17Z</time>
      </trkpt>
      <trkpt lat="45.17105" lon="5.95031">
        <ele>2610.2</ele>
        <time>2021-02-20T10:57:18Z</time>
      </trkpt>
      <trkpt lat="45.17104" lon="5.95032">
        <ele>2610.2</ele>
        <time>2021-02-20T10:57:19Z</time>
      </trkpt>
      <trkpt lat="45.17104" lon="5.95032">
        <ele>2610.2</ele>
        <time>2021-02-20T10:57:20Z</time>
      </trkpt>
      <trkpt lat="45.17104" lon="5.95033">
        <ele>2610.2</ele>
        <time>2021-02-20T10:57:21Z</time>
      </trkpt>
      <trkpt lat="45.17104" lon="5.95034">
        <ele>2610.2</ele>
        <time>2021-02-20T10:57:22Z</time>
      </trkpt>
      <trkpt lat="45.17104" lon="5.95034">
        <ele>2612.3</ele>
        <time>2021-02-20T10:57:23Z</time>
      </trkpt>
      <trkpt lat="45.17104" lon="5.95035">
        <ele>2612.3</ele>
        <time>2021-02-20T10:57:24Z</time>
      </trkpt>
      <trkpt lat="45.17104" lon="5.95036">
        <ele>2612.3</ele>
        <time>2021-02-20T10:57:25Z</time>
      </trkpt>
      <trkpt lat="45.17103" lon="5.95037">
        <ele>2612.3</ele>
        <time>2021-02-20T10:57:26Z</time>
      </trkpt>
      <trkpt lat="45.17103" lon="5.95038">
        <ele>2612.3</ele>
        <time>2021-02-20T10:57:27Z</time>
      </trkpt>
      <trkpt lat="45.17103" lon="5.95039">
        <ele>2614.3</ele>
        <time>2021-02-20T10:57:28Z</time>
      </trkpt>
      <trkpt lat="45.17103" lon="5.9504">
        <ele>2614.3</ele>
        <time>2021-02-20T10:57:29Z</time>
      </trkpt>
      <trkpt lat="45.17103" lon="5.9504">
        <ele>2614.3</ele>
        <time>2021-02-20T10:57:30Z</time>
      </trkpt>
      <trkpt lat="45.17102" lon="5.95041">
        <ele>2613.4</ele>
        <time>2021-02-20T10:57:31Z</time>
      </trkpt>
      <trkpt lat="45.17102" lon="5.95041">
        <ele>2613.4</ele>
        <time>2021-02-20T10:57:32Z</time>
      </trkpt>
      <trkpt lat="45.17102" lon="5.95043">
        <ele>2613.4</ele>
        <time>2021-02-20T10:57:33Z</time>
      </trkpt>
      <trkpt lat="45.17102" lon="5.95044">
        <ele>2615.3</ele>
        <time>2021-02-20T10:57:34Z</time>
      </trkpt>
      <trkpt lat="45.17102" lon="5.95045">
        <ele>2615.3</ele>
        <time>2021-02-20T10:57:35Z</time>
      </trkpt>
      <trkpt lat="45.17102" lon="5.95046">
        <ele>2615.3</ele>
        <time>2021-02-20T10:57:36Z</time>
      </trkpt>
      <trkpt lat="45.17102" lon="5.95046">
        <ele>2615.3</ele>
        <time>2021-02-20T10:57:37Z</time>
      </trkpt>
      <trkpt lat="45.17102" lon="5.95047">
        <ele>2615.3</ele>
        <time>2021-02-20T10:57:38Z</time>
      </trkpt>
      <trkpt lat="45.17101" lon="5.95047">
        <ele>2617</ele>
        <time>2021-02-20T10:57:39Z</time>
      </trkpt>
      <trkpt lat="45.17101" lon="5.95048">
        <ele>2617</ele>
        <time>2021-02-20T10:57:40Z</time>
      </trkpt>
      <trkpt lat="45.17101" lon="5.95049">
        <ele>2617</ele>
        <time>2021-02-20T10:57:41Z</time>
      </trkpt>
      <trkpt lat="45.17101" lon="5.95049">
        <ele>2617</ele>
        <time>2021-02-20T10:57:42Z</time>
      </trkpt>
      <trkpt lat="45.17101" lon="5.95049">
        <ele>2617</ele>
        <time>2021-02-20T10:57:43Z</time>
      </trkpt>
      <trkpt lat="45.17101" lon="5.95049">
        <ele>2617</ele>
        <time>2021-02-20T10:57:44Z</time>
      </trkpt>
      <trkpt lat="45.17101" lon="5.95049">
        <ele>2617</ele>
        <time>2021-02-20T10:57:45Z</time>
      </trkpt>
      <trkpt lat="45.17101" lon="5.95049">
        <ele>2617</ele>
        <time>2021-02-20T10:57:46Z</time>
      </trkpt>
      <trkpt lat="45.17101" lon="5.95049">
        <ele>2617</ele>
        <time>2021-02-20T10:57:47Z</time>
      </trkpt>
      <trkpt lat="45.17101" lon="5.95049">
        <ele>2617</ele>
        <time>2021-02-20T10:57:48Z</time>
      </trkpt>
      <trkpt lat="45.17101" lon="5.95048">
        <ele>2617</ele>
        <time>2021-02-20T10:57:49Z</time>
      </trkpt>
      <trkpt lat="45.17101" lon="5.95048">
        <ele>2617</ele>
        <time>2021-02-20T10:57:50Z</time>
      </trkpt>
      <trkpt lat="45.17101" lon="5.95048">
        <ele>2617</ele>
        <time>2021-02-20T10:57:51Z</time>
      </trkpt>
      <trkpt lat="45.17101" lon="5.95048">
        <ele>2617</ele>
        <time>2021-02-20T10:57:52Z</time>
      </trkpt>
      <trkpt lat="45.17101" lon="5.95048">
        <ele>2617</ele>
        <time>2021-02-20T10:57:53Z</time>
      </trkpt>
      <trkpt lat="45.17101" lon="5.95048">
        <ele>2617</ele>
        <time>2021-02-20T10:57:54Z</time>
      </trkpt>
      <trkpt lat="45.17102" lon="5.95048">
        <ele>2617</ele>
        <time>2021-02-20T10:57:55Z</time>
      </trkpt>
      <trkpt lat="45.17102" lon="5.95049">
        <ele>2617</ele>
        <time>2021-02-20T10:57:56Z</time>
      </trkpt>
      <trkpt lat="45.17102" lon="5.95049">
        <ele>2617</ele>
        <time>2021-02-20T10:57:57Z</time>
      </trkpt>
      <trkpt lat="45.17102" lon="5.95049">
        <ele>2617</ele>
        <time>2021-02-20T10:57:58Z</time>
      </trkpt>
      <trkpt lat="45.17102" lon="5.9505">
        <ele>2617</ele>
        <time>2021-02-20T10:57:59Z</time>
      </trkpt>
      <trkpt lat="45.17102" lon="5.95051">
        <ele>2617</ele>
        <time>2021-02-20T10:58:00Z</time>
      </trkpt>
      <trkpt lat="45.17102" lon="5.95052">
        <ele>2618.6</ele>
        <time>2021-02-20T10:58:01Z</time>
      </trkpt>
      <trkpt lat="45.17102" lon="5.95053">
        <ele>2618.6</ele>
        <time>2021-02-20T10:58:02Z</time>
      </trkpt>
      <trkpt lat="45.17102" lon="5.95053">
        <ele>2618.6</ele>
        <time>2021-02-20T10:58:03Z</time>
      </trkpt>
      <trkpt lat="45.17102" lon="5.95054">
        <ele>2618.6</ele>
        <time>2021-02-20T10:58:04Z</time>
      </trkpt>
      <trkpt lat="45.17102" lon="5.95054">
        <ele>2618.6</ele>
        <time>2021-02-20T10:58:05Z</time>
      </trkpt>
      <trkpt lat="45.17102" lon="5.95055">
        <ele>2618.6</ele>
        <time>2021-02-20T10:58:06Z</time>
      </trkpt>
      <trkpt lat="45.17102" lon="5.95055">
        <ele>2618.6</ele>
        <time>2021-02-20T10:58:07Z</time>
      </trkpt>
      <trkpt lat="45.17102" lon="5.95056">
        <ele>2620.1</ele>
        <time>2021-02-20T10:58:08Z</time>
      </trkpt>
      <trkpt lat="45.17101" lon="5.95057">
        <ele>2620.1</ele>
        <time>2021-02-20T10:58:09Z</time>
      </trkpt>
      <trkpt lat="45.17101" lon="5.95057">
        <ele>2620.1</ele>
        <time>2021-02-20T10:58:10Z</time>
      </trkpt>
      <trkpt lat="45.17101" lon="5.95057">
        <ele>2620.1</ele>
        <time>2021-02-20T10:58:11Z</time>
      </trkpt>
      <trkpt lat="45.17101" lon="5.95059">
        <ele>2620.1</ele>
        <time>2021-02-20T10:58:12Z</time>
      </trkpt>
      <trkpt lat="45.17101" lon="5.95059">
        <ele>2620.1</ele>
        <time>2021-02-20T10:58:13Z</time>
      </trkpt>
      <trkpt lat="45.171" lon="5.9506">
        <ele>2621.5</ele>
        <time>2021-02-20T10:58:14Z</time>
      </trkpt>
      <trkpt lat="45.171" lon="5.95061">
        <ele>2621.5</ele>
        <time>2021-02-20T10:58:15Z</time>
      </trkpt>
      <trkpt lat="45.171" lon="5.95062">
        <ele>2621.5</ele>
        <time>2021-02-20T10:58:16Z</time>
      </trkpt>
      <trkpt lat="45.171" lon="5.95063">
        <ele>2621.5</ele>
        <time>2021-02-20T10:58:17Z</time>
      </trkpt>
      <trkpt lat="45.171" lon="5.95064">
        <ele>2622.9</ele>
        <time>2021-02-20T10:58:18Z</time>
      </trkpt>
      <trkpt lat="45.17099" lon="5.95066">
        <ele>2621.8</ele>
        <time>2021-02-20T10:58:19Z</time>
      </trkpt>
      <trkpt lat="45.17099" lon="5.95066">
        <ele>2621.8</ele>
        <time>2021-02-20T10:58:20Z</time>
      </trkpt>
      <trkpt lat="45.17099" lon="5.95067">
        <ele>2621.8</ele>
        <time>2021-02-20T10:58:21Z</time>
      </trkpt>
      <trkpt lat="45.17098" lon="5.95068">
        <ele>2621.8</ele>
        <time>2021-02-20T10:58:22Z</time>
      </trkpt>
      <trkpt lat="45.17098" lon="5.95068">
        <ele>2621.8</ele>
        <time>2021-02-20T10:58:23Z</time>
      </trkpt>
      <trkpt lat="45.17098" lon="5.95069">
        <ele>2623.1</ele>
        <time>2021-02-20T10:58:24Z</time>
      </trkpt>
      <trkpt lat="45.17098" lon="5.95069">
        <ele>2623.1</ele>
        <time>2021-02-20T10:58:25Z</time>
      </trkpt>
      <trkpt lat="45.17098" lon="5.9507">
        <ele>2623.1</ele>
        <time>2021-02-20T10:58:26Z</time>
      </trkpt>
      <trkpt lat="45.17098" lon="5.9507">
        <ele>2623.1</ele>
        <time>2021-02-20T10:58:27Z</time>
      </trkpt>
      <trkpt lat="45.17097" lon="5.95071">
        <ele>2623.1</ele>
        <time>2021-02-20T10:58:28Z</time>
      </trkpt>
      <trkpt lat="45.17097" lon="5.95071">
        <ele>2623.1</ele>
        <time>2021-02-20T10:58:29Z</time>
      </trkpt>
      <trkpt lat="45.17097" lon="5.95072">
        <ele>2623.1</ele>
        <time>2021-02-20T10:58:30Z</time>
      </trkpt>
      <trkpt lat="45.17097" lon="5.95073">
        <ele>2624.3</ele>
        <time>2021-02-20T10:58:31Z</time>
      </trkpt>
      <trkpt lat="45.17097" lon="5.95074">
        <ele>2624.3</ele>
        <time>2021-02-20T10:58:32Z</time>
      </trkpt>
      <trkpt lat="45.17097" lon="5.95074">
        <ele>2624.3</ele>
        <time>2021-02-20T10:58:33Z</time>
      </trkpt>
      <trkpt lat="45.17097" lon="5.95076">
        <ele>2624.3</ele>
        <time>2021-02-20T10:58:34Z</time>
      </trkpt>
      <trkpt lat="45.17097" lon="5.95076">
        <ele>2624.3</ele>
        <time>2021-02-20T10:58:35Z</time>
      </trkpt>
      <trkpt lat="45.17097" lon="5.95076">
        <ele>2624.3</ele>
        <time>2021-02-20T10:58:36Z</time>
      </trkpt>
      <trkpt lat="45.17097" lon="5.95076">
        <ele>2624.3</ele>
        <time>2021-02-20T10:58:37Z</time>
      </trkpt>
      <trkpt lat="45.17097" lon="5.95076">
        <ele>2624.3</ele>
        <time>2021-02-20T10:58:38Z</time>
      </trkpt>
      <trkpt lat="45.17097" lon="5.95076">
        <ele>2624.3</ele>
        <time>2021-02-20T10:58:39Z</time>
      </trkpt>
      <trkpt lat="45.17097" lon="5.95076">
        <ele>2624.3</ele>
        <time>2021-02-20T10:58:40Z</time>
      </trkpt>
      <trkpt lat="45.17097" lon="5.95076">
        <ele>2624.3</ele>
        <time>2021-02-20T10:58:41Z</time>
      </trkpt>
      <trkpt lat="45.17097" lon="5.95078">
        <ele>2625.4</ele>
        <time>2021-02-20T10:58:42Z</time>
      </trkpt>
      <trkpt lat="45.17097" lon="5.95078">
        <ele>2625.4</ele>
        <time>2021-02-20T10:58:43Z</time>
      </trkpt>
      <trkpt lat="45.17097" lon="5.95078">
        <ele>2625.4</ele>
        <time>2021-02-20T10:58:44Z</time>
      </trkpt>
      <trkpt lat="45.17097" lon="5.95078">
        <ele>2625.4</ele>
        <time>2021-02-20T10:58:45Z</time>
      </trkpt>
      <trkpt lat="45.17097" lon="5.95078">
        <ele>2625.4</ele>
        <time>2021-02-20T10:58:46Z</time>
      </trkpt>
      <trkpt lat="45.17097" lon="5.95079">
        <ele>2625.4</ele>
        <time>2021-02-20T10:58:47Z</time>
      </trkpt>
      <trkpt lat="45.17097" lon="5.95079">
        <ele>2625.4</ele>
        <time>2021-02-20T10:58:48Z</time>
      </trkpt>
      <trkpt lat="45.17097" lon="5.95079">
        <ele>2625.4</ele>
        <time>2021-02-20T10:58:49Z</time>
      </trkpt>
      <trkpt lat="45.17097" lon="5.95079">
        <ele>2625.4</ele>
        <time>2021-02-20T10:58:50Z</time>
      </trkpt>
      <trkpt lat="45.17097" lon="5.95079">
        <ele>2625.4</ele>
        <time>2021-02-20T10:58:51Z</time>
      </trkpt>
      <trkpt lat="45.17096" lon="5.95079">
        <ele>2624.2</ele>
        <time>2021-02-20T10:58:52Z</time>
      </trkpt>
      <trkpt lat="45.17096" lon="5.95079">
        <ele>2624.2</ele>
        <time>2021-02-20T10:58:53Z</time>
      </trkpt>
      <trkpt lat="45.17096" lon="5.95079">
        <ele>2624.2</ele>
        <time>2021-02-20T10:58:54Z</time>
      </trkpt>
      <trkpt lat="45.17097" lon="5.95079">
        <ele>2625.4</ele>
        <time>2021-02-20T10:58:55Z</time>
      </trkpt>
      <trkpt lat="45.17096" lon="5.9508">
        <ele>2624.2</ele>
        <time>2021-02-20T10:58:56Z</time>
      </trkpt>
      <trkpt lat="45.17096" lon="5.9508">
        <ele>2624.2</ele>
        <time>2021-02-20T10:58:57Z</time>
      </trkpt>
      <trkpt lat="45.17096" lon="5.9508">
        <ele>2624.2</ele>
        <time>2021-02-20T10:58:58Z</time>
      </trkpt>
      <trkpt lat="45.17096" lon="5.9508">
        <ele>2624.2</ele>
        <time>2021-02-20T10:58:59Z</time>
      </trkpt>
      <trkpt lat="45.17096" lon="5.9508">
        <ele>2624.2</ele>
        <time>2021-02-20T10:59:00Z</time>
      </trkpt>
      <trkpt lat="45.17096" lon="5.9508">
        <ele>2624.2</ele>
        <time>2021-02-20T10:59:01Z</time>
      </trkpt>
      <trkpt lat="45.17095" lon="5.9508">
        <ele>2624.2</ele>
        <time>2021-02-20T10:59:02Z</time>
      </trkpt>
      <trkpt lat="45.17094" lon="5.9508">
        <ele>2624.2</ele>
        <time>2021-02-20T10:59:03Z</time>
      </trkpt>
      <trkpt lat="45.17093" lon="5.95079">
        <ele>2622.8</ele>
        <time>2021-02-20T10:59:04Z</time>
      </trkpt>
      <trkpt lat="45.17093" lon="5.95079">
        <ele>2622.8</ele>
        <time>2021-02-20T10:59:05Z</time>
      </trkpt>
      <trkpt lat="45.17093" lon="5.95079">
        <ele>2622.8</ele>
        <time>2021-02-20T10:59:06Z</time>
      </trkpt>
      <trkpt lat="45.17094" lon="5.9508">
        <ele>2624.2</ele>
        <time>2021-02-20T10:59:07Z</time>
      </trkpt>
      <trkpt lat="45.17094" lon="5.95079">
        <ele>2624.2</ele>
        <time>2021-02-20T10:59:08Z</time>
      </trkpt>
      <trkpt lat="45.17095" lon="5.95079">
        <ele>2624.2</ele>
        <time>2021-02-20T10:59:09Z</time>
      </trkpt>
      <trkpt lat="45.17096" lon="5.95078">
        <ele>2624.2</ele>
        <time>2021-02-20T10:59:10Z</time>
      </trkpt>
      <trkpt lat="45.17097" lon="5.95078">
        <ele>2625.4</ele>
        <time>2021-02-20T10:59:11Z</time>
      </trkpt>
      <trkpt lat="45.17098" lon="5.95078">
        <ele>2625.4</ele>
        <time>2021-02-20T10:59:12Z</time>
      </trkpt>
      <trkpt lat="45.17098" lon="5.95078">
        <ele>2625.4</ele>
        <time>2021-02-20T10:59:13Z</time>
      </trkpt>
      <trkpt lat="45.17099" lon="5.95078">
        <ele>2625.4</ele>
        <time>2021-02-20T10:59:14Z</time>
      </trkpt>
      <trkpt lat="45.17101" lon="5.95078">
        <ele>2626.6</ele>
        <time>2021-02-20T10:59:15Z</time>
      </trkpt>
      <trkpt lat="45.17102" lon="5.95078">
        <ele>2626.6</ele>
        <time>2021-02-20T10:59:16Z</time>
      </trkpt>
      <trkpt lat="45.17103" lon="5.95077">
        <ele>2627.6</ele>
        <time>2021-02-20T10:59:17Z</time>
      </trkpt>
      <trkpt lat="45.17103" lon="5.95077">
        <ele>2626.4</ele>
        <time>2021-02-20T10:59:18Z</time>
      </trkpt>
      <trkpt lat="45.17104" lon="5.95077">
        <ele>2626.4</ele>
        <time>2021-02-20T10:59:19Z</time>
      </trkpt>
      <trkpt lat="45.17104" lon="5.95077">
        <ele>2626.4</ele>
        <time>2021-02-20T10:59:20Z</time>
      </trkpt>
      <trkpt lat="45.17104" lon="5.95077">
        <ele>2626.4</ele>
        <time>2021-02-20T10:59:21Z</time>
      </trkpt>
      <trkpt lat="45.17104" lon="5.95077">
        <ele>2626.4</ele>
        <time>2021-02-20T10:59:22Z</time>
      </trkpt>
      <trkpt lat="45.17105" lon="5.95076">
        <ele>2626.4</ele>
        <time>2021-02-20T10:59:23Z</time>
      </trkpt>
      <trkpt lat="45.17105" lon="5.95076">
        <ele>2626.4</ele>
        <time>2021-02-20T10:59:24Z</time>
      </trkpt>
      <trkpt lat="45.17104" lon="5.95076">
        <ele>2626.4</ele>
        <time>2021-02-20T10:59:25Z</time>
      </trkpt>
      <trkpt lat="45.17104" lon="5.95076">
        <ele>2626.4</ele>
        <time>2021-02-20T10:59:26Z</time>
      </trkpt>
      <trkpt lat="45.17105" lon="5.95076">
        <ele>2626.4</ele>
        <time>2021-02-20T10:59:27Z</time>
      </trkpt>
      <trkpt lat="45.17105" lon="5.95077">
        <ele>2626.4</ele>
        <time>2021-02-20T10:59:28Z</time>
      </trkpt>
      <trkpt lat="45.17106" lon="5.95077">
        <ele>2627.3</ele>
        <time>2021-02-20T10:59:29Z</time>
      </trkpt>
      <trkpt lat="45.17106" lon="5.95076">
        <ele>2627.3</ele>
        <time>2021-02-20T10:59:30Z</time>
      </trkpt>
      <trkpt lat="45.17107" lon="5.95076">
        <ele>2627.3</ele>
        <time>2021-02-20T10:59:31Z</time>
      </trkpt>
      <trkpt lat="45.17108" lon="5.95076">
        <ele>2627.3</ele>
        <time>2021-02-20T10:59:32Z</time>
      </trkpt>
      <trkpt lat="45.17108" lon="5.95075">
        <ele>2627.3</ele>
        <time>2021-02-20T10:59:33Z</time>
      </trkpt>
      <trkpt lat="45.17109" lon="5.95075">
        <ele>2628.1</ele>
        <time>2021-02-20T10:59:34Z</time>
      </trkpt>
      <trkpt lat="45.1711" lon="5.95075">
        <ele>2628.1</ele>
        <time>2021-02-20T10:59:35Z</time>
      </trkpt>
      <trkpt lat="45.17111" lon="5.95074">
        <ele>2628.1</ele>
        <time>2021-02-20T10:59:36Z</time>
      </trkpt>
      <trkpt lat="45.17111" lon="5.95074">
        <ele>2628.1</ele>
        <time>2021-02-20T10:59:37Z</time>
      </trkpt>
      <trkpt lat="45.17111" lon="5.95073">
        <ele>2628.1</ele>
        <time>2021-02-20T10:59:38Z</time>
      </trkpt>
      <trkpt lat="45.17112" lon="5.95073">
        <ele>2628.7</ele>
        <time>2021-02-20T10:59:39Z</time>
      </trkpt>
      <trkpt lat="45.17113" lon="5.95073">
        <ele>2628.7</ele>
        <time>2021-02-20T10:59:40Z</time>
      </trkpt>
      <trkpt lat="45.17113" lon="5.95073">
        <ele>2628.7</ele>
        <time>2021-02-20T10:59:41Z</time>
      </trkpt>
      <trkpt lat="45.17114" lon="5.95073">
        <ele>2628.7</ele>
        <time>2021-02-20T10:59:42Z</time>
      </trkpt>
      <trkpt lat="45.17114" lon="5.95073">
        <ele>2627.5</ele>
        <time>2021-02-20T10:59:43Z</time>
      </trkpt>
      <trkpt lat="45.17114" lon="5.95073">
        <ele>2627.5</ele>
        <time>2021-02-20T10:59:44Z</time>
      </trkpt>
      <trkpt lat="45.17114" lon="5.95073">
        <ele>2627.5</ele>
        <time>2021-02-20T10:59:45Z</time>
      </trkpt>
      <trkpt lat="45.17114" lon="5.95073">
        <ele>2627.5</ele>
        <time>2021-02-20T10:59:46Z</time>
      </trkpt>
      <trkpt lat="45.17114" lon="5.95073">
        <ele>2627.5</ele>
        <time>2021-02-20T10:59:47Z</time>
      </trkpt>
      <trkpt lat="45.17114" lon="5.95072">
        <ele>2627.5</ele>
        <time>2021-02-20T10:59:48Z</time>
      </trkpt>
      <trkpt lat="45.17114" lon="5.95072">
        <ele>2627.5</ele>
        <time>2021-02-20T10:59:49Z</time>
      </trkpt>
      <trkpt lat="45.17114" lon="5.95072">
        <ele>2627.5</ele>
        <time>2021-02-20T10:59:50Z</time>
      </trkpt>
      <trkpt lat="45.17114" lon="5.95072">
        <ele>2627.5</ele>
        <time>2021-02-20T10:59:51Z</time>
      </trkpt>
      <trkpt lat="45.17114" lon="5.95072">
        <ele>2627.5</ele>
        <time>2021-02-20T10:59:52Z</time>
      </trkpt>
      <trkpt lat="45.17114" lon="5.95072">
        <ele>2627.5</ele>
        <time>2021-02-20T10:59:53Z</time>
      </trkpt>
      <trkpt lat="45.17114" lon="5.95072">
        <ele>2627.5</ele>
        <time>2021-02-20T10:59:54Z</time>
      </trkpt>
      <trkpt lat="45.17114" lon="5.95072">
        <ele>2627.5</ele>
        <time>2021-02-20T10:59:55Z</time>
      </trkpt>
      <trkpt lat="45.17114" lon="5.95072">
        <ele>2627.5</ele>
        <time>2021-02-20T10:59:56Z</time>
      </trkpt>
      <trkpt lat="45.17114" lon="5.95072">
        <ele>2627.5</ele>
        <time>2021-02-20T10:59:57Z</time>
      </trkpt>
      <trkpt lat="45.17114" lon="5.95072">
        <ele>2627.5</ele>
        <time>2021-02-20T10:59:58Z</time>
      </trkpt>
      <trkpt lat="45.17114" lon="5.95072">
        <ele>2627.5</ele>
        <time>2021-02-20T10:59:59Z</time>
      </trkpt>
      <trkpt lat="45.17114" lon="5.95072">
        <ele>2627.5</ele>
        <time>2021-02-20T11:00:00Z</time>
      </trkpt>
      <trkpt lat="45.17114" lon="5.95072">
        <ele>2627.5</ele>
        <time>2021-02-20T11:00:01Z</time>
      </trkpt>
      <trkpt lat="45.17114" lon="5.95072">
        <ele>2627.5</ele>
        <time>2021-02-20T11:00:02Z</time>
      </trkpt>
      <trkpt lat="45.17114" lon="5.95072">
        <ele>2627.5</ele>
        <time>2021-02-20T11:00:03Z</time>
      </trkpt>
      <trkpt lat="45.17114" lon="5.95072">
        <ele>2627.5</ele>
        <time>2021-02-20T11:00:04Z</time>
      </trkpt>
      <trkpt lat="45.17114" lon="5.95072">
        <ele>2627.5</ele>
        <time>2021-02-20T11:00:05Z</time>
      </trkpt>
      <trkpt lat="45.17114" lon="5.95072">
        <ele>2627.5</ele>
        <time>2021-02-20T11:00:06Z</time>
      </trkpt>
      <trkpt lat="45.17113" lon="5.95074">
        <ele>2628.7</ele>
        <time>2021-02-20T11:00:07Z</time>
      </trkpt>
      <trkpt lat="45.17113" lon="5.95074">
        <ele>2628.7</ele>
        <time>2021-02-20T11:00:08Z</time>
      </trkpt>
      <trkpt lat="45.17113" lon="5.95073">
        <ele>2628.7</ele>
        <time>2021-02-20T11:00:09Z</time>
      </trkpt>
      <trkpt lat="45.17114" lon="5.95073">
        <ele>2628.7</ele>
        <time>2021-02-20T11:00:10Z</time>
      </trkpt>
      <trkpt lat="45.17114" lon="5.95072">
        <ele>2627.5</ele>
        <time>2021-02-20T11:00:11Z</time>
      </trkpt>
      <trkpt lat="45.17115" lon="5.95072">
        <ele>2627.5</ele>
        <time>2021-02-20T11:00:12Z</time>
      </trkpt>
      <trkpt lat="45.17115" lon="5.95073">
        <ele>2628</ele>
        <time>2021-02-20T11:00:13Z</time>
      </trkpt>
      <trkpt lat="45.17115" lon="5.95073">
        <ele>2628</ele>
        <time>2021-02-20T11:00:14Z</time>
      </trkpt>
      <trkpt lat="45.17115" lon="5.95074">
        <ele>2629.2</ele>
        <time>2021-02-20T11:00:15Z</time>
      </trkpt>
      <trkpt lat="45.17115" lon="5.95074">
        <ele>2629.2</ele>
        <time>2021-02-20T11:00:16Z</time>
      </trkpt>
      <trkpt lat="45.17115" lon="5.95074">
        <ele>2629.2</ele>
        <time>2021-02-20T11:00:17Z</time>
      </trkpt>
      <trkpt lat="45.17116" lon="5.95075">
        <ele>2629.2</ele>
        <time>2021-02-20T11:00:18Z</time>
      </trkpt>
      <trkpt lat="45.17116" lon="5.95075">
        <ele>2629.2</ele>
        <time>2021-02-20T11:00:19Z</time>
      </trkpt>
      <trkpt lat="45.17117" lon="5.95075">
        <ele>2629.2</ele>
        <time>2021-02-20T11:00:20Z</time>
      </trkpt>
      <trkpt lat="45.17117" lon="5.95076">
        <ele>2629.2</ele>
        <time>2021-02-20T11:00:21Z</time>
      </trkpt>
      <trkpt lat="45.17118" lon="5.95075">
        <ele>2629.6</ele>
        <time>2021-02-20T11:00:22Z</time>
      </trkpt>
      <trkpt lat="45.17119" lon="5.95075">
        <ele>2629.6</ele>
        <time>2021-02-20T11:00:23Z</time>
      </trkpt>
      <trkpt lat="45.1712" lon="5.95075">
        <ele>2629.6</ele>
        <time>2021-02-20T11:00:24Z</time>
      </trkpt>
      <trkpt lat="45.1712" lon="5.95074">
        <ele>2629.6</ele>
        <time>2021-02-20T11:00:25Z</time>
      </trkpt>
      <trkpt lat="45.1712" lon="5.95074">
        <ele>2629.6</ele>
        <time>2021-02-20T11:00:26Z</time>
      </trkpt>
      <trkpt lat="45.1712" lon="5.95074">
        <ele>2629.6</ele>
        <time>2021-02-20T11:00:27Z</time>
      </trkpt>
      <trkpt lat="45.1712" lon="5.95074">
        <ele>2629.6</ele>
        <time>2021-02-20T11:00:28Z</time>
      </trkpt>
      <trkpt lat="45.1712" lon="5.95074">
        <ele>2629.6</ele>
        <time>2021-02-20T11:00:29Z</time>
      </trkpt>
      <trkpt lat="45.17121" lon="5.95075">
        <ele>2629.8</ele>
        <time>2021-02-20T11:00:30Z</time>
      </trkpt>
      <trkpt lat="45.17122" lon="5.95075">
        <ele>2629.8</ele>
        <time>2021-02-20T11:00:31Z</time>
      </trkpt>
      <trkpt lat="45.17122" lon="5.95075">
        <ele>2629.8</ele>
        <time>2021-02-20T11:00:32Z</time>
      </trkpt>
      <trkpt lat="45.17123" lon="5.95074">
        <ele>2629.8</ele>
        <time>2021-02-20T11:00:33Z</time>
      </trkpt>
      <trkpt lat="45.17123" lon="5.95073">
        <ele>2629.8</ele>
        <time>2021-02-20T11:00:34Z</time>
      </trkpt>
      <trkpt lat="45.17124" lon="5.95073">
        <ele>2629.8</ele>
        <time>2021-02-20T11:00:35Z</time>
      </trkpt>
      <trkpt lat="45.17124" lon="5.95073">
        <ele>2629.8</ele>
        <time>2021-02-20T11:00:36Z</time>
      </trkpt>
      <trkpt lat="45.17125" lon="5.95073">
        <ele>2629.8</ele>
        <time>2021-02-20T11:00:37Z</time>
      </trkpt>
      <trkpt lat="45.17125" lon="5.95072">
        <ele>2628.6</ele>
        <time>2021-02-20T11:00:38Z</time>
      </trkpt>
      <trkpt lat="45.17126" lon="5.95072">
        <ele>2628.6</ele>
        <time>2021-02-20T11:00:39Z</time>
      </trkpt>
      <trkpt lat="45.17126" lon="5.95072">
        <ele>2628.6</ele>
        <time>2021-02-20T11:00:40Z</time>
      </trkpt>
      <trkpt lat="45.17126" lon="5.95071">
        <ele>2628.6</ele>
        <time>2021-02-20T11:00:41Z</time>
      </trkpt>
      <trkpt lat="45.17127" lon="5.95069">
        <ele>2628.5</ele>
        <time>2021-02-20T11:00:42Z</time>
      </trkpt>
      <trkpt lat="45.17128" lon="5.95066">
        <ele>2627.1</ele>
        <time>2021-02-20T11:00:43Z</time>
      </trkpt>
      <trkpt lat="45.17128" lon="5.95065">
        <ele>2627.1</ele>
        <time>2021-02-20T11:00:44Z</time>
      </trkpt>
      <trkpt lat="45.17129" lon="5.95064">
        <ele>2627.1</ele>
        <time>2021-02-20T11:00:45Z</time>
      </trkpt>
      <trkpt lat="45.17129" lon="5.95063">
        <ele>2625.7</ele>
        <time>2021-02-20T11:00:46Z</time>
      </trkpt>
      <trkpt lat="45.17129" lon="5.95062">
        <ele>2625.7</ele>
        <time>2021-02-20T11:00:47Z</time>
      </trkpt>
      <trkpt lat="45.1713" lon="5.95061">
        <ele>2625.7</ele>
        <time>2021-02-20T11:00:48Z</time>
      </trkpt>
      <trkpt lat="45.1713" lon="5.9506">
        <ele>2625.4</ele>
        <time>2021-02-20T11:00:49Z</time>
      </trkpt>
      <trkpt lat="45.1713" lon="5.95059">
        <ele>2623.9</ele>
        <time>2021-02-20T11:00:50Z</time>
      </trkpt>
      <trkpt lat="45.1713" lon="5.95059">
        <ele>2623.9</ele>
        <time>2021-02-20T11:00:51Z</time>
      </trkpt>
      <trkpt lat="45.1713" lon="5.95059">
        <ele>2623.9</ele>
        <time>2021-02-20T11:00:52Z</time>
      </trkpt>
      <trkpt lat="45.1713" lon="5.95059">
        <ele>2623.9</ele>
        <time>2021-02-20T11:00:53Z</time>
      </trkpt>
      <trkpt lat="45.1713" lon="5.95059">
        <ele>2623.9</ele>
        <time>2021-02-20T11:00:54Z</time>
      </trkpt>
      <trkpt lat="45.1713" lon="5.95059">
        <ele>2623.9</ele>
        <time>2021-02-20T11:00:55Z</time>
      </trkpt>
      <trkpt lat="45.1713" lon="5.95059">
        <ele>2623.9</ele>
        <time>2021-02-20T11:00:56Z</time>
      </trkpt>
      <trkpt lat="45.1713" lon="5.95059">
        <ele>2623.9</ele>
        <time>2021-02-20T11:00:57Z</time>
      </trkpt>
      <trkpt lat="45.1713" lon="5.95059">
        <ele>2623.9</ele>
        <time>2021-02-20T11:00:58Z</time>
      </trkpt>
      <trkpt lat="45.17131" lon="5.95057">
        <ele>2623.9</ele>
        <time>2021-02-20T11:00:59Z</time>
      </trkpt>
      <trkpt lat="45.17132" lon="5.95057">
        <ele>2623.9</ele>
        <time>2021-02-20T11:01:00Z</time>
      </trkpt>
      <trkpt lat="45.17132" lon="5.95057">
        <ele>2623.9</ele>
        <time>2021-02-20T11:01:01Z</time>
      </trkpt>
      <trkpt lat="45.17132" lon="5.95057">
        <ele>2623.9</ele>
        <time>2021-02-20T11:01:02Z</time>
      </trkpt>
      <trkpt lat="45.17132" lon="5.95057">
        <ele>2623.9</ele>
        <time>2021-02-20T11:01:03Z</time>
      </trkpt>
      <trkpt lat="45.17132" lon="5.95057">
        <ele>2623.9</ele>
        <time>2021-02-20T11:01:04Z</time>
      </trkpt>
      <trkpt lat="45.17132" lon="5.95057">
        <ele>2623.9</ele>
        <time>2021-02-20T11:01:05Z</time>
      </trkpt>
      <trkpt lat="45.17132" lon="5.95057">
        <ele>2623.9</ele>
        <time>2021-02-20T11:01:06Z</time>
      </trkpt>
      <trkpt lat="45.17132" lon="5.95057">
        <ele>2623.9</ele>
        <time>2021-02-20T11:01:07Z</time>
      </trkpt>
      <trkpt lat="45.17132" lon="5.95057">
        <ele>2623.9</ele>
        <time>2021-02-20T11:01:08Z</time>
      </trkpt>
      <trkpt lat="45.17132" lon="5.95057">
        <ele>2623.9</ele>
        <time>2021-02-20T11:01:09Z</time>
      </trkpt>
      <trkpt lat="45.17132" lon="5.95057">
        <ele>2623.9</ele>
        <time>2021-02-20T11:01:10Z</time>
      </trkpt>
      <trkpt lat="45.17131" lon="5.95056">
        <ele>2623.9</ele>
        <time>2021-02-20T11:01:11Z</time>
      </trkpt>
      <trkpt lat="45.17131" lon="5.95056">
        <ele>2623.9</ele>
        <time>2021-02-20T11:01:12Z</time>
      </trkpt>
      <trkpt lat="45.17131" lon="5.95056">
        <ele>2623.9</ele>
        <time>2021-02-20T11:01:13Z</time>
      </trkpt>
      <trkpt lat="45.17131" lon="5.95056">
        <ele>2623.9</ele>
        <time>2021-02-20T11:01:14Z</time>
      </trkpt>
      <trkpt lat="45.17131" lon="5.95056">
        <ele>2623.9</ele>
        <time>2021-02-20T11:01:15Z</time>
      </trkpt>
      <trkpt lat="45.17132" lon="5.95055">
        <ele>2622.2</ele>
        <time>2021-02-20T11:01:16Z</time>
      </trkpt>
      <trkpt lat="45.17132" lon="5.95055">
        <ele>2622.2</ele>
        <time>2021-02-20T11:01:17Z</time>
      </trkpt>
      <trkpt lat="45.17132" lon="5.95056">
        <ele>2622.2</ele>
        <time>2021-02-20T11:01:18Z</time>
      </trkpt>
      <trkpt lat="45.17133" lon="5.95056">
        <ele>2623.5</ele>
        <time>2021-02-20T11:01:19Z</time>
      </trkpt>
      <trkpt lat="45.17134" lon="5.95056">
        <ele>2621.8</ele>
        <time>2021-02-20T11:01:20Z</time>
      </trkpt>
      <trkpt lat="45.17135" lon="5.95055">
        <ele>2621.8</ele>
        <time>2021-02-20T11:01:21Z</time>
      </trkpt>
      <trkpt lat="45.17135" lon="5.95054">
        <ele>2621.8</ele>
        <time>2021-02-20T11:01:22Z</time>
      </trkpt>
      <trkpt lat="45.17136" lon="5.95054">
        <ele>2621.2</ele>
        <time>2021-02-20T11:01:23Z</time>
      </trkpt>
      <trkpt lat="45.17137" lon="5.95054">
        <ele>2621.2</ele>
        <time>2021-02-20T11:01:24Z</time>
      </trkpt>
      <trkpt lat="45.17137" lon="5.95054">
        <ele>2621.2</ele>
        <time>2021-02-20T11:01:25Z</time>
      </trkpt>
      <trkpt lat="45.17137" lon="5.95054">
        <ele>2621.2</ele>
        <time>2021-02-20T11:01:26Z</time>
      </trkpt>
      <trkpt lat="45.17137" lon="5.95055">
        <ele>2621.2</ele>
        <time>2021-02-20T11:01:27Z</time>
      </trkpt>
      <trkpt lat="45.17137" lon="5.95055">
        <ele>2621.2</ele>
        <time>2021-02-20T11:01:28Z</time>
      </trkpt>
      <trkpt lat="45.17138" lon="5.95055">
        <ele>2621.2</ele>
        <time>2021-02-20T11:01:29Z</time>
      </trkpt>
      <trkpt lat="45.17138" lon="5.95054">
        <ele>2621.2</ele>
        <time>2021-02-20T11:01:30Z</time>
      </trkpt>
      <trkpt lat="45.17138" lon="5.95053">
        <ele>2621.2</ele>
        <time>2021-02-20T11:01:31Z</time>
      </trkpt>
      <trkpt lat="45.17138" lon="5.95053">
        <ele>2621.2</ele>
        <time>2021-02-20T11:01:32Z</time>
      </trkpt>
      <trkpt lat="45.17138" lon="5.95053">
        <ele>2621.2</ele>
        <time>2021-02-20T11:01:33Z</time>
      </trkpt>
      <trkpt lat="45.17138" lon="5.95053">
        <ele>2621.2</ele>
        <time>2021-02-20T11:01:34Z</time>
      </trkpt>
      <trkpt lat="45.17138" lon="5.95053">
        <ele>2621.2</ele>
        <time>2021-02-20T11:01:35Z</time>
      </trkpt>
      <trkpt lat="45.17138" lon="5.95053">
        <ele>2621.2</ele>
        <time>2021-02-20T11:01:36Z</time>
      </trkpt>
      <trkpt lat="45.17138" lon="5.95053">
        <ele>2621.2</ele>
        <time>2021-02-20T11:01:37Z</time>
      </trkpt>
      <trkpt lat="45.17138" lon="5.95053">
        <ele>2621.2</ele>
        <time>2021-02-20T11:01:38Z</time>
      </trkpt>
      <trkpt lat="45.17138" lon="5.95053">
        <ele>2621.2</ele>
        <time>2021-02-20T11:01:39Z</time>
      </trkpt>
      <trkpt lat="45.17139" lon="5.95051">
        <ele>2620.5</ele>
        <time>2021-02-20T11:01:40Z</time>
      </trkpt>
      <trkpt lat="45.17139" lon="5.95051">
        <ele>2620.5</ele>
        <time>2021-02-20T11:01:41Z</time>
      </trkpt>
      <trkpt lat="45.17139" lon="5.95052">
        <ele>2620.5</ele>
        <time>2021-02-20T11:01:42Z</time>
      </trkpt>
      <trkpt lat="45.17139" lon="5.95053">
        <ele>2621.2</ele>
        <time>2021-02-20T11:01:43Z</time>
      </trkpt>
      <trkpt lat="45.17139" lon="5.95053">
        <ele>2621.2</ele>
        <time>2021-02-20T11:01:44Z</time>
      </trkpt>
      <trkpt lat="45.17138" lon="5.95054">
        <ele>2621.2</ele>
        <time>2021-02-20T11:01:45Z</time>
      </trkpt>
      <trkpt lat="45.17138" lon="5.95055">
        <ele>2621.2</ele>
        <time>2021-02-20T11:01:46Z</time>
      </trkpt>
      <trkpt lat="45.17138" lon="5.95056">
        <ele>2622.9</ele>
        <time>2021-02-20T11:01:47Z</time>
      </trkpt>
      <trkpt lat="45.17138" lon="5.95056">
        <ele>2622.9</ele>
        <time>2021-02-20T11:01:48Z</time>
      </trkpt>
      <trkpt lat="45.17138" lon="5.95057">
        <ele>2622.9</ele>
        <time>2021-02-20T11:01:49Z</time>
      </trkpt>
      <trkpt lat="45.17138" lon="5.95058">
        <ele>2622.9</ele>
        <time>2021-02-20T11:01:50Z</time>
      </trkpt>
      <trkpt lat="45.17138" lon="5.95059">
        <ele>2622.9</ele>
        <time>2021-02-20T11:01:51Z</time>
      </trkpt>
      <trkpt lat="45.17138" lon="5.9506">
        <ele>2622.9</ele>
        <time>2021-02-20T11:01:52Z</time>
      </trkpt>
      <trkpt lat="45.17138" lon="5.9506">
        <ele>2624.5</ele>
        <time>2021-02-20T11:01:53Z</time>
      </trkpt>
      <trkpt lat="45.17138" lon="5.95061">
        <ele>2624.5</ele>
        <time>2021-02-20T11:01:54Z</time>
      </trkpt>
      <trkpt lat="45.17138" lon="5.95061">
        <ele>2624.5</ele>
        <time>2021-02-20T11:01:55Z</time>
      </trkpt>
      <trkpt lat="45.17138" lon="5.95061">
        <ele>2624.5</ele>
        <time>2021-02-20T11:01:56Z</time>
      </trkpt>
      <trkpt lat="45.17138" lon="5.95061">
        <ele>2624.5</ele>
        <time>2021-02-20T11:01:57Z</time>
      </trkpt>
      <trkpt lat="45.17138" lon="5.95061">
        <ele>2624.5</ele>
        <time>2021-02-20T11:01:58Z</time>
      </trkpt>
      <trkpt lat="45.17137" lon="5.9506">
        <ele>2624.5</ele>
        <time>2021-02-20T11:01:59Z</time>
      </trkpt>
      <trkpt lat="45.17138" lon="5.95059">
        <ele>2622.9</ele>
        <time>2021-02-20T11:02:00Z</time>
      </trkpt>
      <trkpt lat="45.17138" lon="5.95059">
        <ele>2622.9</ele>
        <time>2021-02-20T11:02:01Z</time>
      </trkpt>
      <trkpt lat="45.17138" lon="5.95059">
        <ele>2622.9</ele>
        <time>2021-02-20T11:02:02Z</time>
      </trkpt>
      <trkpt lat="45.17138" lon="5.95059">
        <ele>2622.9</ele>
        <time>2021-02-20T11:02:03Z</time>
      </trkpt>
      <trkpt lat="45.17139" lon="5.95058">
        <ele>2622.9</ele>
        <time>2021-02-20T11:02:04Z</time>
      </trkpt>
      <trkpt lat="45.17139" lon="5.95058">
        <ele>2622.2</ele>
        <time>2021-02-20T11:02:05Z</time>
      </trkpt>
      <trkpt lat="45.1714" lon="5.95057">
        <ele>2622.2</ele>
        <time>2021-02-20T11:02:06Z</time>
      </trkpt>
      <trkpt lat="45.1714" lon="5.95057">
        <ele>2622.2</ele>
        <time>2021-02-20T11:02:07Z</time>
      </trkpt>
      <trkpt lat="45.1714" lon="5.95057">
        <ele>2622.2</ele>
        <time>2021-02-20T11:02:08Z</time>
      </trkpt>
      <trkpt lat="45.17141" lon="5.95056">
        <ele>2622.2</ele>
        <time>2021-02-20T11:02:09Z</time>
      </trkpt>
      <trkpt lat="45.17141" lon="5.95056">
        <ele>2622.2</ele>
        <time>2021-02-20T11:02:10Z</time>
      </trkpt>
      <trkpt lat="45.17141" lon="5.95056">
        <ele>2622.2</ele>
        <time>2021-02-20T11:02:11Z</time>
      </trkpt>
      <trkpt lat="45.17141" lon="5.95056">
        <ele>2622.2</ele>
        <time>2021-02-20T11:02:12Z</time>
      </trkpt>
      <trkpt lat="45.17141" lon="5.95056">
        <ele>2622.2</ele>
        <time>2021-02-20T11:02:13Z</time>
      </trkpt>
      <trkpt lat="45.1714" lon="5.95056">
        <ele>2622.2</ele>
        <time>2021-02-20T11:02:14Z</time>
      </trkpt>
      <trkpt lat="45.1714" lon="5.95057">
        <ele>2622.2</ele>
        <time>2021-02-20T11:02:15Z</time>
      </trkpt>
      <trkpt lat="45.1714" lon="5.95057">
        <ele>2622.2</ele>
        <time>2021-02-20T11:02:16Z</time>
      </trkpt>
      <trkpt lat="45.1714" lon="5.95057">
        <ele>2622.2</ele>
        <time>2021-02-20T11:02:17Z</time>
      </trkpt>
      <trkpt lat="45.1714" lon="5.95057">
        <ele>2622.2</ele>
        <time>2021-02-20T11:02:18Z</time>
      </trkpt>
      <trkpt lat="45.1714" lon="5.95057">
        <ele>2622.2</ele>
        <time>2021-02-20T11:02:19Z</time>
      </trkpt>
      <trkpt lat="45.1714" lon="5.95057">
        <ele>2622.2</ele>
        <time>2021-02-20T11:02:20Z</time>
      </trkpt>
      <trkpt lat="45.1714" lon="5.95057">
        <ele>2622.2</ele>
        <time>2021-02-20T11:02:21Z</time>
      </trkpt>
      <trkpt lat="45.1714" lon="5.95057">
        <ele>2622.2</ele>
        <time>2021-02-20T11:02:22Z</time>
      </trkpt>
      <trkpt lat="45.1714" lon="5.95057">
        <ele>2622.2</ele>
        <time>2021-02-20T11:02:23Z</time>
      </trkpt>
      <trkpt lat="45.1714" lon="5.95057">
        <ele>2622.2</ele>
        <time>2021-02-20T11:02:24Z</time>
      </trkpt>
      <trkpt lat="45.17141" lon="5.95058">
        <ele>2622.2</ele>
        <time>2021-02-20T11:02:25Z</time>
      </trkpt>
      <trkpt lat="45.17141" lon="5.95057">
        <ele>2622.2</ele>
        <time>2021-02-20T11:02:26Z</time>
      </trkpt>
      <trkpt lat="45.17141" lon="5.95057">
        <ele>2622.2</ele>
        <time>2021-02-20T11:02:27Z</time>
      </trkpt>
      <trkpt lat="45.17141" lon="5.95057">
        <ele>2622.2</ele>
        <time>2021-02-20T11:02:28Z</time>
      </trkpt>
      <trkpt lat="45.17141" lon="5.95057">
        <ele>2622.2</ele>
        <time>2021-02-20T11:02:29Z</time>
      </trkpt>
      <trkpt lat="45.17141" lon="5.95057">
        <ele>2622.2</ele>
        <time>2021-02-20T11:02:30Z</time>
      </trkpt>
      <trkpt lat="45.17141" lon="5.95057">
        <ele>2622.2</ele>
        <time>2021-02-20T11:02:31Z</time>
      </trkpt>
      <trkpt lat="45.17141" lon="5.95057">
        <ele>2622.2</ele>
        <time>2021-02-20T11:02:32Z</time>
      </trkpt>
      <trkpt lat="45.17141" lon="5.95057">
        <ele>2622.2</ele>
        <time>2021-02-20T11:02:33Z</time>
      </trkpt>
      <trkpt lat="45.1714" lon="5.95059">
        <ele>2622.2</ele>
        <time>2021-02-20T11:02:34Z</time>
      </trkpt>
      <trkpt lat="45.1714" lon="5.95059">
        <ele>2622.2</ele>
        <time>2021-02-20T11:02:35Z</time>
      </trkpt>
      <trkpt lat="45.1714" lon="5.9506">
        <ele>2622.2</ele>
        <time>2021-02-20T11:02:36Z</time>
      </trkpt>
      <trkpt lat="45.1714" lon="5.9506">
        <ele>2623.8</ele>
        <time>2021-02-20T11:02:37Z</time>
      </trkpt>
      <trkpt lat="45.1714" lon="5.95061">
        <ele>2623.8</ele>
        <time>2021-02-20T11:02:38Z</time>
      </trkpt>
      <trkpt lat="45.17139" lon="5.95061">
        <ele>2623.8</ele>
        <time>2021-02-20T11:02:39Z</time>
      </trkpt>
      <trkpt lat="45.17139" lon="5.95062">
        <ele>2623.8</ele>
        <time>2021-02-20T11:02:40Z</time>
      </trkpt>
      <trkpt lat="45.17139" lon="5.95062">
        <ele>2623.8</ele>
        <time>2021-02-20T11:02:41Z</time>
      </trkpt>
      <trkpt lat="45.17139" lon="5.95063">
        <ele>2623.8</ele>
        <time>2021-02-20T11:02:42Z</time>
      </trkpt>
      <trkpt lat="45.17139" lon="5.95064">
        <ele>2623.8</ele>
        <time>2021-02-20T11:02:43Z</time>
      </trkpt>
      <trkpt lat="45.17139" lon="5.95064">
        <ele>2625.3</ele>
        <time>2021-02-20T11:02:44Z</time>
      </trkpt>
      <trkpt lat="45.17139" lon="5.95065">
        <ele>2625.3</ele>
        <time>2021-02-20T11:02:45Z</time>
      </trkpt>
      <trkpt lat="45.17139" lon="5.95065">
        <ele>2625.3</ele>
        <time>2021-02-20T11:02:46Z</time>
      </trkpt>
      <trkpt lat="45.17139" lon="5.95065">
        <ele>2625.3</ele>
        <time>2021-02-20T11:02:47Z</time>
      </trkpt>
      <trkpt lat="45.17139" lon="5.95065">
        <ele>2625.3</ele>
        <time>2021-02-20T11:02:48Z</time>
      </trkpt>
      <trkpt lat="45.1714" lon="5.95065">
        <ele>2625.3</ele>
        <time>2021-02-20T11:02:49Z</time>
      </trkpt>
      <trkpt lat="45.1714" lon="5.95065">
        <ele>2625.3</ele>
        <time>2021-02-20T11:02:50Z</time>
      </trkpt>
      <trkpt lat="45.1714" lon="5.95065">
        <ele>2625.3</ele>
        <time>2021-02-20T11:02:51Z</time>
      </trkpt>
      <trkpt lat="45.1714" lon="5.95065">
        <ele>2625.3</ele>
        <time>2021-02-20T11:02:52Z</time>
      </trkpt>
      <trkpt lat="45.1714" lon="5.95065">
        <ele>2625.3</ele>
        <time>2021-02-20T11:02:53Z</time>
      </trkpt>
      <trkpt lat="45.1714" lon="5.95065">
        <ele>2625.3</ele>
        <time>2021-02-20T11:02:54Z</time>
      </trkpt>
      <trkpt lat="45.17141" lon="5.95066">
        <ele>2625.3</ele>
        <time>2021-02-20T11:02:55Z</time>
      </trkpt>
      <trkpt lat="45.17141" lon="5.95065">
        <ele>2625.3</ele>
        <time>2021-02-20T11:02:56Z</time>
      </trkpt>
      <trkpt lat="45.1714" lon="5.95065">
        <ele>2625.3</ele>
        <time>2021-02-20T11:02:57Z</time>
      </trkpt>
      <trkpt lat="45.17141" lon="5.95065">
        <ele>2625.3</ele>
        <time>2021-02-20T11:02:58Z</time>
      </trkpt>
      <trkpt lat="45.17141" lon="5.95065">
        <ele>2625.3</ele>
        <time>2021-02-20T11:02:59Z</time>
      </trkpt>
      <trkpt lat="45.17142" lon="5.95064">
        <ele>2623</ele>
        <time>2021-02-20T11:03:00Z</time>
      </trkpt>
      <trkpt lat="45.17143" lon="5.95064">
        <ele>2623</ele>
        <time>2021-02-20T11:03:01Z</time>
      </trkpt>
      <trkpt lat="45.17143" lon="5.95064">
        <ele>2623</ele>
        <time>2021-02-20T11:03:02Z</time>
      </trkpt>
      <trkpt lat="45.17143" lon="5.95064">
        <ele>2623</ele>
        <time>2021-02-20T11:03:03Z</time>
      </trkpt>
      <trkpt lat="45.17143" lon="5.95064">
        <ele>2623</ele>
        <time>2021-02-20T11:03:04Z</time>
      </trkpt>
      <trkpt lat="45.17144" lon="5.95064">
        <ele>2623</ele>
        <time>2021-02-20T11:03:05Z</time>
      </trkpt>
      <trkpt lat="45.17144" lon="5.95063">
        <ele>2623</ele>
        <time>2021-02-20T11:03:06Z</time>
      </trkpt>
      <trkpt lat="45.17144" lon="5.95063">
        <ele>2623</ele>
        <time>2021-02-20T11:03:07Z</time>
      </trkpt>
      <trkpt lat="45.17144" lon="5.95064">
        <ele>2623</ele>
        <time>2021-02-20T11:03:08Z</time>
      </trkpt>
      <trkpt lat="45.17145" lon="5.95064">
        <ele>2623</ele>
        <time>2021-02-20T11:03:09Z</time>
      </trkpt>
      <trkpt lat="45.17145" lon="5.95064">
        <ele>2623</ele>
        <time>2021-02-20T11:03:10Z</time>
      </trkpt>
      <trkpt lat="45.17145" lon="5.95064">
        <ele>2623</ele>
        <time>2021-02-20T11:03:11Z</time>
      </trkpt>
      <trkpt lat="45.17145" lon="5.95064">
        <ele>2622.2</ele>
        <time>2021-02-20T11:03:12Z</time>
      </trkpt>
      <trkpt lat="45.17145" lon="5.95064">
        <ele>2622.2</ele>
        <time>2021-02-20T11:03:13Z</time>
      </trkpt>
      <trkpt lat="45.17145" lon="5.95064">
        <ele>2622.2</ele>
        <time>2021-02-20T11:03:14Z</time>
      </trkpt>
      <trkpt lat="45.17145" lon="5.95064">
        <ele>2622.2</ele>
        <time>2021-02-20T11:03:15Z</time>
      </trkpt>
      <trkpt lat="45.17145" lon="5.95064">
        <ele>2622.2</ele>
        <time>2021-02-20T11:03:16Z</time>
      </trkpt>
      <trkpt lat="45.17145" lon="5.95064">
        <ele>2622.2</ele>
        <time>2021-02-20T11:03:17Z</time>
      </trkpt>
      <trkpt lat="45.17145" lon="5.95064">
        <ele>2622.2</ele>
        <time>2021-02-20T11:03:18Z</time>
      </trkpt>
      <trkpt lat="45.17145" lon="5.95064">
        <ele>2622.2</ele>
        <time>2021-02-20T11:03:19Z</time>
      </trkpt>
      <trkpt lat="45.17145" lon="5.95064">
        <ele>2622.2</ele>
        <time>2021-02-20T11:03:20Z</time>
      </trkpt>
      <trkpt lat="45.17145" lon="5.95064">
        <ele>2623</ele>
        <time>2021-02-20T11:03:21Z</time>
      </trkpt>
      <trkpt lat="45.17145" lon="5.95064">
        <ele>2623</ele>
        <time>2021-02-20T11:03:22Z</time>
      </trkpt>
      <trkpt lat="45.17144" lon="5.95065">
        <ele>2624.5</ele>
        <time>2021-02-20T11:03:23Z</time>
      </trkpt>
      <trkpt lat="45.17144" lon="5.95065">
        <ele>2624.5</ele>
        <time>2021-02-20T11:03:24Z</time>
      </trkpt>
      <trkpt lat="45.17144" lon="5.95065">
        <ele>2624.5</ele>
        <time>2021-02-20T11:03:25Z</time>
      </trkpt>
      <trkpt lat="45.17144" lon="5.95066">
        <ele>2624.5</ele>
        <time>2021-02-20T11:03:26Z</time>
      </trkpt>
      <trkpt lat="45.17144" lon="5.95066">
        <ele>2624.5</ele>
        <time>2021-02-20T11:03:27Z</time>
      </trkpt>
      <trkpt lat="45.17144" lon="5.95067">
        <ele>2624.5</ele>
        <time>2021-02-20T11:03:28Z</time>
      </trkpt>
      <trkpt lat="45.17144" lon="5.95068">
        <ele>2624.5</ele>
        <time>2021-02-20T11:03:29Z</time>
      </trkpt>
      <trkpt lat="45.17143" lon="5.95069">
        <ele>2625.9</ele>
        <time>2021-02-20T11:03:30Z</time>
      </trkpt>
      <trkpt lat="45.17143" lon="5.95069">
        <ele>2625.9</ele>
        <time>2021-02-20T11:03:31Z</time>
      </trkpt>
      <trkpt lat="45.17143" lon="5.9507">
        <ele>2625.9</ele>
        <time>2021-02-20T11:03:32Z</time>
      </trkpt>
      <trkpt lat="45.17143" lon="5.9507">
        <ele>2625.9</ele>
        <time>2021-02-20T11:03:33Z</time>
      </trkpt>
      <trkpt lat="45.17143" lon="5.95071">
        <ele>2625.9</ele>
        <time>2021-02-20T11:03:34Z</time>
      </trkpt>
      <trkpt lat="45.17143" lon="5.95072">
        <ele>2625.9</ele>
        <time>2021-02-20T11:03:35Z</time>
      </trkpt>
      <trkpt lat="45.17143" lon="5.95072">
        <ele>2625.9</ele>
        <time>2021-02-20T11:03:36Z</time>
      </trkpt>
      <trkpt lat="45.17143" lon="5.95072">
        <ele>2625.9</ele>
        <time>2021-02-20T11:03:37Z</time>
      </trkpt>
      <trkpt lat="45.17142" lon="5.95072">
        <ele>2625.9</ele>
        <time>2021-02-20T11:03:38Z</time>
      </trkpt>
      <trkpt lat="45.17142" lon="5.95072">
        <ele>2625.9</ele>
        <time>2021-02-20T11:03:39Z</time>
      </trkpt>
      <trkpt lat="45.17142" lon="5.95072">
        <ele>2625.9</ele>
        <time>2021-02-20T11:03:40Z</time>
      </trkpt>
      <trkpt lat="45.17142" lon="5.95072">
        <ele>2625.9</ele>
        <time>2021-02-20T11:03:41Z</time>
      </trkpt>
      <trkpt lat="45.17142" lon="5.95072">
        <ele>2625.9</ele>
        <time>2021-02-20T11:03:42Z</time>
      </trkpt>
      <trkpt lat="45.17142" lon="5.95072">
        <ele>2625.9</ele>
        <time>2021-02-20T11:03:43Z</time>
      </trkpt>
      <trkpt lat="45.17143" lon="5.95072">
        <ele>2625.9</ele>
        <time>2021-02-20T11:03:44Z</time>
      </trkpt>
      <trkpt lat="45.17144" lon="5.95072">
        <ele>2625.9</ele>
        <time>2021-02-20T11:03:45Z</time>
      </trkpt>
      <trkpt lat="45.17145" lon="5.95072">
        <ele>2625.9</ele>
        <time>2021-02-20T11:03:46Z</time>
      </trkpt>
      <trkpt lat="45.17145" lon="5.95072">
        <ele>2625.9</ele>
        <time>2021-02-20T11:03:47Z</time>
      </trkpt>
      <trkpt lat="45.17145" lon="5.95072">
        <ele>2625.1</ele>
        <time>2021-02-20T11:03:48Z</time>
      </trkpt>
      <trkpt lat="45.17145" lon="5.95071">
        <ele>2625.1</ele>
        <time>2021-02-20T11:03:49Z</time>
      </trkpt>
      <trkpt lat="45.17146" lon="5.9507">
        <ele>2625.1</ele>
        <time>2021-02-20T11:03:50Z</time>
      </trkpt>
      <trkpt lat="45.17146" lon="5.9507">
        <ele>2625.1</ele>
        <time>2021-02-20T11:03:51Z</time>
      </trkpt>
      <trkpt lat="45.17147" lon="5.9507">
        <ele>2625.1</ele>
        <time>2021-02-20T11:03:52Z</time>
      </trkpt>
      <trkpt lat="45.17147" lon="5.9507">
        <ele>2625.1</ele>
        <time>2021-02-20T11:03:53Z</time>
      </trkpt>
      <trkpt lat="45.17147" lon="5.9507">
        <ele>2625.1</ele>
        <time>2021-02-20T11:03:54Z</time>
      </trkpt>
      <trkpt lat="45.17147" lon="5.9507">
        <ele>2625.1</ele>
        <time>2021-02-20T11:03:55Z</time>
      </trkpt>
      <trkpt lat="45.17147" lon="5.9507">
        <ele>2625.1</ele>
        <time>2021-02-20T11:03:56Z</time>
      </trkpt>
      <trkpt lat="45.17147" lon="5.9507">
        <ele>2625.1</ele>
        <time>2021-02-20T11:03:57Z</time>
      </trkpt>
      <trkpt lat="45.17147" lon="5.9507">
        <ele>2625.1</ele>
        <time>2021-02-20T11:03:58Z</time>
      </trkpt>
      <trkpt lat="45.17148" lon="5.95071">
        <ele>2625.1</ele>
        <time>2021-02-20T11:03:59Z</time>
      </trkpt>
      <trkpt lat="45.17148" lon="5.95071">
        <ele>2624.1</ele>
        <time>2021-02-20T11:04:00Z</time>
      </trkpt>
      <trkpt lat="45.17149" lon="5.95071">
        <ele>2624.1</ele>
        <time>2021-02-20T11:04:01Z</time>
      </trkpt>
      <trkpt lat="45.1715" lon="5.95071">
        <ele>2624.1</ele>
        <time>2021-02-20T11:04:02Z</time>
      </trkpt>
      <trkpt lat="45.17151" lon="5.95071">
        <ele>2624.1</ele>
        <time>2021-02-20T11:04:03Z</time>
      </trkpt>
      <trkpt lat="45.17151" lon="5.95071">
        <ele>2623.1</ele>
        <time>2021-02-20T11:04:04Z</time>
      </trkpt>
      <trkpt lat="45.17152" lon="5.9507">
        <ele>2623.1</ele>
        <time>2021-02-20T11:04:05Z</time>
      </trkpt>
      <trkpt lat="45.17153" lon="5.95071">
        <ele>2623.1</ele>
        <time>2021-02-20T11:04:06Z</time>
      </trkpt>
      <trkpt lat="45.17153" lon="5.95071">
        <ele>2623.1</ele>
        <time>2021-02-20T11:04:07Z</time>
      </trkpt>
      <trkpt lat="45.17153" lon="5.95071">
        <ele>2623.1</ele>
        <time>2021-02-20T11:04:08Z</time>
      </trkpt>
      <trkpt lat="45.17153" lon="5.95071">
        <ele>2623.1</ele>
        <time>2021-02-20T11:04:09Z</time>
      </trkpt>
      <trkpt lat="45.17153" lon="5.95071">
        <ele>2623.1</ele>
        <time>2021-02-20T11:04:10Z</time>
      </trkpt>
      <trkpt lat="45.17153" lon="5.95071">
        <ele>2623.1</ele>
        <time>2021-02-20T11:04:11Z</time>
      </trkpt>
      <trkpt lat="45.17153" lon="5.95071">
        <ele>2623.1</ele>
        <time>2021-02-20T11:04:12Z</time>
      </trkpt>
      <trkpt lat="45.17153" lon="5.95071">
        <ele>2623.1</ele>
        <time>2021-02-20T11:04:13Z</time>
      </trkpt>
      <trkpt lat="45.17154" lon="5.95072">
        <ele>2623.1</ele>
        <time>2021-02-20T11:04:14Z</time>
      </trkpt>
      <trkpt lat="45.17154" lon="5.95072">
        <ele>2623.1</ele>
        <time>2021-02-20T11:04:15Z</time>
      </trkpt>
      <trkpt lat="45.17153" lon="5.95072">
        <ele>2623.1</ele>
        <time>2021-02-20T11:04:16Z</time>
      </trkpt>
      <trkpt lat="45.17152" lon="5.95073">
        <ele>2623.1</ele>
        <time>2021-02-20T11:04:17Z</time>
      </trkpt>
      <trkpt lat="45.17152" lon="5.95074">
        <ele>2624.4</ele>
        <time>2021-02-20T11:04:18Z</time>
      </trkpt>
      <trkpt lat="45.17151" lon="5.95074">
        <ele>2624.4</ele>
        <time>2021-02-20T11:04:19Z</time>
      </trkpt>
      <trkpt lat="45.17151" lon="5.95075">
        <ele>2625.5</ele>
        <time>2021-02-20T11:04:20Z</time>
      </trkpt>
      <trkpt lat="45.1715" lon="5.95075">
        <ele>2625.5</ele>
        <time>2021-02-20T11:04:21Z</time>
      </trkpt>
      <trkpt lat="45.1715" lon="5.95076">
        <ele>2625.5</ele>
        <time>2021-02-20T11:04:22Z</time>
      </trkpt>
      <trkpt lat="45.17149" lon="5.95077">
        <ele>2625.5</ele>
        <time>2021-02-20T11:04:23Z</time>
      </trkpt>
      <trkpt lat="45.17149" lon="5.95077">
        <ele>2625.5</ele>
        <time>2021-02-20T11:04:24Z</time>
      </trkpt>
      <trkpt lat="45.17148" lon="5.95077">
        <ele>2626.7</ele>
        <time>2021-02-20T11:04:25Z</time>
      </trkpt>
      <trkpt lat="45.17148" lon="5.95078">
        <ele>2627.6</ele>
        <time>2021-02-20T11:04:26Z</time>
      </trkpt>
      <trkpt lat="45.17148" lon="5.95078">
        <ele>2627.6</ele>
        <time>2021-02-20T11:04:27Z</time>
      </trkpt>
      <trkpt lat="45.17148" lon="5.95078">
        <ele>2627.6</ele>
        <time>2021-02-20T11:04:28Z</time>
      </trkpt>
      <trkpt lat="45.17147" lon="5.95078">
        <ele>2627.6</ele>
        <time>2021-02-20T11:04:29Z</time>
      </trkpt>
      <trkpt lat="45.17147" lon="5.95078">
        <ele>2627.6</ele>
        <time>2021-02-20T11:04:30Z</time>
      </trkpt>
      <trkpt lat="45.17147" lon="5.95078">
        <ele>2627.6</ele>
        <time>2021-02-20T11:04:31Z</time>
      </trkpt>
      <trkpt lat="45.17148" lon="5.95077">
        <ele>2627.6</ele>
        <time>2021-02-20T11:04:32Z</time>
      </trkpt>
      <trkpt lat="45.17148" lon="5.95077">
        <ele>2625.5</ele>
        <time>2021-02-20T11:04:33Z</time>
      </trkpt>
      <trkpt lat="45.17149" lon="5.95077">
        <ele>2626.7</ele>
        <time>2021-02-20T11:04:34Z</time>
      </trkpt>
      <trkpt lat="45.17149" lon="5.95077">
        <ele>2626.7</ele>
        <time>2021-02-20T11:04:35Z</time>
      </trkpt>
      <trkpt lat="45.17149" lon="5.95078">
        <ele>2626.7</ele>
        <time>2021-02-20T11:04:36Z</time>
      </trkpt>
      <trkpt lat="45.1715" lon="5.95078">
        <ele>2626.7</ele>
        <time>2021-02-20T11:04:37Z</time>
      </trkpt>
      <trkpt lat="45.1715" lon="5.95078">
        <ele>2626.7</ele>
        <time>2021-02-20T11:04:38Z</time>
      </trkpt>
      <trkpt lat="45.1715" lon="5.95078">
        <ele>2626.7</ele>
        <time>2021-02-20T11:04:39Z</time>
      </trkpt>
      <trkpt lat="45.17151" lon="5.95078">
        <ele>2626.7</ele>
        <time>2021-02-20T11:04:40Z</time>
      </trkpt>
      <trkpt lat="45.17151" lon="5.95078">
        <ele>2625.7</ele>
        <time>2021-02-20T11:04:41Z</time>
      </trkpt>
      <trkpt lat="45.17152" lon="5.95078">
        <ele>2625.7</ele>
        <time>2021-02-20T11:04:42Z</time>
      </trkpt>
      <trkpt lat="45.17152" lon="5.95078">
        <ele>2625.7</ele>
        <time>2021-02-20T11:04:43Z</time>
      </trkpt>
      <trkpt lat="45.17153" lon="5.95078">
        <ele>2625.7</ele>
        <time>2021-02-20T11:04:44Z</time>
      </trkpt>
      <trkpt lat="45.17154" lon="5.95078">
        <ele>2625.7</ele>
        <time>2021-02-20T11:04:45Z</time>
      </trkpt>
      <trkpt lat="45.17154" lon="5.95078">
        <ele>2625.7</ele>
        <time>2021-02-20T11:04:46Z</time>
      </trkpt>
      <trkpt lat="45.17155" lon="5.95078">
        <ele>2624.5</ele>
        <time>2021-02-20T11:04:47Z</time>
      </trkpt>
      <trkpt lat="45.17155" lon="5.95079">
        <ele>2624.5</ele>
        <time>2021-02-20T11:04:48Z</time>
      </trkpt>
      <trkpt lat="45.17155" lon="5.95079">
        <ele>2624.5</ele>
        <time>2021-02-20T11:04:49Z</time>
      </trkpt>
      <trkpt lat="45.17155" lon="5.95078">
        <ele>2624.5</ele>
        <time>2021-02-20T11:04:50Z</time>
      </trkpt>
      <trkpt lat="45.17155" lon="5.95078">
        <ele>2624.5</ele>
        <time>2021-02-20T11:04:51Z</time>
      </trkpt>
      <trkpt lat="45.17155" lon="5.95078">
        <ele>2624.5</ele>
        <time>2021-02-20T11:04:52Z</time>
      </trkpt>
      <trkpt lat="45.17155" lon="5.95078">
        <ele>2624.5</ele>
        <time>2021-02-20T11:04:53Z</time>
      </trkpt>
      <trkpt lat="45.17155" lon="5.95078">
        <ele>2624.5</ele>
        <time>2021-02-20T11:04:54Z</time>
      </trkpt>
      <trkpt lat="45.17155" lon="5.95079">
        <ele>2624.5</ele>
        <time>2021-02-20T11:04:55Z</time>
      </trkpt>
      <trkpt lat="45.17156" lon="5.95079">
        <ele>2624.5</ele>
        <time>2021-02-20T11:04:56Z</time>
      </trkpt>
      <trkpt lat="45.17156" lon="5.95079">
        <ele>2624.5</ele>
        <time>2021-02-20T11:04:57Z</time>
      </trkpt>
      <trkpt lat="45.17156" lon="5.95079">
        <ele>2624.5</ele>
        <time>2021-02-20T11:04:58Z</time>
      </trkpt>
      <trkpt lat="45.17156" lon="5.95079">
        <ele>2624.5</ele>
        <time>2021-02-20T11:04:59Z</time>
      </trkpt>
      <trkpt lat="45.17156" lon="5.95079">
        <ele>2624.5</ele>
        <time>2021-02-20T11:05:00Z</time>
      </trkpt>
      <trkpt lat="45.17156" lon="5.95079">
        <ele>2624.5</ele>
        <time>2021-02-20T11:05:01Z</time>
      </trkpt>
      <trkpt lat="45.17156" lon="5.95079">
        <ele>2624.5</ele>
        <time>2021-02-20T11:05:02Z</time>
      </trkpt>
      <trkpt lat="45.17156" lon="5.95079">
        <ele>2624.5</ele>
        <time>2021-02-20T11:05:03Z</time>
      </trkpt>
      <trkpt lat="45.17156" lon="5.95079">
        <ele>2624.5</ele>
        <time>2021-02-20T11:05:04Z</time>
      </trkpt>
      <trkpt lat="45.17156" lon="5.95079">
        <ele>2624.5</ele>
        <time>2021-02-20T11:05:05Z</time>
      </trkpt>
      <trkpt lat="45.17157" lon="5.95078">
        <ele>2623.2</ele>
        <time>2021-02-20T11:05:06Z</time>
      </trkpt>
      <trkpt lat="45.17157" lon="5.95078">
        <ele>2623.2</ele>
        <time>2021-02-20T11:05:07Z</time>
      </trkpt>
      <trkpt lat="45.17157" lon="5.95078">
        <ele>2623.2</ele>
        <time>2021-02-20T11:05:08Z</time>
      </trkpt>
      <trkpt lat="45.17157" lon="5.95078">
        <ele>2624.5</ele>
        <time>2021-02-20T11:05:09Z</time>
      </trkpt>
      <trkpt lat="45.17157" lon="5.95077">
        <ele>2624.5</ele>
        <time>2021-02-20T11:05:10Z</time>
      </trkpt>
      <trkpt lat="45.17157" lon="5.95078">
        <ele>2624.5</ele>
        <time>2021-02-20T11:05:11Z</time>
      </trkpt>
      <trkpt lat="45.17156" lon="5.95078">
        <ele>2624.5</ele>
        <time>2021-02-20T11:05:12Z</time>
      </trkpt>
      <trkpt lat="45.17156" lon="5.95079">
        <ele>2624.5</ele>
        <time>2021-02-20T11:05:13Z</time>
      </trkpt>
      <trkpt lat="45.17156" lon="5.95079">
        <ele>2624.5</ele>
        <time>2021-02-20T11:05:14Z</time>
      </trkpt>
      <trkpt lat="45.17156" lon="5.95079">
        <ele>2624.5</ele>
        <time>2021-02-20T11:05:15Z</time>
      </trkpt>
      <trkpt lat="45.17155" lon="5.95079">
        <ele>2624.5</ele>
        <time>2021-02-20T11:05:16Z</time>
      </trkpt>
      <trkpt lat="45.17156" lon="5.9508">
        <ele>2624.5</ele>
        <time>2021-02-20T11:05:17Z</time>
      </trkpt>
      <trkpt lat="45.17156" lon="5.9508">
        <ele>2624.5</ele>
        <time>2021-02-20T11:05:18Z</time>
      </trkpt>
      <trkpt lat="45.17156" lon="5.9508">
        <ele>2624.5</ele>
        <time>2021-02-20T11:05:19Z</time>
      </trkpt>
      <trkpt lat="45.17156" lon="5.9508">
        <ele>2624.5</ele>
        <time>2021-02-20T11:05:20Z</time>
      </trkpt>
      <trkpt lat="45.17156" lon="5.9508">
        <ele>2624.5</ele>
        <time>2021-02-20T11:05:21Z</time>
      </trkpt>
      <trkpt lat="45.17156" lon="5.95081">
        <ele>2624.5</ele>
        <time>2021-02-20T11:05:22Z</time>
      </trkpt>
      <trkpt lat="45.17155" lon="5.95082">
        <ele>2625.7</ele>
        <time>2021-02-20T11:05:23Z</time>
      </trkpt>
      <trkpt lat="45.17155" lon="5.95083">
        <ele>2625.7</ele>
        <time>2021-02-20T11:05:24Z</time>
      </trkpt>
      <trkpt lat="45.17155" lon="5.95083">
        <ele>2625.7</ele>
        <time>2021-02-20T11:05:25Z</time>
      </trkpt>
      <trkpt lat="45.17155" lon="5.95083">
        <ele>2625.7</ele>
        <time>2021-02-20T11:05:26Z</time>
      </trkpt>
      <trkpt lat="45.17155" lon="5.95083">
        <ele>2625.7</ele>
        <time>2021-02-20T11:05:27Z</time>
      </trkpt>
      <trkpt lat="45.17155" lon="5.95084">
        <ele>2625.7</ele>
        <time>2021-02-20T11:05:28Z</time>
      </trkpt>
      <trkpt lat="45.17154" lon="5.95085">
        <ele>2625.7</ele>
        <time>2021-02-20T11:05:29Z</time>
      </trkpt>
      <trkpt lat="45.17154" lon="5.95086">
        <ele>2627.8</ele>
        <time>2021-02-20T11:05:30Z</time>
      </trkpt>
      <trkpt lat="45.17154" lon="5.95086">
        <ele>2627.8</ele>
        <time>2021-02-20T11:05:31Z</time>
      </trkpt>
      <trkpt lat="45.17153" lon="5.95086">
        <ele>2627.8</ele>
        <time>2021-02-20T11:05:32Z</time>
      </trkpt>
      <trkpt lat="45.17153" lon="5.95087">
        <ele>2627.8</ele>
        <time>2021-02-20T11:05:33Z</time>
      </trkpt>
      <trkpt lat="45.17152" lon="5.95087">
        <ele>2627.8</ele>
        <time>2021-02-20T11:05:34Z</time>
      </trkpt>
      <trkpt lat="45.17152" lon="5.95087">
        <ele>2627.8</ele>
        <time>2021-02-20T11:05:35Z</time>
      </trkpt>
      <trkpt lat="45.17152" lon="5.95086">
        <ele>2627.8</ele>
        <time>2021-02-20T11:05:36Z</time>
      </trkpt>
      <trkpt lat="45.17152" lon="5.95086">
        <ele>2627.8</ele>
        <time>2021-02-20T11:05:37Z</time>
      </trkpt>
      <trkpt lat="45.17152" lon="5.95086">
        <ele>2627.8</ele>
        <time>2021-02-20T11:05:38Z</time>
      </trkpt>
      <trkpt lat="45.17152" lon="5.95086">
        <ele>2627.8</ele>
        <time>2021-02-20T11:05:39Z</time>
      </trkpt>
      <trkpt lat="45.17152" lon="5.95087">
        <ele>2627.8</ele>
        <time>2021-02-20T11:05:40Z</time>
      </trkpt>
      <trkpt lat="45.17152" lon="5.95087">
        <ele>2627.8</ele>
        <time>2021-02-20T11:05:41Z</time>
      </trkpt>
      <trkpt lat="45.17152" lon="5.95087">
        <ele>2627.8</ele>
        <time>2021-02-20T11:05:42Z</time>
      </trkpt>
      <trkpt lat="45.17152" lon="5.95087">
        <ele>2627.8</ele>
        <time>2021-02-20T11:05:43Z</time>
      </trkpt>
      <trkpt lat="45.17152" lon="5.95087">
        <ele>2627.8</ele>
        <time>2021-02-20T11:05:44Z</time>
      </trkpt>
      <trkpt lat="45.17152" lon="5.95087">
        <ele>2627.8</ele>
        <time>2021-02-20T11:05:45Z</time>
      </trkpt>
      <trkpt lat="45.17151" lon="5.95087">
        <ele>2627.8</ele>
        <time>2021-02-20T11:05:46Z</time>
      </trkpt>
      <trkpt lat="45.17151" lon="5.95087">
        <ele>2627.8</ele>
        <time>2021-02-20T11:05:47Z</time>
      </trkpt>
      <trkpt lat="45.17151" lon="5.95087">
        <ele>2627.8</ele>
        <time>2021-02-20T11:05:48Z</time>
      </trkpt>
      <trkpt lat="45.17151" lon="5.95087">
        <ele>2627.8</ele>
        <time>2021-02-20T11:05:49Z</time>
      </trkpt>
      <trkpt lat="45.17151" lon="5.95087">
        <ele>2627.8</ele>
        <time>2021-02-20T11:05:50Z</time>
      </trkpt>
      <trkpt lat="45.17151" lon="5.95087">
        <ele>2627.8</ele>
        <time>2021-02-20T11:05:51Z</time>
      </trkpt>
      <trkpt lat="45.17151" lon="5.95087">
        <ele>2627.8</ele>
        <time>2021-02-20T11:05:52Z</time>
      </trkpt>
      <trkpt lat="45.17152" lon="5.95087">
        <ele>2627.8</ele>
        <time>2021-02-20T11:05:53Z</time>
      </trkpt>
      <trkpt lat="45.17152" lon="5.95087">
        <ele>2627.8</ele>
        <time>2021-02-20T11:05:54Z</time>
      </trkpt>
      <trkpt lat="45.17153" lon="5.95087">
        <ele>2627.8</ele>
        <time>2021-02-20T11:05:55Z</time>
      </trkpt>
      <trkpt lat="45.17153" lon="5.95088">
        <ele>2627.8</ele>
        <time>2021-02-20T11:05:56Z</time>
      </trkpt>
      <trkpt lat="45.17153" lon="5.95088">
        <ele>2627.8</ele>
        <time>2021-02-20T11:05:57Z</time>
      </trkpt>
      <trkpt lat="45.17153" lon="5.95088">
        <ele>2627.8</ele>
        <time>2021-02-20T11:05:58Z</time>
      </trkpt>
      <trkpt lat="45.17153" lon="5.95088">
        <ele>2627.8</ele>
        <time>2021-02-20T11:05:59Z</time>
      </trkpt>
      <trkpt lat="45.17153" lon="5.95089">
        <ele>2627.8</ele>
        <time>2021-02-20T11:06:00Z</time>
      </trkpt>
      <trkpt lat="45.17153" lon="5.95089">
        <ele>2627.8</ele>
        <time>2021-02-20T11:06:01Z</time>
      </trkpt>
      <trkpt lat="45.17154" lon="5.95089">
        <ele>2627.8</ele>
        <time>2021-02-20T11:06:02Z</time>
      </trkpt>
      <trkpt lat="45.17154" lon="5.95089">
        <ele>2627.8</ele>
        <time>2021-02-20T11:06:03Z</time>
      </trkpt>
      <trkpt lat="45.17154" lon="5.95089">
        <ele>2627.8</ele>
        <time>2021-02-20T11:06:04Z</time>
      </trkpt>
      <trkpt lat="45.17154" lon="5.9509">
        <ele>2626.7</ele>
        <time>2021-02-20T11:06:05Z</time>
      </trkpt>
      <trkpt lat="45.17154" lon="5.9509">
        <ele>2626.7</ele>
        <time>2021-02-20T11:06:06Z</time>
      </trkpt>
      <trkpt lat="45.17154" lon="5.9509">
        <ele>2626.7</ele>
        <time>2021-02-20T11:06:07Z</time>
      </trkpt>
      <trkpt lat="45.17155" lon="5.9509">
        <ele>2626.7</ele>
        <time>2021-02-20T11:06:08Z</time>
      </trkpt>
      <trkpt lat="45.17155" lon="5.9509">
        <ele>2626.7</ele>
        <time>2021-02-20T11:06:09Z</time>
      </trkpt>
      <trkpt lat="45.17156" lon="5.9509">
        <ele>2626.7</ele>
        <time>2021-02-20T11:06:10Z</time>
      </trkpt>
      <trkpt lat="45.17157" lon="5.9509">
        <ele>2626.7</ele>
        <time>2021-02-20T11:06:11Z</time>
      </trkpt>
      <trkpt lat="45.17157" lon="5.9509">
        <ele>2626.7</ele>
        <time>2021-02-20T11:06:12Z</time>
      </trkpt>
      <trkpt lat="45.17157" lon="5.9509">
        <ele>2626.7</ele>
        <time>2021-02-20T11:06:13Z</time>
      </trkpt>
      <trkpt lat="45.17157" lon="5.9509">
        <ele>2625.4</ele>
        <time>2021-02-20T11:06:14Z</time>
      </trkpt>
      <trkpt lat="45.17157" lon="5.9509">
        <ele>2625.4</ele>
        <time>2021-02-20T11:06:15Z</time>
      </trkpt>
      <trkpt lat="45.17157" lon="5.9509">
        <ele>2625.4</ele>
        <time>2021-02-20T11:06:16Z</time>
      </trkpt>
      <trkpt lat="45.17157" lon="5.9509">
        <ele>2625.4</ele>
        <time>2021-02-20T11:06:17Z</time>
      </trkpt>
      <trkpt lat="45.17157" lon="5.9509">
        <ele>2627.6</ele>
        <time>2021-02-20T11:06:18Z</time>
      </trkpt>
      <trkpt lat="45.17157" lon="5.9509">
        <ele>2627.6</ele>
        <time>2021-02-20T11:06:19Z</time>
      </trkpt>
      <trkpt lat="45.17157" lon="5.9509">
        <ele>2627.6</ele>
        <time>2021-02-20T11:06:20Z</time>
      </trkpt>
      <trkpt lat="45.17157" lon="5.9509">
        <ele>2627.6</ele>
        <time>2021-02-20T11:06:21Z</time>
      </trkpt>
      <trkpt lat="45.17157" lon="5.9509">
        <ele>2625.4</ele>
        <time>2021-02-20T11:06:22Z</time>
      </trkpt>
      <trkpt lat="45.17157" lon="5.9509">
        <ele>2625.4</ele>
        <time>2021-02-20T11:06:23Z</time>
      </trkpt>
      <trkpt lat="45.17157" lon="5.9509">
        <ele>2626.7</ele>
        <time>2021-02-20T11:06:24Z</time>
      </trkpt>
      <trkpt lat="45.17156" lon="5.95091">
        <ele>2627.6</ele>
        <time>2021-02-20T11:06:25Z</time>
      </trkpt>
      <trkpt lat="45.17156" lon="5.95091">
        <ele>2627.6</ele>
        <time>2021-02-20T11:06:26Z</time>
      </trkpt>
      <trkpt lat="45.17156" lon="5.95091">
        <ele>2627.6</ele>
        <time>2021-02-20T11:06:27Z</time>
      </trkpt>
      <trkpt lat="45.17156" lon="5.95091">
        <ele>2627.6</ele>
        <time>2021-02-20T11:06:28Z</time>
      </trkpt>
      <trkpt lat="45.17156" lon="5.95091">
        <ele>2627.6</ele>
        <time>2021-02-20T11:06:29Z</time>
      </trkpt>
      <trkpt lat="45.17156" lon="5.95091">
        <ele>2627.6</ele>
        <time>2021-02-20T11:06:30Z</time>
      </trkpt>
      <trkpt lat="45.17157" lon="5.95092">
        <ele>2627.6</ele>
        <time>2021-02-20T11:06:31Z</time>
      </trkpt>
      <trkpt lat="45.17157" lon="5.95092">
        <ele>2626.3</ele>
        <time>2021-02-20T11:06:32Z</time>
      </trkpt>
      <trkpt lat="45.17158" lon="5.95093">
        <ele>2626.3</ele>
        <time>2021-02-20T11:06:33Z</time>
      </trkpt>
      <trkpt lat="45.17159" lon="5.95093">
        <ele>2626.3</ele>
        <time>2021-02-20T11:06:34Z</time>
      </trkpt>
      <trkpt lat="45.17159" lon="5.95094">
        <ele>2626.3</ele>
        <time>2021-02-20T11:06:35Z</time>
      </trkpt>
      <trkpt lat="45.17159" lon="5.95094">
        <ele>2626.3</ele>
        <time>2021-02-20T11:06:36Z</time>
      </trkpt>
      <trkpt lat="45.17159" lon="5.95094">
        <ele>2626.3</ele>
        <time>2021-02-20T11:06:37Z</time>
      </trkpt>
      <trkpt lat="45.17159" lon="5.95094">
        <ele>2626.3</ele>
        <time>2021-02-20T11:06:38Z</time>
      </trkpt>
      <trkpt lat="45.17159" lon="5.95094">
        <ele>2626.3</ele>
        <time>2021-02-20T11:06:39Z</time>
      </trkpt>
      <trkpt lat="45.17159" lon="5.95094">
        <ele>2626.3</ele>
        <time>2021-02-20T11:06:40Z</time>
      </trkpt>
      <trkpt lat="45.17159" lon="5.95094">
        <ele>2626.3</ele>
        <time>2021-02-20T11:06:41Z</time>
      </trkpt>
      <trkpt lat="45.17159" lon="5.95094">
        <ele>2626.3</ele>
        <time>2021-02-20T11:06:42Z</time>
      </trkpt>
      <trkpt lat="45.17159" lon="5.95094">
        <ele>2626.3</ele>
        <time>2021-02-20T11:06:43Z</time>
      </trkpt>
      <trkpt lat="45.1716" lon="5.95094">
        <ele>2626.3</ele>
        <time>2021-02-20T11:06:44Z</time>
      </trkpt>
      <trkpt lat="45.1716" lon="5.95094">
        <ele>2625</ele>
        <time>2021-02-20T11:06:45Z</time>
      </trkpt>
      <trkpt lat="45.1716" lon="5.95094">
        <ele>2625</ele>
        <time>2021-02-20T11:06:46Z</time>
      </trkpt>
      <trkpt lat="45.1716" lon="5.95095">
        <ele>2625.8</ele>
        <time>2021-02-20T11:06:47Z</time>
      </trkpt>
      <trkpt lat="45.1716" lon="5.95095">
        <ele>2627.1</ele>
        <time>2021-02-20T11:06:48Z</time>
      </trkpt>
      <trkpt lat="45.1716" lon="5.95095">
        <ele>2627.1</ele>
        <time>2021-02-20T11:06:49Z</time>
      </trkpt>
      <trkpt lat="45.1716" lon="5.95095">
        <ele>2627.1</ele>
        <time>2021-02-20T11:06:50Z</time>
      </trkpt>
      <trkpt lat="45.1716" lon="5.95095">
        <ele>2625.8</ele>
        <time>2021-02-20T11:06:51Z</time>
      </trkpt>
      <trkpt lat="45.1716" lon="5.95095">
        <ele>2625.8</ele>
        <time>2021-02-20T11:06:52Z</time>
      </trkpt>
      <trkpt lat="45.17161" lon="5.95095">
        <ele>2625.8</ele>
        <time>2021-02-20T11:06:53Z</time>
      </trkpt>
      <trkpt lat="45.17161" lon="5.95095">
        <ele>2625.8</ele>
        <time>2021-02-20T11:06:54Z</time>
      </trkpt>
      <trkpt lat="45.17161" lon="5.95095">
        <ele>2625.8</ele>
        <time>2021-02-20T11:06:55Z</time>
      </trkpt>
      <trkpt lat="45.17161" lon="5.95096">
        <ele>2625.8</ele>
        <time>2021-02-20T11:06:56Z</time>
      </trkpt>
      <trkpt lat="45.17161" lon="5.95096">
        <ele>2625.8</ele>
        <time>2021-02-20T11:06:57Z</time>
      </trkpt>
      <trkpt lat="45.17161" lon="5.95096">
        <ele>2625.8</ele>
        <time>2021-02-20T11:06:58Z</time>
      </trkpt>
      <trkpt lat="45.17161" lon="5.95096">
        <ele>2625.8</ele>
        <time>2021-02-20T11:06:59Z</time>
      </trkpt>
      <trkpt lat="45.17161" lon="5.95096">
        <ele>2625.8</ele>
        <time>2021-02-20T11:07:00Z</time>
      </trkpt>
      <trkpt lat="45.17161" lon="5.95096">
        <ele>2625.8</ele>
        <time>2021-02-20T11:07:01Z</time>
      </trkpt>
      <trkpt lat="45.17161" lon="5.95096">
        <ele>2625.8</ele>
        <time>2021-02-20T11:07:02Z</time>
      </trkpt>
      <trkpt lat="45.17161" lon="5.95096">
        <ele>2625.8</ele>
        <time>2021-02-20T11:07:03Z</time>
      </trkpt>
      <trkpt lat="45.17161" lon="5.95095">
        <ele>2625.8</ele>
        <time>2021-02-20T11:07:04Z</time>
      </trkpt>
      <trkpt lat="45.17161" lon="5.95095">
        <ele>2625.8</ele>
        <time>2021-02-20T11:07:05Z</time>
      </trkpt>
      <trkpt lat="45.17161" lon="5.95096">
        <ele>2625.8</ele>
        <time>2021-02-20T11:07:06Z</time>
      </trkpt>
      <trkpt lat="45.1716" lon="5.95097">
        <ele>2625.8</ele>
        <time>2021-02-20T11:07:07Z</time>
      </trkpt>
      <trkpt lat="45.1716" lon="5.95097">
        <ele>2625.8</ele>
        <time>2021-02-20T11:07:08Z</time>
      </trkpt>
      <trkpt lat="45.1716" lon="5.95097">
        <ele>2627.1</ele>
        <time>2021-02-20T11:07:09Z</time>
      </trkpt>
      <trkpt lat="45.1716" lon="5.95097">
        <ele>2627.1</ele>
        <time>2021-02-20T11:07:10Z</time>
      </trkpt>
      <trkpt lat="45.17159" lon="5.95097">
        <ele>2627.1</ele>
        <time>2021-02-20T11:07:11Z</time>
      </trkpt>
      <trkpt lat="45.17159" lon="5.95098">
        <ele>2627.1</ele>
        <time>2021-02-20T11:07:12Z</time>
      </trkpt>
      <trkpt lat="45.17158" lon="5.95098">
        <ele>2627.1</ele>
        <time>2021-02-20T11:07:13Z</time>
      </trkpt>
      <trkpt lat="45.17158" lon="5.95098">
        <ele>2627.1</ele>
        <time>2021-02-20T11:07:14Z</time>
      </trkpt>
      <trkpt lat="45.17158" lon="5.95098">
        <ele>2627.1</ele>
        <time>2021-02-20T11:07:15Z</time>
      </trkpt>
      <trkpt lat="45.17158" lon="5.95099">
        <ele>2627.8</ele>
        <time>2021-02-20T11:07:16Z</time>
      </trkpt>
      <trkpt lat="45.17158" lon="5.95099">
        <ele>2627.8</ele>
        <time>2021-02-20T11:07:17Z</time>
      </trkpt>
      <trkpt lat="45.17158" lon="5.95099">
        <ele>2627.8</ele>
        <time>2021-02-20T11:07:18Z</time>
      </trkpt>
      <trkpt lat="45.17158" lon="5.95099">
        <ele>2627.8</ele>
        <time>2021-02-20T11:07:19Z</time>
      </trkpt>
      <trkpt lat="45.17158" lon="5.95099">
        <ele>2627.8</ele>
        <time>2021-02-20T11:07:20Z</time>
      </trkpt>
      <trkpt lat="45.17158" lon="5.95099">
        <ele>2627.8</ele>
        <time>2021-02-20T11:07:21Z</time>
      </trkpt>
      <trkpt lat="45.17158" lon="5.95099">
        <ele>2627.8</ele>
        <time>2021-02-20T11:07:22Z</time>
      </trkpt>
      <trkpt lat="45.17158" lon="5.95099">
        <ele>2627.8</ele>
        <time>2021-02-20T11:07:23Z</time>
      </trkpt>
      <trkpt lat="45.17158" lon="5.95099">
        <ele>2627.8</ele>
        <time>2021-02-20T11:07:24Z</time>
      </trkpt>
      <trkpt lat="45.17157" lon="5.95098">
        <ele>2627.1</ele>
        <time>2021-02-20T11:07:25Z</time>
      </trkpt>
      <trkpt lat="45.17157" lon="5.95098">
        <ele>2627.1</ele>
        <time>2021-02-20T11:07:26Z</time>
      </trkpt>
      <trkpt lat="45.17157" lon="5.95098">
        <ele>2627.1</ele>
        <time>2021-02-20T11:07:27Z</time>
      </trkpt>
      <trkpt lat="45.17157" lon="5.95098">
        <ele>2627.1</ele>
        <time>2021-02-20T11:07:28Z</time>
      </trkpt>
      <trkpt lat="45.17157" lon="5.95098">
        <ele>2628.3</ele>
        <time>2021-02-20T11:07:29Z</time>
      </trkpt>
      <trkpt lat="45.17157" lon="5.95098">
        <ele>2628.3</ele>
        <time>2021-02-20T11:07:30Z</time>
      </trkpt>
      <trkpt lat="45.17157" lon="5.95098">
        <ele>2628.3</ele>
        <time>2021-02-20T11:07:31Z</time>
      </trkpt>
      <trkpt lat="45.17157" lon="5.95098">
        <ele>2628.3</ele>
        <time>2021-02-20T11:07:32Z</time>
      </trkpt>
      <trkpt lat="45.17157" lon="5.95098">
        <ele>2628.3</ele>
        <time>2021-02-20T11:07:33Z</time>
      </trkpt>
      <trkpt lat="45.17157" lon="5.95098">
        <ele>2628.3</ele>
        <time>2021-02-20T11:07:34Z</time>
      </trkpt>
      <trkpt lat="45.17157" lon="5.95098">
        <ele>2628.3</ele>
        <time>2021-02-20T11:07:35Z</time>
      </trkpt>
      <trkpt lat="45.17157" lon="5.95098">
        <ele>2628.3</ele>
        <time>2021-02-20T11:07:36Z</time>
      </trkpt>
      <trkpt lat="45.17157" lon="5.95098">
        <ele>2628.3</ele>
        <time>2021-02-20T11:07:37Z</time>
      </trkpt>
      <trkpt lat="45.17157" lon="5.95098">
        <ele>2628.3</ele>
        <time>2021-02-20T11:07:38Z</time>
      </trkpt>
      <trkpt lat="45.17157" lon="5.95098">
        <ele>2628.3</ele>
        <time>2021-02-20T11:07:39Z</time>
      </trkpt>
      <trkpt lat="45.17157" lon="5.95098">
        <ele>2628.3</ele>
        <time>2021-02-20T11:07:40Z</time>
      </trkpt>
      <trkpt lat="45.17157" lon="5.95098">
        <ele>2628.3</ele>
        <time>2021-02-20T11:07:41Z</time>
      </trkpt>
      <trkpt lat="45.17157" lon="5.95098">
        <ele>2628.3</ele>
        <time>2021-02-20T11:07:42Z</time>
      </trkpt>
      <trkpt lat="45.17157" lon="5.95098">
        <ele>2628.3</ele>
        <time>2021-02-20T11:07:43Z</time>
      </trkpt>
      <trkpt lat="45.17157" lon="5.95098">
        <ele>2628.3</ele>
        <time>2021-02-20T11:07:44Z</time>
      </trkpt>
      <trkpt lat="45.17157" lon="5.95098">
        <ele>2628.3</ele>
        <time>2021-02-20T11:07:45Z</time>
      </trkpt>
      <trkpt lat="45.17157" lon="5.95098">
        <ele>2628.3</ele>
        <time>2021-02-20T11:07:46Z</time>
      </trkpt>
      <trkpt lat="45.17157" lon="5.95098">
        <ele>2628.3</ele>
        <time>2021-02-20T11:07:47Z</time>
      </trkpt>
      <trkpt lat="45.17157" lon="5.95098">
        <ele>2628.3</ele>
        <time>2021-02-20T11:07:48Z</time>
      </trkpt>
      <trkpt lat="45.17157" lon="5.95098">
        <ele>2628.3</ele>
        <time>2021-02-20T11:07:49Z</time>
      </trkpt>
      <trkpt lat="45.17156" lon="5.95098">
        <ele>2628.3</ele>
        <time>2021-02-20T11:07:50Z</time>
      </trkpt>
      <trkpt lat="45.17156" lon="5.95098">
        <ele>2628.3</ele>
        <time>2021-02-20T11:07:51Z</time>
      </trkpt>
      <trkpt lat="45.17156" lon="5.95098">
        <ele>2628.3</ele>
        <time>2021-02-20T11:07:52Z</time>
      </trkpt>
      <trkpt lat="45.17156" lon="5.95098">
        <ele>2628.3</ele>
        <time>2021-02-20T11:07:53Z</time>
      </trkpt>
      <trkpt lat="45.17156" lon="5.95098">
        <ele>2628.3</ele>
        <time>2021-02-20T11:07:54Z</time>
      </trkpt>
      <trkpt lat="45.17156" lon="5.95098">
        <ele>2628.3</ele>
        <time>2021-02-20T11:07:55Z</time>
      </trkpt>
      <trkpt lat="45.17156" lon="5.95098">
        <ele>2628.3</ele>
        <time>2021-02-20T11:07:56Z</time>
      </trkpt>
      <trkpt lat="45.17156" lon="5.95098">
        <ele>2628.3</ele>
        <time>2021-02-20T11:07:57Z</time>
      </trkpt>
      <trkpt lat="45.17156" lon="5.95098">
        <ele>2628.3</ele>
        <time>2021-02-20T11:07:58Z</time>
      </trkpt>
      <trkpt lat="45.17156" lon="5.95098">
        <ele>2628.3</ele>
        <time>2021-02-20T11:07:59Z</time>
      </trkpt>
      <trkpt lat="45.17156" lon="5.95098">
        <ele>2628.3</ele>
        <time>2021-02-20T11:08:00Z</time>
      </trkpt>
      <trkpt lat="45.17156" lon="5.95098">
        <ele>2628.3</ele>
        <time>2021-02-20T11:08:01Z</time>
      </trkpt>
      <trkpt lat="45.17156" lon="5.95099">
        <ele>2628.9</ele>
        <time>2021-02-20T11:08:02Z</time>
      </trkpt>
      <trkpt lat="45.17156" lon="5.95099">
        <ele>2628.9</ele>
        <time>2021-02-20T11:08:03Z</time>
      </trkpt>
      <trkpt lat="45.17156" lon="5.95099">
        <ele>2628.9</ele>
        <time>2021-02-20T11:08:04Z</time>
      </trkpt>
      <trkpt lat="45.17156" lon="5.95099">
        <ele>2628.9</ele>
        <time>2021-02-20T11:08:05Z</time>
      </trkpt>
      <trkpt lat="45.17156" lon="5.95099">
        <ele>2628.9</ele>
        <time>2021-02-20T11:08:06Z</time>
      </trkpt>
      <trkpt lat="45.17156" lon="5.95099">
        <ele>2628.9</ele>
        <time>2021-02-20T11:08:07Z</time>
      </trkpt>
      <trkpt lat="45.17156" lon="5.95099">
        <ele>2628.9</ele>
        <time>2021-02-20T11:08:08Z</time>
      </trkpt>
      <trkpt lat="45.17156" lon="5.95099">
        <ele>2628.9</ele>
        <time>2021-02-20T11:08:09Z</time>
      </trkpt>
      <trkpt lat="45.17156" lon="5.95099">
        <ele>2628.9</ele>
        <time>2021-02-20T11:08:10Z</time>
      </trkpt>
      <trkpt lat="45.17156" lon="5.95099">
        <ele>2628.9</ele>
        <time>2021-02-20T11:08:11Z</time>
      </trkpt>
      <trkpt lat="45.17156" lon="5.95099">
        <ele>2628.9</ele>
        <time>2021-02-20T11:08:12Z</time>
      </trkpt>
      <trkpt lat="45.17156" lon="5.95099">
        <ele>2628.9</ele>
        <time>2021-02-20T11:08:13Z</time>
      </trkpt>
      <trkpt lat="45.17156" lon="5.95099">
        <ele>2628.9</ele>
        <time>2021-02-20T11:08:14Z</time>
      </trkpt>
      <trkpt lat="45.17156" lon="5.95099">
        <ele>2628.9</ele>
        <time>2021-02-20T11:08:15Z</time>
      </trkpt>
      <trkpt lat="45.17156" lon="5.95099">
        <ele>2628.9</ele>
        <time>2021-02-20T11:08:16Z</time>
      </trkpt>
      <trkpt lat="45.17156" lon="5.95099">
        <ele>2628.9</ele>
        <time>2021-02-20T11:08:17Z</time>
      </trkpt>
      <trkpt lat="45.17156" lon="5.95099">
        <ele>2628.9</ele>
        <time>2021-02-20T11:08:18Z</time>
      </trkpt>
      <trkpt lat="45.17156" lon="5.95099">
        <ele>2628.9</ele>
        <time>2021-02-20T11:08:19Z</time>
      </trkpt>
      <trkpt lat="45.17156" lon="5.95099">
        <ele>2628.9</ele>
        <time>2021-02-20T11:08:20Z</time>
      </trkpt>
      <trkpt lat="45.17156" lon="5.95099">
        <ele>2628.9</ele>
        <time>2021-02-20T11:08:21Z</time>
      </trkpt>
      <trkpt lat="45.17156" lon="5.95099">
        <ele>2628.9</ele>
        <time>2021-02-20T11:08:22Z</time>
      </trkpt>
      <trkpt lat="45.17156" lon="5.95099">
        <ele>2628.9</ele>
        <time>2021-02-20T11:08:23Z</time>
      </trkpt>
      <trkpt lat="45.17156" lon="5.95099">
        <ele>2628.9</ele>
        <time>2021-02-20T11:08:24Z</time>
      </trkpt>
      <trkpt lat="45.17156" lon="5.95099">
        <ele>2628.9</ele>
        <time>2021-02-20T11:08:25Z</time>
      </trkpt>
      <trkpt lat="45.17156" lon="5.95099">
        <ele>2628.9</ele>
        <time>2021-02-20T11:08:26Z</time>
      </trkpt>
      <trkpt lat="45.17156" lon="5.95099">
        <ele>2628.9</ele>
        <time>2021-02-20T11:08:27Z</time>
      </trkpt>
      <trkpt lat="45.17156" lon="5.95099">
        <ele>2628.9</ele>
        <time>2021-02-20T11:08:28Z</time>
      </trkpt>
      <trkpt lat="45.17156" lon="5.95099">
        <ele>2628.9</ele>
        <time>2021-02-20T11:08:29Z</time>
      </trkpt>
      <trkpt lat="45.17156" lon="5.95099">
        <ele>2628.9</ele>
        <time>2021-02-20T11:08:30Z</time>
      </trkpt>
      <trkpt lat="45.17156" lon="5.95099">
        <ele>2628.9</ele>
        <time>2021-02-20T11:08:31Z</time>
      </trkpt>
      <trkpt lat="45.17156" lon="5.95099">
        <ele>2628.9</ele>
        <time>2021-02-20T11:08:32Z</time>
      </trkpt>
      <trkpt lat="45.17156" lon="5.95099">
        <ele>2628.9</ele>
        <time>2021-02-20T11:08:33Z</time>
      </trkpt>
      <trkpt lat="45.17156" lon="5.95099">
        <ele>2628.9</ele>
        <time>2021-02-20T11:08:34Z</time>
      </trkpt>
      <trkpt lat="45.17156" lon="5.95099">
        <ele>2628.9</ele>
        <time>2021-02-20T11:08:35Z</time>
      </trkpt>
      <trkpt lat="45.17156" lon="5.95099">
        <ele>2628.9</ele>
        <time>2021-02-20T11:08:36Z</time>
      </trkpt>
      <trkpt lat="45.17156" lon="5.95099">
        <ele>2628.9</ele>
        <time>2021-02-20T11:08:37Z</time>
      </trkpt>
      <trkpt lat="45.17156" lon="5.95099">
        <ele>2628.9</ele>
        <time>2021-02-20T11:08:38Z</time>
      </trkpt>
      <trkpt lat="45.17156" lon="5.95099">
        <ele>2628.9</ele>
        <time>2021-02-20T11:08:39Z</time>
      </trkpt>
      <trkpt lat="45.17156" lon="5.95099">
        <ele>2628.9</ele>
        <time>2021-02-20T11:08:40Z</time>
      </trkpt>
      <trkpt lat="45.17156" lon="5.95099">
        <ele>2628.9</ele>
        <time>2021-02-20T11:08:41Z</time>
      </trkpt>
      <trkpt lat="45.17156" lon="5.95099">
        <ele>2628.9</ele>
        <time>2021-02-20T11:08:42Z</time>
      </trkpt>
      <trkpt lat="45.17156" lon="5.95099">
        <ele>2628.9</ele>
        <time>2021-02-20T11:08:43Z</time>
      </trkpt>
      <trkpt lat="45.17156" lon="5.95099">
        <ele>2628.9</ele>
        <time>2021-02-20T11:08:44Z</time>
      </trkpt>
      <trkpt lat="45.17156" lon="5.95099">
        <ele>2628.9</ele>
        <time>2021-02-20T11:08:45Z</time>
      </trkpt>
      <trkpt lat="45.17156" lon="5.95099">
        <ele>2628.9</ele>
        <time>2021-02-20T11:08:46Z</time>
      </trkpt>
      <trkpt lat="45.17156" lon="5.95099">
        <ele>2628.9</ele>
        <time>2021-02-20T11:08:47Z</time>
      </trkpt>
      <trkpt lat="45.17156" lon="5.95099">
        <ele>2628.9</ele>
        <time>2021-02-20T11:08:48Z</time>
      </trkpt>
      <trkpt lat="45.17156" lon="5.95099">
        <ele>2628.9</ele>
        <time>2021-02-20T11:08:49Z</time>
      </trkpt>
      <trkpt lat="45.17156" lon="5.95099">
        <ele>2628.9</ele>
        <time>2021-02-20T11:08:50Z</time>
      </trkpt>
      <trkpt lat="45.17156" lon="5.95099">
        <ele>2628.9</ele>
        <time>2021-02-20T11:08:51Z</time>
      </trkpt>
      <trkpt lat="45.17156" lon="5.95099">
        <ele>2628.9</ele>
        <time>2021-02-20T11:08:52Z</time>
      </trkpt>
      <trkpt lat="45.17156" lon="5.95099">
        <ele>2628.9</ele>
        <time>2021-02-20T11:08:53Z</time>
      </trkpt>
      <trkpt lat="45.17156" lon="5.95099">
        <ele>2628.9</ele>
        <time>2021-02-20T11:08:54Z</time>
      </trkpt>
      <trkpt lat="45.17156" lon="5.95099">
        <ele>2628.9</ele>
        <time>2021-02-20T11:08:55Z</time>
      </trkpt>
      <trkpt lat="45.17156" lon="5.95099">
        <ele>2628.9</ele>
        <time>2021-02-20T11:08:56Z</time>
      </trkpt>
      <trkpt lat="45.17156" lon="5.95099">
        <ele>2628.9</ele>
        <time>2021-02-20T11:08:57Z</time>
      </trkpt>
      <trkpt lat="45.17156" lon="5.95099">
        <ele>2628.9</ele>
        <time>2021-02-20T11:08:58Z</time>
      </trkpt>
      <trkpt lat="45.17156" lon="5.95099">
        <ele>2628.9</ele>
        <time>2021-02-20T11:08:59Z</time>
      </trkpt>
      <trkpt lat="45.17156" lon="5.95099">
        <ele>2628.9</ele>
        <time>2021-02-20T11:09:00Z</time>
      </trkpt>
      <trkpt lat="45.17156" lon="5.95099">
        <ele>2628.9</ele>
        <time>2021-02-20T11:09:01Z</time>
      </trkpt>
      <trkpt lat="45.17156" lon="5.95099">
        <ele>2628.9</ele>
        <time>2021-02-20T11:09:02Z</time>
      </trkpt>
      <trkpt lat="45.17156" lon="5.95099">
        <ele>2628.9</ele>
        <time>2021-02-20T11:09:03Z</time>
      </trkpt>
      <trkpt lat="45.17156" lon="5.95099">
        <ele>2628.9</ele>
        <time>2021-02-20T11:09:04Z</time>
      </trkpt>
      <trkpt lat="45.17156" lon="5.95099">
        <ele>2628.9</ele>
        <time>2021-02-20T11:09:05Z</time>
      </trkpt>
      <trkpt lat="45.17156" lon="5.95099">
        <ele>2628.9</ele>
        <time>2021-02-20T11:09:06Z</time>
      </trkpt>
      <trkpt lat="45.17156" lon="5.95099">
        <ele>2628.9</ele>
        <time>2021-02-20T11:09:07Z</time>
      </trkpt>
      <trkpt lat="45.17156" lon="5.95099">
        <ele>2628.9</ele>
        <time>2021-02-20T11:09:08Z</time>
      </trkpt>
      <trkpt lat="45.17156" lon="5.95099">
        <ele>2628.9</ele>
        <time>2021-02-20T11:09:09Z</time>
      </trkpt>
      <trkpt lat="45.17156" lon="5.95099">
        <ele>2628.9</ele>
        <time>2021-02-20T11:09:10Z</time>
      </trkpt>
      <trkpt lat="45.17156" lon="5.95099">
        <ele>2628.9</ele>
        <time>2021-02-20T11:09:11Z</time>
      </trkpt>
      <trkpt lat="45.17156" lon="5.95099">
        <ele>2628.9</ele>
        <time>2021-02-20T11:09:12Z</time>
      </trkpt>
      <trkpt lat="45.17156" lon="5.95099">
        <ele>2628.9</ele>
        <time>2021-02-20T11:09:13Z</time>
      </trkpt>
      <trkpt lat="45.17156" lon="5.95099">
        <ele>2628.9</ele>
        <time>2021-02-20T11:09:14Z</time>
      </trkpt>
      <trkpt lat="45.17156" lon="5.95099">
        <ele>2628.9</ele>
        <time>2021-02-20T11:09:15Z</time>
      </trkpt>
      <trkpt lat="45.17156" lon="5.95099">
        <ele>2628.9</ele>
        <time>2021-02-20T11:09:16Z</time>
      </trkpt>
      <trkpt lat="45.17156" lon="5.95099">
        <ele>2628.9</ele>
        <time>2021-02-20T11:09:17Z</time>
      </trkpt>
      <trkpt lat="45.17156" lon="5.95099">
        <ele>2628.9</ele>
        <time>2021-02-20T11:09:18Z</time>
      </trkpt>
      <trkpt lat="45.17156" lon="5.95099">
        <ele>2628.9</ele>
        <time>2021-02-20T11:09:19Z</time>
      </trkpt>
      <trkpt lat="45.17156" lon="5.95099">
        <ele>2628.9</ele>
        <time>2021-02-20T11:09:20Z</time>
      </trkpt>
      <trkpt lat="45.17157" lon="5.95099">
        <ele>2628.9</ele>
        <time>2021-02-20T11:09:21Z</time>
      </trkpt>
      <trkpt lat="45.17157" lon="5.951">
        <ele>2628.9</ele>
        <time>2021-02-20T11:09:22Z</time>
      </trkpt>
      <trkpt lat="45.17156" lon="5.95101">
        <ele>2628.9</ele>
        <time>2021-02-20T11:09:23Z</time>
      </trkpt>
      <trkpt lat="45.17156" lon="5.95102">
        <ele>2628.9</ele>
        <time>2021-02-20T11:09:24Z</time>
      </trkpt>
      <trkpt lat="45.17156" lon="5.95102">
        <ele>2628.9</ele>
        <time>2021-02-20T11:09:25Z</time>
      </trkpt>
      <trkpt lat="45.17155" lon="5.95103">
        <ele>2628.9</ele>
        <time>2021-02-20T11:09:26Z</time>
      </trkpt>
      <trkpt lat="45.17155" lon="5.95103">
        <ele>2629.5</ele>
        <time>2021-02-20T11:09:27Z</time>
      </trkpt>
      <trkpt lat="45.17154" lon="5.95104">
        <ele>2629.5</ele>
        <time>2021-02-20T11:09:28Z</time>
      </trkpt>
      <trkpt lat="45.17154" lon="5.95105">
        <ele>2629.5</ele>
        <time>2021-02-20T11:09:29Z</time>
      </trkpt>
      <trkpt lat="45.17154" lon="5.95105">
        <ele>2630.5</ele>
        <time>2021-02-20T11:09:30Z</time>
      </trkpt>
      <trkpt lat="45.17154" lon="5.95105">
        <ele>2630.5</ele>
        <time>2021-02-20T11:09:31Z</time>
      </trkpt>
      <trkpt lat="45.17154" lon="5.95106">
        <ele>2630.5</ele>
        <time>2021-02-20T11:09:32Z</time>
      </trkpt>
      <trkpt lat="45.17154" lon="5.95106">
        <ele>2630.5</ele>
        <time>2021-02-20T11:09:33Z</time>
      </trkpt>
      <trkpt lat="45.17154" lon="5.95106">
        <ele>2630.5</ele>
        <time>2021-02-20T11:09:34Z</time>
      </trkpt>
      <trkpt lat="45.17154" lon="5.95106">
        <ele>2630.5</ele>
        <time>2021-02-20T11:09:35Z</time>
      </trkpt>
      <trkpt lat="45.17154" lon="5.95106">
        <ele>2630.5</ele>
        <time>2021-02-20T11:09:36Z</time>
      </trkpt>
      <trkpt lat="45.17154" lon="5.95106">
        <ele>2630.5</ele>
        <time>2021-02-20T11:09:37Z</time>
      </trkpt>
      <trkpt lat="45.17154" lon="5.95106">
        <ele>2630.5</ele>
        <time>2021-02-20T11:09:38Z</time>
      </trkpt>
      <trkpt lat="45.17154" lon="5.95106">
        <ele>2630.5</ele>
        <time>2021-02-20T11:09:39Z</time>
      </trkpt>
      <trkpt lat="45.17154" lon="5.95106">
        <ele>2630.5</ele>
        <time>2021-02-20T11:09:40Z</time>
      </trkpt>
      <trkpt lat="45.17153" lon="5.95106">
        <ele>2630.5</ele>
        <time>2021-02-20T11:09:41Z</time>
      </trkpt>
      <trkpt lat="45.17153" lon="5.95106">
        <ele>2630.5</ele>
        <time>2021-02-20T11:09:42Z</time>
      </trkpt>
      <trkpt lat="45.17153" lon="5.95106">
        <ele>2630.5</ele>
        <time>2021-02-20T11:09:43Z</time>
      </trkpt>
      <trkpt lat="45.17153" lon="5.95106">
        <ele>2630.5</ele>
        <time>2021-02-20T11:09:44Z</time>
      </trkpt>
      <trkpt lat="45.17153" lon="5.95106">
        <ele>2630.5</ele>
        <time>2021-02-20T11:09:45Z</time>
      </trkpt>
      <trkpt lat="45.17153" lon="5.95106">
        <ele>2630.5</ele>
        <time>2021-02-20T11:09:46Z</time>
      </trkpt>
      <trkpt lat="45.17153" lon="5.95106">
        <ele>2630.5</ele>
        <time>2021-02-20T11:09:47Z</time>
      </trkpt>
      <trkpt lat="45.17153" lon="5.95106">
        <ele>2630.5</ele>
        <time>2021-02-20T11:09:48Z</time>
      </trkpt>
      <trkpt lat="45.17153" lon="5.95106">
        <ele>2630.5</ele>
        <time>2021-02-20T11:09:49Z</time>
      </trkpt>
      <trkpt lat="45.17153" lon="5.95106">
        <ele>2630.5</ele>
        <time>2021-02-20T11:09:50Z</time>
      </trkpt>
      <trkpt lat="45.17153" lon="5.95106">
        <ele>2630.5</ele>
        <time>2021-02-20T11:09:51Z</time>
      </trkpt>
      <trkpt lat="45.17153" lon="5.95106">
        <ele>2630.5</ele>
        <time>2021-02-20T11:09:52Z</time>
      </trkpt>
      <trkpt lat="45.17153" lon="5.95106">
        <ele>2630.5</ele>
        <time>2021-02-20T11:09:53Z</time>
      </trkpt>
      <trkpt lat="45.17153" lon="5.95106">
        <ele>2630.5</ele>
        <time>2021-02-20T11:09:54Z</time>
      </trkpt>
      <trkpt lat="45.17152" lon="5.95108">
        <ele>2631</ele>
        <time>2021-02-20T11:09:55Z</time>
      </trkpt>
      <trkpt lat="45.17152" lon="5.95108">
        <ele>2631</ele>
        <time>2021-02-20T11:09:56Z</time>
      </trkpt>
      <trkpt lat="45.17152" lon="5.95108">
        <ele>2631</ele>
        <time>2021-02-20T11:09:57Z</time>
      </trkpt>
      <trkpt lat="45.17152" lon="5.95108">
        <ele>2631</ele>
        <time>2021-02-20T11:09:58Z</time>
      </trkpt>
      <trkpt lat="45.17152" lon="5.95108">
        <ele>2631</ele>
        <time>2021-02-20T11:09:59Z</time>
      </trkpt>
      <trkpt lat="45.17152" lon="5.95108">
        <ele>2631</ele>
        <time>2021-02-20T11:10:00Z</time>
      </trkpt>
      <trkpt lat="45.17152" lon="5.95108">
        <ele>2631</ele>
        <time>2021-02-20T11:10:01Z</time>
      </trkpt>
      <trkpt lat="45.17152" lon="5.95109">
        <ele>2631</ele>
        <time>2021-02-20T11:10:02Z</time>
      </trkpt>
      <trkpt lat="45.17151" lon="5.95109">
        <ele>2631</ele>
        <time>2021-02-20T11:10:03Z</time>
      </trkpt>
      <trkpt lat="45.17151" lon="5.95109">
        <ele>2631</ele>
        <time>2021-02-20T11:10:04Z</time>
      </trkpt>
      <trkpt lat="45.17151" lon="5.9511">
        <ele>2631</ele>
        <time>2021-02-20T11:10:05Z</time>
      </trkpt>
      <trkpt lat="45.17151" lon="5.9511">
        <ele>2631</ele>
        <time>2021-02-20T11:10:06Z</time>
      </trkpt>
      <trkpt lat="45.17151" lon="5.9511">
        <ele>2631</ele>
        <time>2021-02-20T11:10:07Z</time>
      </trkpt>
      <trkpt lat="45.17151" lon="5.9511">
        <ele>2631</ele>
        <time>2021-02-20T11:10:08Z</time>
      </trkpt>
      <trkpt lat="45.17151" lon="5.9511">
        <ele>2631</ele>
        <time>2021-02-20T11:10:09Z</time>
      </trkpt>
      <trkpt lat="45.17151" lon="5.9511">
        <ele>2631</ele>
        <time>2021-02-20T11:10:10Z</time>
      </trkpt>
      <trkpt lat="45.17151" lon="5.9511">
        <ele>2631</ele>
        <time>2021-02-20T11:10:11Z</time>
      </trkpt>
      <trkpt lat="45.17151" lon="5.9511">
        <ele>2631</ele>
        <time>2021-02-20T11:10:12Z</time>
      </trkpt>
      <trkpt lat="45.17151" lon="5.9511">
        <ele>2631</ele>
        <time>2021-02-20T11:10:13Z</time>
      </trkpt>
      <trkpt lat="45.17151" lon="5.9511">
        <ele>2631</ele>
        <time>2021-02-20T11:10:14Z</time>
      </trkpt>
      <trkpt lat="45.17151" lon="5.9511">
        <ele>2631</ele>
        <time>2021-02-20T11:10:15Z</time>
      </trkpt>
      <trkpt lat="45.17151" lon="5.9511">
        <ele>2631</ele>
        <time>2021-02-20T11:10:16Z</time>
      </trkpt>
      <trkpt lat="45.17151" lon="5.9511">
        <ele>2631</ele>
        <time>2021-02-20T11:10:17Z</time>
      </trkpt>
      <trkpt lat="45.17151" lon="5.9511">
        <ele>2631</ele>
        <time>2021-02-20T11:10:18Z</time>
      </trkpt>
      <trkpt lat="45.17151" lon="5.9511">
        <ele>2631</ele>
        <time>2021-02-20T11:10:19Z</time>
      </trkpt>
      <trkpt lat="45.17151" lon="5.9511">
        <ele>2631</ele>
        <time>2021-02-20T11:10:20Z</time>
      </trkpt>
      <trkpt lat="45.1715" lon="5.95111">
        <ele>2632</ele>
        <time>2021-02-20T11:10:21Z</time>
      </trkpt>
      <trkpt lat="45.1715" lon="5.95111">
        <ele>2632.4</ele>
        <time>2021-02-20T11:10:22Z</time>
      </trkpt>
      <trkpt lat="45.17149" lon="5.95111">
        <ele>2632</ele>
        <time>2021-02-20T11:10:23Z</time>
      </trkpt>
      <trkpt lat="45.17149" lon="5.95111">
        <ele>2632</ele>
        <time>2021-02-20T11:10:24Z</time>
      </trkpt>
      <trkpt lat="45.17149" lon="5.95111">
        <ele>2632</ele>
        <time>2021-02-20T11:10:25Z</time>
      </trkpt>
      <trkpt lat="45.1715" lon="5.95111">
        <ele>2632</ele>
        <time>2021-02-20T11:10:26Z</time>
      </trkpt>
      <trkpt lat="45.17149" lon="5.95111">
        <ele>2632</ele>
        <time>2021-02-20T11:10:27Z</time>
      </trkpt>
      <trkpt lat="45.17149" lon="5.95111">
        <ele>2632</ele>
        <time>2021-02-20T11:10:28Z</time>
      </trkpt>
      <trkpt lat="45.17149" lon="5.95111">
        <ele>2632</ele>
        <time>2021-02-20T11:10:29Z</time>
      </trkpt>
      <trkpt lat="45.17149" lon="5.95111">
        <ele>2632</ele>
        <time>2021-02-20T11:10:30Z</time>
      </trkpt>
      <trkpt lat="45.17149" lon="5.9511">
        <ele>2632</ele>
        <time>2021-02-20T11:10:31Z</time>
      </trkpt>
      <trkpt lat="45.17149" lon="5.95111">
        <ele>2632</ele>
        <time>2021-02-20T11:10:32Z</time>
      </trkpt>
      <trkpt lat="45.17149" lon="5.95111">
        <ele>2632</ele>
        <time>2021-02-20T11:10:33Z</time>
      </trkpt>
      <trkpt lat="45.17149" lon="5.95111">
        <ele>2632</ele>
        <time>2021-02-20T11:10:34Z</time>
      </trkpt>
      <trkpt lat="45.17149" lon="5.95111">
        <ele>2632</ele>
        <time>2021-02-20T11:10:35Z</time>
      </trkpt>
      <trkpt lat="45.17149" lon="5.95111">
        <ele>2632</ele>
        <time>2021-02-20T11:10:36Z</time>
      </trkpt>
      <trkpt lat="45.17149" lon="5.95113">
        <ele>2632.4</ele>
        <time>2021-02-20T11:10:37Z</time>
      </trkpt>
      <trkpt lat="45.17149" lon="5.95114">
        <ele>2632.4</ele>
        <time>2021-02-20T11:10:38Z</time>
      </trkpt>
      <trkpt lat="45.17148" lon="5.95114">
        <ele>2632.4</ele>
        <time>2021-02-20T11:10:39Z</time>
      </trkpt>
      <trkpt lat="45.17148" lon="5.95114">
        <ele>2633.3</ele>
        <time>2021-02-20T11:10:40Z</time>
      </trkpt>
      <trkpt lat="45.17147" lon="5.95115">
        <ele>2633.3</ele>
        <time>2021-02-20T11:10:41Z</time>
      </trkpt>
      <trkpt lat="45.17147" lon="5.95116">
        <ele>2633.3</ele>
        <time>2021-02-20T11:10:42Z</time>
      </trkpt>
      <trkpt lat="45.17146" lon="5.95117">
        <ele>2633.7</ele>
        <time>2021-02-20T11:10:43Z</time>
      </trkpt>
      <trkpt lat="45.17146" lon="5.95117">
        <ele>2633.7</ele>
        <time>2021-02-20T11:10:44Z</time>
      </trkpt>
      <trkpt lat="45.17146" lon="5.95117">
        <ele>2633.7</ele>
        <time>2021-02-20T11:10:45Z</time>
      </trkpt>
      <trkpt lat="45.17146" lon="5.95118">
        <ele>2633.7</ele>
        <time>2021-02-20T11:10:46Z</time>
      </trkpt>
      <trkpt lat="45.17145" lon="5.95118">
        <ele>2633.7</ele>
        <time>2021-02-20T11:10:47Z</time>
      </trkpt>
      <trkpt lat="45.17145" lon="5.95118">
        <ele>2633.7</ele>
        <time>2021-02-20T11:10:48Z</time>
      </trkpt>
      <trkpt lat="45.17145" lon="5.95118">
        <ele>2633.7</ele>
        <time>2021-02-20T11:10:49Z</time>
      </trkpt>
      <trkpt lat="45.17145" lon="5.95118">
        <ele>2633.7</ele>
        <time>2021-02-20T11:10:50Z</time>
      </trkpt>
      <trkpt lat="45.17145" lon="5.95118">
        <ele>2633.7</ele>
        <time>2021-02-20T11:10:51Z</time>
      </trkpt>
      <trkpt lat="45.17145" lon="5.95118">
        <ele>2633.7</ele>
        <time>2021-02-20T11:10:52Z</time>
      </trkpt>
      <trkpt lat="45.17145" lon="5.95118">
        <ele>2634.4</ele>
        <time>2021-02-20T11:10:53Z</time>
      </trkpt>
      <trkpt lat="45.17145" lon="5.95118">
        <ele>2634.4</ele>
        <time>2021-02-20T11:10:54Z</time>
      </trkpt>
      <trkpt lat="45.17145" lon="5.95119">
        <ele>2634.4</ele>
        <time>2021-02-20T11:10:55Z</time>
      </trkpt>
      <trkpt lat="45.17144" lon="5.95119">
        <ele>2634.4</ele>
        <time>2021-02-20T11:10:56Z</time>
      </trkpt>
      <trkpt lat="45.17144" lon="5.95119">
        <ele>2634.4</ele>
        <time>2021-02-20T11:10:57Z</time>
      </trkpt>
      <trkpt lat="45.17144" lon="5.95119">
        <ele>2634.4</ele>
        <time>2021-02-20T11:10:58Z</time>
      </trkpt>
      <trkpt lat="45.17144" lon="5.95119">
        <ele>2634.4</ele>
        <time>2021-02-20T11:10:59Z</time>
      </trkpt>
      <trkpt lat="45.17144" lon="5.95119">
        <ele>2634.4</ele>
        <time>2021-02-20T11:11:00Z</time>
      </trkpt>
      <trkpt lat="45.17144" lon="5.95119">
        <ele>2634.4</ele>
        <time>2021-02-20T11:11:01Z</time>
      </trkpt>
      <trkpt lat="45.17144" lon="5.95119">
        <ele>2634.4</ele>
        <time>2021-02-20T11:11:02Z</time>
      </trkpt>
      <trkpt lat="45.17144" lon="5.9512">
        <ele>2634.4</ele>
        <time>2021-02-20T11:11:03Z</time>
      </trkpt>
      <trkpt lat="45.17144" lon="5.9512">
        <ele>2634.4</ele>
        <time>2021-02-20T11:11:04Z</time>
      </trkpt>
      <trkpt lat="45.17144" lon="5.9512">
        <ele>2634.4</ele>
        <time>2021-02-20T11:11:05Z</time>
      </trkpt>
      <trkpt lat="45.17143" lon="5.9512">
        <ele>2634.4</ele>
        <time>2021-02-20T11:11:06Z</time>
      </trkpt>
      <trkpt lat="45.17143" lon="5.9512">
        <ele>2634.8</ele>
        <time>2021-02-20T11:11:07Z</time>
      </trkpt>
      <trkpt lat="45.17143" lon="5.95122">
        <ele>2634.8</ele>
        <time>2021-02-20T11:11:08Z</time>
      </trkpt>
      <trkpt lat="45.17143" lon="5.95122">
        <ele>2634.8</ele>
        <time>2021-02-20T11:11:09Z</time>
      </trkpt>
      <trkpt lat="45.17143" lon="5.95122">
        <ele>2634.8</ele>
        <time>2021-02-20T11:11:10Z</time>
      </trkpt>
      <trkpt lat="45.17143" lon="5.95122">
        <ele>2634.8</ele>
        <time>2021-02-20T11:11:11Z</time>
      </trkpt>
      <trkpt lat="45.17142" lon="5.95122">
        <ele>2634.8</ele>
        <time>2021-02-20T11:11:12Z</time>
      </trkpt>
      <trkpt lat="45.17142" lon="5.95122">
        <ele>2634.8</ele>
        <time>2021-02-20T11:11:13Z</time>
      </trkpt>
      <trkpt lat="45.17142" lon="5.95123">
        <ele>2634.8</ele>
        <time>2021-02-20T11:11:14Z</time>
      </trkpt>
      <trkpt lat="45.17142" lon="5.95123">
        <ele>2634.8</ele>
        <time>2021-02-20T11:11:15Z</time>
      </trkpt>
      <trkpt lat="45.17142" lon="5.95123">
        <ele>2635.5</ele>
        <time>2021-02-20T11:11:16Z</time>
      </trkpt>
      <trkpt lat="45.17142" lon="5.95123">
        <ele>2635.5</ele>
        <time>2021-02-20T11:11:17Z</time>
      </trkpt>
      <trkpt lat="45.17142" lon="5.95123">
        <ele>2635.5</ele>
        <time>2021-02-20T11:11:18Z</time>
      </trkpt>
      <trkpt lat="45.17141" lon="5.95123">
        <ele>2635.5</ele>
        <time>2021-02-20T11:11:19Z</time>
      </trkpt>
      <trkpt lat="45.17141" lon="5.95123">
        <ele>2635.5</ele>
        <time>2021-02-20T11:11:20Z</time>
      </trkpt>
      <trkpt lat="45.17141" lon="5.95123">
        <ele>2635.5</ele>
        <time>2021-02-20T11:11:21Z</time>
      </trkpt>
      <trkpt lat="45.17141" lon="5.95124">
        <ele>2635.5</ele>
        <time>2021-02-20T11:11:22Z</time>
      </trkpt>
      <trkpt lat="45.17141" lon="5.95124">
        <ele>2635.5</ele>
        <time>2021-02-20T11:11:23Z</time>
      </trkpt>
      <trkpt lat="45.17141" lon="5.95124">
        <ele>2635.5</ele>
        <time>2021-02-20T11:11:24Z</time>
      </trkpt>
      <trkpt lat="45.17141" lon="5.95124">
        <ele>2635.5</ele>
        <time>2021-02-20T11:11:25Z</time>
      </trkpt>
      <trkpt lat="45.1714" lon="5.95124">
        <ele>2635.5</ele>
        <time>2021-02-20T11:11:26Z</time>
      </trkpt>
      <trkpt lat="45.1714" lon="5.95124">
        <ele>2635.5</ele>
        <time>2021-02-20T11:11:27Z</time>
      </trkpt>
      <trkpt lat="45.1714" lon="5.95124">
        <ele>2635.5</ele>
        <time>2021-02-20T11:11:28Z</time>
      </trkpt>
      <trkpt lat="45.1714" lon="5.95124">
        <ele>2635.5</ele>
        <time>2021-02-20T11:11:29Z</time>
      </trkpt>
      <trkpt lat="45.1714" lon="5.95124">
        <ele>2635.5</ele>
        <time>2021-02-20T11:11:30Z</time>
      </trkpt>
      <trkpt lat="45.1714" lon="5.95124">
        <ele>2635.5</ele>
        <time>2021-02-20T11:11:31Z</time>
      </trkpt>
      <trkpt lat="45.1714" lon="5.95124">
        <ele>2635.5</ele>
        <time>2021-02-20T11:11:32Z</time>
      </trkpt>
      <trkpt lat="45.1714" lon="5.95124">
        <ele>2635.5</ele>
        <time>2021-02-20T11:11:33Z</time>
      </trkpt>
      <trkpt lat="45.1714" lon="5.95124">
        <ele>2635.5</ele>
        <time>2021-02-20T11:11:34Z</time>
      </trkpt>
      <trkpt lat="45.1714" lon="5.95124">
        <ele>2635.5</ele>
        <time>2021-02-20T11:11:35Z</time>
      </trkpt>
      <trkpt lat="45.1714" lon="5.95124">
        <ele>2635.5</ele>
        <time>2021-02-20T11:11:36Z</time>
      </trkpt>
      <trkpt lat="45.17139" lon="5.95126">
        <ele>2635.9</ele>
        <time>2021-02-20T11:11:37Z</time>
      </trkpt>
      <trkpt lat="45.17139" lon="5.95126">
        <ele>2636.5</ele>
        <time>2021-02-20T11:11:38Z</time>
      </trkpt>
      <trkpt lat="45.17139" lon="5.95126">
        <ele>2635.9</ele>
        <time>2021-02-20T11:11:39Z</time>
      </trkpt>
      <trkpt lat="45.1714" lon="5.95126">
        <ele>2635.9</ele>
        <time>2021-02-20T11:11:40Z</time>
      </trkpt>
      <trkpt lat="45.1714" lon="5.95127">
        <ele>2635.9</ele>
        <time>2021-02-20T11:11:41Z</time>
      </trkpt>
      <trkpt lat="45.17139" lon="5.95128">
        <ele>2635.9</ele>
        <time>2021-02-20T11:11:42Z</time>
      </trkpt>
      <trkpt lat="45.17139" lon="5.95128">
        <ele>2635.9</ele>
        <time>2021-02-20T11:11:43Z</time>
      </trkpt>
      <trkpt lat="45.17139" lon="5.95128">
        <ele>2635.9</ele>
        <time>2021-02-20T11:11:44Z</time>
      </trkpt>
      <trkpt lat="45.17139" lon="5.95128">
        <ele>2635.9</ele>
        <time>2021-02-20T11:11:45Z</time>
      </trkpt>
      <trkpt lat="45.1714" lon="5.95128">
        <ele>2635.9</ele>
        <time>2021-02-20T11:11:46Z</time>
      </trkpt>
      <trkpt lat="45.1714" lon="5.95128">
        <ele>2635.9</ele>
        <time>2021-02-20T11:11:47Z</time>
      </trkpt>
      <trkpt lat="45.1714" lon="5.95127">
        <ele>2635.9</ele>
        <time>2021-02-20T11:11:48Z</time>
      </trkpt>
      <trkpt lat="45.1714" lon="5.95127">
        <ele>2635.9</ele>
        <time>2021-02-20T11:11:49Z</time>
      </trkpt>
      <trkpt lat="45.1714" lon="5.95127">
        <ele>2635.9</ele>
        <time>2021-02-20T11:11:50Z</time>
      </trkpt>
      <trkpt lat="45.1714" lon="5.95127">
        <ele>2635.9</ele>
        <time>2021-02-20T11:11:51Z</time>
      </trkpt>
      <trkpt lat="45.1714" lon="5.95127">
        <ele>2635.9</ele>
        <time>2021-02-20T11:11:52Z</time>
      </trkpt>
      <trkpt lat="45.1714" lon="5.95127">
        <ele>2635.9</ele>
        <time>2021-02-20T11:11:53Z</time>
      </trkpt>
      <trkpt lat="45.1714" lon="5.95127">
        <ele>2635.9</ele>
        <time>2021-02-20T11:11:54Z</time>
      </trkpt>
      <trkpt lat="45.1714" lon="5.95127">
        <ele>2635.9</ele>
        <time>2021-02-20T11:11:55Z</time>
      </trkpt>
      <trkpt lat="45.1714" lon="5.95127">
        <ele>2635.9</ele>
        <time>2021-02-20T11:11:56Z</time>
      </trkpt>
      <trkpt lat="45.1714" lon="5.95127">
        <ele>2635.9</ele>
        <time>2021-02-20T11:11:57Z</time>
      </trkpt>
      <trkpt lat="45.1714" lon="5.95127">
        <ele>2635.9</ele>
        <time>2021-02-20T11:11:58Z</time>
      </trkpt>
      <trkpt lat="45.1714" lon="5.95127">
        <ele>2635.9</ele>
        <time>2021-02-20T11:11:59Z</time>
      </trkpt>
      <trkpt lat="45.1714" lon="5.95127">
        <ele>2635.9</ele>
        <time>2021-02-20T11:12:00Z</time>
      </trkpt>
      <trkpt lat="45.1714" lon="5.95127">
        <ele>2635.9</ele>
        <time>2021-02-20T11:12:01Z</time>
      </trkpt>
      <trkpt lat="45.17141" lon="5.95124">
        <ele>2635.5</ele>
        <time>2021-02-20T11:12:02Z</time>
      </trkpt>
      <trkpt lat="45.1714" lon="5.95124">
        <ele>2635.5</ele>
        <time>2021-02-20T11:12:03Z</time>
      </trkpt>
      <trkpt lat="45.1714" lon="5.95124">
        <ele>2635.5</ele>
        <time>2021-02-20T11:12:04Z</time>
      </trkpt>
      <trkpt lat="45.1714" lon="5.95124">
        <ele>2635.5</ele>
        <time>2021-02-20T11:12:05Z</time>
      </trkpt>
      <trkpt lat="45.1714" lon="5.95124">
        <ele>2635.5</ele>
        <time>2021-02-20T11:12:06Z</time>
      </trkpt>
      <trkpt lat="45.1714" lon="5.95124">
        <ele>2635.5</ele>
        <time>2021-02-20T11:12:07Z</time>
      </trkpt>
      <trkpt lat="45.1714" lon="5.95124">
        <ele>2635.5</ele>
        <time>2021-02-20T11:12:08Z</time>
      </trkpt>
      <trkpt lat="45.1714" lon="5.95124">
        <ele>2635.5</ele>
        <time>2021-02-20T11:12:09Z</time>
      </trkpt>
      <trkpt lat="45.1714" lon="5.95124">
        <ele>2635.5</ele>
        <time>2021-02-20T11:12:10Z</time>
      </trkpt>
      <trkpt lat="45.1714" lon="5.95124">
        <ele>2635.5</ele>
        <time>2021-02-20T11:12:11Z</time>
      </trkpt>
      <trkpt lat="45.1714" lon="5.95124">
        <ele>2635.5</ele>
        <time>2021-02-20T11:12:12Z</time>
      </trkpt>
      <trkpt lat="45.1714" lon="5.95124">
        <ele>2635.5</ele>
        <time>2021-02-20T11:12:13Z</time>
      </trkpt>
      <trkpt lat="45.1714" lon="5.95124">
        <ele>2635.5</ele>
        <time>2021-02-20T11:12:14Z</time>
      </trkpt>
      <trkpt lat="45.1714" lon="5.95124">
        <ele>2635.5</ele>
        <time>2021-02-20T11:12:15Z</time>
      </trkpt>
      <trkpt lat="45.1714" lon="5.95124">
        <ele>2635.5</ele>
        <time>2021-02-20T11:12:16Z</time>
      </trkpt>
      <trkpt lat="45.1714" lon="5.95124">
        <ele>2635.5</ele>
        <time>2021-02-20T11:12:17Z</time>
      </trkpt>
      <trkpt lat="45.1714" lon="5.95124">
        <ele>2635.5</ele>
        <time>2021-02-20T11:12:18Z</time>
      </trkpt>
      <trkpt lat="45.1714" lon="5.95124">
        <ele>2635.5</ele>
        <time>2021-02-20T11:12:19Z</time>
      </trkpt>
      <trkpt lat="45.1714" lon="5.95126">
        <ele>2635.9</ele>
        <time>2021-02-20T11:12:20Z</time>
      </trkpt>
      <trkpt lat="45.1714" lon="5.95126">
        <ele>2635.9</ele>
        <time>2021-02-20T11:12:21Z</time>
      </trkpt>
      <trkpt lat="45.1714" lon="5.95126">
        <ele>2635.9</ele>
        <time>2021-02-20T11:12:22Z</time>
      </trkpt>
      <trkpt lat="45.1714" lon="5.95126">
        <ele>2635.9</ele>
        <time>2021-02-20T11:12:23Z</time>
      </trkpt>
      <trkpt lat="45.1714" lon="5.95126">
        <ele>2635.9</ele>
        <time>2021-02-20T11:12:24Z</time>
      </trkpt>
      <trkpt lat="45.1714" lon="5.95126">
        <ele>2635.9</ele>
        <time>2021-02-20T11:12:25Z</time>
      </trkpt>
      <trkpt lat="45.1714" lon="5.95126">
        <ele>2635.9</ele>
        <time>2021-02-20T11:12:26Z</time>
      </trkpt>
      <trkpt lat="45.1714" lon="5.95126">
        <ele>2635.9</ele>
        <time>2021-02-20T11:12:27Z</time>
      </trkpt>
      <trkpt lat="45.1714" lon="5.95126">
        <ele>2635.9</ele>
        <time>2021-02-20T11:12:28Z</time>
      </trkpt>
      <trkpt lat="45.1714" lon="5.95126">
        <ele>2635.9</ele>
        <time>2021-02-20T11:12:29Z</time>
      </trkpt>
      <trkpt lat="45.1714" lon="5.95126">
        <ele>2635.9</ele>
        <time>2021-02-20T11:12:30Z</time>
      </trkpt>
      <trkpt lat="45.1714" lon="5.95126">
        <ele>2635.9</ele>
        <time>2021-02-20T11:12:31Z</time>
      </trkpt>
      <trkpt lat="45.1714" lon="5.95126">
        <ele>2635.9</ele>
        <time>2021-02-20T11:12:32Z</time>
      </trkpt>
      <trkpt lat="45.1714" lon="5.95126">
        <ele>2635.9</ele>
        <time>2021-02-20T11:12:33Z</time>
      </trkpt>
      <trkpt lat="45.1714" lon="5.95126">
        <ele>2635.9</ele>
        <time>2021-02-20T11:12:34Z</time>
      </trkpt>
      <trkpt lat="45.1714" lon="5.95126">
        <ele>2635.9</ele>
        <time>2021-02-20T11:12:35Z</time>
      </trkpt>
      <trkpt lat="45.1714" lon="5.95126">
        <ele>2635.9</ele>
        <time>2021-02-20T11:12:36Z</time>
      </trkpt>
      <trkpt lat="45.1714" lon="5.95126">
        <ele>2635.9</ele>
        <time>2021-02-20T11:12:37Z</time>
      </trkpt>
      <trkpt lat="45.1714" lon="5.95126">
        <ele>2635.9</ele>
        <time>2021-02-20T11:12:38Z</time>
      </trkpt>
      <trkpt lat="45.1714" lon="5.95126">
        <ele>2635.9</ele>
        <time>2021-02-20T11:12:39Z</time>
      </trkpt>
      <trkpt lat="45.1714" lon="5.95126">
        <ele>2635.9</ele>
        <time>2021-02-20T11:12:40Z</time>
      </trkpt>
      <trkpt lat="45.1714" lon="5.95126">
        <ele>2635.9</ele>
        <time>2021-02-20T11:12:41Z</time>
      </trkpt>
      <trkpt lat="45.1714" lon="5.95126">
        <ele>2635.9</ele>
        <time>2021-02-20T11:12:42Z</time>
      </trkpt>
      <trkpt lat="45.1714" lon="5.95126">
        <ele>2635.9</ele>
        <time>2021-02-20T11:12:43Z</time>
      </trkpt>
      <trkpt lat="45.1714" lon="5.95126">
        <ele>2635.9</ele>
        <time>2021-02-20T11:12:44Z</time>
      </trkpt>
      <trkpt lat="45.1714" lon="5.95126">
        <ele>2635.9</ele>
        <time>2021-02-20T11:12:45Z</time>
      </trkpt>
      <trkpt lat="45.1714" lon="5.95126">
        <ele>2635.9</ele>
        <time>2021-02-20T11:12:46Z</time>
      </trkpt>
      <trkpt lat="45.1714" lon="5.95126">
        <ele>2635.9</ele>
        <time>2021-02-20T11:12:47Z</time>
      </trkpt>
      <trkpt lat="45.1714" lon="5.95126">
        <ele>2635.9</ele>
        <time>2021-02-20T11:12:48Z</time>
      </trkpt>
      <trkpt lat="45.1714" lon="5.95126">
        <ele>2635.9</ele>
        <time>2021-02-20T11:12:49Z</time>
      </trkpt>
      <trkpt lat="45.1714" lon="5.95126">
        <ele>2635.9</ele>
        <time>2021-02-20T11:12:50Z</time>
      </trkpt>
      <trkpt lat="45.1714" lon="5.95126">
        <ele>2635.9</ele>
        <time>2021-02-20T11:12:51Z</time>
      </trkpt>
      <trkpt lat="45.1714" lon="5.95126">
        <ele>2635.9</ele>
        <time>2021-02-20T11:12:52Z</time>
      </trkpt>
      <trkpt lat="45.1714" lon="5.95126">
        <ele>2635.9</ele>
        <time>2021-02-20T11:12:53Z</time>
      </trkpt>
      <trkpt lat="45.1714" lon="5.95126">
        <ele>2635.9</ele>
        <time>2021-02-20T11:12:54Z</time>
      </trkpt>
      <trkpt lat="45.1714" lon="5.95126">
        <ele>2635.9</ele>
        <time>2021-02-20T11:12:55Z</time>
      </trkpt>
      <trkpt lat="45.1714" lon="5.95127">
        <ele>2635.9</ele>
        <time>2021-02-20T11:12:56Z</time>
      </trkpt>
      <trkpt lat="45.1714" lon="5.95127">
        <ele>2635.9</ele>
        <time>2021-02-20T11:12:57Z</time>
      </trkpt>
      <trkpt lat="45.1714" lon="5.95127">
        <ele>2635.9</ele>
        <time>2021-02-20T11:12:58Z</time>
      </trkpt>
      <trkpt lat="45.1714" lon="5.95127">
        <ele>2635.9</ele>
        <time>2021-02-20T11:12:59Z</time>
      </trkpt>
      <trkpt lat="45.1714" lon="5.95127">
        <ele>2635.9</ele>
        <time>2021-02-20T11:13:00Z</time>
      </trkpt>
      <trkpt lat="45.1714" lon="5.95127">
        <ele>2635.9</ele>
        <time>2021-02-20T11:13:01Z</time>
      </trkpt>
      <trkpt lat="45.1714" lon="5.95127">
        <ele>2635.9</ele>
        <time>2021-02-20T11:13:02Z</time>
      </trkpt>
      <trkpt lat="45.1714" lon="5.95127">
        <ele>2635.9</ele>
        <time>2021-02-20T11:13:03Z</time>
      </trkpt>
      <trkpt lat="45.1714" lon="5.95127">
        <ele>2635.9</ele>
        <time>2021-02-20T11:13:04Z</time>
      </trkpt>
      <trkpt lat="45.1714" lon="5.95127">
        <ele>2635.9</ele>
        <time>2021-02-20T11:13:05Z</time>
      </trkpt>
      <trkpt lat="45.1714" lon="5.95127">
        <ele>2635.9</ele>
        <time>2021-02-20T11:13:06Z</time>
      </trkpt>
      <trkpt lat="45.1714" lon="5.95127">
        <ele>2635.9</ele>
        <time>2021-02-20T11:13:07Z</time>
      </trkpt>
      <trkpt lat="45.1714" lon="5.95127">
        <ele>2635.9</ele>
        <time>2021-02-20T11:13:08Z</time>
      </trkpt>
      <trkpt lat="45.1714" lon="5.95127">
        <ele>2635.9</ele>
        <time>2021-02-20T11:13:09Z</time>
      </trkpt>
      <trkpt lat="45.1714" lon="5.95127">
        <ele>2635.9</ele>
        <time>2021-02-20T11:13:10Z</time>
      </trkpt>
      <trkpt lat="45.1714" lon="5.95127">
        <ele>2635.9</ele>
        <time>2021-02-20T11:13:11Z</time>
      </trkpt>
      <trkpt lat="45.1714" lon="5.95127">
        <ele>2635.9</ele>
        <time>2021-02-20T11:13:12Z</time>
      </trkpt>
      <trkpt lat="45.1714" lon="5.95127">
        <ele>2635.9</ele>
        <time>2021-02-20T11:13:13Z</time>
      </trkpt>
      <trkpt lat="45.1714" lon="5.95127">
        <ele>2635.9</ele>
        <time>2021-02-20T11:13:14Z</time>
      </trkpt>
      <trkpt lat="45.1714" lon="5.95127">
        <ele>2635.9</ele>
        <time>2021-02-20T11:13:15Z</time>
      </trkpt>
      <trkpt lat="45.1714" lon="5.95127">
        <ele>2635.9</ele>
        <time>2021-02-20T11:13:16Z</time>
      </trkpt>
      <trkpt lat="45.1714" lon="5.95127">
        <ele>2635.9</ele>
        <time>2021-02-20T11:13:17Z</time>
      </trkpt>
      <trkpt lat="45.1714" lon="5.95127">
        <ele>2635.9</ele>
        <time>2021-02-20T11:13:18Z</time>
      </trkpt>
      <trkpt lat="45.1714" lon="5.95127">
        <ele>2635.9</ele>
        <time>2021-02-20T11:13:19Z</time>
      </trkpt>
      <trkpt lat="45.1714" lon="5.95127">
        <ele>2635.9</ele>
        <time>2021-02-20T11:13:20Z</time>
      </trkpt>
      <trkpt lat="45.1714" lon="5.95127">
        <ele>2635.9</ele>
        <time>2021-02-20T11:13:21Z</time>
      </trkpt>
      <trkpt lat="45.1714" lon="5.95127">
        <ele>2635.9</ele>
        <time>2021-02-20T11:13:22Z</time>
      </trkpt>
      <trkpt lat="45.1714" lon="5.95127">
        <ele>2635.9</ele>
        <time>2021-02-20T11:13:23Z</time>
      </trkpt>
      <trkpt lat="45.1714" lon="5.95127">
        <ele>2635.9</ele>
        <time>2021-02-20T11:13:24Z</time>
      </trkpt>
      <trkpt lat="45.1714" lon="5.95127">
        <ele>2635.9</ele>
        <time>2021-02-20T11:13:25Z</time>
      </trkpt>
      <trkpt lat="45.1714" lon="5.95127">
        <ele>2635.9</ele>
        <time>2021-02-20T11:13:26Z</time>
      </trkpt>
      <trkpt lat="45.1714" lon="5.95127">
        <ele>2635.9</ele>
        <time>2021-02-20T11:13:27Z</time>
      </trkpt>
      <trkpt lat="45.1714" lon="5.95127">
        <ele>2635.9</ele>
        <time>2021-02-20T11:13:28Z</time>
      </trkpt>
      <trkpt lat="45.1714" lon="5.95127">
        <ele>2635.9</ele>
        <time>2021-02-20T11:13:29Z</time>
      </trkpt>
      <trkpt lat="45.1714" lon="5.95127">
        <ele>2635.9</ele>
        <time>2021-02-20T11:13:30Z</time>
      </trkpt>
      <trkpt lat="45.1714" lon="5.95127">
        <ele>2635.9</ele>
        <time>2021-02-20T11:13:31Z</time>
      </trkpt>
      <trkpt lat="45.1714" lon="5.95127">
        <ele>2635.9</ele>
        <time>2021-02-20T11:13:32Z</time>
      </trkpt>
      <trkpt lat="45.1714" lon="5.95127">
        <ele>2635.9</ele>
        <time>2021-02-20T11:13:33Z</time>
      </trkpt>
      <trkpt lat="45.1714" lon="5.95127">
        <ele>2635.9</ele>
        <time>2021-02-20T11:13:34Z</time>
      </trkpt>
      <trkpt lat="45.1714" lon="5.95127">
        <ele>2635.9</ele>
        <time>2021-02-20T11:13:35Z</time>
      </trkpt>
      <trkpt lat="45.1714" lon="5.95127">
        <ele>2635.9</ele>
        <time>2021-02-20T11:13:36Z</time>
      </trkpt>
      <trkpt lat="45.1714" lon="5.95127">
        <ele>2635.9</ele>
        <time>2021-02-20T11:13:37Z</time>
      </trkpt>
      <trkpt lat="45.1714" lon="5.95127">
        <ele>2635.9</ele>
        <time>2021-02-20T11:13:38Z</time>
      </trkpt>
      <trkpt lat="45.1714" lon="5.95127">
        <ele>2635.9</ele>
        <time>2021-02-20T11:13:39Z</time>
      </trkpt>
      <trkpt lat="45.1714" lon="5.95127">
        <ele>2635.9</ele>
        <time>2021-02-20T11:13:40Z</time>
      </trkpt>
      <trkpt lat="45.1714" lon="5.95127">
        <ele>2635.9</ele>
        <time>2021-02-20T11:13:41Z</time>
      </trkpt>
      <trkpt lat="45.1714" lon="5.95127">
        <ele>2635.9</ele>
        <time>2021-02-20T11:13:42Z</time>
      </trkpt>
      <trkpt lat="45.1714" lon="5.95127">
        <ele>2635.9</ele>
        <time>2021-02-20T11:13:43Z</time>
      </trkpt>
      <trkpt lat="45.1714" lon="5.95127">
        <ele>2635.9</ele>
        <time>2021-02-20T11:13:44Z</time>
      </trkpt>
      <trkpt lat="45.1714" lon="5.95127">
        <ele>2635.9</ele>
        <time>2021-02-20T11:13:45Z</time>
      </trkpt>
      <trkpt lat="45.1714" lon="5.95127">
        <ele>2635.9</ele>
        <time>2021-02-20T11:13:46Z</time>
      </trkpt>
      <trkpt lat="45.1714" lon="5.95127">
        <ele>2635.9</ele>
        <time>2021-02-20T11:13:47Z</time>
      </trkpt>
      <trkpt lat="45.1714" lon="5.95127">
        <ele>2635.9</ele>
        <time>2021-02-20T11:13:48Z</time>
      </trkpt>
      <trkpt lat="45.1714" lon="5.95127">
        <ele>2635.9</ele>
        <time>2021-02-20T11:13:49Z</time>
      </trkpt>
      <trkpt lat="45.1714" lon="5.95127">
        <ele>2635.9</ele>
        <time>2021-02-20T11:13:50Z</time>
      </trkpt>
      <trkpt lat="45.1714" lon="5.95127">
        <ele>2635.9</ele>
        <time>2021-02-20T11:13:51Z</time>
      </trkpt>
      <trkpt lat="45.1714" lon="5.95127">
        <ele>2635.9</ele>
        <time>2021-02-20T11:13:52Z</time>
      </trkpt>
      <trkpt lat="45.1714" lon="5.95127">
        <ele>2635.9</ele>
        <time>2021-02-20T11:13:53Z</time>
      </trkpt>
      <trkpt lat="45.1714" lon="5.95127">
        <ele>2635.9</ele>
        <time>2021-02-20T11:13:54Z</time>
      </trkpt>
      <trkpt lat="45.1714" lon="5.95127">
        <ele>2635.9</ele>
        <time>2021-02-20T11:13:55Z</time>
      </trkpt>
      <trkpt lat="45.1714" lon="5.95127">
        <ele>2635.9</ele>
        <time>2021-02-20T11:13:56Z</time>
      </trkpt>
      <trkpt lat="45.1714" lon="5.95127">
        <ele>2635.9</ele>
        <time>2021-02-20T11:13:57Z</time>
      </trkpt>
      <trkpt lat="45.1714" lon="5.95127">
        <ele>2635.9</ele>
        <time>2021-02-20T11:13:58Z</time>
      </trkpt>
      <trkpt lat="45.1714" lon="5.95127">
        <ele>2635.9</ele>
        <time>2021-02-20T11:13:59Z</time>
      </trkpt>
      <trkpt lat="45.1714" lon="5.95127">
        <ele>2635.9</ele>
        <time>2021-02-20T11:14:00Z</time>
      </trkpt>
      <trkpt lat="45.1714" lon="5.95127">
        <ele>2635.9</ele>
        <time>2021-02-20T11:14:01Z</time>
      </trkpt>
      <trkpt lat="45.1714" lon="5.95127">
        <ele>2635.9</ele>
        <time>2021-02-20T11:14:02Z</time>
      </trkpt>
      <trkpt lat="45.1714" lon="5.95127">
        <ele>2635.9</ele>
        <time>2021-02-20T11:14:03Z</time>
      </trkpt>
      <trkpt lat="45.1714" lon="5.95127">
        <ele>2635.9</ele>
        <time>2021-02-20T11:14:04Z</time>
      </trkpt>
      <trkpt lat="45.1714" lon="5.95127">
        <ele>2635.9</ele>
        <time>2021-02-20T11:14:05Z</time>
      </trkpt>
      <trkpt lat="45.1714" lon="5.95127">
        <ele>2635.9</ele>
        <time>2021-02-20T11:14:06Z</time>
      </trkpt>
      <trkpt lat="45.1714" lon="5.95127">
        <ele>2635.9</ele>
        <time>2021-02-20T11:14:07Z</time>
      </trkpt>
      <trkpt lat="45.1714" lon="5.95127">
        <ele>2635.9</ele>
        <time>2021-02-20T11:14:08Z</time>
      </trkpt>
      <trkpt lat="45.1714" lon="5.95127">
        <ele>2635.9</ele>
        <time>2021-02-20T11:14:09Z</time>
      </trkpt>
      <trkpt lat="45.1714" lon="5.95127">
        <ele>2635.9</ele>
        <time>2021-02-20T11:14:10Z</time>
      </trkpt>
      <trkpt lat="45.1714" lon="5.95127">
        <ele>2635.9</ele>
        <time>2021-02-20T11:14:11Z</time>
      </trkpt>
      <trkpt lat="45.1714" lon="5.95127">
        <ele>2635.9</ele>
        <time>2021-02-20T11:14:12Z</time>
      </trkpt>
      <trkpt lat="45.1714" lon="5.95127">
        <ele>2635.9</ele>
        <time>2021-02-20T11:14:13Z</time>
      </trkpt>
      <trkpt lat="45.1714" lon="5.95127">
        <ele>2635.9</ele>
        <time>2021-02-20T11:14:14Z</time>
      </trkpt>
      <trkpt lat="45.1714" lon="5.95127">
        <ele>2635.9</ele>
        <time>2021-02-20T11:14:15Z</time>
      </trkpt>
      <trkpt lat="45.1714" lon="5.95127">
        <ele>2635.9</ele>
        <time>2021-02-20T11:14:16Z</time>
      </trkpt>
      <trkpt lat="45.1714" lon="5.95127">
        <ele>2635.9</ele>
        <time>2021-02-20T11:14:17Z</time>
      </trkpt>
      <trkpt lat="45.1714" lon="5.95127">
        <ele>2635.9</ele>
        <time>2021-02-20T11:14:18Z</time>
      </trkpt>
      <trkpt lat="45.1714" lon="5.95127">
        <ele>2635.9</ele>
        <time>2021-02-20T11:14:19Z</time>
      </trkpt>
      <trkpt lat="45.1714" lon="5.95127">
        <ele>2635.9</ele>
        <time>2021-02-20T11:14:20Z</time>
      </trkpt>
      <trkpt lat="45.1714" lon="5.95127">
        <ele>2635.9</ele>
        <time>2021-02-20T11:14:21Z</time>
      </trkpt>
      <trkpt lat="45.1714" lon="5.95127">
        <ele>2635.9</ele>
        <time>2021-02-20T11:14:22Z</time>
      </trkpt>
      <trkpt lat="45.1714" lon="5.95127">
        <ele>2635.9</ele>
        <time>2021-02-20T11:14:23Z</time>
      </trkpt>
      <trkpt lat="45.1714" lon="5.95127">
        <ele>2635.9</ele>
        <time>2021-02-20T11:14:24Z</time>
      </trkpt>
      <trkpt lat="45.1714" lon="5.95127">
        <ele>2635.9</ele>
        <time>2021-02-20T11:14:25Z</time>
      </trkpt>
      <trkpt lat="45.1714" lon="5.95127">
        <ele>2635.9</ele>
        <time>2021-02-20T11:14:26Z</time>
      </trkpt>
      <trkpt lat="45.1714" lon="5.95127">
        <ele>2635.9</ele>
        <time>2021-02-20T11:14:27Z</time>
      </trkpt>
      <trkpt lat="45.1714" lon="5.95127">
        <ele>2635.9</ele>
        <time>2021-02-20T11:14:28Z</time>
      </trkpt>
      <trkpt lat="45.1714" lon="5.95127">
        <ele>2635.9</ele>
        <time>2021-02-20T11:14:29Z</time>
      </trkpt>
      <trkpt lat="45.1714" lon="5.95127">
        <ele>2635.9</ele>
        <time>2021-02-20T11:14:30Z</time>
      </trkpt>
      <trkpt lat="45.1714" lon="5.95127">
        <ele>2635.9</ele>
        <time>2021-02-20T11:14:31Z</time>
      </trkpt>
      <trkpt lat="45.1714" lon="5.95127">
        <ele>2635.9</ele>
        <time>2021-02-20T11:14:32Z</time>
      </trkpt>
      <trkpt lat="45.1714" lon="5.95127">
        <ele>2635.9</ele>
        <time>2021-02-20T11:14:33Z</time>
      </trkpt>
      <trkpt lat="45.1714" lon="5.95127">
        <ele>2635.9</ele>
        <time>2021-02-20T11:14:34Z</time>
      </trkpt>
      <trkpt lat="45.1714" lon="5.95127">
        <ele>2635.9</ele>
        <time>2021-02-20T11:14:35Z</time>
      </trkpt>
      <trkpt lat="45.1714" lon="5.95127">
        <ele>2635.9</ele>
        <time>2021-02-20T11:14:36Z</time>
      </trkpt>
      <trkpt lat="45.1714" lon="5.95127">
        <ele>2635.9</ele>
        <time>2021-02-20T11:14:37Z</time>
      </trkpt>
      <trkpt lat="45.1714" lon="5.95127">
        <ele>2635.9</ele>
        <time>2021-02-20T11:14:38Z</time>
      </trkpt>
      <trkpt lat="45.1714" lon="5.95127">
        <ele>2635.9</ele>
        <time>2021-02-20T11:14:39Z</time>
      </trkpt>
      <trkpt lat="45.1714" lon="5.95127">
        <ele>2635.9</ele>
        <time>2021-02-20T11:14:40Z</time>
      </trkpt>
      <trkpt lat="45.1714" lon="5.95127">
        <ele>2635.9</ele>
        <time>2021-02-20T11:14:41Z</time>
      </trkpt>
      <trkpt lat="45.1714" lon="5.95127">
        <ele>2635.9</ele>
        <time>2021-02-20T11:14:42Z</time>
      </trkpt>
      <trkpt lat="45.1714" lon="5.95127">
        <ele>2635.9</ele>
        <time>2021-02-20T11:14:43Z</time>
      </trkpt>
      <trkpt lat="45.1714" lon="5.95127">
        <ele>2635.9</ele>
        <time>2021-02-20T11:14:44Z</time>
      </trkpt>
      <trkpt lat="45.1714" lon="5.95127">
        <ele>2635.9</ele>
        <time>2021-02-20T11:14:45Z</time>
      </trkpt>
      <trkpt lat="45.1714" lon="5.95127">
        <ele>2635.9</ele>
        <time>2021-02-20T11:14:46Z</time>
      </trkpt>
      <trkpt lat="45.1714" lon="5.95127">
        <ele>2635.9</ele>
        <time>2021-02-20T11:14:47Z</time>
      </trkpt>
      <trkpt lat="45.1714" lon="5.95127">
        <ele>2635.9</ele>
        <time>2021-02-20T11:14:48Z</time>
      </trkpt>
      <trkpt lat="45.1714" lon="5.95127">
        <ele>2635.9</ele>
        <time>2021-02-20T11:14:49Z</time>
      </trkpt>
      <trkpt lat="45.1714" lon="5.95127">
        <ele>2635.9</ele>
        <time>2021-02-20T11:14:50Z</time>
      </trkpt>
      <trkpt lat="45.1714" lon="5.95127">
        <ele>2635.9</ele>
        <time>2021-02-20T11:14:51Z</time>
      </trkpt>
      <trkpt lat="45.1714" lon="5.95127">
        <ele>2635.9</ele>
        <time>2021-02-20T11:14:52Z</time>
      </trkpt>
      <trkpt lat="45.1714" lon="5.95127">
        <ele>2635.9</ele>
        <time>2021-02-20T11:14:53Z</time>
      </trkpt>
      <trkpt lat="45.1714" lon="5.95127">
        <ele>2635.9</ele>
        <time>2021-02-20T11:14:54Z</time>
      </trkpt>
      <trkpt lat="45.1714" lon="5.95127">
        <ele>2635.9</ele>
        <time>2021-02-20T11:14:55Z</time>
      </trkpt>
      <trkpt lat="45.1714" lon="5.95127">
        <ele>2635.9</ele>
        <time>2021-02-20T11:14:56Z</time>
      </trkpt>
      <trkpt lat="45.1714" lon="5.95127">
        <ele>2635.9</ele>
        <time>2021-02-20T11:14:57Z</time>
      </trkpt>
      <trkpt lat="45.1714" lon="5.95127">
        <ele>2635.9</ele>
        <time>2021-02-20T11:14:58Z</time>
      </trkpt>
      <trkpt lat="45.1714" lon="5.95127">
        <ele>2635.9</ele>
        <time>2021-02-20T11:14:59Z</time>
      </trkpt>
      <trkpt lat="45.1714" lon="5.95127">
        <ele>2635.9</ele>
        <time>2021-02-20T11:15:00Z</time>
      </trkpt>
      <trkpt lat="45.1714" lon="5.95127">
        <ele>2635.9</ele>
        <time>2021-02-20T11:15:01Z</time>
      </trkpt>
      <trkpt lat="45.1714" lon="5.95127">
        <ele>2635.9</ele>
        <time>2021-02-20T11:15:02Z</time>
      </trkpt>
      <trkpt lat="45.1714" lon="5.95127">
        <ele>2635.9</ele>
        <time>2021-02-20T11:15:03Z</time>
      </trkpt>
      <trkpt lat="45.1714" lon="5.95127">
        <ele>2635.9</ele>
        <time>2021-02-20T11:15:04Z</time>
      </trkpt>
      <trkpt lat="45.1714" lon="5.95127">
        <ele>2635.9</ele>
        <time>2021-02-20T11:15:05Z</time>
      </trkpt>
      <trkpt lat="45.1714" lon="5.95127">
        <ele>2635.9</ele>
        <time>2021-02-20T11:15:06Z</time>
      </trkpt>
      <trkpt lat="45.1714" lon="5.95127">
        <ele>2635.9</ele>
        <time>2021-02-20T11:15:07Z</time>
      </trkpt>
      <trkpt lat="45.1714" lon="5.95127">
        <ele>2635.9</ele>
        <time>2021-02-20T11:15:08Z</time>
      </trkpt>
      <trkpt lat="45.1714" lon="5.95127">
        <ele>2635.9</ele>
        <time>2021-02-20T11:15:09Z</time>
      </trkpt>
      <trkpt lat="45.1714" lon="5.95127">
        <ele>2635.9</ele>
        <time>2021-02-20T11:15:10Z</time>
      </trkpt>
      <trkpt lat="45.1714" lon="5.95127">
        <ele>2635.9</ele>
        <time>2021-02-20T11:15:11Z</time>
      </trkpt>
      <trkpt lat="45.1714" lon="5.95127">
        <ele>2635.9</ele>
        <time>2021-02-20T11:15:12Z</time>
      </trkpt>
      <trkpt lat="45.1714" lon="5.95127">
        <ele>2635.9</ele>
        <time>2021-02-20T11:15:13Z</time>
      </trkpt>
      <trkpt lat="45.1714" lon="5.95127">
        <ele>2635.9</ele>
        <time>2021-02-20T11:15:14Z</time>
      </trkpt>
      <trkpt lat="45.1714" lon="5.95127">
        <ele>2635.9</ele>
        <time>2021-02-20T11:15:15Z</time>
      </trkpt>
      <trkpt lat="45.1714" lon="5.95127">
        <ele>2635.9</ele>
        <time>2021-02-20T11:15:16Z</time>
      </trkpt>
      <trkpt lat="45.1714" lon="5.95127">
        <ele>2635.9</ele>
        <time>2021-02-20T11:15:17Z</time>
      </trkpt>
      <trkpt lat="45.1714" lon="5.95127">
        <ele>2635.9</ele>
        <time>2021-02-20T11:15:18Z</time>
      </trkpt>
      <trkpt lat="45.1714" lon="5.95127">
        <ele>2635.9</ele>
        <time>2021-02-20T11:15:19Z</time>
      </trkpt>
      <trkpt lat="45.1714" lon="5.95127">
        <ele>2635.9</ele>
        <time>2021-02-20T11:15:20Z</time>
      </trkpt>
      <trkpt lat="45.1714" lon="5.95127">
        <ele>2635.9</ele>
        <time>2021-02-20T11:15:21Z</time>
      </trkpt>
      <trkpt lat="45.1714" lon="5.95127">
        <ele>2635.9</ele>
        <time>2021-02-20T11:15:22Z</time>
      </trkpt>
      <trkpt lat="45.1714" lon="5.95127">
        <ele>2635.9</ele>
        <time>2021-02-20T11:15:23Z</time>
      </trkpt>
      <trkpt lat="45.1714" lon="5.95127">
        <ele>2635.9</ele>
        <time>2021-02-20T11:15:24Z</time>
      </trkpt>
      <trkpt lat="45.1714" lon="5.95127">
        <ele>2635.9</ele>
        <time>2021-02-20T11:15:25Z</time>
      </trkpt>
      <trkpt lat="45.1714" lon="5.95127">
        <ele>2635.9</ele>
        <time>2021-02-20T11:15:26Z</time>
      </trkpt>
      <trkpt lat="45.1714" lon="5.95127">
        <ele>2635.9</ele>
        <time>2021-02-20T11:15:27Z</time>
      </trkpt>
      <trkpt lat="45.1714" lon="5.95127">
        <ele>2635.9</ele>
        <time>2021-02-20T11:15:28Z</time>
      </trkpt>
      <trkpt lat="45.1714" lon="5.95127">
        <ele>2635.9</ele>
        <time>2021-02-20T11:15:29Z</time>
      </trkpt>
      <trkpt lat="45.1714" lon="5.95127">
        <ele>2635.9</ele>
        <time>2021-02-20T11:15:30Z</time>
      </trkpt>
      <trkpt lat="45.1714" lon="5.95127">
        <ele>2635.9</ele>
        <time>2021-02-20T11:15:31Z</time>
      </trkpt>
      <trkpt lat="45.1714" lon="5.95127">
        <ele>2635.9</ele>
        <time>2021-02-20T11:15:32Z</time>
      </trkpt>
      <trkpt lat="45.1714" lon="5.95127">
        <ele>2635.9</ele>
        <time>2021-02-20T11:15:33Z</time>
      </trkpt>
      <trkpt lat="45.1714" lon="5.95127">
        <ele>2635.9</ele>
        <time>2021-02-20T11:15:34Z</time>
      </trkpt>
      <trkpt lat="45.1714" lon="5.95127">
        <ele>2635.9</ele>
        <time>2021-02-20T11:15:35Z</time>
      </trkpt>
      <trkpt lat="45.1714" lon="5.95127">
        <ele>2635.9</ele>
        <time>2021-02-20T11:15:36Z</time>
      </trkpt>
      <trkpt lat="45.1714" lon="5.95127">
        <ele>2635.9</ele>
        <time>2021-02-20T11:15:37Z</time>
      </trkpt>
      <trkpt lat="45.1714" lon="5.95127">
        <ele>2635.9</ele>
        <time>2021-02-20T11:15:38Z</time>
      </trkpt>
      <trkpt lat="45.1714" lon="5.95127">
        <ele>2635.9</ele>
        <time>2021-02-20T11:15:39Z</time>
      </trkpt>
      <trkpt lat="45.1714" lon="5.95127">
        <ele>2635.9</ele>
        <time>2021-02-20T11:15:40Z</time>
      </trkpt>
      <trkpt lat="45.1714" lon="5.95127">
        <ele>2635.9</ele>
        <time>2021-02-20T11:15:41Z</time>
      </trkpt>
      <trkpt lat="45.1714" lon="5.95127">
        <ele>2635.9</ele>
        <time>2021-02-20T11:15:42Z</time>
      </trkpt>
      <trkpt lat="45.1714" lon="5.95127">
        <ele>2635.9</ele>
        <time>2021-02-20T11:15:43Z</time>
      </trkpt>
      <trkpt lat="45.1714" lon="5.95127">
        <ele>2635.9</ele>
        <time>2021-02-20T11:15:44Z</time>
      </trkpt>
      <trkpt lat="45.1714" lon="5.95127">
        <ele>2635.9</ele>
        <time>2021-02-20T11:15:45Z</time>
      </trkpt>
      <trkpt lat="45.1714" lon="5.95127">
        <ele>2635.9</ele>
        <time>2021-02-20T11:15:46Z</time>
      </trkpt>
      <trkpt lat="45.1714" lon="5.95127">
        <ele>2635.9</ele>
        <time>2021-02-20T11:15:47Z</time>
      </trkpt>
      <trkpt lat="45.1714" lon="5.95127">
        <ele>2635.9</ele>
        <time>2021-02-20T11:15:48Z</time>
      </trkpt>
      <trkpt lat="45.1714" lon="5.95127">
        <ele>2635.9</ele>
        <time>2021-02-20T11:15:49Z</time>
      </trkpt>
      <trkpt lat="45.1714" lon="5.95127">
        <ele>2635.9</ele>
        <time>2021-02-20T11:15:50Z</time>
      </trkpt>
      <trkpt lat="45.1714" lon="5.95127">
        <ele>2635.9</ele>
        <time>2021-02-20T11:15:51Z</time>
      </trkpt>
      <trkpt lat="45.1714" lon="5.95127">
        <ele>2635.9</ele>
        <time>2021-02-20T11:15:52Z</time>
      </trkpt>
      <trkpt lat="45.1714" lon="5.95127">
        <ele>2635.9</ele>
        <time>2021-02-20T11:15:53Z</time>
      </trkpt>
      <trkpt lat="45.1714" lon="5.95127">
        <ele>2635.9</ele>
        <time>2021-02-20T11:15:54Z</time>
      </trkpt>
      <trkpt lat="45.1714" lon="5.95127">
        <ele>2635.9</ele>
        <time>2021-02-20T11:15:55Z</time>
      </trkpt>
      <trkpt lat="45.1714" lon="5.95127">
        <ele>2635.9</ele>
        <time>2021-02-20T11:15:56Z</time>
      </trkpt>
      <trkpt lat="45.1714" lon="5.95127">
        <ele>2635.9</ele>
        <time>2021-02-20T11:15:57Z</time>
      </trkpt>
      <trkpt lat="45.1714" lon="5.95127">
        <ele>2635.9</ele>
        <time>2021-02-20T11:15:58Z</time>
      </trkpt>
      <trkpt lat="45.1714" lon="5.95127">
        <ele>2635.9</ele>
        <time>2021-02-20T11:15:59Z</time>
      </trkpt>
      <trkpt lat="45.1714" lon="5.95127">
        <ele>2635.9</ele>
        <time>2021-02-20T11:16:00Z</time>
      </trkpt>
      <trkpt lat="45.1714" lon="5.95127">
        <ele>2635.9</ele>
        <time>2021-02-20T11:16:01Z</time>
      </trkpt>
      <trkpt lat="45.1714" lon="5.95127">
        <ele>2635.9</ele>
        <time>2021-02-20T11:16:02Z</time>
      </trkpt>
      <trkpt lat="45.1714" lon="5.95127">
        <ele>2635.9</ele>
        <time>2021-02-20T11:16:03Z</time>
      </trkpt>
      <trkpt lat="45.1714" lon="5.95127">
        <ele>2635.9</ele>
        <time>2021-02-20T11:16:04Z</time>
      </trkpt>
      <trkpt lat="45.1714" lon="5.95127">
        <ele>2635.9</ele>
        <time>2021-02-20T11:16:05Z</time>
      </trkpt>
      <trkpt lat="45.1714" lon="5.95127">
        <ele>2635.9</ele>
        <time>2021-02-20T11:16:06Z</time>
      </trkpt>
      <trkpt lat="45.1714" lon="5.95127">
        <ele>2635.9</ele>
        <time>2021-02-20T11:16:07Z</time>
      </trkpt>
      <trkpt lat="45.1714" lon="5.95127">
        <ele>2635.9</ele>
        <time>2021-02-20T11:16:08Z</time>
      </trkpt>
      <trkpt lat="45.1714" lon="5.95127">
        <ele>2635.9</ele>
        <time>2021-02-20T11:16:09Z</time>
      </trkpt>
      <trkpt lat="45.1714" lon="5.95127">
        <ele>2635.9</ele>
        <time>2021-02-20T11:16:10Z</time>
      </trkpt>
      <trkpt lat="45.1714" lon="5.95127">
        <ele>2635.9</ele>
        <time>2021-02-20T11:16:11Z</time>
      </trkpt>
      <trkpt lat="45.1714" lon="5.95127">
        <ele>2635.9</ele>
        <time>2021-02-20T11:16:12Z</time>
      </trkpt>
      <trkpt lat="45.1714" lon="5.95127">
        <ele>2635.9</ele>
        <time>2021-02-20T11:16:13Z</time>
      </trkpt>
      <trkpt lat="45.1714" lon="5.95127">
        <ele>2635.9</ele>
        <time>2021-02-20T11:16:14Z</time>
      </trkpt>
      <trkpt lat="45.1714" lon="5.95127">
        <ele>2635.9</ele>
        <time>2021-02-20T11:16:15Z</time>
      </trkpt>
      <trkpt lat="45.1714" lon="5.95127">
        <ele>2635.9</ele>
        <time>2021-02-20T11:16:16Z</time>
      </trkpt>
      <trkpt lat="45.1714" lon="5.95127">
        <ele>2635.9</ele>
        <time>2021-02-20T11:16:17Z</time>
      </trkpt>
      <trkpt lat="45.1714" lon="5.95127">
        <ele>2635.9</ele>
        <time>2021-02-20T11:16:18Z</time>
      </trkpt>
      <trkpt lat="45.1714" lon="5.95127">
        <ele>2635.9</ele>
        <time>2021-02-20T11:16:19Z</time>
      </trkpt>
      <trkpt lat="45.1714" lon="5.95127">
        <ele>2635.9</ele>
        <time>2021-02-20T11:16:20Z</time>
      </trkpt>
      <trkpt lat="45.1714" lon="5.95127">
        <ele>2635.9</ele>
        <time>2021-02-20T11:16:21Z</time>
      </trkpt>
      <trkpt lat="45.1714" lon="5.95127">
        <ele>2635.9</ele>
        <time>2021-02-20T11:16:22Z</time>
      </trkpt>
      <trkpt lat="45.1714" lon="5.95127">
        <ele>2635.9</ele>
        <time>2021-02-20T11:16:23Z</time>
      </trkpt>
      <trkpt lat="45.1714" lon="5.95127">
        <ele>2635.9</ele>
        <time>2021-02-20T11:16:24Z</time>
      </trkpt>
      <trkpt lat="45.1714" lon="5.95127">
        <ele>2635.9</ele>
        <time>2021-02-20T11:16:25Z</time>
      </trkpt>
      <trkpt lat="45.1714" lon="5.95127">
        <ele>2635.9</ele>
        <time>2021-02-20T11:16:26Z</time>
      </trkpt>
      <trkpt lat="45.1714" lon="5.95127">
        <ele>2635.9</ele>
        <time>2021-02-20T11:16:27Z</time>
      </trkpt>
      <trkpt lat="45.1714" lon="5.95127">
        <ele>2635.9</ele>
        <time>2021-02-20T11:16:28Z</time>
      </trkpt>
      <trkpt lat="45.1714" lon="5.95127">
        <ele>2635.9</ele>
        <time>2021-02-20T11:16:29Z</time>
      </trkpt>
      <trkpt lat="45.1714" lon="5.95127">
        <ele>2635.9</ele>
        <time>2021-02-20T11:16:30Z</time>
      </trkpt>
      <trkpt lat="45.1714" lon="5.95127">
        <ele>2635.9</ele>
        <time>2021-02-20T11:16:31Z</time>
      </trkpt>
      <trkpt lat="45.1714" lon="5.95127">
        <ele>2635.9</ele>
        <time>2021-02-20T11:16:32Z</time>
      </trkpt>
      <trkpt lat="45.1714" lon="5.95127">
        <ele>2635.9</ele>
        <time>2021-02-20T11:16:33Z</time>
      </trkpt>
      <trkpt lat="45.1714" lon="5.95127">
        <ele>2635.9</ele>
        <time>2021-02-20T11:16:34Z</time>
      </trkpt>
      <trkpt lat="45.1714" lon="5.95127">
        <ele>2635.9</ele>
        <time>2021-02-20T11:16:35Z</time>
      </trkpt>
      <trkpt lat="45.1714" lon="5.95127">
        <ele>2635.9</ele>
        <time>2021-02-20T11:16:36Z</time>
      </trkpt>
      <trkpt lat="45.1714" lon="5.95127">
        <ele>2635.9</ele>
        <time>2021-02-20T11:16:37Z</time>
      </trkpt>
      <trkpt lat="45.1714" lon="5.95127">
        <ele>2635.9</ele>
        <time>2021-02-20T11:16:38Z</time>
      </trkpt>
      <trkpt lat="45.1714" lon="5.95127">
        <ele>2635.9</ele>
        <time>2021-02-20T11:16:39Z</time>
      </trkpt>
      <trkpt lat="45.1714" lon="5.95127">
        <ele>2635.9</ele>
        <time>2021-02-20T11:16:40Z</time>
      </trkpt>
      <trkpt lat="45.1714" lon="5.95127">
        <ele>2635.9</ele>
        <time>2021-02-20T11:16:41Z</time>
      </trkpt>
      <trkpt lat="45.1714" lon="5.95127">
        <ele>2635.9</ele>
        <time>2021-02-20T11:16:42Z</time>
      </trkpt>
      <trkpt lat="45.1714" lon="5.95127">
        <ele>2635.9</ele>
        <time>2021-02-20T11:16:43Z</time>
      </trkpt>
      <trkpt lat="45.1714" lon="5.95127">
        <ele>2635.9</ele>
        <time>2021-02-20T11:16:44Z</time>
      </trkpt>
      <trkpt lat="45.1714" lon="5.95127">
        <ele>2635.9</ele>
        <time>2021-02-20T11:16:45Z</time>
      </trkpt>
      <trkpt lat="45.1714" lon="5.95127">
        <ele>2635.9</ele>
        <time>2021-02-20T11:16:46Z</time>
      </trkpt>
      <trkpt lat="45.1714" lon="5.95127">
        <ele>2635.9</ele>
        <time>2021-02-20T11:16:47Z</time>
      </trkpt>
      <trkpt lat="45.1714" lon="5.95127">
        <ele>2635.9</ele>
        <time>2021-02-20T11:16:48Z</time>
      </trkpt>
      <trkpt lat="45.1714" lon="5.95127">
        <ele>2635.9</ele>
        <time>2021-02-20T11:16:49Z</time>
      </trkpt>
      <trkpt lat="45.1714" lon="5.95127">
        <ele>2635.9</ele>
        <time>2021-02-20T11:16:50Z</time>
      </trkpt>
      <trkpt lat="45.1714" lon="5.95127">
        <ele>2635.9</ele>
        <time>2021-02-20T11:16:51Z</time>
      </trkpt>
      <trkpt lat="45.1714" lon="5.95127">
        <ele>2635.9</ele>
        <time>2021-02-20T11:16:52Z</time>
      </trkpt>
      <trkpt lat="45.1714" lon="5.95127">
        <ele>2635.9</ele>
        <time>2021-02-20T11:16:53Z</time>
      </trkpt>
      <trkpt lat="45.1714" lon="5.95127">
        <ele>2635.9</ele>
        <time>2021-02-20T11:16:54Z</time>
      </trkpt>
      <trkpt lat="45.1714" lon="5.95127">
        <ele>2635.9</ele>
        <time>2021-02-20T11:16:55Z</time>
      </trkpt>
      <trkpt lat="45.1714" lon="5.95127">
        <ele>2635.9</ele>
        <time>2021-02-20T11:16:56Z</time>
      </trkpt>
      <trkpt lat="45.1714" lon="5.95127">
        <ele>2635.9</ele>
        <time>2021-02-20T11:16:57Z</time>
      </trkpt>
      <trkpt lat="45.1714" lon="5.95127">
        <ele>2635.9</ele>
        <time>2021-02-20T11:16:58Z</time>
      </trkpt>
      <trkpt lat="45.1714" lon="5.95127">
        <ele>2635.9</ele>
        <time>2021-02-20T11:16:59Z</time>
      </trkpt>
      <trkpt lat="45.1714" lon="5.95127">
        <ele>2635.9</ele>
        <time>2021-02-20T11:17:00Z</time>
      </trkpt>
      <trkpt lat="45.1714" lon="5.95127">
        <ele>2635.9</ele>
        <time>2021-02-20T11:17:01Z</time>
      </trkpt>
      <trkpt lat="45.1714" lon="5.95127">
        <ele>2635.9</ele>
        <time>2021-02-20T11:17:02Z</time>
      </trkpt>
      <trkpt lat="45.1714" lon="5.95127">
        <ele>2635.9</ele>
        <time>2021-02-20T11:17:03Z</time>
      </trkpt>
      <trkpt lat="45.1714" lon="5.95127">
        <ele>2635.9</ele>
        <time>2021-02-20T11:17:04Z</time>
      </trkpt>
      <trkpt lat="45.1714" lon="5.95127">
        <ele>2635.9</ele>
        <time>2021-02-20T11:17:05Z</time>
      </trkpt>
      <trkpt lat="45.1714" lon="5.95127">
        <ele>2635.9</ele>
        <time>2021-02-20T11:17:06Z</time>
      </trkpt>
      <trkpt lat="45.1714" lon="5.95127">
        <ele>2635.9</ele>
        <time>2021-02-20T11:17:07Z</time>
      </trkpt>
      <trkpt lat="45.1714" lon="5.95127">
        <ele>2635.9</ele>
        <time>2021-02-20T11:17:08Z</time>
      </trkpt>
      <trkpt lat="45.1714" lon="5.95127">
        <ele>2635.9</ele>
        <time>2021-02-20T11:17:09Z</time>
      </trkpt>
      <trkpt lat="45.1714" lon="5.95127">
        <ele>2635.9</ele>
        <time>2021-02-20T11:17:10Z</time>
      </trkpt>
      <trkpt lat="45.1714" lon="5.95127">
        <ele>2635.9</ele>
        <time>2021-02-20T11:17:11Z</time>
      </trkpt>
      <trkpt lat="45.1714" lon="5.95127">
        <ele>2635.9</ele>
        <time>2021-02-20T11:17:12Z</time>
      </trkpt>
      <trkpt lat="45.1714" lon="5.95127">
        <ele>2635.9</ele>
        <time>2021-02-20T11:17:13Z</time>
      </trkpt>
      <trkpt lat="45.1714" lon="5.95127">
        <ele>2635.9</ele>
        <time>2021-02-20T11:17:14Z</time>
      </trkpt>
      <trkpt lat="45.1714" lon="5.95127">
        <ele>2635.9</ele>
        <time>2021-02-20T11:17:15Z</time>
      </trkpt>
      <trkpt lat="45.1714" lon="5.95127">
        <ele>2635.9</ele>
        <time>2021-02-20T11:17:16Z</time>
      </trkpt>
      <trkpt lat="45.1714" lon="5.95127">
        <ele>2635.9</ele>
        <time>2021-02-20T11:17:17Z</time>
      </trkpt>
      <trkpt lat="45.1714" lon="5.95127">
        <ele>2635.9</ele>
        <time>2021-02-20T11:17:18Z</time>
      </trkpt>
      <trkpt lat="45.1714" lon="5.95127">
        <ele>2635.9</ele>
        <time>2021-02-20T11:17:19Z</time>
      </trkpt>
      <trkpt lat="45.1714" lon="5.95127">
        <ele>2635.9</ele>
        <time>2021-02-20T11:17:20Z</time>
      </trkpt>
      <trkpt lat="45.1714" lon="5.95127">
        <ele>2635.9</ele>
        <time>2021-02-20T11:17:21Z</time>
      </trkpt>
      <trkpt lat="45.1714" lon="5.95127">
        <ele>2635.9</ele>
        <time>2021-02-20T11:17:22Z</time>
      </trkpt>
      <trkpt lat="45.1714" lon="5.95127">
        <ele>2635.9</ele>
        <time>2021-02-20T11:17:23Z</time>
      </trkpt>
      <trkpt lat="45.1714" lon="5.95127">
        <ele>2635.9</ele>
        <time>2021-02-20T11:17:24Z</time>
      </trkpt>
      <trkpt lat="45.1714" lon="5.95127">
        <ele>2635.9</ele>
        <time>2021-02-20T11:17:25Z</time>
      </trkpt>
      <trkpt lat="45.1714" lon="5.95127">
        <ele>2635.9</ele>
        <time>2021-02-20T11:17:26Z</time>
      </trkpt>
      <trkpt lat="45.1714" lon="5.95127">
        <ele>2635.9</ele>
        <time>2021-02-20T11:17:27Z</time>
      </trkpt>
      <trkpt lat="45.1714" lon="5.95127">
        <ele>2635.9</ele>
        <time>2021-02-20T11:17:28Z</time>
      </trkpt>
      <trkpt lat="45.1714" lon="5.95127">
        <ele>2635.9</ele>
        <time>2021-02-20T11:17:29Z</time>
      </trkpt>
      <trkpt lat="45.1714" lon="5.95127">
        <ele>2635.9</ele>
        <time>2021-02-20T11:17:30Z</time>
      </trkpt>
      <trkpt lat="45.1714" lon="5.95127">
        <ele>2635.9</ele>
        <time>2021-02-20T11:17:31Z</time>
      </trkpt>
      <trkpt lat="45.1714" lon="5.95127">
        <ele>2635.9</ele>
        <time>2021-02-20T11:17:32Z</time>
      </trkpt>
      <trkpt lat="45.1714" lon="5.95127">
        <ele>2635.9</ele>
        <time>2021-02-20T11:17:33Z</time>
      </trkpt>
      <trkpt lat="45.1714" lon="5.95127">
        <ele>2635.9</ele>
        <time>2021-02-20T11:17:34Z</time>
      </trkpt>
      <trkpt lat="45.1714" lon="5.95127">
        <ele>2635.9</ele>
        <time>2021-02-20T11:17:35Z</time>
      </trkpt>
      <trkpt lat="45.1714" lon="5.95127">
        <ele>2635.9</ele>
        <time>2021-02-20T11:17:36Z</time>
      </trkpt>
      <trkpt lat="45.1714" lon="5.95127">
        <ele>2635.9</ele>
        <time>2021-02-20T11:17:37Z</time>
      </trkpt>
      <trkpt lat="45.1714" lon="5.95127">
        <ele>2635.9</ele>
        <time>2021-02-20T11:17:38Z</time>
      </trkpt>
      <trkpt lat="45.1714" lon="5.95127">
        <ele>2635.9</ele>
        <time>2021-02-20T11:17:39Z</time>
      </trkpt>
      <trkpt lat="45.1714" lon="5.95127">
        <ele>2635.9</ele>
        <time>2021-02-20T11:17:40Z</time>
      </trkpt>
      <trkpt lat="45.1714" lon="5.95127">
        <ele>2635.9</ele>
        <time>2021-02-20T11:17:41Z</time>
      </trkpt>
      <trkpt lat="45.1714" lon="5.95127">
        <ele>2635.9</ele>
        <time>2021-02-20T11:17:42Z</time>
      </trkpt>
      <trkpt lat="45.1714" lon="5.95127">
        <ele>2635.9</ele>
        <time>2021-02-20T11:17:43Z</time>
      </trkpt>
      <trkpt lat="45.1714" lon="5.95127">
        <ele>2635.9</ele>
        <time>2021-02-20T11:17:44Z</time>
      </trkpt>
      <trkpt lat="45.1714" lon="5.95127">
        <ele>2635.9</ele>
        <time>2021-02-20T11:17:45Z</time>
      </trkpt>
      <trkpt lat="45.1714" lon="5.95127">
        <ele>2635.9</ele>
        <time>2021-02-20T11:17:46Z</time>
      </trkpt>
      <trkpt lat="45.1714" lon="5.95127">
        <ele>2635.9</ele>
        <time>2021-02-20T11:17:47Z</time>
      </trkpt>
      <trkpt lat="45.1714" lon="5.95127">
        <ele>2635.9</ele>
        <time>2021-02-20T11:17:48Z</time>
      </trkpt>
      <trkpt lat="45.1714" lon="5.95127">
        <ele>2635.9</ele>
        <time>2021-02-20T11:17:49Z</time>
      </trkpt>
      <trkpt lat="45.1714" lon="5.95127">
        <ele>2635.9</ele>
        <time>2021-02-20T11:17:50Z</time>
      </trkpt>
      <trkpt lat="45.1714" lon="5.95127">
        <ele>2635.9</ele>
        <time>2021-02-20T11:17:51Z</time>
      </trkpt>
      <trkpt lat="45.1714" lon="5.95127">
        <ele>2635.9</ele>
        <time>2021-02-20T11:17:52Z</time>
      </trkpt>
      <trkpt lat="45.1714" lon="5.95127">
        <ele>2635.9</ele>
        <time>2021-02-20T11:17:53Z</time>
      </trkpt>
      <trkpt lat="45.1714" lon="5.95127">
        <ele>2635.9</ele>
        <time>2021-02-20T11:17:54Z</time>
      </trkpt>
      <trkpt lat="45.1714" lon="5.95127">
        <ele>2635.9</ele>
        <time>2021-02-20T11:17:55Z</time>
      </trkpt>
      <trkpt lat="45.1714" lon="5.95127">
        <ele>2635.9</ele>
        <time>2021-02-20T11:17:56Z</time>
      </trkpt>
      <trkpt lat="45.1714" lon="5.95127">
        <ele>2635.9</ele>
        <time>2021-02-20T11:17:57Z</time>
      </trkpt>
      <trkpt lat="45.1714" lon="5.95127">
        <ele>2635.9</ele>
        <time>2021-02-20T11:17:58Z</time>
      </trkpt>
      <trkpt lat="45.1714" lon="5.95127">
        <ele>2635.9</ele>
        <time>2021-02-20T11:17:59Z</time>
      </trkpt>
      <trkpt lat="45.1714" lon="5.95127">
        <ele>2635.9</ele>
        <time>2021-02-20T11:18:00Z</time>
      </trkpt>
      <trkpt lat="45.1714" lon="5.95127">
        <ele>2635.9</ele>
        <time>2021-02-20T11:18:01Z</time>
      </trkpt>
      <trkpt lat="45.1714" lon="5.95127">
        <ele>2635.9</ele>
        <time>2021-02-20T11:18:02Z</time>
      </trkpt>
      <trkpt lat="45.1714" lon="5.95127">
        <ele>2635.9</ele>
        <time>2021-02-20T11:18:03Z</time>
      </trkpt>
      <trkpt lat="45.1714" lon="5.95127">
        <ele>2635.9</ele>
        <time>2021-02-20T11:18:04Z</time>
      </trkpt>
      <trkpt lat="45.1714" lon="5.95127">
        <ele>2635.9</ele>
        <time>2021-02-20T11:18:05Z</time>
      </trkpt>
      <trkpt lat="45.1714" lon="5.95127">
        <ele>2635.9</ele>
        <time>2021-02-20T11:18:06Z</time>
      </trkpt>
      <trkpt lat="45.1714" lon="5.95127">
        <ele>2635.9</ele>
        <time>2021-02-20T11:18:07Z</time>
      </trkpt>
      <trkpt lat="45.1714" lon="5.95127">
        <ele>2635.9</ele>
        <time>2021-02-20T11:18:08Z</time>
      </trkpt>
      <trkpt lat="45.1714" lon="5.95127">
        <ele>2635.9</ele>
        <time>2021-02-20T11:18:09Z</time>
      </trkpt>
      <trkpt lat="45.1714" lon="5.95127">
        <ele>2635.9</ele>
        <time>2021-02-20T11:18:10Z</time>
      </trkpt>
      <trkpt lat="45.1714" lon="5.95127">
        <ele>2635.9</ele>
        <time>2021-02-20T11:18:11Z</time>
      </trkpt>
      <trkpt lat="45.1714" lon="5.95127">
        <ele>2635.9</ele>
        <time>2021-02-20T11:18:12Z</time>
      </trkpt>
      <trkpt lat="45.1714" lon="5.95127">
        <ele>2635.9</ele>
        <time>2021-02-20T11:18:13Z</time>
      </trkpt>
      <trkpt lat="45.1714" lon="5.95127">
        <ele>2635.9</ele>
        <time>2021-02-20T11:18:14Z</time>
      </trkpt>
      <trkpt lat="45.1714" lon="5.95127">
        <ele>2635.9</ele>
        <time>2021-02-20T11:18:15Z</time>
      </trkpt>
      <trkpt lat="45.1714" lon="5.95127">
        <ele>2635.9</ele>
        <time>2021-02-20T11:18:16Z</time>
      </trkpt>
      <trkpt lat="45.1714" lon="5.95127">
        <ele>2635.9</ele>
        <time>2021-02-20T11:18:17Z</time>
      </trkpt>
      <trkpt lat="45.1714" lon="5.95127">
        <ele>2635.9</ele>
        <time>2021-02-20T11:18:18Z</time>
      </trkpt>
      <trkpt lat="45.1714" lon="5.95127">
        <ele>2635.9</ele>
        <time>2021-02-20T11:18:19Z</time>
      </trkpt>
      <trkpt lat="45.1714" lon="5.95127">
        <ele>2635.9</ele>
        <time>2021-02-20T11:18:20Z</time>
      </trkpt>
      <trkpt lat="45.1714" lon="5.95127">
        <ele>2635.9</ele>
        <time>2021-02-20T11:18:21Z</time>
      </trkpt>
      <trkpt lat="45.1714" lon="5.95127">
        <ele>2635.9</ele>
        <time>2021-02-20T11:18:22Z</time>
      </trkpt>
      <trkpt lat="45.1714" lon="5.95127">
        <ele>2635.9</ele>
        <time>2021-02-20T11:18:23Z</time>
      </trkpt>
      <trkpt lat="45.1714" lon="5.95127">
        <ele>2635.9</ele>
        <time>2021-02-20T11:18:24Z</time>
      </trkpt>
      <trkpt lat="45.1714" lon="5.95127">
        <ele>2635.9</ele>
        <time>2021-02-20T11:18:25Z</time>
      </trkpt>
      <trkpt lat="45.1714" lon="5.95127">
        <ele>2635.9</ele>
        <time>2021-02-20T11:18:26Z</time>
      </trkpt>
      <trkpt lat="45.1714" lon="5.95127">
        <ele>2635.9</ele>
        <time>2021-02-20T11:18:27Z</time>
      </trkpt>
      <trkpt lat="45.1714" lon="5.95127">
        <ele>2635.9</ele>
        <time>2021-02-20T11:18:28Z</time>
      </trkpt>
      <trkpt lat="45.1714" lon="5.95127">
        <ele>2635.9</ele>
        <time>2021-02-20T11:18:29Z</time>
      </trkpt>
      <trkpt lat="45.1714" lon="5.95127">
        <ele>2635.9</ele>
        <time>2021-02-20T11:18:30Z</time>
      </trkpt>
      <trkpt lat="45.1714" lon="5.95127">
        <ele>2635.9</ele>
        <time>2021-02-20T11:18:31Z</time>
      </trkpt>
      <trkpt lat="45.1714" lon="5.95127">
        <ele>2635.9</ele>
        <time>2021-02-20T11:18:32Z</time>
      </trkpt>
      <trkpt lat="45.1714" lon="5.95127">
        <ele>2635.9</ele>
        <time>2021-02-20T11:18:33Z</time>
      </trkpt>
      <trkpt lat="45.1714" lon="5.95127">
        <ele>2635.9</ele>
        <time>2021-02-20T11:18:34Z</time>
      </trkpt>
      <trkpt lat="45.1714" lon="5.95127">
        <ele>2635.9</ele>
        <time>2021-02-20T11:18:35Z</time>
      </trkpt>
      <trkpt lat="45.1714" lon="5.95127">
        <ele>2635.9</ele>
        <time>2021-02-20T11:18:36Z</time>
      </trkpt>
      <trkpt lat="45.1714" lon="5.95127">
        <ele>2635.9</ele>
        <time>2021-02-20T11:18:37Z</time>
      </trkpt>
      <trkpt lat="45.1714" lon="5.95127">
        <ele>2635.9</ele>
        <time>2021-02-20T11:18:38Z</time>
      </trkpt>
      <trkpt lat="45.1714" lon="5.95127">
        <ele>2635.9</ele>
        <time>2021-02-20T11:18:39Z</time>
      </trkpt>
      <trkpt lat="45.1714" lon="5.95127">
        <ele>2635.9</ele>
        <time>2021-02-20T11:18:40Z</time>
      </trkpt>
      <trkpt lat="45.1714" lon="5.95127">
        <ele>2635.9</ele>
        <time>2021-02-20T11:18:41Z</time>
      </trkpt>
      <trkpt lat="45.1714" lon="5.95127">
        <ele>2635.9</ele>
        <time>2021-02-20T11:18:42Z</time>
      </trkpt>
      <trkpt lat="45.1714" lon="5.95127">
        <ele>2635.9</ele>
        <time>2021-02-20T11:18:43Z</time>
      </trkpt>
      <trkpt lat="45.1714" lon="5.95127">
        <ele>2635.9</ele>
        <time>2021-02-20T11:18:44Z</time>
      </trkpt>
      <trkpt lat="45.1714" lon="5.95127">
        <ele>2635.9</ele>
        <time>2021-02-20T11:18:45Z</time>
      </trkpt>
      <trkpt lat="45.1714" lon="5.95127">
        <ele>2635.9</ele>
        <time>2021-02-20T11:18:46Z</time>
      </trkpt>
      <trkpt lat="45.1714" lon="5.95127">
        <ele>2635.9</ele>
        <time>2021-02-20T11:18:47Z</time>
      </trkpt>
      <trkpt lat="45.1714" lon="5.95127">
        <ele>2635.9</ele>
        <time>2021-02-20T11:18:48Z</time>
      </trkpt>
      <trkpt lat="45.1714" lon="5.95127">
        <ele>2635.9</ele>
        <time>2021-02-20T11:18:49Z</time>
      </trkpt>
      <trkpt lat="45.1714" lon="5.95127">
        <ele>2635.9</ele>
        <time>2021-02-20T11:18:50Z</time>
      </trkpt>
      <trkpt lat="45.1714" lon="5.95127">
        <ele>2635.9</ele>
        <time>2021-02-20T11:18:51Z</time>
      </trkpt>
      <trkpt lat="45.1714" lon="5.95127">
        <ele>2635.9</ele>
        <time>2021-02-20T11:18:52Z</time>
      </trkpt>
      <trkpt lat="45.1714" lon="5.95127">
        <ele>2635.9</ele>
        <time>2021-02-20T11:18:53Z</time>
      </trkpt>
      <trkpt lat="45.1714" lon="5.95127">
        <ele>2635.9</ele>
        <time>2021-02-20T11:18:54Z</time>
      </trkpt>
      <trkpt lat="45.1714" lon="5.95127">
        <ele>2635.9</ele>
        <time>2021-02-20T11:18:55Z</time>
      </trkpt>
      <trkpt lat="45.1714" lon="5.95127">
        <ele>2635.9</ele>
        <time>2021-02-20T11:18:56Z</time>
      </trkpt>
      <trkpt lat="45.1714" lon="5.95127">
        <ele>2635.9</ele>
        <time>2021-02-20T11:18:57Z</time>
      </trkpt>
      <trkpt lat="45.1714" lon="5.95127">
        <ele>2635.9</ele>
        <time>2021-02-20T11:18:58Z</time>
      </trkpt>
      <trkpt lat="45.1714" lon="5.95127">
        <ele>2635.9</ele>
        <time>2021-02-20T11:18:59Z</time>
      </trkpt>
      <trkpt lat="45.1714" lon="5.95127">
        <ele>2635.9</ele>
        <time>2021-02-20T11:19:00Z</time>
      </trkpt>
      <trkpt lat="45.1714" lon="5.95127">
        <ele>2635.9</ele>
        <time>2021-02-20T11:19:01Z</time>
      </trkpt>
      <trkpt lat="45.1714" lon="5.95127">
        <ele>2635.9</ele>
        <time>2021-02-20T11:19:02Z</time>
      </trkpt>
      <trkpt lat="45.1714" lon="5.95127">
        <ele>2635.9</ele>
        <time>2021-02-20T11:19:03Z</time>
      </trkpt>
      <trkpt lat="45.1714" lon="5.95127">
        <ele>2635.9</ele>
        <time>2021-02-20T11:19:04Z</time>
      </trkpt>
      <trkpt lat="45.1714" lon="5.95127">
        <ele>2635.9</ele>
        <time>2021-02-20T11:19:05Z</time>
      </trkpt>
      <trkpt lat="45.1714" lon="5.95127">
        <ele>2635.9</ele>
        <time>2021-02-20T11:19:06Z</time>
      </trkpt>
      <trkpt lat="45.1714" lon="5.95127">
        <ele>2635.9</ele>
        <time>2021-02-20T11:19:07Z</time>
      </trkpt>
      <trkpt lat="45.1714" lon="5.95127">
        <ele>2635.9</ele>
        <time>2021-02-20T11:19:08Z</time>
      </trkpt>
      <trkpt lat="45.1714" lon="5.95127">
        <ele>2635.9</ele>
        <time>2021-02-20T11:19:09Z</time>
      </trkpt>
      <trkpt lat="45.1714" lon="5.95127">
        <ele>2635.9</ele>
        <time>2021-02-20T11:19:10Z</time>
      </trkpt>
      <trkpt lat="45.1714" lon="5.95127">
        <ele>2635.9</ele>
        <time>2021-02-20T11:19:11Z</time>
      </trkpt>
      <trkpt lat="45.1714" lon="5.95127">
        <ele>2635.9</ele>
        <time>2021-02-20T11:19:12Z</time>
      </trkpt>
      <trkpt lat="45.1714" lon="5.95127">
        <ele>2635.9</ele>
        <time>2021-02-20T11:19:13Z</time>
      </trkpt>
      <trkpt lat="45.1714" lon="5.95127">
        <ele>2635.9</ele>
        <time>2021-02-20T11:19:14Z</time>
      </trkpt>
      <trkpt lat="45.1714" lon="5.95127">
        <ele>2635.9</ele>
        <time>2021-02-20T11:19:15Z</time>
      </trkpt>
      <trkpt lat="45.1714" lon="5.95127">
        <ele>2635.9</ele>
        <time>2021-02-20T11:19:16Z</time>
      </trkpt>
      <trkpt lat="45.1714" lon="5.95127">
        <ele>2635.9</ele>
        <time>2021-02-20T11:19:17Z</time>
      </trkpt>
      <trkpt lat="45.1714" lon="5.95127">
        <ele>2635.9</ele>
        <time>2021-02-20T11:19:18Z</time>
      </trkpt>
      <trkpt lat="45.1714" lon="5.95127">
        <ele>2635.9</ele>
        <time>2021-02-20T11:19:19Z</time>
      </trkpt>
      <trkpt lat="45.1714" lon="5.95127">
        <ele>2635.9</ele>
        <time>2021-02-20T11:19:20Z</time>
      </trkpt>
      <trkpt lat="45.1714" lon="5.95127">
        <ele>2635.9</ele>
        <time>2021-02-20T11:19:21Z</time>
      </trkpt>
      <trkpt lat="45.1714" lon="5.95127">
        <ele>2635.9</ele>
        <time>2021-02-20T11:19:22Z</time>
      </trkpt>
      <trkpt lat="45.1714" lon="5.95127">
        <ele>2635.9</ele>
        <time>2021-02-20T11:19:23Z</time>
      </trkpt>
      <trkpt lat="45.1714" lon="5.95127">
        <ele>2635.9</ele>
        <time>2021-02-20T11:19:24Z</time>
      </trkpt>
      <trkpt lat="45.1714" lon="5.95127">
        <ele>2635.9</ele>
        <time>2021-02-20T11:19:25Z</time>
      </trkpt>
      <trkpt lat="45.1714" lon="5.95127">
        <ele>2635.9</ele>
        <time>2021-02-20T11:19:26Z</time>
      </trkpt>
      <trkpt lat="45.1714" lon="5.95127">
        <ele>2635.9</ele>
        <time>2021-02-20T11:19:27Z</time>
      </trkpt>
      <trkpt lat="45.1714" lon="5.95127">
        <ele>2635.9</ele>
        <time>2021-02-20T11:19:28Z</time>
      </trkpt>
      <trkpt lat="45.1714" lon="5.95127">
        <ele>2635.9</ele>
        <time>2021-02-20T11:19:29Z</time>
      </trkpt>
      <trkpt lat="45.1714" lon="5.95127">
        <ele>2635.9</ele>
        <time>2021-02-20T11:19:30Z</time>
      </trkpt>
      <trkpt lat="45.1714" lon="5.95127">
        <ele>2635.9</ele>
        <time>2021-02-20T11:19:31Z</time>
      </trkpt>
      <trkpt lat="45.1714" lon="5.95127">
        <ele>2635.9</ele>
        <time>2021-02-20T11:19:32Z</time>
      </trkpt>
      <trkpt lat="45.1714" lon="5.95127">
        <ele>2635.9</ele>
        <time>2021-02-20T11:19:33Z</time>
      </trkpt>
      <trkpt lat="45.1714" lon="5.95127">
        <ele>2635.9</ele>
        <time>2021-02-20T11:19:34Z</time>
      </trkpt>
      <trkpt lat="45.1714" lon="5.95127">
        <ele>2635.9</ele>
        <time>2021-02-20T11:19:35Z</time>
      </trkpt>
      <trkpt lat="45.1714" lon="5.95127">
        <ele>2635.9</ele>
        <time>2021-02-20T11:19:36Z</time>
      </trkpt>
      <trkpt lat="45.1714" lon="5.95127">
        <ele>2635.9</ele>
        <time>2021-02-20T11:19:37Z</time>
      </trkpt>
      <trkpt lat="45.1714" lon="5.95127">
        <ele>2635.9</ele>
        <time>2021-02-20T11:19:38Z</time>
      </trkpt>
      <trkpt lat="45.1714" lon="5.95127">
        <ele>2635.9</ele>
        <time>2021-02-20T11:19:39Z</time>
      </trkpt>
      <trkpt lat="45.1714" lon="5.95127">
        <ele>2635.9</ele>
        <time>2021-02-20T11:19:40Z</time>
      </trkpt>
      <trkpt lat="45.1714" lon="5.95127">
        <ele>2635.9</ele>
        <time>2021-02-20T11:19:41Z</time>
      </trkpt>
      <trkpt lat="45.1714" lon="5.95127">
        <ele>2635.9</ele>
        <time>2021-02-20T11:19:42Z</time>
      </trkpt>
      <trkpt lat="45.1714" lon="5.95127">
        <ele>2635.9</ele>
        <time>2021-02-20T11:19:43Z</time>
      </trkpt>
      <trkpt lat="45.1714" lon="5.95127">
        <ele>2635.9</ele>
        <time>2021-02-20T11:19:44Z</time>
      </trkpt>
      <trkpt lat="45.1714" lon="5.95127">
        <ele>2635.9</ele>
        <time>2021-02-20T11:19:45Z</time>
      </trkpt>
      <trkpt lat="45.1714" lon="5.95127">
        <ele>2635.9</ele>
        <time>2021-02-20T11:19:46Z</time>
      </trkpt>
      <trkpt lat="45.1714" lon="5.95127">
        <ele>2635.9</ele>
        <time>2021-02-20T11:19:47Z</time>
      </trkpt>
      <trkpt lat="45.1714" lon="5.95127">
        <ele>2635.9</ele>
        <time>2021-02-20T11:19:48Z</time>
      </trkpt>
      <trkpt lat="45.1714" lon="5.95127">
        <ele>2635.9</ele>
        <time>2021-02-20T11:19:49Z</time>
      </trkpt>
      <trkpt lat="45.1714" lon="5.95127">
        <ele>2635.9</ele>
        <time>2021-02-20T11:19:50Z</time>
      </trkpt>
      <trkpt lat="45.1714" lon="5.95127">
        <ele>2635.9</ele>
        <time>2021-02-20T11:19:51Z</time>
      </trkpt>
      <trkpt lat="45.1714" lon="5.95127">
        <ele>2635.9</ele>
        <time>2021-02-20T11:19:52Z</time>
      </trkpt>
      <trkpt lat="45.1714" lon="5.95127">
        <ele>2635.9</ele>
        <time>2021-02-20T11:19:53Z</time>
      </trkpt>
      <trkpt lat="45.1714" lon="5.95127">
        <ele>2635.9</ele>
        <time>2021-02-20T11:19:54Z</time>
      </trkpt>
      <trkpt lat="45.17139" lon="5.95126">
        <ele>2636.5</ele>
        <time>2021-02-20T11:19:55Z</time>
      </trkpt>
      <trkpt lat="45.17139" lon="5.95126">
        <ele>2636.5</ele>
        <time>2021-02-20T11:19:56Z</time>
      </trkpt>
      <trkpt lat="45.17138" lon="5.95125">
        <ele>2636.5</ele>
        <time>2021-02-20T11:19:57Z</time>
      </trkpt>
      <trkpt lat="45.17138" lon="5.95124">
        <ele>2636.1</ele>
        <time>2021-02-20T11:19:58Z</time>
      </trkpt>
      <trkpt lat="45.17138" lon="5.95124">
        <ele>2636.1</ele>
        <time>2021-02-20T11:19:59Z</time>
      </trkpt>
      <trkpt lat="45.17138" lon="5.95126">
        <ele>2636.5</ele>
        <time>2021-02-20T11:20:00Z</time>
      </trkpt>
      <trkpt lat="45.17138" lon="5.95126">
        <ele>2636.5</ele>
        <time>2021-02-20T11:20:01Z</time>
      </trkpt>
      <trkpt lat="45.17138" lon="5.95126">
        <ele>2636.5</ele>
        <time>2021-02-20T11:20:02Z</time>
      </trkpt>
      <trkpt lat="45.17138" lon="5.95126">
        <ele>2636.5</ele>
        <time>2021-02-20T11:20:03Z</time>
      </trkpt>
      <trkpt lat="45.17138" lon="5.95126">
        <ele>2636.5</ele>
        <time>2021-02-20T11:20:04Z</time>
      </trkpt>
      <trkpt lat="45.17138" lon="5.95126">
        <ele>2636.5</ele>
        <time>2021-02-20T11:20:05Z</time>
      </trkpt>
      <trkpt lat="45.17138" lon="5.95126">
        <ele>2636.5</ele>
        <time>2021-02-20T11:20:06Z</time>
      </trkpt>
      <trkpt lat="45.17138" lon="5.95126">
        <ele>2636.5</ele>
        <time>2021-02-20T11:20:07Z</time>
      </trkpt>
      <trkpt lat="45.17138" lon="5.95126">
        <ele>2636.5</ele>
        <time>2021-02-20T11:20:08Z</time>
      </trkpt>
      <trkpt lat="45.17138" lon="5.95126">
        <ele>2636.5</ele>
        <time>2021-02-20T11:20:09Z</time>
      </trkpt>
      <trkpt lat="45.17138" lon="5.95126">
        <ele>2636.5</ele>
        <time>2021-02-20T11:20:10Z</time>
      </trkpt>
      <trkpt lat="45.17138" lon="5.95126">
        <ele>2636.5</ele>
        <time>2021-02-20T11:20:11Z</time>
      </trkpt>
      <trkpt lat="45.17138" lon="5.95126">
        <ele>2636.5</ele>
        <time>2021-02-20T11:20:12Z</time>
      </trkpt>
      <trkpt lat="45.17138" lon="5.95126">
        <ele>2636.5</ele>
        <time>2021-02-20T11:20:13Z</time>
      </trkpt>
      <trkpt lat="45.17138" lon="5.95126">
        <ele>2636.5</ele>
        <time>2021-02-20T11:20:14Z</time>
      </trkpt>
      <trkpt lat="45.17138" lon="5.95126">
        <ele>2636.5</ele>
        <time>2021-02-20T11:20:15Z</time>
      </trkpt>
      <trkpt lat="45.17138" lon="5.95126">
        <ele>2636.5</ele>
        <time>2021-02-20T11:20:16Z</time>
      </trkpt>
      <trkpt lat="45.17138" lon="5.95126">
        <ele>2636.5</ele>
        <time>2021-02-20T11:20:17Z</time>
      </trkpt>
      <trkpt lat="45.17138" lon="5.95126">
        <ele>2636.5</ele>
        <time>2021-02-20T11:20:18Z</time>
      </trkpt>
      <trkpt lat="45.17138" lon="5.95126">
        <ele>2636.5</ele>
        <time>2021-02-20T11:20:19Z</time>
      </trkpt>
      <trkpt lat="45.17138" lon="5.95126">
        <ele>2636.5</ele>
        <time>2021-02-20T11:20:20Z</time>
      </trkpt>
      <trkpt lat="45.17138" lon="5.95126">
        <ele>2636.5</ele>
        <time>2021-02-20T11:20:21Z</time>
      </trkpt>
      <trkpt lat="45.17138" lon="5.95126">
        <ele>2636.5</ele>
        <time>2021-02-20T11:20:22Z</time>
      </trkpt>
      <trkpt lat="45.17138" lon="5.95126">
        <ele>2636.5</ele>
        <time>2021-02-20T11:20:23Z</time>
      </trkpt>
      <trkpt lat="45.17138" lon="5.95126">
        <ele>2636.5</ele>
        <time>2021-02-20T11:20:24Z</time>
      </trkpt>
      <trkpt lat="45.17138" lon="5.95126">
        <ele>2636.5</ele>
        <time>2021-02-20T11:20:25Z</time>
      </trkpt>
      <trkpt lat="45.17138" lon="5.95126">
        <ele>2636.5</ele>
        <time>2021-02-20T11:20:26Z</time>
      </trkpt>
      <trkpt lat="45.17138" lon="5.95126">
        <ele>2636.5</ele>
        <time>2021-02-20T11:20:27Z</time>
      </trkpt>
      <trkpt lat="45.17138" lon="5.95126">
        <ele>2636.5</ele>
        <time>2021-02-20T11:20:28Z</time>
      </trkpt>
      <trkpt lat="45.17138" lon="5.95126">
        <ele>2636.5</ele>
        <time>2021-02-20T11:20:29Z</time>
      </trkpt>
      <trkpt lat="45.17138" lon="5.95126">
        <ele>2636.5</ele>
        <time>2021-02-20T11:20:30Z</time>
      </trkpt>
      <trkpt lat="45.17138" lon="5.95126">
        <ele>2636.5</ele>
        <time>2021-02-20T11:20:31Z</time>
      </trkpt>
      <trkpt lat="45.17138" lon="5.95126">
        <ele>2636.5</ele>
        <time>2021-02-20T11:20:32Z</time>
      </trkpt>
      <trkpt lat="45.17138" lon="5.95126">
        <ele>2636.5</ele>
        <time>2021-02-20T11:20:33Z</time>
      </trkpt>
      <trkpt lat="45.17138" lon="5.95126">
        <ele>2636.5</ele>
        <time>2021-02-20T11:20:34Z</time>
      </trkpt>
      <trkpt lat="45.17138" lon="5.95126">
        <ele>2636.5</ele>
        <time>2021-02-20T11:20:35Z</time>
      </trkpt>
      <trkpt lat="45.17138" lon="5.95126">
        <ele>2636.5</ele>
        <time>2021-02-20T11:20:36Z</time>
      </trkpt>
      <trkpt lat="45.17138" lon="5.95126">
        <ele>2636.5</ele>
        <time>2021-02-20T11:20:37Z</time>
      </trkpt>
      <trkpt lat="45.17138" lon="5.95126">
        <ele>2636.5</ele>
        <time>2021-02-20T11:20:38Z</time>
      </trkpt>
      <trkpt lat="45.17138" lon="5.95126">
        <ele>2636.5</ele>
        <time>2021-02-20T11:20:39Z</time>
      </trkpt>
      <trkpt lat="45.17138" lon="5.95126">
        <ele>2636.5</ele>
        <time>2021-02-20T11:20:40Z</time>
      </trkpt>
      <trkpt lat="45.17138" lon="5.95126">
        <ele>2636.5</ele>
        <time>2021-02-20T11:20:41Z</time>
      </trkpt>
      <trkpt lat="45.17138" lon="5.95126">
        <ele>2636.5</ele>
        <time>2021-02-20T11:20:42Z</time>
      </trkpt>
      <trkpt lat="45.17138" lon="5.95126">
        <ele>2636.5</ele>
        <time>2021-02-20T11:20:43Z</time>
      </trkpt>
      <trkpt lat="45.17138" lon="5.95126">
        <ele>2636.5</ele>
        <time>2021-02-20T11:20:44Z</time>
      </trkpt>
      <trkpt lat="45.17138" lon="5.95126">
        <ele>2636.5</ele>
        <time>2021-02-20T11:20:45Z</time>
      </trkpt>
      <trkpt lat="45.17138" lon="5.95126">
        <ele>2636.5</ele>
        <time>2021-02-20T11:20:46Z</time>
      </trkpt>
      <trkpt lat="45.17138" lon="5.95126">
        <ele>2636.5</ele>
        <time>2021-02-20T11:20:47Z</time>
      </trkpt>
      <trkpt lat="45.17138" lon="5.95126">
        <ele>2636.5</ele>
        <time>2021-02-20T11:20:48Z</time>
      </trkpt>
      <trkpt lat="45.17138" lon="5.95126">
        <ele>2636.5</ele>
        <time>2021-02-20T11:20:49Z</time>
      </trkpt>
      <trkpt lat="45.17138" lon="5.95126">
        <ele>2636.5</ele>
        <time>2021-02-20T11:20:50Z</time>
      </trkpt>
      <trkpt lat="45.17138" lon="5.95126">
        <ele>2636.5</ele>
        <time>2021-02-20T11:20:51Z</time>
      </trkpt>
      <trkpt lat="45.17138" lon="5.95126">
        <ele>2636.5</ele>
        <time>2021-02-20T11:20:52Z</time>
      </trkpt>
      <trkpt lat="45.17138" lon="5.95126">
        <ele>2636.5</ele>
        <time>2021-02-20T11:20:53Z</time>
      </trkpt>
      <trkpt lat="45.17138" lon="5.95126">
        <ele>2636.5</ele>
        <time>2021-02-20T11:20:54Z</time>
      </trkpt>
      <trkpt lat="45.17138" lon="5.95126">
        <ele>2636.5</ele>
        <time>2021-02-20T11:20:55Z</time>
      </trkpt>
      <trkpt lat="45.17138" lon="5.95126">
        <ele>2636.5</ele>
        <time>2021-02-20T11:20:56Z</time>
      </trkpt>
      <trkpt lat="45.17138" lon="5.95126">
        <ele>2636.5</ele>
        <time>2021-02-20T11:20:57Z</time>
      </trkpt>
      <trkpt lat="45.17138" lon="5.95126">
        <ele>2636.5</ele>
        <time>2021-02-20T11:20:58Z</time>
      </trkpt>
      <trkpt lat="45.17138" lon="5.95126">
        <ele>2636.5</ele>
        <time>2021-02-20T11:20:59Z</time>
      </trkpt>
      <trkpt lat="45.17138" lon="5.95126">
        <ele>2636.5</ele>
        <time>2021-02-20T11:21:00Z</time>
      </trkpt>
      <trkpt lat="45.17138" lon="5.95126">
        <ele>2636.5</ele>
        <time>2021-02-20T11:21:01Z</time>
      </trkpt>
      <trkpt lat="45.17138" lon="5.95126">
        <ele>2636.5</ele>
        <time>2021-02-20T11:21:02Z</time>
      </trkpt>
      <trkpt lat="45.17138" lon="5.95126">
        <ele>2636.5</ele>
        <time>2021-02-20T11:21:03Z</time>
      </trkpt>
      <trkpt lat="45.17138" lon="5.95126">
        <ele>2636.5</ele>
        <time>2021-02-20T11:21:04Z</time>
      </trkpt>
      <trkpt lat="45.17138" lon="5.95126">
        <ele>2636.5</ele>
        <time>2021-02-20T11:21:05Z</time>
      </trkpt>
      <trkpt lat="45.17138" lon="5.95126">
        <ele>2636.5</ele>
        <time>2021-02-20T11:21:06Z</time>
      </trkpt>
      <trkpt lat="45.17138" lon="5.95126">
        <ele>2636.5</ele>
        <time>2021-02-20T11:21:07Z</time>
      </trkpt>
      <trkpt lat="45.17138" lon="5.95126">
        <ele>2636.5</ele>
        <time>2021-02-20T11:21:08Z</time>
      </trkpt>
      <trkpt lat="45.17138" lon="5.95126">
        <ele>2636.5</ele>
        <time>2021-02-20T11:21:09Z</time>
      </trkpt>
      <trkpt lat="45.17138" lon="5.95126">
        <ele>2636.5</ele>
        <time>2021-02-20T11:21:10Z</time>
      </trkpt>
      <trkpt lat="45.17138" lon="5.95126">
        <ele>2636.5</ele>
        <time>2021-02-20T11:21:11Z</time>
      </trkpt>
      <trkpt lat="45.17138" lon="5.95126">
        <ele>2636.5</ele>
        <time>2021-02-20T11:21:12Z</time>
      </trkpt>
      <trkpt lat="45.17138" lon="5.95126">
        <ele>2636.5</ele>
        <time>2021-02-20T11:21:13Z</time>
      </trkpt>
      <trkpt lat="45.17138" lon="5.95126">
        <ele>2636.5</ele>
        <time>2021-02-20T11:21:14Z</time>
      </trkpt>
      <trkpt lat="45.17138" lon="5.95126">
        <ele>2636.5</ele>
        <time>2021-02-20T11:21:15Z</time>
      </trkpt>
      <trkpt lat="45.17138" lon="5.95126">
        <ele>2636.5</ele>
        <time>2021-02-20T11:21:16Z</time>
      </trkpt>
      <trkpt lat="45.17138" lon="5.95126">
        <ele>2636.5</ele>
        <time>2021-02-20T11:21:17Z</time>
      </trkpt>
      <trkpt lat="45.17138" lon="5.95126">
        <ele>2636.5</ele>
        <time>2021-02-20T11:21:18Z</time>
      </trkpt>
      <trkpt lat="45.17138" lon="5.95126">
        <ele>2636.5</ele>
        <time>2021-02-20T11:21:19Z</time>
      </trkpt>
      <trkpt lat="45.17138" lon="5.95126">
        <ele>2636.5</ele>
        <time>2021-02-20T11:21:20Z</time>
      </trkpt>
      <trkpt lat="45.17138" lon="5.95126">
        <ele>2636.5</ele>
        <time>2021-02-20T11:21:21Z</time>
      </trkpt>
      <trkpt lat="45.17138" lon="5.95126">
        <ele>2636.5</ele>
        <time>2021-02-20T11:21:22Z</time>
      </trkpt>
      <trkpt lat="45.17138" lon="5.95126">
        <ele>2636.5</ele>
        <time>2021-02-20T11:21:23Z</time>
      </trkpt>
      <trkpt lat="45.17138" lon="5.95126">
        <ele>2636.5</ele>
        <time>2021-02-20T11:21:24Z</time>
      </trkpt>
      <trkpt lat="45.17138" lon="5.95126">
        <ele>2636.5</ele>
        <time>2021-02-20T11:21:25Z</time>
      </trkpt>
      <trkpt lat="45.17138" lon="5.95126">
        <ele>2636.5</ele>
        <time>2021-02-20T11:21:26Z</time>
      </trkpt>
      <trkpt lat="45.17138" lon="5.95126">
        <ele>2636.5</ele>
        <time>2021-02-20T11:21:27Z</time>
      </trkpt>
      <trkpt lat="45.17138" lon="5.95126">
        <ele>2636.5</ele>
        <time>2021-02-20T11:21:28Z</time>
      </trkpt>
      <trkpt lat="45.17138" lon="5.95126">
        <ele>2636.5</ele>
        <time>2021-02-20T11:21:29Z</time>
      </trkpt>
      <trkpt lat="45.17138" lon="5.95126">
        <ele>2636.5</ele>
        <time>2021-02-20T11:21:30Z</time>
      </trkpt>
      <trkpt lat="45.17138" lon="5.95126">
        <ele>2636.5</ele>
        <time>2021-02-20T11:21:31Z</time>
      </trkpt>
      <trkpt lat="45.17138" lon="5.95126">
        <ele>2636.5</ele>
        <time>2021-02-20T11:21:32Z</time>
      </trkpt>
      <trkpt lat="45.17138" lon="5.95126">
        <ele>2636.5</ele>
        <time>2021-02-20T11:21:33Z</time>
      </trkpt>
      <trkpt lat="45.17138" lon="5.95126">
        <ele>2636.5</ele>
        <time>2021-02-20T11:21:34Z</time>
      </trkpt>
      <trkpt lat="45.17138" lon="5.95126">
        <ele>2636.5</ele>
        <time>2021-02-20T11:21:35Z</time>
      </trkpt>
      <trkpt lat="45.17138" lon="5.95126">
        <ele>2636.5</ele>
        <time>2021-02-20T11:21:36Z</time>
      </trkpt>
      <trkpt lat="45.17138" lon="5.95126">
        <ele>2636.5</ele>
        <time>2021-02-20T11:21:37Z</time>
      </trkpt>
      <trkpt lat="45.17138" lon="5.95126">
        <ele>2636.5</ele>
        <time>2021-02-20T11:21:38Z</time>
      </trkpt>
      <trkpt lat="45.17138" lon="5.95126">
        <ele>2636.5</ele>
        <time>2021-02-20T11:21:39Z</time>
      </trkpt>
      <trkpt lat="45.17138" lon="5.95126">
        <ele>2636.5</ele>
        <time>2021-02-20T11:21:40Z</time>
      </trkpt>
      <trkpt lat="45.17138" lon="5.95126">
        <ele>2636.5</ele>
        <time>2021-02-20T11:21:41Z</time>
      </trkpt>
      <trkpt lat="45.17138" lon="5.95126">
        <ele>2636.5</ele>
        <time>2021-02-20T11:21:42Z</time>
      </trkpt>
      <trkpt lat="45.17138" lon="5.95126">
        <ele>2636.5</ele>
        <time>2021-02-20T11:21:43Z</time>
      </trkpt>
      <trkpt lat="45.17138" lon="5.95126">
        <ele>2636.5</ele>
        <time>2021-02-20T11:21:44Z</time>
      </trkpt>
      <trkpt lat="45.17138" lon="5.95126">
        <ele>2636.5</ele>
        <time>2021-02-20T11:21:45Z</time>
      </trkpt>
      <trkpt lat="45.17138" lon="5.95126">
        <ele>2636.5</ele>
        <time>2021-02-20T11:21:46Z</time>
      </trkpt>
      <trkpt lat="45.17138" lon="5.95126">
        <ele>2636.5</ele>
        <time>2021-02-20T11:21:47Z</time>
      </trkpt>
      <trkpt lat="45.17138" lon="5.95126">
        <ele>2636.5</ele>
        <time>2021-02-20T11:21:48Z</time>
      </trkpt>
      <trkpt lat="45.17138" lon="5.95126">
        <ele>2636.5</ele>
        <time>2021-02-20T11:21:49Z</time>
      </trkpt>
      <trkpt lat="45.17138" lon="5.95126">
        <ele>2636.5</ele>
        <time>2021-02-20T11:21:50Z</time>
      </trkpt>
      <trkpt lat="45.17138" lon="5.95126">
        <ele>2636.5</ele>
        <time>2021-02-20T11:21:51Z</time>
      </trkpt>
      <trkpt lat="45.17138" lon="5.95126">
        <ele>2636.5</ele>
        <time>2021-02-20T11:21:52Z</time>
      </trkpt>
      <trkpt lat="45.17138" lon="5.95126">
        <ele>2636.5</ele>
        <time>2021-02-20T11:21:53Z</time>
      </trkpt>
      <trkpt lat="45.17138" lon="5.95126">
        <ele>2636.5</ele>
        <time>2021-02-20T11:21:54Z</time>
      </trkpt>
      <trkpt lat="45.17138" lon="5.95126">
        <ele>2636.5</ele>
        <time>2021-02-20T11:21:55Z</time>
      </trkpt>
      <trkpt lat="45.17138" lon="5.95126">
        <ele>2636.5</ele>
        <time>2021-02-20T11:21:56Z</time>
      </trkpt>
      <trkpt lat="45.17138" lon="5.95126">
        <ele>2636.5</ele>
        <time>2021-02-20T11:21:57Z</time>
      </trkpt>
      <trkpt lat="45.17138" lon="5.95126">
        <ele>2636.5</ele>
        <time>2021-02-20T11:21:58Z</time>
      </trkpt>
      <trkpt lat="45.17138" lon="5.95126">
        <ele>2636.5</ele>
        <time>2021-02-20T11:21:59Z</time>
      </trkpt>
      <trkpt lat="45.17138" lon="5.95126">
        <ele>2636.5</ele>
        <time>2021-02-20T11:22:00Z</time>
      </trkpt>
      <trkpt lat="45.17138" lon="5.95126">
        <ele>2636.5</ele>
        <time>2021-02-20T11:22:01Z</time>
      </trkpt>
      <trkpt lat="45.17138" lon="5.95126">
        <ele>2636.5</ele>
        <time>2021-02-20T11:22:02Z</time>
      </trkpt>
      <trkpt lat="45.17138" lon="5.95126">
        <ele>2636.5</ele>
        <time>2021-02-20T11:22:03Z</time>
      </trkpt>
      <trkpt lat="45.17138" lon="5.95126">
        <ele>2636.5</ele>
        <time>2021-02-20T11:22:04Z</time>
      </trkpt>
      <trkpt lat="45.17138" lon="5.95126">
        <ele>2636.5</ele>
        <time>2021-02-20T11:22:05Z</time>
      </trkpt>
      <trkpt lat="45.17138" lon="5.95126">
        <ele>2636.5</ele>
        <time>2021-02-20T11:22:06Z</time>
      </trkpt>
      <trkpt lat="45.17138" lon="5.95126">
        <ele>2636.5</ele>
        <time>2021-02-20T11:22:07Z</time>
      </trkpt>
      <trkpt lat="45.17138" lon="5.95126">
        <ele>2636.5</ele>
        <time>2021-02-20T11:22:08Z</time>
      </trkpt>
      <trkpt lat="45.17138" lon="5.95126">
        <ele>2636.5</ele>
        <time>2021-02-20T11:22:09Z</time>
      </trkpt>
      <trkpt lat="45.17139" lon="5.95127">
        <ele>2636.5</ele>
        <time>2021-02-20T11:22:10Z</time>
      </trkpt>
      <trkpt lat="45.17139" lon="5.95127">
        <ele>2636.5</ele>
        <time>2021-02-20T11:22:11Z</time>
      </trkpt>
      <trkpt lat="45.17139" lon="5.95127">
        <ele>2636.5</ele>
        <time>2021-02-20T11:22:12Z</time>
      </trkpt>
      <trkpt lat="45.17139" lon="5.95127">
        <ele>2636.5</ele>
        <time>2021-02-20T11:22:13Z</time>
      </trkpt>
      <trkpt lat="45.17139" lon="5.95127">
        <ele>2636.5</ele>
        <time>2021-02-20T11:22:14Z</time>
      </trkpt>
      <trkpt lat="45.17139" lon="5.95127">
        <ele>2636.5</ele>
        <time>2021-02-20T11:22:15Z</time>
      </trkpt>
      <trkpt lat="45.17139" lon="5.95127">
        <ele>2636.5</ele>
        <time>2021-02-20T11:22:16Z</time>
      </trkpt>
      <trkpt lat="45.17139" lon="5.95127">
        <ele>2636.5</ele>
        <time>2021-02-20T11:22:17Z</time>
      </trkpt>
      <trkpt lat="45.17139" lon="5.95127">
        <ele>2636.5</ele>
        <time>2021-02-20T11:22:18Z</time>
      </trkpt>
      <trkpt lat="45.17139" lon="5.95127">
        <ele>2636.5</ele>
        <time>2021-02-20T11:22:19Z</time>
      </trkpt>
      <trkpt lat="45.17139" lon="5.95127">
        <ele>2636.5</ele>
        <time>2021-02-20T11:22:20Z</time>
      </trkpt>
      <trkpt lat="45.17139" lon="5.95127">
        <ele>2636.5</ele>
        <time>2021-02-20T11:22:21Z</time>
      </trkpt>
      <trkpt lat="45.17139" lon="5.95127">
        <ele>2636.5</ele>
        <time>2021-02-20T11:22:22Z</time>
      </trkpt>
      <trkpt lat="45.17139" lon="5.95127">
        <ele>2636.5</ele>
        <time>2021-02-20T11:22:23Z</time>
      </trkpt>
      <trkpt lat="45.17139" lon="5.95127">
        <ele>2636.5</ele>
        <time>2021-02-20T11:22:24Z</time>
      </trkpt>
      <trkpt lat="45.17139" lon="5.95127">
        <ele>2636.5</ele>
        <time>2021-02-20T11:22:25Z</time>
      </trkpt>
      <trkpt lat="45.17138" lon="5.95127">
        <ele>2636.5</ele>
        <time>2021-02-20T11:22:26Z</time>
      </trkpt>
      <trkpt lat="45.17138" lon="5.95127">
        <ele>2636.5</ele>
        <time>2021-02-20T11:22:27Z</time>
      </trkpt>
      <trkpt lat="45.17138" lon="5.95127">
        <ele>2636.5</ele>
        <time>2021-02-20T11:22:28Z</time>
      </trkpt>
      <trkpt lat="45.17138" lon="5.95127">
        <ele>2636.5</ele>
        <time>2021-02-20T11:22:29Z</time>
      </trkpt>
      <trkpt lat="45.17138" lon="5.95127">
        <ele>2636.5</ele>
        <time>2021-02-20T11:22:30Z</time>
      </trkpt>
      <trkpt lat="45.17138" lon="5.95127">
        <ele>2636.5</ele>
        <time>2021-02-20T11:22:31Z</time>
      </trkpt>
      <trkpt lat="45.17138" lon="5.95127">
        <ele>2636.5</ele>
        <time>2021-02-20T11:22:32Z</time>
      </trkpt>
      <trkpt lat="45.17138" lon="5.95127">
        <ele>2636.5</ele>
        <time>2021-02-20T11:22:33Z</time>
      </trkpt>
      <trkpt lat="45.17139" lon="5.95127">
        <ele>2636.5</ele>
        <time>2021-02-20T11:22:34Z</time>
      </trkpt>
      <trkpt lat="45.17139" lon="5.95128">
        <ele>2636.5</ele>
        <time>2021-02-20T11:22:35Z</time>
      </trkpt>
      <trkpt lat="45.17138" lon="5.95128">
        <ele>2636.5</ele>
        <time>2021-02-20T11:22:36Z</time>
      </trkpt>
      <trkpt lat="45.17138" lon="5.95128">
        <ele>2636.5</ele>
        <time>2021-02-20T11:22:37Z</time>
      </trkpt>
      <trkpt lat="45.17138" lon="5.95128">
        <ele>2636.5</ele>
        <time>2021-02-20T11:22:38Z</time>
      </trkpt>
      <trkpt lat="45.17138" lon="5.95128">
        <ele>2636.5</ele>
        <time>2021-02-20T11:22:39Z</time>
      </trkpt>
      <trkpt lat="45.17138" lon="5.9513">
        <ele>2636.8</ele>
        <time>2021-02-20T11:22:40Z</time>
      </trkpt>
      <trkpt lat="45.17138" lon="5.9513">
        <ele>2636.8</ele>
        <time>2021-02-20T11:22:41Z</time>
      </trkpt>
      <trkpt lat="45.17138" lon="5.95131">
        <ele>2636.8</ele>
        <time>2021-02-20T11:22:42Z</time>
      </trkpt>
      <trkpt lat="45.17138" lon="5.95131">
        <ele>2636.8</ele>
        <time>2021-02-20T11:22:43Z</time>
      </trkpt>
      <trkpt lat="45.17138" lon="5.95131">
        <ele>2636.8</ele>
        <time>2021-02-20T11:22:44Z</time>
      </trkpt>
      <trkpt lat="45.17138" lon="5.95131">
        <ele>2636.8</ele>
        <time>2021-02-20T11:22:45Z</time>
      </trkpt>
      <trkpt lat="45.17138" lon="5.95131">
        <ele>2636.8</ele>
        <time>2021-02-20T11:22:46Z</time>
      </trkpt>
      <trkpt lat="45.17138" lon="5.95131">
        <ele>2636.8</ele>
        <time>2021-02-20T11:22:47Z</time>
      </trkpt>
      <trkpt lat="45.17138" lon="5.95132">
        <ele>2636.8</ele>
        <time>2021-02-20T11:22:48Z</time>
      </trkpt>
      <trkpt lat="45.17137" lon="5.95133">
        <ele>2636.8</ele>
        <time>2021-02-20T11:22:49Z</time>
      </trkpt>
      <trkpt lat="45.17137" lon="5.95134">
        <ele>2637.1</ele>
        <time>2021-02-20T11:22:50Z</time>
      </trkpt>
      <trkpt lat="45.17137" lon="5.95134">
        <ele>2637.1</ele>
        <time>2021-02-20T11:22:51Z</time>
      </trkpt>
      <trkpt lat="45.17137" lon="5.95134">
        <ele>2637.1</ele>
        <time>2021-02-20T11:22:52Z</time>
      </trkpt>
      <trkpt lat="45.17136" lon="5.95135">
        <ele>2637.1</ele>
        <time>2021-02-20T11:22:53Z</time>
      </trkpt>
      <trkpt lat="45.17136" lon="5.95135">
        <ele>2637.6</ele>
        <time>2021-02-20T11:22:54Z</time>
      </trkpt>
      <trkpt lat="45.17136" lon="5.95135">
        <ele>2637.6</ele>
        <time>2021-02-20T11:22:55Z</time>
      </trkpt>
      <trkpt lat="45.17135" lon="5.95136">
        <ele>2637.6</ele>
        <time>2021-02-20T11:22:56Z</time>
      </trkpt>
      <trkpt lat="45.17134" lon="5.95136">
        <ele>2637.6</ele>
        <time>2021-02-20T11:22:57Z</time>
      </trkpt>
      <trkpt lat="45.17134" lon="5.95136">
        <ele>2637.6</ele>
        <time>2021-02-20T11:22:58Z</time>
      </trkpt>
      <trkpt lat="45.17134" lon="5.95137">
        <ele>2637.6</ele>
        <time>2021-02-20T11:22:59Z</time>
      </trkpt>
      <trkpt lat="45.17134" lon="5.95138">
        <ele>2637.9</ele>
        <time>2021-02-20T11:23:00Z</time>
      </trkpt>
      <trkpt lat="45.17133" lon="5.95138">
        <ele>2637.9</ele>
        <time>2021-02-20T11:23:01Z</time>
      </trkpt>
      <trkpt lat="45.17133" lon="5.95139">
        <ele>2637.9</ele>
        <time>2021-02-20T11:23:02Z</time>
      </trkpt>
      <trkpt lat="45.17133" lon="5.95139">
        <ele>2638.4</ele>
        <time>2021-02-20T11:23:03Z</time>
      </trkpt>
      <trkpt lat="45.17132" lon="5.95139">
        <ele>2638.4</ele>
        <time>2021-02-20T11:23:04Z</time>
      </trkpt>
      <trkpt lat="45.17131" lon="5.95138">
        <ele>2638.4</ele>
        <time>2021-02-20T11:23:05Z</time>
      </trkpt>
      <trkpt lat="45.17131" lon="5.95138">
        <ele>2638.4</ele>
        <time>2021-02-20T11:23:06Z</time>
      </trkpt>
      <trkpt lat="45.1713" lon="5.95138">
        <ele>2638.4</ele>
        <time>2021-02-20T11:23:07Z</time>
      </trkpt>
      <trkpt lat="45.1713" lon="5.95139">
        <ele>2638.4</ele>
        <time>2021-02-20T11:23:08Z</time>
      </trkpt>
      <trkpt lat="45.1713" lon="5.95139">
        <ele>2638.4</ele>
        <time>2021-02-20T11:23:09Z</time>
      </trkpt>
      <trkpt lat="45.1713" lon="5.95139">
        <ele>2638.4</ele>
        <time>2021-02-20T11:23:10Z</time>
      </trkpt>
      <trkpt lat="45.1713" lon="5.95139">
        <ele>2638.4</ele>
        <time>2021-02-20T11:23:11Z</time>
      </trkpt>
      <trkpt lat="45.1713" lon="5.9514">
        <ele>2638.4</ele>
        <time>2021-02-20T11:23:12Z</time>
      </trkpt>
      <trkpt lat="45.1713" lon="5.9514">
        <ele>2638.4</ele>
        <time>2021-02-20T11:23:13Z</time>
      </trkpt>
      <trkpt lat="45.1713" lon="5.9514">
        <ele>2638.4</ele>
        <time>2021-02-20T11:23:14Z</time>
      </trkpt>
      <trkpt lat="45.1713" lon="5.9514">
        <ele>2638.4</ele>
        <time>2021-02-20T11:23:15Z</time>
      </trkpt>
      <trkpt lat="45.17131" lon="5.95141">
        <ele>2638.4</ele>
        <time>2021-02-20T11:23:16Z</time>
      </trkpt>
      <trkpt lat="45.17131" lon="5.95141">
        <ele>2638.4</ele>
        <time>2021-02-20T11:23:17Z</time>
      </trkpt>
      <trkpt lat="45.17131" lon="5.95141">
        <ele>2638.4</ele>
        <time>2021-02-20T11:23:18Z</time>
      </trkpt>
      <trkpt lat="45.17131" lon="5.95141">
        <ele>2638.4</ele>
        <time>2021-02-20T11:23:19Z</time>
      </trkpt>
      <trkpt lat="45.17131" lon="5.95141">
        <ele>2638.4</ele>
        <time>2021-02-20T11:23:20Z</time>
      </trkpt>
      <trkpt lat="45.17131" lon="5.95141">
        <ele>2638.4</ele>
        <time>2021-02-20T11:23:21Z</time>
      </trkpt>
      <trkpt lat="45.17131" lon="5.95142">
        <ele>2638.6</ele>
        <time>2021-02-20T11:23:22Z</time>
      </trkpt>
      <trkpt lat="45.17131" lon="5.95142">
        <ele>2638.6</ele>
        <time>2021-02-20T11:23:23Z</time>
      </trkpt>
      <trkpt lat="45.1713" lon="5.95144">
        <ele>2638.6</ele>
        <time>2021-02-20T11:23:24Z</time>
      </trkpt>
      <trkpt lat="45.1713" lon="5.95145">
        <ele>2638.6</ele>
        <time>2021-02-20T11:23:25Z</time>
      </trkpt>
      <trkpt lat="45.1713" lon="5.95146">
        <ele>2639</ele>
        <time>2021-02-20T11:23:26Z</time>
      </trkpt>
      <trkpt lat="45.17129" lon="5.95146">
        <ele>2639.2</ele>
        <time>2021-02-20T11:23:27Z</time>
      </trkpt>
      <trkpt lat="45.17129" lon="5.95147">
        <ele>2639.2</ele>
        <time>2021-02-20T11:23:28Z</time>
      </trkpt>
      <trkpt lat="45.17129" lon="5.95148">
        <ele>2639.2</ele>
        <time>2021-02-20T11:23:29Z</time>
      </trkpt>
      <trkpt lat="45.17129" lon="5.95149">
        <ele>2639.2</ele>
        <time>2021-02-20T11:23:30Z</time>
      </trkpt>
      <trkpt lat="45.17128" lon="5.9515">
        <ele>2639.4</ele>
        <time>2021-02-20T11:23:31Z</time>
      </trkpt>
      <trkpt lat="45.17128" lon="5.95151">
        <ele>2639.4</ele>
        <time>2021-02-20T11:23:32Z</time>
      </trkpt>
      <trkpt lat="45.17127" lon="5.95152">
        <ele>2639.4</ele>
        <time>2021-02-20T11:23:33Z</time>
      </trkpt>
      <trkpt lat="45.17127" lon="5.95153">
        <ele>2639.7</ele>
        <time>2021-02-20T11:23:34Z</time>
      </trkpt>
      <trkpt lat="45.17126" lon="5.95154">
        <ele>2639.7</ele>
        <time>2021-02-20T11:23:35Z</time>
      </trkpt>
      <trkpt lat="45.17126" lon="5.95156">
        <ele>2639.9</ele>
        <time>2021-02-20T11:23:36Z</time>
      </trkpt>
      <trkpt lat="45.17126" lon="5.95156">
        <ele>2639.9</ele>
        <time>2021-02-20T11:23:37Z</time>
      </trkpt>
      <trkpt lat="45.17126" lon="5.95157">
        <ele>2639.9</ele>
        <time>2021-02-20T11:23:38Z</time>
      </trkpt>
      <trkpt lat="45.17126" lon="5.95157">
        <ele>2639.9</ele>
        <time>2021-02-20T11:23:39Z</time>
      </trkpt>
      <trkpt lat="45.17126" lon="5.95157">
        <ele>2639.9</ele>
        <time>2021-02-20T11:23:40Z</time>
      </trkpt>
      <trkpt lat="45.17126" lon="5.95157">
        <ele>2639.9</ele>
        <time>2021-02-20T11:23:41Z</time>
      </trkpt>
      <trkpt lat="45.17126" lon="5.95157">
        <ele>2639.9</ele>
        <time>2021-02-20T11:23:42Z</time>
      </trkpt>
      <trkpt lat="45.17126" lon="5.95157">
        <ele>2639.9</ele>
        <time>2021-02-20T11:23:43Z</time>
      </trkpt>
      <trkpt lat="45.17126" lon="5.95157">
        <ele>2639.9</ele>
        <time>2021-02-20T11:23:44Z</time>
      </trkpt>
      <trkpt lat="45.17126" lon="5.95157">
        <ele>2639.9</ele>
        <time>2021-02-20T11:23:45Z</time>
      </trkpt>
      <trkpt lat="45.17126" lon="5.95157">
        <ele>2639.9</ele>
        <time>2021-02-20T11:23:46Z</time>
      </trkpt>
      <trkpt lat="45.17124" lon="5.95158">
        <ele>2639.9</ele>
        <time>2021-02-20T11:23:47Z</time>
      </trkpt>
      <trkpt lat="45.17124" lon="5.95158">
        <ele>2640.1</ele>
        <time>2021-02-20T11:23:48Z</time>
      </trkpt>
      <trkpt lat="45.17124" lon="5.95159">
        <ele>2640.3</ele>
        <time>2021-02-20T11:23:49Z</time>
      </trkpt>
      <trkpt lat="45.17123" lon="5.9516">
        <ele>2640.3</ele>
        <time>2021-02-20T11:23:50Z</time>
      </trkpt>
      <trkpt lat="45.17123" lon="5.9516">
        <ele>2640.3</ele>
        <time>2021-02-20T11:23:51Z</time>
      </trkpt>
      <trkpt lat="45.17124" lon="5.9516">
        <ele>2640.3</ele>
        <time>2021-02-20T11:23:52Z</time>
      </trkpt>
      <trkpt lat="45.17124" lon="5.95161">
        <ele>2640.3</ele>
        <time>2021-02-20T11:23:53Z</time>
      </trkpt>
      <trkpt lat="45.17124" lon="5.95161">
        <ele>2640.1</ele>
        <time>2021-02-20T11:23:54Z</time>
      </trkpt>
      <trkpt lat="45.17124" lon="5.95161">
        <ele>2640.1</ele>
        <time>2021-02-20T11:23:55Z</time>
      </trkpt>
      <trkpt lat="45.17124" lon="5.95162">
        <ele>2640.1</ele>
        <time>2021-02-20T11:23:56Z</time>
      </trkpt>
      <trkpt lat="45.17124" lon="5.95162">
        <ele>2640.1</ele>
        <time>2021-02-20T11:23:57Z</time>
      </trkpt>
      <trkpt lat="45.17124" lon="5.95163">
        <ele>2640.4</ele>
        <time>2021-02-20T11:23:58Z</time>
      </trkpt>
      <trkpt lat="45.17124" lon="5.95164">
        <ele>2640.4</ele>
        <time>2021-02-20T11:23:59Z</time>
      </trkpt>
      <trkpt lat="45.17123" lon="5.95165">
        <ele>2640.4</ele>
        <time>2021-02-20T11:24:00Z</time>
      </trkpt>
      <trkpt lat="45.17123" lon="5.95165">
        <ele>2640.4</ele>
        <time>2021-02-20T11:24:01Z</time>
      </trkpt>
      <trkpt lat="45.17123" lon="5.95166">
        <ele>2640.4</ele>
        <time>2021-02-20T11:24:02Z</time>
      </trkpt>
      <trkpt lat="45.17123" lon="5.95166">
        <ele>2640.4</ele>
        <time>2021-02-20T11:24:03Z</time>
      </trkpt>
      <trkpt lat="45.17123" lon="5.95166">
        <ele>2640.4</ele>
        <time>2021-02-20T11:24:04Z</time>
      </trkpt>
      <trkpt lat="45.17123" lon="5.95166">
        <ele>2640.4</ele>
        <time>2021-02-20T11:24:05Z</time>
      </trkpt>
      <trkpt lat="45.17123" lon="5.95166">
        <ele>2640.4</ele>
        <time>2021-02-20T11:24:06Z</time>
      </trkpt>
      <trkpt lat="45.17123" lon="5.95166">
        <ele>2640.4</ele>
        <time>2021-02-20T11:24:07Z</time>
      </trkpt>
      <trkpt lat="45.17122" lon="5.95167">
        <ele>2640.4</ele>
        <time>2021-02-20T11:24:08Z</time>
      </trkpt>
      <trkpt lat="45.17122" lon="5.95168">
        <ele>2640.6</ele>
        <time>2021-02-20T11:24:09Z</time>
      </trkpt>
      <trkpt lat="45.17122" lon="5.95169">
        <ele>2640.6</ele>
        <time>2021-02-20T11:24:10Z</time>
      </trkpt>
      <trkpt lat="45.17122" lon="5.9517">
        <ele>2640.6</ele>
        <time>2021-02-20T11:24:11Z</time>
      </trkpt>
      <trkpt lat="45.17122" lon="5.95171">
        <ele>2640.6</ele>
        <time>2021-02-20T11:24:12Z</time>
      </trkpt>
      <trkpt lat="45.17121" lon="5.95172">
        <ele>2640.7</ele>
        <time>2021-02-20T11:24:13Z</time>
      </trkpt>
      <trkpt lat="45.17121" lon="5.95172">
        <ele>2640.7</ele>
        <time>2021-02-20T11:24:14Z</time>
      </trkpt>
      <trkpt lat="45.17121" lon="5.95173">
        <ele>2640.7</ele>
        <time>2021-02-20T11:24:15Z</time>
      </trkpt>
      <trkpt lat="45.17121" lon="5.95173">
        <ele>2640.7</ele>
        <time>2021-02-20T11:24:16Z</time>
      </trkpt>
      <trkpt lat="45.17121" lon="5.95174">
        <ele>2640.7</ele>
        <time>2021-02-20T11:24:17Z</time>
      </trkpt>
      <trkpt lat="45.17121" lon="5.95175">
        <ele>2640.7</ele>
        <time>2021-02-20T11:24:18Z</time>
      </trkpt>
      <trkpt lat="45.1712" lon="5.95177">
        <ele>2640.9</ele>
        <time>2021-02-20T11:24:19Z</time>
      </trkpt>
      <trkpt lat="45.1712" lon="5.95178">
        <ele>2640.9</ele>
        <time>2021-02-20T11:24:20Z</time>
      </trkpt>
      <trkpt lat="45.1712" lon="5.95179">
        <ele>2640.9</ele>
        <time>2021-02-20T11:24:21Z</time>
      </trkpt>
      <trkpt lat="45.1712" lon="5.9518">
        <ele>2640.9</ele>
        <time>2021-02-20T11:24:22Z</time>
      </trkpt>
      <trkpt lat="45.17119" lon="5.95181">
        <ele>2641</ele>
        <time>2021-02-20T11:24:23Z</time>
      </trkpt>
      <trkpt lat="45.17119" lon="5.95182">
        <ele>2641</ele>
        <time>2021-02-20T11:24:24Z</time>
      </trkpt>
      <trkpt lat="45.17119" lon="5.95182">
        <ele>2641</ele>
        <time>2021-02-20T11:24:25Z</time>
      </trkpt>
      <trkpt lat="45.17119" lon="5.95183">
        <ele>2641</ele>
        <time>2021-02-20T11:24:26Z</time>
      </trkpt>
      <trkpt lat="45.17119" lon="5.95184">
        <ele>2641</ele>
        <time>2021-02-20T11:24:27Z</time>
      </trkpt>
      <trkpt lat="45.17119" lon="5.95185">
        <ele>2641</ele>
        <time>2021-02-20T11:24:28Z</time>
      </trkpt>
      <trkpt lat="45.17119" lon="5.95185">
        <ele>2641</ele>
        <time>2021-02-20T11:24:29Z</time>
      </trkpt>
      <trkpt lat="45.17119" lon="5.95186">
        <ele>2641</ele>
        <time>2021-02-20T11:24:30Z</time>
      </trkpt>
      <trkpt lat="45.17119" lon="5.95188">
        <ele>2641</ele>
        <time>2021-02-20T11:24:31Z</time>
      </trkpt>
      <trkpt lat="45.17119" lon="5.95189">
        <ele>2641</ele>
        <time>2021-02-20T11:24:32Z</time>
      </trkpt>
      <trkpt lat="45.17119" lon="5.9519">
        <ele>2641</ele>
        <time>2021-02-20T11:24:33Z</time>
      </trkpt>
      <trkpt lat="45.17119" lon="5.95191">
        <ele>2641</ele>
        <time>2021-02-20T11:24:34Z</time>
      </trkpt>
      <trkpt lat="45.17119" lon="5.95192">
        <ele>2641</ele>
        <time>2021-02-20T11:24:35Z</time>
      </trkpt>
      <trkpt lat="45.17119" lon="5.95193">
        <ele>2641</ele>
        <time>2021-02-20T11:24:36Z</time>
      </trkpt>
      <trkpt lat="45.17119" lon="5.95194">
        <ele>2641</ele>
        <time>2021-02-20T11:24:37Z</time>
      </trkpt>
      <trkpt lat="45.17119" lon="5.95195">
        <ele>2641</ele>
        <time>2021-02-20T11:24:38Z</time>
      </trkpt>
      <trkpt lat="45.17119" lon="5.95196">
        <ele>2641</ele>
        <time>2021-02-20T11:24:39Z</time>
      </trkpt>
      <trkpt lat="45.17119" lon="5.95197">
        <ele>2641</ele>
        <time>2021-02-20T11:24:40Z</time>
      </trkpt>
      <trkpt lat="45.17119" lon="5.95197">
        <ele>2640.9</ele>
        <time>2021-02-20T11:24:41Z</time>
      </trkpt>
      <trkpt lat="45.17119" lon="5.95198">
        <ele>2640.9</ele>
        <time>2021-02-20T11:24:42Z</time>
      </trkpt>
      <trkpt lat="45.17119" lon="5.95199">
        <ele>2640.9</ele>
        <time>2021-02-20T11:24:43Z</time>
      </trkpt>
      <trkpt lat="45.17119" lon="5.95199">
        <ele>2640.9</ele>
        <time>2021-02-20T11:24:44Z</time>
      </trkpt>
      <trkpt lat="45.17119" lon="5.952">
        <ele>2640.9</ele>
        <time>2021-02-20T11:24:45Z</time>
      </trkpt>
      <trkpt lat="45.17119" lon="5.952">
        <ele>2640.9</ele>
        <time>2021-02-20T11:24:46Z</time>
      </trkpt>
      <trkpt lat="45.1712" lon="5.95201">
        <ele>2640.9</ele>
        <time>2021-02-20T11:24:47Z</time>
      </trkpt>
      <trkpt lat="45.1712" lon="5.95201">
        <ele>2640.9</ele>
        <time>2021-02-20T11:24:48Z</time>
      </trkpt>
      <trkpt lat="45.1712" lon="5.95201">
        <ele>2640.9</ele>
        <time>2021-02-20T11:24:49Z</time>
      </trkpt>
      <trkpt lat="45.1712" lon="5.95201">
        <ele>2640.9</ele>
        <time>2021-02-20T11:24:50Z</time>
      </trkpt>
      <trkpt lat="45.1712" lon="5.95201">
        <ele>2640.9</ele>
        <time>2021-02-20T11:24:51Z</time>
      </trkpt>
      <trkpt lat="45.1712" lon="5.95201">
        <ele>2640.9</ele>
        <time>2021-02-20T11:24:52Z</time>
      </trkpt>
      <trkpt lat="45.1712" lon="5.95201">
        <ele>2640.9</ele>
        <time>2021-02-20T11:24:53Z</time>
      </trkpt>
      <trkpt lat="45.1712" lon="5.95201">
        <ele>2640.9</ele>
        <time>2021-02-20T11:24:54Z</time>
      </trkpt>
      <trkpt lat="45.1712" lon="5.95201">
        <ele>2640.9</ele>
        <time>2021-02-20T11:24:55Z</time>
      </trkpt>
      <trkpt lat="45.1712" lon="5.95201">
        <ele>2640.9</ele>
        <time>2021-02-20T11:24:56Z</time>
      </trkpt>
      <trkpt lat="45.1712" lon="5.952">
        <ele>2640.9</ele>
        <time>2021-02-20T11:24:57Z</time>
      </trkpt>
      <trkpt lat="45.1712" lon="5.952">
        <ele>2640.9</ele>
        <time>2021-02-20T11:24:58Z</time>
      </trkpt>
      <trkpt lat="45.1712" lon="5.952">
        <ele>2640.9</ele>
        <time>2021-02-20T11:24:59Z</time>
      </trkpt>
      <trkpt lat="45.1712" lon="5.95201">
        <ele>2640.9</ele>
        <time>2021-02-20T11:25:00Z</time>
      </trkpt>
      <trkpt lat="45.1712" lon="5.95201">
        <ele>2640.9</ele>
        <time>2021-02-20T11:25:01Z</time>
      </trkpt>
      <trkpt lat="45.17121" lon="5.95202">
        <ele>2640.5</ele>
        <time>2021-02-20T11:25:02Z</time>
      </trkpt>
      <trkpt lat="45.17121" lon="5.95202">
        <ele>2640.5</ele>
        <time>2021-02-20T11:25:03Z</time>
      </trkpt>
      <trkpt lat="45.17121" lon="5.95203">
        <ele>2640.5</ele>
        <time>2021-02-20T11:25:04Z</time>
      </trkpt>
      <trkpt lat="45.17121" lon="5.95203">
        <ele>2640.8</ele>
        <time>2021-02-20T11:25:05Z</time>
      </trkpt>
      <trkpt lat="45.1712" lon="5.95204">
        <ele>2640.8</ele>
        <time>2021-02-20T11:25:06Z</time>
      </trkpt>
      <trkpt lat="45.1712" lon="5.95204">
        <ele>2640.8</ele>
        <time>2021-02-20T11:25:07Z</time>
      </trkpt>
      <trkpt lat="45.1712" lon="5.95205">
        <ele>2640.8</ele>
        <time>2021-02-20T11:25:08Z</time>
      </trkpt>
      <trkpt lat="45.1712" lon="5.95205">
        <ele>2640.8</ele>
        <time>2021-02-20T11:25:09Z</time>
      </trkpt>
      <trkpt lat="45.1712" lon="5.95205">
        <ele>2640.8</ele>
        <time>2021-02-20T11:25:10Z</time>
      </trkpt>
      <trkpt lat="45.1712" lon="5.95205">
        <ele>2640.8</ele>
        <time>2021-02-20T11:25:11Z</time>
      </trkpt>
      <trkpt lat="45.1712" lon="5.95205">
        <ele>2640.8</ele>
        <time>2021-02-20T11:25:12Z</time>
      </trkpt>
      <trkpt lat="45.1712" lon="5.95206">
        <ele>2640.8</ele>
        <time>2021-02-20T11:25:13Z</time>
      </trkpt>
      <trkpt lat="45.17121" lon="5.95206">
        <ele>2640.6</ele>
        <time>2021-02-20T11:25:14Z</time>
      </trkpt>
      <trkpt lat="45.17121" lon="5.95207">
        <ele>2640.6</ele>
        <time>2021-02-20T11:25:15Z</time>
      </trkpt>
      <trkpt lat="45.17121" lon="5.95207">
        <ele>2640.6</ele>
        <time>2021-02-20T11:25:16Z</time>
      </trkpt>
      <trkpt lat="45.17121" lon="5.95207">
        <ele>2640.6</ele>
        <time>2021-02-20T11:25:17Z</time>
      </trkpt>
      <trkpt lat="45.17121" lon="5.95207">
        <ele>2640.6</ele>
        <time>2021-02-20T11:25:18Z</time>
      </trkpt>
      <trkpt lat="45.17121" lon="5.95207">
        <ele>2640.6</ele>
        <time>2021-02-20T11:25:19Z</time>
      </trkpt>
      <trkpt lat="45.17121" lon="5.95208">
        <ele>2640.4</ele>
        <time>2021-02-20T11:25:20Z</time>
      </trkpt>
      <trkpt lat="45.17121" lon="5.95208">
        <ele>2640.4</ele>
        <time>2021-02-20T11:25:21Z</time>
      </trkpt>
      <trkpt lat="45.17121" lon="5.95208">
        <ele>2640.4</ele>
        <time>2021-02-20T11:25:22Z</time>
      </trkpt>
      <trkpt lat="45.17121" lon="5.95208">
        <ele>2640.4</ele>
        <time>2021-02-20T11:25:23Z</time>
      </trkpt>
      <trkpt lat="45.17121" lon="5.95208">
        <ele>2640.4</ele>
        <time>2021-02-20T11:25:24Z</time>
      </trkpt>
      <trkpt lat="45.17121" lon="5.95208">
        <ele>2640.4</ele>
        <time>2021-02-20T11:25:25Z</time>
      </trkpt>
      <trkpt lat="45.17121" lon="5.95208">
        <ele>2640.4</ele>
        <time>2021-02-20T11:25:26Z</time>
      </trkpt>
      <trkpt lat="45.17121" lon="5.95208">
        <ele>2640.4</ele>
        <time>2021-02-20T11:25:27Z</time>
      </trkpt>
      <trkpt lat="45.17121" lon="5.95208">
        <ele>2640.4</ele>
        <time>2021-02-20T11:25:28Z</time>
      </trkpt>
      <trkpt lat="45.17121" lon="5.95208">
        <ele>2640.4</ele>
        <time>2021-02-20T11:25:29Z</time>
      </trkpt>
      <trkpt lat="45.17121" lon="5.95208">
        <ele>2640.4</ele>
        <time>2021-02-20T11:25:30Z</time>
      </trkpt>
      <trkpt lat="45.17121" lon="5.95208">
        <ele>2640.4</ele>
        <time>2021-02-20T11:25:31Z</time>
      </trkpt>
      <trkpt lat="45.17121" lon="5.95209">
        <ele>2640.4</ele>
        <time>2021-02-20T11:25:32Z</time>
      </trkpt>
      <trkpt lat="45.17121" lon="5.9521">
        <ele>2640.4</ele>
        <time>2021-02-20T11:25:33Z</time>
      </trkpt>
      <trkpt lat="45.17121" lon="5.9521">
        <ele>2640.4</ele>
        <time>2021-02-20T11:25:34Z</time>
      </trkpt>
      <trkpt lat="45.17121" lon="5.95211">
        <ele>2640.1</ele>
        <time>2021-02-20T11:25:35Z</time>
      </trkpt>
      <trkpt lat="45.17121" lon="5.95211">
        <ele>2640.1</ele>
        <time>2021-02-20T11:25:36Z</time>
      </trkpt>
      <trkpt lat="45.17121" lon="5.95212">
        <ele>2640.1</ele>
        <time>2021-02-20T11:25:37Z</time>
      </trkpt>
      <trkpt lat="45.17121" lon="5.95212">
        <ele>2640.1</ele>
        <time>2021-02-20T11:25:38Z</time>
      </trkpt>
      <trkpt lat="45.17121" lon="5.95213">
        <ele>2640.4</ele>
        <time>2021-02-20T11:25:39Z</time>
      </trkpt>
      <trkpt lat="45.17121" lon="5.95213">
        <ele>2640.4</ele>
        <time>2021-02-20T11:25:40Z</time>
      </trkpt>
      <trkpt lat="45.17121" lon="5.95213">
        <ele>2640.4</ele>
        <time>2021-02-20T11:25:41Z</time>
      </trkpt>
      <trkpt lat="45.1712" lon="5.95214">
        <ele>2640.4</ele>
        <time>2021-02-20T11:25:42Z</time>
      </trkpt>
      <trkpt lat="45.1712" lon="5.95214">
        <ele>2640.4</ele>
        <time>2021-02-20T11:25:43Z</time>
      </trkpt>
      <trkpt lat="45.1712" lon="5.95214">
        <ele>2640.1</ele>
        <time>2021-02-20T11:25:44Z</time>
      </trkpt>
      <trkpt lat="45.1712" lon="5.95215">
        <ele>2640.1</ele>
        <time>2021-02-20T11:25:45Z</time>
      </trkpt>
      <trkpt lat="45.1712" lon="5.95215">
        <ele>2640.1</ele>
        <time>2021-02-20T11:25:46Z</time>
      </trkpt>
      <trkpt lat="45.1712" lon="5.95215">
        <ele>2640.1</ele>
        <time>2021-02-20T11:25:47Z</time>
      </trkpt>
      <trkpt lat="45.1712" lon="5.95216">
        <ele>2640.1</ele>
        <time>2021-02-20T11:25:48Z</time>
      </trkpt>
      <trkpt lat="45.1712" lon="5.95217">
        <ele>2640.1</ele>
        <time>2021-02-20T11:25:49Z</time>
      </trkpt>
      <trkpt lat="45.1712" lon="5.95218">
        <ele>2640.1</ele>
        <time>2021-02-20T11:25:50Z</time>
      </trkpt>
      <trkpt lat="45.1712" lon="5.95219">
        <ele>2639.9</ele>
        <time>2021-02-20T11:25:51Z</time>
      </trkpt>
      <trkpt lat="45.1712" lon="5.9522">
        <ele>2639.9</ele>
        <time>2021-02-20T11:25:52Z</time>
      </trkpt>
      <trkpt lat="45.1712" lon="5.9522">
        <ele>2639.9</ele>
        <time>2021-02-20T11:25:53Z</time>
      </trkpt>
      <trkpt lat="45.1712" lon="5.95221">
        <ele>2639.9</ele>
        <time>2021-02-20T11:25:54Z</time>
      </trkpt>
      <trkpt lat="45.1712" lon="5.95221">
        <ele>2639.9</ele>
        <time>2021-02-20T11:25:55Z</time>
      </trkpt>
      <trkpt lat="45.1712" lon="5.95221">
        <ele>2639.9</ele>
        <time>2021-02-20T11:25:56Z</time>
      </trkpt>
      <trkpt lat="45.1712" lon="5.95221">
        <ele>2639.9</ele>
        <time>2021-02-20T11:25:57Z</time>
      </trkpt>
      <trkpt lat="45.1712" lon="5.95221">
        <ele>2639.9</ele>
        <time>2021-02-20T11:25:58Z</time>
      </trkpt>
      <trkpt lat="45.1712" lon="5.95221">
        <ele>2639.9</ele>
        <time>2021-02-20T11:25:59Z</time>
      </trkpt>
      <trkpt lat="45.1712" lon="5.95221">
        <ele>2639.9</ele>
        <time>2021-02-20T11:26:00Z</time>
      </trkpt>
      <trkpt lat="45.1712" lon="5.95221">
        <ele>2639.9</ele>
        <time>2021-02-20T11:26:01Z</time>
      </trkpt>
      <trkpt lat="45.1712" lon="5.95221">
        <ele>2639.9</ele>
        <time>2021-02-20T11:26:02Z</time>
      </trkpt>
      <trkpt lat="45.1712" lon="5.95221">
        <ele>2639.9</ele>
        <time>2021-02-20T11:26:03Z</time>
      </trkpt>
      <trkpt lat="45.1712" lon="5.95222">
        <ele>2639.9</ele>
        <time>2021-02-20T11:26:04Z</time>
      </trkpt>
      <trkpt lat="45.1712" lon="5.95223">
        <ele>2639.9</ele>
        <time>2021-02-20T11:26:05Z</time>
      </trkpt>
      <trkpt lat="45.1712" lon="5.95224">
        <ele>2639.6</ele>
        <time>2021-02-20T11:26:06Z</time>
      </trkpt>
      <trkpt lat="45.17119" lon="5.95224">
        <ele>2639.6</ele>
        <time>2021-02-20T11:26:07Z</time>
      </trkpt>
      <trkpt lat="45.17119" lon="5.95225">
        <ele>2639.6</ele>
        <time>2021-02-20T11:26:08Z</time>
      </trkpt>
      <trkpt lat="45.17119" lon="5.95225">
        <ele>2639.6</ele>
        <time>2021-02-20T11:26:09Z</time>
      </trkpt>
      <trkpt lat="45.17119" lon="5.95226">
        <ele>2639.6</ele>
        <time>2021-02-20T11:26:10Z</time>
      </trkpt>
      <trkpt lat="45.17119" lon="5.95226">
        <ele>2639.6</ele>
        <time>2021-02-20T11:26:11Z</time>
      </trkpt>
      <trkpt lat="45.17119" lon="5.95226">
        <ele>2639.6</ele>
        <time>2021-02-20T11:26:12Z</time>
      </trkpt>
      <trkpt lat="45.17119" lon="5.95227">
        <ele>2639.6</ele>
        <time>2021-02-20T11:26:13Z</time>
      </trkpt>
      <trkpt lat="45.17118" lon="5.95227">
        <ele>2639.6</ele>
        <time>2021-02-20T11:26:14Z</time>
      </trkpt>
      <trkpt lat="45.17118" lon="5.95228">
        <ele>2639.2</ele>
        <time>2021-02-20T11:26:15Z</time>
      </trkpt>
      <trkpt lat="45.17118" lon="5.95229">
        <ele>2639.2</ele>
        <time>2021-02-20T11:26:16Z</time>
      </trkpt>
      <trkpt lat="45.17118" lon="5.9523">
        <ele>2639.2</ele>
        <time>2021-02-20T11:26:17Z</time>
      </trkpt>
      <trkpt lat="45.17118" lon="5.9523">
        <ele>2639.2</ele>
        <time>2021-02-20T11:26:18Z</time>
      </trkpt>
      <trkpt lat="45.17118" lon="5.9523">
        <ele>2639.2</ele>
        <time>2021-02-20T11:26:19Z</time>
      </trkpt>
      <trkpt lat="45.17118" lon="5.9523">
        <ele>2639.2</ele>
        <time>2021-02-20T11:26:20Z</time>
      </trkpt>
      <trkpt lat="45.17118" lon="5.9523">
        <ele>2639.2</ele>
        <time>2021-02-20T11:26:21Z</time>
      </trkpt>
      <trkpt lat="45.17118" lon="5.9523">
        <ele>2639.2</ele>
        <time>2021-02-20T11:26:22Z</time>
      </trkpt>
      <trkpt lat="45.17118" lon="5.9523">
        <ele>2639.2</ele>
        <time>2021-02-20T11:26:23Z</time>
      </trkpt>
      <trkpt lat="45.17118" lon="5.9523">
        <ele>2639.2</ele>
        <time>2021-02-20T11:26:24Z</time>
      </trkpt>
      <trkpt lat="45.17118" lon="5.9523">
        <ele>2639.2</ele>
        <time>2021-02-20T11:26:25Z</time>
      </trkpt>
      <trkpt lat="45.17118" lon="5.9523">
        <ele>2639.2</ele>
        <time>2021-02-20T11:26:26Z</time>
      </trkpt>
      <trkpt lat="45.17118" lon="5.9523">
        <ele>2639.2</ele>
        <time>2021-02-20T11:26:27Z</time>
      </trkpt>
      <trkpt lat="45.17118" lon="5.9523">
        <ele>2639.2</ele>
        <time>2021-02-20T11:26:28Z</time>
      </trkpt>
      <trkpt lat="45.17118" lon="5.9523">
        <ele>2639.2</ele>
        <time>2021-02-20T11:26:29Z</time>
      </trkpt>
      <trkpt lat="45.17118" lon="5.9523">
        <ele>2639.2</ele>
        <time>2021-02-20T11:26:30Z</time>
      </trkpt>
      <trkpt lat="45.17118" lon="5.9523">
        <ele>2639.2</ele>
        <time>2021-02-20T11:26:31Z</time>
      </trkpt>
      <trkpt lat="45.17118" lon="5.95231">
        <ele>2639.2</ele>
        <time>2021-02-20T11:26:32Z</time>
      </trkpt>
      <trkpt lat="45.17118" lon="5.95231">
        <ele>2639.2</ele>
        <time>2021-02-20T11:26:33Z</time>
      </trkpt>
      <trkpt lat="45.17118" lon="5.95231">
        <ele>2639.2</ele>
        <time>2021-02-20T11:26:34Z</time>
      </trkpt>
      <trkpt lat="45.17118" lon="5.95232">
        <ele>2638.9</ele>
        <time>2021-02-20T11:26:35Z</time>
      </trkpt>
      <trkpt lat="45.17118" lon="5.95232">
        <ele>2638.9</ele>
        <time>2021-02-20T11:26:36Z</time>
      </trkpt>
      <trkpt lat="45.17118" lon="5.95233">
        <ele>2638.9</ele>
        <time>2021-02-20T11:26:37Z</time>
      </trkpt>
      <trkpt lat="45.17118" lon="5.95234">
        <ele>2639.1</ele>
        <time>2021-02-20T11:26:38Z</time>
      </trkpt>
      <trkpt lat="45.17117" lon="5.95234">
        <ele>2639.1</ele>
        <time>2021-02-20T11:26:39Z</time>
      </trkpt>
      <trkpt lat="45.17117" lon="5.95234">
        <ele>2639.1</ele>
        <time>2021-02-20T11:26:40Z</time>
      </trkpt>
      <trkpt lat="45.17117" lon="5.95235">
        <ele>2639.1</ele>
        <time>2021-02-20T11:26:41Z</time>
      </trkpt>
      <trkpt lat="45.17117" lon="5.95235">
        <ele>2639.1</ele>
        <time>2021-02-20T11:26:42Z</time>
      </trkpt>
      <trkpt lat="45.17117" lon="5.95235">
        <ele>2639.1</ele>
        <time>2021-02-20T11:26:43Z</time>
      </trkpt>
      <trkpt lat="45.17117" lon="5.95237">
        <ele>2638.8</ele>
        <time>2021-02-20T11:26:44Z</time>
      </trkpt>
      <trkpt lat="45.17117" lon="5.95237">
        <ele>2638.8</ele>
        <time>2021-02-20T11:26:45Z</time>
      </trkpt>
      <trkpt lat="45.17117" lon="5.95237">
        <ele>2638.8</ele>
        <time>2021-02-20T11:26:46Z</time>
      </trkpt>
      <trkpt lat="45.17117" lon="5.95238">
        <ele>2638.8</ele>
        <time>2021-02-20T11:26:47Z</time>
      </trkpt>
      <trkpt lat="45.17117" lon="5.95238">
        <ele>2638.8</ele>
        <time>2021-02-20T11:26:48Z</time>
      </trkpt>
      <trkpt lat="45.17117" lon="5.95238">
        <ele>2638.8</ele>
        <time>2021-02-20T11:26:49Z</time>
      </trkpt>
      <trkpt lat="45.17116" lon="5.95239">
        <ele>2638.8</ele>
        <time>2021-02-20T11:26:50Z</time>
      </trkpt>
      <trkpt lat="45.17116" lon="5.95239">
        <ele>2638.8</ele>
        <time>2021-02-20T11:26:51Z</time>
      </trkpt>
      <trkpt lat="45.17116" lon="5.9524">
        <ele>2638.8</ele>
        <time>2021-02-20T11:26:52Z</time>
      </trkpt>
      <trkpt lat="45.17116" lon="5.9524">
        <ele>2638.8</ele>
        <time>2021-02-20T11:26:53Z</time>
      </trkpt>
      <trkpt lat="45.17116" lon="5.95241">
        <ele>2638.5</ele>
        <time>2021-02-20T11:26:54Z</time>
      </trkpt>
      <trkpt lat="45.17117" lon="5.95241">
        <ele>2638.5</ele>
        <time>2021-02-20T11:26:55Z</time>
      </trkpt>
      <trkpt lat="45.17117" lon="5.95241">
        <ele>2638.5</ele>
        <time>2021-02-20T11:26:56Z</time>
      </trkpt>
      <trkpt lat="45.17117" lon="5.9524">
        <ele>2638.8</ele>
        <time>2021-02-20T11:26:57Z</time>
      </trkpt>
      <trkpt lat="45.17117" lon="5.9524">
        <ele>2638.8</ele>
        <time>2021-02-20T11:26:58Z</time>
      </trkpt>
      <trkpt lat="45.17117" lon="5.9524">
        <ele>2638.8</ele>
        <time>2021-02-20T11:26:59Z</time>
      </trkpt>
      <trkpt lat="45.17117" lon="5.9524">
        <ele>2638.8</ele>
        <time>2021-02-20T11:27:00Z</time>
      </trkpt>
      <trkpt lat="45.17117" lon="5.9524">
        <ele>2638.8</ele>
        <time>2021-02-20T11:27:01Z</time>
      </trkpt>
      <trkpt lat="45.17117" lon="5.9524">
        <ele>2638.8</ele>
        <time>2021-02-20T11:27:02Z</time>
      </trkpt>
      <trkpt lat="45.17117" lon="5.9524">
        <ele>2638.8</ele>
        <time>2021-02-20T11:27:03Z</time>
      </trkpt>
      <trkpt lat="45.17117" lon="5.9524">
        <ele>2638.8</ele>
        <time>2021-02-20T11:27:04Z</time>
      </trkpt>
      <trkpt lat="45.17117" lon="5.9524">
        <ele>2638.5</ele>
        <time>2021-02-20T11:27:05Z</time>
      </trkpt>
      <trkpt lat="45.17117" lon="5.95241">
        <ele>2638.5</ele>
        <time>2021-02-20T11:27:06Z</time>
      </trkpt>
      <trkpt lat="45.17116" lon="5.95241">
        <ele>2638.5</ele>
        <time>2021-02-20T11:27:07Z</time>
      </trkpt>
      <trkpt lat="45.17116" lon="5.95242">
        <ele>2638.5</ele>
        <time>2021-02-20T11:27:08Z</time>
      </trkpt>
      <trkpt lat="45.17115" lon="5.95242">
        <ele>2638.5</ele>
        <time>2021-02-20T11:27:09Z</time>
      </trkpt>
      <trkpt lat="45.17114" lon="5.95242">
        <ele>2638.6</ele>
        <time>2021-02-20T11:27:10Z</time>
      </trkpt>
      <trkpt lat="45.17114" lon="5.95243">
        <ele>2638.6</ele>
        <time>2021-02-20T11:27:11Z</time>
      </trkpt>
      <trkpt lat="45.17114" lon="5.95243">
        <ele>2638.6</ele>
        <time>2021-02-20T11:27:12Z</time>
      </trkpt>
      <trkpt lat="45.17113" lon="5.95243">
        <ele>2638.6</ele>
        <time>2021-02-20T11:27:13Z</time>
      </trkpt>
      <trkpt lat="45.17113" lon="5.95243">
        <ele>2638.6</ele>
        <time>2021-02-20T11:27:14Z</time>
      </trkpt>
      <trkpt lat="45.17113" lon="5.95244">
        <ele>2638.6</ele>
        <time>2021-02-20T11:27:15Z</time>
      </trkpt>
      <trkpt lat="45.17112" lon="5.95244">
        <ele>2638.6</ele>
        <time>2021-02-20T11:27:16Z</time>
      </trkpt>
      <trkpt lat="45.17112" lon="5.95244">
        <ele>2638.6</ele>
        <time>2021-02-20T11:27:17Z</time>
      </trkpt>
      <trkpt lat="45.17112" lon="5.95245">
        <ele>2638.4</ele>
        <time>2021-02-20T11:27:18Z</time>
      </trkpt>
      <trkpt lat="45.17111" lon="5.95245">
        <ele>2638.4</ele>
        <time>2021-02-20T11:27:19Z</time>
      </trkpt>
      <trkpt lat="45.17111" lon="5.95245">
        <ele>2638.4</ele>
        <time>2021-02-20T11:27:20Z</time>
      </trkpt>
      <trkpt lat="45.17111" lon="5.95246">
        <ele>2638.4</ele>
        <time>2021-02-20T11:27:21Z</time>
      </trkpt>
      <trkpt lat="45.17111" lon="5.95246">
        <ele>2638.4</ele>
        <time>2021-02-20T11:27:22Z</time>
      </trkpt>
      <trkpt lat="45.1711" lon="5.95246">
        <ele>2638.4</ele>
        <time>2021-02-20T11:27:23Z</time>
      </trkpt>
      <trkpt lat="45.1711" lon="5.95247">
        <ele>2638.4</ele>
        <time>2021-02-20T11:27:24Z</time>
      </trkpt>
      <trkpt lat="45.1711" lon="5.95247">
        <ele>2638.4</ele>
        <time>2021-02-20T11:27:25Z</time>
      </trkpt>
      <trkpt lat="45.1711" lon="5.95247">
        <ele>2638.4</ele>
        <time>2021-02-20T11:27:26Z</time>
      </trkpt>
      <trkpt lat="45.1711" lon="5.95247">
        <ele>2638.4</ele>
        <time>2021-02-20T11:27:27Z</time>
      </trkpt>
      <trkpt lat="45.1711" lon="5.95247">
        <ele>2638.4</ele>
        <time>2021-02-20T11:27:28Z</time>
      </trkpt>
      <trkpt lat="45.1711" lon="5.95247">
        <ele>2638.4</ele>
        <time>2021-02-20T11:27:29Z</time>
      </trkpt>
      <trkpt lat="45.1711" lon="5.95247">
        <ele>2638.4</ele>
        <time>2021-02-20T11:27:30Z</time>
      </trkpt>
      <trkpt lat="45.1711" lon="5.95247">
        <ele>2638.4</ele>
        <time>2021-02-20T11:27:31Z</time>
      </trkpt>
      <trkpt lat="45.1711" lon="5.95247">
        <ele>2638.4</ele>
        <time>2021-02-20T11:27:32Z</time>
      </trkpt>
      <trkpt lat="45.1711" lon="5.95247">
        <ele>2638.4</ele>
        <time>2021-02-20T11:27:33Z</time>
      </trkpt>
      <trkpt lat="45.17109" lon="5.95248">
        <ele>2638.4</ele>
        <time>2021-02-20T11:27:34Z</time>
      </trkpt>
      <trkpt lat="45.17109" lon="5.95248">
        <ele>2638.4</ele>
        <time>2021-02-20T11:27:35Z</time>
      </trkpt>
      <trkpt lat="45.17109" lon="5.95249">
        <ele>2638.1</ele>
        <time>2021-02-20T11:27:36Z</time>
      </trkpt>
      <trkpt lat="45.17109" lon="5.95249">
        <ele>2638.1</ele>
        <time>2021-02-20T11:27:37Z</time>
      </trkpt>
      <trkpt lat="45.17109" lon="5.95249">
        <ele>2638.1</ele>
        <time>2021-02-20T11:27:38Z</time>
      </trkpt>
      <trkpt lat="45.17109" lon="5.95249">
        <ele>2638.1</ele>
        <time>2021-02-20T11:27:39Z</time>
      </trkpt>
      <trkpt lat="45.17109" lon="5.95249">
        <ele>2638.1</ele>
        <time>2021-02-20T11:27:40Z</time>
      </trkpt>
      <trkpt lat="45.17109" lon="5.95249">
        <ele>2638.1</ele>
        <time>2021-02-20T11:27:41Z</time>
      </trkpt>
      <trkpt lat="45.17109" lon="5.95249">
        <ele>2638.1</ele>
        <time>2021-02-20T11:27:42Z</time>
      </trkpt>
      <trkpt lat="45.17109" lon="5.95249">
        <ele>2638.1</ele>
        <time>2021-02-20T11:27:43Z</time>
      </trkpt>
      <trkpt lat="45.17109" lon="5.95249">
        <ele>2638.1</ele>
        <time>2021-02-20T11:27:44Z</time>
      </trkpt>
      <trkpt lat="45.17109" lon="5.95249">
        <ele>2638.1</ele>
        <time>2021-02-20T11:27:45Z</time>
      </trkpt>
      <trkpt lat="45.17109" lon="5.95249">
        <ele>2638.1</ele>
        <time>2021-02-20T11:27:46Z</time>
      </trkpt>
      <trkpt lat="45.17109" lon="5.95249">
        <ele>2638.1</ele>
        <time>2021-02-20T11:27:47Z</time>
      </trkpt>
      <trkpt lat="45.1711" lon="5.95251">
        <ele>2638.1</ele>
        <time>2021-02-20T11:27:48Z</time>
      </trkpt>
      <trkpt lat="45.1711" lon="5.95252">
        <ele>2638.1</ele>
        <time>2021-02-20T11:27:49Z</time>
      </trkpt>
      <trkpt lat="45.17109" lon="5.95252">
        <ele>2638.1</ele>
        <time>2021-02-20T11:27:50Z</time>
      </trkpt>
      <trkpt lat="45.17109" lon="5.95252">
        <ele>2638.1</ele>
        <time>2021-02-20T11:27:51Z</time>
      </trkpt>
      <trkpt lat="45.1711" lon="5.95252">
        <ele>2638.1</ele>
        <time>2021-02-20T11:27:52Z</time>
      </trkpt>
      <trkpt lat="45.1711" lon="5.95252">
        <ele>2638.1</ele>
        <time>2021-02-20T11:27:53Z</time>
      </trkpt>
      <trkpt lat="45.1711" lon="5.95253">
        <ele>2638.1</ele>
        <time>2021-02-20T11:27:54Z</time>
      </trkpt>
      <trkpt lat="45.1711" lon="5.95253">
        <ele>2638.1</ele>
        <time>2021-02-20T11:27:55Z</time>
      </trkpt>
      <trkpt lat="45.1711" lon="5.95253">
        <ele>2637.9</ele>
        <time>2021-02-20T11:27:56Z</time>
      </trkpt>
      <trkpt lat="45.1711" lon="5.95253">
        <ele>2637.9</ele>
        <time>2021-02-20T11:27:57Z</time>
      </trkpt>
      <trkpt lat="45.1711" lon="5.95253">
        <ele>2637.9</ele>
        <time>2021-02-20T11:27:58Z</time>
      </trkpt>
      <trkpt lat="45.1711" lon="5.95253">
        <ele>2637.9</ele>
        <time>2021-02-20T11:27:59Z</time>
      </trkpt>
      <trkpt lat="45.1711" lon="5.95253">
        <ele>2637.9</ele>
        <time>2021-02-20T11:28:00Z</time>
      </trkpt>
      <trkpt lat="45.1711" lon="5.95253">
        <ele>2637.9</ele>
        <time>2021-02-20T11:28:01Z</time>
      </trkpt>
      <trkpt lat="45.1711" lon="5.95253">
        <ele>2637.9</ele>
        <time>2021-02-20T11:28:02Z</time>
      </trkpt>
      <trkpt lat="45.1711" lon="5.95253">
        <ele>2637.9</ele>
        <time>2021-02-20T11:28:03Z</time>
      </trkpt>
      <trkpt lat="45.1711" lon="5.95253">
        <ele>2637.9</ele>
        <time>2021-02-20T11:28:04Z</time>
      </trkpt>
      <trkpt lat="45.17111" lon="5.95254">
        <ele>2637.9</ele>
        <time>2021-02-20T11:28:05Z</time>
      </trkpt>
      <trkpt lat="45.17111" lon="5.95254">
        <ele>2637.9</ele>
        <time>2021-02-20T11:28:06Z</time>
      </trkpt>
      <trkpt lat="45.17111" lon="5.95254">
        <ele>2637.9</ele>
        <time>2021-02-20T11:28:07Z</time>
      </trkpt>
      <trkpt lat="45.17111" lon="5.95254">
        <ele>2637.9</ele>
        <time>2021-02-20T11:28:08Z</time>
      </trkpt>
      <trkpt lat="45.17111" lon="5.95254">
        <ele>2637.9</ele>
        <time>2021-02-20T11:28:09Z</time>
      </trkpt>
      <trkpt lat="45.17111" lon="5.95254">
        <ele>2637.9</ele>
        <time>2021-02-20T11:28:10Z</time>
      </trkpt>
      <trkpt lat="45.1711" lon="5.95254">
        <ele>2637.9</ele>
        <time>2021-02-20T11:28:11Z</time>
      </trkpt>
      <trkpt lat="45.1711" lon="5.95254">
        <ele>2637.9</ele>
        <time>2021-02-20T11:28:12Z</time>
      </trkpt>
      <trkpt lat="45.1711" lon="5.95254">
        <ele>2637.9</ele>
        <time>2021-02-20T11:28:13Z</time>
      </trkpt>
      <trkpt lat="45.1711" lon="5.95255">
        <ele>2637.9</ele>
        <time>2021-02-20T11:28:14Z</time>
      </trkpt>
      <trkpt lat="45.1711" lon="5.95255">
        <ele>2637.9</ele>
        <time>2021-02-20T11:28:15Z</time>
      </trkpt>
      <trkpt lat="45.1711" lon="5.95255">
        <ele>2637.9</ele>
        <time>2021-02-20T11:28:16Z</time>
      </trkpt>
      <trkpt lat="45.1711" lon="5.95255">
        <ele>2637.9</ele>
        <time>2021-02-20T11:28:17Z</time>
      </trkpt>
      <trkpt lat="45.1711" lon="5.95256">
        <ele>2637.9</ele>
        <time>2021-02-20T11:28:18Z</time>
      </trkpt>
      <trkpt lat="45.1711" lon="5.95256">
        <ele>2637.9</ele>
        <time>2021-02-20T11:28:19Z</time>
      </trkpt>
      <trkpt lat="45.1711" lon="5.95256">
        <ele>2637.9</ele>
        <time>2021-02-20T11:28:20Z</time>
      </trkpt>
      <trkpt lat="45.1711" lon="5.95257">
        <ele>2637.9</ele>
        <time>2021-02-20T11:28:21Z</time>
      </trkpt>
      <trkpt lat="45.1711" lon="5.95257">
        <ele>2637.9</ele>
        <time>2021-02-20T11:28:22Z</time>
      </trkpt>
      <trkpt lat="45.1711" lon="5.95257">
        <ele>2637.9</ele>
        <time>2021-02-20T11:28:23Z</time>
      </trkpt>
      <trkpt lat="45.1711" lon="5.95257">
        <ele>2637.9</ele>
        <time>2021-02-20T11:28:24Z</time>
      </trkpt>
      <trkpt lat="45.1711" lon="5.95257">
        <ele>2637.9</ele>
        <time>2021-02-20T11:28:25Z</time>
      </trkpt>
      <trkpt lat="45.1711" lon="5.95257">
        <ele>2637.9</ele>
        <time>2021-02-20T11:28:26Z</time>
      </trkpt>
      <trkpt lat="45.1711" lon="5.95257">
        <ele>2637.9</ele>
        <time>2021-02-20T11:28:27Z</time>
      </trkpt>
      <trkpt lat="45.1711" lon="5.95257">
        <ele>2637.9</ele>
        <time>2021-02-20T11:28:28Z</time>
      </trkpt>
      <trkpt lat="45.1711" lon="5.95257">
        <ele>2637.9</ele>
        <time>2021-02-20T11:28:29Z</time>
      </trkpt>
      <trkpt lat="45.1711" lon="5.95257">
        <ele>2637.9</ele>
        <time>2021-02-20T11:28:30Z</time>
      </trkpt>
      <trkpt lat="45.1711" lon="5.95257">
        <ele>2637.9</ele>
        <time>2021-02-20T11:28:31Z</time>
      </trkpt>
      <trkpt lat="45.1711" lon="5.95257">
        <ele>2637.9</ele>
        <time>2021-02-20T11:28:32Z</time>
      </trkpt>
      <trkpt lat="45.17109" lon="5.95257">
        <ele>2637.9</ele>
        <time>2021-02-20T11:28:33Z</time>
      </trkpt>
      <trkpt lat="45.17109" lon="5.95257">
        <ele>2637.9</ele>
        <time>2021-02-20T11:28:34Z</time>
      </trkpt>
      <trkpt lat="45.17109" lon="5.95257">
        <ele>2637.9</ele>
        <time>2021-02-20T11:28:35Z</time>
      </trkpt>
      <trkpt lat="45.17109" lon="5.95258">
        <ele>2637.7</ele>
        <time>2021-02-20T11:28:36Z</time>
      </trkpt>
      <trkpt lat="45.17109" lon="5.95258">
        <ele>2637.7</ele>
        <time>2021-02-20T11:28:37Z</time>
      </trkpt>
      <trkpt lat="45.17109" lon="5.95259">
        <ele>2637.7</ele>
        <time>2021-02-20T11:28:38Z</time>
      </trkpt>
      <trkpt lat="45.17109" lon="5.9526">
        <ele>2637.7</ele>
        <time>2021-02-20T11:28:39Z</time>
      </trkpt>
      <trkpt lat="45.17109" lon="5.9526">
        <ele>2637.7</ele>
        <time>2021-02-20T11:28:40Z</time>
      </trkpt>
      <trkpt lat="45.17109" lon="5.95261">
        <ele>2637.7</ele>
        <time>2021-02-20T11:28:41Z</time>
      </trkpt>
      <trkpt lat="45.17109" lon="5.95261">
        <ele>2637.7</ele>
        <time>2021-02-20T11:28:42Z</time>
      </trkpt>
      <trkpt lat="45.17108" lon="5.95261">
        <ele>2637.6</ele>
        <time>2021-02-20T11:28:43Z</time>
      </trkpt>
      <trkpt lat="45.17108" lon="5.95262">
        <ele>2637.4</ele>
        <time>2021-02-20T11:28:44Z</time>
      </trkpt>
      <trkpt lat="45.17108" lon="5.95262">
        <ele>2637.4</ele>
        <time>2021-02-20T11:28:45Z</time>
      </trkpt>
      <trkpt lat="45.17108" lon="5.95262">
        <ele>2637.4</ele>
        <time>2021-02-20T11:28:46Z</time>
      </trkpt>
      <trkpt lat="45.17108" lon="5.95263">
        <ele>2637.4</ele>
        <time>2021-02-20T11:28:47Z</time>
      </trkpt>
      <trkpt lat="45.17107" lon="5.95263">
        <ele>2637.4</ele>
        <time>2021-02-20T11:28:48Z</time>
      </trkpt>
      <trkpt lat="45.17107" lon="5.95263">
        <ele>2637.4</ele>
        <time>2021-02-20T11:28:49Z</time>
      </trkpt>
      <trkpt lat="45.17107" lon="5.95264">
        <ele>2637.4</ele>
        <time>2021-02-20T11:28:50Z</time>
      </trkpt>
      <trkpt lat="45.17107" lon="5.95264">
        <ele>2637.4</ele>
        <time>2021-02-20T11:28:51Z</time>
      </trkpt>
      <trkpt lat="45.17107" lon="5.95263">
        <ele>2637.4</ele>
        <time>2021-02-20T11:28:52Z</time>
      </trkpt>
      <trkpt lat="45.17107" lon="5.95263">
        <ele>2637.4</ele>
        <time>2021-02-20T11:28:53Z</time>
      </trkpt>
      <trkpt lat="45.17107" lon="5.95263">
        <ele>2637.4</ele>
        <time>2021-02-20T11:28:54Z</time>
      </trkpt>
      <trkpt lat="45.17107" lon="5.95264">
        <ele>2637.4</ele>
        <time>2021-02-20T11:28:55Z</time>
      </trkpt>
      <trkpt lat="45.17107" lon="5.95264">
        <ele>2637.4</ele>
        <time>2021-02-20T11:28:56Z</time>
      </trkpt>
      <trkpt lat="45.17107" lon="5.95264">
        <ele>2637.4</ele>
        <time>2021-02-20T11:28:57Z</time>
      </trkpt>
      <trkpt lat="45.17107" lon="5.95264">
        <ele>2637.4</ele>
        <time>2021-02-20T11:28:58Z</time>
      </trkpt>
      <trkpt lat="45.17107" lon="5.95264">
        <ele>2637.4</ele>
        <time>2021-02-20T11:28:59Z</time>
      </trkpt>
      <trkpt lat="45.17108" lon="5.95263">
        <ele>2637.4</ele>
        <time>2021-02-20T11:29:00Z</time>
      </trkpt>
      <trkpt lat="45.17108" lon="5.95263">
        <ele>2637.4</ele>
        <time>2021-02-20T11:29:01Z</time>
      </trkpt>
      <trkpt lat="45.17108" lon="5.95263">
        <ele>2637.4</ele>
        <time>2021-02-20T11:29:02Z</time>
      </trkpt>
      <trkpt lat="45.17108" lon="5.95263">
        <ele>2637.4</ele>
        <time>2021-02-20T11:29:03Z</time>
      </trkpt>
      <trkpt lat="45.17108" lon="5.95263">
        <ele>2637.4</ele>
        <time>2021-02-20T11:29:04Z</time>
      </trkpt>
      <trkpt lat="45.17108" lon="5.95263">
        <ele>2637.4</ele>
        <time>2021-02-20T11:29:05Z</time>
      </trkpt>
      <trkpt lat="45.17108" lon="5.95263">
        <ele>2637.4</ele>
        <time>2021-02-20T11:29:06Z</time>
      </trkpt>
      <trkpt lat="45.17108" lon="5.95263">
        <ele>2637.4</ele>
        <time>2021-02-20T11:29:07Z</time>
      </trkpt>
      <trkpt lat="45.17108" lon="5.95263">
        <ele>2637.4</ele>
        <time>2021-02-20T11:29:08Z</time>
      </trkpt>
      <trkpt lat="45.17108" lon="5.95263">
        <ele>2637.4</ele>
        <time>2021-02-20T11:29:09Z</time>
      </trkpt>
      <trkpt lat="45.17108" lon="5.95263">
        <ele>2637.4</ele>
        <time>2021-02-20T11:29:10Z</time>
      </trkpt>
      <trkpt lat="45.17108" lon="5.95263">
        <ele>2637.4</ele>
        <time>2021-02-20T11:29:11Z</time>
      </trkpt>
      <trkpt lat="45.17108" lon="5.95263">
        <ele>2637.4</ele>
        <time>2021-02-20T11:29:12Z</time>
      </trkpt>
      <trkpt lat="45.17108" lon="5.95263">
        <ele>2637.4</ele>
        <time>2021-02-20T11:29:13Z</time>
      </trkpt>
      <trkpt lat="45.17108" lon="5.95263">
        <ele>2637.4</ele>
        <time>2021-02-20T11:29:14Z</time>
      </trkpt>
      <trkpt lat="45.17108" lon="5.95263">
        <ele>2637.4</ele>
        <time>2021-02-20T11:29:15Z</time>
      </trkpt>
      <trkpt lat="45.17108" lon="5.95263">
        <ele>2637.4</ele>
        <time>2021-02-20T11:29:16Z</time>
      </trkpt>
      <trkpt lat="45.17108" lon="5.95263">
        <ele>2637.4</ele>
        <time>2021-02-20T11:29:17Z</time>
      </trkpt>
      <trkpt lat="45.17108" lon="5.95263">
        <ele>2637.4</ele>
        <time>2021-02-20T11:29:18Z</time>
      </trkpt>
      <trkpt lat="45.17108" lon="5.95263">
        <ele>2637.4</ele>
        <time>2021-02-20T11:29:19Z</time>
      </trkpt>
      <trkpt lat="45.17108" lon="5.95263">
        <ele>2637.4</ele>
        <time>2021-02-20T11:29:20Z</time>
      </trkpt>
      <trkpt lat="45.17108" lon="5.95263">
        <ele>2637.4</ele>
        <time>2021-02-20T11:29:21Z</time>
      </trkpt>
      <trkpt lat="45.17108" lon="5.95263">
        <ele>2637.4</ele>
        <time>2021-02-20T11:29:22Z</time>
      </trkpt>
      <trkpt lat="45.17108" lon="5.95263">
        <ele>2637.4</ele>
        <time>2021-02-20T11:29:23Z</time>
      </trkpt>
      <trkpt lat="45.17108" lon="5.95263">
        <ele>2637.4</ele>
        <time>2021-02-20T11:29:24Z</time>
      </trkpt>
      <trkpt lat="45.17108" lon="5.95263">
        <ele>2637.4</ele>
        <time>2021-02-20T11:29:25Z</time>
      </trkpt>
      <trkpt lat="45.17108" lon="5.95263">
        <ele>2637.4</ele>
        <time>2021-02-20T11:29:26Z</time>
      </trkpt>
      <trkpt lat="45.17108" lon="5.95263">
        <ele>2637.4</ele>
        <time>2021-02-20T11:29:27Z</time>
      </trkpt>
      <trkpt lat="45.17108" lon="5.95263">
        <ele>2637.4</ele>
        <time>2021-02-20T11:29:28Z</time>
      </trkpt>
      <trkpt lat="45.17108" lon="5.95263">
        <ele>2637.4</ele>
        <time>2021-02-20T11:29:29Z</time>
      </trkpt>
      <trkpt lat="45.17108" lon="5.95263">
        <ele>2637.4</ele>
        <time>2021-02-20T11:29:30Z</time>
      </trkpt>
      <trkpt lat="45.17108" lon="5.95263">
        <ele>2637.4</ele>
        <time>2021-02-20T11:29:31Z</time>
      </trkpt>
      <trkpt lat="45.17108" lon="5.95263">
        <ele>2637.4</ele>
        <time>2021-02-20T11:29:32Z</time>
      </trkpt>
      <trkpt lat="45.17108" lon="5.95263">
        <ele>2637.4</ele>
        <time>2021-02-20T11:29:33Z</time>
      </trkpt>
      <trkpt lat="45.17108" lon="5.95263">
        <ele>2637.4</ele>
        <time>2021-02-20T11:29:34Z</time>
      </trkpt>
      <trkpt lat="45.17108" lon="5.95263">
        <ele>2637.4</ele>
        <time>2021-02-20T11:29:35Z</time>
      </trkpt>
      <trkpt lat="45.17108" lon="5.95263">
        <ele>2637.4</ele>
        <time>2021-02-20T11:29:36Z</time>
      </trkpt>
      <trkpt lat="45.17108" lon="5.95263">
        <ele>2637.4</ele>
        <time>2021-02-20T11:29:37Z</time>
      </trkpt>
      <trkpt lat="45.17108" lon="5.95263">
        <ele>2637.4</ele>
        <time>2021-02-20T11:29:38Z</time>
      </trkpt>
      <trkpt lat="45.17108" lon="5.95263">
        <ele>2637.4</ele>
        <time>2021-02-20T11:29:39Z</time>
      </trkpt>
      <trkpt lat="45.17108" lon="5.95263">
        <ele>2637.4</ele>
        <time>2021-02-20T11:29:40Z</time>
      </trkpt>
      <trkpt lat="45.17108" lon="5.95263">
        <ele>2637.4</ele>
        <time>2021-02-20T11:29:41Z</time>
      </trkpt>
      <trkpt lat="45.17108" lon="5.95263">
        <ele>2637.4</ele>
        <time>2021-02-20T11:29:42Z</time>
      </trkpt>
      <trkpt lat="45.17108" lon="5.95263">
        <ele>2637.4</ele>
        <time>2021-02-20T11:29:43Z</time>
      </trkpt>
      <trkpt lat="45.17108" lon="5.95263">
        <ele>2637.4</ele>
        <time>2021-02-20T11:29:44Z</time>
      </trkpt>
      <trkpt lat="45.17108" lon="5.95263">
        <ele>2637.4</ele>
        <time>2021-02-20T11:29:45Z</time>
      </trkpt>
      <trkpt lat="45.17108" lon="5.95263">
        <ele>2637.4</ele>
        <time>2021-02-20T11:29:46Z</time>
      </trkpt>
      <trkpt lat="45.17108" lon="5.95263">
        <ele>2637.4</ele>
        <time>2021-02-20T11:29:47Z</time>
      </trkpt>
      <trkpt lat="45.17108" lon="5.95263">
        <ele>2637.4</ele>
        <time>2021-02-20T11:29:48Z</time>
      </trkpt>
      <trkpt lat="45.17108" lon="5.95263">
        <ele>2637.4</ele>
        <time>2021-02-20T11:29:49Z</time>
      </trkpt>
      <trkpt lat="45.17108" lon="5.95263">
        <ele>2637.4</ele>
        <time>2021-02-20T11:29:50Z</time>
      </trkpt>
      <trkpt lat="45.17108" lon="5.95263">
        <ele>2637.4</ele>
        <time>2021-02-20T11:29:51Z</time>
      </trkpt>
      <trkpt lat="45.17108" lon="5.95263">
        <ele>2637.4</ele>
        <time>2021-02-20T11:29:52Z</time>
      </trkpt>
      <trkpt lat="45.17108" lon="5.95263">
        <ele>2637.4</ele>
        <time>2021-02-20T11:29:53Z</time>
      </trkpt>
      <trkpt lat="45.17108" lon="5.95263">
        <ele>2637.4</ele>
        <time>2021-02-20T11:29:54Z</time>
      </trkpt>
      <trkpt lat="45.17108" lon="5.95263">
        <ele>2637.4</ele>
        <time>2021-02-20T11:29:55Z</time>
      </trkpt>
      <trkpt lat="45.17108" lon="5.95263">
        <ele>2637.4</ele>
        <time>2021-02-20T11:29:56Z</time>
      </trkpt>
      <trkpt lat="45.17108" lon="5.95263">
        <ele>2637.4</ele>
        <time>2021-02-20T11:29:57Z</time>
      </trkpt>
      <trkpt lat="45.17108" lon="5.95263">
        <ele>2637.4</ele>
        <time>2021-02-20T11:29:58Z</time>
      </trkpt>
      <trkpt lat="45.17108" lon="5.95263">
        <ele>2637.4</ele>
        <time>2021-02-20T11:29:59Z</time>
      </trkpt>
      <trkpt lat="45.17108" lon="5.95263">
        <ele>2637.4</ele>
        <time>2021-02-20T11:30:00Z</time>
      </trkpt>
      <trkpt lat="45.17108" lon="5.95263">
        <ele>2637.4</ele>
        <time>2021-02-20T11:30:01Z</time>
      </trkpt>
      <trkpt lat="45.17108" lon="5.95263">
        <ele>2637.4</ele>
        <time>2021-02-20T11:30:02Z</time>
      </trkpt>
      <trkpt lat="45.17108" lon="5.95263">
        <ele>2637.4</ele>
        <time>2021-02-20T11:30:03Z</time>
      </trkpt>
      <trkpt lat="45.17108" lon="5.95263">
        <ele>2637.4</ele>
        <time>2021-02-20T11:30:04Z</time>
      </trkpt>
      <trkpt lat="45.17108" lon="5.95263">
        <ele>2637.4</ele>
        <time>2021-02-20T11:30:05Z</time>
      </trkpt>
      <trkpt lat="45.17108" lon="5.95263">
        <ele>2637.4</ele>
        <time>2021-02-20T11:30:06Z</time>
      </trkpt>
      <trkpt lat="45.17109" lon="5.95263">
        <ele>2637.4</ele>
        <time>2021-02-20T11:30:07Z</time>
      </trkpt>
      <trkpt lat="45.17109" lon="5.95263">
        <ele>2637.4</ele>
        <time>2021-02-20T11:30:08Z</time>
      </trkpt>
      <trkpt lat="45.17109" lon="5.95262">
        <ele>2637.4</ele>
        <time>2021-02-20T11:30:09Z</time>
      </trkpt>
      <trkpt lat="45.17109" lon="5.95262">
        <ele>2637.4</ele>
        <time>2021-02-20T11:30:10Z</time>
      </trkpt>
      <trkpt lat="45.17108" lon="5.95262">
        <ele>2637.4</ele>
        <time>2021-02-20T11:30:11Z</time>
      </trkpt>
      <trkpt lat="45.17109" lon="5.95262">
        <ele>2637.4</ele>
        <time>2021-02-20T11:30:12Z</time>
      </trkpt>
      <trkpt lat="45.17109" lon="5.95262">
        <ele>2637.4</ele>
        <time>2021-02-20T11:30:13Z</time>
      </trkpt>
      <trkpt lat="45.17109" lon="5.95262">
        <ele>2637.4</ele>
        <time>2021-02-20T11:30:14Z</time>
      </trkpt>
      <trkpt lat="45.17109" lon="5.95262">
        <ele>2637.4</ele>
        <time>2021-02-20T11:30:15Z</time>
      </trkpt>
      <trkpt lat="45.17109" lon="5.95261">
        <ele>2637.7</ele>
        <time>2021-02-20T11:30:16Z</time>
      </trkpt>
      <trkpt lat="45.17109" lon="5.95261">
        <ele>2637.7</ele>
        <time>2021-02-20T11:30:17Z</time>
      </trkpt>
      <trkpt lat="45.17109" lon="5.95261">
        <ele>2637.7</ele>
        <time>2021-02-20T11:30:18Z</time>
      </trkpt>
      <trkpt lat="45.1711" lon="5.95261">
        <ele>2637.7</ele>
        <time>2021-02-20T11:30:19Z</time>
      </trkpt>
      <trkpt lat="45.1711" lon="5.9526">
        <ele>2637.7</ele>
        <time>2021-02-20T11:30:20Z</time>
      </trkpt>
      <trkpt lat="45.1711" lon="5.9526">
        <ele>2637.7</ele>
        <time>2021-02-20T11:30:21Z</time>
      </trkpt>
      <trkpt lat="45.1711" lon="5.9526">
        <ele>2637.7</ele>
        <time>2021-02-20T11:30:22Z</time>
      </trkpt>
      <trkpt lat="45.17109" lon="5.9526">
        <ele>2637.7</ele>
        <time>2021-02-20T11:30:23Z</time>
      </trkpt>
      <trkpt lat="45.17109" lon="5.9526">
        <ele>2637.7</ele>
        <time>2021-02-20T11:30:24Z</time>
      </trkpt>
      <trkpt lat="45.17109" lon="5.9526">
        <ele>2637.7</ele>
        <time>2021-02-20T11:30:25Z</time>
      </trkpt>
      <trkpt lat="45.17109" lon="5.9526">
        <ele>2637.7</ele>
        <time>2021-02-20T11:30:26Z</time>
      </trkpt>
      <trkpt lat="45.17109" lon="5.9526">
        <ele>2637.7</ele>
        <time>2021-02-20T11:30:27Z</time>
      </trkpt>
      <trkpt lat="45.17109" lon="5.9526">
        <ele>2637.7</ele>
        <time>2021-02-20T11:30:28Z</time>
      </trkpt>
      <trkpt lat="45.17109" lon="5.9526">
        <ele>2637.7</ele>
        <time>2021-02-20T11:30:29Z</time>
      </trkpt>
      <trkpt lat="45.17109" lon="5.9526">
        <ele>2637.7</ele>
        <time>2021-02-20T11:30:30Z</time>
      </trkpt>
      <trkpt lat="45.17109" lon="5.9526">
        <ele>2637.7</ele>
        <time>2021-02-20T11:30:31Z</time>
      </trkpt>
      <trkpt lat="45.17109" lon="5.9526">
        <ele>2637.7</ele>
        <time>2021-02-20T11:30:32Z</time>
      </trkpt>
      <trkpt lat="45.17109" lon="5.9526">
        <ele>2637.7</ele>
        <time>2021-02-20T11:30:33Z</time>
      </trkpt>
      <trkpt lat="45.17109" lon="5.9526">
        <ele>2637.7</ele>
        <time>2021-02-20T11:30:34Z</time>
      </trkpt>
      <trkpt lat="45.17109" lon="5.9526">
        <ele>2637.7</ele>
        <time>2021-02-20T11:30:35Z</time>
      </trkpt>
      <trkpt lat="45.17108" lon="5.95262">
        <ele>2637.4</ele>
        <time>2021-02-20T11:30:36Z</time>
      </trkpt>
      <trkpt lat="45.17108" lon="5.95262">
        <ele>2637.4</ele>
        <time>2021-02-20T11:30:37Z</time>
      </trkpt>
      <trkpt lat="45.17108" lon="5.95263">
        <ele>2637.4</ele>
        <time>2021-02-20T11:30:38Z</time>
      </trkpt>
      <trkpt lat="45.17108" lon="5.95263">
        <ele>2637.4</ele>
        <time>2021-02-20T11:30:39Z</time>
      </trkpt>
      <trkpt lat="45.17108" lon="5.95263">
        <ele>2637.4</ele>
        <time>2021-02-20T11:30:40Z</time>
      </trkpt>
      <trkpt lat="45.17108" lon="5.95263">
        <ele>2637.4</ele>
        <time>2021-02-20T11:30:41Z</time>
      </trkpt>
      <trkpt lat="45.17108" lon="5.95263">
        <ele>2637.4</ele>
        <time>2021-02-20T11:30:42Z</time>
      </trkpt>
      <trkpt lat="45.17108" lon="5.95263">
        <ele>2637.4</ele>
        <time>2021-02-20T11:30:43Z</time>
      </trkpt>
      <trkpt lat="45.17109" lon="5.95263">
        <ele>2637.4</ele>
        <time>2021-02-20T11:30:44Z</time>
      </trkpt>
      <trkpt lat="45.17109" lon="5.95263">
        <ele>2637.4</ele>
        <time>2021-02-20T11:30:45Z</time>
      </trkpt>
      <trkpt lat="45.17109" lon="5.95264">
        <ele>2637.4</ele>
        <time>2021-02-20T11:30:46Z</time>
      </trkpt>
      <trkpt lat="45.17109" lon="5.95264">
        <ele>2637.4</ele>
        <time>2021-02-20T11:30:47Z</time>
      </trkpt>
      <trkpt lat="45.1711" lon="5.95263">
        <ele>2637.4</ele>
        <time>2021-02-20T11:30:48Z</time>
      </trkpt>
      <trkpt lat="45.17109" lon="5.95263">
        <ele>2637.4</ele>
        <time>2021-02-20T11:30:49Z</time>
      </trkpt>
      <trkpt lat="45.17109" lon="5.95263">
        <ele>2637.4</ele>
        <time>2021-02-20T11:30:50Z</time>
      </trkpt>
      <trkpt lat="45.17109" lon="5.95263">
        <ele>2637.4</ele>
        <time>2021-02-20T11:30:51Z</time>
      </trkpt>
      <trkpt lat="45.17109" lon="5.95263">
        <ele>2637.4</ele>
        <time>2021-02-20T11:30:52Z</time>
      </trkpt>
      <trkpt lat="45.17109" lon="5.95263">
        <ele>2637.4</ele>
        <time>2021-02-20T11:30:53Z</time>
      </trkpt>
      <trkpt lat="45.17109" lon="5.95263">
        <ele>2637.4</ele>
        <time>2021-02-20T11:30:54Z</time>
      </trkpt>
      <trkpt lat="45.17109" lon="5.95263">
        <ele>2637.4</ele>
        <time>2021-02-20T11:30:55Z</time>
      </trkpt>
      <trkpt lat="45.17109" lon="5.95263">
        <ele>2637.4</ele>
        <time>2021-02-20T11:30:56Z</time>
      </trkpt>
      <trkpt lat="45.17109" lon="5.95263">
        <ele>2637.4</ele>
        <time>2021-02-20T11:30:57Z</time>
      </trkpt>
      <trkpt lat="45.17109" lon="5.95263">
        <ele>2637.4</ele>
        <time>2021-02-20T11:30:58Z</time>
      </trkpt>
      <trkpt lat="45.17109" lon="5.95263">
        <ele>2637.4</ele>
        <time>2021-02-20T11:30:59Z</time>
      </trkpt>
      <trkpt lat="45.17107" lon="5.95261">
        <ele>2637.6</ele>
        <time>2021-02-20T11:31:00Z</time>
      </trkpt>
      <trkpt lat="45.17107" lon="5.9526">
        <ele>2637.6</ele>
        <time>2021-02-20T11:31:01Z</time>
      </trkpt>
      <trkpt lat="45.17107" lon="5.9526">
        <ele>2637.6</ele>
        <time>2021-02-20T11:31:02Z</time>
      </trkpt>
      <trkpt lat="45.17107" lon="5.9526">
        <ele>2637.6</ele>
        <time>2021-02-20T11:31:03Z</time>
      </trkpt>
      <trkpt lat="45.17106" lon="5.9526">
        <ele>2637.6</ele>
        <time>2021-02-20T11:31:04Z</time>
      </trkpt>
      <trkpt lat="45.17106" lon="5.9526">
        <ele>2637.6</ele>
        <time>2021-02-20T11:31:05Z</time>
      </trkpt>
      <trkpt lat="45.17106" lon="5.95261">
        <ele>2637.6</ele>
        <time>2021-02-20T11:31:06Z</time>
      </trkpt>
      <trkpt lat="45.17106" lon="5.95261">
        <ele>2637.3</ele>
        <time>2021-02-20T11:31:07Z</time>
      </trkpt>
      <trkpt lat="45.17106" lon="5.95261">
        <ele>2637.6</ele>
        <time>2021-02-20T11:31:08Z</time>
      </trkpt>
      <trkpt lat="45.17106" lon="5.95262">
        <ele>2637.4</ele>
        <time>2021-02-20T11:31:09Z</time>
      </trkpt>
      <trkpt lat="45.17106" lon="5.95262">
        <ele>2637.4</ele>
        <time>2021-02-20T11:31:10Z</time>
      </trkpt>
      <trkpt lat="45.17107" lon="5.95263">
        <ele>2637.4</ele>
        <time>2021-02-20T11:31:11Z</time>
      </trkpt>
      <trkpt lat="45.17107" lon="5.95263">
        <ele>2637.4</ele>
        <time>2021-02-20T11:31:12Z</time>
      </trkpt>
      <trkpt lat="45.17108" lon="5.95264">
        <ele>2637.4</ele>
        <time>2021-02-20T11:31:13Z</time>
      </trkpt>
      <trkpt lat="45.17108" lon="5.95265">
        <ele>2637.4</ele>
        <time>2021-02-20T11:31:14Z</time>
      </trkpt>
      <trkpt lat="45.17108" lon="5.95265">
        <ele>2637.4</ele>
        <time>2021-02-20T11:31:15Z</time>
      </trkpt>
      <trkpt lat="45.17109" lon="5.95265">
        <ele>2637.4</ele>
        <time>2021-02-20T11:31:16Z</time>
      </trkpt>
      <trkpt lat="45.17109" lon="5.95265">
        <ele>2637.4</ele>
        <time>2021-02-20T11:31:17Z</time>
      </trkpt>
      <trkpt lat="45.1711" lon="5.95265">
        <ele>2637.4</ele>
        <time>2021-02-20T11:31:18Z</time>
      </trkpt>
      <trkpt lat="45.1711" lon="5.95265">
        <ele>2637.4</ele>
        <time>2021-02-20T11:31:19Z</time>
      </trkpt>
      <trkpt lat="45.1711" lon="5.95265">
        <ele>2637.4</ele>
        <time>2021-02-20T11:31:20Z</time>
      </trkpt>
      <trkpt lat="45.1711" lon="5.95265">
        <ele>2637.4</ele>
        <time>2021-02-20T11:31:21Z</time>
      </trkpt>
      <trkpt lat="45.1711" lon="5.95265">
        <ele>2637.4</ele>
        <time>2021-02-20T11:31:22Z</time>
      </trkpt>
      <trkpt lat="45.17111" lon="5.95266">
        <ele>2637.4</ele>
        <time>2021-02-20T11:31:23Z</time>
      </trkpt>
      <trkpt lat="45.17111" lon="5.95266">
        <ele>2637.3</ele>
        <time>2021-02-20T11:31:24Z</time>
      </trkpt>
      <trkpt lat="45.17111" lon="5.95266">
        <ele>2637.3</ele>
        <time>2021-02-20T11:31:25Z</time>
      </trkpt>
      <trkpt lat="45.17112" lon="5.95267">
        <ele>2637.1</ele>
        <time>2021-02-20T11:31:26Z</time>
      </trkpt>
      <trkpt lat="45.17112" lon="5.95267">
        <ele>2637.1</ele>
        <time>2021-02-20T11:31:27Z</time>
      </trkpt>
      <trkpt lat="45.17112" lon="5.95267">
        <ele>2637.1</ele>
        <time>2021-02-20T11:31:28Z</time>
      </trkpt>
      <trkpt lat="45.17112" lon="5.95267">
        <ele>2637.1</ele>
        <time>2021-02-20T11:31:29Z</time>
      </trkpt>
      <trkpt lat="45.17112" lon="5.95267">
        <ele>2637.1</ele>
        <time>2021-02-20T11:31:30Z</time>
      </trkpt>
      <trkpt lat="45.17113" lon="5.95267">
        <ele>2637.1</ele>
        <time>2021-02-20T11:31:31Z</time>
      </trkpt>
      <trkpt lat="45.17113" lon="5.95268">
        <ele>2637.1</ele>
        <time>2021-02-20T11:31:32Z</time>
      </trkpt>
      <trkpt lat="45.17113" lon="5.95268">
        <ele>2637.1</ele>
        <time>2021-02-20T11:31:33Z</time>
      </trkpt>
      <trkpt lat="45.17113" lon="5.95269">
        <ele>2637.1</ele>
        <time>2021-02-20T11:31:34Z</time>
      </trkpt>
      <trkpt lat="45.17113" lon="5.95269">
        <ele>2637.1</ele>
        <time>2021-02-20T11:31:35Z</time>
      </trkpt>
      <trkpt lat="45.17113" lon="5.95269">
        <ele>2637.1</ele>
        <time>2021-02-20T11:31:36Z</time>
      </trkpt>
      <trkpt lat="45.17113" lon="5.95269">
        <ele>2637.1</ele>
        <time>2021-02-20T11:31:37Z</time>
      </trkpt>
      <trkpt lat="45.17113" lon="5.95269">
        <ele>2637.1</ele>
        <time>2021-02-20T11:31:38Z</time>
      </trkpt>
      <trkpt lat="45.17113" lon="5.95269">
        <ele>2637.1</ele>
        <time>2021-02-20T11:31:39Z</time>
      </trkpt>
      <trkpt lat="45.17113" lon="5.95269">
        <ele>2637.1</ele>
        <time>2021-02-20T11:31:40Z</time>
      </trkpt>
      <trkpt lat="45.17113" lon="5.95269">
        <ele>2637.1</ele>
        <time>2021-02-20T11:31:41Z</time>
      </trkpt>
      <trkpt lat="45.17114" lon="5.95271">
        <ele>2636.9</ele>
        <time>2021-02-20T11:31:42Z</time>
      </trkpt>
      <trkpt lat="45.17114" lon="5.95271">
        <ele>2636.9</ele>
        <time>2021-02-20T11:31:43Z</time>
      </trkpt>
      <trkpt lat="45.17114" lon="5.95271">
        <ele>2636.9</ele>
        <time>2021-02-20T11:31:44Z</time>
      </trkpt>
      <trkpt lat="45.17114" lon="5.95271">
        <ele>2636.9</ele>
        <time>2021-02-20T11:31:45Z</time>
      </trkpt>
      <trkpt lat="45.17114" lon="5.95271">
        <ele>2636.9</ele>
        <time>2021-02-20T11:31:46Z</time>
      </trkpt>
      <trkpt lat="45.17114" lon="5.95271">
        <ele>2636.9</ele>
        <time>2021-02-20T11:31:47Z</time>
      </trkpt>
      <trkpt lat="45.17114" lon="5.95271">
        <ele>2636.9</ele>
        <time>2021-02-20T11:31:48Z</time>
      </trkpt>
      <trkpt lat="45.17114" lon="5.95271">
        <ele>2636.9</ele>
        <time>2021-02-20T11:31:49Z</time>
      </trkpt>
      <trkpt lat="45.17114" lon="5.95271">
        <ele>2636.9</ele>
        <time>2021-02-20T11:31:50Z</time>
      </trkpt>
      <trkpt lat="45.17114" lon="5.95271">
        <ele>2636.9</ele>
        <time>2021-02-20T11:31:51Z</time>
      </trkpt>
      <trkpt lat="45.17114" lon="5.95271">
        <ele>2636.9</ele>
        <time>2021-02-20T11:31:52Z</time>
      </trkpt>
      <trkpt lat="45.17115" lon="5.95271">
        <ele>2636.9</ele>
        <time>2021-02-20T11:31:53Z</time>
      </trkpt>
      <trkpt lat="45.17115" lon="5.95271">
        <ele>2636.9</ele>
        <time>2021-02-20T11:31:54Z</time>
      </trkpt>
      <trkpt lat="45.17115" lon="5.95271">
        <ele>2636.9</ele>
        <time>2021-02-20T11:31:55Z</time>
      </trkpt>
      <trkpt lat="45.17114" lon="5.95272">
        <ele>2636.9</ele>
        <time>2021-02-20T11:31:56Z</time>
      </trkpt>
      <trkpt lat="45.17114" lon="5.95272">
        <ele>2636.9</ele>
        <time>2021-02-20T11:31:57Z</time>
      </trkpt>
      <trkpt lat="45.17114" lon="5.95272">
        <ele>2636.9</ele>
        <time>2021-02-20T11:31:58Z</time>
      </trkpt>
      <trkpt lat="45.17114" lon="5.95272">
        <ele>2636.9</ele>
        <time>2021-02-20T11:31:59Z</time>
      </trkpt>
      <trkpt lat="45.17114" lon="5.95272">
        <ele>2636.9</ele>
        <time>2021-02-20T11:32:00Z</time>
      </trkpt>
      <trkpt lat="45.17114" lon="5.95272">
        <ele>2636.9</ele>
        <time>2021-02-20T11:32:01Z</time>
      </trkpt>
      <trkpt lat="45.17114" lon="5.95272">
        <ele>2636.9</ele>
        <time>2021-02-20T11:32:02Z</time>
      </trkpt>
      <trkpt lat="45.17114" lon="5.95273">
        <ele>2636.9</ele>
        <time>2021-02-20T11:32:03Z</time>
      </trkpt>
      <trkpt lat="45.17114" lon="5.95273">
        <ele>2636.9</ele>
        <time>2021-02-20T11:32:04Z</time>
      </trkpt>
      <trkpt lat="45.17114" lon="5.95274">
        <ele>2636.9</ele>
        <time>2021-02-20T11:32:05Z</time>
      </trkpt>
      <trkpt lat="45.17114" lon="5.95274">
        <ele>2636.9</ele>
        <time>2021-02-20T11:32:06Z</time>
      </trkpt>
      <trkpt lat="45.17114" lon="5.95274">
        <ele>2636.9</ele>
        <time>2021-02-20T11:32:07Z</time>
      </trkpt>
      <trkpt lat="45.17114" lon="5.95274">
        <ele>2636.9</ele>
        <time>2021-02-20T11:32:08Z</time>
      </trkpt>
      <trkpt lat="45.17115" lon="5.95275">
        <ele>2636.5</ele>
        <time>2021-02-20T11:32:09Z</time>
      </trkpt>
      <trkpt lat="45.17115" lon="5.95275">
        <ele>2636.5</ele>
        <time>2021-02-20T11:32:10Z</time>
      </trkpt>
      <trkpt lat="45.17115" lon="5.95275">
        <ele>2636.5</ele>
        <time>2021-02-20T11:32:11Z</time>
      </trkpt>
      <trkpt lat="45.17115" lon="5.95275">
        <ele>2636.5</ele>
        <time>2021-02-20T11:32:12Z</time>
      </trkpt>
      <trkpt lat="45.17116" lon="5.95275">
        <ele>2636.5</ele>
        <time>2021-02-20T11:32:13Z</time>
      </trkpt>
      <trkpt lat="45.17116" lon="5.95276">
        <ele>2636.5</ele>
        <time>2021-02-20T11:32:14Z</time>
      </trkpt>
      <trkpt lat="45.17116" lon="5.95276">
        <ele>2636.5</ele>
        <time>2021-02-20T11:32:15Z</time>
      </trkpt>
      <trkpt lat="45.17116" lon="5.95276">
        <ele>2636.5</ele>
        <time>2021-02-20T11:32:16Z</time>
      </trkpt>
      <trkpt lat="45.17117" lon="5.95276">
        <ele>2636.5</ele>
        <time>2021-02-20T11:32:17Z</time>
      </trkpt>
      <trkpt lat="45.17117" lon="5.95276">
        <ele>2636.5</ele>
        <time>2021-02-20T11:32:18Z</time>
      </trkpt>
      <trkpt lat="45.17117" lon="5.95276">
        <ele>2636.5</ele>
        <time>2021-02-20T11:32:19Z</time>
      </trkpt>
      <trkpt lat="45.17117" lon="5.95276">
        <ele>2636.5</ele>
        <time>2021-02-20T11:32:20Z</time>
      </trkpt>
      <trkpt lat="45.17117" lon="5.95276">
        <ele>2636.5</ele>
        <time>2021-02-20T11:32:21Z</time>
      </trkpt>
      <trkpt lat="45.17117" lon="5.95276">
        <ele>2636.5</ele>
        <time>2021-02-20T11:32:22Z</time>
      </trkpt>
      <trkpt lat="45.17117" lon="5.95276">
        <ele>2636.5</ele>
        <time>2021-02-20T11:32:23Z</time>
      </trkpt>
      <trkpt lat="45.17117" lon="5.95276">
        <ele>2636.5</ele>
        <time>2021-02-20T11:32:24Z</time>
      </trkpt>
      <trkpt lat="45.17117" lon="5.95276">
        <ele>2636.5</ele>
        <time>2021-02-20T11:32:25Z</time>
      </trkpt>
      <trkpt lat="45.17117" lon="5.95276">
        <ele>2636.5</ele>
        <time>2021-02-20T11:32:26Z</time>
      </trkpt>
      <trkpt lat="45.17117" lon="5.95276">
        <ele>2636.5</ele>
        <time>2021-02-20T11:32:27Z</time>
      </trkpt>
      <trkpt lat="45.17117" lon="5.95276">
        <ele>2636.5</ele>
        <time>2021-02-20T11:32:28Z</time>
      </trkpt>
      <trkpt lat="45.17117" lon="5.95276">
        <ele>2636.5</ele>
        <time>2021-02-20T11:32:29Z</time>
      </trkpt>
      <trkpt lat="45.17117" lon="5.95276">
        <ele>2636.5</ele>
        <time>2021-02-20T11:32:30Z</time>
      </trkpt>
      <trkpt lat="45.17117" lon="5.95276">
        <ele>2636.5</ele>
        <time>2021-02-20T11:32:31Z</time>
      </trkpt>
      <trkpt lat="45.17117" lon="5.95276">
        <ele>2636.5</ele>
        <time>2021-02-20T11:32:32Z</time>
      </trkpt>
      <trkpt lat="45.17117" lon="5.95275">
        <ele>2636.5</ele>
        <time>2021-02-20T11:32:33Z</time>
      </trkpt>
      <trkpt lat="45.17117" lon="5.95276">
        <ele>2636.5</ele>
        <time>2021-02-20T11:32:34Z</time>
      </trkpt>
      <trkpt lat="45.17117" lon="5.95277">
        <ele>2636.5</ele>
        <time>2021-02-20T11:32:35Z</time>
      </trkpt>
      <trkpt lat="45.17117" lon="5.95279">
        <ele>2636.5</ele>
        <time>2021-02-20T11:32:36Z</time>
      </trkpt>
      <trkpt lat="45.17117" lon="5.95279">
        <ele>2636.3</ele>
        <time>2021-02-20T11:32:37Z</time>
      </trkpt>
      <trkpt lat="45.17117" lon="5.95279">
        <ele>2636.3</ele>
        <time>2021-02-20T11:32:38Z</time>
      </trkpt>
      <trkpt lat="45.17117" lon="5.95279">
        <ele>2636.3</ele>
        <time>2021-02-20T11:32:39Z</time>
      </trkpt>
      <trkpt lat="45.17117" lon="5.95279">
        <ele>2636.3</ele>
        <time>2021-02-20T11:32:40Z</time>
      </trkpt>
      <trkpt lat="45.17117" lon="5.95279">
        <ele>2636.3</ele>
        <time>2021-02-20T11:32:41Z</time>
      </trkpt>
      <trkpt lat="45.17117" lon="5.95279">
        <ele>2636.3</ele>
        <time>2021-02-20T11:32:42Z</time>
      </trkpt>
      <trkpt lat="45.17117" lon="5.95279">
        <ele>2636.3</ele>
        <time>2021-02-20T11:32:43Z</time>
      </trkpt>
      <trkpt lat="45.17117" lon="5.95279">
        <ele>2636.3</ele>
        <time>2021-02-20T11:32:44Z</time>
      </trkpt>
      <trkpt lat="45.17117" lon="5.95279">
        <ele>2636.3</ele>
        <time>2021-02-20T11:32:45Z</time>
      </trkpt>
      <trkpt lat="45.17117" lon="5.95279">
        <ele>2636.3</ele>
        <time>2021-02-20T11:32:46Z</time>
      </trkpt>
      <trkpt lat="45.17117" lon="5.95279">
        <ele>2636.3</ele>
        <time>2021-02-20T11:32:47Z</time>
      </trkpt>
      <trkpt lat="45.17117" lon="5.95279">
        <ele>2636.3</ele>
        <time>2021-02-20T11:32:48Z</time>
      </trkpt>
      <trkpt lat="45.17117" lon="5.95279">
        <ele>2636.3</ele>
        <time>2021-02-20T11:32:49Z</time>
      </trkpt>
      <trkpt lat="45.17117" lon="5.95279">
        <ele>2636.3</ele>
        <time>2021-02-20T11:32:50Z</time>
      </trkpt>
      <trkpt lat="45.17117" lon="5.95279">
        <ele>2636.3</ele>
        <time>2021-02-20T11:32:51Z</time>
      </trkpt>
      <trkpt lat="45.17117" lon="5.95279">
        <ele>2636.3</ele>
        <time>2021-02-20T11:32:52Z</time>
      </trkpt>
      <trkpt lat="45.17117" lon="5.95279">
        <ele>2636.3</ele>
        <time>2021-02-20T11:32:53Z</time>
      </trkpt>
      <trkpt lat="45.17117" lon="5.95283">
        <ele>2636.2</ele>
        <time>2021-02-20T11:32:54Z</time>
      </trkpt>
      <trkpt lat="45.17117" lon="5.95284">
        <ele>2636.2</ele>
        <time>2021-02-20T11:32:55Z</time>
      </trkpt>
      <trkpt lat="45.17117" lon="5.95285">
        <ele>2636.2</ele>
        <time>2021-02-20T11:32:56Z</time>
      </trkpt>
      <trkpt lat="45.17117" lon="5.95285">
        <ele>2636.2</ele>
        <time>2021-02-20T11:32:57Z</time>
      </trkpt>
      <trkpt lat="45.17117" lon="5.95285">
        <ele>2636.2</ele>
        <time>2021-02-20T11:32:58Z</time>
      </trkpt>
      <trkpt lat="45.17117" lon="5.95285">
        <ele>2636.2</ele>
        <time>2021-02-20T11:32:59Z</time>
      </trkpt>
      <trkpt lat="45.17117" lon="5.95285">
        <ele>2636.2</ele>
        <time>2021-02-20T11:33:00Z</time>
      </trkpt>
      <trkpt lat="45.17117" lon="5.95285">
        <ele>2636.2</ele>
        <time>2021-02-20T11:33:01Z</time>
      </trkpt>
      <trkpt lat="45.17117" lon="5.95288">
        <ele>2636.1</ele>
        <time>2021-02-20T11:33:02Z</time>
      </trkpt>
      <trkpt lat="45.17117" lon="5.95289">
        <ele>2636.1</ele>
        <time>2021-02-20T11:33:03Z</time>
      </trkpt>
      <trkpt lat="45.17117" lon="5.9529">
        <ele>2636.1</ele>
        <time>2021-02-20T11:33:04Z</time>
      </trkpt>
      <trkpt lat="45.17116" lon="5.95291">
        <ele>2636.1</ele>
        <time>2021-02-20T11:33:05Z</time>
      </trkpt>
      <trkpt lat="45.17116" lon="5.95291">
        <ele>2636.1</ele>
        <time>2021-02-20T11:33:06Z</time>
      </trkpt>
      <trkpt lat="45.17115" lon="5.95291">
        <ele>2636.1</ele>
        <time>2021-02-20T11:33:07Z</time>
      </trkpt>
      <trkpt lat="45.17115" lon="5.95292">
        <ele>2636.1</ele>
        <time>2021-02-20T11:33:08Z</time>
      </trkpt>
      <trkpt lat="45.17115" lon="5.95292">
        <ele>2636.1</ele>
        <time>2021-02-20T11:33:09Z</time>
      </trkpt>
      <trkpt lat="45.17114" lon="5.95293">
        <ele>2636.5</ele>
        <time>2021-02-20T11:33:10Z</time>
      </trkpt>
      <trkpt lat="45.17114" lon="5.95294">
        <ele>2636.5</ele>
        <time>2021-02-20T11:33:11Z</time>
      </trkpt>
      <trkpt lat="45.17114" lon="5.95295">
        <ele>2636.5</ele>
        <time>2021-02-20T11:33:12Z</time>
      </trkpt>
      <trkpt lat="45.17113" lon="5.95296">
        <ele>2636.5</ele>
        <time>2021-02-20T11:33:13Z</time>
      </trkpt>
      <trkpt lat="45.17113" lon="5.95297">
        <ele>2636.6</ele>
        <time>2021-02-20T11:33:14Z</time>
      </trkpt>
      <trkpt lat="45.17112" lon="5.95299">
        <ele>2636.6</ele>
        <time>2021-02-20T11:33:15Z</time>
      </trkpt>
      <trkpt lat="45.17112" lon="5.953">
        <ele>2636.6</ele>
        <time>2021-02-20T11:33:16Z</time>
      </trkpt>
      <trkpt lat="45.17112" lon="5.95301">
        <ele>2636.7</ele>
        <time>2021-02-20T11:33:17Z</time>
      </trkpt>
      <trkpt lat="45.17112" lon="5.95301">
        <ele>2636.7</ele>
        <time>2021-02-20T11:33:18Z</time>
      </trkpt>
      <trkpt lat="45.17112" lon="5.95301">
        <ele>2636.7</ele>
        <time>2021-02-20T11:33:19Z</time>
      </trkpt>
      <trkpt lat="45.17111" lon="5.95302">
        <ele>2637.1</ele>
        <time>2021-02-20T11:33:20Z</time>
      </trkpt>
      <trkpt lat="45.17111" lon="5.95303">
        <ele>2637.1</ele>
        <time>2021-02-20T11:33:21Z</time>
      </trkpt>
      <trkpt lat="45.17111" lon="5.95304">
        <ele>2637.1</ele>
        <time>2021-02-20T11:33:22Z</time>
      </trkpt>
      <trkpt lat="45.17111" lon="5.95304">
        <ele>2637.1</ele>
        <time>2021-02-20T11:33:23Z</time>
      </trkpt>
      <trkpt lat="45.17111" lon="5.95305">
        <ele>2637.3</ele>
        <time>2021-02-20T11:33:24Z</time>
      </trkpt>
      <trkpt lat="45.17111" lon="5.95306">
        <ele>2637.3</ele>
        <time>2021-02-20T11:33:25Z</time>
      </trkpt>
      <trkpt lat="45.17111" lon="5.95306">
        <ele>2637.3</ele>
        <time>2021-02-20T11:33:26Z</time>
      </trkpt>
      <trkpt lat="45.17111" lon="5.95306">
        <ele>2637.3</ele>
        <time>2021-02-20T11:33:27Z</time>
      </trkpt>
      <trkpt lat="45.17111" lon="5.95306">
        <ele>2637.3</ele>
        <time>2021-02-20T11:33:28Z</time>
      </trkpt>
      <trkpt lat="45.17111" lon="5.95306">
        <ele>2637.3</ele>
        <time>2021-02-20T11:33:29Z</time>
      </trkpt>
      <trkpt lat="45.17111" lon="5.95305">
        <ele>2637.3</ele>
        <time>2021-02-20T11:33:30Z</time>
      </trkpt>
      <trkpt lat="45.1711" lon="5.95305">
        <ele>2637.3</ele>
        <time>2021-02-20T11:33:31Z</time>
      </trkpt>
      <trkpt lat="45.1711" lon="5.95305">
        <ele>2637.3</ele>
        <time>2021-02-20T11:33:32Z</time>
      </trkpt>
      <trkpt lat="45.1711" lon="5.95306">
        <ele>2637.3</ele>
        <time>2021-02-20T11:33:33Z</time>
      </trkpt>
      <trkpt lat="45.1711" lon="5.95306">
        <ele>2637.3</ele>
        <time>2021-02-20T11:33:34Z</time>
      </trkpt>
      <trkpt lat="45.1711" lon="5.95306">
        <ele>2637.3</ele>
        <time>2021-02-20T11:33:35Z</time>
      </trkpt>
      <trkpt lat="45.1711" lon="5.95306">
        <ele>2637.3</ele>
        <time>2021-02-20T11:33:36Z</time>
      </trkpt>
      <trkpt lat="45.1711" lon="5.95306">
        <ele>2637.3</ele>
        <time>2021-02-20T11:33:37Z</time>
      </trkpt>
      <trkpt lat="45.1711" lon="5.95306">
        <ele>2637.3</ele>
        <time>2021-02-20T11:33:38Z</time>
      </trkpt>
      <trkpt lat="45.1711" lon="5.95306">
        <ele>2637.3</ele>
        <time>2021-02-20T11:33:39Z</time>
      </trkpt>
      <trkpt lat="45.17112" lon="5.95307">
        <ele>2637.3</ele>
        <time>2021-02-20T11:33:40Z</time>
      </trkpt>
      <trkpt lat="45.17112" lon="5.95307">
        <ele>2636.9</ele>
        <time>2021-02-20T11:33:41Z</time>
      </trkpt>
      <trkpt lat="45.17112" lon="5.95308">
        <ele>2636.9</ele>
        <time>2021-02-20T11:33:42Z</time>
      </trkpt>
      <trkpt lat="45.17112" lon="5.95308">
        <ele>2636.9</ele>
        <time>2021-02-20T11:33:43Z</time>
      </trkpt>
      <trkpt lat="45.17112" lon="5.95308">
        <ele>2636.9</ele>
        <time>2021-02-20T11:33:44Z</time>
      </trkpt>
      <trkpt lat="45.17112" lon="5.95308">
        <ele>2636.9</ele>
        <time>2021-02-20T11:33:45Z</time>
      </trkpt>
      <trkpt lat="45.17112" lon="5.95308">
        <ele>2636.9</ele>
        <time>2021-02-20T11:33:46Z</time>
      </trkpt>
      <trkpt lat="45.17112" lon="5.95308">
        <ele>2636.9</ele>
        <time>2021-02-20T11:33:47Z</time>
      </trkpt>
      <trkpt lat="45.17112" lon="5.95308">
        <ele>2636.9</ele>
        <time>2021-02-20T11:33:48Z</time>
      </trkpt>
      <trkpt lat="45.17112" lon="5.95308">
        <ele>2636.9</ele>
        <time>2021-02-20T11:33:49Z</time>
      </trkpt>
      <trkpt lat="45.17112" lon="5.95308">
        <ele>2636.9</ele>
        <time>2021-02-20T11:33:50Z</time>
      </trkpt>
      <trkpt lat="45.17112" lon="5.95308">
        <ele>2636.9</ele>
        <time>2021-02-20T11:33:51Z</time>
      </trkpt>
      <trkpt lat="45.17112" lon="5.95308">
        <ele>2636.9</ele>
        <time>2021-02-20T11:33:52Z</time>
      </trkpt>
      <trkpt lat="45.17113" lon="5.95304">
        <ele>2636.7</ele>
        <time>2021-02-20T11:33:53Z</time>
      </trkpt>
      <trkpt lat="45.17113" lon="5.95304">
        <ele>2636.7</ele>
        <time>2021-02-20T11:33:54Z</time>
      </trkpt>
      <trkpt lat="45.17113" lon="5.95305">
        <ele>2636.9</ele>
        <time>2021-02-20T11:33:55Z</time>
      </trkpt>
      <trkpt lat="45.17112" lon="5.95305">
        <ele>2636.9</ele>
        <time>2021-02-20T11:33:56Z</time>
      </trkpt>
      <trkpt lat="45.17112" lon="5.95305">
        <ele>2636.9</ele>
        <time>2021-02-20T11:33:57Z</time>
      </trkpt>
      <trkpt lat="45.17112" lon="5.95306">
        <ele>2636.9</ele>
        <time>2021-02-20T11:33:58Z</time>
      </trkpt>
      <trkpt lat="45.17112" lon="5.95307">
        <ele>2636.9</ele>
        <time>2021-02-20T11:33:59Z</time>
      </trkpt>
      <trkpt lat="45.17112" lon="5.95307">
        <ele>2636.9</ele>
        <time>2021-02-20T11:34:00Z</time>
      </trkpt>
      <trkpt lat="45.17112" lon="5.95307">
        <ele>2636.9</ele>
        <time>2021-02-20T11:34:01Z</time>
      </trkpt>
      <trkpt lat="45.17111" lon="5.95308">
        <ele>2637.3</ele>
        <time>2021-02-20T11:34:02Z</time>
      </trkpt>
      <trkpt lat="45.17111" lon="5.95309">
        <ele>2637.6</ele>
        <time>2021-02-20T11:34:03Z</time>
      </trkpt>
      <trkpt lat="45.17111" lon="5.95309">
        <ele>2637.6</ele>
        <time>2021-02-20T11:34:04Z</time>
      </trkpt>
      <trkpt lat="45.17112" lon="5.9531">
        <ele>2637.1</ele>
        <time>2021-02-20T11:34:05Z</time>
      </trkpt>
      <trkpt lat="45.17112" lon="5.95311">
        <ele>2637.1</ele>
        <time>2021-02-20T11:34:06Z</time>
      </trkpt>
      <trkpt lat="45.17112" lon="5.95311">
        <ele>2637.1</ele>
        <time>2021-02-20T11:34:07Z</time>
      </trkpt>
      <trkpt lat="45.17112" lon="5.95311">
        <ele>2637.1</ele>
        <time>2021-02-20T11:34:08Z</time>
      </trkpt>
      <trkpt lat="45.17112" lon="5.95312">
        <ele>2637.1</ele>
        <time>2021-02-20T11:34:09Z</time>
      </trkpt>
      <trkpt lat="45.17112" lon="5.95313">
        <ele>2637.1</ele>
        <time>2021-02-20T11:34:10Z</time>
      </trkpt>
      <trkpt lat="45.17112" lon="5.95313">
        <ele>2637.4</ele>
        <time>2021-02-20T11:34:11Z</time>
      </trkpt>
      <trkpt lat="45.17112" lon="5.95314">
        <ele>2637.4</ele>
        <time>2021-02-20T11:34:12Z</time>
      </trkpt>
      <trkpt lat="45.17112" lon="5.95315">
        <ele>2637.4</ele>
        <time>2021-02-20T11:34:13Z</time>
      </trkpt>
      <trkpt lat="45.17112" lon="5.95315">
        <ele>2637.4</ele>
        <time>2021-02-20T11:34:14Z</time>
      </trkpt>
      <trkpt lat="45.17112" lon="5.95316">
        <ele>2637.9</ele>
        <time>2021-02-20T11:34:15Z</time>
      </trkpt>
      <trkpt lat="45.17112" lon="5.95316">
        <ele>2637.9</ele>
        <time>2021-02-20T11:34:16Z</time>
      </trkpt>
      <trkpt lat="45.17112" lon="5.95317">
        <ele>2637.9</ele>
        <time>2021-02-20T11:34:17Z</time>
      </trkpt>
      <trkpt lat="45.17111" lon="5.95318">
        <ele>2638.3</ele>
        <time>2021-02-20T11:34:18Z</time>
      </trkpt>
      <trkpt lat="45.17111" lon="5.95318">
        <ele>2638.3</ele>
        <time>2021-02-20T11:34:19Z</time>
      </trkpt>
      <trkpt lat="45.17111" lon="5.95318">
        <ele>2638.3</ele>
        <time>2021-02-20T11:34:20Z</time>
      </trkpt>
      <trkpt lat="45.17111" lon="5.95318">
        <ele>2638.3</ele>
        <time>2021-02-20T11:34:21Z</time>
      </trkpt>
      <trkpt lat="45.17111" lon="5.95318">
        <ele>2638.3</ele>
        <time>2021-02-20T11:34:22Z</time>
      </trkpt>
      <trkpt lat="45.17112" lon="5.9532">
        <ele>2637.7</ele>
        <time>2021-02-20T11:34:23Z</time>
      </trkpt>
      <trkpt lat="45.17112" lon="5.9532">
        <ele>2637.7</ele>
        <time>2021-02-20T11:34:24Z</time>
      </trkpt>
      <trkpt lat="45.17111" lon="5.9532">
        <ele>2638.3</ele>
        <time>2021-02-20T11:34:25Z</time>
      </trkpt>
      <trkpt lat="45.17111" lon="5.9532">
        <ele>2638.3</ele>
        <time>2021-02-20T11:34:26Z</time>
      </trkpt>
      <trkpt lat="45.17111" lon="5.95319">
        <ele>2638.3</ele>
        <time>2021-02-20T11:34:27Z</time>
      </trkpt>
      <trkpt lat="45.17111" lon="5.95319">
        <ele>2638.3</ele>
        <time>2021-02-20T11:34:28Z</time>
      </trkpt>
      <trkpt lat="45.17111" lon="5.95319">
        <ele>2638.3</ele>
        <time>2021-02-20T11:34:29Z</time>
      </trkpt>
      <trkpt lat="45.17111" lon="5.95319">
        <ele>2638.3</ele>
        <time>2021-02-20T11:34:30Z</time>
      </trkpt>
      <trkpt lat="45.17111" lon="5.95319">
        <ele>2638.3</ele>
        <time>2021-02-20T11:34:31Z</time>
      </trkpt>
      <trkpt lat="45.17111" lon="5.95318">
        <ele>2638.3</ele>
        <time>2021-02-20T11:34:32Z</time>
      </trkpt>
      <trkpt lat="45.17111" lon="5.95318">
        <ele>2638.3</ele>
        <time>2021-02-20T11:34:33Z</time>
      </trkpt>
      <trkpt lat="45.17111" lon="5.95318">
        <ele>2638.3</ele>
        <time>2021-02-20T11:34:34Z</time>
      </trkpt>
      <trkpt lat="45.17111" lon="5.95318">
        <ele>2638.3</ele>
        <time>2021-02-20T11:34:35Z</time>
      </trkpt>
      <trkpt lat="45.17111" lon="5.95318">
        <ele>2638.3</ele>
        <time>2021-02-20T11:34:36Z</time>
      </trkpt>
      <trkpt lat="45.1711" lon="5.95315">
        <ele>2637.9</ele>
        <time>2021-02-20T11:34:37Z</time>
      </trkpt>
      <trkpt lat="45.1711" lon="5.95316">
        <ele>2637.9</ele>
        <time>2021-02-20T11:34:38Z</time>
      </trkpt>
      <trkpt lat="45.1711" lon="5.95316">
        <ele>2637.9</ele>
        <time>2021-02-20T11:34:39Z</time>
      </trkpt>
      <trkpt lat="45.1711" lon="5.95317">
        <ele>2637.9</ele>
        <time>2021-02-20T11:34:40Z</time>
      </trkpt>
      <trkpt lat="45.1711" lon="5.95317">
        <ele>2637.9</ele>
        <time>2021-02-20T11:34:41Z</time>
      </trkpt>
      <trkpt lat="45.1711" lon="5.95318">
        <ele>2638.3</ele>
        <time>2021-02-20T11:34:42Z</time>
      </trkpt>
      <trkpt lat="45.1711" lon="5.95318">
        <ele>2638.3</ele>
        <time>2021-02-20T11:34:43Z</time>
      </trkpt>
      <trkpt lat="45.1711" lon="5.95318">
        <ele>2638.3</ele>
        <time>2021-02-20T11:34:44Z</time>
      </trkpt>
      <trkpt lat="45.1711" lon="5.95319">
        <ele>2638.3</ele>
        <time>2021-02-20T11:34:45Z</time>
      </trkpt>
      <trkpt lat="45.1711" lon="5.95319">
        <ele>2638.3</ele>
        <time>2021-02-20T11:34:46Z</time>
      </trkpt>
      <trkpt lat="45.17111" lon="5.9532">
        <ele>2638.3</ele>
        <time>2021-02-20T11:34:47Z</time>
      </trkpt>
      <trkpt lat="45.17111" lon="5.9532">
        <ele>2638.3</ele>
        <time>2021-02-20T11:34:48Z</time>
      </trkpt>
      <trkpt lat="45.1711" lon="5.95322">
        <ele>2638.6</ele>
        <time>2021-02-20T11:34:49Z</time>
      </trkpt>
      <trkpt lat="45.17109" lon="5.95323">
        <ele>2638.6</ele>
        <time>2021-02-20T11:34:50Z</time>
      </trkpt>
      <trkpt lat="45.17109" lon="5.95324">
        <ele>2638.6</ele>
        <time>2021-02-20T11:34:51Z</time>
      </trkpt>
      <trkpt lat="45.17108" lon="5.95325">
        <ele>2639.1</ele>
        <time>2021-02-20T11:34:52Z</time>
      </trkpt>
      <trkpt lat="45.17108" lon="5.95325">
        <ele>2639.1</ele>
        <time>2021-02-20T11:34:53Z</time>
      </trkpt>
      <trkpt lat="45.17108" lon="5.95325">
        <ele>2639.1</ele>
        <time>2021-02-20T11:34:54Z</time>
      </trkpt>
      <trkpt lat="45.17108" lon="5.95325">
        <ele>2639.1</ele>
        <time>2021-02-20T11:34:55Z</time>
      </trkpt>
      <trkpt lat="45.17107" lon="5.95325">
        <ele>2639.1</ele>
        <time>2021-02-20T11:34:56Z</time>
      </trkpt>
      <trkpt lat="45.17107" lon="5.95325">
        <ele>2639.1</ele>
        <time>2021-02-20T11:34:57Z</time>
      </trkpt>
      <trkpt lat="45.17107" lon="5.95325">
        <ele>2639.1</ele>
        <time>2021-02-20T11:34:58Z</time>
      </trkpt>
      <trkpt lat="45.17107" lon="5.95325">
        <ele>2639.1</ele>
        <time>2021-02-20T11:34:59Z</time>
      </trkpt>
      <trkpt lat="45.17107" lon="5.95325">
        <ele>2639.1</ele>
        <time>2021-02-20T11:35:00Z</time>
      </trkpt>
      <trkpt lat="45.17107" lon="5.95325">
        <ele>2639.1</ele>
        <time>2021-02-20T11:35:01Z</time>
      </trkpt>
      <trkpt lat="45.17107" lon="5.95325">
        <ele>2639.1</ele>
        <time>2021-02-20T11:35:02Z</time>
      </trkpt>
      <trkpt lat="45.17107" lon="5.95325">
        <ele>2639.1</ele>
        <time>2021-02-20T11:35:03Z</time>
      </trkpt>
      <trkpt lat="45.17107" lon="5.95325">
        <ele>2639.1</ele>
        <time>2021-02-20T11:35:04Z</time>
      </trkpt>
      <trkpt lat="45.17107" lon="5.95325">
        <ele>2639.1</ele>
        <time>2021-02-20T11:35:05Z</time>
      </trkpt>
      <trkpt lat="45.17107" lon="5.95325">
        <ele>2639.1</ele>
        <time>2021-02-20T11:35:06Z</time>
      </trkpt>
      <trkpt lat="45.17107" lon="5.95325">
        <ele>2639.1</ele>
        <time>2021-02-20T11:35:07Z</time>
      </trkpt>
      <trkpt lat="45.17107" lon="5.95324">
        <ele>2639.1</ele>
        <time>2021-02-20T11:35:08Z</time>
      </trkpt>
      <trkpt lat="45.17107" lon="5.95324">
        <ele>2639.1</ele>
        <time>2021-02-20T11:35:09Z</time>
      </trkpt>
      <trkpt lat="45.17107" lon="5.95324">
        <ele>2639.1</ele>
        <time>2021-02-20T11:35:10Z</time>
      </trkpt>
      <trkpt lat="45.17107" lon="5.95324">
        <ele>2639.1</ele>
        <time>2021-02-20T11:35:11Z</time>
      </trkpt>
      <trkpt lat="45.17108" lon="5.95324">
        <ele>2639.1</ele>
        <time>2021-02-20T11:35:12Z</time>
      </trkpt>
      <trkpt lat="45.17108" lon="5.95324">
        <ele>2639.1</ele>
        <time>2021-02-20T11:35:13Z</time>
      </trkpt>
      <trkpt lat="45.17108" lon="5.95324">
        <ele>2639.1</ele>
        <time>2021-02-20T11:35:14Z</time>
      </trkpt>
      <trkpt lat="45.17108" lon="5.95324">
        <ele>2639.1</ele>
        <time>2021-02-20T11:35:15Z</time>
      </trkpt>
      <trkpt lat="45.17108" lon="5.95324">
        <ele>2639.1</ele>
        <time>2021-02-20T11:35:16Z</time>
      </trkpt>
      <trkpt lat="45.17108" lon="5.95324">
        <ele>2639.1</ele>
        <time>2021-02-20T11:35:17Z</time>
      </trkpt>
      <trkpt lat="45.17109" lon="5.95324">
        <ele>2638.6</ele>
        <time>2021-02-20T11:35:18Z</time>
      </trkpt>
      <trkpt lat="45.17109" lon="5.95324">
        <ele>2638.6</ele>
        <time>2021-02-20T11:35:19Z</time>
      </trkpt>
      <trkpt lat="45.17109" lon="5.95324">
        <ele>2638.6</ele>
        <time>2021-02-20T11:35:20Z</time>
      </trkpt>
      <trkpt lat="45.17109" lon="5.95324">
        <ele>2638.6</ele>
        <time>2021-02-20T11:35:21Z</time>
      </trkpt>
      <trkpt lat="45.17109" lon="5.95324">
        <ele>2638.6</ele>
        <time>2021-02-20T11:35:22Z</time>
      </trkpt>
      <trkpt lat="45.17109" lon="5.95325">
        <ele>2638.6</ele>
        <time>2021-02-20T11:35:23Z</time>
      </trkpt>
      <trkpt lat="45.17109" lon="5.95325">
        <ele>2638.6</ele>
        <time>2021-02-20T11:35:24Z</time>
      </trkpt>
      <trkpt lat="45.17109" lon="5.95325">
        <ele>2638.6</ele>
        <time>2021-02-20T11:35:25Z</time>
      </trkpt>
      <trkpt lat="45.17109" lon="5.95325">
        <ele>2638.6</ele>
        <time>2021-02-20T11:35:26Z</time>
      </trkpt>
      <trkpt lat="45.17109" lon="5.95325">
        <ele>2638.6</ele>
        <time>2021-02-20T11:35:27Z</time>
      </trkpt>
      <trkpt lat="45.17109" lon="5.95325">
        <ele>2638.6</ele>
        <time>2021-02-20T11:35:28Z</time>
      </trkpt>
      <trkpt lat="45.17109" lon="5.95324">
        <ele>2638.6</ele>
        <time>2021-02-20T11:35:29Z</time>
      </trkpt>
      <trkpt lat="45.17109" lon="5.95325">
        <ele>2639.1</ele>
        <time>2021-02-20T11:35:30Z</time>
      </trkpt>
      <trkpt lat="45.17109" lon="5.95325">
        <ele>2639.1</ele>
        <time>2021-02-20T11:35:31Z</time>
      </trkpt>
      <trkpt lat="45.17109" lon="5.95325">
        <ele>2639.1</ele>
        <time>2021-02-20T11:35:32Z</time>
      </trkpt>
      <trkpt lat="45.17109" lon="5.95325">
        <ele>2639.1</ele>
        <time>2021-02-20T11:35:33Z</time>
      </trkpt>
      <trkpt lat="45.17108" lon="5.95324">
        <ele>2639.1</ele>
        <time>2021-02-20T11:35:34Z</time>
      </trkpt>
      <trkpt lat="45.17107" lon="5.95325">
        <ele>2639.1</ele>
        <time>2021-02-20T11:35:35Z</time>
      </trkpt>
      <trkpt lat="45.17107" lon="5.95325">
        <ele>2639.1</ele>
        <time>2021-02-20T11:35:36Z</time>
      </trkpt>
      <trkpt lat="45.17107" lon="5.95325">
        <ele>2639.1</ele>
        <time>2021-02-20T11:35:37Z</time>
      </trkpt>
      <trkpt lat="45.17107" lon="5.95325">
        <ele>2639.1</ele>
        <time>2021-02-20T11:35:38Z</time>
      </trkpt>
      <trkpt lat="45.17107" lon="5.95325">
        <ele>2639.1</ele>
        <time>2021-02-20T11:35:39Z</time>
      </trkpt>
      <trkpt lat="45.17107" lon="5.95325">
        <ele>2639.1</ele>
        <time>2021-02-20T11:35:40Z</time>
      </trkpt>
      <trkpt lat="45.17107" lon="5.95325">
        <ele>2639.1</ele>
        <time>2021-02-20T11:35:41Z</time>
      </trkpt>
      <trkpt lat="45.17107" lon="5.95325">
        <ele>2639.1</ele>
        <time>2021-02-20T11:35:42Z</time>
      </trkpt>
      <trkpt lat="45.17107" lon="5.95325">
        <ele>2639.1</ele>
        <time>2021-02-20T11:35:43Z</time>
      </trkpt>
      <trkpt lat="45.17107" lon="5.95325">
        <ele>2639.1</ele>
        <time>2021-02-20T11:35:44Z</time>
      </trkpt>
      <trkpt lat="45.17107" lon="5.95325">
        <ele>2639.1</ele>
        <time>2021-02-20T11:35:45Z</time>
      </trkpt>
      <trkpt lat="45.17107" lon="5.95325">
        <ele>2639.1</ele>
        <time>2021-02-20T11:35:46Z</time>
      </trkpt>
      <trkpt lat="45.17107" lon="5.95325">
        <ele>2639.1</ele>
        <time>2021-02-20T11:35:47Z</time>
      </trkpt>
      <trkpt lat="45.17107" lon="5.95325">
        <ele>2639.1</ele>
        <time>2021-02-20T11:35:48Z</time>
      </trkpt>
      <trkpt lat="45.17107" lon="5.95325">
        <ele>2639.1</ele>
        <time>2021-02-20T11:35:49Z</time>
      </trkpt>
      <trkpt lat="45.17107" lon="5.95325">
        <ele>2639.1</ele>
        <time>2021-02-20T11:35:50Z</time>
      </trkpt>
      <trkpt lat="45.17107" lon="5.95325">
        <ele>2639.1</ele>
        <time>2021-02-20T11:35:51Z</time>
      </trkpt>
      <trkpt lat="45.17107" lon="5.95324">
        <ele>2639.1</ele>
        <time>2021-02-20T11:35:52Z</time>
      </trkpt>
      <trkpt lat="45.17107" lon="5.95325">
        <ele>2639.1</ele>
        <time>2021-02-20T11:35:53Z</time>
      </trkpt>
      <trkpt lat="45.17107" lon="5.95325">
        <ele>2639.1</ele>
        <time>2021-02-20T11:35:54Z</time>
      </trkpt>
      <trkpt lat="45.17107" lon="5.95326">
        <ele>2639.5</ele>
        <time>2021-02-20T11:35:55Z</time>
      </trkpt>
      <trkpt lat="45.17107" lon="5.95326">
        <ele>2639.5</ele>
        <time>2021-02-20T11:35:56Z</time>
      </trkpt>
      <trkpt lat="45.17107" lon="5.95326">
        <ele>2639.5</ele>
        <time>2021-02-20T11:35:57Z</time>
      </trkpt>
      <trkpt lat="45.17107" lon="5.95326">
        <ele>2639.5</ele>
        <time>2021-02-20T11:35:58Z</time>
      </trkpt>
      <trkpt lat="45.17107" lon="5.95326">
        <ele>2639.5</ele>
        <time>2021-02-20T11:35:59Z</time>
      </trkpt>
      <trkpt lat="45.17107" lon="5.95326">
        <ele>2639.5</ele>
        <time>2021-02-20T11:36:00Z</time>
      </trkpt>
      <trkpt lat="45.17107" lon="5.95327">
        <ele>2639.5</ele>
        <time>2021-02-20T11:36:01Z</time>
      </trkpt>
      <trkpt lat="45.17107" lon="5.95327">
        <ele>2639.5</ele>
        <time>2021-02-20T11:36:02Z</time>
      </trkpt>
      <trkpt lat="45.17107" lon="5.95327">
        <ele>2639.5</ele>
        <time>2021-02-20T11:36:03Z</time>
      </trkpt>
      <trkpt lat="45.17108" lon="5.95327">
        <ele>2639.5</ele>
        <time>2021-02-20T11:36:04Z</time>
      </trkpt>
      <trkpt lat="45.17108" lon="5.95327">
        <ele>2639.5</ele>
        <time>2021-02-20T11:36:05Z</time>
      </trkpt>
      <trkpt lat="45.17108" lon="5.95327">
        <ele>2639.5</ele>
        <time>2021-02-20T11:36:06Z</time>
      </trkpt>
      <trkpt lat="45.17109" lon="5.95327">
        <ele>2639</ele>
        <time>2021-02-20T11:36:07Z</time>
      </trkpt>
      <trkpt lat="45.17109" lon="5.95327">
        <ele>2639</ele>
        <time>2021-02-20T11:36:08Z</time>
      </trkpt>
      <trkpt lat="45.17109" lon="5.95327">
        <ele>2639</ele>
        <time>2021-02-20T11:36:09Z</time>
      </trkpt>
      <trkpt lat="45.1711" lon="5.95327">
        <ele>2639</ele>
        <time>2021-02-20T11:36:10Z</time>
      </trkpt>
      <trkpt lat="45.1711" lon="5.95327">
        <ele>2639</ele>
        <time>2021-02-20T11:36:11Z</time>
      </trkpt>
      <trkpt lat="45.1711" lon="5.95327">
        <ele>2639</ele>
        <time>2021-02-20T11:36:12Z</time>
      </trkpt>
      <trkpt lat="45.1711" lon="5.95327">
        <ele>2639</ele>
        <time>2021-02-20T11:36:13Z</time>
      </trkpt>
      <trkpt lat="45.1711" lon="5.95326">
        <ele>2639</ele>
        <time>2021-02-20T11:36:14Z</time>
      </trkpt>
      <trkpt lat="45.1711" lon="5.95327">
        <ele>2639</ele>
        <time>2021-02-20T11:36:15Z</time>
      </trkpt>
      <trkpt lat="45.1711" lon="5.95328">
        <ele>2639</ele>
        <time>2021-02-20T11:36:16Z</time>
      </trkpt>
      <trkpt lat="45.1711" lon="5.95328">
        <ele>2639</ele>
        <time>2021-02-20T11:36:17Z</time>
      </trkpt>
      <trkpt lat="45.1711" lon="5.95328">
        <ele>2639</ele>
        <time>2021-02-20T11:36:18Z</time>
      </trkpt>
      <trkpt lat="45.1711" lon="5.95329">
        <ele>2639</ele>
        <time>2021-02-20T11:36:19Z</time>
      </trkpt>
      <trkpt lat="45.1711" lon="5.95329">
        <ele>2639</ele>
        <time>2021-02-20T11:36:20Z</time>
      </trkpt>
      <trkpt lat="45.1711" lon="5.95329">
        <ele>2639</ele>
        <time>2021-02-20T11:36:21Z</time>
      </trkpt>
      <trkpt lat="45.1711" lon="5.95329">
        <ele>2639</ele>
        <time>2021-02-20T11:36:22Z</time>
      </trkpt>
      <trkpt lat="45.17109" lon="5.95331">
        <ele>2639.4</ele>
        <time>2021-02-20T11:36:23Z</time>
      </trkpt>
      <trkpt lat="45.17109" lon="5.9533">
        <ele>2639.4</ele>
        <time>2021-02-20T11:36:24Z</time>
      </trkpt>
      <trkpt lat="45.17109" lon="5.9533">
        <ele>2639</ele>
        <time>2021-02-20T11:36:25Z</time>
      </trkpt>
      <trkpt lat="45.17109" lon="5.95329">
        <ele>2639</ele>
        <time>2021-02-20T11:36:26Z</time>
      </trkpt>
      <trkpt lat="45.17109" lon="5.95328">
        <ele>2639</ele>
        <time>2021-02-20T11:36:27Z</time>
      </trkpt>
      <trkpt lat="45.1711" lon="5.95328">
        <ele>2639</ele>
        <time>2021-02-20T11:36:28Z</time>
      </trkpt>
      <trkpt lat="45.1711" lon="5.95328">
        <ele>2639</ele>
        <time>2021-02-20T11:36:29Z</time>
      </trkpt>
      <trkpt lat="45.1711" lon="5.95328">
        <ele>2639</ele>
        <time>2021-02-20T11:36:30Z</time>
      </trkpt>
      <trkpt lat="45.1711" lon="5.95328">
        <ele>2639</ele>
        <time>2021-02-20T11:36:31Z</time>
      </trkpt>
      <trkpt lat="45.1711" lon="5.95327">
        <ele>2639</ele>
        <time>2021-02-20T11:36:32Z</time>
      </trkpt>
      <trkpt lat="45.1711" lon="5.95327">
        <ele>2639</ele>
        <time>2021-02-20T11:36:33Z</time>
      </trkpt>
      <trkpt lat="45.1711" lon="5.95326">
        <ele>2638.6</ele>
        <time>2021-02-20T11:36:34Z</time>
      </trkpt>
      <trkpt lat="45.1711" lon="5.95325">
        <ele>2638.6</ele>
        <time>2021-02-20T11:36:35Z</time>
      </trkpt>
      <trkpt lat="45.1711" lon="5.95325">
        <ele>2638.6</ele>
        <time>2021-02-20T11:36:36Z</time>
      </trkpt>
      <trkpt lat="45.1711" lon="5.95325">
        <ele>2638.6</ele>
        <time>2021-02-20T11:36:37Z</time>
      </trkpt>
      <trkpt lat="45.1711" lon="5.95326">
        <ele>2638.6</ele>
        <time>2021-02-20T11:36:38Z</time>
      </trkpt>
      <trkpt lat="45.1711" lon="5.95326">
        <ele>2639</ele>
        <time>2021-02-20T11:36:39Z</time>
      </trkpt>
      <trkpt lat="45.1711" lon="5.95326">
        <ele>2639</ele>
        <time>2021-02-20T11:36:40Z</time>
      </trkpt>
      <trkpt lat="45.1711" lon="5.95327">
        <ele>2639</ele>
        <time>2021-02-20T11:36:41Z</time>
      </trkpt>
      <trkpt lat="45.1711" lon="5.95327">
        <ele>2639</ele>
        <time>2021-02-20T11:36:42Z</time>
      </trkpt>
      <trkpt lat="45.1711" lon="5.95328">
        <ele>2639</ele>
        <time>2021-02-20T11:36:43Z</time>
      </trkpt>
      <trkpt lat="45.17109" lon="5.95328">
        <ele>2639</ele>
        <time>2021-02-20T11:36:44Z</time>
      </trkpt>
      <trkpt lat="45.17109" lon="5.95328">
        <ele>2639</ele>
        <time>2021-02-20T11:36:45Z</time>
      </trkpt>
      <trkpt lat="45.17109" lon="5.95329">
        <ele>2639</ele>
        <time>2021-02-20T11:36:46Z</time>
      </trkpt>
      <trkpt lat="45.17109" lon="5.95329">
        <ele>2639</ele>
        <time>2021-02-20T11:36:47Z</time>
      </trkpt>
      <trkpt lat="45.17109" lon="5.95329">
        <ele>2639</ele>
        <time>2021-02-20T11:36:48Z</time>
      </trkpt>
      <trkpt lat="45.17109" lon="5.9533">
        <ele>2639</ele>
        <time>2021-02-20T11:36:49Z</time>
      </trkpt>
      <trkpt lat="45.17109" lon="5.9533">
        <ele>2639</ele>
        <time>2021-02-20T11:36:50Z</time>
      </trkpt>
      <trkpt lat="45.17109" lon="5.95331">
        <ele>2639.4</ele>
        <time>2021-02-20T11:36:51Z</time>
      </trkpt>
      <trkpt lat="45.17109" lon="5.95331">
        <ele>2639.4</ele>
        <time>2021-02-20T11:36:52Z</time>
      </trkpt>
      <trkpt lat="45.17109" lon="5.95331">
        <ele>2639.4</ele>
        <time>2021-02-20T11:36:53Z</time>
      </trkpt>
      <trkpt lat="45.17109" lon="5.95332">
        <ele>2639.4</ele>
        <time>2021-02-20T11:36:54Z</time>
      </trkpt>
      <trkpt lat="45.17109" lon="5.95331">
        <ele>2639.9</ele>
        <time>2021-02-20T11:36:55Z</time>
      </trkpt>
      <trkpt lat="45.17109" lon="5.95331">
        <ele>2639.9</ele>
        <time>2021-02-20T11:36:56Z</time>
      </trkpt>
      <trkpt lat="45.17109" lon="5.95331">
        <ele>2639.9</ele>
        <time>2021-02-20T11:36:57Z</time>
      </trkpt>
      <trkpt lat="45.17108" lon="5.95332">
        <ele>2639.9</ele>
        <time>2021-02-20T11:36:58Z</time>
      </trkpt>
      <trkpt lat="45.17108" lon="5.95332">
        <ele>2639.9</ele>
        <time>2021-02-20T11:36:59Z</time>
      </trkpt>
      <trkpt lat="45.17108" lon="5.95332">
        <ele>2639.9</ele>
        <time>2021-02-20T11:37:00Z</time>
      </trkpt>
      <trkpt lat="45.17108" lon="5.95332">
        <ele>2639.9</ele>
        <time>2021-02-20T11:37:01Z</time>
      </trkpt>
      <trkpt lat="45.17107" lon="5.95332">
        <ele>2639.9</ele>
        <time>2021-02-20T11:37:02Z</time>
      </trkpt>
      <trkpt lat="45.17107" lon="5.95333">
        <ele>2639.9</ele>
        <time>2021-02-20T11:37:03Z</time>
      </trkpt>
      <trkpt lat="45.17107" lon="5.95333">
        <ele>2639.9</ele>
        <time>2021-02-20T11:37:04Z</time>
      </trkpt>
      <trkpt lat="45.17107" lon="5.95333">
        <ele>2639.9</ele>
        <time>2021-02-20T11:37:05Z</time>
      </trkpt>
      <trkpt lat="45.17107" lon="5.95333">
        <ele>2639.9</ele>
        <time>2021-02-20T11:37:06Z</time>
      </trkpt>
      <trkpt lat="45.17107" lon="5.95333">
        <ele>2639.9</ele>
        <time>2021-02-20T11:37:07Z</time>
      </trkpt>
      <trkpt lat="45.17107" lon="5.95334">
        <ele>2639.9</ele>
        <time>2021-02-20T11:37:08Z</time>
      </trkpt>
      <trkpt lat="45.17107" lon="5.95334">
        <ele>2639.9</ele>
        <time>2021-02-20T11:37:09Z</time>
      </trkpt>
      <trkpt lat="45.17107" lon="5.95334">
        <ele>2639.9</ele>
        <time>2021-02-20T11:37:10Z</time>
      </trkpt>
      <trkpt lat="45.17107" lon="5.95334">
        <ele>2639.9</ele>
        <time>2021-02-20T11:37:11Z</time>
      </trkpt>
      <trkpt lat="45.17107" lon="5.95334">
        <ele>2639.9</ele>
        <time>2021-02-20T11:37:12Z</time>
      </trkpt>
      <trkpt lat="45.17107" lon="5.95334">
        <ele>2639.9</ele>
        <time>2021-02-20T11:37:13Z</time>
      </trkpt>
      <trkpt lat="45.17107" lon="5.95334">
        <ele>2639.9</ele>
        <time>2021-02-20T11:37:14Z</time>
      </trkpt>
      <trkpt lat="45.17106" lon="5.95334">
        <ele>2639.9</ele>
        <time>2021-02-20T11:37:15Z</time>
      </trkpt>
      <trkpt lat="45.17106" lon="5.95335">
        <ele>2640.5</ele>
        <time>2021-02-20T11:37:16Z</time>
      </trkpt>
      <trkpt lat="45.17107" lon="5.95335">
        <ele>2640.5</ele>
        <time>2021-02-20T11:37:17Z</time>
      </trkpt>
      <trkpt lat="45.17107" lon="5.95335">
        <ele>2640.5</ele>
        <time>2021-02-20T11:37:18Z</time>
      </trkpt>
      <trkpt lat="45.17107" lon="5.95335">
        <ele>2640.5</ele>
        <time>2021-02-20T11:37:19Z</time>
      </trkpt>
      <trkpt lat="45.17107" lon="5.95335">
        <ele>2640.5</ele>
        <time>2021-02-20T11:37:20Z</time>
      </trkpt>
      <trkpt lat="45.17107" lon="5.95336">
        <ele>2640.5</ele>
        <time>2021-02-20T11:37:21Z</time>
      </trkpt>
      <trkpt lat="45.17107" lon="5.95336">
        <ele>2640.5</ele>
        <time>2021-02-20T11:37:22Z</time>
      </trkpt>
      <trkpt lat="45.17107" lon="5.95336">
        <ele>2640.5</ele>
        <time>2021-02-20T11:37:23Z</time>
      </trkpt>
      <trkpt lat="45.17107" lon="5.95336">
        <ele>2640.5</ele>
        <time>2021-02-20T11:37:24Z</time>
      </trkpt>
      <trkpt lat="45.17107" lon="5.95336">
        <ele>2640.5</ele>
        <time>2021-02-20T11:37:25Z</time>
      </trkpt>
      <trkpt lat="45.17107" lon="5.95336">
        <ele>2640.5</ele>
        <time>2021-02-20T11:37:26Z</time>
      </trkpt>
      <trkpt lat="45.17107" lon="5.95336">
        <ele>2640.5</ele>
        <time>2021-02-20T11:37:27Z</time>
      </trkpt>
      <trkpt lat="45.17107" lon="5.95337">
        <ele>2640.5</ele>
        <time>2021-02-20T11:37:28Z</time>
      </trkpt>
      <trkpt lat="45.17107" lon="5.95337">
        <ele>2640.5</ele>
        <time>2021-02-20T11:37:29Z</time>
      </trkpt>
      <trkpt lat="45.17106" lon="5.95338">
        <ele>2640.5</ele>
        <time>2021-02-20T11:37:30Z</time>
      </trkpt>
      <trkpt lat="45.17106" lon="5.95338">
        <ele>2640.5</ele>
        <time>2021-02-20T11:37:31Z</time>
      </trkpt>
      <trkpt lat="45.17106" lon="5.95339">
        <ele>2640.5</ele>
        <time>2021-02-20T11:37:32Z</time>
      </trkpt>
      <trkpt lat="45.17105" lon="5.95339">
        <ele>2641.4</ele>
        <time>2021-02-20T11:37:33Z</time>
      </trkpt>
      <trkpt lat="45.17105" lon="5.95339">
        <ele>2641.4</ele>
        <time>2021-02-20T11:37:34Z</time>
      </trkpt>
      <trkpt lat="45.17104" lon="5.9534">
        <ele>2641.4</ele>
        <time>2021-02-20T11:37:35Z</time>
      </trkpt>
      <trkpt lat="45.17104" lon="5.9534">
        <ele>2641.4</ele>
        <time>2021-02-20T11:37:36Z</time>
      </trkpt>
      <trkpt lat="45.17104" lon="5.95341">
        <ele>2641.4</ele>
        <time>2021-02-20T11:37:37Z</time>
      </trkpt>
      <trkpt lat="45.17104" lon="5.95341">
        <ele>2641.4</ele>
        <time>2021-02-20T11:37:38Z</time>
      </trkpt>
      <trkpt lat="45.17104" lon="5.95341">
        <ele>2641.4</ele>
        <time>2021-02-20T11:37:39Z</time>
      </trkpt>
      <trkpt lat="45.17103" lon="5.95341">
        <ele>2641.4</ele>
        <time>2021-02-20T11:37:40Z</time>
      </trkpt>
      <trkpt lat="45.17103" lon="5.95341">
        <ele>2641.4</ele>
        <time>2021-02-20T11:37:41Z</time>
      </trkpt>
      <trkpt lat="45.17103" lon="5.95342">
        <ele>2641.4</ele>
        <time>2021-02-20T11:37:42Z</time>
      </trkpt>
      <trkpt lat="45.17103" lon="5.95342">
        <ele>2641.4</ele>
        <time>2021-02-20T11:37:43Z</time>
      </trkpt>
      <trkpt lat="45.17102" lon="5.95342">
        <ele>2641.6</ele>
        <time>2021-02-20T11:37:44Z</time>
      </trkpt>
      <trkpt lat="45.17102" lon="5.95342">
        <ele>2641.6</ele>
        <time>2021-02-20T11:37:45Z</time>
      </trkpt>
      <trkpt lat="45.17102" lon="5.95342">
        <ele>2641.6</ele>
        <time>2021-02-20T11:37:46Z</time>
      </trkpt>
      <trkpt lat="45.17102" lon="5.95342">
        <ele>2641.6</ele>
        <time>2021-02-20T11:37:47Z</time>
      </trkpt>
      <trkpt lat="45.17102" lon="5.95342">
        <ele>2641.6</ele>
        <time>2021-02-20T11:37:48Z</time>
      </trkpt>
      <trkpt lat="45.17101" lon="5.95343">
        <ele>2641.6</ele>
        <time>2021-02-20T11:37:49Z</time>
      </trkpt>
      <trkpt lat="45.17101" lon="5.95343">
        <ele>2642.3</ele>
        <time>2021-02-20T11:37:50Z</time>
      </trkpt>
      <trkpt lat="45.17101" lon="5.95344">
        <ele>2642.3</ele>
        <time>2021-02-20T11:37:51Z</time>
      </trkpt>
      <trkpt lat="45.17101" lon="5.95344">
        <ele>2642.3</ele>
        <time>2021-02-20T11:37:52Z</time>
      </trkpt>
      <trkpt lat="45.17101" lon="5.95344">
        <ele>2642.3</ele>
        <time>2021-02-20T11:37:53Z</time>
      </trkpt>
      <trkpt lat="45.17101" lon="5.95344">
        <ele>2642.3</ele>
        <time>2021-02-20T11:37:54Z</time>
      </trkpt>
      <trkpt lat="45.17101" lon="5.95344">
        <ele>2642.3</ele>
        <time>2021-02-20T11:37:55Z</time>
      </trkpt>
      <trkpt lat="45.17102" lon="5.95345">
        <ele>2642.3</ele>
        <time>2021-02-20T11:37:56Z</time>
      </trkpt>
      <trkpt lat="45.17102" lon="5.95345">
        <ele>2642.3</ele>
        <time>2021-02-20T11:37:57Z</time>
      </trkpt>
      <trkpt lat="45.17103" lon="5.95345">
        <ele>2642.2</ele>
        <time>2021-02-20T11:37:58Z</time>
      </trkpt>
      <trkpt lat="45.17103" lon="5.95345">
        <ele>2642.2</ele>
        <time>2021-02-20T11:37:59Z</time>
      </trkpt>
      <trkpt lat="45.17103" lon="5.95346">
        <ele>2642.2</ele>
        <time>2021-02-20T11:38:00Z</time>
      </trkpt>
      <trkpt lat="45.17103" lon="5.95346">
        <ele>2642.2</ele>
        <time>2021-02-20T11:38:01Z</time>
      </trkpt>
      <trkpt lat="45.17103" lon="5.95346">
        <ele>2642.2</ele>
        <time>2021-02-20T11:38:02Z</time>
      </trkpt>
      <trkpt lat="45.17103" lon="5.95346">
        <ele>2642.2</ele>
        <time>2021-02-20T11:38:03Z</time>
      </trkpt>
      <trkpt lat="45.17103" lon="5.95346">
        <ele>2642.2</ele>
        <time>2021-02-20T11:38:04Z</time>
      </trkpt>
      <trkpt lat="45.17103" lon="5.95348">
        <ele>2642.9</ele>
        <time>2021-02-20T11:38:05Z</time>
      </trkpt>
      <trkpt lat="45.17103" lon="5.95348">
        <ele>2642.9</ele>
        <time>2021-02-20T11:38:06Z</time>
      </trkpt>
      <trkpt lat="45.17103" lon="5.95349">
        <ele>2642.9</ele>
        <time>2021-02-20T11:38:07Z</time>
      </trkpt>
      <trkpt lat="45.17103" lon="5.95349">
        <ele>2642.9</ele>
        <time>2021-02-20T11:38:08Z</time>
      </trkpt>
      <trkpt lat="45.17103" lon="5.95349">
        <ele>2642.9</ele>
        <time>2021-02-20T11:38:09Z</time>
      </trkpt>
      <trkpt lat="45.17103" lon="5.95349">
        <ele>2642.9</ele>
        <time>2021-02-20T11:38:10Z</time>
      </trkpt>
      <trkpt lat="45.17102" lon="5.9535">
        <ele>2643.2</ele>
        <time>2021-02-20T11:38:11Z</time>
      </trkpt>
      <trkpt lat="45.17102" lon="5.9535">
        <ele>2643.2</ele>
        <time>2021-02-20T11:38:12Z</time>
      </trkpt>
      <trkpt lat="45.17102" lon="5.9535">
        <ele>2643.2</ele>
        <time>2021-02-20T11:38:13Z</time>
      </trkpt>
      <trkpt lat="45.17103" lon="5.95351">
        <ele>2643.2</ele>
        <time>2021-02-20T11:38:14Z</time>
      </trkpt>
      <trkpt lat="45.17103" lon="5.95351">
        <ele>2643.2</ele>
        <time>2021-02-20T11:38:15Z</time>
      </trkpt>
      <trkpt lat="45.17103" lon="5.95351">
        <ele>2643.2</ele>
        <time>2021-02-20T11:38:16Z</time>
      </trkpt>
      <trkpt lat="45.17103" lon="5.95351">
        <ele>2643.2</ele>
        <time>2021-02-20T11:38:17Z</time>
      </trkpt>
      <trkpt lat="45.17102" lon="5.95354">
        <ele>2644.1</ele>
        <time>2021-02-20T11:38:18Z</time>
      </trkpt>
      <trkpt lat="45.17102" lon="5.95355">
        <ele>2644.1</ele>
        <time>2021-02-20T11:38:19Z</time>
      </trkpt>
      <trkpt lat="45.17102" lon="5.95356">
        <ele>2644.1</ele>
        <time>2021-02-20T11:38:20Z</time>
      </trkpt>
      <trkpt lat="45.17102" lon="5.95357">
        <ele>2645</ele>
        <time>2021-02-20T11:38:21Z</time>
      </trkpt>
      <trkpt lat="45.17102" lon="5.95357">
        <ele>2645</ele>
        <time>2021-02-20T11:38:22Z</time>
      </trkpt>
      <trkpt lat="45.17102" lon="5.95358">
        <ele>2645</ele>
        <time>2021-02-20T11:38:23Z</time>
      </trkpt>
      <trkpt lat="45.17102" lon="5.95358">
        <ele>2645</ele>
        <time>2021-02-20T11:38:24Z</time>
      </trkpt>
      <trkpt lat="45.17102" lon="5.95359">
        <ele>2645</ele>
        <time>2021-02-20T11:38:25Z</time>
      </trkpt>
      <trkpt lat="45.17101" lon="5.9536">
        <ele>2645</ele>
        <time>2021-02-20T11:38:26Z</time>
      </trkpt>
      <trkpt lat="45.17101" lon="5.9536">
        <ele>2645</ele>
        <time>2021-02-20T11:38:27Z</time>
      </trkpt>
      <trkpt lat="45.17101" lon="5.9536">
        <ele>2646</ele>
        <time>2021-02-20T11:38:28Z</time>
      </trkpt>
      <trkpt lat="45.17101" lon="5.9536">
        <ele>2646</ele>
        <time>2021-02-20T11:38:29Z</time>
      </trkpt>
      <trkpt lat="45.17101" lon="5.9536">
        <ele>2646</ele>
        <time>2021-02-20T11:38:30Z</time>
      </trkpt>
      <trkpt lat="45.17101" lon="5.9536">
        <ele>2646</ele>
        <time>2021-02-20T11:38:31Z</time>
      </trkpt>
      <trkpt lat="45.17101" lon="5.9536">
        <ele>2646</ele>
        <time>2021-02-20T11:38:32Z</time>
      </trkpt>
      <trkpt lat="45.17101" lon="5.9536">
        <ele>2646</ele>
        <time>2021-02-20T11:38:33Z</time>
      </trkpt>
      <trkpt lat="45.171" lon="5.95361">
        <ele>2646</ele>
        <time>2021-02-20T11:38:34Z</time>
      </trkpt>
      <trkpt lat="45.17099" lon="5.95361">
        <ele>2646.1</ele>
        <time>2021-02-20T11:38:35Z</time>
      </trkpt>
      <trkpt lat="45.17099" lon="5.9536">
        <ele>2645.1</ele>
        <time>2021-02-20T11:38:36Z</time>
      </trkpt>
      <trkpt lat="45.17099" lon="5.9536">
        <ele>2645.1</ele>
        <time>2021-02-20T11:38:37Z</time>
      </trkpt>
      <trkpt lat="45.17099" lon="5.9536">
        <ele>2645.1</ele>
        <time>2021-02-20T11:38:38Z</time>
      </trkpt>
      <trkpt lat="45.17099" lon="5.9536">
        <ele>2645.1</ele>
        <time>2021-02-20T11:38:39Z</time>
      </trkpt>
      <trkpt lat="45.17099" lon="5.9536">
        <ele>2645.1</ele>
        <time>2021-02-20T11:38:40Z</time>
      </trkpt>
      <trkpt lat="45.17099" lon="5.9536">
        <ele>2645.1</ele>
        <time>2021-02-20T11:38:41Z</time>
      </trkpt>
      <trkpt lat="45.171" lon="5.9536">
        <ele>2645</ele>
        <time>2021-02-20T11:38:42Z</time>
      </trkpt>
      <trkpt lat="45.17099" lon="5.9536">
        <ele>2645.1</ele>
        <time>2021-02-20T11:38:43Z</time>
      </trkpt>
      <trkpt lat="45.17099" lon="5.9536">
        <ele>2646.1</ele>
        <time>2021-02-20T11:38:44Z</time>
      </trkpt>
      <trkpt lat="45.17099" lon="5.9536">
        <ele>2646.1</ele>
        <time>2021-02-20T11:38:45Z</time>
      </trkpt>
      <trkpt lat="45.17099" lon="5.9536">
        <ele>2646.1</ele>
        <time>2021-02-20T11:38:46Z</time>
      </trkpt>
      <trkpt lat="45.17099" lon="5.95361">
        <ele>2646.1</ele>
        <time>2021-02-20T11:38:47Z</time>
      </trkpt>
      <trkpt lat="45.17099" lon="5.95361">
        <ele>2646.1</ele>
        <time>2021-02-20T11:38:48Z</time>
      </trkpt>
      <trkpt lat="45.17098" lon="5.95361">
        <ele>2646.1</ele>
        <time>2021-02-20T11:38:49Z</time>
      </trkpt>
      <trkpt lat="45.17098" lon="5.95361">
        <ele>2646.1</ele>
        <time>2021-02-20T11:38:50Z</time>
      </trkpt>
      <trkpt lat="45.17098" lon="5.95362">
        <ele>2646.1</ele>
        <time>2021-02-20T11:38:51Z</time>
      </trkpt>
      <trkpt lat="45.17097" lon="5.95362">
        <ele>2646.1</ele>
        <time>2021-02-20T11:38:52Z</time>
      </trkpt>
      <trkpt lat="45.17097" lon="5.95362">
        <ele>2646.1</ele>
        <time>2021-02-20T11:38:53Z</time>
      </trkpt>
      <trkpt lat="45.17097" lon="5.95363">
        <ele>2646.1</ele>
        <time>2021-02-20T11:38:54Z</time>
      </trkpt>
      <trkpt lat="45.17097" lon="5.95363">
        <ele>2646.1</ele>
        <time>2021-02-20T11:38:55Z</time>
      </trkpt>
      <trkpt lat="45.17097" lon="5.95364">
        <ele>2646.1</ele>
        <time>2021-02-20T11:38:56Z</time>
      </trkpt>
      <trkpt lat="45.17097" lon="5.95364">
        <ele>2646.1</ele>
        <time>2021-02-20T11:38:57Z</time>
      </trkpt>
      <trkpt lat="45.17097" lon="5.95364">
        <ele>2646.1</ele>
        <time>2021-02-20T11:38:58Z</time>
      </trkpt>
      <trkpt lat="45.17097" lon="5.95364">
        <ele>2646.1</ele>
        <time>2021-02-20T11:38:59Z</time>
      </trkpt>
      <trkpt lat="45.17097" lon="5.95364">
        <ele>2646.1</ele>
        <time>2021-02-20T11:39:00Z</time>
      </trkpt>
      <trkpt lat="45.17097" lon="5.95364">
        <ele>2646.1</ele>
        <time>2021-02-20T11:39:01Z</time>
      </trkpt>
      <trkpt lat="45.17097" lon="5.95364">
        <ele>2646.1</ele>
        <time>2021-02-20T11:39:02Z</time>
      </trkpt>
      <trkpt lat="45.17097" lon="5.95365">
        <ele>2647.2</ele>
        <time>2021-02-20T11:39:03Z</time>
      </trkpt>
      <trkpt lat="45.17097" lon="5.95365">
        <ele>2647.2</ele>
        <time>2021-02-20T11:39:04Z</time>
      </trkpt>
      <trkpt lat="45.17096" lon="5.95366">
        <ele>2647.1</ele>
        <time>2021-02-20T11:39:05Z</time>
      </trkpt>
      <trkpt lat="45.17096" lon="5.95367">
        <ele>2647.1</ele>
        <time>2021-02-20T11:39:06Z</time>
      </trkpt>
      <trkpt lat="45.17096" lon="5.95368">
        <ele>2647.1</ele>
        <time>2021-02-20T11:39:07Z</time>
      </trkpt>
      <trkpt lat="45.17096" lon="5.95369">
        <ele>2647.1</ele>
        <time>2021-02-20T11:39:08Z</time>
      </trkpt>
      <trkpt lat="45.17096" lon="5.95369">
        <ele>2648.3</ele>
        <time>2021-02-20T11:39:09Z</time>
      </trkpt>
      <trkpt lat="45.17096" lon="5.95369">
        <ele>2648.3</ele>
        <time>2021-02-20T11:39:10Z</time>
      </trkpt>
      <trkpt lat="45.17096" lon="5.95369">
        <ele>2648.3</ele>
        <time>2021-02-20T11:39:11Z</time>
      </trkpt>
      <trkpt lat="45.17096" lon="5.95369">
        <ele>2648.3</ele>
        <time>2021-02-20T11:39:12Z</time>
      </trkpt>
      <trkpt lat="45.17096" lon="5.95369">
        <ele>2648.3</ele>
        <time>2021-02-20T11:39:13Z</time>
      </trkpt>
      <trkpt lat="45.17096" lon="5.95369">
        <ele>2647.1</ele>
        <time>2021-02-20T11:39:14Z</time>
      </trkpt>
      <trkpt lat="45.17096" lon="5.95369">
        <ele>2648.3</ele>
        <time>2021-02-20T11:39:15Z</time>
      </trkpt>
      <trkpt lat="45.17096" lon="5.95369">
        <ele>2648.3</ele>
        <time>2021-02-20T11:39:16Z</time>
      </trkpt>
      <trkpt lat="45.17096" lon="5.95369">
        <ele>2648.3</ele>
        <time>2021-02-20T11:39:17Z</time>
      </trkpt>
      <trkpt lat="45.17096" lon="5.95369">
        <ele>2648.3</ele>
        <time>2021-02-20T11:39:18Z</time>
      </trkpt>
      <trkpt lat="45.17096" lon="5.95369">
        <ele>2648.3</ele>
        <time>2021-02-20T11:39:19Z</time>
      </trkpt>
      <trkpt lat="45.17096" lon="5.9537">
        <ele>2648.3</ele>
        <time>2021-02-20T11:39:20Z</time>
      </trkpt>
      <trkpt lat="45.17096" lon="5.9537">
        <ele>2648.3</ele>
        <time>2021-02-20T11:39:21Z</time>
      </trkpt>
      <trkpt lat="45.17096" lon="5.95371">
        <ele>2648.3</ele>
        <time>2021-02-20T11:39:22Z</time>
      </trkpt>
      <trkpt lat="45.17096" lon="5.95371">
        <ele>2648.3</ele>
        <time>2021-02-20T11:39:23Z</time>
      </trkpt>
      <trkpt lat="45.17096" lon="5.95371">
        <ele>2648.3</ele>
        <time>2021-02-20T11:39:24Z</time>
      </trkpt>
      <trkpt lat="45.17096" lon="5.95371">
        <ele>2648.3</ele>
        <time>2021-02-20T11:39:25Z</time>
      </trkpt>
      <trkpt lat="45.17097" lon="5.95371">
        <ele>2648.3</ele>
        <time>2021-02-20T11:39:26Z</time>
      </trkpt>
      <trkpt lat="45.17097" lon="5.95371">
        <ele>2648.3</ele>
        <time>2021-02-20T11:39:27Z</time>
      </trkpt>
      <trkpt lat="45.17097" lon="5.95372">
        <ele>2648.3</ele>
        <time>2021-02-20T11:39:28Z</time>
      </trkpt>
      <trkpt lat="45.17097" lon="5.95372">
        <ele>2648.3</ele>
        <time>2021-02-20T11:39:29Z</time>
      </trkpt>
      <trkpt lat="45.17097" lon="5.95373">
        <ele>2648.3</ele>
        <time>2021-02-20T11:39:30Z</time>
      </trkpt>
      <trkpt lat="45.17096" lon="5.95374">
        <ele>2649.5</ele>
        <time>2021-02-20T11:39:31Z</time>
      </trkpt>
      <trkpt lat="45.17096" lon="5.95374">
        <ele>2649.5</ele>
        <time>2021-02-20T11:39:32Z</time>
      </trkpt>
      <trkpt lat="45.17097" lon="5.95375">
        <ele>2649.5</ele>
        <time>2021-02-20T11:39:33Z</time>
      </trkpt>
      <trkpt lat="45.17097" lon="5.95375">
        <ele>2649.5</ele>
        <time>2021-02-20T11:39:34Z</time>
      </trkpt>
      <trkpt lat="45.17097" lon="5.95375">
        <ele>2649.5</ele>
        <time>2021-02-20T11:39:35Z</time>
      </trkpt>
      <trkpt lat="45.17097" lon="5.95375">
        <ele>2649.5</ele>
        <time>2021-02-20T11:39:36Z</time>
      </trkpt>
      <trkpt lat="45.17097" lon="5.95375">
        <ele>2649.5</ele>
        <time>2021-02-20T11:39:37Z</time>
      </trkpt>
      <trkpt lat="45.17097" lon="5.95375">
        <ele>2649.5</ele>
        <time>2021-02-20T11:39:38Z</time>
      </trkpt>
      <trkpt lat="45.17098" lon="5.95374">
        <ele>2649.5</ele>
        <time>2021-02-20T11:39:39Z</time>
      </trkpt>
      <trkpt lat="45.17098" lon="5.95374">
        <ele>2649.5</ele>
        <time>2021-02-20T11:39:40Z</time>
      </trkpt>
      <trkpt lat="45.17098" lon="5.95374">
        <ele>2649.5</ele>
        <time>2021-02-20T11:39:41Z</time>
      </trkpt>
      <trkpt lat="45.17098" lon="5.95374">
        <ele>2649.5</ele>
        <time>2021-02-20T11:39:42Z</time>
      </trkpt>
      <trkpt lat="45.17098" lon="5.95374">
        <ele>2649.5</ele>
        <time>2021-02-20T11:39:43Z</time>
      </trkpt>
      <trkpt lat="45.17098" lon="5.95374">
        <ele>2649.5</ele>
        <time>2021-02-20T11:39:44Z</time>
      </trkpt>
      <trkpt lat="45.17098" lon="5.95374">
        <ele>2649.5</ele>
        <time>2021-02-20T11:39:45Z</time>
      </trkpt>
      <trkpt lat="45.17098" lon="5.95374">
        <ele>2649.5</ele>
        <time>2021-02-20T11:39:46Z</time>
      </trkpt>
      <trkpt lat="45.17098" lon="5.95374">
        <ele>2649.5</ele>
        <time>2021-02-20T11:39:47Z</time>
      </trkpt>
      <trkpt lat="45.17096" lon="5.95376">
        <ele>2649.5</ele>
        <time>2021-02-20T11:39:48Z</time>
      </trkpt>
      <trkpt lat="45.17095" lon="5.95376">
        <ele>2649.5</ele>
        <time>2021-02-20T11:39:49Z</time>
      </trkpt>
      <trkpt lat="45.17095" lon="5.95377">
        <ele>2649.5</ele>
        <time>2021-02-20T11:39:50Z</time>
      </trkpt>
      <trkpt lat="45.17095" lon="5.95378">
        <ele>2650.8</ele>
        <time>2021-02-20T11:39:51Z</time>
      </trkpt>
      <trkpt lat="45.17094" lon="5.95379">
        <ele>2650.8</ele>
        <time>2021-02-20T11:39:52Z</time>
      </trkpt>
      <trkpt lat="45.17093" lon="5.9538">
        <ele>2650.6</ele>
        <time>2021-02-20T11:39:53Z</time>
      </trkpt>
      <trkpt lat="45.17093" lon="5.9538">
        <ele>2650.6</ele>
        <time>2021-02-20T11:39:54Z</time>
      </trkpt>
      <trkpt lat="45.17093" lon="5.95381">
        <ele>2650.6</ele>
        <time>2021-02-20T11:39:55Z</time>
      </trkpt>
      <trkpt lat="45.17093" lon="5.95381">
        <ele>2650.6</ele>
        <time>2021-02-20T11:39:56Z</time>
      </trkpt>
      <trkpt lat="45.17092" lon="5.95382">
        <ele>2650.6</ele>
        <time>2021-02-20T11:39:57Z</time>
      </trkpt>
      <trkpt lat="45.17092" lon="5.95382">
        <ele>2652.1</ele>
        <time>2021-02-20T11:39:58Z</time>
      </trkpt>
      <trkpt lat="45.17092" lon="5.95382">
        <ele>2652.1</ele>
        <time>2021-02-20T11:39:59Z</time>
      </trkpt>
      <trkpt lat="45.17092" lon="5.95383">
        <ele>2652.1</ele>
        <time>2021-02-20T11:40:00Z</time>
      </trkpt>
      <trkpt lat="45.17091" lon="5.95383">
        <ele>2652.1</ele>
        <time>2021-02-20T11:40:01Z</time>
      </trkpt>
      <trkpt lat="45.17091" lon="5.95384">
        <ele>2652.1</ele>
        <time>2021-02-20T11:40:02Z</time>
      </trkpt>
      <trkpt lat="45.17091" lon="5.95384">
        <ele>2652.1</ele>
        <time>2021-02-20T11:40:03Z</time>
      </trkpt>
      <trkpt lat="45.17091" lon="5.95384">
        <ele>2652.1</ele>
        <time>2021-02-20T11:40:04Z</time>
      </trkpt>
      <trkpt lat="45.17091" lon="5.95384">
        <ele>2652.1</ele>
        <time>2021-02-20T11:40:05Z</time>
      </trkpt>
      <trkpt lat="45.1709" lon="5.95386">
        <ele>2651.7</ele>
        <time>2021-02-20T11:40:06Z</time>
      </trkpt>
      <trkpt lat="45.1709" lon="5.95387">
        <ele>2653.4</ele>
        <time>2021-02-20T11:40:07Z</time>
      </trkpt>
      <trkpt lat="45.17091" lon="5.95387">
        <ele>2653.7</ele>
        <time>2021-02-20T11:40:08Z</time>
      </trkpt>
      <trkpt lat="45.17091" lon="5.95387">
        <ele>2653.7</ele>
        <time>2021-02-20T11:40:09Z</time>
      </trkpt>
      <trkpt lat="45.17091" lon="5.95387">
        <ele>2653.7</ele>
        <time>2021-02-20T11:40:10Z</time>
      </trkpt>
      <trkpt lat="45.17091" lon="5.95388">
        <ele>2653.7</ele>
        <time>2021-02-20T11:40:11Z</time>
      </trkpt>
      <trkpt lat="45.17091" lon="5.95389">
        <ele>2653.7</ele>
        <time>2021-02-20T11:40:12Z</time>
      </trkpt>
      <trkpt lat="45.17091" lon="5.95389">
        <ele>2653.7</ele>
        <time>2021-02-20T11:40:13Z</time>
      </trkpt>
      <trkpt lat="45.17091" lon="5.95389">
        <ele>2653.7</ele>
        <time>2021-02-20T11:40:14Z</time>
      </trkpt>
      <trkpt lat="45.1709" lon="5.9539">
        <ele>2653.4</ele>
        <time>2021-02-20T11:40:15Z</time>
      </trkpt>
      <trkpt lat="45.1709" lon="5.95391">
        <ele>2655.1</ele>
        <time>2021-02-20T11:40:16Z</time>
      </trkpt>
      <trkpt lat="45.17089" lon="5.95392">
        <ele>2655.1</ele>
        <time>2021-02-20T11:40:17Z</time>
      </trkpt>
      <trkpt lat="45.17089" lon="5.95392">
        <ele>2655.1</ele>
        <time>2021-02-20T11:40:18Z</time>
      </trkpt>
      <trkpt lat="45.17089" lon="5.95392">
        <ele>2655.1</ele>
        <time>2021-02-20T11:40:19Z</time>
      </trkpt>
      <trkpt lat="45.17089" lon="5.95393">
        <ele>2655.1</ele>
        <time>2021-02-20T11:40:20Z</time>
      </trkpt>
      <trkpt lat="45.17089" lon="5.95393">
        <ele>2655.1</ele>
        <time>2021-02-20T11:40:21Z</time>
      </trkpt>
      <trkpt lat="45.17089" lon="5.95393">
        <ele>2655.1</ele>
        <time>2021-02-20T11:40:22Z</time>
      </trkpt>
      <trkpt lat="45.17089" lon="5.95393">
        <ele>2655.1</ele>
        <time>2021-02-20T11:40:23Z</time>
      </trkpt>
      <trkpt lat="45.17089" lon="5.95393">
        <ele>2655.1</ele>
        <time>2021-02-20T11:40:24Z</time>
      </trkpt>
      <trkpt lat="45.17089" lon="5.95394">
        <ele>2655.1</ele>
        <time>2021-02-20T11:40:25Z</time>
      </trkpt>
      <trkpt lat="45.17089" lon="5.95394">
        <ele>2655.1</ele>
        <time>2021-02-20T11:40:26Z</time>
      </trkpt>
      <trkpt lat="45.17089" lon="5.95394">
        <ele>2655.1</ele>
        <time>2021-02-20T11:40:27Z</time>
      </trkpt>
      <trkpt lat="45.17089" lon="5.95394">
        <ele>2655.1</ele>
        <time>2021-02-20T11:40:28Z</time>
      </trkpt>
      <trkpt lat="45.17089" lon="5.95395">
        <ele>2655.1</ele>
        <time>2021-02-20T11:40:29Z</time>
      </trkpt>
      <trkpt lat="45.17089" lon="5.95395">
        <ele>2657</ele>
        <time>2021-02-20T11:40:30Z</time>
      </trkpt>
      <trkpt lat="45.17088" lon="5.95395">
        <ele>2657</ele>
        <time>2021-02-20T11:40:31Z</time>
      </trkpt>
      <trkpt lat="45.17088" lon="5.95395">
        <ele>2657</ele>
        <time>2021-02-20T11:40:32Z</time>
      </trkpt>
      <trkpt lat="45.17088" lon="5.95395">
        <ele>2657</ele>
        <time>2021-02-20T11:40:33Z</time>
      </trkpt>
      <trkpt lat="45.17088" lon="5.95396">
        <ele>2657</ele>
        <time>2021-02-20T11:40:34Z</time>
      </trkpt>
      <trkpt lat="45.17088" lon="5.95396">
        <ele>2657</ele>
        <time>2021-02-20T11:40:35Z</time>
      </trkpt>
      <trkpt lat="45.17088" lon="5.95396">
        <ele>2657</ele>
        <time>2021-02-20T11:40:36Z</time>
      </trkpt>
      <trkpt lat="45.17088" lon="5.95396">
        <ele>2657</ele>
        <time>2021-02-20T11:40:37Z</time>
      </trkpt>
      <trkpt lat="45.17088" lon="5.95396">
        <ele>2657</ele>
        <time>2021-02-20T11:40:38Z</time>
      </trkpt>
      <trkpt lat="45.17088" lon="5.95396">
        <ele>2657</ele>
        <time>2021-02-20T11:40:39Z</time>
      </trkpt>
      <trkpt lat="45.17088" lon="5.95396">
        <ele>2657</ele>
        <time>2021-02-20T11:40:40Z</time>
      </trkpt>
      <trkpt lat="45.17087" lon="5.95398">
        <ele>2656.5</ele>
        <time>2021-02-20T11:40:41Z</time>
      </trkpt>
      <trkpt lat="45.17087" lon="5.95398">
        <ele>2656.5</ele>
        <time>2021-02-20T11:40:42Z</time>
      </trkpt>
      <trkpt lat="45.17086" lon="5.95399">
        <ele>2656.5</ele>
        <time>2021-02-20T11:40:43Z</time>
      </trkpt>
      <trkpt lat="45.17086" lon="5.95399">
        <ele>2656.5</ele>
        <time>2021-02-20T11:40:44Z</time>
      </trkpt>
      <trkpt lat="45.17086" lon="5.95399">
        <ele>2656.5</ele>
        <time>2021-02-20T11:40:45Z</time>
      </trkpt>
      <trkpt lat="45.17086" lon="5.95399">
        <ele>2656.5</ele>
        <time>2021-02-20T11:40:46Z</time>
      </trkpt>
      <trkpt lat="45.17086" lon="5.95401">
        <ele>2658.3</ele>
        <time>2021-02-20T11:40:47Z</time>
      </trkpt>
      <trkpt lat="45.17086" lon="5.95402">
        <ele>2658.3</ele>
        <time>2021-02-20T11:40:48Z</time>
      </trkpt>
      <trkpt lat="45.17086" lon="5.95402">
        <ele>2658.3</ele>
        <time>2021-02-20T11:40:49Z</time>
      </trkpt>
      <trkpt lat="45.17085" lon="5.95403">
        <ele>2658.3</ele>
        <time>2021-02-20T11:40:50Z</time>
      </trkpt>
      <trkpt lat="45.17085" lon="5.95403">
        <ele>2658.3</ele>
        <time>2021-02-20T11:40:51Z</time>
      </trkpt>
      <trkpt lat="45.17085" lon="5.95403">
        <ele>2658.3</ele>
        <time>2021-02-20T11:40:52Z</time>
      </trkpt>
      <trkpt lat="45.17085" lon="5.95403">
        <ele>2660.1</ele>
        <time>2021-02-20T11:40:53Z</time>
      </trkpt>
      <trkpt lat="45.17085" lon="5.95403">
        <ele>2660.1</ele>
        <time>2021-02-20T11:40:54Z</time>
      </trkpt>
      <trkpt lat="45.17085" lon="5.95404">
        <ele>2660.1</ele>
        <time>2021-02-20T11:40:55Z</time>
      </trkpt>
      <trkpt lat="45.17085" lon="5.95404">
        <ele>2660.1</ele>
        <time>2021-02-20T11:40:56Z</time>
      </trkpt>
      <trkpt lat="45.17085" lon="5.95404">
        <ele>2660.1</ele>
        <time>2021-02-20T11:40:57Z</time>
      </trkpt>
      <trkpt lat="45.17085" lon="5.95404">
        <ele>2660.1</ele>
        <time>2021-02-20T11:40:58Z</time>
      </trkpt>
      <trkpt lat="45.17085" lon="5.95405">
        <ele>2660.1</ele>
        <time>2021-02-20T11:40:59Z</time>
      </trkpt>
      <trkpt lat="45.17085" lon="5.95405">
        <ele>2660.1</ele>
        <time>2021-02-20T11:41:00Z</time>
      </trkpt>
      <trkpt lat="45.17085" lon="5.95405">
        <ele>2660.1</ele>
        <time>2021-02-20T11:41:01Z</time>
      </trkpt>
      <trkpt lat="45.17085" lon="5.95405">
        <ele>2660.1</ele>
        <time>2021-02-20T11:41:02Z</time>
      </trkpt>
      <trkpt lat="45.17085" lon="5.95405">
        <ele>2660.1</ele>
        <time>2021-02-20T11:41:03Z</time>
      </trkpt>
      <trkpt lat="45.17084" lon="5.95406">
        <ele>2660.1</ele>
        <time>2021-02-20T11:41:04Z</time>
      </trkpt>
      <trkpt lat="45.17084" lon="5.95406">
        <ele>2660.1</ele>
        <time>2021-02-20T11:41:05Z</time>
      </trkpt>
      <trkpt lat="45.17084" lon="5.95406">
        <ele>2659.5</ele>
        <time>2021-02-20T11:41:06Z</time>
      </trkpt>
      <trkpt lat="45.17084" lon="5.95406">
        <ele>2659.5</ele>
        <time>2021-02-20T11:41:07Z</time>
      </trkpt>
      <trkpt lat="45.17084" lon="5.95407">
        <ele>2659.5</ele>
        <time>2021-02-20T11:41:08Z</time>
      </trkpt>
      <trkpt lat="45.17084" lon="5.95407">
        <ele>2659.5</ele>
        <time>2021-02-20T11:41:09Z</time>
      </trkpt>
      <trkpt lat="45.17084" lon="5.95407">
        <ele>2659.5</ele>
        <time>2021-02-20T11:41:10Z</time>
      </trkpt>
      <trkpt lat="45.17084" lon="5.95407">
        <ele>2659.5</ele>
        <time>2021-02-20T11:41:11Z</time>
      </trkpt>
      <trkpt lat="45.17084" lon="5.95407">
        <ele>2659.5</ele>
        <time>2021-02-20T11:41:12Z</time>
      </trkpt>
      <trkpt lat="45.17084" lon="5.95408">
        <ele>2661.3</ele>
        <time>2021-02-20T11:41:13Z</time>
      </trkpt>
      <trkpt lat="45.17084" lon="5.95408">
        <ele>2661.3</ele>
        <time>2021-02-20T11:41:14Z</time>
      </trkpt>
      <trkpt lat="45.17084" lon="5.95408">
        <ele>2661.3</ele>
        <time>2021-02-20T11:41:15Z</time>
      </trkpt>
      <trkpt lat="45.17084" lon="5.95408">
        <ele>2661.3</ele>
        <time>2021-02-20T11:41:16Z</time>
      </trkpt>
      <trkpt lat="45.17084" lon="5.95408">
        <ele>2661.3</ele>
        <time>2021-02-20T11:41:17Z</time>
      </trkpt>
      <trkpt lat="45.17084" lon="5.95408">
        <ele>2661.3</ele>
        <time>2021-02-20T11:41:18Z</time>
      </trkpt>
      <trkpt lat="45.17084" lon="5.95408">
        <ele>2661.3</ele>
        <time>2021-02-20T11:41:19Z</time>
      </trkpt>
      <trkpt lat="45.17084" lon="5.95408">
        <ele>2661.3</ele>
        <time>2021-02-20T11:41:20Z</time>
      </trkpt>
      <trkpt lat="45.17084" lon="5.95408">
        <ele>2661.3</ele>
        <time>2021-02-20T11:41:21Z</time>
      </trkpt>
      <trkpt lat="45.17084" lon="5.95408">
        <ele>2661.3</ele>
        <time>2021-02-20T11:41:22Z</time>
      </trkpt>
      <trkpt lat="45.17084" lon="5.95408">
        <ele>2661.3</ele>
        <time>2021-02-20T11:41:23Z</time>
      </trkpt>
      <trkpt lat="45.17084" lon="5.95409">
        <ele>2661.3</ele>
        <time>2021-02-20T11:41:24Z</time>
      </trkpt>
      <trkpt lat="45.17084" lon="5.95409">
        <ele>2661.3</ele>
        <time>2021-02-20T11:41:25Z</time>
      </trkpt>
      <trkpt lat="45.17084" lon="5.95409">
        <ele>2661.3</ele>
        <time>2021-02-20T11:41:26Z</time>
      </trkpt>
      <trkpt lat="45.17084" lon="5.9541">
        <ele>2661.3</ele>
        <time>2021-02-20T11:41:27Z</time>
      </trkpt>
      <trkpt lat="45.17085" lon="5.95409">
        <ele>2661.9</ele>
        <time>2021-02-20T11:41:28Z</time>
      </trkpt>
      <trkpt lat="45.17085" lon="5.95409">
        <ele>2661.9</ele>
        <time>2021-02-20T11:41:29Z</time>
      </trkpt>
      <trkpt lat="45.17085" lon="5.95409">
        <ele>2661.9</ele>
        <time>2021-02-20T11:41:30Z</time>
      </trkpt>
      <trkpt lat="45.17085" lon="5.95409">
        <ele>2661.9</ele>
        <time>2021-02-20T11:41:31Z</time>
      </trkpt>
      <trkpt lat="45.17085" lon="5.95409">
        <ele>2661.9</ele>
        <time>2021-02-20T11:41:32Z</time>
      </trkpt>
      <trkpt lat="45.17085" lon="5.95409">
        <ele>2661.9</ele>
        <time>2021-02-20T11:41:33Z</time>
      </trkpt>
      <trkpt lat="45.17085" lon="5.95409">
        <ele>2661.9</ele>
        <time>2021-02-20T11:41:34Z</time>
      </trkpt>
      <trkpt lat="45.17085" lon="5.95409">
        <ele>2661.9</ele>
        <time>2021-02-20T11:41:35Z</time>
      </trkpt>
      <trkpt lat="45.17085" lon="5.95409">
        <ele>2661.9</ele>
        <time>2021-02-20T11:41:36Z</time>
      </trkpt>
      <trkpt lat="45.17083" lon="5.95406">
        <ele>2659.5</ele>
        <time>2021-02-20T11:41:37Z</time>
      </trkpt>
      <trkpt lat="45.17083" lon="5.95406">
        <ele>2659.5</ele>
        <time>2021-02-20T11:41:38Z</time>
      </trkpt>
      <trkpt lat="45.17083" lon="5.95406">
        <ele>2659.5</ele>
        <time>2021-02-20T11:41:39Z</time>
      </trkpt>
      <trkpt lat="45.17083" lon="5.95406">
        <ele>2659.5</ele>
        <time>2021-02-20T11:41:40Z</time>
      </trkpt>
      <trkpt lat="45.17082" lon="5.95406">
        <ele>2659.5</ele>
        <time>2021-02-20T11:41:41Z</time>
      </trkpt>
      <trkpt lat="45.17083" lon="5.95407">
        <ele>2659.5</ele>
        <time>2021-02-20T11:41:42Z</time>
      </trkpt>
      <trkpt lat="45.17083" lon="5.95407">
        <ele>2659.5</ele>
        <time>2021-02-20T11:41:43Z</time>
      </trkpt>
      <trkpt lat="45.17083" lon="5.95407">
        <ele>2659.5</ele>
        <time>2021-02-20T11:41:44Z</time>
      </trkpt>
      <trkpt lat="45.17083" lon="5.95407">
        <ele>2659.5</ele>
        <time>2021-02-20T11:41:45Z</time>
      </trkpt>
      <trkpt lat="45.17081" lon="5.95407">
        <ele>2658.5</ele>
        <time>2021-02-20T11:41:46Z</time>
      </trkpt>
      <trkpt lat="45.1708" lon="5.95407">
        <ele>2658.5</ele>
        <time>2021-02-20T11:41:47Z</time>
      </trkpt>
      <trkpt lat="45.1708" lon="5.95406">
        <ele>2658.5</ele>
        <time>2021-02-20T11:41:48Z</time>
      </trkpt>
      <trkpt lat="45.1708" lon="5.95405">
        <ele>2658.5</ele>
        <time>2021-02-20T11:41:49Z</time>
      </trkpt>
      <trkpt lat="45.17079" lon="5.95404">
        <ele>2658.5</ele>
        <time>2021-02-20T11:41:50Z</time>
      </trkpt>
      <trkpt lat="45.17079" lon="5.95402">
        <ele>2656.5</ele>
        <time>2021-02-20T11:41:51Z</time>
      </trkpt>
      <trkpt lat="45.17078" lon="5.95401">
        <ele>2656.5</ele>
        <time>2021-02-20T11:41:52Z</time>
      </trkpt>
      <trkpt lat="45.17078" lon="5.95401">
        <ele>2655.1</ele>
        <time>2021-02-20T11:41:53Z</time>
      </trkpt>
      <trkpt lat="45.17078" lon="5.954">
        <ele>2655.1</ele>
        <time>2021-02-20T11:41:54Z</time>
      </trkpt>
      <trkpt lat="45.17077" lon="5.954">
        <ele>2655.1</ele>
        <time>2021-02-20T11:41:55Z</time>
      </trkpt>
      <trkpt lat="45.17077" lon="5.95399">
        <ele>2655.1</ele>
        <time>2021-02-20T11:41:56Z</time>
      </trkpt>
      <trkpt lat="45.17076" lon="5.95399">
        <ele>2655.1</ele>
        <time>2021-02-20T11:41:57Z</time>
      </trkpt>
      <trkpt lat="45.17076" lon="5.95399">
        <ele>2655.1</ele>
        <time>2021-02-20T11:41:58Z</time>
      </trkpt>
      <trkpt lat="45.17076" lon="5.95399">
        <ele>2655.1</ele>
        <time>2021-02-20T11:41:59Z</time>
      </trkpt>
      <trkpt lat="45.17076" lon="5.95401">
        <ele>2655.1</ele>
        <time>2021-02-20T11:42:00Z</time>
      </trkpt>
      <trkpt lat="45.17075" lon="5.95402">
        <ele>2655.1</ele>
        <time>2021-02-20T11:42:01Z</time>
      </trkpt>
      <trkpt lat="45.17076" lon="5.95403">
        <ele>2655.1</ele>
        <time>2021-02-20T11:42:02Z</time>
      </trkpt>
      <trkpt lat="45.17075" lon="5.95404">
        <ele>2657.2</ele>
        <time>2021-02-20T11:42:03Z</time>
      </trkpt>
      <trkpt lat="45.17075" lon="5.95404">
        <ele>2657.2</ele>
        <time>2021-02-20T11:42:04Z</time>
      </trkpt>
      <trkpt lat="45.17075" lon="5.95405">
        <ele>2655.7</ele>
        <time>2021-02-20T11:42:05Z</time>
      </trkpt>
      <trkpt lat="45.17075" lon="5.95405">
        <ele>2655.7</ele>
        <time>2021-02-20T11:42:06Z</time>
      </trkpt>
      <trkpt lat="45.17074" lon="5.95406">
        <ele>2655.7</ele>
        <time>2021-02-20T11:42:07Z</time>
      </trkpt>
      <trkpt lat="45.17074" lon="5.95406">
        <ele>2655.7</ele>
        <time>2021-02-20T11:42:08Z</time>
      </trkpt>
      <trkpt lat="45.17074" lon="5.95406">
        <ele>2655.7</ele>
        <time>2021-02-20T11:42:09Z</time>
      </trkpt>
      <trkpt lat="45.17074" lon="5.95406">
        <ele>2655.7</ele>
        <time>2021-02-20T11:42:10Z</time>
      </trkpt>
      <trkpt lat="45.17073" lon="5.95406">
        <ele>2655.7</ele>
        <time>2021-02-20T11:42:11Z</time>
      </trkpt>
      <trkpt lat="45.17073" lon="5.95406">
        <ele>2655.7</ele>
        <time>2021-02-20T11:42:12Z</time>
      </trkpt>
      <trkpt lat="45.17073" lon="5.95406">
        <ele>2655.7</ele>
        <time>2021-02-20T11:42:13Z</time>
      </trkpt>
      <trkpt lat="45.17073" lon="5.95406">
        <ele>2655.7</ele>
        <time>2021-02-20T11:42:14Z</time>
      </trkpt>
      <trkpt lat="45.17072" lon="5.95405">
        <ele>2654</ele>
        <time>2021-02-20T11:42:15Z</time>
      </trkpt>
      <trkpt lat="45.17071" lon="5.95405">
        <ele>2654</ele>
        <time>2021-02-20T11:42:16Z</time>
      </trkpt>
      <trkpt lat="45.17071" lon="5.95405">
        <ele>2654</ele>
        <time>2021-02-20T11:42:17Z</time>
      </trkpt>
      <trkpt lat="45.17071" lon="5.95404">
        <ele>2654</ele>
        <time>2021-02-20T11:42:18Z</time>
      </trkpt>
      <trkpt lat="45.1707" lon="5.95404">
        <ele>2654</ele>
        <time>2021-02-20T11:42:19Z</time>
      </trkpt>
      <trkpt lat="45.1707" lon="5.95404">
        <ele>2654</ele>
        <time>2021-02-20T11:42:20Z</time>
      </trkpt>
      <trkpt lat="45.17069" lon="5.95403">
        <ele>2649.6</ele>
        <time>2021-02-20T11:42:21Z</time>
      </trkpt>
      <trkpt lat="45.17068" lon="5.95403">
        <ele>2649.6</ele>
        <time>2021-02-20T11:42:22Z</time>
      </trkpt>
      <trkpt lat="45.17068" lon="5.95403">
        <ele>2649.6</ele>
        <time>2021-02-20T11:42:23Z</time>
      </trkpt>
      <trkpt lat="45.17068" lon="5.95402">
        <ele>2649.6</ele>
        <time>2021-02-20T11:42:24Z</time>
      </trkpt>
      <trkpt lat="45.17068" lon="5.95402">
        <ele>2649.6</ele>
        <time>2021-02-20T11:42:25Z</time>
      </trkpt>
      <trkpt lat="45.17068" lon="5.95402">
        <ele>2649.6</ele>
        <time>2021-02-20T11:42:26Z</time>
      </trkpt>
      <trkpt lat="45.17068" lon="5.95401">
        <ele>2649.6</ele>
        <time>2021-02-20T11:42:27Z</time>
      </trkpt>
      <trkpt lat="45.17068" lon="5.95401">
        <ele>2649.6</ele>
        <time>2021-02-20T11:42:28Z</time>
      </trkpt>
      <trkpt lat="45.17068" lon="5.95402">
        <ele>2649.6</ele>
        <time>2021-02-20T11:42:29Z</time>
      </trkpt>
      <trkpt lat="45.17068" lon="5.95402">
        <ele>2649.6</ele>
        <time>2021-02-20T11:42:30Z</time>
      </trkpt>
      <trkpt lat="45.17068" lon="5.95402">
        <ele>2649.6</ele>
        <time>2021-02-20T11:42:31Z</time>
      </trkpt>
      <trkpt lat="45.17067" lon="5.95401">
        <ele>2649.6</ele>
        <time>2021-02-20T11:42:32Z</time>
      </trkpt>
      <trkpt lat="45.17067" lon="5.95401">
        <ele>2649.6</ele>
        <time>2021-02-20T11:42:33Z</time>
      </trkpt>
      <trkpt lat="45.17067" lon="5.95401">
        <ele>2649.6</ele>
        <time>2021-02-20T11:42:34Z</time>
      </trkpt>
      <trkpt lat="45.17067" lon="5.95401">
        <ele>2649.6</ele>
        <time>2021-02-20T11:42:35Z</time>
      </trkpt>
      <trkpt lat="45.17067" lon="5.95401">
        <ele>2649.6</ele>
        <time>2021-02-20T11:42:36Z</time>
      </trkpt>
      <trkpt lat="45.17067" lon="5.95401">
        <ele>2649.6</ele>
        <time>2021-02-20T11:42:37Z</time>
      </trkpt>
      <trkpt lat="45.17067" lon="5.95401">
        <ele>2649.6</ele>
        <time>2021-02-20T11:42:38Z</time>
      </trkpt>
      <trkpt lat="45.17068" lon="5.95401">
        <ele>2649.6</ele>
        <time>2021-02-20T11:42:39Z</time>
      </trkpt>
      <trkpt lat="45.17068" lon="5.95401">
        <ele>2649.6</ele>
        <time>2021-02-20T11:42:40Z</time>
      </trkpt>
      <trkpt lat="45.17068" lon="5.95401">
        <ele>2649.6</ele>
        <time>2021-02-20T11:42:41Z</time>
      </trkpt>
      <trkpt lat="45.17068" lon="5.95401">
        <ele>2649.6</ele>
        <time>2021-02-20T11:42:42Z</time>
      </trkpt>
      <trkpt lat="45.17068" lon="5.95401">
        <ele>2649.6</ele>
        <time>2021-02-20T11:42:43Z</time>
      </trkpt>
      <trkpt lat="45.17068" lon="5.95401">
        <ele>2649.6</ele>
        <time>2021-02-20T11:42:44Z</time>
      </trkpt>
      <trkpt lat="45.17068" lon="5.95401">
        <ele>2649.6</ele>
        <time>2021-02-20T11:42:45Z</time>
      </trkpt>
      <trkpt lat="45.17067" lon="5.95401">
        <ele>2649.6</ele>
        <time>2021-02-20T11:42:46Z</time>
      </trkpt>
      <trkpt lat="45.17067" lon="5.95402">
        <ele>2649.6</ele>
        <time>2021-02-20T11:42:47Z</time>
      </trkpt>
      <trkpt lat="45.17067" lon="5.95402">
        <ele>2649.6</ele>
        <time>2021-02-20T11:42:48Z</time>
      </trkpt>
      <trkpt lat="45.17067" lon="5.95402">
        <ele>2649.6</ele>
        <time>2021-02-20T11:42:49Z</time>
      </trkpt>
      <trkpt lat="45.17067" lon="5.95402">
        <ele>2649.6</ele>
        <time>2021-02-20T11:42:50Z</time>
      </trkpt>
      <trkpt lat="45.17067" lon="5.95403">
        <ele>2649.6</ele>
        <time>2021-02-20T11:42:51Z</time>
      </trkpt>
      <trkpt lat="45.17068" lon="5.95403">
        <ele>2649.6</ele>
        <time>2021-02-20T11:42:52Z</time>
      </trkpt>
      <trkpt lat="45.17068" lon="5.95404">
        <ele>2652.1</ele>
        <time>2021-02-20T11:42:53Z</time>
      </trkpt>
      <trkpt lat="45.17067" lon="5.95404">
        <ele>2652.1</ele>
        <time>2021-02-20T11:42:54Z</time>
      </trkpt>
      <trkpt lat="45.17067" lon="5.95404">
        <ele>2652.1</ele>
        <time>2021-02-20T11:42:55Z</time>
      </trkpt>
      <trkpt lat="45.17068" lon="5.95404">
        <ele>2652.1</ele>
        <time>2021-02-20T11:42:56Z</time>
      </trkpt>
      <trkpt lat="45.17068" lon="5.95404">
        <ele>2652.1</ele>
        <time>2021-02-20T11:42:57Z</time>
      </trkpt>
      <trkpt lat="45.17068" lon="5.95404">
        <ele>2652.1</ele>
        <time>2021-02-20T11:42:58Z</time>
      </trkpt>
      <trkpt lat="45.17068" lon="5.95404">
        <ele>2652.1</ele>
        <time>2021-02-20T11:42:59Z</time>
      </trkpt>
      <trkpt lat="45.17068" lon="5.95404">
        <ele>2652.1</ele>
        <time>2021-02-20T11:43:00Z</time>
      </trkpt>
      <trkpt lat="45.17068" lon="5.95404">
        <ele>2652.1</ele>
        <time>2021-02-20T11:43:01Z</time>
      </trkpt>
      <trkpt lat="45.17068" lon="5.95404">
        <ele>2652.1</ele>
        <time>2021-02-20T11:43:02Z</time>
      </trkpt>
      <trkpt lat="45.17068" lon="5.95404">
        <ele>2652.1</ele>
        <time>2021-02-20T11:43:03Z</time>
      </trkpt>
      <trkpt lat="45.17068" lon="5.95404">
        <ele>2652.1</ele>
        <time>2021-02-20T11:43:04Z</time>
      </trkpt>
      <trkpt lat="45.17069" lon="5.95407">
        <ele>2652.1</ele>
        <time>2021-02-20T11:43:05Z</time>
      </trkpt>
      <trkpt lat="45.17069" lon="5.95407">
        <ele>2652.1</ele>
        <time>2021-02-20T11:43:06Z</time>
      </trkpt>
      <trkpt lat="45.17069" lon="5.95407">
        <ele>2652.1</ele>
        <time>2021-02-20T11:43:07Z</time>
      </trkpt>
      <trkpt lat="45.17069" lon="5.95408">
        <ele>2656.4</ele>
        <time>2021-02-20T11:43:08Z</time>
      </trkpt>
      <trkpt lat="45.1707" lon="5.95408">
        <ele>2656.4</ele>
        <time>2021-02-20T11:43:09Z</time>
      </trkpt>
      <trkpt lat="45.17069" lon="5.95408">
        <ele>2656.4</ele>
        <time>2021-02-20T11:43:10Z</time>
      </trkpt>
      <trkpt lat="45.17069" lon="5.95409">
        <ele>2656.4</ele>
        <time>2021-02-20T11:43:11Z</time>
      </trkpt>
      <trkpt lat="45.17069" lon="5.95409">
        <ele>2656.4</ele>
        <time>2021-02-20T11:43:12Z</time>
      </trkpt>
      <trkpt lat="45.17069" lon="5.95409">
        <ele>2654.6</ele>
        <time>2021-02-20T11:43:13Z</time>
      </trkpt>
      <trkpt lat="45.17069" lon="5.95409">
        <ele>2654.6</ele>
        <time>2021-02-20T11:43:14Z</time>
      </trkpt>
      <trkpt lat="45.17069" lon="5.95409">
        <ele>2654.6</ele>
        <time>2021-02-20T11:43:15Z</time>
      </trkpt>
      <trkpt lat="45.17069" lon="5.9541">
        <ele>2654.6</ele>
        <time>2021-02-20T11:43:16Z</time>
      </trkpt>
      <trkpt lat="45.17069" lon="5.9541">
        <ele>2654.6</ele>
        <time>2021-02-20T11:43:17Z</time>
      </trkpt>
      <trkpt lat="45.17069" lon="5.9541">
        <ele>2654.6</ele>
        <time>2021-02-20T11:43:18Z</time>
      </trkpt>
      <trkpt lat="45.17069" lon="5.9541">
        <ele>2654.6</ele>
        <time>2021-02-20T11:43:19Z</time>
      </trkpt>
      <trkpt lat="45.17068" lon="5.9541">
        <ele>2654.6</ele>
        <time>2021-02-20T11:43:20Z</time>
      </trkpt>
      <trkpt lat="45.17068" lon="5.9541">
        <ele>2654.6</ele>
        <time>2021-02-20T11:43:21Z</time>
      </trkpt>
      <trkpt lat="45.17068" lon="5.9541">
        <ele>2654.6</ele>
        <time>2021-02-20T11:43:22Z</time>
      </trkpt>
      <trkpt lat="45.17068" lon="5.9541">
        <ele>2654.6</ele>
        <time>2021-02-20T11:43:23Z</time>
      </trkpt>
      <trkpt lat="45.17068" lon="5.9541">
        <ele>2654.6</ele>
        <time>2021-02-20T11:43:24Z</time>
      </trkpt>
      <trkpt lat="45.17068" lon="5.9541">
        <ele>2654.6</ele>
        <time>2021-02-20T11:43:25Z</time>
      </trkpt>
      <trkpt lat="45.17068" lon="5.9541">
        <ele>2654.6</ele>
        <time>2021-02-20T11:43:26Z</time>
      </trkpt>
      <trkpt lat="45.17067" lon="5.95409">
        <ele>2654.6</ele>
        <time>2021-02-20T11:43:27Z</time>
      </trkpt>
      <trkpt lat="45.17067" lon="5.9541">
        <ele>2654.6</ele>
        <time>2021-02-20T11:43:28Z</time>
      </trkpt>
      <trkpt lat="45.17067" lon="5.9541">
        <ele>2654.6</ele>
        <time>2021-02-20T11:43:29Z</time>
      </trkpt>
      <trkpt lat="45.17067" lon="5.9541">
        <ele>2654.6</ele>
        <time>2021-02-20T11:43:30Z</time>
      </trkpt>
      <trkpt lat="45.17067" lon="5.95411">
        <ele>2654.6</ele>
        <time>2021-02-20T11:43:31Z</time>
      </trkpt>
      <trkpt lat="45.17068" lon="5.95411">
        <ele>2654.6</ele>
        <time>2021-02-20T11:43:32Z</time>
      </trkpt>
      <trkpt lat="45.17068" lon="5.95412">
        <ele>2654.6</ele>
        <time>2021-02-20T11:43:33Z</time>
      </trkpt>
      <trkpt lat="45.17068" lon="5.95412">
        <ele>2654.6</ele>
        <time>2021-02-20T11:43:34Z</time>
      </trkpt>
      <trkpt lat="45.17068" lon="5.95412">
        <ele>2657.1</ele>
        <time>2021-02-20T11:43:35Z</time>
      </trkpt>
      <trkpt lat="45.17068" lon="5.95412">
        <ele>2657.1</ele>
        <time>2021-02-20T11:43:36Z</time>
      </trkpt>
      <trkpt lat="45.17068" lon="5.95412">
        <ele>2657.1</ele>
        <time>2021-02-20T11:43:37Z</time>
      </trkpt>
      <trkpt lat="45.17068" lon="5.95413">
        <ele>2657.1</ele>
        <time>2021-02-20T11:43:38Z</time>
      </trkpt>
      <trkpt lat="45.17068" lon="5.95413">
        <ele>2657.1</ele>
        <time>2021-02-20T11:43:39Z</time>
      </trkpt>
      <trkpt lat="45.17069" lon="5.95414">
        <ele>2657.1</ele>
        <time>2021-02-20T11:43:40Z</time>
      </trkpt>
      <trkpt lat="45.17069" lon="5.95414">
        <ele>2657.1</ele>
        <time>2021-02-20T11:43:41Z</time>
      </trkpt>
      <trkpt lat="45.17069" lon="5.95415">
        <ele>2657.1</ele>
        <time>2021-02-20T11:43:42Z</time>
      </trkpt>
      <trkpt lat="45.17069" lon="5.95415">
        <ele>2658.7</ele>
        <time>2021-02-20T11:43:43Z</time>
      </trkpt>
      <trkpt lat="45.1707" lon="5.95415">
        <ele>2658.7</ele>
        <time>2021-02-20T11:43:44Z</time>
      </trkpt>
      <trkpt lat="45.1707" lon="5.95415">
        <ele>2658.7</ele>
        <time>2021-02-20T11:43:45Z</time>
      </trkpt>
      <trkpt lat="45.1707" lon="5.95415">
        <ele>2658.7</ele>
        <time>2021-02-20T11:43:46Z</time>
      </trkpt>
      <trkpt lat="45.1707" lon="5.95415">
        <ele>2658.7</ele>
        <time>2021-02-20T11:43:47Z</time>
      </trkpt>
      <trkpt lat="45.1707" lon="5.95415">
        <ele>2658.7</ele>
        <time>2021-02-20T11:43:48Z</time>
      </trkpt>
      <trkpt lat="45.1707" lon="5.95415">
        <ele>2658.7</ele>
        <time>2021-02-20T11:43:49Z</time>
      </trkpt>
      <trkpt lat="45.1707" lon="5.95415">
        <ele>2658.7</ele>
        <time>2021-02-20T11:43:50Z</time>
      </trkpt>
      <trkpt lat="45.1707" lon="5.95415">
        <ele>2658.7</ele>
        <time>2021-02-20T11:43:51Z</time>
      </trkpt>
      <trkpt lat="45.1707" lon="5.95415">
        <ele>2658.7</ele>
        <time>2021-02-20T11:43:52Z</time>
      </trkpt>
      <trkpt lat="45.1707" lon="5.95413">
        <ele>2658.7</ele>
        <time>2021-02-20T11:43:53Z</time>
      </trkpt>
      <trkpt lat="45.1707" lon="5.95413">
        <ele>2658.7</ele>
        <time>2021-02-20T11:43:54Z</time>
      </trkpt>
      <trkpt lat="45.17071" lon="5.95414">
        <ele>2658.7</ele>
        <time>2021-02-20T11:43:55Z</time>
      </trkpt>
      <trkpt lat="45.17071" lon="5.95414">
        <ele>2658.7</ele>
        <time>2021-02-20T11:43:56Z</time>
      </trkpt>
      <trkpt lat="45.17071" lon="5.95414">
        <ele>2658.7</ele>
        <time>2021-02-20T11:43:57Z</time>
      </trkpt>
      <trkpt lat="45.17072" lon="5.95414">
        <ele>2658.7</ele>
        <time>2021-02-20T11:43:58Z</time>
      </trkpt>
      <trkpt lat="45.17072" lon="5.95414">
        <ele>2658.7</ele>
        <time>2021-02-20T11:43:59Z</time>
      </trkpt>
      <trkpt lat="45.17072" lon="5.95413">
        <ele>2658.7</ele>
        <time>2021-02-20T11:44:00Z</time>
      </trkpt>
      <trkpt lat="45.17072" lon="5.95413">
        <ele>2658.7</ele>
        <time>2021-02-20T11:44:01Z</time>
      </trkpt>
      <trkpt lat="45.17072" lon="5.95413">
        <ele>2660.2</ele>
        <time>2021-02-20T11:44:02Z</time>
      </trkpt>
      <trkpt lat="45.17073" lon="5.95413">
        <ele>2660.2</ele>
        <time>2021-02-20T11:44:03Z</time>
      </trkpt>
      <trkpt lat="45.17073" lon="5.95413">
        <ele>2660.2</ele>
        <time>2021-02-20T11:44:04Z</time>
      </trkpt>
      <trkpt lat="45.17073" lon="5.95414">
        <ele>2660.2</ele>
        <time>2021-02-20T11:44:05Z</time>
      </trkpt>
      <trkpt lat="45.17073" lon="5.95414">
        <ele>2660.2</ele>
        <time>2021-02-20T11:44:06Z</time>
      </trkpt>
      <trkpt lat="45.17073" lon="5.95414">
        <ele>2660.2</ele>
        <time>2021-02-20T11:44:07Z</time>
      </trkpt>
      <trkpt lat="45.17073" lon="5.95414">
        <ele>2660.2</ele>
        <time>2021-02-20T11:44:08Z</time>
      </trkpt>
      <trkpt lat="45.17073" lon="5.95414">
        <ele>2660.2</ele>
        <time>2021-02-20T11:44:09Z</time>
      </trkpt>
      <trkpt lat="45.17073" lon="5.95414">
        <ele>2660.2</ele>
        <time>2021-02-20T11:44:10Z</time>
      </trkpt>
      <trkpt lat="45.17073" lon="5.95414">
        <ele>2660.2</ele>
        <time>2021-02-20T11:44:11Z</time>
      </trkpt>
      <trkpt lat="45.17073" lon="5.95415">
        <ele>2660.2</ele>
        <time>2021-02-20T11:44:12Z</time>
      </trkpt>
      <trkpt lat="45.17073" lon="5.95415">
        <ele>2660.2</ele>
        <time>2021-02-20T11:44:13Z</time>
      </trkpt>
      <trkpt lat="45.17073" lon="5.95416">
        <ele>2660.2</ele>
        <time>2021-02-20T11:44:14Z</time>
      </trkpt>
      <trkpt lat="45.17073" lon="5.95417">
        <ele>2662.4</ele>
        <time>2021-02-20T11:44:15Z</time>
      </trkpt>
      <trkpt lat="45.17073" lon="5.95417">
        <ele>2662.4</ele>
        <time>2021-02-20T11:44:16Z</time>
      </trkpt>
      <trkpt lat="45.17073" lon="5.95418">
        <ele>2662.4</ele>
        <time>2021-02-20T11:44:17Z</time>
      </trkpt>
      <trkpt lat="45.17073" lon="5.95418">
        <ele>2662.4</ele>
        <time>2021-02-20T11:44:18Z</time>
      </trkpt>
      <trkpt lat="45.17073" lon="5.95418">
        <ele>2662.4</ele>
        <time>2021-02-20T11:44:19Z</time>
      </trkpt>
      <trkpt lat="45.17073" lon="5.95419">
        <ele>2662.4</ele>
        <time>2021-02-20T11:44:20Z</time>
      </trkpt>
      <trkpt lat="45.17073" lon="5.9542">
        <ele>2662.4</ele>
        <time>2021-02-20T11:44:21Z</time>
      </trkpt>
      <trkpt lat="45.17073" lon="5.9542">
        <ele>2662.4</ele>
        <time>2021-02-20T11:44:22Z</time>
      </trkpt>
      <trkpt lat="45.17074" lon="5.95421">
        <ele>2664.6</ele>
        <time>2021-02-20T11:44:23Z</time>
      </trkpt>
      <trkpt lat="45.17074" lon="5.95422">
        <ele>2664.6</ele>
        <time>2021-02-20T11:44:24Z</time>
      </trkpt>
      <trkpt lat="45.17074" lon="5.95423">
        <ele>2664.6</ele>
        <time>2021-02-20T11:44:25Z</time>
      </trkpt>
      <trkpt lat="45.17074" lon="5.95423">
        <ele>2664.6</ele>
        <time>2021-02-20T11:44:26Z</time>
      </trkpt>
      <trkpt lat="45.17074" lon="5.95424">
        <ele>2664.6</ele>
        <time>2021-02-20T11:44:27Z</time>
      </trkpt>
      <trkpt lat="45.17074" lon="5.95424">
        <ele>2664.6</ele>
        <time>2021-02-20T11:44:28Z</time>
      </trkpt>
      <trkpt lat="45.17074" lon="5.95424">
        <ele>2664.6</ele>
        <time>2021-02-20T11:44:29Z</time>
      </trkpt>
      <trkpt lat="45.17074" lon="5.95424">
        <ele>2664.6</ele>
        <time>2021-02-20T11:44:30Z</time>
      </trkpt>
      <trkpt lat="45.17074" lon="5.95424">
        <ele>2664.6</ele>
        <time>2021-02-20T11:44:31Z</time>
      </trkpt>
      <trkpt lat="45.17073" lon="5.95424">
        <ele>2664.6</ele>
        <time>2021-02-20T11:44:32Z</time>
      </trkpt>
      <trkpt lat="45.17073" lon="5.95425">
        <ele>2664.6</ele>
        <time>2021-02-20T11:44:33Z</time>
      </trkpt>
      <trkpt lat="45.17074" lon="5.95425">
        <ele>2666.7</ele>
        <time>2021-02-20T11:44:34Z</time>
      </trkpt>
      <trkpt lat="45.17074" lon="5.95425">
        <ele>2666.7</ele>
        <time>2021-02-20T11:44:35Z</time>
      </trkpt>
      <trkpt lat="45.17075" lon="5.95425">
        <ele>2666.7</ele>
        <time>2021-02-20T11:44:36Z</time>
      </trkpt>
      <trkpt lat="45.17075" lon="5.95425">
        <ele>2666.7</ele>
        <time>2021-02-20T11:44:37Z</time>
      </trkpt>
      <trkpt lat="45.17075" lon="5.95425">
        <ele>2666.7</ele>
        <time>2021-02-20T11:44:38Z</time>
      </trkpt>
      <trkpt lat="45.17074" lon="5.95424">
        <ele>2664.6</ele>
        <time>2021-02-20T11:44:39Z</time>
      </trkpt>
      <trkpt lat="45.17074" lon="5.95423">
        <ele>2664.6</ele>
        <time>2021-02-20T11:44:40Z</time>
      </trkpt>
      <trkpt lat="45.17074" lon="5.95423">
        <ele>2664.6</ele>
        <time>2021-02-20T11:44:41Z</time>
      </trkpt>
      <trkpt lat="45.17074" lon="5.95423">
        <ele>2664.6</ele>
        <time>2021-02-20T11:44:42Z</time>
      </trkpt>
      <trkpt lat="45.17073" lon="5.95423">
        <ele>2664.6</ele>
        <time>2021-02-20T11:44:43Z</time>
      </trkpt>
      <trkpt lat="45.17073" lon="5.95423">
        <ele>2664.6</ele>
        <time>2021-02-20T11:44:44Z</time>
      </trkpt>
      <trkpt lat="45.17073" lon="5.95424">
        <ele>2664.6</ele>
        <time>2021-02-20T11:44:45Z</time>
      </trkpt>
      <trkpt lat="45.17073" lon="5.95424">
        <ele>2664.6</ele>
        <time>2021-02-20T11:44:46Z</time>
      </trkpt>
      <trkpt lat="45.17073" lon="5.95424">
        <ele>2664.6</ele>
        <time>2021-02-20T11:44:47Z</time>
      </trkpt>
      <trkpt lat="45.17074" lon="5.95424">
        <ele>2664.6</ele>
        <time>2021-02-20T11:44:48Z</time>
      </trkpt>
      <trkpt lat="45.17074" lon="5.95424">
        <ele>2664.6</ele>
        <time>2021-02-20T11:44:49Z</time>
      </trkpt>
      <trkpt lat="45.17074" lon="5.95424">
        <ele>2664.6</ele>
        <time>2021-02-20T11:44:50Z</time>
      </trkpt>
      <trkpt lat="45.17074" lon="5.95424">
        <ele>2664.6</ele>
        <time>2021-02-20T11:44:51Z</time>
      </trkpt>
      <trkpt lat="45.17074" lon="5.95424">
        <ele>2664.6</ele>
        <time>2021-02-20T11:44:52Z</time>
      </trkpt>
      <trkpt lat="45.17074" lon="5.95424">
        <ele>2664.6</ele>
        <time>2021-02-20T11:44:53Z</time>
      </trkpt>
      <trkpt lat="45.17074" lon="5.95424">
        <ele>2664.6</ele>
        <time>2021-02-20T11:44:54Z</time>
      </trkpt>
      <trkpt lat="45.17074" lon="5.95424">
        <ele>2664.6</ele>
        <time>2021-02-20T11:44:55Z</time>
      </trkpt>
      <trkpt lat="45.17074" lon="5.95424">
        <ele>2664.6</ele>
        <time>2021-02-20T11:44:56Z</time>
      </trkpt>
      <trkpt lat="45.17074" lon="5.95424">
        <ele>2664.6</ele>
        <time>2021-02-20T11:44:57Z</time>
      </trkpt>
      <trkpt lat="45.17074" lon="5.95425">
        <ele>2666.7</ele>
        <time>2021-02-20T11:44:58Z</time>
      </trkpt>
      <trkpt lat="45.17074" lon="5.95425">
        <ele>2666.7</ele>
        <time>2021-02-20T11:44:59Z</time>
      </trkpt>
      <trkpt lat="45.17074" lon="5.95425">
        <ele>2666.7</ele>
        <time>2021-02-20T11:45:00Z</time>
      </trkpt>
      <trkpt lat="45.17075" lon="5.95426">
        <ele>2666.7</ele>
        <time>2021-02-20T11:45:01Z</time>
      </trkpt>
      <trkpt lat="45.17075" lon="5.95426">
        <ele>2666.7</ele>
        <time>2021-02-20T11:45:02Z</time>
      </trkpt>
      <trkpt lat="45.17075" lon="5.95426">
        <ele>2667.6</ele>
        <time>2021-02-20T11:45:03Z</time>
      </trkpt>
      <trkpt lat="45.17075" lon="5.95425">
        <ele>2667.6</ele>
        <time>2021-02-20T11:45:04Z</time>
      </trkpt>
      <trkpt lat="45.17075" lon="5.95425">
        <ele>2667.6</ele>
        <time>2021-02-20T11:45:05Z</time>
      </trkpt>
      <trkpt lat="45.17076" lon="5.95424">
        <ele>2665.5</ele>
        <time>2021-02-20T11:45:06Z</time>
      </trkpt>
      <trkpt lat="45.17076" lon="5.95425">
        <ele>2665.5</ele>
        <time>2021-02-20T11:45:07Z</time>
      </trkpt>
      <trkpt lat="45.17076" lon="5.95425">
        <ele>2667.6</ele>
        <time>2021-02-20T11:45:08Z</time>
      </trkpt>
      <trkpt lat="45.17076" lon="5.95425">
        <ele>2667.6</ele>
        <time>2021-02-20T11:45:09Z</time>
      </trkpt>
      <trkpt lat="45.17077" lon="5.95426">
        <ele>2667.6</ele>
        <time>2021-02-20T11:45:10Z</time>
      </trkpt>
      <trkpt lat="45.17077" lon="5.95426">
        <ele>2667.6</ele>
        <time>2021-02-20T11:45:11Z</time>
      </trkpt>
      <trkpt lat="45.17077" lon="5.95426">
        <ele>2667.6</ele>
        <time>2021-02-20T11:45:12Z</time>
      </trkpt>
      <trkpt lat="45.17077" lon="5.95427">
        <ele>2667.6</ele>
        <time>2021-02-20T11:45:13Z</time>
      </trkpt>
      <trkpt lat="45.17077" lon="5.95427">
        <ele>2667.6</ele>
        <time>2021-02-20T11:45:14Z</time>
      </trkpt>
      <trkpt lat="45.17077" lon="5.95427">
        <ele>2667.6</ele>
        <time>2021-02-20T11:45:15Z</time>
      </trkpt>
      <trkpt lat="45.17077" lon="5.95427">
        <ele>2667.6</ele>
        <time>2021-02-20T11:45:16Z</time>
      </trkpt>
      <trkpt lat="45.17077" lon="5.95427">
        <ele>2667.6</ele>
        <time>2021-02-20T11:45:17Z</time>
      </trkpt>
      <trkpt lat="45.17077" lon="5.95427">
        <ele>2667.6</ele>
        <time>2021-02-20T11:45:18Z</time>
      </trkpt>
      <trkpt lat="45.17078" lon="5.95426">
        <ele>2667.6</ele>
        <time>2021-02-20T11:45:19Z</time>
      </trkpt>
      <trkpt lat="45.17078" lon="5.95426">
        <ele>2667.6</ele>
        <time>2021-02-20T11:45:20Z</time>
      </trkpt>
      <trkpt lat="45.17078" lon="5.95426">
        <ele>2667.6</ele>
        <time>2021-02-20T11:45:21Z</time>
      </trkpt>
      <trkpt lat="45.17078" lon="5.95426">
        <ele>2667.6</ele>
        <time>2021-02-20T11:45:22Z</time>
      </trkpt>
      <trkpt lat="45.17078" lon="5.95426">
        <ele>2667.6</ele>
        <time>2021-02-20T11:45:23Z</time>
      </trkpt>
      <trkpt lat="45.17078" lon="5.95426">
        <ele>2667.6</ele>
        <time>2021-02-20T11:45:24Z</time>
      </trkpt>
      <trkpt lat="45.17078" lon="5.95426">
        <ele>2667.6</ele>
        <time>2021-02-20T11:45:25Z</time>
      </trkpt>
      <trkpt lat="45.17078" lon="5.95426">
        <ele>2667.6</ele>
        <time>2021-02-20T11:45:26Z</time>
      </trkpt>
      <trkpt lat="45.17078" lon="5.95426">
        <ele>2667.6</ele>
        <time>2021-02-20T11:45:27Z</time>
      </trkpt>
      <trkpt lat="45.17078" lon="5.95426">
        <ele>2667.6</ele>
        <time>2021-02-20T11:45:28Z</time>
      </trkpt>
      <trkpt lat="45.17076" lon="5.95425">
        <ele>2667.6</ele>
        <time>2021-02-20T11:45:29Z</time>
      </trkpt>
      <trkpt lat="45.17077" lon="5.95425">
        <ele>2667.6</ele>
        <time>2021-02-20T11:45:30Z</time>
      </trkpt>
      <trkpt lat="45.17077" lon="5.95426">
        <ele>2667.6</ele>
        <time>2021-02-20T11:45:31Z</time>
      </trkpt>
      <trkpt lat="45.17077" lon="5.95426">
        <ele>2667.6</ele>
        <time>2021-02-20T11:45:32Z</time>
      </trkpt>
      <trkpt lat="45.17077" lon="5.95426">
        <ele>2667.6</ele>
        <time>2021-02-20T11:45:33Z</time>
      </trkpt>
      <trkpt lat="45.17077" lon="5.95426">
        <ele>2667.6</ele>
        <time>2021-02-20T11:45:34Z</time>
      </trkpt>
      <trkpt lat="45.17077" lon="5.95426">
        <ele>2667.6</ele>
        <time>2021-02-20T11:45:35Z</time>
      </trkpt>
      <trkpt lat="45.17077" lon="5.95426">
        <ele>2667.6</ele>
        <time>2021-02-20T11:45:36Z</time>
      </trkpt>
      <trkpt lat="45.17077" lon="5.95426">
        <ele>2667.6</ele>
        <time>2021-02-20T11:45:37Z</time>
      </trkpt>
      <trkpt lat="45.17077" lon="5.95426">
        <ele>2667.6</ele>
        <time>2021-02-20T11:45:38Z</time>
      </trkpt>
      <trkpt lat="45.17077" lon="5.95426">
        <ele>2667.6</ele>
        <time>2021-02-20T11:45:39Z</time>
      </trkpt>
      <trkpt lat="45.17077" lon="5.95426">
        <ele>2667.6</ele>
        <time>2021-02-20T11:45:40Z</time>
      </trkpt>
      <trkpt lat="45.17078" lon="5.95428">
        <ele>2668.3</ele>
        <time>2021-02-20T11:45:41Z</time>
      </trkpt>
      <trkpt lat="45.17079" lon="5.95428">
        <ele>2668.3</ele>
        <time>2021-02-20T11:45:42Z</time>
      </trkpt>
      <trkpt lat="45.17079" lon="5.95428">
        <ele>2668.3</ele>
        <time>2021-02-20T11:45:43Z</time>
      </trkpt>
      <trkpt lat="45.17079" lon="5.95429">
        <ele>2670.2</ele>
        <time>2021-02-20T11:45:44Z</time>
      </trkpt>
      <trkpt lat="45.17079" lon="5.9543">
        <ele>2670.2</ele>
        <time>2021-02-20T11:45:45Z</time>
      </trkpt>
      <trkpt lat="45.17078" lon="5.95431">
        <ele>2669.7</ele>
        <time>2021-02-20T11:45:46Z</time>
      </trkpt>
      <trkpt lat="45.17078" lon="5.95431">
        <ele>2669.7</ele>
        <time>2021-02-20T11:45:47Z</time>
      </trkpt>
      <trkpt lat="45.17078" lon="5.95431">
        <ele>2669.7</ele>
        <time>2021-02-20T11:45:48Z</time>
      </trkpt>
      <trkpt lat="45.17078" lon="5.95431">
        <ele>2669.7</ele>
        <time>2021-02-20T11:45:49Z</time>
      </trkpt>
      <trkpt lat="45.17078" lon="5.95431">
        <ele>2669.7</ele>
        <time>2021-02-20T11:45:50Z</time>
      </trkpt>
      <trkpt lat="45.17078" lon="5.95431">
        <ele>2669.7</ele>
        <time>2021-02-20T11:45:51Z</time>
      </trkpt>
      <trkpt lat="45.17078" lon="5.95431">
        <ele>2669.7</ele>
        <time>2021-02-20T11:45:52Z</time>
      </trkpt>
      <trkpt lat="45.17078" lon="5.95431">
        <ele>2669.7</ele>
        <time>2021-02-20T11:45:53Z</time>
      </trkpt>
      <trkpt lat="45.17078" lon="5.95431">
        <ele>2669.7</ele>
        <time>2021-02-20T11:45:54Z</time>
      </trkpt>
      <trkpt lat="45.17078" lon="5.95431">
        <ele>2669.7</ele>
        <time>2021-02-20T11:45:55Z</time>
      </trkpt>
      <trkpt lat="45.17078" lon="5.95431">
        <ele>2669.7</ele>
        <time>2021-02-20T11:45:56Z</time>
      </trkpt>
      <trkpt lat="45.17078" lon="5.95431">
        <ele>2669.7</ele>
        <time>2021-02-20T11:45:57Z</time>
      </trkpt>
      <trkpt lat="45.17078" lon="5.95431">
        <ele>2669.7</ele>
        <time>2021-02-20T11:45:58Z</time>
      </trkpt>
      <trkpt lat="45.17078" lon="5.95431">
        <ele>2669.7</ele>
        <time>2021-02-20T11:45:59Z</time>
      </trkpt>
      <trkpt lat="45.17078" lon="5.95431">
        <ele>2669.7</ele>
        <time>2021-02-20T11:46:00Z</time>
      </trkpt>
      <trkpt lat="45.17078" lon="5.95431">
        <ele>2669.7</ele>
        <time>2021-02-20T11:46:01Z</time>
      </trkpt>
      <trkpt lat="45.17078" lon="5.95431">
        <ele>2669.7</ele>
        <time>2021-02-20T11:46:02Z</time>
      </trkpt>
      <trkpt lat="45.17078" lon="5.95431">
        <ele>2669.7</ele>
        <time>2021-02-20T11:46:03Z</time>
      </trkpt>
      <trkpt lat="45.17078" lon="5.95431">
        <ele>2669.7</ele>
        <time>2021-02-20T11:46:04Z</time>
      </trkpt>
      <trkpt lat="45.17078" lon="5.95431">
        <ele>2669.7</ele>
        <time>2021-02-20T11:46:05Z</time>
      </trkpt>
      <trkpt lat="45.17078" lon="5.95431">
        <ele>2669.7</ele>
        <time>2021-02-20T11:46:06Z</time>
      </trkpt>
      <trkpt lat="45.17078" lon="5.95431">
        <ele>2669.7</ele>
        <time>2021-02-20T11:46:07Z</time>
      </trkpt>
      <trkpt lat="45.17078" lon="5.95431">
        <ele>2669.7</ele>
        <time>2021-02-20T11:46:08Z</time>
      </trkpt>
      <trkpt lat="45.17078" lon="5.95431">
        <ele>2669.7</ele>
        <time>2021-02-20T11:46:09Z</time>
      </trkpt>
      <trkpt lat="45.17079" lon="5.95431">
        <ele>2670.2</ele>
        <time>2021-02-20T11:46:10Z</time>
      </trkpt>
      <trkpt lat="45.17079" lon="5.95432">
        <ele>2670.2</ele>
        <time>2021-02-20T11:46:11Z</time>
      </trkpt>
      <trkpt lat="45.17079" lon="5.95432">
        <ele>2670.2</ele>
        <time>2021-02-20T11:46:12Z</time>
      </trkpt>
      <trkpt lat="45.17079" lon="5.95432">
        <ele>2670.2</ele>
        <time>2021-02-20T11:46:13Z</time>
      </trkpt>
      <trkpt lat="45.17079" lon="5.95432">
        <ele>2670.2</ele>
        <time>2021-02-20T11:46:14Z</time>
      </trkpt>
      <trkpt lat="45.17079" lon="5.95432">
        <ele>2670.2</ele>
        <time>2021-02-20T11:46:15Z</time>
      </trkpt>
      <trkpt lat="45.17079" lon="5.95432">
        <ele>2670.2</ele>
        <time>2021-02-20T11:46:16Z</time>
      </trkpt>
      <trkpt lat="45.17079" lon="5.95432">
        <ele>2670.2</ele>
        <time>2021-02-20T11:46:17Z</time>
      </trkpt>
      <trkpt lat="45.17079" lon="5.95432">
        <ele>2670.2</ele>
        <time>2021-02-20T11:46:18Z</time>
      </trkpt>
      <trkpt lat="45.1708" lon="5.95432">
        <ele>2670.2</ele>
        <time>2021-02-20T11:46:19Z</time>
      </trkpt>
      <trkpt lat="45.1708" lon="5.95433">
        <ele>2670.2</ele>
        <time>2021-02-20T11:46:20Z</time>
      </trkpt>
      <trkpt lat="45.1708" lon="5.95433">
        <ele>2670.2</ele>
        <time>2021-02-20T11:46:21Z</time>
      </trkpt>
      <trkpt lat="45.1708" lon="5.95433">
        <ele>2672.3</ele>
        <time>2021-02-20T11:46:22Z</time>
      </trkpt>
      <trkpt lat="45.1708" lon="5.95434">
        <ele>2672.3</ele>
        <time>2021-02-20T11:46:23Z</time>
      </trkpt>
      <trkpt lat="45.1708" lon="5.95435">
        <ele>2672.3</ele>
        <time>2021-02-20T11:46:24Z</time>
      </trkpt>
      <trkpt lat="45.1708" lon="5.95435">
        <ele>2672.3</ele>
        <time>2021-02-20T11:46:25Z</time>
      </trkpt>
      <trkpt lat="45.1708" lon="5.95436">
        <ele>2672.3</ele>
        <time>2021-02-20T11:46:26Z</time>
      </trkpt>
      <trkpt lat="45.1708" lon="5.95436">
        <ele>2672.3</ele>
        <time>2021-02-20T11:46:27Z</time>
      </trkpt>
      <trkpt lat="45.1708" lon="5.95436">
        <ele>2672.3</ele>
        <time>2021-02-20T11:46:28Z</time>
      </trkpt>
      <trkpt lat="45.1708" lon="5.95436">
        <ele>2672.3</ele>
        <time>2021-02-20T11:46:29Z</time>
      </trkpt>
      <trkpt lat="45.1708" lon="5.95436">
        <ele>2672.3</ele>
        <time>2021-02-20T11:46:30Z</time>
      </trkpt>
      <trkpt lat="45.1708" lon="5.95436">
        <ele>2672.3</ele>
        <time>2021-02-20T11:46:31Z</time>
      </trkpt>
      <trkpt lat="45.1708" lon="5.95436">
        <ele>2672.3</ele>
        <time>2021-02-20T11:46:32Z</time>
      </trkpt>
      <trkpt lat="45.17081" lon="5.95437">
        <ele>2672.3</ele>
        <time>2021-02-20T11:46:33Z</time>
      </trkpt>
      <trkpt lat="45.17081" lon="5.95437">
        <ele>2672.3</ele>
        <time>2021-02-20T11:46:34Z</time>
      </trkpt>
      <trkpt lat="45.17081" lon="5.95437">
        <ele>2672.5</ele>
        <time>2021-02-20T11:46:35Z</time>
      </trkpt>
      <trkpt lat="45.17081" lon="5.95437">
        <ele>2672.5</ele>
        <time>2021-02-20T11:46:36Z</time>
      </trkpt>
      <trkpt lat="45.17082" lon="5.95438">
        <ele>2674.6</ele>
        <time>2021-02-20T11:46:37Z</time>
      </trkpt>
      <trkpt lat="45.17082" lon="5.95438">
        <ele>2674.6</ele>
        <time>2021-02-20T11:46:38Z</time>
      </trkpt>
      <trkpt lat="45.17082" lon="5.95438">
        <ele>2674.6</ele>
        <time>2021-02-20T11:46:39Z</time>
      </trkpt>
      <trkpt lat="45.17083" lon="5.95439">
        <ele>2674.6</ele>
        <time>2021-02-20T11:46:40Z</time>
      </trkpt>
      <trkpt lat="45.17083" lon="5.9544">
        <ele>2674.6</ele>
        <time>2021-02-20T11:46:41Z</time>
      </trkpt>
      <trkpt lat="45.17083" lon="5.9544">
        <ele>2674.6</ele>
        <time>2021-02-20T11:46:42Z</time>
      </trkpt>
      <trkpt lat="45.17083" lon="5.9544">
        <ele>2674.6</ele>
        <time>2021-02-20T11:46:43Z</time>
      </trkpt>
      <trkpt lat="45.17083" lon="5.95441">
        <ele>2674.6</ele>
        <time>2021-02-20T11:46:44Z</time>
      </trkpt>
      <trkpt lat="45.17083" lon="5.95441">
        <ele>2674.6</ele>
        <time>2021-02-20T11:46:45Z</time>
      </trkpt>
      <trkpt lat="45.17083" lon="5.95441">
        <ele>2674.6</ele>
        <time>2021-02-20T11:46:46Z</time>
      </trkpt>
      <trkpt lat="45.17083" lon="5.95441">
        <ele>2674.6</ele>
        <time>2021-02-20T11:46:47Z</time>
      </trkpt>
      <trkpt lat="45.17083" lon="5.95441">
        <ele>2674.6</ele>
        <time>2021-02-20T11:46:48Z</time>
      </trkpt>
      <trkpt lat="45.17083" lon="5.95441">
        <ele>2674.6</ele>
        <time>2021-02-20T11:46:49Z</time>
      </trkpt>
      <trkpt lat="45.17083" lon="5.95441">
        <ele>2674.6</ele>
        <time>2021-02-20T11:46:50Z</time>
      </trkpt>
      <trkpt lat="45.17083" lon="5.95441">
        <ele>2674.6</ele>
        <time>2021-02-20T11:46:51Z</time>
      </trkpt>
      <trkpt lat="45.17083" lon="5.95441">
        <ele>2674.6</ele>
        <time>2021-02-20T11:46:52Z</time>
      </trkpt>
      <trkpt lat="45.17084" lon="5.95441">
        <ele>2674.6</ele>
        <time>2021-02-20T11:46:53Z</time>
      </trkpt>
      <trkpt lat="45.17084" lon="5.95442">
        <ele>2674.6</ele>
        <time>2021-02-20T11:46:54Z</time>
      </trkpt>
      <trkpt lat="45.17084" lon="5.95442">
        <ele>2676.6</ele>
        <time>2021-02-20T11:46:55Z</time>
      </trkpt>
      <trkpt lat="45.17084" lon="5.95443">
        <ele>2676.5</ele>
        <time>2021-02-20T11:46:56Z</time>
      </trkpt>
      <trkpt lat="45.17085" lon="5.95444">
        <ele>2676.5</ele>
        <time>2021-02-20T11:46:57Z</time>
      </trkpt>
      <trkpt lat="45.17085" lon="5.95445">
        <ele>2676.5</ele>
        <time>2021-02-20T11:46:58Z</time>
      </trkpt>
      <trkpt lat="45.17084" lon="5.95445">
        <ele>2676.5</ele>
        <time>2021-02-20T11:46:59Z</time>
      </trkpt>
      <trkpt lat="45.17085" lon="5.95446">
        <ele>2676.5</ele>
        <time>2021-02-20T11:47:00Z</time>
      </trkpt>
      <trkpt lat="45.17085" lon="5.95446">
        <ele>2678.3</ele>
        <time>2021-02-20T11:47:01Z</time>
      </trkpt>
      <trkpt lat="45.17084" lon="5.95447">
        <ele>2678.3</ele>
        <time>2021-02-20T11:47:02Z</time>
      </trkpt>
      <trkpt lat="45.17084" lon="5.95447">
        <ele>2678.4</ele>
        <time>2021-02-20T11:47:03Z</time>
      </trkpt>
      <trkpt lat="45.17084" lon="5.95448">
        <ele>2678.4</ele>
        <time>2021-02-20T11:47:04Z</time>
      </trkpt>
      <trkpt lat="45.17084" lon="5.95448">
        <ele>2678.4</ele>
        <time>2021-02-20T11:47:05Z</time>
      </trkpt>
      <trkpt lat="45.17084" lon="5.95449">
        <ele>2678.4</ele>
        <time>2021-02-20T11:47:06Z</time>
      </trkpt>
      <trkpt lat="45.17084" lon="5.95449">
        <ele>2678.4</ele>
        <time>2021-02-20T11:47:07Z</time>
      </trkpt>
      <trkpt lat="45.17084" lon="5.9545">
        <ele>2678.4</ele>
        <time>2021-02-20T11:47:08Z</time>
      </trkpt>
      <trkpt lat="45.17084" lon="5.9545">
        <ele>2678.4</ele>
        <time>2021-02-20T11:47:09Z</time>
      </trkpt>
      <trkpt lat="45.17084" lon="5.9545">
        <ele>2678.4</ele>
        <time>2021-02-20T11:47:10Z</time>
      </trkpt>
      <trkpt lat="45.17083" lon="5.95451">
        <ele>2679.9</ele>
        <time>2021-02-20T11:47:11Z</time>
      </trkpt>
      <trkpt lat="45.17083" lon="5.95451">
        <ele>2679.9</ele>
        <time>2021-02-20T11:47:12Z</time>
      </trkpt>
      <trkpt lat="45.17083" lon="5.95452">
        <ele>2679.9</ele>
        <time>2021-02-20T11:47:13Z</time>
      </trkpt>
      <trkpt lat="45.17083" lon="5.95452">
        <ele>2679.9</ele>
        <time>2021-02-20T11:47:14Z</time>
      </trkpt>
      <trkpt lat="45.17083" lon="5.95452">
        <ele>2679.9</ele>
        <time>2021-02-20T11:47:15Z</time>
      </trkpt>
      <trkpt lat="45.17083" lon="5.95452">
        <ele>2679.9</ele>
        <time>2021-02-20T11:47:16Z</time>
      </trkpt>
      <trkpt lat="45.17083" lon="5.95452">
        <ele>2679.9</ele>
        <time>2021-02-20T11:47:17Z</time>
      </trkpt>
      <trkpt lat="45.17083" lon="5.95452">
        <ele>2679.9</ele>
        <time>2021-02-20T11:47:18Z</time>
      </trkpt>
      <trkpt lat="45.17083" lon="5.95453">
        <ele>2679.9</ele>
        <time>2021-02-20T11:47:19Z</time>
      </trkpt>
      <trkpt lat="45.17083" lon="5.95454">
        <ele>2679.9</ele>
        <time>2021-02-20T11:47:20Z</time>
      </trkpt>
      <trkpt lat="45.17083" lon="5.95454">
        <ele>2679.9</ele>
        <time>2021-02-20T11:47:21Z</time>
      </trkpt>
      <trkpt lat="45.17083" lon="5.95454">
        <ele>2679.9</ele>
        <time>2021-02-20T11:47:22Z</time>
      </trkpt>
      <trkpt lat="45.17083" lon="5.95454">
        <ele>2679.9</ele>
        <time>2021-02-20T11:47:23Z</time>
      </trkpt>
      <trkpt lat="45.17083" lon="5.95454">
        <ele>2679.9</ele>
        <time>2021-02-20T11:47:24Z</time>
      </trkpt>
      <trkpt lat="45.17083" lon="5.95454">
        <ele>2679.9</ele>
        <time>2021-02-20T11:47:25Z</time>
      </trkpt>
      <trkpt lat="45.17083" lon="5.95455">
        <ele>2679.9</ele>
        <time>2021-02-20T11:47:26Z</time>
      </trkpt>
      <trkpt lat="45.17083" lon="5.95455">
        <ele>2681</ele>
        <time>2021-02-20T11:47:27Z</time>
      </trkpt>
      <trkpt lat="45.17083" lon="5.95455">
        <ele>2679.9</ele>
        <time>2021-02-20T11:47:28Z</time>
      </trkpt>
      <trkpt lat="45.17083" lon="5.95455">
        <ele>2679.9</ele>
        <time>2021-02-20T11:47:29Z</time>
      </trkpt>
      <trkpt lat="45.17084" lon="5.95454">
        <ele>2679.9</ele>
        <time>2021-02-20T11:47:30Z</time>
      </trkpt>
      <trkpt lat="45.17084" lon="5.95454">
        <ele>2679.9</ele>
        <time>2021-02-20T11:47:31Z</time>
      </trkpt>
      <trkpt lat="45.17084" lon="5.95454">
        <ele>2679.9</ele>
        <time>2021-02-20T11:47:32Z</time>
      </trkpt>
      <trkpt lat="45.17084" lon="5.95455">
        <ele>2679.9</ele>
        <time>2021-02-20T11:47:33Z</time>
      </trkpt>
      <trkpt lat="45.17084" lon="5.95455">
        <ele>2681</ele>
        <time>2021-02-20T11:47:34Z</time>
      </trkpt>
      <trkpt lat="45.17084" lon="5.95455">
        <ele>2681</ele>
        <time>2021-02-20T11:47:35Z</time>
      </trkpt>
      <trkpt lat="45.17084" lon="5.95456">
        <ele>2681</ele>
        <time>2021-02-20T11:47:36Z</time>
      </trkpt>
      <trkpt lat="45.17084" lon="5.95457">
        <ele>2681</ele>
        <time>2021-02-20T11:47:37Z</time>
      </trkpt>
      <trkpt lat="45.17084" lon="5.95458">
        <ele>2681</ele>
        <time>2021-02-20T11:47:38Z</time>
      </trkpt>
      <trkpt lat="45.17084" lon="5.95459">
        <ele>2681</ele>
        <time>2021-02-20T11:47:39Z</time>
      </trkpt>
      <trkpt lat="45.17084" lon="5.95459">
        <ele>2681</ele>
        <time>2021-02-20T11:47:40Z</time>
      </trkpt>
      <trkpt lat="45.17084" lon="5.95459">
        <ele>2681</ele>
        <time>2021-02-20T11:47:41Z</time>
      </trkpt>
      <trkpt lat="45.17084" lon="5.95459">
        <ele>2682.3</ele>
        <time>2021-02-20T11:47:42Z</time>
      </trkpt>
      <trkpt lat="45.17084" lon="5.9546">
        <ele>2682.3</ele>
        <time>2021-02-20T11:47:43Z</time>
      </trkpt>
      <trkpt lat="45.17084" lon="5.9546">
        <ele>2682.3</ele>
        <time>2021-02-20T11:47:44Z</time>
      </trkpt>
      <trkpt lat="45.17084" lon="5.9546">
        <ele>2682.3</ele>
        <time>2021-02-20T11:47:45Z</time>
      </trkpt>
      <trkpt lat="45.17084" lon="5.9546">
        <ele>2682.3</ele>
        <time>2021-02-20T11:47:46Z</time>
      </trkpt>
      <trkpt lat="45.17084" lon="5.9546">
        <ele>2682.3</ele>
        <time>2021-02-20T11:47:47Z</time>
      </trkpt>
      <trkpt lat="45.17084" lon="5.9546">
        <ele>2682.3</ele>
        <time>2021-02-20T11:47:48Z</time>
      </trkpt>
      <trkpt lat="45.17084" lon="5.95459">
        <ele>2682.3</ele>
        <time>2021-02-20T11:47:49Z</time>
      </trkpt>
      <trkpt lat="45.17084" lon="5.95459">
        <ele>2681</ele>
        <time>2021-02-20T11:47:50Z</time>
      </trkpt>
      <trkpt lat="45.17084" lon="5.95459">
        <ele>2680.8</ele>
        <time>2021-02-20T11:47:51Z</time>
      </trkpt>
      <trkpt lat="45.17084" lon="5.95458">
        <ele>2680.8</ele>
        <time>2021-02-20T11:47:52Z</time>
      </trkpt>
      <trkpt lat="45.17084" lon="5.95458">
        <ele>2680.8</ele>
        <time>2021-02-20T11:47:53Z</time>
      </trkpt>
      <trkpt lat="45.17084" lon="5.95458">
        <ele>2680.8</ele>
        <time>2021-02-20T11:47:54Z</time>
      </trkpt>
      <trkpt lat="45.17085" lon="5.95458">
        <ele>2680.8</ele>
        <time>2021-02-20T11:47:55Z</time>
      </trkpt>
      <trkpt lat="45.17085" lon="5.95457">
        <ele>2680.8</ele>
        <time>2021-02-20T11:47:56Z</time>
      </trkpt>
      <trkpt lat="45.17085" lon="5.95457">
        <ele>2680.8</ele>
        <time>2021-02-20T11:47:57Z</time>
      </trkpt>
      <trkpt lat="45.17085" lon="5.95457">
        <ele>2680.8</ele>
        <time>2021-02-20T11:47:58Z</time>
      </trkpt>
      <trkpt lat="45.17085" lon="5.95456">
        <ele>2680.8</ele>
        <time>2021-02-20T11:47:59Z</time>
      </trkpt>
      <trkpt lat="45.17085" lon="5.95456">
        <ele>2680.8</ele>
        <time>2021-02-20T11:48:00Z</time>
      </trkpt>
      <trkpt lat="45.17085" lon="5.95456">
        <ele>2680.8</ele>
        <time>2021-02-20T11:48:01Z</time>
      </trkpt>
      <trkpt lat="45.17085" lon="5.95455">
        <ele>2680.8</ele>
        <time>2021-02-20T11:48:02Z</time>
      </trkpt>
      <trkpt lat="45.17085" lon="5.95455">
        <ele>2680.8</ele>
        <time>2021-02-20T11:48:03Z</time>
      </trkpt>
      <trkpt lat="45.17085" lon="5.95455">
        <ele>2680.8</ele>
        <time>2021-02-20T11:48:04Z</time>
      </trkpt>
      <trkpt lat="45.17085" lon="5.95455">
        <ele>2679.7</ele>
        <time>2021-02-20T11:48:05Z</time>
      </trkpt>
      <trkpt lat="45.17085" lon="5.95454">
        <ele>2679.7</ele>
        <time>2021-02-20T11:48:06Z</time>
      </trkpt>
      <trkpt lat="45.17085" lon="5.95454">
        <ele>2679.7</ele>
        <time>2021-02-20T11:48:07Z</time>
      </trkpt>
      <trkpt lat="45.17085" lon="5.95454">
        <ele>2679.7</ele>
        <time>2021-02-20T11:48:08Z</time>
      </trkpt>
      <trkpt lat="45.17085" lon="5.95453">
        <ele>2679.7</ele>
        <time>2021-02-20T11:48:09Z</time>
      </trkpt>
      <trkpt lat="45.17085" lon="5.95454">
        <ele>2679.7</ele>
        <time>2021-02-20T11:48:10Z</time>
      </trkpt>
      <trkpt lat="45.17085" lon="5.95454">
        <ele>2679.7</ele>
        <time>2021-02-20T11:48:11Z</time>
      </trkpt>
      <trkpt lat="45.17085" lon="5.95454">
        <ele>2679.7</ele>
        <time>2021-02-20T11:48:12Z</time>
      </trkpt>
      <trkpt lat="45.17086" lon="5.95454">
        <ele>2679.7</ele>
        <time>2021-02-20T11:48:13Z</time>
      </trkpt>
      <trkpt lat="45.17085" lon="5.95454">
        <ele>2679.7</ele>
        <time>2021-02-20T11:48:14Z</time>
      </trkpt>
      <trkpt lat="45.17085" lon="5.95455">
        <ele>2680.8</ele>
        <time>2021-02-20T11:48:15Z</time>
      </trkpt>
      <trkpt lat="45.17085" lon="5.95456">
        <ele>2680.8</ele>
        <time>2021-02-20T11:48:16Z</time>
      </trkpt>
      <trkpt lat="45.17085" lon="5.95457">
        <ele>2680.8</ele>
        <time>2021-02-20T11:48:17Z</time>
      </trkpt>
      <trkpt lat="45.17086" lon="5.95458">
        <ele>2680.8</ele>
        <time>2021-02-20T11:48:18Z</time>
      </trkpt>
      <trkpt lat="45.17086" lon="5.95458">
        <ele>2680.8</ele>
        <time>2021-02-20T11:48:19Z</time>
      </trkpt>
      <trkpt lat="45.17086" lon="5.95459">
        <ele>2680.8</ele>
        <time>2021-02-20T11:48:20Z</time>
      </trkpt>
      <trkpt lat="45.17086" lon="5.95459">
        <ele>2681.8</ele>
        <time>2021-02-20T11:48:21Z</time>
      </trkpt>
      <trkpt lat="45.17086" lon="5.95459">
        <ele>2681.8</ele>
        <time>2021-02-20T11:48:22Z</time>
      </trkpt>
      <trkpt lat="45.17086" lon="5.95459">
        <ele>2681.8</ele>
        <time>2021-02-20T11:48:23Z</time>
      </trkpt>
      <trkpt lat="45.17086" lon="5.95461">
        <ele>2681.8</ele>
        <time>2021-02-20T11:48:24Z</time>
      </trkpt>
      <trkpt lat="45.17086" lon="5.95462">
        <ele>2681.8</ele>
        <time>2021-02-20T11:48:25Z</time>
      </trkpt>
      <trkpt lat="45.17086" lon="5.95462">
        <ele>2681.8</ele>
        <time>2021-02-20T11:48:26Z</time>
      </trkpt>
      <trkpt lat="45.17086" lon="5.95462">
        <ele>2681.8</ele>
        <time>2021-02-20T11:48:27Z</time>
      </trkpt>
      <trkpt lat="45.17086" lon="5.95462">
        <ele>2681.8</ele>
        <time>2021-02-20T11:48:28Z</time>
      </trkpt>
      <trkpt lat="45.17087" lon="5.95464">
        <ele>2682.1</ele>
        <time>2021-02-20T11:48:29Z</time>
      </trkpt>
      <trkpt lat="45.17087" lon="5.95465">
        <ele>2682.1</ele>
        <time>2021-02-20T11:48:30Z</time>
      </trkpt>
      <trkpt lat="45.17087" lon="5.95465">
        <ele>2682.1</ele>
        <time>2021-02-20T11:48:31Z</time>
      </trkpt>
      <trkpt lat="45.17087" lon="5.95466">
        <ele>2682.1</ele>
        <time>2021-02-20T11:48:32Z</time>
      </trkpt>
      <trkpt lat="45.17086" lon="5.95466">
        <ele>2682.1</ele>
        <time>2021-02-20T11:48:33Z</time>
      </trkpt>
      <trkpt lat="45.17086" lon="5.95467">
        <ele>2682.1</ele>
        <time>2021-02-20T11:48:34Z</time>
      </trkpt>
      <trkpt lat="45.17086" lon="5.95467">
        <ele>2682.1</ele>
        <time>2021-02-20T11:48:35Z</time>
      </trkpt>
      <trkpt lat="45.17086" lon="5.95467">
        <ele>2682.1</ele>
        <time>2021-02-20T11:48:36Z</time>
      </trkpt>
      <trkpt lat="45.17086" lon="5.95468">
        <ele>2682.3</ele>
        <time>2021-02-20T11:48:37Z</time>
      </trkpt>
      <trkpt lat="45.17087" lon="5.95468">
        <ele>2682.1</ele>
        <time>2021-02-20T11:48:38Z</time>
      </trkpt>
      <trkpt lat="45.17087" lon="5.95468">
        <ele>2682.3</ele>
        <time>2021-02-20T11:48:39Z</time>
      </trkpt>
      <trkpt lat="45.17087" lon="5.95468">
        <ele>2682.3</ele>
        <time>2021-02-20T11:48:40Z</time>
      </trkpt>
      <trkpt lat="45.17087" lon="5.95468">
        <ele>2681.2</ele>
        <time>2021-02-20T11:48:41Z</time>
      </trkpt>
      <trkpt lat="45.17088" lon="5.95469">
        <ele>2681.2</ele>
        <time>2021-02-20T11:48:42Z</time>
      </trkpt>
      <trkpt lat="45.17088" lon="5.95469">
        <ele>2681.2</ele>
        <time>2021-02-20T11:48:43Z</time>
      </trkpt>
      <trkpt lat="45.17089" lon="5.9547">
        <ele>2681.2</ele>
        <time>2021-02-20T11:48:44Z</time>
      </trkpt>
      <trkpt lat="45.17089" lon="5.9547">
        <ele>2681.2</ele>
        <time>2021-02-20T11:48:45Z</time>
      </trkpt>
      <trkpt lat="45.17089" lon="5.9547">
        <ele>2681.2</ele>
        <time>2021-02-20T11:48:46Z</time>
      </trkpt>
      <trkpt lat="45.17089" lon="5.95469">
        <ele>2681.2</ele>
        <time>2021-02-20T11:48:47Z</time>
      </trkpt>
      <trkpt lat="45.17089" lon="5.95468">
        <ele>2681.2</ele>
        <time>2021-02-20T11:48:48Z</time>
      </trkpt>
      <trkpt lat="45.17089" lon="5.95468">
        <ele>2681.2</ele>
        <time>2021-02-20T11:48:49Z</time>
      </trkpt>
      <trkpt lat="45.17089" lon="5.95468">
        <ele>2681.2</ele>
        <time>2021-02-20T11:48:50Z</time>
      </trkpt>
      <trkpt lat="45.17089" lon="5.95468">
        <ele>2681.2</ele>
        <time>2021-02-20T11:48:51Z</time>
      </trkpt>
      <trkpt lat="45.17089" lon="5.95468">
        <ele>2681.2</ele>
        <time>2021-02-20T11:48:52Z</time>
      </trkpt>
      <trkpt lat="45.17089" lon="5.95468">
        <ele>2681.2</ele>
        <time>2021-02-20T11:48:53Z</time>
      </trkpt>
      <trkpt lat="45.17089" lon="5.95468">
        <ele>2681.2</ele>
        <time>2021-02-20T11:48:54Z</time>
      </trkpt>
      <trkpt lat="45.17089" lon="5.95468">
        <ele>2681.2</ele>
        <time>2021-02-20T11:48:55Z</time>
      </trkpt>
      <trkpt lat="45.17089" lon="5.95468">
        <ele>2681.2</ele>
        <time>2021-02-20T11:48:56Z</time>
      </trkpt>
      <trkpt lat="45.17089" lon="5.95468">
        <ele>2681.2</ele>
        <time>2021-02-20T11:48:57Z</time>
      </trkpt>
      <trkpt lat="45.17089" lon="5.95468">
        <ele>2681.2</ele>
        <time>2021-02-20T11:48:58Z</time>
      </trkpt>
      <trkpt lat="45.17089" lon="5.95468">
        <ele>2681.2</ele>
        <time>2021-02-20T11:48:59Z</time>
      </trkpt>
      <trkpt lat="45.17089" lon="5.95468">
        <ele>2681.2</ele>
        <time>2021-02-20T11:49:00Z</time>
      </trkpt>
      <trkpt lat="45.17089" lon="5.95468">
        <ele>2681.2</ele>
        <time>2021-02-20T11:49:01Z</time>
      </trkpt>
      <trkpt lat="45.17089" lon="5.95468">
        <ele>2681.2</ele>
        <time>2021-02-20T11:49:02Z</time>
      </trkpt>
      <trkpt lat="45.17089" lon="5.95468">
        <ele>2681.2</ele>
        <time>2021-02-20T11:49:03Z</time>
      </trkpt>
      <trkpt lat="45.17089" lon="5.95468">
        <ele>2681.2</ele>
        <time>2021-02-20T11:49:04Z</time>
      </trkpt>
      <trkpt lat="45.17089" lon="5.95468">
        <ele>2681.2</ele>
        <time>2021-02-20T11:49:05Z</time>
      </trkpt>
      <trkpt lat="45.17089" lon="5.95468">
        <ele>2681.2</ele>
        <time>2021-02-20T11:49:06Z</time>
      </trkpt>
      <trkpt lat="45.17089" lon="5.95466">
        <ele>2681.3</ele>
        <time>2021-02-20T11:49:07Z</time>
      </trkpt>
      <trkpt lat="45.17089" lon="5.95466">
        <ele>2681.3</ele>
        <time>2021-02-20T11:49:08Z</time>
      </trkpt>
      <trkpt lat="45.17089" lon="5.95466">
        <ele>2681.3</ele>
        <time>2021-02-20T11:49:09Z</time>
      </trkpt>
      <trkpt lat="45.17089" lon="5.95466">
        <ele>2681.3</ele>
        <time>2021-02-20T11:49:10Z</time>
      </trkpt>
      <trkpt lat="45.17089" lon="5.95466">
        <ele>2681.3</ele>
        <time>2021-02-20T11:49:11Z</time>
      </trkpt>
      <trkpt lat="45.1709" lon="5.95466">
        <ele>2681.3</ele>
        <time>2021-02-20T11:49:12Z</time>
      </trkpt>
      <trkpt lat="45.1709" lon="5.95467">
        <ele>2681.3</ele>
        <time>2021-02-20T11:49:13Z</time>
      </trkpt>
      <trkpt lat="45.1709" lon="5.95469">
        <ele>2681.2</ele>
        <time>2021-02-20T11:49:14Z</time>
      </trkpt>
      <trkpt lat="45.1709" lon="5.9547">
        <ele>2681.2</ele>
        <time>2021-02-20T11:49:15Z</time>
      </trkpt>
      <trkpt lat="45.1709" lon="5.95471">
        <ele>2681.2</ele>
        <time>2021-02-20T11:49:16Z</time>
      </trkpt>
      <trkpt lat="45.1709" lon="5.95471">
        <ele>2681.2</ele>
        <time>2021-02-20T11:49:17Z</time>
      </trkpt>
      <trkpt lat="45.17091" lon="5.95472">
        <ele>2679.9</ele>
        <time>2021-02-20T11:49:18Z</time>
      </trkpt>
      <trkpt lat="45.17091" lon="5.95472">
        <ele>2679.6</ele>
        <time>2021-02-20T11:49:19Z</time>
      </trkpt>
      <trkpt lat="45.17091" lon="5.95472">
        <ele>2679.6</ele>
        <time>2021-02-20T11:49:20Z</time>
      </trkpt>
      <trkpt lat="45.17092" lon="5.95473">
        <ele>2679.6</ele>
        <time>2021-02-20T11:49:21Z</time>
      </trkpt>
      <trkpt lat="45.17092" lon="5.95473">
        <ele>2679.6</ele>
        <time>2021-02-20T11:49:22Z</time>
      </trkpt>
      <trkpt lat="45.17092" lon="5.95473">
        <ele>2679.6</ele>
        <time>2021-02-20T11:49:23Z</time>
      </trkpt>
      <trkpt lat="45.17092" lon="5.95473">
        <ele>2679.6</ele>
        <time>2021-02-20T11:49:24Z</time>
      </trkpt>
      <trkpt lat="45.17092" lon="5.95474">
        <ele>2679.6</ele>
        <time>2021-02-20T11:49:25Z</time>
      </trkpt>
      <trkpt lat="45.17093" lon="5.95474">
        <ele>2679.6</ele>
        <time>2021-02-20T11:49:26Z</time>
      </trkpt>
      <trkpt lat="45.17093" lon="5.95475">
        <ele>2679.6</ele>
        <time>2021-02-20T11:49:27Z</time>
      </trkpt>
      <trkpt lat="45.17093" lon="5.95476">
        <ele>2679.6</ele>
        <time>2021-02-20T11:49:28Z</time>
      </trkpt>
      <trkpt lat="45.17093" lon="5.95477">
        <ele>2679.4</ele>
        <time>2021-02-20T11:49:29Z</time>
      </trkpt>
      <trkpt lat="45.17093" lon="5.95477">
        <ele>2679.4</ele>
        <time>2021-02-20T11:49:30Z</time>
      </trkpt>
      <trkpt lat="45.17093" lon="5.95478">
        <ele>2679.4</ele>
        <time>2021-02-20T11:49:31Z</time>
      </trkpt>
      <trkpt lat="45.17094" lon="5.95478">
        <ele>2677.7</ele>
        <time>2021-02-20T11:49:32Z</time>
      </trkpt>
      <trkpt lat="45.17094" lon="5.95478">
        <ele>2677.7</ele>
        <time>2021-02-20T11:49:33Z</time>
      </trkpt>
      <trkpt lat="45.17094" lon="5.95479">
        <ele>2677.7</ele>
        <time>2021-02-20T11:49:34Z</time>
      </trkpt>
      <trkpt lat="45.17094" lon="5.9548">
        <ele>2677.7</ele>
        <time>2021-02-20T11:49:35Z</time>
      </trkpt>
      <trkpt lat="45.17094" lon="5.95481">
        <ele>2677.6</ele>
        <time>2021-02-20T11:49:36Z</time>
      </trkpt>
      <trkpt lat="45.17094" lon="5.95482">
        <ele>2677.6</ele>
        <time>2021-02-20T11:49:37Z</time>
      </trkpt>
      <trkpt lat="45.17094" lon="5.95483">
        <ele>2677.6</ele>
        <time>2021-02-20T11:49:38Z</time>
      </trkpt>
      <trkpt lat="45.17094" lon="5.95484">
        <ele>2677.6</ele>
        <time>2021-02-20T11:49:39Z</time>
      </trkpt>
      <trkpt lat="45.17094" lon="5.95485">
        <ele>2677.6</ele>
        <time>2021-02-20T11:49:40Z</time>
      </trkpt>
      <trkpt lat="45.17094" lon="5.95486">
        <ele>2677.8</ele>
        <time>2021-02-20T11:49:41Z</time>
      </trkpt>
      <trkpt lat="45.17095" lon="5.95487">
        <ele>2677.8</ele>
        <time>2021-02-20T11:49:42Z</time>
      </trkpt>
      <trkpt lat="45.17095" lon="5.95489">
        <ele>2677.8</ele>
        <time>2021-02-20T11:49:43Z</time>
      </trkpt>
      <trkpt lat="45.17095" lon="5.9549">
        <ele>2678.3</ele>
        <time>2021-02-20T11:49:44Z</time>
      </trkpt>
      <trkpt lat="45.17095" lon="5.95491">
        <ele>2678.3</ele>
        <time>2021-02-20T11:49:45Z</time>
      </trkpt>
      <trkpt lat="45.17095" lon="5.95491">
        <ele>2678.3</ele>
        <time>2021-02-20T11:49:46Z</time>
      </trkpt>
      <trkpt lat="45.17095" lon="5.95492">
        <ele>2678.3</ele>
        <time>2021-02-20T11:49:47Z</time>
      </trkpt>
      <trkpt lat="45.17095" lon="5.95492">
        <ele>2678.3</ele>
        <time>2021-02-20T11:49:48Z</time>
      </trkpt>
      <trkpt lat="45.17095" lon="5.95493">
        <ele>2678.3</ele>
        <time>2021-02-20T11:49:49Z</time>
      </trkpt>
      <trkpt lat="45.17095" lon="5.95494">
        <ele>2679.1</ele>
        <time>2021-02-20T11:49:50Z</time>
      </trkpt>
      <trkpt lat="45.17096" lon="5.95495">
        <ele>2679.1</ele>
        <time>2021-02-20T11:49:51Z</time>
      </trkpt>
      <trkpt lat="45.17096" lon="5.95495">
        <ele>2679.1</ele>
        <time>2021-02-20T11:49:52Z</time>
      </trkpt>
      <trkpt lat="45.17096" lon="5.95497">
        <ele>2679.1</ele>
        <time>2021-02-20T11:49:53Z</time>
      </trkpt>
      <trkpt lat="45.17096" lon="5.95497">
        <ele>2679.1</ele>
        <time>2021-02-20T11:49:54Z</time>
      </trkpt>
      <trkpt lat="45.17096" lon="5.95498">
        <ele>2679.9</ele>
        <time>2021-02-20T11:49:55Z</time>
      </trkpt>
      <trkpt lat="45.17096" lon="5.95499">
        <ele>2679.9</ele>
        <time>2021-02-20T11:49:56Z</time>
      </trkpt>
      <trkpt lat="45.17096" lon="5.95499">
        <ele>2679.9</ele>
        <time>2021-02-20T11:49:57Z</time>
      </trkpt>
      <trkpt lat="45.17096" lon="5.95499">
        <ele>2679.9</ele>
        <time>2021-02-20T11:49:58Z</time>
      </trkpt>
      <trkpt lat="45.17096" lon="5.95499">
        <ele>2679.9</ele>
        <time>2021-02-20T11:49:59Z</time>
      </trkpt>
      <trkpt lat="45.17096" lon="5.95499">
        <ele>2679.9</ele>
        <time>2021-02-20T11:50:00Z</time>
      </trkpt>
      <trkpt lat="45.17096" lon="5.95499">
        <ele>2679.9</ele>
        <time>2021-02-20T11:50:01Z</time>
      </trkpt>
      <trkpt lat="45.17096" lon="5.95499">
        <ele>2679.9</ele>
        <time>2021-02-20T11:50:02Z</time>
      </trkpt>
      <trkpt lat="45.17096" lon="5.95499">
        <ele>2679.9</ele>
        <time>2021-02-20T11:50:03Z</time>
      </trkpt>
      <trkpt lat="45.17097" lon="5.95495">
        <ele>2677.2</ele>
        <time>2021-02-20T11:50:04Z</time>
      </trkpt>
      <trkpt lat="45.17097" lon="5.95495">
        <ele>2677.2</ele>
        <time>2021-02-20T11:50:05Z</time>
      </trkpt>
      <trkpt lat="45.17097" lon="5.95496">
        <ele>2677.2</ele>
        <time>2021-02-20T11:50:06Z</time>
      </trkpt>
      <trkpt lat="45.17097" lon="5.95497">
        <ele>2677.2</ele>
        <time>2021-02-20T11:50:07Z</time>
      </trkpt>
      <trkpt lat="45.17097" lon="5.95497">
        <ele>2677.2</ele>
        <time>2021-02-20T11:50:08Z</time>
      </trkpt>
      <trkpt lat="45.17097" lon="5.95498">
        <ele>2678.1</ele>
        <time>2021-02-20T11:50:09Z</time>
      </trkpt>
      <trkpt lat="45.17097" lon="5.95498">
        <ele>2678.1</ele>
        <time>2021-02-20T11:50:10Z</time>
      </trkpt>
      <trkpt lat="45.17097" lon="5.95498">
        <ele>2678.1</ele>
        <time>2021-02-20T11:50:11Z</time>
      </trkpt>
      <trkpt lat="45.17097" lon="5.95497">
        <ele>2677.2</ele>
        <time>2021-02-20T11:50:12Z</time>
      </trkpt>
      <trkpt lat="45.17097" lon="5.95497">
        <ele>2677.2</ele>
        <time>2021-02-20T11:50:13Z</time>
      </trkpt>
      <trkpt lat="45.17097" lon="5.95497">
        <ele>2677.2</ele>
        <time>2021-02-20T11:50:14Z</time>
      </trkpt>
      <trkpt lat="45.17096" lon="5.95497">
        <ele>2679.1</ele>
        <time>2021-02-20T11:50:15Z</time>
      </trkpt>
      <trkpt lat="45.17096" lon="5.95497">
        <ele>2679.1</ele>
        <time>2021-02-20T11:50:16Z</time>
      </trkpt>
      <trkpt lat="45.17096" lon="5.95498">
        <ele>2679.1</ele>
        <time>2021-02-20T11:50:17Z</time>
      </trkpt>
      <trkpt lat="45.17096" lon="5.95499">
        <ele>2679.9</ele>
        <time>2021-02-20T11:50:18Z</time>
      </trkpt>
      <trkpt lat="45.17096" lon="5.95499">
        <ele>2679.9</ele>
        <time>2021-02-20T11:50:19Z</time>
      </trkpt>
      <trkpt lat="45.17096" lon="5.955">
        <ele>2679.9</ele>
        <time>2021-02-20T11:50:20Z</time>
      </trkpt>
      <trkpt lat="45.17096" lon="5.955">
        <ele>2679.9</ele>
        <time>2021-02-20T11:50:21Z</time>
      </trkpt>
      <trkpt lat="45.17096" lon="5.95501">
        <ele>2679.9</ele>
        <time>2021-02-20T11:50:22Z</time>
      </trkpt>
      <trkpt lat="45.17096" lon="5.95502">
        <ele>2679.9</ele>
        <time>2021-02-20T11:50:23Z</time>
      </trkpt>
      <trkpt lat="45.17096" lon="5.95502">
        <ele>2680.9</ele>
        <time>2021-02-20T11:50:24Z</time>
      </trkpt>
      <trkpt lat="45.17096" lon="5.95504">
        <ele>2680.9</ele>
        <time>2021-02-20T11:50:25Z</time>
      </trkpt>
      <trkpt lat="45.17096" lon="5.95505">
        <ele>2680.9</ele>
        <time>2021-02-20T11:50:26Z</time>
      </trkpt>
      <trkpt lat="45.17096" lon="5.95506">
        <ele>2680.9</ele>
        <time>2021-02-20T11:50:27Z</time>
      </trkpt>
      <trkpt lat="45.17096" lon="5.95507">
        <ele>2681.8</ele>
        <time>2021-02-20T11:50:28Z</time>
      </trkpt>
      <trkpt lat="45.17096" lon="5.95507">
        <ele>2681.8</ele>
        <time>2021-02-20T11:50:29Z</time>
      </trkpt>
      <trkpt lat="45.17097" lon="5.95508">
        <ele>2679.9</ele>
        <time>2021-02-20T11:50:30Z</time>
      </trkpt>
      <trkpt lat="45.17097" lon="5.95508">
        <ele>2679.9</ele>
        <time>2021-02-20T11:50:31Z</time>
      </trkpt>
      <trkpt lat="45.17097" lon="5.95508">
        <ele>2679.9</ele>
        <time>2021-02-20T11:50:32Z</time>
      </trkpt>
      <trkpt lat="45.17097" lon="5.95508">
        <ele>2679.9</ele>
        <time>2021-02-20T11:50:33Z</time>
      </trkpt>
      <trkpt lat="45.17098" lon="5.95507">
        <ele>2679.9</ele>
        <time>2021-02-20T11:50:34Z</time>
      </trkpt>
      <trkpt lat="45.17098" lon="5.95507">
        <ele>2679.9</ele>
        <time>2021-02-20T11:50:35Z</time>
      </trkpt>
      <trkpt lat="45.17098" lon="5.95507">
        <ele>2679.9</ele>
        <time>2021-02-20T11:50:36Z</time>
      </trkpt>
      <trkpt lat="45.17098" lon="5.95507">
        <ele>2679.9</ele>
        <time>2021-02-20T11:50:37Z</time>
      </trkpt>
      <trkpt lat="45.17098" lon="5.95507">
        <ele>2679.9</ele>
        <time>2021-02-20T11:50:38Z</time>
      </trkpt>
      <trkpt lat="45.17098" lon="5.95507">
        <ele>2679.9</ele>
        <time>2021-02-20T11:50:39Z</time>
      </trkpt>
      <trkpt lat="45.17099" lon="5.95509">
        <ele>2679.9</ele>
        <time>2021-02-20T11:50:40Z</time>
      </trkpt>
      <trkpt lat="45.17099" lon="5.95509">
        <ele>2679.9</ele>
        <time>2021-02-20T11:50:41Z</time>
      </trkpt>
      <trkpt lat="45.17099" lon="5.9551">
        <ele>2679.9</ele>
        <time>2021-02-20T11:50:42Z</time>
      </trkpt>
      <trkpt lat="45.17099" lon="5.9551">
        <ele>2679.9</ele>
        <time>2021-02-20T11:50:43Z</time>
      </trkpt>
      <trkpt lat="45.17099" lon="5.95511">
        <ele>2680.7</ele>
        <time>2021-02-20T11:50:44Z</time>
      </trkpt>
      <trkpt lat="45.17099" lon="5.95511">
        <ele>2680.7</ele>
        <time>2021-02-20T11:50:45Z</time>
      </trkpt>
      <trkpt lat="45.17099" lon="5.95512">
        <ele>2680.7</ele>
        <time>2021-02-20T11:50:46Z</time>
      </trkpt>
      <trkpt lat="45.171" lon="5.95513">
        <ele>2678.8</ele>
        <time>2021-02-20T11:50:47Z</time>
      </trkpt>
      <trkpt lat="45.17099" lon="5.95513">
        <ele>2680.7</ele>
        <time>2021-02-20T11:50:48Z</time>
      </trkpt>
      <trkpt lat="45.17099" lon="5.95513">
        <ele>2680.7</ele>
        <time>2021-02-20T11:50:49Z</time>
      </trkpt>
      <trkpt lat="45.17099" lon="5.95513">
        <ele>2680.7</ele>
        <time>2021-02-20T11:50:50Z</time>
      </trkpt>
      <trkpt lat="45.17099" lon="5.95513">
        <ele>2680.7</ele>
        <time>2021-02-20T11:50:51Z</time>
      </trkpt>
      <trkpt lat="45.17099" lon="5.95513">
        <ele>2680.7</ele>
        <time>2021-02-20T11:50:52Z</time>
      </trkpt>
      <trkpt lat="45.17099" lon="5.95513">
        <ele>2680.7</ele>
        <time>2021-02-20T11:50:53Z</time>
      </trkpt>
      <trkpt lat="45.17099" lon="5.95513">
        <ele>2680.7</ele>
        <time>2021-02-20T11:50:54Z</time>
      </trkpt>
      <trkpt lat="45.17099" lon="5.95513">
        <ele>2680.7</ele>
        <time>2021-02-20T11:50:55Z</time>
      </trkpt>
      <trkpt lat="45.17099" lon="5.95513">
        <ele>2680.7</ele>
        <time>2021-02-20T11:50:56Z</time>
      </trkpt>
      <trkpt lat="45.17099" lon="5.95513">
        <ele>2680.7</ele>
        <time>2021-02-20T11:50:57Z</time>
      </trkpt>
      <trkpt lat="45.17099" lon="5.95513">
        <ele>2680.7</ele>
        <time>2021-02-20T11:50:58Z</time>
      </trkpt>
      <trkpt lat="45.17099" lon="5.95513">
        <ele>2680.7</ele>
        <time>2021-02-20T11:50:59Z</time>
      </trkpt>
      <trkpt lat="45.17099" lon="5.95513">
        <ele>2680.7</ele>
        <time>2021-02-20T11:51:00Z</time>
      </trkpt>
      <trkpt lat="45.17099" lon="5.95513">
        <ele>2680.7</ele>
        <time>2021-02-20T11:51:01Z</time>
      </trkpt>
      <trkpt lat="45.17099" lon="5.95513">
        <ele>2680.7</ele>
        <time>2021-02-20T11:51:02Z</time>
      </trkpt>
      <trkpt lat="45.17099" lon="5.95513">
        <ele>2680.7</ele>
        <time>2021-02-20T11:51:03Z</time>
      </trkpt>
      <trkpt lat="45.17099" lon="5.95513">
        <ele>2680.7</ele>
        <time>2021-02-20T11:51:04Z</time>
      </trkpt>
      <trkpt lat="45.17099" lon="5.95512">
        <ele>2680.7</ele>
        <time>2021-02-20T11:51:05Z</time>
      </trkpt>
      <trkpt lat="45.17099" lon="5.95512">
        <ele>2680.7</ele>
        <time>2021-02-20T11:51:06Z</time>
      </trkpt>
      <trkpt lat="45.171" lon="5.95513">
        <ele>2678.8</ele>
        <time>2021-02-20T11:51:07Z</time>
      </trkpt>
      <trkpt lat="45.171" lon="5.95513">
        <ele>2678.8</ele>
        <time>2021-02-20T11:51:08Z</time>
      </trkpt>
      <trkpt lat="45.171" lon="5.95514">
        <ele>2678.8</ele>
        <time>2021-02-20T11:51:09Z</time>
      </trkpt>
      <trkpt lat="45.171" lon="5.95515">
        <ele>2678.8</ele>
        <time>2021-02-20T11:51:10Z</time>
      </trkpt>
      <trkpt lat="45.171" lon="5.95516">
        <ele>2679.4</ele>
        <time>2021-02-20T11:51:11Z</time>
      </trkpt>
      <trkpt lat="45.171" lon="5.95516">
        <ele>2679.4</ele>
        <time>2021-02-20T11:51:12Z</time>
      </trkpt>
      <trkpt lat="45.171" lon="5.95517">
        <ele>2679.4</ele>
        <time>2021-02-20T11:51:13Z</time>
      </trkpt>
      <trkpt lat="45.171" lon="5.95518">
        <ele>2679.4</ele>
        <time>2021-02-20T11:51:14Z</time>
      </trkpt>
      <trkpt lat="45.171" lon="5.95518">
        <ele>2679.4</ele>
        <time>2021-02-20T11:51:15Z</time>
      </trkpt>
      <trkpt lat="45.171" lon="5.95519">
        <ele>2679.4</ele>
        <time>2021-02-20T11:51:16Z</time>
      </trkpt>
      <trkpt lat="45.171" lon="5.95519">
        <ele>2679.4</ele>
        <time>2021-02-20T11:51:17Z</time>
      </trkpt>
      <trkpt lat="45.171" lon="5.95519">
        <ele>2679.9</ele>
        <time>2021-02-20T11:51:18Z</time>
      </trkpt>
      <trkpt lat="45.171" lon="5.9552">
        <ele>2679.9</ele>
        <time>2021-02-20T11:51:19Z</time>
      </trkpt>
      <trkpt lat="45.171" lon="5.9552">
        <ele>2679.9</ele>
        <time>2021-02-20T11:51:20Z</time>
      </trkpt>
      <trkpt lat="45.171" lon="5.95521">
        <ele>2679.9</ele>
        <time>2021-02-20T11:51:21Z</time>
      </trkpt>
      <trkpt lat="45.171" lon="5.95521">
        <ele>2679.9</ele>
        <time>2021-02-20T11:51:22Z</time>
      </trkpt>
      <trkpt lat="45.171" lon="5.95522">
        <ele>2679.9</ele>
        <time>2021-02-20T11:51:23Z</time>
      </trkpt>
      <trkpt lat="45.171" lon="5.95523">
        <ele>2679.9</ele>
        <time>2021-02-20T11:51:24Z</time>
      </trkpt>
      <trkpt lat="45.171" lon="5.95523">
        <ele>2680.3</ele>
        <time>2021-02-20T11:51:25Z</time>
      </trkpt>
      <trkpt lat="45.171" lon="5.95524">
        <ele>2680.3</ele>
        <time>2021-02-20T11:51:26Z</time>
      </trkpt>
      <trkpt lat="45.171" lon="5.95524">
        <ele>2680.3</ele>
        <time>2021-02-20T11:51:27Z</time>
      </trkpt>
      <trkpt lat="45.171" lon="5.95524">
        <ele>2680.3</ele>
        <time>2021-02-20T11:51:28Z</time>
      </trkpt>
      <trkpt lat="45.171" lon="5.95525">
        <ele>2680.3</ele>
        <time>2021-02-20T11:51:29Z</time>
      </trkpt>
      <trkpt lat="45.17101" lon="5.95525">
        <ele>2680.3</ele>
        <time>2021-02-20T11:51:30Z</time>
      </trkpt>
      <trkpt lat="45.17101" lon="5.95526">
        <ele>2680.3</ele>
        <time>2021-02-20T11:51:31Z</time>
      </trkpt>
      <trkpt lat="45.17101" lon="5.95525">
        <ele>2680.3</ele>
        <time>2021-02-20T11:51:32Z</time>
      </trkpt>
      <trkpt lat="45.17101" lon="5.95525">
        <ele>2680.3</ele>
        <time>2021-02-20T11:51:33Z</time>
      </trkpt>
      <trkpt lat="45.17101" lon="5.95526">
        <ele>2680.3</ele>
        <time>2021-02-20T11:51:34Z</time>
      </trkpt>
      <trkpt lat="45.17101" lon="5.95526">
        <ele>2680.3</ele>
        <time>2021-02-20T11:51:35Z</time>
      </trkpt>
      <trkpt lat="45.17101" lon="5.95527">
        <ele>2680.3</ele>
        <time>2021-02-20T11:51:36Z</time>
      </trkpt>
      <trkpt lat="45.17102" lon="5.95528">
        <ele>2680.3</ele>
        <time>2021-02-20T11:51:37Z</time>
      </trkpt>
      <trkpt lat="45.17102" lon="5.95528">
        <ele>2680.6</ele>
        <time>2021-02-20T11:51:38Z</time>
      </trkpt>
      <trkpt lat="45.17102" lon="5.95528">
        <ele>2680.6</ele>
        <time>2021-02-20T11:51:39Z</time>
      </trkpt>
      <trkpt lat="45.17103" lon="5.95528">
        <ele>2680.6</ele>
        <time>2021-02-20T11:51:40Z</time>
      </trkpt>
      <trkpt lat="45.17103" lon="5.95528">
        <ele>2678.8</ele>
        <time>2021-02-20T11:51:41Z</time>
      </trkpt>
      <trkpt lat="45.17103" lon="5.95529">
        <ele>2678.8</ele>
        <time>2021-02-20T11:51:42Z</time>
      </trkpt>
      <trkpt lat="45.17103" lon="5.95529">
        <ele>2678.8</ele>
        <time>2021-02-20T11:51:43Z</time>
      </trkpt>
      <trkpt lat="45.17103" lon="5.95529">
        <ele>2678.8</ele>
        <time>2021-02-20T11:51:44Z</time>
      </trkpt>
      <trkpt lat="45.17103" lon="5.9553">
        <ele>2678.8</ele>
        <time>2021-02-20T11:51:45Z</time>
      </trkpt>
      <trkpt lat="45.17103" lon="5.95531">
        <ele>2678.8</ele>
        <time>2021-02-20T11:51:46Z</time>
      </trkpt>
      <trkpt lat="45.17103" lon="5.95531">
        <ele>2678.8</ele>
        <time>2021-02-20T11:51:47Z</time>
      </trkpt>
      <trkpt lat="45.17103" lon="5.9553">
        <ele>2678.8</ele>
        <time>2021-02-20T11:51:48Z</time>
      </trkpt>
      <trkpt lat="45.17103" lon="5.9553">
        <ele>2678.8</ele>
        <time>2021-02-20T11:51:49Z</time>
      </trkpt>
      <trkpt lat="45.17103" lon="5.9553">
        <ele>2678.8</ele>
        <time>2021-02-20T11:51:50Z</time>
      </trkpt>
      <trkpt lat="45.17103" lon="5.95529">
        <ele>2680.6</ele>
        <time>2021-02-20T11:51:51Z</time>
      </trkpt>
      <trkpt lat="45.17103" lon="5.95529">
        <ele>2680.6</ele>
        <time>2021-02-20T11:51:52Z</time>
      </trkpt>
      <trkpt lat="45.17103" lon="5.95529">
        <ele>2680.6</ele>
        <time>2021-02-20T11:51:53Z</time>
      </trkpt>
      <trkpt lat="45.17103" lon="5.95529">
        <ele>2680.6</ele>
        <time>2021-02-20T11:51:54Z</time>
      </trkpt>
      <trkpt lat="45.17103" lon="5.95529">
        <ele>2680.6</ele>
        <time>2021-02-20T11:51:55Z</time>
      </trkpt>
      <trkpt lat="45.17103" lon="5.95529">
        <ele>2680.6</ele>
        <time>2021-02-20T11:51:56Z</time>
      </trkpt>
      <trkpt lat="45.17103" lon="5.95529">
        <ele>2680.6</ele>
        <time>2021-02-20T11:51:57Z</time>
      </trkpt>
      <trkpt lat="45.17103" lon="5.95529">
        <ele>2680.6</ele>
        <time>2021-02-20T11:51:58Z</time>
      </trkpt>
      <trkpt lat="45.17103" lon="5.9553">
        <ele>2680.6</ele>
        <time>2021-02-20T11:51:59Z</time>
      </trkpt>
      <trkpt lat="45.17103" lon="5.95531">
        <ele>2678.8</ele>
        <time>2021-02-20T11:52:00Z</time>
      </trkpt>
      <trkpt lat="45.17103" lon="5.95531">
        <ele>2678.8</ele>
        <time>2021-02-20T11:52:01Z</time>
      </trkpt>
      <trkpt lat="45.17103" lon="5.95531">
        <ele>2678.8</ele>
        <time>2021-02-20T11:52:02Z</time>
      </trkpt>
      <trkpt lat="45.17103" lon="5.95532">
        <ele>2679.1</ele>
        <time>2021-02-20T11:52:03Z</time>
      </trkpt>
      <trkpt lat="45.17103" lon="5.95532">
        <ele>2679.1</ele>
        <time>2021-02-20T11:52:04Z</time>
      </trkpt>
      <trkpt lat="45.17103" lon="5.95532">
        <ele>2679.1</ele>
        <time>2021-02-20T11:52:05Z</time>
      </trkpt>
      <trkpt lat="45.17103" lon="5.95532">
        <ele>2679.1</ele>
        <time>2021-02-20T11:52:06Z</time>
      </trkpt>
      <trkpt lat="45.17103" lon="5.95532">
        <ele>2679.1</ele>
        <time>2021-02-20T11:52:07Z</time>
      </trkpt>
      <trkpt lat="45.17103" lon="5.95532">
        <ele>2679.1</ele>
        <time>2021-02-20T11:52:08Z</time>
      </trkpt>
      <trkpt lat="45.17103" lon="5.95532">
        <ele>2679.1</ele>
        <time>2021-02-20T11:52:09Z</time>
      </trkpt>
      <trkpt lat="45.17103" lon="5.95532">
        <ele>2679.1</ele>
        <time>2021-02-20T11:52:10Z</time>
      </trkpt>
      <trkpt lat="45.17103" lon="5.95532">
        <ele>2679.1</ele>
        <time>2021-02-20T11:52:11Z</time>
      </trkpt>
      <trkpt lat="45.17103" lon="5.95533">
        <ele>2679.1</ele>
        <time>2021-02-20T11:52:12Z</time>
      </trkpt>
      <trkpt lat="45.17104" lon="5.95534">
        <ele>2679.1</ele>
        <time>2021-02-20T11:52:13Z</time>
      </trkpt>
      <trkpt lat="45.17104" lon="5.95535">
        <ele>2679.1</ele>
        <time>2021-02-20T11:52:14Z</time>
      </trkpt>
      <trkpt lat="45.17104" lon="5.95535">
        <ele>2679.1</ele>
        <time>2021-02-20T11:52:15Z</time>
      </trkpt>
      <trkpt lat="45.17104" lon="5.95536">
        <ele>2679.1</ele>
        <time>2021-02-20T11:52:16Z</time>
      </trkpt>
      <trkpt lat="45.17104" lon="5.95536">
        <ele>2679.1</ele>
        <time>2021-02-20T11:52:17Z</time>
      </trkpt>
      <trkpt lat="45.17104" lon="5.95536">
        <ele>2679.1</ele>
        <time>2021-02-20T11:52:18Z</time>
      </trkpt>
      <trkpt lat="45.17105" lon="5.95537">
        <ele>2679.7</ele>
        <time>2021-02-20T11:52:19Z</time>
      </trkpt>
      <trkpt lat="45.17105" lon="5.95537">
        <ele>2679.7</ele>
        <time>2021-02-20T11:52:20Z</time>
      </trkpt>
      <trkpt lat="45.17105" lon="5.95537">
        <ele>2679.7</ele>
        <time>2021-02-20T11:52:21Z</time>
      </trkpt>
      <trkpt lat="45.17105" lon="5.95537">
        <ele>2679.7</ele>
        <time>2021-02-20T11:52:22Z</time>
      </trkpt>
      <trkpt lat="45.17105" lon="5.95537">
        <ele>2679.7</ele>
        <time>2021-02-20T11:52:23Z</time>
      </trkpt>
      <trkpt lat="45.17104" lon="5.95537">
        <ele>2679.7</ele>
        <time>2021-02-20T11:52:24Z</time>
      </trkpt>
      <trkpt lat="45.17105" lon="5.95537">
        <ele>2679.7</ele>
        <time>2021-02-20T11:52:25Z</time>
      </trkpt>
      <trkpt lat="45.17105" lon="5.95537">
        <ele>2679.7</ele>
        <time>2021-02-20T11:52:26Z</time>
      </trkpt>
      <trkpt lat="45.17105" lon="5.95537">
        <ele>2679.7</ele>
        <time>2021-02-20T11:52:27Z</time>
      </trkpt>
      <trkpt lat="45.17105" lon="5.95537">
        <ele>2679.7</ele>
        <time>2021-02-20T11:52:28Z</time>
      </trkpt>
      <trkpt lat="45.17105" lon="5.95537">
        <ele>2679.7</ele>
        <time>2021-02-20T11:52:29Z</time>
      </trkpt>
      <trkpt lat="45.17105" lon="5.95538">
        <ele>2679.7</ele>
        <time>2021-02-20T11:52:30Z</time>
      </trkpt>
      <trkpt lat="45.17105" lon="5.95538">
        <ele>2679.7</ele>
        <time>2021-02-20T11:52:31Z</time>
      </trkpt>
      <trkpt lat="45.17105" lon="5.95538">
        <ele>2679.7</ele>
        <time>2021-02-20T11:52:32Z</time>
      </trkpt>
      <trkpt lat="45.17106" lon="5.95539">
        <ele>2677.8</ele>
        <time>2021-02-20T11:52:33Z</time>
      </trkpt>
      <trkpt lat="45.17106" lon="5.95539">
        <ele>2677.8</ele>
        <time>2021-02-20T11:52:34Z</time>
      </trkpt>
      <trkpt lat="45.17106" lon="5.95539">
        <ele>2677.8</ele>
        <time>2021-02-20T11:52:35Z</time>
      </trkpt>
      <trkpt lat="45.17106" lon="5.9554">
        <ele>2677.8</ele>
        <time>2021-02-20T11:52:36Z</time>
      </trkpt>
      <trkpt lat="45.17106" lon="5.9554">
        <ele>2677.8</ele>
        <time>2021-02-20T11:52:37Z</time>
      </trkpt>
      <trkpt lat="45.17106" lon="5.9554">
        <ele>2677.8</ele>
        <time>2021-02-20T11:52:38Z</time>
      </trkpt>
      <trkpt lat="45.17106" lon="5.9554">
        <ele>2677.8</ele>
        <time>2021-02-20T11:52:39Z</time>
      </trkpt>
      <trkpt lat="45.17106" lon="5.9554">
        <ele>2677.8</ele>
        <time>2021-02-20T11:52:40Z</time>
      </trkpt>
      <trkpt lat="45.17106" lon="5.9554">
        <ele>2677.8</ele>
        <time>2021-02-20T11:52:41Z</time>
      </trkpt>
      <trkpt lat="45.17107" lon="5.9554">
        <ele>2677.8</ele>
        <time>2021-02-20T11:52:42Z</time>
      </trkpt>
      <trkpt lat="45.17107" lon="5.95541">
        <ele>2678.4</ele>
        <time>2021-02-20T11:52:43Z</time>
      </trkpt>
      <trkpt lat="45.17107" lon="5.95541">
        <ele>2678.4</ele>
        <time>2021-02-20T11:52:44Z</time>
      </trkpt>
      <trkpt lat="45.17107" lon="5.95541">
        <ele>2678.4</ele>
        <time>2021-02-20T11:52:45Z</time>
      </trkpt>
      <trkpt lat="45.17107" lon="5.95541">
        <ele>2678.4</ele>
        <time>2021-02-20T11:52:46Z</time>
      </trkpt>
      <trkpt lat="45.17107" lon="5.95541">
        <ele>2678.4</ele>
        <time>2021-02-20T11:52:47Z</time>
      </trkpt>
      <trkpt lat="45.17107" lon="5.95543">
        <ele>2678.4</ele>
        <time>2021-02-20T11:52:48Z</time>
      </trkpt>
      <trkpt lat="45.17107" lon="5.95544">
        <ele>2678.4</ele>
        <time>2021-02-20T11:52:49Z</time>
      </trkpt>
      <trkpt lat="45.17108" lon="5.95544">
        <ele>2678.4</ele>
        <time>2021-02-20T11:52:50Z</time>
      </trkpt>
      <trkpt lat="45.17108" lon="5.95544">
        <ele>2678.4</ele>
        <time>2021-02-20T11:52:51Z</time>
      </trkpt>
      <trkpt lat="45.17108" lon="5.95545">
        <ele>2679.2</ele>
        <time>2021-02-20T11:52:52Z</time>
      </trkpt>
      <trkpt lat="45.17109" lon="5.95545">
        <ele>2677.3</ele>
        <time>2021-02-20T11:52:53Z</time>
      </trkpt>
      <trkpt lat="45.17109" lon="5.95546">
        <ele>2677.3</ele>
        <time>2021-02-20T11:52:54Z</time>
      </trkpt>
      <trkpt lat="45.17109" lon="5.95547">
        <ele>2677.3</ele>
        <time>2021-02-20T11:52:55Z</time>
      </trkpt>
      <trkpt lat="45.17109" lon="5.95547">
        <ele>2677.3</ele>
        <time>2021-02-20T11:52:56Z</time>
      </trkpt>
      <trkpt lat="45.1711" lon="5.95547">
        <ele>2677.3</ele>
        <time>2021-02-20T11:52:57Z</time>
      </trkpt>
      <trkpt lat="45.1711" lon="5.95547">
        <ele>2677.3</ele>
        <time>2021-02-20T11:52:58Z</time>
      </trkpt>
      <trkpt lat="45.1711" lon="5.95547">
        <ele>2677.3</ele>
        <time>2021-02-20T11:52:59Z</time>
      </trkpt>
      <trkpt lat="45.1711" lon="5.95547">
        <ele>2677.3</ele>
        <time>2021-02-20T11:53:00Z</time>
      </trkpt>
      <trkpt lat="45.17111" lon="5.95547">
        <ele>2677.3</ele>
        <time>2021-02-20T11:53:01Z</time>
      </trkpt>
      <trkpt lat="45.17112" lon="5.95547">
        <ele>2677.3</ele>
        <time>2021-02-20T11:53:02Z</time>
      </trkpt>
      <trkpt lat="45.17112" lon="5.95547">
        <ele>2675.3</ele>
        <time>2021-02-20T11:53:03Z</time>
      </trkpt>
      <trkpt lat="45.17112" lon="5.95548">
        <ele>2677.3</ele>
        <time>2021-02-20T11:53:04Z</time>
      </trkpt>
      <trkpt lat="45.17111" lon="5.95548">
        <ele>2677.3</ele>
        <time>2021-02-20T11:53:05Z</time>
      </trkpt>
      <trkpt lat="45.17111" lon="5.95548">
        <ele>2677.3</ele>
        <time>2021-02-20T11:53:06Z</time>
      </trkpt>
      <trkpt lat="45.17111" lon="5.95548">
        <ele>2677.3</ele>
        <time>2021-02-20T11:53:07Z</time>
      </trkpt>
      <trkpt lat="45.1711" lon="5.95549">
        <ele>2678.2</ele>
        <time>2021-02-20T11:53:08Z</time>
      </trkpt>
      <trkpt lat="45.1711" lon="5.9555">
        <ele>2678.2</ele>
        <time>2021-02-20T11:53:09Z</time>
      </trkpt>
      <trkpt lat="45.1711" lon="5.9555">
        <ele>2678.2</ele>
        <time>2021-02-20T11:53:10Z</time>
      </trkpt>
      <trkpt lat="45.17109" lon="5.9555">
        <ele>2678.2</ele>
        <time>2021-02-20T11:53:11Z</time>
      </trkpt>
      <trkpt lat="45.17109" lon="5.9555">
        <ele>2678.2</ele>
        <time>2021-02-20T11:53:12Z</time>
      </trkpt>
      <trkpt lat="45.17109" lon="5.9555">
        <ele>2678.2</ele>
        <time>2021-02-20T11:53:13Z</time>
      </trkpt>
      <trkpt lat="45.17109" lon="5.95549">
        <ele>2678.2</ele>
        <time>2021-02-20T11:53:14Z</time>
      </trkpt>
      <trkpt lat="45.1711" lon="5.95549">
        <ele>2677.3</ele>
        <time>2021-02-20T11:53:15Z</time>
      </trkpt>
      <trkpt lat="45.1711" lon="5.95549">
        <ele>2678.2</ele>
        <time>2021-02-20T11:53:16Z</time>
      </trkpt>
      <trkpt lat="45.17111" lon="5.9555">
        <ele>2678.2</ele>
        <time>2021-02-20T11:53:17Z</time>
      </trkpt>
      <trkpt lat="45.17111" lon="5.95551">
        <ele>2678.2</ele>
        <time>2021-02-20T11:53:18Z</time>
      </trkpt>
      <trkpt lat="45.17111" lon="5.95551">
        <ele>2678.2</ele>
        <time>2021-02-20T11:53:19Z</time>
      </trkpt>
      <trkpt lat="45.17111" lon="5.95552">
        <ele>2678.2</ele>
        <time>2021-02-20T11:53:20Z</time>
      </trkpt>
      <trkpt lat="45.17111" lon="5.95553">
        <ele>2678.2</ele>
        <time>2021-02-20T11:53:21Z</time>
      </trkpt>
      <trkpt lat="45.17111" lon="5.95554">
        <ele>2679.2</ele>
        <time>2021-02-20T11:53:22Z</time>
      </trkpt>
      <trkpt lat="45.17111" lon="5.95555">
        <ele>2679.2</ele>
        <time>2021-02-20T11:53:23Z</time>
      </trkpt>
      <trkpt lat="45.17111" lon="5.95557">
        <ele>2679.2</ele>
        <time>2021-02-20T11:53:24Z</time>
      </trkpt>
      <trkpt lat="45.17112" lon="5.95558">
        <ele>2680.2</ele>
        <time>2021-02-20T11:53:25Z</time>
      </trkpt>
      <trkpt lat="45.17112" lon="5.95559">
        <ele>2680.2</ele>
        <time>2021-02-20T11:53:26Z</time>
      </trkpt>
      <trkpt lat="45.17111" lon="5.95559">
        <ele>2680.2</ele>
        <time>2021-02-20T11:53:27Z</time>
      </trkpt>
      <trkpt lat="45.17111" lon="5.9556">
        <ele>2680.2</ele>
        <time>2021-02-20T11:53:28Z</time>
      </trkpt>
      <trkpt lat="45.17111" lon="5.9556">
        <ele>2680.2</ele>
        <time>2021-02-20T11:53:29Z</time>
      </trkpt>
      <trkpt lat="45.17112" lon="5.9556">
        <ele>2678.1</ele>
        <time>2021-02-20T11:53:30Z</time>
      </trkpt>
      <trkpt lat="45.17112" lon="5.95561">
        <ele>2678.1</ele>
        <time>2021-02-20T11:53:31Z</time>
      </trkpt>
      <trkpt lat="45.17112" lon="5.95561">
        <ele>2678.1</ele>
        <time>2021-02-20T11:53:32Z</time>
      </trkpt>
      <trkpt lat="45.17112" lon="5.95561">
        <ele>2678.1</ele>
        <time>2021-02-20T11:53:33Z</time>
      </trkpt>
      <trkpt lat="45.17112" lon="5.95562">
        <ele>2678.1</ele>
        <time>2021-02-20T11:53:34Z</time>
      </trkpt>
      <trkpt lat="45.17112" lon="5.95562">
        <ele>2681.4</ele>
        <time>2021-02-20T11:53:35Z</time>
      </trkpt>
      <trkpt lat="45.17111" lon="5.95564">
        <ele>2681.4</ele>
        <time>2021-02-20T11:53:36Z</time>
      </trkpt>
      <trkpt lat="45.17111" lon="5.95564">
        <ele>2681.4</ele>
        <time>2021-02-20T11:53:37Z</time>
      </trkpt>
      <trkpt lat="45.17111" lon="5.95566">
        <ele>2681.4</ele>
        <time>2021-02-20T11:53:38Z</time>
      </trkpt>
      <trkpt lat="45.17111" lon="5.95567">
        <ele>2682.5</ele>
        <time>2021-02-20T11:53:39Z</time>
      </trkpt>
      <trkpt lat="45.17111" lon="5.95567">
        <ele>2682.5</ele>
        <time>2021-02-20T11:53:40Z</time>
      </trkpt>
      <trkpt lat="45.17112" lon="5.95568">
        <ele>2680.4</ele>
        <time>2021-02-20T11:53:41Z</time>
      </trkpt>
      <trkpt lat="45.17112" lon="5.95569">
        <ele>2680.4</ele>
        <time>2021-02-20T11:53:42Z</time>
      </trkpt>
      <trkpt lat="45.17112" lon="5.9557">
        <ele>2680.4</ele>
        <time>2021-02-20T11:53:43Z</time>
      </trkpt>
      <trkpt lat="45.17112" lon="5.9557">
        <ele>2680.4</ele>
        <time>2021-02-20T11:53:44Z</time>
      </trkpt>
      <trkpt lat="45.17112" lon="5.95572">
        <ele>2681.5</ele>
        <time>2021-02-20T11:53:45Z</time>
      </trkpt>
      <trkpt lat="45.17112" lon="5.95572">
        <ele>2681.5</ele>
        <time>2021-02-20T11:53:46Z</time>
      </trkpt>
      <trkpt lat="45.17112" lon="5.95573">
        <ele>2681.5</ele>
        <time>2021-02-20T11:53:47Z</time>
      </trkpt>
      <trkpt lat="45.17111" lon="5.95574">
        <ele>2683.7</ele>
        <time>2021-02-20T11:53:48Z</time>
      </trkpt>
      <trkpt lat="45.17111" lon="5.95575">
        <ele>2684.9</ele>
        <time>2021-02-20T11:53:49Z</time>
      </trkpt>
      <trkpt lat="45.17111" lon="5.95576">
        <ele>2684.9</ele>
        <time>2021-02-20T11:53:50Z</time>
      </trkpt>
      <trkpt lat="45.17111" lon="5.95577">
        <ele>2684.9</ele>
        <time>2021-02-20T11:53:51Z</time>
      </trkpt>
      <trkpt lat="45.1711" lon="5.95578">
        <ele>2684.9</ele>
        <time>2021-02-20T11:53:52Z</time>
      </trkpt>
      <trkpt lat="45.1711" lon="5.95578">
        <ele>2684.9</ele>
        <time>2021-02-20T11:53:53Z</time>
      </trkpt>
      <trkpt lat="45.1711" lon="5.95578">
        <ele>2684.9</ele>
        <time>2021-02-20T11:53:54Z</time>
      </trkpt>
      <trkpt lat="45.1711" lon="5.95579">
        <ele>2684.9</ele>
        <time>2021-02-20T11:53:55Z</time>
      </trkpt>
      <trkpt lat="45.1711" lon="5.95579">
        <ele>2686</ele>
        <time>2021-02-20T11:53:56Z</time>
      </trkpt>
      <trkpt lat="45.17109" lon="5.9558">
        <ele>2686</ele>
        <time>2021-02-20T11:53:57Z</time>
      </trkpt>
      <trkpt lat="45.17109" lon="5.9558">
        <ele>2686</ele>
        <time>2021-02-20T11:53:58Z</time>
      </trkpt>
      <trkpt lat="45.17109" lon="5.9558">
        <ele>2686</ele>
        <time>2021-02-20T11:53:59Z</time>
      </trkpt>
      <trkpt lat="45.17109" lon="5.9558">
        <ele>2688.1</ele>
        <time>2021-02-20T11:54:00Z</time>
      </trkpt>
      <trkpt lat="45.17108" lon="5.95581">
        <ele>2688.1</ele>
        <time>2021-02-20T11:54:01Z</time>
      </trkpt>
      <trkpt lat="45.17108" lon="5.95582">
        <ele>2688.1</ele>
        <time>2021-02-20T11:54:02Z</time>
      </trkpt>
      <trkpt lat="45.17108" lon="5.95582">
        <ele>2688.1</ele>
        <time>2021-02-20T11:54:03Z</time>
      </trkpt>
      <trkpt lat="45.17108" lon="5.95582">
        <ele>2688.1</ele>
        <time>2021-02-20T11:54:04Z</time>
      </trkpt>
      <trkpt lat="45.17109" lon="5.95583">
        <ele>2688.1</ele>
        <time>2021-02-20T11:54:05Z</time>
      </trkpt>
      <trkpt lat="45.17109" lon="5.95583">
        <ele>2686</ele>
        <time>2021-02-20T11:54:06Z</time>
      </trkpt>
      <trkpt lat="45.17109" lon="5.95583">
        <ele>2686</ele>
        <time>2021-02-20T11:54:07Z</time>
      </trkpt>
      <trkpt lat="45.17109" lon="5.95583">
        <ele>2686</ele>
        <time>2021-02-20T11:54:08Z</time>
      </trkpt>
      <trkpt lat="45.17109" lon="5.95582">
        <ele>2686</ele>
        <time>2021-02-20T11:54:09Z</time>
      </trkpt>
      <trkpt lat="45.17109" lon="5.95582">
        <ele>2688.1</ele>
        <time>2021-02-20T11:54:10Z</time>
      </trkpt>
      <trkpt lat="45.17108" lon="5.95581">
        <ele>2688.1</ele>
        <time>2021-02-20T11:54:11Z</time>
      </trkpt>
      <trkpt lat="45.17108" lon="5.95581">
        <ele>2688.1</ele>
        <time>2021-02-20T11:54:12Z</time>
      </trkpt>
      <trkpt lat="45.17108" lon="5.95582">
        <ele>2688.1</ele>
        <time>2021-02-20T11:54:13Z</time>
      </trkpt>
      <trkpt lat="45.17108" lon="5.95582">
        <ele>2688.1</ele>
        <time>2021-02-20T11:54:14Z</time>
      </trkpt>
      <trkpt lat="45.17108" lon="5.95583">
        <ele>2688.1</ele>
        <time>2021-02-20T11:54:15Z</time>
      </trkpt>
      <trkpt lat="45.17108" lon="5.95583">
        <ele>2688.1</ele>
        <time>2021-02-20T11:54:16Z</time>
      </trkpt>
      <trkpt lat="45.17108" lon="5.95583">
        <ele>2688.1</ele>
        <time>2021-02-20T11:54:17Z</time>
      </trkpt>
      <trkpt lat="45.17108" lon="5.95583">
        <ele>2688.1</ele>
        <time>2021-02-20T11:54:18Z</time>
      </trkpt>
      <trkpt lat="45.17108" lon="5.95583">
        <ele>2688.1</ele>
        <time>2021-02-20T11:54:19Z</time>
      </trkpt>
      <trkpt lat="45.17108" lon="5.95583">
        <ele>2688.1</ele>
        <time>2021-02-20T11:54:20Z</time>
      </trkpt>
      <trkpt lat="45.17108" lon="5.95583">
        <ele>2688.1</ele>
        <time>2021-02-20T11:54:21Z</time>
      </trkpt>
      <trkpt lat="45.17108" lon="5.95583">
        <ele>2688.1</ele>
        <time>2021-02-20T11:54:22Z</time>
      </trkpt>
      <trkpt lat="45.17108" lon="5.95583">
        <ele>2688.1</ele>
        <time>2021-02-20T11:54:23Z</time>
      </trkpt>
      <trkpt lat="45.17108" lon="5.95583">
        <ele>2688.1</ele>
        <time>2021-02-20T11:54:24Z</time>
      </trkpt>
      <trkpt lat="45.17108" lon="5.95583">
        <ele>2688.1</ele>
        <time>2021-02-20T11:54:25Z</time>
      </trkpt>
      <trkpt lat="45.17108" lon="5.95583">
        <ele>2688.1</ele>
        <time>2021-02-20T11:54:26Z</time>
      </trkpt>
      <trkpt lat="45.17108" lon="5.95583">
        <ele>2688.1</ele>
        <time>2021-02-20T11:54:27Z</time>
      </trkpt>
      <trkpt lat="45.17108" lon="5.95583">
        <ele>2688.1</ele>
        <time>2021-02-20T11:54:28Z</time>
      </trkpt>
      <trkpt lat="45.17108" lon="5.95583">
        <ele>2688.1</ele>
        <time>2021-02-20T11:54:29Z</time>
      </trkpt>
      <trkpt lat="45.17107" lon="5.95581">
        <ele>2688.1</ele>
        <time>2021-02-20T11:54:30Z</time>
      </trkpt>
      <trkpt lat="45.17107" lon="5.95581">
        <ele>2688.1</ele>
        <time>2021-02-20T11:54:31Z</time>
      </trkpt>
      <trkpt lat="45.17107" lon="5.95581">
        <ele>2688.1</ele>
        <time>2021-02-20T11:54:32Z</time>
      </trkpt>
      <trkpt lat="45.17107" lon="5.95581">
        <ele>2688.1</ele>
        <time>2021-02-20T11:54:33Z</time>
      </trkpt>
      <trkpt lat="45.17108" lon="5.95581">
        <ele>2688.1</ele>
        <time>2021-02-20T11:54:34Z</time>
      </trkpt>
      <trkpt lat="45.17108" lon="5.95581">
        <ele>2688.1</ele>
        <time>2021-02-20T11:54:35Z</time>
      </trkpt>
      <trkpt lat="45.17108" lon="5.95582">
        <ele>2688.1</ele>
        <time>2021-02-20T11:54:36Z</time>
      </trkpt>
      <trkpt lat="45.17108" lon="5.95583">
        <ele>2688.1</ele>
        <time>2021-02-20T11:54:37Z</time>
      </trkpt>
      <trkpt lat="45.17108" lon="5.95583">
        <ele>2688.1</ele>
        <time>2021-02-20T11:54:38Z</time>
      </trkpt>
      <trkpt lat="45.17108" lon="5.95584">
        <ele>2689.1</ele>
        <time>2021-02-20T11:54:39Z</time>
      </trkpt>
      <trkpt lat="45.17108" lon="5.95584">
        <ele>2689.1</ele>
        <time>2021-02-20T11:54:40Z</time>
      </trkpt>
      <trkpt lat="45.17108" lon="5.95584">
        <ele>2689.1</ele>
        <time>2021-02-20T11:54:41Z</time>
      </trkpt>
      <trkpt lat="45.17108" lon="5.95584">
        <ele>2689.1</ele>
        <time>2021-02-20T11:54:42Z</time>
      </trkpt>
      <trkpt lat="45.17108" lon="5.95584">
        <ele>2689.1</ele>
        <time>2021-02-20T11:54:43Z</time>
      </trkpt>
      <trkpt lat="45.17108" lon="5.95584">
        <ele>2689.1</ele>
        <time>2021-02-20T11:54:44Z</time>
      </trkpt>
      <trkpt lat="45.17108" lon="5.95585">
        <ele>2689.1</ele>
        <time>2021-02-20T11:54:45Z</time>
      </trkpt>
      <trkpt lat="45.17108" lon="5.95586">
        <ele>2689.1</ele>
        <time>2021-02-20T11:54:46Z</time>
      </trkpt>
      <trkpt lat="45.17109" lon="5.95587">
        <ele>2687.1</ele>
        <time>2021-02-20T11:54:47Z</time>
      </trkpt>
      <trkpt lat="45.17109" lon="5.95588">
        <ele>2688</ele>
        <time>2021-02-20T11:54:48Z</time>
      </trkpt>
      <trkpt lat="45.17109" lon="5.9559">
        <ele>2688</ele>
        <time>2021-02-20T11:54:49Z</time>
      </trkpt>
      <trkpt lat="45.17109" lon="5.9559">
        <ele>2688</ele>
        <time>2021-02-20T11:54:50Z</time>
      </trkpt>
      <trkpt lat="45.17109" lon="5.9559">
        <ele>2688</ele>
        <time>2021-02-20T11:54:51Z</time>
      </trkpt>
      <trkpt lat="45.17109" lon="5.9559">
        <ele>2688</ele>
        <time>2021-02-20T11:54:52Z</time>
      </trkpt>
      <trkpt lat="45.17109" lon="5.9559">
        <ele>2688</ele>
        <time>2021-02-20T11:54:53Z</time>
      </trkpt>
      <trkpt lat="45.17109" lon="5.9559">
        <ele>2688</ele>
        <time>2021-02-20T11:54:54Z</time>
      </trkpt>
      <trkpt lat="45.17109" lon="5.9559">
        <ele>2688</ele>
        <time>2021-02-20T11:54:55Z</time>
      </trkpt>
      <trkpt lat="45.17109" lon="5.9559">
        <ele>2688</ele>
        <time>2021-02-20T11:54:56Z</time>
      </trkpt>
      <trkpt lat="45.17109" lon="5.9559">
        <ele>2688</ele>
        <time>2021-02-20T11:54:57Z</time>
      </trkpt>
      <trkpt lat="45.17109" lon="5.9559">
        <ele>2688</ele>
        <time>2021-02-20T11:54:58Z</time>
      </trkpt>
      <trkpt lat="45.17109" lon="5.9559">
        <ele>2688</ele>
        <time>2021-02-20T11:54:59Z</time>
      </trkpt>
      <trkpt lat="45.17109" lon="5.9559">
        <ele>2688</ele>
        <time>2021-02-20T11:55:00Z</time>
      </trkpt>
      <trkpt lat="45.17109" lon="5.9559">
        <ele>2688</ele>
        <time>2021-02-20T11:55:01Z</time>
      </trkpt>
      <trkpt lat="45.17109" lon="5.9559">
        <ele>2688</ele>
        <time>2021-02-20T11:55:02Z</time>
      </trkpt>
      <trkpt lat="45.17109" lon="5.9559">
        <ele>2688</ele>
        <time>2021-02-20T11:55:03Z</time>
      </trkpt>
      <trkpt lat="45.17109" lon="5.9559">
        <ele>2688</ele>
        <time>2021-02-20T11:55:04Z</time>
      </trkpt>
      <trkpt lat="45.1711" lon="5.95591">
        <ele>2688</ele>
        <time>2021-02-20T11:55:05Z</time>
      </trkpt>
      <trkpt lat="45.1711" lon="5.95592">
        <ele>2688</ele>
        <time>2021-02-20T11:55:06Z</time>
      </trkpt>
      <trkpt lat="45.1711" lon="5.95592">
        <ele>2688.9</ele>
        <time>2021-02-20T11:55:07Z</time>
      </trkpt>
      <trkpt lat="45.1711" lon="5.95593">
        <ele>2688.9</ele>
        <time>2021-02-20T11:55:08Z</time>
      </trkpt>
      <trkpt lat="45.17111" lon="5.95594">
        <ele>2688.9</ele>
        <time>2021-02-20T11:55:09Z</time>
      </trkpt>
      <trkpt lat="45.17111" lon="5.95594">
        <ele>2688.9</ele>
        <time>2021-02-20T11:55:10Z</time>
      </trkpt>
      <trkpt lat="45.17111" lon="5.95595">
        <ele>2688.9</ele>
        <time>2021-02-20T11:55:11Z</time>
      </trkpt>
      <trkpt lat="45.17111" lon="5.95596">
        <ele>2688.9</ele>
        <time>2021-02-20T11:55:12Z</time>
      </trkpt>
      <trkpt lat="45.17111" lon="5.95596">
        <ele>2688.9</ele>
        <time>2021-02-20T11:55:13Z</time>
      </trkpt>
      <trkpt lat="45.17111" lon="5.95597">
        <ele>2689.7</ele>
        <time>2021-02-20T11:55:14Z</time>
      </trkpt>
      <trkpt lat="45.17111" lon="5.95597">
        <ele>2689.7</ele>
        <time>2021-02-20T11:55:15Z</time>
      </trkpt>
      <trkpt lat="45.17111" lon="5.95597">
        <ele>2689.7</ele>
        <time>2021-02-20T11:55:16Z</time>
      </trkpt>
      <trkpt lat="45.17111" lon="5.95597">
        <ele>2689.7</ele>
        <time>2021-02-20T11:55:17Z</time>
      </trkpt>
      <trkpt lat="45.17111" lon="5.95597">
        <ele>2689.7</ele>
        <time>2021-02-20T11:55:18Z</time>
      </trkpt>
      <trkpt lat="45.17111" lon="5.95597">
        <ele>2689.7</ele>
        <time>2021-02-20T11:55:19Z</time>
      </trkpt>
      <trkpt lat="45.17111" lon="5.95598">
        <ele>2689.7</ele>
        <time>2021-02-20T11:55:20Z</time>
      </trkpt>
      <trkpt lat="45.17111" lon="5.95598">
        <ele>2689.7</ele>
        <time>2021-02-20T11:55:21Z</time>
      </trkpt>
      <trkpt lat="45.17111" lon="5.95599">
        <ele>2689.7</ele>
        <time>2021-02-20T11:55:22Z</time>
      </trkpt>
      <trkpt lat="45.17111" lon="5.95599">
        <ele>2689.7</ele>
        <time>2021-02-20T11:55:23Z</time>
      </trkpt>
      <trkpt lat="45.17111" lon="5.956">
        <ele>2689.7</ele>
        <time>2021-02-20T11:55:24Z</time>
      </trkpt>
      <trkpt lat="45.17112" lon="5.95601">
        <ele>2687.7</ele>
        <time>2021-02-20T11:55:25Z</time>
      </trkpt>
      <trkpt lat="45.17112" lon="5.95601">
        <ele>2688.7</ele>
        <time>2021-02-20T11:55:26Z</time>
      </trkpt>
      <trkpt lat="45.17112" lon="5.95602">
        <ele>2688.7</ele>
        <time>2021-02-20T11:55:27Z</time>
      </trkpt>
      <trkpt lat="45.17112" lon="5.95602">
        <ele>2688.7</ele>
        <time>2021-02-20T11:55:28Z</time>
      </trkpt>
      <trkpt lat="45.17112" lon="5.95603">
        <ele>2688.7</ele>
        <time>2021-02-20T11:55:29Z</time>
      </trkpt>
      <trkpt lat="45.17112" lon="5.95604">
        <ele>2688.7</ele>
        <time>2021-02-20T11:55:30Z</time>
      </trkpt>
      <trkpt lat="45.17112" lon="5.95606">
        <ele>2689.7</ele>
        <time>2021-02-20T11:55:31Z</time>
      </trkpt>
      <trkpt lat="45.17112" lon="5.95606">
        <ele>2689.7</ele>
        <time>2021-02-20T11:55:32Z</time>
      </trkpt>
      <trkpt lat="45.17112" lon="5.95607">
        <ele>2689.7</ele>
        <time>2021-02-20T11:55:33Z</time>
      </trkpt>
      <trkpt lat="45.17113" lon="5.95608">
        <ele>2689.7</ele>
        <time>2021-02-20T11:55:34Z</time>
      </trkpt>
      <trkpt lat="45.17113" lon="5.95609">
        <ele>2689.7</ele>
        <time>2021-02-20T11:55:35Z</time>
      </trkpt>
      <trkpt lat="45.17113" lon="5.9561">
        <ele>2690.9</ele>
        <time>2021-02-20T11:55:36Z</time>
      </trkpt>
      <trkpt lat="45.17113" lon="5.95611">
        <ele>2690.9</ele>
        <time>2021-02-20T11:55:37Z</time>
      </trkpt>
      <trkpt lat="45.17113" lon="5.95611">
        <ele>2690.9</ele>
        <time>2021-02-20T11:55:38Z</time>
      </trkpt>
      <trkpt lat="45.17113" lon="5.95612">
        <ele>2690.9</ele>
        <time>2021-02-20T11:55:39Z</time>
      </trkpt>
      <trkpt lat="45.17113" lon="5.95612">
        <ele>2690.9</ele>
        <time>2021-02-20T11:55:40Z</time>
      </trkpt>
      <trkpt lat="45.17113" lon="5.95612">
        <ele>2690.9</ele>
        <time>2021-02-20T11:55:41Z</time>
      </trkpt>
      <trkpt lat="45.17113" lon="5.95612">
        <ele>2690.9</ele>
        <time>2021-02-20T11:55:42Z</time>
      </trkpt>
      <trkpt lat="45.17113" lon="5.95612">
        <ele>2690.9</ele>
        <time>2021-02-20T11:55:43Z</time>
      </trkpt>
      <trkpt lat="45.17114" lon="5.95613">
        <ele>2690.9</ele>
        <time>2021-02-20T11:55:44Z</time>
      </trkpt>
      <trkpt lat="45.17114" lon="5.95614">
        <ele>2692.2</ele>
        <time>2021-02-20T11:55:45Z</time>
      </trkpt>
      <trkpt lat="45.17114" lon="5.95614">
        <ele>2692.2</ele>
        <time>2021-02-20T11:55:46Z</time>
      </trkpt>
      <trkpt lat="45.17114" lon="5.95614">
        <ele>2692.2</ele>
        <time>2021-02-20T11:55:47Z</time>
      </trkpt>
      <trkpt lat="45.17114" lon="5.95615">
        <ele>2692.2</ele>
        <time>2021-02-20T11:55:48Z</time>
      </trkpt>
      <trkpt lat="45.17114" lon="5.95616">
        <ele>2692.2</ele>
        <time>2021-02-20T11:55:49Z</time>
      </trkpt>
      <trkpt lat="45.17114" lon="5.95616">
        <ele>2692.2</ele>
        <time>2021-02-20T11:55:50Z</time>
      </trkpt>
      <trkpt lat="45.17114" lon="5.95616">
        <ele>2692.2</ele>
        <time>2021-02-20T11:55:51Z</time>
      </trkpt>
      <trkpt lat="45.17114" lon="5.95616">
        <ele>2692.2</ele>
        <time>2021-02-20T11:55:52Z</time>
      </trkpt>
      <trkpt lat="45.17114" lon="5.95616">
        <ele>2692.2</ele>
        <time>2021-02-20T11:55:53Z</time>
      </trkpt>
      <trkpt lat="45.17115" lon="5.95617">
        <ele>2692.2</ele>
        <time>2021-02-20T11:55:54Z</time>
      </trkpt>
      <trkpt lat="45.17115" lon="5.95617">
        <ele>2690.5</ele>
        <time>2021-02-20T11:55:55Z</time>
      </trkpt>
      <trkpt lat="45.17115" lon="5.95618">
        <ele>2690.5</ele>
        <time>2021-02-20T11:55:56Z</time>
      </trkpt>
      <trkpt lat="45.17115" lon="5.95618">
        <ele>2692.1</ele>
        <time>2021-02-20T11:55:57Z</time>
      </trkpt>
      <trkpt lat="45.17115" lon="5.95619">
        <ele>2692.1</ele>
        <time>2021-02-20T11:55:58Z</time>
      </trkpt>
      <trkpt lat="45.17115" lon="5.9562">
        <ele>2692.1</ele>
        <time>2021-02-20T11:55:59Z</time>
      </trkpt>
      <trkpt lat="45.17115" lon="5.9562">
        <ele>2692.1</ele>
        <time>2021-02-20T11:56:00Z</time>
      </trkpt>
      <trkpt lat="45.17116" lon="5.95621">
        <ele>2692.1</ele>
        <time>2021-02-20T11:56:01Z</time>
      </trkpt>
      <trkpt lat="45.17116" lon="5.95622">
        <ele>2692.1</ele>
        <time>2021-02-20T11:56:02Z</time>
      </trkpt>
      <trkpt lat="45.17116" lon="5.95623">
        <ele>2693.9</ele>
        <time>2021-02-20T11:56:03Z</time>
      </trkpt>
      <trkpt lat="45.17116" lon="5.95624">
        <ele>2693.9</ele>
        <time>2021-02-20T11:56:04Z</time>
      </trkpt>
      <trkpt lat="45.17116" lon="5.95625">
        <ele>2693.9</ele>
        <time>2021-02-20T11:56:05Z</time>
      </trkpt>
      <trkpt lat="45.17116" lon="5.95625">
        <ele>2693.9</ele>
        <time>2021-02-20T11:56:06Z</time>
      </trkpt>
      <trkpt lat="45.17116" lon="5.95625">
        <ele>2693.9</ele>
        <time>2021-02-20T11:56:07Z</time>
      </trkpt>
      <trkpt lat="45.17116" lon="5.95626">
        <ele>2693.9</ele>
        <time>2021-02-20T11:56:08Z</time>
      </trkpt>
      <trkpt lat="45.17116" lon="5.95626">
        <ele>2693.9</ele>
        <time>2021-02-20T11:56:09Z</time>
      </trkpt>
      <trkpt lat="45.17116" lon="5.95626">
        <ele>2693.9</ele>
        <time>2021-02-20T11:56:10Z</time>
      </trkpt>
      <trkpt lat="45.17116" lon="5.95627">
        <ele>2695.8</ele>
        <time>2021-02-20T11:56:11Z</time>
      </trkpt>
      <trkpt lat="45.17116" lon="5.95627">
        <ele>2695.8</ele>
        <time>2021-02-20T11:56:12Z</time>
      </trkpt>
      <trkpt lat="45.17116" lon="5.95627">
        <ele>2695.8</ele>
        <time>2021-02-20T11:56:13Z</time>
      </trkpt>
      <trkpt lat="45.17116" lon="5.95627">
        <ele>2695.8</ele>
        <time>2021-02-20T11:56:14Z</time>
      </trkpt>
      <trkpt lat="45.17116" lon="5.95627">
        <ele>2695.8</ele>
        <time>2021-02-20T11:56:15Z</time>
      </trkpt>
      <trkpt lat="45.17116" lon="5.95628">
        <ele>2695.8</ele>
        <time>2021-02-20T11:56:16Z</time>
      </trkpt>
      <trkpt lat="45.17116" lon="5.95628">
        <ele>2695.8</ele>
        <time>2021-02-20T11:56:17Z</time>
      </trkpt>
      <trkpt lat="45.17116" lon="5.95628">
        <ele>2695.8</ele>
        <time>2021-02-20T11:56:18Z</time>
      </trkpt>
      <trkpt lat="45.17117" lon="5.95629">
        <ele>2695.8</ele>
        <time>2021-02-20T11:56:19Z</time>
      </trkpt>
      <trkpt lat="45.17118" lon="5.95629">
        <ele>2695.8</ele>
        <time>2021-02-20T11:56:20Z</time>
      </trkpt>
      <trkpt lat="45.17118" lon="5.95629">
        <ele>2694.4</ele>
        <time>2021-02-20T11:56:21Z</time>
      </trkpt>
      <trkpt lat="45.17118" lon="5.95629">
        <ele>2694.4</ele>
        <time>2021-02-20T11:56:22Z</time>
      </trkpt>
      <trkpt lat="45.17118" lon="5.95629">
        <ele>2694.4</ele>
        <time>2021-02-20T11:56:23Z</time>
      </trkpt>
      <trkpt lat="45.17118" lon="5.95629">
        <ele>2694.4</ele>
        <time>2021-02-20T11:56:24Z</time>
      </trkpt>
      <trkpt lat="45.17118" lon="5.9563">
        <ele>2694.4</ele>
        <time>2021-02-20T11:56:25Z</time>
      </trkpt>
      <trkpt lat="45.17118" lon="5.95631">
        <ele>2696.4</ele>
        <time>2021-02-20T11:56:26Z</time>
      </trkpt>
      <trkpt lat="45.17119" lon="5.95632">
        <ele>2696.4</ele>
        <time>2021-02-20T11:56:27Z</time>
      </trkpt>
      <trkpt lat="45.17119" lon="5.95632">
        <ele>2696.4</ele>
        <time>2021-02-20T11:56:28Z</time>
      </trkpt>
      <trkpt lat="45.17119" lon="5.95632">
        <ele>2696.4</ele>
        <time>2021-02-20T11:56:29Z</time>
      </trkpt>
      <trkpt lat="45.17119" lon="5.95632">
        <ele>2696.4</ele>
        <time>2021-02-20T11:56:30Z</time>
      </trkpt>
      <trkpt lat="45.17119" lon="5.95632">
        <ele>2696.4</ele>
        <time>2021-02-20T11:56:31Z</time>
      </trkpt>
      <trkpt lat="45.17119" lon="5.95632">
        <ele>2696.4</ele>
        <time>2021-02-20T11:56:32Z</time>
      </trkpt>
      <trkpt lat="45.1712" lon="5.95633">
        <ele>2696.4</ele>
        <time>2021-02-20T11:56:33Z</time>
      </trkpt>
      <trkpt lat="45.17121" lon="5.95634">
        <ele>2696.4</ele>
        <time>2021-02-20T11:56:34Z</time>
      </trkpt>
      <trkpt lat="45.17121" lon="5.95635">
        <ele>2695</ele>
        <time>2021-02-20T11:56:35Z</time>
      </trkpt>
      <trkpt lat="45.17122" lon="5.95635">
        <ele>2697</ele>
        <time>2021-02-20T11:56:36Z</time>
      </trkpt>
      <trkpt lat="45.17122" lon="5.95635">
        <ele>2697</ele>
        <time>2021-02-20T11:56:37Z</time>
      </trkpt>
      <trkpt lat="45.17122" lon="5.95636">
        <ele>2697</ele>
        <time>2021-02-20T11:56:38Z</time>
      </trkpt>
      <trkpt lat="45.17122" lon="5.95637">
        <ele>2697</ele>
        <time>2021-02-20T11:56:39Z</time>
      </trkpt>
      <trkpt lat="45.17122" lon="5.95638">
        <ele>2697</ele>
        <time>2021-02-20T11:56:40Z</time>
      </trkpt>
      <trkpt lat="45.17122" lon="5.95638">
        <ele>2697</ele>
        <time>2021-02-20T11:56:41Z</time>
      </trkpt>
      <trkpt lat="45.17123" lon="5.95639">
        <ele>2697</ele>
        <time>2021-02-20T11:56:42Z</time>
      </trkpt>
      <trkpt lat="45.17123" lon="5.9564">
        <ele>2699.1</ele>
        <time>2021-02-20T11:56:43Z</time>
      </trkpt>
      <trkpt lat="45.17123" lon="5.95641">
        <ele>2699.1</ele>
        <time>2021-02-20T11:56:44Z</time>
      </trkpt>
      <trkpt lat="45.17123" lon="5.95642">
        <ele>2699.1</ele>
        <time>2021-02-20T11:56:45Z</time>
      </trkpt>
      <trkpt lat="45.17123" lon="5.95643">
        <ele>2699.1</ele>
        <time>2021-02-20T11:56:46Z</time>
      </trkpt>
      <trkpt lat="45.17124" lon="5.95643">
        <ele>2699.1</ele>
        <time>2021-02-20T11:56:47Z</time>
      </trkpt>
      <trkpt lat="45.17124" lon="5.95644">
        <ele>2699.7</ele>
        <time>2021-02-20T11:56:48Z</time>
      </trkpt>
      <trkpt lat="45.17124" lon="5.95644">
        <ele>2699.7</ele>
        <time>2021-02-20T11:56:49Z</time>
      </trkpt>
      <trkpt lat="45.17125" lon="5.95646">
        <ele>2699.7</ele>
        <time>2021-02-20T11:56:50Z</time>
      </trkpt>
      <trkpt lat="45.17125" lon="5.95647">
        <ele>2699.7</ele>
        <time>2021-02-20T11:56:51Z</time>
      </trkpt>
      <trkpt lat="45.17125" lon="5.95648">
        <ele>2701.6</ele>
        <time>2021-02-20T11:56:52Z</time>
      </trkpt>
      <trkpt lat="45.17125" lon="5.95649">
        <ele>2701.6</ele>
        <time>2021-02-20T11:56:53Z</time>
      </trkpt>
      <trkpt lat="45.17126" lon="5.95649">
        <ele>2701.6</ele>
        <time>2021-02-20T11:56:54Z</time>
      </trkpt>
      <trkpt lat="45.17126" lon="5.9565">
        <ele>2701.6</ele>
        <time>2021-02-20T11:56:55Z</time>
      </trkpt>
      <trkpt lat="45.17126" lon="5.95651">
        <ele>2701.6</ele>
        <time>2021-02-20T11:56:56Z</time>
      </trkpt>
      <trkpt lat="45.17126" lon="5.95652">
        <ele>2701.6</ele>
        <time>2021-02-20T11:56:57Z</time>
      </trkpt>
      <trkpt lat="45.17126" lon="5.95653">
        <ele>2703.3</ele>
        <time>2021-02-20T11:56:58Z</time>
      </trkpt>
      <trkpt lat="45.17126" lon="5.95653">
        <ele>2703.3</ele>
        <time>2021-02-20T11:56:59Z</time>
      </trkpt>
      <trkpt lat="45.17126" lon="5.95654">
        <ele>2703.3</ele>
        <time>2021-02-20T11:57:00Z</time>
      </trkpt>
      <trkpt lat="45.17126" lon="5.95655">
        <ele>2703.3</ele>
        <time>2021-02-20T11:57:01Z</time>
      </trkpt>
      <trkpt lat="45.17126" lon="5.95655">
        <ele>2703.3</ele>
        <time>2021-02-20T11:57:02Z</time>
      </trkpt>
      <trkpt lat="45.17126" lon="5.95655">
        <ele>2703.3</ele>
        <time>2021-02-20T11:57:03Z</time>
      </trkpt>
      <trkpt lat="45.17126" lon="5.95656">
        <ele>2703.3</ele>
        <time>2021-02-20T11:57:04Z</time>
      </trkpt>
      <trkpt lat="45.17127" lon="5.95657">
        <ele>2704.9</ele>
        <time>2021-02-20T11:57:05Z</time>
      </trkpt>
      <trkpt lat="45.17127" lon="5.95658">
        <ele>2704.9</ele>
        <time>2021-02-20T11:57:06Z</time>
      </trkpt>
      <trkpt lat="45.17127" lon="5.95658">
        <ele>2704.9</ele>
        <time>2021-02-20T11:57:07Z</time>
      </trkpt>
      <trkpt lat="45.17127" lon="5.95659">
        <ele>2704.9</ele>
        <time>2021-02-20T11:57:08Z</time>
      </trkpt>
      <trkpt lat="45.17127" lon="5.95659">
        <ele>2704.9</ele>
        <time>2021-02-20T11:57:09Z</time>
      </trkpt>
      <trkpt lat="45.17127" lon="5.95661">
        <ele>2704.9</ele>
        <time>2021-02-20T11:57:10Z</time>
      </trkpt>
      <trkpt lat="45.17127" lon="5.95662">
        <ele>2706.4</ele>
        <time>2021-02-20T11:57:11Z</time>
      </trkpt>
      <trkpt lat="45.17127" lon="5.95662">
        <ele>2706.4</ele>
        <time>2021-02-20T11:57:12Z</time>
      </trkpt>
      <trkpt lat="45.17127" lon="5.95663">
        <ele>2705.3</ele>
        <time>2021-02-20T11:57:13Z</time>
      </trkpt>
      <trkpt lat="45.17127" lon="5.95664">
        <ele>2705.3</ele>
        <time>2021-02-20T11:57:14Z</time>
      </trkpt>
      <trkpt lat="45.17127" lon="5.95665">
        <ele>2706.7</ele>
        <time>2021-02-20T11:57:15Z</time>
      </trkpt>
      <trkpt lat="45.17127" lon="5.95666">
        <ele>2706.7</ele>
        <time>2021-02-20T11:57:16Z</time>
      </trkpt>
      <trkpt lat="45.17127" lon="5.95667">
        <ele>2706.7</ele>
        <time>2021-02-20T11:57:17Z</time>
      </trkpt>
      <trkpt lat="45.17128" lon="5.95667">
        <ele>2706.7</ele>
        <time>2021-02-20T11:57:18Z</time>
      </trkpt>
      <trkpt lat="45.17128" lon="5.95668">
        <ele>2706.7</ele>
        <time>2021-02-20T11:57:19Z</time>
      </trkpt>
      <trkpt lat="45.17128" lon="5.95668">
        <ele>2706.7</ele>
        <time>2021-02-20T11:57:20Z</time>
      </trkpt>
      <trkpt lat="45.17128" lon="5.95669">
        <ele>2706.7</ele>
        <time>2021-02-20T11:57:21Z</time>
      </trkpt>
      <trkpt lat="45.17128" lon="5.9567">
        <ele>2707.9</ele>
        <time>2021-02-20T11:57:22Z</time>
      </trkpt>
      <trkpt lat="45.17128" lon="5.9567">
        <ele>2707.9</ele>
        <time>2021-02-20T11:57:23Z</time>
      </trkpt>
      <trkpt lat="45.17128" lon="5.95671">
        <ele>2707.9</ele>
        <time>2021-02-20T11:57:24Z</time>
      </trkpt>
      <trkpt lat="45.17128" lon="5.95672">
        <ele>2707.9</ele>
        <time>2021-02-20T11:57:25Z</time>
      </trkpt>
      <trkpt lat="45.17128" lon="5.95673">
        <ele>2707.9</ele>
        <time>2021-02-20T11:57:26Z</time>
      </trkpt>
      <trkpt lat="45.17128" lon="5.95674">
        <ele>2709</ele>
        <time>2021-02-20T11:57:27Z</time>
      </trkpt>
      <trkpt lat="45.17128" lon="5.95674">
        <ele>2709</ele>
        <time>2021-02-20T11:57:28Z</time>
      </trkpt>
      <trkpt lat="45.17128" lon="5.95675">
        <ele>2709</ele>
        <time>2021-02-20T11:57:29Z</time>
      </trkpt>
      <trkpt lat="45.17128" lon="5.95675">
        <ele>2709</ele>
        <time>2021-02-20T11:57:30Z</time>
      </trkpt>
      <trkpt lat="45.17129" lon="5.95676">
        <ele>2709</ele>
        <time>2021-02-20T11:57:31Z</time>
      </trkpt>
      <trkpt lat="45.17129" lon="5.95676">
        <ele>2709</ele>
        <time>2021-02-20T11:57:32Z</time>
      </trkpt>
      <trkpt lat="45.17129" lon="5.95678">
        <ele>2709</ele>
        <time>2021-02-20T11:57:33Z</time>
      </trkpt>
      <trkpt lat="45.17129" lon="5.95678">
        <ele>2709.9</ele>
        <time>2021-02-20T11:57:34Z</time>
      </trkpt>
      <trkpt lat="45.17129" lon="5.95679">
        <ele>2709.9</ele>
        <time>2021-02-20T11:57:35Z</time>
      </trkpt>
      <trkpt lat="45.17129" lon="5.9568">
        <ele>2709.9</ele>
        <time>2021-02-20T11:57:36Z</time>
      </trkpt>
      <trkpt lat="45.17129" lon="5.9568">
        <ele>2709.9</ele>
        <time>2021-02-20T11:57:37Z</time>
      </trkpt>
      <trkpt lat="45.1713" lon="5.95681">
        <ele>2709.9</ele>
        <time>2021-02-20T11:57:38Z</time>
      </trkpt>
      <trkpt lat="45.17129" lon="5.95682">
        <ele>2709.9</ele>
        <time>2021-02-20T11:57:39Z</time>
      </trkpt>
      <trkpt lat="45.17129" lon="5.95683">
        <ele>2710.7</ele>
        <time>2021-02-20T11:57:40Z</time>
      </trkpt>
      <trkpt lat="45.1713" lon="5.95684">
        <ele>2710.7</ele>
        <time>2021-02-20T11:57:41Z</time>
      </trkpt>
      <trkpt lat="45.1713" lon="5.95684">
        <ele>2710.7</ele>
        <time>2021-02-20T11:57:42Z</time>
      </trkpt>
      <trkpt lat="45.1713" lon="5.95685">
        <ele>2710.7</ele>
        <time>2021-02-20T11:57:43Z</time>
      </trkpt>
      <trkpt lat="45.1713" lon="5.95686">
        <ele>2709.8</ele>
        <time>2021-02-20T11:57:44Z</time>
      </trkpt>
      <trkpt lat="45.1713" lon="5.95687">
        <ele>2710.6</ele>
        <time>2021-02-20T11:57:45Z</time>
      </trkpt>
      <trkpt lat="45.1713" lon="5.95687">
        <ele>2710.6</ele>
        <time>2021-02-20T11:57:46Z</time>
      </trkpt>
      <trkpt lat="45.1713" lon="5.95688">
        <ele>2710.6</ele>
        <time>2021-02-20T11:57:47Z</time>
      </trkpt>
      <trkpt lat="45.1713" lon="5.95689">
        <ele>2710.6</ele>
        <time>2021-02-20T11:57:48Z</time>
      </trkpt>
      <trkpt lat="45.1713" lon="5.9569">
        <ele>2710.6</ele>
        <time>2021-02-20T11:57:49Z</time>
      </trkpt>
      <trkpt lat="45.1713" lon="5.95691">
        <ele>2710.6</ele>
        <time>2021-02-20T11:57:50Z</time>
      </trkpt>
      <trkpt lat="45.17131" lon="5.95692">
        <ele>2711.4</ele>
        <time>2021-02-20T11:57:51Z</time>
      </trkpt>
      <trkpt lat="45.17131" lon="5.95693">
        <ele>2711.4</ele>
        <time>2021-02-20T11:57:52Z</time>
      </trkpt>
      <trkpt lat="45.17131" lon="5.95693">
        <ele>2711.4</ele>
        <time>2021-02-20T11:57:53Z</time>
      </trkpt>
      <trkpt lat="45.17131" lon="5.95694">
        <ele>2711.4</ele>
        <time>2021-02-20T11:57:54Z</time>
      </trkpt>
      <trkpt lat="45.17131" lon="5.95695">
        <ele>2711.4</ele>
        <time>2021-02-20T11:57:55Z</time>
      </trkpt>
      <trkpt lat="45.17131" lon="5.95696">
        <ele>2712.1</ele>
        <time>2021-02-20T11:57:56Z</time>
      </trkpt>
      <trkpt lat="45.17131" lon="5.95697">
        <ele>2712.1</ele>
        <time>2021-02-20T11:57:57Z</time>
      </trkpt>
      <trkpt lat="45.17131" lon="5.95698">
        <ele>2712.1</ele>
        <time>2021-02-20T11:57:58Z</time>
      </trkpt>
      <trkpt lat="45.17131" lon="5.95698">
        <ele>2712.1</ele>
        <time>2021-02-20T11:57:59Z</time>
      </trkpt>
      <trkpt lat="45.17131" lon="5.95698">
        <ele>2712.1</ele>
        <time>2021-02-20T11:58:00Z</time>
      </trkpt>
      <trkpt lat="45.17131" lon="5.95699">
        <ele>2712.1</ele>
        <time>2021-02-20T11:58:01Z</time>
      </trkpt>
      <trkpt lat="45.17131" lon="5.957">
        <ele>2712.8</ele>
        <time>2021-02-20T11:58:02Z</time>
      </trkpt>
      <trkpt lat="45.17131" lon="5.957">
        <ele>2712.8</ele>
        <time>2021-02-20T11:58:03Z</time>
      </trkpt>
      <trkpt lat="45.17131" lon="5.95701">
        <ele>2712.8</ele>
        <time>2021-02-20T11:58:04Z</time>
      </trkpt>
      <trkpt lat="45.17132" lon="5.95702">
        <ele>2712.8</ele>
        <time>2021-02-20T11:58:05Z</time>
      </trkpt>
      <trkpt lat="45.17132" lon="5.95703">
        <ele>2712.8</ele>
        <time>2021-02-20T11:58:06Z</time>
      </trkpt>
      <trkpt lat="45.17132" lon="5.95703">
        <ele>2712.8</ele>
        <time>2021-02-20T11:58:07Z</time>
      </trkpt>
      <trkpt lat="45.17132" lon="5.95704">
        <ele>2713.4</ele>
        <time>2021-02-20T11:58:08Z</time>
      </trkpt>
      <trkpt lat="45.17132" lon="5.95706">
        <ele>2713.4</ele>
        <time>2021-02-20T11:58:09Z</time>
      </trkpt>
      <trkpt lat="45.17132" lon="5.95706">
        <ele>2713.4</ele>
        <time>2021-02-20T11:58:10Z</time>
      </trkpt>
      <trkpt lat="45.17132" lon="5.95706">
        <ele>2713.4</ele>
        <time>2021-02-20T11:58:11Z</time>
      </trkpt>
      <trkpt lat="45.17132" lon="5.95705">
        <ele>2713.4</ele>
        <time>2021-02-20T11:58:12Z</time>
      </trkpt>
      <trkpt lat="45.17133" lon="5.95706">
        <ele>2713.4</ele>
        <time>2021-02-20T11:58:13Z</time>
      </trkpt>
      <trkpt lat="45.17133" lon="5.95706">
        <ele>2712.5</ele>
        <time>2021-02-20T11:58:14Z</time>
      </trkpt>
      <trkpt lat="45.17133" lon="5.95707">
        <ele>2712.5</ele>
        <time>2021-02-20T11:58:15Z</time>
      </trkpt>
      <trkpt lat="45.17133" lon="5.95708">
        <ele>2713.1</ele>
        <time>2021-02-20T11:58:16Z</time>
      </trkpt>
      <trkpt lat="45.17133" lon="5.9571">
        <ele>2713.1</ele>
        <time>2021-02-20T11:58:17Z</time>
      </trkpt>
      <trkpt lat="45.17133" lon="5.95711">
        <ele>2713.1</ele>
        <time>2021-02-20T11:58:18Z</time>
      </trkpt>
      <trkpt lat="45.17133" lon="5.95713">
        <ele>2713.6</ele>
        <time>2021-02-20T11:58:19Z</time>
      </trkpt>
      <trkpt lat="45.17133" lon="5.95714">
        <ele>2713.6</ele>
        <time>2021-02-20T11:58:20Z</time>
      </trkpt>
      <trkpt lat="45.17133" lon="5.95716">
        <ele>2713.6</ele>
        <time>2021-02-20T11:58:21Z</time>
      </trkpt>
      <trkpt lat="45.17133" lon="5.95718">
        <ele>2714</ele>
        <time>2021-02-20T11:58:22Z</time>
      </trkpt>
      <trkpt lat="45.17133" lon="5.95719">
        <ele>2714</ele>
        <time>2021-02-20T11:58:23Z</time>
      </trkpt>
      <trkpt lat="45.17134" lon="5.9572">
        <ele>2714</ele>
        <time>2021-02-20T11:58:24Z</time>
      </trkpt>
      <trkpt lat="45.17134" lon="5.95721">
        <ele>2714.4</ele>
        <time>2021-02-20T11:58:25Z</time>
      </trkpt>
      <trkpt lat="45.17134" lon="5.95721">
        <ele>2714.4</ele>
        <time>2021-02-20T11:58:26Z</time>
      </trkpt>
      <trkpt lat="45.17134" lon="5.95721">
        <ele>2714.4</ele>
        <time>2021-02-20T11:58:27Z</time>
      </trkpt>
      <trkpt lat="45.17134" lon="5.95722">
        <ele>2714.4</ele>
        <time>2021-02-20T11:58:28Z</time>
      </trkpt>
      <trkpt lat="45.17134" lon="5.95722">
        <ele>2714.4</ele>
        <time>2021-02-20T11:58:29Z</time>
      </trkpt>
      <trkpt lat="45.17134" lon="5.95723">
        <ele>2714.4</ele>
        <time>2021-02-20T11:58:30Z</time>
      </trkpt>
      <trkpt lat="45.17133" lon="5.95724">
        <ele>2714.4</ele>
        <time>2021-02-20T11:58:31Z</time>
      </trkpt>
      <trkpt lat="45.17133" lon="5.95725">
        <ele>2714.4</ele>
        <time>2021-02-20T11:58:32Z</time>
      </trkpt>
      <trkpt lat="45.17133" lon="5.95725">
        <ele>2714.8</ele>
        <time>2021-02-20T11:58:33Z</time>
      </trkpt>
      <trkpt lat="45.17133" lon="5.95726">
        <ele>2714.8</ele>
        <time>2021-02-20T11:58:34Z</time>
      </trkpt>
      <trkpt lat="45.17133" lon="5.95726">
        <ele>2714.8</ele>
        <time>2021-02-20T11:58:35Z</time>
      </trkpt>
      <trkpt lat="45.17133" lon="5.95727">
        <ele>2714.8</ele>
        <time>2021-02-20T11:58:36Z</time>
      </trkpt>
      <trkpt lat="45.17133" lon="5.95728">
        <ele>2715.4</ele>
        <time>2021-02-20T11:58:37Z</time>
      </trkpt>
      <trkpt lat="45.17133" lon="5.95729">
        <ele>2715.4</ele>
        <time>2021-02-20T11:58:38Z</time>
      </trkpt>
      <trkpt lat="45.17133" lon="5.95729">
        <ele>2715.4</ele>
        <time>2021-02-20T11:58:39Z</time>
      </trkpt>
      <trkpt lat="45.17133" lon="5.95729">
        <ele>2714.8</ele>
        <time>2021-02-20T11:58:40Z</time>
      </trkpt>
      <trkpt lat="45.17133" lon="5.95729">
        <ele>2715.1</ele>
        <time>2021-02-20T11:58:41Z</time>
      </trkpt>
      <trkpt lat="45.17133" lon="5.9573">
        <ele>2715.1</ele>
        <time>2021-02-20T11:58:42Z</time>
      </trkpt>
      <trkpt lat="45.17133" lon="5.9573">
        <ele>2715.1</ele>
        <time>2021-02-20T11:58:43Z</time>
      </trkpt>
      <trkpt lat="45.17133" lon="5.9573">
        <ele>2715.1</ele>
        <time>2021-02-20T11:58:44Z</time>
      </trkpt>
      <trkpt lat="45.17133" lon="5.95731">
        <ele>2715.1</ele>
        <time>2021-02-20T11:58:45Z</time>
      </trkpt>
      <trkpt lat="45.17133" lon="5.95731">
        <ele>2715.1</ele>
        <time>2021-02-20T11:58:46Z</time>
      </trkpt>
      <trkpt lat="45.17133" lon="5.95732">
        <ele>2715.1</ele>
        <time>2021-02-20T11:58:47Z</time>
      </trkpt>
      <trkpt lat="45.17133" lon="5.95732">
        <ele>2715.1</ele>
        <time>2021-02-20T11:58:48Z</time>
      </trkpt>
      <trkpt lat="45.17133" lon="5.95733">
        <ele>2715.1</ele>
        <time>2021-02-20T11:58:49Z</time>
      </trkpt>
      <trkpt lat="45.17133" lon="5.95734">
        <ele>2716</ele>
        <time>2021-02-20T11:58:50Z</time>
      </trkpt>
      <trkpt lat="45.17132" lon="5.95735">
        <ele>2716</ele>
        <time>2021-02-20T11:58:51Z</time>
      </trkpt>
      <trkpt lat="45.17132" lon="5.95736">
        <ele>2716</ele>
        <time>2021-02-20T11:58:52Z</time>
      </trkpt>
      <trkpt lat="45.17132" lon="5.95737">
        <ele>2716</ele>
        <time>2021-02-20T11:58:53Z</time>
      </trkpt>
      <trkpt lat="45.17131" lon="5.95738">
        <ele>2716</ele>
        <time>2021-02-20T11:58:54Z</time>
      </trkpt>
      <trkpt lat="45.17131" lon="5.95739">
        <ele>2716.3</ele>
        <time>2021-02-20T11:58:55Z</time>
      </trkpt>
      <trkpt lat="45.17131" lon="5.9574">
        <ele>2716.3</ele>
        <time>2021-02-20T11:58:56Z</time>
      </trkpt>
      <trkpt lat="45.17131" lon="5.95741">
        <ele>2716.3</ele>
        <time>2021-02-20T11:58:57Z</time>
      </trkpt>
      <trkpt lat="45.17131" lon="5.95743">
        <ele>2716.7</ele>
        <time>2021-02-20T11:58:58Z</time>
      </trkpt>
      <trkpt lat="45.17131" lon="5.95743">
        <ele>2716.7</ele>
        <time>2021-02-20T11:58:59Z</time>
      </trkpt>
      <trkpt lat="45.17131" lon="5.95744">
        <ele>2716.7</ele>
        <time>2021-02-20T11:59:00Z</time>
      </trkpt>
      <trkpt lat="45.17131" lon="5.95745">
        <ele>2716.7</ele>
        <time>2021-02-20T11:59:01Z</time>
      </trkpt>
      <trkpt lat="45.17131" lon="5.95745">
        <ele>2716.7</ele>
        <time>2021-02-20T11:59:02Z</time>
      </trkpt>
      <trkpt lat="45.1713" lon="5.95746">
        <ele>2716.7</ele>
        <time>2021-02-20T11:59:03Z</time>
      </trkpt>
      <trkpt lat="45.1713" lon="5.95747">
        <ele>2716.7</ele>
        <time>2021-02-20T11:59:04Z</time>
      </trkpt>
      <trkpt lat="45.1713" lon="5.95748">
        <ele>2717.1</ele>
        <time>2021-02-20T11:59:05Z</time>
      </trkpt>
      <trkpt lat="45.1713" lon="5.95749">
        <ele>2717.3</ele>
        <time>2021-02-20T11:59:06Z</time>
      </trkpt>
      <trkpt lat="45.17129" lon="5.9575">
        <ele>2717.3</ele>
        <time>2021-02-20T11:59:07Z</time>
      </trkpt>
      <trkpt lat="45.17129" lon="5.95752">
        <ele>2717.7</ele>
        <time>2021-02-20T11:59:08Z</time>
      </trkpt>
      <trkpt lat="45.17128" lon="5.95753">
        <ele>2717.7</ele>
        <time>2021-02-20T11:59:09Z</time>
      </trkpt>
      <trkpt lat="45.17128" lon="5.95754">
        <ele>2717.7</ele>
        <time>2021-02-20T11:59:10Z</time>
      </trkpt>
      <trkpt lat="45.17128" lon="5.95755">
        <ele>2718.1</ele>
        <time>2021-02-20T11:59:11Z</time>
      </trkpt>
      <trkpt lat="45.17127" lon="5.95757">
        <ele>2718.1</ele>
        <time>2021-02-20T11:59:12Z</time>
      </trkpt>
      <trkpt lat="45.17127" lon="5.95758">
        <ele>2718.1</ele>
        <time>2021-02-20T11:59:13Z</time>
      </trkpt>
      <trkpt lat="45.17127" lon="5.95759">
        <ele>2718.1</ele>
        <time>2021-02-20T11:59:14Z</time>
      </trkpt>
      <trkpt lat="45.17127" lon="5.95759">
        <ele>2718.1</ele>
        <time>2021-02-20T11:59:15Z</time>
      </trkpt>
      <trkpt lat="45.17126" lon="5.9576">
        <ele>2718.4</ele>
        <time>2021-02-20T11:59:16Z</time>
      </trkpt>
      <trkpt lat="45.17126" lon="5.95762">
        <ele>2718.4</ele>
        <time>2021-02-20T11:59:17Z</time>
      </trkpt>
      <trkpt lat="45.17125" lon="5.95763">
        <ele>2718.4</ele>
        <time>2021-02-20T11:59:18Z</time>
      </trkpt>
      <trkpt lat="45.17125" lon="5.95764">
        <ele>2718.8</ele>
        <time>2021-02-20T11:59:19Z</time>
      </trkpt>
      <trkpt lat="45.17124" lon="5.95765">
        <ele>2718.8</ele>
        <time>2021-02-20T11:59:20Z</time>
      </trkpt>
      <trkpt lat="45.17124" lon="5.95765">
        <ele>2718.8</ele>
        <time>2021-02-20T11:59:21Z</time>
      </trkpt>
      <trkpt lat="45.17124" lon="5.95766">
        <ele>2718.8</ele>
        <time>2021-02-20T11:59:22Z</time>
      </trkpt>
      <trkpt lat="45.17124" lon="5.95766">
        <ele>2718.5</ele>
        <time>2021-02-20T11:59:23Z</time>
      </trkpt>
      <trkpt lat="45.17123" lon="5.95767">
        <ele>2718.5</ele>
        <time>2021-02-20T11:59:24Z</time>
      </trkpt>
      <trkpt lat="45.17123" lon="5.95767">
        <ele>2718.5</ele>
        <time>2021-02-20T11:59:25Z</time>
      </trkpt>
      <trkpt lat="45.17123" lon="5.95768">
        <ele>2718.5</ele>
        <time>2021-02-20T11:59:26Z</time>
      </trkpt>
      <trkpt lat="45.17122" lon="5.95768">
        <ele>2718.8</ele>
        <time>2021-02-20T11:59:27Z</time>
      </trkpt>
      <trkpt lat="45.17122" lon="5.95769">
        <ele>2718.8</ele>
        <time>2021-02-20T11:59:28Z</time>
      </trkpt>
      <trkpt lat="45.17121" lon="5.9577">
        <ele>2718.8</ele>
        <time>2021-02-20T11:59:29Z</time>
      </trkpt>
      <trkpt lat="45.17121" lon="5.95771">
        <ele>2718.8</ele>
        <time>2021-02-20T11:59:30Z</time>
      </trkpt>
      <trkpt lat="45.1712" lon="5.95771">
        <ele>2718.4</ele>
        <time>2021-02-20T11:59:31Z</time>
      </trkpt>
      <trkpt lat="45.1712" lon="5.95772">
        <ele>2718.4</ele>
        <time>2021-02-20T11:59:32Z</time>
      </trkpt>
      <trkpt lat="45.1712" lon="5.95773">
        <ele>2718.6</ele>
        <time>2021-02-20T11:59:33Z</time>
      </trkpt>
      <trkpt lat="45.17119" lon="5.95773">
        <ele>2718.6</ele>
        <time>2021-02-20T11:59:34Z</time>
      </trkpt>
      <trkpt lat="45.17119" lon="5.95773">
        <ele>2718.6</ele>
        <time>2021-02-20T11:59:35Z</time>
      </trkpt>
      <trkpt lat="45.17119" lon="5.95773">
        <ele>2718.6</ele>
        <time>2021-02-20T11:59:36Z</time>
      </trkpt>
      <trkpt lat="45.17119" lon="5.95773">
        <ele>2718.6</ele>
        <time>2021-02-20T11:59:37Z</time>
      </trkpt>
      <trkpt lat="45.17119" lon="5.95773">
        <ele>2718.6</ele>
        <time>2021-02-20T11:59:38Z</time>
      </trkpt>
      <trkpt lat="45.17118" lon="5.95774">
        <ele>2718.6</ele>
        <time>2021-02-20T11:59:39Z</time>
      </trkpt>
      <trkpt lat="45.17118" lon="5.95774">
        <ele>2718.6</ele>
        <time>2021-02-20T11:59:40Z</time>
      </trkpt>
      <trkpt lat="45.17118" lon="5.95774">
        <ele>2718.6</ele>
        <time>2021-02-20T11:59:41Z</time>
      </trkpt>
      <trkpt lat="45.17117" lon="5.95775">
        <ele>2718</ele>
        <time>2021-02-20T11:59:42Z</time>
      </trkpt>
      <trkpt lat="45.17117" lon="5.95775">
        <ele>2718</ele>
        <time>2021-02-20T11:59:43Z</time>
      </trkpt>
      <trkpt lat="45.17117" lon="5.95776">
        <ele>2718</ele>
        <time>2021-02-20T11:59:44Z</time>
      </trkpt>
      <trkpt lat="45.17116" lon="5.95776">
        <ele>2718</ele>
        <time>2021-02-20T11:59:45Z</time>
      </trkpt>
      <trkpt lat="45.17116" lon="5.95776">
        <ele>2718</ele>
        <time>2021-02-20T11:59:46Z</time>
      </trkpt>
      <trkpt lat="45.17115" lon="5.95777">
        <ele>2718.2</ele>
        <time>2021-02-20T11:59:47Z</time>
      </trkpt>
      <trkpt lat="45.17115" lon="5.95777">
        <ele>2718.2</ele>
        <time>2021-02-20T11:59:48Z</time>
      </trkpt>
      <trkpt lat="45.17115" lon="5.95778">
        <ele>2718.2</ele>
        <time>2021-02-20T11:59:49Z</time>
      </trkpt>
      <trkpt lat="45.17114" lon="5.95778">
        <ele>2717.4</ele>
        <time>2021-02-20T11:59:50Z</time>
      </trkpt>
      <trkpt lat="45.17114" lon="5.95779">
        <ele>2717.4</ele>
        <time>2021-02-20T11:59:51Z</time>
      </trkpt>
      <trkpt lat="45.17113" lon="5.9578">
        <ele>2717.4</ele>
        <time>2021-02-20T11:59:52Z</time>
      </trkpt>
      <trkpt lat="45.17113" lon="5.95781">
        <ele>2717.4</ele>
        <time>2021-02-20T11:59:53Z</time>
      </trkpt>
      <trkpt lat="45.17112" lon="5.95781">
        <ele>2717.5</ele>
        <time>2021-02-20T11:59:54Z</time>
      </trkpt>
      <trkpt lat="45.17112" lon="5.95781">
        <ele>2717.5</ele>
        <time>2021-02-20T11:59:55Z</time>
      </trkpt>
      <trkpt lat="45.17112" lon="5.95782">
        <ele>2717.5</ele>
        <time>2021-02-20T11:59:56Z</time>
      </trkpt>
      <trkpt lat="45.17112" lon="5.95782">
        <ele>2717.5</ele>
        <time>2021-02-20T11:59:57Z</time>
      </trkpt>
      <trkpt lat="45.17111" lon="5.95782">
        <ele>2716.5</ele>
        <time>2021-02-20T11:59:58Z</time>
      </trkpt>
      <trkpt lat="45.17111" lon="5.95783">
        <ele>2716.5</ele>
        <time>2021-02-20T11:59:59Z</time>
      </trkpt>
      <trkpt lat="45.1711" lon="5.95783">
        <ele>2716.5</ele>
        <time>2021-02-20T12:00:00Z</time>
      </trkpt>
      <trkpt lat="45.1711" lon="5.95784">
        <ele>2716.5</ele>
        <time>2021-02-20T12:00:01Z</time>
      </trkpt>
      <trkpt lat="45.1711" lon="5.95785">
        <ele>2716.5</ele>
        <time>2021-02-20T12:00:02Z</time>
      </trkpt>
      <trkpt lat="45.1711" lon="5.95785">
        <ele>2716.6</ele>
        <time>2021-02-20T12:00:03Z</time>
      </trkpt>
      <trkpt lat="45.1711" lon="5.95785">
        <ele>2716.5</ele>
        <time>2021-02-20T12:00:04Z</time>
      </trkpt>
      <trkpt lat="45.17109" lon="5.95785">
        <ele>2716.5</ele>
        <time>2021-02-20T12:00:05Z</time>
      </trkpt>
      <trkpt lat="45.17109" lon="5.95785">
        <ele>2716.5</ele>
        <time>2021-02-20T12:00:06Z</time>
      </trkpt>
      <trkpt lat="45.17109" lon="5.95785">
        <ele>2716.5</ele>
        <time>2021-02-20T12:00:07Z</time>
      </trkpt>
      <trkpt lat="45.17109" lon="5.95785">
        <ele>2716.5</ele>
        <time>2021-02-20T12:00:08Z</time>
      </trkpt>
      <trkpt lat="45.17109" lon="5.95785">
        <ele>2716.5</ele>
        <time>2021-02-20T12:00:09Z</time>
      </trkpt>
      <trkpt lat="45.17108" lon="5.95785">
        <ele>2715.5</ele>
        <time>2021-02-20T12:00:10Z</time>
      </trkpt>
      <trkpt lat="45.17108" lon="5.95785">
        <ele>2715.5</ele>
        <time>2021-02-20T12:00:11Z</time>
      </trkpt>
      <trkpt lat="45.17109" lon="5.95785">
        <ele>2715.4</ele>
        <time>2021-02-20T12:00:12Z</time>
      </trkpt>
      <trkpt lat="45.17108" lon="5.95785">
        <ele>2715.4</ele>
        <time>2021-02-20T12:00:13Z</time>
      </trkpt>
      <trkpt lat="45.17109" lon="5.95785">
        <ele>2716.5</ele>
        <time>2021-02-20T12:00:14Z</time>
      </trkpt>
      <trkpt lat="45.17109" lon="5.95785">
        <ele>2716.5</ele>
        <time>2021-02-20T12:00:15Z</time>
      </trkpt>
      <trkpt lat="45.17109" lon="5.95785">
        <ele>2716.5</ele>
        <time>2021-02-20T12:00:16Z</time>
      </trkpt>
      <trkpt lat="45.17109" lon="5.95785">
        <ele>2716.5</ele>
        <time>2021-02-20T12:00:17Z</time>
      </trkpt>
      <trkpt lat="45.17109" lon="5.95785">
        <ele>2716.6</ele>
        <time>2021-02-20T12:00:18Z</time>
      </trkpt>
      <trkpt lat="45.17109" lon="5.95785">
        <ele>2716.6</ele>
        <time>2021-02-20T12:00:19Z</time>
      </trkpt>
      <trkpt lat="45.17109" lon="5.95786">
        <ele>2716.6</ele>
        <time>2021-02-20T12:00:20Z</time>
      </trkpt>
      <trkpt lat="45.17109" lon="5.95786">
        <ele>2716.6</ele>
        <time>2021-02-20T12:00:21Z</time>
      </trkpt>
      <trkpt lat="45.17109" lon="5.95786">
        <ele>2716.6</ele>
        <time>2021-02-20T12:00:22Z</time>
      </trkpt>
      <trkpt lat="45.17109" lon="5.95787">
        <ele>2716.6</ele>
        <time>2021-02-20T12:00:23Z</time>
      </trkpt>
      <trkpt lat="45.17108" lon="5.95789">
        <ele>2715.5</ele>
        <time>2021-02-20T12:00:24Z</time>
      </trkpt>
      <trkpt lat="45.17108" lon="5.9579">
        <ele>2715.5</ele>
        <time>2021-02-20T12:00:25Z</time>
      </trkpt>
      <trkpt lat="45.17107" lon="5.9579">
        <ele>2715.5</ele>
        <time>2021-02-20T12:00:26Z</time>
      </trkpt>
      <trkpt lat="45.17107" lon="5.9579">
        <ele>2715.5</ele>
        <time>2021-02-20T12:00:27Z</time>
      </trkpt>
      <trkpt lat="45.17106" lon="5.9579">
        <ele>2715.5</ele>
        <time>2021-02-20T12:00:28Z</time>
      </trkpt>
      <trkpt lat="45.17106" lon="5.95791">
        <ele>2715.5</ele>
        <time>2021-02-20T12:00:29Z</time>
      </trkpt>
      <trkpt lat="45.17106" lon="5.95791">
        <ele>2714.2</ele>
        <time>2021-02-20T12:00:30Z</time>
      </trkpt>
      <trkpt lat="45.17105" lon="5.95791">
        <ele>2714.2</ele>
        <time>2021-02-20T12:00:31Z</time>
      </trkpt>
      <trkpt lat="45.17105" lon="5.95791">
        <ele>2714.2</ele>
        <time>2021-02-20T12:00:32Z</time>
      </trkpt>
      <trkpt lat="45.17105" lon="5.95791">
        <ele>2714.2</ele>
        <time>2021-02-20T12:00:33Z</time>
      </trkpt>
      <trkpt lat="45.17105" lon="5.95791">
        <ele>2714.2</ele>
        <time>2021-02-20T12:00:34Z</time>
      </trkpt>
      <trkpt lat="45.17106" lon="5.95791">
        <ele>2714.2</ele>
        <time>2021-02-20T12:00:35Z</time>
      </trkpt>
      <trkpt lat="45.17106" lon="5.95791">
        <ele>2714.2</ele>
        <time>2021-02-20T12:00:36Z</time>
      </trkpt>
      <trkpt lat="45.17105" lon="5.9579">
        <ele>2714.2</ele>
        <time>2021-02-20T12:00:37Z</time>
      </trkpt>
      <trkpt lat="45.17105" lon="5.9579">
        <ele>2714.2</ele>
        <time>2021-02-20T12:00:38Z</time>
      </trkpt>
      <trkpt lat="45.17105" lon="5.9579">
        <ele>2714.2</ele>
        <time>2021-02-20T12:00:39Z</time>
      </trkpt>
      <trkpt lat="45.17105" lon="5.9579">
        <ele>2714.2</ele>
        <time>2021-02-20T12:00:40Z</time>
      </trkpt>
      <trkpt lat="45.17105" lon="5.9579">
        <ele>2714.2</ele>
        <time>2021-02-20T12:00:41Z</time>
      </trkpt>
      <trkpt lat="45.17105" lon="5.9579">
        <ele>2714.2</ele>
        <time>2021-02-20T12:00:42Z</time>
      </trkpt>
      <trkpt lat="45.17105" lon="5.9579">
        <ele>2714.2</ele>
        <time>2021-02-20T12:00:43Z</time>
      </trkpt>
      <trkpt lat="45.17105" lon="5.9579">
        <ele>2714.2</ele>
        <time>2021-02-20T12:00:44Z</time>
      </trkpt>
      <trkpt lat="45.17105" lon="5.95788">
        <ele>2714.2</ele>
        <time>2021-02-20T12:00:45Z</time>
      </trkpt>
      <trkpt lat="45.17106" lon="5.95788">
        <ele>2715.5</ele>
        <time>2021-02-20T12:00:46Z</time>
      </trkpt>
      <trkpt lat="45.17106" lon="5.95788">
        <ele>2715.5</ele>
        <time>2021-02-20T12:00:47Z</time>
      </trkpt>
      <trkpt lat="45.17106" lon="5.95788">
        <ele>2715.5</ele>
        <time>2021-02-20T12:00:48Z</time>
      </trkpt>
      <trkpt lat="45.17106" lon="5.95788">
        <ele>2715.5</ele>
        <time>2021-02-20T12:00:49Z</time>
      </trkpt>
      <trkpt lat="45.17106" lon="5.95787">
        <ele>2715.5</ele>
        <time>2021-02-20T12:00:50Z</time>
      </trkpt>
      <trkpt lat="45.17106" lon="5.95787">
        <ele>2715.5</ele>
        <time>2021-02-20T12:00:51Z</time>
      </trkpt>
      <trkpt lat="45.17106" lon="5.95787">
        <ele>2715.5</ele>
        <time>2021-02-20T12:00:52Z</time>
      </trkpt>
      <trkpt lat="45.17106" lon="5.95787">
        <ele>2715.5</ele>
        <time>2021-02-20T12:00:53Z</time>
      </trkpt>
      <trkpt lat="45.17106" lon="5.95787">
        <ele>2715.5</ele>
        <time>2021-02-20T12:00:54Z</time>
      </trkpt>
      <trkpt lat="45.17106" lon="5.95787">
        <ele>2715.5</ele>
        <time>2021-02-20T12:00:55Z</time>
      </trkpt>
      <trkpt lat="45.17106" lon="5.95787">
        <ele>2715.5</ele>
        <time>2021-02-20T12:00:56Z</time>
      </trkpt>
      <trkpt lat="45.17106" lon="5.95787">
        <ele>2715.5</ele>
        <time>2021-02-20T12:00:57Z</time>
      </trkpt>
      <trkpt lat="45.17106" lon="5.95787">
        <ele>2715.5</ele>
        <time>2021-02-20T12:00:58Z</time>
      </trkpt>
      <trkpt lat="45.17106" lon="5.95786">
        <ele>2715.5</ele>
        <time>2021-02-20T12:00:59Z</time>
      </trkpt>
      <trkpt lat="45.17106" lon="5.95786">
        <ele>2714.2</ele>
        <time>2021-02-20T12:01:00Z</time>
      </trkpt>
      <trkpt lat="45.17105" lon="5.95786">
        <ele>2714.2</ele>
        <time>2021-02-20T12:01:01Z</time>
      </trkpt>
      <trkpt lat="45.17105" lon="5.95786">
        <ele>2714.2</ele>
        <time>2021-02-20T12:01:02Z</time>
      </trkpt>
      <trkpt lat="45.17105" lon="5.95786">
        <ele>2714.2</ele>
        <time>2021-02-20T12:01:03Z</time>
      </trkpt>
      <trkpt lat="45.17105" lon="5.95786">
        <ele>2714.2</ele>
        <time>2021-02-20T12:01:04Z</time>
      </trkpt>
      <trkpt lat="45.17105" lon="5.95786">
        <ele>2714.2</ele>
        <time>2021-02-20T12:01:05Z</time>
      </trkpt>
      <trkpt lat="45.17105" lon="5.95786">
        <ele>2714.2</ele>
        <time>2021-02-20T12:01:06Z</time>
      </trkpt>
      <trkpt lat="45.17105" lon="5.95786">
        <ele>2714.2</ele>
        <time>2021-02-20T12:01:07Z</time>
      </trkpt>
      <trkpt lat="45.17105" lon="5.95786">
        <ele>2714.2</ele>
        <time>2021-02-20T12:01:08Z</time>
      </trkpt>
      <trkpt lat="45.17105" lon="5.95786">
        <ele>2714.2</ele>
        <time>2021-02-20T12:01:09Z</time>
      </trkpt>
      <trkpt lat="45.17105" lon="5.95786">
        <ele>2714.2</ele>
        <time>2021-02-20T12:01:10Z</time>
      </trkpt>
      <trkpt lat="45.17105" lon="5.95786">
        <ele>2714.2</ele>
        <time>2021-02-20T12:01:11Z</time>
      </trkpt>
      <trkpt lat="45.17105" lon="5.95786">
        <ele>2714.2</ele>
        <time>2021-02-20T12:01:12Z</time>
      </trkpt>
      <trkpt lat="45.17105" lon="5.95786">
        <ele>2714.2</ele>
        <time>2021-02-20T12:01:13Z</time>
      </trkpt>
      <trkpt lat="45.17105" lon="5.95786">
        <ele>2714.2</ele>
        <time>2021-02-20T12:01:14Z</time>
      </trkpt>
      <trkpt lat="45.17105" lon="5.95786">
        <ele>2714.2</ele>
        <time>2021-02-20T12:01:15Z</time>
      </trkpt>
      <trkpt lat="45.17105" lon="5.95786">
        <ele>2714.2</ele>
        <time>2021-02-20T12:01:16Z</time>
      </trkpt>
      <trkpt lat="45.17105" lon="5.95786">
        <ele>2714.2</ele>
        <time>2021-02-20T12:01:17Z</time>
      </trkpt>
      <trkpt lat="45.17105" lon="5.95786">
        <ele>2714.2</ele>
        <time>2021-02-20T12:01:18Z</time>
      </trkpt>
      <trkpt lat="45.17106" lon="5.95785">
        <ele>2715.5</ele>
        <time>2021-02-20T12:01:19Z</time>
      </trkpt>
      <trkpt lat="45.17106" lon="5.95785">
        <ele>2715.5</ele>
        <time>2021-02-20T12:01:20Z</time>
      </trkpt>
      <trkpt lat="45.17106" lon="5.95785">
        <ele>2715.5</ele>
        <time>2021-02-20T12:01:21Z</time>
      </trkpt>
      <trkpt lat="45.17106" lon="5.95785">
        <ele>2715.5</ele>
        <time>2021-02-20T12:01:22Z</time>
      </trkpt>
      <trkpt lat="45.17106" lon="5.95785">
        <ele>2715.5</ele>
        <time>2021-02-20T12:01:23Z</time>
      </trkpt>
      <trkpt lat="45.17106" lon="5.95785">
        <ele>2715.5</ele>
        <time>2021-02-20T12:01:24Z</time>
      </trkpt>
      <trkpt lat="45.17106" lon="5.95785">
        <ele>2715.5</ele>
        <time>2021-02-20T12:01:25Z</time>
      </trkpt>
      <trkpt lat="45.17106" lon="5.95785">
        <ele>2715.5</ele>
        <time>2021-02-20T12:01:26Z</time>
      </trkpt>
      <trkpt lat="45.17106" lon="5.95785">
        <ele>2715.5</ele>
        <time>2021-02-20T12:01:27Z</time>
      </trkpt>
      <trkpt lat="45.17106" lon="5.95785">
        <ele>2715.5</ele>
        <time>2021-02-20T12:01:28Z</time>
      </trkpt>
      <trkpt lat="45.17105" lon="5.95785">
        <ele>2714.2</ele>
        <time>2021-02-20T12:01:29Z</time>
      </trkpt>
      <trkpt lat="45.17105" lon="5.95785">
        <ele>2714.2</ele>
        <time>2021-02-20T12:01:30Z</time>
      </trkpt>
      <trkpt lat="45.17105" lon="5.95785">
        <ele>2714.2</ele>
        <time>2021-02-20T12:01:31Z</time>
      </trkpt>
      <trkpt lat="45.17105" lon="5.95785">
        <ele>2714.2</ele>
        <time>2021-02-20T12:01:32Z</time>
      </trkpt>
      <trkpt lat="45.17105" lon="5.95785">
        <ele>2714.2</ele>
        <time>2021-02-20T12:01:33Z</time>
      </trkpt>
      <trkpt lat="45.17105" lon="5.95785">
        <ele>2714.2</ele>
        <time>2021-02-20T12:01:34Z</time>
      </trkpt>
      <trkpt lat="45.17105" lon="5.95785">
        <ele>2714.2</ele>
        <time>2021-02-20T12:01:35Z</time>
      </trkpt>
      <trkpt lat="45.17105" lon="5.95785">
        <ele>2714.2</ele>
        <time>2021-02-20T12:01:36Z</time>
      </trkpt>
      <trkpt lat="45.17105" lon="5.95785">
        <ele>2714.2</ele>
        <time>2021-02-20T12:01:37Z</time>
      </trkpt>
      <trkpt lat="45.17105" lon="5.95785">
        <ele>2714.2</ele>
        <time>2021-02-20T12:01:38Z</time>
      </trkpt>
      <trkpt lat="45.17105" lon="5.95785">
        <ele>2714.2</ele>
        <time>2021-02-20T12:01:39Z</time>
      </trkpt>
      <trkpt lat="45.17105" lon="5.95785">
        <ele>2714.2</ele>
        <time>2021-02-20T12:01:40Z</time>
      </trkpt>
      <trkpt lat="45.17105" lon="5.95785">
        <ele>2714.2</ele>
        <time>2021-02-20T12:01:41Z</time>
      </trkpt>
      <trkpt lat="45.17105" lon="5.95785">
        <ele>2714.2</ele>
        <time>2021-02-20T12:01:42Z</time>
      </trkpt>
      <trkpt lat="45.17105" lon="5.95785">
        <ele>2714.2</ele>
        <time>2021-02-20T12:01:43Z</time>
      </trkpt>
      <trkpt lat="45.17105" lon="5.95785">
        <ele>2714.2</ele>
        <time>2021-02-20T12:01:44Z</time>
      </trkpt>
      <trkpt lat="45.17105" lon="5.95785">
        <ele>2714.2</ele>
        <time>2021-02-20T12:01:45Z</time>
      </trkpt>
      <trkpt lat="45.17105" lon="5.95785">
        <ele>2714.2</ele>
        <time>2021-02-20T12:01:46Z</time>
      </trkpt>
      <trkpt lat="45.17105" lon="5.95785">
        <ele>2714.2</ele>
        <time>2021-02-20T12:01:47Z</time>
      </trkpt>
      <trkpt lat="45.17105" lon="5.95785">
        <ele>2714.2</ele>
        <time>2021-02-20T12:01:48Z</time>
      </trkpt>
      <trkpt lat="45.17105" lon="5.95785">
        <ele>2714.2</ele>
        <time>2021-02-20T12:01:49Z</time>
      </trkpt>
      <trkpt lat="45.17105" lon="5.95785">
        <ele>2714.2</ele>
        <time>2021-02-20T12:01:50Z</time>
      </trkpt>
      <trkpt lat="45.17106" lon="5.95786">
        <ele>2715.5</ele>
        <time>2021-02-20T12:01:51Z</time>
      </trkpt>
      <trkpt lat="45.17106" lon="5.95786">
        <ele>2715.5</ele>
        <time>2021-02-20T12:01:52Z</time>
      </trkpt>
      <trkpt lat="45.17106" lon="5.95786">
        <ele>2715.5</ele>
        <time>2021-02-20T12:01:53Z</time>
      </trkpt>
      <trkpt lat="45.17106" lon="5.95786">
        <ele>2715.5</ele>
        <time>2021-02-20T12:01:54Z</time>
      </trkpt>
      <trkpt lat="45.17106" lon="5.95786">
        <ele>2715.5</ele>
        <time>2021-02-20T12:01:55Z</time>
      </trkpt>
      <trkpt lat="45.17106" lon="5.95786">
        <ele>2715.5</ele>
        <time>2021-02-20T12:01:56Z</time>
      </trkpt>
      <trkpt lat="45.17107" lon="5.95785">
        <ele>2715.5</ele>
        <time>2021-02-20T12:01:57Z</time>
      </trkpt>
      <trkpt lat="45.17107" lon="5.95785">
        <ele>2715.5</ele>
        <time>2021-02-20T12:01:58Z</time>
      </trkpt>
      <trkpt lat="45.17107" lon="5.95785">
        <ele>2715.5</ele>
        <time>2021-02-20T12:01:59Z</time>
      </trkpt>
      <trkpt lat="45.17107" lon="5.95785">
        <ele>2715.5</ele>
        <time>2021-02-20T12:02:00Z</time>
      </trkpt>
      <trkpt lat="45.17107" lon="5.95785">
        <ele>2715.5</ele>
        <time>2021-02-20T12:02:01Z</time>
      </trkpt>
      <trkpt lat="45.17107" lon="5.95785">
        <ele>2715.5</ele>
        <time>2021-02-20T12:02:02Z</time>
      </trkpt>
      <trkpt lat="45.17107" lon="5.95785">
        <ele>2715.5</ele>
        <time>2021-02-20T12:02:03Z</time>
      </trkpt>
      <trkpt lat="45.17107" lon="5.95785">
        <ele>2715.5</ele>
        <time>2021-02-20T12:02:04Z</time>
      </trkpt>
      <trkpt lat="45.17107" lon="5.95785">
        <ele>2715.5</ele>
        <time>2021-02-20T12:02:05Z</time>
      </trkpt>
      <trkpt lat="45.17107" lon="5.95785">
        <ele>2715.5</ele>
        <time>2021-02-20T12:02:06Z</time>
      </trkpt>
      <trkpt lat="45.17107" lon="5.95785">
        <ele>2715.5</ele>
        <time>2021-02-20T12:02:07Z</time>
      </trkpt>
      <trkpt lat="45.17107" lon="5.95785">
        <ele>2715.5</ele>
        <time>2021-02-20T12:02:08Z</time>
      </trkpt>
      <trkpt lat="45.17107" lon="5.95785">
        <ele>2715.5</ele>
        <time>2021-02-20T12:02:09Z</time>
      </trkpt>
      <trkpt lat="45.17107" lon="5.95785">
        <ele>2715.5</ele>
        <time>2021-02-20T12:02:10Z</time>
      </trkpt>
      <trkpt lat="45.17107" lon="5.95785">
        <ele>2715.5</ele>
        <time>2021-02-20T12:02:11Z</time>
      </trkpt>
      <trkpt lat="45.17107" lon="5.95785">
        <ele>2715.5</ele>
        <time>2021-02-20T12:02:12Z</time>
      </trkpt>
      <trkpt lat="45.17107" lon="5.95785">
        <ele>2715.5</ele>
        <time>2021-02-20T12:02:13Z</time>
      </trkpt>
      <trkpt lat="45.17107" lon="5.95785">
        <ele>2715.5</ele>
        <time>2021-02-20T12:02:14Z</time>
      </trkpt>
      <trkpt lat="45.17107" lon="5.95785">
        <ele>2715.5</ele>
        <time>2021-02-20T12:02:15Z</time>
      </trkpt>
      <trkpt lat="45.17107" lon="5.95785">
        <ele>2715.5</ele>
        <time>2021-02-20T12:02:16Z</time>
      </trkpt>
      <trkpt lat="45.17107" lon="5.95785">
        <ele>2715.5</ele>
        <time>2021-02-20T12:02:17Z</time>
      </trkpt>
      <trkpt lat="45.17107" lon="5.95785">
        <ele>2715.5</ele>
        <time>2021-02-20T12:02:18Z</time>
      </trkpt>
      <trkpt lat="45.17107" lon="5.95785">
        <ele>2715.5</ele>
        <time>2021-02-20T12:02:19Z</time>
      </trkpt>
      <trkpt lat="45.17107" lon="5.95785">
        <ele>2715.5</ele>
        <time>2021-02-20T12:02:20Z</time>
      </trkpt>
      <trkpt lat="45.17107" lon="5.95785">
        <ele>2715.5</ele>
        <time>2021-02-20T12:02:21Z</time>
      </trkpt>
      <trkpt lat="45.17107" lon="5.95785">
        <ele>2715.5</ele>
        <time>2021-02-20T12:02:22Z</time>
      </trkpt>
      <trkpt lat="45.17107" lon="5.95785">
        <ele>2715.5</ele>
        <time>2021-02-20T12:02:23Z</time>
      </trkpt>
      <trkpt lat="45.17107" lon="5.95785">
        <ele>2715.5</ele>
        <time>2021-02-20T12:02:24Z</time>
      </trkpt>
      <trkpt lat="45.17107" lon="5.95785">
        <ele>2715.5</ele>
        <time>2021-02-20T12:02:25Z</time>
      </trkpt>
      <trkpt lat="45.17107" lon="5.95785">
        <ele>2715.5</ele>
        <time>2021-02-20T12:02:26Z</time>
      </trkpt>
      <trkpt lat="45.17107" lon="5.95785">
        <ele>2715.5</ele>
        <time>2021-02-20T12:02:27Z</time>
      </trkpt>
      <trkpt lat="45.17107" lon="5.95785">
        <ele>2715.5</ele>
        <time>2021-02-20T12:02:28Z</time>
      </trkpt>
      <trkpt lat="45.17107" lon="5.95785">
        <ele>2715.5</ele>
        <time>2021-02-20T12:02:29Z</time>
      </trkpt>
      <trkpt lat="45.17107" lon="5.95785">
        <ele>2715.5</ele>
        <time>2021-02-20T12:02:30Z</time>
      </trkpt>
      <trkpt lat="45.17107" lon="5.95785">
        <ele>2715.5</ele>
        <time>2021-02-20T12:02:31Z</time>
      </trkpt>
      <trkpt lat="45.17107" lon="5.95785">
        <ele>2715.5</ele>
        <time>2021-02-20T12:02:32Z</time>
      </trkpt>
      <trkpt lat="45.17107" lon="5.95785">
        <ele>2715.5</ele>
        <time>2021-02-20T12:02:33Z</time>
      </trkpt>
      <trkpt lat="45.17107" lon="5.95785">
        <ele>2715.5</ele>
        <time>2021-02-20T12:02:34Z</time>
      </trkpt>
      <trkpt lat="45.17107" lon="5.95785">
        <ele>2715.5</ele>
        <time>2021-02-20T12:02:35Z</time>
      </trkpt>
      <trkpt lat="45.17107" lon="5.95785">
        <ele>2715.5</ele>
        <time>2021-02-20T12:02:36Z</time>
      </trkpt>
      <trkpt lat="45.17107" lon="5.95785">
        <ele>2715.5</ele>
        <time>2021-02-20T12:02:37Z</time>
      </trkpt>
      <trkpt lat="45.17107" lon="5.95785">
        <ele>2715.5</ele>
        <time>2021-02-20T12:02:38Z</time>
      </trkpt>
      <trkpt lat="45.17107" lon="5.95785">
        <ele>2715.5</ele>
        <time>2021-02-20T12:02:39Z</time>
      </trkpt>
      <trkpt lat="45.17107" lon="5.95785">
        <ele>2715.5</ele>
        <time>2021-02-20T12:02:40Z</time>
      </trkpt>
      <trkpt lat="45.17107" lon="5.95785">
        <ele>2715.5</ele>
        <time>2021-02-20T12:02:41Z</time>
      </trkpt>
      <trkpt lat="45.17107" lon="5.95785">
        <ele>2715.5</ele>
        <time>2021-02-20T12:02:42Z</time>
      </trkpt>
      <trkpt lat="45.17107" lon="5.95785">
        <ele>2715.5</ele>
        <time>2021-02-20T12:02:43Z</time>
      </trkpt>
      <trkpt lat="45.17107" lon="5.95785">
        <ele>2715.5</ele>
        <time>2021-02-20T12:02:44Z</time>
      </trkpt>
      <trkpt lat="45.17107" lon="5.95785">
        <ele>2715.5</ele>
        <time>2021-02-20T12:02:45Z</time>
      </trkpt>
      <trkpt lat="45.17107" lon="5.95785">
        <ele>2715.5</ele>
        <time>2021-02-20T12:02:46Z</time>
      </trkpt>
      <trkpt lat="45.17107" lon="5.95785">
        <ele>2715.5</ele>
        <time>2021-02-20T12:02:47Z</time>
      </trkpt>
      <trkpt lat="45.17107" lon="5.95785">
        <ele>2715.5</ele>
        <time>2021-02-20T12:02:48Z</time>
      </trkpt>
      <trkpt lat="45.17107" lon="5.95785">
        <ele>2715.5</ele>
        <time>2021-02-20T12:02:49Z</time>
      </trkpt>
      <trkpt lat="45.17107" lon="5.95785">
        <ele>2715.5</ele>
        <time>2021-02-20T12:02:50Z</time>
      </trkpt>
      <trkpt lat="45.17107" lon="5.95785">
        <ele>2715.5</ele>
        <time>2021-02-20T12:02:51Z</time>
      </trkpt>
      <trkpt lat="45.17107" lon="5.95785">
        <ele>2715.5</ele>
        <time>2021-02-20T12:02:52Z</time>
      </trkpt>
      <trkpt lat="45.17107" lon="5.95785">
        <ele>2715.5</ele>
        <time>2021-02-20T12:02:53Z</time>
      </trkpt>
      <trkpt lat="45.17107" lon="5.95785">
        <ele>2715.5</ele>
        <time>2021-02-20T12:02:54Z</time>
      </trkpt>
      <trkpt lat="45.17107" lon="5.95785">
        <ele>2715.5</ele>
        <time>2021-02-20T12:02:55Z</time>
      </trkpt>
      <trkpt lat="45.17107" lon="5.95785">
        <ele>2715.5</ele>
        <time>2021-02-20T12:02:56Z</time>
      </trkpt>
      <trkpt lat="45.17107" lon="5.95785">
        <ele>2715.5</ele>
        <time>2021-02-20T12:02:57Z</time>
      </trkpt>
      <trkpt lat="45.17107" lon="5.95785">
        <ele>2715.5</ele>
        <time>2021-02-20T12:02:58Z</time>
      </trkpt>
      <trkpt lat="45.17107" lon="5.95785">
        <ele>2715.5</ele>
        <time>2021-02-20T12:02:59Z</time>
      </trkpt>
      <trkpt lat="45.17107" lon="5.95785">
        <ele>2715.5</ele>
        <time>2021-02-20T12:03:00Z</time>
      </trkpt>
      <trkpt lat="45.17107" lon="5.95785">
        <ele>2715.5</ele>
        <time>2021-02-20T12:03:01Z</time>
      </trkpt>
      <trkpt lat="45.17107" lon="5.95785">
        <ele>2715.5</ele>
        <time>2021-02-20T12:03:02Z</time>
      </trkpt>
      <trkpt lat="45.17107" lon="5.95785">
        <ele>2715.5</ele>
        <time>2021-02-20T12:03:03Z</time>
      </trkpt>
      <trkpt lat="45.17107" lon="5.95785">
        <ele>2715.5</ele>
        <time>2021-02-20T12:03:04Z</time>
      </trkpt>
      <trkpt lat="45.17107" lon="5.95785">
        <ele>2715.5</ele>
        <time>2021-02-20T12:03:05Z</time>
      </trkpt>
      <trkpt lat="45.17107" lon="5.95785">
        <ele>2715.5</ele>
        <time>2021-02-20T12:03:06Z</time>
      </trkpt>
      <trkpt lat="45.17107" lon="5.95785">
        <ele>2715.5</ele>
        <time>2021-02-20T12:03:07Z</time>
      </trkpt>
      <trkpt lat="45.17107" lon="5.95785">
        <ele>2715.5</ele>
        <time>2021-02-20T12:03:08Z</time>
      </trkpt>
      <trkpt lat="45.17107" lon="5.95785">
        <ele>2715.5</ele>
        <time>2021-02-20T12:03:09Z</time>
      </trkpt>
      <trkpt lat="45.17107" lon="5.95785">
        <ele>2715.5</ele>
        <time>2021-02-20T12:03:10Z</time>
      </trkpt>
      <trkpt lat="45.17107" lon="5.95785">
        <ele>2715.5</ele>
        <time>2021-02-20T12:03:11Z</time>
      </trkpt>
      <trkpt lat="45.17107" lon="5.95785">
        <ele>2715.5</ele>
        <time>2021-02-20T12:03:12Z</time>
      </trkpt>
      <trkpt lat="45.17106" lon="5.95784">
        <ele>2715.4</ele>
        <time>2021-02-20T12:03:13Z</time>
      </trkpt>
      <trkpt lat="45.17107" lon="5.95784">
        <ele>2715.4</ele>
        <time>2021-02-20T12:03:14Z</time>
      </trkpt>
      <trkpt lat="45.17107" lon="5.95784">
        <ele>2715.4</ele>
        <time>2021-02-20T12:03:15Z</time>
      </trkpt>
      <trkpt lat="45.17107" lon="5.95784">
        <ele>2715.4</ele>
        <time>2021-02-20T12:03:16Z</time>
      </trkpt>
      <trkpt lat="45.17107" lon="5.95784">
        <ele>2715.4</ele>
        <time>2021-02-20T12:03:17Z</time>
      </trkpt>
      <trkpt lat="45.17107" lon="5.95784">
        <ele>2715.4</ele>
        <time>2021-02-20T12:03:18Z</time>
      </trkpt>
      <trkpt lat="45.17107" lon="5.95784">
        <ele>2715.4</ele>
        <time>2021-02-20T12:03:19Z</time>
      </trkpt>
      <trkpt lat="45.17107" lon="5.95784">
        <ele>2715.4</ele>
        <time>2021-02-20T12:03:20Z</time>
      </trkpt>
      <trkpt lat="45.17107" lon="5.95784">
        <ele>2715.4</ele>
        <time>2021-02-20T12:03:21Z</time>
      </trkpt>
      <trkpt lat="45.17107" lon="5.95784">
        <ele>2715.4</ele>
        <time>2021-02-20T12:03:22Z</time>
      </trkpt>
      <trkpt lat="45.17107" lon="5.95784">
        <ele>2715.4</ele>
        <time>2021-02-20T12:03:23Z</time>
      </trkpt>
      <trkpt lat="45.17107" lon="5.95784">
        <ele>2715.4</ele>
        <time>2021-02-20T12:03:24Z</time>
      </trkpt>
      <trkpt lat="45.17107" lon="5.95784">
        <ele>2715.4</ele>
        <time>2021-02-20T12:03:25Z</time>
      </trkpt>
      <trkpt lat="45.17107" lon="5.95784">
        <ele>2715.4</ele>
        <time>2021-02-20T12:03:26Z</time>
      </trkpt>
      <trkpt lat="45.17107" lon="5.95784">
        <ele>2715.4</ele>
        <time>2021-02-20T12:03:27Z</time>
      </trkpt>
      <trkpt lat="45.17107" lon="5.95784">
        <ele>2715.4</ele>
        <time>2021-02-20T12:03:28Z</time>
      </trkpt>
      <trkpt lat="45.17107" lon="5.95784">
        <ele>2715.4</ele>
        <time>2021-02-20T12:03:29Z</time>
      </trkpt>
      <trkpt lat="45.17107" lon="5.95784">
        <ele>2715.4</ele>
        <time>2021-02-20T12:03:30Z</time>
      </trkpt>
      <trkpt lat="45.17107" lon="5.95784">
        <ele>2715.4</ele>
        <time>2021-02-20T12:03:31Z</time>
      </trkpt>
      <trkpt lat="45.17107" lon="5.95784">
        <ele>2715.4</ele>
        <time>2021-02-20T12:03:32Z</time>
      </trkpt>
      <trkpt lat="45.17107" lon="5.95784">
        <ele>2715.4</ele>
        <time>2021-02-20T12:03:33Z</time>
      </trkpt>
      <trkpt lat="45.17107" lon="5.95784">
        <ele>2715.4</ele>
        <time>2021-02-20T12:03:34Z</time>
      </trkpt>
      <trkpt lat="45.17107" lon="5.95784">
        <ele>2715.4</ele>
        <time>2021-02-20T12:03:35Z</time>
      </trkpt>
      <trkpt lat="45.17107" lon="5.95784">
        <ele>2715.4</ele>
        <time>2021-02-20T12:03:36Z</time>
      </trkpt>
      <trkpt lat="45.17107" lon="5.95784">
        <ele>2715.4</ele>
        <time>2021-02-20T12:03:37Z</time>
      </trkpt>
      <trkpt lat="45.17107" lon="5.95784">
        <ele>2715.4</ele>
        <time>2021-02-20T12:03:38Z</time>
      </trkpt>
      <trkpt lat="45.17107" lon="5.95784">
        <ele>2715.4</ele>
        <time>2021-02-20T12:03:39Z</time>
      </trkpt>
      <trkpt lat="45.17107" lon="5.95784">
        <ele>2715.4</ele>
        <time>2021-02-20T12:03:40Z</time>
      </trkpt>
      <trkpt lat="45.17107" lon="5.95784">
        <ele>2715.4</ele>
        <time>2021-02-20T12:03:41Z</time>
      </trkpt>
      <trkpt lat="45.17107" lon="5.95784">
        <ele>2715.4</ele>
        <time>2021-02-20T12:03:42Z</time>
      </trkpt>
      <trkpt lat="45.17107" lon="5.95784">
        <ele>2715.4</ele>
        <time>2021-02-20T12:03:43Z</time>
      </trkpt>
      <trkpt lat="45.17107" lon="5.95784">
        <ele>2715.4</ele>
        <time>2021-02-20T12:03:44Z</time>
      </trkpt>
      <trkpt lat="45.17107" lon="5.95784">
        <ele>2715.4</ele>
        <time>2021-02-20T12:03:45Z</time>
      </trkpt>
      <trkpt lat="45.17107" lon="5.95784">
        <ele>2715.4</ele>
        <time>2021-02-20T12:03:46Z</time>
      </trkpt>
      <trkpt lat="45.17107" lon="5.95784">
        <ele>2715.4</ele>
        <time>2021-02-20T12:03:47Z</time>
      </trkpt>
      <trkpt lat="45.17107" lon="5.95784">
        <ele>2715.4</ele>
        <time>2021-02-20T12:03:48Z</time>
      </trkpt>
      <trkpt lat="45.17107" lon="5.95784">
        <ele>2715.4</ele>
        <time>2021-02-20T12:03:49Z</time>
      </trkpt>
      <trkpt lat="45.17107" lon="5.95784">
        <ele>2715.4</ele>
        <time>2021-02-20T12:03:50Z</time>
      </trkpt>
      <trkpt lat="45.17107" lon="5.95784">
        <ele>2715.4</ele>
        <time>2021-02-20T12:03:51Z</time>
      </trkpt>
      <trkpt lat="45.17107" lon="5.95784">
        <ele>2715.4</ele>
        <time>2021-02-20T12:03:52Z</time>
      </trkpt>
      <trkpt lat="45.17107" lon="5.95784">
        <ele>2715.4</ele>
        <time>2021-02-20T12:03:53Z</time>
      </trkpt>
      <trkpt lat="45.17107" lon="5.95784">
        <ele>2715.4</ele>
        <time>2021-02-20T12:03:54Z</time>
      </trkpt>
      <trkpt lat="45.17107" lon="5.95784">
        <ele>2715.4</ele>
        <time>2021-02-20T12:03:55Z</time>
      </trkpt>
      <trkpt lat="45.17107" lon="5.95784">
        <ele>2715.4</ele>
        <time>2021-02-20T12:03:56Z</time>
      </trkpt>
      <trkpt lat="45.17107" lon="5.95784">
        <ele>2715.4</ele>
        <time>2021-02-20T12:03:57Z</time>
      </trkpt>
      <trkpt lat="45.17107" lon="5.95784">
        <ele>2715.4</ele>
        <time>2021-02-20T12:03:58Z</time>
      </trkpt>
      <trkpt lat="45.17107" lon="5.95784">
        <ele>2715.4</ele>
        <time>2021-02-20T12:03:59Z</time>
      </trkpt>
      <trkpt lat="45.17107" lon="5.95784">
        <ele>2715.4</ele>
        <time>2021-02-20T12:04:00Z</time>
      </trkpt>
      <trkpt lat="45.17107" lon="5.95784">
        <ele>2715.4</ele>
        <time>2021-02-20T12:04:01Z</time>
      </trkpt>
      <trkpt lat="45.17107" lon="5.95784">
        <ele>2715.4</ele>
        <time>2021-02-20T12:04:02Z</time>
      </trkpt>
      <trkpt lat="45.17107" lon="5.95784">
        <ele>2715.4</ele>
        <time>2021-02-20T12:04:03Z</time>
      </trkpt>
      <trkpt lat="45.17107" lon="5.95784">
        <ele>2715.4</ele>
        <time>2021-02-20T12:04:04Z</time>
      </trkpt>
      <trkpt lat="45.17107" lon="5.95784">
        <ele>2715.4</ele>
        <time>2021-02-20T12:04:05Z</time>
      </trkpt>
      <trkpt lat="45.17107" lon="5.95784">
        <ele>2715.4</ele>
        <time>2021-02-20T12:04:06Z</time>
      </trkpt>
      <trkpt lat="45.17107" lon="5.95784">
        <ele>2715.4</ele>
        <time>2021-02-20T12:04:07Z</time>
      </trkpt>
      <trkpt lat="45.17107" lon="5.95784">
        <ele>2715.4</ele>
        <time>2021-02-20T12:04:08Z</time>
      </trkpt>
      <trkpt lat="45.17107" lon="5.95784">
        <ele>2715.4</ele>
        <time>2021-02-20T12:04:09Z</time>
      </trkpt>
      <trkpt lat="45.17107" lon="5.95784">
        <ele>2715.4</ele>
        <time>2021-02-20T12:04:10Z</time>
      </trkpt>
      <trkpt lat="45.17107" lon="5.95784">
        <ele>2715.4</ele>
        <time>2021-02-20T12:04:11Z</time>
      </trkpt>
      <trkpt lat="45.17107" lon="5.95784">
        <ele>2715.4</ele>
        <time>2021-02-20T12:04:12Z</time>
      </trkpt>
      <trkpt lat="45.17107" lon="5.95784">
        <ele>2715.4</ele>
        <time>2021-02-20T12:04:13Z</time>
      </trkpt>
      <trkpt lat="45.17107" lon="5.95784">
        <ele>2715.4</ele>
        <time>2021-02-20T12:04:14Z</time>
      </trkpt>
      <trkpt lat="45.17107" lon="5.95784">
        <ele>2715.4</ele>
        <time>2021-02-20T12:04:15Z</time>
      </trkpt>
      <trkpt lat="45.17107" lon="5.95784">
        <ele>2715.4</ele>
        <time>2021-02-20T12:04:16Z</time>
      </trkpt>
      <trkpt lat="45.17107" lon="5.95784">
        <ele>2715.4</ele>
        <time>2021-02-20T12:04:17Z</time>
      </trkpt>
      <trkpt lat="45.17107" lon="5.95784">
        <ele>2715.4</ele>
        <time>2021-02-20T12:04:18Z</time>
      </trkpt>
      <trkpt lat="45.17107" lon="5.95784">
        <ele>2715.4</ele>
        <time>2021-02-20T12:04:19Z</time>
      </trkpt>
      <trkpt lat="45.17107" lon="5.95784">
        <ele>2715.4</ele>
        <time>2021-02-20T12:04:20Z</time>
      </trkpt>
      <trkpt lat="45.17107" lon="5.95784">
        <ele>2715.4</ele>
        <time>2021-02-20T12:04:21Z</time>
      </trkpt>
      <trkpt lat="45.17107" lon="5.95784">
        <ele>2715.4</ele>
        <time>2021-02-20T12:04:22Z</time>
      </trkpt>
      <trkpt lat="45.17107" lon="5.95784">
        <ele>2715.4</ele>
        <time>2021-02-20T12:04:23Z</time>
      </trkpt>
      <trkpt lat="45.17107" lon="5.95784">
        <ele>2715.4</ele>
        <time>2021-02-20T12:04:24Z</time>
      </trkpt>
      <trkpt lat="45.17107" lon="5.95784">
        <ele>2715.4</ele>
        <time>2021-02-20T12:04:25Z</time>
      </trkpt>
      <trkpt lat="45.17107" lon="5.95784">
        <ele>2715.4</ele>
        <time>2021-02-20T12:04:26Z</time>
      </trkpt>
      <trkpt lat="45.17107" lon="5.95784">
        <ele>2715.4</ele>
        <time>2021-02-20T12:04:27Z</time>
      </trkpt>
      <trkpt lat="45.17107" lon="5.95784">
        <ele>2715.4</ele>
        <time>2021-02-20T12:04:28Z</time>
      </trkpt>
      <trkpt lat="45.17107" lon="5.95784">
        <ele>2715.4</ele>
        <time>2021-02-20T12:04:29Z</time>
      </trkpt>
      <trkpt lat="45.17107" lon="5.95784">
        <ele>2715.4</ele>
        <time>2021-02-20T12:04:30Z</time>
      </trkpt>
      <trkpt lat="45.17107" lon="5.95784">
        <ele>2715.4</ele>
        <time>2021-02-20T12:04:31Z</time>
      </trkpt>
      <trkpt lat="45.17107" lon="5.95784">
        <ele>2715.4</ele>
        <time>2021-02-20T12:04:32Z</time>
      </trkpt>
      <trkpt lat="45.17107" lon="5.95784">
        <ele>2715.4</ele>
        <time>2021-02-20T12:04:33Z</time>
      </trkpt>
      <trkpt lat="45.17107" lon="5.95784">
        <ele>2715.4</ele>
        <time>2021-02-20T12:04:34Z</time>
      </trkpt>
      <trkpt lat="45.17107" lon="5.95784">
        <ele>2715.4</ele>
        <time>2021-02-20T12:04:35Z</time>
      </trkpt>
      <trkpt lat="45.17107" lon="5.95784">
        <ele>2715.4</ele>
        <time>2021-02-20T12:04:36Z</time>
      </trkpt>
      <trkpt lat="45.17107" lon="5.95784">
        <ele>2715.4</ele>
        <time>2021-02-20T12:04:37Z</time>
      </trkpt>
      <trkpt lat="45.17107" lon="5.95784">
        <ele>2715.4</ele>
        <time>2021-02-20T12:04:38Z</time>
      </trkpt>
      <trkpt lat="45.17107" lon="5.95784">
        <ele>2715.4</ele>
        <time>2021-02-20T12:04:39Z</time>
      </trkpt>
      <trkpt lat="45.17107" lon="5.95784">
        <ele>2715.4</ele>
        <time>2021-02-20T12:04:40Z</time>
      </trkpt>
      <trkpt lat="45.17107" lon="5.95784">
        <ele>2715.4</ele>
        <time>2021-02-20T12:04:41Z</time>
      </trkpt>
      <trkpt lat="45.17107" lon="5.95784">
        <ele>2715.4</ele>
        <time>2021-02-20T12:04:42Z</time>
      </trkpt>
      <trkpt lat="45.17107" lon="5.95784">
        <ele>2715.4</ele>
        <time>2021-02-20T12:04:43Z</time>
      </trkpt>
      <trkpt lat="45.17107" lon="5.95784">
        <ele>2715.4</ele>
        <time>2021-02-20T12:04:44Z</time>
      </trkpt>
      <trkpt lat="45.17107" lon="5.95784">
        <ele>2715.4</ele>
        <time>2021-02-20T12:04:45Z</time>
      </trkpt>
      <trkpt lat="45.17108" lon="5.95784">
        <ele>2715.4</ele>
        <time>2021-02-20T12:04:46Z</time>
      </trkpt>
      <trkpt lat="45.17108" lon="5.95784">
        <ele>2715.4</ele>
        <time>2021-02-20T12:04:47Z</time>
      </trkpt>
      <trkpt lat="45.17108" lon="5.95784">
        <ele>2715.4</ele>
        <time>2021-02-20T12:04:48Z</time>
      </trkpt>
      <trkpt lat="45.17108" lon="5.95784">
        <ele>2715.4</ele>
        <time>2021-02-20T12:04:49Z</time>
      </trkpt>
      <trkpt lat="45.17108" lon="5.95784">
        <ele>2715.4</ele>
        <time>2021-02-20T12:04:50Z</time>
      </trkpt>
      <trkpt lat="45.17108" lon="5.95784">
        <ele>2715.4</ele>
        <time>2021-02-20T12:04:51Z</time>
      </trkpt>
      <trkpt lat="45.17108" lon="5.95784">
        <ele>2715.4</ele>
        <time>2021-02-20T12:04:52Z</time>
      </trkpt>
      <trkpt lat="45.17108" lon="5.95784">
        <ele>2715.4</ele>
        <time>2021-02-20T12:04:53Z</time>
      </trkpt>
      <trkpt lat="45.17108" lon="5.95784">
        <ele>2715.4</ele>
        <time>2021-02-20T12:04:54Z</time>
      </trkpt>
      <trkpt lat="45.17108" lon="5.95784">
        <ele>2715.4</ele>
        <time>2021-02-20T12:04:55Z</time>
      </trkpt>
      <trkpt lat="45.17108" lon="5.95784">
        <ele>2715.4</ele>
        <time>2021-02-20T12:04:56Z</time>
      </trkpt>
      <trkpt lat="45.17108" lon="5.95784">
        <ele>2715.4</ele>
        <time>2021-02-20T12:04:57Z</time>
      </trkpt>
      <trkpt lat="45.17108" lon="5.95784">
        <ele>2715.4</ele>
        <time>2021-02-20T12:04:58Z</time>
      </trkpt>
      <trkpt lat="45.17108" lon="5.95784">
        <ele>2715.4</ele>
        <time>2021-02-20T12:04:59Z</time>
      </trkpt>
      <trkpt lat="45.17108" lon="5.95784">
        <ele>2715.4</ele>
        <time>2021-02-20T12:05:00Z</time>
      </trkpt>
      <trkpt lat="45.17108" lon="5.95784">
        <ele>2715.4</ele>
        <time>2021-02-20T12:05:01Z</time>
      </trkpt>
      <trkpt lat="45.17108" lon="5.95784">
        <ele>2715.4</ele>
        <time>2021-02-20T12:05:02Z</time>
      </trkpt>
      <trkpt lat="45.17108" lon="5.95784">
        <ele>2715.4</ele>
        <time>2021-02-20T12:05:03Z</time>
      </trkpt>
      <trkpt lat="45.17108" lon="5.95784">
        <ele>2715.4</ele>
        <time>2021-02-20T12:05:04Z</time>
      </trkpt>
      <trkpt lat="45.17108" lon="5.95784">
        <ele>2715.4</ele>
        <time>2021-02-20T12:05:05Z</time>
      </trkpt>
      <trkpt lat="45.17108" lon="5.95784">
        <ele>2715.4</ele>
        <time>2021-02-20T12:05:06Z</time>
      </trkpt>
      <trkpt lat="45.17108" lon="5.95784">
        <ele>2715.4</ele>
        <time>2021-02-20T12:05:07Z</time>
      </trkpt>
      <trkpt lat="45.17108" lon="5.95784">
        <ele>2715.4</ele>
        <time>2021-02-20T12:05:08Z</time>
      </trkpt>
      <trkpt lat="45.17108" lon="5.95784">
        <ele>2715.4</ele>
        <time>2021-02-20T12:05:09Z</time>
      </trkpt>
      <trkpt lat="45.17108" lon="5.95784">
        <ele>2715.4</ele>
        <time>2021-02-20T12:05:10Z</time>
      </trkpt>
      <trkpt lat="45.17108" lon="5.95784">
        <ele>2715.4</ele>
        <time>2021-02-20T12:05:11Z</time>
      </trkpt>
      <trkpt lat="45.17108" lon="5.95784">
        <ele>2715.4</ele>
        <time>2021-02-20T12:05:12Z</time>
      </trkpt>
      <trkpt lat="45.17108" lon="5.95784">
        <ele>2715.4</ele>
        <time>2021-02-20T12:05:13Z</time>
      </trkpt>
      <trkpt lat="45.17108" lon="5.95784">
        <ele>2715.4</ele>
        <time>2021-02-20T12:05:14Z</time>
      </trkpt>
      <trkpt lat="45.17108" lon="5.95784">
        <ele>2715.4</ele>
        <time>2021-02-20T12:05:15Z</time>
      </trkpt>
      <trkpt lat="45.17108" lon="5.95784">
        <ele>2715.4</ele>
        <time>2021-02-20T12:05:16Z</time>
      </trkpt>
      <trkpt lat="45.17108" lon="5.95784">
        <ele>2715.4</ele>
        <time>2021-02-20T12:05:17Z</time>
      </trkpt>
      <trkpt lat="45.17108" lon="5.95784">
        <ele>2715.4</ele>
        <time>2021-02-20T12:05:18Z</time>
      </trkpt>
      <trkpt lat="45.17108" lon="5.95784">
        <ele>2715.4</ele>
        <time>2021-02-20T12:05:19Z</time>
      </trkpt>
      <trkpt lat="45.17108" lon="5.95784">
        <ele>2715.4</ele>
        <time>2021-02-20T12:05:20Z</time>
      </trkpt>
      <trkpt lat="45.17108" lon="5.95784">
        <ele>2715.4</ele>
        <time>2021-02-20T12:05:21Z</time>
      </trkpt>
      <trkpt lat="45.17108" lon="5.95784">
        <ele>2715.4</ele>
        <time>2021-02-20T12:05:22Z</time>
      </trkpt>
      <trkpt lat="45.17108" lon="5.95784">
        <ele>2715.4</ele>
        <time>2021-02-20T12:05:23Z</time>
      </trkpt>
      <trkpt lat="45.17108" lon="5.95784">
        <ele>2715.4</ele>
        <time>2021-02-20T12:05:24Z</time>
      </trkpt>
      <trkpt lat="45.17108" lon="5.95784">
        <ele>2715.4</ele>
        <time>2021-02-20T12:05:25Z</time>
      </trkpt>
      <trkpt lat="45.17108" lon="5.95784">
        <ele>2715.4</ele>
        <time>2021-02-20T12:05:26Z</time>
      </trkpt>
      <trkpt lat="45.17108" lon="5.95784">
        <ele>2715.4</ele>
        <time>2021-02-20T12:05:27Z</time>
      </trkpt>
      <trkpt lat="45.17108" lon="5.95784">
        <ele>2715.4</ele>
        <time>2021-02-20T12:05:28Z</time>
      </trkpt>
      <trkpt lat="45.17108" lon="5.95784">
        <ele>2715.4</ele>
        <time>2021-02-20T12:05:29Z</time>
      </trkpt>
      <trkpt lat="45.17108" lon="5.95784">
        <ele>2715.4</ele>
        <time>2021-02-20T12:05:30Z</time>
      </trkpt>
      <trkpt lat="45.17108" lon="5.95784">
        <ele>2715.4</ele>
        <time>2021-02-20T12:05:31Z</time>
      </trkpt>
      <trkpt lat="45.17108" lon="5.95784">
        <ele>2715.4</ele>
        <time>2021-02-20T12:05:32Z</time>
      </trkpt>
      <trkpt lat="45.17108" lon="5.95784">
        <ele>2715.4</ele>
        <time>2021-02-20T12:05:33Z</time>
      </trkpt>
      <trkpt lat="45.17108" lon="5.95784">
        <ele>2715.4</ele>
        <time>2021-02-20T12:05:34Z</time>
      </trkpt>
      <trkpt lat="45.17108" lon="5.95784">
        <ele>2715.4</ele>
        <time>2021-02-20T12:05:35Z</time>
      </trkpt>
      <trkpt lat="45.17108" lon="5.95784">
        <ele>2715.4</ele>
        <time>2021-02-20T12:05:36Z</time>
      </trkpt>
      <trkpt lat="45.17108" lon="5.95784">
        <ele>2715.4</ele>
        <time>2021-02-20T12:05:37Z</time>
      </trkpt>
      <trkpt lat="45.17108" lon="5.95784">
        <ele>2715.4</ele>
        <time>2021-02-20T12:05:38Z</time>
      </trkpt>
      <trkpt lat="45.17108" lon="5.95784">
        <ele>2715.4</ele>
        <time>2021-02-20T12:05:39Z</time>
      </trkpt>
      <trkpt lat="45.17108" lon="5.95784">
        <ele>2715.4</ele>
        <time>2021-02-20T12:05:40Z</time>
      </trkpt>
      <trkpt lat="45.17108" lon="5.95784">
        <ele>2715.4</ele>
        <time>2021-02-20T12:05:41Z</time>
      </trkpt>
      <trkpt lat="45.17108" lon="5.95784">
        <ele>2715.4</ele>
        <time>2021-02-20T12:05:42Z</time>
      </trkpt>
      <trkpt lat="45.17108" lon="5.95784">
        <ele>2715.4</ele>
        <time>2021-02-20T12:05:43Z</time>
      </trkpt>
      <trkpt lat="45.17108" lon="5.95784">
        <ele>2715.4</ele>
        <time>2021-02-20T12:05:44Z</time>
      </trkpt>
      <trkpt lat="45.17108" lon="5.95784">
        <ele>2715.4</ele>
        <time>2021-02-20T12:05:45Z</time>
      </trkpt>
      <trkpt lat="45.17108" lon="5.95784">
        <ele>2715.4</ele>
        <time>2021-02-20T12:05:46Z</time>
      </trkpt>
      <trkpt lat="45.17108" lon="5.95784">
        <ele>2715.4</ele>
        <time>2021-02-20T12:05:47Z</time>
      </trkpt>
      <trkpt lat="45.17108" lon="5.95784">
        <ele>2715.4</ele>
        <time>2021-02-20T12:05:48Z</time>
      </trkpt>
      <trkpt lat="45.17108" lon="5.95784">
        <ele>2715.4</ele>
        <time>2021-02-20T12:05:49Z</time>
      </trkpt>
      <trkpt lat="45.17108" lon="5.95784">
        <ele>2715.4</ele>
        <time>2021-02-20T12:05:50Z</time>
      </trkpt>
      <trkpt lat="45.17108" lon="5.95784">
        <ele>2715.4</ele>
        <time>2021-02-20T12:05:51Z</time>
      </trkpt>
      <trkpt lat="45.17108" lon="5.95784">
        <ele>2715.4</ele>
        <time>2021-02-20T12:05:52Z</time>
      </trkpt>
      <trkpt lat="45.17108" lon="5.95784">
        <ele>2715.4</ele>
        <time>2021-02-20T12:05:53Z</time>
      </trkpt>
      <trkpt lat="45.17108" lon="5.95784">
        <ele>2715.4</ele>
        <time>2021-02-20T12:05:54Z</time>
      </trkpt>
      <trkpt lat="45.17108" lon="5.95784">
        <ele>2715.4</ele>
        <time>2021-02-20T12:05:55Z</time>
      </trkpt>
      <trkpt lat="45.17108" lon="5.95784">
        <ele>2715.4</ele>
        <time>2021-02-20T12:05:56Z</time>
      </trkpt>
      <trkpt lat="45.17108" lon="5.95784">
        <ele>2715.4</ele>
        <time>2021-02-20T12:05:57Z</time>
      </trkpt>
      <trkpt lat="45.17108" lon="5.95784">
        <ele>2715.4</ele>
        <time>2021-02-20T12:05:58Z</time>
      </trkpt>
      <trkpt lat="45.17108" lon="5.95784">
        <ele>2715.4</ele>
        <time>2021-02-20T12:05:59Z</time>
      </trkpt>
      <trkpt lat="45.17108" lon="5.95784">
        <ele>2715.4</ele>
        <time>2021-02-20T12:06:00Z</time>
      </trkpt>
      <trkpt lat="45.17108" lon="5.95784">
        <ele>2715.4</ele>
        <time>2021-02-20T12:06:01Z</time>
      </trkpt>
      <trkpt lat="45.17108" lon="5.95784">
        <ele>2715.4</ele>
        <time>2021-02-20T12:06:02Z</time>
      </trkpt>
      <trkpt lat="45.17108" lon="5.95784">
        <ele>2715.4</ele>
        <time>2021-02-20T12:06:03Z</time>
      </trkpt>
      <trkpt lat="45.17108" lon="5.95784">
        <ele>2715.4</ele>
        <time>2021-02-20T12:06:04Z</time>
      </trkpt>
      <trkpt lat="45.17108" lon="5.95784">
        <ele>2715.4</ele>
        <time>2021-02-20T12:06:05Z</time>
      </trkpt>
      <trkpt lat="45.17108" lon="5.95784">
        <ele>2715.4</ele>
        <time>2021-02-20T12:06:06Z</time>
      </trkpt>
      <trkpt lat="45.17108" lon="5.95784">
        <ele>2715.4</ele>
        <time>2021-02-20T12:06:07Z</time>
      </trkpt>
      <trkpt lat="45.17108" lon="5.95784">
        <ele>2715.4</ele>
        <time>2021-02-20T12:06:08Z</time>
      </trkpt>
      <trkpt lat="45.17108" lon="5.95784">
        <ele>2715.4</ele>
        <time>2021-02-20T12:06:09Z</time>
      </trkpt>
      <trkpt lat="45.17108" lon="5.95784">
        <ele>2715.4</ele>
        <time>2021-02-20T12:06:10Z</time>
      </trkpt>
      <trkpt lat="45.17108" lon="5.95784">
        <ele>2715.4</ele>
        <time>2021-02-20T12:06:11Z</time>
      </trkpt>
      <trkpt lat="45.17108" lon="5.95784">
        <ele>2715.4</ele>
        <time>2021-02-20T12:06:12Z</time>
      </trkpt>
      <trkpt lat="45.17108" lon="5.95784">
        <ele>2715.4</ele>
        <time>2021-02-20T12:06:13Z</time>
      </trkpt>
      <trkpt lat="45.17108" lon="5.95784">
        <ele>2715.4</ele>
        <time>2021-02-20T12:06:14Z</time>
      </trkpt>
      <trkpt lat="45.17108" lon="5.95784">
        <ele>2715.4</ele>
        <time>2021-02-20T12:06:15Z</time>
      </trkpt>
      <trkpt lat="45.17108" lon="5.95784">
        <ele>2715.4</ele>
        <time>2021-02-20T12:06:16Z</time>
      </trkpt>
      <trkpt lat="45.17108" lon="5.95784">
        <ele>2715.4</ele>
        <time>2021-02-20T12:06:17Z</time>
      </trkpt>
      <trkpt lat="45.17108" lon="5.95784">
        <ele>2715.4</ele>
        <time>2021-02-20T12:06:18Z</time>
      </trkpt>
      <trkpt lat="45.17108" lon="5.95784">
        <ele>2715.4</ele>
        <time>2021-02-20T12:06:19Z</time>
      </trkpt>
      <trkpt lat="45.17108" lon="5.95784">
        <ele>2715.4</ele>
        <time>2021-02-20T12:06:20Z</time>
      </trkpt>
      <trkpt lat="45.17108" lon="5.95784">
        <ele>2715.4</ele>
        <time>2021-02-20T12:06:21Z</time>
      </trkpt>
      <trkpt lat="45.17108" lon="5.95784">
        <ele>2715.4</ele>
        <time>2021-02-20T12:06:22Z</time>
      </trkpt>
      <trkpt lat="45.17108" lon="5.95784">
        <ele>2715.4</ele>
        <time>2021-02-20T12:06:23Z</time>
      </trkpt>
      <trkpt lat="45.17108" lon="5.95784">
        <ele>2715.4</ele>
        <time>2021-02-20T12:06:24Z</time>
      </trkpt>
      <trkpt lat="45.17108" lon="5.95784">
        <ele>2715.4</ele>
        <time>2021-02-20T12:06:25Z</time>
      </trkpt>
      <trkpt lat="45.17108" lon="5.95784">
        <ele>2715.4</ele>
        <time>2021-02-20T12:06:26Z</time>
      </trkpt>
      <trkpt lat="45.17108" lon="5.95784">
        <ele>2715.4</ele>
        <time>2021-02-20T12:06:27Z</time>
      </trkpt>
      <trkpt lat="45.17108" lon="5.95784">
        <ele>2715.4</ele>
        <time>2021-02-20T12:06:28Z</time>
      </trkpt>
      <trkpt lat="45.17108" lon="5.95784">
        <ele>2715.4</ele>
        <time>2021-02-20T12:06:29Z</time>
      </trkpt>
      <trkpt lat="45.17108" lon="5.95784">
        <ele>2715.4</ele>
        <time>2021-02-20T12:06:30Z</time>
      </trkpt>
      <trkpt lat="45.17108" lon="5.95784">
        <ele>2715.4</ele>
        <time>2021-02-20T12:06:31Z</time>
      </trkpt>
      <trkpt lat="45.17108" lon="5.95784">
        <ele>2715.4</ele>
        <time>2021-02-20T12:06:32Z</time>
      </trkpt>
      <trkpt lat="45.17108" lon="5.95784">
        <ele>2715.4</ele>
        <time>2021-02-20T12:06:33Z</time>
      </trkpt>
      <trkpt lat="45.17108" lon="5.95784">
        <ele>2715.4</ele>
        <time>2021-02-20T12:06:34Z</time>
      </trkpt>
      <trkpt lat="45.17108" lon="5.95784">
        <ele>2715.4</ele>
        <time>2021-02-20T12:06:35Z</time>
      </trkpt>
      <trkpt lat="45.17108" lon="5.95784">
        <ele>2715.4</ele>
        <time>2021-02-20T12:06:36Z</time>
      </trkpt>
      <trkpt lat="45.17108" lon="5.95784">
        <ele>2715.4</ele>
        <time>2021-02-20T12:06:37Z</time>
      </trkpt>
      <trkpt lat="45.17108" lon="5.95784">
        <ele>2715.4</ele>
        <time>2021-02-20T12:06:38Z</time>
      </trkpt>
      <trkpt lat="45.17108" lon="5.95784">
        <ele>2715.4</ele>
        <time>2021-02-20T12:06:39Z</time>
      </trkpt>
      <trkpt lat="45.17108" lon="5.95784">
        <ele>2715.4</ele>
        <time>2021-02-20T12:06:40Z</time>
      </trkpt>
      <trkpt lat="45.17108" lon="5.95784">
        <ele>2715.4</ele>
        <time>2021-02-20T12:06:41Z</time>
      </trkpt>
      <trkpt lat="45.17108" lon="5.95784">
        <ele>2715.4</ele>
        <time>2021-02-20T12:06:42Z</time>
      </trkpt>
      <trkpt lat="45.17108" lon="5.95784">
        <ele>2715.4</ele>
        <time>2021-02-20T12:06:43Z</time>
      </trkpt>
      <trkpt lat="45.17108" lon="5.95784">
        <ele>2715.4</ele>
        <time>2021-02-20T12:06:44Z</time>
      </trkpt>
      <trkpt lat="45.17108" lon="5.95784">
        <ele>2715.4</ele>
        <time>2021-02-20T12:06:45Z</time>
      </trkpt>
      <trkpt lat="45.17108" lon="5.95784">
        <ele>2715.4</ele>
        <time>2021-02-20T12:06:46Z</time>
      </trkpt>
      <trkpt lat="45.17108" lon="5.95784">
        <ele>2715.4</ele>
        <time>2021-02-20T12:06:47Z</time>
      </trkpt>
      <trkpt lat="45.17108" lon="5.95784">
        <ele>2715.4</ele>
        <time>2021-02-20T12:06:48Z</time>
      </trkpt>
      <trkpt lat="45.17108" lon="5.95784">
        <ele>2715.4</ele>
        <time>2021-02-20T12:06:49Z</time>
      </trkpt>
      <trkpt lat="45.17108" lon="5.95784">
        <ele>2715.4</ele>
        <time>2021-02-20T12:06:50Z</time>
      </trkpt>
      <trkpt lat="45.17108" lon="5.95784">
        <ele>2715.4</ele>
        <time>2021-02-20T12:06:51Z</time>
      </trkpt>
      <trkpt lat="45.17108" lon="5.95784">
        <ele>2715.4</ele>
        <time>2021-02-20T12:06:52Z</time>
      </trkpt>
      <trkpt lat="45.17108" lon="5.95784">
        <ele>2715.4</ele>
        <time>2021-02-20T12:06:53Z</time>
      </trkpt>
      <trkpt lat="45.17108" lon="5.95784">
        <ele>2715.4</ele>
        <time>2021-02-20T12:06:54Z</time>
      </trkpt>
      <trkpt lat="45.17108" lon="5.95784">
        <ele>2715.4</ele>
        <time>2021-02-20T12:06:55Z</time>
      </trkpt>
      <trkpt lat="45.17108" lon="5.95784">
        <ele>2715.4</ele>
        <time>2021-02-20T12:06:56Z</time>
      </trkpt>
      <trkpt lat="45.17108" lon="5.95784">
        <ele>2715.4</ele>
        <time>2021-02-20T12:06:57Z</time>
      </trkpt>
      <trkpt lat="45.17108" lon="5.95784">
        <ele>2715.4</ele>
        <time>2021-02-20T12:06:58Z</time>
      </trkpt>
      <trkpt lat="45.17108" lon="5.95784">
        <ele>2715.4</ele>
        <time>2021-02-20T12:06:59Z</time>
      </trkpt>
      <trkpt lat="45.17108" lon="5.95784">
        <ele>2715.4</ele>
        <time>2021-02-20T12:07:00Z</time>
      </trkpt>
      <trkpt lat="45.17108" lon="5.95784">
        <ele>2715.4</ele>
        <time>2021-02-20T12:07:01Z</time>
      </trkpt>
      <trkpt lat="45.17108" lon="5.95784">
        <ele>2715.4</ele>
        <time>2021-02-20T12:07:02Z</time>
      </trkpt>
      <trkpt lat="45.17108" lon="5.95784">
        <ele>2715.4</ele>
        <time>2021-02-20T12:07:03Z</time>
      </trkpt>
      <trkpt lat="45.17108" lon="5.95784">
        <ele>2715.4</ele>
        <time>2021-02-20T12:07:04Z</time>
      </trkpt>
      <trkpt lat="45.17108" lon="5.95784">
        <ele>2715.4</ele>
        <time>2021-02-20T12:07:05Z</time>
      </trkpt>
      <trkpt lat="45.17108" lon="5.95784">
        <ele>2715.4</ele>
        <time>2021-02-20T12:07:06Z</time>
      </trkpt>
      <trkpt lat="45.17108" lon="5.95784">
        <ele>2715.4</ele>
        <time>2021-02-20T12:07:07Z</time>
      </trkpt>
      <trkpt lat="45.17108" lon="5.95784">
        <ele>2715.4</ele>
        <time>2021-02-20T12:07:08Z</time>
      </trkpt>
      <trkpt lat="45.17108" lon="5.95784">
        <ele>2715.4</ele>
        <time>2021-02-20T12:07:09Z</time>
      </trkpt>
      <trkpt lat="45.17108" lon="5.95784">
        <ele>2715.4</ele>
        <time>2021-02-20T12:07:10Z</time>
      </trkpt>
      <trkpt lat="45.17108" lon="5.95784">
        <ele>2715.4</ele>
        <time>2021-02-20T12:07:11Z</time>
      </trkpt>
      <trkpt lat="45.17108" lon="5.95784">
        <ele>2715.4</ele>
        <time>2021-02-20T12:07:12Z</time>
      </trkpt>
      <trkpt lat="45.17108" lon="5.95784">
        <ele>2715.4</ele>
        <time>2021-02-20T12:07:13Z</time>
      </trkpt>
      <trkpt lat="45.17108" lon="5.95784">
        <ele>2715.4</ele>
        <time>2021-02-20T12:07:14Z</time>
      </trkpt>
      <trkpt lat="45.17108" lon="5.95784">
        <ele>2715.4</ele>
        <time>2021-02-20T12:07:15Z</time>
      </trkpt>
      <trkpt lat="45.17108" lon="5.95784">
        <ele>2715.4</ele>
        <time>2021-02-20T12:07:16Z</time>
      </trkpt>
      <trkpt lat="45.17108" lon="5.95784">
        <ele>2715.4</ele>
        <time>2021-02-20T12:07:17Z</time>
      </trkpt>
      <trkpt lat="45.17108" lon="5.95784">
        <ele>2715.4</ele>
        <time>2021-02-20T12:07:18Z</time>
      </trkpt>
      <trkpt lat="45.17108" lon="5.95784">
        <ele>2715.4</ele>
        <time>2021-02-20T12:07:19Z</time>
      </trkpt>
      <trkpt lat="45.17108" lon="5.95784">
        <ele>2715.4</ele>
        <time>2021-02-20T12:07:20Z</time>
      </trkpt>
      <trkpt lat="45.17108" lon="5.95784">
        <ele>2715.4</ele>
        <time>2021-02-20T12:07:21Z</time>
      </trkpt>
      <trkpt lat="45.17108" lon="5.95784">
        <ele>2715.4</ele>
        <time>2021-02-20T12:07:22Z</time>
      </trkpt>
      <trkpt lat="45.17108" lon="5.95784">
        <ele>2715.4</ele>
        <time>2021-02-20T12:07:23Z</time>
      </trkpt>
      <trkpt lat="45.17108" lon="5.95784">
        <ele>2715.4</ele>
        <time>2021-02-20T12:07:24Z</time>
      </trkpt>
      <trkpt lat="45.17108" lon="5.95784">
        <ele>2715.4</ele>
        <time>2021-02-20T12:07:25Z</time>
      </trkpt>
      <trkpt lat="45.17108" lon="5.95784">
        <ele>2715.4</ele>
        <time>2021-02-20T12:07:26Z</time>
      </trkpt>
      <trkpt lat="45.17108" lon="5.95784">
        <ele>2715.4</ele>
        <time>2021-02-20T12:07:27Z</time>
      </trkpt>
      <trkpt lat="45.17108" lon="5.95784">
        <ele>2715.4</ele>
        <time>2021-02-20T12:07:28Z</time>
      </trkpt>
      <trkpt lat="45.17108" lon="5.95784">
        <ele>2715.4</ele>
        <time>2021-02-20T12:07:29Z</time>
      </trkpt>
      <trkpt lat="45.17108" lon="5.95784">
        <ele>2715.4</ele>
        <time>2021-02-20T12:07:30Z</time>
      </trkpt>
      <trkpt lat="45.17108" lon="5.95784">
        <ele>2715.4</ele>
        <time>2021-02-20T12:07:31Z</time>
      </trkpt>
      <trkpt lat="45.17108" lon="5.95784">
        <ele>2715.4</ele>
        <time>2021-02-20T12:07:32Z</time>
      </trkpt>
      <trkpt lat="45.17108" lon="5.95784">
        <ele>2715.4</ele>
        <time>2021-02-20T12:07:33Z</time>
      </trkpt>
      <trkpt lat="45.17108" lon="5.95784">
        <ele>2715.4</ele>
        <time>2021-02-20T12:07:34Z</time>
      </trkpt>
      <trkpt lat="45.17108" lon="5.95784">
        <ele>2715.4</ele>
        <time>2021-02-20T12:07:35Z</time>
      </trkpt>
      <trkpt lat="45.17108" lon="5.95784">
        <ele>2715.4</ele>
        <time>2021-02-20T12:07:36Z</time>
      </trkpt>
      <trkpt lat="45.17108" lon="5.95784">
        <ele>2715.4</ele>
        <time>2021-02-20T12:07:37Z</time>
      </trkpt>
      <trkpt lat="45.17108" lon="5.95784">
        <ele>2715.4</ele>
        <time>2021-02-20T12:07:38Z</time>
      </trkpt>
      <trkpt lat="45.17108" lon="5.95784">
        <ele>2715.4</ele>
        <time>2021-02-20T12:07:39Z</time>
      </trkpt>
      <trkpt lat="45.17108" lon="5.95784">
        <ele>2715.4</ele>
        <time>2021-02-20T12:07:40Z</time>
      </trkpt>
      <trkpt lat="45.17108" lon="5.95784">
        <ele>2715.4</ele>
        <time>2021-02-20T12:07:41Z</time>
      </trkpt>
      <trkpt lat="45.17108" lon="5.95784">
        <ele>2715.4</ele>
        <time>2021-02-20T12:07:42Z</time>
      </trkpt>
      <trkpt lat="45.17108" lon="5.95784">
        <ele>2715.4</ele>
        <time>2021-02-20T12:07:43Z</time>
      </trkpt>
      <trkpt lat="45.17108" lon="5.95784">
        <ele>2715.4</ele>
        <time>2021-02-20T12:07:44Z</time>
      </trkpt>
      <trkpt lat="45.17108" lon="5.95784">
        <ele>2715.4</ele>
        <time>2021-02-20T12:07:45Z</time>
      </trkpt>
      <trkpt lat="45.17108" lon="5.95784">
        <ele>2715.4</ele>
        <time>2021-02-20T12:07:46Z</time>
      </trkpt>
      <trkpt lat="45.17108" lon="5.95784">
        <ele>2715.4</ele>
        <time>2021-02-20T12:07:47Z</time>
      </trkpt>
      <trkpt lat="45.17108" lon="5.95784">
        <ele>2715.4</ele>
        <time>2021-02-20T12:07:48Z</time>
      </trkpt>
      <trkpt lat="45.17108" lon="5.95784">
        <ele>2715.4</ele>
        <time>2021-02-20T12:07:49Z</time>
      </trkpt>
      <trkpt lat="45.17108" lon="5.95784">
        <ele>2715.4</ele>
        <time>2021-02-20T12:07:50Z</time>
      </trkpt>
      <trkpt lat="45.17108" lon="5.95784">
        <ele>2715.4</ele>
        <time>2021-02-20T12:07:51Z</time>
      </trkpt>
      <trkpt lat="45.17108" lon="5.95784">
        <ele>2715.4</ele>
        <time>2021-02-20T12:07:52Z</time>
      </trkpt>
      <trkpt lat="45.17108" lon="5.95784">
        <ele>2715.4</ele>
        <time>2021-02-20T12:07:53Z</time>
      </trkpt>
      <trkpt lat="45.17108" lon="5.95784">
        <ele>2715.4</ele>
        <time>2021-02-20T12:07:54Z</time>
      </trkpt>
      <trkpt lat="45.17108" lon="5.95784">
        <ele>2715.4</ele>
        <time>2021-02-20T12:07:55Z</time>
      </trkpt>
      <trkpt lat="45.17108" lon="5.95784">
        <ele>2715.4</ele>
        <time>2021-02-20T12:07:56Z</time>
      </trkpt>
      <trkpt lat="45.17108" lon="5.95784">
        <ele>2715.4</ele>
        <time>2021-02-20T12:07:57Z</time>
      </trkpt>
      <trkpt lat="45.17108" lon="5.95784">
        <ele>2715.4</ele>
        <time>2021-02-20T12:07:58Z</time>
      </trkpt>
      <trkpt lat="45.17108" lon="5.95784">
        <ele>2715.4</ele>
        <time>2021-02-20T12:07:59Z</time>
      </trkpt>
      <trkpt lat="45.17108" lon="5.95784">
        <ele>2715.4</ele>
        <time>2021-02-20T12:08:00Z</time>
      </trkpt>
      <trkpt lat="45.17108" lon="5.95784">
        <ele>2715.4</ele>
        <time>2021-02-20T12:08:01Z</time>
      </trkpt>
      <trkpt lat="45.17108" lon="5.95784">
        <ele>2715.4</ele>
        <time>2021-02-20T12:08:02Z</time>
      </trkpt>
      <trkpt lat="45.17108" lon="5.95784">
        <ele>2715.4</ele>
        <time>2021-02-20T12:08:03Z</time>
      </trkpt>
      <trkpt lat="45.17108" lon="5.95784">
        <ele>2715.4</ele>
        <time>2021-02-20T12:08:04Z</time>
      </trkpt>
      <trkpt lat="45.17108" lon="5.95784">
        <ele>2715.4</ele>
        <time>2021-02-20T12:08:05Z</time>
      </trkpt>
      <trkpt lat="45.17108" lon="5.95784">
        <ele>2715.4</ele>
        <time>2021-02-20T12:08:06Z</time>
      </trkpt>
      <trkpt lat="45.17108" lon="5.95784">
        <ele>2715.4</ele>
        <time>2021-02-20T12:08:07Z</time>
      </trkpt>
      <trkpt lat="45.17108" lon="5.95784">
        <ele>2715.4</ele>
        <time>2021-02-20T12:08:08Z</time>
      </trkpt>
      <trkpt lat="45.17108" lon="5.95784">
        <ele>2715.4</ele>
        <time>2021-02-20T12:08:09Z</time>
      </trkpt>
      <trkpt lat="45.17108" lon="5.95784">
        <ele>2715.4</ele>
        <time>2021-02-20T12:08:10Z</time>
      </trkpt>
      <trkpt lat="45.17108" lon="5.95784">
        <ele>2715.4</ele>
        <time>2021-02-20T12:08:11Z</time>
      </trkpt>
      <trkpt lat="45.17108" lon="5.95784">
        <ele>2715.4</ele>
        <time>2021-02-20T12:08:12Z</time>
      </trkpt>
      <trkpt lat="45.17108" lon="5.95784">
        <ele>2715.4</ele>
        <time>2021-02-20T12:08:13Z</time>
      </trkpt>
      <trkpt lat="45.17108" lon="5.95784">
        <ele>2715.4</ele>
        <time>2021-02-20T12:08:14Z</time>
      </trkpt>
      <trkpt lat="45.17108" lon="5.95784">
        <ele>2715.4</ele>
        <time>2021-02-20T12:08:15Z</time>
      </trkpt>
      <trkpt lat="45.17108" lon="5.95784">
        <ele>2715.4</ele>
        <time>2021-02-20T12:08:16Z</time>
      </trkpt>
      <trkpt lat="45.17108" lon="5.95784">
        <ele>2715.4</ele>
        <time>2021-02-20T12:08:17Z</time>
      </trkpt>
      <trkpt lat="45.17108" lon="5.95784">
        <ele>2715.4</ele>
        <time>2021-02-20T12:08:18Z</time>
      </trkpt>
      <trkpt lat="45.17108" lon="5.95784">
        <ele>2715.4</ele>
        <time>2021-02-20T12:08:19Z</time>
      </trkpt>
      <trkpt lat="45.17108" lon="5.95784">
        <ele>2715.4</ele>
        <time>2021-02-20T12:08:20Z</time>
      </trkpt>
      <trkpt lat="45.17108" lon="5.95784">
        <ele>2715.4</ele>
        <time>2021-02-20T12:08:21Z</time>
      </trkpt>
      <trkpt lat="45.17108" lon="5.95784">
        <ele>2715.4</ele>
        <time>2021-02-20T12:08:22Z</time>
      </trkpt>
      <trkpt lat="45.17108" lon="5.95784">
        <ele>2715.4</ele>
        <time>2021-02-20T12:08:23Z</time>
      </trkpt>
      <trkpt lat="45.17108" lon="5.95784">
        <ele>2715.4</ele>
        <time>2021-02-20T12:08:24Z</time>
      </trkpt>
      <trkpt lat="45.17108" lon="5.95784">
        <ele>2715.4</ele>
        <time>2021-02-20T12:08:25Z</time>
      </trkpt>
      <trkpt lat="45.17108" lon="5.95784">
        <ele>2715.4</ele>
        <time>2021-02-20T12:08:26Z</time>
      </trkpt>
      <trkpt lat="45.17108" lon="5.95784">
        <ele>2715.4</ele>
        <time>2021-02-20T12:08:27Z</time>
      </trkpt>
      <trkpt lat="45.17108" lon="5.95784">
        <ele>2715.4</ele>
        <time>2021-02-20T12:08:28Z</time>
      </trkpt>
      <trkpt lat="45.17108" lon="5.95784">
        <ele>2715.4</ele>
        <time>2021-02-20T12:08:29Z</time>
      </trkpt>
      <trkpt lat="45.17107" lon="5.95785">
        <ele>2715.4</ele>
        <time>2021-02-20T12:08:30Z</time>
      </trkpt>
      <trkpt lat="45.17107" lon="5.95785">
        <ele>2715.4</ele>
        <time>2021-02-20T12:08:31Z</time>
      </trkpt>
      <trkpt lat="45.17107" lon="5.95785">
        <ele>2715.4</ele>
        <time>2021-02-20T12:08:32Z</time>
      </trkpt>
      <trkpt lat="45.17107" lon="5.95785">
        <ele>2715.4</ele>
        <time>2021-02-20T12:08:33Z</time>
      </trkpt>
      <trkpt lat="45.17107" lon="5.95785">
        <ele>2715.4</ele>
        <time>2021-02-20T12:08:34Z</time>
      </trkpt>
      <trkpt lat="45.17107" lon="5.95785">
        <ele>2715.4</ele>
        <time>2021-02-20T12:08:35Z</time>
      </trkpt>
      <trkpt lat="45.17107" lon="5.95785">
        <ele>2715.4</ele>
        <time>2021-02-20T12:08:36Z</time>
      </trkpt>
      <trkpt lat="45.17107" lon="5.95785">
        <ele>2715.4</ele>
        <time>2021-02-20T12:08:37Z</time>
      </trkpt>
      <trkpt lat="45.17107" lon="5.95785">
        <ele>2715.4</ele>
        <time>2021-02-20T12:08:38Z</time>
      </trkpt>
      <trkpt lat="45.17107" lon="5.95785">
        <ele>2715.4</ele>
        <time>2021-02-20T12:08:39Z</time>
      </trkpt>
      <trkpt lat="45.17107" lon="5.95785">
        <ele>2715.4</ele>
        <time>2021-02-20T12:08:40Z</time>
      </trkpt>
      <trkpt lat="45.17107" lon="5.95785">
        <ele>2715.4</ele>
        <time>2021-02-20T12:08:41Z</time>
      </trkpt>
      <trkpt lat="45.17107" lon="5.95785">
        <ele>2715.4</ele>
        <time>2021-02-20T12:08:42Z</time>
      </trkpt>
      <trkpt lat="45.17107" lon="5.95785">
        <ele>2715.4</ele>
        <time>2021-02-20T12:08:43Z</time>
      </trkpt>
      <trkpt lat="45.17107" lon="5.95785">
        <ele>2715.4</ele>
        <time>2021-02-20T12:08:44Z</time>
      </trkpt>
      <trkpt lat="45.17107" lon="5.95785">
        <ele>2715.4</ele>
        <time>2021-02-20T12:08:45Z</time>
      </trkpt>
      <trkpt lat="45.17107" lon="5.95785">
        <ele>2715.4</ele>
        <time>2021-02-20T12:08:46Z</time>
      </trkpt>
      <trkpt lat="45.17107" lon="5.95785">
        <ele>2715.4</ele>
        <time>2021-02-20T12:08:47Z</time>
      </trkpt>
      <trkpt lat="45.17107" lon="5.95785">
        <ele>2715.4</ele>
        <time>2021-02-20T12:08:48Z</time>
      </trkpt>
      <trkpt lat="45.17107" lon="5.95785">
        <ele>2715.4</ele>
        <time>2021-02-20T12:08:49Z</time>
      </trkpt>
      <trkpt lat="45.17107" lon="5.95785">
        <ele>2715.4</ele>
        <time>2021-02-20T12:08:50Z</time>
      </trkpt>
      <trkpt lat="45.17107" lon="5.95785">
        <ele>2715.4</ele>
        <time>2021-02-20T12:08:51Z</time>
      </trkpt>
      <trkpt lat="45.17107" lon="5.95785">
        <ele>2715.4</ele>
        <time>2021-02-20T12:08:52Z</time>
      </trkpt>
      <trkpt lat="45.17107" lon="5.95785">
        <ele>2715.4</ele>
        <time>2021-02-20T12:08:53Z</time>
      </trkpt>
      <trkpt lat="45.17107" lon="5.95785">
        <ele>2715.4</ele>
        <time>2021-02-20T12:08:54Z</time>
      </trkpt>
      <trkpt lat="45.17107" lon="5.95785">
        <ele>2715.4</ele>
        <time>2021-02-20T12:08:55Z</time>
      </trkpt>
      <trkpt lat="45.17107" lon="5.95785">
        <ele>2715.4</ele>
        <time>2021-02-20T12:08:56Z</time>
      </trkpt>
      <trkpt lat="45.17107" lon="5.95785">
        <ele>2715.4</ele>
        <time>2021-02-20T12:08:57Z</time>
      </trkpt>
      <trkpt lat="45.17107" lon="5.95785">
        <ele>2715.4</ele>
        <time>2021-02-20T12:08:58Z</time>
      </trkpt>
      <trkpt lat="45.17107" lon="5.95785">
        <ele>2715.4</ele>
        <time>2021-02-20T12:08:59Z</time>
      </trkpt>
      <trkpt lat="45.17107" lon="5.95785">
        <ele>2715.4</ele>
        <time>2021-02-20T12:09:00Z</time>
      </trkpt>
      <trkpt lat="45.17107" lon="5.95785">
        <ele>2715.4</ele>
        <time>2021-02-20T12:09:01Z</time>
      </trkpt>
      <trkpt lat="45.17107" lon="5.95785">
        <ele>2715.4</ele>
        <time>2021-02-20T12:09:02Z</time>
      </trkpt>
      <trkpt lat="45.17107" lon="5.95785">
        <ele>2715.4</ele>
        <time>2021-02-20T12:09:03Z</time>
      </trkpt>
      <trkpt lat="45.17107" lon="5.95785">
        <ele>2715.4</ele>
        <time>2021-02-20T12:09:04Z</time>
      </trkpt>
      <trkpt lat="45.17107" lon="5.95785">
        <ele>2715.4</ele>
        <time>2021-02-20T12:09:05Z</time>
      </trkpt>
      <trkpt lat="45.17107" lon="5.95785">
        <ele>2715.4</ele>
        <time>2021-02-20T12:09:06Z</time>
      </trkpt>
      <trkpt lat="45.17107" lon="5.95785">
        <ele>2715.4</ele>
        <time>2021-02-20T12:09:07Z</time>
      </trkpt>
      <trkpt lat="45.17107" lon="5.95785">
        <ele>2715.4</ele>
        <time>2021-02-20T12:09:08Z</time>
      </trkpt>
      <trkpt lat="45.17107" lon="5.95785">
        <ele>2715.4</ele>
        <time>2021-02-20T12:09:09Z</time>
      </trkpt>
      <trkpt lat="45.17107" lon="5.95785">
        <ele>2715.4</ele>
        <time>2021-02-20T12:09:10Z</time>
      </trkpt>
      <trkpt lat="45.17107" lon="5.95785">
        <ele>2715.4</ele>
        <time>2021-02-20T12:09:11Z</time>
      </trkpt>
      <trkpt lat="45.17107" lon="5.95785">
        <ele>2715.4</ele>
        <time>2021-02-20T12:09:12Z</time>
      </trkpt>
      <trkpt lat="45.17107" lon="5.95785">
        <ele>2715.4</ele>
        <time>2021-02-20T12:09:13Z</time>
      </trkpt>
      <trkpt lat="45.17106" lon="5.95785">
        <ele>2715.4</ele>
        <time>2021-02-20T12:09:14Z</time>
      </trkpt>
      <trkpt lat="45.17106" lon="5.95785">
        <ele>2715.4</ele>
        <time>2021-02-20T12:09:15Z</time>
      </trkpt>
      <trkpt lat="45.17106" lon="5.95785">
        <ele>2715.4</ele>
        <time>2021-02-20T12:09:16Z</time>
      </trkpt>
      <trkpt lat="45.17106" lon="5.95785">
        <ele>2715.4</ele>
        <time>2021-02-20T12:09:17Z</time>
      </trkpt>
      <trkpt lat="45.17106" lon="5.95785">
        <ele>2715.4</ele>
        <time>2021-02-20T12:09:18Z</time>
      </trkpt>
      <trkpt lat="45.17106" lon="5.95785">
        <ele>2715.4</ele>
        <time>2021-02-20T12:09:19Z</time>
      </trkpt>
      <trkpt lat="45.17106" lon="5.95785">
        <ele>2715.4</ele>
        <time>2021-02-20T12:09:20Z</time>
      </trkpt>
      <trkpt lat="45.17106" lon="5.95785">
        <ele>2715.4</ele>
        <time>2021-02-20T12:09:21Z</time>
      </trkpt>
      <trkpt lat="45.17106" lon="5.95785">
        <ele>2715.4</ele>
        <time>2021-02-20T12:09:22Z</time>
      </trkpt>
      <trkpt lat="45.17106" lon="5.95785">
        <ele>2715.4</ele>
        <time>2021-02-20T12:09:23Z</time>
      </trkpt>
      <trkpt lat="45.17106" lon="5.95785">
        <ele>2715.4</ele>
        <time>2021-02-20T12:09:24Z</time>
      </trkpt>
      <trkpt lat="45.17106" lon="5.95785">
        <ele>2715.4</ele>
        <time>2021-02-20T12:09:25Z</time>
      </trkpt>
      <trkpt lat="45.17106" lon="5.95785">
        <ele>2715.4</ele>
        <time>2021-02-20T12:09:26Z</time>
      </trkpt>
      <trkpt lat="45.17106" lon="5.95785">
        <ele>2715.4</ele>
        <time>2021-02-20T12:09:27Z</time>
      </trkpt>
      <trkpt lat="45.17106" lon="5.95785">
        <ele>2715.4</ele>
        <time>2021-02-20T12:09:28Z</time>
      </trkpt>
      <trkpt lat="45.17106" lon="5.95785">
        <ele>2715.4</ele>
        <time>2021-02-20T12:09:29Z</time>
      </trkpt>
      <trkpt lat="45.17106" lon="5.95785">
        <ele>2715.4</ele>
        <time>2021-02-20T12:09:30Z</time>
      </trkpt>
      <trkpt lat="45.17106" lon="5.95785">
        <ele>2715.4</ele>
        <time>2021-02-20T12:09:31Z</time>
      </trkpt>
      <trkpt lat="45.17106" lon="5.95785">
        <ele>2715.4</ele>
        <time>2021-02-20T12:09:32Z</time>
      </trkpt>
      <trkpt lat="45.17106" lon="5.95785">
        <ele>2715.4</ele>
        <time>2021-02-20T12:09:33Z</time>
      </trkpt>
      <trkpt lat="45.17106" lon="5.95785">
        <ele>2715.4</ele>
        <time>2021-02-20T12:09:34Z</time>
      </trkpt>
      <trkpt lat="45.17106" lon="5.95785">
        <ele>2715.4</ele>
        <time>2021-02-20T12:09:35Z</time>
      </trkpt>
      <trkpt lat="45.17106" lon="5.95785">
        <ele>2715.4</ele>
        <time>2021-02-20T12:09:36Z</time>
      </trkpt>
      <trkpt lat="45.17106" lon="5.95785">
        <ele>2715.4</ele>
        <time>2021-02-20T12:09:37Z</time>
      </trkpt>
      <trkpt lat="45.17106" lon="5.95785">
        <ele>2715.4</ele>
        <time>2021-02-20T12:09:38Z</time>
      </trkpt>
      <trkpt lat="45.17106" lon="5.95785">
        <ele>2715.4</ele>
        <time>2021-02-20T12:09:39Z</time>
      </trkpt>
      <trkpt lat="45.17106" lon="5.95785">
        <ele>2715.4</ele>
        <time>2021-02-20T12:09:40Z</time>
      </trkpt>
      <trkpt lat="45.17106" lon="5.95785">
        <ele>2715.4</ele>
        <time>2021-02-20T12:09:41Z</time>
      </trkpt>
      <trkpt lat="45.17106" lon="5.95785">
        <ele>2715.4</ele>
        <time>2021-02-20T12:09:42Z</time>
      </trkpt>
      <trkpt lat="45.17106" lon="5.95785">
        <ele>2715.4</ele>
        <time>2021-02-20T12:09:43Z</time>
      </trkpt>
      <trkpt lat="45.17105" lon="5.95784">
        <ele>2714.2</ele>
        <time>2021-02-20T12:09:44Z</time>
      </trkpt>
      <trkpt lat="45.17105" lon="5.95784">
        <ele>2714.2</ele>
        <time>2021-02-20T12:09:45Z</time>
      </trkpt>
      <trkpt lat="45.17105" lon="5.95784">
        <ele>2714.2</ele>
        <time>2021-02-20T12:09:46Z</time>
      </trkpt>
      <trkpt lat="45.17105" lon="5.95784">
        <ele>2714.2</ele>
        <time>2021-02-20T12:09:47Z</time>
      </trkpt>
      <trkpt lat="45.17105" lon="5.95784">
        <ele>2714.2</ele>
        <time>2021-02-20T12:09:48Z</time>
      </trkpt>
      <trkpt lat="45.17104" lon="5.95784">
        <ele>2714.2</ele>
        <time>2021-02-20T12:09:49Z</time>
      </trkpt>
      <trkpt lat="45.17104" lon="5.95784">
        <ele>2714.2</ele>
        <time>2021-02-20T12:09:50Z</time>
      </trkpt>
      <trkpt lat="45.17104" lon="5.95784">
        <ele>2714.2</ele>
        <time>2021-02-20T12:09:51Z</time>
      </trkpt>
      <trkpt lat="45.17104" lon="5.95784">
        <ele>2714.2</ele>
        <time>2021-02-20T12:09:52Z</time>
      </trkpt>
      <trkpt lat="45.17104" lon="5.95784">
        <ele>2714.2</ele>
        <time>2021-02-20T12:09:53Z</time>
      </trkpt>
      <trkpt lat="45.17104" lon="5.95784">
        <ele>2714.2</ele>
        <time>2021-02-20T12:09:54Z</time>
      </trkpt>
      <trkpt lat="45.17104" lon="5.95784">
        <ele>2714.2</ele>
        <time>2021-02-20T12:09:55Z</time>
      </trkpt>
      <trkpt lat="45.17104" lon="5.95784">
        <ele>2714.2</ele>
        <time>2021-02-20T12:09:56Z</time>
      </trkpt>
      <trkpt lat="45.17104" lon="5.95784">
        <ele>2714.2</ele>
        <time>2021-02-20T12:09:57Z</time>
      </trkpt>
      <trkpt lat="45.17104" lon="5.95784">
        <ele>2714.2</ele>
        <time>2021-02-20T12:09:58Z</time>
      </trkpt>
      <trkpt lat="45.17104" lon="5.95784">
        <ele>2714.2</ele>
        <time>2021-02-20T12:09:59Z</time>
      </trkpt>
      <trkpt lat="45.17104" lon="5.95784">
        <ele>2714.2</ele>
        <time>2021-02-20T12:10:00Z</time>
      </trkpt>
      <trkpt lat="45.17104" lon="5.95784">
        <ele>2714.2</ele>
        <time>2021-02-20T12:10:01Z</time>
      </trkpt>
      <trkpt lat="45.17104" lon="5.95784">
        <ele>2714.2</ele>
        <time>2021-02-20T12:10:02Z</time>
      </trkpt>
      <trkpt lat="45.17104" lon="5.95784">
        <ele>2714.2</ele>
        <time>2021-02-20T12:10:03Z</time>
      </trkpt>
      <trkpt lat="45.17104" lon="5.95784">
        <ele>2714.2</ele>
        <time>2021-02-20T12:10:04Z</time>
      </trkpt>
      <trkpt lat="45.17104" lon="5.95784">
        <ele>2714.2</ele>
        <time>2021-02-20T12:10:05Z</time>
      </trkpt>
      <trkpt lat="45.17104" lon="5.95784">
        <ele>2714.2</ele>
        <time>2021-02-20T12:10:06Z</time>
      </trkpt>
      <trkpt lat="45.17104" lon="5.95784">
        <ele>2714.2</ele>
        <time>2021-02-20T12:10:07Z</time>
      </trkpt>
      <trkpt lat="45.17104" lon="5.95784">
        <ele>2714.2</ele>
        <time>2021-02-20T12:10:08Z</time>
      </trkpt>
      <trkpt lat="45.17104" lon="5.95784">
        <ele>2714.2</ele>
        <time>2021-02-20T12:10:09Z</time>
      </trkpt>
      <trkpt lat="45.17104" lon="5.95784">
        <ele>2714.2</ele>
        <time>2021-02-20T12:10:10Z</time>
      </trkpt>
      <trkpt lat="45.17104" lon="5.95784">
        <ele>2714.2</ele>
        <time>2021-02-20T12:10:11Z</time>
      </trkpt>
      <trkpt lat="45.17104" lon="5.95784">
        <ele>2714.2</ele>
        <time>2021-02-20T12:10:12Z</time>
      </trkpt>
      <trkpt lat="45.17104" lon="5.95784">
        <ele>2714.2</ele>
        <time>2021-02-20T12:10:13Z</time>
      </trkpt>
      <trkpt lat="45.17104" lon="5.95784">
        <ele>2714.2</ele>
        <time>2021-02-20T12:10:14Z</time>
      </trkpt>
      <trkpt lat="45.17104" lon="5.95784">
        <ele>2714.2</ele>
        <time>2021-02-20T12:10:15Z</time>
      </trkpt>
      <trkpt lat="45.17104" lon="5.95784">
        <ele>2714.2</ele>
        <time>2021-02-20T12:10:16Z</time>
      </trkpt>
      <trkpt lat="45.17104" lon="5.95784">
        <ele>2714.2</ele>
        <time>2021-02-20T12:10:17Z</time>
      </trkpt>
      <trkpt lat="45.17104" lon="5.95784">
        <ele>2714.2</ele>
        <time>2021-02-20T12:10:18Z</time>
      </trkpt>
      <trkpt lat="45.17104" lon="5.95784">
        <ele>2714.2</ele>
        <time>2021-02-20T12:10:19Z</time>
      </trkpt>
      <trkpt lat="45.17104" lon="5.95784">
        <ele>2714.2</ele>
        <time>2021-02-20T12:10:20Z</time>
      </trkpt>
      <trkpt lat="45.17104" lon="5.95784">
        <ele>2714.2</ele>
        <time>2021-02-20T12:10:21Z</time>
      </trkpt>
      <trkpt lat="45.17104" lon="5.95784">
        <ele>2714.2</ele>
        <time>2021-02-20T12:10:22Z</time>
      </trkpt>
      <trkpt lat="45.17104" lon="5.95784">
        <ele>2714.2</ele>
        <time>2021-02-20T12:10:23Z</time>
      </trkpt>
      <trkpt lat="45.17104" lon="5.95784">
        <ele>2714.2</ele>
        <time>2021-02-20T12:10:24Z</time>
      </trkpt>
      <trkpt lat="45.17104" lon="5.95784">
        <ele>2714.2</ele>
        <time>2021-02-20T12:10:25Z</time>
      </trkpt>
      <trkpt lat="45.17104" lon="5.95784">
        <ele>2714.2</ele>
        <time>2021-02-20T12:10:26Z</time>
      </trkpt>
      <trkpt lat="45.17104" lon="5.95784">
        <ele>2714.2</ele>
        <time>2021-02-20T12:10:27Z</time>
      </trkpt>
      <trkpt lat="45.17104" lon="5.95784">
        <ele>2714.2</ele>
        <time>2021-02-20T12:10:28Z</time>
      </trkpt>
      <trkpt lat="45.17104" lon="5.95784">
        <ele>2714.2</ele>
        <time>2021-02-20T12:10:29Z</time>
      </trkpt>
      <trkpt lat="45.17104" lon="5.95784">
        <ele>2714.2</ele>
        <time>2021-02-20T12:10:30Z</time>
      </trkpt>
      <trkpt lat="45.17104" lon="5.95784">
        <ele>2714.2</ele>
        <time>2021-02-20T12:10:31Z</time>
      </trkpt>
      <trkpt lat="45.17104" lon="5.95784">
        <ele>2714.2</ele>
        <time>2021-02-20T12:10:32Z</time>
      </trkpt>
      <trkpt lat="45.17104" lon="5.95784">
        <ele>2714.2</ele>
        <time>2021-02-20T12:10:33Z</time>
      </trkpt>
      <trkpt lat="45.17104" lon="5.95784">
        <ele>2714.2</ele>
        <time>2021-02-20T12:10:34Z</time>
      </trkpt>
      <trkpt lat="45.17104" lon="5.95784">
        <ele>2714.2</ele>
        <time>2021-02-20T12:10:35Z</time>
      </trkpt>
      <trkpt lat="45.17104" lon="5.95784">
        <ele>2714.2</ele>
        <time>2021-02-20T12:10:36Z</time>
      </trkpt>
      <trkpt lat="45.17104" lon="5.95784">
        <ele>2714.2</ele>
        <time>2021-02-20T12:10:37Z</time>
      </trkpt>
      <trkpt lat="45.17104" lon="5.95784">
        <ele>2714.2</ele>
        <time>2021-02-20T12:10:38Z</time>
      </trkpt>
      <trkpt lat="45.17104" lon="5.95784">
        <ele>2714.2</ele>
        <time>2021-02-20T12:10:39Z</time>
      </trkpt>
      <trkpt lat="45.17104" lon="5.95784">
        <ele>2714.2</ele>
        <time>2021-02-20T12:10:40Z</time>
      </trkpt>
      <trkpt lat="45.17104" lon="5.95784">
        <ele>2714.2</ele>
        <time>2021-02-20T12:10:41Z</time>
      </trkpt>
      <trkpt lat="45.17104" lon="5.95784">
        <ele>2714.2</ele>
        <time>2021-02-20T12:10:42Z</time>
      </trkpt>
      <trkpt lat="45.17104" lon="5.95784">
        <ele>2714.2</ele>
        <time>2021-02-20T12:10:43Z</time>
      </trkpt>
      <trkpt lat="45.17104" lon="5.95784">
        <ele>2714.2</ele>
        <time>2021-02-20T12:10:44Z</time>
      </trkpt>
      <trkpt lat="45.17104" lon="5.95784">
        <ele>2714.2</ele>
        <time>2021-02-20T12:10:45Z</time>
      </trkpt>
      <trkpt lat="45.17104" lon="5.95784">
        <ele>2714.2</ele>
        <time>2021-02-20T12:10:46Z</time>
      </trkpt>
      <trkpt lat="45.17104" lon="5.95784">
        <ele>2714.2</ele>
        <time>2021-02-20T12:10:47Z</time>
      </trkpt>
      <trkpt lat="45.17104" lon="5.95784">
        <ele>2714.2</ele>
        <time>2021-02-20T12:10:48Z</time>
      </trkpt>
      <trkpt lat="45.17104" lon="5.95784">
        <ele>2714.2</ele>
        <time>2021-02-20T12:10:49Z</time>
      </trkpt>
      <trkpt lat="45.17104" lon="5.95784">
        <ele>2714.2</ele>
        <time>2021-02-20T12:10:50Z</time>
      </trkpt>
      <trkpt lat="45.17104" lon="5.95784">
        <ele>2714.2</ele>
        <time>2021-02-20T12:10:51Z</time>
      </trkpt>
      <trkpt lat="45.17104" lon="5.95784">
        <ele>2714.2</ele>
        <time>2021-02-20T12:10:52Z</time>
      </trkpt>
      <trkpt lat="45.17104" lon="5.95784">
        <ele>2714.2</ele>
        <time>2021-02-20T12:10:53Z</time>
      </trkpt>
      <trkpt lat="45.17104" lon="5.95784">
        <ele>2714.2</ele>
        <time>2021-02-20T12:10:54Z</time>
      </trkpt>
      <trkpt lat="45.17104" lon="5.95784">
        <ele>2714.2</ele>
        <time>2021-02-20T12:10:55Z</time>
      </trkpt>
      <trkpt lat="45.17104" lon="5.95784">
        <ele>2714.2</ele>
        <time>2021-02-20T12:10:56Z</time>
      </trkpt>
      <trkpt lat="45.17104" lon="5.95784">
        <ele>2714.2</ele>
        <time>2021-02-20T12:10:57Z</time>
      </trkpt>
      <trkpt lat="45.17104" lon="5.95784">
        <ele>2714.2</ele>
        <time>2021-02-20T12:10:58Z</time>
      </trkpt>
      <trkpt lat="45.17104" lon="5.95784">
        <ele>2714.2</ele>
        <time>2021-02-20T12:10:59Z</time>
      </trkpt>
      <trkpt lat="45.17104" lon="5.95784">
        <ele>2714.2</ele>
        <time>2021-02-20T12:11:00Z</time>
      </trkpt>
      <trkpt lat="45.17104" lon="5.95784">
        <ele>2714.2</ele>
        <time>2021-02-20T12:11:01Z</time>
      </trkpt>
      <trkpt lat="45.17104" lon="5.95784">
        <ele>2714.2</ele>
        <time>2021-02-20T12:11:02Z</time>
      </trkpt>
      <trkpt lat="45.17104" lon="5.95784">
        <ele>2714.2</ele>
        <time>2021-02-20T12:11:03Z</time>
      </trkpt>
      <trkpt lat="45.17104" lon="5.95784">
        <ele>2714.2</ele>
        <time>2021-02-20T12:11:04Z</time>
      </trkpt>
      <trkpt lat="45.17104" lon="5.95784">
        <ele>2714.2</ele>
        <time>2021-02-20T12:11:05Z</time>
      </trkpt>
      <trkpt lat="45.17104" lon="5.95784">
        <ele>2714.2</ele>
        <time>2021-02-20T12:11:06Z</time>
      </trkpt>
      <trkpt lat="45.17104" lon="5.95784">
        <ele>2714.2</ele>
        <time>2021-02-20T12:11:07Z</time>
      </trkpt>
      <trkpt lat="45.17104" lon="5.95784">
        <ele>2714.2</ele>
        <time>2021-02-20T12:11:08Z</time>
      </trkpt>
      <trkpt lat="45.17104" lon="5.95785">
        <ele>2714.2</ele>
        <time>2021-02-20T12:11:09Z</time>
      </trkpt>
      <trkpt lat="45.17104" lon="5.95785">
        <ele>2714.2</ele>
        <time>2021-02-20T12:11:10Z</time>
      </trkpt>
      <trkpt lat="45.17104" lon="5.95785">
        <ele>2714.2</ele>
        <time>2021-02-20T12:11:11Z</time>
      </trkpt>
      <trkpt lat="45.17104" lon="5.95785">
        <ele>2714.2</ele>
        <time>2021-02-20T12:11:12Z</time>
      </trkpt>
      <trkpt lat="45.17104" lon="5.95785">
        <ele>2714.2</ele>
        <time>2021-02-20T12:11:13Z</time>
      </trkpt>
      <trkpt lat="45.17104" lon="5.95785">
        <ele>2714.2</ele>
        <time>2021-02-20T12:11:14Z</time>
      </trkpt>
      <trkpt lat="45.17104" lon="5.95785">
        <ele>2714.2</ele>
        <time>2021-02-20T12:11:15Z</time>
      </trkpt>
      <trkpt lat="45.17104" lon="5.95785">
        <ele>2714.2</ele>
        <time>2021-02-20T12:11:16Z</time>
      </trkpt>
      <trkpt lat="45.17104" lon="5.95785">
        <ele>2714.2</ele>
        <time>2021-02-20T12:11:17Z</time>
      </trkpt>
      <trkpt lat="45.17104" lon="5.95785">
        <ele>2714.2</ele>
        <time>2021-02-20T12:11:18Z</time>
      </trkpt>
      <trkpt lat="45.17104" lon="5.95785">
        <ele>2714.2</ele>
        <time>2021-02-20T12:11:19Z</time>
      </trkpt>
      <trkpt lat="45.17104" lon="5.95785">
        <ele>2714.2</ele>
        <time>2021-02-20T12:11:20Z</time>
      </trkpt>
      <trkpt lat="45.17104" lon="5.95785">
        <ele>2714.2</ele>
        <time>2021-02-20T12:11:21Z</time>
      </trkpt>
      <trkpt lat="45.17104" lon="5.95785">
        <ele>2714.2</ele>
        <time>2021-02-20T12:11:22Z</time>
      </trkpt>
      <trkpt lat="45.17104" lon="5.95785">
        <ele>2714.2</ele>
        <time>2021-02-20T12:11:23Z</time>
      </trkpt>
      <trkpt lat="45.17104" lon="5.95785">
        <ele>2714.2</ele>
        <time>2021-02-20T12:11:24Z</time>
      </trkpt>
      <trkpt lat="45.17104" lon="5.95785">
        <ele>2714.2</ele>
        <time>2021-02-20T12:11:25Z</time>
      </trkpt>
      <trkpt lat="45.17104" lon="5.95785">
        <ele>2714.2</ele>
        <time>2021-02-20T12:11:26Z</time>
      </trkpt>
      <trkpt lat="45.17104" lon="5.95785">
        <ele>2714.2</ele>
        <time>2021-02-20T12:11:27Z</time>
      </trkpt>
      <trkpt lat="45.17104" lon="5.95785">
        <ele>2714.2</ele>
        <time>2021-02-20T12:11:28Z</time>
      </trkpt>
      <trkpt lat="45.17104" lon="5.95785">
        <ele>2714.2</ele>
        <time>2021-02-20T12:11:29Z</time>
      </trkpt>
      <trkpt lat="45.17104" lon="5.95785">
        <ele>2714.2</ele>
        <time>2021-02-20T12:11:30Z</time>
      </trkpt>
      <trkpt lat="45.17104" lon="5.95785">
        <ele>2714.2</ele>
        <time>2021-02-20T12:11:31Z</time>
      </trkpt>
      <trkpt lat="45.17104" lon="5.95785">
        <ele>2714.2</ele>
        <time>2021-02-20T12:11:32Z</time>
      </trkpt>
      <trkpt lat="45.17104" lon="5.95785">
        <ele>2714.2</ele>
        <time>2021-02-20T12:11:33Z</time>
      </trkpt>
      <trkpt lat="45.17104" lon="5.95785">
        <ele>2714.2</ele>
        <time>2021-02-20T12:11:34Z</time>
      </trkpt>
      <trkpt lat="45.17104" lon="5.95785">
        <ele>2714.2</ele>
        <time>2021-02-20T12:11:35Z</time>
      </trkpt>
      <trkpt lat="45.17104" lon="5.95785">
        <ele>2714.2</ele>
        <time>2021-02-20T12:11:36Z</time>
      </trkpt>
      <trkpt lat="45.17104" lon="5.95785">
        <ele>2714.2</ele>
        <time>2021-02-20T12:11:37Z</time>
      </trkpt>
      <trkpt lat="45.17104" lon="5.95785">
        <ele>2714.2</ele>
        <time>2021-02-20T12:11:38Z</time>
      </trkpt>
      <trkpt lat="45.17104" lon="5.95785">
        <ele>2714.2</ele>
        <time>2021-02-20T12:11:39Z</time>
      </trkpt>
      <trkpt lat="45.17104" lon="5.95785">
        <ele>2714.2</ele>
        <time>2021-02-20T12:11:40Z</time>
      </trkpt>
      <trkpt lat="45.17104" lon="5.95785">
        <ele>2714.2</ele>
        <time>2021-02-20T12:11:41Z</time>
      </trkpt>
      <trkpt lat="45.17104" lon="5.95785">
        <ele>2714.2</ele>
        <time>2021-02-20T12:11:42Z</time>
      </trkpt>
      <trkpt lat="45.17104" lon="5.95785">
        <ele>2714.2</ele>
        <time>2021-02-20T12:11:43Z</time>
      </trkpt>
      <trkpt lat="45.17104" lon="5.95785">
        <ele>2714.2</ele>
        <time>2021-02-20T12:11:44Z</time>
      </trkpt>
      <trkpt lat="45.17104" lon="5.95785">
        <ele>2714.2</ele>
        <time>2021-02-20T12:11:45Z</time>
      </trkpt>
      <trkpt lat="45.17104" lon="5.95785">
        <ele>2714.2</ele>
        <time>2021-02-20T12:11:46Z</time>
      </trkpt>
      <trkpt lat="45.17104" lon="5.95785">
        <ele>2714.2</ele>
        <time>2021-02-20T12:11:47Z</time>
      </trkpt>
      <trkpt lat="45.17104" lon="5.95785">
        <ele>2714.2</ele>
        <time>2021-02-20T12:11:48Z</time>
      </trkpt>
      <trkpt lat="45.17104" lon="5.95785">
        <ele>2714.2</ele>
        <time>2021-02-20T12:11:49Z</time>
      </trkpt>
      <trkpt lat="45.17104" lon="5.95785">
        <ele>2714.2</ele>
        <time>2021-02-20T12:11:50Z</time>
      </trkpt>
      <trkpt lat="45.17104" lon="5.95785">
        <ele>2714.2</ele>
        <time>2021-02-20T12:11:51Z</time>
      </trkpt>
      <trkpt lat="45.17104" lon="5.95785">
        <ele>2714.2</ele>
        <time>2021-02-20T12:11:52Z</time>
      </trkpt>
      <trkpt lat="45.17104" lon="5.95785">
        <ele>2714.2</ele>
        <time>2021-02-20T12:11:53Z</time>
      </trkpt>
      <trkpt lat="45.17104" lon="5.95785">
        <ele>2714.2</ele>
        <time>2021-02-20T12:11:54Z</time>
      </trkpt>
      <trkpt lat="45.17104" lon="5.95785">
        <ele>2714.2</ele>
        <time>2021-02-20T12:11:55Z</time>
      </trkpt>
      <trkpt lat="45.17104" lon="5.95785">
        <ele>2714.2</ele>
        <time>2021-02-20T12:11:56Z</time>
      </trkpt>
      <trkpt lat="45.17104" lon="5.95785">
        <ele>2714.2</ele>
        <time>2021-02-20T12:11:57Z</time>
      </trkpt>
      <trkpt lat="45.17104" lon="5.95785">
        <ele>2714.2</ele>
        <time>2021-02-20T12:11:58Z</time>
      </trkpt>
      <trkpt lat="45.17104" lon="5.95785">
        <ele>2714.2</ele>
        <time>2021-02-20T12:11:59Z</time>
      </trkpt>
      <trkpt lat="45.17104" lon="5.95785">
        <ele>2714.2</ele>
        <time>2021-02-20T12:12:00Z</time>
      </trkpt>
      <trkpt lat="45.17104" lon="5.95785">
        <ele>2714.2</ele>
        <time>2021-02-20T12:12:01Z</time>
      </trkpt>
      <trkpt lat="45.17104" lon="5.95785">
        <ele>2714.2</ele>
        <time>2021-02-20T12:12:02Z</time>
      </trkpt>
      <trkpt lat="45.17104" lon="5.95785">
        <ele>2714.2</ele>
        <time>2021-02-20T12:12:03Z</time>
      </trkpt>
      <trkpt lat="45.17104" lon="5.95785">
        <ele>2714.2</ele>
        <time>2021-02-20T12:12:04Z</time>
      </trkpt>
      <trkpt lat="45.17104" lon="5.95785">
        <ele>2714.2</ele>
        <time>2021-02-20T12:12:05Z</time>
      </trkpt>
      <trkpt lat="45.17104" lon="5.95785">
        <ele>2714.2</ele>
        <time>2021-02-20T12:12:06Z</time>
      </trkpt>
      <trkpt lat="45.17104" lon="5.95785">
        <ele>2714.2</ele>
        <time>2021-02-20T12:12:07Z</time>
      </trkpt>
      <trkpt lat="45.17104" lon="5.95785">
        <ele>2714.2</ele>
        <time>2021-02-20T12:12:08Z</time>
      </trkpt>
      <trkpt lat="45.17104" lon="5.95785">
        <ele>2714.2</ele>
        <time>2021-02-20T12:12:09Z</time>
      </trkpt>
      <trkpt lat="45.17104" lon="5.95785">
        <ele>2714.2</ele>
        <time>2021-02-20T12:12:10Z</time>
      </trkpt>
      <trkpt lat="45.17104" lon="5.95785">
        <ele>2714.2</ele>
        <time>2021-02-20T12:12:11Z</time>
      </trkpt>
      <trkpt lat="45.17104" lon="5.95785">
        <ele>2714.2</ele>
        <time>2021-02-20T12:12:12Z</time>
      </trkpt>
      <trkpt lat="45.17104" lon="5.95785">
        <ele>2714.2</ele>
        <time>2021-02-20T12:12:13Z</time>
      </trkpt>
      <trkpt lat="45.17104" lon="5.95785">
        <ele>2714.2</ele>
        <time>2021-02-20T12:12:14Z</time>
      </trkpt>
      <trkpt lat="45.17104" lon="5.95785">
        <ele>2714.2</ele>
        <time>2021-02-20T12:12:15Z</time>
      </trkpt>
      <trkpt lat="45.17103" lon="5.95785">
        <ele>2714.2</ele>
        <time>2021-02-20T12:12:16Z</time>
      </trkpt>
      <trkpt lat="45.17103" lon="5.95785">
        <ele>2714.2</ele>
        <time>2021-02-20T12:12:17Z</time>
      </trkpt>
      <trkpt lat="45.17103" lon="5.95785">
        <ele>2714.2</ele>
        <time>2021-02-20T12:12:18Z</time>
      </trkpt>
      <trkpt lat="45.17103" lon="5.95786">
        <ele>2712.8</ele>
        <time>2021-02-20T12:12:19Z</time>
      </trkpt>
      <trkpt lat="45.17102" lon="5.95786">
        <ele>2712.8</ele>
        <time>2021-02-20T12:12:20Z</time>
      </trkpt>
      <trkpt lat="45.17102" lon="5.95786">
        <ele>2712.8</ele>
        <time>2021-02-20T12:12:21Z</time>
      </trkpt>
      <trkpt lat="45.17102" lon="5.95786">
        <ele>2712.8</ele>
        <time>2021-02-20T12:12:22Z</time>
      </trkpt>
      <trkpt lat="45.17102" lon="5.95786">
        <ele>2712.8</ele>
        <time>2021-02-20T12:12:23Z</time>
      </trkpt>
      <trkpt lat="45.17102" lon="5.95786">
        <ele>2712.8</ele>
        <time>2021-02-20T12:12:24Z</time>
      </trkpt>
      <trkpt lat="45.17102" lon="5.95786">
        <ele>2712.8</ele>
        <time>2021-02-20T12:12:25Z</time>
      </trkpt>
      <trkpt lat="45.17102" lon="5.95786">
        <ele>2712.8</ele>
        <time>2021-02-20T12:12:26Z</time>
      </trkpt>
      <trkpt lat="45.17102" lon="5.95786">
        <ele>2712.8</ele>
        <time>2021-02-20T12:12:27Z</time>
      </trkpt>
      <trkpt lat="45.17103" lon="5.95784">
        <ele>2712.9</ele>
        <time>2021-02-20T12:12:28Z</time>
      </trkpt>
      <trkpt lat="45.17103" lon="5.95784">
        <ele>2714.2</ele>
        <time>2021-02-20T12:12:29Z</time>
      </trkpt>
      <trkpt lat="45.17103" lon="5.95785">
        <ele>2714.2</ele>
        <time>2021-02-20T12:12:30Z</time>
      </trkpt>
      <trkpt lat="45.17103" lon="5.95785">
        <ele>2714.2</ele>
        <time>2021-02-20T12:12:31Z</time>
      </trkpt>
      <trkpt lat="45.17104" lon="5.95785">
        <ele>2714.2</ele>
        <time>2021-02-20T12:12:32Z</time>
      </trkpt>
      <trkpt lat="45.17104" lon="5.95785">
        <ele>2714.2</ele>
        <time>2021-02-20T12:12:33Z</time>
      </trkpt>
      <trkpt lat="45.17105" lon="5.95785">
        <ele>2714.2</ele>
        <time>2021-02-20T12:12:34Z</time>
      </trkpt>
      <trkpt lat="45.17105" lon="5.95785">
        <ele>2714.2</ele>
        <time>2021-02-20T12:12:35Z</time>
      </trkpt>
      <trkpt lat="45.17105" lon="5.95785">
        <ele>2714.2</ele>
        <time>2021-02-20T12:12:36Z</time>
      </trkpt>
      <trkpt lat="45.17105" lon="5.95785">
        <ele>2714.2</ele>
        <time>2021-02-20T12:12:37Z</time>
      </trkpt>
      <trkpt lat="45.17105" lon="5.95785">
        <ele>2714.2</ele>
        <time>2021-02-20T12:12:38Z</time>
      </trkpt>
      <trkpt lat="45.17105" lon="5.95785">
        <ele>2714.2</ele>
        <time>2021-02-20T12:12:39Z</time>
      </trkpt>
      <trkpt lat="45.17105" lon="5.95785">
        <ele>2714.2</ele>
        <time>2021-02-20T12:12:40Z</time>
      </trkpt>
      <trkpt lat="45.17105" lon="5.95785">
        <ele>2714.2</ele>
        <time>2021-02-20T12:12:41Z</time>
      </trkpt>
      <trkpt lat="45.17105" lon="5.95785">
        <ele>2714.2</ele>
        <time>2021-02-20T12:12:42Z</time>
      </trkpt>
      <trkpt lat="45.17105" lon="5.95785">
        <ele>2714.2</ele>
        <time>2021-02-20T12:12:43Z</time>
      </trkpt>
      <trkpt lat="45.17105" lon="5.95785">
        <ele>2714.2</ele>
        <time>2021-02-20T12:12:44Z</time>
      </trkpt>
      <trkpt lat="45.17105" lon="5.95785">
        <ele>2714.2</ele>
        <time>2021-02-20T12:12:45Z</time>
      </trkpt>
      <trkpt lat="45.17105" lon="5.95785">
        <ele>2714.2</ele>
        <time>2021-02-20T12:12:46Z</time>
      </trkpt>
      <trkpt lat="45.17105" lon="5.95785">
        <ele>2714.2</ele>
        <time>2021-02-20T12:12:47Z</time>
      </trkpt>
      <trkpt lat="45.17105" lon="5.95785">
        <ele>2714.2</ele>
        <time>2021-02-20T12:12:48Z</time>
      </trkpt>
      <trkpt lat="45.17102" lon="5.95784">
        <ele>2712.9</ele>
        <time>2021-02-20T12:12:49Z</time>
      </trkpt>
      <trkpt lat="45.17102" lon="5.95784">
        <ele>2712.9</ele>
        <time>2021-02-20T12:12:50Z</time>
      </trkpt>
      <trkpt lat="45.17103" lon="5.95784">
        <ele>2714.2</ele>
        <time>2021-02-20T12:12:51Z</time>
      </trkpt>
      <trkpt lat="45.17104" lon="5.95784">
        <ele>2714.2</ele>
        <time>2021-02-20T12:12:52Z</time>
      </trkpt>
      <trkpt lat="45.17104" lon="5.95784">
        <ele>2714.2</ele>
        <time>2021-02-20T12:12:53Z</time>
      </trkpt>
      <trkpt lat="45.17103" lon="5.95785">
        <ele>2714.2</ele>
        <time>2021-02-20T12:12:54Z</time>
      </trkpt>
      <trkpt lat="45.17103" lon="5.95785">
        <ele>2714.2</ele>
        <time>2021-02-20T12:12:55Z</time>
      </trkpt>
      <trkpt lat="45.17103" lon="5.95785">
        <ele>2714.2</ele>
        <time>2021-02-20T12:12:56Z</time>
      </trkpt>
      <trkpt lat="45.17103" lon="5.95785">
        <ele>2714.2</ele>
        <time>2021-02-20T12:12:57Z</time>
      </trkpt>
      <trkpt lat="45.17103" lon="5.95785">
        <ele>2714.2</ele>
        <time>2021-02-20T12:12:58Z</time>
      </trkpt>
      <trkpt lat="45.17103" lon="5.95785">
        <ele>2714.2</ele>
        <time>2021-02-20T12:12:59Z</time>
      </trkpt>
      <trkpt lat="45.17106" lon="5.95784">
        <ele>2715.4</ele>
        <time>2021-02-20T12:13:00Z</time>
      </trkpt>
      <trkpt lat="45.17107" lon="5.95784">
        <ele>2715.4</ele>
        <time>2021-02-20T12:13:01Z</time>
      </trkpt>
      <trkpt lat="45.17106" lon="5.95785">
        <ele>2715.4</ele>
        <time>2021-02-20T12:13:02Z</time>
      </trkpt>
      <trkpt lat="45.17106" lon="5.95785">
        <ele>2715.4</ele>
        <time>2021-02-20T12:13:03Z</time>
      </trkpt>
      <trkpt lat="45.17106" lon="5.95785">
        <ele>2715.4</ele>
        <time>2021-02-20T12:13:04Z</time>
      </trkpt>
      <trkpt lat="45.17105" lon="5.95786">
        <ele>2714.2</ele>
        <time>2021-02-20T12:13:05Z</time>
      </trkpt>
      <trkpt lat="45.17105" lon="5.95786">
        <ele>2714.2</ele>
        <time>2021-02-20T12:13:06Z</time>
      </trkpt>
      <trkpt lat="45.17105" lon="5.95786">
        <ele>2714.2</ele>
        <time>2021-02-20T12:13:07Z</time>
      </trkpt>
      <trkpt lat="45.17106" lon="5.95785">
        <ele>2714.2</ele>
        <time>2021-02-20T12:13:08Z</time>
      </trkpt>
      <trkpt lat="45.17106" lon="5.95786">
        <ele>2715.5</ele>
        <time>2021-02-20T12:13:09Z</time>
      </trkpt>
      <trkpt lat="45.17105" lon="5.95786">
        <ele>2714.2</ele>
        <time>2021-02-20T12:13:10Z</time>
      </trkpt>
      <trkpt lat="45.17105" lon="5.95786">
        <ele>2714.2</ele>
        <time>2021-02-20T12:13:11Z</time>
      </trkpt>
      <trkpt lat="45.17105" lon="5.95787">
        <ele>2714.2</ele>
        <time>2021-02-20T12:13:12Z</time>
      </trkpt>
      <trkpt lat="45.17105" lon="5.95787">
        <ele>2714.2</ele>
        <time>2021-02-20T12:13:13Z</time>
      </trkpt>
      <trkpt lat="45.17105" lon="5.95787">
        <ele>2714.2</ele>
        <time>2021-02-20T12:13:14Z</time>
      </trkpt>
      <trkpt lat="45.17103" lon="5.95786">
        <ele>2714.2</ele>
        <time>2021-02-20T12:13:15Z</time>
      </trkpt>
      <trkpt lat="45.17103" lon="5.95786">
        <ele>2714.2</ele>
        <time>2021-02-20T12:13:16Z</time>
      </trkpt>
      <trkpt lat="45.17103" lon="5.95786">
        <ele>2714.2</ele>
        <time>2021-02-20T12:13:17Z</time>
      </trkpt>
      <trkpt lat="45.17104" lon="5.95786">
        <ele>2714.2</ele>
        <time>2021-02-20T12:13:18Z</time>
      </trkpt>
      <trkpt lat="45.17104" lon="5.95785">
        <ele>2714.2</ele>
        <time>2021-02-20T12:13:19Z</time>
      </trkpt>
      <trkpt lat="45.17105" lon="5.95785">
        <ele>2714.2</ele>
        <time>2021-02-20T12:13:20Z</time>
      </trkpt>
      <trkpt lat="45.17105" lon="5.95785">
        <ele>2714.2</ele>
        <time>2021-02-20T12:13:21Z</time>
      </trkpt>
      <trkpt lat="45.17106" lon="5.95785">
        <ele>2714.2</ele>
        <time>2021-02-20T12:13:22Z</time>
      </trkpt>
      <trkpt lat="45.17106" lon="5.95785">
        <ele>2714.2</ele>
        <time>2021-02-20T12:13:23Z</time>
      </trkpt>
      <trkpt lat="45.17106" lon="5.95785">
        <ele>2714.2</ele>
        <time>2021-02-20T12:13:24Z</time>
      </trkpt>
      <trkpt lat="45.17106" lon="5.95785">
        <ele>2714.2</ele>
        <time>2021-02-20T12:13:25Z</time>
      </trkpt>
      <trkpt lat="45.17106" lon="5.95785">
        <ele>2714.2</ele>
        <time>2021-02-20T12:13:26Z</time>
      </trkpt>
      <trkpt lat="45.17106" lon="5.95785">
        <ele>2714.2</ele>
        <time>2021-02-20T12:13:27Z</time>
      </trkpt>
      <trkpt lat="45.17105" lon="5.95786">
        <ele>2714.2</ele>
        <time>2021-02-20T12:13:28Z</time>
      </trkpt>
      <trkpt lat="45.17105" lon="5.95786">
        <ele>2714.2</ele>
        <time>2021-02-20T12:13:29Z</time>
      </trkpt>
      <trkpt lat="45.17105" lon="5.95786">
        <ele>2714.2</ele>
        <time>2021-02-20T12:13:30Z</time>
      </trkpt>
      <trkpt lat="45.17105" lon="5.95786">
        <ele>2714.2</ele>
        <time>2021-02-20T12:13:31Z</time>
      </trkpt>
      <trkpt lat="45.17105" lon="5.95786">
        <ele>2714.2</ele>
        <time>2021-02-20T12:13:32Z</time>
      </trkpt>
      <trkpt lat="45.17105" lon="5.95786">
        <ele>2714.2</ele>
        <time>2021-02-20T12:13:33Z</time>
      </trkpt>
      <trkpt lat="45.17105" lon="5.95786">
        <ele>2714.2</ele>
        <time>2021-02-20T12:13:34Z</time>
      </trkpt>
      <trkpt lat="45.17104" lon="5.95786">
        <ele>2714.2</ele>
        <time>2021-02-20T12:13:35Z</time>
      </trkpt>
      <trkpt lat="45.17102" lon="5.95787">
        <ele>2712.8</ele>
        <time>2021-02-20T12:13:36Z</time>
      </trkpt>
      <trkpt lat="45.17102" lon="5.95787">
        <ele>2712.8</ele>
        <time>2021-02-20T12:13:37Z</time>
      </trkpt>
      <trkpt lat="45.17102" lon="5.95787">
        <ele>2712.8</ele>
        <time>2021-02-20T12:13:38Z</time>
      </trkpt>
      <trkpt lat="45.17102" lon="5.95787">
        <ele>2712.8</ele>
        <time>2021-02-20T12:13:39Z</time>
      </trkpt>
      <trkpt lat="45.17102" lon="5.95787">
        <ele>2712.8</ele>
        <time>2021-02-20T12:13:40Z</time>
      </trkpt>
      <trkpt lat="45.17102" lon="5.95787">
        <ele>2712.8</ele>
        <time>2021-02-20T12:13:41Z</time>
      </trkpt>
      <trkpt lat="45.17102" lon="5.95787">
        <ele>2712.8</ele>
        <time>2021-02-20T12:13:42Z</time>
      </trkpt>
      <trkpt lat="45.17102" lon="5.95787">
        <ele>2712.8</ele>
        <time>2021-02-20T12:13:43Z</time>
      </trkpt>
      <trkpt lat="45.17102" lon="5.95787">
        <ele>2712.8</ele>
        <time>2021-02-20T12:13:44Z</time>
      </trkpt>
      <trkpt lat="45.17102" lon="5.95787">
        <ele>2712.8</ele>
        <time>2021-02-20T12:13:45Z</time>
      </trkpt>
      <trkpt lat="45.17102" lon="5.95787">
        <ele>2712.8</ele>
        <time>2021-02-20T12:13:46Z</time>
      </trkpt>
      <trkpt lat="45.17102" lon="5.95787">
        <ele>2712.8</ele>
        <time>2021-02-20T12:13:47Z</time>
      </trkpt>
      <trkpt lat="45.17102" lon="5.95787">
        <ele>2712.8</ele>
        <time>2021-02-20T12:13:48Z</time>
      </trkpt>
      <trkpt lat="45.17102" lon="5.95787">
        <ele>2712.8</ele>
        <time>2021-02-20T12:13:49Z</time>
      </trkpt>
      <trkpt lat="45.17102" lon="5.95787">
        <ele>2712.8</ele>
        <time>2021-02-20T12:13:50Z</time>
      </trkpt>
      <trkpt lat="45.17102" lon="5.95787">
        <ele>2712.8</ele>
        <time>2021-02-20T12:13:51Z</time>
      </trkpt>
      <trkpt lat="45.17102" lon="5.95787">
        <ele>2712.8</ele>
        <time>2021-02-20T12:13:52Z</time>
      </trkpt>
      <trkpt lat="45.17102" lon="5.95787">
        <ele>2712.8</ele>
        <time>2021-02-20T12:13:53Z</time>
      </trkpt>
      <trkpt lat="45.17102" lon="5.95787">
        <ele>2712.8</ele>
        <time>2021-02-20T12:13:54Z</time>
      </trkpt>
      <trkpt lat="45.17102" lon="5.95787">
        <ele>2712.8</ele>
        <time>2021-02-20T12:13:55Z</time>
      </trkpt>
      <trkpt lat="45.17102" lon="5.95787">
        <ele>2712.8</ele>
        <time>2021-02-20T12:13:56Z</time>
      </trkpt>
      <trkpt lat="45.17102" lon="5.95787">
        <ele>2712.8</ele>
        <time>2021-02-20T12:13:57Z</time>
      </trkpt>
      <trkpt lat="45.17102" lon="5.95787">
        <ele>2712.8</ele>
        <time>2021-02-20T12:13:58Z</time>
      </trkpt>
      <trkpt lat="45.17102" lon="5.95787">
        <ele>2712.8</ele>
        <time>2021-02-20T12:13:59Z</time>
      </trkpt>
      <trkpt lat="45.17104" lon="5.95786">
        <ele>2714.2</ele>
        <time>2021-02-20T12:14:00Z</time>
      </trkpt>
      <trkpt lat="45.17104" lon="5.95786">
        <ele>2714.2</ele>
        <time>2021-02-20T12:14:01Z</time>
      </trkpt>
      <trkpt lat="45.17104" lon="5.95786">
        <ele>2714.2</ele>
        <time>2021-02-20T12:14:02Z</time>
      </trkpt>
      <trkpt lat="45.17104" lon="5.95786">
        <ele>2714.2</ele>
        <time>2021-02-20T12:14:03Z</time>
      </trkpt>
      <trkpt lat="45.17104" lon="5.95786">
        <ele>2714.2</ele>
        <time>2021-02-20T12:14:04Z</time>
      </trkpt>
      <trkpt lat="45.17104" lon="5.95786">
        <ele>2714.2</ele>
        <time>2021-02-20T12:14:05Z</time>
      </trkpt>
      <trkpt lat="45.17104" lon="5.95786">
        <ele>2714.2</ele>
        <time>2021-02-20T12:14:06Z</time>
      </trkpt>
      <trkpt lat="45.17104" lon="5.95786">
        <ele>2714.2</ele>
        <time>2021-02-20T12:14:07Z</time>
      </trkpt>
      <trkpt lat="45.17104" lon="5.95786">
        <ele>2714.2</ele>
        <time>2021-02-20T12:14:08Z</time>
      </trkpt>
      <trkpt lat="45.17104" lon="5.95786">
        <ele>2714.2</ele>
        <time>2021-02-20T12:14:09Z</time>
      </trkpt>
      <trkpt lat="45.17104" lon="5.95786">
        <ele>2714.2</ele>
        <time>2021-02-20T12:14:10Z</time>
      </trkpt>
      <trkpt lat="45.17104" lon="5.95786">
        <ele>2714.2</ele>
        <time>2021-02-20T12:14:11Z</time>
      </trkpt>
      <trkpt lat="45.17104" lon="5.95786">
        <ele>2714.2</ele>
        <time>2021-02-20T12:14:12Z</time>
      </trkpt>
      <trkpt lat="45.17104" lon="5.95786">
        <ele>2714.2</ele>
        <time>2021-02-20T12:14:13Z</time>
      </trkpt>
      <trkpt lat="45.17104" lon="5.95786">
        <ele>2714.2</ele>
        <time>2021-02-20T12:14:14Z</time>
      </trkpt>
      <trkpt lat="45.17104" lon="5.95786">
        <ele>2714.2</ele>
        <time>2021-02-20T12:14:15Z</time>
      </trkpt>
      <trkpt lat="45.17104" lon="5.95786">
        <ele>2714.2</ele>
        <time>2021-02-20T12:14:16Z</time>
      </trkpt>
      <trkpt lat="45.17104" lon="5.95786">
        <ele>2714.2</ele>
        <time>2021-02-20T12:14:17Z</time>
      </trkpt>
      <trkpt lat="45.17104" lon="5.95786">
        <ele>2714.2</ele>
        <time>2021-02-20T12:14:18Z</time>
      </trkpt>
      <trkpt lat="45.17104" lon="5.95786">
        <ele>2714.2</ele>
        <time>2021-02-20T12:14:19Z</time>
      </trkpt>
      <trkpt lat="45.17104" lon="5.95786">
        <ele>2714.2</ele>
        <time>2021-02-20T12:14:20Z</time>
      </trkpt>
      <trkpt lat="45.17104" lon="5.95786">
        <ele>2714.2</ele>
        <time>2021-02-20T12:14:21Z</time>
      </trkpt>
      <trkpt lat="45.17104" lon="5.95786">
        <ele>2714.2</ele>
        <time>2021-02-20T12:14:22Z</time>
      </trkpt>
      <trkpt lat="45.17104" lon="5.95786">
        <ele>2714.2</ele>
        <time>2021-02-20T12:14:23Z</time>
      </trkpt>
      <trkpt lat="45.17104" lon="5.95786">
        <ele>2714.2</ele>
        <time>2021-02-20T12:14:24Z</time>
      </trkpt>
      <trkpt lat="45.17104" lon="5.95786">
        <ele>2714.2</ele>
        <time>2021-02-20T12:14:25Z</time>
      </trkpt>
      <trkpt lat="45.17104" lon="5.95786">
        <ele>2714.2</ele>
        <time>2021-02-20T12:14:26Z</time>
      </trkpt>
      <trkpt lat="45.17104" lon="5.95786">
        <ele>2714.2</ele>
        <time>2021-02-20T12:14:27Z</time>
      </trkpt>
      <trkpt lat="45.17104" lon="5.95785">
        <ele>2714.2</ele>
        <time>2021-02-20T12:14:28Z</time>
      </trkpt>
      <trkpt lat="45.17104" lon="5.95785">
        <ele>2714.2</ele>
        <time>2021-02-20T12:14:29Z</time>
      </trkpt>
      <trkpt lat="45.17104" lon="5.95785">
        <ele>2714.2</ele>
        <time>2021-02-20T12:14:30Z</time>
      </trkpt>
      <trkpt lat="45.17104" lon="5.95785">
        <ele>2714.2</ele>
        <time>2021-02-20T12:14:31Z</time>
      </trkpt>
      <trkpt lat="45.17104" lon="5.95785">
        <ele>2714.2</ele>
        <time>2021-02-20T12:14:32Z</time>
      </trkpt>
      <trkpt lat="45.17103" lon="5.95785">
        <ele>2714.2</ele>
        <time>2021-02-20T12:14:33Z</time>
      </trkpt>
      <trkpt lat="45.17103" lon="5.95785">
        <ele>2714.2</ele>
        <time>2021-02-20T12:14:34Z</time>
      </trkpt>
      <trkpt lat="45.17103" lon="5.95785">
        <ele>2714.2</ele>
        <time>2021-02-20T12:14:35Z</time>
      </trkpt>
      <trkpt lat="45.17103" lon="5.95785">
        <ele>2714.2</ele>
        <time>2021-02-20T12:14:36Z</time>
      </trkpt>
      <trkpt lat="45.17103" lon="5.95785">
        <ele>2714.2</ele>
        <time>2021-02-20T12:14:37Z</time>
      </trkpt>
      <trkpt lat="45.17103" lon="5.95785">
        <ele>2714.2</ele>
        <time>2021-02-20T12:14:38Z</time>
      </trkpt>
      <trkpt lat="45.17103" lon="5.95785">
        <ele>2714.2</ele>
        <time>2021-02-20T12:14:39Z</time>
      </trkpt>
      <trkpt lat="45.17103" lon="5.95785">
        <ele>2714.2</ele>
        <time>2021-02-20T12:14:40Z</time>
      </trkpt>
      <trkpt lat="45.17103" lon="5.95785">
        <ele>2714.2</ele>
        <time>2021-02-20T12:14:41Z</time>
      </trkpt>
      <trkpt lat="45.17103" lon="5.95785">
        <ele>2714.2</ele>
        <time>2021-02-20T12:14:42Z</time>
      </trkpt>
      <trkpt lat="45.17103" lon="5.95785">
        <ele>2714.2</ele>
        <time>2021-02-20T12:14:43Z</time>
      </trkpt>
      <trkpt lat="45.17103" lon="5.95785">
        <ele>2714.2</ele>
        <time>2021-02-20T12:14:44Z</time>
      </trkpt>
      <trkpt lat="45.17103" lon="5.95785">
        <ele>2714.2</ele>
        <time>2021-02-20T12:14:45Z</time>
      </trkpt>
      <trkpt lat="45.17103" lon="5.95785">
        <ele>2714.2</ele>
        <time>2021-02-20T12:14:46Z</time>
      </trkpt>
      <trkpt lat="45.17103" lon="5.95785">
        <ele>2714.2</ele>
        <time>2021-02-20T12:14:47Z</time>
      </trkpt>
      <trkpt lat="45.17103" lon="5.95785">
        <ele>2714.2</ele>
        <time>2021-02-20T12:14:48Z</time>
      </trkpt>
      <trkpt lat="45.17103" lon="5.95785">
        <ele>2714.2</ele>
        <time>2021-02-20T12:14:49Z</time>
      </trkpt>
      <trkpt lat="45.17103" lon="5.95785">
        <ele>2714.2</ele>
        <time>2021-02-20T12:14:50Z</time>
      </trkpt>
      <trkpt lat="45.17103" lon="5.95785">
        <ele>2714.2</ele>
        <time>2021-02-20T12:14:51Z</time>
      </trkpt>
      <trkpt lat="45.17103" lon="5.95785">
        <ele>2714.2</ele>
        <time>2021-02-20T12:14:52Z</time>
      </trkpt>
      <trkpt lat="45.17103" lon="5.95785">
        <ele>2714.2</ele>
        <time>2021-02-20T12:14:53Z</time>
      </trkpt>
      <trkpt lat="45.17103" lon="5.95785">
        <ele>2714.2</ele>
        <time>2021-02-20T12:14:54Z</time>
      </trkpt>
      <trkpt lat="45.17103" lon="5.95785">
        <ele>2714.2</ele>
        <time>2021-02-20T12:14:55Z</time>
      </trkpt>
      <trkpt lat="45.17103" lon="5.95785">
        <ele>2714.2</ele>
        <time>2021-02-20T12:14:56Z</time>
      </trkpt>
      <trkpt lat="45.17103" lon="5.95785">
        <ele>2714.2</ele>
        <time>2021-02-20T12:14:57Z</time>
      </trkpt>
      <trkpt lat="45.17103" lon="5.95785">
        <ele>2714.2</ele>
        <time>2021-02-20T12:14:58Z</time>
      </trkpt>
      <trkpt lat="45.17103" lon="5.95785">
        <ele>2714.2</ele>
        <time>2021-02-20T12:14:59Z</time>
      </trkpt>
      <trkpt lat="45.17103" lon="5.95785">
        <ele>2714.2</ele>
        <time>2021-02-20T12:15:00Z</time>
      </trkpt>
      <trkpt lat="45.17103" lon="5.95785">
        <ele>2714.2</ele>
        <time>2021-02-20T12:15:01Z</time>
      </trkpt>
      <trkpt lat="45.17103" lon="5.95785">
        <ele>2714.2</ele>
        <time>2021-02-20T12:15:02Z</time>
      </trkpt>
      <trkpt lat="45.17103" lon="5.95785">
        <ele>2714.2</ele>
        <time>2021-02-20T12:15:03Z</time>
      </trkpt>
      <trkpt lat="45.17103" lon="5.95785">
        <ele>2714.2</ele>
        <time>2021-02-20T12:15:04Z</time>
      </trkpt>
      <trkpt lat="45.17103" lon="5.95785">
        <ele>2714.2</ele>
        <time>2021-02-20T12:15:05Z</time>
      </trkpt>
      <trkpt lat="45.17103" lon="5.95785">
        <ele>2714.2</ele>
        <time>2021-02-20T12:15:06Z</time>
      </trkpt>
      <trkpt lat="45.17103" lon="5.95785">
        <ele>2714.2</ele>
        <time>2021-02-20T12:15:07Z</time>
      </trkpt>
      <trkpt lat="45.17103" lon="5.95785">
        <ele>2714.2</ele>
        <time>2021-02-20T12:15:08Z</time>
      </trkpt>
      <trkpt lat="45.17104" lon="5.95785">
        <ele>2714.2</ele>
        <time>2021-02-20T12:15:09Z</time>
      </trkpt>
      <trkpt lat="45.17104" lon="5.95785">
        <ele>2714.2</ele>
        <time>2021-02-20T12:15:10Z</time>
      </trkpt>
      <trkpt lat="45.17104" lon="5.95785">
        <ele>2714.2</ele>
        <time>2021-02-20T12:15:11Z</time>
      </trkpt>
      <trkpt lat="45.17104" lon="5.95785">
        <ele>2714.2</ele>
        <time>2021-02-20T12:15:12Z</time>
      </trkpt>
      <trkpt lat="45.17104" lon="5.95785">
        <ele>2714.2</ele>
        <time>2021-02-20T12:15:13Z</time>
      </trkpt>
      <trkpt lat="45.17104" lon="5.95785">
        <ele>2714.2</ele>
        <time>2021-02-20T12:15:14Z</time>
      </trkpt>
      <trkpt lat="45.17104" lon="5.95785">
        <ele>2714.2</ele>
        <time>2021-02-20T12:15:15Z</time>
      </trkpt>
      <trkpt lat="45.17104" lon="5.95785">
        <ele>2714.2</ele>
        <time>2021-02-20T12:15:16Z</time>
      </trkpt>
      <trkpt lat="45.17104" lon="5.95785">
        <ele>2714.2</ele>
        <time>2021-02-20T12:15:17Z</time>
      </trkpt>
      <trkpt lat="45.17104" lon="5.95785">
        <ele>2714.2</ele>
        <time>2021-02-20T12:15:18Z</time>
      </trkpt>
      <trkpt lat="45.17104" lon="5.95785">
        <ele>2714.2</ele>
        <time>2021-02-20T12:15:19Z</time>
      </trkpt>
      <trkpt lat="45.17104" lon="5.95785">
        <ele>2714.2</ele>
        <time>2021-02-20T12:15:20Z</time>
      </trkpt>
      <trkpt lat="45.17104" lon="5.95787">
        <ele>2714.2</ele>
        <time>2021-02-20T12:15:21Z</time>
      </trkpt>
      <trkpt lat="45.17104" lon="5.95787">
        <ele>2714.2</ele>
        <time>2021-02-20T12:15:22Z</time>
      </trkpt>
      <trkpt lat="45.17104" lon="5.95787">
        <ele>2714.2</ele>
        <time>2021-02-20T12:15:23Z</time>
      </trkpt>
      <trkpt lat="45.17104" lon="5.95787">
        <ele>2714.2</ele>
        <time>2021-02-20T12:15:24Z</time>
      </trkpt>
      <trkpt lat="45.17104" lon="5.95787">
        <ele>2714.2</ele>
        <time>2021-02-20T12:15:25Z</time>
      </trkpt>
      <trkpt lat="45.17104" lon="5.95787">
        <ele>2714.2</ele>
        <time>2021-02-20T12:15:26Z</time>
      </trkpt>
      <trkpt lat="45.17104" lon="5.95787">
        <ele>2714.2</ele>
        <time>2021-02-20T12:15:27Z</time>
      </trkpt>
      <trkpt lat="45.17104" lon="5.95787">
        <ele>2714.2</ele>
        <time>2021-02-20T12:15:28Z</time>
      </trkpt>
      <trkpt lat="45.17104" lon="5.95787">
        <ele>2714.2</ele>
        <time>2021-02-20T12:15:29Z</time>
      </trkpt>
      <trkpt lat="45.17104" lon="5.95787">
        <ele>2714.2</ele>
        <time>2021-02-20T12:15:30Z</time>
      </trkpt>
      <trkpt lat="45.17104" lon="5.95787">
        <ele>2714.2</ele>
        <time>2021-02-20T12:15:31Z</time>
      </trkpt>
      <trkpt lat="45.17104" lon="5.95787">
        <ele>2714.2</ele>
        <time>2021-02-20T12:15:32Z</time>
      </trkpt>
      <trkpt lat="45.17104" lon="5.95787">
        <ele>2714.2</ele>
        <time>2021-02-20T12:15:33Z</time>
      </trkpt>
      <trkpt lat="45.17104" lon="5.95787">
        <ele>2714.2</ele>
        <time>2021-02-20T12:15:34Z</time>
      </trkpt>
      <trkpt lat="45.17104" lon="5.95787">
        <ele>2714.2</ele>
        <time>2021-02-20T12:15:35Z</time>
      </trkpt>
      <trkpt lat="45.17104" lon="5.95787">
        <ele>2714.2</ele>
        <time>2021-02-20T12:15:36Z</time>
      </trkpt>
      <trkpt lat="45.17104" lon="5.95787">
        <ele>2714.2</ele>
        <time>2021-02-20T12:15:37Z</time>
      </trkpt>
      <trkpt lat="45.17104" lon="5.95787">
        <ele>2714.2</ele>
        <time>2021-02-20T12:15:38Z</time>
      </trkpt>
      <trkpt lat="45.17104" lon="5.95787">
        <ele>2714.2</ele>
        <time>2021-02-20T12:15:39Z</time>
      </trkpt>
      <trkpt lat="45.17104" lon="5.95787">
        <ele>2714.2</ele>
        <time>2021-02-20T12:15:40Z</time>
      </trkpt>
      <trkpt lat="45.17104" lon="5.95787">
        <ele>2714.2</ele>
        <time>2021-02-20T12:15:41Z</time>
      </trkpt>
      <trkpt lat="45.17104" lon="5.95787">
        <ele>2714.2</ele>
        <time>2021-02-20T12:15:42Z</time>
      </trkpt>
      <trkpt lat="45.17104" lon="5.95787">
        <ele>2714.2</ele>
        <time>2021-02-20T12:15:43Z</time>
      </trkpt>
      <trkpt lat="45.17104" lon="5.95787">
        <ele>2714.2</ele>
        <time>2021-02-20T12:15:44Z</time>
      </trkpt>
      <trkpt lat="45.17104" lon="5.95787">
        <ele>2714.2</ele>
        <time>2021-02-20T12:15:45Z</time>
      </trkpt>
      <trkpt lat="45.17104" lon="5.95787">
        <ele>2714.2</ele>
        <time>2021-02-20T12:15:46Z</time>
      </trkpt>
      <trkpt lat="45.17104" lon="5.95787">
        <ele>2714.2</ele>
        <time>2021-02-20T12:15:47Z</time>
      </trkpt>
      <trkpt lat="45.17104" lon="5.95787">
        <ele>2714.2</ele>
        <time>2021-02-20T12:15:48Z</time>
      </trkpt>
      <trkpt lat="45.17104" lon="5.95787">
        <ele>2714.2</ele>
        <time>2021-02-20T12:15:49Z</time>
      </trkpt>
      <trkpt lat="45.17104" lon="5.95787">
        <ele>2714.2</ele>
        <time>2021-02-20T12:15:50Z</time>
      </trkpt>
      <trkpt lat="45.17104" lon="5.95787">
        <ele>2714.2</ele>
        <time>2021-02-20T12:15:51Z</time>
      </trkpt>
      <trkpt lat="45.17104" lon="5.95787">
        <ele>2714.2</ele>
        <time>2021-02-20T12:15:52Z</time>
      </trkpt>
      <trkpt lat="45.17104" lon="5.95787">
        <ele>2714.2</ele>
        <time>2021-02-20T12:15:53Z</time>
      </trkpt>
      <trkpt lat="45.17104" lon="5.95787">
        <ele>2714.2</ele>
        <time>2021-02-20T12:15:54Z</time>
      </trkpt>
      <trkpt lat="45.17104" lon="5.95787">
        <ele>2714.2</ele>
        <time>2021-02-20T12:15:55Z</time>
      </trkpt>
      <trkpt lat="45.17104" lon="5.95787">
        <ele>2714.2</ele>
        <time>2021-02-20T12:15:56Z</time>
      </trkpt>
      <trkpt lat="45.17104" lon="5.95787">
        <ele>2714.2</ele>
        <time>2021-02-20T12:15:57Z</time>
      </trkpt>
      <trkpt lat="45.17104" lon="5.95787">
        <ele>2714.2</ele>
        <time>2021-02-20T12:15:58Z</time>
      </trkpt>
      <trkpt lat="45.17104" lon="5.95787">
        <ele>2714.2</ele>
        <time>2021-02-20T12:15:59Z</time>
      </trkpt>
      <trkpt lat="45.17104" lon="5.95787">
        <ele>2714.2</ele>
        <time>2021-02-20T12:16:00Z</time>
      </trkpt>
      <trkpt lat="45.17104" lon="5.95787">
        <ele>2714.2</ele>
        <time>2021-02-20T12:16:01Z</time>
      </trkpt>
      <trkpt lat="45.17104" lon="5.95787">
        <ele>2714.2</ele>
        <time>2021-02-20T12:16:02Z</time>
      </trkpt>
      <trkpt lat="45.17104" lon="5.95787">
        <ele>2714.2</ele>
        <time>2021-02-20T12:16:03Z</time>
      </trkpt>
      <trkpt lat="45.17104" lon="5.95787">
        <ele>2714.2</ele>
        <time>2021-02-20T12:16:04Z</time>
      </trkpt>
      <trkpt lat="45.17104" lon="5.95787">
        <ele>2714.2</ele>
        <time>2021-02-20T12:16:05Z</time>
      </trkpt>
      <trkpt lat="45.17104" lon="5.95787">
        <ele>2714.2</ele>
        <time>2021-02-20T12:16:06Z</time>
      </trkpt>
      <trkpt lat="45.17104" lon="5.95787">
        <ele>2714.2</ele>
        <time>2021-02-20T12:16:07Z</time>
      </trkpt>
      <trkpt lat="45.17104" lon="5.95787">
        <ele>2714.2</ele>
        <time>2021-02-20T12:16:08Z</time>
      </trkpt>
      <trkpt lat="45.17104" lon="5.95787">
        <ele>2714.2</ele>
        <time>2021-02-20T12:16:09Z</time>
      </trkpt>
      <trkpt lat="45.17104" lon="5.95787">
        <ele>2714.2</ele>
        <time>2021-02-20T12:16:10Z</time>
      </trkpt>
      <trkpt lat="45.17104" lon="5.95787">
        <ele>2714.2</ele>
        <time>2021-02-20T12:16:11Z</time>
      </trkpt>
      <trkpt lat="45.17104" lon="5.95787">
        <ele>2714.2</ele>
        <time>2021-02-20T12:16:12Z</time>
      </trkpt>
      <trkpt lat="45.17104" lon="5.95787">
        <ele>2714.2</ele>
        <time>2021-02-20T12:16:13Z</time>
      </trkpt>
      <trkpt lat="45.17104" lon="5.95787">
        <ele>2714.2</ele>
        <time>2021-02-20T12:16:14Z</time>
      </trkpt>
      <trkpt lat="45.17104" lon="5.95787">
        <ele>2714.2</ele>
        <time>2021-02-20T12:16:15Z</time>
      </trkpt>
      <trkpt lat="45.17104" lon="5.95787">
        <ele>2714.2</ele>
        <time>2021-02-20T12:16:16Z</time>
      </trkpt>
      <trkpt lat="45.17104" lon="5.95787">
        <ele>2714.2</ele>
        <time>2021-02-20T12:16:17Z</time>
      </trkpt>
      <trkpt lat="45.17104" lon="5.95787">
        <ele>2714.2</ele>
        <time>2021-02-20T12:16:18Z</time>
      </trkpt>
      <trkpt lat="45.17104" lon="5.95787">
        <ele>2714.2</ele>
        <time>2021-02-20T12:16:19Z</time>
      </trkpt>
      <trkpt lat="45.17104" lon="5.95787">
        <ele>2714.2</ele>
        <time>2021-02-20T12:16:20Z</time>
      </trkpt>
      <trkpt lat="45.17104" lon="5.95787">
        <ele>2714.2</ele>
        <time>2021-02-20T12:16:21Z</time>
      </trkpt>
      <trkpt lat="45.17104" lon="5.95787">
        <ele>2714.2</ele>
        <time>2021-02-20T12:16:22Z</time>
      </trkpt>
      <trkpt lat="45.17105" lon="5.95786">
        <ele>2714.2</ele>
        <time>2021-02-20T12:16:23Z</time>
      </trkpt>
      <trkpt lat="45.17105" lon="5.95786">
        <ele>2714.2</ele>
        <time>2021-02-20T12:16:24Z</time>
      </trkpt>
      <trkpt lat="45.17106" lon="5.95786">
        <ele>2715.5</ele>
        <time>2021-02-20T12:16:25Z</time>
      </trkpt>
      <trkpt lat="45.17106" lon="5.95786">
        <ele>2715.5</ele>
        <time>2021-02-20T12:16:26Z</time>
      </trkpt>
      <trkpt lat="45.17106" lon="5.95786">
        <ele>2715.5</ele>
        <time>2021-02-20T12:16:27Z</time>
      </trkpt>
      <trkpt lat="45.17106" lon="5.95786">
        <ele>2715.5</ele>
        <time>2021-02-20T12:16:28Z</time>
      </trkpt>
      <trkpt lat="45.17106" lon="5.95786">
        <ele>2715.5</ele>
        <time>2021-02-20T12:16:29Z</time>
      </trkpt>
      <trkpt lat="45.17106" lon="5.95786">
        <ele>2715.5</ele>
        <time>2021-02-20T12:16:30Z</time>
      </trkpt>
      <trkpt lat="45.17106" lon="5.95786">
        <ele>2715.5</ele>
        <time>2021-02-20T12:16:31Z</time>
      </trkpt>
      <trkpt lat="45.17106" lon="5.95786">
        <ele>2715.5</ele>
        <time>2021-02-20T12:16:32Z</time>
      </trkpt>
      <trkpt lat="45.17106" lon="5.95785">
        <ele>2715.5</ele>
        <time>2021-02-20T12:16:33Z</time>
      </trkpt>
      <trkpt lat="45.17106" lon="5.95785">
        <ele>2715.5</ele>
        <time>2021-02-20T12:16:34Z</time>
      </trkpt>
      <trkpt lat="45.17106" lon="5.95785">
        <ele>2715.5</ele>
        <time>2021-02-20T12:16:35Z</time>
      </trkpt>
      <trkpt lat="45.17106" lon="5.95785">
        <ele>2715.5</ele>
        <time>2021-02-20T12:16:36Z</time>
      </trkpt>
      <trkpt lat="45.17106" lon="5.95785">
        <ele>2715.5</ele>
        <time>2021-02-20T12:16:37Z</time>
      </trkpt>
      <trkpt lat="45.17106" lon="5.95786">
        <ele>2715.5</ele>
        <time>2021-02-20T12:16:38Z</time>
      </trkpt>
      <trkpt lat="45.17106" lon="5.95786">
        <ele>2715.5</ele>
        <time>2021-02-20T12:16:39Z</time>
      </trkpt>
      <trkpt lat="45.17106" lon="5.95786">
        <ele>2715.5</ele>
        <time>2021-02-20T12:16:40Z</time>
      </trkpt>
      <trkpt lat="45.17106" lon="5.95786">
        <ele>2715.5</ele>
        <time>2021-02-20T12:16:41Z</time>
      </trkpt>
      <trkpt lat="45.17106" lon="5.95786">
        <ele>2715.5</ele>
        <time>2021-02-20T12:16:42Z</time>
      </trkpt>
      <trkpt lat="45.17106" lon="5.95786">
        <ele>2715.5</ele>
        <time>2021-02-20T12:16:43Z</time>
      </trkpt>
      <trkpt lat="45.17106" lon="5.95786">
        <ele>2715.5</ele>
        <time>2021-02-20T12:16:44Z</time>
      </trkpt>
      <trkpt lat="45.17106" lon="5.95786">
        <ele>2715.5</ele>
        <time>2021-02-20T12:16:45Z</time>
      </trkpt>
      <trkpt lat="45.17106" lon="5.95786">
        <ele>2715.5</ele>
        <time>2021-02-20T12:16:46Z</time>
      </trkpt>
      <trkpt lat="45.17106" lon="5.95786">
        <ele>2715.5</ele>
        <time>2021-02-20T12:16:47Z</time>
      </trkpt>
      <trkpt lat="45.17106" lon="5.95786">
        <ele>2715.5</ele>
        <time>2021-02-20T12:16:48Z</time>
      </trkpt>
      <trkpt lat="45.17107" lon="5.95786">
        <ele>2715.5</ele>
        <time>2021-02-20T12:16:49Z</time>
      </trkpt>
      <trkpt lat="45.17107" lon="5.95786">
        <ele>2715.5</ele>
        <time>2021-02-20T12:16:50Z</time>
      </trkpt>
      <trkpt lat="45.17107" lon="5.95786">
        <ele>2715.5</ele>
        <time>2021-02-20T12:16:51Z</time>
      </trkpt>
      <trkpt lat="45.17107" lon="5.95786">
        <ele>2715.5</ele>
        <time>2021-02-20T12:16:52Z</time>
      </trkpt>
      <trkpt lat="45.17107" lon="5.95786">
        <ele>2715.5</ele>
        <time>2021-02-20T12:16:53Z</time>
      </trkpt>
      <trkpt lat="45.17107" lon="5.95786">
        <ele>2715.5</ele>
        <time>2021-02-20T12:16:54Z</time>
      </trkpt>
      <trkpt lat="45.17107" lon="5.95786">
        <ele>2715.5</ele>
        <time>2021-02-20T12:16:55Z</time>
      </trkpt>
      <trkpt lat="45.17107" lon="5.95786">
        <ele>2715.5</ele>
        <time>2021-02-20T12:16:56Z</time>
      </trkpt>
      <trkpt lat="45.17107" lon="5.95786">
        <ele>2715.5</ele>
        <time>2021-02-20T12:16:57Z</time>
      </trkpt>
      <trkpt lat="45.17107" lon="5.95786">
        <ele>2715.5</ele>
        <time>2021-02-20T12:16:58Z</time>
      </trkpt>
      <trkpt lat="45.17107" lon="5.95786">
        <ele>2715.5</ele>
        <time>2021-02-20T12:16:59Z</time>
      </trkpt>
      <trkpt lat="45.17107" lon="5.95786">
        <ele>2715.5</ele>
        <time>2021-02-20T12:17:00Z</time>
      </trkpt>
      <trkpt lat="45.17107" lon="5.95786">
        <ele>2715.5</ele>
        <time>2021-02-20T12:17:01Z</time>
      </trkpt>
      <trkpt lat="45.17107" lon="5.95786">
        <ele>2715.5</ele>
        <time>2021-02-20T12:17:02Z</time>
      </trkpt>
      <trkpt lat="45.17107" lon="5.95786">
        <ele>2715.5</ele>
        <time>2021-02-20T12:17:03Z</time>
      </trkpt>
      <trkpt lat="45.17107" lon="5.95786">
        <ele>2715.5</ele>
        <time>2021-02-20T12:17:04Z</time>
      </trkpt>
      <trkpt lat="45.17107" lon="5.95786">
        <ele>2715.5</ele>
        <time>2021-02-20T12:17:05Z</time>
      </trkpt>
      <trkpt lat="45.17107" lon="5.95786">
        <ele>2715.5</ele>
        <time>2021-02-20T12:17:06Z</time>
      </trkpt>
      <trkpt lat="45.17107" lon="5.95786">
        <ele>2715.5</ele>
        <time>2021-02-20T12:17:07Z</time>
      </trkpt>
      <trkpt lat="45.17107" lon="5.95786">
        <ele>2715.5</ele>
        <time>2021-02-20T12:17:08Z</time>
      </trkpt>
      <trkpt lat="45.17107" lon="5.95786">
        <ele>2715.5</ele>
        <time>2021-02-20T12:17:09Z</time>
      </trkpt>
      <trkpt lat="45.17107" lon="5.95786">
        <ele>2715.5</ele>
        <time>2021-02-20T12:17:10Z</time>
      </trkpt>
      <trkpt lat="45.17107" lon="5.95786">
        <ele>2715.5</ele>
        <time>2021-02-20T12:17:11Z</time>
      </trkpt>
      <trkpt lat="45.17107" lon="5.95786">
        <ele>2715.5</ele>
        <time>2021-02-20T12:17:12Z</time>
      </trkpt>
      <trkpt lat="45.17107" lon="5.95786">
        <ele>2715.5</ele>
        <time>2021-02-20T12:17:13Z</time>
      </trkpt>
      <trkpt lat="45.17107" lon="5.95786">
        <ele>2715.5</ele>
        <time>2021-02-20T12:17:14Z</time>
      </trkpt>
      <trkpt lat="45.17107" lon="5.95786">
        <ele>2715.5</ele>
        <time>2021-02-20T12:17:15Z</time>
      </trkpt>
      <trkpt lat="45.17107" lon="5.95786">
        <ele>2715.5</ele>
        <time>2021-02-20T12:17:16Z</time>
      </trkpt>
      <trkpt lat="45.17107" lon="5.95786">
        <ele>2715.5</ele>
        <time>2021-02-20T12:17:17Z</time>
      </trkpt>
      <trkpt lat="45.17107" lon="5.95786">
        <ele>2715.5</ele>
        <time>2021-02-20T12:17:18Z</time>
      </trkpt>
      <trkpt lat="45.17107" lon="5.95786">
        <ele>2715.5</ele>
        <time>2021-02-20T12:17:19Z</time>
      </trkpt>
      <trkpt lat="45.17107" lon="5.95786">
        <ele>2715.5</ele>
        <time>2021-02-20T12:17:20Z</time>
      </trkpt>
      <trkpt lat="45.17107" lon="5.95786">
        <ele>2715.5</ele>
        <time>2021-02-20T12:17:21Z</time>
      </trkpt>
      <trkpt lat="45.17107" lon="5.95786">
        <ele>2715.5</ele>
        <time>2021-02-20T12:17:22Z</time>
      </trkpt>
      <trkpt lat="45.17107" lon="5.95786">
        <ele>2715.5</ele>
        <time>2021-02-20T12:17:23Z</time>
      </trkpt>
      <trkpt lat="45.17107" lon="5.95786">
        <ele>2715.5</ele>
        <time>2021-02-20T12:17:24Z</time>
      </trkpt>
      <trkpt lat="45.17107" lon="5.95786">
        <ele>2715.5</ele>
        <time>2021-02-20T12:17:25Z</time>
      </trkpt>
      <trkpt lat="45.17107" lon="5.95786">
        <ele>2715.5</ele>
        <time>2021-02-20T12:17:26Z</time>
      </trkpt>
      <trkpt lat="45.17107" lon="5.95786">
        <ele>2715.5</ele>
        <time>2021-02-20T12:17:27Z</time>
      </trkpt>
      <trkpt lat="45.17107" lon="5.95786">
        <ele>2715.5</ele>
        <time>2021-02-20T12:17:28Z</time>
      </trkpt>
      <trkpt lat="45.17107" lon="5.95786">
        <ele>2715.5</ele>
        <time>2021-02-20T12:17:29Z</time>
      </trkpt>
      <trkpt lat="45.17107" lon="5.95786">
        <ele>2715.5</ele>
        <time>2021-02-20T12:17:30Z</time>
      </trkpt>
      <trkpt lat="45.17107" lon="5.95786">
        <ele>2715.5</ele>
        <time>2021-02-20T12:17:31Z</time>
      </trkpt>
      <trkpt lat="45.17107" lon="5.95786">
        <ele>2715.5</ele>
        <time>2021-02-20T12:17:32Z</time>
      </trkpt>
      <trkpt lat="45.17108" lon="5.95785">
        <ele>2715.4</ele>
        <time>2021-02-20T12:17:33Z</time>
      </trkpt>
      <trkpt lat="45.17108" lon="5.95785">
        <ele>2715.4</ele>
        <time>2021-02-20T12:17:34Z</time>
      </trkpt>
      <trkpt lat="45.17108" lon="5.95785">
        <ele>2715.4</ele>
        <time>2021-02-20T12:17:35Z</time>
      </trkpt>
      <trkpt lat="45.17108" lon="5.95785">
        <ele>2715.4</ele>
        <time>2021-02-20T12:17:36Z</time>
      </trkpt>
      <trkpt lat="45.17108" lon="5.95785">
        <ele>2715.4</ele>
        <time>2021-02-20T12:17:37Z</time>
      </trkpt>
      <trkpt lat="45.17108" lon="5.95785">
        <ele>2715.4</ele>
        <time>2021-02-20T12:17:38Z</time>
      </trkpt>
      <trkpt lat="45.17108" lon="5.95785">
        <ele>2715.4</ele>
        <time>2021-02-20T12:17:39Z</time>
      </trkpt>
      <trkpt lat="45.17108" lon="5.95785">
        <ele>2715.4</ele>
        <time>2021-02-20T12:17:40Z</time>
      </trkpt>
      <trkpt lat="45.17108" lon="5.95785">
        <ele>2715.4</ele>
        <time>2021-02-20T12:17:41Z</time>
      </trkpt>
      <trkpt lat="45.17108" lon="5.95785">
        <ele>2715.4</ele>
        <time>2021-02-20T12:17:42Z</time>
      </trkpt>
      <trkpt lat="45.17108" lon="5.95785">
        <ele>2715.4</ele>
        <time>2021-02-20T12:17:43Z</time>
      </trkpt>
      <trkpt lat="45.17108" lon="5.95785">
        <ele>2715.4</ele>
        <time>2021-02-20T12:17:44Z</time>
      </trkpt>
      <trkpt lat="45.17108" lon="5.95785">
        <ele>2715.4</ele>
        <time>2021-02-20T12:17:45Z</time>
      </trkpt>
      <trkpt lat="45.17108" lon="5.95783">
        <ele>2715.4</ele>
        <time>2021-02-20T12:17:46Z</time>
      </trkpt>
      <trkpt lat="45.17108" lon="5.95783">
        <ele>2715.4</ele>
        <time>2021-02-20T12:17:47Z</time>
      </trkpt>
      <trkpt lat="45.17107" lon="5.95783">
        <ele>2715.4</ele>
        <time>2021-02-20T12:17:48Z</time>
      </trkpt>
      <trkpt lat="45.17106" lon="5.95783">
        <ele>2715.4</ele>
        <time>2021-02-20T12:17:49Z</time>
      </trkpt>
      <trkpt lat="45.17106" lon="5.95783">
        <ele>2715.4</ele>
        <time>2021-02-20T12:17:50Z</time>
      </trkpt>
      <trkpt lat="45.17106" lon="5.95783">
        <ele>2715.4</ele>
        <time>2021-02-20T12:17:51Z</time>
      </trkpt>
      <trkpt lat="45.17106" lon="5.95783">
        <ele>2715.4</ele>
        <time>2021-02-20T12:17:52Z</time>
      </trkpt>
      <trkpt lat="45.17106" lon="5.95783">
        <ele>2715.4</ele>
        <time>2021-02-20T12:17:53Z</time>
      </trkpt>
      <trkpt lat="45.17106" lon="5.95783">
        <ele>2715.4</ele>
        <time>2021-02-20T12:17:54Z</time>
      </trkpt>
      <trkpt lat="45.17106" lon="5.95783">
        <ele>2715.4</ele>
        <time>2021-02-20T12:17:55Z</time>
      </trkpt>
      <trkpt lat="45.17106" lon="5.95783">
        <ele>2715.4</ele>
        <time>2021-02-20T12:17:56Z</time>
      </trkpt>
      <trkpt lat="45.17106" lon="5.95783">
        <ele>2715.4</ele>
        <time>2021-02-20T12:17:57Z</time>
      </trkpt>
      <trkpt lat="45.17106" lon="5.95783">
        <ele>2715.4</ele>
        <time>2021-02-20T12:17:58Z</time>
      </trkpt>
      <trkpt lat="45.17106" lon="5.95783">
        <ele>2715.4</ele>
        <time>2021-02-20T12:17:59Z</time>
      </trkpt>
      <trkpt lat="45.17106" lon="5.95783">
        <ele>2715.4</ele>
        <time>2021-02-20T12:18:00Z</time>
      </trkpt>
      <trkpt lat="45.17106" lon="5.95783">
        <ele>2715.4</ele>
        <time>2021-02-20T12:18:01Z</time>
      </trkpt>
      <trkpt lat="45.17106" lon="5.95783">
        <ele>2715.4</ele>
        <time>2021-02-20T12:18:02Z</time>
      </trkpt>
      <trkpt lat="45.17106" lon="5.95783">
        <ele>2715.4</ele>
        <time>2021-02-20T12:18:03Z</time>
      </trkpt>
      <trkpt lat="45.17106" lon="5.95783">
        <ele>2715.4</ele>
        <time>2021-02-20T12:18:04Z</time>
      </trkpt>
      <trkpt lat="45.17106" lon="5.95783">
        <ele>2715.4</ele>
        <time>2021-02-20T12:18:05Z</time>
      </trkpt>
      <trkpt lat="45.17106" lon="5.95783">
        <ele>2715.4</ele>
        <time>2021-02-20T12:18:06Z</time>
      </trkpt>
      <trkpt lat="45.17106" lon="5.95783">
        <ele>2715.4</ele>
        <time>2021-02-20T12:18:07Z</time>
      </trkpt>
      <trkpt lat="45.17106" lon="5.95783">
        <ele>2715.4</ele>
        <time>2021-02-20T12:18:08Z</time>
      </trkpt>
      <trkpt lat="45.17106" lon="5.95783">
        <ele>2715.4</ele>
        <time>2021-02-20T12:18:09Z</time>
      </trkpt>
      <trkpt lat="45.17106" lon="5.95783">
        <ele>2715.4</ele>
        <time>2021-02-20T12:18:10Z</time>
      </trkpt>
      <trkpt lat="45.17106" lon="5.95783">
        <ele>2715.4</ele>
        <time>2021-02-20T12:18:11Z</time>
      </trkpt>
      <trkpt lat="45.17106" lon="5.95783">
        <ele>2715.4</ele>
        <time>2021-02-20T12:18:12Z</time>
      </trkpt>
      <trkpt lat="45.17106" lon="5.95783">
        <ele>2715.4</ele>
        <time>2021-02-20T12:18:13Z</time>
      </trkpt>
      <trkpt lat="45.17106" lon="5.95783">
        <ele>2715.4</ele>
        <time>2021-02-20T12:18:14Z</time>
      </trkpt>
      <trkpt lat="45.17106" lon="5.95783">
        <ele>2715.4</ele>
        <time>2021-02-20T12:18:15Z</time>
      </trkpt>
      <trkpt lat="45.17106" lon="5.95783">
        <ele>2715.4</ele>
        <time>2021-02-20T12:18:16Z</time>
      </trkpt>
      <trkpt lat="45.17106" lon="5.95783">
        <ele>2715.4</ele>
        <time>2021-02-20T12:18:17Z</time>
      </trkpt>
      <trkpt lat="45.17106" lon="5.95783">
        <ele>2715.4</ele>
        <time>2021-02-20T12:18:18Z</time>
      </trkpt>
      <trkpt lat="45.17106" lon="5.95783">
        <ele>2715.4</ele>
        <time>2021-02-20T12:18:19Z</time>
      </trkpt>
      <trkpt lat="45.17106" lon="5.95783">
        <ele>2715.4</ele>
        <time>2021-02-20T12:18:20Z</time>
      </trkpt>
      <trkpt lat="45.17106" lon="5.95783">
        <ele>2715.4</ele>
        <time>2021-02-20T12:18:21Z</time>
      </trkpt>
      <trkpt lat="45.17106" lon="5.95783">
        <ele>2715.4</ele>
        <time>2021-02-20T12:18:22Z</time>
      </trkpt>
      <trkpt lat="45.17106" lon="5.95783">
        <ele>2715.4</ele>
        <time>2021-02-20T12:18:23Z</time>
      </trkpt>
      <trkpt lat="45.17107" lon="5.95783">
        <ele>2715.4</ele>
        <time>2021-02-20T12:18:24Z</time>
      </trkpt>
      <trkpt lat="45.17107" lon="5.95784">
        <ele>2715.4</ele>
        <time>2021-02-20T12:18:25Z</time>
      </trkpt>
      <trkpt lat="45.17107" lon="5.95784">
        <ele>2715.4</ele>
        <time>2021-02-20T12:18:26Z</time>
      </trkpt>
      <trkpt lat="45.17107" lon="5.95784">
        <ele>2715.4</ele>
        <time>2021-02-20T12:18:27Z</time>
      </trkpt>
      <trkpt lat="45.17107" lon="5.95784">
        <ele>2715.4</ele>
        <time>2021-02-20T12:18:28Z</time>
      </trkpt>
      <trkpt lat="45.17107" lon="5.95784">
        <ele>2715.4</ele>
        <time>2021-02-20T12:18:29Z</time>
      </trkpt>
      <trkpt lat="45.17107" lon="5.95784">
        <ele>2715.4</ele>
        <time>2021-02-20T12:18:30Z</time>
      </trkpt>
      <trkpt lat="45.17107" lon="5.95784">
        <ele>2715.4</ele>
        <time>2021-02-20T12:18:31Z</time>
      </trkpt>
      <trkpt lat="45.17107" lon="5.95784">
        <ele>2715.4</ele>
        <time>2021-02-20T12:18:32Z</time>
      </trkpt>
      <trkpt lat="45.17107" lon="5.95784">
        <ele>2715.4</ele>
        <time>2021-02-20T12:18:33Z</time>
      </trkpt>
      <trkpt lat="45.17107" lon="5.95784">
        <ele>2715.4</ele>
        <time>2021-02-20T12:18:34Z</time>
      </trkpt>
      <trkpt lat="45.17107" lon="5.95784">
        <ele>2715.4</ele>
        <time>2021-02-20T12:18:35Z</time>
      </trkpt>
      <trkpt lat="45.17107" lon="5.95784">
        <ele>2715.4</ele>
        <time>2021-02-20T12:18:36Z</time>
      </trkpt>
      <trkpt lat="45.17107" lon="5.95784">
        <ele>2715.4</ele>
        <time>2021-02-20T12:18:37Z</time>
      </trkpt>
      <trkpt lat="45.17107" lon="5.95784">
        <ele>2715.4</ele>
        <time>2021-02-20T12:18:38Z</time>
      </trkpt>
      <trkpt lat="45.17107" lon="5.95784">
        <ele>2715.4</ele>
        <time>2021-02-20T12:18:39Z</time>
      </trkpt>
      <trkpt lat="45.17107" lon="5.95784">
        <ele>2715.4</ele>
        <time>2021-02-20T12:18:40Z</time>
      </trkpt>
      <trkpt lat="45.17107" lon="5.95784">
        <ele>2715.4</ele>
        <time>2021-02-20T12:18:41Z</time>
      </trkpt>
      <trkpt lat="45.17107" lon="5.95784">
        <ele>2715.4</ele>
        <time>2021-02-20T12:18:42Z</time>
      </trkpt>
      <trkpt lat="45.17107" lon="5.95784">
        <ele>2715.4</ele>
        <time>2021-02-20T12:18:43Z</time>
      </trkpt>
      <trkpt lat="45.17107" lon="5.95784">
        <ele>2715.4</ele>
        <time>2021-02-20T12:18:44Z</time>
      </trkpt>
      <trkpt lat="45.17107" lon="5.95784">
        <ele>2715.4</ele>
        <time>2021-02-20T12:18:45Z</time>
      </trkpt>
      <trkpt lat="45.17107" lon="5.95784">
        <ele>2715.4</ele>
        <time>2021-02-20T12:18:46Z</time>
      </trkpt>
      <trkpt lat="45.17107" lon="5.95784">
        <ele>2715.4</ele>
        <time>2021-02-20T12:18:47Z</time>
      </trkpt>
      <trkpt lat="45.17107" lon="5.95782">
        <ele>2715.4</ele>
        <time>2021-02-20T12:18:48Z</time>
      </trkpt>
      <trkpt lat="45.17107" lon="5.95781">
        <ele>2715.4</ele>
        <time>2021-02-20T12:18:49Z</time>
      </trkpt>
      <trkpt lat="45.17107" lon="5.95781">
        <ele>2715.4</ele>
        <time>2021-02-20T12:18:50Z</time>
      </trkpt>
      <trkpt lat="45.17109" lon="5.95781">
        <ele>2716.5</ele>
        <time>2021-02-20T12:18:51Z</time>
      </trkpt>
      <trkpt lat="45.17109" lon="5.95781">
        <ele>2716.5</ele>
        <time>2021-02-20T12:18:52Z</time>
      </trkpt>
      <trkpt lat="45.17109" lon="5.95781">
        <ele>2716.5</ele>
        <time>2021-02-20T12:18:53Z</time>
      </trkpt>
      <trkpt lat="45.1711" lon="5.9578">
        <ele>2716.5</ele>
        <time>2021-02-20T12:18:54Z</time>
      </trkpt>
      <trkpt lat="45.17111" lon="5.95779">
        <ele>2716.5</ele>
        <time>2021-02-20T12:18:55Z</time>
      </trkpt>
      <trkpt lat="45.17112" lon="5.95779">
        <ele>2717.4</ele>
        <time>2021-02-20T12:18:56Z</time>
      </trkpt>
      <trkpt lat="45.17112" lon="5.95778">
        <ele>2717.4</ele>
        <time>2021-02-20T12:18:57Z</time>
      </trkpt>
      <trkpt lat="45.17113" lon="5.95777">
        <ele>2717.4</ele>
        <time>2021-02-20T12:18:58Z</time>
      </trkpt>
      <trkpt lat="45.17113" lon="5.95776">
        <ele>2717.3</ele>
        <time>2021-02-20T12:18:59Z</time>
      </trkpt>
      <trkpt lat="45.17113" lon="5.95775">
        <ele>2717.3</ele>
        <time>2021-02-20T12:19:00Z</time>
      </trkpt>
      <trkpt lat="45.17114" lon="5.95775">
        <ele>2717.3</ele>
        <time>2021-02-20T12:19:01Z</time>
      </trkpt>
      <trkpt lat="45.17115" lon="5.95775">
        <ele>2717.3</ele>
        <time>2021-02-20T12:19:02Z</time>
      </trkpt>
      <trkpt lat="45.17115" lon="5.95775">
        <ele>2718</ele>
        <time>2021-02-20T12:19:03Z</time>
      </trkpt>
      <trkpt lat="45.17116" lon="5.95775">
        <ele>2718</ele>
        <time>2021-02-20T12:19:04Z</time>
      </trkpt>
      <trkpt lat="45.17117" lon="5.95775">
        <ele>2718</ele>
        <time>2021-02-20T12:19:05Z</time>
      </trkpt>
      <trkpt lat="45.17117" lon="5.95775">
        <ele>2718</ele>
        <time>2021-02-20T12:19:06Z</time>
      </trkpt>
      <trkpt lat="45.17117" lon="5.95775">
        <ele>2718</ele>
        <time>2021-02-20T12:19:07Z</time>
      </trkpt>
      <trkpt lat="45.17117" lon="5.95775">
        <ele>2718</ele>
        <time>2021-02-20T12:19:08Z</time>
      </trkpt>
      <trkpt lat="45.17117" lon="5.95775">
        <ele>2718</ele>
        <time>2021-02-20T12:19:09Z</time>
      </trkpt>
      <trkpt lat="45.17117" lon="5.95775">
        <ele>2718</ele>
        <time>2021-02-20T12:19:10Z</time>
      </trkpt>
      <trkpt lat="45.17117" lon="5.95775">
        <ele>2718</ele>
        <time>2021-02-20T12:19:11Z</time>
      </trkpt>
      <trkpt lat="45.17117" lon="5.95775">
        <ele>2718</ele>
        <time>2021-02-20T12:19:12Z</time>
      </trkpt>
      <trkpt lat="45.17117" lon="5.95775">
        <ele>2718</ele>
        <time>2021-02-20T12:19:13Z</time>
      </trkpt>
      <trkpt lat="45.17116" lon="5.95773">
        <ele>2718</ele>
        <time>2021-02-20T12:19:14Z</time>
      </trkpt>
      <trkpt lat="45.17117" lon="5.95773">
        <ele>2718</ele>
        <time>2021-02-20T12:19:15Z</time>
      </trkpt>
      <trkpt lat="45.17117" lon="5.95772">
        <ele>2717.9</ele>
        <time>2021-02-20T12:19:16Z</time>
      </trkpt>
      <trkpt lat="45.17118" lon="5.95771">
        <ele>2718.4</ele>
        <time>2021-02-20T12:19:17Z</time>
      </trkpt>
      <trkpt lat="45.17119" lon="5.95771">
        <ele>2718.4</ele>
        <time>2021-02-20T12:19:18Z</time>
      </trkpt>
      <trkpt lat="45.17119" lon="5.9577">
        <ele>2718.4</ele>
        <time>2021-02-20T12:19:19Z</time>
      </trkpt>
      <trkpt lat="45.17119" lon="5.95769">
        <ele>2718.4</ele>
        <time>2021-02-20T12:19:20Z</time>
      </trkpt>
      <trkpt lat="45.1712" lon="5.95768">
        <ele>2718.2</ele>
        <time>2021-02-20T12:19:21Z</time>
      </trkpt>
      <trkpt lat="45.17121" lon="5.95768">
        <ele>2718.5</ele>
        <time>2021-02-20T12:19:22Z</time>
      </trkpt>
      <trkpt lat="45.17122" lon="5.95767">
        <ele>2718.5</ele>
        <time>2021-02-20T12:19:23Z</time>
      </trkpt>
      <trkpt lat="45.17122" lon="5.95767">
        <ele>2718.5</ele>
        <time>2021-02-20T12:19:24Z</time>
      </trkpt>
      <trkpt lat="45.17123" lon="5.95767">
        <ele>2718.5</ele>
        <time>2021-02-20T12:19:25Z</time>
      </trkpt>
      <trkpt lat="45.17124" lon="5.95766">
        <ele>2718.8</ele>
        <time>2021-02-20T12:19:26Z</time>
      </trkpt>
      <trkpt lat="45.17126" lon="5.95766">
        <ele>2718.8</ele>
        <time>2021-02-20T12:19:27Z</time>
      </trkpt>
      <trkpt lat="45.17127" lon="5.95765">
        <ele>2718.8</ele>
        <time>2021-02-20T12:19:28Z</time>
      </trkpt>
      <trkpt lat="45.17128" lon="5.95765">
        <ele>2718.9</ele>
        <time>2021-02-20T12:19:29Z</time>
      </trkpt>
      <trkpt lat="45.17129" lon="5.95765">
        <ele>2718.9</ele>
        <time>2021-02-20T12:19:30Z</time>
      </trkpt>
      <trkpt lat="45.17129" lon="5.95765">
        <ele>2718.9</ele>
        <time>2021-02-20T12:19:31Z</time>
      </trkpt>
      <trkpt lat="45.1713" lon="5.95764">
        <ele>2718.4</ele>
        <time>2021-02-20T12:19:32Z</time>
      </trkpt>
      <trkpt lat="45.1713" lon="5.95763">
        <ele>2718.4</ele>
        <time>2021-02-20T12:19:33Z</time>
      </trkpt>
      <trkpt lat="45.17131" lon="5.95763">
        <ele>2718.4</ele>
        <time>2021-02-20T12:19:34Z</time>
      </trkpt>
      <trkpt lat="45.17131" lon="5.95763">
        <ele>2718.4</ele>
        <time>2021-02-20T12:19:35Z</time>
      </trkpt>
      <trkpt lat="45.17132" lon="5.95762">
        <ele>2718.4</ele>
        <time>2021-02-20T12:19:36Z</time>
      </trkpt>
      <trkpt lat="45.17132" lon="5.95762">
        <ele>2718.4</ele>
        <time>2021-02-20T12:19:37Z</time>
      </trkpt>
      <trkpt lat="45.17132" lon="5.95761">
        <ele>2718.4</ele>
        <time>2021-02-20T12:19:38Z</time>
      </trkpt>
      <trkpt lat="45.17132" lon="5.95761">
        <ele>2718.4</ele>
        <time>2021-02-20T12:19:39Z</time>
      </trkpt>
      <trkpt lat="45.17132" lon="5.95759">
        <ele>2717.9</ele>
        <time>2021-02-20T12:19:40Z</time>
      </trkpt>
      <trkpt lat="45.17132" lon="5.95759">
        <ele>2717.9</ele>
        <time>2021-02-20T12:19:41Z</time>
      </trkpt>
      <trkpt lat="45.17132" lon="5.95759">
        <ele>2717.9</ele>
        <time>2021-02-20T12:19:42Z</time>
      </trkpt>
      <trkpt lat="45.17133" lon="5.95758">
        <ele>2717.9</ele>
        <time>2021-02-20T12:19:43Z</time>
      </trkpt>
      <trkpt lat="45.17133" lon="5.95758">
        <ele>2717.9</ele>
        <time>2021-02-20T12:19:44Z</time>
      </trkpt>
      <trkpt lat="45.17132" lon="5.95757">
        <ele>2717.9</ele>
        <time>2021-02-20T12:19:45Z</time>
      </trkpt>
      <trkpt lat="45.17132" lon="5.95757">
        <ele>2717.9</ele>
        <time>2021-02-20T12:19:46Z</time>
      </trkpt>
      <trkpt lat="45.17132" lon="5.95757">
        <ele>2717.9</ele>
        <time>2021-02-20T12:19:47Z</time>
      </trkpt>
      <trkpt lat="45.17133" lon="5.95758">
        <ele>2717.9</ele>
        <time>2021-02-20T12:19:48Z</time>
      </trkpt>
      <trkpt lat="45.17133" lon="5.95758">
        <ele>2717.9</ele>
        <time>2021-02-20T12:19:49Z</time>
      </trkpt>
      <trkpt lat="45.17133" lon="5.95758">
        <ele>2717.9</ele>
        <time>2021-02-20T12:19:50Z</time>
      </trkpt>
      <trkpt lat="45.17133" lon="5.95759">
        <ele>2717.9</ele>
        <time>2021-02-20T12:19:51Z</time>
      </trkpt>
      <trkpt lat="45.17132" lon="5.95761">
        <ele>2718.4</ele>
        <time>2021-02-20T12:19:52Z</time>
      </trkpt>
      <trkpt lat="45.17132" lon="5.95762">
        <ele>2718.4</ele>
        <time>2021-02-20T12:19:53Z</time>
      </trkpt>
      <trkpt lat="45.17132" lon="5.95762">
        <ele>2718.4</ele>
        <time>2021-02-20T12:19:54Z</time>
      </trkpt>
      <trkpt lat="45.17131" lon="5.95763">
        <ele>2718.4</ele>
        <time>2021-02-20T12:19:55Z</time>
      </trkpt>
      <trkpt lat="45.17131" lon="5.95764">
        <ele>2718.4</ele>
        <time>2021-02-20T12:19:56Z</time>
      </trkpt>
      <trkpt lat="45.17131" lon="5.95764">
        <ele>2718.9</ele>
        <time>2021-02-20T12:19:57Z</time>
      </trkpt>
      <trkpt lat="45.17131" lon="5.95765">
        <ele>2718.9</ele>
        <time>2021-02-20T12:19:58Z</time>
      </trkpt>
      <trkpt lat="45.17131" lon="5.95766">
        <ele>2718.9</ele>
        <time>2021-02-20T12:19:59Z</time>
      </trkpt>
      <trkpt lat="45.17131" lon="5.95766">
        <ele>2718.9</ele>
        <time>2021-02-20T12:20:00Z</time>
      </trkpt>
      <trkpt lat="45.1713" lon="5.95767">
        <ele>2718.9</ele>
        <time>2021-02-20T12:20:01Z</time>
      </trkpt>
      <trkpt lat="45.17131" lon="5.95768">
        <ele>2718.9</ele>
        <time>2021-02-20T12:20:02Z</time>
      </trkpt>
      <trkpt lat="45.17131" lon="5.95768">
        <ele>2718.9</ele>
        <time>2021-02-20T12:20:03Z</time>
      </trkpt>
      <trkpt lat="45.17131" lon="5.95768">
        <ele>2719.5</ele>
        <time>2021-02-20T12:20:04Z</time>
      </trkpt>
      <trkpt lat="45.17131" lon="5.95769">
        <ele>2719.5</ele>
        <time>2021-02-20T12:20:05Z</time>
      </trkpt>
      <trkpt lat="45.17131" lon="5.95769">
        <ele>2719.5</ele>
        <time>2021-02-20T12:20:06Z</time>
      </trkpt>
      <trkpt lat="45.17131" lon="5.9577">
        <ele>2719.5</ele>
        <time>2021-02-20T12:20:07Z</time>
      </trkpt>
      <trkpt lat="45.17131" lon="5.9577">
        <ele>2719.5</ele>
        <time>2021-02-20T12:20:08Z</time>
      </trkpt>
      <trkpt lat="45.17131" lon="5.95771">
        <ele>2719.5</ele>
        <time>2021-02-20T12:20:09Z</time>
      </trkpt>
      <trkpt lat="45.17131" lon="5.95771">
        <ele>2719.5</ele>
        <time>2021-02-20T12:20:10Z</time>
      </trkpt>
      <trkpt lat="45.17131" lon="5.95771">
        <ele>2719.5</ele>
        <time>2021-02-20T12:20:11Z</time>
      </trkpt>
      <trkpt lat="45.17131" lon="5.95771">
        <ele>2719.5</ele>
        <time>2021-02-20T12:20:12Z</time>
      </trkpt>
      <trkpt lat="45.1713" lon="5.95771">
        <ele>2719.5</ele>
        <time>2021-02-20T12:20:13Z</time>
      </trkpt>
      <trkpt lat="45.1713" lon="5.95771">
        <ele>2719.5</ele>
        <time>2021-02-20T12:20:14Z</time>
      </trkpt>
      <trkpt lat="45.1713" lon="5.95772">
        <ele>2719.5</ele>
        <time>2021-02-20T12:20:15Z</time>
      </trkpt>
      <trkpt lat="45.1713" lon="5.95772">
        <ele>2719.8</ele>
        <time>2021-02-20T12:20:16Z</time>
      </trkpt>
      <trkpt lat="45.17129" lon="5.95773">
        <ele>2719.8</ele>
        <time>2021-02-20T12:20:17Z</time>
      </trkpt>
      <trkpt lat="45.17129" lon="5.95773">
        <ele>2719.8</ele>
        <time>2021-02-20T12:20:18Z</time>
      </trkpt>
      <trkpt lat="45.17129" lon="5.95774">
        <ele>2719.8</ele>
        <time>2021-02-20T12:20:19Z</time>
      </trkpt>
      <trkpt lat="45.17128" lon="5.95774">
        <ele>2719.8</ele>
        <time>2021-02-20T12:20:20Z</time>
      </trkpt>
      <trkpt lat="45.17128" lon="5.95774">
        <ele>2719.8</ele>
        <time>2021-02-20T12:20:21Z</time>
      </trkpt>
      <trkpt lat="45.17128" lon="5.95775">
        <ele>2719.8</ele>
        <time>2021-02-20T12:20:22Z</time>
      </trkpt>
      <trkpt lat="45.17128" lon="5.95776">
        <ele>2719.8</ele>
        <time>2021-02-20T12:20:23Z</time>
      </trkpt>
      <trkpt lat="45.17128" lon="5.95777">
        <ele>2720.3</ele>
        <time>2021-02-20T12:20:24Z</time>
      </trkpt>
      <trkpt lat="45.17128" lon="5.95778">
        <ele>2720.3</ele>
        <time>2021-02-20T12:20:25Z</time>
      </trkpt>
      <trkpt lat="45.17128" lon="5.95779">
        <ele>2720.3</ele>
        <time>2021-02-20T12:20:26Z</time>
      </trkpt>
      <trkpt lat="45.17128" lon="5.95779">
        <ele>2720.3</ele>
        <time>2021-02-20T12:20:27Z</time>
      </trkpt>
      <trkpt lat="45.17128" lon="5.95779">
        <ele>2720.3</ele>
        <time>2021-02-20T12:20:28Z</time>
      </trkpt>
      <trkpt lat="45.17128" lon="5.95779">
        <ele>2720.3</ele>
        <time>2021-02-20T12:20:29Z</time>
      </trkpt>
      <trkpt lat="45.17128" lon="5.95779">
        <ele>2720.3</ele>
        <time>2021-02-20T12:20:30Z</time>
      </trkpt>
      <trkpt lat="45.17127" lon="5.95779">
        <ele>2720.3</ele>
        <time>2021-02-20T12:20:31Z</time>
      </trkpt>
      <trkpt lat="45.17127" lon="5.95779">
        <ele>2720.3</ele>
        <time>2021-02-20T12:20:32Z</time>
      </trkpt>
      <trkpt lat="45.17127" lon="5.95779">
        <ele>2720.3</ele>
        <time>2021-02-20T12:20:33Z</time>
      </trkpt>
      <trkpt lat="45.17127" lon="5.95779">
        <ele>2720.3</ele>
        <time>2021-02-20T12:20:34Z</time>
      </trkpt>
      <trkpt lat="45.17127" lon="5.95779">
        <ele>2720.3</ele>
        <time>2021-02-20T12:20:35Z</time>
      </trkpt>
      <trkpt lat="45.17127" lon="5.95779">
        <ele>2720.3</ele>
        <time>2021-02-20T12:20:36Z</time>
      </trkpt>
      <trkpt lat="45.17127" lon="5.95779">
        <ele>2720.3</ele>
        <time>2021-02-20T12:20:37Z</time>
      </trkpt>
      <trkpt lat="45.17127" lon="5.95779">
        <ele>2720.3</ele>
        <time>2021-02-20T12:20:38Z</time>
      </trkpt>
      <trkpt lat="45.17127" lon="5.95779">
        <ele>2720.3</ele>
        <time>2021-02-20T12:20:39Z</time>
      </trkpt>
      <trkpt lat="45.17127" lon="5.95779">
        <ele>2720.3</ele>
        <time>2021-02-20T12:20:40Z</time>
      </trkpt>
      <trkpt lat="45.17127" lon="5.95779">
        <ele>2720.3</ele>
        <time>2021-02-20T12:20:41Z</time>
      </trkpt>
      <trkpt lat="45.17127" lon="5.95779">
        <ele>2720.3</ele>
        <time>2021-02-20T12:20:42Z</time>
      </trkpt>
      <trkpt lat="45.17127" lon="5.95779">
        <ele>2720.3</ele>
        <time>2021-02-20T12:20:43Z</time>
      </trkpt>
      <trkpt lat="45.17126" lon="5.95781">
        <ele>2720.3</ele>
        <time>2021-02-20T12:20:44Z</time>
      </trkpt>
      <trkpt lat="45.17126" lon="5.95782">
        <ele>2720.3</ele>
        <time>2021-02-20T12:20:45Z</time>
      </trkpt>
      <trkpt lat="45.17126" lon="5.95782">
        <ele>2720.3</ele>
        <time>2021-02-20T12:20:46Z</time>
      </trkpt>
      <trkpt lat="45.17126" lon="5.95783">
        <ele>2720.3</ele>
        <time>2021-02-20T12:20:47Z</time>
      </trkpt>
      <trkpt lat="45.17126" lon="5.95783">
        <ele>2720.3</ele>
        <time>2021-02-20T12:20:48Z</time>
      </trkpt>
      <trkpt lat="45.17126" lon="5.95783">
        <ele>2720.3</ele>
        <time>2021-02-20T12:20:49Z</time>
      </trkpt>
      <trkpt lat="45.17125" lon="5.95785">
        <ele>2720.3</ele>
        <time>2021-02-20T12:20:50Z</time>
      </trkpt>
      <trkpt lat="45.17125" lon="5.95785">
        <ele>2720.7</ele>
        <time>2021-02-20T12:20:51Z</time>
      </trkpt>
      <trkpt lat="45.17125" lon="5.95786">
        <ele>2720.7</ele>
        <time>2021-02-20T12:20:52Z</time>
      </trkpt>
      <trkpt lat="45.17125" lon="5.95788">
        <ele>2720.7</ele>
        <time>2021-02-20T12:20:53Z</time>
      </trkpt>
      <trkpt lat="45.17125" lon="5.95789">
        <ele>2720.7</ele>
        <time>2021-02-20T12:20:54Z</time>
      </trkpt>
      <trkpt lat="45.17125" lon="5.9579">
        <ele>2721</ele>
        <time>2021-02-20T12:20:55Z</time>
      </trkpt>
      <trkpt lat="45.17125" lon="5.95791">
        <ele>2721</ele>
        <time>2021-02-20T12:20:56Z</time>
      </trkpt>
      <trkpt lat="45.17125" lon="5.95792">
        <ele>2721</ele>
        <time>2021-02-20T12:20:57Z</time>
      </trkpt>
      <trkpt lat="45.17125" lon="5.95793">
        <ele>2721</ele>
        <time>2021-02-20T12:20:58Z</time>
      </trkpt>
      <trkpt lat="45.17125" lon="5.95794">
        <ele>2721</ele>
        <time>2021-02-20T12:20:59Z</time>
      </trkpt>
      <trkpt lat="45.17125" lon="5.95794">
        <ele>2721.3</ele>
        <time>2021-02-20T12:21:00Z</time>
      </trkpt>
      <trkpt lat="45.17125" lon="5.95795">
        <ele>2721.3</ele>
        <time>2021-02-20T12:21:01Z</time>
      </trkpt>
      <trkpt lat="45.17125" lon="5.95795">
        <ele>2721.3</ele>
        <time>2021-02-20T12:21:02Z</time>
      </trkpt>
      <trkpt lat="45.17125" lon="5.95796">
        <ele>2721.3</ele>
        <time>2021-02-20T12:21:03Z</time>
      </trkpt>
      <trkpt lat="45.17125" lon="5.95797">
        <ele>2721.3</ele>
        <time>2021-02-20T12:21:04Z</time>
      </trkpt>
      <trkpt lat="45.17125" lon="5.95798">
        <ele>2721.3</ele>
        <time>2021-02-20T12:21:05Z</time>
      </trkpt>
      <trkpt lat="45.17126" lon="5.95798">
        <ele>2721.6</ele>
        <time>2021-02-20T12:21:06Z</time>
      </trkpt>
      <trkpt lat="45.17126" lon="5.95799">
        <ele>2721.6</ele>
        <time>2021-02-20T12:21:07Z</time>
      </trkpt>
      <trkpt lat="45.17126" lon="5.95801">
        <ele>2721.6</ele>
        <time>2021-02-20T12:21:08Z</time>
      </trkpt>
      <trkpt lat="45.17126" lon="5.95802">
        <ele>2721.8</ele>
        <time>2021-02-20T12:21:09Z</time>
      </trkpt>
      <trkpt lat="45.17126" lon="5.95804">
        <ele>2721.8</ele>
        <time>2021-02-20T12:21:10Z</time>
      </trkpt>
      <trkpt lat="45.17126" lon="5.95805">
        <ele>2721.8</ele>
        <time>2021-02-20T12:21:11Z</time>
      </trkpt>
      <trkpt lat="45.17127" lon="5.95806">
        <ele>2721.8</ele>
        <time>2021-02-20T12:21:12Z</time>
      </trkpt>
      <trkpt lat="45.17127" lon="5.95807">
        <ele>2722.1</ele>
        <time>2021-02-20T12:21:13Z</time>
      </trkpt>
      <trkpt lat="45.17127" lon="5.95808">
        <ele>2722.4</ele>
        <time>2021-02-20T12:21:14Z</time>
      </trkpt>
      <trkpt lat="45.17127" lon="5.95809">
        <ele>2722.4</ele>
        <time>2021-02-20T12:21:15Z</time>
      </trkpt>
      <trkpt lat="45.17127" lon="5.9581">
        <ele>2722.4</ele>
        <time>2021-02-20T12:21:16Z</time>
      </trkpt>
      <trkpt lat="45.17127" lon="5.95811">
        <ele>2722.4</ele>
        <time>2021-02-20T12:21:17Z</time>
      </trkpt>
      <trkpt lat="45.17127" lon="5.95812">
        <ele>2722.5</ele>
        <time>2021-02-20T12:21:18Z</time>
      </trkpt>
      <trkpt lat="45.17128" lon="5.95813">
        <ele>2722.5</ele>
        <time>2021-02-20T12:21:19Z</time>
      </trkpt>
      <trkpt lat="45.17128" lon="5.95814">
        <ele>2722.5</ele>
        <time>2021-02-20T12:21:20Z</time>
      </trkpt>
      <trkpt lat="45.17128" lon="5.95814">
        <ele>2722.5</ele>
        <time>2021-02-20T12:21:21Z</time>
      </trkpt>
      <trkpt lat="45.17128" lon="5.95815">
        <ele>2722.5</ele>
        <time>2021-02-20T12:21:22Z</time>
      </trkpt>
      <trkpt lat="45.17128" lon="5.95815">
        <ele>2722.7</ele>
        <time>2021-02-20T12:21:23Z</time>
      </trkpt>
      <trkpt lat="45.17128" lon="5.95816">
        <ele>2722.7</ele>
        <time>2021-02-20T12:21:24Z</time>
      </trkpt>
      <trkpt lat="45.17128" lon="5.95818">
        <ele>2722.7</ele>
        <time>2021-02-20T12:21:25Z</time>
      </trkpt>
      <trkpt lat="45.17128" lon="5.95818">
        <ele>2722.7</ele>
        <time>2021-02-20T12:21:26Z</time>
      </trkpt>
      <trkpt lat="45.17128" lon="5.95819">
        <ele>2722.7</ele>
        <time>2021-02-20T12:21:27Z</time>
      </trkpt>
      <trkpt lat="45.17129" lon="5.9582">
        <ele>2722.9</ele>
        <time>2021-02-20T12:21:28Z</time>
      </trkpt>
      <trkpt lat="45.17129" lon="5.95822">
        <ele>2722.9</ele>
        <time>2021-02-20T12:21:29Z</time>
      </trkpt>
      <trkpt lat="45.17129" lon="5.95823">
        <ele>2722.9</ele>
        <time>2021-02-20T12:21:30Z</time>
      </trkpt>
      <trkpt lat="45.17129" lon="5.95824">
        <ele>2723.2</ele>
        <time>2021-02-20T12:21:31Z</time>
      </trkpt>
      <trkpt lat="45.17129" lon="5.95825">
        <ele>2723.2</ele>
        <time>2021-02-20T12:21:32Z</time>
      </trkpt>
      <trkpt lat="45.17129" lon="5.95825">
        <ele>2723.2</ele>
        <time>2021-02-20T12:21:33Z</time>
      </trkpt>
      <trkpt lat="45.1713" lon="5.95826">
        <ele>2723.2</ele>
        <time>2021-02-20T12:21:34Z</time>
      </trkpt>
      <trkpt lat="45.1713" lon="5.95827">
        <ele>2723.1</ele>
        <time>2021-02-20T12:21:35Z</time>
      </trkpt>
      <trkpt lat="45.1713" lon="5.95828">
        <ele>2723.1</ele>
        <time>2021-02-20T12:21:36Z</time>
      </trkpt>
      <trkpt lat="45.1713" lon="5.95829">
        <ele>2723.5</ele>
        <time>2021-02-20T12:21:37Z</time>
      </trkpt>
      <trkpt lat="45.1713" lon="5.95829">
        <ele>2723.5</ele>
        <time>2021-02-20T12:21:38Z</time>
      </trkpt>
      <trkpt lat="45.1713" lon="5.9583">
        <ele>2723.5</ele>
        <time>2021-02-20T12:21:39Z</time>
      </trkpt>
      <trkpt lat="45.17131" lon="5.95831">
        <ele>2723.5</ele>
        <time>2021-02-20T12:21:40Z</time>
      </trkpt>
      <trkpt lat="45.17131" lon="5.95832">
        <ele>2723.5</ele>
        <time>2021-02-20T12:21:41Z</time>
      </trkpt>
      <trkpt lat="45.17131" lon="5.95833">
        <ele>2723.9</ele>
        <time>2021-02-20T12:21:42Z</time>
      </trkpt>
      <trkpt lat="45.17131" lon="5.95833">
        <ele>2723.9</ele>
        <time>2021-02-20T12:21:43Z</time>
      </trkpt>
      <trkpt lat="45.17132" lon="5.95833">
        <ele>2723.9</ele>
        <time>2021-02-20T12:21:44Z</time>
      </trkpt>
      <trkpt lat="45.17132" lon="5.95834">
        <ele>2723.9</ele>
        <time>2021-02-20T12:21:45Z</time>
      </trkpt>
      <trkpt lat="45.17132" lon="5.95835">
        <ele>2723.9</ele>
        <time>2021-02-20T12:21:46Z</time>
      </trkpt>
      <trkpt lat="45.17132" lon="5.95837">
        <ele>2724.4</ele>
        <time>2021-02-20T12:21:47Z</time>
      </trkpt>
      <trkpt lat="45.17132" lon="5.95838">
        <ele>2724.4</ele>
        <time>2021-02-20T12:21:48Z</time>
      </trkpt>
      <trkpt lat="45.17133" lon="5.95839">
        <ele>2724.4</ele>
        <time>2021-02-20T12:21:49Z</time>
      </trkpt>
      <trkpt lat="45.17133" lon="5.9584">
        <ele>2724.4</ele>
        <time>2021-02-20T12:21:50Z</time>
      </trkpt>
      <trkpt lat="45.17133" lon="5.95841">
        <ele>2724.9</ele>
        <time>2021-02-20T12:21:51Z</time>
      </trkpt>
      <trkpt lat="45.17133" lon="5.95842">
        <ele>2724.8</ele>
        <time>2021-02-20T12:21:52Z</time>
      </trkpt>
      <trkpt lat="45.17133" lon="5.95842">
        <ele>2724.8</ele>
        <time>2021-02-20T12:21:53Z</time>
      </trkpt>
      <trkpt lat="45.17133" lon="5.95843">
        <ele>2724.8</ele>
        <time>2021-02-20T12:21:54Z</time>
      </trkpt>
      <trkpt lat="45.17133" lon="5.95844">
        <ele>2724.8</ele>
        <time>2021-02-20T12:21:55Z</time>
      </trkpt>
      <trkpt lat="45.17133" lon="5.95845">
        <ele>2724.8</ele>
        <time>2021-02-20T12:21:56Z</time>
      </trkpt>
      <trkpt lat="45.17133" lon="5.95846">
        <ele>2725.4</ele>
        <time>2021-02-20T12:21:57Z</time>
      </trkpt>
      <trkpt lat="45.17133" lon="5.95846">
        <ele>2725.4</ele>
        <time>2021-02-20T12:21:58Z</time>
      </trkpt>
      <trkpt lat="45.17133" lon="5.95847">
        <ele>2725.4</ele>
        <time>2021-02-20T12:21:59Z</time>
      </trkpt>
      <trkpt lat="45.17133" lon="5.95848">
        <ele>2725.4</ele>
        <time>2021-02-20T12:22:00Z</time>
      </trkpt>
      <trkpt lat="45.17133" lon="5.95849">
        <ele>2725.4</ele>
        <time>2021-02-20T12:22:01Z</time>
      </trkpt>
      <trkpt lat="45.17133" lon="5.95851">
        <ele>2726.1</ele>
        <time>2021-02-20T12:22:02Z</time>
      </trkpt>
      <trkpt lat="45.17133" lon="5.95852">
        <ele>2726.1</ele>
        <time>2021-02-20T12:22:03Z</time>
      </trkpt>
      <trkpt lat="45.17133" lon="5.95854">
        <ele>2726.1</ele>
        <time>2021-02-20T12:22:04Z</time>
      </trkpt>
      <trkpt lat="45.17134" lon="5.95855">
        <ele>2726.7</ele>
        <time>2021-02-20T12:22:05Z</time>
      </trkpt>
      <trkpt lat="45.17134" lon="5.95857">
        <ele>2726.7</ele>
        <time>2021-02-20T12:22:06Z</time>
      </trkpt>
      <trkpt lat="45.17134" lon="5.95857">
        <ele>2726.7</ele>
        <time>2021-02-20T12:22:07Z</time>
      </trkpt>
      <trkpt lat="45.17134" lon="5.95858">
        <ele>2727.3</ele>
        <time>2021-02-20T12:22:08Z</time>
      </trkpt>
      <trkpt lat="45.17133" lon="5.95859">
        <ele>2727.3</ele>
        <time>2021-02-20T12:22:09Z</time>
      </trkpt>
      <trkpt lat="45.17133" lon="5.95861">
        <ele>2727.3</ele>
        <time>2021-02-20T12:22:10Z</time>
      </trkpt>
      <trkpt lat="45.17133" lon="5.95862">
        <ele>2727.3</ele>
        <time>2021-02-20T12:22:11Z</time>
      </trkpt>
      <trkpt lat="45.17133" lon="5.95863">
        <ele>2728</ele>
        <time>2021-02-20T12:22:12Z</time>
      </trkpt>
      <trkpt lat="45.17133" lon="5.95863">
        <ele>2728</ele>
        <time>2021-02-20T12:22:13Z</time>
      </trkpt>
      <trkpt lat="45.17133" lon="5.95863">
        <ele>2728</ele>
        <time>2021-02-20T12:22:14Z</time>
      </trkpt>
      <trkpt lat="45.17133" lon="5.95864">
        <ele>2728</ele>
        <time>2021-02-20T12:22:15Z</time>
      </trkpt>
      <trkpt lat="45.17133" lon="5.95865">
        <ele>2728</ele>
        <time>2021-02-20T12:22:16Z</time>
      </trkpt>
      <trkpt lat="45.17133" lon="5.95867">
        <ele>2728</ele>
        <time>2021-02-20T12:22:17Z</time>
      </trkpt>
      <trkpt lat="45.17133" lon="5.95867">
        <ele>2728</ele>
        <time>2021-02-20T12:22:18Z</time>
      </trkpt>
      <trkpt lat="45.17134" lon="5.95868">
        <ele>2728.6</ele>
        <time>2021-02-20T12:22:19Z</time>
      </trkpt>
      <trkpt lat="45.17134" lon="5.95868">
        <ele>2728.6</ele>
        <time>2021-02-20T12:22:20Z</time>
      </trkpt>
      <trkpt lat="45.17134" lon="5.95869">
        <ele>2728.6</ele>
        <time>2021-02-20T12:22:21Z</time>
      </trkpt>
      <trkpt lat="45.17134" lon="5.9587">
        <ele>2728.6</ele>
        <time>2021-02-20T12:22:22Z</time>
      </trkpt>
      <trkpt lat="45.17135" lon="5.95871">
        <ele>2728.6</ele>
        <time>2021-02-20T12:22:23Z</time>
      </trkpt>
      <trkpt lat="45.17135" lon="5.95872">
        <ele>2729.1</ele>
        <time>2021-02-20T12:22:24Z</time>
      </trkpt>
      <trkpt lat="45.17135" lon="5.95873">
        <ele>2729.1</ele>
        <time>2021-02-20T12:22:25Z</time>
      </trkpt>
      <trkpt lat="45.17135" lon="5.95874">
        <ele>2729.1</ele>
        <time>2021-02-20T12:22:26Z</time>
      </trkpt>
      <trkpt lat="45.17135" lon="5.95875">
        <ele>2729.1</ele>
        <time>2021-02-20T12:22:27Z</time>
      </trkpt>
      <trkpt lat="45.17136" lon="5.95875">
        <ele>2729.1</ele>
        <time>2021-02-20T12:22:28Z</time>
      </trkpt>
      <trkpt lat="45.17136" lon="5.95875">
        <ele>2729.1</ele>
        <time>2021-02-20T12:22:29Z</time>
      </trkpt>
      <trkpt lat="45.17136" lon="5.95875">
        <ele>2729.1</ele>
        <time>2021-02-20T12:22:30Z</time>
      </trkpt>
      <trkpt lat="45.17136" lon="5.95876">
        <ele>2730.2</ele>
        <time>2021-02-20T12:22:31Z</time>
      </trkpt>
      <trkpt lat="45.17136" lon="5.95876">
        <ele>2730.2</ele>
        <time>2021-02-20T12:22:32Z</time>
      </trkpt>
      <trkpt lat="45.17136" lon="5.95877">
        <ele>2730.2</ele>
        <time>2021-02-20T12:22:33Z</time>
      </trkpt>
      <trkpt lat="45.17136" lon="5.95877">
        <ele>2730.2</ele>
        <time>2021-02-20T12:22:34Z</time>
      </trkpt>
      <trkpt lat="45.17136" lon="5.95878">
        <ele>2730.2</ele>
        <time>2021-02-20T12:22:35Z</time>
      </trkpt>
      <trkpt lat="45.17136" lon="5.95878">
        <ele>2730.2</ele>
        <time>2021-02-20T12:22:36Z</time>
      </trkpt>
      <trkpt lat="45.17136" lon="5.95879">
        <ele>2730.2</ele>
        <time>2021-02-20T12:22:37Z</time>
      </trkpt>
      <trkpt lat="45.17136" lon="5.9588">
        <ele>2730.7</ele>
        <time>2021-02-20T12:22:38Z</time>
      </trkpt>
      <trkpt lat="45.17137" lon="5.95881">
        <ele>2730.7</ele>
        <time>2021-02-20T12:22:39Z</time>
      </trkpt>
      <trkpt lat="45.17137" lon="5.95882">
        <ele>2730.7</ele>
        <time>2021-02-20T12:22:40Z</time>
      </trkpt>
      <trkpt lat="45.17137" lon="5.95882">
        <ele>2730.7</ele>
        <time>2021-02-20T12:22:41Z</time>
      </trkpt>
      <trkpt lat="45.17138" lon="5.95882">
        <ele>2730.7</ele>
        <time>2021-02-20T12:22:42Z</time>
      </trkpt>
      <trkpt lat="45.17138" lon="5.95883">
        <ele>2730.7</ele>
        <time>2021-02-20T12:22:43Z</time>
      </trkpt>
      <trkpt lat="45.17138" lon="5.95883">
        <ele>2730.7</ele>
        <time>2021-02-20T12:22:44Z</time>
      </trkpt>
      <trkpt lat="45.17138" lon="5.95885">
        <ele>2731.1</ele>
        <time>2021-02-20T12:22:45Z</time>
      </trkpt>
      <trkpt lat="45.17138" lon="5.95886">
        <ele>2731.1</ele>
        <time>2021-02-20T12:22:46Z</time>
      </trkpt>
      <trkpt lat="45.17139" lon="5.95887">
        <ele>2731.1</ele>
        <time>2021-02-20T12:22:47Z</time>
      </trkpt>
      <trkpt lat="45.17139" lon="5.95888">
        <ele>2731.1</ele>
        <time>2021-02-20T12:22:48Z</time>
      </trkpt>
      <trkpt lat="45.17139" lon="5.95888">
        <ele>2732.1</ele>
        <time>2021-02-20T12:22:49Z</time>
      </trkpt>
      <trkpt lat="45.17139" lon="5.95889">
        <ele>2732.1</ele>
        <time>2021-02-20T12:22:50Z</time>
      </trkpt>
      <trkpt lat="45.17139" lon="5.9589">
        <ele>2732.1</ele>
        <time>2021-02-20T12:22:51Z</time>
      </trkpt>
      <trkpt lat="45.17139" lon="5.95891">
        <ele>2732.1</ele>
        <time>2021-02-20T12:22:52Z</time>
      </trkpt>
      <trkpt lat="45.1714" lon="5.95892">
        <ele>2732.1</ele>
        <time>2021-02-20T12:22:53Z</time>
      </trkpt>
      <trkpt lat="45.17141" lon="5.95892">
        <ele>2732.1</ele>
        <time>2021-02-20T12:22:54Z</time>
      </trkpt>
      <trkpt lat="45.17141" lon="5.95893">
        <ele>2732.4</ele>
        <time>2021-02-20T12:22:55Z</time>
      </trkpt>
      <trkpt lat="45.17141" lon="5.95893">
        <ele>2732.4</ele>
        <time>2021-02-20T12:22:56Z</time>
      </trkpt>
      <trkpt lat="45.17141" lon="5.95894">
        <ele>2732.4</ele>
        <time>2021-02-20T12:22:57Z</time>
      </trkpt>
      <trkpt lat="45.1714" lon="5.95895">
        <ele>2732.4</ele>
        <time>2021-02-20T12:22:58Z</time>
      </trkpt>
      <trkpt lat="45.1714" lon="5.95895">
        <ele>2732.4</ele>
        <time>2021-02-20T12:22:59Z</time>
      </trkpt>
      <trkpt lat="45.1714" lon="5.95896">
        <ele>2732.3</ele>
        <time>2021-02-20T12:23:00Z</time>
      </trkpt>
      <trkpt lat="45.17141" lon="5.95898">
        <ele>2732.6</ele>
        <time>2021-02-20T12:23:01Z</time>
      </trkpt>
      <trkpt lat="45.17141" lon="5.95899">
        <ele>2732.6</ele>
        <time>2021-02-20T12:23:02Z</time>
      </trkpt>
      <trkpt lat="45.17141" lon="5.95901">
        <ele>2732.9</ele>
        <time>2021-02-20T12:23:03Z</time>
      </trkpt>
      <trkpt lat="45.17141" lon="5.95903">
        <ele>2732.8</ele>
        <time>2021-02-20T12:23:04Z</time>
      </trkpt>
      <trkpt lat="45.17141" lon="5.95903">
        <ele>2732.8</ele>
        <time>2021-02-20T12:23:05Z</time>
      </trkpt>
      <trkpt lat="45.17142" lon="5.95904">
        <ele>2732.8</ele>
        <time>2021-02-20T12:23:06Z</time>
      </trkpt>
      <trkpt lat="45.17142" lon="5.95904">
        <ele>2733.1</ele>
        <time>2021-02-20T12:23:07Z</time>
      </trkpt>
      <trkpt lat="45.17143" lon="5.95905">
        <ele>2733.1</ele>
        <time>2021-02-20T12:23:08Z</time>
      </trkpt>
      <trkpt lat="45.17143" lon="5.95905">
        <ele>2733.1</ele>
        <time>2021-02-20T12:23:09Z</time>
      </trkpt>
      <trkpt lat="45.17143" lon="5.95905">
        <ele>2733</ele>
        <time>2021-02-20T12:23:10Z</time>
      </trkpt>
      <trkpt lat="45.17143" lon="5.95906">
        <ele>2733.3</ele>
        <time>2021-02-20T12:23:11Z</time>
      </trkpt>
      <trkpt lat="45.17143" lon="5.95906">
        <ele>2733.3</ele>
        <time>2021-02-20T12:23:12Z</time>
      </trkpt>
      <trkpt lat="45.17143" lon="5.95907">
        <ele>2733.3</ele>
        <time>2021-02-20T12:23:13Z</time>
      </trkpt>
      <trkpt lat="45.17143" lon="5.95907">
        <ele>2733.2</ele>
        <time>2021-02-20T12:23:14Z</time>
      </trkpt>
      <trkpt lat="45.17142" lon="5.95908">
        <ele>2733.2</ele>
        <time>2021-02-20T12:23:15Z</time>
      </trkpt>
      <trkpt lat="45.17142" lon="5.95908">
        <ele>2733.2</ele>
        <time>2021-02-20T12:23:16Z</time>
      </trkpt>
      <trkpt lat="45.17143" lon="5.95909">
        <ele>2733.1</ele>
        <time>2021-02-20T12:23:17Z</time>
      </trkpt>
      <trkpt lat="45.17143" lon="5.95909">
        <ele>2733.1</ele>
        <time>2021-02-20T12:23:18Z</time>
      </trkpt>
      <trkpt lat="45.17144" lon="5.95909">
        <ele>2733.1</ele>
        <time>2021-02-20T12:23:19Z</time>
      </trkpt>
      <trkpt lat="45.17144" lon="5.95909">
        <ele>2733</ele>
        <time>2021-02-20T12:23:20Z</time>
      </trkpt>
      <trkpt lat="45.17145" lon="5.9591">
        <ele>2733</ele>
        <time>2021-02-20T12:23:21Z</time>
      </trkpt>
      <trkpt lat="45.17145" lon="5.9591">
        <ele>2733.6</ele>
        <time>2021-02-20T12:23:22Z</time>
      </trkpt>
      <trkpt lat="45.17145" lon="5.9591">
        <ele>2733.6</ele>
        <time>2021-02-20T12:23:23Z</time>
      </trkpt>
      <trkpt lat="45.17146" lon="5.9591">
        <ele>2733.5</ele>
        <time>2021-02-20T12:23:24Z</time>
      </trkpt>
      <trkpt lat="45.17146" lon="5.9591">
        <ele>2733.5</ele>
        <time>2021-02-20T12:23:25Z</time>
      </trkpt>
      <trkpt lat="45.17146" lon="5.95911">
        <ele>2733.5</ele>
        <time>2021-02-20T12:23:26Z</time>
      </trkpt>
      <trkpt lat="45.17146" lon="5.95912">
        <ele>2733.4</ele>
        <time>2021-02-20T12:23:27Z</time>
      </trkpt>
      <trkpt lat="45.17145" lon="5.95913">
        <ele>2733.4</ele>
        <time>2021-02-20T12:23:28Z</time>
      </trkpt>
      <trkpt lat="45.17145" lon="5.95914">
        <ele>2733.7</ele>
        <time>2021-02-20T12:23:29Z</time>
      </trkpt>
      <trkpt lat="45.17145" lon="5.95915">
        <ele>2733.7</ele>
        <time>2021-02-20T12:23:30Z</time>
      </trkpt>
      <trkpt lat="45.17145" lon="5.95916">
        <ele>2733.3</ele>
        <time>2021-02-20T12:23:31Z</time>
      </trkpt>
      <trkpt lat="45.17144" lon="5.95917">
        <ele>2733.3</ele>
        <time>2021-02-20T12:23:32Z</time>
      </trkpt>
      <trkpt lat="45.17143" lon="5.95919">
        <ele>2733.6</ele>
        <time>2021-02-20T12:23:33Z</time>
      </trkpt>
      <trkpt lat="45.17143" lon="5.9592">
        <ele>2733.5</ele>
        <time>2021-02-20T12:23:34Z</time>
      </trkpt>
      <trkpt lat="45.17142" lon="5.95921">
        <ele>2733.5</ele>
        <time>2021-02-20T12:23:35Z</time>
      </trkpt>
      <trkpt lat="45.17142" lon="5.95922">
        <ele>2733.5</ele>
        <time>2021-02-20T12:23:36Z</time>
      </trkpt>
      <trkpt lat="45.17142" lon="5.95923">
        <ele>2733.2</ele>
        <time>2021-02-20T12:23:37Z</time>
      </trkpt>
      <trkpt lat="45.17142" lon="5.95924">
        <ele>2733.2</ele>
        <time>2021-02-20T12:23:38Z</time>
      </trkpt>
      <trkpt lat="45.17142" lon="5.95925">
        <ele>2733.7</ele>
        <time>2021-02-20T12:23:39Z</time>
      </trkpt>
      <trkpt lat="45.17142" lon="5.95927">
        <ele>2733.6</ele>
        <time>2021-02-20T12:23:40Z</time>
      </trkpt>
      <trkpt lat="45.17142" lon="5.95928">
        <ele>2733.5</ele>
        <time>2021-02-20T12:23:41Z</time>
      </trkpt>
      <trkpt lat="45.17142" lon="5.95929">
        <ele>2733.5</ele>
        <time>2021-02-20T12:23:42Z</time>
      </trkpt>
      <trkpt lat="45.17142" lon="5.9593">
        <ele>2733.6</ele>
        <time>2021-02-20T12:23:43Z</time>
      </trkpt>
      <trkpt lat="45.17142" lon="5.95931">
        <ele>2733.7</ele>
        <time>2021-02-20T12:23:44Z</time>
      </trkpt>
      <trkpt lat="45.17142" lon="5.95932">
        <ele>2733.8</ele>
        <time>2021-02-20T12:23:45Z</time>
      </trkpt>
      <trkpt lat="45.17141" lon="5.95933">
        <ele>2733.8</ele>
        <time>2021-02-20T12:23:46Z</time>
      </trkpt>
      <trkpt lat="45.17141" lon="5.95934">
        <ele>2733.8</ele>
        <time>2021-02-20T12:23:47Z</time>
      </trkpt>
      <trkpt lat="45.17141" lon="5.95934">
        <ele>2733.8</ele>
        <time>2021-02-20T12:23:48Z</time>
      </trkpt>
      <trkpt lat="45.17141" lon="5.95935">
        <ele>2733.8</ele>
        <time>2021-02-20T12:23:49Z</time>
      </trkpt>
      <trkpt lat="45.17141" lon="5.95936">
        <ele>2734</ele>
        <time>2021-02-20T12:23:50Z</time>
      </trkpt>
      <trkpt lat="45.1714" lon="5.95937">
        <ele>2734</ele>
        <time>2021-02-20T12:23:51Z</time>
      </trkpt>
      <trkpt lat="45.1714" lon="5.95938">
        <ele>2734.1</ele>
        <time>2021-02-20T12:23:52Z</time>
      </trkpt>
      <trkpt lat="45.1714" lon="5.95939">
        <ele>2734.1</ele>
        <time>2021-02-20T12:23:53Z</time>
      </trkpt>
      <trkpt lat="45.1714" lon="5.9594">
        <ele>2734.2</ele>
        <time>2021-02-20T12:23:54Z</time>
      </trkpt>
      <trkpt lat="45.1714" lon="5.9594">
        <ele>2734.2</ele>
        <time>2021-02-20T12:23:55Z</time>
      </trkpt>
      <trkpt lat="45.1714" lon="5.95941">
        <ele>2734.2</ele>
        <time>2021-02-20T12:23:56Z</time>
      </trkpt>
      <trkpt lat="45.17139" lon="5.95942">
        <ele>2734.3</ele>
        <time>2021-02-20T12:23:57Z</time>
      </trkpt>
      <trkpt lat="45.17139" lon="5.95943">
        <ele>2734.3</ele>
        <time>2021-02-20T12:23:58Z</time>
      </trkpt>
      <trkpt lat="45.1714" lon="5.95944">
        <ele>2734.4</ele>
        <time>2021-02-20T12:23:59Z</time>
      </trkpt>
      <trkpt lat="45.1714" lon="5.95945">
        <ele>2734.4</ele>
        <time>2021-02-20T12:24:00Z</time>
      </trkpt>
      <trkpt lat="45.1714" lon="5.95945">
        <ele>2734.5</ele>
        <time>2021-02-20T12:24:01Z</time>
      </trkpt>
      <trkpt lat="45.1714" lon="5.95946">
        <ele>2734.5</ele>
        <time>2021-02-20T12:24:02Z</time>
      </trkpt>
      <trkpt lat="45.17139" lon="5.95947">
        <ele>2734.6</ele>
        <time>2021-02-20T12:24:03Z</time>
      </trkpt>
      <trkpt lat="45.17139" lon="5.95947">
        <ele>2734.6</ele>
        <time>2021-02-20T12:24:04Z</time>
      </trkpt>
      <trkpt lat="45.17139" lon="5.95947">
        <ele>2734.6</ele>
        <time>2021-02-20T12:24:05Z</time>
      </trkpt>
      <trkpt lat="45.17138" lon="5.95948">
        <ele>2734.5</ele>
        <time>2021-02-20T12:24:06Z</time>
      </trkpt>
      <trkpt lat="45.17137" lon="5.95949">
        <ele>2734.6</ele>
        <time>2021-02-20T12:24:07Z</time>
      </trkpt>
      <trkpt lat="45.17135" lon="5.95949">
        <ele>2734.5</ele>
        <time>2021-02-20T12:24:08Z</time>
      </trkpt>
      <trkpt lat="45.17135" lon="5.95949">
        <ele>2734.5</ele>
        <time>2021-02-20T12:24:09Z</time>
      </trkpt>
      <trkpt lat="45.17134" lon="5.95949">
        <ele>2734.6</ele>
        <time>2021-02-20T12:24:10Z</time>
      </trkpt>
      <trkpt lat="45.17133" lon="5.95949">
        <ele>2734.5</ele>
        <time>2021-02-20T12:24:11Z</time>
      </trkpt>
      <trkpt lat="45.17132" lon="5.9595">
        <ele>2734.6</ele>
        <time>2021-02-20T12:24:12Z</time>
      </trkpt>
      <trkpt lat="45.17131" lon="5.9595">
        <ele>2734.6</ele>
        <time>2021-02-20T12:24:13Z</time>
      </trkpt>
      <trkpt lat="45.1713" lon="5.9595">
        <ele>2734.7</ele>
        <time>2021-02-20T12:24:14Z</time>
      </trkpt>
      <trkpt lat="45.17129" lon="5.95951">
        <ele>2734.6</ele>
        <time>2021-02-20T12:24:15Z</time>
      </trkpt>
      <trkpt lat="45.17129" lon="5.95951">
        <ele>2734.7</ele>
        <time>2021-02-20T12:24:16Z</time>
      </trkpt>
      <trkpt lat="45.17129" lon="5.95951">
        <ele>2734.7</ele>
        <time>2021-02-20T12:24:17Z</time>
      </trkpt>
      <trkpt lat="45.17128" lon="5.95951">
        <ele>2734.7</ele>
        <time>2021-02-20T12:24:18Z</time>
      </trkpt>
      <trkpt lat="45.17128" lon="5.9595">
        <ele>2734.8</ele>
        <time>2021-02-20T12:24:19Z</time>
      </trkpt>
      <trkpt lat="45.17127" lon="5.95951">
        <ele>2734.9</ele>
        <time>2021-02-20T12:24:20Z</time>
      </trkpt>
      <trkpt lat="45.17127" lon="5.95951">
        <ele>2734.9</ele>
        <time>2021-02-20T12:24:21Z</time>
      </trkpt>
      <trkpt lat="45.17127" lon="5.95952">
        <ele>2734.9</ele>
        <time>2021-02-20T12:24:22Z</time>
      </trkpt>
      <trkpt lat="45.17127" lon="5.95952">
        <ele>2734.8</ele>
        <time>2021-02-20T12:24:23Z</time>
      </trkpt>
      <trkpt lat="45.17126" lon="5.95953">
        <ele>2735</ele>
        <time>2021-02-20T12:24:24Z</time>
      </trkpt>
      <trkpt lat="45.17126" lon="5.95954">
        <ele>2735</ele>
        <time>2021-02-20T12:24:25Z</time>
      </trkpt>
      <trkpt lat="45.17125" lon="5.95954">
        <ele>2735</ele>
        <time>2021-02-20T12:24:26Z</time>
      </trkpt>
      <trkpt lat="45.17124" lon="5.95955">
        <ele>2735.2</ele>
        <time>2021-02-20T12:24:27Z</time>
      </trkpt>
      <trkpt lat="45.17124" lon="5.95956">
        <ele>2735.1</ele>
        <time>2021-02-20T12:24:28Z</time>
      </trkpt>
      <trkpt lat="45.17123" lon="5.95956">
        <ele>2735.2</ele>
        <time>2021-02-20T12:24:29Z</time>
      </trkpt>
      <trkpt lat="45.17123" lon="5.95957">
        <ele>2735.2</ele>
        <time>2021-02-20T12:24:30Z</time>
      </trkpt>
      <trkpt lat="45.17122" lon="5.95958">
        <ele>2735.3</ele>
        <time>2021-02-20T12:24:31Z</time>
      </trkpt>
      <trkpt lat="45.17122" lon="5.95958">
        <ele>2735.3</ele>
        <time>2021-02-20T12:24:32Z</time>
      </trkpt>
      <trkpt lat="45.17121" lon="5.95959">
        <ele>2735.4</ele>
        <time>2021-02-20T12:24:33Z</time>
      </trkpt>
      <trkpt lat="45.17121" lon="5.95959">
        <ele>2735.4</ele>
        <time>2021-02-20T12:24:34Z</time>
      </trkpt>
      <trkpt lat="45.1712" lon="5.9596">
        <ele>2735.4</ele>
        <time>2021-02-20T12:24:35Z</time>
      </trkpt>
      <trkpt lat="45.1712" lon="5.95961">
        <ele>2735.5</ele>
        <time>2021-02-20T12:24:36Z</time>
      </trkpt>
      <trkpt lat="45.1712" lon="5.95962">
        <ele>2735.5</ele>
        <time>2021-02-20T12:24:37Z</time>
      </trkpt>
      <trkpt lat="45.1712" lon="5.95963">
        <ele>2735.6</ele>
        <time>2021-02-20T12:24:38Z</time>
      </trkpt>
      <trkpt lat="45.17119" lon="5.95964">
        <ele>2735.6</ele>
        <time>2021-02-20T12:24:39Z</time>
      </trkpt>
      <trkpt lat="45.17119" lon="5.95964">
        <ele>2735.6</ele>
        <time>2021-02-20T12:24:40Z</time>
      </trkpt>
      <trkpt lat="45.17119" lon="5.95965">
        <ele>2735.6</ele>
        <time>2021-02-20T12:24:41Z</time>
      </trkpt>
      <trkpt lat="45.17119" lon="5.95965">
        <ele>2735.6</ele>
        <time>2021-02-20T12:24:42Z</time>
      </trkpt>
      <trkpt lat="45.17119" lon="5.95966">
        <ele>2735.6</ele>
        <time>2021-02-20T12:24:43Z</time>
      </trkpt>
      <trkpt lat="45.17119" lon="5.95967">
        <ele>2735.6</ele>
        <time>2021-02-20T12:24:44Z</time>
      </trkpt>
      <trkpt lat="45.17119" lon="5.95968">
        <ele>2735.6</ele>
        <time>2021-02-20T12:24:45Z</time>
      </trkpt>
      <trkpt lat="45.17119" lon="5.95969">
        <ele>2735.5</ele>
        <time>2021-02-20T12:24:46Z</time>
      </trkpt>
      <trkpt lat="45.17119" lon="5.95969">
        <ele>2735.5</ele>
        <time>2021-02-20T12:24:47Z</time>
      </trkpt>
      <trkpt lat="45.17119" lon="5.9597">
        <ele>2735.5</ele>
        <time>2021-02-20T12:24:48Z</time>
      </trkpt>
      <trkpt lat="45.1712" lon="5.9597">
        <ele>2735.5</ele>
        <time>2021-02-20T12:24:49Z</time>
      </trkpt>
      <trkpt lat="45.1712" lon="5.95971">
        <ele>2735.5</ele>
        <time>2021-02-20T12:24:50Z</time>
      </trkpt>
      <trkpt lat="45.17121" lon="5.95971">
        <ele>2735.4</ele>
        <time>2021-02-20T12:24:51Z</time>
      </trkpt>
      <trkpt lat="45.17121" lon="5.95972">
        <ele>2735.4</ele>
        <time>2021-02-20T12:24:52Z</time>
      </trkpt>
      <trkpt lat="45.17121" lon="5.95972">
        <ele>2735.4</ele>
        <time>2021-02-20T12:24:53Z</time>
      </trkpt>
      <trkpt lat="45.17121" lon="5.95972">
        <ele>2735.4</ele>
        <time>2021-02-20T12:24:54Z</time>
      </trkpt>
      <trkpt lat="45.17122" lon="5.95972">
        <ele>2735.4</ele>
        <time>2021-02-20T12:24:55Z</time>
      </trkpt>
      <trkpt lat="45.17122" lon="5.95972">
        <ele>2735.4</ele>
        <time>2021-02-20T12:24:56Z</time>
      </trkpt>
      <trkpt lat="45.17122" lon="5.95973">
        <ele>2735.4</ele>
        <time>2021-02-20T12:24:57Z</time>
      </trkpt>
      <trkpt lat="45.17123" lon="5.95973">
        <ele>2735.4</ele>
        <time>2021-02-20T12:24:58Z</time>
      </trkpt>
      <trkpt lat="45.17123" lon="5.95974">
        <ele>2735.3</ele>
        <time>2021-02-20T12:24:59Z</time>
      </trkpt>
      <trkpt lat="45.17124" lon="5.95975">
        <ele>2735.3</ele>
        <time>2021-02-20T12:25:00Z</time>
      </trkpt>
      <trkpt lat="45.17124" lon="5.95975">
        <ele>2735.3</ele>
        <time>2021-02-20T12:25:01Z</time>
      </trkpt>
      <trkpt lat="45.17124" lon="5.95975">
        <ele>2735.2</ele>
        <time>2021-02-20T12:25:02Z</time>
      </trkpt>
      <trkpt lat="45.17125" lon="5.95976">
        <ele>2735.2</ele>
        <time>2021-02-20T12:25:03Z</time>
      </trkpt>
      <trkpt lat="45.17125" lon="5.95976">
        <ele>2735.2</ele>
        <time>2021-02-20T12:25:04Z</time>
      </trkpt>
      <trkpt lat="45.17126" lon="5.95977">
        <ele>2735.1</ele>
        <time>2021-02-20T12:25:05Z</time>
      </trkpt>
      <trkpt lat="45.17126" lon="5.95977">
        <ele>2735.1</ele>
        <time>2021-02-20T12:25:06Z</time>
      </trkpt>
      <trkpt lat="45.17126" lon="5.95977">
        <ele>2735.1</ele>
        <time>2021-02-20T12:25:07Z</time>
      </trkpt>
      <trkpt lat="45.17126" lon="5.95977">
        <ele>2735.1</ele>
        <time>2021-02-20T12:25:08Z</time>
      </trkpt>
      <trkpt lat="45.17126" lon="5.95977">
        <ele>2735.1</ele>
        <time>2021-02-20T12:25:09Z</time>
      </trkpt>
      <trkpt lat="45.17126" lon="5.95977">
        <ele>2735.1</ele>
        <time>2021-02-20T12:25:10Z</time>
      </trkpt>
      <trkpt lat="45.17126" lon="5.95977">
        <ele>2735.1</ele>
        <time>2021-02-20T12:25:11Z</time>
      </trkpt>
      <trkpt lat="45.17126" lon="5.95977">
        <ele>2735.1</ele>
        <time>2021-02-20T12:25:12Z</time>
      </trkpt>
      <trkpt lat="45.17126" lon="5.95977">
        <ele>2735.1</ele>
        <time>2021-02-20T12:25:13Z</time>
      </trkpt>
      <trkpt lat="45.17126" lon="5.95977">
        <ele>2735.1</ele>
        <time>2021-02-20T12:25:14Z</time>
      </trkpt>
      <trkpt lat="45.17126" lon="5.95976">
        <ele>2735</ele>
        <time>2021-02-20T12:25:15Z</time>
      </trkpt>
      <trkpt lat="45.17126" lon="5.95976">
        <ele>2735</ele>
        <time>2021-02-20T12:25:16Z</time>
      </trkpt>
      <trkpt lat="45.17126" lon="5.95976">
        <ele>2735</ele>
        <time>2021-02-20T12:25:17Z</time>
      </trkpt>
      <trkpt lat="45.17126" lon="5.95976">
        <ele>2735</ele>
        <time>2021-02-20T12:25:18Z</time>
      </trkpt>
      <trkpt lat="45.17126" lon="5.95976">
        <ele>2735</ele>
        <time>2021-02-20T12:25:19Z</time>
      </trkpt>
      <trkpt lat="45.17126" lon="5.95976">
        <ele>2735</ele>
        <time>2021-02-20T12:25:20Z</time>
      </trkpt>
      <trkpt lat="45.17126" lon="5.95976">
        <ele>2735</ele>
        <time>2021-02-20T12:25:21Z</time>
      </trkpt>
      <trkpt lat="45.17126" lon="5.95976">
        <ele>2735</ele>
        <time>2021-02-20T12:25:22Z</time>
      </trkpt>
      <trkpt lat="45.17126" lon="5.95976">
        <ele>2734.9</ele>
        <time>2021-02-20T12:25:23Z</time>
      </trkpt>
      <trkpt lat="45.17126" lon="5.95976">
        <ele>2734.9</ele>
        <time>2021-02-20T12:25:24Z</time>
      </trkpt>
      <trkpt lat="45.17126" lon="5.95976">
        <ele>2734.9</ele>
        <time>2021-02-20T12:25:25Z</time>
      </trkpt>
      <trkpt lat="45.17126" lon="5.95976">
        <ele>2734.9</ele>
        <time>2021-02-20T12:25:26Z</time>
      </trkpt>
      <trkpt lat="45.17126" lon="5.95976">
        <ele>2734.9</ele>
        <time>2021-02-20T12:25:27Z</time>
      </trkpt>
      <trkpt lat="45.17126" lon="5.95976">
        <ele>2734.9</ele>
        <time>2021-02-20T12:25:28Z</time>
      </trkpt>
      <trkpt lat="45.17126" lon="5.95976">
        <ele>2734.9</ele>
        <time>2021-02-20T12:25:29Z</time>
      </trkpt>
      <trkpt lat="45.17126" lon="5.95976">
        <ele>2734.9</ele>
        <time>2021-02-20T12:25:30Z</time>
      </trkpt>
      <trkpt lat="45.17126" lon="5.95976">
        <ele>2734.9</ele>
        <time>2021-02-20T12:25:31Z</time>
      </trkpt>
      <trkpt lat="45.17126" lon="5.95976">
        <ele>2734.9</ele>
        <time>2021-02-20T12:25:32Z</time>
      </trkpt>
      <trkpt lat="45.17125" lon="5.95976">
        <ele>2734.9</ele>
        <time>2021-02-20T12:25:33Z</time>
      </trkpt>
      <trkpt lat="45.17125" lon="5.95976">
        <ele>2734.9</ele>
        <time>2021-02-20T12:25:34Z</time>
      </trkpt>
      <trkpt lat="45.17125" lon="5.95976">
        <ele>2734.9</ele>
        <time>2021-02-20T12:25:35Z</time>
      </trkpt>
      <trkpt lat="45.17125" lon="5.95976">
        <ele>2734.8</ele>
        <time>2021-02-20T12:25:36Z</time>
      </trkpt>
      <trkpt lat="45.17125" lon="5.95976">
        <ele>2734.8</ele>
        <time>2021-02-20T12:25:37Z</time>
      </trkpt>
      <trkpt lat="45.17125" lon="5.95976">
        <ele>2734.8</ele>
        <time>2021-02-20T12:25:38Z</time>
      </trkpt>
      <trkpt lat="45.17124" lon="5.95976">
        <ele>2734.8</ele>
        <time>2021-02-20T12:25:39Z</time>
      </trkpt>
      <trkpt lat="45.17124" lon="5.95976">
        <ele>2734.8</ele>
        <time>2021-02-20T12:25:40Z</time>
      </trkpt>
      <trkpt lat="45.17125" lon="5.95977">
        <ele>2734.8</ele>
        <time>2021-02-20T12:25:41Z</time>
      </trkpt>
      <trkpt lat="45.17125" lon="5.95977">
        <ele>2734.7</ele>
        <time>2021-02-20T12:25:42Z</time>
      </trkpt>
      <trkpt lat="45.17126" lon="5.95977">
        <ele>2734.7</ele>
        <time>2021-02-20T12:25:43Z</time>
      </trkpt>
      <trkpt lat="45.17126" lon="5.95977">
        <ele>2734.7</ele>
        <time>2021-02-20T12:25:44Z</time>
      </trkpt>
      <trkpt lat="45.17126" lon="5.95977">
        <ele>2734.7</ele>
        <time>2021-02-20T12:25:45Z</time>
      </trkpt>
      <trkpt lat="45.17126" lon="5.95977">
        <ele>2734.7</ele>
        <time>2021-02-20T12:25:46Z</time>
      </trkpt>
      <trkpt lat="45.17126" lon="5.95977">
        <ele>2734.7</ele>
        <time>2021-02-20T12:25:47Z</time>
      </trkpt>
      <trkpt lat="45.17126" lon="5.95977">
        <ele>2734.7</ele>
        <time>2021-02-20T12:25:48Z</time>
      </trkpt>
      <trkpt lat="45.17126" lon="5.95977">
        <ele>2734.7</ele>
        <time>2021-02-20T12:25:49Z</time>
      </trkpt>
      <trkpt lat="45.17126" lon="5.95977">
        <ele>2734.7</ele>
        <time>2021-02-20T12:25:50Z</time>
      </trkpt>
      <trkpt lat="45.17126" lon="5.95977">
        <ele>2734.7</ele>
        <time>2021-02-20T12:25:51Z</time>
      </trkpt>
      <trkpt lat="45.17126" lon="5.95977">
        <ele>2734.7</ele>
        <time>2021-02-20T12:25:52Z</time>
      </trkpt>
      <trkpt lat="45.17126" lon="5.95977">
        <ele>2734.7</ele>
        <time>2021-02-20T12:25:53Z</time>
      </trkpt>
      <trkpt lat="45.17126" lon="5.95977">
        <ele>2734.7</ele>
        <time>2021-02-20T12:25:54Z</time>
      </trkpt>
      <trkpt lat="45.17126" lon="5.95977">
        <ele>2734.7</ele>
        <time>2021-02-20T12:25:55Z</time>
      </trkpt>
      <trkpt lat="45.17126" lon="5.95977">
        <ele>2734.7</ele>
        <time>2021-02-20T12:25:56Z</time>
      </trkpt>
      <trkpt lat="45.17126" lon="5.95977">
        <ele>2734.7</ele>
        <time>2021-02-20T12:25:57Z</time>
      </trkpt>
      <trkpt lat="45.17126" lon="5.95977">
        <ele>2734.7</ele>
        <time>2021-02-20T12:25:58Z</time>
      </trkpt>
      <trkpt lat="45.17126" lon="5.95977">
        <ele>2734.7</ele>
        <time>2021-02-20T12:25:59Z</time>
      </trkpt>
      <trkpt lat="45.17126" lon="5.95977">
        <ele>2734.7</ele>
        <time>2021-02-20T12:26:00Z</time>
      </trkpt>
      <trkpt lat="45.17126" lon="5.95977">
        <ele>2734.7</ele>
        <time>2021-02-20T12:26:01Z</time>
      </trkpt>
      <trkpt lat="45.17126" lon="5.95977">
        <ele>2734.7</ele>
        <time>2021-02-20T12:26:02Z</time>
      </trkpt>
      <trkpt lat="45.17126" lon="5.95977">
        <ele>2734.7</ele>
        <time>2021-02-20T12:26:03Z</time>
      </trkpt>
      <trkpt lat="45.17126" lon="5.95977">
        <ele>2734.7</ele>
        <time>2021-02-20T12:26:04Z</time>
      </trkpt>
      <trkpt lat="45.17126" lon="5.95977">
        <ele>2734.7</ele>
        <time>2021-02-20T12:26:05Z</time>
      </trkpt>
      <trkpt lat="45.17126" lon="5.95977">
        <ele>2734.7</ele>
        <time>2021-02-20T12:26:06Z</time>
      </trkpt>
      <trkpt lat="45.17126" lon="5.95977">
        <ele>2734.7</ele>
        <time>2021-02-20T12:26:07Z</time>
      </trkpt>
      <trkpt lat="45.17126" lon="5.95977">
        <ele>2734.7</ele>
        <time>2021-02-20T12:26:08Z</time>
      </trkpt>
      <trkpt lat="45.17126" lon="5.95977">
        <ele>2734.7</ele>
        <time>2021-02-20T12:26:09Z</time>
      </trkpt>
      <trkpt lat="45.17126" lon="5.95977">
        <ele>2734.7</ele>
        <time>2021-02-20T12:26:10Z</time>
      </trkpt>
      <trkpt lat="45.17126" lon="5.95977">
        <ele>2734.7</ele>
        <time>2021-02-20T12:26:11Z</time>
      </trkpt>
      <trkpt lat="45.17126" lon="5.95977">
        <ele>2734.7</ele>
        <time>2021-02-20T12:26:12Z</time>
      </trkpt>
      <trkpt lat="45.17126" lon="5.95977">
        <ele>2734.7</ele>
        <time>2021-02-20T12:26:13Z</time>
      </trkpt>
      <trkpt lat="45.17126" lon="5.95977">
        <ele>2734.7</ele>
        <time>2021-02-20T12:26:14Z</time>
      </trkpt>
      <trkpt lat="45.17126" lon="5.95977">
        <ele>2734.7</ele>
        <time>2021-02-20T12:26:15Z</time>
      </trkpt>
      <trkpt lat="45.17126" lon="5.95977">
        <ele>2734.7</ele>
        <time>2021-02-20T12:26:16Z</time>
      </trkpt>
      <trkpt lat="45.17126" lon="5.95977">
        <ele>2734.7</ele>
        <time>2021-02-20T12:26:17Z</time>
      </trkpt>
      <trkpt lat="45.17126" lon="5.95977">
        <ele>2734.7</ele>
        <time>2021-02-20T12:26:18Z</time>
      </trkpt>
      <trkpt lat="45.17126" lon="5.95977">
        <ele>2734.7</ele>
        <time>2021-02-20T12:26:19Z</time>
      </trkpt>
      <trkpt lat="45.17126" lon="5.95977">
        <ele>2734.7</ele>
        <time>2021-02-20T12:26:20Z</time>
      </trkpt>
      <trkpt lat="45.17126" lon="5.95977">
        <ele>2734.7</ele>
        <time>2021-02-20T12:26:21Z</time>
      </trkpt>
      <trkpt lat="45.17126" lon="5.95977">
        <ele>2734.7</ele>
        <time>2021-02-20T12:26:22Z</time>
      </trkpt>
      <trkpt lat="45.17126" lon="5.95977">
        <ele>2734.7</ele>
        <time>2021-02-20T12:26:23Z</time>
      </trkpt>
      <trkpt lat="45.17126" lon="5.95977">
        <ele>2734.7</ele>
        <time>2021-02-20T12:26:24Z</time>
      </trkpt>
      <trkpt lat="45.17126" lon="5.95977">
        <ele>2734.7</ele>
        <time>2021-02-20T12:26:25Z</time>
      </trkpt>
      <trkpt lat="45.17126" lon="5.95977">
        <ele>2734.7</ele>
        <time>2021-02-20T12:26:26Z</time>
      </trkpt>
      <trkpt lat="45.17126" lon="5.95977">
        <ele>2734.7</ele>
        <time>2021-02-20T12:26:27Z</time>
      </trkpt>
      <trkpt lat="45.17126" lon="5.95977">
        <ele>2734.7</ele>
        <time>2021-02-20T12:26:28Z</time>
      </trkpt>
      <trkpt lat="45.17126" lon="5.95977">
        <ele>2734.7</ele>
        <time>2021-02-20T12:26:29Z</time>
      </trkpt>
      <trkpt lat="45.17126" lon="5.95977">
        <ele>2734.7</ele>
        <time>2021-02-20T12:26:30Z</time>
      </trkpt>
      <trkpt lat="45.17126" lon="5.95977">
        <ele>2734.7</ele>
        <time>2021-02-20T12:26:31Z</time>
      </trkpt>
      <trkpt lat="45.17126" lon="5.95977">
        <ele>2734.7</ele>
        <time>2021-02-20T12:26:32Z</time>
      </trkpt>
      <trkpt lat="45.17126" lon="5.95977">
        <ele>2734.7</ele>
        <time>2021-02-20T12:26:33Z</time>
      </trkpt>
      <trkpt lat="45.17126" lon="5.95977">
        <ele>2734.7</ele>
        <time>2021-02-20T12:26:34Z</time>
      </trkpt>
      <trkpt lat="45.17126" lon="5.95977">
        <ele>2734.7</ele>
        <time>2021-02-20T12:26:35Z</time>
      </trkpt>
      <trkpt lat="45.17126" lon="5.95977">
        <ele>2734.6</ele>
        <time>2021-02-20T12:26:36Z</time>
      </trkpt>
      <trkpt lat="45.17126" lon="5.95977">
        <ele>2734.6</ele>
        <time>2021-02-20T12:26:37Z</time>
      </trkpt>
      <trkpt lat="45.17126" lon="5.95977">
        <ele>2734.6</ele>
        <time>2021-02-20T12:26:38Z</time>
      </trkpt>
      <trkpt lat="45.17126" lon="5.95977">
        <ele>2734.6</ele>
        <time>2021-02-20T12:26:39Z</time>
      </trkpt>
      <trkpt lat="45.17126" lon="5.95977">
        <ele>2734.6</ele>
        <time>2021-02-20T12:26:40Z</time>
      </trkpt>
      <trkpt lat="45.17126" lon="5.95977">
        <ele>2734.6</ele>
        <time>2021-02-20T12:26:41Z</time>
      </trkpt>
      <trkpt lat="45.17126" lon="5.95977">
        <ele>2734.6</ele>
        <time>2021-02-20T12:26:42Z</time>
      </trkpt>
      <trkpt lat="45.17126" lon="5.95977">
        <ele>2734.6</ele>
        <time>2021-02-20T12:26:43Z</time>
      </trkpt>
      <trkpt lat="45.17126" lon="5.95977">
        <ele>2734.6</ele>
        <time>2021-02-20T12:26:44Z</time>
      </trkpt>
      <trkpt lat="45.17126" lon="5.95977">
        <ele>2734.6</ele>
        <time>2021-02-20T12:26:45Z</time>
      </trkpt>
      <trkpt lat="45.17126" lon="5.95977">
        <ele>2734.6</ele>
        <time>2021-02-20T12:26:46Z</time>
      </trkpt>
      <trkpt lat="45.17126" lon="5.95977">
        <ele>2734.6</ele>
        <time>2021-02-20T12:26:47Z</time>
      </trkpt>
      <trkpt lat="45.17126" lon="5.95977">
        <ele>2734.6</ele>
        <time>2021-02-20T12:26:48Z</time>
      </trkpt>
      <trkpt lat="45.17126" lon="5.95977">
        <ele>2734.6</ele>
        <time>2021-02-20T12:26:49Z</time>
      </trkpt>
      <trkpt lat="45.17126" lon="5.95977">
        <ele>2734.6</ele>
        <time>2021-02-20T12:26:50Z</time>
      </trkpt>
      <trkpt lat="45.17126" lon="5.95977">
        <ele>2734.6</ele>
        <time>2021-02-20T12:26:51Z</time>
      </trkpt>
      <trkpt lat="45.17126" lon="5.95977">
        <ele>2734.6</ele>
        <time>2021-02-20T12:26:52Z</time>
      </trkpt>
      <trkpt lat="45.17126" lon="5.95977">
        <ele>2734.6</ele>
        <time>2021-02-20T12:26:53Z</time>
      </trkpt>
      <trkpt lat="45.17126" lon="5.95977">
        <ele>2734.6</ele>
        <time>2021-02-20T12:26:54Z</time>
      </trkpt>
      <trkpt lat="45.17126" lon="5.95977">
        <ele>2734.6</ele>
        <time>2021-02-20T12:26:55Z</time>
      </trkpt>
      <trkpt lat="45.17126" lon="5.95977">
        <ele>2734.6</ele>
        <time>2021-02-20T12:26:56Z</time>
      </trkpt>
      <trkpt lat="45.17126" lon="5.95977">
        <ele>2734.6</ele>
        <time>2021-02-20T12:26:57Z</time>
      </trkpt>
      <trkpt lat="45.17126" lon="5.95977">
        <ele>2734.6</ele>
        <time>2021-02-20T12:26:58Z</time>
      </trkpt>
      <trkpt lat="45.17126" lon="5.95977">
        <ele>2734.6</ele>
        <time>2021-02-20T12:26:59Z</time>
      </trkpt>
      <trkpt lat="45.17126" lon="5.95977">
        <ele>2734.6</ele>
        <time>2021-02-20T12:27:00Z</time>
      </trkpt>
      <trkpt lat="45.17126" lon="5.95977">
        <ele>2734.6</ele>
        <time>2021-02-20T12:27:01Z</time>
      </trkpt>
      <trkpt lat="45.17126" lon="5.95977">
        <ele>2734.6</ele>
        <time>2021-02-20T12:27:02Z</time>
      </trkpt>
      <trkpt lat="45.17126" lon="5.95977">
        <ele>2734.6</ele>
        <time>2021-02-20T12:27:03Z</time>
      </trkpt>
      <trkpt lat="45.17126" lon="5.95977">
        <ele>2734.6</ele>
        <time>2021-02-20T12:27:04Z</time>
      </trkpt>
      <trkpt lat="45.17126" lon="5.95977">
        <ele>2734.6</ele>
        <time>2021-02-20T12:27:05Z</time>
      </trkpt>
      <trkpt lat="45.17126" lon="5.95977">
        <ele>2734.6</ele>
        <time>2021-02-20T12:27:06Z</time>
      </trkpt>
      <trkpt lat="45.17126" lon="5.95977">
        <ele>2734.6</ele>
        <time>2021-02-20T12:27:07Z</time>
      </trkpt>
      <trkpt lat="45.17126" lon="5.95977">
        <ele>2734.6</ele>
        <time>2021-02-20T12:27:08Z</time>
      </trkpt>
      <trkpt lat="45.17126" lon="5.95977">
        <ele>2734.6</ele>
        <time>2021-02-20T12:27:09Z</time>
      </trkpt>
      <trkpt lat="45.17126" lon="5.95977">
        <ele>2734.6</ele>
        <time>2021-02-20T12:27:10Z</time>
      </trkpt>
      <trkpt lat="45.17126" lon="5.95977">
        <ele>2734.6</ele>
        <time>2021-02-20T12:27:11Z</time>
      </trkpt>
      <trkpt lat="45.17126" lon="5.95977">
        <ele>2734.6</ele>
        <time>2021-02-20T12:27:12Z</time>
      </trkpt>
      <trkpt lat="45.17126" lon="5.95977">
        <ele>2734.6</ele>
        <time>2021-02-20T12:27:13Z</time>
      </trkpt>
      <trkpt lat="45.17126" lon="5.95977">
        <ele>2734.6</ele>
        <time>2021-02-20T12:27:14Z</time>
      </trkpt>
      <trkpt lat="45.17126" lon="5.95977">
        <ele>2734.6</ele>
        <time>2021-02-20T12:27:15Z</time>
      </trkpt>
      <trkpt lat="45.17126" lon="5.95977">
        <ele>2734.6</ele>
        <time>2021-02-20T12:27:16Z</time>
      </trkpt>
      <trkpt lat="45.17126" lon="5.95977">
        <ele>2734.6</ele>
        <time>2021-02-20T12:27:17Z</time>
      </trkpt>
      <trkpt lat="45.17126" lon="5.95977">
        <ele>2734.6</ele>
        <time>2021-02-20T12:27:18Z</time>
      </trkpt>
      <trkpt lat="45.17126" lon="5.95977">
        <ele>2734.6</ele>
        <time>2021-02-20T12:27:19Z</time>
      </trkpt>
      <trkpt lat="45.17126" lon="5.95977">
        <ele>2734.6</ele>
        <time>2021-02-20T12:27:20Z</time>
      </trkpt>
      <trkpt lat="45.17126" lon="5.95977">
        <ele>2734.6</ele>
        <time>2021-02-20T12:27:21Z</time>
      </trkpt>
      <trkpt lat="45.17126" lon="5.95977">
        <ele>2734.6</ele>
        <time>2021-02-20T12:27:22Z</time>
      </trkpt>
      <trkpt lat="45.17126" lon="5.95977">
        <ele>2734.6</ele>
        <time>2021-02-20T12:27:23Z</time>
      </trkpt>
      <trkpt lat="45.17126" lon="5.95977">
        <ele>2734.6</ele>
        <time>2021-02-20T12:27:24Z</time>
      </trkpt>
      <trkpt lat="45.17126" lon="5.95977">
        <ele>2734.6</ele>
        <time>2021-02-20T12:27:25Z</time>
      </trkpt>
      <trkpt lat="45.17126" lon="5.95977">
        <ele>2734.6</ele>
        <time>2021-02-20T12:27:26Z</time>
      </trkpt>
      <trkpt lat="45.17126" lon="5.95977">
        <ele>2734.6</ele>
        <time>2021-02-20T12:27:27Z</time>
      </trkpt>
      <trkpt lat="45.17126" lon="5.95977">
        <ele>2734.6</ele>
        <time>2021-02-20T12:27:28Z</time>
      </trkpt>
      <trkpt lat="45.17126" lon="5.95977">
        <ele>2734.6</ele>
        <time>2021-02-20T12:27:29Z</time>
      </trkpt>
      <trkpt lat="45.17126" lon="5.95977">
        <ele>2734.6</ele>
        <time>2021-02-20T12:27:30Z</time>
      </trkpt>
      <trkpt lat="45.17126" lon="5.95977">
        <ele>2734.6</ele>
        <time>2021-02-20T12:27:31Z</time>
      </trkpt>
      <trkpt lat="45.17126" lon="5.95977">
        <ele>2734.6</ele>
        <time>2021-02-20T12:27:32Z</time>
      </trkpt>
      <trkpt lat="45.17126" lon="5.95977">
        <ele>2734.6</ele>
        <time>2021-02-20T12:27:33Z</time>
      </trkpt>
      <trkpt lat="45.17126" lon="5.95977">
        <ele>2734.6</ele>
        <time>2021-02-20T12:27:34Z</time>
      </trkpt>
      <trkpt lat="45.17126" lon="5.95977">
        <ele>2734.6</ele>
        <time>2021-02-20T12:27:35Z</time>
      </trkpt>
      <trkpt lat="45.17126" lon="5.95977">
        <ele>2734.6</ele>
        <time>2021-02-20T12:27:36Z</time>
      </trkpt>
      <trkpt lat="45.17126" lon="5.95977">
        <ele>2734.6</ele>
        <time>2021-02-20T12:27:37Z</time>
      </trkpt>
      <trkpt lat="45.17126" lon="5.95977">
        <ele>2734.6</ele>
        <time>2021-02-20T12:27:38Z</time>
      </trkpt>
      <trkpt lat="45.17126" lon="5.95977">
        <ele>2734.6</ele>
        <time>2021-02-20T12:27:39Z</time>
      </trkpt>
      <trkpt lat="45.17126" lon="5.95977">
        <ele>2734.6</ele>
        <time>2021-02-20T12:27:40Z</time>
      </trkpt>
      <trkpt lat="45.17126" lon="5.95977">
        <ele>2734.6</ele>
        <time>2021-02-20T12:27:41Z</time>
      </trkpt>
      <trkpt lat="45.17126" lon="5.95977">
        <ele>2734.6</ele>
        <time>2021-02-20T12:27:42Z</time>
      </trkpt>
      <trkpt lat="45.17126" lon="5.95977">
        <ele>2734.6</ele>
        <time>2021-02-20T12:27:43Z</time>
      </trkpt>
      <trkpt lat="45.17126" lon="5.95977">
        <ele>2734.6</ele>
        <time>2021-02-20T12:27:44Z</time>
      </trkpt>
      <trkpt lat="45.17126" lon="5.95977">
        <ele>2734.6</ele>
        <time>2021-02-20T12:27:45Z</time>
      </trkpt>
      <trkpt lat="45.17126" lon="5.95977">
        <ele>2734.6</ele>
        <time>2021-02-20T12:27:46Z</time>
      </trkpt>
      <trkpt lat="45.17126" lon="5.95977">
        <ele>2734.6</ele>
        <time>2021-02-20T12:27:47Z</time>
      </trkpt>
      <trkpt lat="45.17126" lon="5.95977">
        <ele>2734.6</ele>
        <time>2021-02-20T12:27:48Z</time>
      </trkpt>
      <trkpt lat="45.17126" lon="5.95977">
        <ele>2734.6</ele>
        <time>2021-02-20T12:27:49Z</time>
      </trkpt>
      <trkpt lat="45.17126" lon="5.95977">
        <ele>2734.6</ele>
        <time>2021-02-20T12:27:50Z</time>
      </trkpt>
      <trkpt lat="45.17126" lon="5.95977">
        <ele>2734.6</ele>
        <time>2021-02-20T12:27:51Z</time>
      </trkpt>
      <trkpt lat="45.17126" lon="5.95977">
        <ele>2734.6</ele>
        <time>2021-02-20T12:27:52Z</time>
      </trkpt>
      <trkpt lat="45.17126" lon="5.95977">
        <ele>2734.6</ele>
        <time>2021-02-20T12:27:53Z</time>
      </trkpt>
      <trkpt lat="45.17126" lon="5.95977">
        <ele>2734.6</ele>
        <time>2021-02-20T12:27:54Z</time>
      </trkpt>
      <trkpt lat="45.17126" lon="5.95977">
        <ele>2734.6</ele>
        <time>2021-02-20T12:27:55Z</time>
      </trkpt>
      <trkpt lat="45.17126" lon="5.95977">
        <ele>2734.6</ele>
        <time>2021-02-20T12:27:56Z</time>
      </trkpt>
      <trkpt lat="45.17126" lon="5.95977">
        <ele>2734.6</ele>
        <time>2021-02-20T12:27:57Z</time>
      </trkpt>
      <trkpt lat="45.17126" lon="5.95977">
        <ele>2734.6</ele>
        <time>2021-02-20T12:27:58Z</time>
      </trkpt>
      <trkpt lat="45.17126" lon="5.95977">
        <ele>2734.6</ele>
        <time>2021-02-20T12:27:59Z</time>
      </trkpt>
      <trkpt lat="45.17126" lon="5.95977">
        <ele>2734.6</ele>
        <time>2021-02-20T12:28:00Z</time>
      </trkpt>
      <trkpt lat="45.17126" lon="5.95977">
        <ele>2734.6</ele>
        <time>2021-02-20T12:28:01Z</time>
      </trkpt>
      <trkpt lat="45.17126" lon="5.95977">
        <ele>2734.6</ele>
        <time>2021-02-20T12:28:02Z</time>
      </trkpt>
      <trkpt lat="45.17126" lon="5.95977">
        <ele>2734.6</ele>
        <time>2021-02-20T12:28:03Z</time>
      </trkpt>
      <trkpt lat="45.17126" lon="5.95977">
        <ele>2734.6</ele>
        <time>2021-02-20T12:28:04Z</time>
      </trkpt>
      <trkpt lat="45.17126" lon="5.95977">
        <ele>2734.6</ele>
        <time>2021-02-20T12:28:05Z</time>
      </trkpt>
      <trkpt lat="45.17126" lon="5.95977">
        <ele>2734.6</ele>
        <time>2021-02-20T12:28:06Z</time>
      </trkpt>
      <trkpt lat="45.17126" lon="5.95977">
        <ele>2734.6</ele>
        <time>2021-02-20T12:28:07Z</time>
      </trkpt>
      <trkpt lat="45.17126" lon="5.95977">
        <ele>2734.6</ele>
        <time>2021-02-20T12:28:08Z</time>
      </trkpt>
      <trkpt lat="45.17126" lon="5.95977">
        <ele>2734.6</ele>
        <time>2021-02-20T12:28:09Z</time>
      </trkpt>
      <trkpt lat="45.17126" lon="5.95977">
        <ele>2734.6</ele>
        <time>2021-02-20T12:28:10Z</time>
      </trkpt>
      <trkpt lat="45.17126" lon="5.95977">
        <ele>2734.6</ele>
        <time>2021-02-20T12:28:11Z</time>
      </trkpt>
      <trkpt lat="45.17126" lon="5.95977">
        <ele>2734.6</ele>
        <time>2021-02-20T12:28:12Z</time>
      </trkpt>
      <trkpt lat="45.17126" lon="5.95977">
        <ele>2734.6</ele>
        <time>2021-02-20T12:28:13Z</time>
      </trkpt>
      <trkpt lat="45.17126" lon="5.95977">
        <ele>2734.6</ele>
        <time>2021-02-20T12:28:14Z</time>
      </trkpt>
      <trkpt lat="45.17126" lon="5.95977">
        <ele>2734.6</ele>
        <time>2021-02-20T12:28:15Z</time>
      </trkpt>
      <trkpt lat="45.17126" lon="5.95977">
        <ele>2734.6</ele>
        <time>2021-02-20T12:28:16Z</time>
      </trkpt>
      <trkpt lat="45.17126" lon="5.95977">
        <ele>2734.6</ele>
        <time>2021-02-20T12:28:17Z</time>
      </trkpt>
      <trkpt lat="45.17126" lon="5.95977">
        <ele>2734.6</ele>
        <time>2021-02-20T12:28:18Z</time>
      </trkpt>
      <trkpt lat="45.17126" lon="5.95977">
        <ele>2734.6</ele>
        <time>2021-02-20T12:28:19Z</time>
      </trkpt>
      <trkpt lat="45.17126" lon="5.95977">
        <ele>2734.6</ele>
        <time>2021-02-20T12:28:20Z</time>
      </trkpt>
      <trkpt lat="45.17126" lon="5.95977">
        <ele>2734.6</ele>
        <time>2021-02-20T12:28:21Z</time>
      </trkpt>
      <trkpt lat="45.17126" lon="5.95977">
        <ele>2734.6</ele>
        <time>2021-02-20T12:28:22Z</time>
      </trkpt>
      <trkpt lat="45.17126" lon="5.95977">
        <ele>2734.6</ele>
        <time>2021-02-20T12:28:23Z</time>
      </trkpt>
      <trkpt lat="45.17126" lon="5.95977">
        <ele>2734.6</ele>
        <time>2021-02-20T12:28:24Z</time>
      </trkpt>
      <trkpt lat="45.17126" lon="5.95977">
        <ele>2734.6</ele>
        <time>2021-02-20T12:28:25Z</time>
      </trkpt>
      <trkpt lat="45.17126" lon="5.95977">
        <ele>2734.6</ele>
        <time>2021-02-20T12:28:26Z</time>
      </trkpt>
      <trkpt lat="45.17126" lon="5.95977">
        <ele>2734.6</ele>
        <time>2021-02-20T12:28:27Z</time>
      </trkpt>
      <trkpt lat="45.17126" lon="5.95977">
        <ele>2734.6</ele>
        <time>2021-02-20T12:28:28Z</time>
      </trkpt>
      <trkpt lat="45.17126" lon="5.95977">
        <ele>2734.6</ele>
        <time>2021-02-20T12:28:29Z</time>
      </trkpt>
      <trkpt lat="45.17126" lon="5.95977">
        <ele>2734.6</ele>
        <time>2021-02-20T12:28:30Z</time>
      </trkpt>
      <trkpt lat="45.17126" lon="5.95977">
        <ele>2734.6</ele>
        <time>2021-02-20T12:28:31Z</time>
      </trkpt>
      <trkpt lat="45.17126" lon="5.95977">
        <ele>2734.6</ele>
        <time>2021-02-20T12:28:32Z</time>
      </trkpt>
      <trkpt lat="45.17126" lon="5.95977">
        <ele>2734.6</ele>
        <time>2021-02-20T12:28:33Z</time>
      </trkpt>
      <trkpt lat="45.17126" lon="5.95977">
        <ele>2734.6</ele>
        <time>2021-02-20T12:28:34Z</time>
      </trkpt>
      <trkpt lat="45.17126" lon="5.95977">
        <ele>2734.6</ele>
        <time>2021-02-20T12:28:35Z</time>
      </trkpt>
      <trkpt lat="45.17126" lon="5.95977">
        <ele>2734.6</ele>
        <time>2021-02-20T12:28:36Z</time>
      </trkpt>
      <trkpt lat="45.17126" lon="5.95977">
        <ele>2734.6</ele>
        <time>2021-02-20T12:28:37Z</time>
      </trkpt>
      <trkpt lat="45.17126" lon="5.95977">
        <ele>2734.6</ele>
        <time>2021-02-20T12:28:38Z</time>
      </trkpt>
      <trkpt lat="45.17126" lon="5.95977">
        <ele>2734.6</ele>
        <time>2021-02-20T12:28:39Z</time>
      </trkpt>
      <trkpt lat="45.17126" lon="5.95977">
        <ele>2734.6</ele>
        <time>2021-02-20T12:28:40Z</time>
      </trkpt>
      <trkpt lat="45.17126" lon="5.95977">
        <ele>2734.6</ele>
        <time>2021-02-20T12:28:41Z</time>
      </trkpt>
      <trkpt lat="45.17126" lon="5.95977">
        <ele>2734.6</ele>
        <time>2021-02-20T12:28:42Z</time>
      </trkpt>
      <trkpt lat="45.17126" lon="5.95977">
        <ele>2734.6</ele>
        <time>2021-02-20T12:28:43Z</time>
      </trkpt>
      <trkpt lat="45.17126" lon="5.95977">
        <ele>2734.6</ele>
        <time>2021-02-20T12:28:44Z</time>
      </trkpt>
      <trkpt lat="45.17126" lon="5.95977">
        <ele>2734.6</ele>
        <time>2021-02-20T12:28:45Z</time>
      </trkpt>
      <trkpt lat="45.17126" lon="5.95977">
        <ele>2734.6</ele>
        <time>2021-02-20T12:28:46Z</time>
      </trkpt>
      <trkpt lat="45.17126" lon="5.95977">
        <ele>2734.6</ele>
        <time>2021-02-20T12:28:47Z</time>
      </trkpt>
      <trkpt lat="45.17126" lon="5.95977">
        <ele>2734.6</ele>
        <time>2021-02-20T12:28:48Z</time>
      </trkpt>
      <trkpt lat="45.17126" lon="5.95977">
        <ele>2734.6</ele>
        <time>2021-02-20T12:28:49Z</time>
      </trkpt>
      <trkpt lat="45.17126" lon="5.95977">
        <ele>2734.6</ele>
        <time>2021-02-20T12:28:50Z</time>
      </trkpt>
      <trkpt lat="45.17126" lon="5.95977">
        <ele>2734.6</ele>
        <time>2021-02-20T12:28:51Z</time>
      </trkpt>
      <trkpt lat="45.17126" lon="5.95977">
        <ele>2734.6</ele>
        <time>2021-02-20T12:28:52Z</time>
      </trkpt>
      <trkpt lat="45.17126" lon="5.95977">
        <ele>2734.6</ele>
        <time>2021-02-20T12:28:53Z</time>
      </trkpt>
      <trkpt lat="45.17126" lon="5.95977">
        <ele>2734.6</ele>
        <time>2021-02-20T12:28:54Z</time>
      </trkpt>
      <trkpt lat="45.17126" lon="5.95977">
        <ele>2734.6</ele>
        <time>2021-02-20T12:28:55Z</time>
      </trkpt>
      <trkpt lat="45.17126" lon="5.95977">
        <ele>2734.6</ele>
        <time>2021-02-20T12:28:56Z</time>
      </trkpt>
      <trkpt lat="45.17126" lon="5.95977">
        <ele>2734.6</ele>
        <time>2021-02-20T12:28:57Z</time>
      </trkpt>
      <trkpt lat="45.17126" lon="5.95977">
        <ele>2734.6</ele>
        <time>2021-02-20T12:28:58Z</time>
      </trkpt>
      <trkpt lat="45.17126" lon="5.95977">
        <ele>2734.6</ele>
        <time>2021-02-20T12:28:59Z</time>
      </trkpt>
      <trkpt lat="45.17126" lon="5.95977">
        <ele>2734.6</ele>
        <time>2021-02-20T12:29:00Z</time>
      </trkpt>
      <trkpt lat="45.17126" lon="5.95977">
        <ele>2734.6</ele>
        <time>2021-02-20T12:29:01Z</time>
      </trkpt>
      <trkpt lat="45.17126" lon="5.95977">
        <ele>2734.6</ele>
        <time>2021-02-20T12:29:02Z</time>
      </trkpt>
      <trkpt lat="45.17126" lon="5.95977">
        <ele>2734.6</ele>
        <time>2021-02-20T12:29:03Z</time>
      </trkpt>
      <trkpt lat="45.17126" lon="5.95977">
        <ele>2734.6</ele>
        <time>2021-02-20T12:29:04Z</time>
      </trkpt>
      <trkpt lat="45.17126" lon="5.95977">
        <ele>2734.6</ele>
        <time>2021-02-20T12:29:05Z</time>
      </trkpt>
      <trkpt lat="45.17126" lon="5.95977">
        <ele>2734.6</ele>
        <time>2021-02-20T12:29:06Z</time>
      </trkpt>
      <trkpt lat="45.17126" lon="5.95977">
        <ele>2734.6</ele>
        <time>2021-02-20T12:29:07Z</time>
      </trkpt>
      <trkpt lat="45.17126" lon="5.95977">
        <ele>2734.6</ele>
        <time>2021-02-20T12:29:08Z</time>
      </trkpt>
      <trkpt lat="45.17126" lon="5.95977">
        <ele>2734.6</ele>
        <time>2021-02-20T12:29:09Z</time>
      </trkpt>
      <trkpt lat="45.17126" lon="5.95977">
        <ele>2734.6</ele>
        <time>2021-02-20T12:29:10Z</time>
      </trkpt>
      <trkpt lat="45.17126" lon="5.95977">
        <ele>2734.6</ele>
        <time>2021-02-20T12:29:11Z</time>
      </trkpt>
      <trkpt lat="45.17126" lon="5.95977">
        <ele>2734.6</ele>
        <time>2021-02-20T12:29:12Z</time>
      </trkpt>
      <trkpt lat="45.17126" lon="5.95977">
        <ele>2734.6</ele>
        <time>2021-02-20T12:29:13Z</time>
      </trkpt>
      <trkpt lat="45.17126" lon="5.95977">
        <ele>2734.6</ele>
        <time>2021-02-20T12:29:14Z</time>
      </trkpt>
      <trkpt lat="45.17126" lon="5.95977">
        <ele>2734.6</ele>
        <time>2021-02-20T12:29:15Z</time>
      </trkpt>
      <trkpt lat="45.17126" lon="5.95977">
        <ele>2734.6</ele>
        <time>2021-02-20T12:29:16Z</time>
      </trkpt>
      <trkpt lat="45.17126" lon="5.95977">
        <ele>2734.6</ele>
        <time>2021-02-20T12:29:17Z</time>
      </trkpt>
      <trkpt lat="45.17126" lon="5.95977">
        <ele>2734.6</ele>
        <time>2021-02-20T12:29:18Z</time>
      </trkpt>
      <trkpt lat="45.17126" lon="5.95977">
        <ele>2734.6</ele>
        <time>2021-02-20T12:29:19Z</time>
      </trkpt>
      <trkpt lat="45.17126" lon="5.95977">
        <ele>2734.6</ele>
        <time>2021-02-20T12:29:20Z</time>
      </trkpt>
      <trkpt lat="45.17126" lon="5.95977">
        <ele>2734.6</ele>
        <time>2021-02-20T12:29:21Z</time>
      </trkpt>
      <trkpt lat="45.17126" lon="5.95977">
        <ele>2734.6</ele>
        <time>2021-02-20T12:29:22Z</time>
      </trkpt>
      <trkpt lat="45.17126" lon="5.95977">
        <ele>2734.6</ele>
        <time>2021-02-20T12:29:23Z</time>
      </trkpt>
      <trkpt lat="45.17126" lon="5.95977">
        <ele>2734.6</ele>
        <time>2021-02-20T12:29:24Z</time>
      </trkpt>
      <trkpt lat="45.17126" lon="5.95977">
        <ele>2734.6</ele>
        <time>2021-02-20T12:29:25Z</time>
      </trkpt>
      <trkpt lat="45.17126" lon="5.95977">
        <ele>2734.6</ele>
        <time>2021-02-20T12:29:26Z</time>
      </trkpt>
      <trkpt lat="45.17126" lon="5.95977">
        <ele>2734.6</ele>
        <time>2021-02-20T12:29:27Z</time>
      </trkpt>
      <trkpt lat="45.17126" lon="5.95977">
        <ele>2734.6</ele>
        <time>2021-02-20T12:29:28Z</time>
      </trkpt>
      <trkpt lat="45.17126" lon="5.95977">
        <ele>2734.6</ele>
        <time>2021-02-20T12:29:29Z</time>
      </trkpt>
      <trkpt lat="45.17126" lon="5.95977">
        <ele>2734.6</ele>
        <time>2021-02-20T12:29:30Z</time>
      </trkpt>
      <trkpt lat="45.17126" lon="5.95977">
        <ele>2734.6</ele>
        <time>2021-02-20T12:29:31Z</time>
      </trkpt>
      <trkpt lat="45.17126" lon="5.95977">
        <ele>2734.6</ele>
        <time>2021-02-20T12:29:32Z</time>
      </trkpt>
      <trkpt lat="45.17126" lon="5.95977">
        <ele>2734.6</ele>
        <time>2021-02-20T12:29:33Z</time>
      </trkpt>
      <trkpt lat="45.17126" lon="5.95977">
        <ele>2734.6</ele>
        <time>2021-02-20T12:29:34Z</time>
      </trkpt>
      <trkpt lat="45.17126" lon="5.95977">
        <ele>2734.6</ele>
        <time>2021-02-20T12:29:35Z</time>
      </trkpt>
      <trkpt lat="45.17126" lon="5.95977">
        <ele>2734.6</ele>
        <time>2021-02-20T12:29:36Z</time>
      </trkpt>
      <trkpt lat="45.17126" lon="5.95977">
        <ele>2734.6</ele>
        <time>2021-02-20T12:29:37Z</time>
      </trkpt>
      <trkpt lat="45.17126" lon="5.95977">
        <ele>2734.6</ele>
        <time>2021-02-20T12:29:38Z</time>
      </trkpt>
      <trkpt lat="45.17126" lon="5.95977">
        <ele>2734.6</ele>
        <time>2021-02-20T12:29:39Z</time>
      </trkpt>
      <trkpt lat="45.17126" lon="5.95977">
        <ele>2734.6</ele>
        <time>2021-02-20T12:29:40Z</time>
      </trkpt>
      <trkpt lat="45.17126" lon="5.95977">
        <ele>2734.6</ele>
        <time>2021-02-20T12:29:41Z</time>
      </trkpt>
      <trkpt lat="45.17126" lon="5.95977">
        <ele>2734.6</ele>
        <time>2021-02-20T12:29:42Z</time>
      </trkpt>
      <trkpt lat="45.17126" lon="5.95977">
        <ele>2734.6</ele>
        <time>2021-02-20T12:29:43Z</time>
      </trkpt>
      <trkpt lat="45.17126" lon="5.95977">
        <ele>2734.6</ele>
        <time>2021-02-20T12:29:44Z</time>
      </trkpt>
      <trkpt lat="45.17125" lon="5.95977">
        <ele>2734.5</ele>
        <time>2021-02-20T12:29:45Z</time>
      </trkpt>
      <trkpt lat="45.17125" lon="5.95977">
        <ele>2734.5</ele>
        <time>2021-02-20T12:29:46Z</time>
      </trkpt>
      <trkpt lat="45.17125" lon="5.95977">
        <ele>2734.5</ele>
        <time>2021-02-20T12:29:47Z</time>
      </trkpt>
      <trkpt lat="45.17125" lon="5.95977">
        <ele>2734.5</ele>
        <time>2021-02-20T12:29:48Z</time>
      </trkpt>
      <trkpt lat="45.17125" lon="5.95977">
        <ele>2734.5</ele>
        <time>2021-02-20T12:29:49Z</time>
      </trkpt>
      <trkpt lat="45.17125" lon="5.95977">
        <ele>2734.5</ele>
        <time>2021-02-20T12:29:50Z</time>
      </trkpt>
      <trkpt lat="45.17125" lon="5.95977">
        <ele>2734.5</ele>
        <time>2021-02-20T12:29:51Z</time>
      </trkpt>
      <trkpt lat="45.17125" lon="5.95977">
        <ele>2734.5</ele>
        <time>2021-02-20T12:29:52Z</time>
      </trkpt>
      <trkpt lat="45.17125" lon="5.95977">
        <ele>2734.5</ele>
        <time>2021-02-20T12:29:53Z</time>
      </trkpt>
      <trkpt lat="45.17125" lon="5.95977">
        <ele>2734.5</ele>
        <time>2021-02-20T12:29:54Z</time>
      </trkpt>
      <trkpt lat="45.17125" lon="5.95977">
        <ele>2734.5</ele>
        <time>2021-02-20T12:29:55Z</time>
      </trkpt>
      <trkpt lat="45.17125" lon="5.95977">
        <ele>2734.5</ele>
        <time>2021-02-20T12:29:56Z</time>
      </trkpt>
      <trkpt lat="45.17125" lon="5.95977">
        <ele>2734.5</ele>
        <time>2021-02-20T12:29:57Z</time>
      </trkpt>
      <trkpt lat="45.17125" lon="5.95977">
        <ele>2734.5</ele>
        <time>2021-02-20T12:29:58Z</time>
      </trkpt>
      <trkpt lat="45.17125" lon="5.95977">
        <ele>2734.5</ele>
        <time>2021-02-20T12:29:59Z</time>
      </trkpt>
      <trkpt lat="45.17125" lon="5.95977">
        <ele>2734.5</ele>
        <time>2021-02-20T12:30:00Z</time>
      </trkpt>
      <trkpt lat="45.17125" lon="5.95977">
        <ele>2734.5</ele>
        <time>2021-02-20T12:30:01Z</time>
      </trkpt>
      <trkpt lat="45.17125" lon="5.95977">
        <ele>2734.5</ele>
        <time>2021-02-20T12:30:02Z</time>
      </trkpt>
      <trkpt lat="45.17125" lon="5.95977">
        <ele>2734.5</ele>
        <time>2021-02-20T12:30:03Z</time>
      </trkpt>
      <trkpt lat="45.17125" lon="5.95977">
        <ele>2734.5</ele>
        <time>2021-02-20T12:30:04Z</time>
      </trkpt>
      <trkpt lat="45.17125" lon="5.95977">
        <ele>2734.5</ele>
        <time>2021-02-20T12:30:05Z</time>
      </trkpt>
      <trkpt lat="45.17125" lon="5.95977">
        <ele>2734.5</ele>
        <time>2021-02-20T12:30:06Z</time>
      </trkpt>
      <trkpt lat="45.17125" lon="5.95977">
        <ele>2734.5</ele>
        <time>2021-02-20T12:30:07Z</time>
      </trkpt>
      <trkpt lat="45.17125" lon="5.95977">
        <ele>2734.5</ele>
        <time>2021-02-20T12:30:08Z</time>
      </trkpt>
      <trkpt lat="45.17125" lon="5.95977">
        <ele>2734.5</ele>
        <time>2021-02-20T12:30:09Z</time>
      </trkpt>
      <trkpt lat="45.17125" lon="5.95977">
        <ele>2734.5</ele>
        <time>2021-02-20T12:30:10Z</time>
      </trkpt>
      <trkpt lat="45.17125" lon="5.95977">
        <ele>2734.5</ele>
        <time>2021-02-20T12:30:11Z</time>
      </trkpt>
      <trkpt lat="45.17125" lon="5.95977">
        <ele>2734.5</ele>
        <time>2021-02-20T12:30:12Z</time>
      </trkpt>
      <trkpt lat="45.17125" lon="5.95977">
        <ele>2734.5</ele>
        <time>2021-02-20T12:30:13Z</time>
      </trkpt>
      <trkpt lat="45.17125" lon="5.95977">
        <ele>2734.5</ele>
        <time>2021-02-20T12:30:14Z</time>
      </trkpt>
      <trkpt lat="45.17125" lon="5.95977">
        <ele>2734.5</ele>
        <time>2021-02-20T12:30:15Z</time>
      </trkpt>
      <trkpt lat="45.17125" lon="5.95977">
        <ele>2734.5</ele>
        <time>2021-02-20T12:30:16Z</time>
      </trkpt>
      <trkpt lat="45.17125" lon="5.95977">
        <ele>2734.5</ele>
        <time>2021-02-20T12:30:17Z</time>
      </trkpt>
      <trkpt lat="45.17125" lon="5.95977">
        <ele>2734.5</ele>
        <time>2021-02-20T12:30:18Z</time>
      </trkpt>
      <trkpt lat="45.17125" lon="5.95977">
        <ele>2734.5</ele>
        <time>2021-02-20T12:30:19Z</time>
      </trkpt>
      <trkpt lat="45.17125" lon="5.95977">
        <ele>2734.5</ele>
        <time>2021-02-20T12:30:20Z</time>
      </trkpt>
      <trkpt lat="45.17125" lon="5.95977">
        <ele>2734.5</ele>
        <time>2021-02-20T12:30:21Z</time>
      </trkpt>
      <trkpt lat="45.17125" lon="5.95977">
        <ele>2734.5</ele>
        <time>2021-02-20T12:30:22Z</time>
      </trkpt>
      <trkpt lat="45.17125" lon="5.95977">
        <ele>2734.5</ele>
        <time>2021-02-20T12:30:23Z</time>
      </trkpt>
      <trkpt lat="45.17125" lon="5.95977">
        <ele>2734.5</ele>
        <time>2021-02-20T12:30:24Z</time>
      </trkpt>
      <trkpt lat="45.17125" lon="5.95977">
        <ele>2734.5</ele>
        <time>2021-02-20T12:30:25Z</time>
      </trkpt>
      <trkpt lat="45.17125" lon="5.95977">
        <ele>2734.5</ele>
        <time>2021-02-20T12:30:26Z</time>
      </trkpt>
      <trkpt lat="45.17125" lon="5.95977">
        <ele>2734.5</ele>
        <time>2021-02-20T12:30:27Z</time>
      </trkpt>
      <trkpt lat="45.17125" lon="5.95977">
        <ele>2734.5</ele>
        <time>2021-02-20T12:30:28Z</time>
      </trkpt>
      <trkpt lat="45.17125" lon="5.95977">
        <ele>2734.5</ele>
        <time>2021-02-20T12:30:29Z</time>
      </trkpt>
      <trkpt lat="45.17125" lon="5.95977">
        <ele>2734.5</ele>
        <time>2021-02-20T12:30:30Z</time>
      </trkpt>
      <trkpt lat="45.17125" lon="5.95977">
        <ele>2734.5</ele>
        <time>2021-02-20T12:30:31Z</time>
      </trkpt>
      <trkpt lat="45.17125" lon="5.95977">
        <ele>2734.5</ele>
        <time>2021-02-20T12:30:32Z</time>
      </trkpt>
      <trkpt lat="45.17125" lon="5.95977">
        <ele>2734.5</ele>
        <time>2021-02-20T12:30:33Z</time>
      </trkpt>
      <trkpt lat="45.17125" lon="5.95977">
        <ele>2734.5</ele>
        <time>2021-02-20T12:30:34Z</time>
      </trkpt>
      <trkpt lat="45.17125" lon="5.95977">
        <ele>2734.5</ele>
        <time>2021-02-20T12:30:35Z</time>
      </trkpt>
      <trkpt lat="45.17125" lon="5.95977">
        <ele>2734.5</ele>
        <time>2021-02-20T12:30:36Z</time>
      </trkpt>
      <trkpt lat="45.17125" lon="5.95977">
        <ele>2734.5</ele>
        <time>2021-02-20T12:30:37Z</time>
      </trkpt>
      <trkpt lat="45.17125" lon="5.95977">
        <ele>2734.5</ele>
        <time>2021-02-20T12:30:38Z</time>
      </trkpt>
      <trkpt lat="45.17125" lon="5.95977">
        <ele>2734.5</ele>
        <time>2021-02-20T12:30:39Z</time>
      </trkpt>
      <trkpt lat="45.17125" lon="5.95977">
        <ele>2734.5</ele>
        <time>2021-02-20T12:30:40Z</time>
      </trkpt>
      <trkpt lat="45.17125" lon="5.95977">
        <ele>2734.5</ele>
        <time>2021-02-20T12:30:41Z</time>
      </trkpt>
      <trkpt lat="45.17125" lon="5.95977">
        <ele>2734.5</ele>
        <time>2021-02-20T12:30:42Z</time>
      </trkpt>
      <trkpt lat="45.17125" lon="5.95977">
        <ele>2734.5</ele>
        <time>2021-02-20T12:30:43Z</time>
      </trkpt>
      <trkpt lat="45.17125" lon="5.95977">
        <ele>2734.5</ele>
        <time>2021-02-20T12:30:44Z</time>
      </trkpt>
      <trkpt lat="45.17125" lon="5.95977">
        <ele>2734.5</ele>
        <time>2021-02-20T12:30:45Z</time>
      </trkpt>
      <trkpt lat="45.17125" lon="5.95977">
        <ele>2734.5</ele>
        <time>2021-02-20T12:30:46Z</time>
      </trkpt>
      <trkpt lat="45.17125" lon="5.95977">
        <ele>2734.5</ele>
        <time>2021-02-20T12:30:47Z</time>
      </trkpt>
      <trkpt lat="45.17125" lon="5.95977">
        <ele>2734.5</ele>
        <time>2021-02-20T12:30:48Z</time>
      </trkpt>
      <trkpt lat="45.17125" lon="5.95977">
        <ele>2734.5</ele>
        <time>2021-02-20T12:30:49Z</time>
      </trkpt>
      <trkpt lat="45.17125" lon="5.95977">
        <ele>2734.5</ele>
        <time>2021-02-20T12:30:50Z</time>
      </trkpt>
      <trkpt lat="45.17125" lon="5.95977">
        <ele>2734.5</ele>
        <time>2021-02-20T12:30:51Z</time>
      </trkpt>
      <trkpt lat="45.17125" lon="5.95977">
        <ele>2734.5</ele>
        <time>2021-02-20T12:30:52Z</time>
      </trkpt>
      <trkpt lat="45.17125" lon="5.95977">
        <ele>2734.5</ele>
        <time>2021-02-20T12:30:53Z</time>
      </trkpt>
      <trkpt lat="45.17125" lon="5.95977">
        <ele>2734.5</ele>
        <time>2021-02-20T12:30:54Z</time>
      </trkpt>
      <trkpt lat="45.17125" lon="5.95977">
        <ele>2734.5</ele>
        <time>2021-02-20T12:30:55Z</time>
      </trkpt>
      <trkpt lat="45.17125" lon="5.95977">
        <ele>2734.5</ele>
        <time>2021-02-20T12:30:56Z</time>
      </trkpt>
      <trkpt lat="45.17125" lon="5.95977">
        <ele>2734.5</ele>
        <time>2021-02-20T12:30:57Z</time>
      </trkpt>
      <trkpt lat="45.17125" lon="5.95977">
        <ele>2734.5</ele>
        <time>2021-02-20T12:30:58Z</time>
      </trkpt>
      <trkpt lat="45.17125" lon="5.95977">
        <ele>2734.5</ele>
        <time>2021-02-20T12:30:59Z</time>
      </trkpt>
      <trkpt lat="45.17125" lon="5.95977">
        <ele>2734.5</ele>
        <time>2021-02-20T12:31:00Z</time>
      </trkpt>
      <trkpt lat="45.17125" lon="5.95977">
        <ele>2734.5</ele>
        <time>2021-02-20T12:31:01Z</time>
      </trkpt>
      <trkpt lat="45.17125" lon="5.95977">
        <ele>2734.5</ele>
        <time>2021-02-20T12:31:02Z</time>
      </trkpt>
      <trkpt lat="45.17125" lon="5.95977">
        <ele>2734.5</ele>
        <time>2021-02-20T12:31:03Z</time>
      </trkpt>
      <trkpt lat="45.17125" lon="5.95977">
        <ele>2734.5</ele>
        <time>2021-02-20T12:31:04Z</time>
      </trkpt>
      <trkpt lat="45.17125" lon="5.95977">
        <ele>2734.5</ele>
        <time>2021-02-20T12:31:05Z</time>
      </trkpt>
      <trkpt lat="45.17125" lon="5.95977">
        <ele>2734.5</ele>
        <time>2021-02-20T12:31:06Z</time>
      </trkpt>
      <trkpt lat="45.17125" lon="5.95977">
        <ele>2734.5</ele>
        <time>2021-02-20T12:31:07Z</time>
      </trkpt>
      <trkpt lat="45.17125" lon="5.95977">
        <ele>2734.5</ele>
        <time>2021-02-20T12:31:08Z</time>
      </trkpt>
      <trkpt lat="45.17125" lon="5.95977">
        <ele>2734.5</ele>
        <time>2021-02-20T12:31:09Z</time>
      </trkpt>
      <trkpt lat="45.17125" lon="5.95977">
        <ele>2734.5</ele>
        <time>2021-02-20T12:31:10Z</time>
      </trkpt>
      <trkpt lat="45.17125" lon="5.95977">
        <ele>2734.5</ele>
        <time>2021-02-20T12:31:11Z</time>
      </trkpt>
      <trkpt lat="45.17125" lon="5.95977">
        <ele>2734.5</ele>
        <time>2021-02-20T12:31:12Z</time>
      </trkpt>
      <trkpt lat="45.17125" lon="5.95977">
        <ele>2734.5</ele>
        <time>2021-02-20T12:31:13Z</time>
      </trkpt>
      <trkpt lat="45.17125" lon="5.95977">
        <ele>2734.5</ele>
        <time>2021-02-20T12:31:14Z</time>
      </trkpt>
      <trkpt lat="45.17125" lon="5.95977">
        <ele>2734.5</ele>
        <time>2021-02-20T12:31:15Z</time>
      </trkpt>
      <trkpt lat="45.17125" lon="5.95977">
        <ele>2734.5</ele>
        <time>2021-02-20T12:31:16Z</time>
      </trkpt>
      <trkpt lat="45.17125" lon="5.95977">
        <ele>2734.5</ele>
        <time>2021-02-20T12:31:17Z</time>
      </trkpt>
      <trkpt lat="45.17125" lon="5.95977">
        <ele>2734.5</ele>
        <time>2021-02-20T12:31:18Z</time>
      </trkpt>
      <trkpt lat="45.17125" lon="5.95977">
        <ele>2734.5</ele>
        <time>2021-02-20T12:31:19Z</time>
      </trkpt>
      <trkpt lat="45.17126" lon="5.95977">
        <ele>2734.5</ele>
        <time>2021-02-20T12:31:20Z</time>
      </trkpt>
      <trkpt lat="45.17126" lon="5.95977">
        <ele>2734.5</ele>
        <time>2021-02-20T12:31:21Z</time>
      </trkpt>
      <trkpt lat="45.17126" lon="5.95977">
        <ele>2734.4</ele>
        <time>2021-02-20T12:31:22Z</time>
      </trkpt>
      <trkpt lat="45.17126" lon="5.95977">
        <ele>2734.4</ele>
        <time>2021-02-20T12:31:23Z</time>
      </trkpt>
      <trkpt lat="45.17126" lon="5.95977">
        <ele>2734.4</ele>
        <time>2021-02-20T12:31:24Z</time>
      </trkpt>
      <trkpt lat="45.17126" lon="5.95977">
        <ele>2734.4</ele>
        <time>2021-02-20T12:31:25Z</time>
      </trkpt>
      <trkpt lat="45.17126" lon="5.95977">
        <ele>2734.4</ele>
        <time>2021-02-20T12:31:26Z</time>
      </trkpt>
      <trkpt lat="45.17126" lon="5.95977">
        <ele>2734.4</ele>
        <time>2021-02-20T12:31:27Z</time>
      </trkpt>
      <trkpt lat="45.17126" lon="5.95977">
        <ele>2734.4</ele>
        <time>2021-02-20T12:31:28Z</time>
      </trkpt>
      <trkpt lat="45.17126" lon="5.95977">
        <ele>2734.4</ele>
        <time>2021-02-20T12:31:29Z</time>
      </trkpt>
      <trkpt lat="45.17126" lon="5.95977">
        <ele>2734.4</ele>
        <time>2021-02-20T12:31:30Z</time>
      </trkpt>
      <trkpt lat="45.17126" lon="5.95977">
        <ele>2734.4</ele>
        <time>2021-02-20T12:31:31Z</time>
      </trkpt>
      <trkpt lat="45.17126" lon="5.95977">
        <ele>2734.4</ele>
        <time>2021-02-20T12:31:32Z</time>
      </trkpt>
      <trkpt lat="45.17126" lon="5.95977">
        <ele>2734.4</ele>
        <time>2021-02-20T12:31:33Z</time>
      </trkpt>
      <trkpt lat="45.17126" lon="5.95977">
        <ele>2734.4</ele>
        <time>2021-02-20T12:31:34Z</time>
      </trkpt>
      <trkpt lat="45.17126" lon="5.95977">
        <ele>2734.4</ele>
        <time>2021-02-20T12:31:35Z</time>
      </trkpt>
      <trkpt lat="45.17126" lon="5.95977">
        <ele>2734.4</ele>
        <time>2021-02-20T12:31:36Z</time>
      </trkpt>
      <trkpt lat="45.17126" lon="5.95977">
        <ele>2734.4</ele>
        <time>2021-02-20T12:31:37Z</time>
      </trkpt>
      <trkpt lat="45.17126" lon="5.95977">
        <ele>2734.4</ele>
        <time>2021-02-20T12:31:38Z</time>
      </trkpt>
      <trkpt lat="45.17126" lon="5.95977">
        <ele>2734.4</ele>
        <time>2021-02-20T12:31:39Z</time>
      </trkpt>
      <trkpt lat="45.17126" lon="5.95977">
        <ele>2734.4</ele>
        <time>2021-02-20T12:31:40Z</time>
      </trkpt>
      <trkpt lat="45.17126" lon="5.95977">
        <ele>2734.4</ele>
        <time>2021-02-20T12:31:41Z</time>
      </trkpt>
      <trkpt lat="45.17126" lon="5.95977">
        <ele>2734.4</ele>
        <time>2021-02-20T12:31:42Z</time>
      </trkpt>
      <trkpt lat="45.17126" lon="5.95977">
        <ele>2734.4</ele>
        <time>2021-02-20T12:31:43Z</time>
      </trkpt>
      <trkpt lat="45.17126" lon="5.95977">
        <ele>2734.4</ele>
        <time>2021-02-20T12:31:44Z</time>
      </trkpt>
      <trkpt lat="45.17126" lon="5.95977">
        <ele>2734.4</ele>
        <time>2021-02-20T12:31:45Z</time>
      </trkpt>
      <trkpt lat="45.17126" lon="5.95977">
        <ele>2734.4</ele>
        <time>2021-02-20T12:31:46Z</time>
      </trkpt>
      <trkpt lat="45.17126" lon="5.95977">
        <ele>2734.4</ele>
        <time>2021-02-20T12:31:47Z</time>
      </trkpt>
      <trkpt lat="45.17126" lon="5.95977">
        <ele>2734.4</ele>
        <time>2021-02-20T12:31:48Z</time>
      </trkpt>
      <trkpt lat="45.17126" lon="5.95977">
        <ele>2734.4</ele>
        <time>2021-02-20T12:31:49Z</time>
      </trkpt>
      <trkpt lat="45.17127" lon="5.9598">
        <ele>2734.2</ele>
        <time>2021-02-20T12:31:50Z</time>
      </trkpt>
      <trkpt lat="45.17127" lon="5.95981">
        <ele>2734.1</ele>
        <time>2021-02-20T12:31:51Z</time>
      </trkpt>
      <trkpt lat="45.17128" lon="5.95982">
        <ele>2734</ele>
        <time>2021-02-20T12:31:52Z</time>
      </trkpt>
      <trkpt lat="45.17129" lon="5.95985">
        <ele>2733.6</ele>
        <time>2021-02-20T12:31:53Z</time>
      </trkpt>
      <trkpt lat="45.17132" lon="5.95988">
        <ele>2733.2</ele>
        <time>2021-02-20T12:31:54Z</time>
      </trkpt>
      <trkpt lat="45.17132" lon="5.9599">
        <ele>2733</ele>
        <time>2021-02-20T12:31:55Z</time>
      </trkpt>
      <trkpt lat="45.17133" lon="5.95992">
        <ele>2732.7</ele>
        <time>2021-02-20T12:31:56Z</time>
      </trkpt>
      <trkpt lat="45.17134" lon="5.95994">
        <ele>2732.5</ele>
        <time>2021-02-20T12:31:57Z</time>
      </trkpt>
      <trkpt lat="45.17134" lon="5.95994">
        <ele>2732.5</ele>
        <time>2021-02-20T12:31:58Z</time>
      </trkpt>
      <trkpt lat="45.17134" lon="5.95994">
        <ele>2732.5</ele>
        <time>2021-02-20T12:31:59Z</time>
      </trkpt>
      <trkpt lat="45.17134" lon="5.95994">
        <ele>2732.5</ele>
        <time>2021-02-20T12:32:00Z</time>
      </trkpt>
      <trkpt lat="45.17132" lon="5.95996">
        <ele>2732.3</ele>
        <time>2021-02-20T12:32:01Z</time>
      </trkpt>
      <trkpt lat="45.17132" lon="5.95996">
        <ele>2732.3</ele>
        <time>2021-02-20T12:32:02Z</time>
      </trkpt>
      <trkpt lat="45.17132" lon="5.95996">
        <ele>2732.3</ele>
        <time>2021-02-20T12:32:03Z</time>
      </trkpt>
      <trkpt lat="45.17132" lon="5.95996">
        <ele>2732.3</ele>
        <time>2021-02-20T12:32:04Z</time>
      </trkpt>
      <trkpt lat="45.17132" lon="5.95996">
        <ele>2732.3</ele>
        <time>2021-02-20T12:32:05Z</time>
      </trkpt>
      <trkpt lat="45.17132" lon="5.95996">
        <ele>2732.3</ele>
        <time>2021-02-20T12:32:06Z</time>
      </trkpt>
      <trkpt lat="45.17132" lon="5.95996">
        <ele>2732.3</ele>
        <time>2021-02-20T12:32:07Z</time>
      </trkpt>
      <trkpt lat="45.17132" lon="5.95996">
        <ele>2732.3</ele>
        <time>2021-02-20T12:32:08Z</time>
      </trkpt>
      <trkpt lat="45.17132" lon="5.95996">
        <ele>2732.3</ele>
        <time>2021-02-20T12:32:09Z</time>
      </trkpt>
      <trkpt lat="45.17132" lon="5.95996">
        <ele>2732.3</ele>
        <time>2021-02-20T12:32:10Z</time>
      </trkpt>
      <trkpt lat="45.17132" lon="5.95996">
        <ele>2732.3</ele>
        <time>2021-02-20T12:32:11Z</time>
      </trkpt>
      <trkpt lat="45.17132" lon="5.95996">
        <ele>2732.3</ele>
        <time>2021-02-20T12:32:12Z</time>
      </trkpt>
      <trkpt lat="45.17132" lon="5.95996">
        <ele>2732.3</ele>
        <time>2021-02-20T12:32:13Z</time>
      </trkpt>
      <trkpt lat="45.17132" lon="5.95996">
        <ele>2732.3</ele>
        <time>2021-02-20T12:32:14Z</time>
      </trkpt>
      <trkpt lat="45.17133" lon="5.95997">
        <ele>2732.1</ele>
        <time>2021-02-20T12:32:15Z</time>
      </trkpt>
      <trkpt lat="45.17133" lon="5.95998">
        <ele>2731.9</ele>
        <time>2021-02-20T12:32:16Z</time>
      </trkpt>
      <trkpt lat="45.17129" lon="5.95996">
        <ele>2731.3</ele>
        <time>2021-02-20T12:32:17Z</time>
      </trkpt>
      <trkpt lat="45.17126" lon="5.95995">
        <ele>2730.8</ele>
        <time>2021-02-20T12:32:18Z</time>
      </trkpt>
      <trkpt lat="45.17122" lon="5.95993">
        <ele>2730.2</ele>
        <time>2021-02-20T12:32:19Z</time>
      </trkpt>
      <trkpt lat="45.1712" lon="5.95991">
        <ele>2729.8</ele>
        <time>2021-02-20T12:32:20Z</time>
      </trkpt>
      <trkpt lat="45.17118" lon="5.95991">
        <ele>2729.5</ele>
        <time>2021-02-20T12:32:21Z</time>
      </trkpt>
      <trkpt lat="45.17116" lon="5.95992">
        <ele>2729.1</ele>
        <time>2021-02-20T12:32:22Z</time>
      </trkpt>
      <trkpt lat="45.17113" lon="5.95992">
        <ele>2728.6</ele>
        <time>2021-02-20T12:32:23Z</time>
      </trkpt>
      <trkpt lat="45.17111" lon="5.95993">
        <ele>2728.3</ele>
        <time>2021-02-20T12:32:24Z</time>
      </trkpt>
      <trkpt lat="45.17111" lon="5.95996">
        <ele>2728</ele>
        <time>2021-02-20T12:32:25Z</time>
      </trkpt>
      <trkpt lat="45.17113" lon="5.96003">
        <ele>2727.1</ele>
        <time>2021-02-20T12:32:26Z</time>
      </trkpt>
      <trkpt lat="45.17115" lon="5.96006">
        <ele>2726.6</ele>
        <time>2021-02-20T12:32:27Z</time>
      </trkpt>
      <trkpt lat="45.17119" lon="5.96022">
        <ele>2724.5</ele>
        <time>2021-02-20T12:32:28Z</time>
      </trkpt>
      <trkpt lat="45.17119" lon="5.96029">
        <ele>2723.6</ele>
        <time>2021-02-20T12:32:29Z</time>
      </trkpt>
      <trkpt lat="45.17116" lon="5.96039">
        <ele>2722.3</ele>
        <time>2021-02-20T12:32:30Z</time>
      </trkpt>
      <trkpt lat="45.17118" lon="5.96038">
        <ele>2721.9</ele>
        <time>2021-02-20T12:32:31Z</time>
      </trkpt>
      <trkpt lat="45.1712" lon="5.96039">
        <ele>2721.6</ele>
        <time>2021-02-20T12:32:32Z</time>
      </trkpt>
      <trkpt lat="45.17121" lon="5.96043">
        <ele>2721.2</ele>
        <time>2021-02-20T12:32:33Z</time>
      </trkpt>
      <trkpt lat="45.17121" lon="5.96044">
        <ele>2721.1</ele>
        <time>2021-02-20T12:32:34Z</time>
      </trkpt>
      <trkpt lat="45.17124" lon="5.96047">
        <ele>2720.5</ele>
        <time>2021-02-20T12:32:35Z</time>
      </trkpt>
      <trkpt lat="45.17124" lon="5.96049">
        <ele>2720.3</ele>
        <time>2021-02-20T12:32:36Z</time>
      </trkpt>
      <trkpt lat="45.17127" lon="5.96052">
        <ele>2719.8</ele>
        <time>2021-02-20T12:32:37Z</time>
      </trkpt>
      <trkpt lat="45.17128" lon="5.96053">
        <ele>2719.6</ele>
        <time>2021-02-20T12:32:38Z</time>
      </trkpt>
      <trkpt lat="45.17131" lon="5.96055">
        <ele>2719.1</ele>
        <time>2021-02-20T12:32:39Z</time>
      </trkpt>
      <trkpt lat="45.17133" lon="5.96058">
        <ele>2718.6</ele>
        <time>2021-02-20T12:32:40Z</time>
      </trkpt>
      <trkpt lat="45.17136" lon="5.96061">
        <ele>2718</ele>
        <time>2021-02-20T12:32:41Z</time>
      </trkpt>
      <trkpt lat="45.17138" lon="5.96062">
        <ele>2717.8</ele>
        <time>2021-02-20T12:32:42Z</time>
      </trkpt>
      <trkpt lat="45.1714" lon="5.96065">
        <ele>2717.3</ele>
        <time>2021-02-20T12:32:43Z</time>
      </trkpt>
      <trkpt lat="45.17143" lon="5.96068">
        <ele>2716.7</ele>
        <time>2021-02-20T12:32:44Z</time>
      </trkpt>
      <trkpt lat="45.17146" lon="5.96072">
        <ele>2716</ele>
        <time>2021-02-20T12:32:45Z</time>
      </trkpt>
      <trkpt lat="45.17149" lon="5.96074">
        <ele>2715.5</ele>
        <time>2021-02-20T12:32:46Z</time>
      </trkpt>
      <trkpt lat="45.17152" lon="5.96078">
        <ele>2714.9</ele>
        <time>2021-02-20T12:32:47Z</time>
      </trkpt>
      <trkpt lat="45.17153" lon="5.96079">
        <ele>2714.7</ele>
        <time>2021-02-20T12:32:48Z</time>
      </trkpt>
      <trkpt lat="45.17155" lon="5.96082">
        <ele>2714.3</ele>
        <time>2021-02-20T12:32:49Z</time>
      </trkpt>
      <trkpt lat="45.17158" lon="5.96086">
        <ele>2713.7</ele>
        <time>2021-02-20T12:32:50Z</time>
      </trkpt>
      <trkpt lat="45.1716" lon="5.96089">
        <ele>2713.1</ele>
        <time>2021-02-20T12:32:51Z</time>
      </trkpt>
      <trkpt lat="45.17163" lon="5.96092">
        <ele>2712.6</ele>
        <time>2021-02-20T12:32:52Z</time>
      </trkpt>
      <trkpt lat="45.17164" lon="5.96092">
        <ele>2712.5</ele>
        <time>2021-02-20T12:32:53Z</time>
      </trkpt>
      <trkpt lat="45.17165" lon="5.96097">
        <ele>2711.9</ele>
        <time>2021-02-20T12:32:54Z</time>
      </trkpt>
      <trkpt lat="45.17166" lon="5.961">
        <ele>2711.5</ele>
        <time>2021-02-20T12:32:55Z</time>
      </trkpt>
      <trkpt lat="45.17164" lon="5.96105">
        <ele>2710.8</ele>
        <time>2021-02-20T12:32:56Z</time>
      </trkpt>
      <trkpt lat="45.17163" lon="5.96106">
        <ele>2710.5</ele>
        <time>2021-02-20T12:32:57Z</time>
      </trkpt>
      <trkpt lat="45.17165" lon="5.9611">
        <ele>2710</ele>
        <time>2021-02-20T12:32:58Z</time>
      </trkpt>
      <trkpt lat="45.17165" lon="5.96112">
        <ele>2709.6</ele>
        <time>2021-02-20T12:32:59Z</time>
      </trkpt>
      <trkpt lat="45.17167" lon="5.96117">
        <ele>2708.9</ele>
        <time>2021-02-20T12:33:00Z</time>
      </trkpt>
      <trkpt lat="45.1717" lon="5.96121">
        <ele>2708.1</ele>
        <time>2021-02-20T12:33:01Z</time>
      </trkpt>
      <trkpt lat="45.17173" lon="5.96124">
        <ele>2707.5</ele>
        <time>2021-02-20T12:33:02Z</time>
      </trkpt>
      <trkpt lat="45.17174" lon="5.96125">
        <ele>2707.3</ele>
        <time>2021-02-20T12:33:03Z</time>
      </trkpt>
      <trkpt lat="45.17175" lon="5.96129">
        <ele>2706.7</ele>
        <time>2021-02-20T12:33:04Z</time>
      </trkpt>
      <trkpt lat="45.17176" lon="5.9613">
        <ele>2706.5</ele>
        <time>2021-02-20T12:33:05Z</time>
      </trkpt>
      <trkpt lat="45.17176" lon="5.96132">
        <ele>2706.3</ele>
        <time>2021-02-20T12:33:06Z</time>
      </trkpt>
      <trkpt lat="45.17176" lon="5.96132">
        <ele>2706.3</ele>
        <time>2021-02-20T12:33:07Z</time>
      </trkpt>
      <trkpt lat="45.17176" lon="5.96132">
        <ele>2706.3</ele>
        <time>2021-02-20T12:33:08Z</time>
      </trkpt>
      <trkpt lat="45.17176" lon="5.96132">
        <ele>2706.3</ele>
        <time>2021-02-20T12:33:09Z</time>
      </trkpt>
      <trkpt lat="45.17176" lon="5.96132">
        <ele>2706.3</ele>
        <time>2021-02-20T12:33:10Z</time>
      </trkpt>
      <trkpt lat="45.17176" lon="5.96132">
        <ele>2706.3</ele>
        <time>2021-02-20T12:33:11Z</time>
      </trkpt>
      <trkpt lat="45.17177" lon="5.96132">
        <ele>2706.2</ele>
        <time>2021-02-20T12:33:12Z</time>
      </trkpt>
      <trkpt lat="45.17177" lon="5.96134">
        <ele>2705.8</ele>
        <time>2021-02-20T12:33:13Z</time>
      </trkpt>
      <trkpt lat="45.17176" lon="5.96139">
        <ele>2705.2</ele>
        <time>2021-02-20T12:33:14Z</time>
      </trkpt>
      <trkpt lat="45.17175" lon="5.96142">
        <ele>2704.8</ele>
        <time>2021-02-20T12:33:15Z</time>
      </trkpt>
      <trkpt lat="45.17172" lon="5.96146">
        <ele>2704.1</ele>
        <time>2021-02-20T12:33:16Z</time>
      </trkpt>
      <trkpt lat="45.1717" lon="5.96146">
        <ele>2703.5</ele>
        <time>2021-02-20T12:33:17Z</time>
      </trkpt>
      <trkpt lat="45.17166" lon="5.96145">
        <ele>2702.9</ele>
        <time>2021-02-20T12:33:18Z</time>
      </trkpt>
      <trkpt lat="45.17163" lon="5.96145">
        <ele>2702.3</ele>
        <time>2021-02-20T12:33:19Z</time>
      </trkpt>
      <trkpt lat="45.17159" lon="5.96146">
        <ele>2701.6</ele>
        <time>2021-02-20T12:33:20Z</time>
      </trkpt>
      <trkpt lat="45.17158" lon="5.96146">
        <ele>2701.3</ele>
        <time>2021-02-20T12:33:21Z</time>
      </trkpt>
      <trkpt lat="45.17155" lon="5.96142">
        <ele>2700.6</ele>
        <time>2021-02-20T12:33:22Z</time>
      </trkpt>
      <trkpt lat="45.17151" lon="5.9614">
        <ele>2699.9</ele>
        <time>2021-02-20T12:33:23Z</time>
      </trkpt>
      <trkpt lat="45.1715" lon="5.9614">
        <ele>2699.6</ele>
        <time>2021-02-20T12:33:24Z</time>
      </trkpt>
      <trkpt lat="45.17148" lon="5.96138">
        <ele>2699.1</ele>
        <time>2021-02-20T12:33:25Z</time>
      </trkpt>
      <trkpt lat="45.17144" lon="5.96137">
        <ele>2698.5</ele>
        <time>2021-02-20T12:33:26Z</time>
      </trkpt>
      <trkpt lat="45.1714" lon="5.96137">
        <ele>2697.8</ele>
        <time>2021-02-20T12:33:27Z</time>
      </trkpt>
      <trkpt lat="45.17137" lon="5.96136">
        <ele>2697.1</ele>
        <time>2021-02-20T12:33:28Z</time>
      </trkpt>
      <trkpt lat="45.17133" lon="5.96136">
        <ele>2696.4</ele>
        <time>2021-02-20T12:33:29Z</time>
      </trkpt>
      <trkpt lat="45.17131" lon="5.96139">
        <ele>2695.9</ele>
        <time>2021-02-20T12:33:30Z</time>
      </trkpt>
      <trkpt lat="45.17128" lon="5.9614">
        <ele>2695.2</ele>
        <time>2021-02-20T12:33:31Z</time>
      </trkpt>
      <trkpt lat="45.17124" lon="5.96143">
        <ele>2694.5</ele>
        <time>2021-02-20T12:33:32Z</time>
      </trkpt>
      <trkpt lat="45.17121" lon="5.96144">
        <ele>2693.9</ele>
        <time>2021-02-20T12:33:33Z</time>
      </trkpt>
      <trkpt lat="45.17118" lon="5.96146">
        <ele>2693.3</ele>
        <time>2021-02-20T12:33:34Z</time>
      </trkpt>
      <trkpt lat="45.17115" lon="5.96148">
        <ele>2692.6</ele>
        <time>2021-02-20T12:33:35Z</time>
      </trkpt>
      <trkpt lat="45.17113" lon="5.9615">
        <ele>2692.3</ele>
        <time>2021-02-20T12:33:36Z</time>
      </trkpt>
      <trkpt lat="45.17113" lon="5.96152">
        <ele>2692</ele>
        <time>2021-02-20T12:33:37Z</time>
      </trkpt>
      <trkpt lat="45.17118" lon="5.96155">
        <ele>2691</ele>
        <time>2021-02-20T12:33:38Z</time>
      </trkpt>
      <trkpt lat="45.17117" lon="5.96161">
        <ele>2690.2</ele>
        <time>2021-02-20T12:33:39Z</time>
      </trkpt>
      <trkpt lat="45.17116" lon="5.9616">
        <ele>2689.8</ele>
        <time>2021-02-20T12:33:40Z</time>
      </trkpt>
      <trkpt lat="45.17116" lon="5.96163">
        <ele>2689.4</ele>
        <time>2021-02-20T12:33:41Z</time>
      </trkpt>
      <trkpt lat="45.17115" lon="5.96166">
        <ele>2689</ele>
        <time>2021-02-20T12:33:42Z</time>
      </trkpt>
      <trkpt lat="45.17114" lon="5.96168">
        <ele>2688.6</ele>
        <time>2021-02-20T12:33:43Z</time>
      </trkpt>
      <trkpt lat="45.17115" lon="5.9617">
        <ele>2688.2</ele>
        <time>2021-02-20T12:33:44Z</time>
      </trkpt>
      <trkpt lat="45.17115" lon="5.96175">
        <ele>2687.6</ele>
        <time>2021-02-20T12:33:45Z</time>
      </trkpt>
      <trkpt lat="45.17115" lon="5.96177">
        <ele>2687.3</ele>
        <time>2021-02-20T12:33:46Z</time>
      </trkpt>
      <trkpt lat="45.17113" lon="5.96186">
        <ele>2686.1</ele>
        <time>2021-02-20T12:33:47Z</time>
      </trkpt>
      <trkpt lat="45.17113" lon="5.96194">
        <ele>2685.1</ele>
        <time>2021-02-20T12:33:48Z</time>
      </trkpt>
      <trkpt lat="45.17107" lon="5.96196">
        <ele>2684</ele>
        <time>2021-02-20T12:33:49Z</time>
      </trkpt>
      <trkpt lat="45.17106" lon="5.96201">
        <ele>2683.3</ele>
        <time>2021-02-20T12:33:50Z</time>
      </trkpt>
      <trkpt lat="45.17107" lon="5.96206">
        <ele>2682.6</ele>
        <time>2021-02-20T12:33:51Z</time>
      </trkpt>
      <trkpt lat="45.17107" lon="5.96213">
        <ele>2681.8</ele>
        <time>2021-02-20T12:33:52Z</time>
      </trkpt>
      <trkpt lat="45.17108" lon="5.96218">
        <ele>2681</ele>
        <time>2021-02-20T12:33:53Z</time>
      </trkpt>
      <trkpt lat="45.17101" lon="5.96219">
        <ele>2679.8</ele>
        <time>2021-02-20T12:33:54Z</time>
      </trkpt>
      <trkpt lat="45.17099" lon="5.96222">
        <ele>2679.2</ele>
        <time>2021-02-20T12:33:55Z</time>
      </trkpt>
      <trkpt lat="45.17103" lon="5.96213">
        <ele>2677.8</ele>
        <time>2021-02-20T12:33:56Z</time>
      </trkpt>
      <trkpt lat="45.17103" lon="5.96214">
        <ele>2677.7</ele>
        <time>2021-02-20T12:33:57Z</time>
      </trkpt>
      <trkpt lat="45.17103" lon="5.96214">
        <ele>2677.6</ele>
        <time>2021-02-20T12:33:58Z</time>
      </trkpt>
      <trkpt lat="45.17103" lon="5.96215">
        <ele>2677.4</ele>
        <time>2021-02-20T12:33:59Z</time>
      </trkpt>
      <trkpt lat="45.17104" lon="5.96216">
        <ele>2677.3</ele>
        <time>2021-02-20T12:34:00Z</time>
      </trkpt>
      <trkpt lat="45.17104" lon="5.96217">
        <ele>2677.2</ele>
        <time>2021-02-20T12:34:01Z</time>
      </trkpt>
      <trkpt lat="45.17104" lon="5.96218">
        <ele>2677.1</ele>
        <time>2021-02-20T12:34:02Z</time>
      </trkpt>
      <trkpt lat="45.17104" lon="5.96219">
        <ele>2677</ele>
        <time>2021-02-20T12:34:03Z</time>
      </trkpt>
      <trkpt lat="45.17106" lon="5.96224">
        <ele>2676.2</ele>
        <time>2021-02-20T12:34:04Z</time>
      </trkpt>
      <trkpt lat="45.17104" lon="5.96227">
        <ele>2675.7</ele>
        <time>2021-02-20T12:34:05Z</time>
      </trkpt>
      <trkpt lat="45.17101" lon="5.96229">
        <ele>2675.1</ele>
        <time>2021-02-20T12:34:06Z</time>
      </trkpt>
      <trkpt lat="45.171" lon="5.96232">
        <ele>2674.6</ele>
        <time>2021-02-20T12:34:07Z</time>
      </trkpt>
      <trkpt lat="45.171" lon="5.96232">
        <ele>2674.6</ele>
        <time>2021-02-20T12:34:08Z</time>
      </trkpt>
      <trkpt lat="45.17101" lon="5.96232">
        <ele>2674.5</ele>
        <time>2021-02-20T12:34:09Z</time>
      </trkpt>
      <trkpt lat="45.17101" lon="5.96232">
        <ele>2674.5</ele>
        <time>2021-02-20T12:34:10Z</time>
      </trkpt>
      <trkpt lat="45.17101" lon="5.96233">
        <ele>2674.4</ele>
        <time>2021-02-20T12:34:11Z</time>
      </trkpt>
      <trkpt lat="45.17102" lon="5.96233">
        <ele>2674.3</ele>
        <time>2021-02-20T12:34:12Z</time>
      </trkpt>
      <trkpt lat="45.17102" lon="5.96233">
        <ele>2674.3</ele>
        <time>2021-02-20T12:34:13Z</time>
      </trkpt>
      <trkpt lat="45.17102" lon="5.96233">
        <ele>2674.2</ele>
        <time>2021-02-20T12:34:14Z</time>
      </trkpt>
      <trkpt lat="45.17102" lon="5.96234">
        <ele>2674.2</ele>
        <time>2021-02-20T12:34:15Z</time>
      </trkpt>
      <trkpt lat="45.17103" lon="5.96234">
        <ele>2674.1</ele>
        <time>2021-02-20T12:34:16Z</time>
      </trkpt>
      <trkpt lat="45.17103" lon="5.96234">
        <ele>2674.1</ele>
        <time>2021-02-20T12:34:17Z</time>
      </trkpt>
      <trkpt lat="45.17103" lon="5.96234">
        <ele>2674</ele>
        <time>2021-02-20T12:34:18Z</time>
      </trkpt>
      <trkpt lat="45.17103" lon="5.96235">
        <ele>2673.9</ele>
        <time>2021-02-20T12:34:19Z</time>
      </trkpt>
      <trkpt lat="45.17104" lon="5.96235">
        <ele>2673.9</ele>
        <time>2021-02-20T12:34:20Z</time>
      </trkpt>
      <trkpt lat="45.17104" lon="5.96235">
        <ele>2673.8</ele>
        <time>2021-02-20T12:34:21Z</time>
      </trkpt>
      <trkpt lat="45.17105" lon="5.9624">
        <ele>2673.2</ele>
        <time>2021-02-20T12:34:22Z</time>
      </trkpt>
      <trkpt lat="45.17105" lon="5.96245">
        <ele>2672.5</ele>
        <time>2021-02-20T12:34:23Z</time>
      </trkpt>
      <trkpt lat="45.17103" lon="5.96251">
        <ele>2671.6</ele>
        <time>2021-02-20T12:34:24Z</time>
      </trkpt>
      <trkpt lat="45.17103" lon="5.96256">
        <ele>2671</ele>
        <time>2021-02-20T12:34:25Z</time>
      </trkpt>
      <trkpt lat="45.17105" lon="5.96261">
        <ele>2670.2</ele>
        <time>2021-02-20T12:34:26Z</time>
      </trkpt>
      <trkpt lat="45.17109" lon="5.96266">
        <ele>2669.3</ele>
        <time>2021-02-20T12:34:27Z</time>
      </trkpt>
      <trkpt lat="45.17109" lon="5.9627">
        <ele>2668.7</ele>
        <time>2021-02-20T12:34:28Z</time>
      </trkpt>
      <trkpt lat="45.17109" lon="5.96274">
        <ele>2668.2</ele>
        <time>2021-02-20T12:34:29Z</time>
      </trkpt>
      <trkpt lat="45.17108" lon="5.96277">
        <ele>2667.7</ele>
        <time>2021-02-20T12:34:30Z</time>
      </trkpt>
      <trkpt lat="45.17108" lon="5.96279">
        <ele>2667.5</ele>
        <time>2021-02-20T12:34:31Z</time>
      </trkpt>
      <trkpt lat="45.1711" lon="5.96282">
        <ele>2667</ele>
        <time>2021-02-20T12:34:32Z</time>
      </trkpt>
      <trkpt lat="45.17113" lon="5.96288">
        <ele>2666</ele>
        <time>2021-02-20T12:34:33Z</time>
      </trkpt>
      <trkpt lat="45.17117" lon="5.96295">
        <ele>2664.8</ele>
        <time>2021-02-20T12:34:34Z</time>
      </trkpt>
      <trkpt lat="45.17122" lon="5.96304">
        <ele>2663.3</ele>
        <time>2021-02-20T12:34:35Z</time>
      </trkpt>
      <trkpt lat="45.17131" lon="5.96317">
        <ele>2660.9</ele>
        <time>2021-02-20T12:34:36Z</time>
      </trkpt>
      <trkpt lat="45.17135" lon="5.96309">
        <ele>2659.6</ele>
        <time>2021-02-20T12:34:37Z</time>
      </trkpt>
      <trkpt lat="45.1714" lon="5.96319">
        <ele>2658.1</ele>
        <time>2021-02-20T12:34:38Z</time>
      </trkpt>
      <trkpt lat="45.17142" lon="5.96326">
        <ele>2657.1</ele>
        <time>2021-02-20T12:34:39Z</time>
      </trkpt>
      <trkpt lat="45.17143" lon="5.96333">
        <ele>2656.2</ele>
        <time>2021-02-20T12:34:40Z</time>
      </trkpt>
      <trkpt lat="45.17145" lon="5.96337">
        <ele>2655.6</ele>
        <time>2021-02-20T12:34:41Z</time>
      </trkpt>
      <trkpt lat="45.17145" lon="5.96338">
        <ele>2655.4</ele>
        <time>2021-02-20T12:34:42Z</time>
      </trkpt>
      <trkpt lat="45.17145" lon="5.96339">
        <ele>2655.4</ele>
        <time>2021-02-20T12:34:43Z</time>
      </trkpt>
      <trkpt lat="45.17145" lon="5.96339">
        <ele>2655.3</ele>
        <time>2021-02-20T12:34:44Z</time>
      </trkpt>
      <trkpt lat="45.17145" lon="5.96339">
        <ele>2655.3</ele>
        <time>2021-02-20T12:34:45Z</time>
      </trkpt>
      <trkpt lat="45.17145" lon="5.9634">
        <ele>2655.2</ele>
        <time>2021-02-20T12:34:46Z</time>
      </trkpt>
      <trkpt lat="45.17145" lon="5.9634">
        <ele>2655.2</ele>
        <time>2021-02-20T12:34:47Z</time>
      </trkpt>
      <trkpt lat="45.17145" lon="5.9634">
        <ele>2655.1</ele>
        <time>2021-02-20T12:34:48Z</time>
      </trkpt>
      <trkpt lat="45.17145" lon="5.96341">
        <ele>2655.1</ele>
        <time>2021-02-20T12:34:49Z</time>
      </trkpt>
      <trkpt lat="45.17145" lon="5.96341">
        <ele>2655</ele>
        <time>2021-02-20T12:34:50Z</time>
      </trkpt>
      <trkpt lat="45.17145" lon="5.96341">
        <ele>2655</ele>
        <time>2021-02-20T12:34:51Z</time>
      </trkpt>
      <trkpt lat="45.17145" lon="5.96342">
        <ele>2655</ele>
        <time>2021-02-20T12:34:52Z</time>
      </trkpt>
      <trkpt lat="45.17145" lon="5.96342">
        <ele>2654.9</ele>
        <time>2021-02-20T12:34:53Z</time>
      </trkpt>
      <trkpt lat="45.17145" lon="5.96342">
        <ele>2654.9</ele>
        <time>2021-02-20T12:34:54Z</time>
      </trkpt>
      <trkpt lat="45.17145" lon="5.96343">
        <ele>2654.8</ele>
        <time>2021-02-20T12:34:55Z</time>
      </trkpt>
      <trkpt lat="45.17145" lon="5.96343">
        <ele>2654.8</ele>
        <time>2021-02-20T12:34:56Z</time>
      </trkpt>
      <trkpt lat="45.17145" lon="5.96343">
        <ele>2654.7</ele>
        <time>2021-02-20T12:34:57Z</time>
      </trkpt>
      <trkpt lat="45.17145" lon="5.96344">
        <ele>2654.7</ele>
        <time>2021-02-20T12:34:58Z</time>
      </trkpt>
      <trkpt lat="45.17145" lon="5.96344">
        <ele>2654.6</ele>
        <time>2021-02-20T12:34:59Z</time>
      </trkpt>
      <trkpt lat="45.17145" lon="5.96349">
        <ele>2654</ele>
        <time>2021-02-20T12:35:00Z</time>
      </trkpt>
      <trkpt lat="45.17145" lon="5.96351">
        <ele>2653.8</ele>
        <time>2021-02-20T12:35:01Z</time>
      </trkpt>
      <trkpt lat="45.17145" lon="5.96355">
        <ele>2653.2</ele>
        <time>2021-02-20T12:35:02Z</time>
      </trkpt>
      <trkpt lat="45.17145" lon="5.96356">
        <ele>2653.1</ele>
        <time>2021-02-20T12:35:03Z</time>
      </trkpt>
      <trkpt lat="45.17144" lon="5.96357">
        <ele>2652.9</ele>
        <time>2021-02-20T12:35:04Z</time>
      </trkpt>
      <trkpt lat="45.17144" lon="5.96358">
        <ele>2652.8</ele>
        <time>2021-02-20T12:35:05Z</time>
      </trkpt>
      <trkpt lat="45.17144" lon="5.96358">
        <ele>2652.8</ele>
        <time>2021-02-20T12:35:06Z</time>
      </trkpt>
      <trkpt lat="45.17144" lon="5.96359">
        <ele>2652.7</ele>
        <time>2021-02-20T12:35:07Z</time>
      </trkpt>
      <trkpt lat="45.17144" lon="5.96359">
        <ele>2652.6</ele>
        <time>2021-02-20T12:35:08Z</time>
      </trkpt>
      <trkpt lat="45.17144" lon="5.96359">
        <ele>2652.6</ele>
        <time>2021-02-20T12:35:09Z</time>
      </trkpt>
      <trkpt lat="45.17144" lon="5.9636">
        <ele>2652.5</ele>
        <time>2021-02-20T12:35:10Z</time>
      </trkpt>
      <trkpt lat="45.17144" lon="5.9636">
        <ele>2652.5</ele>
        <time>2021-02-20T12:35:11Z</time>
      </trkpt>
      <trkpt lat="45.17144" lon="5.96361">
        <ele>2652.4</ele>
        <time>2021-02-20T12:35:12Z</time>
      </trkpt>
      <trkpt lat="45.17143" lon="5.96361">
        <ele>2652.4</ele>
        <time>2021-02-20T12:35:13Z</time>
      </trkpt>
      <trkpt lat="45.17143" lon="5.96361">
        <ele>2652.3</ele>
        <time>2021-02-20T12:35:14Z</time>
      </trkpt>
      <trkpt lat="45.17143" lon="5.96362">
        <ele>2652.3</ele>
        <time>2021-02-20T12:35:15Z</time>
      </trkpt>
      <trkpt lat="45.17143" lon="5.96362">
        <ele>2652.2</ele>
        <time>2021-02-20T12:35:16Z</time>
      </trkpt>
      <trkpt lat="45.17142" lon="5.96364">
        <ele>2651.8</ele>
        <time>2021-02-20T12:35:17Z</time>
      </trkpt>
      <trkpt lat="45.17141" lon="5.96365">
        <ele>2651.6</ele>
        <time>2021-02-20T12:35:18Z</time>
      </trkpt>
      <trkpt lat="45.1714" lon="5.96364">
        <ele>2651.4</ele>
        <time>2021-02-20T12:35:19Z</time>
      </trkpt>
      <trkpt lat="45.17139" lon="5.96364">
        <ele>2651.3</ele>
        <time>2021-02-20T12:35:20Z</time>
      </trkpt>
      <trkpt lat="45.17139" lon="5.96363">
        <ele>2651.2</ele>
        <time>2021-02-20T12:35:21Z</time>
      </trkpt>
      <trkpt lat="45.17138" lon="5.96363">
        <ele>2651</ele>
        <time>2021-02-20T12:35:22Z</time>
      </trkpt>
      <trkpt lat="45.17138" lon="5.96362">
        <ele>2650.9</ele>
        <time>2021-02-20T12:35:23Z</time>
      </trkpt>
      <trkpt lat="45.17137" lon="5.96361">
        <ele>2650.7</ele>
        <time>2021-02-20T12:35:24Z</time>
      </trkpt>
      <trkpt lat="45.17135" lon="5.9636">
        <ele>2650.4</ele>
        <time>2021-02-20T12:35:25Z</time>
      </trkpt>
      <trkpt lat="45.17135" lon="5.96361">
        <ele>2650.3</ele>
        <time>2021-02-20T12:35:26Z</time>
      </trkpt>
      <trkpt lat="45.17135" lon="5.96362">
        <ele>2650.2</ele>
        <time>2021-02-20T12:35:27Z</time>
      </trkpt>
      <trkpt lat="45.17135" lon="5.96362">
        <ele>2650.2</ele>
        <time>2021-02-20T12:35:28Z</time>
      </trkpt>
      <trkpt lat="45.17135" lon="5.96362">
        <ele>2650.2</ele>
        <time>2021-02-20T12:35:29Z</time>
      </trkpt>
      <trkpt lat="45.17135" lon="5.96362">
        <ele>2650.2</ele>
        <time>2021-02-20T12:35:30Z</time>
      </trkpt>
      <trkpt lat="45.17135" lon="5.96362">
        <ele>2650.2</ele>
        <time>2021-02-20T12:35:31Z</time>
      </trkpt>
      <trkpt lat="45.17135" lon="5.96362">
        <ele>2650.2</ele>
        <time>2021-02-20T12:35:32Z</time>
      </trkpt>
      <trkpt lat="45.17135" lon="5.96362">
        <ele>2650.2</ele>
        <time>2021-02-20T12:35:33Z</time>
      </trkpt>
      <trkpt lat="45.17135" lon="5.96363">
        <ele>2650</ele>
        <time>2021-02-20T12:35:34Z</time>
      </trkpt>
      <trkpt lat="45.17134" lon="5.96364">
        <ele>2649.9</ele>
        <time>2021-02-20T12:35:35Z</time>
      </trkpt>
      <trkpt lat="45.17134" lon="5.96365">
        <ele>2649.8</ele>
        <time>2021-02-20T12:35:36Z</time>
      </trkpt>
      <trkpt lat="45.17134" lon="5.96366">
        <ele>2649.6</ele>
        <time>2021-02-20T12:35:37Z</time>
      </trkpt>
      <trkpt lat="45.17133" lon="5.96368">
        <ele>2649.4</ele>
        <time>2021-02-20T12:35:38Z</time>
      </trkpt>
      <trkpt lat="45.17133" lon="5.96372">
        <ele>2648.8</ele>
        <time>2021-02-20T12:35:39Z</time>
      </trkpt>
      <trkpt lat="45.17132" lon="5.96373">
        <ele>2648.6</ele>
        <time>2021-02-20T12:35:40Z</time>
      </trkpt>
      <trkpt lat="45.17132" lon="5.96375">
        <ele>2648.4</ele>
        <time>2021-02-20T12:35:41Z</time>
      </trkpt>
      <trkpt lat="45.17132" lon="5.96376">
        <ele>2648.2</ele>
        <time>2021-02-20T12:35:42Z</time>
      </trkpt>
      <trkpt lat="45.17131" lon="5.96377">
        <ele>2648.1</ele>
        <time>2021-02-20T12:35:43Z</time>
      </trkpt>
      <trkpt lat="45.17131" lon="5.96378">
        <ele>2647.9</ele>
        <time>2021-02-20T12:35:44Z</time>
      </trkpt>
      <trkpt lat="45.17129" lon="5.96377">
        <ele>2647.6</ele>
        <time>2021-02-20T12:35:45Z</time>
      </trkpt>
      <trkpt lat="45.17128" lon="5.96375">
        <ele>2647.3</ele>
        <time>2021-02-20T12:35:46Z</time>
      </trkpt>
      <trkpt lat="45.17128" lon="5.96374">
        <ele>2647.1</ele>
        <time>2021-02-20T12:35:47Z</time>
      </trkpt>
      <trkpt lat="45.17128" lon="5.96372">
        <ele>2646.8</ele>
        <time>2021-02-20T12:35:48Z</time>
      </trkpt>
      <trkpt lat="45.17127" lon="5.9637">
        <ele>2646.6</ele>
        <time>2021-02-20T12:35:49Z</time>
      </trkpt>
      <trkpt lat="45.17127" lon="5.96369">
        <ele>2646.4</ele>
        <time>2021-02-20T12:35:50Z</time>
      </trkpt>
      <trkpt lat="45.17126" lon="5.96364">
        <ele>2645.8</ele>
        <time>2021-02-20T12:35:51Z</time>
      </trkpt>
      <trkpt lat="45.17125" lon="5.9636">
        <ele>2645.2</ele>
        <time>2021-02-20T12:35:52Z</time>
      </trkpt>
      <trkpt lat="45.17124" lon="5.96356">
        <ele>2644.6</ele>
        <time>2021-02-20T12:35:53Z</time>
      </trkpt>
      <trkpt lat="45.17122" lon="5.96351">
        <ele>2643.9</ele>
        <time>2021-02-20T12:35:54Z</time>
      </trkpt>
      <trkpt lat="45.17121" lon="5.9635">
        <ele>2643.7</ele>
        <time>2021-02-20T12:35:55Z</time>
      </trkpt>
      <trkpt lat="45.1712" lon="5.96348">
        <ele>2643.3</ele>
        <time>2021-02-20T12:35:56Z</time>
      </trkpt>
      <trkpt lat="45.17119" lon="5.96346">
        <ele>2643</ele>
        <time>2021-02-20T12:35:57Z</time>
      </trkpt>
      <trkpt lat="45.17116" lon="5.96344">
        <ele>2642.5</ele>
        <time>2021-02-20T12:35:58Z</time>
      </trkpt>
      <trkpt lat="45.17115" lon="5.96344">
        <ele>2642.3</ele>
        <time>2021-02-20T12:35:59Z</time>
      </trkpt>
      <trkpt lat="45.17113" lon="5.96341">
        <ele>2641.7</ele>
        <time>2021-02-20T12:36:00Z</time>
      </trkpt>
      <trkpt lat="45.17112" lon="5.9634">
        <ele>2641.5</ele>
        <time>2021-02-20T12:36:01Z</time>
      </trkpt>
      <trkpt lat="45.1711" lon="5.96338">
        <ele>2641.1</ele>
        <time>2021-02-20T12:36:02Z</time>
      </trkpt>
      <trkpt lat="45.17109" lon="5.96336">
        <ele>2640.8</ele>
        <time>2021-02-20T12:36:03Z</time>
      </trkpt>
      <trkpt lat="45.17107" lon="5.96334">
        <ele>2640.3</ele>
        <time>2021-02-20T12:36:04Z</time>
      </trkpt>
      <trkpt lat="45.17106" lon="5.96333">
        <ele>2640.1</ele>
        <time>2021-02-20T12:36:05Z</time>
      </trkpt>
      <trkpt lat="45.17106" lon="5.96332">
        <ele>2639.9</ele>
        <time>2021-02-20T12:36:06Z</time>
      </trkpt>
      <trkpt lat="45.17105" lon="5.96332">
        <ele>2639.8</ele>
        <time>2021-02-20T12:36:07Z</time>
      </trkpt>
      <trkpt lat="45.17104" lon="5.96332">
        <ele>2639.6</ele>
        <time>2021-02-20T12:36:08Z</time>
      </trkpt>
      <trkpt lat="45.17103" lon="5.96332">
        <ele>2639.5</ele>
        <time>2021-02-20T12:36:09Z</time>
      </trkpt>
      <trkpt lat="45.17103" lon="5.96332">
        <ele>2639.4</ele>
        <time>2021-02-20T12:36:10Z</time>
      </trkpt>
      <trkpt lat="45.17103" lon="5.96332">
        <ele>2639.3</ele>
        <time>2021-02-20T12:36:11Z</time>
      </trkpt>
      <trkpt lat="45.17103" lon="5.96332">
        <ele>2639.3</ele>
        <time>2021-02-20T12:36:12Z</time>
      </trkpt>
      <trkpt lat="45.17103" lon="5.96332">
        <ele>2639.3</ele>
        <time>2021-02-20T12:36:13Z</time>
      </trkpt>
      <trkpt lat="45.17103" lon="5.96332">
        <ele>2639.3</ele>
        <time>2021-02-20T12:36:14Z</time>
      </trkpt>
      <trkpt lat="45.17103" lon="5.96332">
        <ele>2639.3</ele>
        <time>2021-02-20T12:36:15Z</time>
      </trkpt>
      <trkpt lat="45.17103" lon="5.96332">
        <ele>2639.3</ele>
        <time>2021-02-20T12:36:16Z</time>
      </trkpt>
      <trkpt lat="45.17103" lon="5.96332">
        <ele>2639.3</ele>
        <time>2021-02-20T12:36:17Z</time>
      </trkpt>
      <trkpt lat="45.17103" lon="5.96332">
        <ele>2639.3</ele>
        <time>2021-02-20T12:36:18Z</time>
      </trkpt>
      <trkpt lat="45.17103" lon="5.96332">
        <ele>2639.3</ele>
        <time>2021-02-20T12:36:19Z</time>
      </trkpt>
      <trkpt lat="45.17103" lon="5.96332">
        <ele>2639.3</ele>
        <time>2021-02-20T12:36:20Z</time>
      </trkpt>
      <trkpt lat="45.17103" lon="5.96332">
        <ele>2639.3</ele>
        <time>2021-02-20T12:36:21Z</time>
      </trkpt>
      <trkpt lat="45.17103" lon="5.96334">
        <ele>2639.1</ele>
        <time>2021-02-20T12:36:22Z</time>
      </trkpt>
      <trkpt lat="45.17103" lon="5.96335">
        <ele>2639</ele>
        <time>2021-02-20T12:36:23Z</time>
      </trkpt>
      <trkpt lat="45.17103" lon="5.96335">
        <ele>2638.9</ele>
        <time>2021-02-20T12:36:24Z</time>
      </trkpt>
      <trkpt lat="45.17102" lon="5.96336">
        <ele>2638.7</ele>
        <time>2021-02-20T12:36:25Z</time>
      </trkpt>
      <trkpt lat="45.17101" lon="5.96337">
        <ele>2638.5</ele>
        <time>2021-02-20T12:36:26Z</time>
      </trkpt>
      <trkpt lat="45.171" lon="5.96338">
        <ele>2638.3</ele>
        <time>2021-02-20T12:36:27Z</time>
      </trkpt>
      <trkpt lat="45.17099" lon="5.96338">
        <ele>2638.1</ele>
        <time>2021-02-20T12:36:28Z</time>
      </trkpt>
      <trkpt lat="45.17097" lon="5.96339">
        <ele>2637.8</ele>
        <time>2021-02-20T12:36:29Z</time>
      </trkpt>
      <trkpt lat="45.17097" lon="5.9634">
        <ele>2637.6</ele>
        <time>2021-02-20T12:36:30Z</time>
      </trkpt>
      <trkpt lat="45.17096" lon="5.9634">
        <ele>2637.5</ele>
        <time>2021-02-20T12:36:31Z</time>
      </trkpt>
      <trkpt lat="45.17095" lon="5.96342">
        <ele>2637.2</ele>
        <time>2021-02-20T12:36:32Z</time>
      </trkpt>
      <trkpt lat="45.17094" lon="5.96343">
        <ele>2637.1</ele>
        <time>2021-02-20T12:36:33Z</time>
      </trkpt>
      <trkpt lat="45.17094" lon="5.96344">
        <ele>2636.9</ele>
        <time>2021-02-20T12:36:34Z</time>
      </trkpt>
      <trkpt lat="45.17093" lon="5.96345">
        <ele>2636.7</ele>
        <time>2021-02-20T12:36:35Z</time>
      </trkpt>
      <trkpt lat="45.17093" lon="5.96348">
        <ele>2636.2</ele>
        <time>2021-02-20T12:36:36Z</time>
      </trkpt>
      <trkpt lat="45.17094" lon="5.96351">
        <ele>2635.8</ele>
        <time>2021-02-20T12:36:37Z</time>
      </trkpt>
      <trkpt lat="45.17095" lon="5.96352">
        <ele>2635.6</ele>
        <time>2021-02-20T12:36:38Z</time>
      </trkpt>
      <trkpt lat="45.17095" lon="5.96353">
        <ele>2635.5</ele>
        <time>2021-02-20T12:36:39Z</time>
      </trkpt>
      <trkpt lat="45.17096" lon="5.96353">
        <ele>2635.4</ele>
        <time>2021-02-20T12:36:40Z</time>
      </trkpt>
      <trkpt lat="45.17096" lon="5.96354">
        <ele>2635.2</ele>
        <time>2021-02-20T12:36:41Z</time>
      </trkpt>
      <trkpt lat="45.17097" lon="5.96357">
        <ele>2634.9</ele>
        <time>2021-02-20T12:36:42Z</time>
      </trkpt>
      <trkpt lat="45.17097" lon="5.96361">
        <ele>2634.4</ele>
        <time>2021-02-20T12:36:43Z</time>
      </trkpt>
      <trkpt lat="45.17098" lon="5.96362">
        <ele>2634.2</ele>
        <time>2021-02-20T12:36:44Z</time>
      </trkpt>
      <trkpt lat="45.17098" lon="5.96367">
        <ele>2633.5</ele>
        <time>2021-02-20T12:36:45Z</time>
      </trkpt>
      <trkpt lat="45.17098" lon="5.96369">
        <ele>2633.3</ele>
        <time>2021-02-20T12:36:46Z</time>
      </trkpt>
      <trkpt lat="45.17099" lon="5.96374">
        <ele>2632.6</ele>
        <time>2021-02-20T12:36:47Z</time>
      </trkpt>
      <trkpt lat="45.17099" lon="5.96376">
        <ele>2632.4</ele>
        <time>2021-02-20T12:36:48Z</time>
      </trkpt>
      <trkpt lat="45.171" lon="5.96381">
        <ele>2631.7</ele>
        <time>2021-02-20T12:36:49Z</time>
      </trkpt>
      <trkpt lat="45.171" lon="5.96382">
        <ele>2631.5</ele>
        <time>2021-02-20T12:36:50Z</time>
      </trkpt>
      <trkpt lat="45.171" lon="5.96387">
        <ele>2630.9</ele>
        <time>2021-02-20T12:36:51Z</time>
      </trkpt>
      <trkpt lat="45.171" lon="5.96389">
        <ele>2630.7</ele>
        <time>2021-02-20T12:36:52Z</time>
      </trkpt>
      <trkpt lat="45.17099" lon="5.9639">
        <ele>2630.4</ele>
        <time>2021-02-20T12:36:53Z</time>
      </trkpt>
      <trkpt lat="45.17099" lon="5.96392">
        <ele>2630.3</ele>
        <time>2021-02-20T12:36:54Z</time>
      </trkpt>
      <trkpt lat="45.17099" lon="5.96392">
        <ele>2630.1</ele>
        <time>2021-02-20T12:36:55Z</time>
      </trkpt>
      <trkpt lat="45.17098" lon="5.96395">
        <ele>2629.8</ele>
        <time>2021-02-20T12:36:56Z</time>
      </trkpt>
      <trkpt lat="45.17098" lon="5.96396">
        <ele>2629.6</ele>
        <time>2021-02-20T12:36:57Z</time>
      </trkpt>
      <trkpt lat="45.17098" lon="5.96398">
        <ele>2629.4</ele>
        <time>2021-02-20T12:36:58Z</time>
      </trkpt>
      <trkpt lat="45.17097" lon="5.964">
        <ele>2629.1</ele>
        <time>2021-02-20T12:36:59Z</time>
      </trkpt>
      <trkpt lat="45.17097" lon="5.96402">
        <ele>2628.8</ele>
        <time>2021-02-20T12:37:00Z</time>
      </trkpt>
      <trkpt lat="45.17096" lon="5.96406">
        <ele>2628.3</ele>
        <time>2021-02-20T12:37:01Z</time>
      </trkpt>
      <trkpt lat="45.17095" lon="5.96408">
        <ele>2628</ele>
        <time>2021-02-20T12:37:02Z</time>
      </trkpt>
      <trkpt lat="45.17095" lon="5.9641">
        <ele>2627.7</ele>
        <time>2021-02-20T12:37:03Z</time>
      </trkpt>
      <trkpt lat="45.17095" lon="5.96411">
        <ele>2627.6</ele>
        <time>2021-02-20T12:37:04Z</time>
      </trkpt>
      <trkpt lat="45.17095" lon="5.96411">
        <ele>2627.6</ele>
        <time>2021-02-20T12:37:05Z</time>
      </trkpt>
      <trkpt lat="45.17095" lon="5.96411">
        <ele>2627.6</ele>
        <time>2021-02-20T12:37:06Z</time>
      </trkpt>
      <trkpt lat="45.17095" lon="5.96411">
        <ele>2627.6</ele>
        <time>2021-02-20T12:37:07Z</time>
      </trkpt>
      <trkpt lat="45.17095" lon="5.96411">
        <ele>2627.6</ele>
        <time>2021-02-20T12:37:08Z</time>
      </trkpt>
      <trkpt lat="45.17095" lon="5.96412">
        <ele>2627.5</ele>
        <time>2021-02-20T12:37:09Z</time>
      </trkpt>
      <trkpt lat="45.17096" lon="5.96412">
        <ele>2627.4</ele>
        <time>2021-02-20T12:37:10Z</time>
      </trkpt>
      <trkpt lat="45.17096" lon="5.96413">
        <ele>2627.3</ele>
        <time>2021-02-20T12:37:11Z</time>
      </trkpt>
      <trkpt lat="45.17096" lon="5.96413">
        <ele>2627.3</ele>
        <time>2021-02-20T12:37:12Z</time>
      </trkpt>
      <trkpt lat="45.17095" lon="5.96414">
        <ele>2627.2</ele>
        <time>2021-02-20T12:37:13Z</time>
      </trkpt>
      <trkpt lat="45.17095" lon="5.96414">
        <ele>2627.2</ele>
        <time>2021-02-20T12:37:14Z</time>
      </trkpt>
      <trkpt lat="45.17095" lon="5.96414">
        <ele>2627.1</ele>
        <time>2021-02-20T12:37:15Z</time>
      </trkpt>
      <trkpt lat="45.17095" lon="5.96415">
        <ele>2627.1</ele>
        <time>2021-02-20T12:37:16Z</time>
      </trkpt>
      <trkpt lat="45.17095" lon="5.96415">
        <ele>2627</ele>
        <time>2021-02-20T12:37:17Z</time>
      </trkpt>
      <trkpt lat="45.17095" lon="5.96416">
        <ele>2627</ele>
        <time>2021-02-20T12:37:18Z</time>
      </trkpt>
      <trkpt lat="45.17095" lon="5.96416">
        <ele>2626.9</ele>
        <time>2021-02-20T12:37:19Z</time>
      </trkpt>
      <trkpt lat="45.17095" lon="5.96416">
        <ele>2626.9</ele>
        <time>2021-02-20T12:37:20Z</time>
      </trkpt>
      <trkpt lat="45.17095" lon="5.96417">
        <ele>2626.8</ele>
        <time>2021-02-20T12:37:21Z</time>
      </trkpt>
      <trkpt lat="45.17095" lon="5.96417">
        <ele>2626.8</ele>
        <time>2021-02-20T12:37:22Z</time>
      </trkpt>
      <trkpt lat="45.17095" lon="5.96421">
        <ele>2626.2</ele>
        <time>2021-02-20T12:37:23Z</time>
      </trkpt>
      <trkpt lat="45.17096" lon="5.96426">
        <ele>2625.6</ele>
        <time>2021-02-20T12:37:24Z</time>
      </trkpt>
      <trkpt lat="45.17096" lon="5.96431">
        <ele>2624.9</ele>
        <time>2021-02-20T12:37:25Z</time>
      </trkpt>
      <trkpt lat="45.17097" lon="5.96435">
        <ele>2624.3</ele>
        <time>2021-02-20T12:37:26Z</time>
      </trkpt>
      <trkpt lat="45.17097" lon="5.9644">
        <ele>2623.7</ele>
        <time>2021-02-20T12:37:27Z</time>
      </trkpt>
      <trkpt lat="45.17097" lon="5.96444">
        <ele>2623.2</ele>
        <time>2021-02-20T12:37:28Z</time>
      </trkpt>
      <trkpt lat="45.17097" lon="5.96449">
        <ele>2622.5</ele>
        <time>2021-02-20T12:37:29Z</time>
      </trkpt>
      <trkpt lat="45.17097" lon="5.96451">
        <ele>2622.3</ele>
        <time>2021-02-20T12:37:30Z</time>
      </trkpt>
      <trkpt lat="45.17097" lon="5.96453">
        <ele>2622</ele>
        <time>2021-02-20T12:37:31Z</time>
      </trkpt>
      <trkpt lat="45.17097" lon="5.96455">
        <ele>2621.7</ele>
        <time>2021-02-20T12:37:32Z</time>
      </trkpt>
      <trkpt lat="45.17097" lon="5.96457">
        <ele>2621.5</ele>
        <time>2021-02-20T12:37:33Z</time>
      </trkpt>
      <trkpt lat="45.17097" lon="5.96458">
        <ele>2621.4</ele>
        <time>2021-02-20T12:37:34Z</time>
      </trkpt>
      <trkpt lat="45.17097" lon="5.96459">
        <ele>2621.3</ele>
        <time>2021-02-20T12:37:35Z</time>
      </trkpt>
      <trkpt lat="45.17097" lon="5.9646">
        <ele>2621.2</ele>
        <time>2021-02-20T12:37:36Z</time>
      </trkpt>
      <trkpt lat="45.17097" lon="5.9646">
        <ele>2621.2</ele>
        <time>2021-02-20T12:37:37Z</time>
      </trkpt>
      <trkpt lat="45.17097" lon="5.96459">
        <ele>2621.1</ele>
        <time>2021-02-20T12:37:38Z</time>
      </trkpt>
      <trkpt lat="45.17097" lon="5.96459">
        <ele>2621</ele>
        <time>2021-02-20T12:37:39Z</time>
      </trkpt>
      <trkpt lat="45.17097" lon="5.96458">
        <ele>2620.9</ele>
        <time>2021-02-20T12:37:40Z</time>
      </trkpt>
      <trkpt lat="45.17097" lon="5.96457">
        <ele>2620.8</ele>
        <time>2021-02-20T12:37:41Z</time>
      </trkpt>
      <trkpt lat="45.17097" lon="5.96457">
        <ele>2620.8</ele>
        <time>2021-02-20T12:37:42Z</time>
      </trkpt>
      <trkpt lat="45.17096" lon="5.96456">
        <ele>2620.7</ele>
        <time>2021-02-20T12:37:43Z</time>
      </trkpt>
      <trkpt lat="45.17096" lon="5.96456">
        <ele>2620.6</ele>
        <time>2021-02-20T12:37:44Z</time>
      </trkpt>
      <trkpt lat="45.17096" lon="5.96455">
        <ele>2620.5</ele>
        <time>2021-02-20T12:37:45Z</time>
      </trkpt>
      <trkpt lat="45.17096" lon="5.96454">
        <ele>2620.5</ele>
        <time>2021-02-20T12:37:46Z</time>
      </trkpt>
      <trkpt lat="45.17095" lon="5.96451">
        <ele>2620</ele>
        <time>2021-02-20T12:37:47Z</time>
      </trkpt>
      <trkpt lat="45.17095" lon="5.9645">
        <ele>2619.8</ele>
        <time>2021-02-20T12:37:48Z</time>
      </trkpt>
      <trkpt lat="45.17094" lon="5.96445">
        <ele>2619.1</ele>
        <time>2021-02-20T12:37:49Z</time>
      </trkpt>
      <trkpt lat="45.17093" lon="5.9644">
        <ele>2618.5</ele>
        <time>2021-02-20T12:37:50Z</time>
      </trkpt>
      <trkpt lat="45.17092" lon="5.96435">
        <ele>2617.8</ele>
        <time>2021-02-20T12:37:51Z</time>
      </trkpt>
      <trkpt lat="45.17091" lon="5.9643">
        <ele>2617.1</ele>
        <time>2021-02-20T12:37:52Z</time>
      </trkpt>
      <trkpt lat="45.17091" lon="5.96424">
        <ele>2616.3</ele>
        <time>2021-02-20T12:37:53Z</time>
      </trkpt>
      <trkpt lat="45.1709" lon="5.96419">
        <ele>2615.6</ele>
        <time>2021-02-20T12:37:54Z</time>
      </trkpt>
      <trkpt lat="45.17089" lon="5.96415">
        <ele>2615.1</ele>
        <time>2021-02-20T12:37:55Z</time>
      </trkpt>
      <trkpt lat="45.17088" lon="5.96411">
        <ele>2614.5</ele>
        <time>2021-02-20T12:37:56Z</time>
      </trkpt>
      <trkpt lat="45.17087" lon="5.96409">
        <ele>2614.2</ele>
        <time>2021-02-20T12:37:57Z</time>
      </trkpt>
      <trkpt lat="45.17086" lon="5.96404">
        <ele>2613.6</ele>
        <time>2021-02-20T12:37:58Z</time>
      </trkpt>
      <trkpt lat="45.17085" lon="5.96403">
        <ele>2613.3</ele>
        <time>2021-02-20T12:37:59Z</time>
      </trkpt>
      <trkpt lat="45.17084" lon="5.96399">
        <ele>2612.7</ele>
        <time>2021-02-20T12:38:00Z</time>
      </trkpt>
      <trkpt lat="45.17084" lon="5.96397">
        <ele>2612.6</ele>
        <time>2021-02-20T12:38:01Z</time>
      </trkpt>
      <trkpt lat="45.17083" lon="5.96394">
        <ele>2612</ele>
        <time>2021-02-20T12:38:02Z</time>
      </trkpt>
      <trkpt lat="45.17082" lon="5.96392">
        <ele>2611.8</ele>
        <time>2021-02-20T12:38:03Z</time>
      </trkpt>
      <trkpt lat="45.1708" lon="5.96389">
        <ele>2611.2</ele>
        <time>2021-02-20T12:38:04Z</time>
      </trkpt>
      <trkpt lat="45.17079" lon="5.96388">
        <ele>2611</ele>
        <time>2021-02-20T12:38:05Z</time>
      </trkpt>
      <trkpt lat="45.17076" lon="5.96387">
        <ele>2610.5</ele>
        <time>2021-02-20T12:38:06Z</time>
      </trkpt>
      <trkpt lat="45.17074" lon="5.9639">
        <ele>2609.9</ele>
        <time>2021-02-20T12:38:07Z</time>
      </trkpt>
      <trkpt lat="45.17074" lon="5.96392">
        <ele>2609.6</ele>
        <time>2021-02-20T12:38:08Z</time>
      </trkpt>
      <trkpt lat="45.17074" lon="5.96396">
        <ele>2609.1</ele>
        <time>2021-02-20T12:38:09Z</time>
      </trkpt>
      <trkpt lat="45.17075" lon="5.96397">
        <ele>2608.9</ele>
        <time>2021-02-20T12:38:10Z</time>
      </trkpt>
      <trkpt lat="45.17075" lon="5.96399">
        <ele>2608.7</ele>
        <time>2021-02-20T12:38:11Z</time>
      </trkpt>
      <trkpt lat="45.17075" lon="5.964">
        <ele>2608.6</ele>
        <time>2021-02-20T12:38:12Z</time>
      </trkpt>
      <trkpt lat="45.17075" lon="5.964">
        <ele>2608.5</ele>
        <time>2021-02-20T12:38:13Z</time>
      </trkpt>
      <trkpt lat="45.17075" lon="5.964">
        <ele>2608.5</ele>
        <time>2021-02-20T12:38:14Z</time>
      </trkpt>
      <trkpt lat="45.17075" lon="5.964">
        <ele>2608.5</ele>
        <time>2021-02-20T12:38:15Z</time>
      </trkpt>
      <trkpt lat="45.17075" lon="5.964">
        <ele>2608.5</ele>
        <time>2021-02-20T12:38:16Z</time>
      </trkpt>
      <trkpt lat="45.17075" lon="5.964">
        <ele>2608.5</ele>
        <time>2021-02-20T12:38:17Z</time>
      </trkpt>
      <trkpt lat="45.17075" lon="5.964">
        <ele>2608.5</ele>
        <time>2021-02-20T12:38:18Z</time>
      </trkpt>
      <trkpt lat="45.17076" lon="5.96402">
        <ele>2608.3</ele>
        <time>2021-02-20T12:38:19Z</time>
      </trkpt>
      <trkpt lat="45.17074" lon="5.96403">
        <ele>2608</ele>
        <time>2021-02-20T12:38:20Z</time>
      </trkpt>
      <trkpt lat="45.17073" lon="5.96404">
        <ele>2607.8</ele>
        <time>2021-02-20T12:38:21Z</time>
      </trkpt>
      <trkpt lat="45.17072" lon="5.96405">
        <ele>2607.6</ele>
        <time>2021-02-20T12:38:22Z</time>
      </trkpt>
      <trkpt lat="45.17071" lon="5.96404">
        <ele>2607.3</ele>
        <time>2021-02-20T12:38:23Z</time>
      </trkpt>
      <trkpt lat="45.17069" lon="5.96403">
        <ele>2607</ele>
        <time>2021-02-20T12:38:24Z</time>
      </trkpt>
      <trkpt lat="45.17066" lon="5.96403">
        <ele>2606.5</ele>
        <time>2021-02-20T12:38:25Z</time>
      </trkpt>
      <trkpt lat="45.17064" lon="5.96404">
        <ele>2605.9</ele>
        <time>2021-02-20T12:38:26Z</time>
      </trkpt>
      <trkpt lat="45.17062" lon="5.96408">
        <ele>2605.3</ele>
        <time>2021-02-20T12:38:27Z</time>
      </trkpt>
      <trkpt lat="45.1706" lon="5.96412">
        <ele>2604.7</ele>
        <time>2021-02-20T12:38:28Z</time>
      </trkpt>
      <trkpt lat="45.1706" lon="5.96413">
        <ele>2604.5</ele>
        <time>2021-02-20T12:38:29Z</time>
      </trkpt>
      <trkpt lat="45.17057" lon="5.96414">
        <ele>2604</ele>
        <time>2021-02-20T12:38:30Z</time>
      </trkpt>
      <trkpt lat="45.17056" lon="5.96414">
        <ele>2603.8</ele>
        <time>2021-02-20T12:38:31Z</time>
      </trkpt>
      <trkpt lat="45.17055" lon="5.96418">
        <ele>2603.3</ele>
        <time>2021-02-20T12:38:32Z</time>
      </trkpt>
      <trkpt lat="45.17055" lon="5.96419">
        <ele>2603.1</ele>
        <time>2021-02-20T12:38:33Z</time>
      </trkpt>
      <trkpt lat="45.17055" lon="5.96422">
        <ele>2602.7</ele>
        <time>2021-02-20T12:38:34Z</time>
      </trkpt>
      <trkpt lat="45.17055" lon="5.96422">
        <ele>2602.7</ele>
        <time>2021-02-20T12:38:35Z</time>
      </trkpt>
      <trkpt lat="45.17055" lon="5.96422">
        <ele>2602.6</ele>
        <time>2021-02-20T12:38:36Z</time>
      </trkpt>
      <trkpt lat="45.17055" lon="5.96423">
        <ele>2602.6</ele>
        <time>2021-02-20T12:38:37Z</time>
      </trkpt>
      <trkpt lat="45.17055" lon="5.96423">
        <ele>2602.5</ele>
        <time>2021-02-20T12:38:38Z</time>
      </trkpt>
      <trkpt lat="45.17055" lon="5.96424">
        <ele>2602.5</ele>
        <time>2021-02-20T12:38:39Z</time>
      </trkpt>
      <trkpt lat="45.17055" lon="5.96424">
        <ele>2602.4</ele>
        <time>2021-02-20T12:38:40Z</time>
      </trkpt>
      <trkpt lat="45.17055" lon="5.96425">
        <ele>2602.3</ele>
        <time>2021-02-20T12:38:41Z</time>
      </trkpt>
      <trkpt lat="45.17055" lon="5.96425">
        <ele>2602.2</ele>
        <time>2021-02-20T12:38:42Z</time>
      </trkpt>
      <trkpt lat="45.17054" lon="5.96426">
        <ele>2602</ele>
        <time>2021-02-20T12:38:43Z</time>
      </trkpt>
      <trkpt lat="45.17053" lon="5.96427">
        <ele>2601.8</ele>
        <time>2021-02-20T12:38:44Z</time>
      </trkpt>
      <trkpt lat="45.17051" lon="5.96428">
        <ele>2601.5</ele>
        <time>2021-02-20T12:38:45Z</time>
      </trkpt>
      <trkpt lat="45.1705" lon="5.96426">
        <ele>2601.2</ele>
        <time>2021-02-20T12:38:46Z</time>
      </trkpt>
      <trkpt lat="45.17048" lon="5.96422">
        <ele>2600.6</ele>
        <time>2021-02-20T12:38:47Z</time>
      </trkpt>
      <trkpt lat="45.17047" lon="5.96421">
        <ele>2600.3</ele>
        <time>2021-02-20T12:38:48Z</time>
      </trkpt>
      <trkpt lat="45.17046" lon="5.96417">
        <ele>2599.8</ele>
        <time>2021-02-20T12:38:49Z</time>
      </trkpt>
      <trkpt lat="45.17044" lon="5.96414">
        <ele>2599.2</ele>
        <time>2021-02-20T12:38:50Z</time>
      </trkpt>
      <trkpt lat="45.17043" lon="5.96409">
        <ele>2598.6</ele>
        <time>2021-02-20T12:38:51Z</time>
      </trkpt>
      <trkpt lat="45.17042" lon="5.96408">
        <ele>2598.4</ele>
        <time>2021-02-20T12:38:52Z</time>
      </trkpt>
      <trkpt lat="45.17041" lon="5.96406">
        <ele>2598.1</ele>
        <time>2021-02-20T12:38:53Z</time>
      </trkpt>
      <trkpt lat="45.1704" lon="5.96405">
        <ele>2597.8</ele>
        <time>2021-02-20T12:38:54Z</time>
      </trkpt>
      <trkpt lat="45.17037" lon="5.96405">
        <ele>2597.3</ele>
        <time>2021-02-20T12:38:55Z</time>
      </trkpt>
      <trkpt lat="45.17036" lon="5.96407">
        <ele>2597</ele>
        <time>2021-02-20T12:38:56Z</time>
      </trkpt>
      <trkpt lat="45.17034" lon="5.96411">
        <ele>2596.3</ele>
        <time>2021-02-20T12:38:57Z</time>
      </trkpt>
      <trkpt lat="45.17033" lon="5.96415">
        <ele>2595.7</ele>
        <time>2021-02-20T12:38:58Z</time>
      </trkpt>
      <trkpt lat="45.17031" lon="5.96418">
        <ele>2595.2</ele>
        <time>2021-02-20T12:38:59Z</time>
      </trkpt>
      <trkpt lat="45.17028" lon="5.9642">
        <ele>2594.6</ele>
        <time>2021-02-20T12:39:00Z</time>
      </trkpt>
      <trkpt lat="45.17026" lon="5.96423">
        <ele>2594.1</ele>
        <time>2021-02-20T12:39:01Z</time>
      </trkpt>
      <trkpt lat="45.17024" lon="5.96428">
        <ele>2593.2</ele>
        <time>2021-02-20T12:39:02Z</time>
      </trkpt>
      <trkpt lat="45.17022" lon="5.96435">
        <ele>2592.3</ele>
        <time>2021-02-20T12:39:03Z</time>
      </trkpt>
      <trkpt lat="45.1702" lon="5.9644">
        <ele>2591.4</ele>
        <time>2021-02-20T12:39:04Z</time>
      </trkpt>
      <trkpt lat="45.17018" lon="5.96443">
        <ele>2590.9</ele>
        <time>2021-02-20T12:39:05Z</time>
      </trkpt>
      <trkpt lat="45.17018" lon="5.96441">
        <ele>2590.7</ele>
        <time>2021-02-20T12:39:06Z</time>
      </trkpt>
      <trkpt lat="45.17019" lon="5.96439">
        <ele>2590.4</ele>
        <time>2021-02-20T12:39:07Z</time>
      </trkpt>
      <trkpt lat="45.1702" lon="5.96437">
        <ele>2590.1</ele>
        <time>2021-02-20T12:39:08Z</time>
      </trkpt>
      <trkpt lat="45.1702" lon="5.96435">
        <ele>2589.8</ele>
        <time>2021-02-20T12:39:09Z</time>
      </trkpt>
      <trkpt lat="45.1702" lon="5.96435">
        <ele>2589.7</ele>
        <time>2021-02-20T12:39:10Z</time>
      </trkpt>
      <trkpt lat="45.1702" lon="5.96435">
        <ele>2589.7</ele>
        <time>2021-02-20T12:39:11Z</time>
      </trkpt>
      <trkpt lat="45.1702" lon="5.96434">
        <ele>2589.6</ele>
        <time>2021-02-20T12:39:12Z</time>
      </trkpt>
      <trkpt lat="45.1702" lon="5.96434">
        <ele>2589.6</ele>
        <time>2021-02-20T12:39:13Z</time>
      </trkpt>
      <trkpt lat="45.1702" lon="5.96434">
        <ele>2589.5</ele>
        <time>2021-02-20T12:39:14Z</time>
      </trkpt>
      <trkpt lat="45.1702" lon="5.96433">
        <ele>2589.5</ele>
        <time>2021-02-20T12:39:15Z</time>
      </trkpt>
      <trkpt lat="45.1702" lon="5.96433">
        <ele>2589.5</ele>
        <time>2021-02-20T12:39:16Z</time>
      </trkpt>
      <trkpt lat="45.1702" lon="5.96433">
        <ele>2589.4</ele>
        <time>2021-02-20T12:39:17Z</time>
      </trkpt>
      <trkpt lat="45.1702" lon="5.96433">
        <ele>2589.4</ele>
        <time>2021-02-20T12:39:18Z</time>
      </trkpt>
      <trkpt lat="45.1702" lon="5.96432">
        <ele>2589.3</ele>
        <time>2021-02-20T12:39:19Z</time>
      </trkpt>
      <trkpt lat="45.1702" lon="5.96432">
        <ele>2589.3</ele>
        <time>2021-02-20T12:39:20Z</time>
      </trkpt>
      <trkpt lat="45.1702" lon="5.96432">
        <ele>2589.2</ele>
        <time>2021-02-20T12:39:21Z</time>
      </trkpt>
      <trkpt lat="45.1702" lon="5.96431">
        <ele>2589.2</ele>
        <time>2021-02-20T12:39:22Z</time>
      </trkpt>
      <trkpt lat="45.1702" lon="5.96431">
        <ele>2589.2</ele>
        <time>2021-02-20T12:39:23Z</time>
      </trkpt>
      <trkpt lat="45.17019" lon="5.96431">
        <ele>2589.1</ele>
        <time>2021-02-20T12:39:24Z</time>
      </trkpt>
      <trkpt lat="45.17019" lon="5.9643">
        <ele>2589.1</ele>
        <time>2021-02-20T12:39:25Z</time>
      </trkpt>
      <trkpt lat="45.17019" lon="5.9643">
        <ele>2589</ele>
        <time>2021-02-20T12:39:26Z</time>
      </trkpt>
      <trkpt lat="45.17019" lon="5.9643">
        <ele>2589</ele>
        <time>2021-02-20T12:39:27Z</time>
      </trkpt>
      <trkpt lat="45.17018" lon="5.96427">
        <ele>2588.5</ele>
        <time>2021-02-20T12:39:28Z</time>
      </trkpt>
      <trkpt lat="45.17016" lon="5.96423">
        <ele>2587.9</ele>
        <time>2021-02-20T12:39:29Z</time>
      </trkpt>
      <trkpt lat="45.17016" lon="5.96422">
        <ele>2587.8</ele>
        <time>2021-02-20T12:39:30Z</time>
      </trkpt>
      <trkpt lat="45.17014" lon="5.96418">
        <ele>2587.2</ele>
        <time>2021-02-20T12:39:31Z</time>
      </trkpt>
      <trkpt lat="45.17014" lon="5.96417">
        <ele>2587</ele>
        <time>2021-02-20T12:39:32Z</time>
      </trkpt>
      <trkpt lat="45.17013" lon="5.96416">
        <ele>2586.7</ele>
        <time>2021-02-20T12:39:33Z</time>
      </trkpt>
      <trkpt lat="45.17012" lon="5.96415">
        <ele>2586.6</ele>
        <time>2021-02-20T12:39:34Z</time>
      </trkpt>
      <trkpt lat="45.17012" lon="5.96415">
        <ele>2586.6</ele>
        <time>2021-02-20T12:39:35Z</time>
      </trkpt>
      <trkpt lat="45.17012" lon="5.96416">
        <ele>2586.5</ele>
        <time>2021-02-20T12:39:36Z</time>
      </trkpt>
      <trkpt lat="45.17011" lon="5.96416">
        <ele>2586.3</ele>
        <time>2021-02-20T12:39:37Z</time>
      </trkpt>
      <trkpt lat="45.1701" lon="5.9642">
        <ele>2585.8</ele>
        <time>2021-02-20T12:39:38Z</time>
      </trkpt>
      <trkpt lat="45.1701" lon="5.96422">
        <ele>2585.6</ele>
        <time>2021-02-20T12:39:39Z</time>
      </trkpt>
      <trkpt lat="45.1701" lon="5.96424">
        <ele>2585.3</ele>
        <time>2021-02-20T12:39:40Z</time>
      </trkpt>
      <trkpt lat="45.17009" lon="5.96425">
        <ele>2585.1</ele>
        <time>2021-02-20T12:39:41Z</time>
      </trkpt>
      <trkpt lat="45.17007" lon="5.96425">
        <ele>2584.7</ele>
        <time>2021-02-20T12:39:42Z</time>
      </trkpt>
      <trkpt lat="45.17005" lon="5.96425">
        <ele>2584.4</ele>
        <time>2021-02-20T12:39:43Z</time>
      </trkpt>
      <trkpt lat="45.17004" lon="5.96425">
        <ele>2584.1</ele>
        <time>2021-02-20T12:39:44Z</time>
      </trkpt>
      <trkpt lat="45.17003" lon="5.96426">
        <ele>2583.9</ele>
        <time>2021-02-20T12:39:45Z</time>
      </trkpt>
      <trkpt lat="45.17003" lon="5.96426">
        <ele>2583.9</ele>
        <time>2021-02-20T12:39:46Z</time>
      </trkpt>
      <trkpt lat="45.17003" lon="5.96426">
        <ele>2583.9</ele>
        <time>2021-02-20T12:39:47Z</time>
      </trkpt>
      <trkpt lat="45.17003" lon="5.96426">
        <ele>2583.9</ele>
        <time>2021-02-20T12:39:48Z</time>
      </trkpt>
      <trkpt lat="45.17003" lon="5.96426">
        <ele>2583.9</ele>
        <time>2021-02-20T12:39:49Z</time>
      </trkpt>
      <trkpt lat="45.17003" lon="5.96426">
        <ele>2583.9</ele>
        <time>2021-02-20T12:39:50Z</time>
      </trkpt>
      <trkpt lat="45.17003" lon="5.96426">
        <ele>2583.9</ele>
        <time>2021-02-20T12:39:51Z</time>
      </trkpt>
      <trkpt lat="45.17003" lon="5.96426">
        <ele>2583.9</ele>
        <time>2021-02-20T12:39:52Z</time>
      </trkpt>
      <trkpt lat="45.17003" lon="5.96426">
        <ele>2583.9</ele>
        <time>2021-02-20T12:39:53Z</time>
      </trkpt>
      <trkpt lat="45.17003" lon="5.96426">
        <ele>2583.9</ele>
        <time>2021-02-20T12:39:54Z</time>
      </trkpt>
      <trkpt lat="45.17003" lon="5.96426">
        <ele>2583.9</ele>
        <time>2021-02-20T12:39:55Z</time>
      </trkpt>
      <trkpt lat="45.17005" lon="5.96429">
        <ele>2583.4</ele>
        <time>2021-02-20T12:39:56Z</time>
      </trkpt>
      <trkpt lat="45.17005" lon="5.96433">
        <ele>2582.9</ele>
        <time>2021-02-20T12:39:57Z</time>
      </trkpt>
      <trkpt lat="45.17005" lon="5.96435">
        <ele>2582.6</ele>
        <time>2021-02-20T12:39:58Z</time>
      </trkpt>
      <trkpt lat="45.17006" lon="5.96437">
        <ele>2582.3</ele>
        <time>2021-02-20T12:39:59Z</time>
      </trkpt>
      <trkpt lat="45.17006" lon="5.96443">
        <ele>2581.6</ele>
        <time>2021-02-20T12:40:00Z</time>
      </trkpt>
      <trkpt lat="45.17007" lon="5.96447">
        <ele>2581</ele>
        <time>2021-02-20T12:40:01Z</time>
      </trkpt>
      <trkpt lat="45.17008" lon="5.96452">
        <ele>2580.3</ele>
        <time>2021-02-20T12:40:02Z</time>
      </trkpt>
      <trkpt lat="45.17009" lon="5.96458">
        <ele>2579.5</ele>
        <time>2021-02-20T12:40:03Z</time>
      </trkpt>
      <trkpt lat="45.1701" lon="5.96463">
        <ele>2578.9</ele>
        <time>2021-02-20T12:40:04Z</time>
      </trkpt>
      <trkpt lat="45.1701" lon="5.96467">
        <ele>2578.3</ele>
        <time>2021-02-20T12:40:05Z</time>
      </trkpt>
      <trkpt lat="45.1701" lon="5.96468">
        <ele>2578.2</ele>
        <time>2021-02-20T12:40:06Z</time>
      </trkpt>
      <trkpt lat="45.17011" lon="5.96472">
        <ele>2577.6</ele>
        <time>2021-02-20T12:40:07Z</time>
      </trkpt>
      <trkpt lat="45.17011" lon="5.96473">
        <ele>2577.5</ele>
        <time>2021-02-20T12:40:08Z</time>
      </trkpt>
      <trkpt lat="45.17011" lon="5.96477">
        <ele>2577</ele>
        <time>2021-02-20T12:40:09Z</time>
      </trkpt>
      <trkpt lat="45.17011" lon="5.96478">
        <ele>2576.8</ele>
        <time>2021-02-20T12:40:10Z</time>
      </trkpt>
      <trkpt lat="45.17012" lon="5.9648">
        <ele>2576.6</ele>
        <time>2021-02-20T12:40:11Z</time>
      </trkpt>
      <trkpt lat="45.17011" lon="5.96483">
        <ele>2576.2</ele>
        <time>2021-02-20T12:40:12Z</time>
      </trkpt>
      <trkpt lat="45.17009" lon="5.96483">
        <ele>2575.9</ele>
        <time>2021-02-20T12:40:13Z</time>
      </trkpt>
      <trkpt lat="45.17006" lon="5.9648">
        <ele>2575.1</ele>
        <time>2021-02-20T12:40:14Z</time>
      </trkpt>
      <trkpt lat="45.17005" lon="5.96479">
        <ele>2574.8</ele>
        <time>2021-02-20T12:40:15Z</time>
      </trkpt>
      <trkpt lat="45.17003" lon="5.96475">
        <ele>2574.2</ele>
        <time>2021-02-20T12:40:16Z</time>
      </trkpt>
      <trkpt lat="45.17001" lon="5.96472">
        <ele>2573.6</ele>
        <time>2021-02-20T12:40:17Z</time>
      </trkpt>
      <trkpt lat="45.16998" lon="5.9647">
        <ele>2573.1</ele>
        <time>2021-02-20T12:40:18Z</time>
      </trkpt>
      <trkpt lat="45.16996" lon="5.96469">
        <ele>2572.6</ele>
        <time>2021-02-20T12:40:19Z</time>
      </trkpt>
      <trkpt lat="45.16992" lon="5.96467">
        <ele>2571.9</ele>
        <time>2021-02-20T12:40:20Z</time>
      </trkpt>
      <trkpt lat="45.16989" lon="5.96466">
        <ele>2571.2</ele>
        <time>2021-02-20T12:40:21Z</time>
      </trkpt>
      <trkpt lat="45.16985" lon="5.96464">
        <ele>2570.5</ele>
        <time>2021-02-20T12:40:22Z</time>
      </trkpt>
      <trkpt lat="45.16981" lon="5.96463">
        <ele>2569.8</ele>
        <time>2021-02-20T12:40:23Z</time>
      </trkpt>
      <trkpt lat="45.16978" lon="5.96462">
        <ele>2569.2</ele>
        <time>2021-02-20T12:40:24Z</time>
      </trkpt>
      <trkpt lat="45.16975" lon="5.96462">
        <ele>2568.5</ele>
        <time>2021-02-20T12:40:25Z</time>
      </trkpt>
      <trkpt lat="45.16971" lon="5.96464">
        <ele>2567.8</ele>
        <time>2021-02-20T12:40:26Z</time>
      </trkpt>
      <trkpt lat="45.16967" lon="5.96467">
        <ele>2567</ele>
        <time>2021-02-20T12:40:27Z</time>
      </trkpt>
      <trkpt lat="45.16965" lon="5.9647">
        <ele>2566.5</ele>
        <time>2021-02-20T12:40:28Z</time>
      </trkpt>
      <trkpt lat="45.16965" lon="5.96471">
        <ele>2566.3</ele>
        <time>2021-02-20T12:40:29Z</time>
      </trkpt>
      <trkpt lat="45.16965" lon="5.96472">
        <ele>2566.2</ele>
        <time>2021-02-20T12:40:30Z</time>
      </trkpt>
      <trkpt lat="45.16965" lon="5.96473">
        <ele>2566.1</ele>
        <time>2021-02-20T12:40:31Z</time>
      </trkpt>
      <trkpt lat="45.16965" lon="5.96473">
        <ele>2566.1</ele>
        <time>2021-02-20T12:40:32Z</time>
      </trkpt>
      <trkpt lat="45.16965" lon="5.96473">
        <ele>2566</ele>
        <time>2021-02-20T12:40:33Z</time>
      </trkpt>
      <trkpt lat="45.16966" lon="5.96474">
        <ele>2566</ele>
        <time>2021-02-20T12:40:34Z</time>
      </trkpt>
      <trkpt lat="45.16966" lon="5.96474">
        <ele>2565.9</ele>
        <time>2021-02-20T12:40:35Z</time>
      </trkpt>
      <trkpt lat="45.16966" lon="5.96474">
        <ele>2565.9</ele>
        <time>2021-02-20T12:40:36Z</time>
      </trkpt>
      <trkpt lat="45.16966" lon="5.96475">
        <ele>2565.8</ele>
        <time>2021-02-20T12:40:37Z</time>
      </trkpt>
      <trkpt lat="45.16966" lon="5.96475">
        <ele>2565.8</ele>
        <time>2021-02-20T12:40:38Z</time>
      </trkpt>
      <trkpt lat="45.16966" lon="5.96475">
        <ele>2565.7</ele>
        <time>2021-02-20T12:40:39Z</time>
      </trkpt>
      <trkpt lat="45.16966" lon="5.96476">
        <ele>2565.7</ele>
        <time>2021-02-20T12:40:40Z</time>
      </trkpt>
      <trkpt lat="45.16966" lon="5.96476">
        <ele>2565.6</ele>
        <time>2021-02-20T12:40:41Z</time>
      </trkpt>
      <trkpt lat="45.16964" lon="5.96479">
        <ele>2565.1</ele>
        <time>2021-02-20T12:40:42Z</time>
      </trkpt>
      <trkpt lat="45.16961" lon="5.96481">
        <ele>2564.5</ele>
        <time>2021-02-20T12:40:43Z</time>
      </trkpt>
      <trkpt lat="45.1696" lon="5.96481">
        <ele>2564.2</ele>
        <time>2021-02-20T12:40:44Z</time>
      </trkpt>
      <trkpt lat="45.16959" lon="5.96481">
        <ele>2564</ele>
        <time>2021-02-20T12:40:45Z</time>
      </trkpt>
      <trkpt lat="45.16959" lon="5.96481">
        <ele>2564</ele>
        <time>2021-02-20T12:40:46Z</time>
      </trkpt>
      <trkpt lat="45.16959" lon="5.96479">
        <ele>2563.9</ele>
        <time>2021-02-20T12:40:47Z</time>
      </trkpt>
      <trkpt lat="45.16959" lon="5.96479">
        <ele>2563.9</ele>
        <time>2021-02-20T12:40:48Z</time>
      </trkpt>
      <trkpt lat="45.16959" lon="5.96479">
        <ele>2563.9</ele>
        <time>2021-02-20T12:40:49Z</time>
      </trkpt>
      <trkpt lat="45.16959" lon="5.96479">
        <ele>2563.9</ele>
        <time>2021-02-20T12:40:50Z</time>
      </trkpt>
      <trkpt lat="45.16958" lon="5.96479">
        <ele>2563.7</ele>
        <time>2021-02-20T12:40:51Z</time>
      </trkpt>
      <trkpt lat="45.16958" lon="5.96479">
        <ele>2563.7</ele>
        <time>2021-02-20T12:40:52Z</time>
      </trkpt>
      <trkpt lat="45.16958" lon="5.96479">
        <ele>2563.7</ele>
        <time>2021-02-20T12:40:53Z</time>
      </trkpt>
      <trkpt lat="45.16958" lon="5.96479">
        <ele>2563.7</ele>
        <time>2021-02-20T12:40:54Z</time>
      </trkpt>
      <trkpt lat="45.16958" lon="5.96479">
        <ele>2563.7</ele>
        <time>2021-02-20T12:40:55Z</time>
      </trkpt>
      <trkpt lat="45.16958" lon="5.96479">
        <ele>2563.7</ele>
        <time>2021-02-20T12:40:56Z</time>
      </trkpt>
      <trkpt lat="45.16958" lon="5.96479">
        <ele>2563.7</ele>
        <time>2021-02-20T12:40:57Z</time>
      </trkpt>
      <trkpt lat="45.16958" lon="5.96479">
        <ele>2563.7</ele>
        <time>2021-02-20T12:40:58Z</time>
      </trkpt>
      <trkpt lat="45.16958" lon="5.9648">
        <ele>2563.6</ele>
        <time>2021-02-20T12:40:59Z</time>
      </trkpt>
      <trkpt lat="45.16956" lon="5.96479">
        <ele>2563.2</ele>
        <time>2021-02-20T12:41:00Z</time>
      </trkpt>
      <trkpt lat="45.16952" lon="5.96477">
        <ele>2562.5</ele>
        <time>2021-02-20T12:41:01Z</time>
      </trkpt>
      <trkpt lat="45.16949" lon="5.96474">
        <ele>2561.9</ele>
        <time>2021-02-20T12:41:02Z</time>
      </trkpt>
      <trkpt lat="45.16949" lon="5.96473">
        <ele>2561.7</ele>
        <time>2021-02-20T12:41:03Z</time>
      </trkpt>
      <trkpt lat="45.16946" lon="5.9647">
        <ele>2561</ele>
        <time>2021-02-20T12:41:04Z</time>
      </trkpt>
      <trkpt lat="45.16944" lon="5.96469">
        <ele>2560.7</ele>
        <time>2021-02-20T12:41:05Z</time>
      </trkpt>
      <trkpt lat="45.16942" lon="5.96466">
        <ele>2560.1</ele>
        <time>2021-02-20T12:41:06Z</time>
      </trkpt>
      <trkpt lat="45.16939" lon="5.96462">
        <ele>2559.4</ele>
        <time>2021-02-20T12:41:07Z</time>
      </trkpt>
      <trkpt lat="45.16937" lon="5.96459">
        <ele>2558.8</ele>
        <time>2021-02-20T12:41:08Z</time>
      </trkpt>
      <trkpt lat="45.16937" lon="5.96457">
        <ele>2558.5</ele>
        <time>2021-02-20T12:41:09Z</time>
      </trkpt>
      <trkpt lat="45.16937" lon="5.96456">
        <ele>2558.4</ele>
        <time>2021-02-20T12:41:10Z</time>
      </trkpt>
      <trkpt lat="45.16936" lon="5.96454">
        <ele>2558.1</ele>
        <time>2021-02-20T12:41:11Z</time>
      </trkpt>
      <trkpt lat="45.16934" lon="5.96455">
        <ele>2557.8</ele>
        <time>2021-02-20T12:41:12Z</time>
      </trkpt>
      <trkpt lat="45.16933" lon="5.96456">
        <ele>2557.6</ele>
        <time>2021-02-20T12:41:13Z</time>
      </trkpt>
      <trkpt lat="45.16933" lon="5.96458">
        <ele>2557.3</ele>
        <time>2021-02-20T12:41:14Z</time>
      </trkpt>
      <trkpt lat="45.16934" lon="5.96462">
        <ele>2556.7</ele>
        <time>2021-02-20T12:41:15Z</time>
      </trkpt>
      <trkpt lat="45.16934" lon="5.96463">
        <ele>2556.6</ele>
        <time>2021-02-20T12:41:16Z</time>
      </trkpt>
      <trkpt lat="45.16934" lon="5.96469">
        <ele>2555.9</ele>
        <time>2021-02-20T12:41:17Z</time>
      </trkpt>
      <trkpt lat="45.16934" lon="5.96471">
        <ele>2555.6</ele>
        <time>2021-02-20T12:41:18Z</time>
      </trkpt>
      <trkpt lat="45.16932" lon="5.96472">
        <ele>2555.3</ele>
        <time>2021-02-20T12:41:19Z</time>
      </trkpt>
      <trkpt lat="45.16931" lon="5.96471">
        <ele>2555</ele>
        <time>2021-02-20T12:41:20Z</time>
      </trkpt>
      <trkpt lat="45.16929" lon="5.96468">
        <ele>2554.4</ele>
        <time>2021-02-20T12:41:21Z</time>
      </trkpt>
      <trkpt lat="45.16927" lon="5.96464">
        <ele>2553.8</ele>
        <time>2021-02-20T12:41:22Z</time>
      </trkpt>
      <trkpt lat="45.16924" lon="5.9646">
        <ele>2553.1</ele>
        <time>2021-02-20T12:41:23Z</time>
      </trkpt>
      <trkpt lat="45.1692" lon="5.96458">
        <ele>2552.3</ele>
        <time>2021-02-20T12:41:24Z</time>
      </trkpt>
      <trkpt lat="45.16916" lon="5.96457">
        <ele>2551.5</ele>
        <time>2021-02-20T12:41:25Z</time>
      </trkpt>
      <trkpt lat="45.16912" lon="5.96458">
        <ele>2550.8</ele>
        <time>2021-02-20T12:41:26Z</time>
      </trkpt>
      <trkpt lat="45.16909" lon="5.96461">
        <ele>2550.1</ele>
        <time>2021-02-20T12:41:27Z</time>
      </trkpt>
      <trkpt lat="45.16906" lon="5.96464">
        <ele>2549.5</ele>
        <time>2021-02-20T12:41:28Z</time>
      </trkpt>
      <trkpt lat="45.16903" lon="5.96466">
        <ele>2548.8</ele>
        <time>2021-02-20T12:41:29Z</time>
      </trkpt>
      <trkpt lat="45.16902" lon="5.96467">
        <ele>2548.6</ele>
        <time>2021-02-20T12:41:30Z</time>
      </trkpt>
      <trkpt lat="45.16901" lon="5.96472">
        <ele>2547.9</ele>
        <time>2021-02-20T12:41:31Z</time>
      </trkpt>
      <trkpt lat="45.16902" lon="5.9648">
        <ele>2546.9</ele>
        <time>2021-02-20T12:41:32Z</time>
      </trkpt>
      <trkpt lat="45.16904" lon="5.96488">
        <ele>2545.7</ele>
        <time>2021-02-20T12:41:33Z</time>
      </trkpt>
      <trkpt lat="45.16907" lon="5.96494">
        <ele>2544.9</ele>
        <time>2021-02-20T12:41:34Z</time>
      </trkpt>
      <trkpt lat="45.16909" lon="5.96496">
        <ele>2544.4</ele>
        <time>2021-02-20T12:41:35Z</time>
      </trkpt>
      <trkpt lat="45.16909" lon="5.96497">
        <ele>2544.2</ele>
        <time>2021-02-20T12:41:36Z</time>
      </trkpt>
      <trkpt lat="45.16909" lon="5.96497">
        <ele>2544.2</ele>
        <time>2021-02-20T12:41:37Z</time>
      </trkpt>
      <trkpt lat="45.16909" lon="5.96497">
        <ele>2544.2</ele>
        <time>2021-02-20T12:41:38Z</time>
      </trkpt>
      <trkpt lat="45.16909" lon="5.96497">
        <ele>2544.2</ele>
        <time>2021-02-20T12:41:39Z</time>
      </trkpt>
      <trkpt lat="45.16909" lon="5.96497">
        <ele>2544.2</ele>
        <time>2021-02-20T12:41:40Z</time>
      </trkpt>
      <trkpt lat="45.16909" lon="5.96497">
        <ele>2544.2</ele>
        <time>2021-02-20T12:41:41Z</time>
      </trkpt>
      <trkpt lat="45.16909" lon="5.96497">
        <ele>2544.2</ele>
        <time>2021-02-20T12:41:42Z</time>
      </trkpt>
      <trkpt lat="45.16909" lon="5.96497">
        <ele>2544.2</ele>
        <time>2021-02-20T12:41:43Z</time>
      </trkpt>
      <trkpt lat="45.16912" lon="5.96497">
        <ele>2543.8</ele>
        <time>2021-02-20T12:41:44Z</time>
      </trkpt>
      <trkpt lat="45.16912" lon="5.96497">
        <ele>2543.8</ele>
        <time>2021-02-20T12:41:45Z</time>
      </trkpt>
      <trkpt lat="45.16912" lon="5.96497">
        <ele>2543.8</ele>
        <time>2021-02-20T12:41:46Z</time>
      </trkpt>
      <trkpt lat="45.16912" lon="5.96497">
        <ele>2543.8</ele>
        <time>2021-02-20T12:41:47Z</time>
      </trkpt>
      <trkpt lat="45.16911" lon="5.96499">
        <ele>2543.6</ele>
        <time>2021-02-20T12:41:48Z</time>
      </trkpt>
      <trkpt lat="45.16911" lon="5.965">
        <ele>2543.4</ele>
        <time>2021-02-20T12:41:49Z</time>
      </trkpt>
      <trkpt lat="45.16911" lon="5.96502">
        <ele>2543.1</ele>
        <time>2021-02-20T12:41:50Z</time>
      </trkpt>
      <trkpt lat="45.16911" lon="5.96505">
        <ele>2542.8</ele>
        <time>2021-02-20T12:41:51Z</time>
      </trkpt>
      <trkpt lat="45.1691" lon="5.96511">
        <ele>2542</ele>
        <time>2021-02-20T12:41:52Z</time>
      </trkpt>
      <trkpt lat="45.1691" lon="5.96514">
        <ele>2541.6</ele>
        <time>2021-02-20T12:41:53Z</time>
      </trkpt>
      <trkpt lat="45.16908" lon="5.96519">
        <ele>2540.8</ele>
        <time>2021-02-20T12:41:54Z</time>
      </trkpt>
      <trkpt lat="45.16906" lon="5.96523">
        <ele>2540.3</ele>
        <time>2021-02-20T12:41:55Z</time>
      </trkpt>
      <trkpt lat="45.16903" lon="5.96523">
        <ele>2539.7</ele>
        <time>2021-02-20T12:41:56Z</time>
      </trkpt>
      <trkpt lat="45.16902" lon="5.96523">
        <ele>2539.5</ele>
        <time>2021-02-20T12:41:57Z</time>
      </trkpt>
      <trkpt lat="45.169" lon="5.96519">
        <ele>2538.9</ele>
        <time>2021-02-20T12:41:58Z</time>
      </trkpt>
      <trkpt lat="45.16899" lon="5.96518">
        <ele>2538.7</ele>
        <time>2021-02-20T12:41:59Z</time>
      </trkpt>
      <trkpt lat="45.16896" lon="5.96515">
        <ele>2537.9</ele>
        <time>2021-02-20T12:42:00Z</time>
      </trkpt>
      <trkpt lat="45.16894" lon="5.96514">
        <ele>2537.6</ele>
        <time>2021-02-20T12:42:01Z</time>
      </trkpt>
      <trkpt lat="45.16891" lon="5.96512">
        <ele>2537</ele>
        <time>2021-02-20T12:42:02Z</time>
      </trkpt>
      <trkpt lat="45.16888" lon="5.96515">
        <ele>2536.3</ele>
        <time>2021-02-20T12:42:03Z</time>
      </trkpt>
      <trkpt lat="45.16884" lon="5.96519">
        <ele>2535.3</ele>
        <time>2021-02-20T12:42:04Z</time>
      </trkpt>
      <trkpt lat="45.1688" lon="5.96522">
        <ele>2534.6</ele>
        <time>2021-02-20T12:42:05Z</time>
      </trkpt>
      <trkpt lat="45.16877" lon="5.96522">
        <ele>2534</ele>
        <time>2021-02-20T12:42:06Z</time>
      </trkpt>
      <trkpt lat="45.16886" lon="5.96516">
        <ele>2532.2</ele>
        <time>2021-02-20T12:42:07Z</time>
      </trkpt>
      <trkpt lat="45.16885" lon="5.96523">
        <ele>2531.2</ele>
        <time>2021-02-20T12:42:08Z</time>
      </trkpt>
      <trkpt lat="45.16882" lon="5.96525">
        <ele>2530.7</ele>
        <time>2021-02-20T12:42:09Z</time>
      </trkpt>
      <trkpt lat="45.16878" lon="5.96526">
        <ele>2529.9</ele>
        <time>2021-02-20T12:42:10Z</time>
      </trkpt>
      <trkpt lat="45.16878" lon="5.96531">
        <ele>2529.2</ele>
        <time>2021-02-20T12:42:11Z</time>
      </trkpt>
      <trkpt lat="45.16874" lon="5.96534">
        <ele>2528.3</ele>
        <time>2021-02-20T12:42:12Z</time>
      </trkpt>
      <trkpt lat="45.16871" lon="5.96534">
        <ele>2527.8</ele>
        <time>2021-02-20T12:42:13Z</time>
      </trkpt>
      <trkpt lat="45.16867" lon="5.96536">
        <ele>2527</ele>
        <time>2021-02-20T12:42:14Z</time>
      </trkpt>
      <trkpt lat="45.16865" lon="5.96541">
        <ele>2525.6</ele>
        <time>2021-02-20T12:42:15Z</time>
      </trkpt>
      <trkpt lat="45.16865" lon="5.9655">
        <ele>2524.4</ele>
        <time>2021-02-20T12:42:16Z</time>
      </trkpt>
      <trkpt lat="45.16865" lon="5.96564">
        <ele>2522.6</ele>
        <time>2021-02-20T12:42:17Z</time>
      </trkpt>
      <trkpt lat="45.16865" lon="5.96572">
        <ele>2521.9</ele>
        <time>2021-02-20T12:42:18Z</time>
      </trkpt>
      <trkpt lat="45.16864" lon="5.9658">
        <ele>2521.3</ele>
        <time>2021-02-20T12:42:19Z</time>
      </trkpt>
      <trkpt lat="45.16863" lon="5.96587">
        <ele>2519.3</ele>
        <time>2021-02-20T12:42:20Z</time>
      </trkpt>
      <trkpt lat="45.16863" lon="5.96594">
        <ele>2518.9</ele>
        <time>2021-02-20T12:42:21Z</time>
      </trkpt>
      <trkpt lat="45.16862" lon="5.96599">
        <ele>2518.7</ele>
        <time>2021-02-20T12:42:22Z</time>
      </trkpt>
      <trkpt lat="45.16862" lon="5.96602">
        <ele>2518.6</ele>
        <time>2021-02-20T12:42:23Z</time>
      </trkpt>
      <trkpt lat="45.16861" lon="5.96603">
        <ele>2518.6</ele>
        <time>2021-02-20T12:42:24Z</time>
      </trkpt>
      <trkpt lat="45.16861" lon="5.96605">
        <ele>2518.6</ele>
        <time>2021-02-20T12:42:25Z</time>
      </trkpt>
      <trkpt lat="45.16862" lon="5.96605">
        <ele>2518.6</ele>
        <time>2021-02-20T12:42:26Z</time>
      </trkpt>
      <trkpt lat="45.16862" lon="5.96605">
        <ele>2518.6</ele>
        <time>2021-02-20T12:42:27Z</time>
      </trkpt>
      <trkpt lat="45.16862" lon="5.96605">
        <ele>2518.6</ele>
        <time>2021-02-20T12:42:28Z</time>
      </trkpt>
      <trkpt lat="45.16862" lon="5.96608">
        <ele>2518.6</ele>
        <time>2021-02-20T12:42:29Z</time>
      </trkpt>
      <trkpt lat="45.16862" lon="5.96609">
        <ele>2518.6</ele>
        <time>2021-02-20T12:42:30Z</time>
      </trkpt>
      <trkpt lat="45.16861" lon="5.9661">
        <ele>2518.6</ele>
        <time>2021-02-20T12:42:31Z</time>
      </trkpt>
      <trkpt lat="45.16861" lon="5.96611">
        <ele>2518.6</ele>
        <time>2021-02-20T12:42:32Z</time>
      </trkpt>
      <trkpt lat="45.16861" lon="5.96612">
        <ele>2518.6</ele>
        <time>2021-02-20T12:42:33Z</time>
      </trkpt>
      <trkpt lat="45.16861" lon="5.96612">
        <ele>2518.6</ele>
        <time>2021-02-20T12:42:34Z</time>
      </trkpt>
      <trkpt lat="45.16861" lon="5.96612">
        <ele>2518.6</ele>
        <time>2021-02-20T12:42:35Z</time>
      </trkpt>
      <trkpt lat="45.16861" lon="5.96612">
        <ele>2518.6</ele>
        <time>2021-02-20T12:42:36Z</time>
      </trkpt>
      <trkpt lat="45.16861" lon="5.96612">
        <ele>2518.6</ele>
        <time>2021-02-20T12:42:37Z</time>
      </trkpt>
      <trkpt lat="45.16861" lon="5.96612">
        <ele>2518.6</ele>
        <time>2021-02-20T12:42:38Z</time>
      </trkpt>
      <trkpt lat="45.16861" lon="5.96615">
        <ele>2518.6</ele>
        <time>2021-02-20T12:42:39Z</time>
      </trkpt>
      <trkpt lat="45.16861" lon="5.96616">
        <ele>2518.6</ele>
        <time>2021-02-20T12:42:40Z</time>
      </trkpt>
      <trkpt lat="45.16861" lon="5.96616">
        <ele>2518.6</ele>
        <time>2021-02-20T12:42:41Z</time>
      </trkpt>
      <trkpt lat="45.16861" lon="5.96616">
        <ele>2518.6</ele>
        <time>2021-02-20T12:42:42Z</time>
      </trkpt>
      <trkpt lat="45.16861" lon="5.96616">
        <ele>2518.6</ele>
        <time>2021-02-20T12:42:43Z</time>
      </trkpt>
      <trkpt lat="45.16861" lon="5.96617">
        <ele>2518.6</ele>
        <time>2021-02-20T12:42:44Z</time>
      </trkpt>
      <trkpt lat="45.16861" lon="5.96618">
        <ele>2518.6</ele>
        <time>2021-02-20T12:42:45Z</time>
      </trkpt>
      <trkpt lat="45.16861" lon="5.96618">
        <ele>2518.7</ele>
        <time>2021-02-20T12:42:46Z</time>
      </trkpt>
      <trkpt lat="45.16861" lon="5.96618">
        <ele>2518.7</ele>
        <time>2021-02-20T12:42:47Z</time>
      </trkpt>
      <trkpt lat="45.16861" lon="5.96619">
        <ele>2518.7</ele>
        <time>2021-02-20T12:42:48Z</time>
      </trkpt>
      <trkpt lat="45.16861" lon="5.9662">
        <ele>2518.7</ele>
        <time>2021-02-20T12:42:49Z</time>
      </trkpt>
      <trkpt lat="45.16861" lon="5.96621">
        <ele>2518.7</ele>
        <time>2021-02-20T12:42:50Z</time>
      </trkpt>
      <trkpt lat="45.1686" lon="5.96623">
        <ele>2517.3</ele>
        <time>2021-02-20T12:42:51Z</time>
      </trkpt>
      <trkpt lat="45.1686" lon="5.96624">
        <ele>2517.3</ele>
        <time>2021-02-20T12:42:52Z</time>
      </trkpt>
      <trkpt lat="45.1686" lon="5.96625">
        <ele>2517.3</ele>
        <time>2021-02-20T12:42:53Z</time>
      </trkpt>
      <trkpt lat="45.1686" lon="5.96626">
        <ele>2517.3</ele>
        <time>2021-02-20T12:42:54Z</time>
      </trkpt>
      <trkpt lat="45.1686" lon="5.96627">
        <ele>2517.5</ele>
        <time>2021-02-20T12:42:55Z</time>
      </trkpt>
      <trkpt lat="45.16859" lon="5.96628">
        <ele>2517.5</ele>
        <time>2021-02-20T12:42:56Z</time>
      </trkpt>
      <trkpt lat="45.16859" lon="5.96629">
        <ele>2517.5</ele>
        <time>2021-02-20T12:42:57Z</time>
      </trkpt>
      <trkpt lat="45.16859" lon="5.9663">
        <ele>2517.5</ele>
        <time>2021-02-20T12:42:58Z</time>
      </trkpt>
      <trkpt lat="45.16859" lon="5.9663">
        <ele>2517.5</ele>
        <time>2021-02-20T12:42:59Z</time>
      </trkpt>
      <trkpt lat="45.16859" lon="5.96631">
        <ele>2517.8</ele>
        <time>2021-02-20T12:43:00Z</time>
      </trkpt>
      <trkpt lat="45.16859" lon="5.96631">
        <ele>2517.8</ele>
        <time>2021-02-20T12:43:01Z</time>
      </trkpt>
      <trkpt lat="45.16858" lon="5.96631">
        <ele>2517.5</ele>
        <time>2021-02-20T12:43:02Z</time>
      </trkpt>
      <trkpt lat="45.16858" lon="5.96632">
        <ele>2517.8</ele>
        <time>2021-02-20T12:43:03Z</time>
      </trkpt>
      <trkpt lat="45.16858" lon="5.96633">
        <ele>2517.8</ele>
        <time>2021-02-20T12:43:04Z</time>
      </trkpt>
      <trkpt lat="45.16857" lon="5.96634">
        <ele>2516.3</ele>
        <time>2021-02-20T12:43:05Z</time>
      </trkpt>
      <trkpt lat="45.16857" lon="5.96635">
        <ele>2516.6</ele>
        <time>2021-02-20T12:43:06Z</time>
      </trkpt>
      <trkpt lat="45.16857" lon="5.96637">
        <ele>2516.6</ele>
        <time>2021-02-20T12:43:07Z</time>
      </trkpt>
      <trkpt lat="45.16857" lon="5.96638">
        <ele>2516.6</ele>
        <time>2021-02-20T12:43:08Z</time>
      </trkpt>
      <trkpt lat="45.16857" lon="5.96639">
        <ele>2516.6</ele>
        <time>2021-02-20T12:43:09Z</time>
      </trkpt>
      <trkpt lat="45.16856" lon="5.96639">
        <ele>2517</ele>
        <time>2021-02-20T12:43:10Z</time>
      </trkpt>
      <trkpt lat="45.16856" lon="5.9664">
        <ele>2517</ele>
        <time>2021-02-20T12:43:11Z</time>
      </trkpt>
      <trkpt lat="45.16855" lon="5.96641">
        <ele>2517</ele>
        <time>2021-02-20T12:43:12Z</time>
      </trkpt>
      <trkpt lat="45.16855" lon="5.96642">
        <ele>2517</ele>
        <time>2021-02-20T12:43:13Z</time>
      </trkpt>
      <trkpt lat="45.16854" lon="5.96644">
        <ele>2516</ele>
        <time>2021-02-20T12:43:14Z</time>
      </trkpt>
      <trkpt lat="45.16854" lon="5.96645">
        <ele>2516</ele>
        <time>2021-02-20T12:43:15Z</time>
      </trkpt>
      <trkpt lat="45.16854" lon="5.96647">
        <ele>2516</ele>
        <time>2021-02-20T12:43:16Z</time>
      </trkpt>
      <trkpt lat="45.16853" lon="5.96648">
        <ele>2516.4</ele>
        <time>2021-02-20T12:43:17Z</time>
      </trkpt>
      <trkpt lat="45.16852" lon="5.96651">
        <ele>2516.4</ele>
        <time>2021-02-20T12:43:18Z</time>
      </trkpt>
      <trkpt lat="45.16851" lon="5.96655">
        <ele>2515.6</ele>
        <time>2021-02-20T12:43:19Z</time>
      </trkpt>
      <trkpt lat="45.16851" lon="5.96657">
        <ele>2515.8</ele>
        <time>2021-02-20T12:43:20Z</time>
      </trkpt>
      <trkpt lat="45.1685" lon="5.96661">
        <ele>2516</ele>
        <time>2021-02-20T12:43:21Z</time>
      </trkpt>
      <trkpt lat="45.16848" lon="5.96665">
        <ele>2515.2</ele>
        <time>2021-02-20T12:43:22Z</time>
      </trkpt>
      <trkpt lat="45.16848" lon="5.96668">
        <ele>2515.2</ele>
        <time>2021-02-20T12:43:23Z</time>
      </trkpt>
      <trkpt lat="45.16847" lon="5.96669">
        <ele>2515.4</ele>
        <time>2021-02-20T12:43:24Z</time>
      </trkpt>
      <trkpt lat="45.16847" lon="5.9667">
        <ele>2515.4</ele>
        <time>2021-02-20T12:43:25Z</time>
      </trkpt>
      <trkpt lat="45.16846" lon="5.96671">
        <ele>2515.4</ele>
        <time>2021-02-20T12:43:26Z</time>
      </trkpt>
      <trkpt lat="45.16846" lon="5.96671">
        <ele>2515.4</ele>
        <time>2021-02-20T12:43:27Z</time>
      </trkpt>
      <trkpt lat="45.16846" lon="5.96671">
        <ele>2515.4</ele>
        <time>2021-02-20T12:43:28Z</time>
      </trkpt>
      <trkpt lat="45.16846" lon="5.96671">
        <ele>2515.4</ele>
        <time>2021-02-20T12:43:29Z</time>
      </trkpt>
      <trkpt lat="45.16846" lon="5.96671">
        <ele>2515.4</ele>
        <time>2021-02-20T12:43:30Z</time>
      </trkpt>
      <trkpt lat="45.16846" lon="5.96671">
        <ele>2515.4</ele>
        <time>2021-02-20T12:43:31Z</time>
      </trkpt>
      <trkpt lat="45.16846" lon="5.96671">
        <ele>2515.4</ele>
        <time>2021-02-20T12:43:32Z</time>
      </trkpt>
      <trkpt lat="45.16846" lon="5.96671">
        <ele>2515.4</ele>
        <time>2021-02-20T12:43:33Z</time>
      </trkpt>
      <trkpt lat="45.16846" lon="5.96671">
        <ele>2515.4</ele>
        <time>2021-02-20T12:43:34Z</time>
      </trkpt>
      <trkpt lat="45.16845" lon="5.96672">
        <ele>2514.4</ele>
        <time>2021-02-20T12:43:35Z</time>
      </trkpt>
      <trkpt lat="45.16845" lon="5.96672">
        <ele>2514.4</ele>
        <time>2021-02-20T12:43:36Z</time>
      </trkpt>
      <trkpt lat="45.16845" lon="5.96672">
        <ele>2514.4</ele>
        <time>2021-02-20T12:43:37Z</time>
      </trkpt>
      <trkpt lat="45.16845" lon="5.96672">
        <ele>2514.4</ele>
        <time>2021-02-20T12:43:38Z</time>
      </trkpt>
      <trkpt lat="45.16846" lon="5.96671">
        <ele>2515.4</ele>
        <time>2021-02-20T12:43:39Z</time>
      </trkpt>
      <trkpt lat="45.16845" lon="5.96671">
        <ele>2515.4</ele>
        <time>2021-02-20T12:43:40Z</time>
      </trkpt>
      <trkpt lat="45.16845" lon="5.96671">
        <ele>2514.4</ele>
        <time>2021-02-20T12:43:41Z</time>
      </trkpt>
      <trkpt lat="45.16845" lon="5.96671">
        <ele>2514.4</ele>
        <time>2021-02-20T12:43:42Z</time>
      </trkpt>
      <trkpt lat="45.16845" lon="5.96671">
        <ele>2514.4</ele>
        <time>2021-02-20T12:43:43Z</time>
      </trkpt>
      <trkpt lat="45.16845" lon="5.96671">
        <ele>2514.4</ele>
        <time>2021-02-20T12:43:44Z</time>
      </trkpt>
      <trkpt lat="45.16845" lon="5.96671">
        <ele>2514.4</ele>
        <time>2021-02-20T12:43:45Z</time>
      </trkpt>
      <trkpt lat="45.16845" lon="5.96671">
        <ele>2514.4</ele>
        <time>2021-02-20T12:43:46Z</time>
      </trkpt>
      <trkpt lat="45.16845" lon="5.96671">
        <ele>2514.4</ele>
        <time>2021-02-20T12:43:47Z</time>
      </trkpt>
      <trkpt lat="45.16846" lon="5.96669">
        <ele>2515.2</ele>
        <time>2021-02-20T12:43:48Z</time>
      </trkpt>
      <trkpt lat="45.16846" lon="5.96668">
        <ele>2515.2</ele>
        <time>2021-02-20T12:43:49Z</time>
      </trkpt>
      <trkpt lat="45.16846" lon="5.96669">
        <ele>2515.2</ele>
        <time>2021-02-20T12:43:50Z</time>
      </trkpt>
      <trkpt lat="45.16846" lon="5.96669">
        <ele>2515.2</ele>
        <time>2021-02-20T12:43:51Z</time>
      </trkpt>
      <trkpt lat="45.16847" lon="5.9667">
        <ele>2515.4</ele>
        <time>2021-02-20T12:43:52Z</time>
      </trkpt>
      <trkpt lat="45.16847" lon="5.9667">
        <ele>2515.4</ele>
        <time>2021-02-20T12:43:53Z</time>
      </trkpt>
      <trkpt lat="45.16847" lon="5.9667">
        <ele>2515.4</ele>
        <time>2021-02-20T12:43:54Z</time>
      </trkpt>
      <trkpt lat="45.16847" lon="5.96671">
        <ele>2515.4</ele>
        <time>2021-02-20T12:43:55Z</time>
      </trkpt>
      <trkpt lat="45.16846" lon="5.96672">
        <ele>2515.4</ele>
        <time>2021-02-20T12:43:56Z</time>
      </trkpt>
      <trkpt lat="45.16846" lon="5.96672">
        <ele>2515.4</ele>
        <time>2021-02-20T12:43:57Z</time>
      </trkpt>
      <trkpt lat="45.16846" lon="5.96673">
        <ele>2515.4</ele>
        <time>2021-02-20T12:43:58Z</time>
      </trkpt>
      <trkpt lat="45.16846" lon="5.96674">
        <ele>2515.5</ele>
        <time>2021-02-20T12:43:59Z</time>
      </trkpt>
      <trkpt lat="45.16846" lon="5.96674">
        <ele>2515.5</ele>
        <time>2021-02-20T12:44:00Z</time>
      </trkpt>
      <trkpt lat="45.16847" lon="5.96675">
        <ele>2515.5</ele>
        <time>2021-02-20T12:44:01Z</time>
      </trkpt>
      <trkpt lat="45.16847" lon="5.96675">
        <ele>2515.5</ele>
        <time>2021-02-20T12:44:02Z</time>
      </trkpt>
      <trkpt lat="45.16847" lon="5.96675">
        <ele>2515.5</ele>
        <time>2021-02-20T12:44:03Z</time>
      </trkpt>
      <trkpt lat="45.16847" lon="5.96675">
        <ele>2515.5</ele>
        <time>2021-02-20T12:44:04Z</time>
      </trkpt>
      <trkpt lat="45.16847" lon="5.96675">
        <ele>2515.5</ele>
        <time>2021-02-20T12:44:05Z</time>
      </trkpt>
      <trkpt lat="45.16847" lon="5.96675">
        <ele>2515.5</ele>
        <time>2021-02-20T12:44:06Z</time>
      </trkpt>
      <trkpt lat="45.16847" lon="5.96675">
        <ele>2515.5</ele>
        <time>2021-02-20T12:44:07Z</time>
      </trkpt>
      <trkpt lat="45.16847" lon="5.96678">
        <ele>2515.6</ele>
        <time>2021-02-20T12:44:08Z</time>
      </trkpt>
      <trkpt lat="45.16847" lon="5.96679">
        <ele>2515.6</ele>
        <time>2021-02-20T12:44:09Z</time>
      </trkpt>
      <trkpt lat="45.16848" lon="5.96679">
        <ele>2515.6</ele>
        <time>2021-02-20T12:44:10Z</time>
      </trkpt>
      <trkpt lat="45.16848" lon="5.96679">
        <ele>2515.6</ele>
        <time>2021-02-20T12:44:11Z</time>
      </trkpt>
      <trkpt lat="45.16848" lon="5.9668">
        <ele>2515.6</ele>
        <time>2021-02-20T12:44:12Z</time>
      </trkpt>
      <trkpt lat="45.16848" lon="5.96681">
        <ele>2515.6</ele>
        <time>2021-02-20T12:44:13Z</time>
      </trkpt>
      <trkpt lat="45.16847" lon="5.96682">
        <ele>2515.6</ele>
        <time>2021-02-20T12:44:14Z</time>
      </trkpt>
      <trkpt lat="45.16846" lon="5.96682">
        <ele>2515.7</ele>
        <time>2021-02-20T12:44:15Z</time>
      </trkpt>
      <trkpt lat="45.16845" lon="5.96685">
        <ele>2514.7</ele>
        <time>2021-02-20T12:44:16Z</time>
      </trkpt>
      <trkpt lat="45.16844" lon="5.96686">
        <ele>2514.7</ele>
        <time>2021-02-20T12:44:17Z</time>
      </trkpt>
      <trkpt lat="45.16843" lon="5.96687">
        <ele>2514.9</ele>
        <time>2021-02-20T12:44:18Z</time>
      </trkpt>
      <trkpt lat="45.16841" lon="5.9669">
        <ele>2513.8</ele>
        <time>2021-02-20T12:44:19Z</time>
      </trkpt>
      <trkpt lat="45.1684" lon="5.96691">
        <ele>2514</ele>
        <time>2021-02-20T12:44:20Z</time>
      </trkpt>
      <trkpt lat="45.16838" lon="5.96695">
        <ele>2512.9</ele>
        <time>2021-02-20T12:44:21Z</time>
      </trkpt>
      <trkpt lat="45.16838" lon="5.96696">
        <ele>2513.1</ele>
        <time>2021-02-20T12:44:22Z</time>
      </trkpt>
      <trkpt lat="45.16835" lon="5.96701">
        <ele>2512.2</ele>
        <time>2021-02-20T12:44:23Z</time>
      </trkpt>
      <trkpt lat="45.16834" lon="5.96703">
        <ele>2512.2</ele>
        <time>2021-02-20T12:44:24Z</time>
      </trkpt>
      <trkpt lat="45.16832" lon="5.96706">
        <ele>2511.4</ele>
        <time>2021-02-20T12:44:25Z</time>
      </trkpt>
      <trkpt lat="45.16831" lon="5.9671">
        <ele>2511.7</ele>
        <time>2021-02-20T12:44:26Z</time>
      </trkpt>
      <trkpt lat="45.16828" lon="5.96715">
        <ele>2511.1</ele>
        <time>2021-02-20T12:44:27Z</time>
      </trkpt>
      <trkpt lat="45.16828" lon="5.96716">
        <ele>2511.1</ele>
        <time>2021-02-20T12:44:28Z</time>
      </trkpt>
      <trkpt lat="45.16825" lon="5.96721">
        <ele>2510.6</ele>
        <time>2021-02-20T12:44:29Z</time>
      </trkpt>
      <trkpt lat="45.16821" lon="5.96726">
        <ele>2510.5</ele>
        <time>2021-02-20T12:44:30Z</time>
      </trkpt>
      <trkpt lat="45.16817" lon="5.96733">
        <ele>2509.7</ele>
        <time>2021-02-20T12:44:31Z</time>
      </trkpt>
      <trkpt lat="45.16813" lon="5.9674">
        <ele>2509.8</ele>
        <time>2021-02-20T12:44:32Z</time>
      </trkpt>
      <trkpt lat="45.16809" lon="5.96745">
        <ele>2509.1</ele>
        <time>2021-02-20T12:44:33Z</time>
      </trkpt>
      <trkpt lat="45.16806" lon="5.9675">
        <ele>2509</ele>
        <time>2021-02-20T12:44:34Z</time>
      </trkpt>
      <trkpt lat="45.16805" lon="5.96751">
        <ele>2509.5</ele>
        <time>2021-02-20T12:44:35Z</time>
      </trkpt>
      <trkpt lat="45.16805" lon="5.96751">
        <ele>2509.5</ele>
        <time>2021-02-20T12:44:36Z</time>
      </trkpt>
      <trkpt lat="45.16806" lon="5.96751">
        <ele>2509</ele>
        <time>2021-02-20T12:44:37Z</time>
      </trkpt>
      <trkpt lat="45.16807" lon="5.9675">
        <ele>2509.5</ele>
        <time>2021-02-20T12:44:38Z</time>
      </trkpt>
      <trkpt lat="45.16807" lon="5.96749">
        <ele>2509.5</ele>
        <time>2021-02-20T12:44:39Z</time>
      </trkpt>
      <trkpt lat="45.16807" lon="5.9675">
        <ele>2509.5</ele>
        <time>2021-02-20T12:44:40Z</time>
      </trkpt>
      <trkpt lat="45.16807" lon="5.9675">
        <ele>2509.5</ele>
        <time>2021-02-20T12:44:41Z</time>
      </trkpt>
      <trkpt lat="45.16807" lon="5.9675">
        <ele>2509.5</ele>
        <time>2021-02-20T12:44:42Z</time>
      </trkpt>
      <trkpt lat="45.16807" lon="5.9675">
        <ele>2509.5</ele>
        <time>2021-02-20T12:44:43Z</time>
      </trkpt>
      <trkpt lat="45.16806" lon="5.9675">
        <ele>2509.5</ele>
        <time>2021-02-20T12:44:44Z</time>
      </trkpt>
      <trkpt lat="45.16806" lon="5.9675">
        <ele>2509</ele>
        <time>2021-02-20T12:44:45Z</time>
      </trkpt>
      <trkpt lat="45.16806" lon="5.9675">
        <ele>2509</ele>
        <time>2021-02-20T12:44:46Z</time>
      </trkpt>
      <trkpt lat="45.16806" lon="5.9675">
        <ele>2509</ele>
        <time>2021-02-20T12:44:47Z</time>
      </trkpt>
      <trkpt lat="45.16805" lon="5.9675">
        <ele>2509</ele>
        <time>2021-02-20T12:44:48Z</time>
      </trkpt>
      <trkpt lat="45.16805" lon="5.9675">
        <ele>2509</ele>
        <time>2021-02-20T12:44:49Z</time>
      </trkpt>
      <trkpt lat="45.16804" lon="5.96751">
        <ele>2509.5</ele>
        <time>2021-02-20T12:44:50Z</time>
      </trkpt>
      <trkpt lat="45.16804" lon="5.96752">
        <ele>2509.5</ele>
        <time>2021-02-20T12:44:51Z</time>
      </trkpt>
      <trkpt lat="45.16804" lon="5.96752">
        <ele>2509.5</ele>
        <time>2021-02-20T12:44:52Z</time>
      </trkpt>
      <trkpt lat="45.16805" lon="5.96752">
        <ele>2509.5</ele>
        <time>2021-02-20T12:44:53Z</time>
      </trkpt>
      <trkpt lat="45.16805" lon="5.96753">
        <ele>2509.5</ele>
        <time>2021-02-20T12:44:54Z</time>
      </trkpt>
      <trkpt lat="45.16805" lon="5.96753">
        <ele>2509.5</ele>
        <time>2021-02-20T12:44:55Z</time>
      </trkpt>
      <trkpt lat="45.16804" lon="5.96754">
        <ele>2509.5</ele>
        <time>2021-02-20T12:44:56Z</time>
      </trkpt>
      <trkpt lat="45.16804" lon="5.96754">
        <ele>2509.5</ele>
        <time>2021-02-20T12:44:57Z</time>
      </trkpt>
      <trkpt lat="45.16803" lon="5.96755">
        <ele>2509.5</ele>
        <time>2021-02-20T12:44:58Z</time>
      </trkpt>
      <trkpt lat="45.16803" lon="5.96755">
        <ele>2509.4</ele>
        <time>2021-02-20T12:44:59Z</time>
      </trkpt>
      <trkpt lat="45.16803" lon="5.96756">
        <ele>2509.4</ele>
        <time>2021-02-20T12:45:00Z</time>
      </trkpt>
      <trkpt lat="45.16802" lon="5.96756">
        <ele>2509.4</ele>
        <time>2021-02-20T12:45:01Z</time>
      </trkpt>
      <trkpt lat="45.16802" lon="5.96757">
        <ele>2509.4</ele>
        <time>2021-02-20T12:45:02Z</time>
      </trkpt>
      <trkpt lat="45.16801" lon="5.96758">
        <ele>2509.4</ele>
        <time>2021-02-20T12:45:03Z</time>
      </trkpt>
      <trkpt lat="45.16801" lon="5.96758">
        <ele>2509.4</ele>
        <time>2021-02-20T12:45:04Z</time>
      </trkpt>
      <trkpt lat="45.16801" lon="5.96758">
        <ele>2509.4</ele>
        <time>2021-02-20T12:45:05Z</time>
      </trkpt>
      <trkpt lat="45.16801" lon="5.96758">
        <ele>2509.4</ele>
        <time>2021-02-20T12:45:06Z</time>
      </trkpt>
      <trkpt lat="45.16801" lon="5.96759">
        <ele>2509.4</ele>
        <time>2021-02-20T12:45:07Z</time>
      </trkpt>
      <trkpt lat="45.16801" lon="5.96759">
        <ele>2509.4</ele>
        <time>2021-02-20T12:45:08Z</time>
      </trkpt>
      <trkpt lat="45.168" lon="5.9676">
        <ele>2509.8</ele>
        <time>2021-02-20T12:45:09Z</time>
      </trkpt>
      <trkpt lat="45.168" lon="5.96761">
        <ele>2509.5</ele>
        <time>2021-02-20T12:45:10Z</time>
      </trkpt>
      <trkpt lat="45.16799" lon="5.96762">
        <ele>2509.5</ele>
        <time>2021-02-20T12:45:11Z</time>
      </trkpt>
      <trkpt lat="45.16799" lon="5.96763">
        <ele>2509.5</ele>
        <time>2021-02-20T12:45:12Z</time>
      </trkpt>
      <trkpt lat="45.16799" lon="5.96764">
        <ele>2509.8</ele>
        <time>2021-02-20T12:45:13Z</time>
      </trkpt>
      <trkpt lat="45.16799" lon="5.96765">
        <ele>2509.8</ele>
        <time>2021-02-20T12:45:14Z</time>
      </trkpt>
      <trkpt lat="45.16798" lon="5.96766">
        <ele>2509.8</ele>
        <time>2021-02-20T12:45:15Z</time>
      </trkpt>
      <trkpt lat="45.16798" lon="5.96768">
        <ele>2509.8</ele>
        <time>2021-02-20T12:45:16Z</time>
      </trkpt>
      <trkpt lat="45.16797" lon="5.9677">
        <ele>2509.8</ele>
        <time>2021-02-20T12:45:17Z</time>
      </trkpt>
      <trkpt lat="45.16796" lon="5.96772">
        <ele>2509.8</ele>
        <time>2021-02-20T12:45:18Z</time>
      </trkpt>
      <trkpt lat="45.16796" lon="5.96773">
        <ele>2510.1</ele>
        <time>2021-02-20T12:45:19Z</time>
      </trkpt>
      <trkpt lat="45.16795" lon="5.96774">
        <ele>2510.1</ele>
        <time>2021-02-20T12:45:20Z</time>
      </trkpt>
      <trkpt lat="45.16795" lon="5.96776">
        <ele>2510.1</ele>
        <time>2021-02-20T12:45:21Z</time>
      </trkpt>
      <trkpt lat="45.16794" lon="5.96779">
        <ele>2510.5</ele>
        <time>2021-02-20T12:45:22Z</time>
      </trkpt>
      <trkpt lat="45.16794" lon="5.96781">
        <ele>2510.5</ele>
        <time>2021-02-20T12:45:23Z</time>
      </trkpt>
      <trkpt lat="45.16794" lon="5.96782">
        <ele>2510.8</ele>
        <time>2021-02-20T12:45:24Z</time>
      </trkpt>
      <trkpt lat="45.16794" lon="5.96783">
        <ele>2510.8</ele>
        <time>2021-02-20T12:45:25Z</time>
      </trkpt>
      <trkpt lat="45.16794" lon="5.96786">
        <ele>2511.1</ele>
        <time>2021-02-20T12:45:26Z</time>
      </trkpt>
      <trkpt lat="45.16794" lon="5.96788">
        <ele>2511.1</ele>
        <time>2021-02-20T12:45:27Z</time>
      </trkpt>
      <trkpt lat="45.16794" lon="5.96791">
        <ele>2511.1</ele>
        <time>2021-02-20T12:45:28Z</time>
      </trkpt>
      <trkpt lat="45.16793" lon="5.96795">
        <ele>2511.5</ele>
        <time>2021-02-20T12:45:29Z</time>
      </trkpt>
      <trkpt lat="45.16793" lon="5.96797">
        <ele>2511.5</ele>
        <time>2021-02-20T12:45:30Z</time>
      </trkpt>
      <trkpt lat="45.16792" lon="5.96802">
        <ele>2512.2</ele>
        <time>2021-02-20T12:45:31Z</time>
      </trkpt>
      <trkpt lat="45.16792" lon="5.96804">
        <ele>2512.2</ele>
        <time>2021-02-20T12:45:32Z</time>
      </trkpt>
      <trkpt lat="45.16792" lon="5.96809">
        <ele>2512.6</ele>
        <time>2021-02-20T12:45:33Z</time>
      </trkpt>
      <trkpt lat="45.16792" lon="5.96814">
        <ele>2513</ele>
        <time>2021-02-20T12:45:34Z</time>
      </trkpt>
      <trkpt lat="45.16792" lon="5.96816">
        <ele>2513.4</ele>
        <time>2021-02-20T12:45:35Z</time>
      </trkpt>
      <trkpt lat="45.16791" lon="5.96822">
        <ele>2513.8</ele>
        <time>2021-02-20T12:45:36Z</time>
      </trkpt>
      <trkpt lat="45.16791" lon="5.96823">
        <ele>2513.8</ele>
        <time>2021-02-20T12:45:37Z</time>
      </trkpt>
      <trkpt lat="45.16791" lon="5.96827">
        <ele>2513.9</ele>
        <time>2021-02-20T12:45:38Z</time>
      </trkpt>
      <trkpt lat="45.1679" lon="5.96833">
        <ele>2515</ele>
        <time>2021-02-20T12:45:39Z</time>
      </trkpt>
      <trkpt lat="45.1679" lon="5.96835">
        <ele>2515</ele>
        <time>2021-02-20T12:45:40Z</time>
      </trkpt>
      <trkpt lat="45.16789" lon="5.9684">
        <ele>2515.5</ele>
        <time>2021-02-20T12:45:41Z</time>
      </trkpt>
      <trkpt lat="45.16788" lon="5.96841">
        <ele>2516.1</ele>
        <time>2021-02-20T12:45:42Z</time>
      </trkpt>
      <trkpt lat="45.16787" lon="5.96843">
        <ele>2515.8</ele>
        <time>2021-02-20T12:45:43Z</time>
      </trkpt>
      <trkpt lat="45.16787" lon="5.96845">
        <ele>2515.8</ele>
        <time>2021-02-20T12:45:44Z</time>
      </trkpt>
      <trkpt lat="45.16786" lon="5.96846">
        <ele>2516.4</ele>
        <time>2021-02-20T12:45:45Z</time>
      </trkpt>
      <trkpt lat="45.16785" lon="5.96847">
        <ele>2516.4</ele>
        <time>2021-02-20T12:45:46Z</time>
      </trkpt>
      <trkpt lat="45.16785" lon="5.96848">
        <ele>2516.4</ele>
        <time>2021-02-20T12:45:47Z</time>
      </trkpt>
      <trkpt lat="45.16785" lon="5.96849">
        <ele>2516.4</ele>
        <time>2021-02-20T12:45:48Z</time>
      </trkpt>
      <trkpt lat="45.16785" lon="5.96848">
        <ele>2516.4</ele>
        <time>2021-02-20T12:45:49Z</time>
      </trkpt>
      <trkpt lat="45.16786" lon="5.96848">
        <ele>2516.4</ele>
        <time>2021-02-20T12:45:50Z</time>
      </trkpt>
      <trkpt lat="45.16786" lon="5.96848">
        <ele>2516.4</ele>
        <time>2021-02-20T12:45:51Z</time>
      </trkpt>
      <trkpt lat="45.16786" lon="5.96848">
        <ele>2516.4</ele>
        <time>2021-02-20T12:45:52Z</time>
      </trkpt>
      <trkpt lat="45.16786" lon="5.96848">
        <ele>2516.4</ele>
        <time>2021-02-20T12:45:53Z</time>
      </trkpt>
      <trkpt lat="45.16786" lon="5.96848">
        <ele>2516.4</ele>
        <time>2021-02-20T12:45:54Z</time>
      </trkpt>
      <trkpt lat="45.16786" lon="5.96848">
        <ele>2516.4</ele>
        <time>2021-02-20T12:45:55Z</time>
      </trkpt>
      <trkpt lat="45.16786" lon="5.96848">
        <ele>2516.4</ele>
        <time>2021-02-20T12:45:56Z</time>
      </trkpt>
      <trkpt lat="45.16786" lon="5.96848">
        <ele>2516.4</ele>
        <time>2021-02-20T12:45:57Z</time>
      </trkpt>
      <trkpt lat="45.16786" lon="5.96848">
        <ele>2516.4</ele>
        <time>2021-02-20T12:45:58Z</time>
      </trkpt>
      <trkpt lat="45.16786" lon="5.96848">
        <ele>2516.4</ele>
        <time>2021-02-20T12:45:59Z</time>
      </trkpt>
      <trkpt lat="45.16786" lon="5.96848">
        <ele>2516.4</ele>
        <time>2021-02-20T12:46:00Z</time>
      </trkpt>
      <trkpt lat="45.16786" lon="5.96845">
        <ele>2515.8</ele>
        <time>2021-02-20T12:46:01Z</time>
      </trkpt>
      <trkpt lat="45.16786" lon="5.96845">
        <ele>2515.8</ele>
        <time>2021-02-20T12:46:02Z</time>
      </trkpt>
      <trkpt lat="45.16786" lon="5.96846">
        <ele>2516.4</ele>
        <time>2021-02-20T12:46:03Z</time>
      </trkpt>
      <trkpt lat="45.16786" lon="5.96846">
        <ele>2516.4</ele>
        <time>2021-02-20T12:46:04Z</time>
      </trkpt>
      <trkpt lat="45.16786" lon="5.96846">
        <ele>2516.4</ele>
        <time>2021-02-20T12:46:05Z</time>
      </trkpt>
      <trkpt lat="45.16786" lon="5.96846">
        <ele>2516.4</ele>
        <time>2021-02-20T12:46:06Z</time>
      </trkpt>
      <trkpt lat="45.16786" lon="5.96846">
        <ele>2516.4</ele>
        <time>2021-02-20T12:46:07Z</time>
      </trkpt>
      <trkpt lat="45.16786" lon="5.96846">
        <ele>2516.4</ele>
        <time>2021-02-20T12:46:08Z</time>
      </trkpt>
      <trkpt lat="45.16786" lon="5.96846">
        <ele>2516.4</ele>
        <time>2021-02-20T12:46:09Z</time>
      </trkpt>
      <trkpt lat="45.16786" lon="5.96846">
        <ele>2516.4</ele>
        <time>2021-02-20T12:46:10Z</time>
      </trkpt>
      <trkpt lat="45.16786" lon="5.96846">
        <ele>2516.4</ele>
        <time>2021-02-20T12:46:11Z</time>
      </trkpt>
      <trkpt lat="45.16786" lon="5.96846">
        <ele>2516.4</ele>
        <time>2021-02-20T12:46:12Z</time>
      </trkpt>
      <trkpt lat="45.16786" lon="5.96846">
        <ele>2516.4</ele>
        <time>2021-02-20T12:46:13Z</time>
      </trkpt>
      <trkpt lat="45.16786" lon="5.96846">
        <ele>2516.4</ele>
        <time>2021-02-20T12:46:14Z</time>
      </trkpt>
      <trkpt lat="45.16786" lon="5.96846">
        <ele>2516.4</ele>
        <time>2021-02-20T12:46:15Z</time>
      </trkpt>
      <trkpt lat="45.16786" lon="5.96846">
        <ele>2516.4</ele>
        <time>2021-02-20T12:46:16Z</time>
      </trkpt>
      <trkpt lat="45.16786" lon="5.96846">
        <ele>2516.4</ele>
        <time>2021-02-20T12:46:17Z</time>
      </trkpt>
      <trkpt lat="45.16786" lon="5.96846">
        <ele>2516.4</ele>
        <time>2021-02-20T12:46:18Z</time>
      </trkpt>
      <trkpt lat="45.16786" lon="5.96845">
        <ele>2515.8</ele>
        <time>2021-02-20T12:46:19Z</time>
      </trkpt>
      <trkpt lat="45.16786" lon="5.96845">
        <ele>2515.8</ele>
        <time>2021-02-20T12:46:20Z</time>
      </trkpt>
      <trkpt lat="45.16787" lon="5.96845">
        <ele>2516.4</ele>
        <time>2021-02-20T12:46:21Z</time>
      </trkpt>
      <trkpt lat="45.16787" lon="5.96845">
        <ele>2516.4</ele>
        <time>2021-02-20T12:46:22Z</time>
      </trkpt>
      <trkpt lat="45.16787" lon="5.96845">
        <ele>2516.4</ele>
        <time>2021-02-20T12:46:23Z</time>
      </trkpt>
      <trkpt lat="45.16787" lon="5.96845">
        <ele>2516.4</ele>
        <time>2021-02-20T12:46:24Z</time>
      </trkpt>
      <trkpt lat="45.16787" lon="5.96845">
        <ele>2516.4</ele>
        <time>2021-02-20T12:46:25Z</time>
      </trkpt>
      <trkpt lat="45.16787" lon="5.96845">
        <ele>2516.4</ele>
        <time>2021-02-20T12:46:26Z</time>
      </trkpt>
      <trkpt lat="45.16787" lon="5.96845">
        <ele>2516.4</ele>
        <time>2021-02-20T12:46:27Z</time>
      </trkpt>
      <trkpt lat="45.16787" lon="5.96845">
        <ele>2516.4</ele>
        <time>2021-02-20T12:46:28Z</time>
      </trkpt>
      <trkpt lat="45.16787" lon="5.96845">
        <ele>2516.4</ele>
        <time>2021-02-20T12:46:29Z</time>
      </trkpt>
      <trkpt lat="45.16787" lon="5.96845">
        <ele>2516.4</ele>
        <time>2021-02-20T12:46:30Z</time>
      </trkpt>
      <trkpt lat="45.16787" lon="5.96845">
        <ele>2516.4</ele>
        <time>2021-02-20T12:46:31Z</time>
      </trkpt>
      <trkpt lat="45.16786" lon="5.96846">
        <ele>2516.4</ele>
        <time>2021-02-20T12:46:32Z</time>
      </trkpt>
      <trkpt lat="45.16786" lon="5.96846">
        <ele>2516.4</ele>
        <time>2021-02-20T12:46:33Z</time>
      </trkpt>
      <trkpt lat="45.16786" lon="5.96845">
        <ele>2516.4</ele>
        <time>2021-02-20T12:46:34Z</time>
      </trkpt>
      <trkpt lat="45.16786" lon="5.96845">
        <ele>2516.4</ele>
        <time>2021-02-20T12:46:35Z</time>
      </trkpt>
      <trkpt lat="45.16786" lon="5.96845">
        <ele>2515.8</ele>
        <time>2021-02-20T12:46:36Z</time>
      </trkpt>
      <trkpt lat="45.16786" lon="5.96845">
        <ele>2515.8</ele>
        <time>2021-02-20T12:46:37Z</time>
      </trkpt>
      <trkpt lat="45.16786" lon="5.96845">
        <ele>2515.8</ele>
        <time>2021-02-20T12:46:38Z</time>
      </trkpt>
      <trkpt lat="45.16786" lon="5.96845">
        <ele>2515.8</ele>
        <time>2021-02-20T12:46:39Z</time>
      </trkpt>
      <trkpt lat="45.16786" lon="5.96845">
        <ele>2515.8</ele>
        <time>2021-02-20T12:46:40Z</time>
      </trkpt>
      <trkpt lat="45.16786" lon="5.96845">
        <ele>2515.8</ele>
        <time>2021-02-20T12:46:41Z</time>
      </trkpt>
      <trkpt lat="45.16786" lon="5.96845">
        <ele>2515.8</ele>
        <time>2021-02-20T12:46:42Z</time>
      </trkpt>
      <trkpt lat="45.16786" lon="5.96845">
        <ele>2515.8</ele>
        <time>2021-02-20T12:46:43Z</time>
      </trkpt>
      <trkpt lat="45.16786" lon="5.96845">
        <ele>2515.8</ele>
        <time>2021-02-20T12:46:44Z</time>
      </trkpt>
      <trkpt lat="45.16786" lon="5.96845">
        <ele>2515.8</ele>
        <time>2021-02-20T12:46:45Z</time>
      </trkpt>
      <trkpt lat="45.16786" lon="5.96845">
        <ele>2515.8</ele>
        <time>2021-02-20T12:46:46Z</time>
      </trkpt>
      <trkpt lat="45.16786" lon="5.96845">
        <ele>2515.8</ele>
        <time>2021-02-20T12:46:47Z</time>
      </trkpt>
      <trkpt lat="45.16786" lon="5.96842">
        <ele>2515.8</ele>
        <time>2021-02-20T12:46:48Z</time>
      </trkpt>
      <trkpt lat="45.16786" lon="5.96842">
        <ele>2515.8</ele>
        <time>2021-02-20T12:46:49Z</time>
      </trkpt>
      <trkpt lat="45.16786" lon="5.96842">
        <ele>2515.8</ele>
        <time>2021-02-20T12:46:50Z</time>
      </trkpt>
      <trkpt lat="45.16786" lon="5.96842">
        <ele>2515.8</ele>
        <time>2021-02-20T12:46:51Z</time>
      </trkpt>
      <trkpt lat="45.16786" lon="5.96842">
        <ele>2515.8</ele>
        <time>2021-02-20T12:46:52Z</time>
      </trkpt>
      <trkpt lat="45.16786" lon="5.96842">
        <ele>2515.8</ele>
        <time>2021-02-20T12:46:53Z</time>
      </trkpt>
      <trkpt lat="45.16786" lon="5.96842">
        <ele>2515.8</ele>
        <time>2021-02-20T12:46:54Z</time>
      </trkpt>
      <trkpt lat="45.16786" lon="5.96842">
        <ele>2515.8</ele>
        <time>2021-02-20T12:46:55Z</time>
      </trkpt>
      <trkpt lat="45.16786" lon="5.96842">
        <ele>2515.8</ele>
        <time>2021-02-20T12:46:56Z</time>
      </trkpt>
      <trkpt lat="45.16786" lon="5.96842">
        <ele>2515.8</ele>
        <time>2021-02-20T12:46:57Z</time>
      </trkpt>
      <trkpt lat="45.16786" lon="5.96842">
        <ele>2515.8</ele>
        <time>2021-02-20T12:46:58Z</time>
      </trkpt>
      <trkpt lat="45.16786" lon="5.96842">
        <ele>2515.8</ele>
        <time>2021-02-20T12:46:59Z</time>
      </trkpt>
      <trkpt lat="45.16786" lon="5.96842">
        <ele>2515.8</ele>
        <time>2021-02-20T12:47:00Z</time>
      </trkpt>
      <trkpt lat="45.16786" lon="5.96842">
        <ele>2515.8</ele>
        <time>2021-02-20T12:47:01Z</time>
      </trkpt>
      <trkpt lat="45.16786" lon="5.96842">
        <ele>2515.8</ele>
        <time>2021-02-20T12:47:02Z</time>
      </trkpt>
      <trkpt lat="45.16786" lon="5.96842">
        <ele>2515.8</ele>
        <time>2021-02-20T12:47:03Z</time>
      </trkpt>
      <trkpt lat="45.16786" lon="5.96842">
        <ele>2515.8</ele>
        <time>2021-02-20T12:47:04Z</time>
      </trkpt>
      <trkpt lat="45.16786" lon="5.96842">
        <ele>2515.8</ele>
        <time>2021-02-20T12:47:05Z</time>
      </trkpt>
      <trkpt lat="45.16786" lon="5.96842">
        <ele>2515.8</ele>
        <time>2021-02-20T12:47:06Z</time>
      </trkpt>
      <trkpt lat="45.16786" lon="5.96842">
        <ele>2515.8</ele>
        <time>2021-02-20T12:47:07Z</time>
      </trkpt>
      <trkpt lat="45.16786" lon="5.96842">
        <ele>2515.8</ele>
        <time>2021-02-20T12:47:08Z</time>
      </trkpt>
      <trkpt lat="45.16786" lon="5.96842">
        <ele>2515.8</ele>
        <time>2021-02-20T12:47:09Z</time>
      </trkpt>
      <trkpt lat="45.16786" lon="5.96842">
        <ele>2515.8</ele>
        <time>2021-02-20T12:47:10Z</time>
      </trkpt>
      <trkpt lat="45.16786" lon="5.96842">
        <ele>2515.8</ele>
        <time>2021-02-20T12:47:11Z</time>
      </trkpt>
      <trkpt lat="45.16786" lon="5.96842">
        <ele>2515.8</ele>
        <time>2021-02-20T12:47:12Z</time>
      </trkpt>
      <trkpt lat="45.16786" lon="5.96842">
        <ele>2515.8</ele>
        <time>2021-02-20T12:47:13Z</time>
      </trkpt>
      <trkpt lat="45.16786" lon="5.96842">
        <ele>2515.8</ele>
        <time>2021-02-20T12:47:14Z</time>
      </trkpt>
      <trkpt lat="45.16786" lon="5.96842">
        <ele>2515.8</ele>
        <time>2021-02-20T12:47:15Z</time>
      </trkpt>
      <trkpt lat="45.16787" lon="5.96842">
        <ele>2515.8</ele>
        <time>2021-02-20T12:47:16Z</time>
      </trkpt>
      <trkpt lat="45.16787" lon="5.96842">
        <ele>2515.8</ele>
        <time>2021-02-20T12:47:17Z</time>
      </trkpt>
      <trkpt lat="45.16787" lon="5.96842">
        <ele>2515.8</ele>
        <time>2021-02-20T12:47:18Z</time>
      </trkpt>
      <trkpt lat="45.16787" lon="5.96842">
        <ele>2515.8</ele>
        <time>2021-02-20T12:47:19Z</time>
      </trkpt>
      <trkpt lat="45.16787" lon="5.96842">
        <ele>2515.8</ele>
        <time>2021-02-20T12:47:20Z</time>
      </trkpt>
      <trkpt lat="45.16787" lon="5.96842">
        <ele>2515.8</ele>
        <time>2021-02-20T12:47:21Z</time>
      </trkpt>
      <trkpt lat="45.16787" lon="5.96842">
        <ele>2515.8</ele>
        <time>2021-02-20T12:47:22Z</time>
      </trkpt>
      <trkpt lat="45.16787" lon="5.96842">
        <ele>2515.8</ele>
        <time>2021-02-20T12:47:23Z</time>
      </trkpt>
      <trkpt lat="45.16787" lon="5.96842">
        <ele>2515.8</ele>
        <time>2021-02-20T12:47:24Z</time>
      </trkpt>
      <trkpt lat="45.16787" lon="5.96842">
        <ele>2515.8</ele>
        <time>2021-02-20T12:47:25Z</time>
      </trkpt>
      <trkpt lat="45.16787" lon="5.96842">
        <ele>2515.8</ele>
        <time>2021-02-20T12:47:26Z</time>
      </trkpt>
      <trkpt lat="45.16787" lon="5.96842">
        <ele>2515.8</ele>
        <time>2021-02-20T12:47:27Z</time>
      </trkpt>
      <trkpt lat="45.16787" lon="5.96842">
        <ele>2515.8</ele>
        <time>2021-02-20T12:47:28Z</time>
      </trkpt>
      <trkpt lat="45.16787" lon="5.96842">
        <ele>2515.8</ele>
        <time>2021-02-20T12:47:29Z</time>
      </trkpt>
      <trkpt lat="45.16787" lon="5.96842">
        <ele>2515.8</ele>
        <time>2021-02-20T12:47:30Z</time>
      </trkpt>
      <trkpt lat="45.16787" lon="5.96842">
        <ele>2515.8</ele>
        <time>2021-02-20T12:47:31Z</time>
      </trkpt>
      <trkpt lat="45.16787" lon="5.96842">
        <ele>2515.8</ele>
        <time>2021-02-20T12:47:32Z</time>
      </trkpt>
      <trkpt lat="45.16787" lon="5.96842">
        <ele>2515.8</ele>
        <time>2021-02-20T12:47:33Z</time>
      </trkpt>
      <trkpt lat="45.16787" lon="5.96842">
        <ele>2515.8</ele>
        <time>2021-02-20T12:47:34Z</time>
      </trkpt>
      <trkpt lat="45.16787" lon="5.96842">
        <ele>2515.8</ele>
        <time>2021-02-20T12:47:35Z</time>
      </trkpt>
      <trkpt lat="45.16787" lon="5.96842">
        <ele>2515.8</ele>
        <time>2021-02-20T12:47:36Z</time>
      </trkpt>
      <trkpt lat="45.16787" lon="5.96842">
        <ele>2515.8</ele>
        <time>2021-02-20T12:47:37Z</time>
      </trkpt>
      <trkpt lat="45.16787" lon="5.96842">
        <ele>2515.8</ele>
        <time>2021-02-20T12:47:38Z</time>
      </trkpt>
      <trkpt lat="45.16787" lon="5.96842">
        <ele>2515.8</ele>
        <time>2021-02-20T12:47:39Z</time>
      </trkpt>
      <trkpt lat="45.16787" lon="5.96841">
        <ele>2515.8</ele>
        <time>2021-02-20T12:47:40Z</time>
      </trkpt>
      <trkpt lat="45.16787" lon="5.96841">
        <ele>2515.8</ele>
        <time>2021-02-20T12:47:41Z</time>
      </trkpt>
      <trkpt lat="45.16787" lon="5.96841">
        <ele>2515.8</ele>
        <time>2021-02-20T12:47:42Z</time>
      </trkpt>
      <trkpt lat="45.16787" lon="5.96841">
        <ele>2515.8</ele>
        <time>2021-02-20T12:47:43Z</time>
      </trkpt>
      <trkpt lat="45.16787" lon="5.96841">
        <ele>2515.8</ele>
        <time>2021-02-20T12:47:44Z</time>
      </trkpt>
      <trkpt lat="45.16787" lon="5.96841">
        <ele>2515.8</ele>
        <time>2021-02-20T12:47:45Z</time>
      </trkpt>
      <trkpt lat="45.16787" lon="5.96841">
        <ele>2515.8</ele>
        <time>2021-02-20T12:47:46Z</time>
      </trkpt>
      <trkpt lat="45.16787" lon="5.96841">
        <ele>2515.8</ele>
        <time>2021-02-20T12:47:47Z</time>
      </trkpt>
      <trkpt lat="45.16787" lon="5.96841">
        <ele>2515.8</ele>
        <time>2021-02-20T12:47:48Z</time>
      </trkpt>
      <trkpt lat="45.16787" lon="5.96841">
        <ele>2515.8</ele>
        <time>2021-02-20T12:47:49Z</time>
      </trkpt>
      <trkpt lat="45.16787" lon="5.96841">
        <ele>2515.8</ele>
        <time>2021-02-20T12:47:50Z</time>
      </trkpt>
      <trkpt lat="45.16787" lon="5.96841">
        <ele>2515.8</ele>
        <time>2021-02-20T12:47:51Z</time>
      </trkpt>
      <trkpt lat="45.16787" lon="5.96841">
        <ele>2515.8</ele>
        <time>2021-02-20T12:47:52Z</time>
      </trkpt>
      <trkpt lat="45.16787" lon="5.96841">
        <ele>2515.8</ele>
        <time>2021-02-20T12:47:53Z</time>
      </trkpt>
      <trkpt lat="45.16787" lon="5.96841">
        <ele>2515.8</ele>
        <time>2021-02-20T12:47:54Z</time>
      </trkpt>
      <trkpt lat="45.16787" lon="5.96841">
        <ele>2515.8</ele>
        <time>2021-02-20T12:47:55Z</time>
      </trkpt>
      <trkpt lat="45.16787" lon="5.96841">
        <ele>2515.8</ele>
        <time>2021-02-20T12:47:56Z</time>
      </trkpt>
      <trkpt lat="45.16787" lon="5.96841">
        <ele>2515.8</ele>
        <time>2021-02-20T12:47:57Z</time>
      </trkpt>
      <trkpt lat="45.16787" lon="5.96841">
        <ele>2515.8</ele>
        <time>2021-02-20T12:47:58Z</time>
      </trkpt>
      <trkpt lat="45.16787" lon="5.96841">
        <ele>2515.8</ele>
        <time>2021-02-20T12:47:59Z</time>
      </trkpt>
      <trkpt lat="45.16787" lon="5.96841">
        <ele>2515.8</ele>
        <time>2021-02-20T12:48:00Z</time>
      </trkpt>
      <trkpt lat="45.16787" lon="5.96841">
        <ele>2515.8</ele>
        <time>2021-02-20T12:48:01Z</time>
      </trkpt>
      <trkpt lat="45.16787" lon="5.96841">
        <ele>2515.8</ele>
        <time>2021-02-20T12:48:02Z</time>
      </trkpt>
      <trkpt lat="45.16787" lon="5.96841">
        <ele>2515.8</ele>
        <time>2021-02-20T12:48:03Z</time>
      </trkpt>
      <trkpt lat="45.16787" lon="5.96841">
        <ele>2515.8</ele>
        <time>2021-02-20T12:48:04Z</time>
      </trkpt>
      <trkpt lat="45.16787" lon="5.96841">
        <ele>2515.8</ele>
        <time>2021-02-20T12:48:05Z</time>
      </trkpt>
      <trkpt lat="45.16787" lon="5.96842">
        <ele>2515.8</ele>
        <time>2021-02-20T12:48:06Z</time>
      </trkpt>
      <trkpt lat="45.16787" lon="5.96842">
        <ele>2515.8</ele>
        <time>2021-02-20T12:48:07Z</time>
      </trkpt>
      <trkpt lat="45.16787" lon="5.96842">
        <ele>2515.8</ele>
        <time>2021-02-20T12:48:08Z</time>
      </trkpt>
      <trkpt lat="45.16787" lon="5.96842">
        <ele>2515.8</ele>
        <time>2021-02-20T12:48:09Z</time>
      </trkpt>
      <trkpt lat="45.16787" lon="5.96842">
        <ele>2515.8</ele>
        <time>2021-02-20T12:48:10Z</time>
      </trkpt>
      <trkpt lat="45.16787" lon="5.96842">
        <ele>2515.8</ele>
        <time>2021-02-20T12:48:11Z</time>
      </trkpt>
      <trkpt lat="45.16787" lon="5.96842">
        <ele>2515.8</ele>
        <time>2021-02-20T12:48:12Z</time>
      </trkpt>
      <trkpt lat="45.16787" lon="5.96842">
        <ele>2515.8</ele>
        <time>2021-02-20T12:48:13Z</time>
      </trkpt>
      <trkpt lat="45.16787" lon="5.96841">
        <ele>2515.8</ele>
        <time>2021-02-20T12:48:14Z</time>
      </trkpt>
      <trkpt lat="45.16787" lon="5.96841">
        <ele>2515.8</ele>
        <time>2021-02-20T12:48:15Z</time>
      </trkpt>
      <trkpt lat="45.16787" lon="5.96841">
        <ele>2515.2</ele>
        <time>2021-02-20T12:48:16Z</time>
      </trkpt>
      <trkpt lat="45.16787" lon="5.96841">
        <ele>2515.2</ele>
        <time>2021-02-20T12:48:17Z</time>
      </trkpt>
      <trkpt lat="45.16787" lon="5.9684">
        <ele>2515.2</ele>
        <time>2021-02-20T12:48:18Z</time>
      </trkpt>
      <trkpt lat="45.16787" lon="5.96841">
        <ele>2515.2</ele>
        <time>2021-02-20T12:48:19Z</time>
      </trkpt>
      <trkpt lat="45.16787" lon="5.96841">
        <ele>2515.2</ele>
        <time>2021-02-20T12:48:20Z</time>
      </trkpt>
      <trkpt lat="45.16787" lon="5.96841">
        <ele>2515.2</ele>
        <time>2021-02-20T12:48:21Z</time>
      </trkpt>
      <trkpt lat="45.16787" lon="5.96841">
        <ele>2515.2</ele>
        <time>2021-02-20T12:48:22Z</time>
      </trkpt>
      <trkpt lat="45.16787" lon="5.96841">
        <ele>2515.2</ele>
        <time>2021-02-20T12:48:23Z</time>
      </trkpt>
      <trkpt lat="45.16787" lon="5.96841">
        <ele>2515.2</ele>
        <time>2021-02-20T12:48:24Z</time>
      </trkpt>
      <trkpt lat="45.16787" lon="5.96841">
        <ele>2515.2</ele>
        <time>2021-02-20T12:48:25Z</time>
      </trkpt>
      <trkpt lat="45.16787" lon="5.96841">
        <ele>2515.2</ele>
        <time>2021-02-20T12:48:26Z</time>
      </trkpt>
      <trkpt lat="45.16787" lon="5.96841">
        <ele>2515.2</ele>
        <time>2021-02-20T12:48:27Z</time>
      </trkpt>
      <trkpt lat="45.16787" lon="5.96841">
        <ele>2515.2</ele>
        <time>2021-02-20T12:48:28Z</time>
      </trkpt>
      <trkpt lat="45.16787" lon="5.96841">
        <ele>2515.2</ele>
        <time>2021-02-20T12:48:29Z</time>
      </trkpt>
      <trkpt lat="45.16787" lon="5.96841">
        <ele>2515.2</ele>
        <time>2021-02-20T12:48:30Z</time>
      </trkpt>
      <trkpt lat="45.16787" lon="5.96841">
        <ele>2515.2</ele>
        <time>2021-02-20T12:48:31Z</time>
      </trkpt>
      <trkpt lat="45.16787" lon="5.96841">
        <ele>2515.2</ele>
        <time>2021-02-20T12:48:32Z</time>
      </trkpt>
      <trkpt lat="45.16787" lon="5.96841">
        <ele>2515.2</ele>
        <time>2021-02-20T12:48:33Z</time>
      </trkpt>
      <trkpt lat="45.16787" lon="5.96841">
        <ele>2515.2</ele>
        <time>2021-02-20T12:48:34Z</time>
      </trkpt>
      <trkpt lat="45.16787" lon="5.96841">
        <ele>2515.2</ele>
        <time>2021-02-20T12:48:35Z</time>
      </trkpt>
      <trkpt lat="45.16787" lon="5.96841">
        <ele>2515.2</ele>
        <time>2021-02-20T12:48:36Z</time>
      </trkpt>
      <trkpt lat="45.16787" lon="5.96841">
        <ele>2515.2</ele>
        <time>2021-02-20T12:48:37Z</time>
      </trkpt>
      <trkpt lat="45.16787" lon="5.96841">
        <ele>2515.2</ele>
        <time>2021-02-20T12:48:38Z</time>
      </trkpt>
      <trkpt lat="45.16787" lon="5.96841">
        <ele>2515.2</ele>
        <time>2021-02-20T12:48:39Z</time>
      </trkpt>
      <trkpt lat="45.16787" lon="5.96841">
        <ele>2515.2</ele>
        <time>2021-02-20T12:48:40Z</time>
      </trkpt>
      <trkpt lat="45.16787" lon="5.96841">
        <ele>2515.2</ele>
        <time>2021-02-20T12:48:41Z</time>
      </trkpt>
      <trkpt lat="45.16787" lon="5.96841">
        <ele>2515.2</ele>
        <time>2021-02-20T12:48:42Z</time>
      </trkpt>
      <trkpt lat="45.16787" lon="5.96841">
        <ele>2515.2</ele>
        <time>2021-02-20T12:48:43Z</time>
      </trkpt>
      <trkpt lat="45.16788" lon="5.96841">
        <ele>2515.8</ele>
        <time>2021-02-20T12:48:44Z</time>
      </trkpt>
      <trkpt lat="45.16788" lon="5.96841">
        <ele>2515.8</ele>
        <time>2021-02-20T12:48:45Z</time>
      </trkpt>
      <trkpt lat="45.16788" lon="5.96841">
        <ele>2515.8</ele>
        <time>2021-02-20T12:48:46Z</time>
      </trkpt>
      <trkpt lat="45.16788" lon="5.96841">
        <ele>2515.8</ele>
        <time>2021-02-20T12:48:47Z</time>
      </trkpt>
      <trkpt lat="45.16788" lon="5.96841">
        <ele>2515.8</ele>
        <time>2021-02-20T12:48:48Z</time>
      </trkpt>
      <trkpt lat="45.16788" lon="5.96841">
        <ele>2515.8</ele>
        <time>2021-02-20T12:48:49Z</time>
      </trkpt>
      <trkpt lat="45.16788" lon="5.96841">
        <ele>2515.8</ele>
        <time>2021-02-20T12:48:50Z</time>
      </trkpt>
      <trkpt lat="45.16788" lon="5.96841">
        <ele>2515.8</ele>
        <time>2021-02-20T12:48:51Z</time>
      </trkpt>
      <trkpt lat="45.16788" lon="5.96841">
        <ele>2515.8</ele>
        <time>2021-02-20T12:48:52Z</time>
      </trkpt>
      <trkpt lat="45.16788" lon="5.96841">
        <ele>2515.8</ele>
        <time>2021-02-20T12:48:53Z</time>
      </trkpt>
      <trkpt lat="45.16788" lon="5.96841">
        <ele>2515.8</ele>
        <time>2021-02-20T12:48:54Z</time>
      </trkpt>
      <trkpt lat="45.16788" lon="5.96841">
        <ele>2515.8</ele>
        <time>2021-02-20T12:48:55Z</time>
      </trkpt>
      <trkpt lat="45.16788" lon="5.96841">
        <ele>2515.8</ele>
        <time>2021-02-20T12:48:56Z</time>
      </trkpt>
      <trkpt lat="45.16788" lon="5.96841">
        <ele>2515.8</ele>
        <time>2021-02-20T12:48:57Z</time>
      </trkpt>
      <trkpt lat="45.16788" lon="5.96841">
        <ele>2515.8</ele>
        <time>2021-02-20T12:48:58Z</time>
      </trkpt>
      <trkpt lat="45.16788" lon="5.96841">
        <ele>2515.8</ele>
        <time>2021-02-20T12:48:59Z</time>
      </trkpt>
      <trkpt lat="45.16788" lon="5.96841">
        <ele>2515.8</ele>
        <time>2021-02-20T12:49:00Z</time>
      </trkpt>
      <trkpt lat="45.16788" lon="5.96841">
        <ele>2515.8</ele>
        <time>2021-02-20T12:49:01Z</time>
      </trkpt>
      <trkpt lat="45.16788" lon="5.96841">
        <ele>2515.8</ele>
        <time>2021-02-20T12:49:02Z</time>
      </trkpt>
      <trkpt lat="45.16788" lon="5.96841">
        <ele>2515.8</ele>
        <time>2021-02-20T12:49:03Z</time>
      </trkpt>
      <trkpt lat="45.16788" lon="5.96841">
        <ele>2515.8</ele>
        <time>2021-02-20T12:49:04Z</time>
      </trkpt>
      <trkpt lat="45.16788" lon="5.96841">
        <ele>2515.8</ele>
        <time>2021-02-20T12:49:05Z</time>
      </trkpt>
      <trkpt lat="45.16788" lon="5.96841">
        <ele>2515.8</ele>
        <time>2021-02-20T12:49:06Z</time>
      </trkpt>
      <trkpt lat="45.16788" lon="5.96841">
        <ele>2515.8</ele>
        <time>2021-02-20T12:49:07Z</time>
      </trkpt>
      <trkpt lat="45.16788" lon="5.96841">
        <ele>2515.8</ele>
        <time>2021-02-20T12:49:08Z</time>
      </trkpt>
      <trkpt lat="45.16788" lon="5.96841">
        <ele>2515.8</ele>
        <time>2021-02-20T12:49:09Z</time>
      </trkpt>
      <trkpt lat="45.16788" lon="5.96841">
        <ele>2515.8</ele>
        <time>2021-02-20T12:49:10Z</time>
      </trkpt>
      <trkpt lat="45.16788" lon="5.96841">
        <ele>2515.8</ele>
        <time>2021-02-20T12:49:11Z</time>
      </trkpt>
      <trkpt lat="45.16788" lon="5.96841">
        <ele>2515.8</ele>
        <time>2021-02-20T12:49:12Z</time>
      </trkpt>
      <trkpt lat="45.16788" lon="5.96841">
        <ele>2515.8</ele>
        <time>2021-02-20T12:49:13Z</time>
      </trkpt>
      <trkpt lat="45.16788" lon="5.96841">
        <ele>2515.8</ele>
        <time>2021-02-20T12:49:14Z</time>
      </trkpt>
      <trkpt lat="45.16788" lon="5.96841">
        <ele>2515.8</ele>
        <time>2021-02-20T12:49:15Z</time>
      </trkpt>
      <trkpt lat="45.16788" lon="5.96841">
        <ele>2515.8</ele>
        <time>2021-02-20T12:49:16Z</time>
      </trkpt>
      <trkpt lat="45.16788" lon="5.96841">
        <ele>2515.8</ele>
        <time>2021-02-20T12:49:17Z</time>
      </trkpt>
      <trkpt lat="45.16788" lon="5.96841">
        <ele>2515.8</ele>
        <time>2021-02-20T12:49:18Z</time>
      </trkpt>
      <trkpt lat="45.16788" lon="5.96841">
        <ele>2515.8</ele>
        <time>2021-02-20T12:49:19Z</time>
      </trkpt>
      <trkpt lat="45.16788" lon="5.96841">
        <ele>2515.8</ele>
        <time>2021-02-20T12:49:20Z</time>
      </trkpt>
      <trkpt lat="45.16788" lon="5.96841">
        <ele>2515.8</ele>
        <time>2021-02-20T12:49:21Z</time>
      </trkpt>
      <trkpt lat="45.16788" lon="5.96841">
        <ele>2515.8</ele>
        <time>2021-02-20T12:49:22Z</time>
      </trkpt>
      <trkpt lat="45.16788" lon="5.96842">
        <ele>2516.1</ele>
        <time>2021-02-20T12:49:23Z</time>
      </trkpt>
      <trkpt lat="45.16788" lon="5.96843">
        <ele>2516.1</ele>
        <time>2021-02-20T12:49:24Z</time>
      </trkpt>
      <trkpt lat="45.16788" lon="5.96842">
        <ele>2516.1</ele>
        <time>2021-02-20T12:49:25Z</time>
      </trkpt>
      <trkpt lat="45.16788" lon="5.96842">
        <ele>2516.1</ele>
        <time>2021-02-20T12:49:26Z</time>
      </trkpt>
      <trkpt lat="45.16788" lon="5.96842">
        <ele>2516.1</ele>
        <time>2021-02-20T12:49:27Z</time>
      </trkpt>
      <trkpt lat="45.16788" lon="5.96843">
        <ele>2515.8</ele>
        <time>2021-02-20T12:49:28Z</time>
      </trkpt>
      <trkpt lat="45.16788" lon="5.96843">
        <ele>2515.8</ele>
        <time>2021-02-20T12:49:29Z</time>
      </trkpt>
      <trkpt lat="45.16788" lon="5.96843">
        <ele>2515.8</ele>
        <time>2021-02-20T12:49:30Z</time>
      </trkpt>
      <trkpt lat="45.16788" lon="5.96843">
        <ele>2515.8</ele>
        <time>2021-02-20T12:49:31Z</time>
      </trkpt>
      <trkpt lat="45.16788" lon="5.96843">
        <ele>2515.8</ele>
        <time>2021-02-20T12:49:32Z</time>
      </trkpt>
      <trkpt lat="45.16788" lon="5.96843">
        <ele>2515.8</ele>
        <time>2021-02-20T12:49:33Z</time>
      </trkpt>
      <trkpt lat="45.16788" lon="5.96843">
        <ele>2515.8</ele>
        <time>2021-02-20T12:49:34Z</time>
      </trkpt>
      <trkpt lat="45.16788" lon="5.96843">
        <ele>2515.8</ele>
        <time>2021-02-20T12:49:35Z</time>
      </trkpt>
      <trkpt lat="45.16788" lon="5.96843">
        <ele>2515.8</ele>
        <time>2021-02-20T12:49:36Z</time>
      </trkpt>
      <trkpt lat="45.16788" lon="5.96843">
        <ele>2515.8</ele>
        <time>2021-02-20T12:49:37Z</time>
      </trkpt>
      <trkpt lat="45.16788" lon="5.96843">
        <ele>2515.8</ele>
        <time>2021-02-20T12:49:38Z</time>
      </trkpt>
      <trkpt lat="45.16788" lon="5.96843">
        <ele>2515.8</ele>
        <time>2021-02-20T12:49:39Z</time>
      </trkpt>
      <trkpt lat="45.16786" lon="5.96844">
        <ele>2515.8</ele>
        <time>2021-02-20T12:49:40Z</time>
      </trkpt>
      <trkpt lat="45.16786" lon="5.96844">
        <ele>2515.8</ele>
        <time>2021-02-20T12:49:41Z</time>
      </trkpt>
      <trkpt lat="45.16786" lon="5.96844">
        <ele>2515.8</ele>
        <time>2021-02-20T12:49:42Z</time>
      </trkpt>
      <trkpt lat="45.16786" lon="5.96844">
        <ele>2515.8</ele>
        <time>2021-02-20T12:49:43Z</time>
      </trkpt>
      <trkpt lat="45.16786" lon="5.96844">
        <ele>2515.8</ele>
        <time>2021-02-20T12:49:44Z</time>
      </trkpt>
      <trkpt lat="45.16786" lon="5.96844">
        <ele>2515.8</ele>
        <time>2021-02-20T12:49:45Z</time>
      </trkpt>
      <trkpt lat="45.16786" lon="5.96844">
        <ele>2515.8</ele>
        <time>2021-02-20T12:49:46Z</time>
      </trkpt>
      <trkpt lat="45.16786" lon="5.96844">
        <ele>2515.8</ele>
        <time>2021-02-20T12:49:47Z</time>
      </trkpt>
      <trkpt lat="45.16786" lon="5.96844">
        <ele>2515.8</ele>
        <time>2021-02-20T12:49:48Z</time>
      </trkpt>
      <trkpt lat="45.16786" lon="5.96844">
        <ele>2515.8</ele>
        <time>2021-02-20T12:49:49Z</time>
      </trkpt>
      <trkpt lat="45.16786" lon="5.96844">
        <ele>2515.8</ele>
        <time>2021-02-20T12:49:50Z</time>
      </trkpt>
      <trkpt lat="45.16786" lon="5.96844">
        <ele>2515.8</ele>
        <time>2021-02-20T12:49:51Z</time>
      </trkpt>
      <trkpt lat="45.16786" lon="5.96844">
        <ele>2515.8</ele>
        <time>2021-02-20T12:49:52Z</time>
      </trkpt>
      <trkpt lat="45.16786" lon="5.96844">
        <ele>2515.8</ele>
        <time>2021-02-20T12:49:53Z</time>
      </trkpt>
      <trkpt lat="45.16786" lon="5.96844">
        <ele>2515.8</ele>
        <time>2021-02-20T12:49:54Z</time>
      </trkpt>
      <trkpt lat="45.16786" lon="5.96844">
        <ele>2515.8</ele>
        <time>2021-02-20T12:49:55Z</time>
      </trkpt>
      <trkpt lat="45.16786" lon="5.96844">
        <ele>2515.8</ele>
        <time>2021-02-20T12:49:56Z</time>
      </trkpt>
      <trkpt lat="45.16786" lon="5.96844">
        <ele>2515.8</ele>
        <time>2021-02-20T12:49:57Z</time>
      </trkpt>
      <trkpt lat="45.16786" lon="5.96844">
        <ele>2515.8</ele>
        <time>2021-02-20T12:49:58Z</time>
      </trkpt>
      <trkpt lat="45.16786" lon="5.96844">
        <ele>2515.8</ele>
        <time>2021-02-20T12:49:59Z</time>
      </trkpt>
      <trkpt lat="45.16786" lon="5.96844">
        <ele>2515.8</ele>
        <time>2021-02-20T12:50:00Z</time>
      </trkpt>
      <trkpt lat="45.16786" lon="5.96844">
        <ele>2515.8</ele>
        <time>2021-02-20T12:50:01Z</time>
      </trkpt>
      <trkpt lat="45.16786" lon="5.96844">
        <ele>2515.8</ele>
        <time>2021-02-20T12:50:02Z</time>
      </trkpt>
      <trkpt lat="45.16786" lon="5.96844">
        <ele>2515.8</ele>
        <time>2021-02-20T12:50:03Z</time>
      </trkpt>
      <trkpt lat="45.16786" lon="5.96844">
        <ele>2515.8</ele>
        <time>2021-02-20T12:50:04Z</time>
      </trkpt>
      <trkpt lat="45.16786" lon="5.96844">
        <ele>2515.8</ele>
        <time>2021-02-20T12:50:05Z</time>
      </trkpt>
      <trkpt lat="45.16786" lon="5.96844">
        <ele>2515.8</ele>
        <time>2021-02-20T12:50:06Z</time>
      </trkpt>
      <trkpt lat="45.16786" lon="5.96844">
        <ele>2515.8</ele>
        <time>2021-02-20T12:50:07Z</time>
      </trkpt>
      <trkpt lat="45.16786" lon="5.96844">
        <ele>2515.8</ele>
        <time>2021-02-20T12:50:08Z</time>
      </trkpt>
      <trkpt lat="45.16786" lon="5.96844">
        <ele>2515.8</ele>
        <time>2021-02-20T12:50:09Z</time>
      </trkpt>
      <trkpt lat="45.16786" lon="5.96844">
        <ele>2515.8</ele>
        <time>2021-02-20T12:50:10Z</time>
      </trkpt>
      <trkpt lat="45.16786" lon="5.96844">
        <ele>2515.8</ele>
        <time>2021-02-20T12:50:11Z</time>
      </trkpt>
      <trkpt lat="45.16786" lon="5.96844">
        <ele>2515.8</ele>
        <time>2021-02-20T12:50:12Z</time>
      </trkpt>
      <trkpt lat="45.16786" lon="5.96844">
        <ele>2515.8</ele>
        <time>2021-02-20T12:50:13Z</time>
      </trkpt>
      <trkpt lat="45.16787" lon="5.96844">
        <ele>2515.8</ele>
        <time>2021-02-20T12:50:14Z</time>
      </trkpt>
      <trkpt lat="45.16787" lon="5.96844">
        <ele>2515.8</ele>
        <time>2021-02-20T12:50:15Z</time>
      </trkpt>
      <trkpt lat="45.16787" lon="5.96844">
        <ele>2515.8</ele>
        <time>2021-02-20T12:50:16Z</time>
      </trkpt>
      <trkpt lat="45.16787" lon="5.96844">
        <ele>2515.8</ele>
        <time>2021-02-20T12:50:17Z</time>
      </trkpt>
      <trkpt lat="45.16787" lon="5.96844">
        <ele>2515.8</ele>
        <time>2021-02-20T12:50:18Z</time>
      </trkpt>
      <trkpt lat="45.16787" lon="5.96844">
        <ele>2515.8</ele>
        <time>2021-02-20T12:50:19Z</time>
      </trkpt>
      <trkpt lat="45.16787" lon="5.96844">
        <ele>2515.8</ele>
        <time>2021-02-20T12:50:20Z</time>
      </trkpt>
      <trkpt lat="45.16787" lon="5.96844">
        <ele>2515.8</ele>
        <time>2021-02-20T12:50:21Z</time>
      </trkpt>
      <trkpt lat="45.16787" lon="5.96844">
        <ele>2515.8</ele>
        <time>2021-02-20T12:50:22Z</time>
      </trkpt>
      <trkpt lat="45.16787" lon="5.96844">
        <ele>2515.8</ele>
        <time>2021-02-20T12:50:23Z</time>
      </trkpt>
      <trkpt lat="45.16787" lon="5.96844">
        <ele>2515.8</ele>
        <time>2021-02-20T12:50:24Z</time>
      </trkpt>
      <trkpt lat="45.16787" lon="5.96844">
        <ele>2515.8</ele>
        <time>2021-02-20T12:50:25Z</time>
      </trkpt>
      <trkpt lat="45.16787" lon="5.96844">
        <ele>2515.8</ele>
        <time>2021-02-20T12:50:26Z</time>
      </trkpt>
      <trkpt lat="45.16787" lon="5.96844">
        <ele>2515.8</ele>
        <time>2021-02-20T12:50:27Z</time>
      </trkpt>
      <trkpt lat="45.16787" lon="5.96844">
        <ele>2515.8</ele>
        <time>2021-02-20T12:50:28Z</time>
      </trkpt>
      <trkpt lat="45.16787" lon="5.96844">
        <ele>2515.8</ele>
        <time>2021-02-20T12:50:29Z</time>
      </trkpt>
      <trkpt lat="45.16787" lon="5.96844">
        <ele>2515.8</ele>
        <time>2021-02-20T12:50:30Z</time>
      </trkpt>
      <trkpt lat="45.16787" lon="5.96844">
        <ele>2515.8</ele>
        <time>2021-02-20T12:50:31Z</time>
      </trkpt>
      <trkpt lat="45.16787" lon="5.96844">
        <ele>2515.8</ele>
        <time>2021-02-20T12:50:32Z</time>
      </trkpt>
      <trkpt lat="45.16787" lon="5.96844">
        <ele>2515.8</ele>
        <time>2021-02-20T12:50:33Z</time>
      </trkpt>
      <trkpt lat="45.16787" lon="5.96844">
        <ele>2515.8</ele>
        <time>2021-02-20T12:50:34Z</time>
      </trkpt>
      <trkpt lat="45.16787" lon="5.96844">
        <ele>2515.8</ele>
        <time>2021-02-20T12:50:35Z</time>
      </trkpt>
      <trkpt lat="45.16787" lon="5.96844">
        <ele>2515.8</ele>
        <time>2021-02-20T12:50:36Z</time>
      </trkpt>
      <trkpt lat="45.16787" lon="5.96844">
        <ele>2515.8</ele>
        <time>2021-02-20T12:50:37Z</time>
      </trkpt>
      <trkpt lat="45.16787" lon="5.96844">
        <ele>2515.8</ele>
        <time>2021-02-20T12:50:38Z</time>
      </trkpt>
      <trkpt lat="45.16787" lon="5.96844">
        <ele>2515.8</ele>
        <time>2021-02-20T12:50:39Z</time>
      </trkpt>
      <trkpt lat="45.16787" lon="5.96844">
        <ele>2515.8</ele>
        <time>2021-02-20T12:50:40Z</time>
      </trkpt>
      <trkpt lat="45.16787" lon="5.96844">
        <ele>2515.8</ele>
        <time>2021-02-20T12:50:41Z</time>
      </trkpt>
      <trkpt lat="45.16787" lon="5.96844">
        <ele>2515.8</ele>
        <time>2021-02-20T12:50:42Z</time>
      </trkpt>
      <trkpt lat="45.16787" lon="5.96844">
        <ele>2515.8</ele>
        <time>2021-02-20T12:50:43Z</time>
      </trkpt>
      <trkpt lat="45.16787" lon="5.96844">
        <ele>2515.8</ele>
        <time>2021-02-20T12:50:44Z</time>
      </trkpt>
      <trkpt lat="45.16787" lon="5.96844">
        <ele>2515.8</ele>
        <time>2021-02-20T12:50:45Z</time>
      </trkpt>
      <trkpt lat="45.16787" lon="5.96844">
        <ele>2515.8</ele>
        <time>2021-02-20T12:50:46Z</time>
      </trkpt>
      <trkpt lat="45.16787" lon="5.96844">
        <ele>2515.8</ele>
        <time>2021-02-20T12:50:47Z</time>
      </trkpt>
      <trkpt lat="45.16787" lon="5.96844">
        <ele>2515.8</ele>
        <time>2021-02-20T12:50:48Z</time>
      </trkpt>
      <trkpt lat="45.16787" lon="5.96844">
        <ele>2515.8</ele>
        <time>2021-02-20T12:50:49Z</time>
      </trkpt>
      <trkpt lat="45.16787" lon="5.96844">
        <ele>2515.8</ele>
        <time>2021-02-20T12:50:50Z</time>
      </trkpt>
      <trkpt lat="45.16787" lon="5.96844">
        <ele>2515.8</ele>
        <time>2021-02-20T12:50:51Z</time>
      </trkpt>
      <trkpt lat="45.16787" lon="5.96844">
        <ele>2515.8</ele>
        <time>2021-02-20T12:50:52Z</time>
      </trkpt>
      <trkpt lat="45.16787" lon="5.96844">
        <ele>2515.8</ele>
        <time>2021-02-20T12:50:53Z</time>
      </trkpt>
      <trkpt lat="45.16787" lon="5.96844">
        <ele>2515.8</ele>
        <time>2021-02-20T12:50:54Z</time>
      </trkpt>
      <trkpt lat="45.16787" lon="5.96844">
        <ele>2515.8</ele>
        <time>2021-02-20T12:50:55Z</time>
      </trkpt>
      <trkpt lat="45.16787" lon="5.96844">
        <ele>2515.8</ele>
        <time>2021-02-20T12:50:56Z</time>
      </trkpt>
      <trkpt lat="45.16787" lon="5.96844">
        <ele>2515.8</ele>
        <time>2021-02-20T12:50:57Z</time>
      </trkpt>
      <trkpt lat="45.16787" lon="5.96844">
        <ele>2515.8</ele>
        <time>2021-02-20T12:50:58Z</time>
      </trkpt>
      <trkpt lat="45.16787" lon="5.96844">
        <ele>2515.8</ele>
        <time>2021-02-20T12:50:59Z</time>
      </trkpt>
      <trkpt lat="45.16787" lon="5.96844">
        <ele>2515.8</ele>
        <time>2021-02-20T12:51:00Z</time>
      </trkpt>
      <trkpt lat="45.16787" lon="5.96844">
        <ele>2515.8</ele>
        <time>2021-02-20T12:51:01Z</time>
      </trkpt>
      <trkpt lat="45.16787" lon="5.96844">
        <ele>2515.8</ele>
        <time>2021-02-20T12:51:02Z</time>
      </trkpt>
      <trkpt lat="45.16787" lon="5.96844">
        <ele>2515.8</ele>
        <time>2021-02-20T12:51:03Z</time>
      </trkpt>
      <trkpt lat="45.16787" lon="5.96844">
        <ele>2515.8</ele>
        <time>2021-02-20T12:51:04Z</time>
      </trkpt>
      <trkpt lat="45.16787" lon="5.96844">
        <ele>2515.8</ele>
        <time>2021-02-20T12:51:05Z</time>
      </trkpt>
      <trkpt lat="45.16787" lon="5.96844">
        <ele>2515.8</ele>
        <time>2021-02-20T12:51:06Z</time>
      </trkpt>
      <trkpt lat="45.16787" lon="5.96844">
        <ele>2515.8</ele>
        <time>2021-02-20T12:51:07Z</time>
      </trkpt>
      <trkpt lat="45.16787" lon="5.96844">
        <ele>2515.8</ele>
        <time>2021-02-20T12:51:08Z</time>
      </trkpt>
      <trkpt lat="45.16787" lon="5.96844">
        <ele>2515.8</ele>
        <time>2021-02-20T12:51:09Z</time>
      </trkpt>
      <trkpt lat="45.16787" lon="5.96844">
        <ele>2515.8</ele>
        <time>2021-02-20T12:51:10Z</time>
      </trkpt>
      <trkpt lat="45.16787" lon="5.96844">
        <ele>2515.8</ele>
        <time>2021-02-20T12:51:11Z</time>
      </trkpt>
      <trkpt lat="45.16787" lon="5.96844">
        <ele>2515.8</ele>
        <time>2021-02-20T12:51:12Z</time>
      </trkpt>
      <trkpt lat="45.16787" lon="5.96844">
        <ele>2515.8</ele>
        <time>2021-02-20T12:51:13Z</time>
      </trkpt>
      <trkpt lat="45.16787" lon="5.96844">
        <ele>2515.8</ele>
        <time>2021-02-20T12:51:14Z</time>
      </trkpt>
      <trkpt lat="45.16787" lon="5.96844">
        <ele>2515.8</ele>
        <time>2021-02-20T12:51:15Z</time>
      </trkpt>
      <trkpt lat="45.16787" lon="5.96844">
        <ele>2515.8</ele>
        <time>2021-02-20T12:51:16Z</time>
      </trkpt>
      <trkpt lat="45.16787" lon="5.96844">
        <ele>2515.8</ele>
        <time>2021-02-20T12:51:17Z</time>
      </trkpt>
      <trkpt lat="45.16787" lon="5.96844">
        <ele>2515.8</ele>
        <time>2021-02-20T12:51:18Z</time>
      </trkpt>
      <trkpt lat="45.16787" lon="5.96844">
        <ele>2515.8</ele>
        <time>2021-02-20T12:51:19Z</time>
      </trkpt>
      <trkpt lat="45.16787" lon="5.96844">
        <ele>2515.8</ele>
        <time>2021-02-20T12:51:20Z</time>
      </trkpt>
      <trkpt lat="45.16787" lon="5.96844">
        <ele>2515.8</ele>
        <time>2021-02-20T12:51:21Z</time>
      </trkpt>
      <trkpt lat="45.16787" lon="5.96844">
        <ele>2515.8</ele>
        <time>2021-02-20T12:51:22Z</time>
      </trkpt>
      <trkpt lat="45.16787" lon="5.96844">
        <ele>2515.8</ele>
        <time>2021-02-20T12:51:23Z</time>
      </trkpt>
      <trkpt lat="45.16787" lon="5.96844">
        <ele>2515.8</ele>
        <time>2021-02-20T12:51:24Z</time>
      </trkpt>
      <trkpt lat="45.16787" lon="5.96844">
        <ele>2515.8</ele>
        <time>2021-02-20T12:51:25Z</time>
      </trkpt>
      <trkpt lat="45.16787" lon="5.96844">
        <ele>2515.8</ele>
        <time>2021-02-20T12:51:26Z</time>
      </trkpt>
      <trkpt lat="45.16787" lon="5.96844">
        <ele>2515.8</ele>
        <time>2021-02-20T12:51:27Z</time>
      </trkpt>
      <trkpt lat="45.16787" lon="5.96844">
        <ele>2515.8</ele>
        <time>2021-02-20T12:51:28Z</time>
      </trkpt>
      <trkpt lat="45.16787" lon="5.96844">
        <ele>2515.8</ele>
        <time>2021-02-20T12:51:29Z</time>
      </trkpt>
      <trkpt lat="45.16787" lon="5.96844">
        <ele>2515.8</ele>
        <time>2021-02-20T12:51:30Z</time>
      </trkpt>
      <trkpt lat="45.16787" lon="5.96844">
        <ele>2515.8</ele>
        <time>2021-02-20T12:51:31Z</time>
      </trkpt>
      <trkpt lat="45.16787" lon="5.96844">
        <ele>2515.8</ele>
        <time>2021-02-20T12:51:32Z</time>
      </trkpt>
      <trkpt lat="45.16787" lon="5.96844">
        <ele>2515.8</ele>
        <time>2021-02-20T12:51:33Z</time>
      </trkpt>
      <trkpt lat="45.16787" lon="5.96844">
        <ele>2515.8</ele>
        <time>2021-02-20T12:51:34Z</time>
      </trkpt>
      <trkpt lat="45.16787" lon="5.96844">
        <ele>2515.8</ele>
        <time>2021-02-20T12:51:35Z</time>
      </trkpt>
      <trkpt lat="45.16787" lon="5.96844">
        <ele>2515.8</ele>
        <time>2021-02-20T12:51:36Z</time>
      </trkpt>
      <trkpt lat="45.16787" lon="5.96844">
        <ele>2515.8</ele>
        <time>2021-02-20T12:51:37Z</time>
      </trkpt>
      <trkpt lat="45.16787" lon="5.96844">
        <ele>2515.8</ele>
        <time>2021-02-20T12:51:38Z</time>
      </trkpt>
      <trkpt lat="45.16787" lon="5.96844">
        <ele>2515.8</ele>
        <time>2021-02-20T12:51:39Z</time>
      </trkpt>
      <trkpt lat="45.16787" lon="5.96844">
        <ele>2515.8</ele>
        <time>2021-02-20T12:51:40Z</time>
      </trkpt>
      <trkpt lat="45.16787" lon="5.96844">
        <ele>2515.8</ele>
        <time>2021-02-20T12:51:41Z</time>
      </trkpt>
      <trkpt lat="45.16787" lon="5.96844">
        <ele>2515.8</ele>
        <time>2021-02-20T12:51:42Z</time>
      </trkpt>
      <trkpt lat="45.16787" lon="5.96844">
        <ele>2515.8</ele>
        <time>2021-02-20T12:51:43Z</time>
      </trkpt>
      <trkpt lat="45.16787" lon="5.96844">
        <ele>2515.8</ele>
        <time>2021-02-20T12:51:44Z</time>
      </trkpt>
      <trkpt lat="45.16787" lon="5.96844">
        <ele>2515.8</ele>
        <time>2021-02-20T12:51:45Z</time>
      </trkpt>
      <trkpt lat="45.16787" lon="5.96844">
        <ele>2515.8</ele>
        <time>2021-02-20T12:51:46Z</time>
      </trkpt>
      <trkpt lat="45.16787" lon="5.96844">
        <ele>2515.8</ele>
        <time>2021-02-20T12:51:47Z</time>
      </trkpt>
      <trkpt lat="45.16787" lon="5.96844">
        <ele>2515.8</ele>
        <time>2021-02-20T12:51:48Z</time>
      </trkpt>
      <trkpt lat="45.16787" lon="5.96844">
        <ele>2515.8</ele>
        <time>2021-02-20T12:51:49Z</time>
      </trkpt>
      <trkpt lat="45.16787" lon="5.96844">
        <ele>2515.8</ele>
        <time>2021-02-20T12:51:50Z</time>
      </trkpt>
      <trkpt lat="45.16787" lon="5.96844">
        <ele>2515.8</ele>
        <time>2021-02-20T12:51:51Z</time>
      </trkpt>
      <trkpt lat="45.16787" lon="5.96844">
        <ele>2515.8</ele>
        <time>2021-02-20T12:51:52Z</time>
      </trkpt>
      <trkpt lat="45.16787" lon="5.96844">
        <ele>2515.8</ele>
        <time>2021-02-20T12:51:53Z</time>
      </trkpt>
      <trkpt lat="45.16787" lon="5.96844">
        <ele>2515.8</ele>
        <time>2021-02-20T12:51:54Z</time>
      </trkpt>
      <trkpt lat="45.16787" lon="5.96844">
        <ele>2515.8</ele>
        <time>2021-02-20T12:51:55Z</time>
      </trkpt>
      <trkpt lat="45.16787" lon="5.96844">
        <ele>2515.8</ele>
        <time>2021-02-20T12:51:56Z</time>
      </trkpt>
      <trkpt lat="45.16787" lon="5.96844">
        <ele>2515.8</ele>
        <time>2021-02-20T12:51:57Z</time>
      </trkpt>
      <trkpt lat="45.16787" lon="5.96844">
        <ele>2515.8</ele>
        <time>2021-02-20T12:51:58Z</time>
      </trkpt>
      <trkpt lat="45.16787" lon="5.96843">
        <ele>2515.8</ele>
        <time>2021-02-20T12:51:59Z</time>
      </trkpt>
      <trkpt lat="45.16787" lon="5.96843">
        <ele>2515.8</ele>
        <time>2021-02-20T12:52:00Z</time>
      </trkpt>
      <trkpt lat="45.16787" lon="5.96843">
        <ele>2515.8</ele>
        <time>2021-02-20T12:52:01Z</time>
      </trkpt>
      <trkpt lat="45.16787" lon="5.96843">
        <ele>2515.8</ele>
        <time>2021-02-20T12:52:02Z</time>
      </trkpt>
      <trkpt lat="45.16787" lon="5.96843">
        <ele>2515.8</ele>
        <time>2021-02-20T12:52:03Z</time>
      </trkpt>
      <trkpt lat="45.16787" lon="5.96843">
        <ele>2515.8</ele>
        <time>2021-02-20T12:52:04Z</time>
      </trkpt>
      <trkpt lat="45.16787" lon="5.96843">
        <ele>2515.8</ele>
        <time>2021-02-20T12:52:05Z</time>
      </trkpt>
      <trkpt lat="45.16787" lon="5.96843">
        <ele>2515.8</ele>
        <time>2021-02-20T12:52:06Z</time>
      </trkpt>
      <trkpt lat="45.16787" lon="5.96843">
        <ele>2515.8</ele>
        <time>2021-02-20T12:52:07Z</time>
      </trkpt>
      <trkpt lat="45.16787" lon="5.96843">
        <ele>2515.8</ele>
        <time>2021-02-20T12:52:08Z</time>
      </trkpt>
      <trkpt lat="45.16787" lon="5.96843">
        <ele>2515.8</ele>
        <time>2021-02-20T12:52:09Z</time>
      </trkpt>
      <trkpt lat="45.16787" lon="5.96843">
        <ele>2515.8</ele>
        <time>2021-02-20T12:52:10Z</time>
      </trkpt>
      <trkpt lat="45.16787" lon="5.96843">
        <ele>2515.8</ele>
        <time>2021-02-20T12:52:11Z</time>
      </trkpt>
      <trkpt lat="45.16787" lon="5.96843">
        <ele>2515.8</ele>
        <time>2021-02-20T12:52:12Z</time>
      </trkpt>
      <trkpt lat="45.16787" lon="5.96843">
        <ele>2515.8</ele>
        <time>2021-02-20T12:52:13Z</time>
      </trkpt>
      <trkpt lat="45.16787" lon="5.96843">
        <ele>2515.8</ele>
        <time>2021-02-20T12:52:14Z</time>
      </trkpt>
      <trkpt lat="45.16787" lon="5.96843">
        <ele>2515.8</ele>
        <time>2021-02-20T12:52:15Z</time>
      </trkpt>
      <trkpt lat="45.16787" lon="5.96843">
        <ele>2515.8</ele>
        <time>2021-02-20T12:52:16Z</time>
      </trkpt>
      <trkpt lat="45.16787" lon="5.96843">
        <ele>2515.8</ele>
        <time>2021-02-20T12:52:17Z</time>
      </trkpt>
      <trkpt lat="45.16787" lon="5.96843">
        <ele>2515.8</ele>
        <time>2021-02-20T12:52:18Z</time>
      </trkpt>
      <trkpt lat="45.16787" lon="5.96843">
        <ele>2515.8</ele>
        <time>2021-02-20T12:52:19Z</time>
      </trkpt>
      <trkpt lat="45.16787" lon="5.96843">
        <ele>2515.8</ele>
        <time>2021-02-20T12:52:20Z</time>
      </trkpt>
      <trkpt lat="45.16787" lon="5.96843">
        <ele>2515.8</ele>
        <time>2021-02-20T12:52:21Z</time>
      </trkpt>
      <trkpt lat="45.16787" lon="5.96843">
        <ele>2515.8</ele>
        <time>2021-02-20T12:52:22Z</time>
      </trkpt>
      <trkpt lat="45.16787" lon="5.96843">
        <ele>2515.8</ele>
        <time>2021-02-20T12:52:23Z</time>
      </trkpt>
      <trkpt lat="45.16787" lon="5.96843">
        <ele>2515.8</ele>
        <time>2021-02-20T12:52:24Z</time>
      </trkpt>
      <trkpt lat="45.16787" lon="5.96843">
        <ele>2515.8</ele>
        <time>2021-02-20T12:52:25Z</time>
      </trkpt>
      <trkpt lat="45.16787" lon="5.96843">
        <ele>2515.8</ele>
        <time>2021-02-20T12:52:26Z</time>
      </trkpt>
      <trkpt lat="45.16787" lon="5.96843">
        <ele>2515.8</ele>
        <time>2021-02-20T12:52:27Z</time>
      </trkpt>
      <trkpt lat="45.16787" lon="5.96843">
        <ele>2515.8</ele>
        <time>2021-02-20T12:52:28Z</time>
      </trkpt>
      <trkpt lat="45.16787" lon="5.96843">
        <ele>2515.8</ele>
        <time>2021-02-20T12:52:29Z</time>
      </trkpt>
      <trkpt lat="45.16787" lon="5.96843">
        <ele>2515.8</ele>
        <time>2021-02-20T12:52:30Z</time>
      </trkpt>
      <trkpt lat="45.16787" lon="5.96843">
        <ele>2515.8</ele>
        <time>2021-02-20T12:52:31Z</time>
      </trkpt>
      <trkpt lat="45.16787" lon="5.96843">
        <ele>2515.8</ele>
        <time>2021-02-20T12:52:32Z</time>
      </trkpt>
      <trkpt lat="45.16787" lon="5.96843">
        <ele>2515.8</ele>
        <time>2021-02-20T12:52:33Z</time>
      </trkpt>
      <trkpt lat="45.16787" lon="5.96843">
        <ele>2515.8</ele>
        <time>2021-02-20T12:52:34Z</time>
      </trkpt>
      <trkpt lat="45.16787" lon="5.96843">
        <ele>2515.8</ele>
        <time>2021-02-20T12:52:35Z</time>
      </trkpt>
      <trkpt lat="45.16787" lon="5.96843">
        <ele>2515.8</ele>
        <time>2021-02-20T12:52:36Z</time>
      </trkpt>
      <trkpt lat="45.16787" lon="5.96843">
        <ele>2515.8</ele>
        <time>2021-02-20T12:52:37Z</time>
      </trkpt>
      <trkpt lat="45.16787" lon="5.96843">
        <ele>2515.8</ele>
        <time>2021-02-20T12:52:38Z</time>
      </trkpt>
      <trkpt lat="45.16787" lon="5.96843">
        <ele>2515.8</ele>
        <time>2021-02-20T12:52:39Z</time>
      </trkpt>
      <trkpt lat="45.16787" lon="5.96843">
        <ele>2515.8</ele>
        <time>2021-02-20T12:52:40Z</time>
      </trkpt>
      <trkpt lat="45.16787" lon="5.96843">
        <ele>2515.8</ele>
        <time>2021-02-20T12:52:41Z</time>
      </trkpt>
      <trkpt lat="45.16787" lon="5.96843">
        <ele>2515.8</ele>
        <time>2021-02-20T12:52:42Z</time>
      </trkpt>
      <trkpt lat="45.16787" lon="5.96843">
        <ele>2515.8</ele>
        <time>2021-02-20T12:52:43Z</time>
      </trkpt>
      <trkpt lat="45.16787" lon="5.96843">
        <ele>2515.8</ele>
        <time>2021-02-20T12:52:44Z</time>
      </trkpt>
      <trkpt lat="45.16787" lon="5.96843">
        <ele>2515.8</ele>
        <time>2021-02-20T12:52:45Z</time>
      </trkpt>
      <trkpt lat="45.16787" lon="5.96843">
        <ele>2515.8</ele>
        <time>2021-02-20T12:52:46Z</time>
      </trkpt>
      <trkpt lat="45.16787" lon="5.96843">
        <ele>2515.8</ele>
        <time>2021-02-20T12:52:47Z</time>
      </trkpt>
      <trkpt lat="45.16787" lon="5.96843">
        <ele>2515.8</ele>
        <time>2021-02-20T12:52:48Z</time>
      </trkpt>
      <trkpt lat="45.16787" lon="5.96842">
        <ele>2515.8</ele>
        <time>2021-02-20T12:52:49Z</time>
      </trkpt>
      <trkpt lat="45.16787" lon="5.96842">
        <ele>2515.8</ele>
        <time>2021-02-20T12:52:50Z</time>
      </trkpt>
      <trkpt lat="45.16787" lon="5.96842">
        <ele>2515.8</ele>
        <time>2021-02-20T12:52:51Z</time>
      </trkpt>
      <trkpt lat="45.16787" lon="5.96842">
        <ele>2515.8</ele>
        <time>2021-02-20T12:52:52Z</time>
      </trkpt>
      <trkpt lat="45.16787" lon="5.96842">
        <ele>2515.8</ele>
        <time>2021-02-20T12:52:53Z</time>
      </trkpt>
      <trkpt lat="45.16787" lon="5.96842">
        <ele>2515.8</ele>
        <time>2021-02-20T12:52:54Z</time>
      </trkpt>
      <trkpt lat="45.16787" lon="5.96842">
        <ele>2515.8</ele>
        <time>2021-02-20T12:52:55Z</time>
      </trkpt>
      <trkpt lat="45.16787" lon="5.96842">
        <ele>2515.8</ele>
        <time>2021-02-20T12:52:56Z</time>
      </trkpt>
      <trkpt lat="45.16787" lon="5.96842">
        <ele>2515.8</ele>
        <time>2021-02-20T12:52:57Z</time>
      </trkpt>
      <trkpt lat="45.16787" lon="5.96842">
        <ele>2515.8</ele>
        <time>2021-02-20T12:52:58Z</time>
      </trkpt>
      <trkpt lat="45.16787" lon="5.96842">
        <ele>2515.8</ele>
        <time>2021-02-20T12:52:59Z</time>
      </trkpt>
      <trkpt lat="45.16787" lon="5.96842">
        <ele>2515.8</ele>
        <time>2021-02-20T12:53:00Z</time>
      </trkpt>
      <trkpt lat="45.16787" lon="5.96842">
        <ele>2515.8</ele>
        <time>2021-02-20T12:53:01Z</time>
      </trkpt>
      <trkpt lat="45.16787" lon="5.96842">
        <ele>2515.8</ele>
        <time>2021-02-20T12:53:02Z</time>
      </trkpt>
      <trkpt lat="45.16787" lon="5.96842">
        <ele>2515.8</ele>
        <time>2021-02-20T12:53:03Z</time>
      </trkpt>
      <trkpt lat="45.16787" lon="5.96842">
        <ele>2515.8</ele>
        <time>2021-02-20T12:53:04Z</time>
      </trkpt>
      <trkpt lat="45.16787" lon="5.96842">
        <ele>2515.8</ele>
        <time>2021-02-20T12:53:05Z</time>
      </trkpt>
      <trkpt lat="45.16787" lon="5.96842">
        <ele>2515.8</ele>
        <time>2021-02-20T12:53:06Z</time>
      </trkpt>
      <trkpt lat="45.16787" lon="5.96842">
        <ele>2515.8</ele>
        <time>2021-02-20T12:53:07Z</time>
      </trkpt>
      <trkpt lat="45.16787" lon="5.96842">
        <ele>2515.8</ele>
        <time>2021-02-20T12:53:08Z</time>
      </trkpt>
      <trkpt lat="45.16787" lon="5.96842">
        <ele>2515.8</ele>
        <time>2021-02-20T12:53:09Z</time>
      </trkpt>
      <trkpt lat="45.16787" lon="5.96843">
        <ele>2515.8</ele>
        <time>2021-02-20T12:53:10Z</time>
      </trkpt>
      <trkpt lat="45.16788" lon="5.96843">
        <ele>2515.8</ele>
        <time>2021-02-20T12:53:11Z</time>
      </trkpt>
      <trkpt lat="45.16788" lon="5.96843">
        <ele>2515.8</ele>
        <time>2021-02-20T12:53:12Z</time>
      </trkpt>
      <trkpt lat="45.16788" lon="5.96842">
        <ele>2515.8</ele>
        <time>2021-02-20T12:53:13Z</time>
      </trkpt>
      <trkpt lat="45.16788" lon="5.96842">
        <ele>2515.8</ele>
        <time>2021-02-20T12:53:14Z</time>
      </trkpt>
      <trkpt lat="45.16788" lon="5.96842">
        <ele>2515.8</ele>
        <time>2021-02-20T12:53:15Z</time>
      </trkpt>
      <trkpt lat="45.16788" lon="5.96841">
        <ele>2515.8</ele>
        <time>2021-02-20T12:53:16Z</time>
      </trkpt>
      <trkpt lat="45.16788" lon="5.96841">
        <ele>2515.8</ele>
        <time>2021-02-20T12:53:17Z</time>
      </trkpt>
      <trkpt lat="45.16788" lon="5.96841">
        <ele>2515.8</ele>
        <time>2021-02-20T12:53:18Z</time>
      </trkpt>
      <trkpt lat="45.16788" lon="5.96841">
        <ele>2515.8</ele>
        <time>2021-02-20T12:53:19Z</time>
      </trkpt>
      <trkpt lat="45.16788" lon="5.96841">
        <ele>2515.8</ele>
        <time>2021-02-20T12:53:20Z</time>
      </trkpt>
      <trkpt lat="45.16788" lon="5.96841">
        <ele>2515.8</ele>
        <time>2021-02-20T12:53:21Z</time>
      </trkpt>
      <trkpt lat="45.16788" lon="5.96841">
        <ele>2515.8</ele>
        <time>2021-02-20T12:53:22Z</time>
      </trkpt>
      <trkpt lat="45.16788" lon="5.96841">
        <ele>2515.8</ele>
        <time>2021-02-20T12:53:23Z</time>
      </trkpt>
      <trkpt lat="45.16788" lon="5.96841">
        <ele>2515.8</ele>
        <time>2021-02-20T12:53:24Z</time>
      </trkpt>
      <trkpt lat="45.16788" lon="5.96841">
        <ele>2515.8</ele>
        <time>2021-02-20T12:53:25Z</time>
      </trkpt>
      <trkpt lat="45.16788" lon="5.96841">
        <ele>2515.8</ele>
        <time>2021-02-20T12:53:26Z</time>
      </trkpt>
      <trkpt lat="45.16788" lon="5.96841">
        <ele>2515.8</ele>
        <time>2021-02-20T12:53:27Z</time>
      </trkpt>
      <trkpt lat="45.16787" lon="5.9684">
        <ele>2515.2</ele>
        <time>2021-02-20T12:53:28Z</time>
      </trkpt>
      <trkpt lat="45.16787" lon="5.9684">
        <ele>2515.2</ele>
        <time>2021-02-20T12:53:29Z</time>
      </trkpt>
      <trkpt lat="45.16786" lon="5.96841">
        <ele>2515.2</ele>
        <time>2021-02-20T12:53:30Z</time>
      </trkpt>
      <trkpt lat="45.16786" lon="5.96841">
        <ele>2515.8</ele>
        <time>2021-02-20T12:53:31Z</time>
      </trkpt>
      <trkpt lat="45.16786" lon="5.96841">
        <ele>2515.8</ele>
        <time>2021-02-20T12:53:32Z</time>
      </trkpt>
      <trkpt lat="45.16786" lon="5.96841">
        <ele>2515.8</ele>
        <time>2021-02-20T12:53:33Z</time>
      </trkpt>
      <trkpt lat="45.16786" lon="5.96841">
        <ele>2515.8</ele>
        <time>2021-02-20T12:53:34Z</time>
      </trkpt>
      <trkpt lat="45.16787" lon="5.96841">
        <ele>2515.8</ele>
        <time>2021-02-20T12:53:35Z</time>
      </trkpt>
      <trkpt lat="45.16787" lon="5.96841">
        <ele>2515.8</ele>
        <time>2021-02-20T12:53:36Z</time>
      </trkpt>
      <trkpt lat="45.16787" lon="5.96841">
        <ele>2515.8</ele>
        <time>2021-02-20T12:53:37Z</time>
      </trkpt>
      <trkpt lat="45.16787" lon="5.96841">
        <ele>2515.8</ele>
        <time>2021-02-20T12:53:38Z</time>
      </trkpt>
      <trkpt lat="45.16787" lon="5.96841">
        <ele>2515.8</ele>
        <time>2021-02-20T12:53:39Z</time>
      </trkpt>
      <trkpt lat="45.16787" lon="5.96841">
        <ele>2515.8</ele>
        <time>2021-02-20T12:53:40Z</time>
      </trkpt>
      <trkpt lat="45.16787" lon="5.96841">
        <ele>2515.8</ele>
        <time>2021-02-20T12:53:41Z</time>
      </trkpt>
      <trkpt lat="45.16788" lon="5.96841">
        <ele>2515.8</ele>
        <time>2021-02-20T12:53:42Z</time>
      </trkpt>
      <trkpt lat="45.16788" lon="5.96841">
        <ele>2515.8</ele>
        <time>2021-02-20T12:53:43Z</time>
      </trkpt>
      <trkpt lat="45.16788" lon="5.96841">
        <ele>2515.8</ele>
        <time>2021-02-20T12:53:44Z</time>
      </trkpt>
      <trkpt lat="45.16788" lon="5.96841">
        <ele>2515.8</ele>
        <time>2021-02-20T12:53:45Z</time>
      </trkpt>
      <trkpt lat="45.16788" lon="5.96841">
        <ele>2515.8</ele>
        <time>2021-02-20T12:53:46Z</time>
      </trkpt>
      <trkpt lat="45.16788" lon="5.96841">
        <ele>2515.8</ele>
        <time>2021-02-20T12:53:47Z</time>
      </trkpt>
      <trkpt lat="45.16788" lon="5.96841">
        <ele>2515.8</ele>
        <time>2021-02-20T12:53:48Z</time>
      </trkpt>
      <trkpt lat="45.16788" lon="5.96841">
        <ele>2515.8</ele>
        <time>2021-02-20T12:53:49Z</time>
      </trkpt>
      <trkpt lat="45.16788" lon="5.96841">
        <ele>2515.8</ele>
        <time>2021-02-20T12:53:50Z</time>
      </trkpt>
      <trkpt lat="45.16788" lon="5.96841">
        <ele>2515.8</ele>
        <time>2021-02-20T12:53:51Z</time>
      </trkpt>
      <trkpt lat="45.16788" lon="5.96841">
        <ele>2515.8</ele>
        <time>2021-02-20T12:53:52Z</time>
      </trkpt>
      <trkpt lat="45.16788" lon="5.96841">
        <ele>2515.8</ele>
        <time>2021-02-20T12:53:53Z</time>
      </trkpt>
      <trkpt lat="45.16788" lon="5.96841">
        <ele>2515.8</ele>
        <time>2021-02-20T12:53:54Z</time>
      </trkpt>
      <trkpt lat="45.16788" lon="5.96841">
        <ele>2515.8</ele>
        <time>2021-02-20T12:53:55Z</time>
      </trkpt>
      <trkpt lat="45.16788" lon="5.96841">
        <ele>2515.8</ele>
        <time>2021-02-20T12:53:56Z</time>
      </trkpt>
      <trkpt lat="45.16788" lon="5.96841">
        <ele>2515.8</ele>
        <time>2021-02-20T12:53:57Z</time>
      </trkpt>
      <trkpt lat="45.16788" lon="5.96841">
        <ele>2515.8</ele>
        <time>2021-02-20T12:53:58Z</time>
      </trkpt>
      <trkpt lat="45.16788" lon="5.96841">
        <ele>2515.8</ele>
        <time>2021-02-20T12:53:59Z</time>
      </trkpt>
      <trkpt lat="45.16788" lon="5.96841">
        <ele>2515.8</ele>
        <time>2021-02-20T12:54:00Z</time>
      </trkpt>
      <trkpt lat="45.16788" lon="5.96841">
        <ele>2515.8</ele>
        <time>2021-02-20T12:54:01Z</time>
      </trkpt>
      <trkpt lat="45.16788" lon="5.96841">
        <ele>2515.8</ele>
        <time>2021-02-20T12:54:02Z</time>
      </trkpt>
      <trkpt lat="45.16788" lon="5.96841">
        <ele>2515.8</ele>
        <time>2021-02-20T12:54:03Z</time>
      </trkpt>
      <trkpt lat="45.16788" lon="5.96842">
        <ele>2516.1</ele>
        <time>2021-02-20T12:54:04Z</time>
      </trkpt>
      <trkpt lat="45.16789" lon="5.96841">
        <ele>2516.1</ele>
        <time>2021-02-20T12:54:05Z</time>
      </trkpt>
      <trkpt lat="45.16789" lon="5.96841">
        <ele>2516.1</ele>
        <time>2021-02-20T12:54:06Z</time>
      </trkpt>
      <trkpt lat="45.16789" lon="5.96841">
        <ele>2516.1</ele>
        <time>2021-02-20T12:54:07Z</time>
      </trkpt>
      <trkpt lat="45.16789" lon="5.96841">
        <ele>2516.1</ele>
        <time>2021-02-20T12:54:08Z</time>
      </trkpt>
      <trkpt lat="45.16789" lon="5.96841">
        <ele>2516.1</ele>
        <time>2021-02-20T12:54:09Z</time>
      </trkpt>
      <trkpt lat="45.16789" lon="5.96841">
        <ele>2516.1</ele>
        <time>2021-02-20T12:54:10Z</time>
      </trkpt>
      <trkpt lat="45.16789" lon="5.96841">
        <ele>2515.5</ele>
        <time>2021-02-20T12:54:11Z</time>
      </trkpt>
      <trkpt lat="45.16789" lon="5.96841">
        <ele>2515.5</ele>
        <time>2021-02-20T12:54:12Z</time>
      </trkpt>
      <trkpt lat="45.16789" lon="5.96841">
        <ele>2515.5</ele>
        <time>2021-02-20T12:54:13Z</time>
      </trkpt>
      <trkpt lat="45.16789" lon="5.96841">
        <ele>2515.5</ele>
        <time>2021-02-20T12:54:14Z</time>
      </trkpt>
      <trkpt lat="45.16789" lon="5.96841">
        <ele>2515.5</ele>
        <time>2021-02-20T12:54:15Z</time>
      </trkpt>
      <trkpt lat="45.16789" lon="5.96841">
        <ele>2515.5</ele>
        <time>2021-02-20T12:54:16Z</time>
      </trkpt>
      <trkpt lat="45.16789" lon="5.96841">
        <ele>2515.5</ele>
        <time>2021-02-20T12:54:17Z</time>
      </trkpt>
      <trkpt lat="45.16789" lon="5.96841">
        <ele>2515.5</ele>
        <time>2021-02-20T12:54:18Z</time>
      </trkpt>
      <trkpt lat="45.16788" lon="5.9684">
        <ele>2515.5</ele>
        <time>2021-02-20T12:54:19Z</time>
      </trkpt>
      <trkpt lat="45.16788" lon="5.9684">
        <ele>2515.5</ele>
        <time>2021-02-20T12:54:20Z</time>
      </trkpt>
      <trkpt lat="45.16788" lon="5.9684">
        <ele>2515.5</ele>
        <time>2021-02-20T12:54:21Z</time>
      </trkpt>
      <trkpt lat="45.16788" lon="5.9684">
        <ele>2515.5</ele>
        <time>2021-02-20T12:54:22Z</time>
      </trkpt>
      <trkpt lat="45.16788" lon="5.9684">
        <ele>2515.5</ele>
        <time>2021-02-20T12:54:23Z</time>
      </trkpt>
      <trkpt lat="45.16788" lon="5.9684">
        <ele>2515.5</ele>
        <time>2021-02-20T12:54:24Z</time>
      </trkpt>
      <trkpt lat="45.16788" lon="5.9684">
        <ele>2515.5</ele>
        <time>2021-02-20T12:54:25Z</time>
      </trkpt>
      <trkpt lat="45.16788" lon="5.9684">
        <ele>2515.5</ele>
        <time>2021-02-20T12:54:26Z</time>
      </trkpt>
      <trkpt lat="45.16788" lon="5.9684">
        <ele>2515.5</ele>
        <time>2021-02-20T12:54:27Z</time>
      </trkpt>
      <trkpt lat="45.16788" lon="5.9684">
        <ele>2515.5</ele>
        <time>2021-02-20T12:54:28Z</time>
      </trkpt>
      <trkpt lat="45.16788" lon="5.9684">
        <ele>2515.5</ele>
        <time>2021-02-20T12:54:29Z</time>
      </trkpt>
      <trkpt lat="45.16788" lon="5.9684">
        <ele>2515.5</ele>
        <time>2021-02-20T12:54:30Z</time>
      </trkpt>
      <trkpt lat="45.16788" lon="5.9684">
        <ele>2515.5</ele>
        <time>2021-02-20T12:54:31Z</time>
      </trkpt>
      <trkpt lat="45.16788" lon="5.9684">
        <ele>2515.5</ele>
        <time>2021-02-20T12:54:32Z</time>
      </trkpt>
      <trkpt lat="45.16788" lon="5.9684">
        <ele>2515.5</ele>
        <time>2021-02-20T12:54:33Z</time>
      </trkpt>
      <trkpt lat="45.16788" lon="5.9684">
        <ele>2515.5</ele>
        <time>2021-02-20T12:54:34Z</time>
      </trkpt>
      <trkpt lat="45.16788" lon="5.9684">
        <ele>2515.5</ele>
        <time>2021-02-20T12:54:35Z</time>
      </trkpt>
      <trkpt lat="45.16788" lon="5.9684">
        <ele>2515.5</ele>
        <time>2021-02-20T12:54:36Z</time>
      </trkpt>
      <trkpt lat="45.16788" lon="5.9684">
        <ele>2515.5</ele>
        <time>2021-02-20T12:54:37Z</time>
      </trkpt>
      <trkpt lat="45.16788" lon="5.9684">
        <ele>2515.5</ele>
        <time>2021-02-20T12:54:38Z</time>
      </trkpt>
      <trkpt lat="45.16788" lon="5.9684">
        <ele>2515.5</ele>
        <time>2021-02-20T12:54:39Z</time>
      </trkpt>
      <trkpt lat="45.16788" lon="5.9684">
        <ele>2515.5</ele>
        <time>2021-02-20T12:54:40Z</time>
      </trkpt>
      <trkpt lat="45.16788" lon="5.9684">
        <ele>2515.5</ele>
        <time>2021-02-20T12:54:41Z</time>
      </trkpt>
      <trkpt lat="45.16788" lon="5.9684">
        <ele>2515.5</ele>
        <time>2021-02-20T12:54:42Z</time>
      </trkpt>
      <trkpt lat="45.16788" lon="5.9684">
        <ele>2515.5</ele>
        <time>2021-02-20T12:54:43Z</time>
      </trkpt>
      <trkpt lat="45.16788" lon="5.9684">
        <ele>2515.5</ele>
        <time>2021-02-20T12:54:44Z</time>
      </trkpt>
      <trkpt lat="45.16788" lon="5.9684">
        <ele>2515.5</ele>
        <time>2021-02-20T12:54:45Z</time>
      </trkpt>
      <trkpt lat="45.16788" lon="5.9684">
        <ele>2515.5</ele>
        <time>2021-02-20T12:54:46Z</time>
      </trkpt>
      <trkpt lat="45.16788" lon="5.9684">
        <ele>2515.5</ele>
        <time>2021-02-20T12:54:47Z</time>
      </trkpt>
      <trkpt lat="45.16788" lon="5.9684">
        <ele>2515.5</ele>
        <time>2021-02-20T12:54:48Z</time>
      </trkpt>
      <trkpt lat="45.16788" lon="5.9684">
        <ele>2515.5</ele>
        <time>2021-02-20T12:54:49Z</time>
      </trkpt>
      <trkpt lat="45.16788" lon="5.9684">
        <ele>2515.5</ele>
        <time>2021-02-20T12:54:50Z</time>
      </trkpt>
      <trkpt lat="45.16788" lon="5.9684">
        <ele>2515.5</ele>
        <time>2021-02-20T12:54:51Z</time>
      </trkpt>
      <trkpt lat="45.16788" lon="5.9684">
        <ele>2515.5</ele>
        <time>2021-02-20T12:54:52Z</time>
      </trkpt>
      <trkpt lat="45.16788" lon="5.9684">
        <ele>2515.5</ele>
        <time>2021-02-20T12:54:53Z</time>
      </trkpt>
      <trkpt lat="45.16788" lon="5.96839">
        <ele>2515.2</ele>
        <time>2021-02-20T12:54:54Z</time>
      </trkpt>
      <trkpt lat="45.16788" lon="5.96839">
        <ele>2515.5</ele>
        <time>2021-02-20T12:54:55Z</time>
      </trkpt>
      <trkpt lat="45.16788" lon="5.9684">
        <ele>2515.5</ele>
        <time>2021-02-20T12:54:56Z</time>
      </trkpt>
      <trkpt lat="45.16788" lon="5.96841">
        <ele>2515.5</ele>
        <time>2021-02-20T12:54:57Z</time>
      </trkpt>
      <trkpt lat="45.16788" lon="5.96841">
        <ele>2516.1</ele>
        <time>2021-02-20T12:54:58Z</time>
      </trkpt>
      <trkpt lat="45.16788" lon="5.96841">
        <ele>2516.1</ele>
        <time>2021-02-20T12:54:59Z</time>
      </trkpt>
      <trkpt lat="45.16788" lon="5.96841">
        <ele>2516.1</ele>
        <time>2021-02-20T12:55:00Z</time>
      </trkpt>
      <trkpt lat="45.16788" lon="5.96841">
        <ele>2516.1</ele>
        <time>2021-02-20T12:55:01Z</time>
      </trkpt>
      <trkpt lat="45.16788" lon="5.96841">
        <ele>2516.1</ele>
        <time>2021-02-20T12:55:02Z</time>
      </trkpt>
      <trkpt lat="45.16788" lon="5.96841">
        <ele>2516.1</ele>
        <time>2021-02-20T12:55:03Z</time>
      </trkpt>
      <trkpt lat="45.16788" lon="5.96841">
        <ele>2516.1</ele>
        <time>2021-02-20T12:55:04Z</time>
      </trkpt>
      <trkpt lat="45.16788" lon="5.96841">
        <ele>2516.1</ele>
        <time>2021-02-20T12:55:05Z</time>
      </trkpt>
      <trkpt lat="45.16788" lon="5.96841">
        <ele>2516.1</ele>
        <time>2021-02-20T12:55:06Z</time>
      </trkpt>
      <trkpt lat="45.16788" lon="5.96841">
        <ele>2516.1</ele>
        <time>2021-02-20T12:55:07Z</time>
      </trkpt>
      <trkpt lat="45.16788" lon="5.96841">
        <ele>2516.1</ele>
        <time>2021-02-20T12:55:08Z</time>
      </trkpt>
      <trkpt lat="45.16788" lon="5.96841">
        <ele>2516.1</ele>
        <time>2021-02-20T12:55:09Z</time>
      </trkpt>
      <trkpt lat="45.16788" lon="5.96841">
        <ele>2516.1</ele>
        <time>2021-02-20T12:55:10Z</time>
      </trkpt>
      <trkpt lat="45.16788" lon="5.96841">
        <ele>2516.1</ele>
        <time>2021-02-20T12:55:11Z</time>
      </trkpt>
      <trkpt lat="45.16788" lon="5.96841">
        <ele>2516.1</ele>
        <time>2021-02-20T12:55:12Z</time>
      </trkpt>
      <trkpt lat="45.16787" lon="5.96841">
        <ele>2515.8</ele>
        <time>2021-02-20T12:55:13Z</time>
      </trkpt>
      <trkpt lat="45.16787" lon="5.96841">
        <ele>2515.8</ele>
        <time>2021-02-20T12:55:14Z</time>
      </trkpt>
      <trkpt lat="45.16787" lon="5.96841">
        <ele>2515.8</ele>
        <time>2021-02-20T12:55:15Z</time>
      </trkpt>
      <trkpt lat="45.16787" lon="5.96841">
        <ele>2515.8</ele>
        <time>2021-02-20T12:55:16Z</time>
      </trkpt>
      <trkpt lat="45.16787" lon="5.96841">
        <ele>2515.8</ele>
        <time>2021-02-20T12:55:17Z</time>
      </trkpt>
      <trkpt lat="45.16787" lon="5.96841">
        <ele>2515.8</ele>
        <time>2021-02-20T12:55:18Z</time>
      </trkpt>
      <trkpt lat="45.16787" lon="5.96841">
        <ele>2515.8</ele>
        <time>2021-02-20T12:55:19Z</time>
      </trkpt>
      <trkpt lat="45.16787" lon="5.96841">
        <ele>2515.8</ele>
        <time>2021-02-20T12:55:20Z</time>
      </trkpt>
      <trkpt lat="45.16787" lon="5.96841">
        <ele>2515.8</ele>
        <time>2021-02-20T12:55:21Z</time>
      </trkpt>
      <trkpt lat="45.16787" lon="5.96841">
        <ele>2515.8</ele>
        <time>2021-02-20T12:55:22Z</time>
      </trkpt>
      <trkpt lat="45.16787" lon="5.96841">
        <ele>2515.8</ele>
        <time>2021-02-20T12:55:23Z</time>
      </trkpt>
      <trkpt lat="45.16787" lon="5.96841">
        <ele>2515.8</ele>
        <time>2021-02-20T12:55:24Z</time>
      </trkpt>
      <trkpt lat="45.16787" lon="5.96841">
        <ele>2515.8</ele>
        <time>2021-02-20T12:55:25Z</time>
      </trkpt>
      <trkpt lat="45.16787" lon="5.96841">
        <ele>2515.8</ele>
        <time>2021-02-20T12:55:26Z</time>
      </trkpt>
      <trkpt lat="45.16787" lon="5.96841">
        <ele>2515.8</ele>
        <time>2021-02-20T12:55:27Z</time>
      </trkpt>
      <trkpt lat="45.16787" lon="5.96841">
        <ele>2515.8</ele>
        <time>2021-02-20T12:55:28Z</time>
      </trkpt>
      <trkpt lat="45.16787" lon="5.96841">
        <ele>2515.8</ele>
        <time>2021-02-20T12:55:29Z</time>
      </trkpt>
      <trkpt lat="45.16787" lon="5.96841">
        <ele>2515.8</ele>
        <time>2021-02-20T12:55:30Z</time>
      </trkpt>
      <trkpt lat="45.16787" lon="5.96841">
        <ele>2515.8</ele>
        <time>2021-02-20T12:55:31Z</time>
      </trkpt>
      <trkpt lat="45.16787" lon="5.96841">
        <ele>2515.8</ele>
        <time>2021-02-20T12:55:32Z</time>
      </trkpt>
      <trkpt lat="45.16787" lon="5.96841">
        <ele>2515.8</ele>
        <time>2021-02-20T12:55:33Z</time>
      </trkpt>
      <trkpt lat="45.16787" lon="5.96841">
        <ele>2515.8</ele>
        <time>2021-02-20T12:55:34Z</time>
      </trkpt>
      <trkpt lat="45.16787" lon="5.96841">
        <ele>2515.8</ele>
        <time>2021-02-20T12:55:35Z</time>
      </trkpt>
      <trkpt lat="45.16787" lon="5.96841">
        <ele>2515.8</ele>
        <time>2021-02-20T12:55:36Z</time>
      </trkpt>
      <trkpt lat="45.16787" lon="5.96841">
        <ele>2515.8</ele>
        <time>2021-02-20T12:55:37Z</time>
      </trkpt>
      <trkpt lat="45.16787" lon="5.96841">
        <ele>2515.8</ele>
        <time>2021-02-20T12:55:38Z</time>
      </trkpt>
      <trkpt lat="45.16787" lon="5.96841">
        <ele>2515.8</ele>
        <time>2021-02-20T12:55:39Z</time>
      </trkpt>
      <trkpt lat="45.16787" lon="5.96841">
        <ele>2515.8</ele>
        <time>2021-02-20T12:55:40Z</time>
      </trkpt>
      <trkpt lat="45.16787" lon="5.96841">
        <ele>2515.8</ele>
        <time>2021-02-20T12:55:41Z</time>
      </trkpt>
      <trkpt lat="45.16787" lon="5.96841">
        <ele>2515.8</ele>
        <time>2021-02-20T12:55:42Z</time>
      </trkpt>
      <trkpt lat="45.16787" lon="5.96841">
        <ele>2515.8</ele>
        <time>2021-02-20T12:55:43Z</time>
      </trkpt>
      <trkpt lat="45.16787" lon="5.96841">
        <ele>2515.8</ele>
        <time>2021-02-20T12:55:44Z</time>
      </trkpt>
      <trkpt lat="45.16787" lon="5.96841">
        <ele>2515.8</ele>
        <time>2021-02-20T12:55:45Z</time>
      </trkpt>
      <trkpt lat="45.16787" lon="5.96841">
        <ele>2515.8</ele>
        <time>2021-02-20T12:55:46Z</time>
      </trkpt>
      <trkpt lat="45.16787" lon="5.96841">
        <ele>2515.8</ele>
        <time>2021-02-20T12:55:47Z</time>
      </trkpt>
      <trkpt lat="45.16786" lon="5.96841">
        <ele>2515.8</ele>
        <time>2021-02-20T12:55:48Z</time>
      </trkpt>
      <trkpt lat="45.16786" lon="5.96841">
        <ele>2515.8</ele>
        <time>2021-02-20T12:55:49Z</time>
      </trkpt>
      <trkpt lat="45.16786" lon="5.96841">
        <ele>2515.8</ele>
        <time>2021-02-20T12:55:50Z</time>
      </trkpt>
      <trkpt lat="45.16786" lon="5.96841">
        <ele>2515.8</ele>
        <time>2021-02-20T12:55:51Z</time>
      </trkpt>
      <trkpt lat="45.16786" lon="5.96841">
        <ele>2515.8</ele>
        <time>2021-02-20T12:55:52Z</time>
      </trkpt>
      <trkpt lat="45.16786" lon="5.96841">
        <ele>2515.8</ele>
        <time>2021-02-20T12:55:53Z</time>
      </trkpt>
      <trkpt lat="45.16786" lon="5.96841">
        <ele>2515.8</ele>
        <time>2021-02-20T12:55:54Z</time>
      </trkpt>
      <trkpt lat="45.16786" lon="5.96841">
        <ele>2515.8</ele>
        <time>2021-02-20T12:55:55Z</time>
      </trkpt>
      <trkpt lat="45.16786" lon="5.96841">
        <ele>2515.8</ele>
        <time>2021-02-20T12:55:56Z</time>
      </trkpt>
      <trkpt lat="45.16786" lon="5.96841">
        <ele>2515.8</ele>
        <time>2021-02-20T12:55:57Z</time>
      </trkpt>
      <trkpt lat="45.16786" lon="5.96841">
        <ele>2515.8</ele>
        <time>2021-02-20T12:55:58Z</time>
      </trkpt>
      <trkpt lat="45.16786" lon="5.96841">
        <ele>2515.8</ele>
        <time>2021-02-20T12:55:59Z</time>
      </trkpt>
      <trkpt lat="45.16786" lon="5.96841">
        <ele>2515.8</ele>
        <time>2021-02-20T12:56:00Z</time>
      </trkpt>
      <trkpt lat="45.16786" lon="5.96842">
        <ele>2515.8</ele>
        <time>2021-02-20T12:56:01Z</time>
      </trkpt>
      <trkpt lat="45.16786" lon="5.96842">
        <ele>2515.8</ele>
        <time>2021-02-20T12:56:02Z</time>
      </trkpt>
      <trkpt lat="45.16786" lon="5.96842">
        <ele>2515.8</ele>
        <time>2021-02-20T12:56:03Z</time>
      </trkpt>
      <trkpt lat="45.16786" lon="5.96842">
        <ele>2515.8</ele>
        <time>2021-02-20T12:56:04Z</time>
      </trkpt>
      <trkpt lat="45.16786" lon="5.96842">
        <ele>2515.8</ele>
        <time>2021-02-20T12:56:05Z</time>
      </trkpt>
      <trkpt lat="45.16786" lon="5.96842">
        <ele>2515.8</ele>
        <time>2021-02-20T12:56:06Z</time>
      </trkpt>
      <trkpt lat="45.16786" lon="5.96842">
        <ele>2515.8</ele>
        <time>2021-02-20T12:56:07Z</time>
      </trkpt>
      <trkpt lat="45.16786" lon="5.96842">
        <ele>2515.8</ele>
        <time>2021-02-20T12:56:08Z</time>
      </trkpt>
      <trkpt lat="45.16786" lon="5.96842">
        <ele>2515.8</ele>
        <time>2021-02-20T12:56:09Z</time>
      </trkpt>
      <trkpt lat="45.16786" lon="5.96842">
        <ele>2515.8</ele>
        <time>2021-02-20T12:56:10Z</time>
      </trkpt>
      <trkpt lat="45.16786" lon="5.96842">
        <ele>2515.8</ele>
        <time>2021-02-20T12:56:11Z</time>
      </trkpt>
      <trkpt lat="45.16786" lon="5.96842">
        <ele>2515.8</ele>
        <time>2021-02-20T12:56:12Z</time>
      </trkpt>
      <trkpt lat="45.16786" lon="5.96842">
        <ele>2515.8</ele>
        <time>2021-02-20T12:56:13Z</time>
      </trkpt>
      <trkpt lat="45.16786" lon="5.96842">
        <ele>2515.8</ele>
        <time>2021-02-20T12:56:14Z</time>
      </trkpt>
      <trkpt lat="45.16786" lon="5.96842">
        <ele>2515.8</ele>
        <time>2021-02-20T12:56:15Z</time>
      </trkpt>
      <trkpt lat="45.16786" lon="5.96842">
        <ele>2515.8</ele>
        <time>2021-02-20T12:56:16Z</time>
      </trkpt>
      <trkpt lat="45.16786" lon="5.96842">
        <ele>2515.8</ele>
        <time>2021-02-20T12:56:17Z</time>
      </trkpt>
      <trkpt lat="45.16786" lon="5.96842">
        <ele>2515.8</ele>
        <time>2021-02-20T12:56:18Z</time>
      </trkpt>
      <trkpt lat="45.16786" lon="5.96842">
        <ele>2515.8</ele>
        <time>2021-02-20T12:56:19Z</time>
      </trkpt>
      <trkpt lat="45.16786" lon="5.96842">
        <ele>2515.8</ele>
        <time>2021-02-20T12:56:20Z</time>
      </trkpt>
      <trkpt lat="45.16786" lon="5.96842">
        <ele>2515.8</ele>
        <time>2021-02-20T12:56:21Z</time>
      </trkpt>
      <trkpt lat="45.16786" lon="5.96842">
        <ele>2515.8</ele>
        <time>2021-02-20T12:56:22Z</time>
      </trkpt>
      <trkpt lat="45.16786" lon="5.96842">
        <ele>2515.8</ele>
        <time>2021-02-20T12:56:23Z</time>
      </trkpt>
      <trkpt lat="45.16786" lon="5.96842">
        <ele>2515.8</ele>
        <time>2021-02-20T12:56:24Z</time>
      </trkpt>
      <trkpt lat="45.16786" lon="5.96842">
        <ele>2515.8</ele>
        <time>2021-02-20T12:56:25Z</time>
      </trkpt>
      <trkpt lat="45.16786" lon="5.96842">
        <ele>2515.8</ele>
        <time>2021-02-20T12:56:26Z</time>
      </trkpt>
      <trkpt lat="45.16786" lon="5.96842">
        <ele>2515.8</ele>
        <time>2021-02-20T12:56:27Z</time>
      </trkpt>
      <trkpt lat="45.16786" lon="5.96842">
        <ele>2515.8</ele>
        <time>2021-02-20T12:56:28Z</time>
      </trkpt>
      <trkpt lat="45.16786" lon="5.96842">
        <ele>2515.8</ele>
        <time>2021-02-20T12:56:29Z</time>
      </trkpt>
      <trkpt lat="45.16786" lon="5.96842">
        <ele>2515.8</ele>
        <time>2021-02-20T12:56:30Z</time>
      </trkpt>
      <trkpt lat="45.16786" lon="5.96842">
        <ele>2515.8</ele>
        <time>2021-02-20T12:56:31Z</time>
      </trkpt>
      <trkpt lat="45.16786" lon="5.96842">
        <ele>2515.8</ele>
        <time>2021-02-20T12:56:32Z</time>
      </trkpt>
      <trkpt lat="45.16786" lon="5.96842">
        <ele>2515.8</ele>
        <time>2021-02-20T12:56:33Z</time>
      </trkpt>
      <trkpt lat="45.16786" lon="5.96842">
        <ele>2515.8</ele>
        <time>2021-02-20T12:56:34Z</time>
      </trkpt>
      <trkpt lat="45.16786" lon="5.96842">
        <ele>2515.8</ele>
        <time>2021-02-20T12:56:35Z</time>
      </trkpt>
      <trkpt lat="45.16786" lon="5.96842">
        <ele>2515.8</ele>
        <time>2021-02-20T12:56:36Z</time>
      </trkpt>
      <trkpt lat="45.16786" lon="5.96842">
        <ele>2515.8</ele>
        <time>2021-02-20T12:56:37Z</time>
      </trkpt>
      <trkpt lat="45.16786" lon="5.96842">
        <ele>2515.8</ele>
        <time>2021-02-20T12:56:38Z</time>
      </trkpt>
      <trkpt lat="45.16786" lon="5.96842">
        <ele>2515.8</ele>
        <time>2021-02-20T12:56:39Z</time>
      </trkpt>
      <trkpt lat="45.16786" lon="5.96842">
        <ele>2515.8</ele>
        <time>2021-02-20T12:56:40Z</time>
      </trkpt>
      <trkpt lat="45.16786" lon="5.96842">
        <ele>2515.8</ele>
        <time>2021-02-20T12:56:41Z</time>
      </trkpt>
      <trkpt lat="45.16786" lon="5.96842">
        <ele>2515.8</ele>
        <time>2021-02-20T12:56:42Z</time>
      </trkpt>
      <trkpt lat="45.16786" lon="5.96842">
        <ele>2515.8</ele>
        <time>2021-02-20T12:56:43Z</time>
      </trkpt>
      <trkpt lat="45.16786" lon="5.96842">
        <ele>2515.8</ele>
        <time>2021-02-20T12:56:44Z</time>
      </trkpt>
      <trkpt lat="45.16786" lon="5.96842">
        <ele>2515.8</ele>
        <time>2021-02-20T12:56:45Z</time>
      </trkpt>
      <trkpt lat="45.16786" lon="5.96842">
        <ele>2515.8</ele>
        <time>2021-02-20T12:56:46Z</time>
      </trkpt>
      <trkpt lat="45.16786" lon="5.96842">
        <ele>2515.8</ele>
        <time>2021-02-20T12:56:47Z</time>
      </trkpt>
      <trkpt lat="45.16786" lon="5.96842">
        <ele>2515.8</ele>
        <time>2021-02-20T12:56:48Z</time>
      </trkpt>
      <trkpt lat="45.16786" lon="5.96842">
        <ele>2515.8</ele>
        <time>2021-02-20T12:56:49Z</time>
      </trkpt>
      <trkpt lat="45.16786" lon="5.96842">
        <ele>2515.8</ele>
        <time>2021-02-20T12:56:50Z</time>
      </trkpt>
      <trkpt lat="45.16786" lon="5.96842">
        <ele>2515.8</ele>
        <time>2021-02-20T12:56:51Z</time>
      </trkpt>
      <trkpt lat="45.16786" lon="5.96842">
        <ele>2515.8</ele>
        <time>2021-02-20T12:56:52Z</time>
      </trkpt>
      <trkpt lat="45.16786" lon="5.96842">
        <ele>2515.8</ele>
        <time>2021-02-20T12:56:53Z</time>
      </trkpt>
      <trkpt lat="45.16785" lon="5.96842">
        <ele>2515.8</ele>
        <time>2021-02-20T12:56:54Z</time>
      </trkpt>
      <trkpt lat="45.16785" lon="5.96842">
        <ele>2515.5</ele>
        <time>2021-02-20T12:56:55Z</time>
      </trkpt>
      <trkpt lat="45.16785" lon="5.96843">
        <ele>2515.5</ele>
        <time>2021-02-20T12:56:56Z</time>
      </trkpt>
      <trkpt lat="45.16785" lon="5.96843">
        <ele>2515.5</ele>
        <time>2021-02-20T12:56:57Z</time>
      </trkpt>
      <trkpt lat="45.16785" lon="5.96843">
        <ele>2515.5</ele>
        <time>2021-02-20T12:56:58Z</time>
      </trkpt>
      <trkpt lat="45.16785" lon="5.96843">
        <ele>2515.5</ele>
        <time>2021-02-20T12:56:59Z</time>
      </trkpt>
      <trkpt lat="45.16785" lon="5.96842">
        <ele>2515.5</ele>
        <time>2021-02-20T12:57:00Z</time>
      </trkpt>
      <trkpt lat="45.16785" lon="5.96842">
        <ele>2515.5</ele>
        <time>2021-02-20T12:57:01Z</time>
      </trkpt>
      <trkpt lat="45.16785" lon="5.96842">
        <ele>2515.5</ele>
        <time>2021-02-20T12:57:02Z</time>
      </trkpt>
      <trkpt lat="45.16785" lon="5.96842">
        <ele>2515.5</ele>
        <time>2021-02-20T12:57:03Z</time>
      </trkpt>
      <trkpt lat="45.16785" lon="5.96842">
        <ele>2515.5</ele>
        <time>2021-02-20T12:57:04Z</time>
      </trkpt>
      <trkpt lat="45.16785" lon="5.96842">
        <ele>2515.5</ele>
        <time>2021-02-20T12:57:05Z</time>
      </trkpt>
      <trkpt lat="45.16785" lon="5.96842">
        <ele>2515.5</ele>
        <time>2021-02-20T12:57:06Z</time>
      </trkpt>
      <trkpt lat="45.16785" lon="5.96842">
        <ele>2515.5</ele>
        <time>2021-02-20T12:57:07Z</time>
      </trkpt>
      <trkpt lat="45.16785" lon="5.96842">
        <ele>2515.5</ele>
        <time>2021-02-20T12:57:08Z</time>
      </trkpt>
      <trkpt lat="45.16785" lon="5.96842">
        <ele>2515.5</ele>
        <time>2021-02-20T12:57:09Z</time>
      </trkpt>
      <trkpt lat="45.16785" lon="5.96842">
        <ele>2515.5</ele>
        <time>2021-02-20T12:57:10Z</time>
      </trkpt>
      <trkpt lat="45.16785" lon="5.96842">
        <ele>2515.5</ele>
        <time>2021-02-20T12:57:11Z</time>
      </trkpt>
      <trkpt lat="45.16785" lon="5.96842">
        <ele>2515.5</ele>
        <time>2021-02-20T12:57:12Z</time>
      </trkpt>
      <trkpt lat="45.16785" lon="5.96842">
        <ele>2515.5</ele>
        <time>2021-02-20T12:57:13Z</time>
      </trkpt>
      <trkpt lat="45.16785" lon="5.96842">
        <ele>2515.5</ele>
        <time>2021-02-20T12:57:14Z</time>
      </trkpt>
      <trkpt lat="45.16785" lon="5.96842">
        <ele>2515.5</ele>
        <time>2021-02-20T12:57:15Z</time>
      </trkpt>
      <trkpt lat="45.16785" lon="5.96842">
        <ele>2515.5</ele>
        <time>2021-02-20T12:57:16Z</time>
      </trkpt>
      <trkpt lat="45.16785" lon="5.96842">
        <ele>2515.5</ele>
        <time>2021-02-20T12:57:17Z</time>
      </trkpt>
      <trkpt lat="45.16785" lon="5.96842">
        <ele>2515.5</ele>
        <time>2021-02-20T12:57:18Z</time>
      </trkpt>
      <trkpt lat="45.16785" lon="5.96842">
        <ele>2515.5</ele>
        <time>2021-02-20T12:57:19Z</time>
      </trkpt>
      <trkpt lat="45.16785" lon="5.96842">
        <ele>2515.5</ele>
        <time>2021-02-20T12:57:20Z</time>
      </trkpt>
      <trkpt lat="45.16785" lon="5.96842">
        <ele>2515.5</ele>
        <time>2021-02-20T12:57:21Z</time>
      </trkpt>
      <trkpt lat="45.16785" lon="5.96842">
        <ele>2515.5</ele>
        <time>2021-02-20T12:57:22Z</time>
      </trkpt>
      <trkpt lat="45.16785" lon="5.96842">
        <ele>2515.5</ele>
        <time>2021-02-20T12:57:23Z</time>
      </trkpt>
      <trkpt lat="45.16785" lon="5.96842">
        <ele>2515.5</ele>
        <time>2021-02-20T12:57:24Z</time>
      </trkpt>
      <trkpt lat="45.16785" lon="5.96842">
        <ele>2515.5</ele>
        <time>2021-02-20T12:57:25Z</time>
      </trkpt>
      <trkpt lat="45.16785" lon="5.96842">
        <ele>2515.5</ele>
        <time>2021-02-20T12:57:26Z</time>
      </trkpt>
      <trkpt lat="45.16785" lon="5.96842">
        <ele>2515.5</ele>
        <time>2021-02-20T12:57:27Z</time>
      </trkpt>
      <trkpt lat="45.16785" lon="5.96842">
        <ele>2515.5</ele>
        <time>2021-02-20T12:57:28Z</time>
      </trkpt>
      <trkpt lat="45.16785" lon="5.96842">
        <ele>2515.5</ele>
        <time>2021-02-20T12:57:29Z</time>
      </trkpt>
      <trkpt lat="45.16785" lon="5.96842">
        <ele>2515.5</ele>
        <time>2021-02-20T12:57:30Z</time>
      </trkpt>
      <trkpt lat="45.16785" lon="5.96842">
        <ele>2515.5</ele>
        <time>2021-02-20T12:57:31Z</time>
      </trkpt>
      <trkpt lat="45.16785" lon="5.96842">
        <ele>2515.5</ele>
        <time>2021-02-20T12:57:32Z</time>
      </trkpt>
      <trkpt lat="45.16785" lon="5.96842">
        <ele>2515.5</ele>
        <time>2021-02-20T12:57:33Z</time>
      </trkpt>
      <trkpt lat="45.16785" lon="5.96842">
        <ele>2515.5</ele>
        <time>2021-02-20T12:57:34Z</time>
      </trkpt>
      <trkpt lat="45.16785" lon="5.96842">
        <ele>2515.5</ele>
        <time>2021-02-20T12:57:35Z</time>
      </trkpt>
      <trkpt lat="45.16785" lon="5.96842">
        <ele>2515.5</ele>
        <time>2021-02-20T12:57:36Z</time>
      </trkpt>
      <trkpt lat="45.16785" lon="5.96842">
        <ele>2515.5</ele>
        <time>2021-02-20T12:57:37Z</time>
      </trkpt>
      <trkpt lat="45.16785" lon="5.96842">
        <ele>2515.5</ele>
        <time>2021-02-20T12:57:38Z</time>
      </trkpt>
      <trkpt lat="45.16785" lon="5.96842">
        <ele>2515.5</ele>
        <time>2021-02-20T12:57:39Z</time>
      </trkpt>
      <trkpt lat="45.16785" lon="5.96842">
        <ele>2515.5</ele>
        <time>2021-02-20T12:57:40Z</time>
      </trkpt>
      <trkpt lat="45.16785" lon="5.96842">
        <ele>2515.5</ele>
        <time>2021-02-20T12:57:41Z</time>
      </trkpt>
      <trkpt lat="45.16785" lon="5.96842">
        <ele>2515.5</ele>
        <time>2021-02-20T12:57:42Z</time>
      </trkpt>
      <trkpt lat="45.16785" lon="5.96842">
        <ele>2515.5</ele>
        <time>2021-02-20T12:57:43Z</time>
      </trkpt>
      <trkpt lat="45.16785" lon="5.96842">
        <ele>2515.5</ele>
        <time>2021-02-20T12:57:44Z</time>
      </trkpt>
      <trkpt lat="45.16785" lon="5.96842">
        <ele>2515.5</ele>
        <time>2021-02-20T12:57:45Z</time>
      </trkpt>
      <trkpt lat="45.16785" lon="5.96842">
        <ele>2515.5</ele>
        <time>2021-02-20T12:57:46Z</time>
      </trkpt>
      <trkpt lat="45.16785" lon="5.96842">
        <ele>2515.5</ele>
        <time>2021-02-20T12:57:47Z</time>
      </trkpt>
      <trkpt lat="45.16785" lon="5.96842">
        <ele>2515.5</ele>
        <time>2021-02-20T12:57:48Z</time>
      </trkpt>
      <trkpt lat="45.16785" lon="5.96842">
        <ele>2515.5</ele>
        <time>2021-02-20T12:57:49Z</time>
      </trkpt>
      <trkpt lat="45.16785" lon="5.96842">
        <ele>2515.5</ele>
        <time>2021-02-20T12:57:50Z</time>
      </trkpt>
      <trkpt lat="45.16785" lon="5.96842">
        <ele>2515.5</ele>
        <time>2021-02-20T12:57:51Z</time>
      </trkpt>
      <trkpt lat="45.16785" lon="5.96842">
        <ele>2515.5</ele>
        <time>2021-02-20T12:57:52Z</time>
      </trkpt>
      <trkpt lat="45.16785" lon="5.96842">
        <ele>2515.5</ele>
        <time>2021-02-20T12:57:53Z</time>
      </trkpt>
      <trkpt lat="45.16785" lon="5.96842">
        <ele>2515.5</ele>
        <time>2021-02-20T12:57:54Z</time>
      </trkpt>
      <trkpt lat="45.16785" lon="5.96842">
        <ele>2515.5</ele>
        <time>2021-02-20T12:57:55Z</time>
      </trkpt>
      <trkpt lat="45.16785" lon="5.96842">
        <ele>2515.5</ele>
        <time>2021-02-20T12:57:56Z</time>
      </trkpt>
      <trkpt lat="45.16785" lon="5.96842">
        <ele>2515.5</ele>
        <time>2021-02-20T12:57:57Z</time>
      </trkpt>
      <trkpt lat="45.16785" lon="5.96842">
        <ele>2515.5</ele>
        <time>2021-02-20T12:57:58Z</time>
      </trkpt>
      <trkpt lat="45.16785" lon="5.96842">
        <ele>2515.5</ele>
        <time>2021-02-20T12:57:59Z</time>
      </trkpt>
      <trkpt lat="45.16785" lon="5.96842">
        <ele>2515.5</ele>
        <time>2021-02-20T12:58:00Z</time>
      </trkpt>
      <trkpt lat="45.16785" lon="5.96842">
        <ele>2515.5</ele>
        <time>2021-02-20T12:58:01Z</time>
      </trkpt>
      <trkpt lat="45.16785" lon="5.96842">
        <ele>2515.5</ele>
        <time>2021-02-20T12:58:02Z</time>
      </trkpt>
      <trkpt lat="45.16785" lon="5.96842">
        <ele>2515.5</ele>
        <time>2021-02-20T12:58:03Z</time>
      </trkpt>
      <trkpt lat="45.16785" lon="5.96842">
        <ele>2515.5</ele>
        <time>2021-02-20T12:58:04Z</time>
      </trkpt>
      <trkpt lat="45.16785" lon="5.96842">
        <ele>2515.5</ele>
        <time>2021-02-20T12:58:05Z</time>
      </trkpt>
      <trkpt lat="45.16785" lon="5.96842">
        <ele>2515.5</ele>
        <time>2021-02-20T12:58:06Z</time>
      </trkpt>
      <trkpt lat="45.16785" lon="5.96842">
        <ele>2515.5</ele>
        <time>2021-02-20T12:58:07Z</time>
      </trkpt>
      <trkpt lat="45.16785" lon="5.96842">
        <ele>2515.5</ele>
        <time>2021-02-20T12:58:08Z</time>
      </trkpt>
      <trkpt lat="45.16785" lon="5.96842">
        <ele>2515.5</ele>
        <time>2021-02-20T12:58:09Z</time>
      </trkpt>
      <trkpt lat="45.16785" lon="5.96842">
        <ele>2515.5</ele>
        <time>2021-02-20T12:58:10Z</time>
      </trkpt>
      <trkpt lat="45.16784" lon="5.96842">
        <ele>2515.5</ele>
        <time>2021-02-20T12:58:11Z</time>
      </trkpt>
      <trkpt lat="45.16784" lon="5.96842">
        <ele>2515.5</ele>
        <time>2021-02-20T12:58:12Z</time>
      </trkpt>
      <trkpt lat="45.16784" lon="5.96842">
        <ele>2515.5</ele>
        <time>2021-02-20T12:58:13Z</time>
      </trkpt>
      <trkpt lat="45.16784" lon="5.96842">
        <ele>2515.5</ele>
        <time>2021-02-20T12:58:14Z</time>
      </trkpt>
      <trkpt lat="45.16784" lon="5.96843">
        <ele>2515.5</ele>
        <time>2021-02-20T12:58:15Z</time>
      </trkpt>
      <trkpt lat="45.16785" lon="5.96844">
        <ele>2515.5</ele>
        <time>2021-02-20T12:58:16Z</time>
      </trkpt>
      <trkpt lat="45.16785" lon="5.96844">
        <ele>2515.5</ele>
        <time>2021-02-20T12:58:17Z</time>
      </trkpt>
      <trkpt lat="45.16785" lon="5.96844">
        <ele>2515.5</ele>
        <time>2021-02-20T12:58:18Z</time>
      </trkpt>
      <trkpt lat="45.16785" lon="5.96844">
        <ele>2515.5</ele>
        <time>2021-02-20T12:58:19Z</time>
      </trkpt>
      <trkpt lat="45.16785" lon="5.96844">
        <ele>2515.5</ele>
        <time>2021-02-20T12:58:20Z</time>
      </trkpt>
      <trkpt lat="45.16785" lon="5.96844">
        <ele>2515.5</ele>
        <time>2021-02-20T12:58:21Z</time>
      </trkpt>
      <trkpt lat="45.16785" lon="5.96844">
        <ele>2515.5</ele>
        <time>2021-02-20T12:58:22Z</time>
      </trkpt>
      <trkpt lat="45.16785" lon="5.96844">
        <ele>2515.5</ele>
        <time>2021-02-20T12:58:23Z</time>
      </trkpt>
      <trkpt lat="45.16785" lon="5.96844">
        <ele>2515.5</ele>
        <time>2021-02-20T12:58:24Z</time>
      </trkpt>
      <trkpt lat="45.16785" lon="5.96844">
        <ele>2515.5</ele>
        <time>2021-02-20T12:58:25Z</time>
      </trkpt>
      <trkpt lat="45.16785" lon="5.96844">
        <ele>2515.5</ele>
        <time>2021-02-20T12:58:26Z</time>
      </trkpt>
      <trkpt lat="45.16785" lon="5.96844">
        <ele>2515.5</ele>
        <time>2021-02-20T12:58:27Z</time>
      </trkpt>
      <trkpt lat="45.16785" lon="5.96844">
        <ele>2515.5</ele>
        <time>2021-02-20T12:58:28Z</time>
      </trkpt>
      <trkpt lat="45.16785" lon="5.96844">
        <ele>2515.5</ele>
        <time>2021-02-20T12:58:29Z</time>
      </trkpt>
      <trkpt lat="45.16785" lon="5.96844">
        <ele>2515.5</ele>
        <time>2021-02-20T12:58:30Z</time>
      </trkpt>
      <trkpt lat="45.16785" lon="5.96844">
        <ele>2515.5</ele>
        <time>2021-02-20T12:58:31Z</time>
      </trkpt>
      <trkpt lat="45.16786" lon="5.96844">
        <ele>2515.8</ele>
        <time>2021-02-20T12:58:32Z</time>
      </trkpt>
      <trkpt lat="45.16786" lon="5.96844">
        <ele>2515.8</ele>
        <time>2021-02-20T12:58:33Z</time>
      </trkpt>
      <trkpt lat="45.16786" lon="5.96844">
        <ele>2515.8</ele>
        <time>2021-02-20T12:58:34Z</time>
      </trkpt>
      <trkpt lat="45.16786" lon="5.96844">
        <ele>2515.8</ele>
        <time>2021-02-20T12:58:35Z</time>
      </trkpt>
      <trkpt lat="45.16786" lon="5.96843">
        <ele>2515.8</ele>
        <time>2021-02-20T12:58:36Z</time>
      </trkpt>
      <trkpt lat="45.16786" lon="5.96843">
        <ele>2515.8</ele>
        <time>2021-02-20T12:58:37Z</time>
      </trkpt>
      <trkpt lat="45.16786" lon="5.96843">
        <ele>2515.8</ele>
        <time>2021-02-20T12:58:38Z</time>
      </trkpt>
      <trkpt lat="45.16786" lon="5.96843">
        <ele>2515.8</ele>
        <time>2021-02-20T12:58:39Z</time>
      </trkpt>
      <trkpt lat="45.16786" lon="5.96843">
        <ele>2515.8</ele>
        <time>2021-02-20T12:58:40Z</time>
      </trkpt>
      <trkpt lat="45.16786" lon="5.96843">
        <ele>2515.8</ele>
        <time>2021-02-20T12:58:41Z</time>
      </trkpt>
      <trkpt lat="45.16786" lon="5.96843">
        <ele>2515.8</ele>
        <time>2021-02-20T12:58:42Z</time>
      </trkpt>
      <trkpt lat="45.16786" lon="5.96843">
        <ele>2515.8</ele>
        <time>2021-02-20T12:58:43Z</time>
      </trkpt>
      <trkpt lat="45.16786" lon="5.96843">
        <ele>2515.8</ele>
        <time>2021-02-20T12:58:44Z</time>
      </trkpt>
      <trkpt lat="45.16786" lon="5.96843">
        <ele>2515.8</ele>
        <time>2021-02-20T12:58:45Z</time>
      </trkpt>
      <trkpt lat="45.16786" lon="5.96843">
        <ele>2515.8</ele>
        <time>2021-02-20T12:58:46Z</time>
      </trkpt>
      <trkpt lat="45.16786" lon="5.96843">
        <ele>2515.8</ele>
        <time>2021-02-20T12:58:47Z</time>
      </trkpt>
      <trkpt lat="45.16786" lon="5.96843">
        <ele>2515.8</ele>
        <time>2021-02-20T12:58:48Z</time>
      </trkpt>
      <trkpt lat="45.16786" lon="5.96843">
        <ele>2515.8</ele>
        <time>2021-02-20T12:58:49Z</time>
      </trkpt>
      <trkpt lat="45.16786" lon="5.96843">
        <ele>2515.8</ele>
        <time>2021-02-20T12:58:50Z</time>
      </trkpt>
      <trkpt lat="45.16786" lon="5.96843">
        <ele>2515.8</ele>
        <time>2021-02-20T12:58:51Z</time>
      </trkpt>
      <trkpt lat="45.16786" lon="5.96843">
        <ele>2515.8</ele>
        <time>2021-02-20T12:58:52Z</time>
      </trkpt>
      <trkpt lat="45.16786" lon="5.96843">
        <ele>2515.8</ele>
        <time>2021-02-20T12:58:53Z</time>
      </trkpt>
      <trkpt lat="45.16786" lon="5.96843">
        <ele>2515.8</ele>
        <time>2021-02-20T12:58:54Z</time>
      </trkpt>
      <trkpt lat="45.16786" lon="5.96843">
        <ele>2515.8</ele>
        <time>2021-02-20T12:58:55Z</time>
      </trkpt>
      <trkpt lat="45.16786" lon="5.96843">
        <ele>2515.8</ele>
        <time>2021-02-20T12:58:56Z</time>
      </trkpt>
      <trkpt lat="45.16786" lon="5.96843">
        <ele>2515.8</ele>
        <time>2021-02-20T12:58:57Z</time>
      </trkpt>
      <trkpt lat="45.16786" lon="5.96843">
        <ele>2515.8</ele>
        <time>2021-02-20T12:58:58Z</time>
      </trkpt>
      <trkpt lat="45.16786" lon="5.96843">
        <ele>2515.8</ele>
        <time>2021-02-20T12:58:59Z</time>
      </trkpt>
      <trkpt lat="45.16786" lon="5.96843">
        <ele>2515.8</ele>
        <time>2021-02-20T12:59:00Z</time>
      </trkpt>
      <trkpt lat="45.16786" lon="5.96843">
        <ele>2515.8</ele>
        <time>2021-02-20T12:59:01Z</time>
      </trkpt>
      <trkpt lat="45.16786" lon="5.96843">
        <ele>2515.8</ele>
        <time>2021-02-20T12:59:02Z</time>
      </trkpt>
      <trkpt lat="45.16786" lon="5.96843">
        <ele>2515.8</ele>
        <time>2021-02-20T12:59:03Z</time>
      </trkpt>
      <trkpt lat="45.16786" lon="5.96844">
        <ele>2515.8</ele>
        <time>2021-02-20T12:59:04Z</time>
      </trkpt>
      <trkpt lat="45.16786" lon="5.96844">
        <ele>2515.8</ele>
        <time>2021-02-20T12:59:05Z</time>
      </trkpt>
      <trkpt lat="45.16786" lon="5.96844">
        <ele>2515.8</ele>
        <time>2021-02-20T12:59:06Z</time>
      </trkpt>
      <trkpt lat="45.16786" lon="5.96844">
        <ele>2515.8</ele>
        <time>2021-02-20T12:59:07Z</time>
      </trkpt>
      <trkpt lat="45.16786" lon="5.96844">
        <ele>2515.8</ele>
        <time>2021-02-20T12:59:08Z</time>
      </trkpt>
      <trkpt lat="45.16786" lon="5.96844">
        <ele>2515.8</ele>
        <time>2021-02-20T12:59:09Z</time>
      </trkpt>
      <trkpt lat="45.16786" lon="5.96844">
        <ele>2515.8</ele>
        <time>2021-02-20T12:59:10Z</time>
      </trkpt>
      <trkpt lat="45.16786" lon="5.96844">
        <ele>2515.8</ele>
        <time>2021-02-20T12:59:11Z</time>
      </trkpt>
      <trkpt lat="45.16786" lon="5.96844">
        <ele>2515.8</ele>
        <time>2021-02-20T12:59:12Z</time>
      </trkpt>
      <trkpt lat="45.16787" lon="5.96844">
        <ele>2515.8</ele>
        <time>2021-02-20T12:59:13Z</time>
      </trkpt>
      <trkpt lat="45.16787" lon="5.96845">
        <ele>2515.8</ele>
        <time>2021-02-20T12:59:14Z</time>
      </trkpt>
      <trkpt lat="45.16787" lon="5.96846">
        <ele>2516.4</ele>
        <time>2021-02-20T12:59:15Z</time>
      </trkpt>
      <trkpt lat="45.16787" lon="5.96846">
        <ele>2516.4</ele>
        <time>2021-02-20T12:59:16Z</time>
      </trkpt>
      <trkpt lat="45.16787" lon="5.96847">
        <ele>2516.4</ele>
        <time>2021-02-20T12:59:17Z</time>
      </trkpt>
      <trkpt lat="45.16787" lon="5.96847">
        <ele>2516.4</ele>
        <time>2021-02-20T12:59:18Z</time>
      </trkpt>
      <trkpt lat="45.16787" lon="5.96847">
        <ele>2516.4</ele>
        <time>2021-02-20T12:59:19Z</time>
      </trkpt>
      <trkpt lat="45.16787" lon="5.96848">
        <ele>2516.4</ele>
        <time>2021-02-20T12:59:20Z</time>
      </trkpt>
      <trkpt lat="45.16787" lon="5.96849">
        <ele>2516.4</ele>
        <time>2021-02-20T12:59:21Z</time>
      </trkpt>
      <trkpt lat="45.16786" lon="5.9685">
        <ele>2517</ele>
        <time>2021-02-20T12:59:22Z</time>
      </trkpt>
      <trkpt lat="45.16786" lon="5.96852">
        <ele>2517</ele>
        <time>2021-02-20T12:59:23Z</time>
      </trkpt>
      <trkpt lat="45.16786" lon="5.96853">
        <ele>2517</ele>
        <time>2021-02-20T12:59:24Z</time>
      </trkpt>
      <trkpt lat="45.16786" lon="5.96854">
        <ele>2517.7</ele>
        <time>2021-02-20T12:59:25Z</time>
      </trkpt>
      <trkpt lat="45.16786" lon="5.96855">
        <ele>2517.7</ele>
        <time>2021-02-20T12:59:26Z</time>
      </trkpt>
      <trkpt lat="45.16786" lon="5.96856">
        <ele>2517.7</ele>
        <time>2021-02-20T12:59:27Z</time>
      </trkpt>
      <trkpt lat="45.16786" lon="5.96857">
        <ele>2517.7</ele>
        <time>2021-02-20T12:59:28Z</time>
      </trkpt>
      <trkpt lat="45.16786" lon="5.96858">
        <ele>2518.5</ele>
        <time>2021-02-20T12:59:29Z</time>
      </trkpt>
      <trkpt lat="45.16785" lon="5.9686">
        <ele>2518.5</ele>
        <time>2021-02-20T12:59:30Z</time>
      </trkpt>
      <trkpt lat="45.16785" lon="5.96861">
        <ele>2518.5</ele>
        <time>2021-02-20T12:59:31Z</time>
      </trkpt>
      <trkpt lat="45.16785" lon="5.96862">
        <ele>2518.5</ele>
        <time>2021-02-20T12:59:32Z</time>
      </trkpt>
      <trkpt lat="45.16785" lon="5.96863">
        <ele>2519.1</ele>
        <time>2021-02-20T12:59:33Z</time>
      </trkpt>
      <trkpt lat="45.16785" lon="5.96864">
        <ele>2519.1</ele>
        <time>2021-02-20T12:59:34Z</time>
      </trkpt>
      <trkpt lat="45.16785" lon="5.96865">
        <ele>2519.1</ele>
        <time>2021-02-20T12:59:35Z</time>
      </trkpt>
      <trkpt lat="45.16785" lon="5.96865">
        <ele>2519.1</ele>
        <time>2021-02-20T12:59:36Z</time>
      </trkpt>
      <trkpt lat="45.16785" lon="5.96865">
        <ele>2519.1</ele>
        <time>2021-02-20T12:59:37Z</time>
      </trkpt>
      <trkpt lat="45.16785" lon="5.96865">
        <ele>2519.1</ele>
        <time>2021-02-20T12:59:38Z</time>
      </trkpt>
      <trkpt lat="45.16785" lon="5.96865">
        <ele>2519.1</ele>
        <time>2021-02-20T12:59:39Z</time>
      </trkpt>
      <trkpt lat="45.16785" lon="5.96865">
        <ele>2519.1</ele>
        <time>2021-02-20T12:59:40Z</time>
      </trkpt>
      <trkpt lat="45.16785" lon="5.96865">
        <ele>2519.1</ele>
        <time>2021-02-20T12:59:41Z</time>
      </trkpt>
      <trkpt lat="45.16785" lon="5.96865">
        <ele>2519.1</ele>
        <time>2021-02-20T12:59:42Z</time>
      </trkpt>
      <trkpt lat="45.16785" lon="5.96865">
        <ele>2519.1</ele>
        <time>2021-02-20T12:59:43Z</time>
      </trkpt>
      <trkpt lat="45.16785" lon="5.96865">
        <ele>2519.1</ele>
        <time>2021-02-20T12:59:44Z</time>
      </trkpt>
      <trkpt lat="45.16785" lon="5.96865">
        <ele>2519.1</ele>
        <time>2021-02-20T12:59:45Z</time>
      </trkpt>
      <trkpt lat="45.16785" lon="5.96865">
        <ele>2519.1</ele>
        <time>2021-02-20T12:59:46Z</time>
      </trkpt>
      <trkpt lat="45.16785" lon="5.96865">
        <ele>2519.1</ele>
        <time>2021-02-20T12:59:47Z</time>
      </trkpt>
      <trkpt lat="45.16785" lon="5.96865">
        <ele>2519.1</ele>
        <time>2021-02-20T12:59:48Z</time>
      </trkpt>
      <trkpt lat="45.16785" lon="5.96865">
        <ele>2519.1</ele>
        <time>2021-02-20T12:59:49Z</time>
      </trkpt>
      <trkpt lat="45.16785" lon="5.96865">
        <ele>2519.1</ele>
        <time>2021-02-20T12:59:50Z</time>
      </trkpt>
      <trkpt lat="45.16785" lon="5.96865">
        <ele>2519.1</ele>
        <time>2021-02-20T12:59:51Z</time>
      </trkpt>
      <trkpt lat="45.16784" lon="5.96865">
        <ele>2519.1</ele>
        <time>2021-02-20T12:59:52Z</time>
      </trkpt>
      <trkpt lat="45.16784" lon="5.96865">
        <ele>2519.1</ele>
        <time>2021-02-20T12:59:53Z</time>
      </trkpt>
      <trkpt lat="45.16784" lon="5.96865">
        <ele>2519.1</ele>
        <time>2021-02-20T12:59:54Z</time>
      </trkpt>
      <trkpt lat="45.16784" lon="5.96865">
        <ele>2519.1</ele>
        <time>2021-02-20T12:59:55Z</time>
      </trkpt>
      <trkpt lat="45.16784" lon="5.96865">
        <ele>2519.1</ele>
        <time>2021-02-20T12:59:56Z</time>
      </trkpt>
      <trkpt lat="45.16784" lon="5.96865">
        <ele>2519.1</ele>
        <time>2021-02-20T12:59:57Z</time>
      </trkpt>
      <trkpt lat="45.16785" lon="5.96866">
        <ele>2519.1</ele>
        <time>2021-02-20T12:59:58Z</time>
      </trkpt>
      <trkpt lat="45.16784" lon="5.96867">
        <ele>2520.1</ele>
        <time>2021-02-20T12:59:59Z</time>
      </trkpt>
      <trkpt lat="45.16784" lon="5.96868">
        <ele>2520.1</ele>
        <time>2021-02-20T13:00:00Z</time>
      </trkpt>
      <trkpt lat="45.16784" lon="5.96869">
        <ele>2520.1</ele>
        <time>2021-02-20T13:00:01Z</time>
      </trkpt>
      <trkpt lat="45.16784" lon="5.96869">
        <ele>2520.1</ele>
        <time>2021-02-20T13:00:02Z</time>
      </trkpt>
      <trkpt lat="45.16784" lon="5.9687">
        <ele>2520.1</ele>
        <time>2021-02-20T13:00:03Z</time>
      </trkpt>
      <trkpt lat="45.16784" lon="5.96871">
        <ele>2520.1</ele>
        <time>2021-02-20T13:00:04Z</time>
      </trkpt>
      <trkpt lat="45.16784" lon="5.96872">
        <ele>2521</ele>
        <time>2021-02-20T13:00:05Z</time>
      </trkpt>
      <trkpt lat="45.16784" lon="5.96872">
        <ele>2521</ele>
        <time>2021-02-20T13:00:06Z</time>
      </trkpt>
      <trkpt lat="45.16784" lon="5.96873">
        <ele>2521</ele>
        <time>2021-02-20T13:00:07Z</time>
      </trkpt>
      <trkpt lat="45.16784" lon="5.96873">
        <ele>2521</ele>
        <time>2021-02-20T13:00:08Z</time>
      </trkpt>
      <trkpt lat="45.16784" lon="5.96873">
        <ele>2521</ele>
        <time>2021-02-20T13:00:09Z</time>
      </trkpt>
      <trkpt lat="45.16784" lon="5.96875">
        <ele>2521</ele>
        <time>2021-02-20T13:00:10Z</time>
      </trkpt>
      <trkpt lat="45.16784" lon="5.96876">
        <ele>2522</ele>
        <time>2021-02-20T13:00:11Z</time>
      </trkpt>
      <trkpt lat="45.16784" lon="5.96877">
        <ele>2522</ele>
        <time>2021-02-20T13:00:12Z</time>
      </trkpt>
      <trkpt lat="45.16784" lon="5.96878">
        <ele>2522</ele>
        <time>2021-02-20T13:00:13Z</time>
      </trkpt>
      <trkpt lat="45.16784" lon="5.96878">
        <ele>2522</ele>
        <time>2021-02-20T13:00:14Z</time>
      </trkpt>
      <trkpt lat="45.16783" lon="5.96879">
        <ele>2522</ele>
        <time>2021-02-20T13:00:15Z</time>
      </trkpt>
      <trkpt lat="45.16783" lon="5.9688">
        <ele>2523</ele>
        <time>2021-02-20T13:00:16Z</time>
      </trkpt>
      <trkpt lat="45.16783" lon="5.96881">
        <ele>2523</ele>
        <time>2021-02-20T13:00:17Z</time>
      </trkpt>
      <trkpt lat="45.16783" lon="5.96882">
        <ele>2523</ele>
        <time>2021-02-20T13:00:18Z</time>
      </trkpt>
      <trkpt lat="45.16783" lon="5.96882">
        <ele>2523</ele>
        <time>2021-02-20T13:00:19Z</time>
      </trkpt>
      <trkpt lat="45.16783" lon="5.96883">
        <ele>2523</ele>
        <time>2021-02-20T13:00:20Z</time>
      </trkpt>
      <trkpt lat="45.16783" lon="5.96883">
        <ele>2523</ele>
        <time>2021-02-20T13:00:21Z</time>
      </trkpt>
      <trkpt lat="45.16783" lon="5.96884">
        <ele>2523</ele>
        <time>2021-02-20T13:00:22Z</time>
      </trkpt>
      <trkpt lat="45.16783" lon="5.96884">
        <ele>2524</ele>
        <time>2021-02-20T13:00:23Z</time>
      </trkpt>
      <trkpt lat="45.16782" lon="5.96885">
        <ele>2524</ele>
        <time>2021-02-20T13:00:24Z</time>
      </trkpt>
      <trkpt lat="45.16782" lon="5.96885">
        <ele>2524</ele>
        <time>2021-02-20T13:00:25Z</time>
      </trkpt>
      <trkpt lat="45.16782" lon="5.96886">
        <ele>2524</ele>
        <time>2021-02-20T13:00:26Z</time>
      </trkpt>
      <trkpt lat="45.16782" lon="5.96886">
        <ele>2523.9</ele>
        <time>2021-02-20T13:00:27Z</time>
      </trkpt>
      <trkpt lat="45.16781" lon="5.96887">
        <ele>2523.9</ele>
        <time>2021-02-20T13:00:28Z</time>
      </trkpt>
      <trkpt lat="45.16781" lon="5.96888">
        <ele>2523.9</ele>
        <time>2021-02-20T13:00:29Z</time>
      </trkpt>
      <trkpt lat="45.1678" lon="5.96889">
        <ele>2524.9</ele>
        <time>2021-02-20T13:00:30Z</time>
      </trkpt>
      <trkpt lat="45.1678" lon="5.96889">
        <ele>2524.9</ele>
        <time>2021-02-20T13:00:31Z</time>
      </trkpt>
      <trkpt lat="45.16779" lon="5.96889">
        <ele>2524.9</ele>
        <time>2021-02-20T13:00:32Z</time>
      </trkpt>
      <trkpt lat="45.16779" lon="5.9689">
        <ele>2524.9</ele>
        <time>2021-02-20T13:00:33Z</time>
      </trkpt>
      <trkpt lat="45.16779" lon="5.96891">
        <ele>2524.8</ele>
        <time>2021-02-20T13:00:34Z</time>
      </trkpt>
      <trkpt lat="45.16778" lon="5.96892">
        <ele>2524.8</ele>
        <time>2021-02-20T13:00:35Z</time>
      </trkpt>
      <trkpt lat="45.16778" lon="5.96892">
        <ele>2524.8</ele>
        <time>2021-02-20T13:00:36Z</time>
      </trkpt>
      <trkpt lat="45.16778" lon="5.96892">
        <ele>2524.8</ele>
        <time>2021-02-20T13:00:37Z</time>
      </trkpt>
      <trkpt lat="45.16777" lon="5.96893">
        <ele>2525.7</ele>
        <time>2021-02-20T13:00:38Z</time>
      </trkpt>
      <trkpt lat="45.16777" lon="5.96893">
        <ele>2525.7</ele>
        <time>2021-02-20T13:00:39Z</time>
      </trkpt>
      <trkpt lat="45.16776" lon="5.96894">
        <ele>2525.7</ele>
        <time>2021-02-20T13:00:40Z</time>
      </trkpt>
      <trkpt lat="45.16776" lon="5.96893">
        <ele>2525.7</ele>
        <time>2021-02-20T13:00:41Z</time>
      </trkpt>
      <trkpt lat="45.16776" lon="5.96894">
        <ele>2525.7</ele>
        <time>2021-02-20T13:00:42Z</time>
      </trkpt>
      <trkpt lat="45.16775" lon="5.96894">
        <ele>2525.6</ele>
        <time>2021-02-20T13:00:43Z</time>
      </trkpt>
      <trkpt lat="45.16775" lon="5.96895">
        <ele>2525.6</ele>
        <time>2021-02-20T13:00:44Z</time>
      </trkpt>
      <trkpt lat="45.16774" lon="5.96895">
        <ele>2525.6</ele>
        <time>2021-02-20T13:00:45Z</time>
      </trkpt>
      <trkpt lat="45.16774" lon="5.96895">
        <ele>2525.6</ele>
        <time>2021-02-20T13:00:46Z</time>
      </trkpt>
      <trkpt lat="45.16773" lon="5.96896">
        <ele>2525.6</ele>
        <time>2021-02-20T13:00:47Z</time>
      </trkpt>
      <trkpt lat="45.16773" lon="5.96897">
        <ele>2525.6</ele>
        <time>2021-02-20T13:00:48Z</time>
      </trkpt>
      <trkpt lat="45.16772" lon="5.96898">
        <ele>2526.4</ele>
        <time>2021-02-20T13:00:49Z</time>
      </trkpt>
      <trkpt lat="45.16771" lon="5.96898">
        <ele>2526.4</ele>
        <time>2021-02-20T13:00:50Z</time>
      </trkpt>
      <trkpt lat="45.1677" lon="5.96898">
        <ele>2526.4</ele>
        <time>2021-02-20T13:00:51Z</time>
      </trkpt>
      <trkpt lat="45.1677" lon="5.96899">
        <ele>2526.4</ele>
        <time>2021-02-20T13:00:52Z</time>
      </trkpt>
      <trkpt lat="45.16769" lon="5.969">
        <ele>2526.4</ele>
        <time>2021-02-20T13:00:53Z</time>
      </trkpt>
      <trkpt lat="45.16768" lon="5.969">
        <ele>2526.4</ele>
        <time>2021-02-20T13:00:54Z</time>
      </trkpt>
      <trkpt lat="45.16769" lon="5.96901">
        <ele>2526.4</ele>
        <time>2021-02-20T13:00:55Z</time>
      </trkpt>
      <trkpt lat="45.16769" lon="5.96901">
        <ele>2526.4</ele>
        <time>2021-02-20T13:00:56Z</time>
      </trkpt>
      <trkpt lat="45.16768" lon="5.96901">
        <ele>2527.2</ele>
        <time>2021-02-20T13:00:57Z</time>
      </trkpt>
      <trkpt lat="45.16767" lon="5.96902">
        <ele>2527.2</ele>
        <time>2021-02-20T13:00:58Z</time>
      </trkpt>
      <trkpt lat="45.16766" lon="5.96902">
        <ele>2527.2</ele>
        <time>2021-02-20T13:00:59Z</time>
      </trkpt>
      <trkpt lat="45.16766" lon="5.96902">
        <ele>2527.2</ele>
        <time>2021-02-20T13:01:00Z</time>
      </trkpt>
      <trkpt lat="45.16766" lon="5.96903">
        <ele>2527.2</ele>
        <time>2021-02-20T13:01:01Z</time>
      </trkpt>
      <trkpt lat="45.16766" lon="5.96903">
        <ele>2527.2</ele>
        <time>2021-02-20T13:01:02Z</time>
      </trkpt>
      <trkpt lat="45.16766" lon="5.96903">
        <ele>2527.2</ele>
        <time>2021-02-20T13:01:03Z</time>
      </trkpt>
      <trkpt lat="45.16766" lon="5.96904">
        <ele>2527.2</ele>
        <time>2021-02-20T13:01:04Z</time>
      </trkpt>
      <trkpt lat="45.16766" lon="5.96905">
        <ele>2527.2</ele>
        <time>2021-02-20T13:01:05Z</time>
      </trkpt>
      <trkpt lat="45.16765" lon="5.96905">
        <ele>2527.2</ele>
        <time>2021-02-20T13:01:06Z</time>
      </trkpt>
      <trkpt lat="45.16765" lon="5.96906">
        <ele>2528.1</ele>
        <time>2021-02-20T13:01:07Z</time>
      </trkpt>
      <trkpt lat="45.16764" lon="5.96907">
        <ele>2528.1</ele>
        <time>2021-02-20T13:01:08Z</time>
      </trkpt>
      <trkpt lat="45.16763" lon="5.96907">
        <ele>2528.1</ele>
        <time>2021-02-20T13:01:09Z</time>
      </trkpt>
      <trkpt lat="45.16763" lon="5.96908">
        <ele>2528.1</ele>
        <time>2021-02-20T13:01:10Z</time>
      </trkpt>
      <trkpt lat="45.16762" lon="5.96908">
        <ele>2528.1</ele>
        <time>2021-02-20T13:01:11Z</time>
      </trkpt>
      <trkpt lat="45.16761" lon="5.96908">
        <ele>2528.1</ele>
        <time>2021-02-20T13:01:12Z</time>
      </trkpt>
      <trkpt lat="45.16761" lon="5.96909">
        <ele>2528.1</ele>
        <time>2021-02-20T13:01:13Z</time>
      </trkpt>
      <trkpt lat="45.1676" lon="5.9691">
        <ele>2529</ele>
        <time>2021-02-20T13:01:14Z</time>
      </trkpt>
      <trkpt lat="45.16759" lon="5.9691">
        <ele>2529</ele>
        <time>2021-02-20T13:01:15Z</time>
      </trkpt>
      <trkpt lat="45.16759" lon="5.9691">
        <ele>2529</ele>
        <time>2021-02-20T13:01:16Z</time>
      </trkpt>
      <trkpt lat="45.16758" lon="5.96911">
        <ele>2529</ele>
        <time>2021-02-20T13:01:17Z</time>
      </trkpt>
      <trkpt lat="45.16758" lon="5.96911">
        <ele>2529</ele>
        <time>2021-02-20T13:01:18Z</time>
      </trkpt>
      <trkpt lat="45.16758" lon="5.96911">
        <ele>2529</ele>
        <time>2021-02-20T13:01:19Z</time>
      </trkpt>
      <trkpt lat="45.16758" lon="5.96912">
        <ele>2529</ele>
        <time>2021-02-20T13:01:20Z</time>
      </trkpt>
      <trkpt lat="45.16757" lon="5.96912">
        <ele>2529</ele>
        <time>2021-02-20T13:01:21Z</time>
      </trkpt>
      <trkpt lat="45.16757" lon="5.96913">
        <ele>2529</ele>
        <time>2021-02-20T13:01:22Z</time>
      </trkpt>
      <trkpt lat="45.16756" lon="5.96913">
        <ele>2529</ele>
        <time>2021-02-20T13:01:23Z</time>
      </trkpt>
      <trkpt lat="45.16755" lon="5.96914">
        <ele>2529</ele>
        <time>2021-02-20T13:01:24Z</time>
      </trkpt>
      <trkpt lat="45.16755" lon="5.96914">
        <ele>2529.9</ele>
        <time>2021-02-20T13:01:25Z</time>
      </trkpt>
      <trkpt lat="45.16754" lon="5.96914">
        <ele>2529.8</ele>
        <time>2021-02-20T13:01:26Z</time>
      </trkpt>
      <trkpt lat="45.16754" lon="5.96915">
        <ele>2529.8</ele>
        <time>2021-02-20T13:01:27Z</time>
      </trkpt>
      <trkpt lat="45.16753" lon="5.96915">
        <ele>2529.8</ele>
        <time>2021-02-20T13:01:28Z</time>
      </trkpt>
      <trkpt lat="45.16753" lon="5.96916">
        <ele>2529.8</ele>
        <time>2021-02-20T13:01:29Z</time>
      </trkpt>
      <trkpt lat="45.16752" lon="5.96916">
        <ele>2529.8</ele>
        <time>2021-02-20T13:01:30Z</time>
      </trkpt>
      <trkpt lat="45.16751" lon="5.96917">
        <ele>2529.7</ele>
        <time>2021-02-20T13:01:31Z</time>
      </trkpt>
      <trkpt lat="45.1675" lon="5.96917">
        <ele>2529.7</ele>
        <time>2021-02-20T13:01:32Z</time>
      </trkpt>
      <trkpt lat="45.1675" lon="5.96917">
        <ele>2529.7</ele>
        <time>2021-02-20T13:01:33Z</time>
      </trkpt>
      <trkpt lat="45.16749" lon="5.96918">
        <ele>2529.7</ele>
        <time>2021-02-20T13:01:34Z</time>
      </trkpt>
      <trkpt lat="45.16748" lon="5.96918">
        <ele>2530.4</ele>
        <time>2021-02-20T13:01:35Z</time>
      </trkpt>
      <trkpt lat="45.16747" lon="5.96919">
        <ele>2530.4</ele>
        <time>2021-02-20T13:01:36Z</time>
      </trkpt>
      <trkpt lat="45.16747" lon="5.96919">
        <ele>2530.4</ele>
        <time>2021-02-20T13:01:37Z</time>
      </trkpt>
      <trkpt lat="45.16746" lon="5.9692">
        <ele>2530.4</ele>
        <time>2021-02-20T13:01:38Z</time>
      </trkpt>
      <trkpt lat="45.16745" lon="5.9692">
        <ele>2530.2</ele>
        <time>2021-02-20T13:01:39Z</time>
      </trkpt>
      <trkpt lat="45.16745" lon="5.96921">
        <ele>2530.2</ele>
        <time>2021-02-20T13:01:40Z</time>
      </trkpt>
      <trkpt lat="45.16744" lon="5.96921">
        <ele>2530.2</ele>
        <time>2021-02-20T13:01:41Z</time>
      </trkpt>
      <trkpt lat="45.16744" lon="5.96922">
        <ele>2530.2</ele>
        <time>2021-02-20T13:01:42Z</time>
      </trkpt>
      <trkpt lat="45.16743" lon="5.96922">
        <ele>2530.2</ele>
        <time>2021-02-20T13:01:43Z</time>
      </trkpt>
      <trkpt lat="45.16743" lon="5.96923">
        <ele>2531.1</ele>
        <time>2021-02-20T13:01:44Z</time>
      </trkpt>
      <trkpt lat="45.16743" lon="5.96923">
        <ele>2531.1</ele>
        <time>2021-02-20T13:01:45Z</time>
      </trkpt>
      <trkpt lat="45.16742" lon="5.96924">
        <ele>2530.9</ele>
        <time>2021-02-20T13:01:46Z</time>
      </trkpt>
      <trkpt lat="45.16741" lon="5.96924">
        <ele>2530.9</ele>
        <time>2021-02-20T13:01:47Z</time>
      </trkpt>
      <trkpt lat="45.16741" lon="5.96925">
        <ele>2530.9</ele>
        <time>2021-02-20T13:01:48Z</time>
      </trkpt>
      <trkpt lat="45.1674" lon="5.96925">
        <ele>2530.9</ele>
        <time>2021-02-20T13:01:49Z</time>
      </trkpt>
      <trkpt lat="45.16739" lon="5.96926">
        <ele>2530.7</ele>
        <time>2021-02-20T13:01:50Z</time>
      </trkpt>
      <trkpt lat="45.16739" lon="5.96926">
        <ele>2530.7</ele>
        <time>2021-02-20T13:01:51Z</time>
      </trkpt>
      <trkpt lat="45.16738" lon="5.96927">
        <ele>2531.5</ele>
        <time>2021-02-20T13:01:52Z</time>
      </trkpt>
      <trkpt lat="45.16737" lon="5.96927">
        <ele>2531.5</ele>
        <time>2021-02-20T13:01:53Z</time>
      </trkpt>
      <trkpt lat="45.16737" lon="5.96927">
        <ele>2531.5</ele>
        <time>2021-02-20T13:01:54Z</time>
      </trkpt>
      <trkpt lat="45.16736" lon="5.96927">
        <ele>2531.3</ele>
        <time>2021-02-20T13:01:55Z</time>
      </trkpt>
      <trkpt lat="45.16735" lon="5.96928">
        <ele>2531.3</ele>
        <time>2021-02-20T13:01:56Z</time>
      </trkpt>
      <trkpt lat="45.16734" lon="5.96928">
        <ele>2531.3</ele>
        <time>2021-02-20T13:01:57Z</time>
      </trkpt>
      <trkpt lat="45.16734" lon="5.96928">
        <ele>2531.3</ele>
        <time>2021-02-20T13:01:58Z</time>
      </trkpt>
      <trkpt lat="45.16733" lon="5.96928">
        <ele>2531</ele>
        <time>2021-02-20T13:01:59Z</time>
      </trkpt>
      <trkpt lat="45.16732" lon="5.96928">
        <ele>2531</ele>
        <time>2021-02-20T13:02:00Z</time>
      </trkpt>
      <trkpt lat="45.16731" lon="5.96928">
        <ele>2531</ele>
        <time>2021-02-20T13:02:01Z</time>
      </trkpt>
      <trkpt lat="45.1673" lon="5.96928">
        <ele>2530.8</ele>
        <time>2021-02-20T13:02:02Z</time>
      </trkpt>
      <trkpt lat="45.16729" lon="5.96929">
        <ele>2530.8</ele>
        <time>2021-02-20T13:02:03Z</time>
      </trkpt>
      <trkpt lat="45.16728" lon="5.96929">
        <ele>2530.8</ele>
        <time>2021-02-20T13:02:04Z</time>
      </trkpt>
      <trkpt lat="45.16727" lon="5.96929">
        <ele>2530.5</ele>
        <time>2021-02-20T13:02:05Z</time>
      </trkpt>
      <trkpt lat="45.16726" lon="5.9693">
        <ele>2530.5</ele>
        <time>2021-02-20T13:02:06Z</time>
      </trkpt>
      <trkpt lat="45.16725" lon="5.96931">
        <ele>2530.5</ele>
        <time>2021-02-20T13:02:07Z</time>
      </trkpt>
      <trkpt lat="45.16724" lon="5.96931">
        <ele>2530.9</ele>
        <time>2021-02-20T13:02:08Z</time>
      </trkpt>
      <trkpt lat="45.16723" lon="5.96932">
        <ele>2530.9</ele>
        <time>2021-02-20T13:02:09Z</time>
      </trkpt>
      <trkpt lat="45.16723" lon="5.96932">
        <ele>2530.9</ele>
        <time>2021-02-20T13:02:10Z</time>
      </trkpt>
      <trkpt lat="45.16722" lon="5.96932">
        <ele>2530.9</ele>
        <time>2021-02-20T13:02:11Z</time>
      </trkpt>
      <trkpt lat="45.16721" lon="5.96933">
        <ele>2530.9</ele>
        <time>2021-02-20T13:02:12Z</time>
      </trkpt>
      <trkpt lat="45.1672" lon="5.96933">
        <ele>2530.5</ele>
        <time>2021-02-20T13:02:13Z</time>
      </trkpt>
      <trkpt lat="45.1672" lon="5.96934">
        <ele>2530.5</ele>
        <time>2021-02-20T13:02:14Z</time>
      </trkpt>
      <trkpt lat="45.16719" lon="5.96934">
        <ele>2530.5</ele>
        <time>2021-02-20T13:02:15Z</time>
      </trkpt>
      <trkpt lat="45.16719" lon="5.96934">
        <ele>2530.5</ele>
        <time>2021-02-20T13:02:16Z</time>
      </trkpt>
      <trkpt lat="45.16718" lon="5.96935">
        <ele>2530.1</ele>
        <time>2021-02-20T13:02:17Z</time>
      </trkpt>
      <trkpt lat="45.16717" lon="5.96935">
        <ele>2530.8</ele>
        <time>2021-02-20T13:02:18Z</time>
      </trkpt>
      <trkpt lat="45.16716" lon="5.96936">
        <ele>2530.8</ele>
        <time>2021-02-20T13:02:19Z</time>
      </trkpt>
      <trkpt lat="45.16715" lon="5.96937">
        <ele>2530.4</ele>
        <time>2021-02-20T13:02:20Z</time>
      </trkpt>
      <trkpt lat="45.16714" lon="5.96937">
        <ele>2530.4</ele>
        <time>2021-02-20T13:02:21Z</time>
      </trkpt>
      <trkpt lat="45.16714" lon="5.96938">
        <ele>2530.4</ele>
        <time>2021-02-20T13:02:22Z</time>
      </trkpt>
      <trkpt lat="45.16713" lon="5.96939">
        <ele>2530.4</ele>
        <time>2021-02-20T13:02:23Z</time>
      </trkpt>
      <trkpt lat="45.16712" lon="5.96939">
        <ele>2530.4</ele>
        <time>2021-02-20T13:02:24Z</time>
      </trkpt>
      <trkpt lat="45.16712" lon="5.9694">
        <ele>2530.7</ele>
        <time>2021-02-20T13:02:25Z</time>
      </trkpt>
      <trkpt lat="45.16711" lon="5.96941">
        <ele>2530.7</ele>
        <time>2021-02-20T13:02:26Z</time>
      </trkpt>
      <trkpt lat="45.16711" lon="5.96942">
        <ele>2530.7</ele>
        <time>2021-02-20T13:02:27Z</time>
      </trkpt>
      <trkpt lat="45.1671" lon="5.96942">
        <ele>2530.7</ele>
        <time>2021-02-20T13:02:28Z</time>
      </trkpt>
      <trkpt lat="45.1671" lon="5.96943">
        <ele>2530.7</ele>
        <time>2021-02-20T13:02:29Z</time>
      </trkpt>
      <trkpt lat="45.16709" lon="5.96944">
        <ele>2530.7</ele>
        <time>2021-02-20T13:02:30Z</time>
      </trkpt>
      <trkpt lat="45.16708" lon="5.96944">
        <ele>2530.9</ele>
        <time>2021-02-20T13:02:31Z</time>
      </trkpt>
      <trkpt lat="45.16708" lon="5.96945">
        <ele>2530.9</ele>
        <time>2021-02-20T13:02:32Z</time>
      </trkpt>
      <trkpt lat="45.16707" lon="5.96946">
        <ele>2530.9</ele>
        <time>2021-02-20T13:02:33Z</time>
      </trkpt>
      <trkpt lat="45.16707" lon="5.96946">
        <ele>2530.9</ele>
        <time>2021-02-20T13:02:34Z</time>
      </trkpt>
      <trkpt lat="45.16707" lon="5.96947">
        <ele>2530.9</ele>
        <time>2021-02-20T13:02:35Z</time>
      </trkpt>
      <trkpt lat="45.16706" lon="5.96947">
        <ele>2530.9</ele>
        <time>2021-02-20T13:02:36Z</time>
      </trkpt>
      <trkpt lat="45.16706" lon="5.96948">
        <ele>2530.5</ele>
        <time>2021-02-20T13:02:37Z</time>
      </trkpt>
      <trkpt lat="45.16706" lon="5.96949">
        <ele>2531.2</ele>
        <time>2021-02-20T13:02:38Z</time>
      </trkpt>
      <trkpt lat="45.16706" lon="5.9695">
        <ele>2531.2</ele>
        <time>2021-02-20T13:02:39Z</time>
      </trkpt>
      <trkpt lat="45.16705" lon="5.96951">
        <ele>2531.2</ele>
        <time>2021-02-20T13:02:40Z</time>
      </trkpt>
      <trkpt lat="45.16705" lon="5.96952">
        <ele>2531.2</ele>
        <time>2021-02-20T13:02:41Z</time>
      </trkpt>
      <trkpt lat="45.16704" lon="5.96953">
        <ele>2531.9</ele>
        <time>2021-02-20T13:02:42Z</time>
      </trkpt>
      <trkpt lat="45.16704" lon="5.96953">
        <ele>2531.9</ele>
        <time>2021-02-20T13:02:43Z</time>
      </trkpt>
      <trkpt lat="45.16703" lon="5.96954">
        <ele>2531.9</ele>
        <time>2021-02-20T13:02:44Z</time>
      </trkpt>
      <trkpt lat="45.16703" lon="5.96955">
        <ele>2531.4</ele>
        <time>2021-02-20T13:02:45Z</time>
      </trkpt>
      <trkpt lat="45.16702" lon="5.96956">
        <ele>2531.4</ele>
        <time>2021-02-20T13:02:46Z</time>
      </trkpt>
      <trkpt lat="45.16701" lon="5.96957">
        <ele>2531.4</ele>
        <time>2021-02-20T13:02:47Z</time>
      </trkpt>
      <trkpt lat="45.16701" lon="5.96957">
        <ele>2532.2</ele>
        <time>2021-02-20T13:02:48Z</time>
      </trkpt>
      <trkpt lat="45.167" lon="5.96959">
        <ele>2532.2</ele>
        <time>2021-02-20T13:02:49Z</time>
      </trkpt>
      <trkpt lat="45.167" lon="5.96959">
        <ele>2532.2</ele>
        <time>2021-02-20T13:02:50Z</time>
      </trkpt>
      <trkpt lat="45.167" lon="5.9696">
        <ele>2531.7</ele>
        <time>2021-02-20T13:02:51Z</time>
      </trkpt>
      <trkpt lat="45.16699" lon="5.96961">
        <ele>2531.7</ele>
        <time>2021-02-20T13:02:52Z</time>
      </trkpt>
      <trkpt lat="45.16699" lon="5.96962">
        <ele>2532.5</ele>
        <time>2021-02-20T13:02:53Z</time>
      </trkpt>
      <trkpt lat="45.16698" lon="5.96963">
        <ele>2532.5</ele>
        <time>2021-02-20T13:02:54Z</time>
      </trkpt>
      <trkpt lat="45.16697" lon="5.96964">
        <ele>2532.5</ele>
        <time>2021-02-20T13:02:55Z</time>
      </trkpt>
      <trkpt lat="45.16697" lon="5.96964">
        <ele>2532</ele>
        <time>2021-02-20T13:02:56Z</time>
      </trkpt>
      <trkpt lat="45.16696" lon="5.96965">
        <ele>2532.8</ele>
        <time>2021-02-20T13:02:57Z</time>
      </trkpt>
      <trkpt lat="45.16695" lon="5.96966">
        <ele>2532.8</ele>
        <time>2021-02-20T13:02:58Z</time>
      </trkpt>
      <trkpt lat="45.16694" lon="5.96967">
        <ele>2532.8</ele>
        <time>2021-02-20T13:02:59Z</time>
      </trkpt>
      <trkpt lat="45.16694" lon="5.96968">
        <ele>2532.3</ele>
        <time>2021-02-20T13:03:00Z</time>
      </trkpt>
      <trkpt lat="45.16693" lon="5.9697">
        <ele>2533</ele>
        <time>2021-02-20T13:03:01Z</time>
      </trkpt>
      <trkpt lat="45.16692" lon="5.96971">
        <ele>2533</ele>
        <time>2021-02-20T13:03:02Z</time>
      </trkpt>
      <trkpt lat="45.16692" lon="5.96971">
        <ele>2533</ele>
        <time>2021-02-20T13:03:03Z</time>
      </trkpt>
      <trkpt lat="45.16693" lon="5.96972">
        <ele>2533</ele>
        <time>2021-02-20T13:03:04Z</time>
      </trkpt>
      <trkpt lat="45.16694" lon="5.96973">
        <ele>2533</ele>
        <time>2021-02-20T13:03:05Z</time>
      </trkpt>
      <trkpt lat="45.16694" lon="5.96974">
        <ele>2534.2</ele>
        <time>2021-02-20T13:03:06Z</time>
      </trkpt>
      <trkpt lat="45.16695" lon="5.96976">
        <ele>2534.2</ele>
        <time>2021-02-20T13:03:07Z</time>
      </trkpt>
      <trkpt lat="45.16695" lon="5.96976">
        <ele>2534.2</ele>
        <time>2021-02-20T13:03:08Z</time>
      </trkpt>
      <trkpt lat="45.16694" lon="5.96977">
        <ele>2534.2</ele>
        <time>2021-02-20T13:03:09Z</time>
      </trkpt>
      <trkpt lat="45.16694" lon="5.96978">
        <ele>2533.7</ele>
        <time>2021-02-20T13:03:10Z</time>
      </trkpt>
      <trkpt lat="45.16694" lon="5.96979">
        <ele>2534.4</ele>
        <time>2021-02-20T13:03:11Z</time>
      </trkpt>
      <trkpt lat="45.16693" lon="5.96979">
        <ele>2534.4</ele>
        <time>2021-02-20T13:03:12Z</time>
      </trkpt>
      <trkpt lat="45.16693" lon="5.9698">
        <ele>2534.4</ele>
        <time>2021-02-20T13:03:13Z</time>
      </trkpt>
      <trkpt lat="45.16693" lon="5.9698">
        <ele>2534.4</ele>
        <time>2021-02-20T13:03:14Z</time>
      </trkpt>
      <trkpt lat="45.16692" lon="5.96981">
        <ele>2534.4</ele>
        <time>2021-02-20T13:03:15Z</time>
      </trkpt>
      <trkpt lat="45.16691" lon="5.96981">
        <ele>2534.4</ele>
        <time>2021-02-20T13:03:16Z</time>
      </trkpt>
      <trkpt lat="45.16691" lon="5.96981">
        <ele>2533.9</ele>
        <time>2021-02-20T13:03:17Z</time>
      </trkpt>
      <trkpt lat="45.16691" lon="5.96981">
        <ele>2533.9</ele>
        <time>2021-02-20T13:03:18Z</time>
      </trkpt>
      <trkpt lat="45.1669" lon="5.96982">
        <ele>2533.9</ele>
        <time>2021-02-20T13:03:19Z</time>
      </trkpt>
      <trkpt lat="45.16689" lon="5.96983">
        <ele>2534.6</ele>
        <time>2021-02-20T13:03:20Z</time>
      </trkpt>
      <trkpt lat="45.16689" lon="5.96984">
        <ele>2534.6</ele>
        <time>2021-02-20T13:03:21Z</time>
      </trkpt>
      <trkpt lat="45.16688" lon="5.96984">
        <ele>2534.6</ele>
        <time>2021-02-20T13:03:22Z</time>
      </trkpt>
      <trkpt lat="45.16688" lon="5.96985">
        <ele>2534</ele>
        <time>2021-02-20T13:03:23Z</time>
      </trkpt>
      <trkpt lat="45.16687" lon="5.96985">
        <ele>2534</ele>
        <time>2021-02-20T13:03:24Z</time>
      </trkpt>
      <trkpt lat="45.16687" lon="5.96986">
        <ele>2534</ele>
        <time>2021-02-20T13:03:25Z</time>
      </trkpt>
      <trkpt lat="45.16687" lon="5.96987">
        <ele>2534</ele>
        <time>2021-02-20T13:03:26Z</time>
      </trkpt>
      <trkpt lat="45.16687" lon="5.96987">
        <ele>2534.7</ele>
        <time>2021-02-20T13:03:27Z</time>
      </trkpt>
      <trkpt lat="45.16686" lon="5.96987">
        <ele>2534.7</ele>
        <time>2021-02-20T13:03:28Z</time>
      </trkpt>
      <trkpt lat="45.16686" lon="5.96987">
        <ele>2534.7</ele>
        <time>2021-02-20T13:03:29Z</time>
      </trkpt>
      <trkpt lat="45.16685" lon="5.96987">
        <ele>2534.7</ele>
        <time>2021-02-20T13:03:30Z</time>
      </trkpt>
      <trkpt lat="45.16685" lon="5.96988">
        <ele>2534.7</ele>
        <time>2021-02-20T13:03:31Z</time>
      </trkpt>
      <trkpt lat="45.16685" lon="5.96988">
        <ele>2534.1</ele>
        <time>2021-02-20T13:03:32Z</time>
      </trkpt>
      <trkpt lat="45.16685" lon="5.96989">
        <ele>2534.1</ele>
        <time>2021-02-20T13:03:33Z</time>
      </trkpt>
      <trkpt lat="45.16684" lon="5.96989">
        <ele>2534.1</ele>
        <time>2021-02-20T13:03:34Z</time>
      </trkpt>
      <trkpt lat="45.16683" lon="5.96991">
        <ele>2534.1</ele>
        <time>2021-02-20T13:03:35Z</time>
      </trkpt>
      <trkpt lat="45.16683" lon="5.96992">
        <ele>2534.7</ele>
        <time>2021-02-20T13:03:36Z</time>
      </trkpt>
      <trkpt lat="45.16683" lon="5.96993">
        <ele>2534.7</ele>
        <time>2021-02-20T13:03:37Z</time>
      </trkpt>
      <trkpt lat="45.16682" lon="5.96994">
        <ele>2534.7</ele>
        <time>2021-02-20T13:03:38Z</time>
      </trkpt>
      <trkpt lat="45.16682" lon="5.96994">
        <ele>2534.2</ele>
        <time>2021-02-20T13:03:39Z</time>
      </trkpt>
      <trkpt lat="45.16682" lon="5.96995">
        <ele>2534.2</ele>
        <time>2021-02-20T13:03:40Z</time>
      </trkpt>
      <trkpt lat="45.16681" lon="5.96996">
        <ele>2534.8</ele>
        <time>2021-02-20T13:03:41Z</time>
      </trkpt>
      <trkpt lat="45.16681" lon="5.96997">
        <ele>2534.8</ele>
        <time>2021-02-20T13:03:42Z</time>
      </trkpt>
      <trkpt lat="45.16681" lon="5.96997">
        <ele>2534.8</ele>
        <time>2021-02-20T13:03:43Z</time>
      </trkpt>
      <trkpt lat="45.16681" lon="5.96997">
        <ele>2534.8</ele>
        <time>2021-02-20T13:03:44Z</time>
      </trkpt>
      <trkpt lat="45.16681" lon="5.96998">
        <ele>2534.8</ele>
        <time>2021-02-20T13:03:45Z</time>
      </trkpt>
      <trkpt lat="45.1668" lon="5.96998">
        <ele>2534.8</ele>
        <time>2021-02-20T13:03:46Z</time>
      </trkpt>
      <trkpt lat="45.1668" lon="5.96999">
        <ele>2534.8</ele>
        <time>2021-02-20T13:03:47Z</time>
      </trkpt>
      <trkpt lat="45.1668" lon="5.96999">
        <ele>2534.8</ele>
        <time>2021-02-20T13:03:48Z</time>
      </trkpt>
      <trkpt lat="45.16679" lon="5.97">
        <ele>2535.4</ele>
        <time>2021-02-20T13:03:49Z</time>
      </trkpt>
      <trkpt lat="45.16679" lon="5.97001">
        <ele>2535.4</ele>
        <time>2021-02-20T13:03:50Z</time>
      </trkpt>
      <trkpt lat="45.16679" lon="5.97001">
        <ele>2534.9</ele>
        <time>2021-02-20T13:03:51Z</time>
      </trkpt>
      <trkpt lat="45.16678" lon="5.97001">
        <ele>2534.9</ele>
        <time>2021-02-20T13:03:52Z</time>
      </trkpt>
      <trkpt lat="45.16678" lon="5.97002">
        <ele>2534.9</ele>
        <time>2021-02-20T13:03:53Z</time>
      </trkpt>
      <trkpt lat="45.16677" lon="5.97003">
        <ele>2534.9</ele>
        <time>2021-02-20T13:03:54Z</time>
      </trkpt>
      <trkpt lat="45.16676" lon="5.97004">
        <ele>2534.9</ele>
        <time>2021-02-20T13:03:55Z</time>
      </trkpt>
      <trkpt lat="45.16676" lon="5.97005">
        <ele>2535.4</ele>
        <time>2021-02-20T13:03:56Z</time>
      </trkpt>
      <trkpt lat="45.16676" lon="5.97006">
        <ele>2534.9</ele>
        <time>2021-02-20T13:03:57Z</time>
      </trkpt>
      <trkpt lat="45.16675" lon="5.97007">
        <ele>2534.9</ele>
        <time>2021-02-20T13:03:58Z</time>
      </trkpt>
      <trkpt lat="45.16675" lon="5.97008">
        <ele>2534.9</ele>
        <time>2021-02-20T13:03:59Z</time>
      </trkpt>
      <trkpt lat="45.16675" lon="5.97008">
        <ele>2534.9</ele>
        <time>2021-02-20T13:04:00Z</time>
      </trkpt>
      <trkpt lat="45.16675" lon="5.97008">
        <ele>2535.4</ele>
        <time>2021-02-20T13:04:01Z</time>
      </trkpt>
      <trkpt lat="45.16674" lon="5.97009">
        <ele>2535.4</ele>
        <time>2021-02-20T13:04:02Z</time>
      </trkpt>
      <trkpt lat="45.16674" lon="5.9701">
        <ele>2535.4</ele>
        <time>2021-02-20T13:04:03Z</time>
      </trkpt>
      <trkpt lat="45.16673" lon="5.97011">
        <ele>2535.4</ele>
        <time>2021-02-20T13:04:04Z</time>
      </trkpt>
      <trkpt lat="45.16673" lon="5.97011">
        <ele>2535.4</ele>
        <time>2021-02-20T13:04:05Z</time>
      </trkpt>
      <trkpt lat="45.16673" lon="5.97012">
        <ele>2534.8</ele>
        <time>2021-02-20T13:04:06Z</time>
      </trkpt>
      <trkpt lat="45.16672" lon="5.97013">
        <ele>2535.4</ele>
        <time>2021-02-20T13:04:07Z</time>
      </trkpt>
      <trkpt lat="45.16672" lon="5.97014">
        <ele>2535.4</ele>
        <time>2021-02-20T13:04:08Z</time>
      </trkpt>
      <trkpt lat="45.16671" lon="5.97015">
        <ele>2535.4</ele>
        <time>2021-02-20T13:04:09Z</time>
      </trkpt>
      <trkpt lat="45.16671" lon="5.97016">
        <ele>2535.4</ele>
        <time>2021-02-20T13:04:10Z</time>
      </trkpt>
      <trkpt lat="45.1667" lon="5.97017">
        <ele>2535.9</ele>
        <time>2021-02-20T13:04:11Z</time>
      </trkpt>
      <trkpt lat="45.1667" lon="5.97018">
        <ele>2535.2</ele>
        <time>2021-02-20T13:04:12Z</time>
      </trkpt>
      <trkpt lat="45.16669" lon="5.97019">
        <ele>2535.2</ele>
        <time>2021-02-20T13:04:13Z</time>
      </trkpt>
      <trkpt lat="45.16669" lon="5.9702">
        <ele>2535.2</ele>
        <time>2021-02-20T13:04:14Z</time>
      </trkpt>
      <trkpt lat="45.16669" lon="5.97021">
        <ele>2535.2</ele>
        <time>2021-02-20T13:04:15Z</time>
      </trkpt>
      <trkpt lat="45.16668" lon="5.97021">
        <ele>2535.7</ele>
        <time>2021-02-20T13:04:16Z</time>
      </trkpt>
      <trkpt lat="45.16668" lon="5.97022">
        <ele>2535.7</ele>
        <time>2021-02-20T13:04:17Z</time>
      </trkpt>
      <trkpt lat="45.16668" lon="5.97023">
        <ele>2535.7</ele>
        <time>2021-02-20T13:04:18Z</time>
      </trkpt>
      <trkpt lat="45.16667" lon="5.97023">
        <ele>2535.7</ele>
        <time>2021-02-20T13:04:19Z</time>
      </trkpt>
      <trkpt lat="45.16667" lon="5.97024">
        <ele>2535.1</ele>
        <time>2021-02-20T13:04:20Z</time>
      </trkpt>
      <trkpt lat="45.16666" lon="5.97025">
        <ele>2535.1</ele>
        <time>2021-02-20T13:04:21Z</time>
      </trkpt>
      <trkpt lat="45.16666" lon="5.97026">
        <ele>2535.5</ele>
        <time>2021-02-20T13:04:22Z</time>
      </trkpt>
      <trkpt lat="45.16665" lon="5.97027">
        <ele>2535.5</ele>
        <time>2021-02-20T13:04:23Z</time>
      </trkpt>
      <trkpt lat="45.16665" lon="5.97028">
        <ele>2535.5</ele>
        <time>2021-02-20T13:04:24Z</time>
      </trkpt>
      <trkpt lat="45.16664" lon="5.97029">
        <ele>2535.5</ele>
        <time>2021-02-20T13:04:25Z</time>
      </trkpt>
      <trkpt lat="45.16664" lon="5.9703">
        <ele>2535.3</ele>
        <time>2021-02-20T13:04:26Z</time>
      </trkpt>
      <trkpt lat="45.16663" lon="5.97031">
        <ele>2535.3</ele>
        <time>2021-02-20T13:04:27Z</time>
      </trkpt>
      <trkpt lat="45.16663" lon="5.97032">
        <ele>2535.3</ele>
        <time>2021-02-20T13:04:28Z</time>
      </trkpt>
      <trkpt lat="45.16662" lon="5.97033">
        <ele>2535.3</ele>
        <time>2021-02-20T13:04:29Z</time>
      </trkpt>
      <trkpt lat="45.16662" lon="5.97034">
        <ele>2535.7</ele>
        <time>2021-02-20T13:04:30Z</time>
      </trkpt>
      <trkpt lat="45.16661" lon="5.97035">
        <ele>2535</ele>
        <time>2021-02-20T13:04:31Z</time>
      </trkpt>
      <trkpt lat="45.16661" lon="5.97036">
        <ele>2534.3</ele>
        <time>2021-02-20T13:04:32Z</time>
      </trkpt>
      <trkpt lat="45.16661" lon="5.97036">
        <ele>2533.1</ele>
        <time>2021-02-20T13:04:33Z</time>
      </trkpt>
      <trkpt lat="45.1666" lon="5.97037">
        <ele>2532.4</ele>
        <time>2021-02-20T13:04:34Z</time>
      </trkpt>
      <trkpt lat="45.1666" lon="5.97038">
        <ele>2531.6</ele>
        <time>2021-02-20T13:04:35Z</time>
      </trkpt>
      <trkpt lat="45.1666" lon="5.97038">
        <ele>2530.9</ele>
        <time>2021-02-20T13:04:36Z</time>
      </trkpt>
      <trkpt lat="45.16659" lon="5.97039">
        <ele>2530.5</ele>
        <time>2021-02-20T13:04:37Z</time>
      </trkpt>
      <trkpt lat="45.16659" lon="5.9704">
        <ele>2529.8</ele>
        <time>2021-02-20T13:04:38Z</time>
      </trkpt>
      <trkpt lat="45.16659" lon="5.9704">
        <ele>2529.1</ele>
        <time>2021-02-20T13:04:39Z</time>
      </trkpt>
      <trkpt lat="45.16659" lon="5.97041">
        <ele>2528.4</ele>
        <time>2021-02-20T13:04:40Z</time>
      </trkpt>
      <trkpt lat="45.16659" lon="5.97042">
        <ele>2527.7</ele>
        <time>2021-02-20T13:04:41Z</time>
      </trkpt>
      <trkpt lat="45.16659" lon="5.97043">
        <ele>2527.4</ele>
        <time>2021-02-20T13:04:42Z</time>
      </trkpt>
      <trkpt lat="45.16658" lon="5.97044">
        <ele>2526.7</ele>
        <time>2021-02-20T13:04:43Z</time>
      </trkpt>
      <trkpt lat="45.16658" lon="5.97044">
        <ele>2525.9</ele>
        <time>2021-02-20T13:04:44Z</time>
      </trkpt>
      <trkpt lat="45.16658" lon="5.97046">
        <ele>2525.2</ele>
        <time>2021-02-20T13:04:45Z</time>
      </trkpt>
      <trkpt lat="45.16658" lon="5.97047">
        <ele>2525</ele>
        <time>2021-02-20T13:04:46Z</time>
      </trkpt>
      <trkpt lat="45.16658" lon="5.97048">
        <ele>2523.8</ele>
        <time>2021-02-20T13:04:47Z</time>
      </trkpt>
      <trkpt lat="45.16657" lon="5.97048">
        <ele>2523.1</ele>
        <time>2021-02-20T13:04:48Z</time>
      </trkpt>
      <trkpt lat="45.16657" lon="5.97048">
        <ele>2522.4</ele>
        <time>2021-02-20T13:04:49Z</time>
      </trkpt>
      <trkpt lat="45.16656" lon="5.97049">
        <ele>2521.7</ele>
        <time>2021-02-20T13:04:50Z</time>
      </trkpt>
      <trkpt lat="45.16656" lon="5.9705">
        <ele>2521</ele>
        <time>2021-02-20T13:04:51Z</time>
      </trkpt>
      <trkpt lat="45.16655" lon="5.9705">
        <ele>2520.3</ele>
        <time>2021-02-20T13:04:52Z</time>
      </trkpt>
      <trkpt lat="45.16655" lon="5.97051">
        <ele>2519.5</ele>
        <time>2021-02-20T13:04:53Z</time>
      </trkpt>
      <trkpt lat="45.16655" lon="5.97052">
        <ele>2518.5</ele>
        <time>2021-02-20T13:04:54Z</time>
      </trkpt>
      <trkpt lat="45.16654" lon="5.97053">
        <ele>2517.8</ele>
        <time>2021-02-20T13:04:55Z</time>
      </trkpt>
      <trkpt lat="45.16654" lon="5.97053">
        <ele>2517.1</ele>
        <time>2021-02-20T13:04:56Z</time>
      </trkpt>
      <trkpt lat="45.16654" lon="5.97054">
        <ele>2516.4</ele>
        <time>2021-02-20T13:04:57Z</time>
      </trkpt>
      <trkpt lat="45.16653" lon="5.97054">
        <ele>2515.7</ele>
        <time>2021-02-20T13:04:58Z</time>
      </trkpt>
      <trkpt lat="45.16653" lon="5.97055">
        <ele>2515</ele>
        <time>2021-02-20T13:04:59Z</time>
      </trkpt>
      <trkpt lat="45.16652" lon="5.97055">
        <ele>2514.3</ele>
        <time>2021-02-20T13:05:00Z</time>
      </trkpt>
      <trkpt lat="45.16652" lon="5.97056">
        <ele>2514</ele>
        <time>2021-02-20T13:05:01Z</time>
      </trkpt>
      <trkpt lat="45.16651" lon="5.97056">
        <ele>2512.9</ele>
        <time>2021-02-20T13:05:02Z</time>
      </trkpt>
      <trkpt lat="45.16651" lon="5.97057">
        <ele>2512.2</ele>
        <time>2021-02-20T13:05:03Z</time>
      </trkpt>
      <trkpt lat="45.1665" lon="5.97058">
        <ele>2511.5</ele>
        <time>2021-02-20T13:05:04Z</time>
      </trkpt>
      <trkpt lat="45.1665" lon="5.97058">
        <ele>2510.8</ele>
        <time>2021-02-20T13:05:05Z</time>
      </trkpt>
      <trkpt lat="45.1665" lon="5.97059">
        <ele>2510.1</ele>
        <time>2021-02-20T13:05:06Z</time>
      </trkpt>
      <trkpt lat="45.16649" lon="5.9706">
        <ele>2509.4</ele>
        <time>2021-02-20T13:05:07Z</time>
      </trkpt>
      <trkpt lat="45.16649" lon="5.97061">
        <ele>2509.1</ele>
        <time>2021-02-20T13:05:08Z</time>
      </trkpt>
      <trkpt lat="45.16649" lon="5.97061">
        <ele>2508.4</ele>
        <time>2021-02-20T13:05:09Z</time>
      </trkpt>
      <trkpt lat="45.16648" lon="5.97062">
        <ele>2507.3</ele>
        <time>2021-02-20T13:05:10Z</time>
      </trkpt>
      <trkpt lat="45.16648" lon="5.97062">
        <ele>2506.5</ele>
        <time>2021-02-20T13:05:11Z</time>
      </trkpt>
      <trkpt lat="45.16647" lon="5.97063">
        <ele>2505.8</ele>
        <time>2021-02-20T13:05:12Z</time>
      </trkpt>
      <trkpt lat="45.16647" lon="5.97064">
        <ele>2505.1</ele>
        <time>2021-02-20T13:05:13Z</time>
      </trkpt>
      <trkpt lat="45.16647" lon="5.97065">
        <ele>2504.8</ele>
        <time>2021-02-20T13:05:14Z</time>
      </trkpt>
      <trkpt lat="45.16647" lon="5.97066">
        <ele>2504.1</ele>
        <time>2021-02-20T13:05:15Z</time>
      </trkpt>
      <trkpt lat="45.16646" lon="5.97066">
        <ele>2503.4</ele>
        <time>2021-02-20T13:05:16Z</time>
      </trkpt>
      <trkpt lat="45.16646" lon="5.97067">
        <ele>2502.7</ele>
        <time>2021-02-20T13:05:17Z</time>
      </trkpt>
      <trkpt lat="45.16645" lon="5.97069">
        <ele>2502</ele>
        <time>2021-02-20T13:05:18Z</time>
      </trkpt>
      <trkpt lat="45.16645" lon="5.97069">
        <ele>2501.3</ele>
        <time>2021-02-20T13:05:19Z</time>
      </trkpt>
      <trkpt lat="45.16644" lon="5.9707">
        <ele>2500.6</ele>
        <time>2021-02-20T13:05:20Z</time>
      </trkpt>
      <trkpt lat="45.16644" lon="5.97071">
        <ele>2499.8</ele>
        <time>2021-02-20T13:05:21Z</time>
      </trkpt>
      <trkpt lat="45.16643" lon="5.97071">
        <ele>2499.1</ele>
        <time>2021-02-20T13:05:22Z</time>
      </trkpt>
      <trkpt lat="45.16642" lon="5.97074">
        <ele>2498.4</ele>
        <time>2021-02-20T13:05:23Z</time>
      </trkpt>
      <trkpt lat="45.16642" lon="5.97074">
        <ele>2497.7</ele>
        <time>2021-02-20T13:05:24Z</time>
      </trkpt>
      <trkpt lat="45.16641" lon="5.97075">
        <ele>2497</ele>
        <time>2021-02-20T13:05:25Z</time>
      </trkpt>
      <trkpt lat="45.1664" lon="5.97078">
        <ele>2496.3</ele>
        <time>2021-02-20T13:05:26Z</time>
      </trkpt>
      <trkpt lat="45.16639" lon="5.97079">
        <ele>2495.6</ele>
        <time>2021-02-20T13:05:27Z</time>
      </trkpt>
      <trkpt lat="45.16638" lon="5.9708">
        <ele>2494.9</ele>
        <time>2021-02-20T13:05:28Z</time>
      </trkpt>
      <trkpt lat="45.16637" lon="5.97084">
        <ele>2494.6</ele>
        <time>2021-02-20T13:05:29Z</time>
      </trkpt>
      <trkpt lat="45.16636" lon="5.97085">
        <ele>2493.6</ele>
        <time>2021-02-20T13:05:30Z</time>
      </trkpt>
      <trkpt lat="45.16634" lon="5.9709">
        <ele>2493.3</ele>
        <time>2021-02-20T13:05:31Z</time>
      </trkpt>
      <trkpt lat="45.16633" lon="5.97091">
        <ele>2492.8</ele>
        <time>2021-02-20T13:05:32Z</time>
      </trkpt>
      <trkpt lat="45.16631" lon="5.97095">
        <ele>2492.5</ele>
        <time>2021-02-20T13:05:33Z</time>
      </trkpt>
      <trkpt lat="45.1663" lon="5.97096">
        <ele>2491.7</ele>
        <time>2021-02-20T13:05:34Z</time>
      </trkpt>
      <trkpt lat="45.16629" lon="5.97098">
        <ele>2491</ele>
        <time>2021-02-20T13:05:35Z</time>
      </trkpt>
      <trkpt lat="45.16628" lon="5.97099">
        <ele>2490.8</ele>
        <time>2021-02-20T13:05:36Z</time>
      </trkpt>
      <trkpt lat="45.16626" lon="5.97101">
        <ele>2490</ele>
        <time>2021-02-20T13:05:37Z</time>
      </trkpt>
      <trkpt lat="45.16625" lon="5.97102">
        <ele>2489.3</ele>
        <time>2021-02-20T13:05:38Z</time>
      </trkpt>
      <trkpt lat="45.16624" lon="5.97104">
        <ele>2489</ele>
        <time>2021-02-20T13:05:39Z</time>
      </trkpt>
      <trkpt lat="45.16623" lon="5.97105">
        <ele>2488.3</ele>
        <time>2021-02-20T13:05:40Z</time>
      </trkpt>
      <trkpt lat="45.16622" lon="5.97106">
        <ele>2487.6</ele>
        <time>2021-02-20T13:05:41Z</time>
      </trkpt>
      <trkpt lat="45.16621" lon="5.97106">
        <ele>2486.9</ele>
        <time>2021-02-20T13:05:42Z</time>
      </trkpt>
      <trkpt lat="45.1662" lon="5.97107">
        <ele>2486.7</ele>
        <time>2021-02-20T13:05:43Z</time>
      </trkpt>
      <trkpt lat="45.16619" lon="5.97108">
        <ele>2486</ele>
        <time>2021-02-20T13:05:44Z</time>
      </trkpt>
      <trkpt lat="45.16618" lon="5.97109">
        <ele>2485.4</ele>
        <time>2021-02-20T13:05:45Z</time>
      </trkpt>
      <trkpt lat="45.16618" lon="5.97109">
        <ele>2484.7</ele>
        <time>2021-02-20T13:05:46Z</time>
      </trkpt>
      <trkpt lat="45.16617" lon="5.97109">
        <ele>2484</ele>
        <time>2021-02-20T13:05:47Z</time>
      </trkpt>
      <trkpt lat="45.16616" lon="5.9711">
        <ele>2483.2</ele>
        <time>2021-02-20T13:05:48Z</time>
      </trkpt>
      <trkpt lat="45.16615" lon="5.9711">
        <ele>2482.6</ele>
        <time>2021-02-20T13:05:49Z</time>
      </trkpt>
      <trkpt lat="45.16615" lon="5.9711">
        <ele>2481.9</ele>
        <time>2021-02-20T13:05:50Z</time>
      </trkpt>
      <trkpt lat="45.16614" lon="5.97109">
        <ele>2481.2</ele>
        <time>2021-02-20T13:05:51Z</time>
      </trkpt>
      <trkpt lat="45.16614" lon="5.97109">
        <ele>2480.5</ele>
        <time>2021-02-20T13:05:52Z</time>
      </trkpt>
      <trkpt lat="45.16613" lon="5.97109">
        <ele>2479.8</ele>
        <time>2021-02-20T13:05:53Z</time>
      </trkpt>
      <trkpt lat="45.16612" lon="5.97108">
        <ele>2479.3</ele>
        <time>2021-02-20T13:05:54Z</time>
      </trkpt>
      <trkpt lat="45.16611" lon="5.97108">
        <ele>2478.6</ele>
        <time>2021-02-20T13:05:55Z</time>
      </trkpt>
      <trkpt lat="45.16611" lon="5.97107">
        <ele>2477.9</ele>
        <time>2021-02-20T13:05:56Z</time>
      </trkpt>
      <trkpt lat="45.1661" lon="5.97107">
        <ele>2476.6</ele>
        <time>2021-02-20T13:05:57Z</time>
      </trkpt>
      <trkpt lat="45.1661" lon="5.97106">
        <ele>2475.9</ele>
        <time>2021-02-20T13:05:58Z</time>
      </trkpt>
      <trkpt lat="45.16609" lon="5.97106">
        <ele>2475.4</ele>
        <time>2021-02-20T13:05:59Z</time>
      </trkpt>
      <trkpt lat="45.16609" lon="5.97106">
        <ele>2474.7</ele>
        <time>2021-02-20T13:06:00Z</time>
      </trkpt>
      <trkpt lat="45.16608" lon="5.97105">
        <ele>2474</ele>
        <time>2021-02-20T13:06:01Z</time>
      </trkpt>
      <trkpt lat="45.16608" lon="5.97105">
        <ele>2473.3</ele>
        <time>2021-02-20T13:06:02Z</time>
      </trkpt>
      <trkpt lat="45.16608" lon="5.97106">
        <ele>2472.6</ele>
        <time>2021-02-20T13:06:03Z</time>
      </trkpt>
      <trkpt lat="45.16609" lon="5.97107">
        <ele>2472.4</ele>
        <time>2021-02-20T13:06:04Z</time>
      </trkpt>
      <trkpt lat="45.16609" lon="5.97108">
        <ele>2471.7</ele>
        <time>2021-02-20T13:06:05Z</time>
      </trkpt>
      <trkpt lat="45.16609" lon="5.97108">
        <ele>2470.9</ele>
        <time>2021-02-20T13:06:06Z</time>
      </trkpt>
      <trkpt lat="45.16609" lon="5.97109">
        <ele>2470.2</ele>
        <time>2021-02-20T13:06:07Z</time>
      </trkpt>
      <trkpt lat="45.16609" lon="5.9711">
        <ele>2469.3</ele>
        <time>2021-02-20T13:06:08Z</time>
      </trkpt>
      <trkpt lat="45.1661" lon="5.97112">
        <ele>2469.1</ele>
        <time>2021-02-20T13:06:09Z</time>
      </trkpt>
      <trkpt lat="45.1661" lon="5.97113">
        <ele>2468.4</ele>
        <time>2021-02-20T13:06:10Z</time>
      </trkpt>
      <trkpt lat="45.1661" lon="5.97113">
        <ele>2468.4</ele>
        <time>2021-02-20T13:06:11Z</time>
      </trkpt>
      <trkpt lat="45.1661" lon="5.97113">
        <ele>2468.4</ele>
        <time>2021-02-20T13:06:12Z</time>
      </trkpt>
      <trkpt lat="45.1661" lon="5.97113">
        <ele>2468.4</ele>
        <time>2021-02-20T13:06:13Z</time>
      </trkpt>
      <trkpt lat="45.1661" lon="5.97114">
        <ele>2468.4</ele>
        <time>2021-02-20T13:06:14Z</time>
      </trkpt>
      <trkpt lat="45.1661" lon="5.97115">
        <ele>2468.4</ele>
        <time>2021-02-20T13:06:15Z</time>
      </trkpt>
      <trkpt lat="45.1661" lon="5.97115">
        <ele>2468.4</ele>
        <time>2021-02-20T13:06:16Z</time>
      </trkpt>
      <trkpt lat="45.1661" lon="5.97115">
        <ele>2468.4</ele>
        <time>2021-02-20T13:06:17Z</time>
      </trkpt>
      <trkpt lat="45.1661" lon="5.97115">
        <ele>2468.4</ele>
        <time>2021-02-20T13:06:18Z</time>
      </trkpt>
      <trkpt lat="45.1661" lon="5.97115">
        <ele>2468.4</ele>
        <time>2021-02-20T13:06:19Z</time>
      </trkpt>
      <trkpt lat="45.1661" lon="5.97115">
        <ele>2468.4</ele>
        <time>2021-02-20T13:06:20Z</time>
      </trkpt>
      <trkpt lat="45.1661" lon="5.97116">
        <ele>2468.9</ele>
        <time>2021-02-20T13:06:21Z</time>
      </trkpt>
      <trkpt lat="45.1661" lon="5.97117">
        <ele>2468.9</ele>
        <time>2021-02-20T13:06:22Z</time>
      </trkpt>
      <trkpt lat="45.16611" lon="5.97117">
        <ele>2468.9</ele>
        <time>2021-02-20T13:06:23Z</time>
      </trkpt>
      <trkpt lat="45.16611" lon="5.97118">
        <ele>2468.9</ele>
        <time>2021-02-20T13:06:24Z</time>
      </trkpt>
      <trkpt lat="45.16611" lon="5.97119">
        <ele>2468.9</ele>
        <time>2021-02-20T13:06:25Z</time>
      </trkpt>
      <trkpt lat="45.16611" lon="5.9712">
        <ele>2468.9</ele>
        <time>2021-02-20T13:06:26Z</time>
      </trkpt>
      <trkpt lat="45.16611" lon="5.9712">
        <ele>2469.3</ele>
        <time>2021-02-20T13:06:27Z</time>
      </trkpt>
      <trkpt lat="45.16611" lon="5.97121">
        <ele>2469.3</ele>
        <time>2021-02-20T13:06:28Z</time>
      </trkpt>
      <trkpt lat="45.16611" lon="5.97122">
        <ele>2469.3</ele>
        <time>2021-02-20T13:06:29Z</time>
      </trkpt>
      <trkpt lat="45.16611" lon="5.97123">
        <ele>2469.3</ele>
        <time>2021-02-20T13:06:30Z</time>
      </trkpt>
      <trkpt lat="45.16611" lon="5.97124">
        <ele>2469.3</ele>
        <time>2021-02-20T13:06:31Z</time>
      </trkpt>
      <trkpt lat="45.16611" lon="5.97124">
        <ele>2469.7</ele>
        <time>2021-02-20T13:06:32Z</time>
      </trkpt>
      <trkpt lat="45.16611" lon="5.97125">
        <ele>2469.7</ele>
        <time>2021-02-20T13:06:33Z</time>
      </trkpt>
      <trkpt lat="45.16611" lon="5.97125">
        <ele>2469.7</ele>
        <time>2021-02-20T13:06:34Z</time>
      </trkpt>
      <trkpt lat="45.16611" lon="5.97126">
        <ele>2469.7</ele>
        <time>2021-02-20T13:06:35Z</time>
      </trkpt>
      <trkpt lat="45.16612" lon="5.97126">
        <ele>2469.7</ele>
        <time>2021-02-20T13:06:36Z</time>
      </trkpt>
      <trkpt lat="45.16612" lon="5.97126">
        <ele>2469.7</ele>
        <time>2021-02-20T13:06:37Z</time>
      </trkpt>
      <trkpt lat="45.16612" lon="5.97127">
        <ele>2469.7</ele>
        <time>2021-02-20T13:06:38Z</time>
      </trkpt>
      <trkpt lat="45.16612" lon="5.97129">
        <ele>2470.1</ele>
        <time>2021-02-20T13:06:39Z</time>
      </trkpt>
      <trkpt lat="45.16612" lon="5.9713">
        <ele>2470.1</ele>
        <time>2021-02-20T13:06:40Z</time>
      </trkpt>
      <trkpt lat="45.16612" lon="5.97131">
        <ele>2470.1</ele>
        <time>2021-02-20T13:06:41Z</time>
      </trkpt>
      <trkpt lat="45.16612" lon="5.97132">
        <ele>2470.1</ele>
        <time>2021-02-20T13:06:42Z</time>
      </trkpt>
      <trkpt lat="45.16612" lon="5.97135">
        <ele>2470.6</ele>
        <time>2021-02-20T13:06:43Z</time>
      </trkpt>
      <trkpt lat="45.16612" lon="5.97136">
        <ele>2470.6</ele>
        <time>2021-02-20T13:06:44Z</time>
      </trkpt>
      <trkpt lat="45.16612" lon="5.97137">
        <ele>2471</ele>
        <time>2021-02-20T13:06:45Z</time>
      </trkpt>
      <trkpt lat="45.16612" lon="5.97139">
        <ele>2471</ele>
        <time>2021-02-20T13:06:46Z</time>
      </trkpt>
      <trkpt lat="45.16612" lon="5.97139">
        <ele>2471</ele>
        <time>2021-02-20T13:06:47Z</time>
      </trkpt>
      <trkpt lat="45.16611" lon="5.9714">
        <ele>2471</ele>
        <time>2021-02-20T13:06:48Z</time>
      </trkpt>
      <trkpt lat="45.1661" lon="5.97142">
        <ele>2471.5</ele>
        <time>2021-02-20T13:06:49Z</time>
      </trkpt>
      <trkpt lat="45.1661" lon="5.97143">
        <ele>2471.5</ele>
        <time>2021-02-20T13:06:50Z</time>
      </trkpt>
      <trkpt lat="45.16609" lon="5.97145">
        <ele>2471.9</ele>
        <time>2021-02-20T13:06:51Z</time>
      </trkpt>
      <trkpt lat="45.16608" lon="5.97148">
        <ele>2472.4</ele>
        <time>2021-02-20T13:06:52Z</time>
      </trkpt>
      <trkpt lat="45.16608" lon="5.97149">
        <ele>2472.4</ele>
        <time>2021-02-20T13:06:53Z</time>
      </trkpt>
      <trkpt lat="45.16608" lon="5.9715">
        <ele>2472.8</ele>
        <time>2021-02-20T13:06:54Z</time>
      </trkpt>
      <trkpt lat="45.16607" lon="5.97152">
        <ele>2472.8</ele>
        <time>2021-02-20T13:06:55Z</time>
      </trkpt>
      <trkpt lat="45.16607" lon="5.97153">
        <ele>2472.8</ele>
        <time>2021-02-20T13:06:56Z</time>
      </trkpt>
      <trkpt lat="45.16607" lon="5.97155">
        <ele>2473.3</ele>
        <time>2021-02-20T13:06:57Z</time>
      </trkpt>
      <trkpt lat="45.16607" lon="5.97156">
        <ele>2473.3</ele>
        <time>2021-02-20T13:06:58Z</time>
      </trkpt>
      <trkpt lat="45.16607" lon="5.97157">
        <ele>2473.3</ele>
        <time>2021-02-20T13:06:59Z</time>
      </trkpt>
      <trkpt lat="45.16607" lon="5.97158">
        <ele>2473.3</ele>
        <time>2021-02-20T13:07:00Z</time>
      </trkpt>
      <trkpt lat="45.16607" lon="5.97158">
        <ele>2473.3</ele>
        <time>2021-02-20T13:07:01Z</time>
      </trkpt>
      <trkpt lat="45.16607" lon="5.97159">
        <ele>2473.7</ele>
        <time>2021-02-20T13:07:02Z</time>
      </trkpt>
      <trkpt lat="45.16607" lon="5.9716">
        <ele>2473.7</ele>
        <time>2021-02-20T13:07:03Z</time>
      </trkpt>
      <trkpt lat="45.16607" lon="5.97162">
        <ele>2473.7</ele>
        <time>2021-02-20T13:07:04Z</time>
      </trkpt>
      <trkpt lat="45.16607" lon="5.97163">
        <ele>2474.2</ele>
        <time>2021-02-20T13:07:05Z</time>
      </trkpt>
      <trkpt lat="45.16607" lon="5.97164">
        <ele>2474.2</ele>
        <time>2021-02-20T13:07:06Z</time>
      </trkpt>
      <trkpt lat="45.16607" lon="5.97164">
        <ele>2474.2</ele>
        <time>2021-02-20T13:07:07Z</time>
      </trkpt>
      <trkpt lat="45.16607" lon="5.97165">
        <ele>2474.2</ele>
        <time>2021-02-20T13:07:08Z</time>
      </trkpt>
      <trkpt lat="45.16607" lon="5.97165">
        <ele>2474.2</ele>
        <time>2021-02-20T13:07:09Z</time>
      </trkpt>
      <trkpt lat="45.16607" lon="5.97166">
        <ele>2474.2</ele>
        <time>2021-02-20T13:07:10Z</time>
      </trkpt>
      <trkpt lat="45.16607" lon="5.97168">
        <ele>2474.6</ele>
        <time>2021-02-20T13:07:11Z</time>
      </trkpt>
      <trkpt lat="45.16607" lon="5.97169">
        <ele>2474.6</ele>
        <time>2021-02-20T13:07:12Z</time>
      </trkpt>
      <trkpt lat="45.16607" lon="5.97171">
        <ele>2474.6</ele>
        <time>2021-02-20T13:07:13Z</time>
      </trkpt>
      <trkpt lat="45.16607" lon="5.97172">
        <ele>2475</ele>
        <time>2021-02-20T13:07:14Z</time>
      </trkpt>
      <trkpt lat="45.16607" lon="5.97173">
        <ele>2475</ele>
        <time>2021-02-20T13:07:15Z</time>
      </trkpt>
      <trkpt lat="45.16607" lon="5.97174">
        <ele>2475</ele>
        <time>2021-02-20T13:07:16Z</time>
      </trkpt>
      <trkpt lat="45.16607" lon="5.97175">
        <ele>2475</ele>
        <time>2021-02-20T13:07:17Z</time>
      </trkpt>
      <trkpt lat="45.16606" lon="5.97176">
        <ele>2476.2</ele>
        <time>2021-02-20T13:07:18Z</time>
      </trkpt>
      <trkpt lat="45.16606" lon="5.97177">
        <ele>2476.2</ele>
        <time>2021-02-20T13:07:19Z</time>
      </trkpt>
      <trkpt lat="45.16606" lon="5.97177">
        <ele>2476.2</ele>
        <time>2021-02-20T13:07:20Z</time>
      </trkpt>
      <trkpt lat="45.16606" lon="5.97177">
        <ele>2476.2</ele>
        <time>2021-02-20T13:07:21Z</time>
      </trkpt>
      <trkpt lat="45.16606" lon="5.97178">
        <ele>2476.2</ele>
        <time>2021-02-20T13:07:22Z</time>
      </trkpt>
      <trkpt lat="45.16606" lon="5.97178">
        <ele>2476.2</ele>
        <time>2021-02-20T13:07:23Z</time>
      </trkpt>
      <trkpt lat="45.16606" lon="5.97179">
        <ele>2476.2</ele>
        <time>2021-02-20T13:07:24Z</time>
      </trkpt>
      <trkpt lat="45.16606" lon="5.9718">
        <ele>2476.6</ele>
        <time>2021-02-20T13:07:25Z</time>
      </trkpt>
      <trkpt lat="45.16606" lon="5.97181">
        <ele>2476.6</ele>
        <time>2021-02-20T13:07:26Z</time>
      </trkpt>
      <trkpt lat="45.16606" lon="5.97181">
        <ele>2476.6</ele>
        <time>2021-02-20T13:07:27Z</time>
      </trkpt>
      <trkpt lat="45.16606" lon="5.97181">
        <ele>2476.6</ele>
        <time>2021-02-20T13:07:28Z</time>
      </trkpt>
      <trkpt lat="45.16606" lon="5.97181">
        <ele>2476.6</ele>
        <time>2021-02-20T13:07:29Z</time>
      </trkpt>
      <trkpt lat="45.16605" lon="5.97182">
        <ele>2476.6</ele>
        <time>2021-02-20T13:07:30Z</time>
      </trkpt>
      <trkpt lat="45.16605" lon="5.97183">
        <ele>2476.6</ele>
        <time>2021-02-20T13:07:31Z</time>
      </trkpt>
      <trkpt lat="45.16605" lon="5.97185">
        <ele>2477.2</ele>
        <time>2021-02-20T13:07:32Z</time>
      </trkpt>
      <trkpt lat="45.16605" lon="5.97185">
        <ele>2477.2</ele>
        <time>2021-02-20T13:07:33Z</time>
      </trkpt>
      <trkpt lat="45.16605" lon="5.97185">
        <ele>2477.2</ele>
        <time>2021-02-20T13:07:34Z</time>
      </trkpt>
      <trkpt lat="45.16605" lon="5.97185">
        <ele>2477.2</ele>
        <time>2021-02-20T13:07:35Z</time>
      </trkpt>
      <trkpt lat="45.16605" lon="5.97186">
        <ele>2477.2</ele>
        <time>2021-02-20T13:07:36Z</time>
      </trkpt>
      <trkpt lat="45.16605" lon="5.97186">
        <ele>2477.2</ele>
        <time>2021-02-20T13:07:37Z</time>
      </trkpt>
      <trkpt lat="45.16605" lon="5.97186">
        <ele>2477.2</ele>
        <time>2021-02-20T13:07:38Z</time>
      </trkpt>
      <trkpt lat="45.16606" lon="5.97187">
        <ele>2477.2</ele>
        <time>2021-02-20T13:07:39Z</time>
      </trkpt>
      <trkpt lat="45.16606" lon="5.97187">
        <ele>2477.2</ele>
        <time>2021-02-20T13:07:40Z</time>
      </trkpt>
      <trkpt lat="45.16606" lon="5.97188">
        <ele>2477.2</ele>
        <time>2021-02-20T13:07:41Z</time>
      </trkpt>
      <trkpt lat="45.16605" lon="5.97189">
        <ele>2477.7</ele>
        <time>2021-02-20T13:07:42Z</time>
      </trkpt>
      <trkpt lat="45.16605" lon="5.9719">
        <ele>2477.7</ele>
        <time>2021-02-20T13:07:43Z</time>
      </trkpt>
      <trkpt lat="45.16605" lon="5.9719">
        <ele>2477.7</ele>
        <time>2021-02-20T13:07:44Z</time>
      </trkpt>
      <trkpt lat="45.16605" lon="5.97191">
        <ele>2477.7</ele>
        <time>2021-02-20T13:07:45Z</time>
      </trkpt>
      <trkpt lat="45.16604" lon="5.97191">
        <ele>2477.7</ele>
        <time>2021-02-20T13:07:46Z</time>
      </trkpt>
      <trkpt lat="45.16604" lon="5.97191">
        <ele>2477.7</ele>
        <time>2021-02-20T13:07:47Z</time>
      </trkpt>
      <trkpt lat="45.16604" lon="5.97191">
        <ele>2477.7</ele>
        <time>2021-02-20T13:07:48Z</time>
      </trkpt>
      <trkpt lat="45.16604" lon="5.97192">
        <ele>2477.7</ele>
        <time>2021-02-20T13:07:49Z</time>
      </trkpt>
      <trkpt lat="45.16604" lon="5.97193">
        <ele>2478.3</ele>
        <time>2021-02-20T13:07:50Z</time>
      </trkpt>
      <trkpt lat="45.16604" lon="5.97194">
        <ele>2478.3</ele>
        <time>2021-02-20T13:07:51Z</time>
      </trkpt>
      <trkpt lat="45.16604" lon="5.97195">
        <ele>2478.3</ele>
        <time>2021-02-20T13:07:52Z</time>
      </trkpt>
      <trkpt lat="45.16604" lon="5.97195">
        <ele>2478.3</ele>
        <time>2021-02-20T13:07:53Z</time>
      </trkpt>
      <trkpt lat="45.16603" lon="5.97195">
        <ele>2478.3</ele>
        <time>2021-02-20T13:07:54Z</time>
      </trkpt>
      <trkpt lat="45.16603" lon="5.97196">
        <ele>2479.1</ele>
        <time>2021-02-20T13:07:55Z</time>
      </trkpt>
      <trkpt lat="45.16603" lon="5.97196">
        <ele>2479.1</ele>
        <time>2021-02-20T13:07:56Z</time>
      </trkpt>
      <trkpt lat="45.16603" lon="5.97197">
        <ele>2479.1</ele>
        <time>2021-02-20T13:07:57Z</time>
      </trkpt>
      <trkpt lat="45.16603" lon="5.97197">
        <ele>2478.3</ele>
        <time>2021-02-20T13:07:58Z</time>
      </trkpt>
      <trkpt lat="45.16604" lon="5.97197">
        <ele>2478.3</ele>
        <time>2021-02-20T13:07:59Z</time>
      </trkpt>
      <trkpt lat="45.16604" lon="5.97197">
        <ele>2478.3</ele>
        <time>2021-02-20T13:08:00Z</time>
      </trkpt>
      <trkpt lat="45.16603" lon="5.97197">
        <ele>2478.9</ele>
        <time>2021-02-20T13:08:01Z</time>
      </trkpt>
      <trkpt lat="45.16603" lon="5.97198">
        <ele>2479.6</ele>
        <time>2021-02-20T13:08:02Z</time>
      </trkpt>
      <trkpt lat="45.16603" lon="5.97199">
        <ele>2479.6</ele>
        <time>2021-02-20T13:08:03Z</time>
      </trkpt>
      <trkpt lat="45.16603" lon="5.97199">
        <ele>2478.9</ele>
        <time>2021-02-20T13:08:04Z</time>
      </trkpt>
      <trkpt lat="45.16604" lon="5.972">
        <ele>2478.9</ele>
        <time>2021-02-20T13:08:05Z</time>
      </trkpt>
      <trkpt lat="45.16603" lon="5.97201">
        <ele>2479.4</ele>
        <time>2021-02-20T13:08:06Z</time>
      </trkpt>
      <trkpt lat="45.16603" lon="5.97203">
        <ele>2480.1</ele>
        <time>2021-02-20T13:08:07Z</time>
      </trkpt>
      <trkpt lat="45.16603" lon="5.97204">
        <ele>2480.1</ele>
        <time>2021-02-20T13:08:08Z</time>
      </trkpt>
      <trkpt lat="45.16603" lon="5.97205">
        <ele>2480.1</ele>
        <time>2021-02-20T13:08:09Z</time>
      </trkpt>
      <trkpt lat="45.16602" lon="5.97207">
        <ele>2480.6</ele>
        <time>2021-02-20T13:08:10Z</time>
      </trkpt>
      <trkpt lat="45.16602" lon="5.97208">
        <ele>2480.6</ele>
        <time>2021-02-20T13:08:11Z</time>
      </trkpt>
      <trkpt lat="45.16601" lon="5.97209">
        <ele>2480.6</ele>
        <time>2021-02-20T13:08:12Z</time>
      </trkpt>
      <trkpt lat="45.16601" lon="5.9721">
        <ele>2481.1</ele>
        <time>2021-02-20T13:08:13Z</time>
      </trkpt>
      <trkpt lat="45.16601" lon="5.97211">
        <ele>2481.1</ele>
        <time>2021-02-20T13:08:14Z</time>
      </trkpt>
      <trkpt lat="45.166" lon="5.97212">
        <ele>2481.1</ele>
        <time>2021-02-20T13:08:15Z</time>
      </trkpt>
      <trkpt lat="45.166" lon="5.97212">
        <ele>2481.9</ele>
        <time>2021-02-20T13:08:16Z</time>
      </trkpt>
      <trkpt lat="45.166" lon="5.97213">
        <ele>2481.9</ele>
        <time>2021-02-20T13:08:17Z</time>
      </trkpt>
      <trkpt lat="45.166" lon="5.97214">
        <ele>2481.9</ele>
        <time>2021-02-20T13:08:18Z</time>
      </trkpt>
      <trkpt lat="45.16599" lon="5.97214">
        <ele>2482.4</ele>
        <time>2021-02-20T13:08:19Z</time>
      </trkpt>
      <trkpt lat="45.16599" lon="5.97214">
        <ele>2482.4</ele>
        <time>2021-02-20T13:08:20Z</time>
      </trkpt>
      <trkpt lat="45.16599" lon="5.97214">
        <ele>2482.4</ele>
        <time>2021-02-20T13:08:21Z</time>
      </trkpt>
      <trkpt lat="45.16599" lon="5.97216">
        <ele>2482.4</ele>
        <time>2021-02-20T13:08:22Z</time>
      </trkpt>
      <trkpt lat="45.166" lon="5.97217">
        <ele>2482.4</ele>
        <time>2021-02-20T13:08:23Z</time>
      </trkpt>
      <trkpt lat="45.166" lon="5.97218">
        <ele>2482.4</ele>
        <time>2021-02-20T13:08:24Z</time>
      </trkpt>
      <trkpt lat="45.166" lon="5.97218">
        <ele>2482.4</ele>
        <time>2021-02-20T13:08:25Z</time>
      </trkpt>
      <trkpt lat="45.166" lon="5.97219">
        <ele>2483</ele>
        <time>2021-02-20T13:08:26Z</time>
      </trkpt>
      <trkpt lat="45.16599" lon="5.97222">
        <ele>2483</ele>
        <time>2021-02-20T13:08:27Z</time>
      </trkpt>
      <trkpt lat="45.16599" lon="5.97223">
        <ele>2483.6</ele>
        <time>2021-02-20T13:08:28Z</time>
      </trkpt>
      <trkpt lat="45.16599" lon="5.97224">
        <ele>2483.6</ele>
        <time>2021-02-20T13:08:29Z</time>
      </trkpt>
      <trkpt lat="45.16599" lon="5.97225">
        <ele>2483.6</ele>
        <time>2021-02-20T13:08:30Z</time>
      </trkpt>
      <trkpt lat="45.16599" lon="5.97225">
        <ele>2483.6</ele>
        <time>2021-02-20T13:08:31Z</time>
      </trkpt>
      <trkpt lat="45.16599" lon="5.97226">
        <ele>2483.6</ele>
        <time>2021-02-20T13:08:32Z</time>
      </trkpt>
      <trkpt lat="45.16599" lon="5.97226">
        <ele>2483.6</ele>
        <time>2021-02-20T13:08:33Z</time>
      </trkpt>
      <trkpt lat="45.16599" lon="5.97226">
        <ele>2483.6</ele>
        <time>2021-02-20T13:08:34Z</time>
      </trkpt>
      <trkpt lat="45.16599" lon="5.97226">
        <ele>2483.6</ele>
        <time>2021-02-20T13:08:35Z</time>
      </trkpt>
      <trkpt lat="45.16599" lon="5.97226">
        <ele>2483.6</ele>
        <time>2021-02-20T13:08:36Z</time>
      </trkpt>
      <trkpt lat="45.16599" lon="5.97226">
        <ele>2483.6</ele>
        <time>2021-02-20T13:08:37Z</time>
      </trkpt>
      <trkpt lat="45.16599" lon="5.97226">
        <ele>2483.6</ele>
        <time>2021-02-20T13:08:38Z</time>
      </trkpt>
      <trkpt lat="45.166" lon="5.97226">
        <ele>2483.6</ele>
        <time>2021-02-20T13:08:39Z</time>
      </trkpt>
      <trkpt lat="45.166" lon="5.97227">
        <ele>2483.6</ele>
        <time>2021-02-20T13:08:40Z</time>
      </trkpt>
      <trkpt lat="45.166" lon="5.97227">
        <ele>2483.6</ele>
        <time>2021-02-20T13:08:41Z</time>
      </trkpt>
      <trkpt lat="45.166" lon="5.97228">
        <ele>2484.3</ele>
        <time>2021-02-20T13:08:42Z</time>
      </trkpt>
      <trkpt lat="45.166" lon="5.97228">
        <ele>2484.3</ele>
        <time>2021-02-20T13:08:43Z</time>
      </trkpt>
      <trkpt lat="45.166" lon="5.97228">
        <ele>2484.3</ele>
        <time>2021-02-20T13:08:44Z</time>
      </trkpt>
      <trkpt lat="45.166" lon="5.9723">
        <ele>2484.3</ele>
        <time>2021-02-20T13:08:45Z</time>
      </trkpt>
      <trkpt lat="45.16599" lon="5.97231">
        <ele>2484.3</ele>
        <time>2021-02-20T13:08:46Z</time>
      </trkpt>
      <trkpt lat="45.16599" lon="5.97231">
        <ele>2484.3</ele>
        <time>2021-02-20T13:08:47Z</time>
      </trkpt>
      <trkpt lat="45.16599" lon="5.97232">
        <ele>2485</ele>
        <time>2021-02-20T13:08:48Z</time>
      </trkpt>
      <trkpt lat="45.16599" lon="5.97232">
        <ele>2485</ele>
        <time>2021-02-20T13:08:49Z</time>
      </trkpt>
      <trkpt lat="45.16598" lon="5.97233">
        <ele>2485</ele>
        <time>2021-02-20T13:08:50Z</time>
      </trkpt>
      <trkpt lat="45.16598" lon="5.97234">
        <ele>2485</ele>
        <time>2021-02-20T13:08:51Z</time>
      </trkpt>
      <trkpt lat="45.16598" lon="5.97234">
        <ele>2485</ele>
        <time>2021-02-20T13:08:52Z</time>
      </trkpt>
      <trkpt lat="45.16598" lon="5.97235">
        <ele>2485</ele>
        <time>2021-02-20T13:08:53Z</time>
      </trkpt>
      <trkpt lat="45.16598" lon="5.97236">
        <ele>2485</ele>
        <time>2021-02-20T13:08:54Z</time>
      </trkpt>
      <trkpt lat="45.16598" lon="5.97237">
        <ele>2485.8</ele>
        <time>2021-02-20T13:08:55Z</time>
      </trkpt>
      <trkpt lat="45.16598" lon="5.97238">
        <ele>2485.8</ele>
        <time>2021-02-20T13:08:56Z</time>
      </trkpt>
      <trkpt lat="45.16598" lon="5.97239">
        <ele>2485.8</ele>
        <time>2021-02-20T13:08:57Z</time>
      </trkpt>
      <trkpt lat="45.16597" lon="5.9724">
        <ele>2487.6</ele>
        <time>2021-02-20T13:08:58Z</time>
      </trkpt>
      <trkpt lat="45.16596" lon="5.97241">
        <ele>2487.6</ele>
        <time>2021-02-20T13:08:59Z</time>
      </trkpt>
      <trkpt lat="45.16596" lon="5.97243">
        <ele>2487.6</ele>
        <time>2021-02-20T13:09:00Z</time>
      </trkpt>
      <trkpt lat="45.16595" lon="5.97244">
        <ele>2487.6</ele>
        <time>2021-02-20T13:09:01Z</time>
      </trkpt>
      <trkpt lat="45.16595" lon="5.97245">
        <ele>2488.5</ele>
        <time>2021-02-20T13:09:02Z</time>
      </trkpt>
      <trkpt lat="45.16595" lon="5.97246">
        <ele>2488.5</ele>
        <time>2021-02-20T13:09:03Z</time>
      </trkpt>
      <trkpt lat="45.16595" lon="5.97247">
        <ele>2488.5</ele>
        <time>2021-02-20T13:09:04Z</time>
      </trkpt>
      <trkpt lat="45.16595" lon="5.97248">
        <ele>2488.5</ele>
        <time>2021-02-20T13:09:05Z</time>
      </trkpt>
      <trkpt lat="45.16595" lon="5.97249">
        <ele>2489.5</ele>
        <time>2021-02-20T13:09:06Z</time>
      </trkpt>
      <trkpt lat="45.16595" lon="5.9725">
        <ele>2489.5</ele>
        <time>2021-02-20T13:09:07Z</time>
      </trkpt>
      <trkpt lat="45.16596" lon="5.97251">
        <ele>2489.5</ele>
        <time>2021-02-20T13:09:08Z</time>
      </trkpt>
      <trkpt lat="45.16596" lon="5.97252">
        <ele>2489.5</ele>
        <time>2021-02-20T13:09:09Z</time>
      </trkpt>
      <trkpt lat="45.16596" lon="5.97252">
        <ele>2489.5</ele>
        <time>2021-02-20T13:09:10Z</time>
      </trkpt>
      <trkpt lat="45.16597" lon="5.97253">
        <ele>2489.5</ele>
        <time>2021-02-20T13:09:11Z</time>
      </trkpt>
      <trkpt lat="45.16597" lon="5.97253">
        <ele>2490.4</ele>
        <time>2021-02-20T13:09:12Z</time>
      </trkpt>
      <trkpt lat="45.16597" lon="5.97255">
        <ele>2490.4</ele>
        <time>2021-02-20T13:09:13Z</time>
      </trkpt>
      <trkpt lat="45.16596" lon="5.97256">
        <ele>2490.4</ele>
        <time>2021-02-20T13:09:14Z</time>
      </trkpt>
      <trkpt lat="45.16596" lon="5.97257">
        <ele>2490.4</ele>
        <time>2021-02-20T13:09:15Z</time>
      </trkpt>
      <trkpt lat="45.16595" lon="5.97258">
        <ele>2491.5</ele>
        <time>2021-02-20T13:09:16Z</time>
      </trkpt>
      <trkpt lat="45.16595" lon="5.97259">
        <ele>2491.5</ele>
        <time>2021-02-20T13:09:17Z</time>
      </trkpt>
      <trkpt lat="45.16594" lon="5.9726">
        <ele>2491.5</ele>
        <time>2021-02-20T13:09:18Z</time>
      </trkpt>
      <trkpt lat="45.16594" lon="5.9726">
        <ele>2492.5</ele>
        <time>2021-02-20T13:09:19Z</time>
      </trkpt>
      <trkpt lat="45.16594" lon="5.97261">
        <ele>2492.5</ele>
        <time>2021-02-20T13:09:20Z</time>
      </trkpt>
      <trkpt lat="45.16594" lon="5.97263">
        <ele>2493.6</ele>
        <time>2021-02-20T13:09:21Z</time>
      </trkpt>
      <trkpt lat="45.16593" lon="5.97264">
        <ele>2493.6</ele>
        <time>2021-02-20T13:09:22Z</time>
      </trkpt>
      <trkpt lat="45.16593" lon="5.97265">
        <ele>2493.6</ele>
        <time>2021-02-20T13:09:23Z</time>
      </trkpt>
      <trkpt lat="45.16593" lon="5.97265">
        <ele>2493.6</ele>
        <time>2021-02-20T13:09:24Z</time>
      </trkpt>
      <trkpt lat="45.16593" lon="5.97265">
        <ele>2493.6</ele>
        <time>2021-02-20T13:09:25Z</time>
      </trkpt>
      <trkpt lat="45.16593" lon="5.97266">
        <ele>2493.6</ele>
        <time>2021-02-20T13:09:26Z</time>
      </trkpt>
      <trkpt lat="45.16593" lon="5.97266">
        <ele>2494.9</ele>
        <time>2021-02-20T13:09:27Z</time>
      </trkpt>
      <trkpt lat="45.16593" lon="5.97266">
        <ele>2494.9</ele>
        <time>2021-02-20T13:09:28Z</time>
      </trkpt>
      <trkpt lat="45.16594" lon="5.97266">
        <ele>2494.9</ele>
        <time>2021-02-20T13:09:29Z</time>
      </trkpt>
      <trkpt lat="45.16594" lon="5.97266">
        <ele>2494.9</ele>
        <time>2021-02-20T13:09:30Z</time>
      </trkpt>
      <trkpt lat="45.16594" lon="5.97266">
        <ele>2493.6</ele>
        <time>2021-02-20T13:09:31Z</time>
      </trkpt>
      <trkpt lat="45.16594" lon="5.97265">
        <ele>2493.6</ele>
        <time>2021-02-20T13:09:32Z</time>
      </trkpt>
      <trkpt lat="45.16594" lon="5.97265">
        <ele>2493.6</ele>
        <time>2021-02-20T13:09:33Z</time>
      </trkpt>
      <trkpt lat="45.16594" lon="5.97265">
        <ele>2493.6</ele>
        <time>2021-02-20T13:09:34Z</time>
      </trkpt>
      <trkpt lat="45.16594" lon="5.97264">
        <ele>2492.6</ele>
        <time>2021-02-20T13:09:35Z</time>
      </trkpt>
      <trkpt lat="45.16594" lon="5.97264">
        <ele>2492.6</ele>
        <time>2021-02-20T13:09:36Z</time>
      </trkpt>
      <trkpt lat="45.16595" lon="5.97264">
        <ele>2492.6</ele>
        <time>2021-02-20T13:09:37Z</time>
      </trkpt>
      <trkpt lat="45.16595" lon="5.97264">
        <ele>2492.6</ele>
        <time>2021-02-20T13:09:38Z</time>
      </trkpt>
      <trkpt lat="45.16595" lon="5.97263">
        <ele>2492.6</ele>
        <time>2021-02-20T13:09:39Z</time>
      </trkpt>
      <trkpt lat="45.16595" lon="5.97263">
        <ele>2492.6</ele>
        <time>2021-02-20T13:09:40Z</time>
      </trkpt>
      <trkpt lat="45.16595" lon="5.97263">
        <ele>2492.6</ele>
        <time>2021-02-20T13:09:41Z</time>
      </trkpt>
      <trkpt lat="45.16595" lon="5.97262">
        <ele>2492.6</ele>
        <time>2021-02-20T13:09:42Z</time>
      </trkpt>
      <trkpt lat="45.16595" lon="5.97262">
        <ele>2492.6</ele>
        <time>2021-02-20T13:09:43Z</time>
      </trkpt>
      <trkpt lat="45.16595" lon="5.97262">
        <ele>2492.6</ele>
        <time>2021-02-20T13:09:44Z</time>
      </trkpt>
      <trkpt lat="45.16596" lon="5.97262">
        <ele>2492.6</ele>
        <time>2021-02-20T13:09:45Z</time>
      </trkpt>
      <trkpt lat="45.16596" lon="5.97261">
        <ele>2491.5</ele>
        <time>2021-02-20T13:09:46Z</time>
      </trkpt>
      <trkpt lat="45.16596" lon="5.97261">
        <ele>2491.5</ele>
        <time>2021-02-20T13:09:47Z</time>
      </trkpt>
      <trkpt lat="45.16595" lon="5.97259">
        <ele>2491.5</ele>
        <time>2021-02-20T13:09:48Z</time>
      </trkpt>
      <trkpt lat="45.16595" lon="5.97258">
        <ele>2491.5</ele>
        <time>2021-02-20T13:09:49Z</time>
      </trkpt>
      <trkpt lat="45.16594" lon="5.97257">
        <ele>2490.4</ele>
        <time>2021-02-20T13:09:50Z</time>
      </trkpt>
      <trkpt lat="45.16594" lon="5.97256">
        <ele>2491.5</ele>
        <time>2021-02-20T13:09:51Z</time>
      </trkpt>
      <trkpt lat="45.16594" lon="5.97255">
        <ele>2491.5</ele>
        <time>2021-02-20T13:09:52Z</time>
      </trkpt>
      <trkpt lat="45.16593" lon="5.97254">
        <ele>2491.5</ele>
        <time>2021-02-20T13:09:53Z</time>
      </trkpt>
      <trkpt lat="45.16593" lon="5.97253">
        <ele>2491.5</ele>
        <time>2021-02-20T13:09:54Z</time>
      </trkpt>
      <trkpt lat="45.16593" lon="5.97253">
        <ele>2490.5</ele>
        <time>2021-02-20T13:09:55Z</time>
      </trkpt>
      <trkpt lat="45.16592" lon="5.97253">
        <ele>2490.5</ele>
        <time>2021-02-20T13:09:56Z</time>
      </trkpt>
      <trkpt lat="45.16592" lon="5.97252">
        <ele>2490.5</ele>
        <time>2021-02-20T13:09:57Z</time>
      </trkpt>
      <trkpt lat="45.16591" lon="5.97251">
        <ele>2491.7</ele>
        <time>2021-02-20T13:09:58Z</time>
      </trkpt>
      <trkpt lat="45.1659" lon="5.97248">
        <ele>2490.7</ele>
        <time>2021-02-20T13:09:59Z</time>
      </trkpt>
      <trkpt lat="45.1659" lon="5.97246">
        <ele>2490.7</ele>
        <time>2021-02-20T13:10:00Z</time>
      </trkpt>
      <trkpt lat="45.1659" lon="5.97245">
        <ele>2490.7</ele>
        <time>2021-02-20T13:10:01Z</time>
      </trkpt>
      <trkpt lat="45.1659" lon="5.97245">
        <ele>2490.7</ele>
        <time>2021-02-20T13:10:02Z</time>
      </trkpt>
      <trkpt lat="45.1659" lon="5.97244">
        <ele>2489.8</ele>
        <time>2021-02-20T13:10:03Z</time>
      </trkpt>
      <trkpt lat="45.16589" lon="5.97243">
        <ele>2489.8</ele>
        <time>2021-02-20T13:10:04Z</time>
      </trkpt>
      <trkpt lat="45.16589" lon="5.97242">
        <ele>2489.8</ele>
        <time>2021-02-20T13:10:05Z</time>
      </trkpt>
      <trkpt lat="45.16589" lon="5.97242">
        <ele>2489.8</ele>
        <time>2021-02-20T13:10:06Z</time>
      </trkpt>
      <trkpt lat="45.16588" lon="5.97241">
        <ele>2489.8</ele>
        <time>2021-02-20T13:10:07Z</time>
      </trkpt>
      <trkpt lat="45.16588" lon="5.97241">
        <ele>2491.1</ele>
        <time>2021-02-20T13:10:08Z</time>
      </trkpt>
      <trkpt lat="45.16588" lon="5.9724">
        <ele>2491.1</ele>
        <time>2021-02-20T13:10:09Z</time>
      </trkpt>
      <trkpt lat="45.16587" lon="5.97239">
        <ele>2490.2</ele>
        <time>2021-02-20T13:10:10Z</time>
      </trkpt>
      <trkpt lat="45.16587" lon="5.97239">
        <ele>2490.2</ele>
        <time>2021-02-20T13:10:11Z</time>
      </trkpt>
      <trkpt lat="45.16586" lon="5.97238">
        <ele>2490.2</ele>
        <time>2021-02-20T13:10:12Z</time>
      </trkpt>
      <trkpt lat="45.16586" lon="5.97238">
        <ele>2490.2</ele>
        <time>2021-02-20T13:10:13Z</time>
      </trkpt>
      <trkpt lat="45.16585" lon="5.97237">
        <ele>2490.2</ele>
        <time>2021-02-20T13:10:14Z</time>
      </trkpt>
      <trkpt lat="45.16585" lon="5.97236">
        <ele>2491.6</ele>
        <time>2021-02-20T13:10:15Z</time>
      </trkpt>
      <trkpt lat="45.16585" lon="5.97236">
        <ele>2490.7</ele>
        <time>2021-02-20T13:10:16Z</time>
      </trkpt>
      <trkpt lat="45.16584" lon="5.97235">
        <ele>2490.7</ele>
        <time>2021-02-20T13:10:17Z</time>
      </trkpt>
      <trkpt lat="45.16584" lon="5.97234">
        <ele>2490.7</ele>
        <time>2021-02-20T13:10:18Z</time>
      </trkpt>
      <trkpt lat="45.16583" lon="5.97234">
        <ele>2490.7</ele>
        <time>2021-02-20T13:10:19Z</time>
      </trkpt>
      <trkpt lat="45.16582" lon="5.97234">
        <ele>2490.7</ele>
        <time>2021-02-20T13:10:20Z</time>
      </trkpt>
      <trkpt lat="45.16582" lon="5.97233">
        <ele>2492.2</ele>
        <time>2021-02-20T13:10:21Z</time>
      </trkpt>
      <trkpt lat="45.16581" lon="5.97233">
        <ele>2492.2</ele>
        <time>2021-02-20T13:10:22Z</time>
      </trkpt>
      <trkpt lat="45.16581" lon="5.97233">
        <ele>2492.2</ele>
        <time>2021-02-20T13:10:23Z</time>
      </trkpt>
      <trkpt lat="45.16581" lon="5.97233">
        <ele>2492.2</ele>
        <time>2021-02-20T13:10:24Z</time>
      </trkpt>
      <trkpt lat="45.16581" lon="5.97233">
        <ele>2492.2</ele>
        <time>2021-02-20T13:10:25Z</time>
      </trkpt>
      <trkpt lat="45.16582" lon="5.97234">
        <ele>2492.2</ele>
        <time>2021-02-20T13:10:26Z</time>
      </trkpt>
      <trkpt lat="45.16582" lon="5.97235">
        <ele>2492.2</ele>
        <time>2021-02-20T13:10:27Z</time>
      </trkpt>
      <trkpt lat="45.16582" lon="5.97235">
        <ele>2492.2</ele>
        <time>2021-02-20T13:10:28Z</time>
      </trkpt>
      <trkpt lat="45.16582" lon="5.97237">
        <ele>2493</ele>
        <time>2021-02-20T13:10:29Z</time>
      </trkpt>
      <trkpt lat="45.16582" lon="5.97238">
        <ele>2493</ele>
        <time>2021-02-20T13:10:30Z</time>
      </trkpt>
      <trkpt lat="45.16582" lon="5.97239">
        <ele>2493</ele>
        <time>2021-02-20T13:10:31Z</time>
      </trkpt>
      <trkpt lat="45.16582" lon="5.9724">
        <ele>2493</ele>
        <time>2021-02-20T13:10:32Z</time>
      </trkpt>
      <trkpt lat="45.16582" lon="5.97241">
        <ele>2493.9</ele>
        <time>2021-02-20T13:10:33Z</time>
      </trkpt>
      <trkpt lat="45.16582" lon="5.97242">
        <ele>2493.9</ele>
        <time>2021-02-20T13:10:34Z</time>
      </trkpt>
      <trkpt lat="45.16582" lon="5.97244">
        <ele>2493.9</ele>
        <time>2021-02-20T13:10:35Z</time>
      </trkpt>
      <trkpt lat="45.16581" lon="5.97246">
        <ele>2494.9</ele>
        <time>2021-02-20T13:10:36Z</time>
      </trkpt>
      <trkpt lat="45.16581" lon="5.97247">
        <ele>2494.9</ele>
        <time>2021-02-20T13:10:37Z</time>
      </trkpt>
      <trkpt lat="45.16581" lon="5.97247">
        <ele>2494.9</ele>
        <time>2021-02-20T13:10:38Z</time>
      </trkpt>
      <trkpt lat="45.16581" lon="5.97247">
        <ele>2494.9</ele>
        <time>2021-02-20T13:10:39Z</time>
      </trkpt>
      <trkpt lat="45.16581" lon="5.97248">
        <ele>2494.9</ele>
        <time>2021-02-20T13:10:40Z</time>
      </trkpt>
      <trkpt lat="45.16581" lon="5.97249">
        <ele>2495.8</ele>
        <time>2021-02-20T13:10:41Z</time>
      </trkpt>
      <trkpt lat="45.16581" lon="5.9725">
        <ele>2495.8</ele>
        <time>2021-02-20T13:10:42Z</time>
      </trkpt>
      <trkpt lat="45.16581" lon="5.9725">
        <ele>2495.8</ele>
        <time>2021-02-20T13:10:43Z</time>
      </trkpt>
      <trkpt lat="45.16581" lon="5.97251">
        <ele>2495.8</ele>
        <time>2021-02-20T13:10:44Z</time>
      </trkpt>
      <trkpt lat="45.16581" lon="5.97252">
        <ele>2495.8</ele>
        <time>2021-02-20T13:10:45Z</time>
      </trkpt>
      <trkpt lat="45.16581" lon="5.97253">
        <ele>2495.8</ele>
        <time>2021-02-20T13:10:46Z</time>
      </trkpt>
      <trkpt lat="45.16581" lon="5.97253">
        <ele>2496.8</ele>
        <time>2021-02-20T13:10:47Z</time>
      </trkpt>
      <trkpt lat="45.16581" lon="5.97254">
        <ele>2496.8</ele>
        <time>2021-02-20T13:10:48Z</time>
      </trkpt>
      <trkpt lat="45.16581" lon="5.97254">
        <ele>2496.8</ele>
        <time>2021-02-20T13:10:49Z</time>
      </trkpt>
      <trkpt lat="45.16581" lon="5.97256">
        <ele>2496.8</ele>
        <time>2021-02-20T13:10:50Z</time>
      </trkpt>
      <trkpt lat="45.1658" lon="5.97257">
        <ele>2497.9</ele>
        <time>2021-02-20T13:10:51Z</time>
      </trkpt>
      <trkpt lat="45.1658" lon="5.97258">
        <ele>2497.9</ele>
        <time>2021-02-20T13:10:52Z</time>
      </trkpt>
      <trkpt lat="45.1658" lon="5.97259">
        <ele>2497.9</ele>
        <time>2021-02-20T13:10:53Z</time>
      </trkpt>
      <trkpt lat="45.1658" lon="5.9726">
        <ele>2497.9</ele>
        <time>2021-02-20T13:10:54Z</time>
      </trkpt>
      <trkpt lat="45.1658" lon="5.9726">
        <ele>2497.9</ele>
        <time>2021-02-20T13:10:55Z</time>
      </trkpt>
      <trkpt lat="45.1658" lon="5.97261">
        <ele>2497.9</ele>
        <time>2021-02-20T13:10:56Z</time>
      </trkpt>
      <trkpt lat="45.16579" lon="5.97263">
        <ele>2499</ele>
        <time>2021-02-20T13:10:57Z</time>
      </trkpt>
      <trkpt lat="45.16579" lon="5.97265">
        <ele>2500.5</ele>
        <time>2021-02-20T13:10:58Z</time>
      </trkpt>
      <trkpt lat="45.16579" lon="5.97268">
        <ele>2501.7</ele>
        <time>2021-02-20T13:10:59Z</time>
      </trkpt>
      <trkpt lat="45.16579" lon="5.9727">
        <ele>2501.7</ele>
        <time>2021-02-20T13:11:00Z</time>
      </trkpt>
      <trkpt lat="45.16579" lon="5.97271">
        <ele>2503.1</ele>
        <time>2021-02-20T13:11:01Z</time>
      </trkpt>
      <trkpt lat="45.16579" lon="5.97273">
        <ele>2503.1</ele>
        <time>2021-02-20T13:11:02Z</time>
      </trkpt>
      <trkpt lat="45.16578" lon="5.97276">
        <ele>2504.6</ele>
        <time>2021-02-20T13:11:03Z</time>
      </trkpt>
      <trkpt lat="45.16578" lon="5.97278">
        <ele>2504.6</ele>
        <time>2021-02-20T13:11:04Z</time>
      </trkpt>
      <trkpt lat="45.16578" lon="5.9728">
        <ele>2506.2</ele>
        <time>2021-02-20T13:11:05Z</time>
      </trkpt>
      <trkpt lat="45.16577" lon="5.97281">
        <ele>2506.2</ele>
        <time>2021-02-20T13:11:06Z</time>
      </trkpt>
      <trkpt lat="45.16578" lon="5.97283">
        <ele>2506.2</ele>
        <time>2021-02-20T13:11:07Z</time>
      </trkpt>
      <trkpt lat="45.16578" lon="5.97284">
        <ele>2507.9</ele>
        <time>2021-02-20T13:11:08Z</time>
      </trkpt>
      <trkpt lat="45.16578" lon="5.97285">
        <ele>2507.9</ele>
        <time>2021-02-20T13:11:09Z</time>
      </trkpt>
      <trkpt lat="45.16578" lon="5.97286">
        <ele>2507.9</ele>
        <time>2021-02-20T13:11:10Z</time>
      </trkpt>
      <trkpt lat="45.16578" lon="5.97287">
        <ele>2507.9</ele>
        <time>2021-02-20T13:11:11Z</time>
      </trkpt>
      <trkpt lat="45.16578" lon="5.97288">
        <ele>2509.5</ele>
        <time>2021-02-20T13:11:12Z</time>
      </trkpt>
      <trkpt lat="45.16577" lon="5.97289">
        <ele>2509.5</ele>
        <time>2021-02-20T13:11:13Z</time>
      </trkpt>
      <trkpt lat="45.16578" lon="5.9729">
        <ele>2509.5</ele>
        <time>2021-02-20T13:11:14Z</time>
      </trkpt>
      <trkpt lat="45.16578" lon="5.97291">
        <ele>2509.5</ele>
        <time>2021-02-20T13:11:15Z</time>
      </trkpt>
      <trkpt lat="45.16578" lon="5.97292">
        <ele>2511.1</ele>
        <time>2021-02-20T13:11:16Z</time>
      </trkpt>
      <trkpt lat="45.16578" lon="5.97293">
        <ele>2511.1</ele>
        <time>2021-02-20T13:11:17Z</time>
      </trkpt>
      <trkpt lat="45.16579" lon="5.97294">
        <ele>2511.1</ele>
        <time>2021-02-20T13:11:18Z</time>
      </trkpt>
      <trkpt lat="45.16579" lon="5.97295">
        <ele>2511.1</ele>
        <time>2021-02-20T13:11:19Z</time>
      </trkpt>
      <trkpt lat="45.16579" lon="5.97295">
        <ele>2511.1</ele>
        <time>2021-02-20T13:11:20Z</time>
      </trkpt>
      <trkpt lat="45.16579" lon="5.97295">
        <ele>2511.1</ele>
        <time>2021-02-20T13:11:21Z</time>
      </trkpt>
      <trkpt lat="45.16579" lon="5.97295">
        <ele>2511.1</ele>
        <time>2021-02-20T13:11:22Z</time>
      </trkpt>
      <trkpt lat="45.16579" lon="5.97295">
        <ele>2511.1</ele>
        <time>2021-02-20T13:11:23Z</time>
      </trkpt>
      <trkpt lat="45.16578" lon="5.97289">
        <ele>2509.5</ele>
        <time>2021-02-20T13:11:24Z</time>
      </trkpt>
      <trkpt lat="45.16578" lon="5.97287">
        <ele>2509.5</ele>
        <time>2021-02-20T13:11:25Z</time>
      </trkpt>
      <trkpt lat="45.16577" lon="5.97286">
        <ele>2507.9</ele>
        <time>2021-02-20T13:11:26Z</time>
      </trkpt>
      <trkpt lat="45.16577" lon="5.97285">
        <ele>2507.9</ele>
        <time>2021-02-20T13:11:27Z</time>
      </trkpt>
      <trkpt lat="45.16576" lon="5.97284">
        <ele>2507.9</ele>
        <time>2021-02-20T13:11:28Z</time>
      </trkpt>
      <trkpt lat="45.16576" lon="5.97283">
        <ele>2506.2</ele>
        <time>2021-02-20T13:11:29Z</time>
      </trkpt>
      <trkpt lat="45.16576" lon="5.97282">
        <ele>2506.2</ele>
        <time>2021-02-20T13:11:30Z</time>
      </trkpt>
      <trkpt lat="45.16576" lon="5.97281">
        <ele>2507.6</ele>
        <time>2021-02-20T13:11:31Z</time>
      </trkpt>
      <trkpt lat="45.16576" lon="5.97281">
        <ele>2507.6</ele>
        <time>2021-02-20T13:11:32Z</time>
      </trkpt>
      <trkpt lat="45.16576" lon="5.97282">
        <ele>2507.6</ele>
        <time>2021-02-20T13:11:33Z</time>
      </trkpt>
      <trkpt lat="45.16576" lon="5.97282">
        <ele>2507.6</ele>
        <time>2021-02-20T13:11:34Z</time>
      </trkpt>
      <trkpt lat="45.16575" lon="5.97281">
        <ele>2507.6</ele>
        <time>2021-02-20T13:11:35Z</time>
      </trkpt>
      <trkpt lat="45.16575" lon="5.97281">
        <ele>2507.6</ele>
        <time>2021-02-20T13:11:36Z</time>
      </trkpt>
      <trkpt lat="45.16575" lon="5.97279">
        <ele>2507.6</ele>
        <time>2021-02-20T13:11:37Z</time>
      </trkpt>
      <trkpt lat="45.16574" lon="5.97279">
        <ele>2507.6</ele>
        <time>2021-02-20T13:11:38Z</time>
      </trkpt>
      <trkpt lat="45.16574" lon="5.97279">
        <ele>2507.6</ele>
        <time>2021-02-20T13:11:39Z</time>
      </trkpt>
      <trkpt lat="45.16574" lon="5.97278">
        <ele>2506</ele>
        <time>2021-02-20T13:11:40Z</time>
      </trkpt>
      <trkpt lat="45.16573" lon="5.97278">
        <ele>2507.3</ele>
        <time>2021-02-20T13:11:41Z</time>
      </trkpt>
      <trkpt lat="45.16573" lon="5.97276">
        <ele>2507.3</ele>
        <time>2021-02-20T13:11:42Z</time>
      </trkpt>
      <trkpt lat="45.16572" lon="5.97275">
        <ele>2507.3</ele>
        <time>2021-02-20T13:11:43Z</time>
      </trkpt>
      <trkpt lat="45.16572" lon="5.97274">
        <ele>2505.8</ele>
        <time>2021-02-20T13:11:44Z</time>
      </trkpt>
      <trkpt lat="45.16572" lon="5.97273">
        <ele>2505.8</ele>
        <time>2021-02-20T13:11:45Z</time>
      </trkpt>
      <trkpt lat="45.16572" lon="5.97271">
        <ele>2505.8</ele>
        <time>2021-02-20T13:11:46Z</time>
      </trkpt>
      <trkpt lat="45.16571" lon="5.9727">
        <ele>2504.4</ele>
        <time>2021-02-20T13:11:47Z</time>
      </trkpt>
      <trkpt lat="45.16571" lon="5.97269">
        <ele>2504.4</ele>
        <time>2021-02-20T13:11:48Z</time>
      </trkpt>
      <trkpt lat="45.1657" lon="5.97269">
        <ele>2504.4</ele>
        <time>2021-02-20T13:11:49Z</time>
      </trkpt>
      <trkpt lat="45.1657" lon="5.97268">
        <ele>2504.4</ele>
        <time>2021-02-20T13:11:50Z</time>
      </trkpt>
      <trkpt lat="45.1657" lon="5.97268">
        <ele>2505.8</ele>
        <time>2021-02-20T13:11:51Z</time>
      </trkpt>
      <trkpt lat="45.1657" lon="5.97267">
        <ele>2505.8</ele>
        <time>2021-02-20T13:11:52Z</time>
      </trkpt>
      <trkpt lat="45.16569" lon="5.97266">
        <ele>2505.8</ele>
        <time>2021-02-20T13:11:53Z</time>
      </trkpt>
      <trkpt lat="45.16569" lon="5.97266">
        <ele>2505.8</ele>
        <time>2021-02-20T13:11:54Z</time>
      </trkpt>
      <trkpt lat="45.16569" lon="5.97265">
        <ele>2504.5</ele>
        <time>2021-02-20T13:11:55Z</time>
      </trkpt>
      <trkpt lat="45.16569" lon="5.97265">
        <ele>2504.5</ele>
        <time>2021-02-20T13:11:56Z</time>
      </trkpt>
      <trkpt lat="45.16568" lon="5.97265">
        <ele>2504.5</ele>
        <time>2021-02-20T13:11:57Z</time>
      </trkpt>
      <trkpt lat="45.16568" lon="5.97264">
        <ele>2504.5</ele>
        <time>2021-02-20T13:11:58Z</time>
      </trkpt>
      <trkpt lat="45.16567" lon="5.97263">
        <ele>2504.5</ele>
        <time>2021-02-20T13:11:59Z</time>
      </trkpt>
      <trkpt lat="45.16567" lon="5.97263">
        <ele>2506</ele>
        <time>2021-02-20T13:12:00Z</time>
      </trkpt>
      <trkpt lat="45.16566" lon="5.97261">
        <ele>2504.8</ele>
        <time>2021-02-20T13:12:01Z</time>
      </trkpt>
      <trkpt lat="45.16566" lon="5.97259">
        <ele>2504.8</ele>
        <time>2021-02-20T13:12:02Z</time>
      </trkpt>
      <trkpt lat="45.16566" lon="5.97258">
        <ele>2504.8</ele>
        <time>2021-02-20T13:12:03Z</time>
      </trkpt>
      <trkpt lat="45.16565" lon="5.97257">
        <ele>2504.8</ele>
        <time>2021-02-20T13:12:04Z</time>
      </trkpt>
      <trkpt lat="45.16565" lon="5.97257">
        <ele>2503.8</ele>
        <time>2021-02-20T13:12:05Z</time>
      </trkpt>
      <trkpt lat="45.16564" lon="5.97257">
        <ele>2504.8</ele>
        <time>2021-02-20T13:12:06Z</time>
      </trkpt>
      <trkpt lat="45.16564" lon="5.97257">
        <ele>2505.3</ele>
        <time>2021-02-20T13:12:07Z</time>
      </trkpt>
      <trkpt lat="45.16563" lon="5.97256">
        <ele>2505.3</ele>
        <time>2021-02-20T13:12:08Z</time>
      </trkpt>
      <trkpt lat="45.16563" lon="5.97256">
        <ele>2505.3</ele>
        <time>2021-02-20T13:12:09Z</time>
      </trkpt>
      <trkpt lat="45.16563" lon="5.97256">
        <ele>2505.3</ele>
        <time>2021-02-20T13:12:10Z</time>
      </trkpt>
      <trkpt lat="45.16563" lon="5.97256">
        <ele>2505.3</ele>
        <time>2021-02-20T13:12:11Z</time>
      </trkpt>
      <trkpt lat="45.16562" lon="5.97256">
        <ele>2505.3</ele>
        <time>2021-02-20T13:12:12Z</time>
      </trkpt>
      <trkpt lat="45.16562" lon="5.97256">
        <ele>2505.3</ele>
        <time>2021-02-20T13:12:13Z</time>
      </trkpt>
      <trkpt lat="45.16561" lon="5.97255">
        <ele>2505.3</ele>
        <time>2021-02-20T13:12:14Z</time>
      </trkpt>
      <trkpt lat="45.16561" lon="5.97254">
        <ele>2507</ele>
        <time>2021-02-20T13:12:15Z</time>
      </trkpt>
      <trkpt lat="45.1656" lon="5.97253">
        <ele>2507</ele>
        <time>2021-02-20T13:12:16Z</time>
      </trkpt>
      <trkpt lat="45.1656" lon="5.97252">
        <ele>2505.9</ele>
        <time>2021-02-20T13:12:17Z</time>
      </trkpt>
      <trkpt lat="45.16559" lon="5.97251">
        <ele>2505.9</ele>
        <time>2021-02-20T13:12:18Z</time>
      </trkpt>
      <trkpt lat="45.16559" lon="5.9725">
        <ele>2505.9</ele>
        <time>2021-02-20T13:12:19Z</time>
      </trkpt>
      <trkpt lat="45.16558" lon="5.9725">
        <ele>2505.9</ele>
        <time>2021-02-20T13:12:20Z</time>
      </trkpt>
      <trkpt lat="45.16558" lon="5.97249">
        <ele>2505.9</ele>
        <time>2021-02-20T13:12:21Z</time>
      </trkpt>
      <trkpt lat="45.16558" lon="5.97249">
        <ele>2507.6</ele>
        <time>2021-02-20T13:12:22Z</time>
      </trkpt>
      <trkpt lat="45.16557" lon="5.97249">
        <ele>2507.6</ele>
        <time>2021-02-20T13:12:23Z</time>
      </trkpt>
      <trkpt lat="45.16557" lon="5.97249">
        <ele>2507.6</ele>
        <time>2021-02-20T13:12:24Z</time>
      </trkpt>
      <trkpt lat="45.16557" lon="5.97248">
        <ele>2506.5</ele>
        <time>2021-02-20T13:12:25Z</time>
      </trkpt>
      <trkpt lat="45.16556" lon="5.97249">
        <ele>2506.5</ele>
        <time>2021-02-20T13:12:26Z</time>
      </trkpt>
      <trkpt lat="45.16556" lon="5.97249">
        <ele>2506.5</ele>
        <time>2021-02-20T13:12:27Z</time>
      </trkpt>
      <trkpt lat="45.16555" lon="5.97248">
        <ele>2506.5</ele>
        <time>2021-02-20T13:12:28Z</time>
      </trkpt>
      <trkpt lat="45.16555" lon="5.97248">
        <ele>2506.5</ele>
        <time>2021-02-20T13:12:29Z</time>
      </trkpt>
      <trkpt lat="45.16555" lon="5.97248">
        <ele>2508.2</ele>
        <time>2021-02-20T13:12:30Z</time>
      </trkpt>
      <trkpt lat="45.16554" lon="5.97247">
        <ele>2508.2</ele>
        <time>2021-02-20T13:12:31Z</time>
      </trkpt>
      <trkpt lat="45.16554" lon="5.97247">
        <ele>2508.2</ele>
        <time>2021-02-20T13:12:32Z</time>
      </trkpt>
      <trkpt lat="45.16553" lon="5.97247">
        <ele>2508.2</ele>
        <time>2021-02-20T13:12:33Z</time>
      </trkpt>
      <trkpt lat="45.16553" lon="5.97247">
        <ele>2508.2</ele>
        <time>2021-02-20T13:12:34Z</time>
      </trkpt>
      <trkpt lat="45.16553" lon="5.97247">
        <ele>2508.2</ele>
        <time>2021-02-20T13:12:35Z</time>
      </trkpt>
      <trkpt lat="45.16552" lon="5.97247">
        <ele>2508.2</ele>
        <time>2021-02-20T13:12:36Z</time>
      </trkpt>
      <trkpt lat="45.16551" lon="5.97247">
        <ele>2509.7</ele>
        <time>2021-02-20T13:12:37Z</time>
      </trkpt>
      <trkpt lat="45.1655" lon="5.97246">
        <ele>2509.7</ele>
        <time>2021-02-20T13:12:38Z</time>
      </trkpt>
      <trkpt lat="45.1655" lon="5.97247">
        <ele>2509.7</ele>
        <time>2021-02-20T13:12:39Z</time>
      </trkpt>
      <trkpt lat="45.16549" lon="5.97247">
        <ele>2509.7</ele>
        <time>2021-02-20T13:12:40Z</time>
      </trkpt>
      <trkpt lat="45.16549" lon="5.97247">
        <ele>2509.7</ele>
        <time>2021-02-20T13:12:41Z</time>
      </trkpt>
      <trkpt lat="45.16549" lon="5.97248">
        <ele>2511.2</ele>
        <time>2021-02-20T13:12:42Z</time>
      </trkpt>
      <trkpt lat="45.16548" lon="5.97248">
        <ele>2511.2</ele>
        <time>2021-02-20T13:12:43Z</time>
      </trkpt>
      <trkpt lat="45.16548" lon="5.97249">
        <ele>2512.3</ele>
        <time>2021-02-20T13:12:44Z</time>
      </trkpt>
      <trkpt lat="45.16548" lon="5.9725">
        <ele>2512.3</ele>
        <time>2021-02-20T13:12:45Z</time>
      </trkpt>
      <trkpt lat="45.16547" lon="5.97251">
        <ele>2512.3</ele>
        <time>2021-02-20T13:12:46Z</time>
      </trkpt>
      <trkpt lat="45.16547" lon="5.97252">
        <ele>2512.3</ele>
        <time>2021-02-20T13:12:47Z</time>
      </trkpt>
      <trkpt lat="45.16546" lon="5.97253">
        <ele>2512.3</ele>
        <time>2021-02-20T13:12:48Z</time>
      </trkpt>
      <trkpt lat="45.16546" lon="5.97253">
        <ele>2513.4</ele>
        <time>2021-02-20T13:12:49Z</time>
      </trkpt>
      <trkpt lat="45.16546" lon="5.97254">
        <ele>2514.9</ele>
        <time>2021-02-20T13:12:50Z</time>
      </trkpt>
      <trkpt lat="45.16545" lon="5.97255">
        <ele>2514.9</ele>
        <time>2021-02-20T13:12:51Z</time>
      </trkpt>
      <trkpt lat="45.16544" lon="5.97256">
        <ele>2514.9</ele>
        <time>2021-02-20T13:12:52Z</time>
      </trkpt>
      <trkpt lat="45.16544" lon="5.97257">
        <ele>2514.9</ele>
        <time>2021-02-20T13:12:53Z</time>
      </trkpt>
      <trkpt lat="45.16544" lon="5.97257">
        <ele>2514.9</ele>
        <time>2021-02-20T13:12:54Z</time>
      </trkpt>
      <trkpt lat="45.16544" lon="5.97258">
        <ele>2516</ele>
        <time>2021-02-20T13:12:55Z</time>
      </trkpt>
      <trkpt lat="45.16543" lon="5.97259">
        <ele>2516</ele>
        <time>2021-02-20T13:12:56Z</time>
      </trkpt>
      <trkpt lat="45.16543" lon="5.97259">
        <ele>2517.5</ele>
        <time>2021-02-20T13:12:57Z</time>
      </trkpt>
      <trkpt lat="45.16542" lon="5.97259">
        <ele>2517.5</ele>
        <time>2021-02-20T13:12:58Z</time>
      </trkpt>
      <trkpt lat="45.16542" lon="5.97259">
        <ele>2517.5</ele>
        <time>2021-02-20T13:12:59Z</time>
      </trkpt>
      <trkpt lat="45.16541" lon="5.97258">
        <ele>2517.5</ele>
        <time>2021-02-20T13:13:00Z</time>
      </trkpt>
      <trkpt lat="45.16541" lon="5.97257">
        <ele>2516.4</ele>
        <time>2021-02-20T13:13:01Z</time>
      </trkpt>
      <trkpt lat="45.16541" lon="5.97256">
        <ele>2516.4</ele>
        <time>2021-02-20T13:13:02Z</time>
      </trkpt>
      <trkpt lat="45.16541" lon="5.97256">
        <ele>2516.4</ele>
        <time>2021-02-20T13:13:03Z</time>
      </trkpt>
      <trkpt lat="45.16541" lon="5.97255">
        <ele>2516.4</ele>
        <time>2021-02-20T13:13:04Z</time>
      </trkpt>
      <trkpt lat="45.16541" lon="5.97254">
        <ele>2516.4</ele>
        <time>2021-02-20T13:13:05Z</time>
      </trkpt>
      <trkpt lat="45.1654" lon="5.97253">
        <ele>2516.4</ele>
        <time>2021-02-20T13:13:06Z</time>
      </trkpt>
      <trkpt lat="45.1654" lon="5.97252">
        <ele>2515.3</ele>
        <time>2021-02-20T13:13:07Z</time>
      </trkpt>
      <trkpt lat="45.1654" lon="5.97252">
        <ele>2515.3</ele>
        <time>2021-02-20T13:13:08Z</time>
      </trkpt>
      <trkpt lat="45.1654" lon="5.97252">
        <ele>2516.8</ele>
        <time>2021-02-20T13:13:09Z</time>
      </trkpt>
      <trkpt lat="45.16539" lon="5.97251">
        <ele>2516.8</ele>
        <time>2021-02-20T13:13:10Z</time>
      </trkpt>
      <trkpt lat="45.16539" lon="5.97251">
        <ele>2516.8</ele>
        <time>2021-02-20T13:13:11Z</time>
      </trkpt>
      <trkpt lat="45.16539" lon="5.97249">
        <ele>2516.8</ele>
        <time>2021-02-20T13:13:12Z</time>
      </trkpt>
      <trkpt lat="45.16538" lon="5.97248">
        <ele>2515.8</ele>
        <time>2021-02-20T13:13:13Z</time>
      </trkpt>
      <trkpt lat="45.16538" lon="5.97247">
        <ele>2515.8</ele>
        <time>2021-02-20T13:13:14Z</time>
      </trkpt>
      <trkpt lat="45.16538" lon="5.97246">
        <ele>2515.8</ele>
        <time>2021-02-20T13:13:15Z</time>
      </trkpt>
      <trkpt lat="45.16538" lon="5.97246">
        <ele>2515.8</ele>
        <time>2021-02-20T13:13:16Z</time>
      </trkpt>
      <trkpt lat="45.16538" lon="5.97246">
        <ele>2515.8</ele>
        <time>2021-02-20T13:13:17Z</time>
      </trkpt>
      <trkpt lat="45.16538" lon="5.97245">
        <ele>2515.8</ele>
        <time>2021-02-20T13:13:18Z</time>
      </trkpt>
      <trkpt lat="45.16538" lon="5.97244">
        <ele>2514.7</ele>
        <time>2021-02-20T13:13:19Z</time>
      </trkpt>
      <trkpt lat="45.16537" lon="5.97243">
        <ele>2514.7</ele>
        <time>2021-02-20T13:13:20Z</time>
      </trkpt>
      <trkpt lat="45.16537" lon="5.97242">
        <ele>2514.7</ele>
        <time>2021-02-20T13:13:21Z</time>
      </trkpt>
      <trkpt lat="45.16537" lon="5.97241">
        <ele>2516.3</ele>
        <time>2021-02-20T13:13:22Z</time>
      </trkpt>
      <trkpt lat="45.16537" lon="5.9724">
        <ele>2516.3</ele>
        <time>2021-02-20T13:13:23Z</time>
      </trkpt>
      <trkpt lat="45.16536" lon="5.9724">
        <ele>2515.2</ele>
        <time>2021-02-20T13:13:24Z</time>
      </trkpt>
      <trkpt lat="45.16536" lon="5.97239">
        <ele>2515.2</ele>
        <time>2021-02-20T13:13:25Z</time>
      </trkpt>
      <trkpt lat="45.16536" lon="5.97238">
        <ele>2515.2</ele>
        <time>2021-02-20T13:13:26Z</time>
      </trkpt>
      <trkpt lat="45.16535" lon="5.97237">
        <ele>2515.2</ele>
        <time>2021-02-20T13:13:27Z</time>
      </trkpt>
      <trkpt lat="45.16535" lon="5.97236">
        <ele>2515.2</ele>
        <time>2021-02-20T13:13:28Z</time>
      </trkpt>
      <trkpt lat="45.16535" lon="5.97236">
        <ele>2515.2</ele>
        <time>2021-02-20T13:13:29Z</time>
      </trkpt>
      <trkpt lat="45.16535" lon="5.97236">
        <ele>2515.2</ele>
        <time>2021-02-20T13:13:30Z</time>
      </trkpt>
      <trkpt lat="45.16535" lon="5.97236">
        <ele>2515.2</ele>
        <time>2021-02-20T13:13:31Z</time>
      </trkpt>
      <trkpt lat="45.16535" lon="5.97236">
        <ele>2514.2</ele>
        <time>2021-02-20T13:13:32Z</time>
      </trkpt>
      <trkpt lat="45.16534" lon="5.97235">
        <ele>2514.2</ele>
        <time>2021-02-20T13:13:33Z</time>
      </trkpt>
      <trkpt lat="45.16534" lon="5.97235">
        <ele>2514.2</ele>
        <time>2021-02-20T13:13:34Z</time>
      </trkpt>
      <trkpt lat="45.16534" lon="5.97235">
        <ele>2514.2</ele>
        <time>2021-02-20T13:13:35Z</time>
      </trkpt>
      <trkpt lat="45.16534" lon="5.97236">
        <ele>2514.2</ele>
        <time>2021-02-20T13:13:36Z</time>
      </trkpt>
      <trkpt lat="45.16534" lon="5.97236">
        <ele>2515.2</ele>
        <time>2021-02-20T13:13:37Z</time>
      </trkpt>
      <trkpt lat="45.16534" lon="5.97237">
        <ele>2516.9</ele>
        <time>2021-02-20T13:13:38Z</time>
      </trkpt>
      <trkpt lat="45.16533" lon="5.97237">
        <ele>2516.9</ele>
        <time>2021-02-20T13:13:39Z</time>
      </trkpt>
      <trkpt lat="45.16533" lon="5.97238">
        <ele>2516.9</ele>
        <time>2021-02-20T13:13:40Z</time>
      </trkpt>
      <trkpt lat="45.16532" lon="5.97238">
        <ele>2516.9</ele>
        <time>2021-02-20T13:13:41Z</time>
      </trkpt>
      <trkpt lat="45.16532" lon="5.97238">
        <ele>2516.9</ele>
        <time>2021-02-20T13:13:42Z</time>
      </trkpt>
      <trkpt lat="45.16532" lon="5.97238">
        <ele>2516.9</ele>
        <time>2021-02-20T13:13:43Z</time>
      </trkpt>
      <trkpt lat="45.16531" lon="5.97239">
        <ele>2516.9</ele>
        <time>2021-02-20T13:13:44Z</time>
      </trkpt>
      <trkpt lat="45.16531" lon="5.9724">
        <ele>2516.9</ele>
        <time>2021-02-20T13:13:45Z</time>
      </trkpt>
      <trkpt lat="45.1653" lon="5.97241">
        <ele>2519.7</ele>
        <time>2021-02-20T13:13:46Z</time>
      </trkpt>
      <trkpt lat="45.1653" lon="5.97242">
        <ele>2519.7</ele>
        <time>2021-02-20T13:13:47Z</time>
      </trkpt>
      <trkpt lat="45.1653" lon="5.97242">
        <ele>2519.7</ele>
        <time>2021-02-20T13:13:48Z</time>
      </trkpt>
      <trkpt lat="45.16529" lon="5.97243">
        <ele>2519.7</ele>
        <time>2021-02-20T13:13:49Z</time>
      </trkpt>
      <trkpt lat="45.16529" lon="5.97244">
        <ele>2520.7</ele>
        <time>2021-02-20T13:13:50Z</time>
      </trkpt>
      <trkpt lat="45.16528" lon="5.97245">
        <ele>2520.7</ele>
        <time>2021-02-20T13:13:51Z</time>
      </trkpt>
      <trkpt lat="45.16528" lon="5.97246">
        <ele>2522.4</ele>
        <time>2021-02-20T13:13:52Z</time>
      </trkpt>
      <trkpt lat="45.16527" lon="5.97247">
        <ele>2522.4</ele>
        <time>2021-02-20T13:13:53Z</time>
      </trkpt>
      <trkpt lat="45.16527" lon="5.97247">
        <ele>2522.4</ele>
        <time>2021-02-20T13:13:54Z</time>
      </trkpt>
      <trkpt lat="45.16526" lon="5.97248">
        <ele>2522.4</ele>
        <time>2021-02-20T13:13:55Z</time>
      </trkpt>
      <trkpt lat="45.16526" lon="5.97248">
        <ele>2522.4</ele>
        <time>2021-02-20T13:13:56Z</time>
      </trkpt>
      <trkpt lat="45.16525" lon="5.97249">
        <ele>2523.5</ele>
        <time>2021-02-20T13:13:57Z</time>
      </trkpt>
      <trkpt lat="45.16525" lon="5.97249">
        <ele>2525.2</ele>
        <time>2021-02-20T13:13:58Z</time>
      </trkpt>
      <trkpt lat="45.16524" lon="5.97249">
        <ele>2525.2</ele>
        <time>2021-02-20T13:13:59Z</time>
      </trkpt>
      <trkpt lat="45.16524" lon="5.97249">
        <ele>2525.2</ele>
        <time>2021-02-20T13:14:00Z</time>
      </trkpt>
      <trkpt lat="45.16524" lon="5.97249">
        <ele>2525.2</ele>
        <time>2021-02-20T13:14:01Z</time>
      </trkpt>
      <trkpt lat="45.16523" lon="5.9725">
        <ele>2525.2</ele>
        <time>2021-02-20T13:14:02Z</time>
      </trkpt>
      <trkpt lat="45.16523" lon="5.97252">
        <ele>2525.2</ele>
        <time>2021-02-20T13:14:03Z</time>
      </trkpt>
      <trkpt lat="45.16523" lon="5.97254">
        <ele>2526.2</ele>
        <time>2021-02-20T13:14:04Z</time>
      </trkpt>
      <trkpt lat="45.16523" lon="5.97255">
        <ele>2526.2</ele>
        <time>2021-02-20T13:14:05Z</time>
      </trkpt>
      <trkpt lat="45.16523" lon="5.97256">
        <ele>2526.2</ele>
        <time>2021-02-20T13:14:06Z</time>
      </trkpt>
      <trkpt lat="45.16523" lon="5.97257">
        <ele>2526.2</ele>
        <time>2021-02-20T13:14:07Z</time>
      </trkpt>
      <trkpt lat="45.16522" lon="5.97256">
        <ele>2526.2</ele>
        <time>2021-02-20T13:14:08Z</time>
      </trkpt>
      <trkpt lat="45.16522" lon="5.97255">
        <ele>2526.2</ele>
        <time>2021-02-20T13:14:09Z</time>
      </trkpt>
      <trkpt lat="45.16522" lon="5.97255">
        <ele>2526.2</ele>
        <time>2021-02-20T13:14:10Z</time>
      </trkpt>
      <trkpt lat="45.16522" lon="5.97253">
        <ele>2526.2</ele>
        <time>2021-02-20T13:14:11Z</time>
      </trkpt>
      <trkpt lat="45.16522" lon="5.97252">
        <ele>2525.2</ele>
        <time>2021-02-20T13:14:12Z</time>
      </trkpt>
      <trkpt lat="45.16522" lon="5.97252">
        <ele>2525.2</ele>
        <time>2021-02-20T13:14:13Z</time>
      </trkpt>
      <trkpt lat="45.16522" lon="5.97251">
        <ele>2525.2</ele>
        <time>2021-02-20T13:14:14Z</time>
      </trkpt>
      <trkpt lat="45.16522" lon="5.97249">
        <ele>2525.2</ele>
        <time>2021-02-20T13:14:15Z</time>
      </trkpt>
      <trkpt lat="45.16522" lon="5.97248">
        <ele>2524.1</ele>
        <time>2021-02-20T13:14:16Z</time>
      </trkpt>
      <trkpt lat="45.16522" lon="5.97247">
        <ele>2524.1</ele>
        <time>2021-02-20T13:14:17Z</time>
      </trkpt>
      <trkpt lat="45.16522" lon="5.97246">
        <ele>2524.1</ele>
        <time>2021-02-20T13:14:18Z</time>
      </trkpt>
      <trkpt lat="45.16522" lon="5.97245">
        <ele>2524.1</ele>
        <time>2021-02-20T13:14:19Z</time>
      </trkpt>
      <trkpt lat="45.16522" lon="5.97244">
        <ele>2524.1</ele>
        <time>2021-02-20T13:14:20Z</time>
      </trkpt>
      <trkpt lat="45.16522" lon="5.97243">
        <ele>2523.1</ele>
        <time>2021-02-20T13:14:21Z</time>
      </trkpt>
      <trkpt lat="45.16522" lon="5.97243">
        <ele>2523.1</ele>
        <time>2021-02-20T13:14:22Z</time>
      </trkpt>
      <trkpt lat="45.16522" lon="5.97242">
        <ele>2523.1</ele>
        <time>2021-02-20T13:14:23Z</time>
      </trkpt>
      <trkpt lat="45.16522" lon="5.97241">
        <ele>2523.1</ele>
        <time>2021-02-20T13:14:24Z</time>
      </trkpt>
      <trkpt lat="45.16522" lon="5.97241">
        <ele>2523.1</ele>
        <time>2021-02-20T13:14:25Z</time>
      </trkpt>
      <trkpt lat="45.16522" lon="5.9724">
        <ele>2522.1</ele>
        <time>2021-02-20T13:14:26Z</time>
      </trkpt>
      <trkpt lat="45.16522" lon="5.9724">
        <ele>2522.1</ele>
        <time>2021-02-20T13:14:27Z</time>
      </trkpt>
      <trkpt lat="45.16522" lon="5.97239">
        <ele>2522.1</ele>
        <time>2021-02-20T13:14:28Z</time>
      </trkpt>
      <trkpt lat="45.16522" lon="5.97238">
        <ele>2522.1</ele>
        <time>2021-02-20T13:14:29Z</time>
      </trkpt>
      <trkpt lat="45.16521" lon="5.97237">
        <ele>2523.8</ele>
        <time>2021-02-20T13:14:30Z</time>
      </trkpt>
      <trkpt lat="45.16521" lon="5.97236">
        <ele>2523.8</ele>
        <time>2021-02-20T13:14:31Z</time>
      </trkpt>
      <trkpt lat="45.16521" lon="5.97235">
        <ele>2522.9</ele>
        <time>2021-02-20T13:14:32Z</time>
      </trkpt>
      <trkpt lat="45.16521" lon="5.97234">
        <ele>2522.9</ele>
        <time>2021-02-20T13:14:33Z</time>
      </trkpt>
      <trkpt lat="45.1652" lon="5.97233">
        <ele>2522.9</ele>
        <time>2021-02-20T13:14:34Z</time>
      </trkpt>
      <trkpt lat="45.1652" lon="5.97233">
        <ele>2522.9</ele>
        <time>2021-02-20T13:14:35Z</time>
      </trkpt>
      <trkpt lat="45.1652" lon="5.97233">
        <ele>2522.9</ele>
        <time>2021-02-20T13:14:36Z</time>
      </trkpt>
      <trkpt lat="45.1652" lon="5.97233">
        <ele>2522.9</ele>
        <time>2021-02-20T13:14:37Z</time>
      </trkpt>
      <trkpt lat="45.1652" lon="5.97233">
        <ele>2522.9</ele>
        <time>2021-02-20T13:14:38Z</time>
      </trkpt>
      <trkpt lat="45.1652" lon="5.97233">
        <ele>2522.9</ele>
        <time>2021-02-20T13:14:39Z</time>
      </trkpt>
      <trkpt lat="45.1652" lon="5.97234">
        <ele>2522.9</ele>
        <time>2021-02-20T13:14:40Z</time>
      </trkpt>
      <trkpt lat="45.1652" lon="5.97235">
        <ele>2522.9</ele>
        <time>2021-02-20T13:14:41Z</time>
      </trkpt>
      <trkpt lat="45.1652" lon="5.97236">
        <ele>2523.8</ele>
        <time>2021-02-20T13:14:42Z</time>
      </trkpt>
      <trkpt lat="45.1652" lon="5.97237">
        <ele>2523.8</ele>
        <time>2021-02-20T13:14:43Z</time>
      </trkpt>
      <trkpt lat="45.16519" lon="5.97238">
        <ele>2523.8</ele>
        <time>2021-02-20T13:14:44Z</time>
      </trkpt>
      <trkpt lat="45.16519" lon="5.97239">
        <ele>2523.8</ele>
        <time>2021-02-20T13:14:45Z</time>
      </trkpt>
      <trkpt lat="45.16518" lon="5.9724">
        <ele>2525.5</ele>
        <time>2021-02-20T13:14:46Z</time>
      </trkpt>
      <trkpt lat="45.16518" lon="5.97241">
        <ele>2526.5</ele>
        <time>2021-02-20T13:14:47Z</time>
      </trkpt>
      <trkpt lat="45.16517" lon="5.97241">
        <ele>2526.5</ele>
        <time>2021-02-20T13:14:48Z</time>
      </trkpt>
      <trkpt lat="45.16517" lon="5.97242">
        <ele>2526.5</ele>
        <time>2021-02-20T13:14:49Z</time>
      </trkpt>
      <trkpt lat="45.16517" lon="5.97242">
        <ele>2526.5</ele>
        <time>2021-02-20T13:14:50Z</time>
      </trkpt>
      <trkpt lat="45.16517" lon="5.97242">
        <ele>2526.5</ele>
        <time>2021-02-20T13:14:51Z</time>
      </trkpt>
      <trkpt lat="45.16516" lon="5.97242">
        <ele>2526.5</ele>
        <time>2021-02-20T13:14:52Z</time>
      </trkpt>
      <trkpt lat="45.16516" lon="5.97242">
        <ele>2526.5</ele>
        <time>2021-02-20T13:14:53Z</time>
      </trkpt>
      <trkpt lat="45.16516" lon="5.97243">
        <ele>2526.5</ele>
        <time>2021-02-20T13:14:54Z</time>
      </trkpt>
      <trkpt lat="45.16515" lon="5.97244">
        <ele>2528.1</ele>
        <time>2021-02-20T13:14:55Z</time>
      </trkpt>
      <trkpt lat="45.16515" lon="5.97245">
        <ele>2529.1</ele>
        <time>2021-02-20T13:14:56Z</time>
      </trkpt>
      <trkpt lat="45.16515" lon="5.97246">
        <ele>2529.1</ele>
        <time>2021-02-20T13:14:57Z</time>
      </trkpt>
      <trkpt lat="45.16515" lon="5.97246">
        <ele>2529.1</ele>
        <time>2021-02-20T13:14:58Z</time>
      </trkpt>
      <trkpt lat="45.16515" lon="5.97247">
        <ele>2529.1</ele>
        <time>2021-02-20T13:14:59Z</time>
      </trkpt>
      <trkpt lat="45.16515" lon="5.97248">
        <ele>2529.1</ele>
        <time>2021-02-20T13:15:00Z</time>
      </trkpt>
      <trkpt lat="45.16514" lon="5.97248">
        <ele>2529.1</ele>
        <time>2021-02-20T13:15:01Z</time>
      </trkpt>
      <trkpt lat="45.16514" lon="5.97248">
        <ele>2529.1</ele>
        <time>2021-02-20T13:15:02Z</time>
      </trkpt>
      <trkpt lat="45.16514" lon="5.97248">
        <ele>2529.1</ele>
        <time>2021-02-20T13:15:03Z</time>
      </trkpt>
      <trkpt lat="45.16514" lon="5.97247">
        <ele>2529.1</ele>
        <time>2021-02-20T13:15:04Z</time>
      </trkpt>
      <trkpt lat="45.16514" lon="5.97247">
        <ele>2529.1</ele>
        <time>2021-02-20T13:15:05Z</time>
      </trkpt>
      <trkpt lat="45.16514" lon="5.97246">
        <ele>2529.1</ele>
        <time>2021-02-20T13:15:06Z</time>
      </trkpt>
      <trkpt lat="45.16514" lon="5.97245">
        <ele>2529.1</ele>
        <time>2021-02-20T13:15:07Z</time>
      </trkpt>
      <trkpt lat="45.16514" lon="5.97245">
        <ele>2529.1</ele>
        <time>2021-02-20T13:15:08Z</time>
      </trkpt>
      <trkpt lat="45.16514" lon="5.97245">
        <ele>2529.1</ele>
        <time>2021-02-20T13:15:09Z</time>
      </trkpt>
      <trkpt lat="45.16513" lon="5.97245">
        <ele>2529.1</ele>
        <time>2021-02-20T13:15:10Z</time>
      </trkpt>
      <trkpt lat="45.16513" lon="5.97244">
        <ele>2529.1</ele>
        <time>2021-02-20T13:15:11Z</time>
      </trkpt>
      <trkpt lat="45.16513" lon="5.97244">
        <ele>2528.1</ele>
        <time>2021-02-20T13:15:12Z</time>
      </trkpt>
      <trkpt lat="45.16512" lon="5.97243">
        <ele>2529.7</ele>
        <time>2021-02-20T13:15:13Z</time>
      </trkpt>
      <trkpt lat="45.16512" lon="5.97242">
        <ele>2529.7</ele>
        <time>2021-02-20T13:15:14Z</time>
      </trkpt>
      <trkpt lat="45.16512" lon="5.97241">
        <ele>2529.7</ele>
        <time>2021-02-20T13:15:15Z</time>
      </trkpt>
      <trkpt lat="45.16511" lon="5.9724">
        <ele>2528.8</ele>
        <time>2021-02-20T13:15:16Z</time>
      </trkpt>
      <trkpt lat="45.16511" lon="5.97239">
        <ele>2528.8</ele>
        <time>2021-02-20T13:15:17Z</time>
      </trkpt>
      <trkpt lat="45.16511" lon="5.97238">
        <ele>2528.8</ele>
        <time>2021-02-20T13:15:18Z</time>
      </trkpt>
      <trkpt lat="45.16511" lon="5.97237">
        <ele>2528.8</ele>
        <time>2021-02-20T13:15:19Z</time>
      </trkpt>
      <trkpt lat="45.16511" lon="5.97237">
        <ele>2528.8</ele>
        <time>2021-02-20T13:15:20Z</time>
      </trkpt>
      <trkpt lat="45.16511" lon="5.97237">
        <ele>2528.8</ele>
        <time>2021-02-20T13:15:21Z</time>
      </trkpt>
      <trkpt lat="45.16511" lon="5.97237">
        <ele>2528.8</ele>
        <time>2021-02-20T13:15:22Z</time>
      </trkpt>
      <trkpt lat="45.16511" lon="5.97238">
        <ele>2528.8</ele>
        <time>2021-02-20T13:15:23Z</time>
      </trkpt>
      <trkpt lat="45.16511" lon="5.97238">
        <ele>2528.8</ele>
        <time>2021-02-20T13:15:24Z</time>
      </trkpt>
      <trkpt lat="45.1651" lon="5.97239">
        <ele>2528.8</ele>
        <time>2021-02-20T13:15:25Z</time>
      </trkpt>
      <trkpt lat="45.1651" lon="5.97239">
        <ele>2528.8</ele>
        <time>2021-02-20T13:15:26Z</time>
      </trkpt>
      <trkpt lat="45.1651" lon="5.9724">
        <ele>2528.8</ele>
        <time>2021-02-20T13:15:27Z</time>
      </trkpt>
      <trkpt lat="45.1651" lon="5.97241">
        <ele>2529.7</ele>
        <time>2021-02-20T13:15:28Z</time>
      </trkpt>
      <trkpt lat="45.1651" lon="5.97242">
        <ele>2529.7</ele>
        <time>2021-02-20T13:15:29Z</time>
      </trkpt>
      <trkpt lat="45.1651" lon="5.97243">
        <ele>2529.7</ele>
        <time>2021-02-20T13:15:30Z</time>
      </trkpt>
      <trkpt lat="45.1651" lon="5.97244">
        <ele>2529.7</ele>
        <time>2021-02-20T13:15:31Z</time>
      </trkpt>
      <trkpt lat="45.16509" lon="5.97245">
        <ele>2532.2</ele>
        <time>2021-02-20T13:15:32Z</time>
      </trkpt>
      <trkpt lat="45.16509" lon="5.97246">
        <ele>2532.2</ele>
        <time>2021-02-20T13:15:33Z</time>
      </trkpt>
      <trkpt lat="45.16509" lon="5.97246">
        <ele>2532.2</ele>
        <time>2021-02-20T13:15:34Z</time>
      </trkpt>
      <trkpt lat="45.16509" lon="5.97247">
        <ele>2532.2</ele>
        <time>2021-02-20T13:15:35Z</time>
      </trkpt>
      <trkpt lat="45.16509" lon="5.97248">
        <ele>2532.2</ele>
        <time>2021-02-20T13:15:36Z</time>
      </trkpt>
      <trkpt lat="45.16509" lon="5.97249">
        <ele>2533.2</ele>
        <time>2021-02-20T13:15:37Z</time>
      </trkpt>
      <trkpt lat="45.16509" lon="5.9725">
        <ele>2533.2</ele>
        <time>2021-02-20T13:15:38Z</time>
      </trkpt>
      <trkpt lat="45.16509" lon="5.9725">
        <ele>2533.2</ele>
        <time>2021-02-20T13:15:39Z</time>
      </trkpt>
      <trkpt lat="45.16509" lon="5.97251">
        <ele>2533.2</ele>
        <time>2021-02-20T13:15:40Z</time>
      </trkpt>
      <trkpt lat="45.16508" lon="5.97251">
        <ele>2533.2</ele>
        <time>2021-02-20T13:15:41Z</time>
      </trkpt>
      <trkpt lat="45.16508" lon="5.97252">
        <ele>2533.2</ele>
        <time>2021-02-20T13:15:42Z</time>
      </trkpt>
      <trkpt lat="45.16508" lon="5.97252">
        <ele>2533.2</ele>
        <time>2021-02-20T13:15:43Z</time>
      </trkpt>
      <trkpt lat="45.16507" lon="5.97252">
        <ele>2533.2</ele>
        <time>2021-02-20T13:15:44Z</time>
      </trkpt>
      <trkpt lat="45.16507" lon="5.97252">
        <ele>2533.2</ele>
        <time>2021-02-20T13:15:45Z</time>
      </trkpt>
      <trkpt lat="45.16507" lon="5.97251">
        <ele>2533.2</ele>
        <time>2021-02-20T13:15:46Z</time>
      </trkpt>
      <trkpt lat="45.16506" lon="5.97251">
        <ele>2534.8</ele>
        <time>2021-02-20T13:15:47Z</time>
      </trkpt>
      <trkpt lat="45.16506" lon="5.97252">
        <ele>2534.8</ele>
        <time>2021-02-20T13:15:48Z</time>
      </trkpt>
      <trkpt lat="45.16506" lon="5.97253">
        <ele>2535.8</ele>
        <time>2021-02-20T13:15:49Z</time>
      </trkpt>
      <trkpt lat="45.16506" lon="5.97255">
        <ele>2535.8</ele>
        <time>2021-02-20T13:15:50Z</time>
      </trkpt>
      <trkpt lat="45.16506" lon="5.97256">
        <ele>2535.8</ele>
        <time>2021-02-20T13:15:51Z</time>
      </trkpt>
      <trkpt lat="45.16506" lon="5.97257">
        <ele>2535.8</ele>
        <time>2021-02-20T13:15:52Z</time>
      </trkpt>
      <trkpt lat="45.16506" lon="5.97258">
        <ele>2536.8</ele>
        <time>2021-02-20T13:15:53Z</time>
      </trkpt>
      <trkpt lat="45.16505" lon="5.97259">
        <ele>2536.8</ele>
        <time>2021-02-20T13:15:54Z</time>
      </trkpt>
      <trkpt lat="45.16505" lon="5.97259">
        <ele>2536.8</ele>
        <time>2021-02-20T13:15:55Z</time>
      </trkpt>
      <trkpt lat="45.16504" lon="5.97261">
        <ele>2536.8</ele>
        <time>2021-02-20T13:15:56Z</time>
      </trkpt>
      <trkpt lat="45.16504" lon="5.97261">
        <ele>2536.8</ele>
        <time>2021-02-20T13:15:57Z</time>
      </trkpt>
      <trkpt lat="45.16504" lon="5.97262">
        <ele>2537.8</ele>
        <time>2021-02-20T13:15:58Z</time>
      </trkpt>
      <trkpt lat="45.16504" lon="5.97262">
        <ele>2537.8</ele>
        <time>2021-02-20T13:15:59Z</time>
      </trkpt>
      <trkpt lat="45.16503" lon="5.97262">
        <ele>2539.4</ele>
        <time>2021-02-20T13:16:00Z</time>
      </trkpt>
      <trkpt lat="45.16503" lon="5.97262">
        <ele>2539.4</ele>
        <time>2021-02-20T13:16:01Z</time>
      </trkpt>
      <trkpt lat="45.16503" lon="5.97262">
        <ele>2539.4</ele>
        <time>2021-02-20T13:16:02Z</time>
      </trkpt>
      <trkpt lat="45.16503" lon="5.97262">
        <ele>2539.4</ele>
        <time>2021-02-20T13:16:03Z</time>
      </trkpt>
      <trkpt lat="45.16503" lon="5.97262">
        <ele>2539.4</ele>
        <time>2021-02-20T13:16:04Z</time>
      </trkpt>
      <trkpt lat="45.16502" lon="5.97262">
        <ele>2539.4</ele>
        <time>2021-02-20T13:16:05Z</time>
      </trkpt>
      <trkpt lat="45.16502" lon="5.97263">
        <ele>2539.4</ele>
        <time>2021-02-20T13:16:06Z</time>
      </trkpt>
      <trkpt lat="45.16501" lon="5.97264">
        <ele>2539.4</ele>
        <time>2021-02-20T13:16:07Z</time>
      </trkpt>
      <trkpt lat="45.16501" lon="5.97265">
        <ele>2539.4</ele>
        <time>2021-02-20T13:16:08Z</time>
      </trkpt>
      <trkpt lat="45.16501" lon="5.97266">
        <ele>2540.5</ele>
        <time>2021-02-20T13:16:09Z</time>
      </trkpt>
      <trkpt lat="45.16501" lon="5.97267">
        <ele>2540.5</ele>
        <time>2021-02-20T13:16:10Z</time>
      </trkpt>
      <trkpt lat="45.16501" lon="5.97268">
        <ele>2540.5</ele>
        <time>2021-02-20T13:16:11Z</time>
      </trkpt>
      <trkpt lat="45.16501" lon="5.97268">
        <ele>2540.5</ele>
        <time>2021-02-20T13:16:12Z</time>
      </trkpt>
      <trkpt lat="45.165" lon="5.97269">
        <ele>2542.2</ele>
        <time>2021-02-20T13:16:13Z</time>
      </trkpt>
      <trkpt lat="45.165" lon="5.97269">
        <ele>2542.2</ele>
        <time>2021-02-20T13:16:14Z</time>
      </trkpt>
      <trkpt lat="45.165" lon="5.97269">
        <ele>2542.2</ele>
        <time>2021-02-20T13:16:15Z</time>
      </trkpt>
      <trkpt lat="45.165" lon="5.97269">
        <ele>2542.2</ele>
        <time>2021-02-20T13:16:16Z</time>
      </trkpt>
      <trkpt lat="45.165" lon="5.97269">
        <ele>2542.2</ele>
        <time>2021-02-20T13:16:17Z</time>
      </trkpt>
      <trkpt lat="45.165" lon="5.9727">
        <ele>2542.2</ele>
        <time>2021-02-20T13:16:18Z</time>
      </trkpt>
      <trkpt lat="45.16499" lon="5.9727">
        <ele>2542.2</ele>
        <time>2021-02-20T13:16:19Z</time>
      </trkpt>
      <trkpt lat="45.16499" lon="5.9727">
        <ele>2542.2</ele>
        <time>2021-02-20T13:16:20Z</time>
      </trkpt>
      <trkpt lat="45.16499" lon="5.9727">
        <ele>2542.2</ele>
        <time>2021-02-20T13:16:21Z</time>
      </trkpt>
      <trkpt lat="45.165" lon="5.97269">
        <ele>2542.2</ele>
        <time>2021-02-20T13:16:22Z</time>
      </trkpt>
      <trkpt lat="45.16499" lon="5.97269">
        <ele>2542.2</ele>
        <time>2021-02-20T13:16:23Z</time>
      </trkpt>
      <trkpt lat="45.16499" lon="5.97268">
        <ele>2542.2</ele>
        <time>2021-02-20T13:16:24Z</time>
      </trkpt>
      <trkpt lat="45.16499" lon="5.97268">
        <ele>2542.2</ele>
        <time>2021-02-20T13:16:25Z</time>
      </trkpt>
      <trkpt lat="45.16499" lon="5.97268">
        <ele>2542.2</ele>
        <time>2021-02-20T13:16:26Z</time>
      </trkpt>
      <trkpt lat="45.16499" lon="5.97268">
        <ele>2542.2</ele>
        <time>2021-02-20T13:16:27Z</time>
      </trkpt>
      <trkpt lat="45.16499" lon="5.97268">
        <ele>2542.2</ele>
        <time>2021-02-20T13:16:28Z</time>
      </trkpt>
      <trkpt lat="45.16499" lon="5.97268">
        <ele>2542.2</ele>
        <time>2021-02-20T13:16:29Z</time>
      </trkpt>
      <trkpt lat="45.16499" lon="5.97268">
        <ele>2542.2</ele>
        <time>2021-02-20T13:16:30Z</time>
      </trkpt>
      <trkpt lat="45.16499" lon="5.97268">
        <ele>2542.2</ele>
        <time>2021-02-20T13:16:31Z</time>
      </trkpt>
      <trkpt lat="45.16498" lon="5.97267">
        <ele>2542.2</ele>
        <time>2021-02-20T13:16:32Z</time>
      </trkpt>
      <trkpt lat="45.16498" lon="5.97266">
        <ele>2542.2</ele>
        <time>2021-02-20T13:16:33Z</time>
      </trkpt>
      <trkpt lat="45.16498" lon="5.97266">
        <ele>2541.1</ele>
        <time>2021-02-20T13:16:34Z</time>
      </trkpt>
      <trkpt lat="45.16498" lon="5.97265">
        <ele>2541.1</ele>
        <time>2021-02-20T13:16:35Z</time>
      </trkpt>
      <trkpt lat="45.16498" lon="5.97264">
        <ele>2541.1</ele>
        <time>2021-02-20T13:16:36Z</time>
      </trkpt>
      <trkpt lat="45.16498" lon="5.97264">
        <ele>2541.1</ele>
        <time>2021-02-20T13:16:37Z</time>
      </trkpt>
      <trkpt lat="45.16498" lon="5.97263">
        <ele>2541.1</ele>
        <time>2021-02-20T13:16:38Z</time>
      </trkpt>
      <trkpt lat="45.16499" lon="5.97262">
        <ele>2541.1</ele>
        <time>2021-02-20T13:16:39Z</time>
      </trkpt>
      <trkpt lat="45.16499" lon="5.97261">
        <ele>2540.2</ele>
        <time>2021-02-20T13:16:40Z</time>
      </trkpt>
      <trkpt lat="45.16498" lon="5.9726">
        <ele>2540.2</ele>
        <time>2021-02-20T13:16:41Z</time>
      </trkpt>
      <trkpt lat="45.16498" lon="5.97259">
        <ele>2540.2</ele>
        <time>2021-02-20T13:16:42Z</time>
      </trkpt>
      <trkpt lat="45.16498" lon="5.97259">
        <ele>2540.2</ele>
        <time>2021-02-20T13:16:43Z</time>
      </trkpt>
      <trkpt lat="45.16498" lon="5.97259">
        <ele>2540.2</ele>
        <time>2021-02-20T13:16:44Z</time>
      </trkpt>
      <trkpt lat="45.16498" lon="5.97258">
        <ele>2540.2</ele>
        <time>2021-02-20T13:16:45Z</time>
      </trkpt>
      <trkpt lat="45.16498" lon="5.97257">
        <ele>2540.2</ele>
        <time>2021-02-20T13:16:46Z</time>
      </trkpt>
      <trkpt lat="45.16498" lon="5.97257">
        <ele>2540.2</ele>
        <time>2021-02-20T13:16:47Z</time>
      </trkpt>
      <trkpt lat="45.16498" lon="5.97256">
        <ele>2539.3</ele>
        <time>2021-02-20T13:16:48Z</time>
      </trkpt>
      <trkpt lat="45.16498" lon="5.97256">
        <ele>2539.3</ele>
        <time>2021-02-20T13:16:49Z</time>
      </trkpt>
      <trkpt lat="45.16498" lon="5.97256">
        <ele>2539.3</ele>
        <time>2021-02-20T13:16:50Z</time>
      </trkpt>
      <trkpt lat="45.16498" lon="5.97255">
        <ele>2539.3</ele>
        <time>2021-02-20T13:16:51Z</time>
      </trkpt>
      <trkpt lat="45.16498" lon="5.97255">
        <ele>2539.3</ele>
        <time>2021-02-20T13:16:52Z</time>
      </trkpt>
      <trkpt lat="45.16498" lon="5.97254">
        <ele>2539.3</ele>
        <time>2021-02-20T13:16:53Z</time>
      </trkpt>
      <trkpt lat="45.16498" lon="5.97253">
        <ele>2539.3</ele>
        <time>2021-02-20T13:16:54Z</time>
      </trkpt>
      <trkpt lat="45.16498" lon="5.97252">
        <ele>2538.4</ele>
        <time>2021-02-20T13:16:55Z</time>
      </trkpt>
      <trkpt lat="45.16498" lon="5.97251">
        <ele>2538.4</ele>
        <time>2021-02-20T13:16:56Z</time>
      </trkpt>
      <trkpt lat="45.16498" lon="5.9725">
        <ele>2538.4</ele>
        <time>2021-02-20T13:16:57Z</time>
      </trkpt>
      <trkpt lat="45.16498" lon="5.97249">
        <ele>2538.4</ele>
        <time>2021-02-20T13:16:58Z</time>
      </trkpt>
      <trkpt lat="45.16498" lon="5.97248">
        <ele>2537.5</ele>
        <time>2021-02-20T13:16:59Z</time>
      </trkpt>
      <trkpt lat="45.16498" lon="5.97248">
        <ele>2537.5</ele>
        <time>2021-02-20T13:17:00Z</time>
      </trkpt>
      <trkpt lat="45.16498" lon="5.97248">
        <ele>2537.5</ele>
        <time>2021-02-20T13:17:01Z</time>
      </trkpt>
      <trkpt lat="45.16498" lon="5.97248">
        <ele>2537.5</ele>
        <time>2021-02-20T13:17:02Z</time>
      </trkpt>
      <trkpt lat="45.16498" lon="5.97248">
        <ele>2537.5</ele>
        <time>2021-02-20T13:17:03Z</time>
      </trkpt>
      <trkpt lat="45.16498" lon="5.97247">
        <ele>2537.5</ele>
        <time>2021-02-20T13:17:04Z</time>
      </trkpt>
      <trkpt lat="45.16498" lon="5.97247">
        <ele>2537.5</ele>
        <time>2021-02-20T13:17:05Z</time>
      </trkpt>
      <trkpt lat="45.16498" lon="5.97247">
        <ele>2537.5</ele>
        <time>2021-02-20T13:17:06Z</time>
      </trkpt>
      <trkpt lat="45.16498" lon="5.97247">
        <ele>2537.5</ele>
        <time>2021-02-20T13:17:07Z</time>
      </trkpt>
      <trkpt lat="45.16498" lon="5.97247">
        <ele>2537.5</ele>
        <time>2021-02-20T13:17:08Z</time>
      </trkpt>
      <trkpt lat="45.16498" lon="5.97247">
        <ele>2537.5</ele>
        <time>2021-02-20T13:17:09Z</time>
      </trkpt>
      <trkpt lat="45.16498" lon="5.97247">
        <ele>2537.5</ele>
        <time>2021-02-20T13:17:10Z</time>
      </trkpt>
      <trkpt lat="45.16497" lon="5.97246">
        <ele>2537.5</ele>
        <time>2021-02-20T13:17:11Z</time>
      </trkpt>
      <trkpt lat="45.16497" lon="5.97246">
        <ele>2539.3</ele>
        <time>2021-02-20T13:17:12Z</time>
      </trkpt>
      <trkpt lat="45.16497" lon="5.97246">
        <ele>2539.3</ele>
        <time>2021-02-20T13:17:13Z</time>
      </trkpt>
      <trkpt lat="45.16497" lon="5.97245">
        <ele>2539.3</ele>
        <time>2021-02-20T13:17:14Z</time>
      </trkpt>
      <trkpt lat="45.16497" lon="5.97245">
        <ele>2539.3</ele>
        <time>2021-02-20T13:17:15Z</time>
      </trkpt>
      <trkpt lat="45.16496" lon="5.97244">
        <ele>2538.5</ele>
        <time>2021-02-20T13:17:16Z</time>
      </trkpt>
      <trkpt lat="45.16496" lon="5.97241">
        <ele>2538.5</ele>
        <time>2021-02-20T13:17:17Z</time>
      </trkpt>
      <trkpt lat="45.16496" lon="5.9724">
        <ele>2537.7</ele>
        <time>2021-02-20T13:17:18Z</time>
      </trkpt>
      <trkpt lat="45.16495" lon="5.97238">
        <ele>2537.7</ele>
        <time>2021-02-20T13:17:19Z</time>
      </trkpt>
      <trkpt lat="45.16495" lon="5.97237">
        <ele>2537.7</ele>
        <time>2021-02-20T13:17:20Z</time>
      </trkpt>
      <trkpt lat="45.16495" lon="5.97235">
        <ele>2537</ele>
        <time>2021-02-20T13:17:21Z</time>
      </trkpt>
      <trkpt lat="45.16495" lon="5.97234">
        <ele>2537</ele>
        <time>2021-02-20T13:17:22Z</time>
      </trkpt>
      <trkpt lat="45.16494" lon="5.97233">
        <ele>2538.8</ele>
        <time>2021-02-20T13:17:23Z</time>
      </trkpt>
      <trkpt lat="45.16494" lon="5.97232">
        <ele>2538.8</ele>
        <time>2021-02-20T13:17:24Z</time>
      </trkpt>
      <trkpt lat="45.16494" lon="5.97231">
        <ele>2538.1</ele>
        <time>2021-02-20T13:17:25Z</time>
      </trkpt>
      <trkpt lat="45.16494" lon="5.97231">
        <ele>2538.1</ele>
        <time>2021-02-20T13:17:26Z</time>
      </trkpt>
      <trkpt lat="45.16494" lon="5.97231">
        <ele>2538.1</ele>
        <time>2021-02-20T13:17:27Z</time>
      </trkpt>
      <trkpt lat="45.16494" lon="5.97231">
        <ele>2538.1</ele>
        <time>2021-02-20T13:17:28Z</time>
      </trkpt>
      <trkpt lat="45.16494" lon="5.97231">
        <ele>2538.1</ele>
        <time>2021-02-20T13:17:29Z</time>
      </trkpt>
      <trkpt lat="45.16494" lon="5.97231">
        <ele>2538.1</ele>
        <time>2021-02-20T13:17:30Z</time>
      </trkpt>
      <trkpt lat="45.16494" lon="5.97231">
        <ele>2538.1</ele>
        <time>2021-02-20T13:17:31Z</time>
      </trkpt>
      <trkpt lat="45.16494" lon="5.97231">
        <ele>2538.1</ele>
        <time>2021-02-20T13:17:32Z</time>
      </trkpt>
      <trkpt lat="45.16494" lon="5.97231">
        <ele>2538.1</ele>
        <time>2021-02-20T13:17:33Z</time>
      </trkpt>
      <trkpt lat="45.16494" lon="5.97231">
        <ele>2538.1</ele>
        <time>2021-02-20T13:17:34Z</time>
      </trkpt>
      <trkpt lat="45.16494" lon="5.97231">
        <ele>2538.1</ele>
        <time>2021-02-20T13:17:35Z</time>
      </trkpt>
      <trkpt lat="45.16494" lon="5.97231">
        <ele>2538.1</ele>
        <time>2021-02-20T13:17:36Z</time>
      </trkpt>
      <trkpt lat="45.16493" lon="5.97231">
        <ele>2538.1</ele>
        <time>2021-02-20T13:17:37Z</time>
      </trkpt>
      <trkpt lat="45.16492" lon="5.97231">
        <ele>2538.8</ele>
        <time>2021-02-20T13:17:38Z</time>
      </trkpt>
      <trkpt lat="45.16492" lon="5.97232">
        <ele>2538.8</ele>
        <time>2021-02-20T13:17:39Z</time>
      </trkpt>
      <trkpt lat="45.16491" lon="5.97233">
        <ele>2540.4</ele>
        <time>2021-02-20T13:17:40Z</time>
      </trkpt>
      <trkpt lat="45.16491" lon="5.97233">
        <ele>2540.4</ele>
        <time>2021-02-20T13:17:41Z</time>
      </trkpt>
      <trkpt lat="45.1649" lon="5.97234">
        <ele>2540.4</ele>
        <time>2021-02-20T13:17:42Z</time>
      </trkpt>
      <trkpt lat="45.1649" lon="5.97235">
        <ele>2540.4</ele>
        <time>2021-02-20T13:17:43Z</time>
      </trkpt>
      <trkpt lat="45.16489" lon="5.97235">
        <ele>2540.4</ele>
        <time>2021-02-20T13:17:44Z</time>
      </trkpt>
      <trkpt lat="45.16489" lon="5.97236">
        <ele>2540.4</ele>
        <time>2021-02-20T13:17:45Z</time>
      </trkpt>
      <trkpt lat="45.16488" lon="5.97236">
        <ele>2542.5</ele>
        <time>2021-02-20T13:17:46Z</time>
      </trkpt>
      <trkpt lat="45.16488" lon="5.97237">
        <ele>2542.5</ele>
        <time>2021-02-20T13:17:47Z</time>
      </trkpt>
      <trkpt lat="45.16487" lon="5.97237">
        <ele>2542.5</ele>
        <time>2021-02-20T13:17:48Z</time>
      </trkpt>
      <trkpt lat="45.16487" lon="5.97238">
        <ele>2542.5</ele>
        <time>2021-02-20T13:17:49Z</time>
      </trkpt>
      <trkpt lat="45.16487" lon="5.97238">
        <ele>2542.5</ele>
        <time>2021-02-20T13:17:50Z</time>
      </trkpt>
      <trkpt lat="45.16487" lon="5.97239">
        <ele>2542.5</ele>
        <time>2021-02-20T13:17:51Z</time>
      </trkpt>
      <trkpt lat="45.16486" lon="5.97239">
        <ele>2542.5</ele>
        <time>2021-02-20T13:17:52Z</time>
      </trkpt>
      <trkpt lat="45.16486" lon="5.9724">
        <ele>2543.2</ele>
        <time>2021-02-20T13:17:53Z</time>
      </trkpt>
      <trkpt lat="45.16485" lon="5.97241">
        <ele>2543.2</ele>
        <time>2021-02-20T13:17:54Z</time>
      </trkpt>
      <trkpt lat="45.16485" lon="5.97242">
        <ele>2544.6</ele>
        <time>2021-02-20T13:17:55Z</time>
      </trkpt>
      <trkpt lat="45.16484" lon="5.97243">
        <ele>2544.6</ele>
        <time>2021-02-20T13:17:56Z</time>
      </trkpt>
      <trkpt lat="45.16484" lon="5.97244">
        <ele>2544.6</ele>
        <time>2021-02-20T13:17:57Z</time>
      </trkpt>
      <trkpt lat="45.16484" lon="5.97244">
        <ele>2545.3</ele>
        <time>2021-02-20T13:17:58Z</time>
      </trkpt>
      <trkpt lat="45.16483" lon="5.97245">
        <ele>2545.3</ele>
        <time>2021-02-20T13:17:59Z</time>
      </trkpt>
      <trkpt lat="45.16483" lon="5.97245">
        <ele>2545.3</ele>
        <time>2021-02-20T13:18:00Z</time>
      </trkpt>
      <trkpt lat="45.16483" lon="5.97245">
        <ele>2545.3</ele>
        <time>2021-02-20T13:18:01Z</time>
      </trkpt>
      <trkpt lat="45.16482" lon="5.97245">
        <ele>2545.3</ele>
        <time>2021-02-20T13:18:02Z</time>
      </trkpt>
      <trkpt lat="45.16482" lon="5.97245">
        <ele>2545.3</ele>
        <time>2021-02-20T13:18:03Z</time>
      </trkpt>
      <trkpt lat="45.16482" lon="5.97245">
        <ele>2545.3</ele>
        <time>2021-02-20T13:18:04Z</time>
      </trkpt>
      <trkpt lat="45.16482" lon="5.97246">
        <ele>2545.3</ele>
        <time>2021-02-20T13:18:05Z</time>
      </trkpt>
      <trkpt lat="45.16482" lon="5.97247">
        <ele>2545.3</ele>
        <time>2021-02-20T13:18:06Z</time>
      </trkpt>
      <trkpt lat="45.16482" lon="5.97247">
        <ele>2546.7</ele>
        <time>2021-02-20T13:18:07Z</time>
      </trkpt>
      <trkpt lat="45.16481" lon="5.97248">
        <ele>2546.7</ele>
        <time>2021-02-20T13:18:08Z</time>
      </trkpt>
      <trkpt lat="45.16481" lon="5.97249">
        <ele>2547.4</ele>
        <time>2021-02-20T13:18:09Z</time>
      </trkpt>
      <trkpt lat="45.16481" lon="5.9725">
        <ele>2547.4</ele>
        <time>2021-02-20T13:18:10Z</time>
      </trkpt>
      <trkpt lat="45.16481" lon="5.9725">
        <ele>2547.4</ele>
        <time>2021-02-20T13:18:11Z</time>
      </trkpt>
      <trkpt lat="45.16481" lon="5.97251">
        <ele>2547.4</ele>
        <time>2021-02-20T13:18:12Z</time>
      </trkpt>
      <trkpt lat="45.16481" lon="5.97252">
        <ele>2547.4</ele>
        <time>2021-02-20T13:18:13Z</time>
      </trkpt>
      <trkpt lat="45.16481" lon="5.97253">
        <ele>2548.1</ele>
        <time>2021-02-20T13:18:14Z</time>
      </trkpt>
      <trkpt lat="45.16481" lon="5.97253">
        <ele>2548.1</ele>
        <time>2021-02-20T13:18:15Z</time>
      </trkpt>
      <trkpt lat="45.1648" lon="5.97254">
        <ele>2548.1</ele>
        <time>2021-02-20T13:18:16Z</time>
      </trkpt>
      <trkpt lat="45.1648" lon="5.97254">
        <ele>2548.1</ele>
        <time>2021-02-20T13:18:17Z</time>
      </trkpt>
      <trkpt lat="45.1648" lon="5.97253">
        <ele>2548.1</ele>
        <time>2021-02-20T13:18:18Z</time>
      </trkpt>
      <trkpt lat="45.16479" lon="5.97252">
        <ele>2548.9</ele>
        <time>2021-02-20T13:18:19Z</time>
      </trkpt>
      <trkpt lat="45.16479" lon="5.97251">
        <ele>2548.9</ele>
        <time>2021-02-20T13:18:20Z</time>
      </trkpt>
      <trkpt lat="45.16478" lon="5.97251">
        <ele>2548.9</ele>
        <time>2021-02-20T13:18:21Z</time>
      </trkpt>
      <trkpt lat="45.16478" lon="5.9725">
        <ele>2548.9</ele>
        <time>2021-02-20T13:18:22Z</time>
      </trkpt>
      <trkpt lat="45.16478" lon="5.9725">
        <ele>2548.9</ele>
        <time>2021-02-20T13:18:23Z</time>
      </trkpt>
      <trkpt lat="45.16478" lon="5.97249">
        <ele>2548.9</ele>
        <time>2021-02-20T13:18:24Z</time>
      </trkpt>
      <trkpt lat="45.16478" lon="5.97249">
        <ele>2548.9</ele>
        <time>2021-02-20T13:18:25Z</time>
      </trkpt>
      <trkpt lat="45.16478" lon="5.97249">
        <ele>2548.9</ele>
        <time>2021-02-20T13:18:26Z</time>
      </trkpt>
      <trkpt lat="45.16478" lon="5.97248">
        <ele>2548.2</ele>
        <time>2021-02-20T13:18:27Z</time>
      </trkpt>
      <trkpt lat="45.16479" lon="5.97249">
        <ele>2548.2</ele>
        <time>2021-02-20T13:18:28Z</time>
      </trkpt>
      <trkpt lat="45.16479" lon="5.97249">
        <ele>2548.2</ele>
        <time>2021-02-20T13:18:29Z</time>
      </trkpt>
      <trkpt lat="45.16479" lon="5.97249">
        <ele>2548.2</ele>
        <time>2021-02-20T13:18:30Z</time>
      </trkpt>
      <trkpt lat="45.16479" lon="5.97249">
        <ele>2548.2</ele>
        <time>2021-02-20T13:18:31Z</time>
      </trkpt>
      <trkpt lat="45.16479" lon="5.97249">
        <ele>2548.2</ele>
        <time>2021-02-20T13:18:32Z</time>
      </trkpt>
      <trkpt lat="45.16479" lon="5.97249">
        <ele>2548.2</ele>
        <time>2021-02-20T13:18:33Z</time>
      </trkpt>
      <trkpt lat="45.16479" lon="5.97249">
        <ele>2548.2</ele>
        <time>2021-02-20T13:18:34Z</time>
      </trkpt>
      <trkpt lat="45.16479" lon="5.97249">
        <ele>2548.2</ele>
        <time>2021-02-20T13:18:35Z</time>
      </trkpt>
      <trkpt lat="45.16481" lon="5.97253">
        <ele>2547.4</ele>
        <time>2021-02-20T13:18:36Z</time>
      </trkpt>
      <trkpt lat="45.16481" lon="5.97253">
        <ele>2547.4</ele>
        <time>2021-02-20T13:18:37Z</time>
      </trkpt>
      <trkpt lat="45.16481" lon="5.97253">
        <ele>2547.4</ele>
        <time>2021-02-20T13:18:38Z</time>
      </trkpt>
      <trkpt lat="45.1648" lon="5.97252">
        <ele>2547.4</ele>
        <time>2021-02-20T13:18:39Z</time>
      </trkpt>
      <trkpt lat="45.1648" lon="5.97251">
        <ele>2547.4</ele>
        <time>2021-02-20T13:18:40Z</time>
      </trkpt>
      <trkpt lat="45.1648" lon="5.97251">
        <ele>2547.4</ele>
        <time>2021-02-20T13:18:41Z</time>
      </trkpt>
      <trkpt lat="45.1648" lon="5.9725">
        <ele>2547.4</ele>
        <time>2021-02-20T13:18:42Z</time>
      </trkpt>
      <trkpt lat="45.1648" lon="5.97249">
        <ele>2547.4</ele>
        <time>2021-02-20T13:18:43Z</time>
      </trkpt>
      <trkpt lat="45.16479" lon="5.97248">
        <ele>2546.7</ele>
        <time>2021-02-20T13:18:44Z</time>
      </trkpt>
      <trkpt lat="45.16479" lon="5.97248">
        <ele>2546.7</ele>
        <time>2021-02-20T13:18:45Z</time>
      </trkpt>
      <trkpt lat="45.16479" lon="5.97248">
        <ele>2548.2</ele>
        <time>2021-02-20T13:18:46Z</time>
      </trkpt>
      <trkpt lat="45.16479" lon="5.97247">
        <ele>2548.2</ele>
        <time>2021-02-20T13:18:47Z</time>
      </trkpt>
      <trkpt lat="45.16479" lon="5.97246">
        <ele>2548.2</ele>
        <time>2021-02-20T13:18:48Z</time>
      </trkpt>
      <trkpt lat="45.16479" lon="5.97246">
        <ele>2548.2</ele>
        <time>2021-02-20T13:18:49Z</time>
      </trkpt>
      <trkpt lat="45.16479" lon="5.97245">
        <ele>2548.2</ele>
        <time>2021-02-20T13:18:50Z</time>
      </trkpt>
      <trkpt lat="45.16478" lon="5.97244">
        <ele>2548.2</ele>
        <time>2021-02-20T13:18:51Z</time>
      </trkpt>
      <trkpt lat="45.16478" lon="5.97244">
        <ele>2548.2</ele>
        <time>2021-02-20T13:18:52Z</time>
      </trkpt>
      <trkpt lat="45.16478" lon="5.97243">
        <ele>2547.5</ele>
        <time>2021-02-20T13:18:53Z</time>
      </trkpt>
      <trkpt lat="45.16478" lon="5.97243">
        <ele>2547.5</ele>
        <time>2021-02-20T13:18:54Z</time>
      </trkpt>
      <trkpt lat="45.16478" lon="5.97242">
        <ele>2547.5</ele>
        <time>2021-02-20T13:18:55Z</time>
      </trkpt>
      <trkpt lat="45.16478" lon="5.97242">
        <ele>2547.5</ele>
        <time>2021-02-20T13:18:56Z</time>
      </trkpt>
      <trkpt lat="45.16478" lon="5.97242">
        <ele>2547.5</ele>
        <time>2021-02-20T13:18:57Z</time>
      </trkpt>
      <trkpt lat="45.16477" lon="5.97242">
        <ele>2547.5</ele>
        <time>2021-02-20T13:18:58Z</time>
      </trkpt>
      <trkpt lat="45.16477" lon="5.97241">
        <ele>2547.5</ele>
        <time>2021-02-20T13:18:59Z</time>
      </trkpt>
      <trkpt lat="45.16477" lon="5.97242">
        <ele>2547.5</ele>
        <time>2021-02-20T13:19:00Z</time>
      </trkpt>
      <trkpt lat="45.16476" lon="5.97242">
        <ele>2549.2</ele>
        <time>2021-02-20T13:19:01Z</time>
      </trkpt>
      <trkpt lat="45.16475" lon="5.97242">
        <ele>2549.2</ele>
        <time>2021-02-20T13:19:02Z</time>
      </trkpt>
      <trkpt lat="45.16475" lon="5.97243">
        <ele>2549.2</ele>
        <time>2021-02-20T13:19:03Z</time>
      </trkpt>
      <trkpt lat="45.16474" lon="5.97243">
        <ele>2549.2</ele>
        <time>2021-02-20T13:19:04Z</time>
      </trkpt>
      <trkpt lat="45.16473" lon="5.97244">
        <ele>2550.8</ele>
        <time>2021-02-20T13:19:05Z</time>
      </trkpt>
      <trkpt lat="45.16472" lon="5.97244">
        <ele>2551.4</ele>
        <time>2021-02-20T13:19:06Z</time>
      </trkpt>
      <trkpt lat="45.16471" lon="5.97245">
        <ele>2551.4</ele>
        <time>2021-02-20T13:19:07Z</time>
      </trkpt>
      <trkpt lat="45.1647" lon="5.97246">
        <ele>2551.4</ele>
        <time>2021-02-20T13:19:08Z</time>
      </trkpt>
      <trkpt lat="45.16469" lon="5.97247">
        <ele>2552.9</ele>
        <time>2021-02-20T13:19:09Z</time>
      </trkpt>
      <trkpt lat="45.16469" lon="5.97247">
        <ele>2552.9</ele>
        <time>2021-02-20T13:19:10Z</time>
      </trkpt>
      <trkpt lat="45.16468" lon="5.97248">
        <ele>2552.9</ele>
        <time>2021-02-20T13:19:11Z</time>
      </trkpt>
      <trkpt lat="45.16467" lon="5.97249">
        <ele>2554.3</ele>
        <time>2021-02-20T13:19:12Z</time>
      </trkpt>
      <trkpt lat="45.16467" lon="5.97249">
        <ele>2554.8</ele>
        <time>2021-02-20T13:19:13Z</time>
      </trkpt>
      <trkpt lat="45.16466" lon="5.97249">
        <ele>2554.8</ele>
        <time>2021-02-20T13:19:14Z</time>
      </trkpt>
      <trkpt lat="45.16465" lon="5.9725">
        <ele>2554.8</ele>
        <time>2021-02-20T13:19:15Z</time>
      </trkpt>
      <trkpt lat="45.16465" lon="5.9725">
        <ele>2554.8</ele>
        <time>2021-02-20T13:19:16Z</time>
      </trkpt>
      <trkpt lat="45.16464" lon="5.97251">
        <ele>2556</ele>
        <time>2021-02-20T13:19:17Z</time>
      </trkpt>
      <trkpt lat="45.16463" lon="5.97251">
        <ele>2556</ele>
        <time>2021-02-20T13:19:18Z</time>
      </trkpt>
      <trkpt lat="45.16463" lon="5.97251">
        <ele>2556</ele>
        <time>2021-02-20T13:19:19Z</time>
      </trkpt>
      <trkpt lat="45.16462" lon="5.97251">
        <ele>2556</ele>
        <time>2021-02-20T13:19:20Z</time>
      </trkpt>
      <trkpt lat="45.16461" lon="5.97251">
        <ele>2557.1</ele>
        <time>2021-02-20T13:19:21Z</time>
      </trkpt>
      <trkpt lat="45.1646" lon="5.97252">
        <ele>2557.1</ele>
        <time>2021-02-20T13:19:22Z</time>
      </trkpt>
      <trkpt lat="45.1646" lon="5.97252">
        <ele>2557.1</ele>
        <time>2021-02-20T13:19:23Z</time>
      </trkpt>
      <trkpt lat="45.16459" lon="5.97253">
        <ele>2557.1</ele>
        <time>2021-02-20T13:19:24Z</time>
      </trkpt>
      <trkpt lat="45.16459" lon="5.97253">
        <ele>2557.6</ele>
        <time>2021-02-20T13:19:25Z</time>
      </trkpt>
      <trkpt lat="45.16459" lon="5.97254">
        <ele>2557.6</ele>
        <time>2021-02-20T13:19:26Z</time>
      </trkpt>
      <trkpt lat="45.16459" lon="5.97254">
        <ele>2557.6</ele>
        <time>2021-02-20T13:19:27Z</time>
      </trkpt>
      <trkpt lat="45.16459" lon="5.97255">
        <ele>2557.6</ele>
        <time>2021-02-20T13:19:28Z</time>
      </trkpt>
      <trkpt lat="45.16459" lon="5.97256">
        <ele>2557.6</ele>
        <time>2021-02-20T13:19:29Z</time>
      </trkpt>
      <trkpt lat="45.16458" lon="5.97257">
        <ele>2557.6</ele>
        <time>2021-02-20T13:19:30Z</time>
      </trkpt>
      <trkpt lat="45.16458" lon="5.97257">
        <ele>2559.1</ele>
        <time>2021-02-20T13:19:31Z</time>
      </trkpt>
      <trkpt lat="45.16458" lon="5.97258">
        <ele>2559.1</ele>
        <time>2021-02-20T13:19:32Z</time>
      </trkpt>
      <trkpt lat="45.16457" lon="5.97258">
        <ele>2559.1</ele>
        <time>2021-02-20T13:19:33Z</time>
      </trkpt>
      <trkpt lat="45.16457" lon="5.97259">
        <ele>2559.1</ele>
        <time>2021-02-20T13:19:34Z</time>
      </trkpt>
      <trkpt lat="45.16457" lon="5.97259">
        <ele>2559.1</ele>
        <time>2021-02-20T13:19:35Z</time>
      </trkpt>
      <trkpt lat="45.16457" lon="5.97259">
        <ele>2559.1</ele>
        <time>2021-02-20T13:19:36Z</time>
      </trkpt>
      <trkpt lat="45.16457" lon="5.97259">
        <ele>2559.1</ele>
        <time>2021-02-20T13:19:37Z</time>
      </trkpt>
      <trkpt lat="45.16457" lon="5.9726">
        <ele>2559.1</ele>
        <time>2021-02-20T13:19:38Z</time>
      </trkpt>
      <trkpt lat="45.16457" lon="5.9726">
        <ele>2559.1</ele>
        <time>2021-02-20T13:19:39Z</time>
      </trkpt>
      <trkpt lat="45.16457" lon="5.97261">
        <ele>2559.1</ele>
        <time>2021-02-20T13:19:40Z</time>
      </trkpt>
      <trkpt lat="45.16457" lon="5.97261">
        <ele>2559.1</ele>
        <time>2021-02-20T13:19:41Z</time>
      </trkpt>
      <trkpt lat="45.16457" lon="5.97261">
        <ele>2559.1</ele>
        <time>2021-02-20T13:19:42Z</time>
      </trkpt>
      <trkpt lat="45.16457" lon="5.97262">
        <ele>2559.5</ele>
        <time>2021-02-20T13:19:43Z</time>
      </trkpt>
      <trkpt lat="45.16456" lon="5.97263">
        <ele>2559.5</ele>
        <time>2021-02-20T13:19:44Z</time>
      </trkpt>
      <trkpt lat="45.16456" lon="5.97263">
        <ele>2559.5</ele>
        <time>2021-02-20T13:19:45Z</time>
      </trkpt>
      <trkpt lat="45.16456" lon="5.97264">
        <ele>2559.5</ele>
        <time>2021-02-20T13:19:46Z</time>
      </trkpt>
      <trkpt lat="45.16456" lon="5.97265">
        <ele>2559.5</ele>
        <time>2021-02-20T13:19:47Z</time>
      </trkpt>
      <trkpt lat="45.16455" lon="5.97265">
        <ele>2560.7</ele>
        <time>2021-02-20T13:19:48Z</time>
      </trkpt>
      <trkpt lat="45.16454" lon="5.97266">
        <ele>2560.7</ele>
        <time>2021-02-20T13:19:49Z</time>
      </trkpt>
      <trkpt lat="45.16454" lon="5.97266">
        <ele>2561.1</ele>
        <time>2021-02-20T13:19:50Z</time>
      </trkpt>
      <trkpt lat="45.16454" lon="5.97266">
        <ele>2561.1</ele>
        <time>2021-02-20T13:19:51Z</time>
      </trkpt>
      <trkpt lat="45.16454" lon="5.97267">
        <ele>2561.1</ele>
        <time>2021-02-20T13:19:52Z</time>
      </trkpt>
      <trkpt lat="45.16454" lon="5.97267">
        <ele>2561.1</ele>
        <time>2021-02-20T13:19:53Z</time>
      </trkpt>
      <trkpt lat="45.16453" lon="5.97267">
        <ele>2561.1</ele>
        <time>2021-02-20T13:19:54Z</time>
      </trkpt>
      <trkpt lat="45.16453" lon="5.97267">
        <ele>2561.1</ele>
        <time>2021-02-20T13:19:55Z</time>
      </trkpt>
      <trkpt lat="45.16453" lon="5.97267">
        <ele>2561.1</ele>
        <time>2021-02-20T13:19:56Z</time>
      </trkpt>
      <trkpt lat="45.16452" lon="5.97267">
        <ele>2561.1</ele>
        <time>2021-02-20T13:19:57Z</time>
      </trkpt>
      <trkpt lat="45.16452" lon="5.97268">
        <ele>2562.3</ele>
        <time>2021-02-20T13:19:58Z</time>
      </trkpt>
      <trkpt lat="45.16451" lon="5.97268">
        <ele>2562.3</ele>
        <time>2021-02-20T13:19:59Z</time>
      </trkpt>
      <trkpt lat="45.1645" lon="5.97268">
        <ele>2562.3</ele>
        <time>2021-02-20T13:20:00Z</time>
      </trkpt>
      <trkpt lat="45.1645" lon="5.97268">
        <ele>2562.3</ele>
        <time>2021-02-20T13:20:01Z</time>
      </trkpt>
      <trkpt lat="45.16449" lon="5.97268">
        <ele>2562.3</ele>
        <time>2021-02-20T13:20:02Z</time>
      </trkpt>
      <trkpt lat="45.16449" lon="5.97268">
        <ele>2563.6</ele>
        <time>2021-02-20T13:20:03Z</time>
      </trkpt>
      <trkpt lat="45.16448" lon="5.97268">
        <ele>2563.6</ele>
        <time>2021-02-20T13:20:04Z</time>
      </trkpt>
      <trkpt lat="45.16448" lon="5.97268">
        <ele>2563.6</ele>
        <time>2021-02-20T13:20:05Z</time>
      </trkpt>
      <trkpt lat="45.16447" lon="5.97268">
        <ele>2563.6</ele>
        <time>2021-02-20T13:20:06Z</time>
      </trkpt>
      <trkpt lat="45.16447" lon="5.97269">
        <ele>2563.6</ele>
        <time>2021-02-20T13:20:07Z</time>
      </trkpt>
      <trkpt lat="45.16446" lon="5.97269">
        <ele>2565</ele>
        <time>2021-02-20T13:20:08Z</time>
      </trkpt>
      <trkpt lat="45.16445" lon="5.97269">
        <ele>2565</ele>
        <time>2021-02-20T13:20:09Z</time>
      </trkpt>
      <trkpt lat="45.16444" lon="5.97269">
        <ele>2565</ele>
        <time>2021-02-20T13:20:10Z</time>
      </trkpt>
      <trkpt lat="45.16444" lon="5.9727">
        <ele>2565</ele>
        <time>2021-02-20T13:20:11Z</time>
      </trkpt>
      <trkpt lat="45.16443" lon="5.9727">
        <ele>2565</ele>
        <time>2021-02-20T13:20:12Z</time>
      </trkpt>
      <trkpt lat="45.16443" lon="5.9727">
        <ele>2566.2</ele>
        <time>2021-02-20T13:20:13Z</time>
      </trkpt>
      <trkpt lat="45.16443" lon="5.9727">
        <ele>2566.2</ele>
        <time>2021-02-20T13:20:14Z</time>
      </trkpt>
      <trkpt lat="45.16442" lon="5.9727">
        <ele>2566.2</ele>
        <time>2021-02-20T13:20:15Z</time>
      </trkpt>
      <trkpt lat="45.16442" lon="5.9727">
        <ele>2566.2</ele>
        <time>2021-02-20T13:20:16Z</time>
      </trkpt>
      <trkpt lat="45.16441" lon="5.9727">
        <ele>2566.5</ele>
        <time>2021-02-20T13:20:17Z</time>
      </trkpt>
      <trkpt lat="45.1644" lon="5.97271">
        <ele>2566.5</ele>
        <time>2021-02-20T13:20:18Z</time>
      </trkpt>
      <trkpt lat="45.1644" lon="5.97271">
        <ele>2567.7</ele>
        <time>2021-02-20T13:20:19Z</time>
      </trkpt>
      <trkpt lat="45.16439" lon="5.97271">
        <ele>2567.7</ele>
        <time>2021-02-20T13:20:20Z</time>
      </trkpt>
      <trkpt lat="45.16439" lon="5.97271">
        <ele>2567.7</ele>
        <time>2021-02-20T13:20:21Z</time>
      </trkpt>
      <trkpt lat="45.16438" lon="5.97272">
        <ele>2567.7</ele>
        <time>2021-02-20T13:20:22Z</time>
      </trkpt>
      <trkpt lat="45.16437" lon="5.97272">
        <ele>2567.7</ele>
        <time>2021-02-20T13:20:23Z</time>
      </trkpt>
      <trkpt lat="45.16437" lon="5.97272">
        <ele>2568.9</ele>
        <time>2021-02-20T13:20:24Z</time>
      </trkpt>
      <trkpt lat="45.16436" lon="5.97273">
        <ele>2568.9</ele>
        <time>2021-02-20T13:20:25Z</time>
      </trkpt>
      <trkpt lat="45.16435" lon="5.97273">
        <ele>2568.9</ele>
        <time>2021-02-20T13:20:26Z</time>
      </trkpt>
      <trkpt lat="45.16434" lon="5.97274">
        <ele>2568.9</ele>
        <time>2021-02-20T13:20:27Z</time>
      </trkpt>
      <trkpt lat="45.16433" lon="5.97274">
        <ele>2570.1</ele>
        <time>2021-02-20T13:20:28Z</time>
      </trkpt>
      <trkpt lat="45.16433" lon="5.97274">
        <ele>2570.3</ele>
        <time>2021-02-20T13:20:29Z</time>
      </trkpt>
      <trkpt lat="45.16432" lon="5.97275">
        <ele>2570.3</ele>
        <time>2021-02-20T13:20:30Z</time>
      </trkpt>
      <trkpt lat="45.16432" lon="5.97275">
        <ele>2570.3</ele>
        <time>2021-02-20T13:20:31Z</time>
      </trkpt>
      <trkpt lat="45.16431" lon="5.97275">
        <ele>2570.3</ele>
        <time>2021-02-20T13:20:32Z</time>
      </trkpt>
      <trkpt lat="45.16431" lon="5.97276">
        <ele>2570.3</ele>
        <time>2021-02-20T13:20:33Z</time>
      </trkpt>
      <trkpt lat="45.16431" lon="5.97277">
        <ele>2571.4</ele>
        <time>2021-02-20T13:20:34Z</time>
      </trkpt>
      <trkpt lat="45.1643" lon="5.97277">
        <ele>2571.4</ele>
        <time>2021-02-20T13:20:35Z</time>
      </trkpt>
      <trkpt lat="45.16429" lon="5.97278">
        <ele>2571.4</ele>
        <time>2021-02-20T13:20:36Z</time>
      </trkpt>
      <trkpt lat="45.16428" lon="5.97278">
        <ele>2571.4</ele>
        <time>2021-02-20T13:20:37Z</time>
      </trkpt>
      <trkpt lat="45.16428" lon="5.97279">
        <ele>2571.7</ele>
        <time>2021-02-20T13:20:38Z</time>
      </trkpt>
      <trkpt lat="45.16428" lon="5.97279">
        <ele>2572.8</ele>
        <time>2021-02-20T13:20:39Z</time>
      </trkpt>
      <trkpt lat="45.16427" lon="5.9728">
        <ele>2572.8</ele>
        <time>2021-02-20T13:20:40Z</time>
      </trkpt>
      <trkpt lat="45.16426" lon="5.97281">
        <ele>2572.8</ele>
        <time>2021-02-20T13:20:41Z</time>
      </trkpt>
      <trkpt lat="45.16426" lon="5.97282">
        <ele>2572.8</ele>
        <time>2021-02-20T13:20:42Z</time>
      </trkpt>
      <trkpt lat="45.16425" lon="5.97283">
        <ele>2574</ele>
        <time>2021-02-20T13:20:43Z</time>
      </trkpt>
      <trkpt lat="45.16424" lon="5.97283">
        <ele>2574.2</ele>
        <time>2021-02-20T13:20:44Z</time>
      </trkpt>
      <trkpt lat="45.16424" lon="5.97283">
        <ele>2574.2</ele>
        <time>2021-02-20T13:20:45Z</time>
      </trkpt>
      <trkpt lat="45.16424" lon="5.97283">
        <ele>2574.2</ele>
        <time>2021-02-20T13:20:46Z</time>
      </trkpt>
      <trkpt lat="45.16424" lon="5.97284">
        <ele>2574.2</ele>
        <time>2021-02-20T13:20:47Z</time>
      </trkpt>
      <trkpt lat="45.16423" lon="5.97285">
        <ele>2574.2</ele>
        <time>2021-02-20T13:20:48Z</time>
      </trkpt>
      <trkpt lat="45.16422" lon="5.97286">
        <ele>2574.2</ele>
        <time>2021-02-20T13:20:49Z</time>
      </trkpt>
      <trkpt lat="45.16421" lon="5.97286">
        <ele>2575.4</ele>
        <time>2021-02-20T13:20:50Z</time>
      </trkpt>
      <trkpt lat="45.16421" lon="5.97287">
        <ele>2575.4</ele>
        <time>2021-02-20T13:20:51Z</time>
      </trkpt>
      <trkpt lat="45.1642" lon="5.97287">
        <ele>2575.6</ele>
        <time>2021-02-20T13:20:52Z</time>
      </trkpt>
      <trkpt lat="45.16419" lon="5.97288">
        <ele>2575.6</ele>
        <time>2021-02-20T13:20:53Z</time>
      </trkpt>
      <trkpt lat="45.16419" lon="5.97288">
        <ele>2575.6</ele>
        <time>2021-02-20T13:20:54Z</time>
      </trkpt>
      <trkpt lat="45.16419" lon="5.97289">
        <ele>2576.9</ele>
        <time>2021-02-20T13:20:55Z</time>
      </trkpt>
      <trkpt lat="45.16418" lon="5.97289">
        <ele>2576.9</ele>
        <time>2021-02-20T13:20:56Z</time>
      </trkpt>
      <trkpt lat="45.16418" lon="5.9729">
        <ele>2576.9</ele>
        <time>2021-02-20T13:20:57Z</time>
      </trkpt>
      <trkpt lat="45.16417" lon="5.9729">
        <ele>2576.9</ele>
        <time>2021-02-20T13:20:58Z</time>
      </trkpt>
      <trkpt lat="45.16417" lon="5.9729">
        <ele>2576.9</ele>
        <time>2021-02-20T13:20:59Z</time>
      </trkpt>
      <trkpt lat="45.16417" lon="5.9729">
        <ele>2576.9</ele>
        <time>2021-02-20T13:21:00Z</time>
      </trkpt>
      <trkpt lat="45.16417" lon="5.9729">
        <ele>2576.9</ele>
        <time>2021-02-20T13:21:01Z</time>
      </trkpt>
      <trkpt lat="45.16416" lon="5.97291">
        <ele>2576.9</ele>
        <time>2021-02-20T13:21:02Z</time>
      </trkpt>
      <trkpt lat="45.16416" lon="5.97291">
        <ele>2576.9</ele>
        <time>2021-02-20T13:21:03Z</time>
      </trkpt>
      <trkpt lat="45.16416" lon="5.97292">
        <ele>2578.5</ele>
        <time>2021-02-20T13:21:04Z</time>
      </trkpt>
      <trkpt lat="45.16415" lon="5.97292">
        <ele>2578.5</ele>
        <time>2021-02-20T13:21:05Z</time>
      </trkpt>
      <trkpt lat="45.16415" lon="5.97292">
        <ele>2578.5</ele>
        <time>2021-02-20T13:21:06Z</time>
      </trkpt>
      <trkpt lat="45.16415" lon="5.97292">
        <ele>2578.5</ele>
        <time>2021-02-20T13:21:07Z</time>
      </trkpt>
      <trkpt lat="45.16414" lon="5.97292">
        <ele>2578.5</ele>
        <time>2021-02-20T13:21:08Z</time>
      </trkpt>
      <trkpt lat="45.16414" lon="5.97292">
        <ele>2578.5</ele>
        <time>2021-02-20T13:21:09Z</time>
      </trkpt>
      <trkpt lat="45.16414" lon="5.97293">
        <ele>2578.5</ele>
        <time>2021-02-20T13:21:10Z</time>
      </trkpt>
      <trkpt lat="45.16413" lon="5.97293">
        <ele>2578.5</ele>
        <time>2021-02-20T13:21:11Z</time>
      </trkpt>
      <trkpt lat="45.16413" lon="5.97294">
        <ele>2579.9</ele>
        <time>2021-02-20T13:21:12Z</time>
      </trkpt>
      <trkpt lat="45.16412" lon="5.97296">
        <ele>2579.9</ele>
        <time>2021-02-20T13:21:13Z</time>
      </trkpt>
      <trkpt lat="45.16411" lon="5.97296">
        <ele>2580.1</ele>
        <time>2021-02-20T13:21:14Z</time>
      </trkpt>
      <trkpt lat="45.16411" lon="5.97297">
        <ele>2580.1</ele>
        <time>2021-02-20T13:21:15Z</time>
      </trkpt>
      <trkpt lat="45.1641" lon="5.97297">
        <ele>2580.1</ele>
        <time>2021-02-20T13:21:16Z</time>
      </trkpt>
      <trkpt lat="45.1641" lon="5.97298">
        <ele>2580.1</ele>
        <time>2021-02-20T13:21:17Z</time>
      </trkpt>
      <trkpt lat="45.16409" lon="5.97298">
        <ele>2581.5</ele>
        <time>2021-02-20T13:21:18Z</time>
      </trkpt>
      <trkpt lat="45.16408" lon="5.97298">
        <ele>2581.5</ele>
        <time>2021-02-20T13:21:19Z</time>
      </trkpt>
      <trkpt lat="45.16408" lon="5.97299">
        <ele>2581.5</ele>
        <time>2021-02-20T13:21:20Z</time>
      </trkpt>
      <trkpt lat="45.16407" lon="5.973">
        <ele>2581.5</ele>
        <time>2021-02-20T13:21:21Z</time>
      </trkpt>
      <trkpt lat="45.16406" lon="5.973">
        <ele>2582.9</ele>
        <time>2021-02-20T13:21:22Z</time>
      </trkpt>
      <trkpt lat="45.16406" lon="5.973">
        <ele>2582.9</ele>
        <time>2021-02-20T13:21:23Z</time>
      </trkpt>
      <trkpt lat="45.16405" lon="5.973">
        <ele>2582.9</ele>
        <time>2021-02-20T13:21:24Z</time>
      </trkpt>
      <trkpt lat="45.16405" lon="5.973">
        <ele>2582.9</ele>
        <time>2021-02-20T13:21:25Z</time>
      </trkpt>
      <trkpt lat="45.16404" lon="5.973">
        <ele>2582.9</ele>
        <time>2021-02-20T13:21:26Z</time>
      </trkpt>
      <trkpt lat="45.16404" lon="5.973">
        <ele>2582.9</ele>
        <time>2021-02-20T13:21:27Z</time>
      </trkpt>
      <trkpt lat="45.16403" lon="5.97301">
        <ele>2584.2</ele>
        <time>2021-02-20T13:21:28Z</time>
      </trkpt>
      <trkpt lat="45.16403" lon="5.97302">
        <ele>2584.2</ele>
        <time>2021-02-20T13:21:29Z</time>
      </trkpt>
      <trkpt lat="45.16402" lon="5.97302">
        <ele>2584.2</ele>
        <time>2021-02-20T13:21:30Z</time>
      </trkpt>
      <trkpt lat="45.16402" lon="5.97303">
        <ele>2584.2</ele>
        <time>2021-02-20T13:21:31Z</time>
      </trkpt>
      <trkpt lat="45.16402" lon="5.97303">
        <ele>2584.2</ele>
        <time>2021-02-20T13:21:32Z</time>
      </trkpt>
      <trkpt lat="45.16401" lon="5.97304">
        <ele>2584.2</ele>
        <time>2021-02-20T13:21:33Z</time>
      </trkpt>
      <trkpt lat="45.16401" lon="5.97305">
        <ele>2584.3</ele>
        <time>2021-02-20T13:21:34Z</time>
      </trkpt>
      <trkpt lat="45.16401" lon="5.97305">
        <ele>2584.3</ele>
        <time>2021-02-20T13:21:35Z</time>
      </trkpt>
      <trkpt lat="45.16401" lon="5.97306">
        <ele>2585.6</ele>
        <time>2021-02-20T13:21:36Z</time>
      </trkpt>
      <trkpt lat="45.164" lon="5.97306">
        <ele>2585.6</ele>
        <time>2021-02-20T13:21:37Z</time>
      </trkpt>
      <trkpt lat="45.164" lon="5.97307">
        <ele>2585.6</ele>
        <time>2021-02-20T13:21:38Z</time>
      </trkpt>
      <trkpt lat="45.164" lon="5.97308">
        <ele>2585.6</ele>
        <time>2021-02-20T13:21:39Z</time>
      </trkpt>
      <trkpt lat="45.16399" lon="5.97309">
        <ele>2585.6</ele>
        <time>2021-02-20T13:21:40Z</time>
      </trkpt>
      <trkpt lat="45.16399" lon="5.97309">
        <ele>2585.7</ele>
        <time>2021-02-20T13:21:41Z</time>
      </trkpt>
      <trkpt lat="45.16398" lon="5.9731">
        <ele>2585.7</ele>
        <time>2021-02-20T13:21:42Z</time>
      </trkpt>
      <trkpt lat="45.16398" lon="5.97311">
        <ele>2585.7</ele>
        <time>2021-02-20T13:21:43Z</time>
      </trkpt>
      <trkpt lat="45.16398" lon="5.97311">
        <ele>2585.7</ele>
        <time>2021-02-20T13:21:44Z</time>
      </trkpt>
      <trkpt lat="45.16398" lon="5.9731">
        <ele>2585.7</ele>
        <time>2021-02-20T13:21:45Z</time>
      </trkpt>
      <trkpt lat="45.16397" lon="5.97311">
        <ele>2587.1</ele>
        <time>2021-02-20T13:21:46Z</time>
      </trkpt>
      <trkpt lat="45.16397" lon="5.97311">
        <ele>2587.1</ele>
        <time>2021-02-20T13:21:47Z</time>
      </trkpt>
      <trkpt lat="45.16397" lon="5.97311">
        <ele>2587.1</ele>
        <time>2021-02-20T13:21:48Z</time>
      </trkpt>
      <trkpt lat="45.16396" lon="5.97312">
        <ele>2587.1</ele>
        <time>2021-02-20T13:21:49Z</time>
      </trkpt>
      <trkpt lat="45.16396" lon="5.97313">
        <ele>2587.1</ele>
        <time>2021-02-20T13:21:50Z</time>
      </trkpt>
      <trkpt lat="45.16395" lon="5.97313">
        <ele>2587.3</ele>
        <time>2021-02-20T13:21:51Z</time>
      </trkpt>
      <trkpt lat="45.16395" lon="5.97313">
        <ele>2587.3</ele>
        <time>2021-02-20T13:21:52Z</time>
      </trkpt>
      <trkpt lat="45.16394" lon="5.97313">
        <ele>2588.9</ele>
        <time>2021-02-20T13:21:53Z</time>
      </trkpt>
      <trkpt lat="45.16394" lon="5.97314">
        <ele>2588.9</ele>
        <time>2021-02-20T13:21:54Z</time>
      </trkpt>
      <trkpt lat="45.16393" lon="5.97315">
        <ele>2588.9</ele>
        <time>2021-02-20T13:21:55Z</time>
      </trkpt>
      <trkpt lat="45.16393" lon="5.97315">
        <ele>2588.9</ele>
        <time>2021-02-20T13:21:56Z</time>
      </trkpt>
      <trkpt lat="45.16393" lon="5.97315">
        <ele>2588.9</ele>
        <time>2021-02-20T13:21:57Z</time>
      </trkpt>
      <trkpt lat="45.16392" lon="5.97316">
        <ele>2588.9</ele>
        <time>2021-02-20T13:21:58Z</time>
      </trkpt>
      <trkpt lat="45.16391" lon="5.97317">
        <ele>2590.6</ele>
        <time>2021-02-20T13:21:59Z</time>
      </trkpt>
      <trkpt lat="45.16391" lon="5.97317">
        <ele>2590.6</ele>
        <time>2021-02-20T13:22:00Z</time>
      </trkpt>
      <trkpt lat="45.1639" lon="5.97318">
        <ele>2590.8</ele>
        <time>2021-02-20T13:22:01Z</time>
      </trkpt>
      <trkpt lat="45.16389" lon="5.97318">
        <ele>2590.8</ele>
        <time>2021-02-20T13:22:02Z</time>
      </trkpt>
      <trkpt lat="45.16388" lon="5.97317">
        <ele>2592.6</ele>
        <time>2021-02-20T13:22:03Z</time>
      </trkpt>
      <trkpt lat="45.16388" lon="5.97317">
        <ele>2592.6</ele>
        <time>2021-02-20T13:22:04Z</time>
      </trkpt>
      <trkpt lat="45.16388" lon="5.97317">
        <ele>2592.6</ele>
        <time>2021-02-20T13:22:05Z</time>
      </trkpt>
      <trkpt lat="45.16388" lon="5.97318">
        <ele>2592.6</ele>
        <time>2021-02-20T13:22:06Z</time>
      </trkpt>
      <trkpt lat="45.16388" lon="5.97319">
        <ele>2592.6</ele>
        <time>2021-02-20T13:22:07Z</time>
      </trkpt>
      <trkpt lat="45.16389" lon="5.9732">
        <ele>2590.8</ele>
        <time>2021-02-20T13:22:08Z</time>
      </trkpt>
      <trkpt lat="45.16389" lon="5.9732">
        <ele>2590.8</ele>
        <time>2021-02-20T13:22:09Z</time>
      </trkpt>
      <trkpt lat="45.1639" lon="5.97321">
        <ele>2590.8</ele>
        <time>2021-02-20T13:22:10Z</time>
      </trkpt>
      <trkpt lat="45.1639" lon="5.97322">
        <ele>2590.9</ele>
        <time>2021-02-20T13:22:11Z</time>
      </trkpt>
      <trkpt lat="45.1639" lon="5.97322">
        <ele>2590.9</ele>
        <time>2021-02-20T13:22:12Z</time>
      </trkpt>
      <trkpt lat="45.1639" lon="5.97323">
        <ele>2590.9</ele>
        <time>2021-02-20T13:22:13Z</time>
      </trkpt>
      <trkpt lat="45.1639" lon="5.97324">
        <ele>2590.9</ele>
        <time>2021-02-20T13:22:14Z</time>
      </trkpt>
      <trkpt lat="45.1639" lon="5.97325">
        <ele>2590.9</ele>
        <time>2021-02-20T13:22:15Z</time>
      </trkpt>
      <trkpt lat="45.1639" lon="5.97327">
        <ele>2591.1</ele>
        <time>2021-02-20T13:22:16Z</time>
      </trkpt>
      <trkpt lat="45.1639" lon="5.97327">
        <ele>2591.1</ele>
        <time>2021-02-20T13:22:17Z</time>
      </trkpt>
      <trkpt lat="45.1639" lon="5.97328">
        <ele>2591.1</ele>
        <time>2021-02-20T13:22:18Z</time>
      </trkpt>
      <trkpt lat="45.1639" lon="5.97328">
        <ele>2591.1</ele>
        <time>2021-02-20T13:22:19Z</time>
      </trkpt>
      <trkpt lat="45.16389" lon="5.97329">
        <ele>2591.1</ele>
        <time>2021-02-20T13:22:20Z</time>
      </trkpt>
      <trkpt lat="45.16389" lon="5.9733">
        <ele>2591.1</ele>
        <time>2021-02-20T13:22:21Z</time>
      </trkpt>
      <trkpt lat="45.16388" lon="5.97331">
        <ele>2593</ele>
        <time>2021-02-20T13:22:22Z</time>
      </trkpt>
      <trkpt lat="45.16387" lon="5.97332">
        <ele>2593</ele>
        <time>2021-02-20T13:22:23Z</time>
      </trkpt>
      <trkpt lat="45.16387" lon="5.97333">
        <ele>2593</ele>
        <time>2021-02-20T13:22:24Z</time>
      </trkpt>
      <trkpt lat="45.16387" lon="5.97333">
        <ele>2593</ele>
        <time>2021-02-20T13:22:25Z</time>
      </trkpt>
      <trkpt lat="45.16387" lon="5.97333">
        <ele>2593</ele>
        <time>2021-02-20T13:22:26Z</time>
      </trkpt>
      <trkpt lat="45.16386" lon="5.97334">
        <ele>2593</ele>
        <time>2021-02-20T13:22:27Z</time>
      </trkpt>
      <trkpt lat="45.16386" lon="5.97334">
        <ele>2593</ele>
        <time>2021-02-20T13:22:28Z</time>
      </trkpt>
      <trkpt lat="45.16386" lon="5.97334">
        <ele>2593</ele>
        <time>2021-02-20T13:22:29Z</time>
      </trkpt>
      <trkpt lat="45.16386" lon="5.97334">
        <ele>2593</ele>
        <time>2021-02-20T13:22:30Z</time>
      </trkpt>
      <trkpt lat="45.16387" lon="5.97335">
        <ele>2593.3</ele>
        <time>2021-02-20T13:22:31Z</time>
      </trkpt>
      <trkpt lat="45.16387" lon="5.97335">
        <ele>2593.3</ele>
        <time>2021-02-20T13:22:32Z</time>
      </trkpt>
      <trkpt lat="45.16386" lon="5.97336">
        <ele>2593.3</ele>
        <time>2021-02-20T13:22:33Z</time>
      </trkpt>
      <trkpt lat="45.16386" lon="5.97338">
        <ele>2593.3</ele>
        <time>2021-02-20T13:22:34Z</time>
      </trkpt>
      <trkpt lat="45.16385" lon="5.97339">
        <ele>2595.1</ele>
        <time>2021-02-20T13:22:35Z</time>
      </trkpt>
      <trkpt lat="45.16385" lon="5.97339">
        <ele>2595.1</ele>
        <time>2021-02-20T13:22:36Z</time>
      </trkpt>
      <trkpt lat="45.16385" lon="5.97339">
        <ele>2595.1</ele>
        <time>2021-02-20T13:22:37Z</time>
      </trkpt>
      <trkpt lat="45.16385" lon="5.97338">
        <ele>2594.9</ele>
        <time>2021-02-20T13:22:38Z</time>
      </trkpt>
      <trkpt lat="45.16385" lon="5.97338">
        <ele>2594.9</ele>
        <time>2021-02-20T13:22:39Z</time>
      </trkpt>
      <trkpt lat="45.16384" lon="5.97338">
        <ele>2594.9</ele>
        <time>2021-02-20T13:22:40Z</time>
      </trkpt>
      <trkpt lat="45.16384" lon="5.97338">
        <ele>2594.9</ele>
        <time>2021-02-20T13:22:41Z</time>
      </trkpt>
      <trkpt lat="45.16384" lon="5.97338">
        <ele>2594.9</ele>
        <time>2021-02-20T13:22:42Z</time>
      </trkpt>
      <trkpt lat="45.16384" lon="5.97339">
        <ele>2595.1</ele>
        <time>2021-02-20T13:22:43Z</time>
      </trkpt>
      <trkpt lat="45.16384" lon="5.97339">
        <ele>2595.1</ele>
        <time>2021-02-20T13:22:44Z</time>
      </trkpt>
      <trkpt lat="45.16384" lon="5.9734">
        <ele>2595.1</ele>
        <time>2021-02-20T13:22:45Z</time>
      </trkpt>
      <trkpt lat="45.16383" lon="5.97341">
        <ele>2595.1</ele>
        <time>2021-02-20T13:22:46Z</time>
      </trkpt>
      <trkpt lat="45.16383" lon="5.97341">
        <ele>2595.1</ele>
        <time>2021-02-20T13:22:47Z</time>
      </trkpt>
      <trkpt lat="45.16383" lon="5.97341">
        <ele>2595.1</ele>
        <time>2021-02-20T13:22:48Z</time>
      </trkpt>
      <trkpt lat="45.16382" lon="5.97341">
        <ele>2596.7</ele>
        <time>2021-02-20T13:22:49Z</time>
      </trkpt>
      <trkpt lat="45.16382" lon="5.97342">
        <ele>2596.7</ele>
        <time>2021-02-20T13:22:50Z</time>
      </trkpt>
      <trkpt lat="45.16382" lon="5.97341">
        <ele>2596.7</ele>
        <time>2021-02-20T13:22:51Z</time>
      </trkpt>
      <trkpt lat="45.16382" lon="5.97342">
        <ele>2596.7</ele>
        <time>2021-02-20T13:22:52Z</time>
      </trkpt>
      <trkpt lat="45.16382" lon="5.97342">
        <ele>2596.7</ele>
        <time>2021-02-20T13:22:53Z</time>
      </trkpt>
      <trkpt lat="45.16382" lon="5.97342">
        <ele>2596.7</ele>
        <time>2021-02-20T13:22:54Z</time>
      </trkpt>
      <trkpt lat="45.16382" lon="5.97343">
        <ele>2596.9</ele>
        <time>2021-02-20T13:22:55Z</time>
      </trkpt>
      <trkpt lat="45.16382" lon="5.97344">
        <ele>2596.9</ele>
        <time>2021-02-20T13:22:56Z</time>
      </trkpt>
      <trkpt lat="45.16382" lon="5.97344">
        <ele>2596.9</ele>
        <time>2021-02-20T13:22:57Z</time>
      </trkpt>
      <trkpt lat="45.16381" lon="5.97345">
        <ele>2596.9</ele>
        <time>2021-02-20T13:22:58Z</time>
      </trkpt>
      <trkpt lat="45.16381" lon="5.97345">
        <ele>2596.9</ele>
        <time>2021-02-20T13:22:59Z</time>
      </trkpt>
      <trkpt lat="45.16381" lon="5.97345">
        <ele>2596.9</ele>
        <time>2021-02-20T13:23:00Z</time>
      </trkpt>
      <trkpt lat="45.16381" lon="5.97345">
        <ele>2596.9</ele>
        <time>2021-02-20T13:23:01Z</time>
      </trkpt>
      <trkpt lat="45.16381" lon="5.97345">
        <ele>2596.9</ele>
        <time>2021-02-20T13:23:02Z</time>
      </trkpt>
      <trkpt lat="45.16381" lon="5.97344">
        <ele>2596.9</ele>
        <time>2021-02-20T13:23:03Z</time>
      </trkpt>
      <trkpt lat="45.16381" lon="5.97344">
        <ele>2596.9</ele>
        <time>2021-02-20T13:23:04Z</time>
      </trkpt>
      <trkpt lat="45.1638" lon="5.97344">
        <ele>2596.9</ele>
        <time>2021-02-20T13:23:05Z</time>
      </trkpt>
      <trkpt lat="45.1638" lon="5.97345">
        <ele>2596.9</ele>
        <time>2021-02-20T13:23:06Z</time>
      </trkpt>
      <trkpt lat="45.1638" lon="5.97346">
        <ele>2596.9</ele>
        <time>2021-02-20T13:23:07Z</time>
      </trkpt>
      <trkpt lat="45.1638" lon="5.97346">
        <ele>2596.9</ele>
        <time>2021-02-20T13:23:08Z</time>
      </trkpt>
      <trkpt lat="45.1638" lon="5.97347">
        <ele>2596.9</ele>
        <time>2021-02-20T13:23:09Z</time>
      </trkpt>
      <trkpt lat="45.1638" lon="5.97348">
        <ele>2597.2</ele>
        <time>2021-02-20T13:23:10Z</time>
      </trkpt>
      <trkpt lat="45.16379" lon="5.97349">
        <ele>2598.7</ele>
        <time>2021-02-20T13:23:11Z</time>
      </trkpt>
      <trkpt lat="45.16379" lon="5.9735">
        <ele>2598.7</ele>
        <time>2021-02-20T13:23:12Z</time>
      </trkpt>
      <trkpt lat="45.16378" lon="5.97351">
        <ele>2598.7</ele>
        <time>2021-02-20T13:23:13Z</time>
      </trkpt>
      <trkpt lat="45.16377" lon="5.97352">
        <ele>2599.1</ele>
        <time>2021-02-20T13:23:14Z</time>
      </trkpt>
      <trkpt lat="45.16377" lon="5.97354">
        <ele>2599.1</ele>
        <time>2021-02-20T13:23:15Z</time>
      </trkpt>
      <trkpt lat="45.16376" lon="5.97355">
        <ele>2600.6</ele>
        <time>2021-02-20T13:23:16Z</time>
      </trkpt>
      <trkpt lat="45.16376" lon="5.97358">
        <ele>2601</ele>
        <time>2021-02-20T13:23:17Z</time>
      </trkpt>
      <trkpt lat="45.16376" lon="5.97359">
        <ele>2601</ele>
        <time>2021-02-20T13:23:18Z</time>
      </trkpt>
      <trkpt lat="45.16376" lon="5.9736">
        <ele>2601.4</ele>
        <time>2021-02-20T13:23:19Z</time>
      </trkpt>
      <trkpt lat="45.16376" lon="5.97361">
        <ele>2601.4</ele>
        <time>2021-02-20T13:23:20Z</time>
      </trkpt>
      <trkpt lat="45.16376" lon="5.97361">
        <ele>2601.4</ele>
        <time>2021-02-20T13:23:21Z</time>
      </trkpt>
      <trkpt lat="45.16375" lon="5.97363">
        <ele>2601.4</ele>
        <time>2021-02-20T13:23:22Z</time>
      </trkpt>
      <trkpt lat="45.16375" lon="5.97363">
        <ele>2601.4</ele>
        <time>2021-02-20T13:23:23Z</time>
      </trkpt>
      <trkpt lat="45.16374" lon="5.97364">
        <ele>2601.4</ele>
        <time>2021-02-20T13:23:24Z</time>
      </trkpt>
      <trkpt lat="45.16374" lon="5.97364">
        <ele>2601.4</ele>
        <time>2021-02-20T13:23:25Z</time>
      </trkpt>
      <trkpt lat="45.16374" lon="5.97364">
        <ele>2601.4</ele>
        <time>2021-02-20T13:23:26Z</time>
      </trkpt>
      <trkpt lat="45.16374" lon="5.97364">
        <ele>2601.4</ele>
        <time>2021-02-20T13:23:27Z</time>
      </trkpt>
      <trkpt lat="45.16374" lon="5.97365">
        <ele>2601.9</ele>
        <time>2021-02-20T13:23:28Z</time>
      </trkpt>
      <trkpt lat="45.16374" lon="5.97366">
        <ele>2601.9</ele>
        <time>2021-02-20T13:23:29Z</time>
      </trkpt>
      <trkpt lat="45.16373" lon="5.97366">
        <ele>2601.9</ele>
        <time>2021-02-20T13:23:30Z</time>
      </trkpt>
      <trkpt lat="45.16373" lon="5.97367">
        <ele>2603.5</ele>
        <time>2021-02-20T13:23:31Z</time>
      </trkpt>
      <trkpt lat="45.16373" lon="5.97367">
        <ele>2603.5</ele>
        <time>2021-02-20T13:23:32Z</time>
      </trkpt>
      <trkpt lat="45.16373" lon="5.97367">
        <ele>2603.5</ele>
        <time>2021-02-20T13:23:33Z</time>
      </trkpt>
      <trkpt lat="45.16373" lon="5.97367">
        <ele>2603.5</ele>
        <time>2021-02-20T13:23:34Z</time>
      </trkpt>
      <trkpt lat="45.16373" lon="5.97367">
        <ele>2603.5</ele>
        <time>2021-02-20T13:23:35Z</time>
      </trkpt>
      <trkpt lat="45.16374" lon="5.97368">
        <ele>2601.9</ele>
        <time>2021-02-20T13:23:36Z</time>
      </trkpt>
      <trkpt lat="45.16374" lon="5.97368">
        <ele>2601.9</ele>
        <time>2021-02-20T13:23:37Z</time>
      </trkpt>
      <trkpt lat="45.16374" lon="5.97368">
        <ele>2601.9</ele>
        <time>2021-02-20T13:23:38Z</time>
      </trkpt>
      <trkpt lat="45.16374" lon="5.97368">
        <ele>2601.9</ele>
        <time>2021-02-20T13:23:39Z</time>
      </trkpt>
      <trkpt lat="45.16374" lon="5.97368">
        <ele>2601.9</ele>
        <time>2021-02-20T13:23:40Z</time>
      </trkpt>
      <trkpt lat="45.16374" lon="5.97368">
        <ele>2601.9</ele>
        <time>2021-02-20T13:23:41Z</time>
      </trkpt>
      <trkpt lat="45.16375" lon="5.9737">
        <ele>2602.5</ele>
        <time>2021-02-20T13:23:42Z</time>
      </trkpt>
      <trkpt lat="45.16375" lon="5.9737">
        <ele>2602.5</ele>
        <time>2021-02-20T13:23:43Z</time>
      </trkpt>
      <trkpt lat="45.16375" lon="5.9737">
        <ele>2602.5</ele>
        <time>2021-02-20T13:23:44Z</time>
      </trkpt>
      <trkpt lat="45.16375" lon="5.97369">
        <ele>2602.5</ele>
        <time>2021-02-20T13:23:45Z</time>
      </trkpt>
      <trkpt lat="45.16375" lon="5.97369">
        <ele>2602.5</ele>
        <time>2021-02-20T13:23:46Z</time>
      </trkpt>
      <trkpt lat="45.16376" lon="5.97369">
        <ele>2602.5</ele>
        <time>2021-02-20T13:23:47Z</time>
      </trkpt>
      <trkpt lat="45.16376" lon="5.97369">
        <ele>2602.5</ele>
        <time>2021-02-20T13:23:48Z</time>
      </trkpt>
      <trkpt lat="45.16376" lon="5.97369">
        <ele>2602.5</ele>
        <time>2021-02-20T13:23:49Z</time>
      </trkpt>
      <trkpt lat="45.16376" lon="5.97369">
        <ele>2602.5</ele>
        <time>2021-02-20T13:23:50Z</time>
      </trkpt>
      <trkpt lat="45.16376" lon="5.97369">
        <ele>2602.5</ele>
        <time>2021-02-20T13:23:51Z</time>
      </trkpt>
      <trkpt lat="45.16376" lon="5.97369">
        <ele>2602.5</ele>
        <time>2021-02-20T13:23:52Z</time>
      </trkpt>
      <trkpt lat="45.16376" lon="5.97369">
        <ele>2602.5</ele>
        <time>2021-02-20T13:23:53Z</time>
      </trkpt>
      <trkpt lat="45.16376" lon="5.97369">
        <ele>2602.5</ele>
        <time>2021-02-20T13:23:54Z</time>
      </trkpt>
      <trkpt lat="45.16376" lon="5.97369">
        <ele>2602.5</ele>
        <time>2021-02-20T13:23:55Z</time>
      </trkpt>
      <trkpt lat="45.16376" lon="5.97369">
        <ele>2602.5</ele>
        <time>2021-02-20T13:23:56Z</time>
      </trkpt>
      <trkpt lat="45.16376" lon="5.97369">
        <ele>2602.5</ele>
        <time>2021-02-20T13:23:57Z</time>
      </trkpt>
      <trkpt lat="45.16376" lon="5.97369">
        <ele>2602.5</ele>
        <time>2021-02-20T13:23:58Z</time>
      </trkpt>
      <trkpt lat="45.16376" lon="5.97369">
        <ele>2602.5</ele>
        <time>2021-02-20T13:23:59Z</time>
      </trkpt>
      <trkpt lat="45.16376" lon="5.97369">
        <ele>2602.5</ele>
        <time>2021-02-20T13:24:00Z</time>
      </trkpt>
      <trkpt lat="45.16376" lon="5.97369">
        <ele>2602.5</ele>
        <time>2021-02-20T13:24:01Z</time>
      </trkpt>
      <trkpt lat="45.16376" lon="5.97369">
        <ele>2602.5</ele>
        <time>2021-02-20T13:24:02Z</time>
      </trkpt>
      <trkpt lat="45.16377" lon="5.97371">
        <ele>2601</ele>
        <time>2021-02-20T13:24:03Z</time>
      </trkpt>
      <trkpt lat="45.16377" lon="5.97371">
        <ele>2601</ele>
        <time>2021-02-20T13:24:04Z</time>
      </trkpt>
      <trkpt lat="45.16377" lon="5.97371">
        <ele>2601</ele>
        <time>2021-02-20T13:24:05Z</time>
      </trkpt>
      <trkpt lat="45.16377" lon="5.97371">
        <ele>2601</ele>
        <time>2021-02-20T13:24:06Z</time>
      </trkpt>
      <trkpt lat="45.16377" lon="5.97371">
        <ele>2601</ele>
        <time>2021-02-20T13:24:07Z</time>
      </trkpt>
      <trkpt lat="45.16377" lon="5.97371">
        <ele>2601</ele>
        <time>2021-02-20T13:24:08Z</time>
      </trkpt>
      <trkpt lat="45.16377" lon="5.97371">
        <ele>2601</ele>
        <time>2021-02-20T13:24:09Z</time>
      </trkpt>
      <trkpt lat="45.16377" lon="5.97371">
        <ele>2601</ele>
        <time>2021-02-20T13:24:10Z</time>
      </trkpt>
      <trkpt lat="45.16377" lon="5.97371">
        <ele>2601</ele>
        <time>2021-02-20T13:24:11Z</time>
      </trkpt>
      <trkpt lat="45.16377" lon="5.97371">
        <ele>2601</ele>
        <time>2021-02-20T13:24:12Z</time>
      </trkpt>
      <trkpt lat="45.16377" lon="5.97371">
        <ele>2601</ele>
        <time>2021-02-20T13:24:13Z</time>
      </trkpt>
      <trkpt lat="45.16377" lon="5.97371">
        <ele>2601</ele>
        <time>2021-02-20T13:24:14Z</time>
      </trkpt>
      <trkpt lat="45.16377" lon="5.97371">
        <ele>2601</ele>
        <time>2021-02-20T13:24:15Z</time>
      </trkpt>
      <trkpt lat="45.16377" lon="5.97371">
        <ele>2601</ele>
        <time>2021-02-20T13:24:16Z</time>
      </trkpt>
      <trkpt lat="45.16377" lon="5.97371">
        <ele>2601</ele>
        <time>2021-02-20T13:24:17Z</time>
      </trkpt>
      <trkpt lat="45.16377" lon="5.97371">
        <ele>2601</ele>
        <time>2021-02-20T13:24:18Z</time>
      </trkpt>
      <trkpt lat="45.16377" lon="5.97371">
        <ele>2601</ele>
        <time>2021-02-20T13:24:19Z</time>
      </trkpt>
      <trkpt lat="45.16377" lon="5.97371">
        <ele>2601</ele>
        <time>2021-02-20T13:24:20Z</time>
      </trkpt>
      <trkpt lat="45.16377" lon="5.97371">
        <ele>2601</ele>
        <time>2021-02-20T13:24:21Z</time>
      </trkpt>
      <trkpt lat="45.16376" lon="5.97371">
        <ele>2602.5</ele>
        <time>2021-02-20T13:24:22Z</time>
      </trkpt>
      <trkpt lat="45.16376" lon="5.97371">
        <ele>2602.5</ele>
        <time>2021-02-20T13:24:23Z</time>
      </trkpt>
      <trkpt lat="45.16376" lon="5.97371">
        <ele>2602.5</ele>
        <time>2021-02-20T13:24:24Z</time>
      </trkpt>
      <trkpt lat="45.16376" lon="5.97371">
        <ele>2602.5</ele>
        <time>2021-02-20T13:24:25Z</time>
      </trkpt>
      <trkpt lat="45.16376" lon="5.97371">
        <ele>2602.5</ele>
        <time>2021-02-20T13:24:26Z</time>
      </trkpt>
      <trkpt lat="45.16376" lon="5.97371">
        <ele>2602.5</ele>
        <time>2021-02-20T13:24:27Z</time>
      </trkpt>
      <trkpt lat="45.16376" lon="5.97371">
        <ele>2602.5</ele>
        <time>2021-02-20T13:24:28Z</time>
      </trkpt>
      <trkpt lat="45.16376" lon="5.97371">
        <ele>2602.5</ele>
        <time>2021-02-20T13:24:29Z</time>
      </trkpt>
      <trkpt lat="45.16376" lon="5.97371">
        <ele>2602.5</ele>
        <time>2021-02-20T13:24:30Z</time>
      </trkpt>
      <trkpt lat="45.16376" lon="5.97371">
        <ele>2602.5</ele>
        <time>2021-02-20T13:24:31Z</time>
      </trkpt>
      <trkpt lat="45.16376" lon="5.97371">
        <ele>2602.5</ele>
        <time>2021-02-20T13:24:32Z</time>
      </trkpt>
      <trkpt lat="45.16376" lon="5.97371">
        <ele>2602.5</ele>
        <time>2021-02-20T13:24:33Z</time>
      </trkpt>
      <trkpt lat="45.16376" lon="5.97371">
        <ele>2602.5</ele>
        <time>2021-02-20T13:24:34Z</time>
      </trkpt>
      <trkpt lat="45.16376" lon="5.97371">
        <ele>2602.5</ele>
        <time>2021-02-20T13:24:35Z</time>
      </trkpt>
      <trkpt lat="45.16376" lon="5.97371">
        <ele>2602.5</ele>
        <time>2021-02-20T13:24:36Z</time>
      </trkpt>
      <trkpt lat="45.16376" lon="5.97371">
        <ele>2602.5</ele>
        <time>2021-02-20T13:24:37Z</time>
      </trkpt>
      <trkpt lat="45.16376" lon="5.97371">
        <ele>2602.5</ele>
        <time>2021-02-20T13:24:38Z</time>
      </trkpt>
      <trkpt lat="45.16376" lon="5.97371">
        <ele>2602.5</ele>
        <time>2021-02-20T13:24:39Z</time>
      </trkpt>
      <trkpt lat="45.16376" lon="5.97371">
        <ele>2602.5</ele>
        <time>2021-02-20T13:24:40Z</time>
      </trkpt>
      <trkpt lat="45.16376" lon="5.97371">
        <ele>2602.5</ele>
        <time>2021-02-20T13:24:41Z</time>
      </trkpt>
      <trkpt lat="45.16376" lon="5.97371">
        <ele>2602.5</ele>
        <time>2021-02-20T13:24:42Z</time>
      </trkpt>
      <trkpt lat="45.16376" lon="5.97372">
        <ele>2602.5</ele>
        <time>2021-02-20T13:24:43Z</time>
      </trkpt>
      <trkpt lat="45.16375" lon="5.97372">
        <ele>2602.5</ele>
        <time>2021-02-20T13:24:44Z</time>
      </trkpt>
      <trkpt lat="45.16375" lon="5.97373">
        <ele>2602.5</ele>
        <time>2021-02-20T13:24:45Z</time>
      </trkpt>
      <trkpt lat="45.16375" lon="5.97373">
        <ele>2603</ele>
        <time>2021-02-20T13:24:46Z</time>
      </trkpt>
      <trkpt lat="45.16375" lon="5.97373">
        <ele>2603</ele>
        <time>2021-02-20T13:24:47Z</time>
      </trkpt>
      <trkpt lat="45.16374" lon="5.97373">
        <ele>2603</ele>
        <time>2021-02-20T13:24:48Z</time>
      </trkpt>
      <trkpt lat="45.16374" lon="5.97374">
        <ele>2603</ele>
        <time>2021-02-20T13:24:49Z</time>
      </trkpt>
      <trkpt lat="45.16374" lon="5.97373">
        <ele>2603</ele>
        <time>2021-02-20T13:24:50Z</time>
      </trkpt>
      <trkpt lat="45.16373" lon="5.97372">
        <ele>2604</ele>
        <time>2021-02-20T13:24:51Z</time>
      </trkpt>
      <trkpt lat="45.16372" lon="5.97371">
        <ele>2604</ele>
        <time>2021-02-20T13:24:52Z</time>
      </trkpt>
      <trkpt lat="45.16371" lon="5.9737">
        <ele>2604</ele>
        <time>2021-02-20T13:24:53Z</time>
      </trkpt>
      <trkpt lat="45.1637" lon="5.9737">
        <ele>2605.7</ele>
        <time>2021-02-20T13:24:54Z</time>
      </trkpt>
      <trkpt lat="45.16369" lon="5.97369">
        <ele>2605.7</ele>
        <time>2021-02-20T13:24:55Z</time>
      </trkpt>
      <trkpt lat="45.16368" lon="5.97368">
        <ele>2605.2</ele>
        <time>2021-02-20T13:24:56Z</time>
      </trkpt>
      <trkpt lat="45.16367" lon="5.97367">
        <ele>2607.2</ele>
        <time>2021-02-20T13:24:57Z</time>
      </trkpt>
      <trkpt lat="45.16367" lon="5.97367">
        <ele>2607.2</ele>
        <time>2021-02-20T13:24:58Z</time>
      </trkpt>
      <trkpt lat="45.16367" lon="5.97367">
        <ele>2607.2</ele>
        <time>2021-02-20T13:24:59Z</time>
      </trkpt>
      <trkpt lat="45.16367" lon="5.97367">
        <ele>2607.2</ele>
        <time>2021-02-20T13:25:00Z</time>
      </trkpt>
      <trkpt lat="45.16367" lon="5.97367">
        <ele>2607.2</ele>
        <time>2021-02-20T13:25:01Z</time>
      </trkpt>
      <trkpt lat="45.16367" lon="5.97367">
        <ele>2607.2</ele>
        <time>2021-02-20T13:25:02Z</time>
      </trkpt>
      <trkpt lat="45.16367" lon="5.97367">
        <ele>2607.2</ele>
        <time>2021-02-20T13:25:03Z</time>
      </trkpt>
      <trkpt lat="45.16367" lon="5.97367">
        <ele>2607.2</ele>
        <time>2021-02-20T13:25:04Z</time>
      </trkpt>
      <trkpt lat="45.16367" lon="5.97368">
        <ele>2605.2</ele>
        <time>2021-02-20T13:25:05Z</time>
      </trkpt>
      <trkpt lat="45.16368" lon="5.97368">
        <ele>2605.2</ele>
        <time>2021-02-20T13:25:06Z</time>
      </trkpt>
      <trkpt lat="45.16368" lon="5.97368">
        <ele>2605.2</ele>
        <time>2021-02-20T13:25:07Z</time>
      </trkpt>
      <trkpt lat="45.16367" lon="5.97369">
        <ele>2607.2</ele>
        <time>2021-02-20T13:25:08Z</time>
      </trkpt>
      <trkpt lat="45.16367" lon="5.97369">
        <ele>2607.2</ele>
        <time>2021-02-20T13:25:09Z</time>
      </trkpt>
      <trkpt lat="45.16367" lon="5.97369">
        <ele>2607.2</ele>
        <time>2021-02-20T13:25:10Z</time>
      </trkpt>
      <trkpt lat="45.16367" lon="5.97369">
        <ele>2607.6</ele>
        <time>2021-02-20T13:25:11Z</time>
      </trkpt>
      <trkpt lat="45.16367" lon="5.97369">
        <ele>2607.6</ele>
        <time>2021-02-20T13:25:12Z</time>
      </trkpt>
      <trkpt lat="45.16367" lon="5.97369">
        <ele>2607.6</ele>
        <time>2021-02-20T13:25:13Z</time>
      </trkpt>
      <trkpt lat="45.16367" lon="5.97369">
        <ele>2607.6</ele>
        <time>2021-02-20T13:25:14Z</time>
      </trkpt>
      <trkpt lat="45.16367" lon="5.97369">
        <ele>2607.6</ele>
        <time>2021-02-20T13:25:15Z</time>
      </trkpt>
      <trkpt lat="45.16367" lon="5.9737">
        <ele>2605.7</ele>
        <time>2021-02-20T13:25:16Z</time>
      </trkpt>
      <trkpt lat="45.16367" lon="5.9737">
        <ele>2605.9</ele>
        <time>2021-02-20T13:25:17Z</time>
      </trkpt>
      <trkpt lat="45.16367" lon="5.9737">
        <ele>2606.1</ele>
        <time>2021-02-20T13:25:18Z</time>
      </trkpt>
      <trkpt lat="45.16367" lon="5.9737">
        <ele>2608.2</ele>
        <time>2021-02-20T13:25:19Z</time>
      </trkpt>
      <trkpt lat="45.16367" lon="5.9737">
        <ele>2608.3</ele>
        <time>2021-02-20T13:25:20Z</time>
      </trkpt>
      <trkpt lat="45.16367" lon="5.9737">
        <ele>2608.5</ele>
        <time>2021-02-20T13:25:21Z</time>
      </trkpt>
      <trkpt lat="45.16367" lon="5.9737">
        <ele>2608.7</ele>
        <time>2021-02-20T13:25:22Z</time>
      </trkpt>
      <trkpt lat="45.16367" lon="5.9737">
        <ele>2608.9</ele>
        <time>2021-02-20T13:25:23Z</time>
      </trkpt>
      <trkpt lat="45.16367" lon="5.9737">
        <ele>2609.1</ele>
        <time>2021-02-20T13:25:24Z</time>
      </trkpt>
      <trkpt lat="45.16367" lon="5.9737">
        <ele>2609.3</ele>
        <time>2021-02-20T13:25:25Z</time>
      </trkpt>
      <trkpt lat="45.16367" lon="5.9737">
        <ele>2609.5</ele>
        <time>2021-02-20T13:25:26Z</time>
      </trkpt>
      <trkpt lat="45.16367" lon="5.9737">
        <ele>2609.6</ele>
        <time>2021-02-20T13:25:27Z</time>
      </trkpt>
      <trkpt lat="45.16366" lon="5.97368">
        <ele>2609.4</ele>
        <time>2021-02-20T13:25:28Z</time>
      </trkpt>
      <trkpt lat="45.16367" lon="5.97368">
        <ele>2609.6</ele>
        <time>2021-02-20T13:25:29Z</time>
      </trkpt>
      <trkpt lat="45.16366" lon="5.97368">
        <ele>2609.8</ele>
        <time>2021-02-20T13:25:30Z</time>
      </trkpt>
      <trkpt lat="45.16366" lon="5.97368">
        <ele>2610</ele>
        <time>2021-02-20T13:25:31Z</time>
      </trkpt>
      <trkpt lat="45.16366" lon="5.97367">
        <ele>2610.2</ele>
        <time>2021-02-20T13:25:32Z</time>
      </trkpt>
      <trkpt lat="45.16365" lon="5.97366">
        <ele>2610.4</ele>
        <time>2021-02-20T13:25:33Z</time>
      </trkpt>
      <trkpt lat="45.16364" lon="5.97364">
        <ele>2612.2</ele>
        <time>2021-02-20T13:25:34Z</time>
      </trkpt>
      <trkpt lat="45.16363" lon="5.97364">
        <ele>2612.4</ele>
        <time>2021-02-20T13:25:35Z</time>
      </trkpt>
      <trkpt lat="45.16363" lon="5.97364">
        <ele>2612.6</ele>
        <time>2021-02-20T13:25:36Z</time>
      </trkpt>
      <trkpt lat="45.16363" lon="5.97363">
        <ele>2612.8</ele>
        <time>2021-02-20T13:25:37Z</time>
      </trkpt>
      <trkpt lat="45.16362" lon="5.97362">
        <ele>2613</ele>
        <time>2021-02-20T13:25:38Z</time>
      </trkpt>
      <trkpt lat="45.16361" lon="5.97362">
        <ele>2613.2</ele>
        <time>2021-02-20T13:25:39Z</time>
      </trkpt>
      <trkpt lat="45.16361" lon="5.97361">
        <ele>2615.6</ele>
        <time>2021-02-20T13:25:40Z</time>
      </trkpt>
      <trkpt lat="45.16361" lon="5.9736">
        <ele>2615.6</ele>
        <time>2021-02-20T13:25:41Z</time>
      </trkpt>
      <trkpt lat="45.1636" lon="5.97359">
        <ele>2615.7</ele>
        <time>2021-02-20T13:25:42Z</time>
      </trkpt>
      <trkpt lat="45.1636" lon="5.97359">
        <ele>2615.9</ele>
        <time>2021-02-20T13:25:43Z</time>
      </trkpt>
      <trkpt lat="45.16358" lon="5.97358">
        <ele>2616.1</ele>
        <time>2021-02-20T13:25:44Z</time>
      </trkpt>
      <trkpt lat="45.16357" lon="5.97356">
        <ele>2618.5</ele>
        <time>2021-02-20T13:25:45Z</time>
      </trkpt>
      <trkpt lat="45.16357" lon="5.97356">
        <ele>2618.5</ele>
        <time>2021-02-20T13:25:46Z</time>
      </trkpt>
      <trkpt lat="45.16357" lon="5.97355">
        <ele>2618.7</ele>
        <time>2021-02-20T13:25:47Z</time>
      </trkpt>
      <trkpt lat="45.16357" lon="5.97353">
        <ele>2618.9</ele>
        <time>2021-02-20T13:25:48Z</time>
      </trkpt>
      <trkpt lat="45.16356" lon="5.97352">
        <ele>2619</ele>
        <time>2021-02-20T13:25:49Z</time>
      </trkpt>
      <trkpt lat="45.16356" lon="5.97351">
        <ele>2619.2</ele>
        <time>2021-02-20T13:25:50Z</time>
      </trkpt>
      <trkpt lat="45.16355" lon="5.97349">
        <ele>2619.4</ele>
        <time>2021-02-20T13:25:51Z</time>
      </trkpt>
      <trkpt lat="45.16355" lon="5.97348">
        <ele>2621.8</ele>
        <time>2021-02-20T13:25:52Z</time>
      </trkpt>
      <trkpt lat="45.16355" lon="5.97347">
        <ele>2622</ele>
        <time>2021-02-20T13:25:53Z</time>
      </trkpt>
      <trkpt lat="45.16355" lon="5.97346">
        <ele>2622.2</ele>
        <time>2021-02-20T13:25:54Z</time>
      </trkpt>
      <trkpt lat="45.16354" lon="5.97345">
        <ele>2622.4</ele>
        <time>2021-02-20T13:25:55Z</time>
      </trkpt>
      <trkpt lat="45.16354" lon="5.97345">
        <ele>2622.5</ele>
        <time>2021-02-20T13:25:56Z</time>
      </trkpt>
      <trkpt lat="45.16354" lon="5.97344">
        <ele>2622.7</ele>
        <time>2021-02-20T13:25:57Z</time>
      </trkpt>
      <trkpt lat="45.16354" lon="5.97344">
        <ele>2622.9</ele>
        <time>2021-02-20T13:25:58Z</time>
      </trkpt>
      <trkpt lat="45.16354" lon="5.97344">
        <ele>2623.1</ele>
        <time>2021-02-20T13:25:59Z</time>
      </trkpt>
      <trkpt lat="45.16354" lon="5.97345">
        <ele>2623.3</ele>
        <time>2021-02-20T13:26:00Z</time>
      </trkpt>
      <trkpt lat="45.16354" lon="5.97346">
        <ele>2623.5</ele>
        <time>2021-02-20T13:26:01Z</time>
      </trkpt>
      <trkpt lat="45.16353" lon="5.97347">
        <ele>2623.7</ele>
        <time>2021-02-20T13:26:02Z</time>
      </trkpt>
      <trkpt lat="45.16353" lon="5.97347">
        <ele>2623.9</ele>
        <time>2021-02-20T13:26:03Z</time>
      </trkpt>
      <trkpt lat="45.16352" lon="5.97348">
        <ele>2624.1</ele>
        <time>2021-02-20T13:26:04Z</time>
      </trkpt>
      <trkpt lat="45.16352" lon="5.97348">
        <ele>2624.3</ele>
        <time>2021-02-20T13:26:05Z</time>
      </trkpt>
      <trkpt lat="45.16352" lon="5.97349">
        <ele>2626.7</ele>
        <time>2021-02-20T13:26:06Z</time>
      </trkpt>
      <trkpt lat="45.16352" lon="5.97351">
        <ele>2626.8</ele>
        <time>2021-02-20T13:26:07Z</time>
      </trkpt>
      <trkpt lat="45.16352" lon="5.97352">
        <ele>2627</ele>
        <time>2021-02-20T13:26:08Z</time>
      </trkpt>
      <trkpt lat="45.16352" lon="5.97353">
        <ele>2625</ele>
        <time>2021-02-20T13:26:09Z</time>
      </trkpt>
      <trkpt lat="45.16353" lon="5.97353">
        <ele>2625.2</ele>
        <time>2021-02-20T13:26:10Z</time>
      </trkpt>
      <trkpt lat="45.16353" lon="5.97354">
        <ele>2625.4</ele>
        <time>2021-02-20T13:26:11Z</time>
      </trkpt>
      <trkpt lat="45.16354" lon="5.97353">
        <ele>2625.6</ele>
        <time>2021-02-20T13:26:12Z</time>
      </trkpt>
      <trkpt lat="45.16354" lon="5.97353">
        <ele>2625.8</ele>
        <time>2021-02-20T13:26:13Z</time>
      </trkpt>
      <trkpt lat="45.16354" lon="5.97354">
        <ele>2625.9</ele>
        <time>2021-02-20T13:26:14Z</time>
      </trkpt>
      <trkpt lat="45.16354" lon="5.97355">
        <ele>2626.1</ele>
        <time>2021-02-20T13:26:15Z</time>
      </trkpt>
      <trkpt lat="45.16354" lon="5.97356">
        <ele>2626.3</ele>
        <time>2021-02-20T13:26:16Z</time>
      </trkpt>
      <trkpt lat="45.16354" lon="5.97356">
        <ele>2626.5</ele>
        <time>2021-02-20T13:26:17Z</time>
      </trkpt>
      <trkpt lat="45.16353" lon="5.97357">
        <ele>2626.7</ele>
        <time>2021-02-20T13:26:18Z</time>
      </trkpt>
      <trkpt lat="45.16353" lon="5.97358">
        <ele>2626.9</ele>
        <time>2021-02-20T13:26:19Z</time>
      </trkpt>
      <trkpt lat="45.16352" lon="5.97359">
        <ele>2627.1</ele>
        <time>2021-02-20T13:26:20Z</time>
      </trkpt>
      <trkpt lat="45.16352" lon="5.9736">
        <ele>2627.3</ele>
        <time>2021-02-20T13:26:21Z</time>
      </trkpt>
      <trkpt lat="45.16352" lon="5.97361">
        <ele>2627.6</ele>
        <time>2021-02-20T13:26:22Z</time>
      </trkpt>
      <trkpt lat="45.16352" lon="5.97363">
        <ele>2627.8</ele>
        <time>2021-02-20T13:26:23Z</time>
      </trkpt>
      <trkpt lat="45.16352" lon="5.97363">
        <ele>2630</ele>
        <time>2021-02-20T13:26:24Z</time>
      </trkpt>
      <trkpt lat="45.16352" lon="5.97364">
        <ele>2630.2</ele>
        <time>2021-02-20T13:26:25Z</time>
      </trkpt>
      <trkpt lat="45.16352" lon="5.97365">
        <ele>2630.5</ele>
        <time>2021-02-20T13:26:26Z</time>
      </trkpt>
      <trkpt lat="45.16352" lon="5.97366">
        <ele>2630.7</ele>
        <time>2021-02-20T13:26:27Z</time>
      </trkpt>
      <trkpt lat="45.16352" lon="5.97366">
        <ele>2630.9</ele>
        <time>2021-02-20T13:26:28Z</time>
      </trkpt>
      <trkpt lat="45.16351" lon="5.97366">
        <ele>2631.1</ele>
        <time>2021-02-20T13:26:29Z</time>
      </trkpt>
      <trkpt lat="45.16351" lon="5.97366">
        <ele>2631.2</ele>
        <time>2021-02-20T13:26:30Z</time>
      </trkpt>
      <trkpt lat="45.16351" lon="5.97365">
        <ele>2631.4</ele>
        <time>2021-02-20T13:26:31Z</time>
      </trkpt>
      <trkpt lat="45.16351" lon="5.97365">
        <ele>2631.6</ele>
        <time>2021-02-20T13:26:32Z</time>
      </trkpt>
      <trkpt lat="45.16351" lon="5.97366">
        <ele>2631.8</ele>
        <time>2021-02-20T13:26:33Z</time>
      </trkpt>
      <trkpt lat="45.16351" lon="5.97367">
        <ele>2632</ele>
        <time>2021-02-20T13:26:34Z</time>
      </trkpt>
      <trkpt lat="45.16351" lon="5.97368">
        <ele>2632.2</ele>
        <time>2021-02-20T13:26:35Z</time>
      </trkpt>
      <trkpt lat="45.16351" lon="5.97369">
        <ele>2632.5</ele>
        <time>2021-02-20T13:26:36Z</time>
      </trkpt>
      <trkpt lat="45.16351" lon="5.9737">
        <ele>2632.6</ele>
        <time>2021-02-20T13:26:37Z</time>
      </trkpt>
      <trkpt lat="45.16351" lon="5.97371">
        <ele>2632.8</ele>
        <time>2021-02-20T13:26:38Z</time>
      </trkpt>
      <trkpt lat="45.16351" lon="5.97373">
        <ele>2633</ele>
        <time>2021-02-20T13:26:39Z</time>
      </trkpt>
      <trkpt lat="45.1635" lon="5.97373">
        <ele>2633.3</ele>
        <time>2021-02-20T13:26:40Z</time>
      </trkpt>
      <trkpt lat="45.1635" lon="5.97375">
        <ele>2633.5</ele>
        <time>2021-02-20T13:26:41Z</time>
      </trkpt>
      <trkpt lat="45.1635" lon="5.97375">
        <ele>2633.7</ele>
        <time>2021-02-20T13:26:42Z</time>
      </trkpt>
      <trkpt lat="45.1635" lon="5.97376">
        <ele>2633.9</ele>
        <time>2021-02-20T13:26:43Z</time>
      </trkpt>
      <trkpt lat="45.1635" lon="5.97376">
        <ele>2634.1</ele>
        <time>2021-02-20T13:26:44Z</time>
      </trkpt>
      <trkpt lat="45.1635" lon="5.97377">
        <ele>2634.3</ele>
        <time>2021-02-20T13:26:45Z</time>
      </trkpt>
      <trkpt lat="45.1635" lon="5.97378">
        <ele>2634.6</ele>
        <time>2021-02-20T13:26:46Z</time>
      </trkpt>
      <trkpt lat="45.16349" lon="5.97379">
        <ele>2634.8</ele>
        <time>2021-02-20T13:26:47Z</time>
      </trkpt>
      <trkpt lat="45.16349" lon="5.97381">
        <ele>2636.9</ele>
        <time>2021-02-20T13:26:48Z</time>
      </trkpt>
      <trkpt lat="45.16348" lon="5.97383">
        <ele>2637.3</ele>
        <time>2021-02-20T13:26:49Z</time>
      </trkpt>
      <trkpt lat="45.16348" lon="5.97384">
        <ele>2637.5</ele>
        <time>2021-02-20T13:26:50Z</time>
      </trkpt>
      <trkpt lat="45.16347" lon="5.97385">
        <ele>2637.7</ele>
        <time>2021-02-20T13:26:51Z</time>
      </trkpt>
      <trkpt lat="45.16347" lon="5.97386">
        <ele>2638.2</ele>
        <time>2021-02-20T13:26:52Z</time>
      </trkpt>
      <trkpt lat="45.16347" lon="5.97386">
        <ele>2638.3</ele>
        <time>2021-02-20T13:26:53Z</time>
      </trkpt>
      <trkpt lat="45.16347" lon="5.97387">
        <ele>2638.5</ele>
        <time>2021-02-20T13:26:54Z</time>
      </trkpt>
      <trkpt lat="45.16347" lon="5.97388">
        <ele>2638.7</ele>
        <time>2021-02-20T13:26:55Z</time>
      </trkpt>
      <trkpt lat="45.16346" lon="5.97389">
        <ele>2638.9</ele>
        <time>2021-02-20T13:26:56Z</time>
      </trkpt>
      <trkpt lat="45.16346" lon="5.9739">
        <ele>2640.7</ele>
        <time>2021-02-20T13:26:57Z</time>
      </trkpt>
      <trkpt lat="45.16346" lon="5.97391">
        <ele>2641</ele>
        <time>2021-02-20T13:26:58Z</time>
      </trkpt>
      <trkpt lat="45.16345" lon="5.97391">
        <ele>2641</ele>
        <time>2021-02-20T13:26:59Z</time>
      </trkpt>
      <trkpt lat="45.16345" lon="5.97391">
        <ele>2641</ele>
        <time>2021-02-20T13:27:00Z</time>
      </trkpt>
      <trkpt lat="45.16345" lon="5.97392">
        <ele>2641</ele>
        <time>2021-02-20T13:27:01Z</time>
      </trkpt>
      <trkpt lat="45.16345" lon="5.97393">
        <ele>2641</ele>
        <time>2021-02-20T13:27:02Z</time>
      </trkpt>
      <trkpt lat="45.16345" lon="5.97393">
        <ele>2641</ele>
        <time>2021-02-20T13:27:03Z</time>
      </trkpt>
      <trkpt lat="45.16344" lon="5.97394">
        <ele>2641</ele>
        <time>2021-02-20T13:27:04Z</time>
      </trkpt>
      <trkpt lat="45.16343" lon="5.97395">
        <ele>2643.1</ele>
        <time>2021-02-20T13:27:05Z</time>
      </trkpt>
      <trkpt lat="45.16342" lon="5.97395">
        <ele>2643.1</ele>
        <time>2021-02-20T13:27:06Z</time>
      </trkpt>
      <trkpt lat="45.16341" lon="5.97395">
        <ele>2643.1</ele>
        <time>2021-02-20T13:27:07Z</time>
      </trkpt>
      <trkpt lat="45.16341" lon="5.97395">
        <ele>2643.1</ele>
        <time>2021-02-20T13:27:08Z</time>
      </trkpt>
      <trkpt lat="45.1634" lon="5.97395">
        <ele>2645</ele>
        <time>2021-02-20T13:27:09Z</time>
      </trkpt>
      <trkpt lat="45.16339" lon="5.97394">
        <ele>2644.8</ele>
        <time>2021-02-20T13:27:10Z</time>
      </trkpt>
      <trkpt lat="45.16338" lon="5.97394">
        <ele>2644.8</ele>
        <time>2021-02-20T13:27:11Z</time>
      </trkpt>
      <trkpt lat="45.16337" lon="5.97393">
        <ele>2646.7</ele>
        <time>2021-02-20T13:27:12Z</time>
      </trkpt>
      <trkpt lat="45.16336" lon="5.97392">
        <ele>2646.7</ele>
        <time>2021-02-20T13:27:13Z</time>
      </trkpt>
      <trkpt lat="45.16335" lon="5.97392">
        <ele>2646.7</ele>
        <time>2021-02-20T13:27:14Z</time>
      </trkpt>
      <trkpt lat="45.16334" lon="5.97391">
        <ele>2646.7</ele>
        <time>2021-02-20T13:27:15Z</time>
      </trkpt>
      <trkpt lat="45.16334" lon="5.9739">
        <ele>2648.8</ele>
        <time>2021-02-20T13:27:16Z</time>
      </trkpt>
      <trkpt lat="45.16333" lon="5.9739">
        <ele>2648.7</ele>
        <time>2021-02-20T13:27:17Z</time>
      </trkpt>
      <trkpt lat="45.16332" lon="5.97389">
        <ele>2648.7</ele>
        <time>2021-02-20T13:27:18Z</time>
      </trkpt>
      <trkpt lat="45.16332" lon="5.97389">
        <ele>2648.7</ele>
        <time>2021-02-20T13:27:19Z</time>
      </trkpt>
      <trkpt lat="45.16332" lon="5.97388">
        <ele>2648.7</ele>
        <time>2021-02-20T13:27:20Z</time>
      </trkpt>
      <trkpt lat="45.16331" lon="5.97387">
        <ele>2648.7</ele>
        <time>2021-02-20T13:27:21Z</time>
      </trkpt>
      <trkpt lat="45.1633" lon="5.97386">
        <ele>2650.8</ele>
        <time>2021-02-20T13:27:22Z</time>
      </trkpt>
      <trkpt lat="45.16329" lon="5.97385">
        <ele>2650.8</ele>
        <time>2021-02-20T13:27:23Z</time>
      </trkpt>
      <trkpt lat="45.16328" lon="5.97385">
        <ele>2650.8</ele>
        <time>2021-02-20T13:27:24Z</time>
      </trkpt>
      <trkpt lat="45.16328" lon="5.97384">
        <ele>2652.9</ele>
        <time>2021-02-20T13:27:25Z</time>
      </trkpt>
      <trkpt lat="45.16327" lon="5.97384">
        <ele>2652.9</ele>
        <time>2021-02-20T13:27:26Z</time>
      </trkpt>
      <trkpt lat="45.16327" lon="5.97383">
        <ele>2652.9</ele>
        <time>2021-02-20T13:27:27Z</time>
      </trkpt>
      <trkpt lat="45.16327" lon="5.97383">
        <ele>2652.9</ele>
        <time>2021-02-20T13:27:28Z</time>
      </trkpt>
      <trkpt lat="45.16327" lon="5.97382">
        <ele>2652.9</ele>
        <time>2021-02-20T13:27:29Z</time>
      </trkpt>
      <trkpt lat="45.16326" lon="5.97381">
        <ele>2653</ele>
        <time>2021-02-20T13:27:30Z</time>
      </trkpt>
      <trkpt lat="45.16326" lon="5.97381">
        <ele>2653</ele>
        <time>2021-02-20T13:27:31Z</time>
      </trkpt>
      <trkpt lat="45.16326" lon="5.9738">
        <ele>2653</ele>
        <time>2021-02-20T13:27:32Z</time>
      </trkpt>
      <trkpt lat="45.16325" lon="5.9738">
        <ele>2653</ele>
        <time>2021-02-20T13:27:33Z</time>
      </trkpt>
      <trkpt lat="45.16325" lon="5.97379">
        <ele>2655.1</ele>
        <time>2021-02-20T13:27:34Z</time>
      </trkpt>
      <trkpt lat="45.16324" lon="5.97378">
        <ele>2655.1</ele>
        <time>2021-02-20T13:27:35Z</time>
      </trkpt>
      <trkpt lat="45.16324" lon="5.97377">
        <ele>2655.1</ele>
        <time>2021-02-20T13:27:36Z</time>
      </trkpt>
      <trkpt lat="45.16324" lon="5.97377">
        <ele>2655.3</ele>
        <time>2021-02-20T13:27:37Z</time>
      </trkpt>
      <trkpt lat="45.16323" lon="5.97377">
        <ele>2655.3</ele>
        <time>2021-02-20T13:27:38Z</time>
      </trkpt>
      <trkpt lat="45.16323" lon="5.97377">
        <ele>2655.3</ele>
        <time>2021-02-20T13:27:39Z</time>
      </trkpt>
      <trkpt lat="45.16323" lon="5.97377">
        <ele>2655.3</ele>
        <time>2021-02-20T13:27:40Z</time>
      </trkpt>
      <trkpt lat="45.16323" lon="5.97377">
        <ele>2655.3</ele>
        <time>2021-02-20T13:27:41Z</time>
      </trkpt>
      <trkpt lat="45.16323" lon="5.97377">
        <ele>2655.3</ele>
        <time>2021-02-20T13:27:42Z</time>
      </trkpt>
      <trkpt lat="45.16323" lon="5.97378">
        <ele>2655.1</ele>
        <time>2021-02-20T13:27:43Z</time>
      </trkpt>
      <trkpt lat="45.16323" lon="5.97379">
        <ele>2655.1</ele>
        <time>2021-02-20T13:27:44Z</time>
      </trkpt>
      <trkpt lat="45.16324" lon="5.9738">
        <ele>2655.1</ele>
        <time>2021-02-20T13:27:45Z</time>
      </trkpt>
      <trkpt lat="45.16324" lon="5.97382">
        <ele>2655</ele>
        <time>2021-02-20T13:27:46Z</time>
      </trkpt>
      <trkpt lat="45.16324" lon="5.97383">
        <ele>2655</ele>
        <time>2021-02-20T13:27:47Z</time>
      </trkpt>
      <trkpt lat="45.16324" lon="5.97384">
        <ele>2655</ele>
        <time>2021-02-20T13:27:48Z</time>
      </trkpt>
      <trkpt lat="45.16324" lon="5.97385">
        <ele>2655</ele>
        <time>2021-02-20T13:27:49Z</time>
      </trkpt>
      <trkpt lat="45.16324" lon="5.97385">
        <ele>2655</ele>
        <time>2021-02-20T13:27:50Z</time>
      </trkpt>
      <trkpt lat="45.16324" lon="5.97386">
        <ele>2655</ele>
        <time>2021-02-20T13:27:51Z</time>
      </trkpt>
      <trkpt lat="45.16324" lon="5.97386">
        <ele>2654.9</ele>
        <time>2021-02-20T13:27:52Z</time>
      </trkpt>
      <trkpt lat="45.16324" lon="5.97388">
        <ele>2654.9</ele>
        <time>2021-02-20T13:27:53Z</time>
      </trkpt>
      <trkpt lat="45.16324" lon="5.97389">
        <ele>2654.9</ele>
        <time>2021-02-20T13:27:54Z</time>
      </trkpt>
      <trkpt lat="45.16324" lon="5.9739">
        <ele>2654.9</ele>
        <time>2021-02-20T13:27:55Z</time>
      </trkpt>
      <trkpt lat="45.16324" lon="5.97391">
        <ele>2654.8</ele>
        <time>2021-02-20T13:27:56Z</time>
      </trkpt>
      <trkpt lat="45.16324" lon="5.97391">
        <ele>2654.8</ele>
        <time>2021-02-20T13:27:57Z</time>
      </trkpt>
      <trkpt lat="45.16324" lon="5.97391">
        <ele>2654.8</ele>
        <time>2021-02-20T13:27:58Z</time>
      </trkpt>
      <trkpt lat="45.16324" lon="5.97391">
        <ele>2654.8</ele>
        <time>2021-02-20T13:27:59Z</time>
      </trkpt>
      <trkpt lat="45.16325" lon="5.97392">
        <ele>2654.8</ele>
        <time>2021-02-20T13:28:00Z</time>
      </trkpt>
      <trkpt lat="45.16325" lon="5.97393">
        <ele>2654.8</ele>
        <time>2021-02-20T13:28:01Z</time>
      </trkpt>
      <trkpt lat="45.16325" lon="5.97394">
        <ele>2654.8</ele>
        <time>2021-02-20T13:28:02Z</time>
      </trkpt>
      <trkpt lat="45.16325" lon="5.97394">
        <ele>2654.8</ele>
        <time>2021-02-20T13:28:03Z</time>
      </trkpt>
      <trkpt lat="45.16325" lon="5.97395">
        <ele>2652.8</ele>
        <time>2021-02-20T13:28:04Z</time>
      </trkpt>
      <trkpt lat="45.16325" lon="5.97395">
        <ele>2652.8</ele>
        <time>2021-02-20T13:28:05Z</time>
      </trkpt>
      <trkpt lat="45.16326" lon="5.97396">
        <ele>2652.8</ele>
        <time>2021-02-20T13:28:06Z</time>
      </trkpt>
      <trkpt lat="45.16326" lon="5.97397">
        <ele>2652.8</ele>
        <time>2021-02-20T13:28:07Z</time>
      </trkpt>
      <trkpt lat="45.16326" lon="5.97397">
        <ele>2652.8</ele>
        <time>2021-02-20T13:28:08Z</time>
      </trkpt>
      <trkpt lat="45.16325" lon="5.97398">
        <ele>2652.8</ele>
        <time>2021-02-20T13:28:09Z</time>
      </trkpt>
      <trkpt lat="45.16325" lon="5.974">
        <ele>2654.8</ele>
        <time>2021-02-20T13:28:10Z</time>
      </trkpt>
      <trkpt lat="45.16325" lon="5.97401">
        <ele>2654.8</ele>
        <time>2021-02-20T13:28:11Z</time>
      </trkpt>
      <trkpt lat="45.16325" lon="5.97402">
        <ele>2654.8</ele>
        <time>2021-02-20T13:28:12Z</time>
      </trkpt>
      <trkpt lat="45.16325" lon="5.97403">
        <ele>2654.8</ele>
        <time>2021-02-20T13:28:13Z</time>
      </trkpt>
      <trkpt lat="45.16324" lon="5.97404">
        <ele>2654.9</ele>
        <time>2021-02-20T13:28:14Z</time>
      </trkpt>
      <trkpt lat="45.16324" lon="5.97405">
        <ele>2654.9</ele>
        <time>2021-02-20T13:28:15Z</time>
      </trkpt>
      <trkpt lat="45.16324" lon="5.97406">
        <ele>2654.9</ele>
        <time>2021-02-20T13:28:16Z</time>
      </trkpt>
      <trkpt lat="45.16324" lon="5.97407">
        <ele>2654.9</ele>
        <time>2021-02-20T13:28:17Z</time>
      </trkpt>
      <trkpt lat="45.16324" lon="5.97408">
        <ele>2655.1</ele>
        <time>2021-02-20T13:28:18Z</time>
      </trkpt>
      <trkpt lat="45.16324" lon="5.97409">
        <ele>2655.1</ele>
        <time>2021-02-20T13:28:19Z</time>
      </trkpt>
      <trkpt lat="45.16324" lon="5.9741">
        <ele>2655.1</ele>
        <time>2021-02-20T13:28:20Z</time>
      </trkpt>
      <trkpt lat="45.16324" lon="5.9741">
        <ele>2655.1</ele>
        <time>2021-02-20T13:28:21Z</time>
      </trkpt>
      <trkpt lat="45.16324" lon="5.97411">
        <ele>2655.1</ele>
        <time>2021-02-20T13:28:22Z</time>
      </trkpt>
      <trkpt lat="45.16324" lon="5.97411">
        <ele>2655.1</ele>
        <time>2021-02-20T13:28:23Z</time>
      </trkpt>
      <trkpt lat="45.16324" lon="5.97412">
        <ele>2655.3</ele>
        <time>2021-02-20T13:28:24Z</time>
      </trkpt>
      <trkpt lat="45.16324" lon="5.97412">
        <ele>2655.3</ele>
        <time>2021-02-20T13:28:25Z</time>
      </trkpt>
      <trkpt lat="45.16324" lon="5.97413">
        <ele>2655.3</ele>
        <time>2021-02-20T13:28:26Z</time>
      </trkpt>
      <trkpt lat="45.16324" lon="5.97413">
        <ele>2655.3</ele>
        <time>2021-02-20T13:28:27Z</time>
      </trkpt>
      <trkpt lat="45.16324" lon="5.97414">
        <ele>2655.3</ele>
        <time>2021-02-20T13:28:28Z</time>
      </trkpt>
      <trkpt lat="45.16324" lon="5.97415">
        <ele>2655.3</ele>
        <time>2021-02-20T13:28:29Z</time>
      </trkpt>
      <trkpt lat="45.16324" lon="5.97415">
        <ele>2655.3</ele>
        <time>2021-02-20T13:28:30Z</time>
      </trkpt>
      <trkpt lat="45.16324" lon="5.97417">
        <ele>2655.6</ele>
        <time>2021-02-20T13:28:31Z</time>
      </trkpt>
      <trkpt lat="45.16324" lon="5.97419">
        <ele>2655.6</ele>
        <time>2021-02-20T13:28:32Z</time>
      </trkpt>
      <trkpt lat="45.16323" lon="5.9742">
        <ele>2655.6</ele>
        <time>2021-02-20T13:28:33Z</time>
      </trkpt>
      <trkpt lat="45.16323" lon="5.97421">
        <ele>2655.9</ele>
        <time>2021-02-20T13:28:34Z</time>
      </trkpt>
      <trkpt lat="45.16323" lon="5.97421">
        <ele>2655.9</ele>
        <time>2021-02-20T13:28:35Z</time>
      </trkpt>
      <trkpt lat="45.16323" lon="5.97423">
        <ele>2655.9</ele>
        <time>2021-02-20T13:28:36Z</time>
      </trkpt>
      <trkpt lat="45.16323" lon="5.97424">
        <ele>2655.9</ele>
        <time>2021-02-20T13:28:37Z</time>
      </trkpt>
      <trkpt lat="45.16324" lon="5.97425">
        <ele>2656.3</ele>
        <time>2021-02-20T13:28:38Z</time>
      </trkpt>
      <trkpt lat="45.16324" lon="5.97426">
        <ele>2656.3</ele>
        <time>2021-02-20T13:28:39Z</time>
      </trkpt>
      <trkpt lat="45.16324" lon="5.97427">
        <ele>2656.3</ele>
        <time>2021-02-20T13:28:40Z</time>
      </trkpt>
      <trkpt lat="45.16324" lon="5.97427">
        <ele>2656.3</ele>
        <time>2021-02-20T13:28:41Z</time>
      </trkpt>
      <trkpt lat="45.16324" lon="5.97428">
        <ele>2656.3</ele>
        <time>2021-02-20T13:28:42Z</time>
      </trkpt>
      <trkpt lat="45.16324" lon="5.97428">
        <ele>2656.3</ele>
        <time>2021-02-20T13:28:43Z</time>
      </trkpt>
      <trkpt lat="45.16324" lon="5.97429">
        <ele>2656.3</ele>
        <time>2021-02-20T13:28:44Z</time>
      </trkpt>
      <trkpt lat="45.16324" lon="5.97429">
        <ele>2656.7</ele>
        <time>2021-02-20T13:28:45Z</time>
      </trkpt>
      <trkpt lat="45.16324" lon="5.97429">
        <ele>2656.7</ele>
        <time>2021-02-20T13:28:46Z</time>
      </trkpt>
      <trkpt lat="45.16325" lon="5.9743">
        <ele>2656.7</ele>
        <time>2021-02-20T13:28:47Z</time>
      </trkpt>
      <trkpt lat="45.16325" lon="5.9743">
        <ele>2655.1</ele>
        <time>2021-02-20T13:28:48Z</time>
      </trkpt>
      <trkpt lat="45.16325" lon="5.9743">
        <ele>2655.1</ele>
        <time>2021-02-20T13:28:49Z</time>
      </trkpt>
      <trkpt lat="45.16325" lon="5.9743">
        <ele>2655.1</ele>
        <time>2021-02-20T13:28:50Z</time>
      </trkpt>
      <trkpt lat="45.16326" lon="5.97432">
        <ele>2655.1</ele>
        <time>2021-02-20T13:28:51Z</time>
      </trkpt>
      <trkpt lat="45.16326" lon="5.97434">
        <ele>2655.6</ele>
        <time>2021-02-20T13:28:52Z</time>
      </trkpt>
      <trkpt lat="45.16326" lon="5.97435">
        <ele>2655.6</ele>
        <time>2021-02-20T13:28:53Z</time>
      </trkpt>
      <trkpt lat="45.16325" lon="5.97436">
        <ele>2655.6</ele>
        <time>2021-02-20T13:28:54Z</time>
      </trkpt>
      <trkpt lat="45.16325" lon="5.97437">
        <ele>2655.6</ele>
        <time>2021-02-20T13:28:55Z</time>
      </trkpt>
      <trkpt lat="45.16325" lon="5.97438">
        <ele>2656.2</ele>
        <time>2021-02-20T13:28:56Z</time>
      </trkpt>
      <trkpt lat="45.16325" lon="5.9744">
        <ele>2657.7</ele>
        <time>2021-02-20T13:28:57Z</time>
      </trkpt>
      <trkpt lat="45.16325" lon="5.97441">
        <ele>2657.7</ele>
        <time>2021-02-20T13:28:58Z</time>
      </trkpt>
      <trkpt lat="45.16325" lon="5.97442">
        <ele>2658.3</ele>
        <time>2021-02-20T13:28:59Z</time>
      </trkpt>
      <trkpt lat="45.16325" lon="5.97443">
        <ele>2658.3</ele>
        <time>2021-02-20T13:29:00Z</time>
      </trkpt>
      <trkpt lat="45.16325" lon="5.97444">
        <ele>2656.8</ele>
        <time>2021-02-20T13:29:01Z</time>
      </trkpt>
      <trkpt lat="45.16326" lon="5.97444">
        <ele>2656.8</ele>
        <time>2021-02-20T13:29:02Z</time>
      </trkpt>
      <trkpt lat="45.16326" lon="5.97445">
        <ele>2656.8</ele>
        <time>2021-02-20T13:29:03Z</time>
      </trkpt>
      <trkpt lat="45.16326" lon="5.97446">
        <ele>2656.8</ele>
        <time>2021-02-20T13:29:04Z</time>
      </trkpt>
      <trkpt lat="45.16326" lon="5.97447">
        <ele>2657.4</ele>
        <time>2021-02-20T13:29:05Z</time>
      </trkpt>
      <trkpt lat="45.16326" lon="5.97447">
        <ele>2657.4</ele>
        <time>2021-02-20T13:29:06Z</time>
      </trkpt>
      <trkpt lat="45.16326" lon="5.97447">
        <ele>2657.4</ele>
        <time>2021-02-20T13:29:07Z</time>
      </trkpt>
      <trkpt lat="45.16325" lon="5.97448">
        <ele>2657.4</ele>
        <time>2021-02-20T13:29:08Z</time>
      </trkpt>
      <trkpt lat="45.16325" lon="5.97449">
        <ele>2658.9</ele>
        <time>2021-02-20T13:29:09Z</time>
      </trkpt>
      <trkpt lat="45.16324" lon="5.97449">
        <ele>2658.9</ele>
        <time>2021-02-20T13:29:10Z</time>
      </trkpt>
      <trkpt lat="45.16324" lon="5.9745">
        <ele>2658.9</ele>
        <time>2021-02-20T13:29:11Z</time>
      </trkpt>
      <trkpt lat="45.16324" lon="5.9745">
        <ele>2658.9</ele>
        <time>2021-02-20T13:29:12Z</time>
      </trkpt>
      <trkpt lat="45.16323" lon="5.9745">
        <ele>2659.5</ele>
        <time>2021-02-20T13:29:13Z</time>
      </trkpt>
      <trkpt lat="45.16322" lon="5.97451">
        <ele>2660.9</ele>
        <time>2021-02-20T13:29:14Z</time>
      </trkpt>
      <trkpt lat="45.16321" lon="5.97451">
        <ele>2660.9</ele>
        <time>2021-02-20T13:29:15Z</time>
      </trkpt>
      <trkpt lat="45.16321" lon="5.97451">
        <ele>2660.9</ele>
        <time>2021-02-20T13:29:16Z</time>
      </trkpt>
      <trkpt lat="45.1632" lon="5.97451">
        <ele>2660.9</ele>
        <time>2021-02-20T13:29:17Z</time>
      </trkpt>
      <trkpt lat="45.1632" lon="5.97451">
        <ele>2660.9</ele>
        <time>2021-02-20T13:29:18Z</time>
      </trkpt>
      <trkpt lat="45.16319" lon="5.97451">
        <ele>2660.9</ele>
        <time>2021-02-20T13:29:19Z</time>
      </trkpt>
      <trkpt lat="45.16319" lon="5.97451">
        <ele>2660.9</ele>
        <time>2021-02-20T13:29:20Z</time>
      </trkpt>
      <trkpt lat="45.16319" lon="5.9745">
        <ele>2662.1</ele>
        <time>2021-02-20T13:29:21Z</time>
      </trkpt>
      <trkpt lat="45.16318" lon="5.9745">
        <ele>2661.6</ele>
        <time>2021-02-20T13:29:22Z</time>
      </trkpt>
      <trkpt lat="45.16317" lon="5.9745">
        <ele>2661.6</ele>
        <time>2021-02-20T13:29:23Z</time>
      </trkpt>
      <trkpt lat="45.16317" lon="5.9745">
        <ele>2661.6</ele>
        <time>2021-02-20T13:29:24Z</time>
      </trkpt>
      <trkpt lat="45.16316" lon="5.97449">
        <ele>2661.6</ele>
        <time>2021-02-20T13:29:25Z</time>
      </trkpt>
      <trkpt lat="45.16316" lon="5.97449">
        <ele>2662.8</ele>
        <time>2021-02-20T13:29:26Z</time>
      </trkpt>
      <trkpt lat="45.16315" lon="5.97449">
        <ele>2662.8</ele>
        <time>2021-02-20T13:29:27Z</time>
      </trkpt>
      <trkpt lat="45.16314" lon="5.97449">
        <ele>2662.8</ele>
        <time>2021-02-20T13:29:28Z</time>
      </trkpt>
      <trkpt lat="45.16314" lon="5.97449">
        <ele>2662.8</ele>
        <time>2021-02-20T13:29:29Z</time>
      </trkpt>
      <trkpt lat="45.16313" lon="5.97448">
        <ele>2662.8</ele>
        <time>2021-02-20T13:29:30Z</time>
      </trkpt>
      <trkpt lat="45.16313" lon="5.97447">
        <ele>2662.8</ele>
        <time>2021-02-20T13:29:31Z</time>
      </trkpt>
      <trkpt lat="45.16312" lon="5.97447">
        <ele>2664.1</ele>
        <time>2021-02-20T13:29:32Z</time>
      </trkpt>
      <trkpt lat="45.16312" lon="5.97446">
        <ele>2663.6</ele>
        <time>2021-02-20T13:29:33Z</time>
      </trkpt>
      <trkpt lat="45.16312" lon="5.97445">
        <ele>2663.6</ele>
        <time>2021-02-20T13:29:34Z</time>
      </trkpt>
      <trkpt lat="45.16311" lon="5.97444">
        <ele>2663.6</ele>
        <time>2021-02-20T13:29:35Z</time>
      </trkpt>
      <trkpt lat="45.16311" lon="5.97444">
        <ele>2663.6</ele>
        <time>2021-02-20T13:29:36Z</time>
      </trkpt>
      <trkpt lat="45.1631" lon="5.97443">
        <ele>2663.6</ele>
        <time>2021-02-20T13:29:37Z</time>
      </trkpt>
      <trkpt lat="45.1631" lon="5.97442">
        <ele>2663.6</ele>
        <time>2021-02-20T13:29:38Z</time>
      </trkpt>
      <trkpt lat="45.1631" lon="5.97441">
        <ele>2664.6</ele>
        <time>2021-02-20T13:29:39Z</time>
      </trkpt>
      <trkpt lat="45.16309" lon="5.97441">
        <ele>2664.6</ele>
        <time>2021-02-20T13:29:40Z</time>
      </trkpt>
      <trkpt lat="45.16309" lon="5.9744">
        <ele>2664.6</ele>
        <time>2021-02-20T13:29:41Z</time>
      </trkpt>
      <trkpt lat="45.16309" lon="5.97439">
        <ele>2664.6</ele>
        <time>2021-02-20T13:29:42Z</time>
      </trkpt>
      <trkpt lat="45.16308" lon="5.97439">
        <ele>2664.6</ele>
        <time>2021-02-20T13:29:43Z</time>
      </trkpt>
      <trkpt lat="45.16308" lon="5.97438">
        <ele>2664.6</ele>
        <time>2021-02-20T13:29:44Z</time>
      </trkpt>
      <trkpt lat="45.16308" lon="5.97438">
        <ele>2664.6</ele>
        <time>2021-02-20T13:29:45Z</time>
      </trkpt>
      <trkpt lat="45.16307" lon="5.97437">
        <ele>2664.3</ele>
        <time>2021-02-20T13:29:46Z</time>
      </trkpt>
      <trkpt lat="45.16307" lon="5.97437">
        <ele>2664.3</ele>
        <time>2021-02-20T13:29:47Z</time>
      </trkpt>
      <trkpt lat="45.16307" lon="5.97436">
        <ele>2665.7</ele>
        <time>2021-02-20T13:29:48Z</time>
      </trkpt>
      <trkpt lat="45.16306" lon="5.97436">
        <ele>2665.7</ele>
        <time>2021-02-20T13:29:49Z</time>
      </trkpt>
      <trkpt lat="45.16305" lon="5.97435">
        <ele>2665.7</ele>
        <time>2021-02-20T13:29:50Z</time>
      </trkpt>
      <trkpt lat="45.16305" lon="5.97434">
        <ele>2665.7</ele>
        <time>2021-02-20T13:29:51Z</time>
      </trkpt>
      <trkpt lat="45.16304" lon="5.97434">
        <ele>2665.7</ele>
        <time>2021-02-20T13:29:52Z</time>
      </trkpt>
      <trkpt lat="45.16304" lon="5.97434">
        <ele>2667.2</ele>
        <time>2021-02-20T13:29:53Z</time>
      </trkpt>
      <trkpt lat="45.16303" lon="5.97433">
        <ele>2667.2</ele>
        <time>2021-02-20T13:29:54Z</time>
      </trkpt>
      <trkpt lat="45.16303" lon="5.97433">
        <ele>2667</ele>
        <time>2021-02-20T13:29:55Z</time>
      </trkpt>
      <trkpt lat="45.16302" lon="5.97432">
        <ele>2667</ele>
        <time>2021-02-20T13:29:56Z</time>
      </trkpt>
      <trkpt lat="45.16302" lon="5.97432">
        <ele>2667</ele>
        <time>2021-02-20T13:29:57Z</time>
      </trkpt>
      <trkpt lat="45.16301" lon="5.97431">
        <ele>2667</ele>
        <time>2021-02-20T13:29:58Z</time>
      </trkpt>
      <trkpt lat="45.16301" lon="5.97431">
        <ele>2668.4</ele>
        <time>2021-02-20T13:29:59Z</time>
      </trkpt>
      <trkpt lat="45.163" lon="5.9743">
        <ele>2668.4</ele>
        <time>2021-02-20T13:30:00Z</time>
      </trkpt>
      <trkpt lat="45.163" lon="5.97428">
        <ele>2668.4</ele>
        <time>2021-02-20T13:30:01Z</time>
      </trkpt>
      <trkpt lat="45.163" lon="5.97427">
        <ele>2668.4</ele>
        <time>2021-02-20T13:30:02Z</time>
      </trkpt>
      <trkpt lat="45.163" lon="5.97426">
        <ele>2668.4</ele>
        <time>2021-02-20T13:30:03Z</time>
      </trkpt>
      <trkpt lat="45.163" lon="5.97426">
        <ele>2668.4</ele>
        <time>2021-02-20T13:30:04Z</time>
      </trkpt>
      <trkpt lat="45.163" lon="5.97425">
        <ele>2668.4</ele>
        <time>2021-02-20T13:30:05Z</time>
      </trkpt>
      <trkpt lat="45.163" lon="5.97425">
        <ele>2668.4</ele>
        <time>2021-02-20T13:30:06Z</time>
      </trkpt>
      <trkpt lat="45.163" lon="5.97424">
        <ele>2668.4</ele>
        <time>2021-02-20T13:30:07Z</time>
      </trkpt>
      <trkpt lat="45.163" lon="5.97423">
        <ele>2668.4</ele>
        <time>2021-02-20T13:30:08Z</time>
      </trkpt>
      <trkpt lat="45.163" lon="5.97422">
        <ele>2668.4</ele>
        <time>2021-02-20T13:30:09Z</time>
      </trkpt>
      <trkpt lat="45.16299" lon="5.97421">
        <ele>2668.4</ele>
        <time>2021-02-20T13:30:10Z</time>
      </trkpt>
      <trkpt lat="45.16298" lon="5.9742">
        <ele>2668.5</ele>
        <time>2021-02-20T13:30:11Z</time>
      </trkpt>
      <trkpt lat="45.16298" lon="5.97419">
        <ele>2668.5</ele>
        <time>2021-02-20T13:30:12Z</time>
      </trkpt>
      <trkpt lat="45.16297" lon="5.97418">
        <ele>2669.9</ele>
        <time>2021-02-20T13:30:13Z</time>
      </trkpt>
      <trkpt lat="45.16297" lon="5.97417">
        <ele>2669.9</ele>
        <time>2021-02-20T13:30:14Z</time>
      </trkpt>
      <trkpt lat="45.16296" lon="5.97417">
        <ele>2669.9</ele>
        <time>2021-02-20T13:30:15Z</time>
      </trkpt>
      <trkpt lat="45.16296" lon="5.97416">
        <ele>2670.1</ele>
        <time>2021-02-20T13:30:16Z</time>
      </trkpt>
      <trkpt lat="45.16295" lon="5.97415">
        <ele>2670.1</ele>
        <time>2021-02-20T13:30:17Z</time>
      </trkpt>
      <trkpt lat="45.16294" lon="5.97414">
        <ele>2671.4</ele>
        <time>2021-02-20T13:30:18Z</time>
      </trkpt>
      <trkpt lat="45.16294" lon="5.97414">
        <ele>2671.4</ele>
        <time>2021-02-20T13:30:19Z</time>
      </trkpt>
      <trkpt lat="45.16294" lon="5.97414">
        <ele>2671.4</ele>
        <time>2021-02-20T13:30:20Z</time>
      </trkpt>
      <trkpt lat="45.16294" lon="5.97413">
        <ele>2671.4</ele>
        <time>2021-02-20T13:30:21Z</time>
      </trkpt>
      <trkpt lat="45.16294" lon="5.97413">
        <ele>2671.4</ele>
        <time>2021-02-20T13:30:22Z</time>
      </trkpt>
      <trkpt lat="45.16294" lon="5.97413">
        <ele>2671.4</ele>
        <time>2021-02-20T13:30:23Z</time>
      </trkpt>
      <trkpt lat="45.16294" lon="5.97413">
        <ele>2671.4</ele>
        <time>2021-02-20T13:30:24Z</time>
      </trkpt>
      <trkpt lat="45.16294" lon="5.97412">
        <ele>2671.4</ele>
        <time>2021-02-20T13:30:25Z</time>
      </trkpt>
      <trkpt lat="45.16294" lon="5.97412">
        <ele>2671.4</ele>
        <time>2021-02-20T13:30:26Z</time>
      </trkpt>
      <trkpt lat="45.16294" lon="5.97412">
        <ele>2671.4</ele>
        <time>2021-02-20T13:30:27Z</time>
      </trkpt>
      <trkpt lat="45.16294" lon="5.97412">
        <ele>2671.4</ele>
        <time>2021-02-20T13:30:28Z</time>
      </trkpt>
      <trkpt lat="45.16294" lon="5.97412">
        <ele>2671.4</ele>
        <time>2021-02-20T13:30:29Z</time>
      </trkpt>
      <trkpt lat="45.16295" lon="5.97413">
        <ele>2671.4</ele>
        <time>2021-02-20T13:30:30Z</time>
      </trkpt>
      <trkpt lat="45.16295" lon="5.97413">
        <ele>2670.1</ele>
        <time>2021-02-20T13:30:31Z</time>
      </trkpt>
      <trkpt lat="45.16295" lon="5.97414">
        <ele>2670.1</ele>
        <time>2021-02-20T13:30:32Z</time>
      </trkpt>
      <trkpt lat="45.16295" lon="5.97414">
        <ele>2670.1</ele>
        <time>2021-02-20T13:30:33Z</time>
      </trkpt>
      <trkpt lat="45.16295" lon="5.97414">
        <ele>2670.1</ele>
        <time>2021-02-20T13:30:34Z</time>
      </trkpt>
      <trkpt lat="45.16295" lon="5.97414">
        <ele>2671.4</ele>
        <time>2021-02-20T13:30:35Z</time>
      </trkpt>
      <trkpt lat="45.16294" lon="5.97414">
        <ele>2671.4</ele>
        <time>2021-02-20T13:30:36Z</time>
      </trkpt>
      <trkpt lat="45.16294" lon="5.97414">
        <ele>2671.4</ele>
        <time>2021-02-20T13:30:37Z</time>
      </trkpt>
      <trkpt lat="45.16294" lon="5.97415">
        <ele>2671.4</ele>
        <time>2021-02-20T13:30:38Z</time>
      </trkpt>
      <trkpt lat="45.16294" lon="5.97415">
        <ele>2671.4</ele>
        <time>2021-02-20T13:30:39Z</time>
      </trkpt>
      <trkpt lat="45.16294" lon="5.97416">
        <ele>2671.2</ele>
        <time>2021-02-20T13:30:40Z</time>
      </trkpt>
      <trkpt lat="45.16294" lon="5.97417">
        <ele>2671.2</ele>
        <time>2021-02-20T13:30:41Z</time>
      </trkpt>
      <trkpt lat="45.16294" lon="5.97418">
        <ele>2671.2</ele>
        <time>2021-02-20T13:30:42Z</time>
      </trkpt>
      <trkpt lat="45.16294" lon="5.97419">
        <ele>2671.2</ele>
        <time>2021-02-20T13:30:43Z</time>
      </trkpt>
      <trkpt lat="45.16293" lon="5.9742">
        <ele>2671.2</ele>
        <time>2021-02-20T13:30:44Z</time>
      </trkpt>
      <trkpt lat="45.16293" lon="5.97421">
        <ele>2671</ele>
        <time>2021-02-20T13:30:45Z</time>
      </trkpt>
      <trkpt lat="45.16293" lon="5.97421">
        <ele>2671</ele>
        <time>2021-02-20T13:30:46Z</time>
      </trkpt>
      <trkpt lat="45.16293" lon="5.97422">
        <ele>2671</ele>
        <time>2021-02-20T13:30:47Z</time>
      </trkpt>
      <trkpt lat="45.16294" lon="5.97423">
        <ele>2671</ele>
        <time>2021-02-20T13:30:48Z</time>
      </trkpt>
      <trkpt lat="45.16294" lon="5.97423">
        <ele>2671</ele>
        <time>2021-02-20T13:30:49Z</time>
      </trkpt>
      <trkpt lat="45.16294" lon="5.97424">
        <ele>2671</ele>
        <time>2021-02-20T13:30:50Z</time>
      </trkpt>
      <trkpt lat="45.16294" lon="5.97425">
        <ele>2670.9</ele>
        <time>2021-02-20T13:30:51Z</time>
      </trkpt>
      <trkpt lat="45.16294" lon="5.97426">
        <ele>2670.9</ele>
        <time>2021-02-20T13:30:52Z</time>
      </trkpt>
      <trkpt lat="45.16294" lon="5.97426">
        <ele>2670.9</ele>
        <time>2021-02-20T13:30:53Z</time>
      </trkpt>
      <trkpt lat="45.16294" lon="5.97428">
        <ele>2670.9</ele>
        <time>2021-02-20T13:30:54Z</time>
      </trkpt>
      <trkpt lat="45.16294" lon="5.97429">
        <ele>2670.9</ele>
        <time>2021-02-20T13:30:55Z</time>
      </trkpt>
      <trkpt lat="45.16294" lon="5.97429">
        <ele>2670.9</ele>
        <time>2021-02-20T13:30:56Z</time>
      </trkpt>
      <trkpt lat="45.16294" lon="5.97431">
        <ele>2670.9</ele>
        <time>2021-02-20T13:30:57Z</time>
      </trkpt>
      <trkpt lat="45.16294" lon="5.97432">
        <ele>2670.9</ele>
        <time>2021-02-20T13:30:58Z</time>
      </trkpt>
      <trkpt lat="45.16294" lon="5.97432">
        <ele>2670.9</ele>
        <time>2021-02-20T13:30:59Z</time>
      </trkpt>
      <trkpt lat="45.16294" lon="5.97434">
        <ele>2670.9</ele>
        <time>2021-02-20T13:31:00Z</time>
      </trkpt>
      <trkpt lat="45.16295" lon="5.97434">
        <ele>2670.9</ele>
        <time>2021-02-20T13:31:01Z</time>
      </trkpt>
      <trkpt lat="45.16295" lon="5.97435">
        <ele>2669.8</ele>
        <time>2021-02-20T13:31:02Z</time>
      </trkpt>
      <trkpt lat="45.16295" lon="5.97436">
        <ele>2669.8</ele>
        <time>2021-02-20T13:31:03Z</time>
      </trkpt>
      <trkpt lat="45.16296" lon="5.97437">
        <ele>2669.8</ele>
        <time>2021-02-20T13:31:04Z</time>
      </trkpt>
      <trkpt lat="45.16296" lon="5.97437">
        <ele>2669.8</ele>
        <time>2021-02-20T13:31:05Z</time>
      </trkpt>
      <trkpt lat="45.16296" lon="5.97437">
        <ele>2669.8</ele>
        <time>2021-02-20T13:31:06Z</time>
      </trkpt>
      <trkpt lat="45.16296" lon="5.97437">
        <ele>2669.8</ele>
        <time>2021-02-20T13:31:07Z</time>
      </trkpt>
      <trkpt lat="45.16296" lon="5.97437">
        <ele>2669.8</ele>
        <time>2021-02-20T13:31:08Z</time>
      </trkpt>
      <trkpt lat="45.16296" lon="5.97437">
        <ele>2669.8</ele>
        <time>2021-02-20T13:31:09Z</time>
      </trkpt>
      <trkpt lat="45.16296" lon="5.97437">
        <ele>2669.8</ele>
        <time>2021-02-20T13:31:10Z</time>
      </trkpt>
      <trkpt lat="45.16296" lon="5.97437">
        <ele>2669.8</ele>
        <time>2021-02-20T13:31:11Z</time>
      </trkpt>
      <trkpt lat="45.16295" lon="5.97439">
        <ele>2669.9</ele>
        <time>2021-02-20T13:31:12Z</time>
      </trkpt>
      <trkpt lat="45.16295" lon="5.97439">
        <ele>2669.9</ele>
        <time>2021-02-20T13:31:13Z</time>
      </trkpt>
      <trkpt lat="45.16295" lon="5.97439">
        <ele>2670.9</ele>
        <time>2021-02-20T13:31:14Z</time>
      </trkpt>
      <trkpt lat="45.16294" lon="5.97439">
        <ele>2670.9</ele>
        <time>2021-02-20T13:31:15Z</time>
      </trkpt>
      <trkpt lat="45.16294" lon="5.97439">
        <ele>2670.9</ele>
        <time>2021-02-20T13:31:16Z</time>
      </trkpt>
      <trkpt lat="45.16294" lon="5.97439">
        <ele>2670.9</ele>
        <time>2021-02-20T13:31:17Z</time>
      </trkpt>
      <trkpt lat="45.16294" lon="5.97438">
        <ele>2670.9</ele>
        <time>2021-02-20T13:31:18Z</time>
      </trkpt>
      <trkpt lat="45.16293" lon="5.97437">
        <ele>2670.9</ele>
        <time>2021-02-20T13:31:19Z</time>
      </trkpt>
      <trkpt lat="45.16293" lon="5.97436">
        <ele>2670.9</ele>
        <time>2021-02-20T13:31:20Z</time>
      </trkpt>
      <trkpt lat="45.16293" lon="5.97435">
        <ele>2670.9</ele>
        <time>2021-02-20T13:31:21Z</time>
      </trkpt>
      <trkpt lat="45.16293" lon="5.97434">
        <ele>2670.9</ele>
        <time>2021-02-20T13:31:22Z</time>
      </trkpt>
      <trkpt lat="45.16292" lon="5.97433">
        <ele>2670.9</ele>
        <time>2021-02-20T13:31:23Z</time>
      </trkpt>
      <trkpt lat="45.16292" lon="5.97432">
        <ele>2670.9</ele>
        <time>2021-02-20T13:31:24Z</time>
      </trkpt>
      <trkpt lat="45.16292" lon="5.97431">
        <ele>2671.9</ele>
        <time>2021-02-20T13:31:25Z</time>
      </trkpt>
      <trkpt lat="45.16291" lon="5.9743">
        <ele>2671.9</ele>
        <time>2021-02-20T13:31:26Z</time>
      </trkpt>
      <trkpt lat="45.16291" lon="5.97429">
        <ele>2671.9</ele>
        <time>2021-02-20T13:31:27Z</time>
      </trkpt>
      <trkpt lat="45.1629" lon="5.97428">
        <ele>2672</ele>
        <time>2021-02-20T13:31:28Z</time>
      </trkpt>
      <trkpt lat="45.1629" lon="5.97427">
        <ele>2672</ele>
        <time>2021-02-20T13:31:29Z</time>
      </trkpt>
      <trkpt lat="45.1629" lon="5.97426">
        <ele>2672</ele>
        <time>2021-02-20T13:31:30Z</time>
      </trkpt>
      <trkpt lat="45.1629" lon="5.97425">
        <ele>2672</ele>
        <time>2021-02-20T13:31:31Z</time>
      </trkpt>
      <trkpt lat="45.1629" lon="5.97425">
        <ele>2672</ele>
        <time>2021-02-20T13:31:32Z</time>
      </trkpt>
      <trkpt lat="45.1629" lon="5.97425">
        <ele>2672</ele>
        <time>2021-02-20T13:31:33Z</time>
      </trkpt>
      <trkpt lat="45.1629" lon="5.97426">
        <ele>2672</ele>
        <time>2021-02-20T13:31:34Z</time>
      </trkpt>
      <trkpt lat="45.1629" lon="5.97426">
        <ele>2672</ele>
        <time>2021-02-20T13:31:35Z</time>
      </trkpt>
      <trkpt lat="45.1629" lon="5.97426">
        <ele>2672</ele>
        <time>2021-02-20T13:31:36Z</time>
      </trkpt>
      <trkpt lat="45.1629" lon="5.97426">
        <ele>2672</ele>
        <time>2021-02-20T13:31:37Z</time>
      </trkpt>
      <trkpt lat="45.1629" lon="5.97426">
        <ele>2672</ele>
        <time>2021-02-20T13:31:38Z</time>
      </trkpt>
      <trkpt lat="45.16291" lon="5.97426">
        <ele>2672</ele>
        <time>2021-02-20T13:31:39Z</time>
      </trkpt>
      <trkpt lat="45.16291" lon="5.97426">
        <ele>2672</ele>
        <time>2021-02-20T13:31:40Z</time>
      </trkpt>
      <trkpt lat="45.16291" lon="5.97427">
        <ele>2672</ele>
        <time>2021-02-20T13:31:41Z</time>
      </trkpt>
      <trkpt lat="45.16291" lon="5.97428">
        <ele>2672</ele>
        <time>2021-02-20T13:31:42Z</time>
      </trkpt>
      <trkpt lat="45.16291" lon="5.97428">
        <ele>2672</ele>
        <time>2021-02-20T13:31:43Z</time>
      </trkpt>
      <trkpt lat="45.16291" lon="5.97429">
        <ele>2672</ele>
        <time>2021-02-20T13:31:44Z</time>
      </trkpt>
      <trkpt lat="45.1629" lon="5.97429">
        <ele>2671.9</ele>
        <time>2021-02-20T13:31:45Z</time>
      </trkpt>
      <trkpt lat="45.1629" lon="5.9743">
        <ele>2671.9</ele>
        <time>2021-02-20T13:31:46Z</time>
      </trkpt>
      <trkpt lat="45.1629" lon="5.97431">
        <ele>2671.9</ele>
        <time>2021-02-20T13:31:47Z</time>
      </trkpt>
      <trkpt lat="45.1629" lon="5.97432">
        <ele>2671.9</ele>
        <time>2021-02-20T13:31:48Z</time>
      </trkpt>
      <trkpt lat="45.1629" lon="5.97432">
        <ele>2671.9</ele>
        <time>2021-02-20T13:31:49Z</time>
      </trkpt>
      <trkpt lat="45.1629" lon="5.97433">
        <ele>2671.9</ele>
        <time>2021-02-20T13:31:50Z</time>
      </trkpt>
      <trkpt lat="45.1629" lon="5.97433">
        <ele>2671.9</ele>
        <time>2021-02-20T13:31:51Z</time>
      </trkpt>
      <trkpt lat="45.1629" lon="5.97434">
        <ele>2671.9</ele>
        <time>2021-02-20T13:31:52Z</time>
      </trkpt>
      <trkpt lat="45.1629" lon="5.97436">
        <ele>2671.9</ele>
        <time>2021-02-20T13:31:53Z</time>
      </trkpt>
      <trkpt lat="45.1629" lon="5.97437">
        <ele>2671.9</ele>
        <time>2021-02-20T13:31:54Z</time>
      </trkpt>
      <trkpt lat="45.1629" lon="5.97437">
        <ele>2671.9</ele>
        <time>2021-02-20T13:31:55Z</time>
      </trkpt>
      <trkpt lat="45.1629" lon="5.97438">
        <ele>2671.9</ele>
        <time>2021-02-20T13:31:56Z</time>
      </trkpt>
      <trkpt lat="45.1629" lon="5.97438">
        <ele>2671.9</ele>
        <time>2021-02-20T13:31:57Z</time>
      </trkpt>
      <trkpt lat="45.16289" lon="5.97438">
        <ele>2671.9</ele>
        <time>2021-02-20T13:31:58Z</time>
      </trkpt>
      <trkpt lat="45.1629" lon="5.97438">
        <ele>2671.9</ele>
        <time>2021-02-20T13:31:59Z</time>
      </trkpt>
      <trkpt lat="45.1629" lon="5.97438">
        <ele>2671.9</ele>
        <time>2021-02-20T13:32:00Z</time>
      </trkpt>
      <trkpt lat="45.16289" lon="5.97438">
        <ele>2671.9</ele>
        <time>2021-02-20T13:32:01Z</time>
      </trkpt>
      <trkpt lat="45.16289" lon="5.97438">
        <ele>2671.9</ele>
        <time>2021-02-20T13:32:02Z</time>
      </trkpt>
      <trkpt lat="45.16289" lon="5.97438">
        <ele>2671.9</ele>
        <time>2021-02-20T13:32:03Z</time>
      </trkpt>
      <trkpt lat="45.16289" lon="5.97439">
        <ele>2671.9</ele>
        <time>2021-02-20T13:32:04Z</time>
      </trkpt>
      <trkpt lat="45.16289" lon="5.97439">
        <ele>2671.9</ele>
        <time>2021-02-20T13:32:05Z</time>
      </trkpt>
      <trkpt lat="45.16289" lon="5.97439">
        <ele>2671.9</ele>
        <time>2021-02-20T13:32:06Z</time>
      </trkpt>
      <trkpt lat="45.16289" lon="5.97439">
        <ele>2671.9</ele>
        <time>2021-02-20T13:32:07Z</time>
      </trkpt>
      <trkpt lat="45.16289" lon="5.97438">
        <ele>2672.8</ele>
        <time>2021-02-20T13:32:08Z</time>
      </trkpt>
      <trkpt lat="45.16288" lon="5.97438">
        <ele>2672.8</ele>
        <time>2021-02-20T13:32:09Z</time>
      </trkpt>
      <trkpt lat="45.16288" lon="5.97437">
        <ele>2672.8</ele>
        <time>2021-02-20T13:32:10Z</time>
      </trkpt>
      <trkpt lat="45.16288" lon="5.97437">
        <ele>2672.9</ele>
        <time>2021-02-20T13:32:11Z</time>
      </trkpt>
      <trkpt lat="45.16287" lon="5.97436">
        <ele>2672.9</ele>
        <time>2021-02-20T13:32:12Z</time>
      </trkpt>
      <trkpt lat="45.16287" lon="5.97436">
        <ele>2672.9</ele>
        <time>2021-02-20T13:32:13Z</time>
      </trkpt>
      <trkpt lat="45.16287" lon="5.97436">
        <ele>2672.9</ele>
        <time>2021-02-20T13:32:14Z</time>
      </trkpt>
      <trkpt lat="45.16286" lon="5.97435">
        <ele>2672.9</ele>
        <time>2021-02-20T13:32:15Z</time>
      </trkpt>
      <trkpt lat="45.16286" lon="5.97434">
        <ele>2672.9</ele>
        <time>2021-02-20T13:32:16Z</time>
      </trkpt>
      <trkpt lat="45.16286" lon="5.97434">
        <ele>2672.9</ele>
        <time>2021-02-20T13:32:17Z</time>
      </trkpt>
      <trkpt lat="45.16285" lon="5.97433">
        <ele>2673.8</ele>
        <time>2021-02-20T13:32:18Z</time>
      </trkpt>
      <trkpt lat="45.16285" lon="5.97433">
        <ele>2673.8</ele>
        <time>2021-02-20T13:32:19Z</time>
      </trkpt>
      <trkpt lat="45.16285" lon="5.97433">
        <ele>2673.9</ele>
        <time>2021-02-20T13:32:20Z</time>
      </trkpt>
      <trkpt lat="45.16285" lon="5.97432">
        <ele>2673.9</ele>
        <time>2021-02-20T13:32:21Z</time>
      </trkpt>
      <trkpt lat="45.16284" lon="5.97432">
        <ele>2673.9</ele>
        <time>2021-02-20T13:32:22Z</time>
      </trkpt>
      <trkpt lat="45.16284" lon="5.97432">
        <ele>2673.9</ele>
        <time>2021-02-20T13:32:23Z</time>
      </trkpt>
      <trkpt lat="45.16284" lon="5.97432">
        <ele>2673.9</ele>
        <time>2021-02-20T13:32:24Z</time>
      </trkpt>
      <trkpt lat="45.16284" lon="5.97432">
        <ele>2673.9</ele>
        <time>2021-02-20T13:32:25Z</time>
      </trkpt>
      <trkpt lat="45.16284" lon="5.97432">
        <ele>2673.9</ele>
        <time>2021-02-20T13:32:26Z</time>
      </trkpt>
      <trkpt lat="45.16284" lon="5.97432">
        <ele>2673.9</ele>
        <time>2021-02-20T13:32:27Z</time>
      </trkpt>
      <trkpt lat="45.16284" lon="5.97432">
        <ele>2673.9</ele>
        <time>2021-02-20T13:32:28Z</time>
      </trkpt>
      <trkpt lat="45.16285" lon="5.97433">
        <ele>2673.9</ele>
        <time>2021-02-20T13:32:29Z</time>
      </trkpt>
      <trkpt lat="45.16285" lon="5.97433">
        <ele>2673.9</ele>
        <time>2021-02-20T13:32:30Z</time>
      </trkpt>
      <trkpt lat="45.16285" lon="5.97433">
        <ele>2673.9</ele>
        <time>2021-02-20T13:32:31Z</time>
      </trkpt>
      <trkpt lat="45.16285" lon="5.97433">
        <ele>2673.9</ele>
        <time>2021-02-20T13:32:32Z</time>
      </trkpt>
      <trkpt lat="45.16285" lon="5.97433">
        <ele>2673.9</ele>
        <time>2021-02-20T13:32:33Z</time>
      </trkpt>
      <trkpt lat="45.16285" lon="5.97433">
        <ele>2673.9</ele>
        <time>2021-02-20T13:32:34Z</time>
      </trkpt>
      <trkpt lat="45.16285" lon="5.97433">
        <ele>2673.8</ele>
        <time>2021-02-20T13:32:35Z</time>
      </trkpt>
      <trkpt lat="45.16284" lon="5.97434">
        <ele>2673.8</ele>
        <time>2021-02-20T13:32:36Z</time>
      </trkpt>
      <trkpt lat="45.16284" lon="5.97435">
        <ele>2673.8</ele>
        <time>2021-02-20T13:32:37Z</time>
      </trkpt>
      <trkpt lat="45.16284" lon="5.97436">
        <ele>2673.8</ele>
        <time>2021-02-20T13:32:38Z</time>
      </trkpt>
      <trkpt lat="45.16284" lon="5.97437">
        <ele>2673.8</ele>
        <time>2021-02-20T13:32:39Z</time>
      </trkpt>
      <trkpt lat="45.16284" lon="5.97437">
        <ele>2673.8</ele>
        <time>2021-02-20T13:32:40Z</time>
      </trkpt>
      <trkpt lat="45.16284" lon="5.97438">
        <ele>2673.7</ele>
        <time>2021-02-20T13:32:41Z</time>
      </trkpt>
      <trkpt lat="45.16284" lon="5.97439">
        <ele>2673.7</ele>
        <time>2021-02-20T13:32:42Z</time>
      </trkpt>
      <trkpt lat="45.16283" lon="5.97441">
        <ele>2673.7</ele>
        <time>2021-02-20T13:32:43Z</time>
      </trkpt>
      <trkpt lat="45.16283" lon="5.97442">
        <ele>2673.7</ele>
        <time>2021-02-20T13:32:44Z</time>
      </trkpt>
      <trkpt lat="45.16283" lon="5.97443">
        <ele>2674.5</ele>
        <time>2021-02-20T13:32:45Z</time>
      </trkpt>
      <trkpt lat="45.16283" lon="5.97443">
        <ele>2674.5</ele>
        <time>2021-02-20T13:32:46Z</time>
      </trkpt>
      <trkpt lat="45.16282" lon="5.97444">
        <ele>2674.5</ele>
        <time>2021-02-20T13:32:47Z</time>
      </trkpt>
      <trkpt lat="45.16282" lon="5.97445">
        <ele>2674.5</ele>
        <time>2021-02-20T13:32:48Z</time>
      </trkpt>
      <trkpt lat="45.16282" lon="5.97446">
        <ele>2674.5</ele>
        <time>2021-02-20T13:32:49Z</time>
      </trkpt>
      <trkpt lat="45.16281" lon="5.97447">
        <ele>2674.5</ele>
        <time>2021-02-20T13:32:50Z</time>
      </trkpt>
      <trkpt lat="45.16281" lon="5.97448">
        <ele>2674.5</ele>
        <time>2021-02-20T13:32:51Z</time>
      </trkpt>
      <trkpt lat="45.16281" lon="5.97449">
        <ele>2674.5</ele>
        <time>2021-02-20T13:32:52Z</time>
      </trkpt>
      <trkpt lat="45.16281" lon="5.9745">
        <ele>2674.5</ele>
        <time>2021-02-20T13:32:53Z</time>
      </trkpt>
      <trkpt lat="45.16281" lon="5.97451">
        <ele>2674.4</ele>
        <time>2021-02-20T13:32:54Z</time>
      </trkpt>
      <trkpt lat="45.1628" lon="5.97451">
        <ele>2674.4</ele>
        <time>2021-02-20T13:32:55Z</time>
      </trkpt>
      <trkpt lat="45.16281" lon="5.97452">
        <ele>2674.4</ele>
        <time>2021-02-20T13:32:56Z</time>
      </trkpt>
      <trkpt lat="45.1628" lon="5.97453">
        <ele>2674.4</ele>
        <time>2021-02-20T13:32:57Z</time>
      </trkpt>
      <trkpt lat="45.1628" lon="5.97455">
        <ele>2674.4</ele>
        <time>2021-02-20T13:32:58Z</time>
      </trkpt>
      <trkpt lat="45.1628" lon="5.97455">
        <ele>2674.4</ele>
        <time>2021-02-20T13:32:59Z</time>
      </trkpt>
      <trkpt lat="45.1628" lon="5.97455">
        <ele>2674.4</ele>
        <time>2021-02-20T13:33:00Z</time>
      </trkpt>
      <trkpt lat="45.1628" lon="5.97455">
        <ele>2674.4</ele>
        <time>2021-02-20T13:33:01Z</time>
      </trkpt>
      <trkpt lat="45.1628" lon="5.97456">
        <ele>2674.4</ele>
        <time>2021-02-20T13:33:02Z</time>
      </trkpt>
      <trkpt lat="45.1628" lon="5.97457">
        <ele>2674.4</ele>
        <time>2021-02-20T13:33:03Z</time>
      </trkpt>
      <trkpt lat="45.1628" lon="5.97458">
        <ele>2674.4</ele>
        <time>2021-02-20T13:33:04Z</time>
      </trkpt>
      <trkpt lat="45.1628" lon="5.97459">
        <ele>2674.4</ele>
        <time>2021-02-20T13:33:05Z</time>
      </trkpt>
      <trkpt lat="45.1628" lon="5.97459">
        <ele>2674.4</ele>
        <time>2021-02-20T13:33:06Z</time>
      </trkpt>
      <trkpt lat="45.1628" lon="5.9746">
        <ele>2674.3</ele>
        <time>2021-02-20T13:33:07Z</time>
      </trkpt>
      <trkpt lat="45.1628" lon="5.9746">
        <ele>2674.3</ele>
        <time>2021-02-20T13:33:08Z</time>
      </trkpt>
      <trkpt lat="45.1628" lon="5.97461">
        <ele>2674.2</ele>
        <time>2021-02-20T13:33:09Z</time>
      </trkpt>
      <trkpt lat="45.1628" lon="5.97462">
        <ele>2674.2</ele>
        <time>2021-02-20T13:33:10Z</time>
      </trkpt>
      <trkpt lat="45.16279" lon="5.97462">
        <ele>2674.1</ele>
        <time>2021-02-20T13:33:11Z</time>
      </trkpt>
      <trkpt lat="45.16279" lon="5.97463">
        <ele>2674.1</ele>
        <time>2021-02-20T13:33:12Z</time>
      </trkpt>
      <trkpt lat="45.16279" lon="5.97463">
        <ele>2674.1</ele>
        <time>2021-02-20T13:33:13Z</time>
      </trkpt>
      <trkpt lat="45.1628" lon="5.97464">
        <ele>2674</ele>
        <time>2021-02-20T13:33:14Z</time>
      </trkpt>
      <trkpt lat="45.1628" lon="5.97465">
        <ele>2673.9</ele>
        <time>2021-02-20T13:33:15Z</time>
      </trkpt>
      <trkpt lat="45.1628" lon="5.97466">
        <ele>2673.8</ele>
        <time>2021-02-20T13:33:16Z</time>
      </trkpt>
      <trkpt lat="45.16279" lon="5.97467">
        <ele>2673.8</ele>
        <time>2021-02-20T13:33:17Z</time>
      </trkpt>
      <trkpt lat="45.16279" lon="5.97469">
        <ele>2673.7</ele>
        <time>2021-02-20T13:33:18Z</time>
      </trkpt>
      <trkpt lat="45.16279" lon="5.9747">
        <ele>2673.6</ele>
        <time>2021-02-20T13:33:19Z</time>
      </trkpt>
      <trkpt lat="45.16279" lon="5.9747">
        <ele>2673.6</ele>
        <time>2021-02-20T13:33:20Z</time>
      </trkpt>
      <trkpt lat="45.16279" lon="5.97471">
        <ele>2673.5</ele>
        <time>2021-02-20T13:33:21Z</time>
      </trkpt>
      <trkpt lat="45.1628" lon="5.97472">
        <ele>2673.4</ele>
        <time>2021-02-20T13:33:22Z</time>
      </trkpt>
      <trkpt lat="45.1628" lon="5.97473">
        <ele>2673.4</ele>
        <time>2021-02-20T13:33:23Z</time>
      </trkpt>
      <trkpt lat="45.1628" lon="5.97474">
        <ele>2673.3</ele>
        <time>2021-02-20T13:33:24Z</time>
      </trkpt>
      <trkpt lat="45.16281" lon="5.97475">
        <ele>2673.2</ele>
        <time>2021-02-20T13:33:25Z</time>
      </trkpt>
      <trkpt lat="45.16282" lon="5.97476">
        <ele>2673.1</ele>
        <time>2021-02-20T13:33:26Z</time>
      </trkpt>
      <trkpt lat="45.16282" lon="5.97476">
        <ele>2673</ele>
        <time>2021-02-20T13:33:27Z</time>
      </trkpt>
      <trkpt lat="45.16282" lon="5.97477">
        <ele>2673</ele>
        <time>2021-02-20T13:33:28Z</time>
      </trkpt>
      <trkpt lat="45.16282" lon="5.97478">
        <ele>2672.9</ele>
        <time>2021-02-20T13:33:29Z</time>
      </trkpt>
      <trkpt lat="45.16283" lon="5.97479">
        <ele>2672.8</ele>
        <time>2021-02-20T13:33:30Z</time>
      </trkpt>
      <trkpt lat="45.16283" lon="5.97481">
        <ele>2672.7</ele>
        <time>2021-02-20T13:33:31Z</time>
      </trkpt>
      <trkpt lat="45.16283" lon="5.97481">
        <ele>2672.7</ele>
        <time>2021-02-20T13:33:32Z</time>
      </trkpt>
      <trkpt lat="45.16283" lon="5.97481">
        <ele>2672.7</ele>
        <time>2021-02-20T13:33:33Z</time>
      </trkpt>
      <trkpt lat="45.16284" lon="5.97482">
        <ele>2672.6</ele>
        <time>2021-02-20T13:33:34Z</time>
      </trkpt>
      <trkpt lat="45.16284" lon="5.97482">
        <ele>2672.6</ele>
        <time>2021-02-20T13:33:35Z</time>
      </trkpt>
      <trkpt lat="45.16285" lon="5.97483">
        <ele>2672.5</ele>
        <time>2021-02-20T13:33:36Z</time>
      </trkpt>
      <trkpt lat="45.16285" lon="5.97484">
        <ele>2672.4</ele>
        <time>2021-02-20T13:33:37Z</time>
      </trkpt>
      <trkpt lat="45.16286" lon="5.97485">
        <ele>2672.4</ele>
        <time>2021-02-20T13:33:38Z</time>
      </trkpt>
      <trkpt lat="45.16286" lon="5.97486">
        <ele>2672.3</ele>
        <time>2021-02-20T13:33:39Z</time>
      </trkpt>
      <trkpt lat="45.16286" lon="5.97486">
        <ele>2672.2</ele>
        <time>2021-02-20T13:33:40Z</time>
      </trkpt>
      <trkpt lat="45.16287" lon="5.97487">
        <ele>2672.2</ele>
        <time>2021-02-20T13:33:41Z</time>
      </trkpt>
      <trkpt lat="45.16287" lon="5.97488">
        <ele>2672.1</ele>
        <time>2021-02-20T13:33:42Z</time>
      </trkpt>
      <trkpt lat="45.16288" lon="5.97489">
        <ele>2672</ele>
        <time>2021-02-20T13:33:43Z</time>
      </trkpt>
      <trkpt lat="45.16288" lon="5.9749">
        <ele>2671.9</ele>
        <time>2021-02-20T13:33:44Z</time>
      </trkpt>
      <trkpt lat="45.16288" lon="5.97491">
        <ele>2671.8</ele>
        <time>2021-02-20T13:33:45Z</time>
      </trkpt>
      <trkpt lat="45.16289" lon="5.97492">
        <ele>2671.7</ele>
        <time>2021-02-20T13:33:46Z</time>
      </trkpt>
      <trkpt lat="45.1629" lon="5.97493">
        <ele>2671.6</ele>
        <time>2021-02-20T13:33:47Z</time>
      </trkpt>
      <trkpt lat="45.16291" lon="5.97495">
        <ele>2671.5</ele>
        <time>2021-02-20T13:33:48Z</time>
      </trkpt>
      <trkpt lat="45.16291" lon="5.97495">
        <ele>2671.4</ele>
        <time>2021-02-20T13:33:49Z</time>
      </trkpt>
      <trkpt lat="45.16292" lon="5.97496">
        <ele>2671.3</ele>
        <time>2021-02-20T13:33:50Z</time>
      </trkpt>
      <trkpt lat="45.16292" lon="5.97496">
        <ele>2671.3</ele>
        <time>2021-02-20T13:33:51Z</time>
      </trkpt>
      <trkpt lat="45.16293" lon="5.97497">
        <ele>2671.2</ele>
        <time>2021-02-20T13:33:52Z</time>
      </trkpt>
      <trkpt lat="45.16293" lon="5.97498">
        <ele>2671.1</ele>
        <time>2021-02-20T13:33:53Z</time>
      </trkpt>
      <trkpt lat="45.16294" lon="5.97499">
        <ele>2671</ele>
        <time>2021-02-20T13:33:54Z</time>
      </trkpt>
      <trkpt lat="45.16294" lon="5.97499">
        <ele>2671</ele>
        <time>2021-02-20T13:33:55Z</time>
      </trkpt>
      <trkpt lat="45.16295" lon="5.975">
        <ele>2670.9</ele>
        <time>2021-02-20T13:33:56Z</time>
      </trkpt>
      <trkpt lat="45.16295" lon="5.97501">
        <ele>2670.8</ele>
        <time>2021-02-20T13:33:57Z</time>
      </trkpt>
      <trkpt lat="45.16296" lon="5.97502">
        <ele>2670.7</ele>
        <time>2021-02-20T13:33:58Z</time>
      </trkpt>
      <trkpt lat="45.16297" lon="5.97502">
        <ele>2670.7</ele>
        <time>2021-02-20T13:33:59Z</time>
      </trkpt>
      <trkpt lat="45.16297" lon="5.97502">
        <ele>2670.6</ele>
        <time>2021-02-20T13:34:00Z</time>
      </trkpt>
      <trkpt lat="45.16297" lon="5.97503">
        <ele>2670.6</ele>
        <time>2021-02-20T13:34:01Z</time>
      </trkpt>
      <trkpt lat="45.16298" lon="5.97503">
        <ele>2670.5</ele>
        <time>2021-02-20T13:34:02Z</time>
      </trkpt>
      <trkpt lat="45.16298" lon="5.97504">
        <ele>2670.4</ele>
        <time>2021-02-20T13:34:03Z</time>
      </trkpt>
      <trkpt lat="45.16299" lon="5.97505">
        <ele>2670.4</ele>
        <time>2021-02-20T13:34:04Z</time>
      </trkpt>
      <trkpt lat="45.16299" lon="5.97506">
        <ele>2670.3</ele>
        <time>2021-02-20T13:34:05Z</time>
      </trkpt>
      <trkpt lat="45.163" lon="5.97507">
        <ele>2670.2</ele>
        <time>2021-02-20T13:34:06Z</time>
      </trkpt>
      <trkpt lat="45.163" lon="5.97508">
        <ele>2670.1</ele>
        <time>2021-02-20T13:34:07Z</time>
      </trkpt>
      <trkpt lat="45.16301" lon="5.97509">
        <ele>2670</ele>
        <time>2021-02-20T13:34:08Z</time>
      </trkpt>
      <trkpt lat="45.16301" lon="5.9751">
        <ele>2670</ele>
        <time>2021-02-20T13:34:09Z</time>
      </trkpt>
      <trkpt lat="45.16302" lon="5.97511">
        <ele>2669.9</ele>
        <time>2021-02-20T13:34:10Z</time>
      </trkpt>
      <trkpt lat="45.16302" lon="5.97512">
        <ele>2669.8</ele>
        <time>2021-02-20T13:34:11Z</time>
      </trkpt>
      <trkpt lat="45.16302" lon="5.97513">
        <ele>2669.7</ele>
        <time>2021-02-20T13:34:12Z</time>
      </trkpt>
      <trkpt lat="45.16302" lon="5.97514">
        <ele>2669.7</ele>
        <time>2021-02-20T13:34:13Z</time>
      </trkpt>
      <trkpt lat="45.16303" lon="5.97515">
        <ele>2669.6</ele>
        <time>2021-02-20T13:34:14Z</time>
      </trkpt>
      <trkpt lat="45.16303" lon="5.97515">
        <ele>2669.6</ele>
        <time>2021-02-20T13:34:15Z</time>
      </trkpt>
      <trkpt lat="45.16303" lon="5.97516">
        <ele>2669.5</ele>
        <time>2021-02-20T13:34:16Z</time>
      </trkpt>
      <trkpt lat="45.16304" lon="5.97517">
        <ele>2669.4</ele>
        <time>2021-02-20T13:34:17Z</time>
      </trkpt>
      <trkpt lat="45.16304" lon="5.97518">
        <ele>2669.3</ele>
        <time>2021-02-20T13:34:18Z</time>
      </trkpt>
      <trkpt lat="45.16304" lon="5.97518">
        <ele>2669.3</ele>
        <time>2021-02-20T13:34:19Z</time>
      </trkpt>
      <trkpt lat="45.16305" lon="5.97518">
        <ele>2669.3</ele>
        <time>2021-02-20T13:34:20Z</time>
      </trkpt>
      <trkpt lat="45.16305" lon="5.97519">
        <ele>2669.2</ele>
        <time>2021-02-20T13:34:21Z</time>
      </trkpt>
      <trkpt lat="45.16306" lon="5.9752">
        <ele>2669.1</ele>
        <time>2021-02-20T13:34:22Z</time>
      </trkpt>
      <trkpt lat="45.16307" lon="5.97521">
        <ele>2669</ele>
        <time>2021-02-20T13:34:23Z</time>
      </trkpt>
      <trkpt lat="45.16307" lon="5.97522">
        <ele>2668.9</ele>
        <time>2021-02-20T13:34:24Z</time>
      </trkpt>
      <trkpt lat="45.16307" lon="5.97522">
        <ele>2668.9</ele>
        <time>2021-02-20T13:34:25Z</time>
      </trkpt>
      <trkpt lat="45.16308" lon="5.97523">
        <ele>2668.8</ele>
        <time>2021-02-20T13:34:26Z</time>
      </trkpt>
      <trkpt lat="45.16309" lon="5.97524">
        <ele>2668.7</ele>
        <time>2021-02-20T13:34:27Z</time>
      </trkpt>
      <trkpt lat="45.16309" lon="5.97525">
        <ele>2668.6</ele>
        <time>2021-02-20T13:34:28Z</time>
      </trkpt>
      <trkpt lat="45.1631" lon="5.97526">
        <ele>2668.5</ele>
        <time>2021-02-20T13:34:29Z</time>
      </trkpt>
      <trkpt lat="45.1631" lon="5.97527">
        <ele>2668.4</ele>
        <time>2021-02-20T13:34:30Z</time>
      </trkpt>
      <trkpt lat="45.16311" lon="5.97527">
        <ele>2668.4</ele>
        <time>2021-02-20T13:34:31Z</time>
      </trkpt>
      <trkpt lat="45.16311" lon="5.97528">
        <ele>2668.3</ele>
        <time>2021-02-20T13:34:32Z</time>
      </trkpt>
      <trkpt lat="45.16312" lon="5.97529">
        <ele>2668.2</ele>
        <time>2021-02-20T13:34:33Z</time>
      </trkpt>
      <trkpt lat="45.16312" lon="5.9753">
        <ele>2668.2</ele>
        <time>2021-02-20T13:34:34Z</time>
      </trkpt>
      <trkpt lat="45.16313" lon="5.9753">
        <ele>2668.1</ele>
        <time>2021-02-20T13:34:35Z</time>
      </trkpt>
      <trkpt lat="45.16313" lon="5.97532">
        <ele>2668</ele>
        <time>2021-02-20T13:34:36Z</time>
      </trkpt>
      <trkpt lat="45.16314" lon="5.97533">
        <ele>2667.9</ele>
        <time>2021-02-20T13:34:37Z</time>
      </trkpt>
      <trkpt lat="45.16314" lon="5.97534">
        <ele>2667.8</ele>
        <time>2021-02-20T13:34:38Z</time>
      </trkpt>
      <trkpt lat="45.16315" lon="5.97535">
        <ele>2667.7</ele>
        <time>2021-02-20T13:34:39Z</time>
      </trkpt>
      <trkpt lat="45.16315" lon="5.97536">
        <ele>2667.6</ele>
        <time>2021-02-20T13:34:40Z</time>
      </trkpt>
      <trkpt lat="45.16316" lon="5.97537">
        <ele>2667.6</ele>
        <time>2021-02-20T13:34:41Z</time>
      </trkpt>
      <trkpt lat="45.16316" lon="5.97537">
        <ele>2667.5</ele>
        <time>2021-02-20T13:34:42Z</time>
      </trkpt>
      <trkpt lat="45.16316" lon="5.97538">
        <ele>2667.5</ele>
        <time>2021-02-20T13:34:43Z</time>
      </trkpt>
      <trkpt lat="45.16316" lon="5.97538">
        <ele>2667.4</ele>
        <time>2021-02-20T13:34:44Z</time>
      </trkpt>
      <trkpt lat="45.16317" lon="5.97539">
        <ele>2667.4</ele>
        <time>2021-02-20T13:34:45Z</time>
      </trkpt>
      <trkpt lat="45.16317" lon="5.97541">
        <ele>2667.3</ele>
        <time>2021-02-20T13:34:46Z</time>
      </trkpt>
      <trkpt lat="45.16317" lon="5.97541">
        <ele>2667.2</ele>
        <time>2021-02-20T13:34:47Z</time>
      </trkpt>
      <trkpt lat="45.16317" lon="5.97543">
        <ele>2667.1</ele>
        <time>2021-02-20T13:34:48Z</time>
      </trkpt>
      <trkpt lat="45.16318" lon="5.97544">
        <ele>2667</ele>
        <time>2021-02-20T13:34:49Z</time>
      </trkpt>
      <trkpt lat="45.16318" lon="5.97545">
        <ele>2666.9</ele>
        <time>2021-02-20T13:34:50Z</time>
      </trkpt>
      <trkpt lat="45.16318" lon="5.97545">
        <ele>2666.9</ele>
        <time>2021-02-20T13:34:51Z</time>
      </trkpt>
      <trkpt lat="45.16319" lon="5.97546">
        <ele>2666.9</ele>
        <time>2021-02-20T13:34:52Z</time>
      </trkpt>
      <trkpt lat="45.16319" lon="5.97547">
        <ele>2666.8</ele>
        <time>2021-02-20T13:34:53Z</time>
      </trkpt>
      <trkpt lat="45.16319" lon="5.97547">
        <ele>2666.7</ele>
        <time>2021-02-20T13:34:54Z</time>
      </trkpt>
      <trkpt lat="45.16319" lon="5.97548">
        <ele>2666.7</ele>
        <time>2021-02-20T13:34:55Z</time>
      </trkpt>
      <trkpt lat="45.1632" lon="5.97549">
        <ele>2666.6</ele>
        <time>2021-02-20T13:34:56Z</time>
      </trkpt>
      <trkpt lat="45.1632" lon="5.9755">
        <ele>2666.5</ele>
        <time>2021-02-20T13:34:57Z</time>
      </trkpt>
      <trkpt lat="45.1632" lon="5.97551">
        <ele>2666.4</ele>
        <time>2021-02-20T13:34:58Z</time>
      </trkpt>
      <trkpt lat="45.1632" lon="5.97553">
        <ele>2666.4</ele>
        <time>2021-02-20T13:34:59Z</time>
      </trkpt>
      <trkpt lat="45.16321" lon="5.97553">
        <ele>2666.3</ele>
        <time>2021-02-20T13:35:00Z</time>
      </trkpt>
      <trkpt lat="45.16321" lon="5.97555">
        <ele>2666.2</ele>
        <time>2021-02-20T13:35:01Z</time>
      </trkpt>
      <trkpt lat="45.16321" lon="5.97556">
        <ele>2666.1</ele>
        <time>2021-02-20T13:35:02Z</time>
      </trkpt>
      <trkpt lat="45.16321" lon="5.97557">
        <ele>2666</ele>
        <time>2021-02-20T13:35:03Z</time>
      </trkpt>
      <trkpt lat="45.16321" lon="5.97558">
        <ele>2666</ele>
        <time>2021-02-20T13:35:04Z</time>
      </trkpt>
      <trkpt lat="45.16321" lon="5.97559">
        <ele>2665.9</ele>
        <time>2021-02-20T13:35:05Z</time>
      </trkpt>
      <trkpt lat="45.16321" lon="5.9756">
        <ele>2665.9</ele>
        <time>2021-02-20T13:35:06Z</time>
      </trkpt>
      <trkpt lat="45.16321" lon="5.9756">
        <ele>2665.8</ele>
        <time>2021-02-20T13:35:07Z</time>
      </trkpt>
      <trkpt lat="45.16321" lon="5.97561">
        <ele>2665.8</ele>
        <time>2021-02-20T13:35:08Z</time>
      </trkpt>
      <trkpt lat="45.16321" lon="5.97562">
        <ele>2665.7</ele>
        <time>2021-02-20T13:35:09Z</time>
      </trkpt>
      <trkpt lat="45.16321" lon="5.97562">
        <ele>2665.7</ele>
        <time>2021-02-20T13:35:10Z</time>
      </trkpt>
      <trkpt lat="45.16321" lon="5.97563">
        <ele>2665.6</ele>
        <time>2021-02-20T13:35:11Z</time>
      </trkpt>
      <trkpt lat="45.16321" lon="5.97564">
        <ele>2665.6</ele>
        <time>2021-02-20T13:35:12Z</time>
      </trkpt>
      <trkpt lat="45.16322" lon="5.97564">
        <ele>2665.5</ele>
        <time>2021-02-20T13:35:13Z</time>
      </trkpt>
      <trkpt lat="45.16322" lon="5.97565">
        <ele>2665.4</ele>
        <time>2021-02-20T13:35:14Z</time>
      </trkpt>
      <trkpt lat="45.16322" lon="5.97566">
        <ele>2665.4</ele>
        <time>2021-02-20T13:35:15Z</time>
      </trkpt>
      <trkpt lat="45.16322" lon="5.97567">
        <ele>2665.3</ele>
        <time>2021-02-20T13:35:16Z</time>
      </trkpt>
      <trkpt lat="45.16322" lon="5.97569">
        <ele>2665.2</ele>
        <time>2021-02-20T13:35:17Z</time>
      </trkpt>
      <trkpt lat="45.16322" lon="5.9757">
        <ele>2665.1</ele>
        <time>2021-02-20T13:35:18Z</time>
      </trkpt>
      <trkpt lat="45.16322" lon="5.97571">
        <ele>2665</ele>
        <time>2021-02-20T13:35:19Z</time>
      </trkpt>
      <trkpt lat="45.16322" lon="5.97572">
        <ele>2665</ele>
        <time>2021-02-20T13:35:20Z</time>
      </trkpt>
      <trkpt lat="45.16322" lon="5.97572">
        <ele>2664.9</ele>
        <time>2021-02-20T13:35:21Z</time>
      </trkpt>
      <trkpt lat="45.16322" lon="5.97573">
        <ele>2664.9</ele>
        <time>2021-02-20T13:35:22Z</time>
      </trkpt>
      <trkpt lat="45.16322" lon="5.97574">
        <ele>2664.8</ele>
        <time>2021-02-20T13:35:23Z</time>
      </trkpt>
      <trkpt lat="45.16322" lon="5.97575">
        <ele>2664.7</ele>
        <time>2021-02-20T13:35:24Z</time>
      </trkpt>
      <trkpt lat="45.16322" lon="5.97576">
        <ele>2664.7</ele>
        <time>2021-02-20T13:35:25Z</time>
      </trkpt>
      <trkpt lat="45.16322" lon="5.97576">
        <ele>2664.7</ele>
        <time>2021-02-20T13:35:26Z</time>
      </trkpt>
      <trkpt lat="45.16322" lon="5.97577">
        <ele>2664.6</ele>
        <time>2021-02-20T13:35:27Z</time>
      </trkpt>
      <trkpt lat="45.16323" lon="5.97578">
        <ele>2664.5</ele>
        <time>2021-02-20T13:35:28Z</time>
      </trkpt>
      <trkpt lat="45.16323" lon="5.97579">
        <ele>2664.5</ele>
        <time>2021-02-20T13:35:29Z</time>
      </trkpt>
      <trkpt lat="45.16323" lon="5.9758">
        <ele>2664.4</ele>
        <time>2021-02-20T13:35:30Z</time>
      </trkpt>
      <trkpt lat="45.16324" lon="5.9758">
        <ele>2664.3</ele>
        <time>2021-02-20T13:35:31Z</time>
      </trkpt>
      <trkpt lat="45.16324" lon="5.97581">
        <ele>2664.3</ele>
        <time>2021-02-20T13:35:32Z</time>
      </trkpt>
      <trkpt lat="45.16324" lon="5.97581">
        <ele>2664.3</ele>
        <time>2021-02-20T13:35:33Z</time>
      </trkpt>
      <trkpt lat="45.16325" lon="5.97582">
        <ele>2664.2</ele>
        <time>2021-02-20T13:35:34Z</time>
      </trkpt>
      <trkpt lat="45.16325" lon="5.97582">
        <ele>2664.1</ele>
        <time>2021-02-20T13:35:35Z</time>
      </trkpt>
      <trkpt lat="45.16325" lon="5.97582">
        <ele>2664.1</ele>
        <time>2021-02-20T13:35:36Z</time>
      </trkpt>
      <trkpt lat="45.16326" lon="5.97583">
        <ele>2664.1</ele>
        <time>2021-02-20T13:35:37Z</time>
      </trkpt>
      <trkpt lat="45.16326" lon="5.97583">
        <ele>2664</ele>
        <time>2021-02-20T13:35:38Z</time>
      </trkpt>
      <trkpt lat="45.16327" lon="5.97584">
        <ele>2666</ele>
        <time>2021-02-20T13:35:39Z</time>
      </trkpt>
      <trkpt lat="45.16327" lon="5.97584">
        <ele>2666.1</ele>
        <time>2021-02-20T13:35:40Z</time>
      </trkpt>
      <trkpt lat="45.16328" lon="5.97585">
        <ele>2666.3</ele>
        <time>2021-02-20T13:35:41Z</time>
      </trkpt>
      <trkpt lat="45.16328" lon="5.97585">
        <ele>2666.4</ele>
        <time>2021-02-20T13:35:42Z</time>
      </trkpt>
      <trkpt lat="45.16328" lon="5.97585">
        <ele>2666.4</ele>
        <time>2021-02-20T13:35:43Z</time>
      </trkpt>
      <trkpt lat="45.16329" lon="5.97586">
        <ele>2666.6</ele>
        <time>2021-02-20T13:35:44Z</time>
      </trkpt>
      <trkpt lat="45.16329" lon="5.97586">
        <ele>2666.8</ele>
        <time>2021-02-20T13:35:45Z</time>
      </trkpt>
      <trkpt lat="45.1633" lon="5.97587">
        <ele>2666.9</ele>
        <time>2021-02-20T13:35:46Z</time>
      </trkpt>
      <trkpt lat="45.1633" lon="5.97587">
        <ele>2667</ele>
        <time>2021-02-20T13:35:47Z</time>
      </trkpt>
      <trkpt lat="45.1633" lon="5.97588">
        <ele>2667.1</ele>
        <time>2021-02-20T13:35:48Z</time>
      </trkpt>
      <trkpt lat="45.1633" lon="5.97588">
        <ele>2667.2</ele>
        <time>2021-02-20T13:35:49Z</time>
      </trkpt>
      <trkpt lat="45.16331" lon="5.97589">
        <ele>2667.4</ele>
        <time>2021-02-20T13:35:50Z</time>
      </trkpt>
      <trkpt lat="45.16331" lon="5.97589">
        <ele>2667.5</ele>
        <time>2021-02-20T13:35:51Z</time>
      </trkpt>
      <trkpt lat="45.16332" lon="5.9759">
        <ele>2667.6</ele>
        <time>2021-02-20T13:35:52Z</time>
      </trkpt>
      <trkpt lat="45.16332" lon="5.9759">
        <ele>2667.7</ele>
        <time>2021-02-20T13:35:53Z</time>
      </trkpt>
      <trkpt lat="45.16332" lon="5.9759">
        <ele>2667.9</ele>
        <time>2021-02-20T13:35:54Z</time>
      </trkpt>
      <trkpt lat="45.16333" lon="5.97591">
        <ele>2668</ele>
        <time>2021-02-20T13:35:55Z</time>
      </trkpt>
      <trkpt lat="45.16333" lon="5.97591">
        <ele>2668.1</ele>
        <time>2021-02-20T13:35:56Z</time>
      </trkpt>
      <trkpt lat="45.16334" lon="5.97591">
        <ele>2668.2</ele>
        <time>2021-02-20T13:35:57Z</time>
      </trkpt>
      <trkpt lat="45.16334" lon="5.97591">
        <ele>2668.4</ele>
        <time>2021-02-20T13:35:58Z</time>
      </trkpt>
      <trkpt lat="45.16335" lon="5.97592">
        <ele>2668.6</ele>
        <time>2021-02-20T13:35:59Z</time>
      </trkpt>
      <trkpt lat="45.16336" lon="5.97592">
        <ele>2668.7</ele>
        <time>2021-02-20T13:36:00Z</time>
      </trkpt>
      <trkpt lat="45.16336" lon="5.97592">
        <ele>2669</ele>
        <time>2021-02-20T13:36:01Z</time>
      </trkpt>
      <trkpt lat="45.16337" lon="5.97593">
        <ele>2669.2</ele>
        <time>2021-02-20T13:36:02Z</time>
      </trkpt>
      <trkpt lat="45.16338" lon="5.97594">
        <ele>2669.4</ele>
        <time>2021-02-20T13:36:03Z</time>
      </trkpt>
      <trkpt lat="45.16338" lon="5.97595">
        <ele>2669.6</ele>
        <time>2021-02-20T13:36:04Z</time>
      </trkpt>
      <trkpt lat="45.16339" lon="5.97595">
        <ele>2669.7</ele>
        <time>2021-02-20T13:36:05Z</time>
      </trkpt>
      <trkpt lat="45.16339" lon="5.97595">
        <ele>2669.9</ele>
        <time>2021-02-20T13:36:06Z</time>
      </trkpt>
      <trkpt lat="45.1634" lon="5.97596">
        <ele>2670</ele>
        <time>2021-02-20T13:36:07Z</time>
      </trkpt>
      <trkpt lat="45.16341" lon="5.97596">
        <ele>2670.2</ele>
        <time>2021-02-20T13:36:08Z</time>
      </trkpt>
      <trkpt lat="45.16341" lon="5.97596">
        <ele>2670.4</ele>
        <time>2021-02-20T13:36:09Z</time>
      </trkpt>
      <trkpt lat="45.16341" lon="5.97597">
        <ele>2670.5</ele>
        <time>2021-02-20T13:36:10Z</time>
      </trkpt>
      <trkpt lat="45.16342" lon="5.97597">
        <ele>2670.6</ele>
        <time>2021-02-20T13:36:11Z</time>
      </trkpt>
      <trkpt lat="45.16342" lon="5.97597">
        <ele>2670.7</ele>
        <time>2021-02-20T13:36:12Z</time>
      </trkpt>
      <trkpt lat="45.16343" lon="5.97598">
        <ele>2670.8</ele>
        <time>2021-02-20T13:36:13Z</time>
      </trkpt>
      <trkpt lat="45.16343" lon="5.97598">
        <ele>2670.9</ele>
        <time>2021-02-20T13:36:14Z</time>
      </trkpt>
      <trkpt lat="45.16343" lon="5.97599">
        <ele>2671.1</ele>
        <time>2021-02-20T13:36:15Z</time>
      </trkpt>
      <trkpt lat="45.16344" lon="5.97599">
        <ele>2671.2</ele>
        <time>2021-02-20T13:36:16Z</time>
      </trkpt>
      <trkpt lat="45.16344" lon="5.976">
        <ele>2671.4</ele>
        <time>2021-02-20T13:36:17Z</time>
      </trkpt>
      <trkpt lat="45.16345" lon="5.976">
        <ele>2671.6</ele>
        <time>2021-02-20T13:36:18Z</time>
      </trkpt>
      <trkpt lat="45.16345" lon="5.97601">
        <ele>2671.8</ele>
        <time>2021-02-20T13:36:19Z</time>
      </trkpt>
      <trkpt lat="45.16346" lon="5.97602">
        <ele>2671.9</ele>
        <time>2021-02-20T13:36:20Z</time>
      </trkpt>
      <trkpt lat="45.16346" lon="5.97602">
        <ele>2672.1</ele>
        <time>2021-02-20T13:36:21Z</time>
      </trkpt>
      <trkpt lat="45.16347" lon="5.97603">
        <ele>2672.2</ele>
        <time>2021-02-20T13:36:22Z</time>
      </trkpt>
      <trkpt lat="45.16347" lon="5.97603">
        <ele>2672.3</ele>
        <time>2021-02-20T13:36:23Z</time>
      </trkpt>
      <trkpt lat="45.16347" lon="5.97603">
        <ele>2672.4</ele>
        <time>2021-02-20T13:36:24Z</time>
      </trkpt>
      <trkpt lat="45.16347" lon="5.97604">
        <ele>2672.4</ele>
        <time>2021-02-20T13:36:25Z</time>
      </trkpt>
      <trkpt lat="45.16348" lon="5.97604">
        <ele>2672.6</ele>
        <time>2021-02-20T13:36:26Z</time>
      </trkpt>
      <trkpt lat="45.16348" lon="5.97605">
        <ele>2672.7</ele>
        <time>2021-02-20T13:36:27Z</time>
      </trkpt>
      <trkpt lat="45.16348" lon="5.97605">
        <ele>2672.7</ele>
        <time>2021-02-20T13:36:28Z</time>
      </trkpt>
      <trkpt lat="45.16349" lon="5.97605">
        <ele>2672.8</ele>
        <time>2021-02-20T13:36:29Z</time>
      </trkpt>
      <trkpt lat="45.16349" lon="5.97606">
        <ele>2673</ele>
        <time>2021-02-20T13:36:30Z</time>
      </trkpt>
      <trkpt lat="45.16349" lon="5.97606">
        <ele>2673.1</ele>
        <time>2021-02-20T13:36:31Z</time>
      </trkpt>
      <trkpt lat="45.1635" lon="5.97607">
        <ele>2673.3</ele>
        <time>2021-02-20T13:36:32Z</time>
      </trkpt>
      <trkpt lat="45.16351" lon="5.97609">
        <ele>2673.6</ele>
        <time>2021-02-20T13:36:33Z</time>
      </trkpt>
      <trkpt lat="45.16351" lon="5.9761">
        <ele>2673.8</ele>
        <time>2021-02-20T13:36:34Z</time>
      </trkpt>
      <trkpt lat="45.16351" lon="5.9761">
        <ele>2673.9</ele>
        <time>2021-02-20T13:36:35Z</time>
      </trkpt>
      <trkpt lat="45.16352" lon="5.97611">
        <ele>2674</ele>
        <time>2021-02-20T13:36:36Z</time>
      </trkpt>
      <trkpt lat="45.16352" lon="5.97611">
        <ele>2674</ele>
        <time>2021-02-20T13:36:37Z</time>
      </trkpt>
      <trkpt lat="45.16352" lon="5.97612">
        <ele>2674.2</ele>
        <time>2021-02-20T13:36:38Z</time>
      </trkpt>
      <trkpt lat="45.16352" lon="5.97612">
        <ele>2674.3</ele>
        <time>2021-02-20T13:36:39Z</time>
      </trkpt>
      <trkpt lat="45.16352" lon="5.97613">
        <ele>2674.3</ele>
        <time>2021-02-20T13:36:40Z</time>
      </trkpt>
      <trkpt lat="45.16352" lon="5.97613">
        <ele>2674.4</ele>
        <time>2021-02-20T13:36:41Z</time>
      </trkpt>
      <trkpt lat="45.16353" lon="5.97613">
        <ele>2674.5</ele>
        <time>2021-02-20T13:36:42Z</time>
      </trkpt>
      <trkpt lat="45.16353" lon="5.97613">
        <ele>2674.6</ele>
        <time>2021-02-20T13:36:43Z</time>
      </trkpt>
      <trkpt lat="45.16354" lon="5.97614">
        <ele>2674.7</ele>
        <time>2021-02-20T13:36:44Z</time>
      </trkpt>
      <trkpt lat="45.16354" lon="5.97614">
        <ele>2674.8</ele>
        <time>2021-02-20T13:36:45Z</time>
      </trkpt>
      <trkpt lat="45.16355" lon="5.97614">
        <ele>2674.9</ele>
        <time>2021-02-20T13:36:46Z</time>
      </trkpt>
      <trkpt lat="45.16355" lon="5.97615">
        <ele>2675</ele>
        <time>2021-02-20T13:36:47Z</time>
      </trkpt>
      <trkpt lat="45.16356" lon="5.97615">
        <ele>2675.2</ele>
        <time>2021-02-20T13:36:48Z</time>
      </trkpt>
      <trkpt lat="45.16356" lon="5.97616">
        <ele>2675.3</ele>
        <time>2021-02-20T13:36:49Z</time>
      </trkpt>
      <trkpt lat="45.16357" lon="5.97616">
        <ele>2675.4</ele>
        <time>2021-02-20T13:36:50Z</time>
      </trkpt>
      <trkpt lat="45.16357" lon="5.97617">
        <ele>2675.5</ele>
        <time>2021-02-20T13:36:51Z</time>
      </trkpt>
      <trkpt lat="45.16358" lon="5.97617">
        <ele>2675.6</ele>
        <time>2021-02-20T13:36:52Z</time>
      </trkpt>
      <trkpt lat="45.16358" lon="5.97618">
        <ele>2675.7</ele>
        <time>2021-02-20T13:36:53Z</time>
      </trkpt>
      <trkpt lat="45.16358" lon="5.97618">
        <ele>2675.8</ele>
        <time>2021-02-20T13:36:54Z</time>
      </trkpt>
      <trkpt lat="45.16359" lon="5.97619">
        <ele>2675.9</ele>
        <time>2021-02-20T13:36:55Z</time>
      </trkpt>
      <trkpt lat="45.16359" lon="5.97619">
        <ele>2676</ele>
        <time>2021-02-20T13:36:56Z</time>
      </trkpt>
      <trkpt lat="45.16359" lon="5.97619">
        <ele>2676</ele>
        <time>2021-02-20T13:36:57Z</time>
      </trkpt>
      <trkpt lat="45.1636" lon="5.9762">
        <ele>2676.1</ele>
        <time>2021-02-20T13:36:58Z</time>
      </trkpt>
      <trkpt lat="45.1636" lon="5.9762">
        <ele>2676.2</ele>
        <time>2021-02-20T13:36:59Z</time>
      </trkpt>
      <trkpt lat="45.1636" lon="5.97621">
        <ele>2676.3</ele>
        <time>2021-02-20T13:37:00Z</time>
      </trkpt>
      <trkpt lat="45.16361" lon="5.97621">
        <ele>2676.4</ele>
        <time>2021-02-20T13:37:01Z</time>
      </trkpt>
      <trkpt lat="45.16361" lon="5.97622">
        <ele>2676.5</ele>
        <time>2021-02-20T13:37:02Z</time>
      </trkpt>
      <trkpt lat="45.16362" lon="5.97622">
        <ele>2676.6</ele>
        <time>2021-02-20T13:37:03Z</time>
      </trkpt>
      <trkpt lat="45.16362" lon="5.97622">
        <ele>2676.7</ele>
        <time>2021-02-20T13:37:04Z</time>
      </trkpt>
      <trkpt lat="45.16363" lon="5.97622">
        <ele>2676.7</ele>
        <time>2021-02-20T13:37:05Z</time>
      </trkpt>
      <trkpt lat="45.16363" lon="5.97622">
        <ele>2676.8</ele>
        <time>2021-02-20T13:37:06Z</time>
      </trkpt>
      <trkpt lat="45.16363" lon="5.97623">
        <ele>2676.9</ele>
        <time>2021-02-20T13:37:07Z</time>
      </trkpt>
      <trkpt lat="45.16364" lon="5.97623">
        <ele>2677</ele>
        <time>2021-02-20T13:37:08Z</time>
      </trkpt>
      <trkpt lat="45.16364" lon="5.97623">
        <ele>2677</ele>
        <time>2021-02-20T13:37:09Z</time>
      </trkpt>
      <trkpt lat="45.16365" lon="5.97624">
        <ele>2677.2</ele>
        <time>2021-02-20T13:37:10Z</time>
      </trkpt>
      <trkpt lat="45.16365" lon="5.97624">
        <ele>2677.2</ele>
        <time>2021-02-20T13:37:11Z</time>
      </trkpt>
      <trkpt lat="45.16366" lon="5.97624">
        <ele>2677.3</ele>
        <time>2021-02-20T13:37:12Z</time>
      </trkpt>
      <trkpt lat="45.16366" lon="5.97624">
        <ele>2677.3</ele>
        <time>2021-02-20T13:37:13Z</time>
      </trkpt>
      <trkpt lat="45.16366" lon="5.97624">
        <ele>2677.4</ele>
        <time>2021-02-20T13:37:14Z</time>
      </trkpt>
      <trkpt lat="45.16367" lon="5.97624">
        <ele>2677.5</ele>
        <time>2021-02-20T13:37:15Z</time>
      </trkpt>
      <trkpt lat="45.16368" lon="5.97624">
        <ele>2677.6</ele>
        <time>2021-02-20T13:37:16Z</time>
      </trkpt>
      <trkpt lat="45.16368" lon="5.97624">
        <ele>2677.7</ele>
        <time>2021-02-20T13:37:17Z</time>
      </trkpt>
      <trkpt lat="45.16368" lon="5.97624">
        <ele>2677.8</ele>
        <time>2021-02-20T13:37:18Z</time>
      </trkpt>
      <trkpt lat="45.16369" lon="5.97624">
        <ele>2677.8</ele>
        <time>2021-02-20T13:37:19Z</time>
      </trkpt>
      <trkpt lat="45.16369" lon="5.97625">
        <ele>2677.9</ele>
        <time>2021-02-20T13:37:20Z</time>
      </trkpt>
      <trkpt lat="45.16369" lon="5.97625">
        <ele>2678</ele>
        <time>2021-02-20T13:37:21Z</time>
      </trkpt>
      <trkpt lat="45.1637" lon="5.97626">
        <ele>2678</ele>
        <time>2021-02-20T13:37:22Z</time>
      </trkpt>
      <trkpt lat="45.1637" lon="5.97627">
        <ele>2678.2</ele>
        <time>2021-02-20T13:37:23Z</time>
      </trkpt>
      <trkpt lat="45.16371" lon="5.97628">
        <ele>2678.3</ele>
        <time>2021-02-20T13:37:24Z</time>
      </trkpt>
      <trkpt lat="45.16372" lon="5.97629">
        <ele>2678.6</ele>
        <time>2021-02-20T13:37:25Z</time>
      </trkpt>
      <trkpt lat="45.16372" lon="5.9763">
        <ele>2678.7</ele>
        <time>2021-02-20T13:37:26Z</time>
      </trkpt>
      <trkpt lat="45.16373" lon="5.9763">
        <ele>2678.8</ele>
        <time>2021-02-20T13:37:27Z</time>
      </trkpt>
      <trkpt lat="45.16373" lon="5.9763">
        <ele>2678.8</ele>
        <time>2021-02-20T13:37:28Z</time>
      </trkpt>
      <trkpt lat="45.16373" lon="5.97631">
        <ele>2678.9</ele>
        <time>2021-02-20T13:37:29Z</time>
      </trkpt>
      <trkpt lat="45.16374" lon="5.97631">
        <ele>2679</ele>
        <time>2021-02-20T13:37:30Z</time>
      </trkpt>
      <trkpt lat="45.16374" lon="5.97632">
        <ele>2679.1</ele>
        <time>2021-02-20T13:37:31Z</time>
      </trkpt>
      <trkpt lat="45.16374" lon="5.97632">
        <ele>2679.2</ele>
        <time>2021-02-20T13:37:32Z</time>
      </trkpt>
      <trkpt lat="45.16375" lon="5.97633">
        <ele>2679.4</ele>
        <time>2021-02-20T13:37:33Z</time>
      </trkpt>
      <trkpt lat="45.16375" lon="5.97634">
        <ele>2679.5</ele>
        <time>2021-02-20T13:37:34Z</time>
      </trkpt>
      <trkpt lat="45.16376" lon="5.97634">
        <ele>2679.6</ele>
        <time>2021-02-20T13:37:35Z</time>
      </trkpt>
      <trkpt lat="45.16376" lon="5.97635">
        <ele>2679.7</ele>
        <time>2021-02-20T13:37:36Z</time>
      </trkpt>
      <trkpt lat="45.16376" lon="5.97635">
        <ele>2679.8</ele>
        <time>2021-02-20T13:37:37Z</time>
      </trkpt>
      <trkpt lat="45.16377" lon="5.97636">
        <ele>2680</ele>
        <time>2021-02-20T13:37:38Z</time>
      </trkpt>
      <trkpt lat="45.16377" lon="5.97637">
        <ele>2680.1</ele>
        <time>2021-02-20T13:37:39Z</time>
      </trkpt>
      <trkpt lat="45.16378" lon="5.97638">
        <ele>2680.3</ele>
        <time>2021-02-20T13:37:40Z</time>
      </trkpt>
      <trkpt lat="45.16378" lon="5.97639">
        <ele>2680.5</ele>
        <time>2021-02-20T13:37:41Z</time>
      </trkpt>
      <trkpt lat="45.16379" lon="5.9764">
        <ele>2680.7</ele>
        <time>2021-02-20T13:37:42Z</time>
      </trkpt>
      <trkpt lat="45.16379" lon="5.97641">
        <ele>2680.9</ele>
        <time>2021-02-20T13:37:43Z</time>
      </trkpt>
      <trkpt lat="45.16379" lon="5.97642">
        <ele>2681.1</ele>
        <time>2021-02-20T13:37:44Z</time>
      </trkpt>
      <trkpt lat="45.1638" lon="5.97644">
        <ele>2681.3</ele>
        <time>2021-02-20T13:37:45Z</time>
      </trkpt>
      <trkpt lat="45.1638" lon="5.97646">
        <ele>2681.6</ele>
        <time>2021-02-20T13:37:46Z</time>
      </trkpt>
      <trkpt lat="45.1638" lon="5.97648">
        <ele>2681.9</ele>
        <time>2021-02-20T13:37:47Z</time>
      </trkpt>
      <trkpt lat="45.1638" lon="5.9765">
        <ele>2682.2</ele>
        <time>2021-02-20T13:37:48Z</time>
      </trkpt>
      <trkpt lat="45.1638" lon="5.97655">
        <ele>2682.8</ele>
        <time>2021-02-20T13:37:49Z</time>
      </trkpt>
      <trkpt lat="45.1638" lon="5.97657">
        <ele>2683</ele>
        <time>2021-02-20T13:37:50Z</time>
      </trkpt>
      <trkpt lat="45.1638" lon="5.97659">
        <ele>2683.2</ele>
        <time>2021-02-20T13:37:51Z</time>
      </trkpt>
      <trkpt lat="45.1638" lon="5.9766">
        <ele>2683.4</ele>
        <time>2021-02-20T13:37:52Z</time>
      </trkpt>
      <trkpt lat="45.1638" lon="5.97661">
        <ele>2683.5</ele>
        <time>2021-02-20T13:37:53Z</time>
      </trkpt>
      <trkpt lat="45.1638" lon="5.97661">
        <ele>2683.6</ele>
        <time>2021-02-20T13:37:54Z</time>
      </trkpt>
      <trkpt lat="45.1638" lon="5.97663">
        <ele>2683.7</ele>
        <time>2021-02-20T13:37:55Z</time>
      </trkpt>
      <trkpt lat="45.16381" lon="5.97664">
        <ele>2683.9</ele>
        <time>2021-02-20T13:37:56Z</time>
      </trkpt>
      <trkpt lat="45.16381" lon="5.97665">
        <ele>2684</ele>
        <time>2021-02-20T13:37:57Z</time>
      </trkpt>
      <trkpt lat="45.16381" lon="5.97667">
        <ele>2684.1</ele>
        <time>2021-02-20T13:37:58Z</time>
      </trkpt>
      <trkpt lat="45.16381" lon="5.97668">
        <ele>2684.3</ele>
        <time>2021-02-20T13:37:59Z</time>
      </trkpt>
      <trkpt lat="45.16381" lon="5.97669">
        <ele>2684.4</ele>
        <time>2021-02-20T13:38:00Z</time>
      </trkpt>
      <trkpt lat="45.16382" lon="5.9767">
        <ele>2684.5</ele>
        <time>2021-02-20T13:38:01Z</time>
      </trkpt>
      <trkpt lat="45.16382" lon="5.97671">
        <ele>2684.6</ele>
        <time>2021-02-20T13:38:02Z</time>
      </trkpt>
      <trkpt lat="45.16382" lon="5.97672">
        <ele>2684.7</ele>
        <time>2021-02-20T13:38:03Z</time>
      </trkpt>
      <trkpt lat="45.16382" lon="5.97673">
        <ele>2684.8</ele>
        <time>2021-02-20T13:38:04Z</time>
      </trkpt>
      <trkpt lat="45.16382" lon="5.97674">
        <ele>2684.9</ele>
        <time>2021-02-20T13:38:05Z</time>
      </trkpt>
      <trkpt lat="45.16383" lon="5.97675">
        <ele>2685</ele>
        <time>2021-02-20T13:38:06Z</time>
      </trkpt>
      <trkpt lat="45.16383" lon="5.97676">
        <ele>2685.1</ele>
        <time>2021-02-20T13:38:07Z</time>
      </trkpt>
      <trkpt lat="45.16383" lon="5.97677">
        <ele>2685.2</ele>
        <time>2021-02-20T13:38:08Z</time>
      </trkpt>
      <trkpt lat="45.16383" lon="5.97678">
        <ele>2685.3</ele>
        <time>2021-02-20T13:38:09Z</time>
      </trkpt>
      <trkpt lat="45.16383" lon="5.97679">
        <ele>2685.4</ele>
        <time>2021-02-20T13:38:10Z</time>
      </trkpt>
      <trkpt lat="45.16384" lon="5.9768">
        <ele>2685.5</ele>
        <time>2021-02-20T13:38:11Z</time>
      </trkpt>
      <trkpt lat="45.16384" lon="5.97681">
        <ele>2685.6</ele>
        <time>2021-02-20T13:38:12Z</time>
      </trkpt>
      <trkpt lat="45.16384" lon="5.97682">
        <ele>2685.7</ele>
        <time>2021-02-20T13:38:13Z</time>
      </trkpt>
      <trkpt lat="45.16384" lon="5.97684">
        <ele>2685.9</ele>
        <time>2021-02-20T13:38:14Z</time>
      </trkpt>
      <trkpt lat="45.16385" lon="5.97685">
        <ele>2686</ele>
        <time>2021-02-20T13:38:15Z</time>
      </trkpt>
      <trkpt lat="45.16385" lon="5.97686">
        <ele>2686.1</ele>
        <time>2021-02-20T13:38:16Z</time>
      </trkpt>
      <trkpt lat="45.16385" lon="5.97686">
        <ele>2686.1</ele>
        <time>2021-02-20T13:38:17Z</time>
      </trkpt>
      <trkpt lat="45.16385" lon="5.97687">
        <ele>2686.2</ele>
        <time>2021-02-20T13:38:18Z</time>
      </trkpt>
      <trkpt lat="45.16385" lon="5.97687">
        <ele>2686.2</ele>
        <time>2021-02-20T13:38:19Z</time>
      </trkpt>
      <trkpt lat="45.16385" lon="5.97688">
        <ele>2686.3</ele>
        <time>2021-02-20T13:38:20Z</time>
      </trkpt>
      <trkpt lat="45.16386" lon="5.97689">
        <ele>2686.4</ele>
        <time>2021-02-20T13:38:21Z</time>
      </trkpt>
      <trkpt lat="45.16386" lon="5.97689">
        <ele>2686.4</ele>
        <time>2021-02-20T13:38:22Z</time>
      </trkpt>
      <trkpt lat="45.16386" lon="5.97691">
        <ele>2686.6</ele>
        <time>2021-02-20T13:38:23Z</time>
      </trkpt>
      <trkpt lat="45.16386" lon="5.97692">
        <ele>2686.7</ele>
        <time>2021-02-20T13:38:24Z</time>
      </trkpt>
      <trkpt lat="45.16386" lon="5.97693">
        <ele>2686.8</ele>
        <time>2021-02-20T13:38:25Z</time>
      </trkpt>
      <trkpt lat="45.16387" lon="5.97694">
        <ele>2686.9</ele>
        <time>2021-02-20T13:38:26Z</time>
      </trkpt>
      <trkpt lat="45.16387" lon="5.97695">
        <ele>2687</ele>
        <time>2021-02-20T13:38:27Z</time>
      </trkpt>
      <trkpt lat="45.16387" lon="5.97696">
        <ele>2687.1</ele>
        <time>2021-02-20T13:38:28Z</time>
      </trkpt>
      <trkpt lat="45.16387" lon="5.97697">
        <ele>2687.3</ele>
        <time>2021-02-20T13:38:29Z</time>
      </trkpt>
      <trkpt lat="45.16387" lon="5.97698">
        <ele>2687.4</ele>
        <time>2021-02-20T13:38:30Z</time>
      </trkpt>
      <trkpt lat="45.16388" lon="5.97699">
        <ele>2687.5</ele>
        <time>2021-02-20T13:38:31Z</time>
      </trkpt>
      <trkpt lat="45.16388" lon="5.97699">
        <ele>2687.5</ele>
        <time>2021-02-20T13:38:32Z</time>
      </trkpt>
      <trkpt lat="45.16388" lon="5.977">
        <ele>2687.7</ele>
        <time>2021-02-20T13:38:33Z</time>
      </trkpt>
      <trkpt lat="45.16388" lon="5.97702">
        <ele>2687.8</ele>
        <time>2021-02-20T13:38:34Z</time>
      </trkpt>
      <trkpt lat="45.16389" lon="5.97703">
        <ele>2687.9</ele>
        <time>2021-02-20T13:38:35Z</time>
      </trkpt>
      <trkpt lat="45.16389" lon="5.97703">
        <ele>2688</ele>
        <time>2021-02-20T13:38:36Z</time>
      </trkpt>
      <trkpt lat="45.16389" lon="5.97704">
        <ele>2688.1</ele>
        <time>2021-02-20T13:38:37Z</time>
      </trkpt>
      <trkpt lat="45.16389" lon="5.97705">
        <ele>2688.2</ele>
        <time>2021-02-20T13:38:38Z</time>
      </trkpt>
      <trkpt lat="45.1639" lon="5.97706">
        <ele>2688.4</ele>
        <time>2021-02-20T13:38:39Z</time>
      </trkpt>
      <trkpt lat="45.1639" lon="5.97707">
        <ele>2688.5</ele>
        <time>2021-02-20T13:38:40Z</time>
      </trkpt>
      <trkpt lat="45.1639" lon="5.97708">
        <ele>2688.6</ele>
        <time>2021-02-20T13:38:41Z</time>
      </trkpt>
      <trkpt lat="45.16391" lon="5.97709">
        <ele>2688.7</ele>
        <time>2021-02-20T13:38:42Z</time>
      </trkpt>
      <trkpt lat="45.16391" lon="5.9771">
        <ele>2688.9</ele>
        <time>2021-02-20T13:38:43Z</time>
      </trkpt>
      <trkpt lat="45.16391" lon="5.97711">
        <ele>2689</ele>
        <time>2021-02-20T13:38:44Z</time>
      </trkpt>
      <trkpt lat="45.16391" lon="5.97712">
        <ele>2689.1</ele>
        <time>2021-02-20T13:38:45Z</time>
      </trkpt>
      <trkpt lat="45.16391" lon="5.97713">
        <ele>2689.2</ele>
        <time>2021-02-20T13:38:46Z</time>
      </trkpt>
      <trkpt lat="45.16392" lon="5.97714">
        <ele>2689.4</ele>
        <time>2021-02-20T13:38:47Z</time>
      </trkpt>
      <trkpt lat="45.16392" lon="5.97715">
        <ele>2689.5</ele>
        <time>2021-02-20T13:38:48Z</time>
      </trkpt>
      <trkpt lat="45.16392" lon="5.97716">
        <ele>2689.6</ele>
        <time>2021-02-20T13:38:49Z</time>
      </trkpt>
      <trkpt lat="45.16392" lon="5.97716">
        <ele>2689.7</ele>
        <time>2021-02-20T13:38:50Z</time>
      </trkpt>
      <trkpt lat="45.16393" lon="5.97717">
        <ele>2689.9</ele>
        <time>2021-02-20T13:38:51Z</time>
      </trkpt>
      <trkpt lat="45.16393" lon="5.97718">
        <ele>2690</ele>
        <time>2021-02-20T13:38:52Z</time>
      </trkpt>
      <trkpt lat="45.16393" lon="5.97719">
        <ele>2690.2</ele>
        <time>2021-02-20T13:38:53Z</time>
      </trkpt>
      <trkpt lat="45.16394" lon="5.9772">
        <ele>2690.3</ele>
        <time>2021-02-20T13:38:54Z</time>
      </trkpt>
      <trkpt lat="45.16394" lon="5.97721">
        <ele>2690.3</ele>
        <time>2021-02-20T13:38:55Z</time>
      </trkpt>
      <trkpt lat="45.16394" lon="5.97721">
        <ele>2690.4</ele>
        <time>2021-02-20T13:38:56Z</time>
      </trkpt>
      <trkpt lat="45.16394" lon="5.97722">
        <ele>2690.6</ele>
        <time>2021-02-20T13:38:57Z</time>
      </trkpt>
      <trkpt lat="45.16395" lon="5.97724">
        <ele>2690.8</ele>
        <time>2021-02-20T13:38:58Z</time>
      </trkpt>
      <trkpt lat="45.16395" lon="5.97725">
        <ele>2690.9</ele>
        <time>2021-02-20T13:38:59Z</time>
      </trkpt>
      <trkpt lat="45.16396" lon="5.97726">
        <ele>2691.1</ele>
        <time>2021-02-20T13:39:00Z</time>
      </trkpt>
      <trkpt lat="45.16396" lon="5.97727">
        <ele>2691.3</ele>
        <time>2021-02-20T13:39:01Z</time>
      </trkpt>
      <trkpt lat="45.16397" lon="5.97728">
        <ele>2691.4</ele>
        <time>2021-02-20T13:39:02Z</time>
      </trkpt>
      <trkpt lat="45.16397" lon="5.97729">
        <ele>2691.6</ele>
        <time>2021-02-20T13:39:03Z</time>
      </trkpt>
      <trkpt lat="45.16397" lon="5.9773">
        <ele>2691.7</ele>
        <time>2021-02-20T13:39:04Z</time>
      </trkpt>
      <trkpt lat="45.16398" lon="5.97732">
        <ele>2691.9</ele>
        <time>2021-02-20T13:39:05Z</time>
      </trkpt>
      <trkpt lat="45.16398" lon="5.97733">
        <ele>2692.1</ele>
        <time>2021-02-20T13:39:06Z</time>
      </trkpt>
      <trkpt lat="45.16399" lon="5.97734">
        <ele>2692.2</ele>
        <time>2021-02-20T13:39:07Z</time>
      </trkpt>
      <trkpt lat="45.16399" lon="5.97735">
        <ele>2692.3</ele>
        <time>2021-02-20T13:39:08Z</time>
      </trkpt>
      <trkpt lat="45.164" lon="5.97736">
        <ele>2692.5</ele>
        <time>2021-02-20T13:39:09Z</time>
      </trkpt>
      <trkpt lat="45.164" lon="5.97736">
        <ele>2692.6</ele>
        <time>2021-02-20T13:39:10Z</time>
      </trkpt>
      <trkpt lat="45.16401" lon="5.97737">
        <ele>2692.7</ele>
        <time>2021-02-20T13:39:11Z</time>
      </trkpt>
      <trkpt lat="45.16401" lon="5.97738">
        <ele>2692.9</ele>
        <time>2021-02-20T13:39:12Z</time>
      </trkpt>
      <trkpt lat="45.16402" lon="5.9774">
        <ele>2693.1</ele>
        <time>2021-02-20T13:39:13Z</time>
      </trkpt>
      <trkpt lat="45.16402" lon="5.9774">
        <ele>2693.2</ele>
        <time>2021-02-20T13:39:14Z</time>
      </trkpt>
      <trkpt lat="45.16403" lon="5.97742">
        <ele>2693.3</ele>
        <time>2021-02-20T13:39:15Z</time>
      </trkpt>
      <trkpt lat="45.16404" lon="5.97743">
        <ele>2693.5</ele>
        <time>2021-02-20T13:39:16Z</time>
      </trkpt>
      <trkpt lat="45.16404" lon="5.97744">
        <ele>2693.7</ele>
        <time>2021-02-20T13:39:17Z</time>
      </trkpt>
      <trkpt lat="45.16404" lon="5.97745">
        <ele>2693.8</ele>
        <time>2021-02-20T13:39:18Z</time>
      </trkpt>
      <trkpt lat="45.16405" lon="5.97747">
        <ele>2694</ele>
        <time>2021-02-20T13:39:19Z</time>
      </trkpt>
      <trkpt lat="45.16406" lon="5.97748">
        <ele>2694.2</ele>
        <time>2021-02-20T13:39:20Z</time>
      </trkpt>
      <trkpt lat="45.16406" lon="5.97749">
        <ele>2694.4</ele>
        <time>2021-02-20T13:39:21Z</time>
      </trkpt>
      <trkpt lat="45.16407" lon="5.9775">
        <ele>2694.5</ele>
        <time>2021-02-20T13:39:22Z</time>
      </trkpt>
      <trkpt lat="45.16407" lon="5.97751">
        <ele>2694.6</ele>
        <time>2021-02-20T13:39:23Z</time>
      </trkpt>
      <trkpt lat="45.16408" lon="5.97752">
        <ele>2694.7</ele>
        <time>2021-02-20T13:39:24Z</time>
      </trkpt>
      <trkpt lat="45.16408" lon="5.97753">
        <ele>2694.9</ele>
        <time>2021-02-20T13:39:25Z</time>
      </trkpt>
      <trkpt lat="45.16409" lon="5.97754">
        <ele>2695</ele>
        <time>2021-02-20T13:39:26Z</time>
      </trkpt>
      <trkpt lat="45.16409" lon="5.97755">
        <ele>2695.2</ele>
        <time>2021-02-20T13:39:27Z</time>
      </trkpt>
      <trkpt lat="45.1641" lon="5.97756">
        <ele>2695.3</ele>
        <time>2021-02-20T13:39:28Z</time>
      </trkpt>
      <trkpt lat="45.1641" lon="5.97757">
        <ele>2695.5</ele>
        <time>2021-02-20T13:39:29Z</time>
      </trkpt>
      <trkpt lat="45.16411" lon="5.97758">
        <ele>2695.6</ele>
        <time>2021-02-20T13:39:30Z</time>
      </trkpt>
      <trkpt lat="45.16411" lon="5.97759">
        <ele>2695.8</ele>
        <time>2021-02-20T13:39:31Z</time>
      </trkpt>
      <trkpt lat="45.16412" lon="5.9776">
        <ele>2695.9</ele>
        <time>2021-02-20T13:39:32Z</time>
      </trkpt>
      <trkpt lat="45.16413" lon="5.97762">
        <ele>2696.1</ele>
        <time>2021-02-20T13:39:33Z</time>
      </trkpt>
      <trkpt lat="45.16413" lon="5.97763">
        <ele>2696.3</ele>
        <time>2021-02-20T13:39:34Z</time>
      </trkpt>
      <trkpt lat="45.16414" lon="5.97764">
        <ele>2696.4</ele>
        <time>2021-02-20T13:39:35Z</time>
      </trkpt>
      <trkpt lat="45.16414" lon="5.97765">
        <ele>2696.6</ele>
        <time>2021-02-20T13:39:36Z</time>
      </trkpt>
      <trkpt lat="45.16415" lon="5.97766">
        <ele>2696.7</ele>
        <time>2021-02-20T13:39:37Z</time>
      </trkpt>
      <trkpt lat="45.16415" lon="5.97767">
        <ele>2696.8</ele>
        <time>2021-02-20T13:39:38Z</time>
      </trkpt>
      <trkpt lat="45.16416" lon="5.97768">
        <ele>2696.9</ele>
        <time>2021-02-20T13:39:39Z</time>
      </trkpt>
      <trkpt lat="45.16416" lon="5.97768">
        <ele>2697</ele>
        <time>2021-02-20T13:39:40Z</time>
      </trkpt>
      <trkpt lat="45.16417" lon="5.97769">
        <ele>2697.1</ele>
        <time>2021-02-20T13:39:41Z</time>
      </trkpt>
      <trkpt lat="45.16417" lon="5.9777">
        <ele>2697.2</ele>
        <time>2021-02-20T13:39:42Z</time>
      </trkpt>
      <trkpt lat="45.16418" lon="5.97771">
        <ele>2697.3</ele>
        <time>2021-02-20T13:39:43Z</time>
      </trkpt>
      <trkpt lat="45.16418" lon="5.97772">
        <ele>2697.4</ele>
        <time>2021-02-20T13:39:44Z</time>
      </trkpt>
      <trkpt lat="45.16419" lon="5.97773">
        <ele>2697.5</ele>
        <time>2021-02-20T13:39:45Z</time>
      </trkpt>
      <trkpt lat="45.16419" lon="5.97773">
        <ele>2697.6</ele>
        <time>2021-02-20T13:39:46Z</time>
      </trkpt>
      <trkpt lat="45.1642" lon="5.97774">
        <ele>2697.7</ele>
        <time>2021-02-20T13:39:47Z</time>
      </trkpt>
      <trkpt lat="45.1642" lon="5.97774">
        <ele>2697.7</ele>
        <time>2021-02-20T13:39:48Z</time>
      </trkpt>
      <trkpt lat="45.16421" lon="5.97775">
        <ele>2697.8</ele>
        <time>2021-02-20T13:39:49Z</time>
      </trkpt>
      <trkpt lat="45.16421" lon="5.97776">
        <ele>2697.9</ele>
        <time>2021-02-20T13:39:50Z</time>
      </trkpt>
      <trkpt lat="45.16422" lon="5.97777">
        <ele>2698</ele>
        <time>2021-02-20T13:39:51Z</time>
      </trkpt>
      <trkpt lat="45.16422" lon="5.97778">
        <ele>2698.1</ele>
        <time>2021-02-20T13:39:52Z</time>
      </trkpt>
      <trkpt lat="45.16423" lon="5.9778">
        <ele>2698.2</ele>
        <time>2021-02-20T13:39:53Z</time>
      </trkpt>
      <trkpt lat="45.16423" lon="5.97781">
        <ele>2698.2</ele>
        <time>2021-02-20T13:39:54Z</time>
      </trkpt>
      <trkpt lat="45.16423" lon="5.97781">
        <ele>2698.3</ele>
        <time>2021-02-20T13:39:55Z</time>
      </trkpt>
      <trkpt lat="45.16424" lon="5.97782">
        <ele>2698.3</ele>
        <time>2021-02-20T13:39:56Z</time>
      </trkpt>
      <trkpt lat="45.16424" lon="5.97783">
        <ele>2698.4</ele>
        <time>2021-02-20T13:39:57Z</time>
      </trkpt>
      <trkpt lat="45.16424" lon="5.97784">
        <ele>2698.4</ele>
        <time>2021-02-20T13:39:58Z</time>
      </trkpt>
      <trkpt lat="45.16425" lon="5.97784">
        <ele>2698.5</ele>
        <time>2021-02-20T13:39:59Z</time>
      </trkpt>
      <trkpt lat="45.16426" lon="5.97785">
        <ele>2698.5</ele>
        <time>2021-02-20T13:40:00Z</time>
      </trkpt>
      <trkpt lat="45.16427" lon="5.97786">
        <ele>2698.6</ele>
        <time>2021-02-20T13:40:01Z</time>
      </trkpt>
      <trkpt lat="45.16427" lon="5.97787">
        <ele>2698.6</ele>
        <time>2021-02-20T13:40:02Z</time>
      </trkpt>
      <trkpt lat="45.16428" lon="5.97788">
        <ele>2698.7</ele>
        <time>2021-02-20T13:40:03Z</time>
      </trkpt>
      <trkpt lat="45.16429" lon="5.97789">
        <ele>2698.7</ele>
        <time>2021-02-20T13:40:04Z</time>
      </trkpt>
      <trkpt lat="45.16429" lon="5.9779">
        <ele>2698.8</ele>
        <time>2021-02-20T13:40:05Z</time>
      </trkpt>
      <trkpt lat="45.1643" lon="5.97792">
        <ele>2698.8</ele>
        <time>2021-02-20T13:40:06Z</time>
      </trkpt>
      <trkpt lat="45.1643" lon="5.97793">
        <ele>2698.9</ele>
        <time>2021-02-20T13:40:07Z</time>
      </trkpt>
      <trkpt lat="45.16431" lon="5.97794">
        <ele>2698.9</ele>
        <time>2021-02-20T13:40:08Z</time>
      </trkpt>
      <trkpt lat="45.16431" lon="5.97795">
        <ele>2698.9</ele>
        <time>2021-02-20T13:40:09Z</time>
      </trkpt>
      <trkpt lat="45.16432" lon="5.97796">
        <ele>2699</ele>
        <time>2021-02-20T13:40:10Z</time>
      </trkpt>
      <trkpt lat="45.16432" lon="5.97796">
        <ele>2699</ele>
        <time>2021-02-20T13:40:11Z</time>
      </trkpt>
      <trkpt lat="45.16433" lon="5.97797">
        <ele>2699</ele>
        <time>2021-02-20T13:40:12Z</time>
      </trkpt>
      <trkpt lat="45.16433" lon="5.97798">
        <ele>2699.1</ele>
        <time>2021-02-20T13:40:13Z</time>
      </trkpt>
      <trkpt lat="45.16434" lon="5.97798">
        <ele>2699.1</ele>
        <time>2021-02-20T13:40:14Z</time>
      </trkpt>
      <trkpt lat="45.16435" lon="5.97799">
        <ele>2699.2</ele>
        <time>2021-02-20T13:40:15Z</time>
      </trkpt>
      <trkpt lat="45.16435" lon="5.978">
        <ele>2699.2</ele>
        <time>2021-02-20T13:40:16Z</time>
      </trkpt>
      <trkpt lat="45.16436" lon="5.97801">
        <ele>2699.3</ele>
        <time>2021-02-20T13:40:17Z</time>
      </trkpt>
      <trkpt lat="45.16437" lon="5.97801">
        <ele>2699.3</ele>
        <time>2021-02-20T13:40:18Z</time>
      </trkpt>
      <trkpt lat="45.16438" lon="5.97803">
        <ele>2699.4</ele>
        <time>2021-02-20T13:40:19Z</time>
      </trkpt>
      <trkpt lat="45.16438" lon="5.97804">
        <ele>2699.5</ele>
        <time>2021-02-20T13:40:20Z</time>
      </trkpt>
      <trkpt lat="45.16439" lon="5.97805">
        <ele>2699.6</ele>
        <time>2021-02-20T13:40:21Z</time>
      </trkpt>
      <trkpt lat="45.16439" lon="5.97806">
        <ele>2699.6</ele>
        <time>2021-02-20T13:40:22Z</time>
      </trkpt>
      <trkpt lat="45.1644" lon="5.97806">
        <ele>2699.6</ele>
        <time>2021-02-20T13:40:23Z</time>
      </trkpt>
      <trkpt lat="45.1644" lon="5.97807">
        <ele>2699.7</ele>
        <time>2021-02-20T13:40:24Z</time>
      </trkpt>
      <trkpt lat="45.1644" lon="5.97808">
        <ele>2699.7</ele>
        <time>2021-02-20T13:40:25Z</time>
      </trkpt>
      <trkpt lat="45.16441" lon="5.97809">
        <ele>2699.8</ele>
        <time>2021-02-20T13:40:26Z</time>
      </trkpt>
      <trkpt lat="45.16441" lon="5.97809">
        <ele>2699.8</ele>
        <time>2021-02-20T13:40:27Z</time>
      </trkpt>
      <trkpt lat="45.16441" lon="5.97811">
        <ele>2699.9</ele>
        <time>2021-02-20T13:40:28Z</time>
      </trkpt>
      <trkpt lat="45.16441" lon="5.97812">
        <ele>2700</ele>
        <time>2021-02-20T13:40:29Z</time>
      </trkpt>
      <trkpt lat="45.16442" lon="5.97813">
        <ele>2700.1</ele>
        <time>2021-02-20T13:40:30Z</time>
      </trkpt>
      <trkpt lat="45.16442" lon="5.97814">
        <ele>2700.2</ele>
        <time>2021-02-20T13:40:31Z</time>
      </trkpt>
      <trkpt lat="45.16442" lon="5.97815">
        <ele>2700.2</ele>
        <time>2021-02-20T13:40:32Z</time>
      </trkpt>
      <trkpt lat="45.16442" lon="5.97816">
        <ele>2700.3</ele>
        <time>2021-02-20T13:40:33Z</time>
      </trkpt>
      <trkpt lat="45.16443" lon="5.97817">
        <ele>2700.3</ele>
        <time>2021-02-20T13:40:34Z</time>
      </trkpt>
      <trkpt lat="45.16443" lon="5.97818">
        <ele>2700.4</ele>
        <time>2021-02-20T13:40:35Z</time>
      </trkpt>
      <trkpt lat="45.16444" lon="5.97819">
        <ele>2700.5</ele>
        <time>2021-02-20T13:40:36Z</time>
      </trkpt>
      <trkpt lat="45.16444" lon="5.9782">
        <ele>2700.6</ele>
        <time>2021-02-20T13:40:37Z</time>
      </trkpt>
      <trkpt lat="45.16445" lon="5.97821">
        <ele>2700.7</ele>
        <time>2021-02-20T13:40:38Z</time>
      </trkpt>
      <trkpt lat="45.16446" lon="5.97821">
        <ele>2700.8</ele>
        <time>2021-02-20T13:40:39Z</time>
      </trkpt>
      <trkpt lat="45.16446" lon="5.97822">
        <ele>2700.8</ele>
        <time>2021-02-20T13:40:40Z</time>
      </trkpt>
      <trkpt lat="45.16447" lon="5.97823">
        <ele>2700.9</ele>
        <time>2021-02-20T13:40:41Z</time>
      </trkpt>
      <trkpt lat="45.16447" lon="5.97823">
        <ele>2701</ele>
        <time>2021-02-20T13:40:42Z</time>
      </trkpt>
      <trkpt lat="45.16448" lon="5.97824">
        <ele>2701.1</ele>
        <time>2021-02-20T13:40:43Z</time>
      </trkpt>
      <trkpt lat="45.16448" lon="5.97825">
        <ele>2701.2</ele>
        <time>2021-02-20T13:40:44Z</time>
      </trkpt>
      <trkpt lat="45.16449" lon="5.97826">
        <ele>2701.3</ele>
        <time>2021-02-20T13:40:45Z</time>
      </trkpt>
      <trkpt lat="45.16449" lon="5.97827">
        <ele>2701.4</ele>
        <time>2021-02-20T13:40:46Z</time>
      </trkpt>
      <trkpt lat="45.16449" lon="5.97828">
        <ele>2701.5</ele>
        <time>2021-02-20T13:40:47Z</time>
      </trkpt>
      <trkpt lat="45.16449" lon="5.9783">
        <ele>2701.5</ele>
        <time>2021-02-20T13:40:48Z</time>
      </trkpt>
      <trkpt lat="45.16449" lon="5.97831">
        <ele>2701.6</ele>
        <time>2021-02-20T13:40:49Z</time>
      </trkpt>
      <trkpt lat="45.1645" lon="5.97832">
        <ele>2701.7</ele>
        <time>2021-02-20T13:40:50Z</time>
      </trkpt>
      <trkpt lat="45.1645" lon="5.97832">
        <ele>2701.8</ele>
        <time>2021-02-20T13:40:51Z</time>
      </trkpt>
      <trkpt lat="45.1645" lon="5.97833">
        <ele>2701.8</ele>
        <time>2021-02-20T13:40:52Z</time>
      </trkpt>
      <trkpt lat="45.16451" lon="5.97835">
        <ele>2701.9</ele>
        <time>2021-02-20T13:40:53Z</time>
      </trkpt>
      <trkpt lat="45.16451" lon="5.97836">
        <ele>2702</ele>
        <time>2021-02-20T13:40:54Z</time>
      </trkpt>
      <trkpt lat="45.16451" lon="5.97836">
        <ele>2702.1</ele>
        <time>2021-02-20T13:40:55Z</time>
      </trkpt>
      <trkpt lat="45.16452" lon="5.97837">
        <ele>2702.1</ele>
        <time>2021-02-20T13:40:56Z</time>
      </trkpt>
      <trkpt lat="45.16452" lon="5.97837">
        <ele>2702.2</ele>
        <time>2021-02-20T13:40:57Z</time>
      </trkpt>
      <trkpt lat="45.16453" lon="5.97838">
        <ele>2702.3</ele>
        <time>2021-02-20T13:40:58Z</time>
      </trkpt>
      <trkpt lat="45.16453" lon="5.97839">
        <ele>2702.4</ele>
        <time>2021-02-20T13:40:59Z</time>
      </trkpt>
      <trkpt lat="45.16454" lon="5.9784">
        <ele>2702.4</ele>
        <time>2021-02-20T13:41:00Z</time>
      </trkpt>
      <trkpt lat="45.16454" lon="5.97841">
        <ele>2702.5</ele>
        <time>2021-02-20T13:41:01Z</time>
      </trkpt>
      <trkpt lat="45.16455" lon="5.97842">
        <ele>2702.6</ele>
        <time>2021-02-20T13:41:02Z</time>
      </trkpt>
      <trkpt lat="45.16455" lon="5.97843">
        <ele>2702.7</ele>
        <time>2021-02-20T13:41:03Z</time>
      </trkpt>
      <trkpt lat="45.16456" lon="5.97844">
        <ele>2702.8</ele>
        <time>2021-02-20T13:41:04Z</time>
      </trkpt>
      <trkpt lat="45.16456" lon="5.97845">
        <ele>2702.8</ele>
        <time>2021-02-20T13:41:05Z</time>
      </trkpt>
      <trkpt lat="45.16457" lon="5.97846">
        <ele>2702.9</ele>
        <time>2021-02-20T13:41:06Z</time>
      </trkpt>
      <trkpt lat="45.16457" lon="5.97846">
        <ele>2703</ele>
        <time>2021-02-20T13:41:07Z</time>
      </trkpt>
      <trkpt lat="45.16457" lon="5.97847">
        <ele>2703.1</ele>
        <time>2021-02-20T13:41:08Z</time>
      </trkpt>
      <trkpt lat="45.16458" lon="5.97848">
        <ele>2703.1</ele>
        <time>2021-02-20T13:41:09Z</time>
      </trkpt>
      <trkpt lat="45.16459" lon="5.97849">
        <ele>2703.2</ele>
        <time>2021-02-20T13:41:10Z</time>
      </trkpt>
      <trkpt lat="45.16459" lon="5.9785">
        <ele>2703.3</ele>
        <time>2021-02-20T13:41:11Z</time>
      </trkpt>
      <trkpt lat="45.1646" lon="5.9785">
        <ele>2703.4</ele>
        <time>2021-02-20T13:41:12Z</time>
      </trkpt>
      <trkpt lat="45.16461" lon="5.9785">
        <ele>2703.5</ele>
        <time>2021-02-20T13:41:13Z</time>
      </trkpt>
      <trkpt lat="45.16462" lon="5.97851">
        <ele>2703.6</ele>
        <time>2021-02-20T13:41:14Z</time>
      </trkpt>
      <trkpt lat="45.16463" lon="5.97852">
        <ele>2703.7</ele>
        <time>2021-02-20T13:41:15Z</time>
      </trkpt>
      <trkpt lat="45.16463" lon="5.97853">
        <ele>2703.8</ele>
        <time>2021-02-20T13:41:16Z</time>
      </trkpt>
      <trkpt lat="45.16464" lon="5.97853">
        <ele>2703.9</ele>
        <time>2021-02-20T13:41:17Z</time>
      </trkpt>
      <trkpt lat="45.16465" lon="5.97854">
        <ele>2703.9</ele>
        <time>2021-02-20T13:41:18Z</time>
      </trkpt>
      <trkpt lat="45.16465" lon="5.97855">
        <ele>2704</ele>
        <time>2021-02-20T13:41:19Z</time>
      </trkpt>
      <trkpt lat="45.16466" lon="5.97855">
        <ele>2704.1</ele>
        <time>2021-02-20T13:41:20Z</time>
      </trkpt>
      <trkpt lat="45.16467" lon="5.97856">
        <ele>2704.2</ele>
        <time>2021-02-20T13:41:21Z</time>
      </trkpt>
      <trkpt lat="45.16468" lon="5.97856">
        <ele>2704.3</ele>
        <time>2021-02-20T13:41:22Z</time>
      </trkpt>
      <trkpt lat="45.16468" lon="5.97856">
        <ele>2704.4</ele>
        <time>2021-02-20T13:41:23Z</time>
      </trkpt>
      <trkpt lat="45.16469" lon="5.97856">
        <ele>2704.4</ele>
        <time>2021-02-20T13:41:24Z</time>
      </trkpt>
      <trkpt lat="45.1647" lon="5.97856">
        <ele>2704.5</ele>
        <time>2021-02-20T13:41:25Z</time>
      </trkpt>
      <trkpt lat="45.16471" lon="5.97855">
        <ele>2704.6</ele>
        <time>2021-02-20T13:41:26Z</time>
      </trkpt>
      <trkpt lat="45.16471" lon="5.97855">
        <ele>2704.7</ele>
        <time>2021-02-20T13:41:27Z</time>
      </trkpt>
      <trkpt lat="45.16472" lon="5.97855">
        <ele>2704.8</ele>
        <time>2021-02-20T13:41:28Z</time>
      </trkpt>
      <trkpt lat="45.16473" lon="5.97855">
        <ele>2704.9</ele>
        <time>2021-02-20T13:41:29Z</time>
      </trkpt>
      <trkpt lat="45.16473" lon="5.97855">
        <ele>2704.9</ele>
        <time>2021-02-20T13:41:30Z</time>
      </trkpt>
      <trkpt lat="45.16474" lon="5.97855">
        <ele>2705</ele>
        <time>2021-02-20T13:41:31Z</time>
      </trkpt>
      <trkpt lat="45.16475" lon="5.97855">
        <ele>2705.1</ele>
        <time>2021-02-20T13:41:32Z</time>
      </trkpt>
      <trkpt lat="45.16475" lon="5.97855">
        <ele>2705.1</ele>
        <time>2021-02-20T13:41:33Z</time>
      </trkpt>
      <trkpt lat="45.16476" lon="5.97855">
        <ele>2705.2</ele>
        <time>2021-02-20T13:41:34Z</time>
      </trkpt>
      <trkpt lat="45.16476" lon="5.97855">
        <ele>2705.3</ele>
        <time>2021-02-20T13:41:35Z</time>
      </trkpt>
      <trkpt lat="45.16477" lon="5.97854">
        <ele>2705.4</ele>
        <time>2021-02-20T13:41:36Z</time>
      </trkpt>
      <trkpt lat="45.16478" lon="5.97854">
        <ele>2705.5</ele>
        <time>2021-02-20T13:41:37Z</time>
      </trkpt>
      <trkpt lat="45.16479" lon="5.97854">
        <ele>2705.6</ele>
        <time>2021-02-20T13:41:38Z</time>
      </trkpt>
      <trkpt lat="45.1648" lon="5.97854">
        <ele>2705.7</ele>
        <time>2021-02-20T13:41:39Z</time>
      </trkpt>
      <trkpt lat="45.16481" lon="5.97854">
        <ele>2705.8</ele>
        <time>2021-02-20T13:41:40Z</time>
      </trkpt>
      <trkpt lat="45.16482" lon="5.97855">
        <ele>2705.8</ele>
        <time>2021-02-20T13:41:41Z</time>
      </trkpt>
      <trkpt lat="45.16483" lon="5.97855">
        <ele>2705.9</ele>
        <time>2021-02-20T13:41:42Z</time>
      </trkpt>
      <trkpt lat="45.16484" lon="5.97855">
        <ele>2706</ele>
        <time>2021-02-20T13:41:43Z</time>
      </trkpt>
      <trkpt lat="45.16485" lon="5.97855">
        <ele>2706.1</ele>
        <time>2021-02-20T13:41:44Z</time>
      </trkpt>
      <trkpt lat="45.16486" lon="5.97855">
        <ele>2706.2</ele>
        <time>2021-02-20T13:41:45Z</time>
      </trkpt>
      <trkpt lat="45.16487" lon="5.97855">
        <ele>2706.3</ele>
        <time>2021-02-20T13:41:46Z</time>
      </trkpt>
      <trkpt lat="45.16488" lon="5.97856">
        <ele>2706.3</ele>
        <time>2021-02-20T13:41:47Z</time>
      </trkpt>
      <trkpt lat="45.16488" lon="5.97856">
        <ele>2706.4</ele>
        <time>2021-02-20T13:41:48Z</time>
      </trkpt>
      <trkpt lat="45.16489" lon="5.97856">
        <ele>2706.5</ele>
        <time>2021-02-20T13:41:49Z</time>
      </trkpt>
      <trkpt lat="45.1649" lon="5.97856">
        <ele>2706.6</ele>
        <time>2021-02-20T13:41:50Z</time>
      </trkpt>
      <trkpt lat="45.16491" lon="5.97856">
        <ele>2706.6</ele>
        <time>2021-02-20T13:41:51Z</time>
      </trkpt>
      <trkpt lat="45.16492" lon="5.97856">
        <ele>2706.7</ele>
        <time>2021-02-20T13:41:52Z</time>
      </trkpt>
      <trkpt lat="45.16493" lon="5.97856">
        <ele>2706.8</ele>
        <time>2021-02-20T13:41:53Z</time>
      </trkpt>
      <trkpt lat="45.16495" lon="5.97856">
        <ele>2706.9</ele>
        <time>2021-02-20T13:41:54Z</time>
      </trkpt>
      <trkpt lat="45.16495" lon="5.97856">
        <ele>2707</ele>
        <time>2021-02-20T13:41:55Z</time>
      </trkpt>
      <trkpt lat="45.16496" lon="5.97856">
        <ele>2707</ele>
        <time>2021-02-20T13:41:56Z</time>
      </trkpt>
      <trkpt lat="45.16497" lon="5.97856">
        <ele>2707.1</ele>
        <time>2021-02-20T13:41:57Z</time>
      </trkpt>
      <trkpt lat="45.16498" lon="5.97856">
        <ele>2707.2</ele>
        <time>2021-02-20T13:41:58Z</time>
      </trkpt>
      <trkpt lat="45.16499" lon="5.97857">
        <ele>2707.3</ele>
        <time>2021-02-20T13:41:59Z</time>
      </trkpt>
      <trkpt lat="45.165" lon="5.97857">
        <ele>2707.4</ele>
        <time>2021-02-20T13:42:00Z</time>
      </trkpt>
      <trkpt lat="45.16501" lon="5.97857">
        <ele>2707.4</ele>
        <time>2021-02-20T13:42:01Z</time>
      </trkpt>
      <trkpt lat="45.16502" lon="5.97857">
        <ele>2707.5</ele>
        <time>2021-02-20T13:42:02Z</time>
      </trkpt>
      <trkpt lat="45.16503" lon="5.97858">
        <ele>2707.6</ele>
        <time>2021-02-20T13:42:03Z</time>
      </trkpt>
      <trkpt lat="45.16504" lon="5.97858">
        <ele>2707.6</ele>
        <time>2021-02-20T13:42:04Z</time>
      </trkpt>
      <trkpt lat="45.16505" lon="5.97858">
        <ele>2707.7</ele>
        <time>2021-02-20T13:42:05Z</time>
      </trkpt>
      <trkpt lat="45.16506" lon="5.97858">
        <ele>2707.8</ele>
        <time>2021-02-20T13:42:06Z</time>
      </trkpt>
      <trkpt lat="45.16507" lon="5.97858">
        <ele>2707.9</ele>
        <time>2021-02-20T13:42:07Z</time>
      </trkpt>
      <trkpt lat="45.16508" lon="5.97858">
        <ele>2707.9</ele>
        <time>2021-02-20T13:42:08Z</time>
      </trkpt>
      <trkpt lat="45.16509" lon="5.97858">
        <ele>2708</ele>
        <time>2021-02-20T13:42:09Z</time>
      </trkpt>
      <trkpt lat="45.1651" lon="5.97858">
        <ele>2708.1</ele>
        <time>2021-02-20T13:42:10Z</time>
      </trkpt>
      <trkpt lat="45.1651" lon="5.97858">
        <ele>2708.1</ele>
        <time>2021-02-20T13:42:11Z</time>
      </trkpt>
      <trkpt lat="45.16511" lon="5.97858">
        <ele>2708.2</ele>
        <time>2021-02-20T13:42:12Z</time>
      </trkpt>
      <trkpt lat="45.16512" lon="5.97858">
        <ele>2708.2</ele>
        <time>2021-02-20T13:42:13Z</time>
      </trkpt>
      <trkpt lat="45.16513" lon="5.97858">
        <ele>2708.3</ele>
        <time>2021-02-20T13:42:14Z</time>
      </trkpt>
      <trkpt lat="45.16514" lon="5.97859">
        <ele>2708.4</ele>
        <time>2021-02-20T13:42:15Z</time>
      </trkpt>
      <trkpt lat="45.16515" lon="5.97859">
        <ele>2708.4</ele>
        <time>2021-02-20T13:42:16Z</time>
      </trkpt>
      <trkpt lat="45.16516" lon="5.97859">
        <ele>2708.5</ele>
        <time>2021-02-20T13:42:17Z</time>
      </trkpt>
      <trkpt lat="45.16517" lon="5.97859">
        <ele>2708.5</ele>
        <time>2021-02-20T13:42:18Z</time>
      </trkpt>
      <trkpt lat="45.16518" lon="5.97859">
        <ele>2708.6</ele>
        <time>2021-02-20T13:42:19Z</time>
      </trkpt>
      <trkpt lat="45.16518" lon="5.97859">
        <ele>2708.6</ele>
        <time>2021-02-20T13:42:20Z</time>
      </trkpt>
      <trkpt lat="45.16519" lon="5.97859">
        <ele>2708.6</ele>
        <time>2021-02-20T13:42:21Z</time>
      </trkpt>
      <trkpt lat="45.1652" lon="5.97859">
        <ele>2708.7</ele>
        <time>2021-02-20T13:42:22Z</time>
      </trkpt>
      <trkpt lat="45.16521" lon="5.97858">
        <ele>2708.7</ele>
        <time>2021-02-20T13:42:23Z</time>
      </trkpt>
      <trkpt lat="45.16522" lon="5.97858">
        <ele>2708.7</ele>
        <time>2021-02-20T13:42:24Z</time>
      </trkpt>
      <trkpt lat="45.16523" lon="5.97857">
        <ele>2708.8</ele>
        <time>2021-02-20T13:42:25Z</time>
      </trkpt>
      <trkpt lat="45.16524" lon="5.97856">
        <ele>2708.8</ele>
        <time>2021-02-20T13:42:26Z</time>
      </trkpt>
      <trkpt lat="45.16525" lon="5.97856">
        <ele>2708.8</ele>
        <time>2021-02-20T13:42:27Z</time>
      </trkpt>
      <trkpt lat="45.16526" lon="5.97855">
        <ele>2708.8</ele>
        <time>2021-02-20T13:42:28Z</time>
      </trkpt>
      <trkpt lat="45.16527" lon="5.97855">
        <ele>2708.8</ele>
        <time>2021-02-20T13:42:29Z</time>
      </trkpt>
      <trkpt lat="45.16528" lon="5.97855">
        <ele>2708.8</ele>
        <time>2021-02-20T13:42:30Z</time>
      </trkpt>
      <trkpt lat="45.16529" lon="5.97855">
        <ele>2708.8</ele>
        <time>2021-02-20T13:42:31Z</time>
      </trkpt>
      <trkpt lat="45.1653" lon="5.97855">
        <ele>2708.7</ele>
        <time>2021-02-20T13:42:32Z</time>
      </trkpt>
      <trkpt lat="45.16532" lon="5.97855">
        <ele>2708.7</ele>
        <time>2021-02-20T13:42:33Z</time>
      </trkpt>
      <trkpt lat="45.16533" lon="5.97854">
        <ele>2708.7</ele>
        <time>2021-02-20T13:42:34Z</time>
      </trkpt>
      <trkpt lat="45.16535" lon="5.97854">
        <ele>2708.6</ele>
        <time>2021-02-20T13:42:35Z</time>
      </trkpt>
      <trkpt lat="45.16535" lon="5.97854">
        <ele>2708.6</ele>
        <time>2021-02-20T13:42:36Z</time>
      </trkpt>
      <trkpt lat="45.16536" lon="5.97853">
        <ele>2708.5</ele>
        <time>2021-02-20T13:42:37Z</time>
      </trkpt>
      <trkpt lat="45.16537" lon="5.97853">
        <ele>2708.5</ele>
        <time>2021-02-20T13:42:38Z</time>
      </trkpt>
      <trkpt lat="45.16538" lon="5.97852">
        <ele>2708.5</ele>
        <time>2021-02-20T13:42:39Z</time>
      </trkpt>
      <trkpt lat="45.16538" lon="5.97851">
        <ele>2708.4</ele>
        <time>2021-02-20T13:42:40Z</time>
      </trkpt>
      <trkpt lat="45.16539" lon="5.97851">
        <ele>2708.4</ele>
        <time>2021-02-20T13:42:41Z</time>
      </trkpt>
      <trkpt lat="45.16539" lon="5.9785">
        <ele>2708.4</ele>
        <time>2021-02-20T13:42:42Z</time>
      </trkpt>
      <trkpt lat="45.16541" lon="5.97849">
        <ele>2708.3</ele>
        <time>2021-02-20T13:42:43Z</time>
      </trkpt>
      <trkpt lat="45.16541" lon="5.97848">
        <ele>2708.3</ele>
        <time>2021-02-20T13:42:44Z</time>
      </trkpt>
      <trkpt lat="45.16542" lon="5.97848">
        <ele>2708.2</ele>
        <time>2021-02-20T13:42:45Z</time>
      </trkpt>
      <trkpt lat="45.16543" lon="5.97847">
        <ele>2708.2</ele>
        <time>2021-02-20T13:42:46Z</time>
      </trkpt>
      <trkpt lat="45.16544" lon="5.97846">
        <ele>2708.2</ele>
        <time>2021-02-20T13:42:47Z</time>
      </trkpt>
      <trkpt lat="45.16546" lon="5.97844">
        <ele>2708.1</ele>
        <time>2021-02-20T13:42:48Z</time>
      </trkpt>
      <trkpt lat="45.16546" lon="5.97844">
        <ele>2708.1</ele>
        <time>2021-02-20T13:42:49Z</time>
      </trkpt>
      <trkpt lat="45.16547" lon="5.97843">
        <ele>2708</ele>
        <time>2021-02-20T13:42:50Z</time>
      </trkpt>
      <trkpt lat="45.16549" lon="5.97842">
        <ele>2708</ele>
        <time>2021-02-20T13:42:51Z</time>
      </trkpt>
      <trkpt lat="45.1655" lon="5.97841">
        <ele>2708</ele>
        <time>2021-02-20T13:42:52Z</time>
      </trkpt>
      <trkpt lat="45.16554" lon="5.9784">
        <ele>2707.9</ele>
        <time>2021-02-20T13:42:53Z</time>
      </trkpt>
      <trkpt lat="45.16555" lon="5.97839">
        <ele>2707.9</ele>
        <time>2021-02-20T13:42:54Z</time>
      </trkpt>
      <trkpt lat="45.16558" lon="5.97836">
        <ele>2707.8</ele>
        <time>2021-02-20T13:42:55Z</time>
      </trkpt>
      <trkpt lat="45.16559" lon="5.97836">
        <ele>2707.8</ele>
        <time>2021-02-20T13:42:56Z</time>
      </trkpt>
      <trkpt lat="45.16561" lon="5.97832">
        <ele>2707.9</ele>
        <time>2021-02-20T13:42:57Z</time>
      </trkpt>
      <trkpt lat="45.16562" lon="5.9783">
        <ele>2707.9</ele>
        <time>2021-02-20T13:42:58Z</time>
      </trkpt>
      <trkpt lat="45.16564" lon="5.97826">
        <ele>2708</ele>
        <time>2021-02-20T13:42:59Z</time>
      </trkpt>
      <trkpt lat="45.16565" lon="5.97823">
        <ele>2708.1</ele>
        <time>2021-02-20T13:43:00Z</time>
      </trkpt>
      <trkpt lat="45.16565" lon="5.9782">
        <ele>2708.2</ele>
        <time>2021-02-20T13:43:01Z</time>
      </trkpt>
      <trkpt lat="45.16565" lon="5.97818">
        <ele>2708.3</ele>
        <time>2021-02-20T13:43:02Z</time>
      </trkpt>
      <trkpt lat="45.16565" lon="5.97816">
        <ele>2708.3</ele>
        <time>2021-02-20T13:43:03Z</time>
      </trkpt>
      <trkpt lat="45.16565" lon="5.97815">
        <ele>2708.4</ele>
        <time>2021-02-20T13:43:04Z</time>
      </trkpt>
      <trkpt lat="45.16565" lon="5.97814">
        <ele>2708.4</ele>
        <time>2021-02-20T13:43:05Z</time>
      </trkpt>
      <trkpt lat="45.16565" lon="5.97814">
        <ele>2708.4</ele>
        <time>2021-02-20T13:43:06Z</time>
      </trkpt>
      <trkpt lat="45.16564" lon="5.97815">
        <ele>2708.4</ele>
        <time>2021-02-20T13:43:07Z</time>
      </trkpt>
      <trkpt lat="45.16564" lon="5.97815">
        <ele>2708.5</ele>
        <time>2021-02-20T13:43:08Z</time>
      </trkpt>
      <trkpt lat="45.16564" lon="5.97815">
        <ele>2708.5</ele>
        <time>2021-02-20T13:43:09Z</time>
      </trkpt>
      <trkpt lat="45.16564" lon="5.97815">
        <ele>2708.5</ele>
        <time>2021-02-20T13:43:10Z</time>
      </trkpt>
      <trkpt lat="45.16563" lon="5.97816">
        <ele>2708.5</ele>
        <time>2021-02-20T13:43:11Z</time>
      </trkpt>
      <trkpt lat="45.16563" lon="5.97817">
        <ele>2708.6</ele>
        <time>2021-02-20T13:43:12Z</time>
      </trkpt>
      <trkpt lat="45.16563" lon="5.97817">
        <ele>2708.6</ele>
        <time>2021-02-20T13:43:13Z</time>
      </trkpt>
      <trkpt lat="45.16563" lon="5.97817">
        <ele>2708.6</ele>
        <time>2021-02-20T13:43:14Z</time>
      </trkpt>
      <trkpt lat="45.16563" lon="5.97817">
        <ele>2708.6</ele>
        <time>2021-02-20T13:43:15Z</time>
      </trkpt>
      <trkpt lat="45.16563" lon="5.97817">
        <ele>2708.6</ele>
        <time>2021-02-20T13:43:16Z</time>
      </trkpt>
      <trkpt lat="45.16563" lon="5.97817">
        <ele>2708.6</ele>
        <time>2021-02-20T13:43:17Z</time>
      </trkpt>
      <trkpt lat="45.16563" lon="5.97818">
        <ele>2708.6</ele>
        <time>2021-02-20T13:43:18Z</time>
      </trkpt>
      <trkpt lat="45.16563" lon="5.97818">
        <ele>2708.6</ele>
        <time>2021-02-20T13:43:19Z</time>
      </trkpt>
      <trkpt lat="45.16563" lon="5.97818">
        <ele>2708.6</ele>
        <time>2021-02-20T13:43:20Z</time>
      </trkpt>
      <trkpt lat="45.16563" lon="5.97819">
        <ele>2708.7</ele>
        <time>2021-02-20T13:43:21Z</time>
      </trkpt>
      <trkpt lat="45.16563" lon="5.9782">
        <ele>2708.7</ele>
        <time>2021-02-20T13:43:22Z</time>
      </trkpt>
      <trkpt lat="45.16562" lon="5.9782">
        <ele>2708.7</ele>
        <time>2021-02-20T13:43:23Z</time>
      </trkpt>
      <trkpt lat="45.16562" lon="5.9782">
        <ele>2708.7</ele>
        <time>2021-02-20T13:43:24Z</time>
      </trkpt>
      <trkpt lat="45.16562" lon="5.9782">
        <ele>2708.7</ele>
        <time>2021-02-20T13:43:25Z</time>
      </trkpt>
      <trkpt lat="45.16562" lon="5.9782">
        <ele>2708.8</ele>
        <time>2021-02-20T13:43:26Z</time>
      </trkpt>
      <trkpt lat="45.16561" lon="5.9782">
        <ele>2708.8</ele>
        <time>2021-02-20T13:43:27Z</time>
      </trkpt>
      <trkpt lat="45.16561" lon="5.9782">
        <ele>2708.8</ele>
        <time>2021-02-20T13:43:28Z</time>
      </trkpt>
      <trkpt lat="45.16561" lon="5.9782">
        <ele>2708.8</ele>
        <time>2021-02-20T13:43:29Z</time>
      </trkpt>
      <trkpt lat="45.16561" lon="5.9782">
        <ele>2708.8</ele>
        <time>2021-02-20T13:43:30Z</time>
      </trkpt>
      <trkpt lat="45.16561" lon="5.9782">
        <ele>2708.8</ele>
        <time>2021-02-20T13:43:31Z</time>
      </trkpt>
      <trkpt lat="45.16561" lon="5.9782">
        <ele>2708.8</ele>
        <time>2021-02-20T13:43:32Z</time>
      </trkpt>
      <trkpt lat="45.1656" lon="5.9782">
        <ele>2708.9</ele>
        <time>2021-02-20T13:43:33Z</time>
      </trkpt>
      <trkpt lat="45.1656" lon="5.9782">
        <ele>2708.9</ele>
        <time>2021-02-20T13:43:34Z</time>
      </trkpt>
      <trkpt lat="45.16561" lon="5.97821">
        <ele>2708.9</ele>
        <time>2021-02-20T13:43:35Z</time>
      </trkpt>
      <trkpt lat="45.16561" lon="5.97821">
        <ele>2708.9</ele>
        <time>2021-02-20T13:43:36Z</time>
      </trkpt>
      <trkpt lat="45.16561" lon="5.97821">
        <ele>2708.9</ele>
        <time>2021-02-20T13:43:37Z</time>
      </trkpt>
      <trkpt lat="45.16561" lon="5.97821">
        <ele>2708.9</ele>
        <time>2021-02-20T13:43:38Z</time>
      </trkpt>
      <trkpt lat="45.16561" lon="5.97821">
        <ele>2708.9</ele>
        <time>2021-02-20T13:43:39Z</time>
      </trkpt>
      <trkpt lat="45.16561" lon="5.97821">
        <ele>2708.9</ele>
        <time>2021-02-20T13:43:40Z</time>
      </trkpt>
      <trkpt lat="45.16561" lon="5.97821">
        <ele>2708.9</ele>
        <time>2021-02-20T13:43:41Z</time>
      </trkpt>
      <trkpt lat="45.16561" lon="5.97821">
        <ele>2708.9</ele>
        <time>2021-02-20T13:43:42Z</time>
      </trkpt>
      <trkpt lat="45.16561" lon="5.97821">
        <ele>2708.9</ele>
        <time>2021-02-20T13:43:43Z</time>
      </trkpt>
      <trkpt lat="45.16561" lon="5.97821">
        <ele>2708.9</ele>
        <time>2021-02-20T13:43:44Z</time>
      </trkpt>
      <trkpt lat="45.16561" lon="5.97821">
        <ele>2708.9</ele>
        <time>2021-02-20T13:43:45Z</time>
      </trkpt>
      <trkpt lat="45.16561" lon="5.97821">
        <ele>2708.9</ele>
        <time>2021-02-20T13:43:46Z</time>
      </trkpt>
      <trkpt lat="45.16561" lon="5.97821">
        <ele>2708.9</ele>
        <time>2021-02-20T13:43:47Z</time>
      </trkpt>
      <trkpt lat="45.16561" lon="5.97821">
        <ele>2708.9</ele>
        <time>2021-02-20T13:43:48Z</time>
      </trkpt>
      <trkpt lat="45.16561" lon="5.97821">
        <ele>2708.9</ele>
        <time>2021-02-20T13:43:49Z</time>
      </trkpt>
      <trkpt lat="45.16561" lon="5.97821">
        <ele>2708.9</ele>
        <time>2021-02-20T13:43:50Z</time>
      </trkpt>
      <trkpt lat="45.16561" lon="5.97821">
        <ele>2708.9</ele>
        <time>2021-02-20T13:43:51Z</time>
      </trkpt>
      <trkpt lat="45.16561" lon="5.97821">
        <ele>2708.9</ele>
        <time>2021-02-20T13:43:52Z</time>
      </trkpt>
      <trkpt lat="45.16561" lon="5.97821">
        <ele>2708.9</ele>
        <time>2021-02-20T13:43:53Z</time>
      </trkpt>
      <trkpt lat="45.16561" lon="5.97821">
        <ele>2708.9</ele>
        <time>2021-02-20T13:43:54Z</time>
      </trkpt>
      <trkpt lat="45.16561" lon="5.97821">
        <ele>2708.9</ele>
        <time>2021-02-20T13:43:55Z</time>
      </trkpt>
      <trkpt lat="45.16561" lon="5.9782">
        <ele>2708.9</ele>
        <time>2021-02-20T13:43:56Z</time>
      </trkpt>
      <trkpt lat="45.16561" lon="5.9782">
        <ele>2708.9</ele>
        <time>2021-02-20T13:43:57Z</time>
      </trkpt>
      <trkpt lat="45.16561" lon="5.9782">
        <ele>2708.9</ele>
        <time>2021-02-20T13:43:58Z</time>
      </trkpt>
      <trkpt lat="45.16561" lon="5.9782">
        <ele>2708.9</ele>
        <time>2021-02-20T13:43:59Z</time>
      </trkpt>
      <trkpt lat="45.16561" lon="5.9782">
        <ele>2708.9</ele>
        <time>2021-02-20T13:44:00Z</time>
      </trkpt>
      <trkpt lat="45.16561" lon="5.9782">
        <ele>2708.9</ele>
        <time>2021-02-20T13:44:01Z</time>
      </trkpt>
      <trkpt lat="45.16561" lon="5.9782">
        <ele>2708.9</ele>
        <time>2021-02-20T13:44:02Z</time>
      </trkpt>
      <trkpt lat="45.16561" lon="5.9782">
        <ele>2708.9</ele>
        <time>2021-02-20T13:44:03Z</time>
      </trkpt>
      <trkpt lat="45.16561" lon="5.9782">
        <ele>2708.9</ele>
        <time>2021-02-20T13:44:04Z</time>
      </trkpt>
      <trkpt lat="45.16561" lon="5.9782">
        <ele>2708.9</ele>
        <time>2021-02-20T13:44:05Z</time>
      </trkpt>
      <trkpt lat="45.16561" lon="5.9782">
        <ele>2708.9</ele>
        <time>2021-02-20T13:44:06Z</time>
      </trkpt>
      <trkpt lat="45.16561" lon="5.9782">
        <ele>2708.9</ele>
        <time>2021-02-20T13:44:07Z</time>
      </trkpt>
      <trkpt lat="45.16561" lon="5.9782">
        <ele>2708.9</ele>
        <time>2021-02-20T13:44:08Z</time>
      </trkpt>
      <trkpt lat="45.16561" lon="5.9782">
        <ele>2708.9</ele>
        <time>2021-02-20T13:44:09Z</time>
      </trkpt>
      <trkpt lat="45.16561" lon="5.9782">
        <ele>2708.9</ele>
        <time>2021-02-20T13:44:10Z</time>
      </trkpt>
      <trkpt lat="45.16561" lon="5.9782">
        <ele>2708.9</ele>
        <time>2021-02-20T13:44:11Z</time>
      </trkpt>
      <trkpt lat="45.16561" lon="5.9782">
        <ele>2708.9</ele>
        <time>2021-02-20T13:44:12Z</time>
      </trkpt>
      <trkpt lat="45.16561" lon="5.9782">
        <ele>2708.9</ele>
        <time>2021-02-20T13:44:13Z</time>
      </trkpt>
      <trkpt lat="45.16561" lon="5.9782">
        <ele>2708.9</ele>
        <time>2021-02-20T13:44:14Z</time>
      </trkpt>
      <trkpt lat="45.16561" lon="5.9782">
        <ele>2708.9</ele>
        <time>2021-02-20T13:44:15Z</time>
      </trkpt>
      <trkpt lat="45.16561" lon="5.9782">
        <ele>2708.9</ele>
        <time>2021-02-20T13:44:16Z</time>
      </trkpt>
      <trkpt lat="45.16561" lon="5.9782">
        <ele>2708.9</ele>
        <time>2021-02-20T13:44:17Z</time>
      </trkpt>
      <trkpt lat="45.16561" lon="5.9782">
        <ele>2708.9</ele>
        <time>2021-02-20T13:44:18Z</time>
      </trkpt>
      <trkpt lat="45.16561" lon="5.9782">
        <ele>2708.9</ele>
        <time>2021-02-20T13:44:19Z</time>
      </trkpt>
      <trkpt lat="45.16561" lon="5.9782">
        <ele>2708.9</ele>
        <time>2021-02-20T13:44:20Z</time>
      </trkpt>
      <trkpt lat="45.16561" lon="5.9782">
        <ele>2708.9</ele>
        <time>2021-02-20T13:44:21Z</time>
      </trkpt>
      <trkpt lat="45.16561" lon="5.9782">
        <ele>2708.9</ele>
        <time>2021-02-20T13:44:22Z</time>
      </trkpt>
      <trkpt lat="45.16561" lon="5.9782">
        <ele>2708.9</ele>
        <time>2021-02-20T13:44:23Z</time>
      </trkpt>
      <trkpt lat="45.16561" lon="5.9782">
        <ele>2708.9</ele>
        <time>2021-02-20T13:44:24Z</time>
      </trkpt>
      <trkpt lat="45.16561" lon="5.9782">
        <ele>2708.9</ele>
        <time>2021-02-20T13:44:25Z</time>
      </trkpt>
      <trkpt lat="45.16561" lon="5.9782">
        <ele>2708.9</ele>
        <time>2021-02-20T13:44:26Z</time>
      </trkpt>
      <trkpt lat="45.16561" lon="5.9782">
        <ele>2708.9</ele>
        <time>2021-02-20T13:44:27Z</time>
      </trkpt>
      <trkpt lat="45.16561" lon="5.9782">
        <ele>2708.9</ele>
        <time>2021-02-20T13:44:28Z</time>
      </trkpt>
      <trkpt lat="45.16561" lon="5.9782">
        <ele>2708.9</ele>
        <time>2021-02-20T13:44:29Z</time>
      </trkpt>
      <trkpt lat="45.16561" lon="5.9782">
        <ele>2708.9</ele>
        <time>2021-02-20T13:44:30Z</time>
      </trkpt>
      <trkpt lat="45.16561" lon="5.9782">
        <ele>2708.9</ele>
        <time>2021-02-20T13:44:31Z</time>
      </trkpt>
      <trkpt lat="45.16561" lon="5.9782">
        <ele>2708.9</ele>
        <time>2021-02-20T13:44:32Z</time>
      </trkpt>
      <trkpt lat="45.16561" lon="5.9782">
        <ele>2708.9</ele>
        <time>2021-02-20T13:44:33Z</time>
      </trkpt>
      <trkpt lat="45.16561" lon="5.9782">
        <ele>2708.9</ele>
        <time>2021-02-20T13:44:34Z</time>
      </trkpt>
      <trkpt lat="45.16561" lon="5.9782">
        <ele>2708.9</ele>
        <time>2021-02-20T13:44:35Z</time>
      </trkpt>
      <trkpt lat="45.16561" lon="5.9782">
        <ele>2708.9</ele>
        <time>2021-02-20T13:44:36Z</time>
      </trkpt>
      <trkpt lat="45.16561" lon="5.9782">
        <ele>2708.9</ele>
        <time>2021-02-20T13:44:37Z</time>
      </trkpt>
      <trkpt lat="45.16561" lon="5.9782">
        <ele>2708.9</ele>
        <time>2021-02-20T13:44:38Z</time>
      </trkpt>
      <trkpt lat="45.16561" lon="5.9782">
        <ele>2708.9</ele>
        <time>2021-02-20T13:44:39Z</time>
      </trkpt>
      <trkpt lat="45.16561" lon="5.9782">
        <ele>2708.9</ele>
        <time>2021-02-20T13:44:40Z</time>
      </trkpt>
      <trkpt lat="45.16561" lon="5.9782">
        <ele>2708.9</ele>
        <time>2021-02-20T13:44:41Z</time>
      </trkpt>
      <trkpt lat="45.16561" lon="5.9782">
        <ele>2708.9</ele>
        <time>2021-02-20T13:44:42Z</time>
      </trkpt>
      <trkpt lat="45.16561" lon="5.9782">
        <ele>2708.9</ele>
        <time>2021-02-20T13:44:43Z</time>
      </trkpt>
      <trkpt lat="45.16561" lon="5.9782">
        <ele>2708.9</ele>
        <time>2021-02-20T13:44:44Z</time>
      </trkpt>
      <trkpt lat="45.16561" lon="5.9782">
        <ele>2708.9</ele>
        <time>2021-02-20T13:44:45Z</time>
      </trkpt>
      <trkpt lat="45.16561" lon="5.9782">
        <ele>2708.9</ele>
        <time>2021-02-20T13:44:46Z</time>
      </trkpt>
      <trkpt lat="45.16561" lon="5.9782">
        <ele>2708.9</ele>
        <time>2021-02-20T13:44:47Z</time>
      </trkpt>
      <trkpt lat="45.16561" lon="5.9782">
        <ele>2708.9</ele>
        <time>2021-02-20T13:44:48Z</time>
      </trkpt>
      <trkpt lat="45.16561" lon="5.9782">
        <ele>2708.9</ele>
        <time>2021-02-20T13:44:49Z</time>
      </trkpt>
      <trkpt lat="45.16561" lon="5.9782">
        <ele>2708.9</ele>
        <time>2021-02-20T13:44:50Z</time>
      </trkpt>
      <trkpt lat="45.16561" lon="5.9782">
        <ele>2708.9</ele>
        <time>2021-02-20T13:44:51Z</time>
      </trkpt>
      <trkpt lat="45.16561" lon="5.9782">
        <ele>2708.9</ele>
        <time>2021-02-20T13:44:52Z</time>
      </trkpt>
      <trkpt lat="45.16561" lon="5.9782">
        <ele>2708.9</ele>
        <time>2021-02-20T13:44:53Z</time>
      </trkpt>
      <trkpt lat="45.16561" lon="5.9782">
        <ele>2708.9</ele>
        <time>2021-02-20T13:44:54Z</time>
      </trkpt>
      <trkpt lat="45.16561" lon="5.9782">
        <ele>2708.9</ele>
        <time>2021-02-20T13:44:55Z</time>
      </trkpt>
      <trkpt lat="45.16561" lon="5.9782">
        <ele>2708.9</ele>
        <time>2021-02-20T13:44:56Z</time>
      </trkpt>
      <trkpt lat="45.16561" lon="5.9782">
        <ele>2708.9</ele>
        <time>2021-02-20T13:44:57Z</time>
      </trkpt>
      <trkpt lat="45.16561" lon="5.9782">
        <ele>2708.9</ele>
        <time>2021-02-20T13:44:58Z</time>
      </trkpt>
      <trkpt lat="45.16561" lon="5.9782">
        <ele>2708.9</ele>
        <time>2021-02-20T13:44:59Z</time>
      </trkpt>
      <trkpt lat="45.16561" lon="5.9782">
        <ele>2708.9</ele>
        <time>2021-02-20T13:45:00Z</time>
      </trkpt>
      <trkpt lat="45.16561" lon="5.9782">
        <ele>2708.9</ele>
        <time>2021-02-20T13:45:01Z</time>
      </trkpt>
      <trkpt lat="45.16561" lon="5.9782">
        <ele>2708.9</ele>
        <time>2021-02-20T13:45:02Z</time>
      </trkpt>
      <trkpt lat="45.16561" lon="5.9782">
        <ele>2708.9</ele>
        <time>2021-02-20T13:45:03Z</time>
      </trkpt>
      <trkpt lat="45.16561" lon="5.9782">
        <ele>2708.9</ele>
        <time>2021-02-20T13:45:04Z</time>
      </trkpt>
      <trkpt lat="45.16561" lon="5.9782">
        <ele>2708.9</ele>
        <time>2021-02-20T13:45:05Z</time>
      </trkpt>
      <trkpt lat="45.16561" lon="5.9782">
        <ele>2708.9</ele>
        <time>2021-02-20T13:45:06Z</time>
      </trkpt>
      <trkpt lat="45.16561" lon="5.9782">
        <ele>2708.9</ele>
        <time>2021-02-20T13:45:07Z</time>
      </trkpt>
      <trkpt lat="45.16561" lon="5.9782">
        <ele>2708.9</ele>
        <time>2021-02-20T13:45:08Z</time>
      </trkpt>
      <trkpt lat="45.16561" lon="5.9782">
        <ele>2708.9</ele>
        <time>2021-02-20T13:45:09Z</time>
      </trkpt>
      <trkpt lat="45.16561" lon="5.9782">
        <ele>2708.9</ele>
        <time>2021-02-20T13:45:10Z</time>
      </trkpt>
      <trkpt lat="45.16561" lon="5.9782">
        <ele>2708.9</ele>
        <time>2021-02-20T13:45:11Z</time>
      </trkpt>
      <trkpt lat="45.16561" lon="5.9782">
        <ele>2708.9</ele>
        <time>2021-02-20T13:45:12Z</time>
      </trkpt>
      <trkpt lat="45.16561" lon="5.9782">
        <ele>2708.9</ele>
        <time>2021-02-20T13:45:13Z</time>
      </trkpt>
      <trkpt lat="45.16561" lon="5.9782">
        <ele>2708.9</ele>
        <time>2021-02-20T13:45:14Z</time>
      </trkpt>
      <trkpt lat="45.16561" lon="5.9782">
        <ele>2708.9</ele>
        <time>2021-02-20T13:45:15Z</time>
      </trkpt>
      <trkpt lat="45.16561" lon="5.9782">
        <ele>2708.9</ele>
        <time>2021-02-20T13:45:16Z</time>
      </trkpt>
      <trkpt lat="45.16561" lon="5.9782">
        <ele>2708.9</ele>
        <time>2021-02-20T13:45:17Z</time>
      </trkpt>
      <trkpt lat="45.16561" lon="5.9782">
        <ele>2708.9</ele>
        <time>2021-02-20T13:45:18Z</time>
      </trkpt>
      <trkpt lat="45.16561" lon="5.9782">
        <ele>2708.9</ele>
        <time>2021-02-20T13:45:19Z</time>
      </trkpt>
      <trkpt lat="45.16561" lon="5.9782">
        <ele>2708.9</ele>
        <time>2021-02-20T13:45:20Z</time>
      </trkpt>
      <trkpt lat="45.16561" lon="5.9782">
        <ele>2708.9</ele>
        <time>2021-02-20T13:45:21Z</time>
      </trkpt>
      <trkpt lat="45.16561" lon="5.9782">
        <ele>2708.9</ele>
        <time>2021-02-20T13:45:22Z</time>
      </trkpt>
      <trkpt lat="45.16561" lon="5.9782">
        <ele>2708.9</ele>
        <time>2021-02-20T13:45:23Z</time>
      </trkpt>
      <trkpt lat="45.16561" lon="5.9782">
        <ele>2708.9</ele>
        <time>2021-02-20T13:45:24Z</time>
      </trkpt>
      <trkpt lat="45.16561" lon="5.9782">
        <ele>2708.9</ele>
        <time>2021-02-20T13:45:25Z</time>
      </trkpt>
      <trkpt lat="45.16561" lon="5.9782">
        <ele>2708.9</ele>
        <time>2021-02-20T13:45:26Z</time>
      </trkpt>
      <trkpt lat="45.16561" lon="5.9782">
        <ele>2708.9</ele>
        <time>2021-02-20T13:45:27Z</time>
      </trkpt>
      <trkpt lat="45.16561" lon="5.9782">
        <ele>2708.9</ele>
        <time>2021-02-20T13:45:28Z</time>
      </trkpt>
      <trkpt lat="45.16561" lon="5.9782">
        <ele>2708.9</ele>
        <time>2021-02-20T13:45:29Z</time>
      </trkpt>
      <trkpt lat="45.16561" lon="5.9782">
        <ele>2708.9</ele>
        <time>2021-02-20T13:45:30Z</time>
      </trkpt>
      <trkpt lat="45.16561" lon="5.9782">
        <ele>2708.9</ele>
        <time>2021-02-20T13:45:31Z</time>
      </trkpt>
      <trkpt lat="45.16561" lon="5.9782">
        <ele>2708.9</ele>
        <time>2021-02-20T13:45:32Z</time>
      </trkpt>
      <trkpt lat="45.16561" lon="5.9782">
        <ele>2708.9</ele>
        <time>2021-02-20T13:45:33Z</time>
      </trkpt>
      <trkpt lat="45.16561" lon="5.9782">
        <ele>2708.9</ele>
        <time>2021-02-20T13:45:34Z</time>
      </trkpt>
      <trkpt lat="45.16561" lon="5.9782">
        <ele>2708.9</ele>
        <time>2021-02-20T13:45:35Z</time>
      </trkpt>
      <trkpt lat="45.16561" lon="5.9782">
        <ele>2708.9</ele>
        <time>2021-02-20T13:45:36Z</time>
      </trkpt>
      <trkpt lat="45.16561" lon="5.9782">
        <ele>2708.9</ele>
        <time>2021-02-20T13:45:37Z</time>
      </trkpt>
      <trkpt lat="45.16561" lon="5.9782">
        <ele>2708.9</ele>
        <time>2021-02-20T13:45:38Z</time>
      </trkpt>
      <trkpt lat="45.16561" lon="5.9782">
        <ele>2708.9</ele>
        <time>2021-02-20T13:45:39Z</time>
      </trkpt>
      <trkpt lat="45.16561" lon="5.9782">
        <ele>2708.9</ele>
        <time>2021-02-20T13:45:40Z</time>
      </trkpt>
      <trkpt lat="45.16561" lon="5.9782">
        <ele>2708.9</ele>
        <time>2021-02-20T13:45:41Z</time>
      </trkpt>
      <trkpt lat="45.16561" lon="5.9782">
        <ele>2708.9</ele>
        <time>2021-02-20T13:45:42Z</time>
      </trkpt>
      <trkpt lat="45.16561" lon="5.9782">
        <ele>2708.9</ele>
        <time>2021-02-20T13:45:43Z</time>
      </trkpt>
      <trkpt lat="45.16561" lon="5.9782">
        <ele>2708.9</ele>
        <time>2021-02-20T13:45:44Z</time>
      </trkpt>
      <trkpt lat="45.16561" lon="5.9782">
        <ele>2708.9</ele>
        <time>2021-02-20T13:45:45Z</time>
      </trkpt>
      <trkpt lat="45.16561" lon="5.9782">
        <ele>2708.9</ele>
        <time>2021-02-20T13:45:46Z</time>
      </trkpt>
      <trkpt lat="45.16561" lon="5.9782">
        <ele>2708.9</ele>
        <time>2021-02-20T13:45:47Z</time>
      </trkpt>
      <trkpt lat="45.16561" lon="5.9782">
        <ele>2708.9</ele>
        <time>2021-02-20T13:45:48Z</time>
      </trkpt>
      <trkpt lat="45.16561" lon="5.9782">
        <ele>2708.9</ele>
        <time>2021-02-20T13:45:49Z</time>
      </trkpt>
      <trkpt lat="45.16561" lon="5.9782">
        <ele>2708.9</ele>
        <time>2021-02-20T13:45:50Z</time>
      </trkpt>
      <trkpt lat="45.16561" lon="5.9782">
        <ele>2708.9</ele>
        <time>2021-02-20T13:45:51Z</time>
      </trkpt>
      <trkpt lat="45.16561" lon="5.9782">
        <ele>2708.9</ele>
        <time>2021-02-20T13:45:52Z</time>
      </trkpt>
      <trkpt lat="45.16561" lon="5.9782">
        <ele>2708.9</ele>
        <time>2021-02-20T13:45:53Z</time>
      </trkpt>
      <trkpt lat="45.16561" lon="5.9782">
        <ele>2708.9</ele>
        <time>2021-02-20T13:45:54Z</time>
      </trkpt>
      <trkpt lat="45.16561" lon="5.9782">
        <ele>2708.9</ele>
        <time>2021-02-20T13:45:55Z</time>
      </trkpt>
      <trkpt lat="45.16561" lon="5.9782">
        <ele>2708.9</ele>
        <time>2021-02-20T13:45:56Z</time>
      </trkpt>
      <trkpt lat="45.16561" lon="5.9782">
        <ele>2708.9</ele>
        <time>2021-02-20T13:45:57Z</time>
      </trkpt>
      <trkpt lat="45.16561" lon="5.9782">
        <ele>2708.9</ele>
        <time>2021-02-20T13:45:58Z</time>
      </trkpt>
      <trkpt lat="45.16561" lon="5.9782">
        <ele>2708.9</ele>
        <time>2021-02-20T13:45:59Z</time>
      </trkpt>
      <trkpt lat="45.16561" lon="5.9782">
        <ele>2708.9</ele>
        <time>2021-02-20T13:46:00Z</time>
      </trkpt>
      <trkpt lat="45.16561" lon="5.9782">
        <ele>2708.9</ele>
        <time>2021-02-20T13:46:01Z</time>
      </trkpt>
      <trkpt lat="45.16561" lon="5.9782">
        <ele>2708.9</ele>
        <time>2021-02-20T13:46:02Z</time>
      </trkpt>
      <trkpt lat="45.16561" lon="5.9782">
        <ele>2708.8</ele>
        <time>2021-02-20T13:46:03Z</time>
      </trkpt>
      <trkpt lat="45.16561" lon="5.9782">
        <ele>2708.8</ele>
        <time>2021-02-20T13:46:04Z</time>
      </trkpt>
      <trkpt lat="45.16561" lon="5.9782">
        <ele>2708.7</ele>
        <time>2021-02-20T13:46:05Z</time>
      </trkpt>
      <trkpt lat="45.16561" lon="5.9782">
        <ele>2708.6</ele>
        <time>2021-02-20T13:46:06Z</time>
      </trkpt>
      <trkpt lat="45.16561" lon="5.9782">
        <ele>2708.5</ele>
        <time>2021-02-20T13:46:07Z</time>
      </trkpt>
      <trkpt lat="45.16561" lon="5.9782">
        <ele>2708.5</ele>
        <time>2021-02-20T13:46:08Z</time>
      </trkpt>
      <trkpt lat="45.16561" lon="5.9782">
        <ele>2708.4</ele>
        <time>2021-02-20T13:46:09Z</time>
      </trkpt>
      <trkpt lat="45.16561" lon="5.9782">
        <ele>2708.3</ele>
        <time>2021-02-20T13:46:10Z</time>
      </trkpt>
      <trkpt lat="45.16561" lon="5.9782">
        <ele>2708.2</ele>
        <time>2021-02-20T13:46:11Z</time>
      </trkpt>
      <trkpt lat="45.16561" lon="5.9782">
        <ele>2708.2</ele>
        <time>2021-02-20T13:46:12Z</time>
      </trkpt>
      <trkpt lat="45.16561" lon="5.9782">
        <ele>2708.1</ele>
        <time>2021-02-20T13:46:13Z</time>
      </trkpt>
      <trkpt lat="45.16561" lon="5.9782">
        <ele>2708</ele>
        <time>2021-02-20T13:46:14Z</time>
      </trkpt>
      <trkpt lat="45.16561" lon="5.9782">
        <ele>2707.9</ele>
        <time>2021-02-20T13:46:15Z</time>
      </trkpt>
      <trkpt lat="45.16561" lon="5.9782">
        <ele>2707.9</ele>
        <time>2021-02-20T13:46:16Z</time>
      </trkpt>
      <trkpt lat="45.16561" lon="5.9782">
        <ele>2707.8</ele>
        <time>2021-02-20T13:46:17Z</time>
      </trkpt>
      <trkpt lat="45.16561" lon="5.9782">
        <ele>2707.7</ele>
        <time>2021-02-20T13:46:18Z</time>
      </trkpt>
      <trkpt lat="45.16561" lon="5.9782">
        <ele>2707.6</ele>
        <time>2021-02-20T13:46:19Z</time>
      </trkpt>
      <trkpt lat="45.16561" lon="5.9782">
        <ele>2707.6</ele>
        <time>2021-02-20T13:46:20Z</time>
      </trkpt>
      <trkpt lat="45.16561" lon="5.9782">
        <ele>2707.5</ele>
        <time>2021-02-20T13:46:21Z</time>
      </trkpt>
      <trkpt lat="45.16561" lon="5.9782">
        <ele>2707.4</ele>
        <time>2021-02-20T13:46:22Z</time>
      </trkpt>
      <trkpt lat="45.16561" lon="5.9782">
        <ele>2707.3</ele>
        <time>2021-02-20T13:46:23Z</time>
      </trkpt>
      <trkpt lat="45.16561" lon="5.9782">
        <ele>2707.3</ele>
        <time>2021-02-20T13:46:24Z</time>
      </trkpt>
      <trkpt lat="45.16561" lon="5.9782">
        <ele>2707.2</ele>
        <time>2021-02-20T13:46:25Z</time>
      </trkpt>
      <trkpt lat="45.16561" lon="5.9782">
        <ele>2707.1</ele>
        <time>2021-02-20T13:46:26Z</time>
      </trkpt>
      <trkpt lat="45.16561" lon="5.9782">
        <ele>2707.1</ele>
        <time>2021-02-20T13:46:27Z</time>
      </trkpt>
      <trkpt lat="45.16561" lon="5.9782">
        <ele>2707</ele>
        <time>2021-02-20T13:46:28Z</time>
      </trkpt>
      <trkpt lat="45.16561" lon="5.9782">
        <ele>2706.9</ele>
        <time>2021-02-20T13:46:29Z</time>
      </trkpt>
      <trkpt lat="45.16561" lon="5.9782">
        <ele>2706.8</ele>
        <time>2021-02-20T13:46:30Z</time>
      </trkpt>
      <trkpt lat="45.16561" lon="5.9782">
        <ele>2706.8</ele>
        <time>2021-02-20T13:46:31Z</time>
      </trkpt>
      <trkpt lat="45.16561" lon="5.9782">
        <ele>2706.7</ele>
        <time>2021-02-20T13:46:32Z</time>
      </trkpt>
      <trkpt lat="45.16561" lon="5.9782">
        <ele>2706.6</ele>
        <time>2021-02-20T13:46:33Z</time>
      </trkpt>
      <trkpt lat="45.16561" lon="5.9782">
        <ele>2706.5</ele>
        <time>2021-02-20T13:46:34Z</time>
      </trkpt>
      <trkpt lat="45.16561" lon="5.9782">
        <ele>2706.5</ele>
        <time>2021-02-20T13:46:35Z</time>
      </trkpt>
      <trkpt lat="45.16561" lon="5.9782">
        <ele>2706.4</ele>
        <time>2021-02-20T13:46:36Z</time>
      </trkpt>
      <trkpt lat="45.16561" lon="5.9782">
        <ele>2706.3</ele>
        <time>2021-02-20T13:46:37Z</time>
      </trkpt>
      <trkpt lat="45.16561" lon="5.9782">
        <ele>2706.2</ele>
        <time>2021-02-20T13:46:38Z</time>
      </trkpt>
      <trkpt lat="45.16561" lon="5.9782">
        <ele>2706.2</ele>
        <time>2021-02-20T13:46:39Z</time>
      </trkpt>
      <trkpt lat="45.16561" lon="5.9782">
        <ele>2706.1</ele>
        <time>2021-02-20T13:46:40Z</time>
      </trkpt>
      <trkpt lat="45.16561" lon="5.9782">
        <ele>2706</ele>
        <time>2021-02-20T13:46:41Z</time>
      </trkpt>
      <trkpt lat="45.16561" lon="5.9782">
        <ele>2705.9</ele>
        <time>2021-02-20T13:46:42Z</time>
      </trkpt>
      <trkpt lat="45.16561" lon="5.9782">
        <ele>2705.9</ele>
        <time>2021-02-20T13:46:43Z</time>
      </trkpt>
      <trkpt lat="45.16561" lon="5.9782">
        <ele>2705.8</ele>
        <time>2021-02-20T13:46:44Z</time>
      </trkpt>
      <trkpt lat="45.16561" lon="5.9782">
        <ele>2705.7</ele>
        <time>2021-02-20T13:46:45Z</time>
      </trkpt>
      <trkpt lat="45.16561" lon="5.9782">
        <ele>2705.6</ele>
        <time>2021-02-20T13:46:46Z</time>
      </trkpt>
      <trkpt lat="45.16561" lon="5.9782">
        <ele>2705.6</ele>
        <time>2021-02-20T13:46:47Z</time>
      </trkpt>
      <trkpt lat="45.16561" lon="5.9782">
        <ele>2705.5</ele>
        <time>2021-02-20T13:46:48Z</time>
      </trkpt>
      <trkpt lat="45.16561" lon="5.9782">
        <ele>2705.4</ele>
        <time>2021-02-20T13:46:49Z</time>
      </trkpt>
      <trkpt lat="45.16561" lon="5.9782">
        <ele>2705.3</ele>
        <time>2021-02-20T13:46:50Z</time>
      </trkpt>
      <trkpt lat="45.16561" lon="5.9782">
        <ele>2705.3</ele>
        <time>2021-02-20T13:46:51Z</time>
      </trkpt>
      <trkpt lat="45.16561" lon="5.9782">
        <ele>2705.2</ele>
        <time>2021-02-20T13:46:52Z</time>
      </trkpt>
      <trkpt lat="45.16561" lon="5.9782">
        <ele>2705.1</ele>
        <time>2021-02-20T13:46:53Z</time>
      </trkpt>
      <trkpt lat="45.16561" lon="5.9782">
        <ele>2705.1</ele>
        <time>2021-02-20T13:46:54Z</time>
      </trkpt>
      <trkpt lat="45.16561" lon="5.9782">
        <ele>2705</ele>
        <time>2021-02-20T13:46:55Z</time>
      </trkpt>
      <trkpt lat="45.16561" lon="5.9782">
        <ele>2704.9</ele>
        <time>2021-02-20T13:46:56Z</time>
      </trkpt>
      <trkpt lat="45.16561" lon="5.9782">
        <ele>2704.8</ele>
        <time>2021-02-20T13:46:57Z</time>
      </trkpt>
      <trkpt lat="45.16561" lon="5.9782">
        <ele>2704.8</ele>
        <time>2021-02-20T13:46:58Z</time>
      </trkpt>
      <trkpt lat="45.16561" lon="5.9782">
        <ele>2704.7</ele>
        <time>2021-02-20T13:46:59Z</time>
      </trkpt>
      <trkpt lat="45.16561" lon="5.9782">
        <ele>2704.6</ele>
        <time>2021-02-20T13:47:00Z</time>
      </trkpt>
      <trkpt lat="45.16561" lon="5.9782">
        <ele>2704.5</ele>
        <time>2021-02-20T13:47:01Z</time>
      </trkpt>
      <trkpt lat="45.16561" lon="5.9782">
        <ele>2704.5</ele>
        <time>2021-02-20T13:47:02Z</time>
      </trkpt>
      <trkpt lat="45.16561" lon="5.9782">
        <ele>2704.4</ele>
        <time>2021-02-20T13:47:03Z</time>
      </trkpt>
      <trkpt lat="45.16561" lon="5.9782">
        <ele>2704.3</ele>
        <time>2021-02-20T13:47:04Z</time>
      </trkpt>
      <trkpt lat="45.16561" lon="5.9782">
        <ele>2704.2</ele>
        <time>2021-02-20T13:47:05Z</time>
      </trkpt>
      <trkpt lat="45.16561" lon="5.9782">
        <ele>2704.2</ele>
        <time>2021-02-20T13:47:06Z</time>
      </trkpt>
      <trkpt lat="45.16561" lon="5.9782">
        <ele>2704.1</ele>
        <time>2021-02-20T13:47:07Z</time>
      </trkpt>
      <trkpt lat="45.16561" lon="5.9782">
        <ele>2704</ele>
        <time>2021-02-20T13:47:08Z</time>
      </trkpt>
      <trkpt lat="45.16561" lon="5.9782">
        <ele>2703.9</ele>
        <time>2021-02-20T13:47:09Z</time>
      </trkpt>
      <trkpt lat="45.16561" lon="5.9782">
        <ele>2703.9</ele>
        <time>2021-02-20T13:47:10Z</time>
      </trkpt>
      <trkpt lat="45.16561" lon="5.9782">
        <ele>2703.8</ele>
        <time>2021-02-20T13:47:11Z</time>
      </trkpt>
      <trkpt lat="45.16561" lon="5.9782">
        <ele>2703.7</ele>
        <time>2021-02-20T13:47:12Z</time>
      </trkpt>
      <trkpt lat="45.16561" lon="5.9782">
        <ele>2703.6</ele>
        <time>2021-02-20T13:47:13Z</time>
      </trkpt>
      <trkpt lat="45.16561" lon="5.9782">
        <ele>2703.6</ele>
        <time>2021-02-20T13:47:14Z</time>
      </trkpt>
      <trkpt lat="45.16561" lon="5.9782">
        <ele>2703.5</ele>
        <time>2021-02-20T13:47:15Z</time>
      </trkpt>
      <trkpt lat="45.16561" lon="5.9782">
        <ele>2703.4</ele>
        <time>2021-02-20T13:47:16Z</time>
      </trkpt>
      <trkpt lat="45.16561" lon="5.9782">
        <ele>2703.4</ele>
        <time>2021-02-20T13:47:17Z</time>
      </trkpt>
      <trkpt lat="45.16561" lon="5.9782">
        <ele>2703.3</ele>
        <time>2021-02-20T13:47:18Z</time>
      </trkpt>
      <trkpt lat="45.16561" lon="5.9782">
        <ele>2703.2</ele>
        <time>2021-02-20T13:47:19Z</time>
      </trkpt>
      <trkpt lat="45.16561" lon="5.9782">
        <ele>2703.1</ele>
        <time>2021-02-20T13:47:20Z</time>
      </trkpt>
      <trkpt lat="45.16561" lon="5.9782">
        <ele>2703.1</ele>
        <time>2021-02-20T13:47:21Z</time>
      </trkpt>
      <trkpt lat="45.16561" lon="5.9782">
        <ele>2703</ele>
        <time>2021-02-20T13:47:22Z</time>
      </trkpt>
      <trkpt lat="45.16561" lon="5.9782">
        <ele>2702.9</ele>
        <time>2021-02-20T13:47:23Z</time>
      </trkpt>
      <trkpt lat="45.16561" lon="5.9782">
        <ele>2702.8</ele>
        <time>2021-02-20T13:47:24Z</time>
      </trkpt>
      <trkpt lat="45.16561" lon="5.9782">
        <ele>2702.8</ele>
        <time>2021-02-20T13:47:25Z</time>
      </trkpt>
      <trkpt lat="45.16561" lon="5.9782">
        <ele>2702.7</ele>
        <time>2021-02-20T13:47:26Z</time>
      </trkpt>
      <trkpt lat="45.16561" lon="5.9782">
        <ele>2702.6</ele>
        <time>2021-02-20T13:47:27Z</time>
      </trkpt>
      <trkpt lat="45.16561" lon="5.9782">
        <ele>2702.5</ele>
        <time>2021-02-20T13:47:28Z</time>
      </trkpt>
      <trkpt lat="45.16561" lon="5.9782">
        <ele>2702.5</ele>
        <time>2021-02-20T13:47:29Z</time>
      </trkpt>
      <trkpt lat="45.16561" lon="5.9782">
        <ele>2702.4</ele>
        <time>2021-02-20T13:47:30Z</time>
      </trkpt>
      <trkpt lat="45.16561" lon="5.9782">
        <ele>2702.3</ele>
        <time>2021-02-20T13:47:31Z</time>
      </trkpt>
      <trkpt lat="45.16561" lon="5.9782">
        <ele>2702.2</ele>
        <time>2021-02-20T13:47:32Z</time>
      </trkpt>
      <trkpt lat="45.16561" lon="5.9782">
        <ele>2702.2</ele>
        <time>2021-02-20T13:47:33Z</time>
      </trkpt>
      <trkpt lat="45.16561" lon="5.9782">
        <ele>2702.1</ele>
        <time>2021-02-20T13:47:34Z</time>
      </trkpt>
      <trkpt lat="45.16561" lon="5.9782">
        <ele>2702</ele>
        <time>2021-02-20T13:47:35Z</time>
      </trkpt>
      <trkpt lat="45.16561" lon="5.9782">
        <ele>2701.9</ele>
        <time>2021-02-20T13:47:36Z</time>
      </trkpt>
      <trkpt lat="45.16561" lon="5.9782">
        <ele>2701.9</ele>
        <time>2021-02-20T13:47:37Z</time>
      </trkpt>
      <trkpt lat="45.16561" lon="5.9782">
        <ele>2701.8</ele>
        <time>2021-02-20T13:47:38Z</time>
      </trkpt>
      <trkpt lat="45.16561" lon="5.9782">
        <ele>2701.7</ele>
        <time>2021-02-20T13:47:39Z</time>
      </trkpt>
      <trkpt lat="45.16561" lon="5.9782">
        <ele>2701.6</ele>
        <time>2021-02-20T13:47:40Z</time>
      </trkpt>
      <trkpt lat="45.16561" lon="5.9782">
        <ele>2701.6</ele>
        <time>2021-02-20T13:47:41Z</time>
      </trkpt>
      <trkpt lat="45.16561" lon="5.9782">
        <ele>2701.5</ele>
        <time>2021-02-20T13:47:42Z</time>
      </trkpt>
      <trkpt lat="45.16561" lon="5.9782">
        <ele>2701.5</ele>
        <time>2021-02-20T13:47:43Z</time>
      </trkpt>
      <trkpt lat="45.16561" lon="5.9782">
        <ele>2701.5</ele>
        <time>2021-02-20T13:47:44Z</time>
      </trkpt>
      <trkpt lat="45.16561" lon="5.9782">
        <ele>2701.5</ele>
        <time>2021-02-20T13:47:45Z</time>
      </trkpt>
      <trkpt lat="45.16561" lon="5.9782">
        <ele>2701.5</ele>
        <time>2021-02-20T13:47:46Z</time>
      </trkpt>
      <trkpt lat="45.16561" lon="5.9782">
        <ele>2701.5</ele>
        <time>2021-02-20T13:47:47Z</time>
      </trkpt>
      <trkpt lat="45.16561" lon="5.9782">
        <ele>2701.5</ele>
        <time>2021-02-20T13:47:48Z</time>
      </trkpt>
      <trkpt lat="45.16561" lon="5.9782">
        <ele>2701.5</ele>
        <time>2021-02-20T13:47:49Z</time>
      </trkpt>
      <trkpt lat="45.16561" lon="5.9782">
        <ele>2701.5</ele>
        <time>2021-02-20T13:47:50Z</time>
      </trkpt>
      <trkpt lat="45.16561" lon="5.9782">
        <ele>2701.5</ele>
        <time>2021-02-20T13:47:51Z</time>
      </trkpt>
      <trkpt lat="45.16561" lon="5.9782">
        <ele>2701.5</ele>
        <time>2021-02-20T13:47:52Z</time>
      </trkpt>
      <trkpt lat="45.16561" lon="5.9782">
        <ele>2701.5</ele>
        <time>2021-02-20T13:47:53Z</time>
      </trkpt>
      <trkpt lat="45.16561" lon="5.9782">
        <ele>2701.5</ele>
        <time>2021-02-20T13:47:54Z</time>
      </trkpt>
      <trkpt lat="45.16561" lon="5.9782">
        <ele>2701.5</ele>
        <time>2021-02-20T13:47:55Z</time>
      </trkpt>
      <trkpt lat="45.16561" lon="5.9782">
        <ele>2701.5</ele>
        <time>2021-02-20T13:47:56Z</time>
      </trkpt>
      <trkpt lat="45.16561" lon="5.9782">
        <ele>2701.5</ele>
        <time>2021-02-20T13:47:57Z</time>
      </trkpt>
      <trkpt lat="45.16561" lon="5.9782">
        <ele>2701.5</ele>
        <time>2021-02-20T13:47:58Z</time>
      </trkpt>
      <trkpt lat="45.16561" lon="5.9782">
        <ele>2701.5</ele>
        <time>2021-02-20T13:47:59Z</time>
      </trkpt>
      <trkpt lat="45.16561" lon="5.9782">
        <ele>2701.5</ele>
        <time>2021-02-20T13:48:00Z</time>
      </trkpt>
      <trkpt lat="45.16561" lon="5.9782">
        <ele>2701.5</ele>
        <time>2021-02-20T13:48:01Z</time>
      </trkpt>
      <trkpt lat="45.16561" lon="5.9782">
        <ele>2701.5</ele>
        <time>2021-02-20T13:48:02Z</time>
      </trkpt>
      <trkpt lat="45.16561" lon="5.9782">
        <ele>2701.5</ele>
        <time>2021-02-20T13:48:03Z</time>
      </trkpt>
      <trkpt lat="45.16561" lon="5.9782">
        <ele>2701.5</ele>
        <time>2021-02-20T13:48:04Z</time>
      </trkpt>
      <trkpt lat="45.16561" lon="5.9782">
        <ele>2701.5</ele>
        <time>2021-02-20T13:48:05Z</time>
      </trkpt>
      <trkpt lat="45.16561" lon="5.9782">
        <ele>2701.5</ele>
        <time>2021-02-20T13:48:06Z</time>
      </trkpt>
      <trkpt lat="45.1656" lon="5.97821">
        <ele>2701.4</ele>
        <time>2021-02-20T13:48:07Z</time>
      </trkpt>
      <trkpt lat="45.1656" lon="5.97821">
        <ele>2701.3</ele>
        <time>2021-02-20T13:48:08Z</time>
      </trkpt>
      <trkpt lat="45.16559" lon="5.9782">
        <ele>2701.3</ele>
        <time>2021-02-20T13:48:09Z</time>
      </trkpt>
      <trkpt lat="45.16559" lon="5.9782">
        <ele>2701.2</ele>
        <time>2021-02-20T13:48:10Z</time>
      </trkpt>
      <trkpt lat="45.16559" lon="5.9782">
        <ele>2701.2</ele>
        <time>2021-02-20T13:48:11Z</time>
      </trkpt>
      <trkpt lat="45.16559" lon="5.9782">
        <ele>2701.2</ele>
        <time>2021-02-20T13:48:12Z</time>
      </trkpt>
      <trkpt lat="45.16559" lon="5.9782">
        <ele>2701.2</ele>
        <time>2021-02-20T13:48:13Z</time>
      </trkpt>
      <trkpt lat="45.16559" lon="5.9782">
        <ele>2701.2</ele>
        <time>2021-02-20T13:48:14Z</time>
      </trkpt>
      <trkpt lat="45.16559" lon="5.9782">
        <ele>2701.2</ele>
        <time>2021-02-20T13:48:15Z</time>
      </trkpt>
      <trkpt lat="45.16559" lon="5.9782">
        <ele>2701.2</ele>
        <time>2021-02-20T13:48:16Z</time>
      </trkpt>
      <trkpt lat="45.16559" lon="5.9782">
        <ele>2701.2</ele>
        <time>2021-02-20T13:48:17Z</time>
      </trkpt>
      <trkpt lat="45.16559" lon="5.9782">
        <ele>2701.2</ele>
        <time>2021-02-20T13:48:18Z</time>
      </trkpt>
      <trkpt lat="45.16559" lon="5.9782">
        <ele>2701.2</ele>
        <time>2021-02-20T13:48:19Z</time>
      </trkpt>
      <trkpt lat="45.16559" lon="5.9782">
        <ele>2701.2</ele>
        <time>2021-02-20T13:48:20Z</time>
      </trkpt>
      <trkpt lat="45.16559" lon="5.9782">
        <ele>2701.2</ele>
        <time>2021-02-20T13:48:21Z</time>
      </trkpt>
      <trkpt lat="45.16559" lon="5.9782">
        <ele>2701.2</ele>
        <time>2021-02-20T13:48:22Z</time>
      </trkpt>
      <trkpt lat="45.16559" lon="5.9782">
        <ele>2701.2</ele>
        <time>2021-02-20T13:48:23Z</time>
      </trkpt>
      <trkpt lat="45.16559" lon="5.9782">
        <ele>2701.2</ele>
        <time>2021-02-20T13:48:24Z</time>
      </trkpt>
      <trkpt lat="45.16559" lon="5.9782">
        <ele>2701.2</ele>
        <time>2021-02-20T13:48:25Z</time>
      </trkpt>
      <trkpt lat="45.16559" lon="5.9782">
        <ele>2701.2</ele>
        <time>2021-02-20T13:48:26Z</time>
      </trkpt>
      <trkpt lat="45.16559" lon="5.9782">
        <ele>2701.2</ele>
        <time>2021-02-20T13:48:27Z</time>
      </trkpt>
      <trkpt lat="45.16559" lon="5.9782">
        <ele>2701.2</ele>
        <time>2021-02-20T13:48:28Z</time>
      </trkpt>
      <trkpt lat="45.16559" lon="5.9782">
        <ele>2701.2</ele>
        <time>2021-02-20T13:48:29Z</time>
      </trkpt>
      <trkpt lat="45.16559" lon="5.9782">
        <ele>2701.2</ele>
        <time>2021-02-20T13:48:30Z</time>
      </trkpt>
      <trkpt lat="45.16559" lon="5.9782">
        <ele>2701.2</ele>
        <time>2021-02-20T13:48:31Z</time>
      </trkpt>
      <trkpt lat="45.16559" lon="5.9782">
        <ele>2701.2</ele>
        <time>2021-02-20T13:48:32Z</time>
      </trkpt>
      <trkpt lat="45.16559" lon="5.9782">
        <ele>2701.2</ele>
        <time>2021-02-20T13:48:33Z</time>
      </trkpt>
      <trkpt lat="45.16559" lon="5.9782">
        <ele>2701.2</ele>
        <time>2021-02-20T13:48:34Z</time>
      </trkpt>
      <trkpt lat="45.16559" lon="5.9782">
        <ele>2701.2</ele>
        <time>2021-02-20T13:48:35Z</time>
      </trkpt>
      <trkpt lat="45.16559" lon="5.9782">
        <ele>2701.2</ele>
        <time>2021-02-20T13:48:36Z</time>
      </trkpt>
      <trkpt lat="45.16559" lon="5.9782">
        <ele>2701.2</ele>
        <time>2021-02-20T13:48:37Z</time>
      </trkpt>
      <trkpt lat="45.16559" lon="5.9782">
        <ele>2701.2</ele>
        <time>2021-02-20T13:48:38Z</time>
      </trkpt>
      <trkpt lat="45.16559" lon="5.9782">
        <ele>2701.2</ele>
        <time>2021-02-20T13:48:39Z</time>
      </trkpt>
      <trkpt lat="45.16559" lon="5.9782">
        <ele>2701.2</ele>
        <time>2021-02-20T13:48:40Z</time>
      </trkpt>
      <trkpt lat="45.16559" lon="5.9782">
        <ele>2701.2</ele>
        <time>2021-02-20T13:48:41Z</time>
      </trkpt>
      <trkpt lat="45.16559" lon="5.9782">
        <ele>2701.2</ele>
        <time>2021-02-20T13:48:42Z</time>
      </trkpt>
      <trkpt lat="45.16559" lon="5.9782">
        <ele>2701.2</ele>
        <time>2021-02-20T13:48:43Z</time>
      </trkpt>
      <trkpt lat="45.16559" lon="5.9782">
        <ele>2701.2</ele>
        <time>2021-02-20T13:48:44Z</time>
      </trkpt>
      <trkpt lat="45.16559" lon="5.9782">
        <ele>2701.2</ele>
        <time>2021-02-20T13:48:45Z</time>
      </trkpt>
      <trkpt lat="45.16559" lon="5.9782">
        <ele>2701.2</ele>
        <time>2021-02-20T13:48:46Z</time>
      </trkpt>
      <trkpt lat="45.16559" lon="5.9782">
        <ele>2701.2</ele>
        <time>2021-02-20T13:48:47Z</time>
      </trkpt>
      <trkpt lat="45.16559" lon="5.9782">
        <ele>2701.2</ele>
        <time>2021-02-20T13:48:48Z</time>
      </trkpt>
      <trkpt lat="45.16559" lon="5.9782">
        <ele>2701.2</ele>
        <time>2021-02-20T13:48:49Z</time>
      </trkpt>
      <trkpt lat="45.16559" lon="5.9782">
        <ele>2701.2</ele>
        <time>2021-02-20T13:48:50Z</time>
      </trkpt>
      <trkpt lat="45.16559" lon="5.9782">
        <ele>2701.2</ele>
        <time>2021-02-20T13:48:51Z</time>
      </trkpt>
      <trkpt lat="45.16559" lon="5.9782">
        <ele>2701.2</ele>
        <time>2021-02-20T13:48:52Z</time>
      </trkpt>
      <trkpt lat="45.16559" lon="5.9782">
        <ele>2701.2</ele>
        <time>2021-02-20T13:48:53Z</time>
      </trkpt>
      <trkpt lat="45.16559" lon="5.9782">
        <ele>2701.2</ele>
        <time>2021-02-20T13:48:54Z</time>
      </trkpt>
      <trkpt lat="45.16559" lon="5.9782">
        <ele>2701.2</ele>
        <time>2021-02-20T13:48:55Z</time>
      </trkpt>
      <trkpt lat="45.16559" lon="5.9782">
        <ele>2701.2</ele>
        <time>2021-02-20T13:48:56Z</time>
      </trkpt>
      <trkpt lat="45.16559" lon="5.9782">
        <ele>2701.2</ele>
        <time>2021-02-20T13:48:57Z</time>
      </trkpt>
      <trkpt lat="45.16559" lon="5.9782">
        <ele>2701.2</ele>
        <time>2021-02-20T13:48:58Z</time>
      </trkpt>
      <trkpt lat="45.16559" lon="5.9782">
        <ele>2701.2</ele>
        <time>2021-02-20T13:48:59Z</time>
      </trkpt>
      <trkpt lat="45.16559" lon="5.9782">
        <ele>2701.2</ele>
        <time>2021-02-20T13:49:00Z</time>
      </trkpt>
      <trkpt lat="45.16559" lon="5.9782">
        <ele>2701.2</ele>
        <time>2021-02-20T13:49:01Z</time>
      </trkpt>
      <trkpt lat="45.16559" lon="5.9782">
        <ele>2701.2</ele>
        <time>2021-02-20T13:49:02Z</time>
      </trkpt>
      <trkpt lat="45.16559" lon="5.9782">
        <ele>2701.2</ele>
        <time>2021-02-20T13:49:03Z</time>
      </trkpt>
      <trkpt lat="45.16559" lon="5.9782">
        <ele>2701.2</ele>
        <time>2021-02-20T13:49:04Z</time>
      </trkpt>
      <trkpt lat="45.16559" lon="5.9782">
        <ele>2701.2</ele>
        <time>2021-02-20T13:49:05Z</time>
      </trkpt>
      <trkpt lat="45.16559" lon="5.9782">
        <ele>2701.2</ele>
        <time>2021-02-20T13:49:06Z</time>
      </trkpt>
      <trkpt lat="45.16559" lon="5.9782">
        <ele>2701.2</ele>
        <time>2021-02-20T13:49:07Z</time>
      </trkpt>
      <trkpt lat="45.16559" lon="5.9782">
        <ele>2701.2</ele>
        <time>2021-02-20T13:49:08Z</time>
      </trkpt>
      <trkpt lat="45.16559" lon="5.9782">
        <ele>2701.2</ele>
        <time>2021-02-20T13:49:09Z</time>
      </trkpt>
      <trkpt lat="45.16559" lon="5.9782">
        <ele>2701.2</ele>
        <time>2021-02-20T13:49:10Z</time>
      </trkpt>
      <trkpt lat="45.16559" lon="5.9782">
        <ele>2701.2</ele>
        <time>2021-02-20T13:49:11Z</time>
      </trkpt>
      <trkpt lat="45.16559" lon="5.9782">
        <ele>2701.2</ele>
        <time>2021-02-20T13:49:12Z</time>
      </trkpt>
      <trkpt lat="45.16559" lon="5.9782">
        <ele>2701.2</ele>
        <time>2021-02-20T13:49:13Z</time>
      </trkpt>
      <trkpt lat="45.16559" lon="5.9782">
        <ele>2701.2</ele>
        <time>2021-02-20T13:49:14Z</time>
      </trkpt>
      <trkpt lat="45.16559" lon="5.9782">
        <ele>2701.2</ele>
        <time>2021-02-20T13:49:15Z</time>
      </trkpt>
      <trkpt lat="45.16559" lon="5.9782">
        <ele>2701.2</ele>
        <time>2021-02-20T13:49:16Z</time>
      </trkpt>
      <trkpt lat="45.16559" lon="5.9782">
        <ele>2701.2</ele>
        <time>2021-02-20T13:49:17Z</time>
      </trkpt>
      <trkpt lat="45.16559" lon="5.9782">
        <ele>2701.2</ele>
        <time>2021-02-20T13:49:18Z</time>
      </trkpt>
      <trkpt lat="45.16559" lon="5.9782">
        <ele>2701.2</ele>
        <time>2021-02-20T13:49:19Z</time>
      </trkpt>
      <trkpt lat="45.16559" lon="5.9782">
        <ele>2701.2</ele>
        <time>2021-02-20T13:49:20Z</time>
      </trkpt>
      <trkpt lat="45.16559" lon="5.9782">
        <ele>2701.2</ele>
        <time>2021-02-20T13:49:21Z</time>
      </trkpt>
      <trkpt lat="45.16559" lon="5.9782">
        <ele>2701.2</ele>
        <time>2021-02-20T13:49:22Z</time>
      </trkpt>
      <trkpt lat="45.16559" lon="5.9782">
        <ele>2701.2</ele>
        <time>2021-02-20T13:49:23Z</time>
      </trkpt>
      <trkpt lat="45.16559" lon="5.9782">
        <ele>2701.2</ele>
        <time>2021-02-20T13:49:24Z</time>
      </trkpt>
      <trkpt lat="45.16559" lon="5.9782">
        <ele>2701.2</ele>
        <time>2021-02-20T13:49:25Z</time>
      </trkpt>
      <trkpt lat="45.16559" lon="5.9782">
        <ele>2701.2</ele>
        <time>2021-02-20T13:49:26Z</time>
      </trkpt>
      <trkpt lat="45.16559" lon="5.9782">
        <ele>2701.2</ele>
        <time>2021-02-20T13:49:27Z</time>
      </trkpt>
      <trkpt lat="45.16559" lon="5.9782">
        <ele>2701.2</ele>
        <time>2021-02-20T13:49:28Z</time>
      </trkpt>
      <trkpt lat="45.16559" lon="5.9782">
        <ele>2701.2</ele>
        <time>2021-02-20T13:49:29Z</time>
      </trkpt>
      <trkpt lat="45.16559" lon="5.9782">
        <ele>2701.2</ele>
        <time>2021-02-20T13:49:30Z</time>
      </trkpt>
      <trkpt lat="45.16559" lon="5.9782">
        <ele>2701.2</ele>
        <time>2021-02-20T13:49:31Z</time>
      </trkpt>
      <trkpt lat="45.16559" lon="5.9782">
        <ele>2701.2</ele>
        <time>2021-02-20T13:49:32Z</time>
      </trkpt>
      <trkpt lat="45.16559" lon="5.9782">
        <ele>2701.2</ele>
        <time>2021-02-20T13:49:33Z</time>
      </trkpt>
      <trkpt lat="45.16559" lon="5.9782">
        <ele>2701.2</ele>
        <time>2021-02-20T13:49:34Z</time>
      </trkpt>
      <trkpt lat="45.16559" lon="5.9782">
        <ele>2701.2</ele>
        <time>2021-02-20T13:49:35Z</time>
      </trkpt>
      <trkpt lat="45.16559" lon="5.9782">
        <ele>2701.2</ele>
        <time>2021-02-20T13:49:36Z</time>
      </trkpt>
      <trkpt lat="45.16559" lon="5.9782">
        <ele>2701.2</ele>
        <time>2021-02-20T13:49:37Z</time>
      </trkpt>
      <trkpt lat="45.16559" lon="5.9782">
        <ele>2701.2</ele>
        <time>2021-02-20T13:49:38Z</time>
      </trkpt>
      <trkpt lat="45.16559" lon="5.9782">
        <ele>2701.2</ele>
        <time>2021-02-20T13:49:39Z</time>
      </trkpt>
      <trkpt lat="45.16559" lon="5.9782">
        <ele>2701.2</ele>
        <time>2021-02-20T13:49:40Z</time>
      </trkpt>
      <trkpt lat="45.16559" lon="5.9782">
        <ele>2701.2</ele>
        <time>2021-02-20T13:49:41Z</time>
      </trkpt>
      <trkpt lat="45.16559" lon="5.9782">
        <ele>2701.2</ele>
        <time>2021-02-20T13:49:42Z</time>
      </trkpt>
      <trkpt lat="45.16559" lon="5.9782">
        <ele>2701.2</ele>
        <time>2021-02-20T13:49:43Z</time>
      </trkpt>
      <trkpt lat="45.16559" lon="5.9782">
        <ele>2701.2</ele>
        <time>2021-02-20T13:49:44Z</time>
      </trkpt>
      <trkpt lat="45.16559" lon="5.9782">
        <ele>2701.2</ele>
        <time>2021-02-20T13:49:45Z</time>
      </trkpt>
      <trkpt lat="45.16559" lon="5.9782">
        <ele>2701.2</ele>
        <time>2021-02-20T13:49:46Z</time>
      </trkpt>
      <trkpt lat="45.16559" lon="5.9782">
        <ele>2701.2</ele>
        <time>2021-02-20T13:49:47Z</time>
      </trkpt>
      <trkpt lat="45.16559" lon="5.9782">
        <ele>2701.2</ele>
        <time>2021-02-20T13:49:48Z</time>
      </trkpt>
      <trkpt lat="45.16559" lon="5.9782">
        <ele>2701.2</ele>
        <time>2021-02-20T13:49:49Z</time>
      </trkpt>
      <trkpt lat="45.16559" lon="5.9782">
        <ele>2701.2</ele>
        <time>2021-02-20T13:49:50Z</time>
      </trkpt>
      <trkpt lat="45.16559" lon="5.9782">
        <ele>2701.2</ele>
        <time>2021-02-20T13:49:51Z</time>
      </trkpt>
      <trkpt lat="45.16559" lon="5.9782">
        <ele>2701.2</ele>
        <time>2021-02-20T13:49:52Z</time>
      </trkpt>
      <trkpt lat="45.16559" lon="5.9782">
        <ele>2701.2</ele>
        <time>2021-02-20T13:49:53Z</time>
      </trkpt>
      <trkpt lat="45.16559" lon="5.9782">
        <ele>2701.2</ele>
        <time>2021-02-20T13:49:54Z</time>
      </trkpt>
      <trkpt lat="45.16559" lon="5.9782">
        <ele>2701.2</ele>
        <time>2021-02-20T13:49:55Z</time>
      </trkpt>
      <trkpt lat="45.16559" lon="5.9782">
        <ele>2701.2</ele>
        <time>2021-02-20T13:49:56Z</time>
      </trkpt>
      <trkpt lat="45.16559" lon="5.9782">
        <ele>2701.2</ele>
        <time>2021-02-20T13:49:57Z</time>
      </trkpt>
      <trkpt lat="45.16559" lon="5.9782">
        <ele>2701.2</ele>
        <time>2021-02-20T13:49:58Z</time>
      </trkpt>
      <trkpt lat="45.16559" lon="5.9782">
        <ele>2701.2</ele>
        <time>2021-02-20T13:49:59Z</time>
      </trkpt>
      <trkpt lat="45.16559" lon="5.9782">
        <ele>2701.2</ele>
        <time>2021-02-20T13:50:00Z</time>
      </trkpt>
      <trkpt lat="45.16559" lon="5.9782">
        <ele>2701.2</ele>
        <time>2021-02-20T13:50:01Z</time>
      </trkpt>
      <trkpt lat="45.16559" lon="5.9782">
        <ele>2701.2</ele>
        <time>2021-02-20T13:50:02Z</time>
      </trkpt>
      <trkpt lat="45.16559" lon="5.9782">
        <ele>2701.2</ele>
        <time>2021-02-20T13:50:03Z</time>
      </trkpt>
      <trkpt lat="45.16559" lon="5.9782">
        <ele>2701.2</ele>
        <time>2021-02-20T13:50:04Z</time>
      </trkpt>
      <trkpt lat="45.16559" lon="5.9782">
        <ele>2701.2</ele>
        <time>2021-02-20T13:50:05Z</time>
      </trkpt>
      <trkpt lat="45.16559" lon="5.9782">
        <ele>2701.2</ele>
        <time>2021-02-20T13:50:06Z</time>
      </trkpt>
      <trkpt lat="45.16559" lon="5.9782">
        <ele>2701.2</ele>
        <time>2021-02-20T13:50:07Z</time>
      </trkpt>
      <trkpt lat="45.16559" lon="5.9782">
        <ele>2701.2</ele>
        <time>2021-02-20T13:50:08Z</time>
      </trkpt>
      <trkpt lat="45.16559" lon="5.9782">
        <ele>2701.2</ele>
        <time>2021-02-20T13:50:09Z</time>
      </trkpt>
      <trkpt lat="45.16559" lon="5.9782">
        <ele>2701.1</ele>
        <time>2021-02-20T13:50:10Z</time>
      </trkpt>
      <trkpt lat="45.16559" lon="5.9782">
        <ele>2701.1</ele>
        <time>2021-02-20T13:50:11Z</time>
      </trkpt>
      <trkpt lat="45.16559" lon="5.9782">
        <ele>2701.1</ele>
        <time>2021-02-20T13:50:12Z</time>
      </trkpt>
      <trkpt lat="45.16559" lon="5.9782">
        <ele>2701.1</ele>
        <time>2021-02-20T13:50:13Z</time>
      </trkpt>
      <trkpt lat="45.16559" lon="5.9782">
        <ele>2701.1</ele>
        <time>2021-02-20T13:50:14Z</time>
      </trkpt>
      <trkpt lat="45.16559" lon="5.9782">
        <ele>2701.1</ele>
        <time>2021-02-20T13:50:15Z</time>
      </trkpt>
      <trkpt lat="45.16559" lon="5.9782">
        <ele>2701.1</ele>
        <time>2021-02-20T13:50:16Z</time>
      </trkpt>
      <trkpt lat="45.16559" lon="5.9782">
        <ele>2701.1</ele>
        <time>2021-02-20T13:50:17Z</time>
      </trkpt>
      <trkpt lat="45.16559" lon="5.9782">
        <ele>2701.1</ele>
        <time>2021-02-20T13:50:18Z</time>
      </trkpt>
      <trkpt lat="45.16559" lon="5.9782">
        <ele>2701.1</ele>
        <time>2021-02-20T13:50:19Z</time>
      </trkpt>
      <trkpt lat="45.16559" lon="5.9782">
        <ele>2701.1</ele>
        <time>2021-02-20T13:50:20Z</time>
      </trkpt>
      <trkpt lat="45.16559" lon="5.9782">
        <ele>2701.1</ele>
        <time>2021-02-20T13:50:21Z</time>
      </trkpt>
      <trkpt lat="45.16559" lon="5.9782">
        <ele>2701.1</ele>
        <time>2021-02-20T13:50:22Z</time>
      </trkpt>
      <trkpt lat="45.16559" lon="5.9782">
        <ele>2701.1</ele>
        <time>2021-02-20T13:50:23Z</time>
      </trkpt>
      <trkpt lat="45.16559" lon="5.9782">
        <ele>2701.1</ele>
        <time>2021-02-20T13:50:24Z</time>
      </trkpt>
      <trkpt lat="45.16559" lon="5.9782">
        <ele>2701.1</ele>
        <time>2021-02-20T13:50:25Z</time>
      </trkpt>
      <trkpt lat="45.16559" lon="5.9782">
        <ele>2701.1</ele>
        <time>2021-02-20T13:50:26Z</time>
      </trkpt>
      <trkpt lat="45.16559" lon="5.9782">
        <ele>2701.1</ele>
        <time>2021-02-20T13:50:27Z</time>
      </trkpt>
      <trkpt lat="45.16559" lon="5.9782">
        <ele>2701.1</ele>
        <time>2021-02-20T13:50:28Z</time>
      </trkpt>
      <trkpt lat="45.16559" lon="5.9782">
        <ele>2701.1</ele>
        <time>2021-02-20T13:50:29Z</time>
      </trkpt>
      <trkpt lat="45.16559" lon="5.9782">
        <ele>2701.1</ele>
        <time>2021-02-20T13:50:30Z</time>
      </trkpt>
      <trkpt lat="45.16559" lon="5.9782">
        <ele>2701.1</ele>
        <time>2021-02-20T13:50:31Z</time>
      </trkpt>
      <trkpt lat="45.16559" lon="5.9782">
        <ele>2701.1</ele>
        <time>2021-02-20T13:50:32Z</time>
      </trkpt>
      <trkpt lat="45.16559" lon="5.9782">
        <ele>2701.1</ele>
        <time>2021-02-20T13:50:33Z</time>
      </trkpt>
      <trkpt lat="45.16559" lon="5.9782">
        <ele>2701.1</ele>
        <time>2021-02-20T13:50:34Z</time>
      </trkpt>
      <trkpt lat="45.16559" lon="5.9782">
        <ele>2701.1</ele>
        <time>2021-02-20T13:50:35Z</time>
      </trkpt>
      <trkpt lat="45.16559" lon="5.9782">
        <ele>2701.1</ele>
        <time>2021-02-20T13:50:36Z</time>
      </trkpt>
      <trkpt lat="45.16559" lon="5.9782">
        <ele>2701.1</ele>
        <time>2021-02-20T13:50:37Z</time>
      </trkpt>
      <trkpt lat="45.16559" lon="5.9782">
        <ele>2701.1</ele>
        <time>2021-02-20T13:50:38Z</time>
      </trkpt>
      <trkpt lat="45.16559" lon="5.9782">
        <ele>2701.1</ele>
        <time>2021-02-20T13:50:39Z</time>
      </trkpt>
      <trkpt lat="45.16559" lon="5.9782">
        <ele>2701.1</ele>
        <time>2021-02-20T13:50:40Z</time>
      </trkpt>
      <trkpt lat="45.16559" lon="5.9782">
        <ele>2701.1</ele>
        <time>2021-02-20T13:50:41Z</time>
      </trkpt>
      <trkpt lat="45.16559" lon="5.9782">
        <ele>2701.1</ele>
        <time>2021-02-20T13:50:42Z</time>
      </trkpt>
      <trkpt lat="45.16559" lon="5.9782">
        <ele>2701.1</ele>
        <time>2021-02-20T13:50:43Z</time>
      </trkpt>
      <trkpt lat="45.16559" lon="5.9782">
        <ele>2701.1</ele>
        <time>2021-02-20T13:50:44Z</time>
      </trkpt>
      <trkpt lat="45.16559" lon="5.9782">
        <ele>2701.1</ele>
        <time>2021-02-20T13:50:45Z</time>
      </trkpt>
      <trkpt lat="45.16559" lon="5.9782">
        <ele>2701.1</ele>
        <time>2021-02-20T13:50:46Z</time>
      </trkpt>
      <trkpt lat="45.16559" lon="5.9782">
        <ele>2701.1</ele>
        <time>2021-02-20T13:50:47Z</time>
      </trkpt>
      <trkpt lat="45.16559" lon="5.9782">
        <ele>2701.1</ele>
        <time>2021-02-20T13:50:48Z</time>
      </trkpt>
      <trkpt lat="45.16559" lon="5.9782">
        <ele>2701.1</ele>
        <time>2021-02-20T13:50:49Z</time>
      </trkpt>
      <trkpt lat="45.16559" lon="5.9782">
        <ele>2701.1</ele>
        <time>2021-02-20T13:50:50Z</time>
      </trkpt>
      <trkpt lat="45.16559" lon="5.9782">
        <ele>2701.1</ele>
        <time>2021-02-20T13:50:51Z</time>
      </trkpt>
      <trkpt lat="45.16559" lon="5.9782">
        <ele>2701.1</ele>
        <time>2021-02-20T13:50:52Z</time>
      </trkpt>
      <trkpt lat="45.16559" lon="5.9782">
        <ele>2701.1</ele>
        <time>2021-02-20T13:50:53Z</time>
      </trkpt>
      <trkpt lat="45.16559" lon="5.9782">
        <ele>2701.1</ele>
        <time>2021-02-20T13:50:54Z</time>
      </trkpt>
      <trkpt lat="45.16559" lon="5.9782">
        <ele>2701.1</ele>
        <time>2021-02-20T13:50:55Z</time>
      </trkpt>
      <trkpt lat="45.16559" lon="5.9782">
        <ele>2701.1</ele>
        <time>2021-02-20T13:50:56Z</time>
      </trkpt>
      <trkpt lat="45.16559" lon="5.9782">
        <ele>2701.1</ele>
        <time>2021-02-20T13:50:57Z</time>
      </trkpt>
      <trkpt lat="45.16559" lon="5.9782">
        <ele>2701.1</ele>
        <time>2021-02-20T13:50:58Z</time>
      </trkpt>
      <trkpt lat="45.16559" lon="5.9782">
        <ele>2701.1</ele>
        <time>2021-02-20T13:50:59Z</time>
      </trkpt>
      <trkpt lat="45.16559" lon="5.9782">
        <ele>2701.1</ele>
        <time>2021-02-20T13:51:00Z</time>
      </trkpt>
      <trkpt lat="45.16559" lon="5.9782">
        <ele>2701.1</ele>
        <time>2021-02-20T13:51:01Z</time>
      </trkpt>
      <trkpt lat="45.16559" lon="5.9782">
        <ele>2701.1</ele>
        <time>2021-02-20T13:51:02Z</time>
      </trkpt>
      <trkpt lat="45.16559" lon="5.9782">
        <ele>2701.1</ele>
        <time>2021-02-20T13:51:03Z</time>
      </trkpt>
      <trkpt lat="45.16559" lon="5.9782">
        <ele>2701.1</ele>
        <time>2021-02-20T13:51:04Z</time>
      </trkpt>
      <trkpt lat="45.16559" lon="5.9782">
        <ele>2701.1</ele>
        <time>2021-02-20T13:51:05Z</time>
      </trkpt>
      <trkpt lat="45.16559" lon="5.9782">
        <ele>2701.1</ele>
        <time>2021-02-20T13:51:06Z</time>
      </trkpt>
      <trkpt lat="45.16559" lon="5.9782">
        <ele>2701.1</ele>
        <time>2021-02-20T13:51:07Z</time>
      </trkpt>
      <trkpt lat="45.16559" lon="5.9782">
        <ele>2701.1</ele>
        <time>2021-02-20T13:51:08Z</time>
      </trkpt>
      <trkpt lat="45.16559" lon="5.9782">
        <ele>2701.1</ele>
        <time>2021-02-20T13:51:09Z</time>
      </trkpt>
      <trkpt lat="45.16559" lon="5.9782">
        <ele>2701.1</ele>
        <time>2021-02-20T13:51:10Z</time>
      </trkpt>
      <trkpt lat="45.16559" lon="5.9782">
        <ele>2701.1</ele>
        <time>2021-02-20T13:51:11Z</time>
      </trkpt>
      <trkpt lat="45.16559" lon="5.9782">
        <ele>2701.1</ele>
        <time>2021-02-20T13:51:12Z</time>
      </trkpt>
      <trkpt lat="45.16559" lon="5.9782">
        <ele>2701.1</ele>
        <time>2021-02-20T13:51:13Z</time>
      </trkpt>
      <trkpt lat="45.16559" lon="5.9782">
        <ele>2701.1</ele>
        <time>2021-02-20T13:51:14Z</time>
      </trkpt>
      <trkpt lat="45.16559" lon="5.9782">
        <ele>2701.1</ele>
        <time>2021-02-20T13:51:15Z</time>
      </trkpt>
      <trkpt lat="45.16559" lon="5.9782">
        <ele>2701.1</ele>
        <time>2021-02-20T13:51:16Z</time>
      </trkpt>
      <trkpt lat="45.16559" lon="5.9782">
        <ele>2701.1</ele>
        <time>2021-02-20T13:51:17Z</time>
      </trkpt>
      <trkpt lat="45.16559" lon="5.9782">
        <ele>2701.1</ele>
        <time>2021-02-20T13:51:18Z</time>
      </trkpt>
      <trkpt lat="45.16559" lon="5.9782">
        <ele>2701.1</ele>
        <time>2021-02-20T13:51:19Z</time>
      </trkpt>
      <trkpt lat="45.16559" lon="5.9782">
        <ele>2701.1</ele>
        <time>2021-02-20T13:51:20Z</time>
      </trkpt>
      <trkpt lat="45.16559" lon="5.9782">
        <ele>2701.1</ele>
        <time>2021-02-20T13:51:21Z</time>
      </trkpt>
      <trkpt lat="45.16559" lon="5.9782">
        <ele>2701.1</ele>
        <time>2021-02-20T13:51:22Z</time>
      </trkpt>
      <trkpt lat="45.16559" lon="5.9782">
        <ele>2701.1</ele>
        <time>2021-02-20T13:51:23Z</time>
      </trkpt>
      <trkpt lat="45.16559" lon="5.9782">
        <ele>2701.1</ele>
        <time>2021-02-20T13:51:24Z</time>
      </trkpt>
      <trkpt lat="45.16559" lon="5.9782">
        <ele>2701.1</ele>
        <time>2021-02-20T13:51:25Z</time>
      </trkpt>
      <trkpt lat="45.16559" lon="5.9782">
        <ele>2701.1</ele>
        <time>2021-02-20T13:51:26Z</time>
      </trkpt>
      <trkpt lat="45.16559" lon="5.9782">
        <ele>2701.1</ele>
        <time>2021-02-20T13:51:27Z</time>
      </trkpt>
      <trkpt lat="45.16559" lon="5.9782">
        <ele>2701.1</ele>
        <time>2021-02-20T13:51:28Z</time>
      </trkpt>
      <trkpt lat="45.16559" lon="5.9782">
        <ele>2701.1</ele>
        <time>2021-02-20T13:51:29Z</time>
      </trkpt>
      <trkpt lat="45.16559" lon="5.9782">
        <ele>2701.1</ele>
        <time>2021-02-20T13:51:30Z</time>
      </trkpt>
      <trkpt lat="45.16559" lon="5.9782">
        <ele>2701.1</ele>
        <time>2021-02-20T13:51:31Z</time>
      </trkpt>
      <trkpt lat="45.16559" lon="5.9782">
        <ele>2701.1</ele>
        <time>2021-02-20T13:51:32Z</time>
      </trkpt>
      <trkpt lat="45.16559" lon="5.9782">
        <ele>2701.1</ele>
        <time>2021-02-20T13:51:33Z</time>
      </trkpt>
      <trkpt lat="45.16559" lon="5.9782">
        <ele>2701.1</ele>
        <time>2021-02-20T13:51:34Z</time>
      </trkpt>
      <trkpt lat="45.16559" lon="5.9782">
        <ele>2701.1</ele>
        <time>2021-02-20T13:51:35Z</time>
      </trkpt>
      <trkpt lat="45.16559" lon="5.9782">
        <ele>2701.1</ele>
        <time>2021-02-20T13:51:36Z</time>
      </trkpt>
      <trkpt lat="45.16559" lon="5.9782">
        <ele>2701.1</ele>
        <time>2021-02-20T13:51:37Z</time>
      </trkpt>
      <trkpt lat="45.16559" lon="5.9782">
        <ele>2701.1</ele>
        <time>2021-02-20T13:51:38Z</time>
      </trkpt>
      <trkpt lat="45.16559" lon="5.9782">
        <ele>2701.1</ele>
        <time>2021-02-20T13:51:39Z</time>
      </trkpt>
      <trkpt lat="45.16559" lon="5.9782">
        <ele>2701.1</ele>
        <time>2021-02-20T13:51:40Z</time>
      </trkpt>
      <trkpt lat="45.16559" lon="5.9782">
        <ele>2701.1</ele>
        <time>2021-02-20T13:51:41Z</time>
      </trkpt>
      <trkpt lat="45.16559" lon="5.9782">
        <ele>2701.1</ele>
        <time>2021-02-20T13:51:42Z</time>
      </trkpt>
      <trkpt lat="45.16559" lon="5.9782">
        <ele>2701.1</ele>
        <time>2021-02-20T13:51:43Z</time>
      </trkpt>
      <trkpt lat="45.16559" lon="5.9782">
        <ele>2701.1</ele>
        <time>2021-02-20T13:51:44Z</time>
      </trkpt>
      <trkpt lat="45.16559" lon="5.9782">
        <ele>2701.1</ele>
        <time>2021-02-20T13:51:45Z</time>
      </trkpt>
      <trkpt lat="45.16559" lon="5.9782">
        <ele>2701.1</ele>
        <time>2021-02-20T13:51:46Z</time>
      </trkpt>
      <trkpt lat="45.16559" lon="5.9782">
        <ele>2701.1</ele>
        <time>2021-02-20T13:51:47Z</time>
      </trkpt>
      <trkpt lat="45.16559" lon="5.9782">
        <ele>2701.1</ele>
        <time>2021-02-20T13:51:48Z</time>
      </trkpt>
      <trkpt lat="45.16559" lon="5.9782">
        <ele>2701.1</ele>
        <time>2021-02-20T13:51:49Z</time>
      </trkpt>
      <trkpt lat="45.16559" lon="5.9782">
        <ele>2701.1</ele>
        <time>2021-02-20T13:51:50Z</time>
      </trkpt>
      <trkpt lat="45.16559" lon="5.9782">
        <ele>2701.1</ele>
        <time>2021-02-20T13:51:51Z</time>
      </trkpt>
      <trkpt lat="45.16559" lon="5.9782">
        <ele>2701.1</ele>
        <time>2021-02-20T13:51:52Z</time>
      </trkpt>
      <trkpt lat="45.16559" lon="5.9782">
        <ele>2701.1</ele>
        <time>2021-02-20T13:51:53Z</time>
      </trkpt>
      <trkpt lat="45.16559" lon="5.9782">
        <ele>2701.1</ele>
        <time>2021-02-20T13:51:54Z</time>
      </trkpt>
      <trkpt lat="45.16559" lon="5.9782">
        <ele>2701.1</ele>
        <time>2021-02-20T13:51:55Z</time>
      </trkpt>
      <trkpt lat="45.16559" lon="5.9782">
        <ele>2701.1</ele>
        <time>2021-02-20T13:51:56Z</time>
      </trkpt>
      <trkpt lat="45.16559" lon="5.9782">
        <ele>2701.1</ele>
        <time>2021-02-20T13:51:57Z</time>
      </trkpt>
      <trkpt lat="45.16559" lon="5.9782">
        <ele>2701.1</ele>
        <time>2021-02-20T13:51:58Z</time>
      </trkpt>
      <trkpt lat="45.16559" lon="5.9782">
        <ele>2701.1</ele>
        <time>2021-02-20T13:51:59Z</time>
      </trkpt>
      <trkpt lat="45.16559" lon="5.9782">
        <ele>2701.1</ele>
        <time>2021-02-20T13:52:00Z</time>
      </trkpt>
      <trkpt lat="45.16559" lon="5.9782">
        <ele>2701.1</ele>
        <time>2021-02-20T13:52:01Z</time>
      </trkpt>
      <trkpt lat="45.16559" lon="5.9782">
        <ele>2701.1</ele>
        <time>2021-02-20T13:52:02Z</time>
      </trkpt>
      <trkpt lat="45.16559" lon="5.9782">
        <ele>2701.1</ele>
        <time>2021-02-20T13:52:03Z</time>
      </trkpt>
      <trkpt lat="45.16559" lon="5.9782">
        <ele>2701.1</ele>
        <time>2021-02-20T13:52:04Z</time>
      </trkpt>
      <trkpt lat="45.16559" lon="5.9782">
        <ele>2701.1</ele>
        <time>2021-02-20T13:52:05Z</time>
      </trkpt>
      <trkpt lat="45.16559" lon="5.9782">
        <ele>2701.1</ele>
        <time>2021-02-20T13:52:06Z</time>
      </trkpt>
      <trkpt lat="45.16559" lon="5.9782">
        <ele>2701.1</ele>
        <time>2021-02-20T13:52:07Z</time>
      </trkpt>
      <trkpt lat="45.16559" lon="5.9782">
        <ele>2701.1</ele>
        <time>2021-02-20T13:52:08Z</time>
      </trkpt>
      <trkpt lat="45.16559" lon="5.9782">
        <ele>2701.1</ele>
        <time>2021-02-20T13:52:09Z</time>
      </trkpt>
      <trkpt lat="45.16559" lon="5.9782">
        <ele>2701.1</ele>
        <time>2021-02-20T13:52:10Z</time>
      </trkpt>
      <trkpt lat="45.16559" lon="5.9782">
        <ele>2701.1</ele>
        <time>2021-02-20T13:52:11Z</time>
      </trkpt>
      <trkpt lat="45.16559" lon="5.9782">
        <ele>2701.1</ele>
        <time>2021-02-20T13:52:12Z</time>
      </trkpt>
      <trkpt lat="45.16559" lon="5.9782">
        <ele>2701.1</ele>
        <time>2021-02-20T13:52:13Z</time>
      </trkpt>
      <trkpt lat="45.16559" lon="5.9782">
        <ele>2701.1</ele>
        <time>2021-02-20T13:52:14Z</time>
      </trkpt>
      <trkpt lat="45.16559" lon="5.9782">
        <ele>2701.1</ele>
        <time>2021-02-20T13:52:15Z</time>
      </trkpt>
      <trkpt lat="45.16559" lon="5.9782">
        <ele>2701.1</ele>
        <time>2021-02-20T13:52:16Z</time>
      </trkpt>
      <trkpt lat="45.16559" lon="5.9782">
        <ele>2701.1</ele>
        <time>2021-02-20T13:52:17Z</time>
      </trkpt>
      <trkpt lat="45.16559" lon="5.9782">
        <ele>2701.1</ele>
        <time>2021-02-20T13:52:18Z</time>
      </trkpt>
      <trkpt lat="45.16559" lon="5.9782">
        <ele>2701.1</ele>
        <time>2021-02-20T13:52:19Z</time>
      </trkpt>
      <trkpt lat="45.16559" lon="5.9782">
        <ele>2701.1</ele>
        <time>2021-02-20T13:52:20Z</time>
      </trkpt>
      <trkpt lat="45.16559" lon="5.9782">
        <ele>2701.1</ele>
        <time>2021-02-20T13:52:21Z</time>
      </trkpt>
      <trkpt lat="45.16559" lon="5.9782">
        <ele>2701.1</ele>
        <time>2021-02-20T13:52:22Z</time>
      </trkpt>
      <trkpt lat="45.16559" lon="5.9782">
        <ele>2701.1</ele>
        <time>2021-02-20T13:52:23Z</time>
      </trkpt>
      <trkpt lat="45.16559" lon="5.9782">
        <ele>2701.1</ele>
        <time>2021-02-20T13:52:24Z</time>
      </trkpt>
      <trkpt lat="45.16559" lon="5.9782">
        <ele>2701.1</ele>
        <time>2021-02-20T13:52:25Z</time>
      </trkpt>
      <trkpt lat="45.16559" lon="5.9782">
        <ele>2701.1</ele>
        <time>2021-02-20T13:52:26Z</time>
      </trkpt>
      <trkpt lat="45.16559" lon="5.9782">
        <ele>2701.1</ele>
        <time>2021-02-20T13:52:27Z</time>
      </trkpt>
      <trkpt lat="45.16559" lon="5.9782">
        <ele>2701.1</ele>
        <time>2021-02-20T13:52:28Z</time>
      </trkpt>
      <trkpt lat="45.16559" lon="5.9782">
        <ele>2701.1</ele>
        <time>2021-02-20T13:52:29Z</time>
      </trkpt>
      <trkpt lat="45.16559" lon="5.9782">
        <ele>2701.1</ele>
        <time>2021-02-20T13:52:30Z</time>
      </trkpt>
      <trkpt lat="45.16559" lon="5.9782">
        <ele>2701.1</ele>
        <time>2021-02-20T13:52:31Z</time>
      </trkpt>
      <trkpt lat="45.16559" lon="5.9782">
        <ele>2701.1</ele>
        <time>2021-02-20T13:52:32Z</time>
      </trkpt>
      <trkpt lat="45.16559" lon="5.9782">
        <ele>2701.1</ele>
        <time>2021-02-20T13:52:33Z</time>
      </trkpt>
      <trkpt lat="45.16559" lon="5.9782">
        <ele>2701.1</ele>
        <time>2021-02-20T13:52:34Z</time>
      </trkpt>
      <trkpt lat="45.16559" lon="5.9782">
        <ele>2701.1</ele>
        <time>2021-02-20T13:52:35Z</time>
      </trkpt>
      <trkpt lat="45.16559" lon="5.9782">
        <ele>2701.1</ele>
        <time>2021-02-20T13:52:36Z</time>
      </trkpt>
      <trkpt lat="45.16559" lon="5.9782">
        <ele>2701.1</ele>
        <time>2021-02-20T13:52:37Z</time>
      </trkpt>
      <trkpt lat="45.16559" lon="5.9782">
        <ele>2701.1</ele>
        <time>2021-02-20T13:52:38Z</time>
      </trkpt>
      <trkpt lat="45.16559" lon="5.9782">
        <ele>2701.1</ele>
        <time>2021-02-20T13:52:39Z</time>
      </trkpt>
      <trkpt lat="45.16559" lon="5.9782">
        <ele>2701.1</ele>
        <time>2021-02-20T13:52:40Z</time>
      </trkpt>
      <trkpt lat="45.16559" lon="5.9782">
        <ele>2701.1</ele>
        <time>2021-02-20T13:52:41Z</time>
      </trkpt>
      <trkpt lat="45.16559" lon="5.9782">
        <ele>2701.1</ele>
        <time>2021-02-20T13:52:42Z</time>
      </trkpt>
      <trkpt lat="45.16559" lon="5.9782">
        <ele>2701.1</ele>
        <time>2021-02-20T13:52:43Z</time>
      </trkpt>
      <trkpt lat="45.16559" lon="5.9782">
        <ele>2701.1</ele>
        <time>2021-02-20T13:52:44Z</time>
      </trkpt>
      <trkpt lat="45.16559" lon="5.9782">
        <ele>2701.1</ele>
        <time>2021-02-20T13:52:45Z</time>
      </trkpt>
      <trkpt lat="45.16559" lon="5.9782">
        <ele>2701.1</ele>
        <time>2021-02-20T13:52:46Z</time>
      </trkpt>
      <trkpt lat="45.16559" lon="5.9782">
        <ele>2701.1</ele>
        <time>2021-02-20T13:52:47Z</time>
      </trkpt>
      <trkpt lat="45.16559" lon="5.9782">
        <ele>2701.1</ele>
        <time>2021-02-20T13:52:48Z</time>
      </trkpt>
      <trkpt lat="45.16559" lon="5.9782">
        <ele>2701.1</ele>
        <time>2021-02-20T13:52:49Z</time>
      </trkpt>
      <trkpt lat="45.16559" lon="5.9782">
        <ele>2701.1</ele>
        <time>2021-02-20T13:52:50Z</time>
      </trkpt>
      <trkpt lat="45.16559" lon="5.9782">
        <ele>2701.1</ele>
        <time>2021-02-20T13:52:51Z</time>
      </trkpt>
      <trkpt lat="45.16559" lon="5.9782">
        <ele>2701.1</ele>
        <time>2021-02-20T13:52:52Z</time>
      </trkpt>
      <trkpt lat="45.16559" lon="5.9782">
        <ele>2701.1</ele>
        <time>2021-02-20T13:52:53Z</time>
      </trkpt>
      <trkpt lat="45.16559" lon="5.9782">
        <ele>2701.1</ele>
        <time>2021-02-20T13:52:54Z</time>
      </trkpt>
      <trkpt lat="45.16559" lon="5.9782">
        <ele>2701.1</ele>
        <time>2021-02-20T13:52:55Z</time>
      </trkpt>
      <trkpt lat="45.16559" lon="5.9782">
        <ele>2701.1</ele>
        <time>2021-02-20T13:52:56Z</time>
      </trkpt>
      <trkpt lat="45.16559" lon="5.9782">
        <ele>2701.1</ele>
        <time>2021-02-20T13:52:57Z</time>
      </trkpt>
      <trkpt lat="45.16559" lon="5.9782">
        <ele>2701.1</ele>
        <time>2021-02-20T13:52:58Z</time>
      </trkpt>
      <trkpt lat="45.16559" lon="5.9782">
        <ele>2701.1</ele>
        <time>2021-02-20T13:52:59Z</time>
      </trkpt>
      <trkpt lat="45.16559" lon="5.9782">
        <ele>2701.1</ele>
        <time>2021-02-20T13:53:00Z</time>
      </trkpt>
      <trkpt lat="45.16559" lon="5.9782">
        <ele>2701.1</ele>
        <time>2021-02-20T13:53:01Z</time>
      </trkpt>
      <trkpt lat="45.16559" lon="5.9782">
        <ele>2701.1</ele>
        <time>2021-02-20T13:53:02Z</time>
      </trkpt>
      <trkpt lat="45.16559" lon="5.9782">
        <ele>2701.1</ele>
        <time>2021-02-20T13:53:03Z</time>
      </trkpt>
      <trkpt lat="45.16559" lon="5.9782">
        <ele>2701.1</ele>
        <time>2021-02-20T13:53:04Z</time>
      </trkpt>
      <trkpt lat="45.16559" lon="5.9782">
        <ele>2701.1</ele>
        <time>2021-02-20T13:53:05Z</time>
      </trkpt>
      <trkpt lat="45.16559" lon="5.9782">
        <ele>2701.1</ele>
        <time>2021-02-20T13:53:06Z</time>
      </trkpt>
      <trkpt lat="45.16559" lon="5.9782">
        <ele>2701.1</ele>
        <time>2021-02-20T13:53:07Z</time>
      </trkpt>
      <trkpt lat="45.16559" lon="5.9782">
        <ele>2701.1</ele>
        <time>2021-02-20T13:53:08Z</time>
      </trkpt>
      <trkpt lat="45.16559" lon="5.9782">
        <ele>2701.1</ele>
        <time>2021-02-20T13:53:09Z</time>
      </trkpt>
      <trkpt lat="45.16559" lon="5.9782">
        <ele>2701.1</ele>
        <time>2021-02-20T13:53:10Z</time>
      </trkpt>
      <trkpt lat="45.16559" lon="5.9782">
        <ele>2701.1</ele>
        <time>2021-02-20T13:53:11Z</time>
      </trkpt>
      <trkpt lat="45.16559" lon="5.9782">
        <ele>2701.1</ele>
        <time>2021-02-20T13:53:12Z</time>
      </trkpt>
      <trkpt lat="45.16559" lon="5.9782">
        <ele>2701.1</ele>
        <time>2021-02-20T13:53:13Z</time>
      </trkpt>
      <trkpt lat="45.16559" lon="5.9782">
        <ele>2701.1</ele>
        <time>2021-02-20T13:53:14Z</time>
      </trkpt>
      <trkpt lat="45.16559" lon="5.9782">
        <ele>2701.1</ele>
        <time>2021-02-20T13:53:15Z</time>
      </trkpt>
      <trkpt lat="45.16559" lon="5.9782">
        <ele>2701.1</ele>
        <time>2021-02-20T13:53:16Z</time>
      </trkpt>
      <trkpt lat="45.16559" lon="5.9782">
        <ele>2701.1</ele>
        <time>2021-02-20T13:53:17Z</time>
      </trkpt>
      <trkpt lat="45.16559" lon="5.9782">
        <ele>2701.1</ele>
        <time>2021-02-20T13:53:18Z</time>
      </trkpt>
      <trkpt lat="45.16559" lon="5.9782">
        <ele>2701.1</ele>
        <time>2021-02-20T13:53:19Z</time>
      </trkpt>
      <trkpt lat="45.16559" lon="5.9782">
        <ele>2701.1</ele>
        <time>2021-02-20T13:53:20Z</time>
      </trkpt>
      <trkpt lat="45.16559" lon="5.9782">
        <ele>2701.1</ele>
        <time>2021-02-20T13:53:21Z</time>
      </trkpt>
      <trkpt lat="45.16559" lon="5.9782">
        <ele>2701.1</ele>
        <time>2021-02-20T13:53:22Z</time>
      </trkpt>
      <trkpt lat="45.16559" lon="5.9782">
        <ele>2701.1</ele>
        <time>2021-02-20T13:53:23Z</time>
      </trkpt>
      <trkpt lat="45.16559" lon="5.9782">
        <ele>2701.1</ele>
        <time>2021-02-20T13:53:24Z</time>
      </trkpt>
      <trkpt lat="45.16559" lon="5.9782">
        <ele>2701.1</ele>
        <time>2021-02-20T13:53:25Z</time>
      </trkpt>
      <trkpt lat="45.16559" lon="5.9782">
        <ele>2701.1</ele>
        <time>2021-02-20T13:53:26Z</time>
      </trkpt>
      <trkpt lat="45.16559" lon="5.9782">
        <ele>2701.1</ele>
        <time>2021-02-20T13:53:27Z</time>
      </trkpt>
      <trkpt lat="45.16559" lon="5.9782">
        <ele>2701.1</ele>
        <time>2021-02-20T13:53:28Z</time>
      </trkpt>
      <trkpt lat="45.16559" lon="5.9782">
        <ele>2701.1</ele>
        <time>2021-02-20T13:53:29Z</time>
      </trkpt>
      <trkpt lat="45.16559" lon="5.9782">
        <ele>2701.1</ele>
        <time>2021-02-20T13:53:30Z</time>
      </trkpt>
      <trkpt lat="45.16559" lon="5.9782">
        <ele>2701.1</ele>
        <time>2021-02-20T13:53:31Z</time>
      </trkpt>
      <trkpt lat="45.16559" lon="5.9782">
        <ele>2701.1</ele>
        <time>2021-02-20T13:53:32Z</time>
      </trkpt>
      <trkpt lat="45.16559" lon="5.9782">
        <ele>2701.1</ele>
        <time>2021-02-20T13:53:33Z</time>
      </trkpt>
      <trkpt lat="45.16559" lon="5.9782">
        <ele>2701.1</ele>
        <time>2021-02-20T13:53:34Z</time>
      </trkpt>
      <trkpt lat="45.16559" lon="5.9782">
        <ele>2701.1</ele>
        <time>2021-02-20T13:53:35Z</time>
      </trkpt>
      <trkpt lat="45.16559" lon="5.9782">
        <ele>2701.1</ele>
        <time>2021-02-20T13:53:36Z</time>
      </trkpt>
      <trkpt lat="45.16559" lon="5.9782">
        <ele>2701.1</ele>
        <time>2021-02-20T13:53:37Z</time>
      </trkpt>
      <trkpt lat="45.16559" lon="5.9782">
        <ele>2701.1</ele>
        <time>2021-02-20T13:53:38Z</time>
      </trkpt>
      <trkpt lat="45.16559" lon="5.9782">
        <ele>2701.1</ele>
        <time>2021-02-20T13:53:39Z</time>
      </trkpt>
      <trkpt lat="45.16559" lon="5.9782">
        <ele>2701.1</ele>
        <time>2021-02-20T13:53:40Z</time>
      </trkpt>
      <trkpt lat="45.16559" lon="5.9782">
        <ele>2701.1</ele>
        <time>2021-02-20T13:53:41Z</time>
      </trkpt>
      <trkpt lat="45.16559" lon="5.9782">
        <ele>2701.1</ele>
        <time>2021-02-20T13:53:42Z</time>
      </trkpt>
      <trkpt lat="45.16559" lon="5.9782">
        <ele>2701.1</ele>
        <time>2021-02-20T13:53:43Z</time>
      </trkpt>
      <trkpt lat="45.16559" lon="5.9782">
        <ele>2701.1</ele>
        <time>2021-02-20T13:53:44Z</time>
      </trkpt>
      <trkpt lat="45.16559" lon="5.9782">
        <ele>2701.1</ele>
        <time>2021-02-20T13:53:45Z</time>
      </trkpt>
      <trkpt lat="45.16559" lon="5.9782">
        <ele>2701.1</ele>
        <time>2021-02-20T13:53:46Z</time>
      </trkpt>
      <trkpt lat="45.16559" lon="5.9782">
        <ele>2701.1</ele>
        <time>2021-02-20T13:53:47Z</time>
      </trkpt>
      <trkpt lat="45.16559" lon="5.9782">
        <ele>2701.1</ele>
        <time>2021-02-20T13:53:48Z</time>
      </trkpt>
      <trkpt lat="45.16559" lon="5.9782">
        <ele>2701.1</ele>
        <time>2021-02-20T13:53:49Z</time>
      </trkpt>
      <trkpt lat="45.16559" lon="5.9782">
        <ele>2701.1</ele>
        <time>2021-02-20T13:53:50Z</time>
      </trkpt>
      <trkpt lat="45.16559" lon="5.9782">
        <ele>2701.1</ele>
        <time>2021-02-20T13:53:51Z</time>
      </trkpt>
      <trkpt lat="45.16559" lon="5.9782">
        <ele>2701.1</ele>
        <time>2021-02-20T13:53:52Z</time>
      </trkpt>
      <trkpt lat="45.16559" lon="5.9782">
        <ele>2701.1</ele>
        <time>2021-02-20T13:53:53Z</time>
      </trkpt>
      <trkpt lat="45.16559" lon="5.9782">
        <ele>2701.1</ele>
        <time>2021-02-20T13:53:54Z</time>
      </trkpt>
      <trkpt lat="45.16559" lon="5.9782">
        <ele>2701.1</ele>
        <time>2021-02-20T13:53:55Z</time>
      </trkpt>
      <trkpt lat="45.16559" lon="5.9782">
        <ele>2701.1</ele>
        <time>2021-02-20T13:53:56Z</time>
      </trkpt>
      <trkpt lat="45.16559" lon="5.9782">
        <ele>2701.1</ele>
        <time>2021-02-20T13:53:57Z</time>
      </trkpt>
      <trkpt lat="45.16559" lon="5.9782">
        <ele>2701.1</ele>
        <time>2021-02-20T13:53:58Z</time>
      </trkpt>
      <trkpt lat="45.16559" lon="5.9782">
        <ele>2701.1</ele>
        <time>2021-02-20T13:53:59Z</time>
      </trkpt>
      <trkpt lat="45.16559" lon="5.9782">
        <ele>2701.1</ele>
        <time>2021-02-20T13:54:00Z</time>
      </trkpt>
      <trkpt lat="45.16559" lon="5.9782">
        <ele>2701.1</ele>
        <time>2021-02-20T13:54:01Z</time>
      </trkpt>
      <trkpt lat="45.16559" lon="5.9782">
        <ele>2701.1</ele>
        <time>2021-02-20T13:54:02Z</time>
      </trkpt>
      <trkpt lat="45.16559" lon="5.9782">
        <ele>2701.1</ele>
        <time>2021-02-20T13:54:03Z</time>
      </trkpt>
      <trkpt lat="45.16559" lon="5.9782">
        <ele>2701.1</ele>
        <time>2021-02-20T13:54:04Z</time>
      </trkpt>
      <trkpt lat="45.16559" lon="5.9782">
        <ele>2701.1</ele>
        <time>2021-02-20T13:54:05Z</time>
      </trkpt>
      <trkpt lat="45.16559" lon="5.9782">
        <ele>2701.1</ele>
        <time>2021-02-20T13:54:06Z</time>
      </trkpt>
      <trkpt lat="45.16559" lon="5.9782">
        <ele>2701.1</ele>
        <time>2021-02-20T13:54:07Z</time>
      </trkpt>
      <trkpt lat="45.16559" lon="5.9782">
        <ele>2701.1</ele>
        <time>2021-02-20T13:54:08Z</time>
      </trkpt>
      <trkpt lat="45.16559" lon="5.9782">
        <ele>2701.1</ele>
        <time>2021-02-20T13:54:09Z</time>
      </trkpt>
      <trkpt lat="45.16559" lon="5.9782">
        <ele>2701.1</ele>
        <time>2021-02-20T13:54:10Z</time>
      </trkpt>
      <trkpt lat="45.16559" lon="5.9782">
        <ele>2701.1</ele>
        <time>2021-02-20T13:54:11Z</time>
      </trkpt>
      <trkpt lat="45.16559" lon="5.9782">
        <ele>2701.1</ele>
        <time>2021-02-20T13:54:12Z</time>
      </trkpt>
      <trkpt lat="45.16559" lon="5.9782">
        <ele>2701.1</ele>
        <time>2021-02-20T13:54:13Z</time>
      </trkpt>
      <trkpt lat="45.16559" lon="5.9782">
        <ele>2701.1</ele>
        <time>2021-02-20T13:54:14Z</time>
      </trkpt>
      <trkpt lat="45.16559" lon="5.9782">
        <ele>2701.1</ele>
        <time>2021-02-20T13:54:15Z</time>
      </trkpt>
      <trkpt lat="45.16559" lon="5.9782">
        <ele>2701.1</ele>
        <time>2021-02-20T13:54:16Z</time>
      </trkpt>
      <trkpt lat="45.16559" lon="5.9782">
        <ele>2701.1</ele>
        <time>2021-02-20T13:54:17Z</time>
      </trkpt>
      <trkpt lat="45.16559" lon="5.9782">
        <ele>2701.1</ele>
        <time>2021-02-20T13:54:18Z</time>
      </trkpt>
      <trkpt lat="45.16559" lon="5.9782">
        <ele>2701.1</ele>
        <time>2021-02-20T13:54:19Z</time>
      </trkpt>
      <trkpt lat="45.16559" lon="5.9782">
        <ele>2701.1</ele>
        <time>2021-02-20T13:54:20Z</time>
      </trkpt>
      <trkpt lat="45.16559" lon="5.9782">
        <ele>2701.1</ele>
        <time>2021-02-20T13:54:21Z</time>
      </trkpt>
      <trkpt lat="45.16559" lon="5.9782">
        <ele>2701.1</ele>
        <time>2021-02-20T13:54:22Z</time>
      </trkpt>
      <trkpt lat="45.16559" lon="5.9782">
        <ele>2701.1</ele>
        <time>2021-02-20T13:54:23Z</time>
      </trkpt>
      <trkpt lat="45.16559" lon="5.9782">
        <ele>2701.1</ele>
        <time>2021-02-20T13:54:24Z</time>
      </trkpt>
      <trkpt lat="45.16559" lon="5.9782">
        <ele>2701.1</ele>
        <time>2021-02-20T13:54:25Z</time>
      </trkpt>
      <trkpt lat="45.16559" lon="5.9782">
        <ele>2701.1</ele>
        <time>2021-02-20T13:54:26Z</time>
      </trkpt>
      <trkpt lat="45.16559" lon="5.9782">
        <ele>2701.1</ele>
        <time>2021-02-20T13:54:27Z</time>
      </trkpt>
      <trkpt lat="45.16559" lon="5.9782">
        <ele>2701.1</ele>
        <time>2021-02-20T13:54:28Z</time>
      </trkpt>
      <trkpt lat="45.16559" lon="5.9782">
        <ele>2701.1</ele>
        <time>2021-02-20T13:54:29Z</time>
      </trkpt>
      <trkpt lat="45.16559" lon="5.9782">
        <ele>2701.1</ele>
        <time>2021-02-20T13:54:30Z</time>
      </trkpt>
      <trkpt lat="45.16559" lon="5.9782">
        <ele>2701.1</ele>
        <time>2021-02-20T13:54:31Z</time>
      </trkpt>
      <trkpt lat="45.16559" lon="5.9782">
        <ele>2701.1</ele>
        <time>2021-02-20T13:54:32Z</time>
      </trkpt>
      <trkpt lat="45.16559" lon="5.9782">
        <ele>2701.1</ele>
        <time>2021-02-20T13:54:33Z</time>
      </trkpt>
      <trkpt lat="45.16559" lon="5.9782">
        <ele>2701.1</ele>
        <time>2021-02-20T13:54:34Z</time>
      </trkpt>
      <trkpt lat="45.16559" lon="5.9782">
        <ele>2701.1</ele>
        <time>2021-02-20T13:54:35Z</time>
      </trkpt>
      <trkpt lat="45.16559" lon="5.9782">
        <ele>2701.1</ele>
        <time>2021-02-20T13:54:36Z</time>
      </trkpt>
      <trkpt lat="45.16559" lon="5.9782">
        <ele>2701.1</ele>
        <time>2021-02-20T13:54:37Z</time>
      </trkpt>
      <trkpt lat="45.16559" lon="5.9782">
        <ele>2701.1</ele>
        <time>2021-02-20T13:54:38Z</time>
      </trkpt>
      <trkpt lat="45.16559" lon="5.9782">
        <ele>2701.1</ele>
        <time>2021-02-20T13:54:39Z</time>
      </trkpt>
      <trkpt lat="45.16559" lon="5.9782">
        <ele>2701.1</ele>
        <time>2021-02-20T13:54:40Z</time>
      </trkpt>
      <trkpt lat="45.16559" lon="5.9782">
        <ele>2701.1</ele>
        <time>2021-02-20T13:54:41Z</time>
      </trkpt>
      <trkpt lat="45.16559" lon="5.9782">
        <ele>2701.1</ele>
        <time>2021-02-20T13:54:42Z</time>
      </trkpt>
      <trkpt lat="45.16559" lon="5.9782">
        <ele>2701.1</ele>
        <time>2021-02-20T13:54:43Z</time>
      </trkpt>
      <trkpt lat="45.16559" lon="5.9782">
        <ele>2701.1</ele>
        <time>2021-02-20T13:54:44Z</time>
      </trkpt>
      <trkpt lat="45.16559" lon="5.9782">
        <ele>2701.1</ele>
        <time>2021-02-20T13:54:45Z</time>
      </trkpt>
      <trkpt lat="45.16559" lon="5.9782">
        <ele>2701.1</ele>
        <time>2021-02-20T13:54:46Z</time>
      </trkpt>
      <trkpt lat="45.16559" lon="5.9782">
        <ele>2701.1</ele>
        <time>2021-02-20T13:54:47Z</time>
      </trkpt>
      <trkpt lat="45.16559" lon="5.9782">
        <ele>2701.1</ele>
        <time>2021-02-20T13:54:48Z</time>
      </trkpt>
      <trkpt lat="45.16559" lon="5.9782">
        <ele>2701.1</ele>
        <time>2021-02-20T13:54:49Z</time>
      </trkpt>
      <trkpt lat="45.16559" lon="5.9782">
        <ele>2701.1</ele>
        <time>2021-02-20T13:54:50Z</time>
      </trkpt>
      <trkpt lat="45.16559" lon="5.9782">
        <ele>2701.1</ele>
        <time>2021-02-20T13:54:51Z</time>
      </trkpt>
      <trkpt lat="45.16559" lon="5.9782">
        <ele>2701.1</ele>
        <time>2021-02-20T13:54:52Z</time>
      </trkpt>
      <trkpt lat="45.16559" lon="5.9782">
        <ele>2701.1</ele>
        <time>2021-02-20T13:54:53Z</time>
      </trkpt>
      <trkpt lat="45.16559" lon="5.9782">
        <ele>2701.1</ele>
        <time>2021-02-20T13:54:54Z</time>
      </trkpt>
      <trkpt lat="45.16559" lon="5.9782">
        <ele>2701.1</ele>
        <time>2021-02-20T13:54:55Z</time>
      </trkpt>
      <trkpt lat="45.16559" lon="5.9782">
        <ele>2701.1</ele>
        <time>2021-02-20T13:54:56Z</time>
      </trkpt>
      <trkpt lat="45.16559" lon="5.9782">
        <ele>2701.1</ele>
        <time>2021-02-20T13:54:57Z</time>
      </trkpt>
      <trkpt lat="45.16559" lon="5.9782">
        <ele>2701.1</ele>
        <time>2021-02-20T13:54:58Z</time>
      </trkpt>
      <trkpt lat="45.16559" lon="5.9782">
        <ele>2701.1</ele>
        <time>2021-02-20T13:54:59Z</time>
      </trkpt>
      <trkpt lat="45.16559" lon="5.9782">
        <ele>2701.1</ele>
        <time>2021-02-20T13:55:00Z</time>
      </trkpt>
      <trkpt lat="45.16559" lon="5.9782">
        <ele>2701.1</ele>
        <time>2021-02-20T13:55:01Z</time>
      </trkpt>
      <trkpt lat="45.16559" lon="5.9782">
        <ele>2701.1</ele>
        <time>2021-02-20T13:55:02Z</time>
      </trkpt>
      <trkpt lat="45.16559" lon="5.9782">
        <ele>2701.1</ele>
        <time>2021-02-20T13:55:03Z</time>
      </trkpt>
      <trkpt lat="45.16559" lon="5.9782">
        <ele>2701.1</ele>
        <time>2021-02-20T13:55:04Z</time>
      </trkpt>
      <trkpt lat="45.16559" lon="5.9782">
        <ele>2701.1</ele>
        <time>2021-02-20T13:55:05Z</time>
      </trkpt>
      <trkpt lat="45.16559" lon="5.9782">
        <ele>2701.1</ele>
        <time>2021-02-20T13:55:06Z</time>
      </trkpt>
      <trkpt lat="45.16559" lon="5.9782">
        <ele>2701.1</ele>
        <time>2021-02-20T13:55:07Z</time>
      </trkpt>
      <trkpt lat="45.16559" lon="5.9782">
        <ele>2701.1</ele>
        <time>2021-02-20T13:55:08Z</time>
      </trkpt>
      <trkpt lat="45.16559" lon="5.9782">
        <ele>2701.1</ele>
        <time>2021-02-20T13:55:09Z</time>
      </trkpt>
      <trkpt lat="45.16559" lon="5.9782">
        <ele>2701.1</ele>
        <time>2021-02-20T13:55:10Z</time>
      </trkpt>
      <trkpt lat="45.16559" lon="5.9782">
        <ele>2701.1</ele>
        <time>2021-02-20T13:55:11Z</time>
      </trkpt>
      <trkpt lat="45.16559" lon="5.9782">
        <ele>2701.1</ele>
        <time>2021-02-20T13:55:12Z</time>
      </trkpt>
      <trkpt lat="45.16559" lon="5.9782">
        <ele>2701.1</ele>
        <time>2021-02-20T13:55:13Z</time>
      </trkpt>
      <trkpt lat="45.16559" lon="5.9782">
        <ele>2701.1</ele>
        <time>2021-02-20T13:55:14Z</time>
      </trkpt>
      <trkpt lat="45.16559" lon="5.9782">
        <ele>2701.1</ele>
        <time>2021-02-20T13:55:15Z</time>
      </trkpt>
      <trkpt lat="45.16559" lon="5.9782">
        <ele>2701.1</ele>
        <time>2021-02-20T13:55:16Z</time>
      </trkpt>
      <trkpt lat="45.16559" lon="5.9782">
        <ele>2701.1</ele>
        <time>2021-02-20T13:55:17Z</time>
      </trkpt>
      <trkpt lat="45.16559" lon="5.9782">
        <ele>2701.1</ele>
        <time>2021-02-20T13:55:18Z</time>
      </trkpt>
      <trkpt lat="45.16559" lon="5.9782">
        <ele>2701.1</ele>
        <time>2021-02-20T13:55:19Z</time>
      </trkpt>
      <trkpt lat="45.16559" lon="5.9782">
        <ele>2701.1</ele>
        <time>2021-02-20T13:55:20Z</time>
      </trkpt>
      <trkpt lat="45.16559" lon="5.9782">
        <ele>2701.1</ele>
        <time>2021-02-20T13:55:21Z</time>
      </trkpt>
      <trkpt lat="45.16559" lon="5.9782">
        <ele>2701.1</ele>
        <time>2021-02-20T13:55:22Z</time>
      </trkpt>
      <trkpt lat="45.16559" lon="5.9782">
        <ele>2701.1</ele>
        <time>2021-02-20T13:55:23Z</time>
      </trkpt>
      <trkpt lat="45.16559" lon="5.9782">
        <ele>2701.1</ele>
        <time>2021-02-20T13:55:24Z</time>
      </trkpt>
      <trkpt lat="45.16559" lon="5.9782">
        <ele>2701.1</ele>
        <time>2021-02-20T13:55:25Z</time>
      </trkpt>
      <trkpt lat="45.16559" lon="5.9782">
        <ele>2701.1</ele>
        <time>2021-02-20T13:55:26Z</time>
      </trkpt>
      <trkpt lat="45.16559" lon="5.9782">
        <ele>2701.1</ele>
        <time>2021-02-20T13:55:27Z</time>
      </trkpt>
      <trkpt lat="45.16559" lon="5.9782">
        <ele>2701.1</ele>
        <time>2021-02-20T13:55:28Z</time>
      </trkpt>
      <trkpt lat="45.16559" lon="5.9782">
        <ele>2701.1</ele>
        <time>2021-02-20T13:55:29Z</time>
      </trkpt>
      <trkpt lat="45.16559" lon="5.9782">
        <ele>2701.1</ele>
        <time>2021-02-20T13:55:30Z</time>
      </trkpt>
      <trkpt lat="45.16559" lon="5.9782">
        <ele>2701.1</ele>
        <time>2021-02-20T13:55:31Z</time>
      </trkpt>
      <trkpt lat="45.16559" lon="5.9782">
        <ele>2701.1</ele>
        <time>2021-02-20T13:55:32Z</time>
      </trkpt>
      <trkpt lat="45.16559" lon="5.9782">
        <ele>2701</ele>
        <time>2021-02-20T13:55:33Z</time>
      </trkpt>
      <trkpt lat="45.16559" lon="5.9782">
        <ele>2701</ele>
        <time>2021-02-20T13:55:34Z</time>
      </trkpt>
      <trkpt lat="45.16559" lon="5.9782">
        <ele>2701</ele>
        <time>2021-02-20T13:55:35Z</time>
      </trkpt>
      <trkpt lat="45.16559" lon="5.9782">
        <ele>2701</ele>
        <time>2021-02-20T13:55:36Z</time>
      </trkpt>
      <trkpt lat="45.16559" lon="5.9782">
        <ele>2701</ele>
        <time>2021-02-20T13:55:37Z</time>
      </trkpt>
      <trkpt lat="45.16559" lon="5.9782">
        <ele>2701</ele>
        <time>2021-02-20T13:55:38Z</time>
      </trkpt>
      <trkpt lat="45.16559" lon="5.9782">
        <ele>2701</ele>
        <time>2021-02-20T13:55:39Z</time>
      </trkpt>
      <trkpt lat="45.16559" lon="5.9782">
        <ele>2701</ele>
        <time>2021-02-20T13:55:40Z</time>
      </trkpt>
      <trkpt lat="45.16559" lon="5.9782">
        <ele>2701</ele>
        <time>2021-02-20T13:55:41Z</time>
      </trkpt>
      <trkpt lat="45.16559" lon="5.9782">
        <ele>2701</ele>
        <time>2021-02-20T13:55:42Z</time>
      </trkpt>
      <trkpt lat="45.16559" lon="5.9782">
        <ele>2701</ele>
        <time>2021-02-20T13:55:43Z</time>
      </trkpt>
      <trkpt lat="45.16559" lon="5.97819">
        <ele>2701</ele>
        <time>2021-02-20T13:55:44Z</time>
      </trkpt>
      <trkpt lat="45.16559" lon="5.97819">
        <ele>2701</ele>
        <time>2021-02-20T13:55:45Z</time>
      </trkpt>
      <trkpt lat="45.16559" lon="5.97819">
        <ele>2701</ele>
        <time>2021-02-20T13:55:46Z</time>
      </trkpt>
      <trkpt lat="45.16559" lon="5.97819">
        <ele>2701</ele>
        <time>2021-02-20T13:55:47Z</time>
      </trkpt>
      <trkpt lat="45.16559" lon="5.97819">
        <ele>2701</ele>
        <time>2021-02-20T13:55:48Z</time>
      </trkpt>
      <trkpt lat="45.16559" lon="5.97819">
        <ele>2700.9</ele>
        <time>2021-02-20T13:55:49Z</time>
      </trkpt>
      <trkpt lat="45.16559" lon="5.97819">
        <ele>2700.9</ele>
        <time>2021-02-20T13:55:50Z</time>
      </trkpt>
      <trkpt lat="45.16559" lon="5.97819">
        <ele>2700.9</ele>
        <time>2021-02-20T13:55:51Z</time>
      </trkpt>
      <trkpt lat="45.16559" lon="5.97819">
        <ele>2700.9</ele>
        <time>2021-02-20T13:55:52Z</time>
      </trkpt>
      <trkpt lat="45.16559" lon="5.97819">
        <ele>2700.9</ele>
        <time>2021-02-20T13:55:53Z</time>
      </trkpt>
      <trkpt lat="45.16559" lon="5.97819">
        <ele>2700.9</ele>
        <time>2021-02-20T13:55:54Z</time>
      </trkpt>
      <trkpt lat="45.16559" lon="5.97819">
        <ele>2700.9</ele>
        <time>2021-02-20T13:55:55Z</time>
      </trkpt>
      <trkpt lat="45.16559" lon="5.97819">
        <ele>2700.9</ele>
        <time>2021-02-20T13:55:56Z</time>
      </trkpt>
      <trkpt lat="45.16559" lon="5.97819">
        <ele>2700.9</ele>
        <time>2021-02-20T13:55:57Z</time>
      </trkpt>
      <trkpt lat="45.16559" lon="5.97819">
        <ele>2700.9</ele>
        <time>2021-02-20T13:55:58Z</time>
      </trkpt>
      <trkpt lat="45.16559" lon="5.97819">
        <ele>2700.9</ele>
        <time>2021-02-20T13:55:59Z</time>
      </trkpt>
      <trkpt lat="45.16559" lon="5.97819">
        <ele>2700.9</ele>
        <time>2021-02-20T13:56:00Z</time>
      </trkpt>
      <trkpt lat="45.16559" lon="5.97819">
        <ele>2700.9</ele>
        <time>2021-02-20T13:56:01Z</time>
      </trkpt>
      <trkpt lat="45.1656" lon="5.97819">
        <ele>2700.8</ele>
        <time>2021-02-20T13:56:02Z</time>
      </trkpt>
      <trkpt lat="45.1656" lon="5.97819">
        <ele>2700.8</ele>
        <time>2021-02-20T13:56:03Z</time>
      </trkpt>
      <trkpt lat="45.1656" lon="5.97818">
        <ele>2700.7</ele>
        <time>2021-02-20T13:56:04Z</time>
      </trkpt>
      <trkpt lat="45.1656" lon="5.97818">
        <ele>2700.7</ele>
        <time>2021-02-20T13:56:05Z</time>
      </trkpt>
      <trkpt lat="45.1656" lon="5.97819">
        <ele>2700.7</ele>
        <time>2021-02-20T13:56:06Z</time>
      </trkpt>
      <trkpt lat="45.1656" lon="5.97819">
        <ele>2700.7</ele>
        <time>2021-02-20T13:56:07Z</time>
      </trkpt>
      <trkpt lat="45.1656" lon="5.97819">
        <ele>2700.7</ele>
        <time>2021-02-20T13:56:08Z</time>
      </trkpt>
      <trkpt lat="45.1656" lon="5.97819">
        <ele>2700.7</ele>
        <time>2021-02-20T13:56:09Z</time>
      </trkpt>
      <trkpt lat="45.1656" lon="5.97819">
        <ele>2700.7</ele>
        <time>2021-02-20T13:56:10Z</time>
      </trkpt>
      <trkpt lat="45.1656" lon="5.97819">
        <ele>2700.7</ele>
        <time>2021-02-20T13:56:11Z</time>
      </trkpt>
      <trkpt lat="45.1656" lon="5.97819">
        <ele>2700.7</ele>
        <time>2021-02-20T13:56:12Z</time>
      </trkpt>
      <trkpt lat="45.1656" lon="5.97819">
        <ele>2700.7</ele>
        <time>2021-02-20T13:56:13Z</time>
      </trkpt>
      <trkpt lat="45.1656" lon="5.97819">
        <ele>2700.7</ele>
        <time>2021-02-20T13:56:14Z</time>
      </trkpt>
      <trkpt lat="45.1656" lon="5.97819">
        <ele>2700.7</ele>
        <time>2021-02-20T13:56:15Z</time>
      </trkpt>
      <trkpt lat="45.1656" lon="5.97819">
        <ele>2700.7</ele>
        <time>2021-02-20T13:56:16Z</time>
      </trkpt>
      <trkpt lat="45.1656" lon="5.97819">
        <ele>2700.7</ele>
        <time>2021-02-20T13:56:17Z</time>
      </trkpt>
      <trkpt lat="45.1656" lon="5.97819">
        <ele>2700.7</ele>
        <time>2021-02-20T13:56:18Z</time>
      </trkpt>
      <trkpt lat="45.1656" lon="5.97819">
        <ele>2700.7</ele>
        <time>2021-02-20T13:56:19Z</time>
      </trkpt>
      <trkpt lat="45.1656" lon="5.97819">
        <ele>2700.7</ele>
        <time>2021-02-20T13:56:20Z</time>
      </trkpt>
      <trkpt lat="45.1656" lon="5.97819">
        <ele>2700.7</ele>
        <time>2021-02-20T13:56:21Z</time>
      </trkpt>
      <trkpt lat="45.1656" lon="5.97819">
        <ele>2700.7</ele>
        <time>2021-02-20T13:56:22Z</time>
      </trkpt>
      <trkpt lat="45.1656" lon="5.97819">
        <ele>2700.7</ele>
        <time>2021-02-20T13:56:23Z</time>
      </trkpt>
      <trkpt lat="45.1656" lon="5.97819">
        <ele>2700.7</ele>
        <time>2021-02-20T13:56:24Z</time>
      </trkpt>
      <trkpt lat="45.1656" lon="5.97819">
        <ele>2700.7</ele>
        <time>2021-02-20T13:56:25Z</time>
      </trkpt>
      <trkpt lat="45.1656" lon="5.97819">
        <ele>2700.7</ele>
        <time>2021-02-20T13:56:26Z</time>
      </trkpt>
      <trkpt lat="45.1656" lon="5.97819">
        <ele>2700.7</ele>
        <time>2021-02-20T13:56:27Z</time>
      </trkpt>
      <trkpt lat="45.1656" lon="5.97819">
        <ele>2700.7</ele>
        <time>2021-02-20T13:56:28Z</time>
      </trkpt>
      <trkpt lat="45.1656" lon="5.97819">
        <ele>2700.7</ele>
        <time>2021-02-20T13:56:29Z</time>
      </trkpt>
      <trkpt lat="45.1656" lon="5.97819">
        <ele>2700.7</ele>
        <time>2021-02-20T13:56:30Z</time>
      </trkpt>
      <trkpt lat="45.1656" lon="5.97819">
        <ele>2700.7</ele>
        <time>2021-02-20T13:56:31Z</time>
      </trkpt>
      <trkpt lat="45.1656" lon="5.97819">
        <ele>2700.7</ele>
        <time>2021-02-20T13:56:32Z</time>
      </trkpt>
      <trkpt lat="45.1656" lon="5.97819">
        <ele>2700.7</ele>
        <time>2021-02-20T13:56:33Z</time>
      </trkpt>
      <trkpt lat="45.1656" lon="5.97819">
        <ele>2700.7</ele>
        <time>2021-02-20T13:56:34Z</time>
      </trkpt>
      <trkpt lat="45.1656" lon="5.97819">
        <ele>2700.7</ele>
        <time>2021-02-20T13:56:35Z</time>
      </trkpt>
      <trkpt lat="45.1656" lon="5.97819">
        <ele>2700.7</ele>
        <time>2021-02-20T13:56:36Z</time>
      </trkpt>
      <trkpt lat="45.1656" lon="5.97819">
        <ele>2700.7</ele>
        <time>2021-02-20T13:56:37Z</time>
      </trkpt>
      <trkpt lat="45.1656" lon="5.97819">
        <ele>2700.7</ele>
        <time>2021-02-20T13:56:38Z</time>
      </trkpt>
      <trkpt lat="45.1656" lon="5.97819">
        <ele>2700.7</ele>
        <time>2021-02-20T13:56:39Z</time>
      </trkpt>
      <trkpt lat="45.1656" lon="5.97819">
        <ele>2700.7</ele>
        <time>2021-02-20T13:56:40Z</time>
      </trkpt>
      <trkpt lat="45.1656" lon="5.97819">
        <ele>2700.7</ele>
        <time>2021-02-20T13:56:41Z</time>
      </trkpt>
      <trkpt lat="45.1656" lon="5.97819">
        <ele>2700.7</ele>
        <time>2021-02-20T13:56:42Z</time>
      </trkpt>
      <trkpt lat="45.1656" lon="5.97819">
        <ele>2700.7</ele>
        <time>2021-02-20T13:56:43Z</time>
      </trkpt>
      <trkpt lat="45.1656" lon="5.97819">
        <ele>2700.7</ele>
        <time>2021-02-20T13:56:44Z</time>
      </trkpt>
      <trkpt lat="45.1656" lon="5.97819">
        <ele>2700.7</ele>
        <time>2021-02-20T13:56:45Z</time>
      </trkpt>
      <trkpt lat="45.16561" lon="5.97818">
        <ele>2700.5</ele>
        <time>2021-02-20T13:56:46Z</time>
      </trkpt>
      <trkpt lat="45.16561" lon="5.97818">
        <ele>2700.5</ele>
        <time>2021-02-20T13:56:47Z</time>
      </trkpt>
      <trkpt lat="45.16561" lon="5.97818">
        <ele>2700.5</ele>
        <time>2021-02-20T13:56:48Z</time>
      </trkpt>
      <trkpt lat="45.16561" lon="5.97818">
        <ele>2700.4</ele>
        <time>2021-02-20T13:56:49Z</time>
      </trkpt>
      <trkpt lat="45.16561" lon="5.97817">
        <ele>2700.4</ele>
        <time>2021-02-20T13:56:50Z</time>
      </trkpt>
      <trkpt lat="45.16561" lon="5.97817">
        <ele>2700.4</ele>
        <time>2021-02-20T13:56:51Z</time>
      </trkpt>
      <trkpt lat="45.16561" lon="5.97817">
        <ele>2700.4</ele>
        <time>2021-02-20T13:56:52Z</time>
      </trkpt>
      <trkpt lat="45.16561" lon="5.97817">
        <ele>2700.4</ele>
        <time>2021-02-20T13:56:53Z</time>
      </trkpt>
      <trkpt lat="45.16561" lon="5.97817">
        <ele>2700.4</ele>
        <time>2021-02-20T13:56:54Z</time>
      </trkpt>
      <trkpt lat="45.16561" lon="5.97817">
        <ele>2700.4</ele>
        <time>2021-02-20T13:56:55Z</time>
      </trkpt>
      <trkpt lat="45.16561" lon="5.97817">
        <ele>2700.3</ele>
        <time>2021-02-20T13:56:56Z</time>
      </trkpt>
      <trkpt lat="45.16561" lon="5.97817">
        <ele>2700.3</ele>
        <time>2021-02-20T13:56:57Z</time>
      </trkpt>
      <trkpt lat="45.16561" lon="5.97817">
        <ele>2700.3</ele>
        <time>2021-02-20T13:56:58Z</time>
      </trkpt>
      <trkpt lat="45.16561" lon="5.97817">
        <ele>2700.3</ele>
        <time>2021-02-20T13:56:59Z</time>
      </trkpt>
      <trkpt lat="45.16561" lon="5.97817">
        <ele>2700.3</ele>
        <time>2021-02-20T13:57:00Z</time>
      </trkpt>
      <trkpt lat="45.16561" lon="5.97817">
        <ele>2700.3</ele>
        <time>2021-02-20T13:57:01Z</time>
      </trkpt>
      <trkpt lat="45.16561" lon="5.97817">
        <ele>2700.3</ele>
        <time>2021-02-20T13:57:02Z</time>
      </trkpt>
      <trkpt lat="45.16561" lon="5.97817">
        <ele>2700.3</ele>
        <time>2021-02-20T13:57:03Z</time>
      </trkpt>
      <trkpt lat="45.16561" lon="5.97817">
        <ele>2700.3</ele>
        <time>2021-02-20T13:57:04Z</time>
      </trkpt>
      <trkpt lat="45.16561" lon="5.97817">
        <ele>2700.3</ele>
        <time>2021-02-20T13:57:05Z</time>
      </trkpt>
      <trkpt lat="45.16561" lon="5.97817">
        <ele>2700.3</ele>
        <time>2021-02-20T13:57:06Z</time>
      </trkpt>
      <trkpt lat="45.16561" lon="5.97817">
        <ele>2700.3</ele>
        <time>2021-02-20T13:57:07Z</time>
      </trkpt>
      <trkpt lat="45.16561" lon="5.97817">
        <ele>2700.3</ele>
        <time>2021-02-20T13:57:08Z</time>
      </trkpt>
      <trkpt lat="45.16561" lon="5.97817">
        <ele>2700.3</ele>
        <time>2021-02-20T13:57:09Z</time>
      </trkpt>
      <trkpt lat="45.16561" lon="5.97817">
        <ele>2700.3</ele>
        <time>2021-02-20T13:57:10Z</time>
      </trkpt>
      <trkpt lat="45.16561" lon="5.97817">
        <ele>2700.3</ele>
        <time>2021-02-20T13:57:11Z</time>
      </trkpt>
      <trkpt lat="45.16561" lon="5.97817">
        <ele>2700.3</ele>
        <time>2021-02-20T13:57:12Z</time>
      </trkpt>
      <trkpt lat="45.16561" lon="5.97817">
        <ele>2700.3</ele>
        <time>2021-02-20T13:57:13Z</time>
      </trkpt>
      <trkpt lat="45.16561" lon="5.97817">
        <ele>2700.3</ele>
        <time>2021-02-20T13:57:14Z</time>
      </trkpt>
      <trkpt lat="45.16561" lon="5.97817">
        <ele>2700.3</ele>
        <time>2021-02-20T13:57:15Z</time>
      </trkpt>
      <trkpt lat="45.16561" lon="5.97817">
        <ele>2700.3</ele>
        <time>2021-02-20T13:57:16Z</time>
      </trkpt>
      <trkpt lat="45.16561" lon="5.97817">
        <ele>2700.3</ele>
        <time>2021-02-20T13:57:17Z</time>
      </trkpt>
      <trkpt lat="45.16561" lon="5.97818">
        <ele>2700.2</ele>
        <time>2021-02-20T13:57:18Z</time>
      </trkpt>
      <trkpt lat="45.16561" lon="5.97818">
        <ele>2700.2</ele>
        <time>2021-02-20T13:57:19Z</time>
      </trkpt>
      <trkpt lat="45.16561" lon="5.97818">
        <ele>2700.2</ele>
        <time>2021-02-20T13:57:20Z</time>
      </trkpt>
      <trkpt lat="45.16561" lon="5.97818">
        <ele>2700.2</ele>
        <time>2021-02-20T13:57:21Z</time>
      </trkpt>
      <trkpt lat="45.16561" lon="5.97818">
        <ele>2700.2</ele>
        <time>2021-02-20T13:57:22Z</time>
      </trkpt>
      <trkpt lat="45.16561" lon="5.97818">
        <ele>2700.2</ele>
        <time>2021-02-20T13:57:23Z</time>
      </trkpt>
      <trkpt lat="45.16561" lon="5.97818">
        <ele>2700.2</ele>
        <time>2021-02-20T13:57:24Z</time>
      </trkpt>
      <trkpt lat="45.16561" lon="5.97818">
        <ele>2700.2</ele>
        <time>2021-02-20T13:57:25Z</time>
      </trkpt>
      <trkpt lat="45.16561" lon="5.97818">
        <ele>2700.2</ele>
        <time>2021-02-20T13:57:26Z</time>
      </trkpt>
      <trkpt lat="45.16561" lon="5.97818">
        <ele>2700.2</ele>
        <time>2021-02-20T13:57:27Z</time>
      </trkpt>
      <trkpt lat="45.16561" lon="5.97818">
        <ele>2700.2</ele>
        <time>2021-02-20T13:57:28Z</time>
      </trkpt>
      <trkpt lat="45.16561" lon="5.97818">
        <ele>2700.2</ele>
        <time>2021-02-20T13:57:29Z</time>
      </trkpt>
      <trkpt lat="45.16561" lon="5.97818">
        <ele>2700.2</ele>
        <time>2021-02-20T13:57:30Z</time>
      </trkpt>
      <trkpt lat="45.16561" lon="5.97818">
        <ele>2700.2</ele>
        <time>2021-02-20T13:57:31Z</time>
      </trkpt>
      <trkpt lat="45.16561" lon="5.97818">
        <ele>2700.2</ele>
        <time>2021-02-20T13:57:32Z</time>
      </trkpt>
      <trkpt lat="45.16561" lon="5.97818">
        <ele>2700.2</ele>
        <time>2021-02-20T13:57:33Z</time>
      </trkpt>
      <trkpt lat="45.16561" lon="5.97818">
        <ele>2700.2</ele>
        <time>2021-02-20T13:57:34Z</time>
      </trkpt>
      <trkpt lat="45.16561" lon="5.97818">
        <ele>2700.2</ele>
        <time>2021-02-20T13:57:35Z</time>
      </trkpt>
      <trkpt lat="45.16561" lon="5.97818">
        <ele>2700.2</ele>
        <time>2021-02-20T13:57:36Z</time>
      </trkpt>
      <trkpt lat="45.16561" lon="5.97818">
        <ele>2700.2</ele>
        <time>2021-02-20T13:57:37Z</time>
      </trkpt>
      <trkpt lat="45.16561" lon="5.97818">
        <ele>2700.2</ele>
        <time>2021-02-20T13:57:38Z</time>
      </trkpt>
      <trkpt lat="45.16561" lon="5.97818">
        <ele>2700.2</ele>
        <time>2021-02-20T13:57:39Z</time>
      </trkpt>
      <trkpt lat="45.16561" lon="5.97818">
        <ele>2700.2</ele>
        <time>2021-02-20T13:57:40Z</time>
      </trkpt>
      <trkpt lat="45.16562" lon="5.97819">
        <ele>2699.9</ele>
        <time>2021-02-20T13:57:41Z</time>
      </trkpt>
      <trkpt lat="45.16563" lon="5.97819">
        <ele>2699.9</ele>
        <time>2021-02-20T13:57:42Z</time>
      </trkpt>
      <trkpt lat="45.16563" lon="5.97819">
        <ele>2699.9</ele>
        <time>2021-02-20T13:57:43Z</time>
      </trkpt>
      <trkpt lat="45.16562" lon="5.97819">
        <ele>2699.9</ele>
        <time>2021-02-20T13:57:44Z</time>
      </trkpt>
      <trkpt lat="45.16562" lon="5.97818">
        <ele>2699.9</ele>
        <time>2021-02-20T13:57:45Z</time>
      </trkpt>
      <trkpt lat="45.16562" lon="5.97818">
        <ele>2699.8</ele>
        <time>2021-02-20T13:57:46Z</time>
      </trkpt>
      <trkpt lat="45.16562" lon="5.97818">
        <ele>2699.8</ele>
        <time>2021-02-20T13:57:47Z</time>
      </trkpt>
      <trkpt lat="45.16562" lon="5.97818">
        <ele>2699.8</ele>
        <time>2021-02-20T13:57:48Z</time>
      </trkpt>
      <trkpt lat="45.16562" lon="5.97818">
        <ele>2699.8</ele>
        <time>2021-02-20T13:57:49Z</time>
      </trkpt>
      <trkpt lat="45.16562" lon="5.97818">
        <ele>2699.8</ele>
        <time>2021-02-20T13:57:50Z</time>
      </trkpt>
      <trkpt lat="45.16562" lon="5.97818">
        <ele>2699.8</ele>
        <time>2021-02-20T13:57:51Z</time>
      </trkpt>
      <trkpt lat="45.16562" lon="5.97818">
        <ele>2699.8</ele>
        <time>2021-02-20T13:57:52Z</time>
      </trkpt>
      <trkpt lat="45.16562" lon="5.97818">
        <ele>2699.8</ele>
        <time>2021-02-20T13:57:53Z</time>
      </trkpt>
      <trkpt lat="45.16562" lon="5.97818">
        <ele>2699.8</ele>
        <time>2021-02-20T13:57:54Z</time>
      </trkpt>
      <trkpt lat="45.16562" lon="5.97818">
        <ele>2699.8</ele>
        <time>2021-02-20T13:57:55Z</time>
      </trkpt>
      <trkpt lat="45.16562" lon="5.97818">
        <ele>2699.8</ele>
        <time>2021-02-20T13:57:56Z</time>
      </trkpt>
      <trkpt lat="45.16562" lon="5.97818">
        <ele>2699.8</ele>
        <time>2021-02-20T13:57:57Z</time>
      </trkpt>
      <trkpt lat="45.16562" lon="5.97818">
        <ele>2699.8</ele>
        <time>2021-02-20T13:57:58Z</time>
      </trkpt>
      <trkpt lat="45.16562" lon="5.97818">
        <ele>2699.8</ele>
        <time>2021-02-20T13:57:59Z</time>
      </trkpt>
      <trkpt lat="45.16562" lon="5.97818">
        <ele>2699.8</ele>
        <time>2021-02-20T13:58:00Z</time>
      </trkpt>
      <trkpt lat="45.16562" lon="5.97818">
        <ele>2699.8</ele>
        <time>2021-02-20T13:58:01Z</time>
      </trkpt>
      <trkpt lat="45.16562" lon="5.97818">
        <ele>2699.8</ele>
        <time>2021-02-20T13:58:02Z</time>
      </trkpt>
      <trkpt lat="45.16562" lon="5.97818">
        <ele>2699.8</ele>
        <time>2021-02-20T13:58:03Z</time>
      </trkpt>
      <trkpt lat="45.16562" lon="5.97818">
        <ele>2699.8</ele>
        <time>2021-02-20T13:58:04Z</time>
      </trkpt>
      <trkpt lat="45.16562" lon="5.97818">
        <ele>2699.8</ele>
        <time>2021-02-20T13:58:05Z</time>
      </trkpt>
      <trkpt lat="45.16562" lon="5.97818">
        <ele>2699.8</ele>
        <time>2021-02-20T13:58:06Z</time>
      </trkpt>
      <trkpt lat="45.16562" lon="5.97818">
        <ele>2699.8</ele>
        <time>2021-02-20T13:58:07Z</time>
      </trkpt>
      <trkpt lat="45.16562" lon="5.97818">
        <ele>2699.8</ele>
        <time>2021-02-20T13:58:08Z</time>
      </trkpt>
      <trkpt lat="45.16562" lon="5.97818">
        <ele>2699.8</ele>
        <time>2021-02-20T13:58:09Z</time>
      </trkpt>
      <trkpt lat="45.16562" lon="5.97818">
        <ele>2699.8</ele>
        <time>2021-02-20T13:58:10Z</time>
      </trkpt>
      <trkpt lat="45.16562" lon="5.97818">
        <ele>2699.8</ele>
        <time>2021-02-20T13:58:11Z</time>
      </trkpt>
      <trkpt lat="45.16562" lon="5.97818">
        <ele>2699.8</ele>
        <time>2021-02-20T13:58:12Z</time>
      </trkpt>
      <trkpt lat="45.16562" lon="5.97818">
        <ele>2699.8</ele>
        <time>2021-02-20T13:58:13Z</time>
      </trkpt>
      <trkpt lat="45.16562" lon="5.97818">
        <ele>2699.8</ele>
        <time>2021-02-20T13:58:14Z</time>
      </trkpt>
      <trkpt lat="45.16562" lon="5.97818">
        <ele>2699.8</ele>
        <time>2021-02-20T13:58:15Z</time>
      </trkpt>
      <trkpt lat="45.16562" lon="5.97818">
        <ele>2699.8</ele>
        <time>2021-02-20T13:58:16Z</time>
      </trkpt>
      <trkpt lat="45.16562" lon="5.97818">
        <ele>2699.8</ele>
        <time>2021-02-20T13:58:17Z</time>
      </trkpt>
      <trkpt lat="45.16562" lon="5.97818">
        <ele>2699.8</ele>
        <time>2021-02-20T13:58:18Z</time>
      </trkpt>
      <trkpt lat="45.16562" lon="5.97818">
        <ele>2699.8</ele>
        <time>2021-02-20T13:58:19Z</time>
      </trkpt>
      <trkpt lat="45.16562" lon="5.97818">
        <ele>2699.8</ele>
        <time>2021-02-20T13:58:20Z</time>
      </trkpt>
      <trkpt lat="45.16562" lon="5.97818">
        <ele>2699.8</ele>
        <time>2021-02-20T13:58:21Z</time>
      </trkpt>
      <trkpt lat="45.16562" lon="5.97818">
        <ele>2699.8</ele>
        <time>2021-02-20T13:58:22Z</time>
      </trkpt>
      <trkpt lat="45.16562" lon="5.97818">
        <ele>2699.8</ele>
        <time>2021-02-20T13:58:23Z</time>
      </trkpt>
      <trkpt lat="45.16562" lon="5.97818">
        <ele>2699.8</ele>
        <time>2021-02-20T13:58:24Z</time>
      </trkpt>
      <trkpt lat="45.16562" lon="5.97818">
        <ele>2699.8</ele>
        <time>2021-02-20T13:58:25Z</time>
      </trkpt>
      <trkpt lat="45.16562" lon="5.97818">
        <ele>2699.8</ele>
        <time>2021-02-20T13:58:26Z</time>
      </trkpt>
      <trkpt lat="45.16562" lon="5.97818">
        <ele>2699.8</ele>
        <time>2021-02-20T13:58:27Z</time>
      </trkpt>
      <trkpt lat="45.16562" lon="5.97818">
        <ele>2699.8</ele>
        <time>2021-02-20T13:58:28Z</time>
      </trkpt>
      <trkpt lat="45.16562" lon="5.97818">
        <ele>2699.8</ele>
        <time>2021-02-20T13:58:29Z</time>
      </trkpt>
      <trkpt lat="45.16562" lon="5.97818">
        <ele>2699.8</ele>
        <time>2021-02-20T13:58:30Z</time>
      </trkpt>
      <trkpt lat="45.16562" lon="5.97818">
        <ele>2699.8</ele>
        <time>2021-02-20T13:58:31Z</time>
      </trkpt>
      <trkpt lat="45.16562" lon="5.97818">
        <ele>2699.8</ele>
        <time>2021-02-20T13:58:32Z</time>
      </trkpt>
      <trkpt lat="45.16562" lon="5.97818">
        <ele>2699.8</ele>
        <time>2021-02-20T13:58:33Z</time>
      </trkpt>
      <trkpt lat="45.16562" lon="5.97818">
        <ele>2699.8</ele>
        <time>2021-02-20T13:58:34Z</time>
      </trkpt>
      <trkpt lat="45.16562" lon="5.97818">
        <ele>2699.8</ele>
        <time>2021-02-20T13:58:35Z</time>
      </trkpt>
      <trkpt lat="45.16562" lon="5.97818">
        <ele>2699.8</ele>
        <time>2021-02-20T13:58:36Z</time>
      </trkpt>
      <trkpt lat="45.16562" lon="5.97818">
        <ele>2699.8</ele>
        <time>2021-02-20T13:58:37Z</time>
      </trkpt>
      <trkpt lat="45.16562" lon="5.97818">
        <ele>2699.8</ele>
        <time>2021-02-20T13:58:38Z</time>
      </trkpt>
      <trkpt lat="45.16562" lon="5.97818">
        <ele>2699.8</ele>
        <time>2021-02-20T13:58:39Z</time>
      </trkpt>
      <trkpt lat="45.16562" lon="5.97818">
        <ele>2699.8</ele>
        <time>2021-02-20T13:58:40Z</time>
      </trkpt>
      <trkpt lat="45.16562" lon="5.97818">
        <ele>2699.8</ele>
        <time>2021-02-20T13:58:41Z</time>
      </trkpt>
      <trkpt lat="45.16562" lon="5.97818">
        <ele>2699.8</ele>
        <time>2021-02-20T13:58:42Z</time>
      </trkpt>
      <trkpt lat="45.16562" lon="5.97818">
        <ele>2699.8</ele>
        <time>2021-02-20T13:58:43Z</time>
      </trkpt>
      <trkpt lat="45.16562" lon="5.97818">
        <ele>2699.8</ele>
        <time>2021-02-20T13:58:44Z</time>
      </trkpt>
      <trkpt lat="45.16562" lon="5.97818">
        <ele>2699.8</ele>
        <time>2021-02-20T13:58:45Z</time>
      </trkpt>
      <trkpt lat="45.16562" lon="5.97818">
        <ele>2699.8</ele>
        <time>2021-02-20T13:58:46Z</time>
      </trkpt>
      <trkpt lat="45.16562" lon="5.97818">
        <ele>2699.8</ele>
        <time>2021-02-20T13:58:47Z</time>
      </trkpt>
      <trkpt lat="45.16563" lon="5.97818">
        <ele>2699.7</ele>
        <time>2021-02-20T13:58:48Z</time>
      </trkpt>
      <trkpt lat="45.16563" lon="5.97818">
        <ele>2699.7</ele>
        <time>2021-02-20T13:58:49Z</time>
      </trkpt>
      <trkpt lat="45.16563" lon="5.97818">
        <ele>2699.7</ele>
        <time>2021-02-20T13:58:50Z</time>
      </trkpt>
      <trkpt lat="45.16563" lon="5.97818">
        <ele>2699.7</ele>
        <time>2021-02-20T13:58:51Z</time>
      </trkpt>
      <trkpt lat="45.16563" lon="5.97818">
        <ele>2699.7</ele>
        <time>2021-02-20T13:58:52Z</time>
      </trkpt>
      <trkpt lat="45.16563" lon="5.97818">
        <ele>2699.7</ele>
        <time>2021-02-20T13:58:53Z</time>
      </trkpt>
      <trkpt lat="45.16562" lon="5.97818">
        <ele>2699.6</ele>
        <time>2021-02-20T13:58:54Z</time>
      </trkpt>
      <trkpt lat="45.16562" lon="5.97818">
        <ele>2699.5</ele>
        <time>2021-02-20T13:58:55Z</time>
      </trkpt>
      <trkpt lat="45.16562" lon="5.97818">
        <ele>2699.5</ele>
        <time>2021-02-20T13:58:56Z</time>
      </trkpt>
      <trkpt lat="45.16562" lon="5.97818">
        <ele>2699.5</ele>
        <time>2021-02-20T13:58:57Z</time>
      </trkpt>
      <trkpt lat="45.16562" lon="5.97818">
        <ele>2699.5</ele>
        <time>2021-02-20T13:58:58Z</time>
      </trkpt>
      <trkpt lat="45.16562" lon="5.97818">
        <ele>2699.5</ele>
        <time>2021-02-20T13:58:59Z</time>
      </trkpt>
      <trkpt lat="45.16562" lon="5.97818">
        <ele>2699.5</ele>
        <time>2021-02-20T13:59:00Z</time>
      </trkpt>
      <trkpt lat="45.16562" lon="5.97818">
        <ele>2699.5</ele>
        <time>2021-02-20T13:59:01Z</time>
      </trkpt>
      <trkpt lat="45.16561" lon="5.97817">
        <ele>2699.4</ele>
        <time>2021-02-20T13:59:02Z</time>
      </trkpt>
      <trkpt lat="45.16561" lon="5.97817">
        <ele>2699.4</ele>
        <time>2021-02-20T13:59:03Z</time>
      </trkpt>
      <trkpt lat="45.16561" lon="5.97817">
        <ele>2699.4</ele>
        <time>2021-02-20T13:59:04Z</time>
      </trkpt>
      <trkpt lat="45.16561" lon="5.97817">
        <ele>2699.4</ele>
        <time>2021-02-20T13:59:05Z</time>
      </trkpt>
      <trkpt lat="45.16561" lon="5.97817">
        <ele>2699.4</ele>
        <time>2021-02-20T13:59:06Z</time>
      </trkpt>
      <trkpt lat="45.16561" lon="5.97817">
        <ele>2699.4</ele>
        <time>2021-02-20T13:59:07Z</time>
      </trkpt>
      <trkpt lat="45.16561" lon="5.97817">
        <ele>2699.4</ele>
        <time>2021-02-20T13:59:08Z</time>
      </trkpt>
      <trkpt lat="45.16561" lon="5.97817">
        <ele>2699.4</ele>
        <time>2021-02-20T13:59:09Z</time>
      </trkpt>
      <trkpt lat="45.16561" lon="5.97817">
        <ele>2699.4</ele>
        <time>2021-02-20T13:59:10Z</time>
      </trkpt>
      <trkpt lat="45.16561" lon="5.97817">
        <ele>2699.4</ele>
        <time>2021-02-20T13:59:11Z</time>
      </trkpt>
      <trkpt lat="45.16561" lon="5.97817">
        <ele>2699.4</ele>
        <time>2021-02-20T13:59:12Z</time>
      </trkpt>
      <trkpt lat="45.16561" lon="5.97817">
        <ele>2699.4</ele>
        <time>2021-02-20T13:59:13Z</time>
      </trkpt>
      <trkpt lat="45.16561" lon="5.97817">
        <ele>2699.4</ele>
        <time>2021-02-20T13:59:14Z</time>
      </trkpt>
      <trkpt lat="45.16561" lon="5.97817">
        <ele>2699.4</ele>
        <time>2021-02-20T13:59:15Z</time>
      </trkpt>
      <trkpt lat="45.16561" lon="5.97817">
        <ele>2699.4</ele>
        <time>2021-02-20T13:59:16Z</time>
      </trkpt>
      <trkpt lat="45.16561" lon="5.97817">
        <ele>2699.4</ele>
        <time>2021-02-20T13:59:17Z</time>
      </trkpt>
      <trkpt lat="45.16561" lon="5.97817">
        <ele>2699.4</ele>
        <time>2021-02-20T13:59:18Z</time>
      </trkpt>
      <trkpt lat="45.16561" lon="5.97817">
        <ele>2699.4</ele>
        <time>2021-02-20T13:59:19Z</time>
      </trkpt>
      <trkpt lat="45.16561" lon="5.97817">
        <ele>2699.4</ele>
        <time>2021-02-20T13:59:20Z</time>
      </trkpt>
      <trkpt lat="45.16561" lon="5.97817">
        <ele>2699.4</ele>
        <time>2021-02-20T13:59:21Z</time>
      </trkpt>
      <trkpt lat="45.16561" lon="5.97817">
        <ele>2699.4</ele>
        <time>2021-02-20T13:59:22Z</time>
      </trkpt>
      <trkpt lat="45.16561" lon="5.97817">
        <ele>2699.4</ele>
        <time>2021-02-20T13:59:23Z</time>
      </trkpt>
      <trkpt lat="45.16561" lon="5.97817">
        <ele>2699.4</ele>
        <time>2021-02-20T13:59:24Z</time>
      </trkpt>
      <trkpt lat="45.16561" lon="5.97817">
        <ele>2699.4</ele>
        <time>2021-02-20T13:59:25Z</time>
      </trkpt>
      <trkpt lat="45.16561" lon="5.97817">
        <ele>2699.4</ele>
        <time>2021-02-20T13:59:26Z</time>
      </trkpt>
      <trkpt lat="45.16561" lon="5.97817">
        <ele>2699.4</ele>
        <time>2021-02-20T13:59:27Z</time>
      </trkpt>
      <trkpt lat="45.16561" lon="5.97817">
        <ele>2699.4</ele>
        <time>2021-02-20T13:59:28Z</time>
      </trkpt>
      <trkpt lat="45.16561" lon="5.97817">
        <ele>2699.4</ele>
        <time>2021-02-20T13:59:29Z</time>
      </trkpt>
      <trkpt lat="45.16561" lon="5.97817">
        <ele>2699.4</ele>
        <time>2021-02-20T13:59:30Z</time>
      </trkpt>
      <trkpt lat="45.16561" lon="5.97817">
        <ele>2699.4</ele>
        <time>2021-02-20T13:59:31Z</time>
      </trkpt>
      <trkpt lat="45.16561" lon="5.97817">
        <ele>2699.4</ele>
        <time>2021-02-20T13:59:32Z</time>
      </trkpt>
      <trkpt lat="45.16561" lon="5.97817">
        <ele>2699.4</ele>
        <time>2021-02-20T13:59:33Z</time>
      </trkpt>
      <trkpt lat="45.16561" lon="5.97817">
        <ele>2699.4</ele>
        <time>2021-02-20T13:59:34Z</time>
      </trkpt>
      <trkpt lat="45.16561" lon="5.97817">
        <ele>2699.4</ele>
        <time>2021-02-20T13:59:35Z</time>
      </trkpt>
      <trkpt lat="45.16561" lon="5.97817">
        <ele>2699.4</ele>
        <time>2021-02-20T13:59:36Z</time>
      </trkpt>
      <trkpt lat="45.16561" lon="5.97818">
        <ele>2699.3</ele>
        <time>2021-02-20T13:59:37Z</time>
      </trkpt>
      <trkpt lat="45.16561" lon="5.97818">
        <ele>2699.3</ele>
        <time>2021-02-20T13:59:38Z</time>
      </trkpt>
      <trkpt lat="45.16561" lon="5.97818">
        <ele>2699.3</ele>
        <time>2021-02-20T13:59:39Z</time>
      </trkpt>
      <trkpt lat="45.16561" lon="5.97818">
        <ele>2699.3</ele>
        <time>2021-02-20T13:59:40Z</time>
      </trkpt>
      <trkpt lat="45.16561" lon="5.97818">
        <ele>2699.3</ele>
        <time>2021-02-20T13:59:41Z</time>
      </trkpt>
      <trkpt lat="45.16561" lon="5.97818">
        <ele>2699.3</ele>
        <time>2021-02-20T13:59:42Z</time>
      </trkpt>
      <trkpt lat="45.16561" lon="5.97818">
        <ele>2699.3</ele>
        <time>2021-02-20T13:59:43Z</time>
      </trkpt>
      <trkpt lat="45.16561" lon="5.97818">
        <ele>2699.3</ele>
        <time>2021-02-20T13:59:44Z</time>
      </trkpt>
      <trkpt lat="45.16561" lon="5.97818">
        <ele>2699.3</ele>
        <time>2021-02-20T13:59:45Z</time>
      </trkpt>
      <trkpt lat="45.16561" lon="5.97818">
        <ele>2699.3</ele>
        <time>2021-02-20T13:59:46Z</time>
      </trkpt>
      <trkpt lat="45.16561" lon="5.97818">
        <ele>2699.3</ele>
        <time>2021-02-20T13:59:47Z</time>
      </trkpt>
      <trkpt lat="45.16561" lon="5.97818">
        <ele>2699.3</ele>
        <time>2021-02-20T13:59:48Z</time>
      </trkpt>
      <trkpt lat="45.16561" lon="5.97818">
        <ele>2699.3</ele>
        <time>2021-02-20T13:59:49Z</time>
      </trkpt>
      <trkpt lat="45.16561" lon="5.97818">
        <ele>2699.3</ele>
        <time>2021-02-20T13:59:50Z</time>
      </trkpt>
      <trkpt lat="45.16561" lon="5.97818">
        <ele>2699.3</ele>
        <time>2021-02-20T13:59:51Z</time>
      </trkpt>
      <trkpt lat="45.16561" lon="5.97818">
        <ele>2699.3</ele>
        <time>2021-02-20T13:59:52Z</time>
      </trkpt>
      <trkpt lat="45.16561" lon="5.97818">
        <ele>2699.3</ele>
        <time>2021-02-20T13:59:53Z</time>
      </trkpt>
      <trkpt lat="45.16561" lon="5.97818">
        <ele>2699.3</ele>
        <time>2021-02-20T13:59:54Z</time>
      </trkpt>
      <trkpt lat="45.16561" lon="5.97818">
        <ele>2699.3</ele>
        <time>2021-02-20T13:59:55Z</time>
      </trkpt>
      <trkpt lat="45.16561" lon="5.97818">
        <ele>2699.3</ele>
        <time>2021-02-20T13:59:56Z</time>
      </trkpt>
      <trkpt lat="45.16561" lon="5.97818">
        <ele>2699.3</ele>
        <time>2021-02-20T13:59:57Z</time>
      </trkpt>
      <trkpt lat="45.16561" lon="5.97818">
        <ele>2699.3</ele>
        <time>2021-02-20T13:59:58Z</time>
      </trkpt>
      <trkpt lat="45.16561" lon="5.97818">
        <ele>2699.3</ele>
        <time>2021-02-20T13:59:59Z</time>
      </trkpt>
      <trkpt lat="45.16561" lon="5.97818">
        <ele>2699.3</ele>
        <time>2021-02-20T14:00:00Z</time>
      </trkpt>
      <trkpt lat="45.16561" lon="5.97818">
        <ele>2699.3</ele>
        <time>2021-02-20T14:00:01Z</time>
      </trkpt>
      <trkpt lat="45.16561" lon="5.97818">
        <ele>2699.3</ele>
        <time>2021-02-20T14:00:02Z</time>
      </trkpt>
      <trkpt lat="45.16561" lon="5.97818">
        <ele>2699.3</ele>
        <time>2021-02-20T14:00:03Z</time>
      </trkpt>
      <trkpt lat="45.16561" lon="5.97818">
        <ele>2699.3</ele>
        <time>2021-02-20T14:00:04Z</time>
      </trkpt>
      <trkpt lat="45.16561" lon="5.97818">
        <ele>2699.3</ele>
        <time>2021-02-20T14:00:05Z</time>
      </trkpt>
      <trkpt lat="45.16561" lon="5.97818">
        <ele>2699.3</ele>
        <time>2021-02-20T14:00:06Z</time>
      </trkpt>
      <trkpt lat="45.16561" lon="5.97818">
        <ele>2699.3</ele>
        <time>2021-02-20T14:00:07Z</time>
      </trkpt>
      <trkpt lat="45.16561" lon="5.97818">
        <ele>2699.3</ele>
        <time>2021-02-20T14:00:08Z</time>
      </trkpt>
      <trkpt lat="45.16561" lon="5.97818">
        <ele>2699.3</ele>
        <time>2021-02-20T14:00:09Z</time>
      </trkpt>
      <trkpt lat="45.16561" lon="5.97817">
        <ele>2699.2</ele>
        <time>2021-02-20T14:00:10Z</time>
      </trkpt>
      <trkpt lat="45.16561" lon="5.97817">
        <ele>2699.2</ele>
        <time>2021-02-20T14:00:11Z</time>
      </trkpt>
      <trkpt lat="45.16561" lon="5.97817">
        <ele>2699.2</ele>
        <time>2021-02-20T14:00:12Z</time>
      </trkpt>
      <trkpt lat="45.16561" lon="5.97817">
        <ele>2699.2</ele>
        <time>2021-02-20T14:00:13Z</time>
      </trkpt>
      <trkpt lat="45.16561" lon="5.97817">
        <ele>2699.2</ele>
        <time>2021-02-20T14:00:14Z</time>
      </trkpt>
      <trkpt lat="45.16561" lon="5.97817">
        <ele>2699.2</ele>
        <time>2021-02-20T14:00:15Z</time>
      </trkpt>
      <trkpt lat="45.1656" lon="5.97817">
        <ele>2699.1</ele>
        <time>2021-02-20T14:00:16Z</time>
      </trkpt>
      <trkpt lat="45.1656" lon="5.97817">
        <ele>2699.1</ele>
        <time>2021-02-20T14:00:17Z</time>
      </trkpt>
      <trkpt lat="45.1656" lon="5.97817">
        <ele>2699.1</ele>
        <time>2021-02-20T14:00:18Z</time>
      </trkpt>
      <trkpt lat="45.1656" lon="5.97817">
        <ele>2699.1</ele>
        <time>2021-02-20T14:00:19Z</time>
      </trkpt>
      <trkpt lat="45.1656" lon="5.97817">
        <ele>2699.1</ele>
        <time>2021-02-20T14:00:20Z</time>
      </trkpt>
      <trkpt lat="45.1656" lon="5.97817">
        <ele>2699.1</ele>
        <time>2021-02-20T14:00:21Z</time>
      </trkpt>
      <trkpt lat="45.1656" lon="5.97817">
        <ele>2699</ele>
        <time>2021-02-20T14:00:22Z</time>
      </trkpt>
      <trkpt lat="45.16559" lon="5.97817">
        <ele>2699</ele>
        <time>2021-02-20T14:00:23Z</time>
      </trkpt>
      <trkpt lat="45.16559" lon="5.97817">
        <ele>2699</ele>
        <time>2021-02-20T14:00:24Z</time>
      </trkpt>
      <trkpt lat="45.16559" lon="5.97817">
        <ele>2699</ele>
        <time>2021-02-20T14:00:25Z</time>
      </trkpt>
      <trkpt lat="45.16559" lon="5.97817">
        <ele>2699</ele>
        <time>2021-02-20T14:00:26Z</time>
      </trkpt>
      <trkpt lat="45.1656" lon="5.97816">
        <ele>2698.9</ele>
        <time>2021-02-20T14:00:27Z</time>
      </trkpt>
      <trkpt lat="45.1656" lon="5.97816">
        <ele>2698.9</ele>
        <time>2021-02-20T14:00:28Z</time>
      </trkpt>
      <trkpt lat="45.1656" lon="5.97816">
        <ele>2698.9</ele>
        <time>2021-02-20T14:00:29Z</time>
      </trkpt>
      <trkpt lat="45.1656" lon="5.97816">
        <ele>2698.9</ele>
        <time>2021-02-20T14:00:30Z</time>
      </trkpt>
      <trkpt lat="45.1656" lon="5.97816">
        <ele>2698.9</ele>
        <time>2021-02-20T14:00:31Z</time>
      </trkpt>
      <trkpt lat="45.1656" lon="5.97816">
        <ele>2698.9</ele>
        <time>2021-02-20T14:00:32Z</time>
      </trkpt>
      <trkpt lat="45.1656" lon="5.97816">
        <ele>2698.9</ele>
        <time>2021-02-20T14:00:33Z</time>
      </trkpt>
      <trkpt lat="45.1656" lon="5.97816">
        <ele>2698.9</ele>
        <time>2021-02-20T14:00:34Z</time>
      </trkpt>
      <trkpt lat="45.1656" lon="5.97816">
        <ele>2698.9</ele>
        <time>2021-02-20T14:00:35Z</time>
      </trkpt>
      <trkpt lat="45.1656" lon="5.97816">
        <ele>2698.9</ele>
        <time>2021-02-20T14:00:36Z</time>
      </trkpt>
      <trkpt lat="45.1656" lon="5.97816">
        <ele>2698.9</ele>
        <time>2021-02-20T14:00:37Z</time>
      </trkpt>
      <trkpt lat="45.1656" lon="5.97816">
        <ele>2698.9</ele>
        <time>2021-02-20T14:00:38Z</time>
      </trkpt>
      <trkpt lat="45.1656" lon="5.97816">
        <ele>2698.9</ele>
        <time>2021-02-20T14:00:39Z</time>
      </trkpt>
      <trkpt lat="45.1656" lon="5.97816">
        <ele>2698.9</ele>
        <time>2021-02-20T14:00:40Z</time>
      </trkpt>
      <trkpt lat="45.1656" lon="5.97816">
        <ele>2698.9</ele>
        <time>2021-02-20T14:00:41Z</time>
      </trkpt>
      <trkpt lat="45.1656" lon="5.97816">
        <ele>2698.9</ele>
        <time>2021-02-20T14:00:42Z</time>
      </trkpt>
      <trkpt lat="45.1656" lon="5.97816">
        <ele>2698.9</ele>
        <time>2021-02-20T14:00:43Z</time>
      </trkpt>
      <trkpt lat="45.1656" lon="5.97816">
        <ele>2698.9</ele>
        <time>2021-02-20T14:00:44Z</time>
      </trkpt>
      <trkpt lat="45.1656" lon="5.97816">
        <ele>2698.9</ele>
        <time>2021-02-20T14:00:45Z</time>
      </trkpt>
      <trkpt lat="45.1656" lon="5.97817">
        <ele>2698.8</ele>
        <time>2021-02-20T14:00:46Z</time>
      </trkpt>
      <trkpt lat="45.1656" lon="5.97817">
        <ele>2698.8</ele>
        <time>2021-02-20T14:00:47Z</time>
      </trkpt>
      <trkpt lat="45.1656" lon="5.97818">
        <ele>2698.8</ele>
        <time>2021-02-20T14:00:48Z</time>
      </trkpt>
      <trkpt lat="45.1656" lon="5.97818">
        <ele>2698.8</ele>
        <time>2021-02-20T14:00:49Z</time>
      </trkpt>
      <trkpt lat="45.1656" lon="5.97818">
        <ele>2698.8</ele>
        <time>2021-02-20T14:00:50Z</time>
      </trkpt>
      <trkpt lat="45.1656" lon="5.97818">
        <ele>2698.8</ele>
        <time>2021-02-20T14:00:51Z</time>
      </trkpt>
      <trkpt lat="45.1656" lon="5.97818">
        <ele>2698.8</ele>
        <time>2021-02-20T14:00:52Z</time>
      </trkpt>
      <trkpt lat="45.1656" lon="5.97818">
        <ele>2698.7</ele>
        <time>2021-02-20T14:00:53Z</time>
      </trkpt>
      <trkpt lat="45.1656" lon="5.97818">
        <ele>2698.7</ele>
        <time>2021-02-20T14:00:54Z</time>
      </trkpt>
      <trkpt lat="45.1656" lon="5.97818">
        <ele>2698.6</ele>
        <time>2021-02-20T14:00:55Z</time>
      </trkpt>
      <trkpt lat="45.16559" lon="5.97818">
        <ele>2698.5</ele>
        <time>2021-02-20T14:00:56Z</time>
      </trkpt>
      <trkpt lat="45.16559" lon="5.97818">
        <ele>2698.5</ele>
        <time>2021-02-20T14:00:57Z</time>
      </trkpt>
      <trkpt lat="45.16559" lon="5.97818">
        <ele>2698.5</ele>
        <time>2021-02-20T14:00:58Z</time>
      </trkpt>
      <trkpt lat="45.16559" lon="5.97818">
        <ele>2698.5</ele>
        <time>2021-02-20T14:00:59Z</time>
      </trkpt>
      <trkpt lat="45.16559" lon="5.97818">
        <ele>2698.5</ele>
        <time>2021-02-20T14:01:00Z</time>
      </trkpt>
      <trkpt lat="45.16559" lon="5.97818">
        <ele>2698.5</ele>
        <time>2021-02-20T14:01:01Z</time>
      </trkpt>
      <trkpt lat="45.16559" lon="5.97818">
        <ele>2698.5</ele>
        <time>2021-02-20T14:01:02Z</time>
      </trkpt>
      <trkpt lat="45.16559" lon="5.97818">
        <ele>2698.5</ele>
        <time>2021-02-20T14:01:03Z</time>
      </trkpt>
      <trkpt lat="45.16559" lon="5.97818">
        <ele>2698.5</ele>
        <time>2021-02-20T14:01:04Z</time>
      </trkpt>
      <trkpt lat="45.16559" lon="5.97818">
        <ele>2698.5</ele>
        <time>2021-02-20T14:01:05Z</time>
      </trkpt>
      <trkpt lat="45.16559" lon="5.97818">
        <ele>2698.5</ele>
        <time>2021-02-20T14:01:06Z</time>
      </trkpt>
      <trkpt lat="45.16559" lon="5.97818">
        <ele>2698.5</ele>
        <time>2021-02-20T14:01:07Z</time>
      </trkpt>
      <trkpt lat="45.16559" lon="5.97818">
        <ele>2698.5</ele>
        <time>2021-02-20T14:01:08Z</time>
      </trkpt>
      <trkpt lat="45.16559" lon="5.97818">
        <ele>2698.5</ele>
        <time>2021-02-20T14:01:09Z</time>
      </trkpt>
      <trkpt lat="45.16559" lon="5.97818">
        <ele>2698.5</ele>
        <time>2021-02-20T14:01:10Z</time>
      </trkpt>
      <trkpt lat="45.16559" lon="5.97818">
        <ele>2698.5</ele>
        <time>2021-02-20T14:01:11Z</time>
      </trkpt>
      <trkpt lat="45.16559" lon="5.97818">
        <ele>2698.4</ele>
        <time>2021-02-20T14:01:12Z</time>
      </trkpt>
      <trkpt lat="45.16559" lon="5.97818">
        <ele>2698.4</ele>
        <time>2021-02-20T14:01:13Z</time>
      </trkpt>
      <trkpt lat="45.16558" lon="5.97818">
        <ele>2698.3</ele>
        <time>2021-02-20T14:01:14Z</time>
      </trkpt>
      <trkpt lat="45.16559" lon="5.97819">
        <ele>2698.3</ele>
        <time>2021-02-20T14:01:15Z</time>
      </trkpt>
      <trkpt lat="45.16559" lon="5.97819">
        <ele>2698.3</ele>
        <time>2021-02-20T14:01:16Z</time>
      </trkpt>
      <trkpt lat="45.16559" lon="5.97819">
        <ele>2698.1</ele>
        <time>2021-02-20T14:01:17Z</time>
      </trkpt>
      <trkpt lat="45.16559" lon="5.97819">
        <ele>2698.1</ele>
        <time>2021-02-20T14:01:18Z</time>
      </trkpt>
      <trkpt lat="45.16559" lon="5.97819">
        <ele>2698.1</ele>
        <time>2021-02-20T14:01:19Z</time>
      </trkpt>
      <trkpt lat="45.16559" lon="5.97819">
        <ele>2698.1</ele>
        <time>2021-02-20T14:01:20Z</time>
      </trkpt>
      <trkpt lat="45.16559" lon="5.97819">
        <ele>2698.1</ele>
        <time>2021-02-20T14:01:21Z</time>
      </trkpt>
      <trkpt lat="45.16559" lon="5.97819">
        <ele>2698.1</ele>
        <time>2021-02-20T14:01:22Z</time>
      </trkpt>
      <trkpt lat="45.16559" lon="5.97819">
        <ele>2698.1</ele>
        <time>2021-02-20T14:01:23Z</time>
      </trkpt>
      <trkpt lat="45.1656" lon="5.97819">
        <ele>2698</ele>
        <time>2021-02-20T14:01:24Z</time>
      </trkpt>
      <trkpt lat="45.1656" lon="5.97819">
        <ele>2698</ele>
        <time>2021-02-20T14:01:25Z</time>
      </trkpt>
      <trkpt lat="45.1656" lon="5.97819">
        <ele>2698</ele>
        <time>2021-02-20T14:01:26Z</time>
      </trkpt>
      <trkpt lat="45.1656" lon="5.97819">
        <ele>2698</ele>
        <time>2021-02-20T14:01:27Z</time>
      </trkpt>
      <trkpt lat="45.1656" lon="5.97819">
        <ele>2698</ele>
        <time>2021-02-20T14:01:28Z</time>
      </trkpt>
      <trkpt lat="45.1656" lon="5.97819">
        <ele>2698</ele>
        <time>2021-02-20T14:01:29Z</time>
      </trkpt>
      <trkpt lat="45.1656" lon="5.97819">
        <ele>2698</ele>
        <time>2021-02-20T14:01:30Z</time>
      </trkpt>
      <trkpt lat="45.1656" lon="5.97819">
        <ele>2698</ele>
        <time>2021-02-20T14:01:31Z</time>
      </trkpt>
      <trkpt lat="45.16561" lon="5.97819">
        <ele>2697.9</ele>
        <time>2021-02-20T14:01:32Z</time>
      </trkpt>
      <trkpt lat="45.16561" lon="5.97819">
        <ele>2697.9</ele>
        <time>2021-02-20T14:01:33Z</time>
      </trkpt>
      <trkpt lat="45.16561" lon="5.97819">
        <ele>2697.9</ele>
        <time>2021-02-20T14:01:34Z</time>
      </trkpt>
      <trkpt lat="45.16561" lon="5.97819">
        <ele>2697.9</ele>
        <time>2021-02-20T14:01:35Z</time>
      </trkpt>
      <trkpt lat="45.16561" lon="5.97819">
        <ele>2697.9</ele>
        <time>2021-02-20T14:01:36Z</time>
      </trkpt>
      <trkpt lat="45.16561" lon="5.97819">
        <ele>2697.9</ele>
        <time>2021-02-20T14:01:37Z</time>
      </trkpt>
      <trkpt lat="45.16561" lon="5.97819">
        <ele>2697.9</ele>
        <time>2021-02-20T14:01:38Z</time>
      </trkpt>
      <trkpt lat="45.16561" lon="5.97819">
        <ele>2697.9</ele>
        <time>2021-02-20T14:01:39Z</time>
      </trkpt>
      <trkpt lat="45.16561" lon="5.97819">
        <ele>2697.9</ele>
        <time>2021-02-20T14:01:40Z</time>
      </trkpt>
      <trkpt lat="45.16561" lon="5.97819">
        <ele>2697.9</ele>
        <time>2021-02-20T14:01:41Z</time>
      </trkpt>
      <trkpt lat="45.16561" lon="5.97819">
        <ele>2697.9</ele>
        <time>2021-02-20T14:01:42Z</time>
      </trkpt>
      <trkpt lat="45.16561" lon="5.97819">
        <ele>2697.9</ele>
        <time>2021-02-20T14:01:43Z</time>
      </trkpt>
      <trkpt lat="45.16561" lon="5.97818">
        <ele>2697.9</ele>
        <time>2021-02-20T14:01:44Z</time>
      </trkpt>
      <trkpt lat="45.16561" lon="5.97818">
        <ele>2697.9</ele>
        <time>2021-02-20T14:01:45Z</time>
      </trkpt>
      <trkpt lat="45.16561" lon="5.97818">
        <ele>2697.8</ele>
        <time>2021-02-20T14:01:46Z</time>
      </trkpt>
      <trkpt lat="45.16561" lon="5.97818">
        <ele>2697.8</ele>
        <time>2021-02-20T14:01:47Z</time>
      </trkpt>
      <trkpt lat="45.16561" lon="5.97817">
        <ele>2697.8</ele>
        <time>2021-02-20T14:01:48Z</time>
      </trkpt>
      <trkpt lat="45.16561" lon="5.97817">
        <ele>2697.7</ele>
        <time>2021-02-20T14:01:49Z</time>
      </trkpt>
      <trkpt lat="45.16561" lon="5.97817">
        <ele>2697.7</ele>
        <time>2021-02-20T14:01:50Z</time>
      </trkpt>
      <trkpt lat="45.16561" lon="5.97817">
        <ele>2697.7</ele>
        <time>2021-02-20T14:01:51Z</time>
      </trkpt>
      <trkpt lat="45.16561" lon="5.97817">
        <ele>2697.7</ele>
        <time>2021-02-20T14:01:52Z</time>
      </trkpt>
      <trkpt lat="45.16561" lon="5.97817">
        <ele>2697.7</ele>
        <time>2021-02-20T14:01:53Z</time>
      </trkpt>
      <trkpt lat="45.16561" lon="5.97817">
        <ele>2697.7</ele>
        <time>2021-02-20T14:01:54Z</time>
      </trkpt>
      <trkpt lat="45.16561" lon="5.97817">
        <ele>2697.6</ele>
        <time>2021-02-20T14:01:55Z</time>
      </trkpt>
      <trkpt lat="45.16561" lon="5.97816">
        <ele>2697.6</ele>
        <time>2021-02-20T14:01:56Z</time>
      </trkpt>
      <trkpt lat="45.16561" lon="5.97816">
        <ele>2697.6</ele>
        <time>2021-02-20T14:01:57Z</time>
      </trkpt>
      <trkpt lat="45.16561" lon="5.97816">
        <ele>2697.6</ele>
        <time>2021-02-20T14:01:58Z</time>
      </trkpt>
      <trkpt lat="45.16561" lon="5.97816">
        <ele>2697.6</ele>
        <time>2021-02-20T14:01:59Z</time>
      </trkpt>
      <trkpt lat="45.16561" lon="5.97816">
        <ele>2697.6</ele>
        <time>2021-02-20T14:02:00Z</time>
      </trkpt>
      <trkpt lat="45.16561" lon="5.97816">
        <ele>2697.6</ele>
        <time>2021-02-20T14:02:01Z</time>
      </trkpt>
      <trkpt lat="45.16561" lon="5.97816">
        <ele>2697.5</ele>
        <time>2021-02-20T14:02:02Z</time>
      </trkpt>
      <trkpt lat="45.16561" lon="5.97816">
        <ele>2697.5</ele>
        <time>2021-02-20T14:02:03Z</time>
      </trkpt>
      <trkpt lat="45.16561" lon="5.97815">
        <ele>2697.5</ele>
        <time>2021-02-20T14:02:04Z</time>
      </trkpt>
      <trkpt lat="45.16561" lon="5.97815">
        <ele>2697.5</ele>
        <time>2021-02-20T14:02:05Z</time>
      </trkpt>
      <trkpt lat="45.16561" lon="5.97815">
        <ele>2697.5</ele>
        <time>2021-02-20T14:02:06Z</time>
      </trkpt>
      <trkpt lat="45.16561" lon="5.97815">
        <ele>2697.5</ele>
        <time>2021-02-20T14:02:07Z</time>
      </trkpt>
      <trkpt lat="45.1656" lon="5.97815">
        <ele>2697.5</ele>
        <time>2021-02-20T14:02:08Z</time>
      </trkpt>
      <trkpt lat="45.1656" lon="5.97815">
        <ele>2697.4</ele>
        <time>2021-02-20T14:02:09Z</time>
      </trkpt>
      <trkpt lat="45.1656" lon="5.97815">
        <ele>2697.4</ele>
        <time>2021-02-20T14:02:10Z</time>
      </trkpt>
      <trkpt lat="45.1656" lon="5.97815">
        <ele>2697.4</ele>
        <time>2021-02-20T14:02:11Z</time>
      </trkpt>
      <trkpt lat="45.1656" lon="5.97814">
        <ele>2697.4</ele>
        <time>2021-02-20T14:02:12Z</time>
      </trkpt>
      <trkpt lat="45.1656" lon="5.97814">
        <ele>2697.4</ele>
        <time>2021-02-20T14:02:13Z</time>
      </trkpt>
      <trkpt lat="45.1656" lon="5.97814">
        <ele>2697.4</ele>
        <time>2021-02-20T14:02:14Z</time>
      </trkpt>
      <trkpt lat="45.1656" lon="5.97814">
        <ele>2697.4</ele>
        <time>2021-02-20T14:02:15Z</time>
      </trkpt>
      <trkpt lat="45.1656" lon="5.97814">
        <ele>2697.3</ele>
        <time>2021-02-20T14:02:16Z</time>
      </trkpt>
      <trkpt lat="45.1656" lon="5.97814">
        <ele>2697.3</ele>
        <time>2021-02-20T14:02:17Z</time>
      </trkpt>
      <trkpt lat="45.1656" lon="5.97814">
        <ele>2697.3</ele>
        <time>2021-02-20T14:02:18Z</time>
      </trkpt>
      <trkpt lat="45.1656" lon="5.97814">
        <ele>2697.3</ele>
        <time>2021-02-20T14:02:19Z</time>
      </trkpt>
      <trkpt lat="45.1656" lon="5.97814">
        <ele>2697.3</ele>
        <time>2021-02-20T14:02:20Z</time>
      </trkpt>
      <trkpt lat="45.1656" lon="5.97813">
        <ele>2697.3</ele>
        <time>2021-02-20T14:02:21Z</time>
      </trkpt>
      <trkpt lat="45.1656" lon="5.97813">
        <ele>2697.3</ele>
        <time>2021-02-20T14:02:22Z</time>
      </trkpt>
      <trkpt lat="45.1656" lon="5.97813">
        <ele>2697.3</ele>
        <time>2021-02-20T14:02:23Z</time>
      </trkpt>
      <trkpt lat="45.1656" lon="5.97813">
        <ele>2697.2</ele>
        <time>2021-02-20T14:02:24Z</time>
      </trkpt>
      <trkpt lat="45.1656" lon="5.97813">
        <ele>2697.2</ele>
        <time>2021-02-20T14:02:25Z</time>
      </trkpt>
      <trkpt lat="45.1656" lon="5.97813">
        <ele>2697.2</ele>
        <time>2021-02-20T14:02:26Z</time>
      </trkpt>
      <trkpt lat="45.1656" lon="5.97813">
        <ele>2697.2</ele>
        <time>2021-02-20T14:02:27Z</time>
      </trkpt>
      <trkpt lat="45.1656" lon="5.97813">
        <ele>2697.2</ele>
        <time>2021-02-20T14:02:28Z</time>
      </trkpt>
      <trkpt lat="45.1656" lon="5.97812">
        <ele>2697.2</ele>
        <time>2021-02-20T14:02:29Z</time>
      </trkpt>
      <trkpt lat="45.1656" lon="5.97812">
        <ele>2697.1</ele>
        <time>2021-02-20T14:02:30Z</time>
      </trkpt>
      <trkpt lat="45.1656" lon="5.97812">
        <ele>2697.1</ele>
        <time>2021-02-20T14:02:31Z</time>
      </trkpt>
      <trkpt lat="45.1656" lon="5.97812">
        <ele>2697.1</ele>
        <time>2021-02-20T14:02:32Z</time>
      </trkpt>
      <trkpt lat="45.1656" lon="5.97808">
        <ele>2696.6</ele>
        <time>2021-02-20T14:02:33Z</time>
      </trkpt>
      <trkpt lat="45.16561" lon="5.97802">
        <ele>2696.1</ele>
        <time>2021-02-20T14:02:34Z</time>
      </trkpt>
      <trkpt lat="45.16562" lon="5.97797">
        <ele>2695.4</ele>
        <time>2021-02-20T14:02:35Z</time>
      </trkpt>
      <trkpt lat="45.16564" lon="5.97792">
        <ele>2694.9</ele>
        <time>2021-02-20T14:02:36Z</time>
      </trkpt>
      <trkpt lat="45.16564" lon="5.97788">
        <ele>2694.5</ele>
        <time>2021-02-20T14:02:37Z</time>
      </trkpt>
      <trkpt lat="45.16564" lon="5.97782">
        <ele>2693.8</ele>
        <time>2021-02-20T14:02:38Z</time>
      </trkpt>
      <trkpt lat="45.16564" lon="5.97777">
        <ele>2693.3</ele>
        <time>2021-02-20T14:02:39Z</time>
      </trkpt>
      <trkpt lat="45.16565" lon="5.9777">
        <ele>2692.7</ele>
        <time>2021-02-20T14:02:40Z</time>
      </trkpt>
      <trkpt lat="45.16566" lon="5.97765">
        <ele>2692.2</ele>
        <time>2021-02-20T14:02:41Z</time>
      </trkpt>
      <trkpt lat="45.16566" lon="5.97763">
        <ele>2692</ele>
        <time>2021-02-20T14:02:42Z</time>
      </trkpt>
      <trkpt lat="45.16567" lon="5.97758">
        <ele>2691.5</ele>
        <time>2021-02-20T14:02:43Z</time>
      </trkpt>
      <trkpt lat="45.16567" lon="5.97756">
        <ele>2691.3</ele>
        <time>2021-02-20T14:02:44Z</time>
      </trkpt>
      <trkpt lat="45.16567" lon="5.97752">
        <ele>2690.9</ele>
        <time>2021-02-20T14:02:45Z</time>
      </trkpt>
      <trkpt lat="45.16567" lon="5.97747">
        <ele>2690.5</ele>
        <time>2021-02-20T14:02:46Z</time>
      </trkpt>
      <trkpt lat="45.16567" lon="5.97746">
        <ele>2690.4</ele>
        <time>2021-02-20T14:02:47Z</time>
      </trkpt>
      <trkpt lat="45.16567" lon="5.97741">
        <ele>2690</ele>
        <time>2021-02-20T14:02:48Z</time>
      </trkpt>
      <trkpt lat="45.16566" lon="5.97738">
        <ele>2689.8</ele>
        <time>2021-02-20T14:02:49Z</time>
      </trkpt>
      <trkpt lat="45.16567" lon="5.97734">
        <ele>2689.4</ele>
        <time>2021-02-20T14:02:50Z</time>
      </trkpt>
      <trkpt lat="45.16568" lon="5.9773">
        <ele>2689</ele>
        <time>2021-02-20T14:02:51Z</time>
      </trkpt>
      <trkpt lat="45.16569" lon="5.97728">
        <ele>2688.9</ele>
        <time>2021-02-20T14:02:52Z</time>
      </trkpt>
      <trkpt lat="45.16569" lon="5.97727">
        <ele>2688.8</ele>
        <time>2021-02-20T14:02:53Z</time>
      </trkpt>
      <trkpt lat="45.16569" lon="5.97726">
        <ele>2688.7</ele>
        <time>2021-02-20T14:02:54Z</time>
      </trkpt>
      <trkpt lat="45.16568" lon="5.97726">
        <ele>2688.6</ele>
        <time>2021-02-20T14:02:55Z</time>
      </trkpt>
      <trkpt lat="45.16566" lon="5.97723">
        <ele>2688.2</ele>
        <time>2021-02-20T14:02:56Z</time>
      </trkpt>
      <trkpt lat="45.16565" lon="5.97722">
        <ele>2688</ele>
        <time>2021-02-20T14:02:57Z</time>
      </trkpt>
      <trkpt lat="45.16561" lon="5.97721">
        <ele>2687.6</ele>
        <time>2021-02-20T14:02:58Z</time>
      </trkpt>
      <trkpt lat="45.16558" lon="5.97722">
        <ele>2687</ele>
        <time>2021-02-20T14:02:59Z</time>
      </trkpt>
      <trkpt lat="45.16553" lon="5.97724">
        <ele>2686.3</ele>
        <time>2021-02-20T14:03:00Z</time>
      </trkpt>
      <trkpt lat="45.16549" lon="5.97725">
        <ele>2685.5</ele>
        <time>2021-02-20T14:03:01Z</time>
      </trkpt>
      <trkpt lat="45.16546" lon="5.97725">
        <ele>2684.8</ele>
        <time>2021-02-20T14:03:02Z</time>
      </trkpt>
      <trkpt lat="45.16545" lon="5.97724">
        <ele>2684.6</ele>
        <time>2021-02-20T14:03:03Z</time>
      </trkpt>
      <trkpt lat="45.16544" lon="5.97724">
        <ele>2684.4</ele>
        <time>2021-02-20T14:03:04Z</time>
      </trkpt>
      <trkpt lat="45.16544" lon="5.97723">
        <ele>2684.4</ele>
        <time>2021-02-20T14:03:05Z</time>
      </trkpt>
      <trkpt lat="45.16543" lon="5.97723">
        <ele>2684.2</ele>
        <time>2021-02-20T14:03:06Z</time>
      </trkpt>
      <trkpt lat="45.16543" lon="5.97721">
        <ele>2684</ele>
        <time>2021-02-20T14:03:07Z</time>
      </trkpt>
      <trkpt lat="45.16542" lon="5.9772">
        <ele>2683.7</ele>
        <time>2021-02-20T14:03:08Z</time>
      </trkpt>
      <trkpt lat="45.16541" lon="5.97718">
        <ele>2683.3</ele>
        <time>2021-02-20T14:03:09Z</time>
      </trkpt>
      <trkpt lat="45.16539" lon="5.97714">
        <ele>2682.5</ele>
        <time>2021-02-20T14:03:10Z</time>
      </trkpt>
      <trkpt lat="45.16538" lon="5.97713">
        <ele>2682.2</ele>
        <time>2021-02-20T14:03:11Z</time>
      </trkpt>
      <trkpt lat="45.16536" lon="5.9771">
        <ele>2681.6</ele>
        <time>2021-02-20T14:03:12Z</time>
      </trkpt>
      <trkpt lat="45.16534" lon="5.97707">
        <ele>2680.8</ele>
        <time>2021-02-20T14:03:13Z</time>
      </trkpt>
      <trkpt lat="45.16531" lon="5.97704">
        <ele>2680</ele>
        <time>2021-02-20T14:03:14Z</time>
      </trkpt>
      <trkpt lat="45.1653" lon="5.97703">
        <ele>2679.8</ele>
        <time>2021-02-20T14:03:15Z</time>
      </trkpt>
      <trkpt lat="45.16529" lon="5.97698">
        <ele>2678.9</ele>
        <time>2021-02-20T14:03:16Z</time>
      </trkpt>
      <trkpt lat="45.16529" lon="5.97696">
        <ele>2678.6</ele>
        <time>2021-02-20T14:03:17Z</time>
      </trkpt>
      <trkpt lat="45.16531" lon="5.97694">
        <ele>2677.9</ele>
        <time>2021-02-20T14:03:18Z</time>
      </trkpt>
      <trkpt lat="45.16533" lon="5.9769">
        <ele>2677.3</ele>
        <time>2021-02-20T14:03:19Z</time>
      </trkpt>
      <trkpt lat="45.16533" lon="5.97685">
        <ele>2676.3</ele>
        <time>2021-02-20T14:03:20Z</time>
      </trkpt>
      <trkpt lat="45.16533" lon="5.97683">
        <ele>2676</ele>
        <time>2021-02-20T14:03:21Z</time>
      </trkpt>
      <trkpt lat="45.16534" lon="5.97679">
        <ele>2675.3</ele>
        <time>2021-02-20T14:03:22Z</time>
      </trkpt>
      <trkpt lat="45.16536" lon="5.97675">
        <ele>2674.6</ele>
        <time>2021-02-20T14:03:23Z</time>
      </trkpt>
      <trkpt lat="45.16537" lon="5.9767">
        <ele>2673.6</ele>
        <time>2021-02-20T14:03:24Z</time>
      </trkpt>
      <trkpt lat="45.16537" lon="5.97668">
        <ele>2673.3</ele>
        <time>2021-02-20T14:03:25Z</time>
      </trkpt>
      <trkpt lat="45.16536" lon="5.97664">
        <ele>2672.6</ele>
        <time>2021-02-20T14:03:26Z</time>
      </trkpt>
      <trkpt lat="45.16536" lon="5.97661">
        <ele>2672.1</ele>
        <time>2021-02-20T14:03:27Z</time>
      </trkpt>
      <trkpt lat="45.16536" lon="5.9766">
        <ele>2672</ele>
        <time>2021-02-20T14:03:28Z</time>
      </trkpt>
      <trkpt lat="45.16537" lon="5.97659">
        <ele>2671.8</ele>
        <time>2021-02-20T14:03:29Z</time>
      </trkpt>
      <trkpt lat="45.16537" lon="5.97659">
        <ele>2671.6</ele>
        <time>2021-02-20T14:03:30Z</time>
      </trkpt>
      <trkpt lat="45.16537" lon="5.97658">
        <ele>2671.5</ele>
        <time>2021-02-20T14:03:31Z</time>
      </trkpt>
      <trkpt lat="45.16537" lon="5.97652">
        <ele>2670.5</ele>
        <time>2021-02-20T14:03:32Z</time>
      </trkpt>
      <trkpt lat="45.16536" lon="5.9765">
        <ele>2670.2</ele>
        <time>2021-02-20T14:03:33Z</time>
      </trkpt>
      <trkpt lat="45.16536" lon="5.97647">
        <ele>2669.6</ele>
        <time>2021-02-20T14:03:34Z</time>
      </trkpt>
      <trkpt lat="45.16536" lon="5.97642">
        <ele>2668.8</ele>
        <time>2021-02-20T14:03:35Z</time>
      </trkpt>
      <trkpt lat="45.16537" lon="5.97638">
        <ele>2668.1</ele>
        <time>2021-02-20T14:03:36Z</time>
      </trkpt>
      <trkpt lat="45.16539" lon="5.97635">
        <ele>2662.3</ele>
        <time>2021-02-20T14:03:37Z</time>
      </trkpt>
      <trkpt lat="45.16541" lon="5.9763">
        <ele>2660.6</ele>
        <time>2021-02-20T14:03:38Z</time>
      </trkpt>
      <trkpt lat="45.16543" lon="5.97626">
        <ele>2658.9</ele>
        <time>2021-02-20T14:03:39Z</time>
      </trkpt>
      <trkpt lat="45.16543" lon="5.97625">
        <ele>2658.6</ele>
        <time>2021-02-20T14:03:40Z</time>
      </trkpt>
      <trkpt lat="45.16542" lon="5.97625">
        <ele>2658.2</ele>
        <time>2021-02-20T14:03:41Z</time>
      </trkpt>
      <trkpt lat="45.16542" lon="5.97625">
        <ele>2657.9</ele>
        <time>2021-02-20T14:03:42Z</time>
      </trkpt>
      <trkpt lat="45.16541" lon="5.97625">
        <ele>2657.6</ele>
        <time>2021-02-20T14:03:43Z</time>
      </trkpt>
      <trkpt lat="45.1654" lon="5.97626">
        <ele>2657.3</ele>
        <time>2021-02-20T14:03:44Z</time>
      </trkpt>
      <trkpt lat="45.16539" lon="5.97626">
        <ele>2656.9</ele>
        <time>2021-02-20T14:03:45Z</time>
      </trkpt>
      <trkpt lat="45.16536" lon="5.97624">
        <ele>2655.5</ele>
        <time>2021-02-20T14:03:46Z</time>
      </trkpt>
      <trkpt lat="45.16535" lon="5.97623">
        <ele>2655</ele>
        <time>2021-02-20T14:03:47Z</time>
      </trkpt>
      <trkpt lat="45.16534" lon="5.97619">
        <ele>2653.8</ele>
        <time>2021-02-20T14:03:48Z</time>
      </trkpt>
      <trkpt lat="45.16535" lon="5.97614">
        <ele>2652.4</ele>
        <time>2021-02-20T14:03:49Z</time>
      </trkpt>
      <trkpt lat="45.16536" lon="5.97609">
        <ele>2650.9</ele>
        <time>2021-02-20T14:03:50Z</time>
      </trkpt>
      <trkpt lat="45.16536" lon="5.97605">
        <ele>2649.9</ele>
        <time>2021-02-20T14:03:51Z</time>
      </trkpt>
      <trkpt lat="45.16533" lon="5.97601">
        <ele>2648.6</ele>
        <time>2021-02-20T14:03:52Z</time>
      </trkpt>
      <trkpt lat="45.1653" lon="5.97597">
        <ele>2647.3</ele>
        <time>2021-02-20T14:03:53Z</time>
      </trkpt>
      <trkpt lat="45.16527" lon="5.97594">
        <ele>2646.1</ele>
        <time>2021-02-20T14:03:54Z</time>
      </trkpt>
      <trkpt lat="45.16524" lon="5.97591">
        <ele>2645.1</ele>
        <time>2021-02-20T14:03:55Z</time>
      </trkpt>
      <trkpt lat="45.1652" lon="5.9759">
        <ele>2643.9</ele>
        <time>2021-02-20T14:03:56Z</time>
      </trkpt>
      <trkpt lat="45.16516" lon="5.97587">
        <ele>2642.6</ele>
        <time>2021-02-20T14:03:57Z</time>
      </trkpt>
      <trkpt lat="45.16513" lon="5.97584">
        <ele>2641.5</ele>
        <time>2021-02-20T14:03:58Z</time>
      </trkpt>
      <trkpt lat="45.16512" lon="5.97581">
        <ele>2640.7</ele>
        <time>2021-02-20T14:03:59Z</time>
      </trkpt>
      <trkpt lat="45.1651" lon="5.9758">
        <ele>2640.1</ele>
        <time>2021-02-20T14:04:00Z</time>
      </trkpt>
      <trkpt lat="45.16508" lon="5.9758">
        <ele>2639.6</ele>
        <time>2021-02-20T14:04:01Z</time>
      </trkpt>
      <trkpt lat="45.16508" lon="5.9758">
        <ele>2639.5</ele>
        <time>2021-02-20T14:04:02Z</time>
      </trkpt>
      <trkpt lat="45.16508" lon="5.9758">
        <ele>2639.5</ele>
        <time>2021-02-20T14:04:03Z</time>
      </trkpt>
      <trkpt lat="45.16508" lon="5.9758">
        <ele>2639.4</ele>
        <time>2021-02-20T14:04:04Z</time>
      </trkpt>
      <trkpt lat="45.16508" lon="5.97579">
        <ele>2639.3</ele>
        <time>2021-02-20T14:04:05Z</time>
      </trkpt>
      <trkpt lat="45.16508" lon="5.9758">
        <ele>2639.2</ele>
        <time>2021-02-20T14:04:06Z</time>
      </trkpt>
      <trkpt lat="45.16508" lon="5.9758">
        <ele>2639.2</ele>
        <time>2021-02-20T14:04:07Z</time>
      </trkpt>
      <trkpt lat="45.16508" lon="5.9758">
        <ele>2639.1</ele>
        <time>2021-02-20T14:04:08Z</time>
      </trkpt>
      <trkpt lat="45.16507" lon="5.9758">
        <ele>2638.8</ele>
        <time>2021-02-20T14:04:09Z</time>
      </trkpt>
      <trkpt lat="45.16506" lon="5.97579">
        <ele>2638.4</ele>
        <time>2021-02-20T14:04:10Z</time>
      </trkpt>
      <trkpt lat="45.16504" lon="5.97576">
        <ele>2637.5</ele>
        <time>2021-02-20T14:04:11Z</time>
      </trkpt>
      <trkpt lat="45.16503" lon="5.97575">
        <ele>2637.2</ele>
        <time>2021-02-20T14:04:12Z</time>
      </trkpt>
      <trkpt lat="45.16501" lon="5.97572">
        <ele>2636.3</ele>
        <time>2021-02-20T14:04:13Z</time>
      </trkpt>
      <trkpt lat="45.165" lon="5.9757">
        <ele>2635.8</ele>
        <time>2021-02-20T14:04:14Z</time>
      </trkpt>
      <trkpt lat="45.16501" lon="5.97565">
        <ele>2634.6</ele>
        <time>2021-02-20T14:04:15Z</time>
      </trkpt>
      <trkpt lat="45.16503" lon="5.97558">
        <ele>2633.2</ele>
        <time>2021-02-20T14:04:16Z</time>
      </trkpt>
      <trkpt lat="45.16501" lon="5.97554">
        <ele>2632.1</ele>
        <time>2021-02-20T14:04:17Z</time>
      </trkpt>
      <trkpt lat="45.16497" lon="5.97553">
        <ele>2630.9</ele>
        <time>2021-02-20T14:04:18Z</time>
      </trkpt>
      <trkpt lat="45.16493" lon="5.97551">
        <ele>2629.6</ele>
        <time>2021-02-20T14:04:19Z</time>
      </trkpt>
      <trkpt lat="45.16488" lon="5.97549">
        <ele>2628</ele>
        <time>2021-02-20T14:04:20Z</time>
      </trkpt>
      <trkpt lat="45.16484" lon="5.97546">
        <ele>2626.8</ele>
        <time>2021-02-20T14:04:21Z</time>
      </trkpt>
      <trkpt lat="45.16483" lon="5.9754">
        <ele>2625.4</ele>
        <time>2021-02-20T14:04:22Z</time>
      </trkpt>
      <trkpt lat="45.16485" lon="5.97536">
        <ele>2624.3</ele>
        <time>2021-02-20T14:04:23Z</time>
      </trkpt>
      <trkpt lat="45.16485" lon="5.97529">
        <ele>2623</ele>
        <time>2021-02-20T14:04:24Z</time>
      </trkpt>
      <trkpt lat="45.16483" lon="5.97526">
        <ele>2622.2</ele>
        <time>2021-02-20T14:04:25Z</time>
      </trkpt>
      <trkpt lat="45.16481" lon="5.97521">
        <ele>2621</ele>
        <time>2021-02-20T14:04:26Z</time>
      </trkpt>
      <trkpt lat="45.16478" lon="5.97515">
        <ele>2617.2</ele>
        <time>2021-02-20T14:04:27Z</time>
      </trkpt>
      <trkpt lat="45.16475" lon="5.97512">
        <ele>2617.1</ele>
        <time>2021-02-20T14:04:28Z</time>
      </trkpt>
      <trkpt lat="45.16472" lon="5.9751">
        <ele>2615.1</ele>
        <time>2021-02-20T14:04:29Z</time>
      </trkpt>
      <trkpt lat="45.16469" lon="5.97508">
        <ele>2615.1</ele>
        <time>2021-02-20T14:04:30Z</time>
      </trkpt>
      <trkpt lat="45.16466" lon="5.97507">
        <ele>2615</ele>
        <time>2021-02-20T14:04:31Z</time>
      </trkpt>
      <trkpt lat="45.16465" lon="5.97507">
        <ele>2615</ele>
        <time>2021-02-20T14:04:32Z</time>
      </trkpt>
      <trkpt lat="45.16463" lon="5.97507">
        <ele>2614.8</ele>
        <time>2021-02-20T14:04:33Z</time>
      </trkpt>
      <trkpt lat="45.16462" lon="5.97508">
        <ele>2614.8</ele>
        <time>2021-02-20T14:04:34Z</time>
      </trkpt>
      <trkpt lat="45.16462" lon="5.97507">
        <ele>2614.8</ele>
        <time>2021-02-20T14:04:35Z</time>
      </trkpt>
      <trkpt lat="45.16459" lon="5.97507">
        <ele>2614.7</ele>
        <time>2021-02-20T14:04:36Z</time>
      </trkpt>
      <trkpt lat="45.16458" lon="5.97507">
        <ele>2614.7</ele>
        <time>2021-02-20T14:04:37Z</time>
      </trkpt>
      <trkpt lat="45.16457" lon="5.97507">
        <ele>2614.6</ele>
        <time>2021-02-20T14:04:38Z</time>
      </trkpt>
      <trkpt lat="45.16455" lon="5.97503">
        <ele>2612.7</ele>
        <time>2021-02-20T14:04:39Z</time>
      </trkpt>
      <trkpt lat="45.16455" lon="5.97502">
        <ele>2610.8</ele>
        <time>2021-02-20T14:04:40Z</time>
      </trkpt>
      <trkpt lat="45.16456" lon="5.97497">
        <ele>2608.9</ele>
        <time>2021-02-20T14:04:41Z</time>
      </trkpt>
      <trkpt lat="45.16461" lon="5.97491">
        <ele>2607.3</ele>
        <time>2021-02-20T14:04:42Z</time>
      </trkpt>
      <trkpt lat="45.16463" lon="5.97483">
        <ele>2604.3</ele>
        <time>2021-02-20T14:04:43Z</time>
      </trkpt>
      <trkpt lat="45.16465" lon="5.97478">
        <ele>2602.9</ele>
        <time>2021-02-20T14:04:44Z</time>
      </trkpt>
      <trkpt lat="45.16467" lon="5.97473">
        <ele>2601.3</ele>
        <time>2021-02-20T14:04:45Z</time>
      </trkpt>
      <trkpt lat="45.16467" lon="5.97469">
        <ele>2599.9</ele>
        <time>2021-02-20T14:04:46Z</time>
      </trkpt>
      <trkpt lat="45.16468" lon="5.97467">
        <ele>2598.3</ele>
        <time>2021-02-20T14:04:47Z</time>
      </trkpt>
      <trkpt lat="45.16467" lon="5.97466">
        <ele>2598.1</ele>
        <time>2021-02-20T14:04:48Z</time>
      </trkpt>
      <trkpt lat="45.16467" lon="5.97465">
        <ele>2598.3</ele>
        <time>2021-02-20T14:04:49Z</time>
      </trkpt>
      <trkpt lat="45.16466" lon="5.97464">
        <ele>2598.1</ele>
        <time>2021-02-20T14:04:50Z</time>
      </trkpt>
      <trkpt lat="45.16466" lon="5.97464">
        <ele>2598.1</ele>
        <time>2021-02-20T14:04:51Z</time>
      </trkpt>
      <trkpt lat="45.16466" lon="5.97465">
        <ele>2598.1</ele>
        <time>2021-02-20T14:04:52Z</time>
      </trkpt>
      <trkpt lat="45.16466" lon="5.97465">
        <ele>2598.1</ele>
        <time>2021-02-20T14:04:53Z</time>
      </trkpt>
      <trkpt lat="45.16466" lon="5.97465">
        <ele>2598.1</ele>
        <time>2021-02-20T14:04:54Z</time>
      </trkpt>
      <trkpt lat="45.16465" lon="5.97466">
        <ele>2598.1</ele>
        <time>2021-02-20T14:04:55Z</time>
      </trkpt>
      <trkpt lat="45.16465" lon="5.97466">
        <ele>2598.1</ele>
        <time>2021-02-20T14:04:56Z</time>
      </trkpt>
      <trkpt lat="45.16465" lon="5.97466">
        <ele>2598.1</ele>
        <time>2021-02-20T14:04:57Z</time>
      </trkpt>
      <trkpt lat="45.16465" lon="5.97466">
        <ele>2598.1</ele>
        <time>2021-02-20T14:04:58Z</time>
      </trkpt>
      <trkpt lat="45.16465" lon="5.97467">
        <ele>2598.1</ele>
        <time>2021-02-20T14:04:59Z</time>
      </trkpt>
      <trkpt lat="45.16465" lon="5.97467">
        <ele>2598.1</ele>
        <time>2021-02-20T14:05:00Z</time>
      </trkpt>
      <trkpt lat="45.16464" lon="5.97467">
        <ele>2598.1</ele>
        <time>2021-02-20T14:05:01Z</time>
      </trkpt>
      <trkpt lat="45.16464" lon="5.97468">
        <ele>2599.7</ele>
        <time>2021-02-20T14:05:02Z</time>
      </trkpt>
      <trkpt lat="45.16464" lon="5.97468">
        <ele>2599.5</ele>
        <time>2021-02-20T14:05:03Z</time>
      </trkpt>
      <trkpt lat="45.16464" lon="5.97468">
        <ele>2599.5</ele>
        <time>2021-02-20T14:05:04Z</time>
      </trkpt>
      <trkpt lat="45.16459" lon="5.97471">
        <ele>2599.3</ele>
        <time>2021-02-20T14:05:05Z</time>
      </trkpt>
      <trkpt lat="45.16456" lon="5.97473">
        <ele>2600.8</ele>
        <time>2021-02-20T14:05:06Z</time>
      </trkpt>
      <trkpt lat="45.16452" lon="5.97474">
        <ele>2600.6</ele>
        <time>2021-02-20T14:05:07Z</time>
      </trkpt>
      <trkpt lat="45.16451" lon="5.97475">
        <ele>2600.5</ele>
        <time>2021-02-20T14:05:08Z</time>
      </trkpt>
      <trkpt lat="45.1645" lon="5.97476">
        <ele>2600.5</ele>
        <time>2021-02-20T14:05:09Z</time>
      </trkpt>
      <trkpt lat="45.16449" lon="5.97476">
        <ele>2602.1</ele>
        <time>2021-02-20T14:05:10Z</time>
      </trkpt>
      <trkpt lat="45.16448" lon="5.97476">
        <ele>2602.1</ele>
        <time>2021-02-20T14:05:11Z</time>
      </trkpt>
      <trkpt lat="45.16446" lon="5.97476">
        <ele>2600.5</ele>
        <time>2021-02-20T14:05:12Z</time>
      </trkpt>
      <trkpt lat="45.16443" lon="5.97474">
        <ele>2600.4</ele>
        <time>2021-02-20T14:05:13Z</time>
      </trkpt>
      <trkpt lat="45.16442" lon="5.97474">
        <ele>2600.4</ele>
        <time>2021-02-20T14:05:14Z</time>
      </trkpt>
      <trkpt lat="45.16439" lon="5.97473">
        <ele>2600.5</ele>
        <time>2021-02-20T14:05:15Z</time>
      </trkpt>
      <trkpt lat="45.16436" lon="5.97472">
        <ele>2600.6</ele>
        <time>2021-02-20T14:05:16Z</time>
      </trkpt>
      <trkpt lat="45.16433" lon="5.97471">
        <ele>2599.1</ele>
        <time>2021-02-20T14:05:17Z</time>
      </trkpt>
      <trkpt lat="45.16431" lon="5.97469">
        <ele>2599.1</ele>
        <time>2021-02-20T14:05:18Z</time>
      </trkpt>
      <trkpt lat="45.16432" lon="5.97466">
        <ele>2597.5</ele>
        <time>2021-02-20T14:05:19Z</time>
      </trkpt>
      <trkpt lat="45.16434" lon="5.97464">
        <ele>2597.3</ele>
        <time>2021-02-20T14:05:20Z</time>
      </trkpt>
      <trkpt lat="45.16437" lon="5.97464">
        <ele>2597.2</ele>
        <time>2021-02-20T14:05:21Z</time>
      </trkpt>
      <trkpt lat="45.16439" lon="5.97463">
        <ele>2595.7</ele>
        <time>2021-02-20T14:05:22Z</time>
      </trkpt>
      <trkpt lat="45.1644" lon="5.97462">
        <ele>2595.7</ele>
        <time>2021-02-20T14:05:23Z</time>
      </trkpt>
      <trkpt lat="45.1644" lon="5.97462">
        <ele>2595.7</ele>
        <time>2021-02-20T14:05:24Z</time>
      </trkpt>
      <trkpt lat="45.1644" lon="5.97462">
        <ele>2595.7</ele>
        <time>2021-02-20T14:05:25Z</time>
      </trkpt>
      <trkpt lat="45.16441" lon="5.97462">
        <ele>2595.6</ele>
        <time>2021-02-20T14:05:26Z</time>
      </trkpt>
      <trkpt lat="45.16442" lon="5.97462">
        <ele>2595.6</ele>
        <time>2021-02-20T14:05:27Z</time>
      </trkpt>
      <trkpt lat="45.16443" lon="5.9746">
        <ele>2595.6</ele>
        <time>2021-02-20T14:05:28Z</time>
      </trkpt>
      <trkpt lat="45.16447" lon="5.97455">
        <ele>2594</ele>
        <time>2021-02-20T14:05:29Z</time>
      </trkpt>
      <trkpt lat="45.16449" lon="5.97453">
        <ele>2592.5</ele>
        <time>2021-02-20T14:05:30Z</time>
      </trkpt>
      <trkpt lat="45.16452" lon="5.97448">
        <ele>2591.2</ele>
        <time>2021-02-20T14:05:31Z</time>
      </trkpt>
      <trkpt lat="45.16456" lon="5.9744">
        <ele>2588.7</ele>
        <time>2021-02-20T14:05:32Z</time>
      </trkpt>
      <trkpt lat="45.16458" lon="5.97434">
        <ele>2587.5</ele>
        <time>2021-02-20T14:05:33Z</time>
      </trkpt>
      <trkpt lat="45.16458" lon="5.97427">
        <ele>2585.1</ele>
        <time>2021-02-20T14:05:34Z</time>
      </trkpt>
      <trkpt lat="45.16456" lon="5.97423">
        <ele>2583.9</ele>
        <time>2021-02-20T14:05:35Z</time>
      </trkpt>
      <trkpt lat="45.16454" lon="5.97419">
        <ele>2582.6</ele>
        <time>2021-02-20T14:05:36Z</time>
      </trkpt>
      <trkpt lat="45.16453" lon="5.97415">
        <ele>2581.4</ele>
        <time>2021-02-20T14:05:37Z</time>
      </trkpt>
      <trkpt lat="45.16452" lon="5.97411">
        <ele>2580.3</ele>
        <time>2021-02-20T14:05:38Z</time>
      </trkpt>
      <trkpt lat="45.16451" lon="5.97405">
        <ele>2579.2</ele>
        <time>2021-02-20T14:05:39Z</time>
      </trkpt>
      <trkpt lat="45.1645" lon="5.97404">
        <ele>2579.2</ele>
        <time>2021-02-20T14:05:40Z</time>
      </trkpt>
      <trkpt lat="45.1645" lon="5.97399">
        <ele>2578.2</ele>
        <time>2021-02-20T14:05:41Z</time>
      </trkpt>
      <trkpt lat="45.1645" lon="5.97395">
        <ele>2577.2</ele>
        <time>2021-02-20T14:05:42Z</time>
      </trkpt>
      <trkpt lat="45.1645" lon="5.97391">
        <ele>2576.2</ele>
        <time>2021-02-20T14:05:43Z</time>
      </trkpt>
      <trkpt lat="45.16451" lon="5.97386">
        <ele>2575.2</ele>
        <time>2021-02-20T14:05:44Z</time>
      </trkpt>
      <trkpt lat="45.16452" lon="5.97384">
        <ele>2574.2</ele>
        <time>2021-02-20T14:05:45Z</time>
      </trkpt>
      <trkpt lat="45.16453" lon="5.9738">
        <ele>2572.9</ele>
        <time>2021-02-20T14:05:46Z</time>
      </trkpt>
      <trkpt lat="45.16453" lon="5.97379">
        <ele>2572.9</ele>
        <time>2021-02-20T14:05:47Z</time>
      </trkpt>
      <trkpt lat="45.16453" lon="5.97377">
        <ele>2571.8</ele>
        <time>2021-02-20T14:05:48Z</time>
      </trkpt>
      <trkpt lat="45.16455" lon="5.97375">
        <ele>2571.8</ele>
        <time>2021-02-20T14:05:49Z</time>
      </trkpt>
      <trkpt lat="45.16455" lon="5.97373">
        <ele>2570.8</ele>
        <time>2021-02-20T14:05:50Z</time>
      </trkpt>
      <trkpt lat="45.16455" lon="5.97371">
        <ele>2570.4</ele>
        <time>2021-02-20T14:05:51Z</time>
      </trkpt>
      <trkpt lat="45.16457" lon="5.97366">
        <ele>2569.4</ele>
        <time>2021-02-20T14:05:52Z</time>
      </trkpt>
      <trkpt lat="45.16458" lon="5.97364">
        <ele>2568.3</ele>
        <time>2021-02-20T14:05:53Z</time>
      </trkpt>
      <trkpt lat="45.16456" lon="5.97359">
        <ele>2567.3</ele>
        <time>2021-02-20T14:05:54Z</time>
      </trkpt>
      <trkpt lat="45.16455" lon="5.97357">
        <ele>2567.7</ele>
        <time>2021-02-20T14:05:55Z</time>
      </trkpt>
      <trkpt lat="45.16455" lon="5.9735">
        <ele>2565.8</ele>
        <time>2021-02-20T14:05:56Z</time>
      </trkpt>
      <trkpt lat="45.16458" lon="5.97344">
        <ele>2564.5</ele>
        <time>2021-02-20T14:05:57Z</time>
      </trkpt>
      <trkpt lat="45.16461" lon="5.97342">
        <ele>2562.7</ele>
        <time>2021-02-20T14:05:58Z</time>
      </trkpt>
      <trkpt lat="45.16463" lon="5.97341">
        <ele>2562.7</ele>
        <time>2021-02-20T14:05:59Z</time>
      </trkpt>
      <trkpt lat="45.16463" lon="5.97341">
        <ele>2562.7</ele>
        <time>2021-02-20T14:06:00Z</time>
      </trkpt>
      <trkpt lat="45.16463" lon="5.9734">
        <ele>2562.7</ele>
        <time>2021-02-20T14:06:01Z</time>
      </trkpt>
      <trkpt lat="45.16463" lon="5.97339">
        <ele>2562.7</ele>
        <time>2021-02-20T14:06:02Z</time>
      </trkpt>
      <trkpt lat="45.16463" lon="5.97338">
        <ele>2561.7</ele>
        <time>2021-02-20T14:06:03Z</time>
      </trkpt>
      <trkpt lat="45.16463" lon="5.97334">
        <ele>2560.7</ele>
        <time>2021-02-20T14:06:04Z</time>
      </trkpt>
      <trkpt lat="45.16464" lon="5.97332">
        <ele>2560.7</ele>
        <time>2021-02-20T14:06:05Z</time>
      </trkpt>
      <trkpt lat="45.16463" lon="5.97328">
        <ele>2559.7</ele>
        <time>2021-02-20T14:06:06Z</time>
      </trkpt>
      <trkpt lat="45.1646" lon="5.97323">
        <ele>2559.3</ele>
        <time>2021-02-20T14:06:07Z</time>
      </trkpt>
      <trkpt lat="45.16458" lon="5.97318">
        <ele>2559</ele>
        <time>2021-02-20T14:06:08Z</time>
      </trkpt>
      <trkpt lat="45.16453" lon="5.97313">
        <ele>2558.3</ele>
        <time>2021-02-20T14:06:09Z</time>
      </trkpt>
      <trkpt lat="45.16451" lon="5.97307">
        <ele>2558.7</ele>
        <time>2021-02-20T14:06:10Z</time>
      </trkpt>
      <trkpt lat="45.16449" lon="5.97301">
        <ele>2558.1</ele>
        <time>2021-02-20T14:06:11Z</time>
      </trkpt>
      <trkpt lat="45.16448" lon="5.97296">
        <ele>2558.2</ele>
        <time>2021-02-20T14:06:12Z</time>
      </trkpt>
      <trkpt lat="45.16449" lon="5.9729">
        <ele>2557.8</ele>
        <time>2021-02-20T14:06:13Z</time>
      </trkpt>
      <trkpt lat="45.16449" lon="5.97283">
        <ele>2557.4</ele>
        <time>2021-02-20T14:06:14Z</time>
      </trkpt>
      <trkpt lat="45.16447" lon="5.97275">
        <ele>2556.5</ele>
        <time>2021-02-20T14:06:15Z</time>
      </trkpt>
      <trkpt lat="45.16446" lon="5.97267">
        <ele>2555.7</ele>
        <time>2021-02-20T14:06:16Z</time>
      </trkpt>
      <trkpt lat="45.16447" lon="5.97259">
        <ele>2555.2</ele>
        <time>2021-02-20T14:06:17Z</time>
      </trkpt>
      <trkpt lat="45.16446" lon="5.97252">
        <ele>2554.6</ele>
        <time>2021-02-20T14:06:18Z</time>
      </trkpt>
      <trkpt lat="45.16448" lon="5.97246">
        <ele>2554.3</ele>
        <time>2021-02-20T14:06:19Z</time>
      </trkpt>
      <trkpt lat="45.1645" lon="5.97243">
        <ele>2552.5</ele>
        <time>2021-02-20T14:06:20Z</time>
      </trkpt>
      <trkpt lat="45.16452" lon="5.9724">
        <ele>2551</ele>
        <time>2021-02-20T14:06:21Z</time>
      </trkpt>
      <trkpt lat="45.16454" lon="5.97236">
        <ele>2550.6</ele>
        <time>2021-02-20T14:06:22Z</time>
      </trkpt>
      <trkpt lat="45.16454" lon="5.97235">
        <ele>2550.2</ele>
        <time>2021-02-20T14:06:23Z</time>
      </trkpt>
      <trkpt lat="45.16456" lon="5.97231">
        <ele>2548.7</ele>
        <time>2021-02-20T14:06:24Z</time>
      </trkpt>
      <trkpt lat="45.16456" lon="5.9723">
        <ele>2548.3</ele>
        <time>2021-02-20T14:06:25Z</time>
      </trkpt>
      <trkpt lat="45.16458" lon="5.97227">
        <ele>2546.4</ele>
        <time>2021-02-20T14:06:26Z</time>
      </trkpt>
      <trkpt lat="45.16459" lon="5.97225">
        <ele>2546.4</ele>
        <time>2021-02-20T14:06:27Z</time>
      </trkpt>
      <trkpt lat="45.16461" lon="5.97222">
        <ele>2546</ele>
        <time>2021-02-20T14:06:28Z</time>
      </trkpt>
      <trkpt lat="45.16461" lon="5.9722">
        <ele>2544.6</ele>
        <time>2021-02-20T14:06:29Z</time>
      </trkpt>
      <trkpt lat="45.16463" lon="5.97218">
        <ele>2544.2</ele>
        <time>2021-02-20T14:06:30Z</time>
      </trkpt>
      <trkpt lat="45.16464" lon="5.97216">
        <ele>2544.2</ele>
        <time>2021-02-20T14:06:31Z</time>
      </trkpt>
      <trkpt lat="45.16465" lon="5.97212">
        <ele>2542.3</ele>
        <time>2021-02-20T14:06:32Z</time>
      </trkpt>
      <trkpt lat="45.16466" lon="5.9721">
        <ele>2542.3</ele>
        <time>2021-02-20T14:06:33Z</time>
      </trkpt>
      <trkpt lat="45.16468" lon="5.97206">
        <ele>2540.3</ele>
        <time>2021-02-20T14:06:34Z</time>
      </trkpt>
      <trkpt lat="45.16472" lon="5.97205">
        <ele>2538.2</ele>
        <time>2021-02-20T14:06:35Z</time>
      </trkpt>
      <trkpt lat="45.16474" lon="5.97208">
        <ele>2536.9</ele>
        <time>2021-02-20T14:06:36Z</time>
      </trkpt>
      <trkpt lat="45.16475" lon="5.97208">
        <ele>2536.9</ele>
        <time>2021-02-20T14:06:37Z</time>
      </trkpt>
      <trkpt lat="45.16475" lon="5.97208">
        <ele>2536.9</ele>
        <time>2021-02-20T14:06:38Z</time>
      </trkpt>
      <trkpt lat="45.16475" lon="5.97208">
        <ele>2536.9</ele>
        <time>2021-02-20T14:06:39Z</time>
      </trkpt>
      <trkpt lat="45.16475" lon="5.97208">
        <ele>2536.9</ele>
        <time>2021-02-20T14:06:40Z</time>
      </trkpt>
      <trkpt lat="45.16475" lon="5.97208">
        <ele>2536.9</ele>
        <time>2021-02-20T14:06:41Z</time>
      </trkpt>
      <trkpt lat="45.16475" lon="5.97208">
        <ele>2536.9</ele>
        <time>2021-02-20T14:06:42Z</time>
      </trkpt>
      <trkpt lat="45.16475" lon="5.97208">
        <ele>2536.9</ele>
        <time>2021-02-20T14:06:43Z</time>
      </trkpt>
      <trkpt lat="45.16475" lon="5.97208">
        <ele>2536.9</ele>
        <time>2021-02-20T14:06:44Z</time>
      </trkpt>
      <trkpt lat="45.16475" lon="5.97208">
        <ele>2536.9</ele>
        <time>2021-02-20T14:06:45Z</time>
      </trkpt>
      <trkpt lat="45.16476" lon="5.97209">
        <ele>2536.9</ele>
        <time>2021-02-20T14:06:46Z</time>
      </trkpt>
      <trkpt lat="45.16476" lon="5.97211">
        <ele>2537.3</ele>
        <time>2021-02-20T14:06:47Z</time>
      </trkpt>
      <trkpt lat="45.16477" lon="5.97213">
        <ele>2535.6</ele>
        <time>2021-02-20T14:06:48Z</time>
      </trkpt>
      <trkpt lat="45.16478" lon="5.97215">
        <ele>2536.4</ele>
        <time>2021-02-20T14:06:49Z</time>
      </trkpt>
      <trkpt lat="45.16478" lon="5.97217">
        <ele>2536.8</ele>
        <time>2021-02-20T14:06:50Z</time>
      </trkpt>
      <trkpt lat="45.16481" lon="5.97219">
        <ele>2536</ele>
        <time>2021-02-20T14:06:51Z</time>
      </trkpt>
      <trkpt lat="45.16483" lon="5.97217">
        <ele>2534.3</ele>
        <time>2021-02-20T14:06:52Z</time>
      </trkpt>
      <trkpt lat="45.16483" lon="5.97216">
        <ele>2534.7</ele>
        <time>2021-02-20T14:06:53Z</time>
      </trkpt>
      <trkpt lat="45.16486" lon="5.97219">
        <ele>2534.1</ele>
        <time>2021-02-20T14:06:54Z</time>
      </trkpt>
      <trkpt lat="45.16486" lon="5.9722">
        <ele>2534.5</ele>
        <time>2021-02-20T14:06:55Z</time>
      </trkpt>
      <trkpt lat="45.16486" lon="5.9722">
        <ele>2534.8</ele>
        <time>2021-02-20T14:06:56Z</time>
      </trkpt>
      <trkpt lat="45.16486" lon="5.9722">
        <ele>2535.1</ele>
        <time>2021-02-20T14:06:57Z</time>
      </trkpt>
      <trkpt lat="45.16486" lon="5.9722">
        <ele>2535.5</ele>
        <time>2021-02-20T14:06:58Z</time>
      </trkpt>
      <trkpt lat="45.16486" lon="5.9722">
        <ele>2535.8</ele>
        <time>2021-02-20T14:06:59Z</time>
      </trkpt>
      <trkpt lat="45.16486" lon="5.9722">
        <ele>2536.1</ele>
        <time>2021-02-20T14:07:00Z</time>
      </trkpt>
      <trkpt lat="45.16486" lon="5.9722">
        <ele>2536.5</ele>
        <time>2021-02-20T14:07:01Z</time>
      </trkpt>
      <trkpt lat="45.16486" lon="5.9722">
        <ele>2536.8</ele>
        <time>2021-02-20T14:07:02Z</time>
      </trkpt>
      <trkpt lat="45.16486" lon="5.9722">
        <ele>2537.2</ele>
        <time>2021-02-20T14:07:03Z</time>
      </trkpt>
      <trkpt lat="45.16486" lon="5.9722">
        <ele>2537.5</ele>
        <time>2021-02-20T14:07:04Z</time>
      </trkpt>
      <trkpt lat="45.16486" lon="5.9722">
        <ele>2537.8</ele>
        <time>2021-02-20T14:07:05Z</time>
      </trkpt>
      <trkpt lat="45.16486" lon="5.9722">
        <ele>2538.2</ele>
        <time>2021-02-20T14:07:06Z</time>
      </trkpt>
      <trkpt lat="45.16486" lon="5.9722">
        <ele>2538.5</ele>
        <time>2021-02-20T14:07:07Z</time>
      </trkpt>
      <trkpt lat="45.16486" lon="5.9722">
        <ele>2538.8</ele>
        <time>2021-02-20T14:07:08Z</time>
      </trkpt>
      <trkpt lat="45.16486" lon="5.9722">
        <ele>2539.2</ele>
        <time>2021-02-20T14:07:09Z</time>
      </trkpt>
      <trkpt lat="45.16486" lon="5.9722">
        <ele>2539.5</ele>
        <time>2021-02-20T14:07:10Z</time>
      </trkpt>
      <trkpt lat="45.16486" lon="5.9722">
        <ele>2539.9</ele>
        <time>2021-02-20T14:07:11Z</time>
      </trkpt>
      <trkpt lat="45.16486" lon="5.9722">
        <ele>2540.2</ele>
        <time>2021-02-20T14:07:12Z</time>
      </trkpt>
      <trkpt lat="45.16486" lon="5.9722">
        <ele>2540.5</ele>
        <time>2021-02-20T14:07:13Z</time>
      </trkpt>
      <trkpt lat="45.16486" lon="5.9722">
        <ele>2540.9</ele>
        <time>2021-02-20T14:07:14Z</time>
      </trkpt>
      <trkpt lat="45.16486" lon="5.9722">
        <ele>2541.2</ele>
        <time>2021-02-20T14:07:15Z</time>
      </trkpt>
      <trkpt lat="45.16486" lon="5.9722">
        <ele>2541.5</ele>
        <time>2021-02-20T14:07:16Z</time>
      </trkpt>
      <trkpt lat="45.16486" lon="5.9722">
        <ele>2541.9</ele>
        <time>2021-02-20T14:07:17Z</time>
      </trkpt>
      <trkpt lat="45.16486" lon="5.9722">
        <ele>2542.2</ele>
        <time>2021-02-20T14:07:18Z</time>
      </trkpt>
      <trkpt lat="45.16486" lon="5.9722">
        <ele>2542.5</ele>
        <time>2021-02-20T14:07:19Z</time>
      </trkpt>
      <trkpt lat="45.16486" lon="5.9722">
        <ele>2542.9</ele>
        <time>2021-02-20T14:07:20Z</time>
      </trkpt>
      <trkpt lat="45.16486" lon="5.9722">
        <ele>2543.2</ele>
        <time>2021-02-20T14:07:21Z</time>
      </trkpt>
      <trkpt lat="45.16486" lon="5.9722">
        <ele>2543.6</ele>
        <time>2021-02-20T14:07:22Z</time>
      </trkpt>
      <trkpt lat="45.16486" lon="5.9722">
        <ele>2543.9</ele>
        <time>2021-02-20T14:07:23Z</time>
      </trkpt>
      <trkpt lat="45.16486" lon="5.9722">
        <ele>2544.2</ele>
        <time>2021-02-20T14:07:24Z</time>
      </trkpt>
      <trkpt lat="45.16486" lon="5.9722">
        <ele>2544.6</ele>
        <time>2021-02-20T14:07:25Z</time>
      </trkpt>
      <trkpt lat="45.16486" lon="5.9722">
        <ele>2544.9</ele>
        <time>2021-02-20T14:07:26Z</time>
      </trkpt>
      <trkpt lat="45.16487" lon="5.97219">
        <ele>2545.2</ele>
        <time>2021-02-20T14:07:27Z</time>
      </trkpt>
      <trkpt lat="45.16487" lon="5.97219">
        <ele>2545.6</ele>
        <time>2021-02-20T14:07:28Z</time>
      </trkpt>
      <trkpt lat="45.16487" lon="5.97219">
        <ele>2545.9</ele>
        <time>2021-02-20T14:07:29Z</time>
      </trkpt>
      <trkpt lat="45.16487" lon="5.97219">
        <ele>2546.3</ele>
        <time>2021-02-20T14:07:30Z</time>
      </trkpt>
      <trkpt lat="45.16487" lon="5.97219">
        <ele>2546.6</ele>
        <time>2021-02-20T14:07:31Z</time>
      </trkpt>
      <trkpt lat="45.16488" lon="5.97218">
        <ele>2546.4</ele>
        <time>2021-02-20T14:07:32Z</time>
      </trkpt>
      <trkpt lat="45.16489" lon="5.97218">
        <ele>2545.2</ele>
        <time>2021-02-20T14:07:33Z</time>
      </trkpt>
      <trkpt lat="45.16489" lon="5.97218">
        <ele>2545.5</ele>
        <time>2021-02-20T14:07:34Z</time>
      </trkpt>
      <trkpt lat="45.16489" lon="5.97218">
        <ele>2545.9</ele>
        <time>2021-02-20T14:07:35Z</time>
      </trkpt>
      <trkpt lat="45.16489" lon="5.97218">
        <ele>2546.2</ele>
        <time>2021-02-20T14:07:36Z</time>
      </trkpt>
      <trkpt lat="45.16489" lon="5.97218">
        <ele>2546.6</ele>
        <time>2021-02-20T14:07:37Z</time>
      </trkpt>
      <trkpt lat="45.16489" lon="5.97218">
        <ele>2546.9</ele>
        <time>2021-02-20T14:07:38Z</time>
      </trkpt>
      <trkpt lat="45.16489" lon="5.97218">
        <ele>2547.2</ele>
        <time>2021-02-20T14:07:39Z</time>
      </trkpt>
      <trkpt lat="45.16489" lon="5.97218">
        <ele>2547.6</ele>
        <time>2021-02-20T14:07:40Z</time>
      </trkpt>
      <trkpt lat="45.16489" lon="5.97217">
        <ele>2547.9</ele>
        <time>2021-02-20T14:07:41Z</time>
      </trkpt>
      <trkpt lat="45.16489" lon="5.97217">
        <ele>2548.3</ele>
        <time>2021-02-20T14:07:42Z</time>
      </trkpt>
      <trkpt lat="45.16489" lon="5.97217">
        <ele>2548.6</ele>
        <time>2021-02-20T14:07:43Z</time>
      </trkpt>
      <trkpt lat="45.16489" lon="5.97217">
        <ele>2548.9</ele>
        <time>2021-02-20T14:07:44Z</time>
      </trkpt>
      <trkpt lat="45.16489" lon="5.97217">
        <ele>2549.3</ele>
        <time>2021-02-20T14:07:45Z</time>
      </trkpt>
      <trkpt lat="45.16489" lon="5.97217">
        <ele>2549.6</ele>
        <time>2021-02-20T14:07:46Z</time>
      </trkpt>
      <trkpt lat="45.16489" lon="5.97217">
        <ele>2549.9</ele>
        <time>2021-02-20T14:07:47Z</time>
      </trkpt>
      <trkpt lat="45.16489" lon="5.97217">
        <ele>2550.3</ele>
        <time>2021-02-20T14:07:48Z</time>
      </trkpt>
      <trkpt lat="45.16489" lon="5.97217">
        <ele>2550.6</ele>
        <time>2021-02-20T14:07:49Z</time>
      </trkpt>
      <trkpt lat="45.16488" lon="5.97218">
        <ele>2552.5</ele>
        <time>2021-02-20T14:07:50Z</time>
      </trkpt>
      <trkpt lat="45.16488" lon="5.97218">
        <ele>2551.3</ele>
        <time>2021-02-20T14:07:51Z</time>
      </trkpt>
      <trkpt lat="45.16489" lon="5.97219">
        <ele>2552.2</ele>
        <time>2021-02-20T14:07:52Z</time>
      </trkpt>
      <trkpt lat="45.16488" lon="5.97219">
        <ele>2552.5</ele>
        <time>2021-02-20T14:07:53Z</time>
      </trkpt>
      <trkpt lat="45.16488" lon="5.9722">
        <ele>2552.8</ele>
        <time>2021-02-20T14:07:54Z</time>
      </trkpt>
      <trkpt lat="45.16489" lon="5.97222">
        <ele>2553.2</ele>
        <time>2021-02-20T14:07:55Z</time>
      </trkpt>
      <trkpt lat="45.16491" lon="5.97223">
        <ele>2554.1</ele>
        <time>2021-02-20T14:07:56Z</time>
      </trkpt>
      <trkpt lat="45.16492" lon="5.97223">
        <ele>2552.8</ele>
        <time>2021-02-20T14:07:57Z</time>
      </trkpt>
      <trkpt lat="45.16494" lon="5.97223">
        <ele>2553.2</ele>
        <time>2021-02-20T14:07:58Z</time>
      </trkpt>
      <trkpt lat="45.16496" lon="5.97221">
        <ele>2551.1</ele>
        <time>2021-02-20T14:07:59Z</time>
      </trkpt>
      <trkpt lat="45.16501" lon="5.97223">
        <ele>2548.2</ele>
        <time>2021-02-20T14:08:00Z</time>
      </trkpt>
      <trkpt lat="45.16502" lon="5.97225">
        <ele>2548.5</ele>
        <time>2021-02-20T14:08:01Z</time>
      </trkpt>
      <trkpt lat="45.16506" lon="5.97226">
        <ele>2546.9</ele>
        <time>2021-02-20T14:08:02Z</time>
      </trkpt>
      <trkpt lat="45.16509" lon="5.97223">
        <ele>2545.6</ele>
        <time>2021-02-20T14:08:03Z</time>
      </trkpt>
      <trkpt lat="45.16513" lon="5.9722">
        <ele>2541.8</ele>
        <time>2021-02-20T14:08:04Z</time>
      </trkpt>
      <trkpt lat="45.16516" lon="5.97219">
        <ele>2540.3</ele>
        <time>2021-02-20T14:08:05Z</time>
      </trkpt>
      <trkpt lat="45.16517" lon="5.97219">
        <ele>2540.7</ele>
        <time>2021-02-20T14:08:06Z</time>
      </trkpt>
      <trkpt lat="45.16521" lon="5.97216">
        <ele>2538.5</ele>
        <time>2021-02-20T14:08:07Z</time>
      </trkpt>
      <trkpt lat="45.16522" lon="5.97214">
        <ele>2536.3</ele>
        <time>2021-02-20T14:08:08Z</time>
      </trkpt>
      <trkpt lat="45.16523" lon="5.9721">
        <ele>2536</ele>
        <time>2021-02-20T14:08:09Z</time>
      </trkpt>
      <trkpt lat="45.16525" lon="5.9721">
        <ele>2534.4</ele>
        <time>2021-02-20T14:08:10Z</time>
      </trkpt>
      <trkpt lat="45.16526" lon="5.97211">
        <ele>2535.5</ele>
        <time>2021-02-20T14:08:11Z</time>
      </trkpt>
      <trkpt lat="45.16526" lon="5.97213">
        <ele>2535.8</ele>
        <time>2021-02-20T14:08:12Z</time>
      </trkpt>
      <trkpt lat="45.16527" lon="5.97214">
        <ele>2536.1</ele>
        <time>2021-02-20T14:08:13Z</time>
      </trkpt>
      <trkpt lat="45.16529" lon="5.97218">
        <ele>2535.3</ele>
        <time>2021-02-20T14:08:14Z</time>
      </trkpt>
      <trkpt lat="45.1653" lon="5.97218">
        <ele>2535.6</ele>
        <time>2021-02-20T14:08:15Z</time>
      </trkpt>
      <trkpt lat="45.16534" lon="5.97216">
        <ele>2532.3</ele>
        <time>2021-02-20T14:08:16Z</time>
      </trkpt>
      <trkpt lat="45.16535" lon="5.97215">
        <ele>2532.7</ele>
        <time>2021-02-20T14:08:17Z</time>
      </trkpt>
      <trkpt lat="45.16539" lon="5.97214">
        <ele>2531.3</ele>
        <time>2021-02-20T14:08:18Z</time>
      </trkpt>
      <trkpt lat="45.16541" lon="5.97215">
        <ele>2530</ele>
        <time>2021-02-20T14:08:19Z</time>
      </trkpt>
      <trkpt lat="45.16546" lon="5.97216">
        <ele>2527.4</ele>
        <time>2021-02-20T14:08:20Z</time>
      </trkpt>
      <trkpt lat="45.16551" lon="5.97218">
        <ele>2526.2</ele>
        <time>2021-02-20T14:08:21Z</time>
      </trkpt>
      <trkpt lat="45.16556" lon="5.9722">
        <ele>2524.4</ele>
        <time>2021-02-20T14:08:22Z</time>
      </trkpt>
      <trkpt lat="45.1656" lon="5.97222">
        <ele>2523.2</ele>
        <time>2021-02-20T14:08:23Z</time>
      </trkpt>
      <trkpt lat="45.16565" lon="5.97224">
        <ele>2521.5</ele>
        <time>2021-02-20T14:08:24Z</time>
      </trkpt>
      <trkpt lat="45.16566" lon="5.97226">
        <ele>2521.8</ele>
        <time>2021-02-20T14:08:25Z</time>
      </trkpt>
      <trkpt lat="45.16566" lon="5.97227">
        <ele>2522.1</ele>
        <time>2021-02-20T14:08:26Z</time>
      </trkpt>
      <trkpt lat="45.16565" lon="5.97228">
        <ele>2523.4</ele>
        <time>2021-02-20T14:08:27Z</time>
      </trkpt>
      <trkpt lat="45.16565" lon="5.97228">
        <ele>2523.7</ele>
        <time>2021-02-20T14:08:28Z</time>
      </trkpt>
      <trkpt lat="45.16564" lon="5.97228">
        <ele>2523.7</ele>
        <time>2021-02-20T14:08:29Z</time>
      </trkpt>
      <trkpt lat="45.16564" lon="5.97228">
        <ele>2525.1</ele>
        <time>2021-02-20T14:08:30Z</time>
      </trkpt>
      <trkpt lat="45.16564" lon="5.97229">
        <ele>2525.1</ele>
        <time>2021-02-20T14:08:31Z</time>
      </trkpt>
      <trkpt lat="45.16563" lon="5.97229">
        <ele>2525.1</ele>
        <time>2021-02-20T14:08:32Z</time>
      </trkpt>
      <trkpt lat="45.16563" lon="5.97229">
        <ele>2525.1</ele>
        <time>2021-02-20T14:08:33Z</time>
      </trkpt>
      <trkpt lat="45.16562" lon="5.97229">
        <ele>2525.1</ele>
        <time>2021-02-20T14:08:34Z</time>
      </trkpt>
      <trkpt lat="45.16562" lon="5.97229">
        <ele>2525.1</ele>
        <time>2021-02-20T14:08:35Z</time>
      </trkpt>
      <trkpt lat="45.16561" lon="5.97229">
        <ele>2525.1</ele>
        <time>2021-02-20T14:08:36Z</time>
      </trkpt>
      <trkpt lat="45.16561" lon="5.97229">
        <ele>2525.1</ele>
        <time>2021-02-20T14:08:37Z</time>
      </trkpt>
      <trkpt lat="45.16561" lon="5.97229">
        <ele>2525.1</ele>
        <time>2021-02-20T14:08:38Z</time>
      </trkpt>
      <trkpt lat="45.16561" lon="5.97229">
        <ele>2525.1</ele>
        <time>2021-02-20T14:08:39Z</time>
      </trkpt>
      <trkpt lat="45.16561" lon="5.97229">
        <ele>2525.1</ele>
        <time>2021-02-20T14:08:40Z</time>
      </trkpt>
      <trkpt lat="45.16563" lon="5.97229">
        <ele>2525.1</ele>
        <time>2021-02-20T14:08:41Z</time>
      </trkpt>
      <trkpt lat="45.16564" lon="5.97229">
        <ele>2523.7</ele>
        <time>2021-02-20T14:08:42Z</time>
      </trkpt>
      <trkpt lat="45.16565" lon="5.97226">
        <ele>2522.8</ele>
        <time>2021-02-20T14:08:43Z</time>
      </trkpt>
      <trkpt lat="45.16565" lon="5.97225">
        <ele>2522.8</ele>
        <time>2021-02-20T14:08:44Z</time>
      </trkpt>
      <trkpt lat="45.16565" lon="5.97223">
        <ele>2522</ele>
        <time>2021-02-20T14:08:45Z</time>
      </trkpt>
      <trkpt lat="45.16564" lon="5.9722">
        <ele>2522</ele>
        <time>2021-02-20T14:08:46Z</time>
      </trkpt>
      <trkpt lat="45.16564" lon="5.97218">
        <ele>2522.6</ele>
        <time>2021-02-20T14:08:47Z</time>
      </trkpt>
      <trkpt lat="45.16564" lon="5.97214">
        <ele>2521.8</ele>
        <time>2021-02-20T14:08:48Z</time>
      </trkpt>
      <trkpt lat="45.16563" lon="5.97213">
        <ele>2521.8</ele>
        <time>2021-02-20T14:08:49Z</time>
      </trkpt>
      <trkpt lat="45.16563" lon="5.97209">
        <ele>2521.1</ele>
        <time>2021-02-20T14:08:50Z</time>
      </trkpt>
      <trkpt lat="45.16563" lon="5.97207">
        <ele>2521.1</ele>
        <time>2021-02-20T14:08:51Z</time>
      </trkpt>
      <trkpt lat="45.16562" lon="5.97202">
        <ele>2520.4</ele>
        <time>2021-02-20T14:08:52Z</time>
      </trkpt>
      <trkpt lat="45.16562" lon="5.97201">
        <ele>2519.6</ele>
        <time>2021-02-20T14:08:53Z</time>
      </trkpt>
      <trkpt lat="45.16561" lon="5.97196">
        <ele>2520.2</ele>
        <time>2021-02-20T14:08:54Z</time>
      </trkpt>
      <trkpt lat="45.16561" lon="5.97194">
        <ele>2520.2</ele>
        <time>2021-02-20T14:08:55Z</time>
      </trkpt>
      <trkpt lat="45.1656" lon="5.9719">
        <ele>2519.4</ele>
        <time>2021-02-20T14:08:56Z</time>
      </trkpt>
      <trkpt lat="45.1656" lon="5.97189">
        <ele>2519.4</ele>
        <time>2021-02-20T14:08:57Z</time>
      </trkpt>
      <trkpt lat="45.16559" lon="5.97187">
        <ele>2518.5</ele>
        <time>2021-02-20T14:08:58Z</time>
      </trkpt>
      <trkpt lat="45.16559" lon="5.97184">
        <ele>2518.5</ele>
        <time>2021-02-20T14:08:59Z</time>
      </trkpt>
      <trkpt lat="45.16559" lon="5.9718">
        <ele>2517.7</ele>
        <time>2021-02-20T14:09:00Z</time>
      </trkpt>
      <trkpt lat="45.16558" lon="5.97179">
        <ele>2516.8</ele>
        <time>2021-02-20T14:09:01Z</time>
      </trkpt>
      <trkpt lat="45.16557" lon="5.97177">
        <ele>2518.3</ele>
        <time>2021-02-20T14:09:02Z</time>
      </trkpt>
      <trkpt lat="45.16557" lon="5.97175">
        <ele>2517.5</ele>
        <time>2021-02-20T14:09:03Z</time>
      </trkpt>
      <trkpt lat="45.16556" lon="5.97173">
        <ele>2517.5</ele>
        <time>2021-02-20T14:09:04Z</time>
      </trkpt>
      <trkpt lat="45.16556" lon="5.97172">
        <ele>2517.5</ele>
        <time>2021-02-20T14:09:05Z</time>
      </trkpt>
      <trkpt lat="45.16556" lon="5.97171">
        <ele>2516.7</ele>
        <time>2021-02-20T14:09:06Z</time>
      </trkpt>
      <trkpt lat="45.16556" lon="5.9717">
        <ele>2516.7</ele>
        <time>2021-02-20T14:09:07Z</time>
      </trkpt>
      <trkpt lat="45.16556" lon="5.97169">
        <ele>2516.7</ele>
        <time>2021-02-20T14:09:08Z</time>
      </trkpt>
      <trkpt lat="45.16559" lon="5.97167">
        <ele>2514.3</ele>
        <time>2021-02-20T14:09:09Z</time>
      </trkpt>
      <trkpt lat="45.1656" lon="5.97167">
        <ele>2514.3</ele>
        <time>2021-02-20T14:09:10Z</time>
      </trkpt>
      <trkpt lat="45.16562" lon="5.97164">
        <ele>2512.9</ele>
        <time>2021-02-20T14:09:11Z</time>
      </trkpt>
      <trkpt lat="45.16562" lon="5.97162">
        <ele>2512.1</ele>
        <time>2021-02-20T14:09:12Z</time>
      </trkpt>
      <trkpt lat="45.16561" lon="5.97161">
        <ele>2512.1</ele>
        <time>2021-02-20T14:09:13Z</time>
      </trkpt>
      <trkpt lat="45.1656" lon="5.97162">
        <ele>2513.5</ele>
        <time>2021-02-20T14:09:14Z</time>
      </trkpt>
      <trkpt lat="45.1656" lon="5.9716">
        <ele>2513.5</ele>
        <time>2021-02-20T14:09:15Z</time>
      </trkpt>
      <trkpt lat="45.16561" lon="5.97158">
        <ele>2512.6</ele>
        <time>2021-02-20T14:09:16Z</time>
      </trkpt>
      <trkpt lat="45.16561" lon="5.97157">
        <ele>2511.2</ele>
        <time>2021-02-20T14:09:17Z</time>
      </trkpt>
      <trkpt lat="45.16561" lon="5.97156">
        <ele>2511.2</ele>
        <time>2021-02-20T14:09:18Z</time>
      </trkpt>
      <trkpt lat="45.16562" lon="5.97155">
        <ele>2511.2</ele>
        <time>2021-02-20T14:09:19Z</time>
      </trkpt>
      <trkpt lat="45.16561" lon="5.9715">
        <ele>2511.8</ele>
        <time>2021-02-20T14:09:20Z</time>
      </trkpt>
      <trkpt lat="45.1656" lon="5.97149">
        <ele>2510.9</ele>
        <time>2021-02-20T14:09:21Z</time>
      </trkpt>
      <trkpt lat="45.1656" lon="5.97144">
        <ele>2510</ele>
        <time>2021-02-20T14:09:22Z</time>
      </trkpt>
      <trkpt lat="45.1656" lon="5.97143">
        <ele>2510</ele>
        <time>2021-02-20T14:09:23Z</time>
      </trkpt>
      <trkpt lat="45.16559" lon="5.97139">
        <ele>2509.2</ele>
        <time>2021-02-20T14:09:24Z</time>
      </trkpt>
      <trkpt lat="45.16558" lon="5.97133">
        <ele>2509.7</ele>
        <time>2021-02-20T14:09:25Z</time>
      </trkpt>
      <trkpt lat="45.16556" lon="5.97127">
        <ele>2508.1</ele>
        <time>2021-02-20T14:09:26Z</time>
      </trkpt>
      <trkpt lat="45.16555" lon="5.97121">
        <ele>2508.7</ele>
        <time>2021-02-20T14:09:27Z</time>
      </trkpt>
      <trkpt lat="45.16553" lon="5.97115">
        <ele>2507</ele>
        <time>2021-02-20T14:09:28Z</time>
      </trkpt>
      <trkpt lat="45.16552" lon="5.9711">
        <ele>2507.4</ele>
        <time>2021-02-20T14:09:29Z</time>
      </trkpt>
      <trkpt lat="45.1655" lon="5.97101">
        <ele>2505.3</ele>
        <time>2021-02-20T14:09:30Z</time>
      </trkpt>
      <trkpt lat="45.16548" lon="5.97097">
        <ele>2505.4</ele>
        <time>2021-02-20T14:09:31Z</time>
      </trkpt>
      <trkpt lat="45.16547" lon="5.97093">
        <ele>2504.3</ele>
        <time>2021-02-20T14:09:32Z</time>
      </trkpt>
      <trkpt lat="45.16547" lon="5.9709">
        <ele>2504.3</ele>
        <time>2021-02-20T14:09:33Z</time>
      </trkpt>
      <trkpt lat="45.16545" lon="5.97085">
        <ele>2503.1</ele>
        <time>2021-02-20T14:09:34Z</time>
      </trkpt>
      <trkpt lat="45.16545" lon="5.97081">
        <ele>2502</ele>
        <time>2021-02-20T14:09:35Z</time>
      </trkpt>
      <trkpt lat="45.16544" lon="5.97077">
        <ele>2502</ele>
        <time>2021-02-20T14:09:36Z</time>
      </trkpt>
      <trkpt lat="45.16542" lon="5.97072">
        <ele>2500.9</ele>
        <time>2021-02-20T14:09:37Z</time>
      </trkpt>
      <trkpt lat="45.1654" lon="5.97067">
        <ele>2499.8</ele>
        <time>2021-02-20T14:09:38Z</time>
      </trkpt>
      <trkpt lat="45.16539" lon="5.9706">
        <ele>2499.8</ele>
        <time>2021-02-20T14:09:39Z</time>
      </trkpt>
      <trkpt lat="45.16536" lon="5.97055">
        <ele>2498.7</ele>
        <time>2021-02-20T14:09:40Z</time>
      </trkpt>
      <trkpt lat="45.16536" lon="5.97053">
        <ele>2498.7</ele>
        <time>2021-02-20T14:09:41Z</time>
      </trkpt>
      <trkpt lat="45.16534" lon="5.97048">
        <ele>2497.6</ele>
        <time>2021-02-20T14:09:42Z</time>
      </trkpt>
      <trkpt lat="45.16534" lon="5.97046">
        <ele>2497.7</ele>
        <time>2021-02-20T14:09:43Z</time>
      </trkpt>
      <trkpt lat="45.16532" lon="5.97041">
        <ele>2496.6</ele>
        <time>2021-02-20T14:09:44Z</time>
      </trkpt>
      <trkpt lat="45.1653" lon="5.97036">
        <ele>2496.9</ele>
        <time>2021-02-20T14:09:45Z</time>
      </trkpt>
      <trkpt lat="45.16526" lon="5.97026">
        <ele>2496.1</ele>
        <time>2021-02-20T14:09:46Z</time>
      </trkpt>
      <trkpt lat="45.16523" lon="5.97018">
        <ele>2495.3</ele>
        <time>2021-02-20T14:09:47Z</time>
      </trkpt>
      <trkpt lat="45.16522" lon="5.97005">
        <ele>2491.9</ele>
        <time>2021-02-20T14:09:48Z</time>
      </trkpt>
      <trkpt lat="45.16521" lon="5.96996">
        <ele>2491.2</ele>
        <time>2021-02-20T14:09:49Z</time>
      </trkpt>
      <trkpt lat="45.16524" lon="5.96989">
        <ele>2488</ele>
        <time>2021-02-20T14:09:50Z</time>
      </trkpt>
      <trkpt lat="45.16525" lon="5.96984">
        <ele>2487.2</ele>
        <time>2021-02-20T14:09:51Z</time>
      </trkpt>
      <trkpt lat="45.16524" lon="5.96979">
        <ele>2486.4</ele>
        <time>2021-02-20T14:09:52Z</time>
      </trkpt>
      <trkpt lat="45.16524" lon="5.96976">
        <ele>2485.6</ele>
        <time>2021-02-20T14:09:53Z</time>
      </trkpt>
      <trkpt lat="45.16524" lon="5.96974">
        <ele>2485.6</ele>
        <time>2021-02-20T14:09:54Z</time>
      </trkpt>
      <trkpt lat="45.16525" lon="5.9697">
        <ele>2483.6</ele>
        <time>2021-02-20T14:09:55Z</time>
      </trkpt>
      <trkpt lat="45.16526" lon="5.96965">
        <ele>2482</ele>
        <time>2021-02-20T14:09:56Z</time>
      </trkpt>
      <trkpt lat="45.16525" lon="5.96961">
        <ele>2481.2</ele>
        <time>2021-02-20T14:09:57Z</time>
      </trkpt>
      <trkpt lat="45.16526" lon="5.96957">
        <ele>2480.5</ele>
        <time>2021-02-20T14:09:58Z</time>
      </trkpt>
      <trkpt lat="45.16527" lon="5.96951">
        <ele>2479.8</ele>
        <time>2021-02-20T14:09:59Z</time>
      </trkpt>
      <trkpt lat="45.16527" lon="5.9695">
        <ele>2479.8</ele>
        <time>2021-02-20T14:10:00Z</time>
      </trkpt>
      <trkpt lat="45.16528" lon="5.96946">
        <ele>2478.2</ele>
        <time>2021-02-20T14:10:01Z</time>
      </trkpt>
      <trkpt lat="45.16528" lon="5.96942">
        <ele>2477.6</ele>
        <time>2021-02-20T14:10:02Z</time>
      </trkpt>
      <trkpt lat="45.16528" lon="5.96935">
        <ele>2477</ele>
        <time>2021-02-20T14:10:03Z</time>
      </trkpt>
      <trkpt lat="45.16528" lon="5.96933">
        <ele>2477.2</ele>
        <time>2021-02-20T14:10:04Z</time>
      </trkpt>
      <trkpt lat="45.16527" lon="5.96928">
        <ele>2476.6</ele>
        <time>2021-02-20T14:10:05Z</time>
      </trkpt>
      <trkpt lat="45.16526" lon="5.96922">
        <ele>2475.3</ele>
        <time>2021-02-20T14:10:06Z</time>
      </trkpt>
      <trkpt lat="45.16525" lon="5.96917">
        <ele>2474.7</ele>
        <time>2021-02-20T14:10:07Z</time>
      </trkpt>
      <trkpt lat="45.16525" lon="5.96911">
        <ele>2474.1</ele>
        <time>2021-02-20T14:10:08Z</time>
      </trkpt>
      <trkpt lat="45.16525" lon="5.96906">
        <ele>2473.5</ele>
        <time>2021-02-20T14:10:09Z</time>
      </trkpt>
      <trkpt lat="45.16525" lon="5.96901">
        <ele>2473</ele>
        <time>2021-02-20T14:10:10Z</time>
      </trkpt>
      <trkpt lat="45.16525" lon="5.96897">
        <ele>2472.6</ele>
        <time>2021-02-20T14:10:11Z</time>
      </trkpt>
      <trkpt lat="45.16525" lon="5.96892">
        <ele>2471.7</ele>
        <time>2021-02-20T14:10:12Z</time>
      </trkpt>
      <trkpt lat="45.16525" lon="5.96887">
        <ele>2471.2</ele>
        <time>2021-02-20T14:10:13Z</time>
      </trkpt>
      <trkpt lat="45.16525" lon="5.96882">
        <ele>2471.4</ele>
        <time>2021-02-20T14:10:14Z</time>
      </trkpt>
      <trkpt lat="45.16524" lon="5.96878">
        <ele>2470.8</ele>
        <time>2021-02-20T14:10:15Z</time>
      </trkpt>
      <trkpt lat="45.16523" lon="5.96874">
        <ele>2470.3</ele>
        <time>2021-02-20T14:10:16Z</time>
      </trkpt>
      <trkpt lat="45.16522" lon="5.96869">
        <ele>2469.7</ele>
        <time>2021-02-20T14:10:17Z</time>
      </trkpt>
      <trkpt lat="45.16521" lon="5.96865">
        <ele>2469.7</ele>
        <time>2021-02-20T14:10:18Z</time>
      </trkpt>
      <trkpt lat="45.1652" lon="5.96861">
        <ele>2469.2</ele>
        <time>2021-02-20T14:10:19Z</time>
      </trkpt>
      <trkpt lat="45.1652" lon="5.96857">
        <ele>2468.6</ele>
        <time>2021-02-20T14:10:20Z</time>
      </trkpt>
      <trkpt lat="45.16519" lon="5.96853">
        <ele>2468.7</ele>
        <time>2021-02-20T14:10:21Z</time>
      </trkpt>
      <trkpt lat="45.16518" lon="5.96848">
        <ele>2468.2</ele>
        <time>2021-02-20T14:10:22Z</time>
      </trkpt>
      <trkpt lat="45.16518" lon="5.96846">
        <ele>2468.2</ele>
        <time>2021-02-20T14:10:23Z</time>
      </trkpt>
      <trkpt lat="45.16519" lon="5.96839">
        <ele>2466.5</ele>
        <time>2021-02-20T14:10:24Z</time>
      </trkpt>
      <trkpt lat="45.16522" lon="5.96835">
        <ele>2465.4</ele>
        <time>2021-02-20T14:10:25Z</time>
      </trkpt>
      <trkpt lat="45.16525" lon="5.96831">
        <ele>2464.4</ele>
        <time>2021-02-20T14:10:26Z</time>
      </trkpt>
      <trkpt lat="45.16528" lon="5.96828">
        <ele>2463.4</ele>
        <time>2021-02-20T14:10:27Z</time>
      </trkpt>
      <trkpt lat="45.16532" lon="5.96825">
        <ele>2463.1</ele>
        <time>2021-02-20T14:10:28Z</time>
      </trkpt>
      <trkpt lat="45.16535" lon="5.96823">
        <ele>2462.3</ele>
        <time>2021-02-20T14:10:29Z</time>
      </trkpt>
      <trkpt lat="45.16537" lon="5.9682">
        <ele>2462.1</ele>
        <time>2021-02-20T14:10:30Z</time>
      </trkpt>
      <trkpt lat="45.16538" lon="5.96819">
        <ele>2461.7</ele>
        <time>2021-02-20T14:10:31Z</time>
      </trkpt>
      <trkpt lat="45.16538" lon="5.96817">
        <ele>2461.7</ele>
        <time>2021-02-20T14:10:32Z</time>
      </trkpt>
      <trkpt lat="45.16539" lon="5.96817">
        <ele>2461.7</ele>
        <time>2021-02-20T14:10:33Z</time>
      </trkpt>
      <trkpt lat="45.16538" lon="5.96813">
        <ele>2461.2</ele>
        <time>2021-02-20T14:10:34Z</time>
      </trkpt>
      <trkpt lat="45.16537" lon="5.96812">
        <ele>2461.2</ele>
        <time>2021-02-20T14:10:35Z</time>
      </trkpt>
      <trkpt lat="45.16536" lon="5.9681">
        <ele>2460.9</ele>
        <time>2021-02-20T14:10:36Z</time>
      </trkpt>
      <trkpt lat="45.16534" lon="5.96805">
        <ele>2460.5</ele>
        <time>2021-02-20T14:10:37Z</time>
      </trkpt>
      <trkpt lat="45.16533" lon="5.96799">
        <ele>2460.2</ele>
        <time>2021-02-20T14:10:38Z</time>
      </trkpt>
      <trkpt lat="45.16534" lon="5.96795">
        <ele>2459.6</ele>
        <time>2021-02-20T14:10:39Z</time>
      </trkpt>
      <trkpt lat="45.16534" lon="5.9679">
        <ele>2459.1</ele>
        <time>2021-02-20T14:10:40Z</time>
      </trkpt>
      <trkpt lat="45.16532" lon="5.96786">
        <ele>2458.5</ele>
        <time>2021-02-20T14:10:41Z</time>
      </trkpt>
      <trkpt lat="45.16531" lon="5.9678">
        <ele>2457.4</ele>
        <time>2021-02-20T14:10:42Z</time>
      </trkpt>
      <trkpt lat="45.1653" lon="5.96775">
        <ele>2456.8</ele>
        <time>2021-02-20T14:10:43Z</time>
      </trkpt>
      <trkpt lat="45.16528" lon="5.96769">
        <ele>2456.2</ele>
        <time>2021-02-20T14:10:44Z</time>
      </trkpt>
      <trkpt lat="45.16526" lon="5.96764">
        <ele>2455.9</ele>
        <time>2021-02-20T14:10:45Z</time>
      </trkpt>
      <trkpt lat="45.16526" lon="5.96758">
        <ele>2454.9</ele>
        <time>2021-02-20T14:10:46Z</time>
      </trkpt>
      <trkpt lat="45.16527" lon="5.96753">
        <ele>2454.4</ele>
        <time>2021-02-20T14:10:47Z</time>
      </trkpt>
      <trkpt lat="45.16529" lon="5.96747">
        <ele>2453.8</ele>
        <time>2021-02-20T14:10:48Z</time>
      </trkpt>
      <trkpt lat="45.1653" lon="5.96741">
        <ele>2452.7</ele>
        <time>2021-02-20T14:10:49Z</time>
      </trkpt>
      <trkpt lat="45.16532" lon="5.96735">
        <ele>2452.1</ele>
        <time>2021-02-20T14:10:50Z</time>
      </trkpt>
      <trkpt lat="45.16531" lon="5.96731">
        <ele>2451.6</ele>
        <time>2021-02-20T14:10:51Z</time>
      </trkpt>
      <trkpt lat="45.16531" lon="5.96726">
        <ele>2451</ele>
        <time>2021-02-20T14:10:52Z</time>
      </trkpt>
      <trkpt lat="45.16531" lon="5.96723">
        <ele>2450.4</ele>
        <time>2021-02-20T14:10:53Z</time>
      </trkpt>
      <trkpt lat="45.16533" lon="5.96721">
        <ele>2450.4</ele>
        <time>2021-02-20T14:10:54Z</time>
      </trkpt>
      <trkpt lat="45.16533" lon="5.96719">
        <ele>2449.8</ele>
        <time>2021-02-20T14:10:55Z</time>
      </trkpt>
      <trkpt lat="45.16534" lon="5.96719">
        <ele>2449.8</ele>
        <time>2021-02-20T14:10:56Z</time>
      </trkpt>
      <trkpt lat="45.16535" lon="5.96719">
        <ele>2449.8</ele>
        <time>2021-02-20T14:10:57Z</time>
      </trkpt>
      <trkpt lat="45.16534" lon="5.96718">
        <ele>2449.8</ele>
        <time>2021-02-20T14:10:58Z</time>
      </trkpt>
      <trkpt lat="45.16533" lon="5.96718">
        <ele>2449.8</ele>
        <time>2021-02-20T14:10:59Z</time>
      </trkpt>
      <trkpt lat="45.16532" lon="5.96717">
        <ele>2449.8</ele>
        <time>2021-02-20T14:11:00Z</time>
      </trkpt>
      <trkpt lat="45.16531" lon="5.96717">
        <ele>2449.8</ele>
        <time>2021-02-20T14:11:01Z</time>
      </trkpt>
      <trkpt lat="45.16527" lon="5.96716">
        <ele>2449</ele>
        <time>2021-02-20T14:11:02Z</time>
      </trkpt>
      <trkpt lat="45.16522" lon="5.96716">
        <ele>2449</ele>
        <time>2021-02-20T14:11:03Z</time>
      </trkpt>
      <trkpt lat="45.16517" lon="5.96717">
        <ele>2449.8</ele>
        <time>2021-02-20T14:11:04Z</time>
      </trkpt>
      <trkpt lat="45.16514" lon="5.96718">
        <ele>2449.9</ele>
        <time>2021-02-20T14:11:05Z</time>
      </trkpt>
      <trkpt lat="45.1651" lon="5.96716">
        <ele>2449.3</ele>
        <time>2021-02-20T14:11:06Z</time>
      </trkpt>
      <trkpt lat="45.16508" lon="5.96713">
        <ele>2449.5</ele>
        <time>2021-02-20T14:11:07Z</time>
      </trkpt>
      <trkpt lat="45.16508" lon="5.96709">
        <ele>2448.8</ele>
        <time>2021-02-20T14:11:08Z</time>
      </trkpt>
      <trkpt lat="45.16507" lon="5.96704">
        <ele>2448.1</ele>
        <time>2021-02-20T14:11:09Z</time>
      </trkpt>
      <trkpt lat="45.16506" lon="5.96702">
        <ele>2447.5</ele>
        <time>2021-02-20T14:11:10Z</time>
      </trkpt>
      <trkpt lat="45.16503" lon="5.96698">
        <ele>2447</ele>
        <time>2021-02-20T14:11:11Z</time>
      </trkpt>
      <trkpt lat="45.16503" lon="5.96693">
        <ele>2446.2</ele>
        <time>2021-02-20T14:11:12Z</time>
      </trkpt>
      <trkpt lat="45.16505" lon="5.96689">
        <ele>2445.2</ele>
        <time>2021-02-20T14:11:13Z</time>
      </trkpt>
      <trkpt lat="45.16507" lon="5.96688">
        <ele>2445.1</ele>
        <time>2021-02-20T14:11:14Z</time>
      </trkpt>
      <trkpt lat="45.1651" lon="5.96686">
        <ele>2444.3</ele>
        <time>2021-02-20T14:11:15Z</time>
      </trkpt>
      <trkpt lat="45.16514" lon="5.96683">
        <ele>2444.3</ele>
        <time>2021-02-20T14:11:16Z</time>
      </trkpt>
      <trkpt lat="45.16518" lon="5.96681">
        <ele>2443.6</ele>
        <time>2021-02-20T14:11:17Z</time>
      </trkpt>
      <trkpt lat="45.16522" lon="5.96678">
        <ele>2442.9</ele>
        <time>2021-02-20T14:11:18Z</time>
      </trkpt>
      <trkpt lat="45.16524" lon="5.96673">
        <ele>2442.3</ele>
        <time>2021-02-20T14:11:19Z</time>
      </trkpt>
      <trkpt lat="45.16524" lon="5.96667">
        <ele>2441.6</ele>
        <time>2021-02-20T14:11:20Z</time>
      </trkpt>
      <trkpt lat="45.16524" lon="5.96656">
        <ele>2439.7</ele>
        <time>2021-02-20T14:11:21Z</time>
      </trkpt>
      <trkpt lat="45.16527" lon="5.96651">
        <ele>2439.1</ele>
        <time>2021-02-20T14:11:22Z</time>
      </trkpt>
      <trkpt lat="45.16531" lon="5.96645">
        <ele>2438.5</ele>
        <time>2021-02-20T14:11:23Z</time>
      </trkpt>
      <trkpt lat="45.1653" lon="5.96639">
        <ele>2437.5</ele>
        <time>2021-02-20T14:11:24Z</time>
      </trkpt>
      <trkpt lat="45.1653" lon="5.96637">
        <ele>2437.5</ele>
        <time>2021-02-20T14:11:25Z</time>
      </trkpt>
      <trkpt lat="45.16531" lon="5.96635">
        <ele>2437.6</ele>
        <time>2021-02-20T14:11:26Z</time>
      </trkpt>
      <trkpt lat="45.1653" lon="5.96632">
        <ele>2437</ele>
        <time>2021-02-20T14:11:27Z</time>
      </trkpt>
      <trkpt lat="45.16529" lon="5.96627">
        <ele>2436.6</ele>
        <time>2021-02-20T14:11:28Z</time>
      </trkpt>
      <trkpt lat="45.16529" lon="5.96626">
        <ele>2436.3</ele>
        <time>2021-02-20T14:11:29Z</time>
      </trkpt>
      <trkpt lat="45.16529" lon="5.96621">
        <ele>2436</ele>
        <time>2021-02-20T14:11:30Z</time>
      </trkpt>
      <trkpt lat="45.16529" lon="5.96619">
        <ele>2436</ele>
        <time>2021-02-20T14:11:31Z</time>
      </trkpt>
      <trkpt lat="45.16526" lon="5.96613">
        <ele>2435.2</ele>
        <time>2021-02-20T14:11:32Z</time>
      </trkpt>
      <trkpt lat="45.16526" lon="5.96611">
        <ele>2435.2</ele>
        <time>2021-02-20T14:11:33Z</time>
      </trkpt>
      <trkpt lat="45.16524" lon="5.96606">
        <ele>2434.7</ele>
        <time>2021-02-20T14:11:34Z</time>
      </trkpt>
      <trkpt lat="45.16524" lon="5.966">
        <ele>2434.1</ele>
        <time>2021-02-20T14:11:35Z</time>
      </trkpt>
      <trkpt lat="45.16523" lon="5.96592">
        <ele>2433.8</ele>
        <time>2021-02-20T14:11:36Z</time>
      </trkpt>
      <trkpt lat="45.16522" lon="5.96584">
        <ele>2433.3</ele>
        <time>2021-02-20T14:11:37Z</time>
      </trkpt>
      <trkpt lat="45.16522" lon="5.96575">
        <ele>2432.6</ele>
        <time>2021-02-20T14:11:38Z</time>
      </trkpt>
      <trkpt lat="45.16521" lon="5.96567">
        <ele>2431.6</ele>
        <time>2021-02-20T14:11:39Z</time>
      </trkpt>
      <trkpt lat="45.16519" lon="5.96561">
        <ele>2430.9</ele>
        <time>2021-02-20T14:11:40Z</time>
      </trkpt>
      <trkpt lat="45.16517" lon="5.96557">
        <ele>2430.1</ele>
        <time>2021-02-20T14:11:41Z</time>
      </trkpt>
      <trkpt lat="45.16515" lon="5.96551">
        <ele>2429.5</ele>
        <time>2021-02-20T14:11:42Z</time>
      </trkpt>
      <trkpt lat="45.16514" lon="5.96546">
        <ele>2429.2</ele>
        <time>2021-02-20T14:11:43Z</time>
      </trkpt>
      <trkpt lat="45.16512" lon="5.9654">
        <ele>2428.5</ele>
        <time>2021-02-20T14:11:44Z</time>
      </trkpt>
      <trkpt lat="45.16509" lon="5.96534">
        <ele>2428</ele>
        <time>2021-02-20T14:11:45Z</time>
      </trkpt>
      <trkpt lat="45.16507" lon="5.96531">
        <ele>2427.8</ele>
        <time>2021-02-20T14:11:46Z</time>
      </trkpt>
      <trkpt lat="45.16504" lon="5.96526">
        <ele>2427.2</ele>
        <time>2021-02-20T14:11:47Z</time>
      </trkpt>
      <trkpt lat="45.16501" lon="5.96521">
        <ele>2426.6</ele>
        <time>2021-02-20T14:11:48Z</time>
      </trkpt>
      <trkpt lat="45.16499" lon="5.96516">
        <ele>2425.9</ele>
        <time>2021-02-20T14:11:49Z</time>
      </trkpt>
      <trkpt lat="45.16495" lon="5.96511">
        <ele>2425.2</ele>
        <time>2021-02-20T14:11:50Z</time>
      </trkpt>
      <trkpt lat="45.16493" lon="5.96505">
        <ele>2424.3</ele>
        <time>2021-02-20T14:11:51Z</time>
      </trkpt>
      <trkpt lat="45.1649" lon="5.96501">
        <ele>2423.7</ele>
        <time>2021-02-20T14:11:52Z</time>
      </trkpt>
      <trkpt lat="45.16488" lon="5.96497">
        <ele>2423</ele>
        <time>2021-02-20T14:11:53Z</time>
      </trkpt>
      <trkpt lat="45.16485" lon="5.96492">
        <ele>2422.4</ele>
        <time>2021-02-20T14:11:54Z</time>
      </trkpt>
      <trkpt lat="45.16483" lon="5.96488">
        <ele>2422.3</ele>
        <time>2021-02-20T14:11:55Z</time>
      </trkpt>
      <trkpt lat="45.16482" lon="5.96486">
        <ele>2421.8</ele>
        <time>2021-02-20T14:11:56Z</time>
      </trkpt>
      <trkpt lat="45.1648" lon="5.96481">
        <ele>2421.6</ele>
        <time>2021-02-20T14:11:57Z</time>
      </trkpt>
      <trkpt lat="45.16478" lon="5.96477">
        <ele>2420.9</ele>
        <time>2021-02-20T14:11:58Z</time>
      </trkpt>
      <trkpt lat="45.16477" lon="5.96473">
        <ele>2420.7</ele>
        <time>2021-02-20T14:11:59Z</time>
      </trkpt>
      <trkpt lat="45.16476" lon="5.96468">
        <ele>2419.9</ele>
        <time>2021-02-20T14:12:00Z</time>
      </trkpt>
      <trkpt lat="45.16475" lon="5.96464">
        <ele>2419.7</ele>
        <time>2021-02-20T14:12:01Z</time>
      </trkpt>
      <trkpt lat="45.16474" lon="5.9646">
        <ele>2419.5</ele>
        <time>2021-02-20T14:12:02Z</time>
      </trkpt>
      <trkpt lat="45.16472" lon="5.96454">
        <ele>2418.5</ele>
        <time>2021-02-20T14:12:03Z</time>
      </trkpt>
      <trkpt lat="45.16471" lon="5.96449">
        <ele>2418.4</ele>
        <time>2021-02-20T14:12:04Z</time>
      </trkpt>
      <trkpt lat="45.16466" lon="5.96442">
        <ele>2416.9</ele>
        <time>2021-02-20T14:12:05Z</time>
      </trkpt>
      <trkpt lat="45.16465" lon="5.96437">
        <ele>2416.7</ele>
        <time>2021-02-20T14:12:06Z</time>
      </trkpt>
      <trkpt lat="45.16463" lon="5.96433">
        <ele>2416</ele>
        <time>2021-02-20T14:12:07Z</time>
      </trkpt>
      <trkpt lat="45.1646" lon="5.96427">
        <ele>2415.3</ele>
        <time>2021-02-20T14:12:08Z</time>
      </trkpt>
      <trkpt lat="45.16458" lon="5.96424">
        <ele>2415.2</ele>
        <time>2021-02-20T14:12:09Z</time>
      </trkpt>
      <trkpt lat="45.16456" lon="5.9642">
        <ele>2414.6</ele>
        <time>2021-02-20T14:12:10Z</time>
      </trkpt>
      <trkpt lat="45.16456" lon="5.9642">
        <ele>2414.5</ele>
        <time>2021-02-20T14:12:11Z</time>
      </trkpt>
      <trkpt lat="45.16455" lon="5.96419">
        <ele>2413.9</ele>
        <time>2021-02-20T14:12:12Z</time>
      </trkpt>
      <trkpt lat="45.16452" lon="5.96415">
        <ele>2413.7</ele>
        <time>2021-02-20T14:12:13Z</time>
      </trkpt>
      <trkpt lat="45.16452" lon="5.96414">
        <ele>2413.1</ele>
        <time>2021-02-20T14:12:14Z</time>
      </trkpt>
      <trkpt lat="45.1645" lon="5.96411">
        <ele>2413</ele>
        <time>2021-02-20T14:12:15Z</time>
      </trkpt>
      <trkpt lat="45.16448" lon="5.96407">
        <ele>2412.4</ele>
        <time>2021-02-20T14:12:16Z</time>
      </trkpt>
      <trkpt lat="45.16447" lon="5.96404">
        <ele>2412.4</ele>
        <time>2021-02-20T14:12:17Z</time>
      </trkpt>
      <trkpt lat="45.16445" lon="5.96399">
        <ele>2411.7</ele>
        <time>2021-02-20T14:12:18Z</time>
      </trkpt>
      <trkpt lat="45.16444" lon="5.96398">
        <ele>2411.8</ele>
        <time>2021-02-20T14:12:19Z</time>
      </trkpt>
      <trkpt lat="45.16442" lon="5.96393">
        <ele>2411.2</ele>
        <time>2021-02-20T14:12:20Z</time>
      </trkpt>
      <trkpt lat="45.16441" lon="5.96391">
        <ele>2411.2</ele>
        <time>2021-02-20T14:12:21Z</time>
      </trkpt>
      <trkpt lat="45.16439" lon="5.96388">
        <ele>2410.7</ele>
        <time>2021-02-20T14:12:22Z</time>
      </trkpt>
      <trkpt lat="45.16438" lon="5.96384">
        <ele>2410.8</ele>
        <time>2021-02-20T14:12:23Z</time>
      </trkpt>
      <trkpt lat="45.16436" lon="5.9638">
        <ele>2410.2</ele>
        <time>2021-02-20T14:12:24Z</time>
      </trkpt>
      <trkpt lat="45.16434" lon="5.96376">
        <ele>2410.3</ele>
        <time>2021-02-20T14:12:25Z</time>
      </trkpt>
      <trkpt lat="45.16433" lon="5.96373">
        <ele>2409.6</ele>
        <time>2021-02-20T14:12:26Z</time>
      </trkpt>
      <trkpt lat="45.16432" lon="5.96372">
        <ele>2409.6</ele>
        <time>2021-02-20T14:12:27Z</time>
      </trkpt>
      <trkpt lat="45.16431" lon="5.96368">
        <ele>2408.9</ele>
        <time>2021-02-20T14:12:28Z</time>
      </trkpt>
      <trkpt lat="45.1643" lon="5.96367">
        <ele>2408.9</ele>
        <time>2021-02-20T14:12:29Z</time>
      </trkpt>
      <trkpt lat="45.16429" lon="5.96363">
        <ele>2408.9</ele>
        <time>2021-02-20T14:12:30Z</time>
      </trkpt>
      <trkpt lat="45.16428" lon="5.96362">
        <ele>2408.9</ele>
        <time>2021-02-20T14:12:31Z</time>
      </trkpt>
      <trkpt lat="45.16427" lon="5.96358">
        <ele>2408.1</ele>
        <time>2021-02-20T14:12:32Z</time>
      </trkpt>
      <trkpt lat="45.16426" lon="5.96357">
        <ele>2408.1</ele>
        <time>2021-02-20T14:12:33Z</time>
      </trkpt>
      <trkpt lat="45.16425" lon="5.96355">
        <ele>2408.2</ele>
        <time>2021-02-20T14:12:34Z</time>
      </trkpt>
      <trkpt lat="45.16424" lon="5.96352">
        <ele>2407.2</ele>
        <time>2021-02-20T14:12:35Z</time>
      </trkpt>
      <trkpt lat="45.16423" lon="5.96349">
        <ele>2407.3</ele>
        <time>2021-02-20T14:12:36Z</time>
      </trkpt>
      <trkpt lat="45.16422" lon="5.96348">
        <ele>2407.3</ele>
        <time>2021-02-20T14:12:37Z</time>
      </trkpt>
      <trkpt lat="45.16422" lon="5.96346">
        <ele>2406.5</ele>
        <time>2021-02-20T14:12:38Z</time>
      </trkpt>
      <trkpt lat="45.16421" lon="5.96344">
        <ele>2406.5</ele>
        <time>2021-02-20T14:12:39Z</time>
      </trkpt>
      <trkpt lat="45.1642" lon="5.96341">
        <ele>2406.6</ele>
        <time>2021-02-20T14:12:40Z</time>
      </trkpt>
      <trkpt lat="45.1642" lon="5.9634">
        <ele>2406.6</ele>
        <time>2021-02-20T14:12:41Z</time>
      </trkpt>
      <trkpt lat="45.16419" lon="5.96339">
        <ele>2406.6</ele>
        <time>2021-02-20T14:12:42Z</time>
      </trkpt>
      <trkpt lat="45.16419" lon="5.96337">
        <ele>2406.9</ele>
        <time>2021-02-20T14:12:43Z</time>
      </trkpt>
      <trkpt lat="45.16418" lon="5.96335">
        <ele>2405.8</ele>
        <time>2021-02-20T14:12:44Z</time>
      </trkpt>
      <trkpt lat="45.16416" lon="5.96332">
        <ele>2406</ele>
        <time>2021-02-20T14:12:45Z</time>
      </trkpt>
      <trkpt lat="45.16416" lon="5.96331">
        <ele>2406</ele>
        <time>2021-02-20T14:12:46Z</time>
      </trkpt>
      <trkpt lat="45.16415" lon="5.96328">
        <ele>2405</ele>
        <time>2021-02-20T14:12:47Z</time>
      </trkpt>
      <trkpt lat="45.16415" lon="5.96327">
        <ele>2405</ele>
        <time>2021-02-20T14:12:48Z</time>
      </trkpt>
      <trkpt lat="45.16415" lon="5.96325">
        <ele>2405.2</ele>
        <time>2021-02-20T14:12:49Z</time>
      </trkpt>
      <trkpt lat="45.16414" lon="5.96322">
        <ele>2405.2</ele>
        <time>2021-02-20T14:12:50Z</time>
      </trkpt>
      <trkpt lat="45.16413" lon="5.9632">
        <ele>2405.3</ele>
        <time>2021-02-20T14:12:51Z</time>
      </trkpt>
      <trkpt lat="45.16412" lon="5.96317">
        <ele>2404.3</ele>
        <time>2021-02-20T14:12:52Z</time>
      </trkpt>
      <trkpt lat="45.16411" lon="5.96315">
        <ele>2404.3</ele>
        <time>2021-02-20T14:12:53Z</time>
      </trkpt>
      <trkpt lat="45.1641" lon="5.96312">
        <ele>2404.4</ele>
        <time>2021-02-20T14:12:54Z</time>
      </trkpt>
      <trkpt lat="45.1641" lon="5.96311">
        <ele>2403.3</ele>
        <time>2021-02-20T14:12:55Z</time>
      </trkpt>
      <trkpt lat="45.16408" lon="5.96306">
        <ele>2403.4</ele>
        <time>2021-02-20T14:12:56Z</time>
      </trkpt>
      <trkpt lat="45.16407" lon="5.96305">
        <ele>2403.4</ele>
        <time>2021-02-20T14:12:57Z</time>
      </trkpt>
      <trkpt lat="45.16405" lon="5.96301">
        <ele>2402.5</ele>
        <time>2021-02-20T14:12:58Z</time>
      </trkpt>
      <trkpt lat="45.16405" lon="5.963">
        <ele>2402.5</ele>
        <time>2021-02-20T14:12:59Z</time>
      </trkpt>
      <trkpt lat="45.16403" lon="5.96296">
        <ele>2401.8</ele>
        <time>2021-02-20T14:13:00Z</time>
      </trkpt>
      <trkpt lat="45.16402" lon="5.96295">
        <ele>2401.8</ele>
        <time>2021-02-20T14:13:01Z</time>
      </trkpt>
      <trkpt lat="45.16401" lon="5.96291">
        <ele>2401.8</ele>
        <time>2021-02-20T14:13:02Z</time>
      </trkpt>
      <trkpt lat="45.164" lon="5.96289">
        <ele>2401.2</ele>
        <time>2021-02-20T14:13:03Z</time>
      </trkpt>
      <trkpt lat="45.164" lon="5.96287">
        <ele>2401.2</ele>
        <time>2021-02-20T14:13:04Z</time>
      </trkpt>
      <trkpt lat="45.16399" lon="5.96285">
        <ele>2401.2</ele>
        <time>2021-02-20T14:13:05Z</time>
      </trkpt>
      <trkpt lat="45.16398" lon="5.96281">
        <ele>2401.2</ele>
        <time>2021-02-20T14:13:06Z</time>
      </trkpt>
      <trkpt lat="45.16398" lon="5.9628">
        <ele>2401.2</ele>
        <time>2021-02-20T14:13:07Z</time>
      </trkpt>
      <trkpt lat="45.16398" lon="5.96275">
        <ele>2401.1</ele>
        <time>2021-02-20T14:13:08Z</time>
      </trkpt>
      <trkpt lat="45.16398" lon="5.96274">
        <ele>2400.7</ele>
        <time>2021-02-20T14:13:09Z</time>
      </trkpt>
      <trkpt lat="45.16397" lon="5.9627">
        <ele>2400.6</ele>
        <time>2021-02-20T14:13:10Z</time>
      </trkpt>
      <trkpt lat="45.16397" lon="5.96269">
        <ele>2400.6</ele>
        <time>2021-02-20T14:13:11Z</time>
      </trkpt>
      <trkpt lat="45.16396" lon="5.96264">
        <ele>2400.6</ele>
        <time>2021-02-20T14:13:12Z</time>
      </trkpt>
      <trkpt lat="45.16396" lon="5.96263">
        <ele>2400.6</ele>
        <time>2021-02-20T14:13:13Z</time>
      </trkpt>
      <trkpt lat="45.16395" lon="5.96257">
        <ele>2400.6</ele>
        <time>2021-02-20T14:13:14Z</time>
      </trkpt>
      <trkpt lat="45.16394" lon="5.96256">
        <ele>2400.5</ele>
        <time>2021-02-20T14:13:15Z</time>
      </trkpt>
      <trkpt lat="45.16393" lon="5.96251">
        <ele>2400.6</ele>
        <time>2021-02-20T14:13:16Z</time>
      </trkpt>
      <trkpt lat="45.16393" lon="5.96249">
        <ele>2400.6</ele>
        <time>2021-02-20T14:13:17Z</time>
      </trkpt>
      <trkpt lat="45.16391" lon="5.96246">
        <ele>2400.6</ele>
        <time>2021-02-20T14:13:18Z</time>
      </trkpt>
      <trkpt lat="45.1639" lon="5.96241">
        <ele>2400.5</ele>
        <time>2021-02-20T14:13:19Z</time>
      </trkpt>
      <trkpt lat="45.16389" lon="5.96239">
        <ele>2400.5</ele>
        <time>2021-02-20T14:13:20Z</time>
      </trkpt>
      <trkpt lat="45.16388" lon="5.96235">
        <ele>2400.4</ele>
        <time>2021-02-20T14:13:21Z</time>
      </trkpt>
      <trkpt lat="45.16388" lon="5.96233">
        <ele>2400.3</ele>
        <time>2021-02-20T14:13:22Z</time>
      </trkpt>
      <trkpt lat="45.16386" lon="5.96229">
        <ele>2400.2</ele>
        <time>2021-02-20T14:13:23Z</time>
      </trkpt>
      <trkpt lat="45.16385" lon="5.96227">
        <ele>2400.2</ele>
        <time>2021-02-20T14:13:24Z</time>
      </trkpt>
      <trkpt lat="45.16384" lon="5.96222">
        <ele>2400.1</ele>
        <time>2021-02-20T14:13:25Z</time>
      </trkpt>
      <trkpt lat="45.16383" lon="5.96221">
        <ele>2400</ele>
        <time>2021-02-20T14:13:26Z</time>
      </trkpt>
      <trkpt lat="45.16382" lon="5.96217">
        <ele>2400</ele>
        <time>2021-02-20T14:13:27Z</time>
      </trkpt>
      <trkpt lat="45.16382" lon="5.96216">
        <ele>2399.9</ele>
        <time>2021-02-20T14:13:28Z</time>
      </trkpt>
      <trkpt lat="45.1638" lon="5.96211">
        <ele>2399.8</ele>
        <time>2021-02-20T14:13:29Z</time>
      </trkpt>
      <trkpt lat="45.1638" lon="5.9621">
        <ele>2399.8</ele>
        <time>2021-02-20T14:13:30Z</time>
      </trkpt>
      <trkpt lat="45.16378" lon="5.96206">
        <ele>2399.7</ele>
        <time>2021-02-20T14:13:31Z</time>
      </trkpt>
      <trkpt lat="45.16378" lon="5.96205">
        <ele>2399.6</ele>
        <time>2021-02-20T14:13:32Z</time>
      </trkpt>
      <trkpt lat="45.16377" lon="5.962">
        <ele>2399.5</ele>
        <time>2021-02-20T14:13:33Z</time>
      </trkpt>
      <trkpt lat="45.16376" lon="5.96199">
        <ele>2399.4</ele>
        <time>2021-02-20T14:13:34Z</time>
      </trkpt>
      <trkpt lat="45.16375" lon="5.96195">
        <ele>2399.3</ele>
        <time>2021-02-20T14:13:35Z</time>
      </trkpt>
      <trkpt lat="45.16375" lon="5.96193">
        <ele>2399.2</ele>
        <time>2021-02-20T14:13:36Z</time>
      </trkpt>
      <trkpt lat="45.16375" lon="5.9619">
        <ele>2399</ele>
        <time>2021-02-20T14:13:37Z</time>
      </trkpt>
      <trkpt lat="45.16374" lon="5.96188">
        <ele>2399</ele>
        <time>2021-02-20T14:13:38Z</time>
      </trkpt>
      <trkpt lat="45.16373" lon="5.96183">
        <ele>2398.7</ele>
        <time>2021-02-20T14:13:39Z</time>
      </trkpt>
      <trkpt lat="45.16373" lon="5.96182">
        <ele>2398.6</ele>
        <time>2021-02-20T14:13:40Z</time>
      </trkpt>
      <trkpt lat="45.16372" lon="5.96178">
        <ele>2398.4</ele>
        <time>2021-02-20T14:13:41Z</time>
      </trkpt>
      <trkpt lat="45.16371" lon="5.96177">
        <ele>2398.3</ele>
        <time>2021-02-20T14:13:42Z</time>
      </trkpt>
      <trkpt lat="45.16371" lon="5.96175">
        <ele>2398.2</ele>
        <time>2021-02-20T14:13:43Z</time>
      </trkpt>
      <trkpt lat="45.16371" lon="5.96173">
        <ele>2398.1</ele>
        <time>2021-02-20T14:13:44Z</time>
      </trkpt>
      <trkpt lat="45.1637" lon="5.9617">
        <ele>2397.9</ele>
        <time>2021-02-20T14:13:45Z</time>
      </trkpt>
      <trkpt lat="45.1637" lon="5.96168">
        <ele>2397.8</ele>
        <time>2021-02-20T14:13:46Z</time>
      </trkpt>
      <trkpt lat="45.1637" lon="5.96166">
        <ele>2397.6</ele>
        <time>2021-02-20T14:13:47Z</time>
      </trkpt>
      <trkpt lat="45.1637" lon="5.96164">
        <ele>2397.5</ele>
        <time>2021-02-20T14:13:48Z</time>
      </trkpt>
      <trkpt lat="45.16369" lon="5.96161">
        <ele>2397.3</ele>
        <time>2021-02-20T14:13:49Z</time>
      </trkpt>
      <trkpt lat="45.16369" lon="5.96159">
        <ele>2397.2</ele>
        <time>2021-02-20T14:13:50Z</time>
      </trkpt>
      <trkpt lat="45.16369" lon="5.96157">
        <ele>2397</ele>
        <time>2021-02-20T14:13:51Z</time>
      </trkpt>
      <trkpt lat="45.16369" lon="5.96154">
        <ele>2396.9</ele>
        <time>2021-02-20T14:13:52Z</time>
      </trkpt>
      <trkpt lat="45.16368" lon="5.96152">
        <ele>2396.7</ele>
        <time>2021-02-20T14:13:53Z</time>
      </trkpt>
      <trkpt lat="45.16368" lon="5.96149">
        <ele>2396.5</ele>
        <time>2021-02-20T14:13:54Z</time>
      </trkpt>
      <trkpt lat="45.16368" lon="5.96147">
        <ele>2396.4</ele>
        <time>2021-02-20T14:13:55Z</time>
      </trkpt>
      <trkpt lat="45.16368" lon="5.96145">
        <ele>2396.2</ele>
        <time>2021-02-20T14:13:56Z</time>
      </trkpt>
      <trkpt lat="45.16369" lon="5.96144">
        <ele>2396.1</ele>
        <time>2021-02-20T14:13:57Z</time>
      </trkpt>
      <trkpt lat="45.16369" lon="5.96143">
        <ele>2396</ele>
        <time>2021-02-20T14:13:58Z</time>
      </trkpt>
      <trkpt lat="45.16369" lon="5.96142">
        <ele>2395.9</ele>
        <time>2021-02-20T14:13:59Z</time>
      </trkpt>
      <trkpt lat="45.16369" lon="5.9614">
        <ele>2395.8</ele>
        <time>2021-02-20T14:14:00Z</time>
      </trkpt>
      <trkpt lat="45.16369" lon="5.96139">
        <ele>2395.8</ele>
        <time>2021-02-20T14:14:01Z</time>
      </trkpt>
      <trkpt lat="45.16369" lon="5.96139">
        <ele>2395.7</ele>
        <time>2021-02-20T14:14:02Z</time>
      </trkpt>
      <trkpt lat="45.16369" lon="5.96139">
        <ele>2395.7</ele>
        <time>2021-02-20T14:14:03Z</time>
      </trkpt>
      <trkpt lat="45.16369" lon="5.96138">
        <ele>2395.7</ele>
        <time>2021-02-20T14:14:04Z</time>
      </trkpt>
      <trkpt lat="45.16369" lon="5.96137">
        <ele>2395.6</ele>
        <time>2021-02-20T14:14:05Z</time>
      </trkpt>
      <trkpt lat="45.16369" lon="5.96136">
        <ele>2395.5</ele>
        <time>2021-02-20T14:14:06Z</time>
      </trkpt>
      <trkpt lat="45.16369" lon="5.96135">
        <ele>2395.5</ele>
        <time>2021-02-20T14:14:07Z</time>
      </trkpt>
      <trkpt lat="45.16369" lon="5.96134">
        <ele>2395.4</ele>
        <time>2021-02-20T14:14:08Z</time>
      </trkpt>
      <trkpt lat="45.16369" lon="5.96134">
        <ele>2395.3</ele>
        <time>2021-02-20T14:14:09Z</time>
      </trkpt>
      <trkpt lat="45.16369" lon="5.96134">
        <ele>2395.3</ele>
        <time>2021-02-20T14:14:10Z</time>
      </trkpt>
      <trkpt lat="45.16368" lon="5.96134">
        <ele>2395.3</ele>
        <time>2021-02-20T14:14:11Z</time>
      </trkpt>
      <trkpt lat="45.16368" lon="5.96134">
        <ele>2395.2</ele>
        <time>2021-02-20T14:14:12Z</time>
      </trkpt>
      <trkpt lat="45.16368" lon="5.96134">
        <ele>2395.2</ele>
        <time>2021-02-20T14:14:13Z</time>
      </trkpt>
      <trkpt lat="45.16368" lon="5.96134">
        <ele>2395.2</ele>
        <time>2021-02-20T14:14:14Z</time>
      </trkpt>
      <trkpt lat="45.16367" lon="5.96133">
        <ele>2395.1</ele>
        <time>2021-02-20T14:14:15Z</time>
      </trkpt>
      <trkpt lat="45.16367" lon="5.96133">
        <ele>2395.1</ele>
        <time>2021-02-20T14:14:16Z</time>
      </trkpt>
      <trkpt lat="45.16368" lon="5.96133">
        <ele>2395</ele>
        <time>2021-02-20T14:14:17Z</time>
      </trkpt>
      <trkpt lat="45.16368" lon="5.96133">
        <ele>2395</ele>
        <time>2021-02-20T14:14:18Z</time>
      </trkpt>
      <trkpt lat="45.16368" lon="5.96133">
        <ele>2395</ele>
        <time>2021-02-20T14:14:19Z</time>
      </trkpt>
      <trkpt lat="45.16368" lon="5.96132">
        <ele>2394.9</ele>
        <time>2021-02-20T14:14:20Z</time>
      </trkpt>
      <trkpt lat="45.16367" lon="5.96131">
        <ele>2394.8</ele>
        <time>2021-02-20T14:14:21Z</time>
      </trkpt>
      <trkpt lat="45.16367" lon="5.96129">
        <ele>2394.6</ele>
        <time>2021-02-20T14:14:22Z</time>
      </trkpt>
      <trkpt lat="45.16366" lon="5.96128">
        <ele>2394.5</ele>
        <time>2021-02-20T14:14:23Z</time>
      </trkpt>
      <trkpt lat="45.16366" lon="5.96126">
        <ele>2394.4</ele>
        <time>2021-02-20T14:14:24Z</time>
      </trkpt>
      <trkpt lat="45.16366" lon="5.96125">
        <ele>2394.3</ele>
        <time>2021-02-20T14:14:25Z</time>
      </trkpt>
      <trkpt lat="45.16365" lon="5.96124">
        <ele>2394.2</ele>
        <time>2021-02-20T14:14:26Z</time>
      </trkpt>
      <trkpt lat="45.16365" lon="5.96123">
        <ele>2394.1</ele>
        <time>2021-02-20T14:14:27Z</time>
      </trkpt>
      <trkpt lat="45.16364" lon="5.96122">
        <ele>2394</ele>
        <time>2021-02-20T14:14:28Z</time>
      </trkpt>
      <trkpt lat="45.16364" lon="5.96122">
        <ele>2393.9</ele>
        <time>2021-02-20T14:14:29Z</time>
      </trkpt>
      <trkpt lat="45.16363" lon="5.96121">
        <ele>2393.8</ele>
        <time>2021-02-20T14:14:30Z</time>
      </trkpt>
      <trkpt lat="45.16363" lon="5.96121">
        <ele>2393.7</ele>
        <time>2021-02-20T14:14:31Z</time>
      </trkpt>
      <trkpt lat="45.16362" lon="5.9612">
        <ele>2393.6</ele>
        <time>2021-02-20T14:14:32Z</time>
      </trkpt>
      <trkpt lat="45.16361" lon="5.96119">
        <ele>2393.5</ele>
        <time>2021-02-20T14:14:33Z</time>
      </trkpt>
      <trkpt lat="45.16361" lon="5.96118">
        <ele>2393.4</ele>
        <time>2021-02-20T14:14:34Z</time>
      </trkpt>
      <trkpt lat="45.1636" lon="5.96115">
        <ele>2393.1</ele>
        <time>2021-02-20T14:14:35Z</time>
      </trkpt>
      <trkpt lat="45.1636" lon="5.96114">
        <ele>2393</ele>
        <time>2021-02-20T14:14:36Z</time>
      </trkpt>
      <trkpt lat="45.16359" lon="5.96113">
        <ele>2392.9</ele>
        <time>2021-02-20T14:14:37Z</time>
      </trkpt>
      <trkpt lat="45.16359" lon="5.96112">
        <ele>2392.8</ele>
        <time>2021-02-20T14:14:38Z</time>
      </trkpt>
      <trkpt lat="45.16358" lon="5.96111">
        <ele>2392.7</ele>
        <time>2021-02-20T14:14:39Z</time>
      </trkpt>
      <trkpt lat="45.16358" lon="5.96109">
        <ele>2392.6</ele>
        <time>2021-02-20T14:14:40Z</time>
      </trkpt>
      <trkpt lat="45.16357" lon="5.96108">
        <ele>2392.5</ele>
        <time>2021-02-20T14:14:41Z</time>
      </trkpt>
      <trkpt lat="45.16356" lon="5.96107">
        <ele>2392.4</ele>
        <time>2021-02-20T14:14:42Z</time>
      </trkpt>
      <trkpt lat="45.16356" lon="5.96106">
        <ele>2392.3</ele>
        <time>2021-02-20T14:14:43Z</time>
      </trkpt>
      <trkpt lat="45.16355" lon="5.96105">
        <ele>2392.1</ele>
        <time>2021-02-20T14:14:44Z</time>
      </trkpt>
      <trkpt lat="45.16354" lon="5.96103">
        <ele>2392</ele>
        <time>2021-02-20T14:14:45Z</time>
      </trkpt>
      <trkpt lat="45.16354" lon="5.96101">
        <ele>2391.8</ele>
        <time>2021-02-20T14:14:46Z</time>
      </trkpt>
      <trkpt lat="45.16353" lon="5.96099">
        <ele>2391.7</ele>
        <time>2021-02-20T14:14:47Z</time>
      </trkpt>
      <trkpt lat="45.16353" lon="5.96097">
        <ele>2391.5</ele>
        <time>2021-02-20T14:14:48Z</time>
      </trkpt>
      <trkpt lat="45.16353" lon="5.96096">
        <ele>2391.4</ele>
        <time>2021-02-20T14:14:49Z</time>
      </trkpt>
      <trkpt lat="45.16353" lon="5.96094">
        <ele>2391.4</ele>
        <time>2021-02-20T14:14:50Z</time>
      </trkpt>
      <trkpt lat="45.16352" lon="5.96092">
        <ele>2391.2</ele>
        <time>2021-02-20T14:14:51Z</time>
      </trkpt>
      <trkpt lat="45.16352" lon="5.9609">
        <ele>2391.1</ele>
        <time>2021-02-20T14:14:52Z</time>
      </trkpt>
      <trkpt lat="45.16351" lon="5.96087">
        <ele>2390.9</ele>
        <time>2021-02-20T14:14:53Z</time>
      </trkpt>
      <trkpt lat="45.16351" lon="5.96086">
        <ele>2390.9</ele>
        <time>2021-02-20T14:14:54Z</time>
      </trkpt>
      <trkpt lat="45.16351" lon="5.96085">
        <ele>2390.8</ele>
        <time>2021-02-20T14:14:55Z</time>
      </trkpt>
      <trkpt lat="45.16351" lon="5.96084">
        <ele>2390.7</ele>
        <time>2021-02-20T14:14:56Z</time>
      </trkpt>
      <trkpt lat="45.1635" lon="5.96083">
        <ele>2390.6</ele>
        <time>2021-02-20T14:14:57Z</time>
      </trkpt>
      <trkpt lat="45.1635" lon="5.96081">
        <ele>2390.6</ele>
        <time>2021-02-20T14:14:58Z</time>
      </trkpt>
      <trkpt lat="45.1635" lon="5.9608">
        <ele>2390.5</ele>
        <time>2021-02-20T14:14:59Z</time>
      </trkpt>
      <trkpt lat="45.16349" lon="5.96079">
        <ele>2390.5</ele>
        <time>2021-02-20T14:15:00Z</time>
      </trkpt>
      <trkpt lat="45.16349" lon="5.96079">
        <ele>2390.4</ele>
        <time>2021-02-20T14:15:01Z</time>
      </trkpt>
      <trkpt lat="45.16349" lon="5.96078">
        <ele>2390.4</ele>
        <time>2021-02-20T14:15:02Z</time>
      </trkpt>
      <trkpt lat="45.16348" lon="5.96078">
        <ele>2390.3</ele>
        <time>2021-02-20T14:15:03Z</time>
      </trkpt>
      <trkpt lat="45.16348" lon="5.96077">
        <ele>2390.3</ele>
        <time>2021-02-20T14:15:04Z</time>
      </trkpt>
      <trkpt lat="45.16348" lon="5.96076">
        <ele>2390.2</ele>
        <time>2021-02-20T14:15:05Z</time>
      </trkpt>
      <trkpt lat="45.16348" lon="5.96074">
        <ele>2390.2</ele>
        <time>2021-02-20T14:15:06Z</time>
      </trkpt>
      <trkpt lat="45.16347" lon="5.96073">
        <ele>2390.1</ele>
        <time>2021-02-20T14:15:07Z</time>
      </trkpt>
      <trkpt lat="45.16347" lon="5.96072">
        <ele>2390.1</ele>
        <time>2021-02-20T14:15:08Z</time>
      </trkpt>
      <trkpt lat="45.16347" lon="5.96071">
        <ele>2390</ele>
        <time>2021-02-20T14:15:09Z</time>
      </trkpt>
      <trkpt lat="45.16347" lon="5.9607">
        <ele>2390</ele>
        <time>2021-02-20T14:15:10Z</time>
      </trkpt>
      <trkpt lat="45.16346" lon="5.96069">
        <ele>2389.9</ele>
        <time>2021-02-20T14:15:11Z</time>
      </trkpt>
      <trkpt lat="45.16346" lon="5.96068">
        <ele>2389.8</ele>
        <time>2021-02-20T14:15:12Z</time>
      </trkpt>
      <trkpt lat="45.16346" lon="5.96066">
        <ele>2389.8</ele>
        <time>2021-02-20T14:15:13Z</time>
      </trkpt>
      <trkpt lat="45.16345" lon="5.96065">
        <ele>2389.7</ele>
        <time>2021-02-20T14:15:14Z</time>
      </trkpt>
      <trkpt lat="45.16345" lon="5.96065">
        <ele>2389.7</ele>
        <time>2021-02-20T14:15:15Z</time>
      </trkpt>
      <trkpt lat="45.16345" lon="5.96064">
        <ele>2389.6</ele>
        <time>2021-02-20T14:15:16Z</time>
      </trkpt>
      <trkpt lat="45.16344" lon="5.96064">
        <ele>2389.6</ele>
        <time>2021-02-20T14:15:17Z</time>
      </trkpt>
      <trkpt lat="45.16344" lon="5.96063">
        <ele>2389.6</ele>
        <time>2021-02-20T14:15:18Z</time>
      </trkpt>
      <trkpt lat="45.16344" lon="5.96062">
        <ele>2389.5</ele>
        <time>2021-02-20T14:15:19Z</time>
      </trkpt>
      <trkpt lat="45.16344" lon="5.9606">
        <ele>2389.4</ele>
        <time>2021-02-20T14:15:20Z</time>
      </trkpt>
      <trkpt lat="45.16344" lon="5.96059">
        <ele>2389.4</ele>
        <time>2021-02-20T14:15:21Z</time>
      </trkpt>
      <trkpt lat="45.16343" lon="5.96058">
        <ele>2389.3</ele>
        <time>2021-02-20T14:15:22Z</time>
      </trkpt>
      <trkpt lat="45.16343" lon="5.96057">
        <ele>2389.3</ele>
        <time>2021-02-20T14:15:23Z</time>
      </trkpt>
      <trkpt lat="45.16342" lon="5.96057">
        <ele>2389.2</ele>
        <time>2021-02-20T14:15:24Z</time>
      </trkpt>
      <trkpt lat="45.16342" lon="5.96056">
        <ele>2389.2</ele>
        <time>2021-02-20T14:15:25Z</time>
      </trkpt>
      <trkpt lat="45.16341" lon="5.96055">
        <ele>2389.1</ele>
        <time>2021-02-20T14:15:26Z</time>
      </trkpt>
      <trkpt lat="45.16341" lon="5.96055">
        <ele>2389.1</ele>
        <time>2021-02-20T14:15:27Z</time>
      </trkpt>
      <trkpt lat="45.16341" lon="5.96054">
        <ele>2389.1</ele>
        <time>2021-02-20T14:15:28Z</time>
      </trkpt>
      <trkpt lat="45.1634" lon="5.96053">
        <ele>2389</ele>
        <time>2021-02-20T14:15:29Z</time>
      </trkpt>
      <trkpt lat="45.1634" lon="5.96052">
        <ele>2388.9</ele>
        <time>2021-02-20T14:15:30Z</time>
      </trkpt>
      <trkpt lat="45.1634" lon="5.96051">
        <ele>2388.9</ele>
        <time>2021-02-20T14:15:31Z</time>
      </trkpt>
      <trkpt lat="45.1634" lon="5.9605">
        <ele>2388.9</ele>
        <time>2021-02-20T14:15:32Z</time>
      </trkpt>
      <trkpt lat="45.1634" lon="5.9605">
        <ele>2388.8</ele>
        <time>2021-02-20T14:15:33Z</time>
      </trkpt>
      <trkpt lat="45.16339" lon="5.96049">
        <ele>2388.8</ele>
        <time>2021-02-20T14:15:34Z</time>
      </trkpt>
      <trkpt lat="45.16339" lon="5.96048">
        <ele>2388.7</ele>
        <time>2021-02-20T14:15:35Z</time>
      </trkpt>
      <trkpt lat="45.16339" lon="5.96047">
        <ele>2388.7</ele>
        <time>2021-02-20T14:15:36Z</time>
      </trkpt>
      <trkpt lat="45.16338" lon="5.96046">
        <ele>2388.6</ele>
        <time>2021-02-20T14:15:37Z</time>
      </trkpt>
      <trkpt lat="45.16338" lon="5.96045">
        <ele>2388.6</ele>
        <time>2021-02-20T14:15:38Z</time>
      </trkpt>
      <trkpt lat="45.16338" lon="5.96044">
        <ele>2388.5</ele>
        <time>2021-02-20T14:15:39Z</time>
      </trkpt>
      <trkpt lat="45.16338" lon="5.96043">
        <ele>2388.5</ele>
        <time>2021-02-20T14:15:40Z</time>
      </trkpt>
      <trkpt lat="45.16338" lon="5.96043">
        <ele>2388.4</ele>
        <time>2021-02-20T14:15:41Z</time>
      </trkpt>
      <trkpt lat="45.16337" lon="5.96042">
        <ele>2388.4</ele>
        <time>2021-02-20T14:15:42Z</time>
      </trkpt>
      <trkpt lat="45.16337" lon="5.96042">
        <ele>2388.3</ele>
        <time>2021-02-20T14:15:43Z</time>
      </trkpt>
      <trkpt lat="45.16336" lon="5.96041">
        <ele>2388.3</ele>
        <time>2021-02-20T14:15:44Z</time>
      </trkpt>
      <trkpt lat="45.16336" lon="5.96041">
        <ele>2388.2</ele>
        <time>2021-02-20T14:15:45Z</time>
      </trkpt>
      <trkpt lat="45.16335" lon="5.9604">
        <ele>2388.2</ele>
        <time>2021-02-20T14:15:46Z</time>
      </trkpt>
      <trkpt lat="45.16335" lon="5.9604">
        <ele>2388.2</ele>
        <time>2021-02-20T14:15:47Z</time>
      </trkpt>
      <trkpt lat="45.16335" lon="5.96039">
        <ele>2388.1</ele>
        <time>2021-02-20T14:15:48Z</time>
      </trkpt>
      <trkpt lat="45.16334" lon="5.96038">
        <ele>2388</ele>
        <time>2021-02-20T14:15:49Z</time>
      </trkpt>
      <trkpt lat="45.16334" lon="5.96037">
        <ele>2388</ele>
        <time>2021-02-20T14:15:50Z</time>
      </trkpt>
      <trkpt lat="45.16334" lon="5.96036">
        <ele>2387.9</ele>
        <time>2021-02-20T14:15:51Z</time>
      </trkpt>
      <trkpt lat="45.16334" lon="5.96034">
        <ele>2387.8</ele>
        <time>2021-02-20T14:15:52Z</time>
      </trkpt>
      <trkpt lat="45.16334" lon="5.96033">
        <ele>2387.7</ele>
        <time>2021-02-20T14:15:53Z</time>
      </trkpt>
      <trkpt lat="45.16333" lon="5.96032">
        <ele>2387.7</ele>
        <time>2021-02-20T14:15:54Z</time>
      </trkpt>
      <trkpt lat="45.16333" lon="5.96031">
        <ele>2387.6</ele>
        <time>2021-02-20T14:15:55Z</time>
      </trkpt>
      <trkpt lat="45.16333" lon="5.9603">
        <ele>2387.5</ele>
        <time>2021-02-20T14:15:56Z</time>
      </trkpt>
      <trkpt lat="45.16333" lon="5.96029">
        <ele>2387.5</ele>
        <time>2021-02-20T14:15:57Z</time>
      </trkpt>
      <trkpt lat="45.16333" lon="5.96028">
        <ele>2387.4</ele>
        <time>2021-02-20T14:15:58Z</time>
      </trkpt>
      <trkpt lat="45.16334" lon="5.96027">
        <ele>2387.4</ele>
        <time>2021-02-20T14:15:59Z</time>
      </trkpt>
      <trkpt lat="45.16334" lon="5.96026">
        <ele>2387.3</ele>
        <time>2021-02-20T14:16:00Z</time>
      </trkpt>
      <trkpt lat="45.16335" lon="5.96025">
        <ele>2387.2</ele>
        <time>2021-02-20T14:16:01Z</time>
      </trkpt>
      <trkpt lat="45.16335" lon="5.96024">
        <ele>2387.2</ele>
        <time>2021-02-20T14:16:02Z</time>
      </trkpt>
      <trkpt lat="45.16335" lon="5.96023">
        <ele>2387.1</ele>
        <time>2021-02-20T14:16:03Z</time>
      </trkpt>
      <trkpt lat="45.16335" lon="5.96022">
        <ele>2387</ele>
        <time>2021-02-20T14:16:04Z</time>
      </trkpt>
      <trkpt lat="45.16335" lon="5.96021">
        <ele>2387</ele>
        <time>2021-02-20T14:16:05Z</time>
      </trkpt>
      <trkpt lat="45.16336" lon="5.9602">
        <ele>2386.9</ele>
        <time>2021-02-20T14:16:06Z</time>
      </trkpt>
      <trkpt lat="45.16336" lon="5.96019">
        <ele>2386.9</ele>
        <time>2021-02-20T14:16:07Z</time>
      </trkpt>
      <trkpt lat="45.16336" lon="5.96018">
        <ele>2386.8</ele>
        <time>2021-02-20T14:16:08Z</time>
      </trkpt>
      <trkpt lat="45.16337" lon="5.96018">
        <ele>2386.8</ele>
        <time>2021-02-20T14:16:09Z</time>
      </trkpt>
      <trkpt lat="45.16337" lon="5.96017">
        <ele>2386.7</ele>
        <time>2021-02-20T14:16:10Z</time>
      </trkpt>
      <trkpt lat="45.16338" lon="5.96017">
        <ele>2386.7</ele>
        <time>2021-02-20T14:16:11Z</time>
      </trkpt>
      <trkpt lat="45.16338" lon="5.96016">
        <ele>2386.6</ele>
        <time>2021-02-20T14:16:12Z</time>
      </trkpt>
      <trkpt lat="45.16339" lon="5.96016">
        <ele>2386.6</ele>
        <time>2021-02-20T14:16:13Z</time>
      </trkpt>
      <trkpt lat="45.1634" lon="5.96015">
        <ele>2386.5</ele>
        <time>2021-02-20T14:16:14Z</time>
      </trkpt>
      <trkpt lat="45.1634" lon="5.96015">
        <ele>2386.4</ele>
        <time>2021-02-20T14:16:15Z</time>
      </trkpt>
      <trkpt lat="45.16341" lon="5.96014">
        <ele>2386.4</ele>
        <time>2021-02-20T14:16:16Z</time>
      </trkpt>
      <trkpt lat="45.16341" lon="5.96013">
        <ele>2386.3</ele>
        <time>2021-02-20T14:16:17Z</time>
      </trkpt>
      <trkpt lat="45.16341" lon="5.96012">
        <ele>2386.2</ele>
        <time>2021-02-20T14:16:18Z</time>
      </trkpt>
      <trkpt lat="45.16342" lon="5.9601">
        <ele>2386.1</ele>
        <time>2021-02-20T14:16:19Z</time>
      </trkpt>
      <trkpt lat="45.16342" lon="5.96009">
        <ele>2386.1</ele>
        <time>2021-02-20T14:16:20Z</time>
      </trkpt>
      <trkpt lat="45.16342" lon="5.96008">
        <ele>2386</ele>
        <time>2021-02-20T14:16:21Z</time>
      </trkpt>
      <trkpt lat="45.16342" lon="5.96007">
        <ele>2386</ele>
        <time>2021-02-20T14:16:22Z</time>
      </trkpt>
      <trkpt lat="45.16343" lon="5.96007">
        <ele>2385.9</ele>
        <time>2021-02-20T14:16:23Z</time>
      </trkpt>
      <trkpt lat="45.16343" lon="5.96006">
        <ele>2385.9</ele>
        <time>2021-02-20T14:16:24Z</time>
      </trkpt>
      <trkpt lat="45.16342" lon="5.96004">
        <ele>2385.8</ele>
        <time>2021-02-20T14:16:25Z</time>
      </trkpt>
      <trkpt lat="45.16342" lon="5.96003">
        <ele>2385.7</ele>
        <time>2021-02-20T14:16:26Z</time>
      </trkpt>
      <trkpt lat="45.16342" lon="5.96002">
        <ele>2385.6</ele>
        <time>2021-02-20T14:16:27Z</time>
      </trkpt>
      <trkpt lat="45.16342" lon="5.96">
        <ele>2385.6</ele>
        <time>2021-02-20T14:16:28Z</time>
      </trkpt>
      <trkpt lat="45.16342" lon="5.95999">
        <ele>2385.5</ele>
        <time>2021-02-20T14:16:29Z</time>
      </trkpt>
      <trkpt lat="45.16343" lon="5.95997">
        <ele>2385.4</ele>
        <time>2021-02-20T14:16:30Z</time>
      </trkpt>
      <trkpt lat="45.16344" lon="5.95995">
        <ele>2385.3</ele>
        <time>2021-02-20T14:16:31Z</time>
      </trkpt>
      <trkpt lat="45.16344" lon="5.95994">
        <ele>2385.2</ele>
        <time>2021-02-20T14:16:32Z</time>
      </trkpt>
      <trkpt lat="45.16344" lon="5.95993">
        <ele>2385.1</ele>
        <time>2021-02-20T14:16:33Z</time>
      </trkpt>
      <trkpt lat="45.16344" lon="5.95992">
        <ele>2385.1</ele>
        <time>2021-02-20T14:16:34Z</time>
      </trkpt>
      <trkpt lat="45.16344" lon="5.9599">
        <ele>2384.9</ele>
        <time>2021-02-20T14:16:35Z</time>
      </trkpt>
      <trkpt lat="45.16343" lon="5.95987">
        <ele>2384.8</ele>
        <time>2021-02-20T14:16:36Z</time>
      </trkpt>
      <trkpt lat="45.16343" lon="5.95985">
        <ele>2384.7</ele>
        <time>2021-02-20T14:16:37Z</time>
      </trkpt>
      <trkpt lat="45.16343" lon="5.95983">
        <ele>2384.5</ele>
        <time>2021-02-20T14:16:38Z</time>
      </trkpt>
      <trkpt lat="45.16342" lon="5.9598">
        <ele>2384.3</ele>
        <time>2021-02-20T14:16:39Z</time>
      </trkpt>
      <trkpt lat="45.16342" lon="5.95978">
        <ele>2384.3</ele>
        <time>2021-02-20T14:16:40Z</time>
      </trkpt>
      <trkpt lat="45.16341" lon="5.95977">
        <ele>2384.2</ele>
        <time>2021-02-20T14:16:41Z</time>
      </trkpt>
      <trkpt lat="45.16341" lon="5.95975">
        <ele>2384</ele>
        <time>2021-02-20T14:16:42Z</time>
      </trkpt>
      <trkpt lat="45.1634" lon="5.95973">
        <ele>2383.9</ele>
        <time>2021-02-20T14:16:43Z</time>
      </trkpt>
      <trkpt lat="45.16339" lon="5.95968">
        <ele>2383.6</ele>
        <time>2021-02-20T14:16:44Z</time>
      </trkpt>
      <trkpt lat="45.16338" lon="5.95967">
        <ele>2383.5</ele>
        <time>2021-02-20T14:16:45Z</time>
      </trkpt>
      <trkpt lat="45.16337" lon="5.95962">
        <ele>2383.1</ele>
        <time>2021-02-20T14:16:46Z</time>
      </trkpt>
      <trkpt lat="45.16336" lon="5.9596">
        <ele>2382.9</ele>
        <time>2021-02-20T14:16:47Z</time>
      </trkpt>
      <trkpt lat="45.16335" lon="5.95956">
        <ele>2382.6</ele>
        <time>2021-02-20T14:16:48Z</time>
      </trkpt>
      <trkpt lat="45.16333" lon="5.95952">
        <ele>2382.2</ele>
        <time>2021-02-20T14:16:49Z</time>
      </trkpt>
      <trkpt lat="45.16331" lon="5.95946">
        <ele>2381.8</ele>
        <time>2021-02-20T14:16:50Z</time>
      </trkpt>
      <trkpt lat="45.16329" lon="5.95941">
        <ele>2381.3</ele>
        <time>2021-02-20T14:16:51Z</time>
      </trkpt>
      <trkpt lat="45.16328" lon="5.95935">
        <ele>2380.9</ele>
        <time>2021-02-20T14:16:52Z</time>
      </trkpt>
      <trkpt lat="45.16326" lon="5.9593">
        <ele>2380.5</ele>
        <time>2021-02-20T14:16:53Z</time>
      </trkpt>
      <trkpt lat="45.16325" lon="5.95925">
        <ele>2380.1</ele>
        <time>2021-02-20T14:16:54Z</time>
      </trkpt>
      <trkpt lat="45.16325" lon="5.9592">
        <ele>2379.8</ele>
        <time>2021-02-20T14:16:55Z</time>
      </trkpt>
      <trkpt lat="45.16324" lon="5.95915">
        <ele>2379.4</ele>
        <time>2021-02-20T14:16:56Z</time>
      </trkpt>
      <trkpt lat="45.16324" lon="5.9591">
        <ele>2379</ele>
        <time>2021-02-20T14:16:57Z</time>
      </trkpt>
      <trkpt lat="45.16324" lon="5.95904">
        <ele>2378.5</ele>
        <time>2021-02-20T14:16:58Z</time>
      </trkpt>
      <trkpt lat="45.16325" lon="5.95896">
        <ele>2378</ele>
        <time>2021-02-20T14:16:59Z</time>
      </trkpt>
      <trkpt lat="45.16326" lon="5.9589">
        <ele>2377.7</ele>
        <time>2021-02-20T14:17:00Z</time>
      </trkpt>
      <trkpt lat="45.16327" lon="5.95885">
        <ele>2377.5</ele>
        <time>2021-02-20T14:17:01Z</time>
      </trkpt>
      <trkpt lat="45.16328" lon="5.95879">
        <ele>2377.2</ele>
        <time>2021-02-20T14:17:02Z</time>
      </trkpt>
      <trkpt lat="45.16329" lon="5.95873">
        <ele>2376.8</ele>
        <time>2021-02-20T14:17:03Z</time>
      </trkpt>
      <trkpt lat="45.16331" lon="5.95866">
        <ele>2376.3</ele>
        <time>2021-02-20T14:17:04Z</time>
      </trkpt>
      <trkpt lat="45.16333" lon="5.95859">
        <ele>2375.7</ele>
        <time>2021-02-20T14:17:05Z</time>
      </trkpt>
      <trkpt lat="45.16336" lon="5.95851">
        <ele>2374.9</ele>
        <time>2021-02-20T14:17:06Z</time>
      </trkpt>
      <trkpt lat="45.16339" lon="5.95844">
        <ele>2374.2</ele>
        <time>2021-02-20T14:17:07Z</time>
      </trkpt>
      <trkpt lat="45.16342" lon="5.95835">
        <ele>2373.3</ele>
        <time>2021-02-20T14:17:08Z</time>
      </trkpt>
      <trkpt lat="45.16344" lon="5.95826">
        <ele>2372.5</ele>
        <time>2021-02-20T14:17:09Z</time>
      </trkpt>
      <trkpt lat="45.16346" lon="5.95822">
        <ele>2372</ele>
        <time>2021-02-20T14:17:10Z</time>
      </trkpt>
      <trkpt lat="45.16349" lon="5.95816">
        <ele>2371.3</ele>
        <time>2021-02-20T14:17:11Z</time>
      </trkpt>
      <trkpt lat="45.16353" lon="5.95807">
        <ele>2370.4</ele>
        <time>2021-02-20T14:17:12Z</time>
      </trkpt>
      <trkpt lat="45.16356" lon="5.95799">
        <ele>2369.7</ele>
        <time>2021-02-20T14:17:13Z</time>
      </trkpt>
      <trkpt lat="45.16359" lon="5.9579">
        <ele>2369.1</ele>
        <time>2021-02-20T14:17:14Z</time>
      </trkpt>
      <trkpt lat="45.16364" lon="5.95781">
        <ele>2368.4</ele>
        <time>2021-02-20T14:17:15Z</time>
      </trkpt>
      <trkpt lat="45.16369" lon="5.9577">
        <ele>2367.8</ele>
        <time>2021-02-20T14:17:16Z</time>
      </trkpt>
      <trkpt lat="45.16373" lon="5.95758">
        <ele>2367.1</ele>
        <time>2021-02-20T14:17:17Z</time>
      </trkpt>
      <trkpt lat="45.16377" lon="5.95747">
        <ele>2366.6</ele>
        <time>2021-02-20T14:17:18Z</time>
      </trkpt>
      <trkpt lat="45.16381" lon="5.95737">
        <ele>2366</ele>
        <time>2021-02-20T14:17:19Z</time>
      </trkpt>
      <trkpt lat="45.16384" lon="5.95728">
        <ele>2365.4</ele>
        <time>2021-02-20T14:17:20Z</time>
      </trkpt>
      <trkpt lat="45.16388" lon="5.95719">
        <ele>2364.8</ele>
        <time>2021-02-20T14:17:21Z</time>
      </trkpt>
      <trkpt lat="45.16391" lon="5.95713">
        <ele>2364.3</ele>
        <time>2021-02-20T14:17:22Z</time>
      </trkpt>
      <trkpt lat="45.16394" lon="5.95706">
        <ele>2363.9</ele>
        <time>2021-02-20T14:17:23Z</time>
      </trkpt>
      <trkpt lat="45.16397" lon="5.957">
        <ele>2363.7</ele>
        <time>2021-02-20T14:17:24Z</time>
      </trkpt>
      <trkpt lat="45.16399" lon="5.95695">
        <ele>2363.5</ele>
        <time>2021-02-20T14:17:25Z</time>
      </trkpt>
      <trkpt lat="45.16401" lon="5.95689">
        <ele>2363.4</ele>
        <time>2021-02-20T14:17:26Z</time>
      </trkpt>
      <trkpt lat="45.16402" lon="5.95684">
        <ele>2363.3</ele>
        <time>2021-02-20T14:17:27Z</time>
      </trkpt>
      <trkpt lat="45.16404" lon="5.95679">
        <ele>2363.3</ele>
        <time>2021-02-20T14:17:28Z</time>
      </trkpt>
      <trkpt lat="45.16406" lon="5.95674">
        <ele>2363.3</ele>
        <time>2021-02-20T14:17:29Z</time>
      </trkpt>
      <trkpt lat="45.16406" lon="5.95672">
        <ele>2363.3</ele>
        <time>2021-02-20T14:17:30Z</time>
      </trkpt>
      <trkpt lat="45.16408" lon="5.95667">
        <ele>2363.3</ele>
        <time>2021-02-20T14:17:31Z</time>
      </trkpt>
      <trkpt lat="45.16408" lon="5.95665">
        <ele>2363.4</ele>
        <time>2021-02-20T14:17:32Z</time>
      </trkpt>
      <trkpt lat="45.16409" lon="5.95661">
        <ele>2363.4</ele>
        <time>2021-02-20T14:17:33Z</time>
      </trkpt>
      <trkpt lat="45.16409" lon="5.95659">
        <ele>2363.5</ele>
        <time>2021-02-20T14:17:34Z</time>
      </trkpt>
      <trkpt lat="45.16411" lon="5.95655">
        <ele>2363.6</ele>
        <time>2021-02-20T14:17:35Z</time>
      </trkpt>
      <trkpt lat="45.16411" lon="5.95653">
        <ele>2363.7</ele>
        <time>2021-02-20T14:17:36Z</time>
      </trkpt>
      <trkpt lat="45.16412" lon="5.95651">
        <ele>2363.8</ele>
        <time>2021-02-20T14:17:37Z</time>
      </trkpt>
      <trkpt lat="45.16412" lon="5.95648">
        <ele>2363.9</ele>
        <time>2021-02-20T14:17:38Z</time>
      </trkpt>
      <trkpt lat="45.16413" lon="5.95646">
        <ele>2364</ele>
        <time>2021-02-20T14:17:39Z</time>
      </trkpt>
      <trkpt lat="45.16413" lon="5.95644">
        <ele>2364.1</ele>
        <time>2021-02-20T14:17:40Z</time>
      </trkpt>
      <trkpt lat="45.16414" lon="5.95642">
        <ele>2364.2</ele>
        <time>2021-02-20T14:17:41Z</time>
      </trkpt>
      <trkpt lat="45.16415" lon="5.9564">
        <ele>2364.3</ele>
        <time>2021-02-20T14:17:42Z</time>
      </trkpt>
      <trkpt lat="45.16416" lon="5.95638">
        <ele>2364.5</ele>
        <time>2021-02-20T14:17:43Z</time>
      </trkpt>
      <trkpt lat="45.16416" lon="5.95636">
        <ele>2364.6</ele>
        <time>2021-02-20T14:17:44Z</time>
      </trkpt>
      <trkpt lat="45.16417" lon="5.95632">
        <ele>2364.8</ele>
        <time>2021-02-20T14:17:45Z</time>
      </trkpt>
      <trkpt lat="45.16417" lon="5.95631">
        <ele>2364.8</ele>
        <time>2021-02-20T14:17:46Z</time>
      </trkpt>
      <trkpt lat="45.16418" lon="5.95628">
        <ele>2364.9</ele>
        <time>2021-02-20T14:17:47Z</time>
      </trkpt>
      <trkpt lat="45.16418" lon="5.95626">
        <ele>2365</ele>
        <time>2021-02-20T14:17:48Z</time>
      </trkpt>
      <trkpt lat="45.16419" lon="5.95624">
        <ele>2365.1</ele>
        <time>2021-02-20T14:17:49Z</time>
      </trkpt>
      <trkpt lat="45.1642" lon="5.95622">
        <ele>2365.3</ele>
        <time>2021-02-20T14:17:50Z</time>
      </trkpt>
      <trkpt lat="45.16421" lon="5.95619">
        <ele>2365.4</ele>
        <time>2021-02-20T14:17:51Z</time>
      </trkpt>
      <trkpt lat="45.16421" lon="5.95617">
        <ele>2365.5</ele>
        <time>2021-02-20T14:17:52Z</time>
      </trkpt>
      <trkpt lat="45.16422" lon="5.95615">
        <ele>2365.6</ele>
        <time>2021-02-20T14:17:53Z</time>
      </trkpt>
      <trkpt lat="45.16423" lon="5.95613">
        <ele>2365.7</ele>
        <time>2021-02-20T14:17:54Z</time>
      </trkpt>
      <trkpt lat="45.16423" lon="5.95612">
        <ele>2365.7</ele>
        <time>2021-02-20T14:17:55Z</time>
      </trkpt>
      <trkpt lat="45.16424" lon="5.9561">
        <ele>2365.8</ele>
        <time>2021-02-20T14:17:56Z</time>
      </trkpt>
      <trkpt lat="45.16424" lon="5.95608">
        <ele>2365.9</ele>
        <time>2021-02-20T14:17:57Z</time>
      </trkpt>
      <trkpt lat="45.16424" lon="5.95605">
        <ele>2366</ele>
        <time>2021-02-20T14:17:58Z</time>
      </trkpt>
      <trkpt lat="45.16424" lon="5.95604">
        <ele>2366</ele>
        <time>2021-02-20T14:17:59Z</time>
      </trkpt>
      <trkpt lat="45.16425" lon="5.95603">
        <ele>2366.1</ele>
        <time>2021-02-20T14:18:00Z</time>
      </trkpt>
      <trkpt lat="45.16426" lon="5.95601">
        <ele>2366.2</ele>
        <time>2021-02-20T14:18:01Z</time>
      </trkpt>
      <trkpt lat="45.16426" lon="5.956">
        <ele>2366.2</ele>
        <time>2021-02-20T14:18:02Z</time>
      </trkpt>
      <trkpt lat="45.16427" lon="5.95599">
        <ele>2366.3</ele>
        <time>2021-02-20T14:18:03Z</time>
      </trkpt>
      <trkpt lat="45.16428" lon="5.95598">
        <ele>2366.4</ele>
        <time>2021-02-20T14:18:04Z</time>
      </trkpt>
      <trkpt lat="45.16428" lon="5.95597">
        <ele>2366.4</ele>
        <time>2021-02-20T14:18:05Z</time>
      </trkpt>
      <trkpt lat="45.16429" lon="5.95595">
        <ele>2366.5</ele>
        <time>2021-02-20T14:18:06Z</time>
      </trkpt>
      <trkpt lat="45.16429" lon="5.95593">
        <ele>2366.5</ele>
        <time>2021-02-20T14:18:07Z</time>
      </trkpt>
      <trkpt lat="45.16429" lon="5.95592">
        <ele>2366.6</ele>
        <time>2021-02-20T14:18:08Z</time>
      </trkpt>
      <trkpt lat="45.1643" lon="5.95591">
        <ele>2366.7</ele>
        <time>2021-02-20T14:18:09Z</time>
      </trkpt>
      <trkpt lat="45.1643" lon="5.95588">
        <ele>2366.8</ele>
        <time>2021-02-20T14:18:10Z</time>
      </trkpt>
      <trkpt lat="45.1643" lon="5.95586">
        <ele>2366.8</ele>
        <time>2021-02-20T14:18:11Z</time>
      </trkpt>
      <trkpt lat="45.1643" lon="5.95585">
        <ele>2366.9</ele>
        <time>2021-02-20T14:18:12Z</time>
      </trkpt>
      <trkpt lat="45.1643" lon="5.95583">
        <ele>2366.9</ele>
        <time>2021-02-20T14:18:13Z</time>
      </trkpt>
      <trkpt lat="45.1643" lon="5.95581">
        <ele>2367</ele>
        <time>2021-02-20T14:18:14Z</time>
      </trkpt>
      <trkpt lat="45.1643" lon="5.95577">
        <ele>2367.2</ele>
        <time>2021-02-20T14:18:15Z</time>
      </trkpt>
      <trkpt lat="45.1643" lon="5.95576">
        <ele>2367.2</ele>
        <time>2021-02-20T14:18:16Z</time>
      </trkpt>
      <trkpt lat="45.1643" lon="5.95573">
        <ele>2367.3</ele>
        <time>2021-02-20T14:18:17Z</time>
      </trkpt>
      <trkpt lat="45.1643" lon="5.95571">
        <ele>2367.3</ele>
        <time>2021-02-20T14:18:18Z</time>
      </trkpt>
      <trkpt lat="45.16431" lon="5.9557">
        <ele>2367.4</ele>
        <time>2021-02-20T14:18:19Z</time>
      </trkpt>
      <trkpt lat="45.16431" lon="5.95569">
        <ele>2367.4</ele>
        <time>2021-02-20T14:18:20Z</time>
      </trkpt>
      <trkpt lat="45.16431" lon="5.95568">
        <ele>2367.4</ele>
        <time>2021-02-20T14:18:21Z</time>
      </trkpt>
      <trkpt lat="45.16432" lon="5.95567">
        <ele>2367.5</ele>
        <time>2021-02-20T14:18:22Z</time>
      </trkpt>
      <trkpt lat="45.16432" lon="5.95566">
        <ele>2367.5</ele>
        <time>2021-02-20T14:18:23Z</time>
      </trkpt>
      <trkpt lat="45.16432" lon="5.95565">
        <ele>2367.5</ele>
        <time>2021-02-20T14:18:24Z</time>
      </trkpt>
      <trkpt lat="45.16433" lon="5.95563">
        <ele>2367.5</ele>
        <time>2021-02-20T14:18:25Z</time>
      </trkpt>
      <trkpt lat="45.16433" lon="5.95562">
        <ele>2367.5</ele>
        <time>2021-02-20T14:18:26Z</time>
      </trkpt>
      <trkpt lat="45.16433" lon="5.95561">
        <ele>2367.6</ele>
        <time>2021-02-20T14:18:27Z</time>
      </trkpt>
      <trkpt lat="45.16433" lon="5.95561">
        <ele>2367.6</ele>
        <time>2021-02-20T14:18:28Z</time>
      </trkpt>
      <trkpt lat="45.16434" lon="5.9556">
        <ele>2367.5</ele>
        <time>2021-02-20T14:18:29Z</time>
      </trkpt>
      <trkpt lat="45.16434" lon="5.95558">
        <ele>2367.5</ele>
        <time>2021-02-20T14:18:30Z</time>
      </trkpt>
      <trkpt lat="45.16434" lon="5.95556">
        <ele>2367.5</ele>
        <time>2021-02-20T14:18:31Z</time>
      </trkpt>
      <trkpt lat="45.16434" lon="5.95555">
        <ele>2367.5</ele>
        <time>2021-02-20T14:18:32Z</time>
      </trkpt>
      <trkpt lat="45.16435" lon="5.95554">
        <ele>2367.5</ele>
        <time>2021-02-20T14:18:33Z</time>
      </trkpt>
      <trkpt lat="45.16435" lon="5.95553">
        <ele>2367.4</ele>
        <time>2021-02-20T14:18:34Z</time>
      </trkpt>
      <trkpt lat="45.16435" lon="5.95552">
        <ele>2367.4</ele>
        <time>2021-02-20T14:18:35Z</time>
      </trkpt>
      <trkpt lat="45.16436" lon="5.95551">
        <ele>2367.3</ele>
        <time>2021-02-20T14:18:36Z</time>
      </trkpt>
      <trkpt lat="45.16436" lon="5.95549">
        <ele>2367.3</ele>
        <time>2021-02-20T14:18:37Z</time>
      </trkpt>
      <trkpt lat="45.16436" lon="5.95547">
        <ele>2367.1</ele>
        <time>2021-02-20T14:18:38Z</time>
      </trkpt>
      <trkpt lat="45.16437" lon="5.95546">
        <ele>2367</ele>
        <time>2021-02-20T14:18:39Z</time>
      </trkpt>
      <trkpt lat="45.16437" lon="5.95544">
        <ele>2366.9</ele>
        <time>2021-02-20T14:18:40Z</time>
      </trkpt>
      <trkpt lat="45.16437" lon="5.95542">
        <ele>2366.8</ele>
        <time>2021-02-20T14:18:41Z</time>
      </trkpt>
      <trkpt lat="45.16437" lon="5.95541">
        <ele>2366.7</ele>
        <time>2021-02-20T14:18:42Z</time>
      </trkpt>
      <trkpt lat="45.16437" lon="5.95538">
        <ele>2366.5</ele>
        <time>2021-02-20T14:18:43Z</time>
      </trkpt>
      <trkpt lat="45.16437" lon="5.95537">
        <ele>2366.3</ele>
        <time>2021-02-20T14:18:44Z</time>
      </trkpt>
      <trkpt lat="45.16438" lon="5.95536">
        <ele>2366.2</ele>
        <time>2021-02-20T14:18:45Z</time>
      </trkpt>
      <trkpt lat="45.16438" lon="5.95533">
        <ele>2365.9</ele>
        <time>2021-02-20T14:18:46Z</time>
      </trkpt>
      <trkpt lat="45.16438" lon="5.95532">
        <ele>2365.8</ele>
        <time>2021-02-20T14:18:47Z</time>
      </trkpt>
      <trkpt lat="45.16438" lon="5.95531">
        <ele>2365.7</ele>
        <time>2021-02-20T14:18:48Z</time>
      </trkpt>
      <trkpt lat="45.16438" lon="5.95529">
        <ele>2365.6</ele>
        <time>2021-02-20T14:18:49Z</time>
      </trkpt>
      <trkpt lat="45.16439" lon="5.95527">
        <ele>2365.4</ele>
        <time>2021-02-20T14:18:50Z</time>
      </trkpt>
      <trkpt lat="45.16439" lon="5.95526">
        <ele>2365.3</ele>
        <time>2021-02-20T14:18:51Z</time>
      </trkpt>
      <trkpt lat="45.1644" lon="5.95525">
        <ele>2365.2</ele>
        <time>2021-02-20T14:18:52Z</time>
      </trkpt>
      <trkpt lat="45.1644" lon="5.95524">
        <ele>2365.1</ele>
        <time>2021-02-20T14:18:53Z</time>
      </trkpt>
      <trkpt lat="45.1644" lon="5.95523">
        <ele>2365</ele>
        <time>2021-02-20T14:18:54Z</time>
      </trkpt>
      <trkpt lat="45.1644" lon="5.95523">
        <ele>2365</ele>
        <time>2021-02-20T14:18:55Z</time>
      </trkpt>
      <trkpt lat="45.16441" lon="5.95523">
        <ele>2365</ele>
        <time>2021-02-20T14:18:56Z</time>
      </trkpt>
      <trkpt lat="45.16441" lon="5.95523">
        <ele>2365</ele>
        <time>2021-02-20T14:18:57Z</time>
      </trkpt>
      <trkpt lat="45.16441" lon="5.95521">
        <ele>2364.8</ele>
        <time>2021-02-20T14:18:58Z</time>
      </trkpt>
      <trkpt lat="45.16442" lon="5.95518">
        <ele>2364.6</ele>
        <time>2021-02-20T14:18:59Z</time>
      </trkpt>
      <trkpt lat="45.16443" lon="5.95515">
        <ele>2364.4</ele>
        <time>2021-02-20T14:19:00Z</time>
      </trkpt>
      <trkpt lat="45.16443" lon="5.95513">
        <ele>2364.3</ele>
        <time>2021-02-20T14:19:01Z</time>
      </trkpt>
      <trkpt lat="45.16444" lon="5.95511">
        <ele>2364.2</ele>
        <time>2021-02-20T14:19:02Z</time>
      </trkpt>
      <trkpt lat="45.16445" lon="5.95509">
        <ele>2364.1</ele>
        <time>2021-02-20T14:19:03Z</time>
      </trkpt>
      <trkpt lat="45.16446" lon="5.95506">
        <ele>2364</ele>
        <time>2021-02-20T14:19:04Z</time>
      </trkpt>
      <trkpt lat="45.16447" lon="5.95505">
        <ele>2363.9</ele>
        <time>2021-02-20T14:19:05Z</time>
      </trkpt>
      <trkpt lat="45.16448" lon="5.95501">
        <ele>2363.8</ele>
        <time>2021-02-20T14:19:06Z</time>
      </trkpt>
      <trkpt lat="45.16449" lon="5.95499">
        <ele>2363.8</ele>
        <time>2021-02-20T14:19:07Z</time>
      </trkpt>
      <trkpt lat="45.1645" lon="5.95497">
        <ele>2363.7</ele>
        <time>2021-02-20T14:19:08Z</time>
      </trkpt>
      <trkpt lat="45.1645" lon="5.95495">
        <ele>2363.7</ele>
        <time>2021-02-20T14:19:09Z</time>
      </trkpt>
      <trkpt lat="45.16451" lon="5.95494">
        <ele>2363.7</ele>
        <time>2021-02-20T14:19:10Z</time>
      </trkpt>
      <trkpt lat="45.16453" lon="5.9549">
        <ele>2363.6</ele>
        <time>2021-02-20T14:19:11Z</time>
      </trkpt>
      <trkpt lat="45.16454" lon="5.95489">
        <ele>2363.6</ele>
        <time>2021-02-20T14:19:12Z</time>
      </trkpt>
      <trkpt lat="45.16455" lon="5.95487">
        <ele>2363.6</ele>
        <time>2021-02-20T14:19:13Z</time>
      </trkpt>
      <trkpt lat="45.16455" lon="5.95486">
        <ele>2363.5</ele>
        <time>2021-02-20T14:19:14Z</time>
      </trkpt>
      <trkpt lat="45.16456" lon="5.95483">
        <ele>2363.5</ele>
        <time>2021-02-20T14:19:15Z</time>
      </trkpt>
      <trkpt lat="45.16457" lon="5.95482">
        <ele>2363.5</ele>
        <time>2021-02-20T14:19:16Z</time>
      </trkpt>
      <trkpt lat="45.16457" lon="5.95481">
        <ele>2363.5</ele>
        <time>2021-02-20T14:19:17Z</time>
      </trkpt>
      <trkpt lat="45.16458" lon="5.9548">
        <ele>2363.5</ele>
        <time>2021-02-20T14:19:18Z</time>
      </trkpt>
      <trkpt lat="45.16459" lon="5.95478">
        <ele>2363.5</ele>
        <time>2021-02-20T14:19:19Z</time>
      </trkpt>
      <trkpt lat="45.1646" lon="5.95477">
        <ele>2363.5</ele>
        <time>2021-02-20T14:19:20Z</time>
      </trkpt>
      <trkpt lat="45.16461" lon="5.95476">
        <ele>2363.5</ele>
        <time>2021-02-20T14:19:21Z</time>
      </trkpt>
      <trkpt lat="45.16462" lon="5.95475">
        <ele>2363.4</ele>
        <time>2021-02-20T14:19:22Z</time>
      </trkpt>
      <trkpt lat="45.16464" lon="5.95472">
        <ele>2363.4</ele>
        <time>2021-02-20T14:19:23Z</time>
      </trkpt>
      <trkpt lat="45.16465" lon="5.95471">
        <ele>2363.4</ele>
        <time>2021-02-20T14:19:24Z</time>
      </trkpt>
      <trkpt lat="45.16468" lon="5.95466">
        <ele>2363.4</ele>
        <time>2021-02-20T14:19:25Z</time>
      </trkpt>
      <trkpt lat="45.16468" lon="5.95465">
        <ele>2363.4</ele>
        <time>2021-02-20T14:19:26Z</time>
      </trkpt>
      <trkpt lat="45.16471" lon="5.95462">
        <ele>2363.4</ele>
        <time>2021-02-20T14:19:27Z</time>
      </trkpt>
      <trkpt lat="45.16472" lon="5.95461">
        <ele>2363.4</ele>
        <time>2021-02-20T14:19:28Z</time>
      </trkpt>
      <trkpt lat="45.16473" lon="5.9546">
        <ele>2363.3</ele>
        <time>2021-02-20T14:19:29Z</time>
      </trkpt>
      <trkpt lat="45.16474" lon="5.95458">
        <ele>2363.3</ele>
        <time>2021-02-20T14:19:30Z</time>
      </trkpt>
      <trkpt lat="45.16477" lon="5.95454">
        <ele>2363.2</ele>
        <time>2021-02-20T14:19:31Z</time>
      </trkpt>
      <trkpt lat="45.16477" lon="5.95453">
        <ele>2363.2</ele>
        <time>2021-02-20T14:19:32Z</time>
      </trkpt>
      <trkpt lat="45.1648" lon="5.9545">
        <ele>2363.1</ele>
        <time>2021-02-20T14:19:33Z</time>
      </trkpt>
      <trkpt lat="45.16481" lon="5.95449">
        <ele>2363.1</ele>
        <time>2021-02-20T14:19:34Z</time>
      </trkpt>
      <trkpt lat="45.16482" lon="5.95447">
        <ele>2363</ele>
        <time>2021-02-20T14:19:35Z</time>
      </trkpt>
      <trkpt lat="45.16483" lon="5.95445">
        <ele>2363</ele>
        <time>2021-02-20T14:19:36Z</time>
      </trkpt>
      <trkpt lat="45.16484" lon="5.95444">
        <ele>2362.9</ele>
        <time>2021-02-20T14:19:37Z</time>
      </trkpt>
      <trkpt lat="45.16485" lon="5.95443">
        <ele>2362.9</ele>
        <time>2021-02-20T14:19:38Z</time>
      </trkpt>
      <trkpt lat="45.16485" lon="5.95441">
        <ele>2362.9</ele>
        <time>2021-02-20T14:19:39Z</time>
      </trkpt>
      <trkpt lat="45.16487" lon="5.95439">
        <ele>2362.8</ele>
        <time>2021-02-20T14:19:40Z</time>
      </trkpt>
      <trkpt lat="45.16488" lon="5.95437">
        <ele>2362.8</ele>
        <time>2021-02-20T14:19:41Z</time>
      </trkpt>
      <trkpt lat="45.16489" lon="5.95436">
        <ele>2362.7</ele>
        <time>2021-02-20T14:19:42Z</time>
      </trkpt>
      <trkpt lat="45.1649" lon="5.95434">
        <ele>2362.7</ele>
        <time>2021-02-20T14:19:43Z</time>
      </trkpt>
      <trkpt lat="45.16491" lon="5.95432">
        <ele>2362.6</ele>
        <time>2021-02-20T14:19:44Z</time>
      </trkpt>
      <trkpt lat="45.16492" lon="5.9543">
        <ele>2362.6</ele>
        <time>2021-02-20T14:19:45Z</time>
      </trkpt>
      <trkpt lat="45.16493" lon="5.95429">
        <ele>2362.5</ele>
        <time>2021-02-20T14:19:46Z</time>
      </trkpt>
      <trkpt lat="45.16493" lon="5.95428">
        <ele>2362.5</ele>
        <time>2021-02-20T14:19:47Z</time>
      </trkpt>
      <trkpt lat="45.16495" lon="5.95426">
        <ele>2362.4</ele>
        <time>2021-02-20T14:19:48Z</time>
      </trkpt>
      <trkpt lat="45.16496" lon="5.95425">
        <ele>2362.4</ele>
        <time>2021-02-20T14:19:49Z</time>
      </trkpt>
      <trkpt lat="45.16496" lon="5.95425">
        <ele>2362.4</ele>
        <time>2021-02-20T14:19:50Z</time>
      </trkpt>
      <trkpt lat="45.16498" lon="5.95424">
        <ele>2362.3</ele>
        <time>2021-02-20T14:19:51Z</time>
      </trkpt>
      <trkpt lat="45.16499" lon="5.95423">
        <ele>2362.3</ele>
        <time>2021-02-20T14:19:52Z</time>
      </trkpt>
      <trkpt lat="45.16501" lon="5.95422">
        <ele>2362.2</ele>
        <time>2021-02-20T14:19:53Z</time>
      </trkpt>
      <trkpt lat="45.16502" lon="5.95421">
        <ele>2362.2</ele>
        <time>2021-02-20T14:19:54Z</time>
      </trkpt>
      <trkpt lat="45.16503" lon="5.95419">
        <ele>2362.2</ele>
        <time>2021-02-20T14:19:55Z</time>
      </trkpt>
      <trkpt lat="45.16505" lon="5.95418">
        <ele>2362.1</ele>
        <time>2021-02-20T14:19:56Z</time>
      </trkpt>
      <trkpt lat="45.16506" lon="5.95417">
        <ele>2362.1</ele>
        <time>2021-02-20T14:19:57Z</time>
      </trkpt>
      <trkpt lat="45.16507" lon="5.95415">
        <ele>2362</ele>
        <time>2021-02-20T14:19:58Z</time>
      </trkpt>
      <trkpt lat="45.16507" lon="5.95414">
        <ele>2362</ele>
        <time>2021-02-20T14:19:59Z</time>
      </trkpt>
      <trkpt lat="45.16508" lon="5.95411">
        <ele>2362</ele>
        <time>2021-02-20T14:20:00Z</time>
      </trkpt>
      <trkpt lat="45.16509" lon="5.95407">
        <ele>2361.9</ele>
        <time>2021-02-20T14:20:01Z</time>
      </trkpt>
      <trkpt lat="45.16509" lon="5.95405">
        <ele>2361.9</ele>
        <time>2021-02-20T14:20:02Z</time>
      </trkpt>
      <trkpt lat="45.16511" lon="5.95402">
        <ele>2361.8</ele>
        <time>2021-02-20T14:20:03Z</time>
      </trkpt>
      <trkpt lat="45.16513" lon="5.95397">
        <ele>2361.8</ele>
        <time>2021-02-20T14:20:04Z</time>
      </trkpt>
      <trkpt lat="45.16514" lon="5.95396">
        <ele>2361.8</ele>
        <time>2021-02-20T14:20:05Z</time>
      </trkpt>
      <trkpt lat="45.16516" lon="5.95392">
        <ele>2361.7</ele>
        <time>2021-02-20T14:20:06Z</time>
      </trkpt>
      <trkpt lat="45.16517" lon="5.95391">
        <ele>2361.7</ele>
        <time>2021-02-20T14:20:07Z</time>
      </trkpt>
      <trkpt lat="45.16519" lon="5.95388">
        <ele>2361.6</ele>
        <time>2021-02-20T14:20:08Z</time>
      </trkpt>
      <trkpt lat="45.1652" lon="5.95387">
        <ele>2361.5</ele>
        <time>2021-02-20T14:20:09Z</time>
      </trkpt>
      <trkpt lat="45.16522" lon="5.95384">
        <ele>2361.4</ele>
        <time>2021-02-20T14:20:10Z</time>
      </trkpt>
      <trkpt lat="45.16523" lon="5.95383">
        <ele>2361.3</ele>
        <time>2021-02-20T14:20:11Z</time>
      </trkpt>
      <trkpt lat="45.16526" lon="5.9538">
        <ele>2361.1</ele>
        <time>2021-02-20T14:20:12Z</time>
      </trkpt>
      <trkpt lat="45.16527" lon="5.95379">
        <ele>2361</ele>
        <time>2021-02-20T14:20:13Z</time>
      </trkpt>
      <trkpt lat="45.1653" lon="5.95376">
        <ele>2360.6</ele>
        <time>2021-02-20T14:20:14Z</time>
      </trkpt>
      <trkpt lat="45.16534" lon="5.95373">
        <ele>2360.2</ele>
        <time>2021-02-20T14:20:15Z</time>
      </trkpt>
      <trkpt lat="45.16537" lon="5.95372">
        <ele>2359.8</ele>
        <time>2021-02-20T14:20:16Z</time>
      </trkpt>
      <trkpt lat="45.1654" lon="5.95372">
        <ele>2359.5</ele>
        <time>2021-02-20T14:20:17Z</time>
      </trkpt>
      <trkpt lat="45.16542" lon="5.95373">
        <ele>2359.3</ele>
        <time>2021-02-20T14:20:18Z</time>
      </trkpt>
      <trkpt lat="45.16542" lon="5.95374">
        <ele>2359.2</ele>
        <time>2021-02-20T14:20:19Z</time>
      </trkpt>
      <trkpt lat="45.16544" lon="5.95375">
        <ele>2359.1</ele>
        <time>2021-02-20T14:20:20Z</time>
      </trkpt>
      <trkpt lat="45.16544" lon="5.95376">
        <ele>2358.9</ele>
        <time>2021-02-20T14:20:21Z</time>
      </trkpt>
      <trkpt lat="45.16545" lon="5.95376">
        <ele>2358.9</ele>
        <time>2021-02-20T14:20:22Z</time>
      </trkpt>
      <trkpt lat="45.16545" lon="5.95376">
        <ele>2358.8</ele>
        <time>2021-02-20T14:20:23Z</time>
      </trkpt>
      <trkpt lat="45.16546" lon="5.95376">
        <ele>2358.8</ele>
        <time>2021-02-20T14:20:24Z</time>
      </trkpt>
      <trkpt lat="45.16546" lon="5.95376">
        <ele>2358.7</ele>
        <time>2021-02-20T14:20:25Z</time>
      </trkpt>
      <trkpt lat="45.16547" lon="5.95375">
        <ele>2358.6</ele>
        <time>2021-02-20T14:20:26Z</time>
      </trkpt>
      <trkpt lat="45.16547" lon="5.95375">
        <ele>2358.6</ele>
        <time>2021-02-20T14:20:27Z</time>
      </trkpt>
      <trkpt lat="45.16548" lon="5.95374">
        <ele>2358.5</ele>
        <time>2021-02-20T14:20:28Z</time>
      </trkpt>
      <trkpt lat="45.16549" lon="5.95374">
        <ele>2358.4</ele>
        <time>2021-02-20T14:20:29Z</time>
      </trkpt>
      <trkpt lat="45.16552" lon="5.95373">
        <ele>2358</ele>
        <time>2021-02-20T14:20:30Z</time>
      </trkpt>
      <trkpt lat="45.16554" lon="5.95373">
        <ele>2358</ele>
        <time>2021-02-20T14:20:31Z</time>
      </trkpt>
      <trkpt lat="45.16555" lon="5.95373">
        <ele>2357.8</ele>
        <time>2021-02-20T14:20:32Z</time>
      </trkpt>
      <trkpt lat="45.16556" lon="5.95373">
        <ele>2359</ele>
        <time>2021-02-20T14:20:33Z</time>
      </trkpt>
      <trkpt lat="45.16556" lon="5.95373">
        <ele>2359</ele>
        <time>2021-02-20T14:20:34Z</time>
      </trkpt>
      <trkpt lat="45.16555" lon="5.95373">
        <ele>2357.7</ele>
        <time>2021-02-20T14:20:35Z</time>
      </trkpt>
      <trkpt lat="45.16555" lon="5.95373">
        <ele>2357.9</ele>
        <time>2021-02-20T14:20:36Z</time>
      </trkpt>
      <trkpt lat="45.16554" lon="5.95372">
        <ele>2357.9</ele>
        <time>2021-02-20T14:20:37Z</time>
      </trkpt>
      <trkpt lat="45.16553" lon="5.95372">
        <ele>2357.9</ele>
        <time>2021-02-20T14:20:38Z</time>
      </trkpt>
      <trkpt lat="45.16552" lon="5.95371">
        <ele>2357.9</ele>
        <time>2021-02-20T14:20:39Z</time>
      </trkpt>
      <trkpt lat="45.1655" lon="5.95369">
        <ele>2358.1</ele>
        <time>2021-02-20T14:20:40Z</time>
      </trkpt>
      <trkpt lat="45.16547" lon="5.95367">
        <ele>2357.1</ele>
        <time>2021-02-20T14:20:41Z</time>
      </trkpt>
      <trkpt lat="45.16544" lon="5.95364">
        <ele>2356.1</ele>
        <time>2021-02-20T14:20:42Z</time>
      </trkpt>
      <trkpt lat="45.16543" lon="5.95363">
        <ele>2356.1</ele>
        <time>2021-02-20T14:20:43Z</time>
      </trkpt>
      <trkpt lat="45.16543" lon="5.95361">
        <ele>2356.4</ele>
        <time>2021-02-20T14:20:44Z</time>
      </trkpt>
      <trkpt lat="45.16542" lon="5.9536">
        <ele>2355.2</ele>
        <time>2021-02-20T14:20:45Z</time>
      </trkpt>
      <trkpt lat="45.16542" lon="5.95359">
        <ele>2355.2</ele>
        <time>2021-02-20T14:20:46Z</time>
      </trkpt>
      <trkpt lat="45.16542" lon="5.95358">
        <ele>2355.1</ele>
        <time>2021-02-20T14:20:47Z</time>
      </trkpt>
      <trkpt lat="45.16543" lon="5.95356">
        <ele>2353.8</ele>
        <time>2021-02-20T14:20:48Z</time>
      </trkpt>
      <trkpt lat="45.16543" lon="5.95354">
        <ele>2353.4</ele>
        <time>2021-02-20T14:20:49Z</time>
      </trkpt>
      <trkpt lat="45.16545" lon="5.95351">
        <ele>2351.9</ele>
        <time>2021-02-20T14:20:50Z</time>
      </trkpt>
      <trkpt lat="45.16546" lon="5.95349">
        <ele>2351.9</ele>
        <time>2021-02-20T14:20:51Z</time>
      </trkpt>
      <trkpt lat="45.16547" lon="5.95344">
        <ele>2349.9</ele>
        <time>2021-02-20T14:20:52Z</time>
      </trkpt>
      <trkpt lat="45.16548" lon="5.95343">
        <ele>2348.4</ele>
        <time>2021-02-20T14:20:53Z</time>
      </trkpt>
      <trkpt lat="45.16549" lon="5.95341">
        <ele>2347.9</ele>
        <time>2021-02-20T14:20:54Z</time>
      </trkpt>
      <trkpt lat="45.1655" lon="5.95339">
        <ele>2347.8</ele>
        <time>2021-02-20T14:20:55Z</time>
      </trkpt>
      <trkpt lat="45.16552" lon="5.95339">
        <ele>2345.7</ele>
        <time>2021-02-20T14:20:56Z</time>
      </trkpt>
      <trkpt lat="45.16553" lon="5.95339">
        <ele>2345.7</ele>
        <time>2021-02-20T14:20:57Z</time>
      </trkpt>
      <trkpt lat="45.16555" lon="5.95338">
        <ele>2345.7</ele>
        <time>2021-02-20T14:20:58Z</time>
      </trkpt>
      <trkpt lat="45.16558" lon="5.95338">
        <ele>2345.1</ele>
        <time>2021-02-20T14:20:59Z</time>
      </trkpt>
      <trkpt lat="45.16561" lon="5.95338">
        <ele>2344</ele>
        <time>2021-02-20T14:21:00Z</time>
      </trkpt>
      <trkpt lat="45.16566" lon="5.95338">
        <ele>2343.5</ele>
        <time>2021-02-20T14:21:01Z</time>
      </trkpt>
      <trkpt lat="45.1657" lon="5.95338">
        <ele>2343.1</ele>
        <time>2021-02-20T14:21:02Z</time>
      </trkpt>
      <trkpt lat="45.16573" lon="5.95338">
        <ele>2342.5</ele>
        <time>2021-02-20T14:21:03Z</time>
      </trkpt>
      <trkpt lat="45.16576" lon="5.95338">
        <ele>2342.5</ele>
        <time>2021-02-20T14:21:04Z</time>
      </trkpt>
      <trkpt lat="45.1658" lon="5.95338">
        <ele>2341.9</ele>
        <time>2021-02-20T14:21:05Z</time>
      </trkpt>
      <trkpt lat="45.16581" lon="5.95338">
        <ele>2341.9</ele>
        <time>2021-02-20T14:21:06Z</time>
      </trkpt>
      <trkpt lat="45.16585" lon="5.95337">
        <ele>2341.7</ele>
        <time>2021-02-20T14:21:07Z</time>
      </trkpt>
      <trkpt lat="45.16586" lon="5.95337">
        <ele>2341.4</ele>
        <time>2021-02-20T14:21:08Z</time>
      </trkpt>
      <trkpt lat="45.1659" lon="5.95337">
        <ele>2341.3</ele>
        <time>2021-02-20T14:21:09Z</time>
      </trkpt>
      <trkpt lat="45.16591" lon="5.95336">
        <ele>2341.1</ele>
        <time>2021-02-20T14:21:10Z</time>
      </trkpt>
      <trkpt lat="45.16595" lon="5.95337">
        <ele>2341</ele>
        <time>2021-02-20T14:21:11Z</time>
      </trkpt>
      <trkpt lat="45.16596" lon="5.95337">
        <ele>2341</ele>
        <time>2021-02-20T14:21:12Z</time>
      </trkpt>
      <trkpt lat="45.166" lon="5.95338">
        <ele>2340.9</ele>
        <time>2021-02-20T14:21:13Z</time>
      </trkpt>
      <trkpt lat="45.16601" lon="5.95339">
        <ele>2340.8</ele>
        <time>2021-02-20T14:21:14Z</time>
      </trkpt>
      <trkpt lat="45.16604" lon="5.95339">
        <ele>2342.7</ele>
        <time>2021-02-20T14:21:15Z</time>
      </trkpt>
      <trkpt lat="45.16607" lon="5.95339">
        <ele>2342.6</ele>
        <time>2021-02-20T14:21:16Z</time>
      </trkpt>
      <trkpt lat="45.16612" lon="5.9534">
        <ele>2342.5</ele>
        <time>2021-02-20T14:21:17Z</time>
      </trkpt>
      <trkpt lat="45.16617" lon="5.95339">
        <ele>2342.4</ele>
        <time>2021-02-20T14:21:18Z</time>
      </trkpt>
      <trkpt lat="45.1662" lon="5.95339">
        <ele>2340.2</ele>
        <time>2021-02-20T14:21:19Z</time>
      </trkpt>
      <trkpt lat="45.16624" lon="5.95337">
        <ele>2340.2</ele>
        <time>2021-02-20T14:21:20Z</time>
      </trkpt>
      <trkpt lat="45.16625" lon="5.95336">
        <ele>2340.2</ele>
        <time>2021-02-20T14:21:21Z</time>
      </trkpt>
      <trkpt lat="45.16628" lon="5.95333">
        <ele>2338.2</ele>
        <time>2021-02-20T14:21:22Z</time>
      </trkpt>
      <trkpt lat="45.16631" lon="5.95331">
        <ele>2338.3</ele>
        <time>2021-02-20T14:21:23Z</time>
      </trkpt>
      <trkpt lat="45.16635" lon="5.95328">
        <ele>2336.4</ele>
        <time>2021-02-20T14:21:24Z</time>
      </trkpt>
      <trkpt lat="45.16638" lon="5.95326">
        <ele>2334.7</ele>
        <time>2021-02-20T14:21:25Z</time>
      </trkpt>
      <trkpt lat="45.16642" lon="5.95323">
        <ele>2334.9</ele>
        <time>2021-02-20T14:21:26Z</time>
      </trkpt>
      <trkpt lat="45.16646" lon="5.95321">
        <ele>2333.2</ele>
        <time>2021-02-20T14:21:27Z</time>
      </trkpt>
      <trkpt lat="45.1665" lon="5.95319">
        <ele>2333.6</ele>
        <time>2021-02-20T14:21:28Z</time>
      </trkpt>
      <trkpt lat="45.16654" lon="5.95317">
        <ele>2331.9</ele>
        <time>2021-02-20T14:21:29Z</time>
      </trkpt>
      <trkpt lat="45.16657" lon="5.95316">
        <ele>2332.3</ele>
        <time>2021-02-20T14:21:30Z</time>
      </trkpt>
      <trkpt lat="45.1666" lon="5.95314">
        <ele>2332.5</ele>
        <time>2021-02-20T14:21:31Z</time>
      </trkpt>
      <trkpt lat="45.16661" lon="5.95314">
        <ele>2332.9</ele>
        <time>2021-02-20T14:21:32Z</time>
      </trkpt>
      <trkpt lat="45.16664" lon="5.95312">
        <ele>2331.5</ele>
        <time>2021-02-20T14:21:33Z</time>
      </trkpt>
      <trkpt lat="45.16667" lon="5.95309">
        <ele>2329.6</ele>
        <time>2021-02-20T14:21:34Z</time>
      </trkpt>
      <trkpt lat="45.16669" lon="5.95306">
        <ele>2330.1</ele>
        <time>2021-02-20T14:21:35Z</time>
      </trkpt>
      <trkpt lat="45.16671" lon="5.95301">
        <ele>2328.7</ele>
        <time>2021-02-20T14:21:36Z</time>
      </trkpt>
      <trkpt lat="45.16676" lon="5.953">
        <ele>2327.4</ele>
        <time>2021-02-20T14:21:37Z</time>
      </trkpt>
      <trkpt lat="45.16679" lon="5.95297">
        <ele>2327.9</ele>
        <time>2021-02-20T14:21:38Z</time>
      </trkpt>
      <trkpt lat="45.1668" lon="5.95294">
        <ele>2326.9</ele>
        <time>2021-02-20T14:21:39Z</time>
      </trkpt>
      <trkpt lat="45.16682" lon="5.9529">
        <ele>2326</ele>
        <time>2021-02-20T14:21:40Z</time>
      </trkpt>
      <trkpt lat="45.16684" lon="5.95285">
        <ele>2324.6</ele>
        <time>2021-02-20T14:21:41Z</time>
      </trkpt>
      <trkpt lat="45.16687" lon="5.95281">
        <ele>2324</ele>
        <time>2021-02-20T14:21:42Z</time>
      </trkpt>
      <trkpt lat="45.16687" lon="5.95276">
        <ele>2322.7</ele>
        <time>2021-02-20T14:21:43Z</time>
      </trkpt>
      <trkpt lat="45.16688" lon="5.95275">
        <ele>2322.7</ele>
        <time>2021-02-20T14:21:44Z</time>
      </trkpt>
      <trkpt lat="45.1669" lon="5.95273">
        <ele>2322.3</ele>
        <time>2021-02-20T14:21:45Z</time>
      </trkpt>
      <trkpt lat="45.16691" lon="5.95269">
        <ele>2322.1</ele>
        <time>2021-02-20T14:21:46Z</time>
      </trkpt>
      <trkpt lat="45.16692" lon="5.95267">
        <ele>2322</ele>
        <time>2021-02-20T14:21:47Z</time>
      </trkpt>
      <trkpt lat="45.16694" lon="5.95261">
        <ele>2320.6</ele>
        <time>2021-02-20T14:21:48Z</time>
      </trkpt>
      <trkpt lat="45.16698" lon="5.95253">
        <ele>2320.5</ele>
        <time>2021-02-20T14:21:49Z</time>
      </trkpt>
      <trkpt lat="45.16701" lon="5.95248">
        <ele>2319.5</ele>
        <time>2021-02-20T14:21:50Z</time>
      </trkpt>
      <trkpt lat="45.16705" lon="5.95242">
        <ele>2319.6</ele>
        <time>2021-02-20T14:21:51Z</time>
      </trkpt>
      <trkpt lat="45.16705" lon="5.95237">
        <ele>2318.8</ele>
        <time>2021-02-20T14:21:52Z</time>
      </trkpt>
      <trkpt lat="45.16708" lon="5.95229">
        <ele>2318.3</ele>
        <time>2021-02-20T14:21:53Z</time>
      </trkpt>
      <trkpt lat="45.16712" lon="5.95227">
        <ele>2318.8</ele>
        <time>2021-02-20T14:21:54Z</time>
      </trkpt>
      <trkpt lat="45.16712" lon="5.9522">
        <ele>2318</ele>
        <time>2021-02-20T14:21:55Z</time>
      </trkpt>
      <trkpt lat="45.16713" lon="5.95216">
        <ele>2318.6</ele>
        <time>2021-02-20T14:21:56Z</time>
      </trkpt>
      <trkpt lat="45.16713" lon="5.95211">
        <ele>2317.9</ele>
        <time>2021-02-20T14:21:57Z</time>
      </trkpt>
      <trkpt lat="45.16715" lon="5.95207">
        <ele>2317.3</ele>
        <time>2021-02-20T14:21:58Z</time>
      </trkpt>
      <trkpt lat="45.16715" lon="5.95205">
        <ele>2316.8</ele>
        <time>2021-02-20T14:21:59Z</time>
      </trkpt>
      <trkpt lat="45.16718" lon="5.95202">
        <ele>2318.1</ele>
        <time>2021-02-20T14:22:00Z</time>
      </trkpt>
      <trkpt lat="45.16718" lon="5.952">
        <ele>2319.2</ele>
        <time>2021-02-20T14:22:01Z</time>
      </trkpt>
      <trkpt lat="45.16718" lon="5.95193">
        <ele>2318.5</ele>
        <time>2021-02-20T14:22:02Z</time>
      </trkpt>
      <trkpt lat="45.1672" lon="5.95187">
        <ele>2318.2</ele>
        <time>2021-02-20T14:22:03Z</time>
      </trkpt>
      <trkpt lat="45.16721" lon="5.95183">
        <ele>2318</ele>
        <time>2021-02-20T14:22:04Z</time>
      </trkpt>
      <trkpt lat="45.16722" lon="5.95179">
        <ele>2319.5</ele>
        <time>2021-02-20T14:22:05Z</time>
      </trkpt>
      <trkpt lat="45.16726" lon="5.95172">
        <ele>2321.2</ele>
        <time>2021-02-20T14:22:06Z</time>
      </trkpt>
      <trkpt lat="45.16729" lon="5.95165">
        <ele>2322.9</ele>
        <time>2021-02-20T14:22:07Z</time>
      </trkpt>
      <trkpt lat="45.16732" lon="5.95158">
        <ele>2324.9</ele>
        <time>2021-02-20T14:22:08Z</time>
      </trkpt>
      <trkpt lat="45.16734" lon="5.95148">
        <ele>2326.9</ele>
        <time>2021-02-20T14:22:09Z</time>
      </trkpt>
      <trkpt lat="45.16736" lon="5.95141">
        <ele>2327.4</ele>
        <time>2021-02-20T14:22:10Z</time>
      </trkpt>
      <trkpt lat="45.16736" lon="5.95134">
        <ele>2327.6</ele>
        <time>2021-02-20T14:22:11Z</time>
      </trkpt>
      <trkpt lat="45.16735" lon="5.95126">
        <ele>2328.2</ele>
        <time>2021-02-20T14:22:12Z</time>
      </trkpt>
      <trkpt lat="45.16734" lon="5.95118">
        <ele>2329</ele>
        <time>2021-02-20T14:22:13Z</time>
      </trkpt>
      <trkpt lat="45.16734" lon="5.95111">
        <ele>2329.9</ele>
        <time>2021-02-20T14:22:14Z</time>
      </trkpt>
      <trkpt lat="45.16729" lon="5.95104">
        <ele>2326.1</ele>
        <time>2021-02-20T14:22:15Z</time>
      </trkpt>
      <trkpt lat="45.16725" lon="5.951">
        <ele>2324.3</ele>
        <time>2021-02-20T14:22:16Z</time>
      </trkpt>
      <trkpt lat="45.16725" lon="5.95097">
        <ele>2324.8</ele>
        <time>2021-02-20T14:22:17Z</time>
      </trkpt>
      <trkpt lat="45.16726" lon="5.95096">
        <ele>2324.8</ele>
        <time>2021-02-20T14:22:18Z</time>
      </trkpt>
      <trkpt lat="45.16727" lon="5.95092">
        <ele>2325.3</ele>
        <time>2021-02-20T14:22:19Z</time>
      </trkpt>
      <trkpt lat="45.16727" lon="5.95091">
        <ele>2325.3</ele>
        <time>2021-02-20T14:22:20Z</time>
      </trkpt>
      <trkpt lat="45.16727" lon="5.95091">
        <ele>2325.3</ele>
        <time>2021-02-20T14:22:21Z</time>
      </trkpt>
      <trkpt lat="45.16727" lon="5.95088">
        <ele>2325.9</ele>
        <time>2021-02-20T14:22:22Z</time>
      </trkpt>
      <trkpt lat="45.16727" lon="5.95086">
        <ele>2326.6</ele>
        <time>2021-02-20T14:22:23Z</time>
      </trkpt>
      <trkpt lat="45.16727" lon="5.95079">
        <ele>2327.3</ele>
        <time>2021-02-20T14:22:24Z</time>
      </trkpt>
      <trkpt lat="45.16728" lon="5.95074">
        <ele>2330.4</ele>
        <time>2021-02-20T14:22:25Z</time>
      </trkpt>
      <trkpt lat="45.16726" lon="5.95073">
        <ele>2328.9</ele>
        <time>2021-02-20T14:22:26Z</time>
      </trkpt>
      <trkpt lat="45.16726" lon="5.95071">
        <ele>2328.9</ele>
        <time>2021-02-20T14:22:27Z</time>
      </trkpt>
      <trkpt lat="45.16724" lon="5.95068">
        <ele>2327.4</ele>
        <time>2021-02-20T14:22:28Z</time>
      </trkpt>
      <trkpt lat="45.16723" lon="5.95068">
        <ele>2327.4</ele>
        <time>2021-02-20T14:22:29Z</time>
      </trkpt>
      <trkpt lat="45.1672" lon="5.95066">
        <ele>2325.1</ele>
        <time>2021-02-20T14:22:30Z</time>
      </trkpt>
      <trkpt lat="45.16717" lon="5.95063">
        <ele>2323.8</ele>
        <time>2021-02-20T14:22:31Z</time>
      </trkpt>
      <trkpt lat="45.16714" lon="5.95059">
        <ele>2322.7</ele>
        <time>2021-02-20T14:22:32Z</time>
      </trkpt>
      <trkpt lat="45.1671" lon="5.95054">
        <ele>2321.7</ele>
        <time>2021-02-20T14:22:33Z</time>
      </trkpt>
      <trkpt lat="45.16707" lon="5.9505">
        <ele>2320.8</ele>
        <time>2021-02-20T14:22:34Z</time>
      </trkpt>
      <trkpt lat="45.16704" lon="5.95046">
        <ele>2319.9</ele>
        <time>2021-02-20T14:22:35Z</time>
      </trkpt>
      <trkpt lat="45.16698" lon="5.95039">
        <ele>2317.3</ele>
        <time>2021-02-20T14:22:36Z</time>
      </trkpt>
      <trkpt lat="45.16697" lon="5.95034">
        <ele>2316.3</ele>
        <time>2021-02-20T14:22:37Z</time>
      </trkpt>
      <trkpt lat="45.16694" lon="5.9503">
        <ele>2317.2</ele>
        <time>2021-02-20T14:22:38Z</time>
      </trkpt>
      <trkpt lat="45.16691" lon="5.95026">
        <ele>2316</ele>
        <time>2021-02-20T14:22:39Z</time>
      </trkpt>
      <trkpt lat="45.16688" lon="5.9502">
        <ele>2315.3</ele>
        <time>2021-02-20T14:22:40Z</time>
      </trkpt>
      <trkpt lat="45.16686" lon="5.95016">
        <ele>2313.9</ele>
        <time>2021-02-20T14:22:41Z</time>
      </trkpt>
      <trkpt lat="45.16685" lon="5.95014">
        <ele>2311.9</ele>
        <time>2021-02-20T14:22:42Z</time>
      </trkpt>
      <trkpt lat="45.16683" lon="5.95009">
        <ele>2312.4</ele>
        <time>2021-02-20T14:22:43Z</time>
      </trkpt>
      <trkpt lat="45.16683" lon="5.95008">
        <ele>2312.8</ele>
        <time>2021-02-20T14:22:44Z</time>
      </trkpt>
      <trkpt lat="45.16682" lon="5.95007">
        <ele>2312.8</ele>
        <time>2021-02-20T14:22:45Z</time>
      </trkpt>
      <trkpt lat="45.16682" lon="5.95006">
        <ele>2310.9</ele>
        <time>2021-02-20T14:22:46Z</time>
      </trkpt>
      <trkpt lat="45.16682" lon="5.95005">
        <ele>2310.9</ele>
        <time>2021-02-20T14:22:47Z</time>
      </trkpt>
      <trkpt lat="45.16681" lon="5.95005">
        <ele>2310.9</ele>
        <time>2021-02-20T14:22:48Z</time>
      </trkpt>
      <trkpt lat="45.16681" lon="5.95004">
        <ele>2311.2</ele>
        <time>2021-02-20T14:22:49Z</time>
      </trkpt>
      <trkpt lat="45.16681" lon="5.95003">
        <ele>2311.2</ele>
        <time>2021-02-20T14:22:50Z</time>
      </trkpt>
      <trkpt lat="45.1668" lon="5.95003">
        <ele>2311.2</ele>
        <time>2021-02-20T14:22:51Z</time>
      </trkpt>
      <trkpt lat="45.16679" lon="5.95">
        <ele>2309.3</ele>
        <time>2021-02-20T14:22:52Z</time>
      </trkpt>
      <trkpt lat="45.16679" lon="5.95">
        <ele>2309.6</ele>
        <time>2021-02-20T14:22:53Z</time>
      </trkpt>
      <trkpt lat="45.16679" lon="5.94999">
        <ele>2309.6</ele>
        <time>2021-02-20T14:22:54Z</time>
      </trkpt>
      <trkpt lat="45.16679" lon="5.94999">
        <ele>2309.6</ele>
        <time>2021-02-20T14:22:55Z</time>
      </trkpt>
      <trkpt lat="45.16679" lon="5.94998">
        <ele>2309.6</ele>
        <time>2021-02-20T14:22:56Z</time>
      </trkpt>
      <trkpt lat="45.16679" lon="5.94998">
        <ele>2309.6</ele>
        <time>2021-02-20T14:22:57Z</time>
      </trkpt>
      <trkpt lat="45.16679" lon="5.94997">
        <ele>2309.6</ele>
        <time>2021-02-20T14:22:58Z</time>
      </trkpt>
      <trkpt lat="45.16679" lon="5.94997">
        <ele>2309.5</ele>
        <time>2021-02-20T14:22:59Z</time>
      </trkpt>
      <trkpt lat="45.16677" lon="5.94993">
        <ele>2309.8</ele>
        <time>2021-02-20T14:23:00Z</time>
      </trkpt>
      <trkpt lat="45.16674" lon="5.94989">
        <ele>2308</ele>
        <time>2021-02-20T14:23:01Z</time>
      </trkpt>
      <trkpt lat="45.16672" lon="5.94986">
        <ele>2305.9</ele>
        <time>2021-02-20T14:23:02Z</time>
      </trkpt>
      <trkpt lat="45.16669" lon="5.94983">
        <ele>2303.6</ele>
        <time>2021-02-20T14:23:03Z</time>
      </trkpt>
      <trkpt lat="45.16666" lon="5.9498">
        <ele>2301.2</ele>
        <time>2021-02-20T14:23:04Z</time>
      </trkpt>
      <trkpt lat="45.16662" lon="5.94975">
        <ele>2298.8</ele>
        <time>2021-02-20T14:23:05Z</time>
      </trkpt>
      <trkpt lat="45.16656" lon="5.9497">
        <ele>2294.2</ele>
        <time>2021-02-20T14:23:06Z</time>
      </trkpt>
      <trkpt lat="45.16653" lon="5.94966">
        <ele>2291.2</ele>
        <time>2021-02-20T14:23:07Z</time>
      </trkpt>
      <trkpt lat="45.1665" lon="5.94963">
        <ele>2289.1</ele>
        <time>2021-02-20T14:23:08Z</time>
      </trkpt>
      <trkpt lat="45.16646" lon="5.94961">
        <ele>2287</ele>
        <time>2021-02-20T14:23:09Z</time>
      </trkpt>
      <trkpt lat="45.16644" lon="5.94959">
        <ele>2285.1</ele>
        <time>2021-02-20T14:23:10Z</time>
      </trkpt>
      <trkpt lat="45.16641" lon="5.94957">
        <ele>2283.1</ele>
        <time>2021-02-20T14:23:11Z</time>
      </trkpt>
      <trkpt lat="45.1664" lon="5.94956">
        <ele>2282.9</ele>
        <time>2021-02-20T14:23:12Z</time>
      </trkpt>
      <trkpt lat="45.16636" lon="5.94953">
        <ele>2279.3</ele>
        <time>2021-02-20T14:23:13Z</time>
      </trkpt>
      <trkpt lat="45.16634" lon="5.9495">
        <ele>2279</ele>
        <time>2021-02-20T14:23:14Z</time>
      </trkpt>
      <trkpt lat="45.16633" lon="5.94949">
        <ele>2277.4</ele>
        <time>2021-02-20T14:23:15Z</time>
      </trkpt>
      <trkpt lat="45.1663" lon="5.94946">
        <ele>2275.6</ele>
        <time>2021-02-20T14:23:16Z</time>
      </trkpt>
      <trkpt lat="45.16629" lon="5.94946">
        <ele>2275.6</ele>
        <time>2021-02-20T14:23:17Z</time>
      </trkpt>
      <trkpt lat="45.16625" lon="5.94944">
        <ele>2273.8</ele>
        <time>2021-02-20T14:23:18Z</time>
      </trkpt>
      <trkpt lat="45.16623" lon="5.94942">
        <ele>2272.5</ele>
        <time>2021-02-20T14:23:19Z</time>
      </trkpt>
      <trkpt lat="45.1662" lon="5.94941">
        <ele>2271.2</ele>
        <time>2021-02-20T14:23:20Z</time>
      </trkpt>
      <trkpt lat="45.16616" lon="5.94939">
        <ele>2269.5</ele>
        <time>2021-02-20T14:23:21Z</time>
      </trkpt>
      <trkpt lat="45.16613" lon="5.94936">
        <ele>2268.4</ele>
        <time>2021-02-20T14:23:22Z</time>
      </trkpt>
      <trkpt lat="45.16609" lon="5.94933">
        <ele>2265.9</ele>
        <time>2021-02-20T14:23:23Z</time>
      </trkpt>
      <trkpt lat="45.16607" lon="5.94929">
        <ele>2265.4</ele>
        <time>2021-02-20T14:23:24Z</time>
      </trkpt>
      <trkpt lat="45.16604" lon="5.94925">
        <ele>2264</ele>
        <time>2021-02-20T14:23:25Z</time>
      </trkpt>
      <trkpt lat="45.16602" lon="5.94919">
        <ele>2262.6</ele>
        <time>2021-02-20T14:23:26Z</time>
      </trkpt>
      <trkpt lat="45.16601" lon="5.94912">
        <ele>2261.5</ele>
        <time>2021-02-20T14:23:27Z</time>
      </trkpt>
      <trkpt lat="45.16597" lon="5.94909">
        <ele>2259</ele>
        <time>2021-02-20T14:23:28Z</time>
      </trkpt>
      <trkpt lat="45.16593" lon="5.94904">
        <ele>2257.4</ele>
        <time>2021-02-20T14:23:29Z</time>
      </trkpt>
      <trkpt lat="45.1659" lon="5.94899">
        <ele>2255.6</ele>
        <time>2021-02-20T14:23:30Z</time>
      </trkpt>
      <trkpt lat="45.16594" lon="5.94895">
        <ele>2256.7</ele>
        <time>2021-02-20T14:23:31Z</time>
      </trkpt>
      <trkpt lat="45.16597" lon="5.94893">
        <ele>2257.7</ele>
        <time>2021-02-20T14:23:32Z</time>
      </trkpt>
      <trkpt lat="45.166" lon="5.94893">
        <ele>2257.7</ele>
        <time>2021-02-20T14:23:33Z</time>
      </trkpt>
      <trkpt lat="45.16599" lon="5.94895">
        <ele>2257.7</ele>
        <time>2021-02-20T14:23:34Z</time>
      </trkpt>
      <trkpt lat="45.16601" lon="5.94893">
        <ele>2258.8</ele>
        <time>2021-02-20T14:23:35Z</time>
      </trkpt>
      <trkpt lat="45.16601" lon="5.94892">
        <ele>2258.1</ele>
        <time>2021-02-20T14:23:36Z</time>
      </trkpt>
      <trkpt lat="45.16601" lon="5.94891">
        <ele>2258</ele>
        <time>2021-02-20T14:23:37Z</time>
      </trkpt>
      <trkpt lat="45.16601" lon="5.9489">
        <ele>2258</ele>
        <time>2021-02-20T14:23:38Z</time>
      </trkpt>
      <trkpt lat="45.16602" lon="5.94889">
        <ele>2258</ele>
        <time>2021-02-20T14:23:39Z</time>
      </trkpt>
      <trkpt lat="45.16602" lon="5.94888">
        <ele>2257.3</ele>
        <time>2021-02-20T14:23:40Z</time>
      </trkpt>
      <trkpt lat="45.16602" lon="5.94887">
        <ele>2257.3</ele>
        <time>2021-02-20T14:23:41Z</time>
      </trkpt>
      <trkpt lat="45.16602" lon="5.94886">
        <ele>2257.3</ele>
        <time>2021-02-20T14:23:42Z</time>
      </trkpt>
      <trkpt lat="45.16602" lon="5.94885">
        <ele>2257.2</ele>
        <time>2021-02-20T14:23:43Z</time>
      </trkpt>
      <trkpt lat="45.16603" lon="5.94884">
        <ele>2256.5</ele>
        <time>2021-02-20T14:23:44Z</time>
      </trkpt>
      <trkpt lat="45.16603" lon="5.94883">
        <ele>2256.5</ele>
        <time>2021-02-20T14:23:45Z</time>
      </trkpt>
      <trkpt lat="45.16603" lon="5.94876">
        <ele>2255.8</ele>
        <time>2021-02-20T14:23:46Z</time>
      </trkpt>
      <trkpt lat="45.16603" lon="5.94871">
        <ele>2254.5</ele>
        <time>2021-02-20T14:23:47Z</time>
      </trkpt>
      <trkpt lat="45.16605" lon="5.94867">
        <ele>2255.1</ele>
        <time>2021-02-20T14:23:48Z</time>
      </trkpt>
      <trkpt lat="45.16607" lon="5.94862">
        <ele>2255.7</ele>
        <time>2021-02-20T14:23:49Z</time>
      </trkpt>
      <trkpt lat="45.16607" lon="5.9486">
        <ele>2255.7</ele>
        <time>2021-02-20T14:23:50Z</time>
      </trkpt>
      <trkpt lat="45.16609" lon="5.94857">
        <ele>2255</ele>
        <time>2021-02-20T14:23:51Z</time>
      </trkpt>
      <trkpt lat="45.16609" lon="5.94856">
        <ele>2255</ele>
        <time>2021-02-20T14:23:52Z</time>
      </trkpt>
      <trkpt lat="45.16608" lon="5.94856">
        <ele>2255</ele>
        <time>2021-02-20T14:23:53Z</time>
      </trkpt>
      <trkpt lat="45.16608" lon="5.94856">
        <ele>2254.9</ele>
        <time>2021-02-20T14:23:54Z</time>
      </trkpt>
      <trkpt lat="45.16608" lon="5.94856">
        <ele>2254.9</ele>
        <time>2021-02-20T14:23:55Z</time>
      </trkpt>
      <trkpt lat="45.16608" lon="5.94856">
        <ele>2254.9</ele>
        <time>2021-02-20T14:23:56Z</time>
      </trkpt>
      <trkpt lat="45.16608" lon="5.94856">
        <ele>2254.9</ele>
        <time>2021-02-20T14:23:57Z</time>
      </trkpt>
      <trkpt lat="45.16608" lon="5.94857">
        <ele>2254.9</ele>
        <time>2021-02-20T14:23:58Z</time>
      </trkpt>
      <trkpt lat="45.16608" lon="5.94856">
        <ele>2254.9</ele>
        <time>2021-02-20T14:23:59Z</time>
      </trkpt>
      <trkpt lat="45.1661" lon="5.94854">
        <ele>2255.6</ele>
        <time>2021-02-20T14:24:00Z</time>
      </trkpt>
      <trkpt lat="45.16611" lon="5.94851">
        <ele>2255.6</ele>
        <time>2021-02-20T14:24:01Z</time>
      </trkpt>
      <trkpt lat="45.16612" lon="5.94847">
        <ele>2254.9</ele>
        <time>2021-02-20T14:24:02Z</time>
      </trkpt>
      <trkpt lat="45.16614" lon="5.94842">
        <ele>2255.7</ele>
        <time>2021-02-20T14:24:03Z</time>
      </trkpt>
      <trkpt lat="45.16615" lon="5.94835">
        <ele>2254.6</ele>
        <time>2021-02-20T14:24:04Z</time>
      </trkpt>
      <trkpt lat="45.16616" lon="5.94809">
        <ele>2252.9</ele>
        <time>2021-02-20T14:24:05Z</time>
      </trkpt>
      <trkpt lat="45.16617" lon="5.94807">
        <ele>2252.9</ele>
        <time>2021-02-20T14:24:06Z</time>
      </trkpt>
      <trkpt lat="45.16616" lon="5.94801">
        <ele>2251.8</ele>
        <time>2021-02-20T14:24:07Z</time>
      </trkpt>
      <trkpt lat="45.16616" lon="5.94791">
        <ele>2250.7</ele>
        <time>2021-02-20T14:24:08Z</time>
      </trkpt>
      <trkpt lat="45.16615" lon="5.94782">
        <ele>2248.5</ele>
        <time>2021-02-20T14:24:09Z</time>
      </trkpt>
      <trkpt lat="45.16616" lon="5.94772">
        <ele>2248.6</ele>
        <time>2021-02-20T14:24:10Z</time>
      </trkpt>
      <trkpt lat="45.16614" lon="5.94761">
        <ele>2246.7</ele>
        <time>2021-02-20T14:24:11Z</time>
      </trkpt>
      <trkpt lat="45.16614" lon="5.9475">
        <ele>2246.3</ele>
        <time>2021-02-20T14:24:12Z</time>
      </trkpt>
      <trkpt lat="45.16615" lon="5.94759">
        <ele>2247.7</ele>
        <time>2021-02-20T14:24:13Z</time>
      </trkpt>
      <trkpt lat="45.16614" lon="5.9475">
        <ele>2246.3</ele>
        <time>2021-02-20T14:24:14Z</time>
      </trkpt>
      <trkpt lat="45.16611" lon="5.94742">
        <ele>2245</ele>
        <time>2021-02-20T14:24:15Z</time>
      </trkpt>
      <trkpt lat="45.16608" lon="5.94734">
        <ele>2243.9</ele>
        <time>2021-02-20T14:24:16Z</time>
      </trkpt>
      <trkpt lat="45.16605" lon="5.94729">
        <ele>2242.8</ele>
        <time>2021-02-20T14:24:17Z</time>
      </trkpt>
      <trkpt lat="45.16604" lon="5.94725">
        <ele>2242.8</ele>
        <time>2021-02-20T14:24:18Z</time>
      </trkpt>
      <trkpt lat="45.16599" lon="5.94719">
        <ele>2240.7</ele>
        <time>2021-02-20T14:24:19Z</time>
      </trkpt>
      <trkpt lat="45.16598" lon="5.94717">
        <ele>2240.7</ele>
        <time>2021-02-20T14:24:20Z</time>
      </trkpt>
      <trkpt lat="45.16597" lon="5.94715">
        <ele>2239.6</ele>
        <time>2021-02-20T14:24:21Z</time>
      </trkpt>
      <trkpt lat="45.16595" lon="5.94715">
        <ele>2239.6</ele>
        <time>2021-02-20T14:24:22Z</time>
      </trkpt>
      <trkpt lat="45.16594" lon="5.94717">
        <ele>2238.5</ele>
        <time>2021-02-20T14:24:23Z</time>
      </trkpt>
      <trkpt lat="45.1659" lon="5.94715">
        <ele>2237.4</ele>
        <time>2021-02-20T14:24:24Z</time>
      </trkpt>
      <trkpt lat="45.16587" lon="5.94713">
        <ele>2236.2</ele>
        <time>2021-02-20T14:24:25Z</time>
      </trkpt>
      <trkpt lat="45.16586" lon="5.94711">
        <ele>2236.2</ele>
        <time>2021-02-20T14:24:26Z</time>
      </trkpt>
      <trkpt lat="45.16583" lon="5.94709">
        <ele>2234.9</ele>
        <time>2021-02-20T14:24:27Z</time>
      </trkpt>
      <trkpt lat="45.16581" lon="5.94704">
        <ele>2233.6</ele>
        <time>2021-02-20T14:24:28Z</time>
      </trkpt>
      <trkpt lat="45.1658" lon="5.94702">
        <ele>2233.7</ele>
        <time>2021-02-20T14:24:29Z</time>
      </trkpt>
      <trkpt lat="45.16578" lon="5.94698">
        <ele>2232.4</ele>
        <time>2021-02-20T14:24:30Z</time>
      </trkpt>
      <trkpt lat="45.16577" lon="5.94695">
        <ele>2232.4</ele>
        <time>2021-02-20T14:24:31Z</time>
      </trkpt>
      <trkpt lat="45.16576" lon="5.94694">
        <ele>2232.4</ele>
        <time>2021-02-20T14:24:32Z</time>
      </trkpt>
      <trkpt lat="45.16575" lon="5.94692">
        <ele>2231.1</ele>
        <time>2021-02-20T14:24:33Z</time>
      </trkpt>
      <trkpt lat="45.16575" lon="5.9469">
        <ele>2231</ele>
        <time>2021-02-20T14:24:34Z</time>
      </trkpt>
      <trkpt lat="45.16573" lon="5.94687">
        <ele>2231</ele>
        <time>2021-02-20T14:24:35Z</time>
      </trkpt>
      <trkpt lat="45.16573" lon="5.94686">
        <ele>2229.6</ele>
        <time>2021-02-20T14:24:36Z</time>
      </trkpt>
      <trkpt lat="45.16572" lon="5.94685">
        <ele>2229.6</ele>
        <time>2021-02-20T14:24:37Z</time>
      </trkpt>
      <trkpt lat="45.16572" lon="5.94685">
        <ele>2229.6</ele>
        <time>2021-02-20T14:24:38Z</time>
      </trkpt>
      <trkpt lat="45.16571" lon="5.94686">
        <ele>2229.6</ele>
        <time>2021-02-20T14:24:39Z</time>
      </trkpt>
      <trkpt lat="45.16571" lon="5.94686">
        <ele>2229.6</ele>
        <time>2021-02-20T14:24:40Z</time>
      </trkpt>
      <trkpt lat="45.16571" lon="5.94686">
        <ele>2229.6</ele>
        <time>2021-02-20T14:24:41Z</time>
      </trkpt>
      <trkpt lat="45.1657" lon="5.94687">
        <ele>2229.7</ele>
        <time>2021-02-20T14:24:42Z</time>
      </trkpt>
      <trkpt lat="45.1657" lon="5.94687">
        <ele>2229.7</ele>
        <time>2021-02-20T14:24:43Z</time>
      </trkpt>
      <trkpt lat="45.1657" lon="5.94687">
        <ele>2228.4</ele>
        <time>2021-02-20T14:24:44Z</time>
      </trkpt>
      <trkpt lat="45.16569" lon="5.94688">
        <ele>2228.4</ele>
        <time>2021-02-20T14:24:45Z</time>
      </trkpt>
      <trkpt lat="45.16569" lon="5.94688">
        <ele>2228.4</ele>
        <time>2021-02-20T14:24:46Z</time>
      </trkpt>
      <trkpt lat="45.16569" lon="5.94689">
        <ele>2228.4</ele>
        <time>2021-02-20T14:24:47Z</time>
      </trkpt>
      <trkpt lat="45.16568" lon="5.94689">
        <ele>2228.3</ele>
        <time>2021-02-20T14:24:48Z</time>
      </trkpt>
      <trkpt lat="45.16568" lon="5.94689">
        <ele>2228.3</ele>
        <time>2021-02-20T14:24:49Z</time>
      </trkpt>
      <trkpt lat="45.16565" lon="5.94693">
        <ele>2227.1</ele>
        <time>2021-02-20T14:24:50Z</time>
      </trkpt>
      <trkpt lat="45.16563" lon="5.94698">
        <ele>2225.7</ele>
        <time>2021-02-20T14:24:51Z</time>
      </trkpt>
      <trkpt lat="45.16563" lon="5.94702">
        <ele>2225.7</ele>
        <time>2021-02-20T14:24:52Z</time>
      </trkpt>
      <trkpt lat="45.16562" lon="5.94706">
        <ele>2225.6</ele>
        <time>2021-02-20T14:24:53Z</time>
      </trkpt>
      <trkpt lat="45.1656" lon="5.94711">
        <ele>2224.2</ele>
        <time>2021-02-20T14:24:54Z</time>
      </trkpt>
      <trkpt lat="45.16559" lon="5.94712">
        <ele>2224.2</ele>
        <time>2021-02-20T14:24:55Z</time>
      </trkpt>
      <trkpt lat="45.16557" lon="5.94718">
        <ele>2222.8</ele>
        <time>2021-02-20T14:24:56Z</time>
      </trkpt>
      <trkpt lat="45.16556" lon="5.9472">
        <ele>2222.8</ele>
        <time>2021-02-20T14:24:57Z</time>
      </trkpt>
      <trkpt lat="45.16556" lon="5.94725">
        <ele>2222.8</ele>
        <time>2021-02-20T14:24:58Z</time>
      </trkpt>
      <trkpt lat="45.16556" lon="5.94731">
        <ele>2223</ele>
        <time>2021-02-20T14:24:59Z</time>
      </trkpt>
      <trkpt lat="45.16556" lon="5.94735">
        <ele>2223</ele>
        <time>2021-02-20T14:25:00Z</time>
      </trkpt>
      <trkpt lat="45.16555" lon="5.94739">
        <ele>2222</ele>
        <time>2021-02-20T14:25:01Z</time>
      </trkpt>
      <trkpt lat="45.16554" lon="5.9474">
        <ele>2222</ele>
        <time>2021-02-20T14:25:02Z</time>
      </trkpt>
      <trkpt lat="45.1655" lon="5.94741">
        <ele>2220.9</ele>
        <time>2021-02-20T14:25:03Z</time>
      </trkpt>
      <trkpt lat="45.16546" lon="5.94741">
        <ele>2219.9</ele>
        <time>2021-02-20T14:25:04Z</time>
      </trkpt>
      <trkpt lat="45.16544" lon="5.94737">
        <ele>2218.7</ele>
        <time>2021-02-20T14:25:05Z</time>
      </trkpt>
      <trkpt lat="45.16544" lon="5.94735">
        <ele>2218.7</ele>
        <time>2021-02-20T14:25:06Z</time>
      </trkpt>
      <trkpt lat="45.16546" lon="5.9473">
        <ele>2219.5</ele>
        <time>2021-02-20T14:25:07Z</time>
      </trkpt>
      <trkpt lat="45.16547" lon="5.94725">
        <ele>2219.1</ele>
        <time>2021-02-20T14:25:08Z</time>
      </trkpt>
      <trkpt lat="45.16548" lon="5.94717">
        <ele>2218.9</ele>
        <time>2021-02-20T14:25:09Z</time>
      </trkpt>
      <trkpt lat="45.16547" lon="5.94709">
        <ele>2218.6</ele>
        <time>2021-02-20T14:25:10Z</time>
      </trkpt>
      <trkpt lat="45.16547" lon="5.94702">
        <ele>2218.3</ele>
        <time>2021-02-20T14:25:11Z</time>
      </trkpt>
      <trkpt lat="45.16546" lon="5.94695">
        <ele>2218.2</ele>
        <time>2021-02-20T14:25:12Z</time>
      </trkpt>
      <trkpt lat="45.16545" lon="5.94689">
        <ele>2216.5</ele>
        <time>2021-02-20T14:25:13Z</time>
      </trkpt>
      <trkpt lat="45.16542" lon="5.94676">
        <ele>2214.4</ele>
        <time>2021-02-20T14:25:14Z</time>
      </trkpt>
      <trkpt lat="45.16538" lon="5.94673">
        <ele>2212.8</ele>
        <time>2021-02-20T14:25:15Z</time>
      </trkpt>
      <trkpt lat="45.16537" lon="5.94668">
        <ele>2212.4</ele>
        <time>2021-02-20T14:25:16Z</time>
      </trkpt>
      <trkpt lat="45.16535" lon="5.9466">
        <ele>2210.4</ele>
        <time>2021-02-20T14:25:17Z</time>
      </trkpt>
      <trkpt lat="45.16531" lon="5.94652">
        <ele>2208.6</ele>
        <time>2021-02-20T14:25:18Z</time>
      </trkpt>
      <trkpt lat="45.1653" lon="5.9464">
        <ele>2205.9</ele>
        <time>2021-02-20T14:25:19Z</time>
      </trkpt>
      <trkpt lat="45.1653" lon="5.94634">
        <ele>2204.8</ele>
        <time>2021-02-20T14:25:20Z</time>
      </trkpt>
      <trkpt lat="45.16524" lon="5.94628">
        <ele>2201.8</ele>
        <time>2021-02-20T14:25:21Z</time>
      </trkpt>
      <trkpt lat="45.16522" lon="5.94618">
        <ele>2200.4</ele>
        <time>2021-02-20T14:25:22Z</time>
      </trkpt>
      <trkpt lat="45.16524" lon="5.94621">
        <ele>2200.8</ele>
        <time>2021-02-20T14:25:23Z</time>
      </trkpt>
      <trkpt lat="45.16521" lon="5.94617">
        <ele>2199.2</ele>
        <time>2021-02-20T14:25:24Z</time>
      </trkpt>
      <trkpt lat="45.1652" lon="5.94611">
        <ele>2198.8</ele>
        <time>2021-02-20T14:25:25Z</time>
      </trkpt>
      <trkpt lat="45.1652" lon="5.94612">
        <ele>2198.8</ele>
        <time>2021-02-20T14:25:26Z</time>
      </trkpt>
      <trkpt lat="45.16519" lon="5.94607">
        <ele>2198.4</ele>
        <time>2021-02-20T14:25:27Z</time>
      </trkpt>
      <trkpt lat="45.1652" lon="5.94599">
        <ele>2197.5</ele>
        <time>2021-02-20T14:25:28Z</time>
      </trkpt>
      <trkpt lat="45.1652" lon="5.94593">
        <ele>2197</ele>
        <time>2021-02-20T14:25:29Z</time>
      </trkpt>
      <trkpt lat="45.16518" lon="5.94588">
        <ele>2194.6</ele>
        <time>2021-02-20T14:25:30Z</time>
      </trkpt>
      <trkpt lat="45.16517" lon="5.9458">
        <ele>2193.8</ele>
        <time>2021-02-20T14:25:31Z</time>
      </trkpt>
      <trkpt lat="45.1652" lon="5.94589">
        <ele>2196.4</ele>
        <time>2021-02-20T14:25:32Z</time>
      </trkpt>
      <trkpt lat="45.16519" lon="5.94588">
        <ele>2196.4</ele>
        <time>2021-02-20T14:25:33Z</time>
      </trkpt>
      <trkpt lat="45.16519" lon="5.94587">
        <ele>2195.6</ele>
        <time>2021-02-20T14:25:34Z</time>
      </trkpt>
      <trkpt lat="45.16518" lon="5.94587">
        <ele>2194.5</ele>
        <time>2021-02-20T14:25:35Z</time>
      </trkpt>
      <trkpt lat="45.16518" lon="5.94586">
        <ele>2194.5</ele>
        <time>2021-02-20T14:25:36Z</time>
      </trkpt>
      <trkpt lat="45.16517" lon="5.94585">
        <ele>2194.5</ele>
        <time>2021-02-20T14:25:37Z</time>
      </trkpt>
      <trkpt lat="45.16517" lon="5.94585">
        <ele>2194.5</ele>
        <time>2021-02-20T14:25:38Z</time>
      </trkpt>
      <trkpt lat="45.16516" lon="5.94584">
        <ele>2194.5</ele>
        <time>2021-02-20T14:25:39Z</time>
      </trkpt>
      <trkpt lat="45.16513" lon="5.94582">
        <ele>2192.6</ele>
        <time>2021-02-20T14:25:40Z</time>
      </trkpt>
      <trkpt lat="45.1651" lon="5.9458">
        <ele>2191.6</ele>
        <time>2021-02-20T14:25:41Z</time>
      </trkpt>
      <trkpt lat="45.16506" lon="5.94579">
        <ele>2189.5</ele>
        <time>2021-02-20T14:25:42Z</time>
      </trkpt>
      <trkpt lat="45.16499" lon="5.94576">
        <ele>2186.4</ele>
        <time>2021-02-20T14:25:43Z</time>
      </trkpt>
      <trkpt lat="45.16494" lon="5.94571">
        <ele>2184.3</ele>
        <time>2021-02-20T14:25:44Z</time>
      </trkpt>
      <trkpt lat="45.1649" lon="5.94568">
        <ele>2181.1</ele>
        <time>2021-02-20T14:25:45Z</time>
      </trkpt>
      <trkpt lat="45.16486" lon="5.94567">
        <ele>2180.1</ele>
        <time>2021-02-20T14:25:46Z</time>
      </trkpt>
      <trkpt lat="45.16481" lon="5.94564">
        <ele>2177.1</ele>
        <time>2021-02-20T14:25:47Z</time>
      </trkpt>
      <trkpt lat="45.16479" lon="5.94563">
        <ele>2176</ele>
        <time>2021-02-20T14:25:48Z</time>
      </trkpt>
      <trkpt lat="45.16477" lon="5.94562">
        <ele>2176</ele>
        <time>2021-02-20T14:25:49Z</time>
      </trkpt>
      <trkpt lat="45.16477" lon="5.94561">
        <ele>2174.9</ele>
        <time>2021-02-20T14:25:50Z</time>
      </trkpt>
      <trkpt lat="45.16475" lon="5.94563">
        <ele>2174.9</ele>
        <time>2021-02-20T14:25:51Z</time>
      </trkpt>
      <trkpt lat="45.16474" lon="5.94564">
        <ele>2174.9</ele>
        <time>2021-02-20T14:25:52Z</time>
      </trkpt>
      <trkpt lat="45.16473" lon="5.94565">
        <ele>2173.8</ele>
        <time>2021-02-20T14:25:53Z</time>
      </trkpt>
      <trkpt lat="45.16472" lon="5.94567">
        <ele>2174.8</ele>
        <time>2021-02-20T14:25:54Z</time>
      </trkpt>
      <trkpt lat="45.16471" lon="5.94568">
        <ele>2174.8</ele>
        <time>2021-02-20T14:25:55Z</time>
      </trkpt>
      <trkpt lat="45.1647" lon="5.9457">
        <ele>2173.8</ele>
        <time>2021-02-20T14:25:56Z</time>
      </trkpt>
      <trkpt lat="45.16469" lon="5.94571">
        <ele>2174.8</ele>
        <time>2021-02-20T14:25:57Z</time>
      </trkpt>
      <trkpt lat="45.16469" lon="5.94571">
        <ele>2174.7</ele>
        <time>2021-02-20T14:25:58Z</time>
      </trkpt>
      <trkpt lat="45.16467" lon="5.94573">
        <ele>2174.7</ele>
        <time>2021-02-20T14:25:59Z</time>
      </trkpt>
      <trkpt lat="45.16467" lon="5.94573">
        <ele>2174.7</ele>
        <time>2021-02-20T14:26:00Z</time>
      </trkpt>
      <trkpt lat="45.16467" lon="5.94573">
        <ele>2174.7</ele>
        <time>2021-02-20T14:26:01Z</time>
      </trkpt>
      <trkpt lat="45.16467" lon="5.94573">
        <ele>2174.7</ele>
        <time>2021-02-20T14:26:02Z</time>
      </trkpt>
      <trkpt lat="45.16467" lon="5.94573">
        <ele>2174.7</ele>
        <time>2021-02-20T14:26:03Z</time>
      </trkpt>
      <trkpt lat="45.16467" lon="5.94573">
        <ele>2174.7</ele>
        <time>2021-02-20T14:26:04Z</time>
      </trkpt>
      <trkpt lat="45.16467" lon="5.94573">
        <ele>2174.7</ele>
        <time>2021-02-20T14:26:05Z</time>
      </trkpt>
      <trkpt lat="45.16467" lon="5.94573">
        <ele>2174.6</ele>
        <time>2021-02-20T14:26:06Z</time>
      </trkpt>
      <trkpt lat="45.16467" lon="5.94573">
        <ele>2174.6</ele>
        <time>2021-02-20T14:26:07Z</time>
      </trkpt>
      <trkpt lat="45.16467" lon="5.94573">
        <ele>2174.6</ele>
        <time>2021-02-20T14:26:08Z</time>
      </trkpt>
      <trkpt lat="45.16467" lon="5.94573">
        <ele>2174.6</ele>
        <time>2021-02-20T14:26:09Z</time>
      </trkpt>
      <trkpt lat="45.16467" lon="5.94573">
        <ele>2174.6</ele>
        <time>2021-02-20T14:26:10Z</time>
      </trkpt>
      <trkpt lat="45.16467" lon="5.94573">
        <ele>2174.6</ele>
        <time>2021-02-20T14:26:11Z</time>
      </trkpt>
      <trkpt lat="45.16467" lon="5.94573">
        <ele>2174.6</ele>
        <time>2021-02-20T14:26:12Z</time>
      </trkpt>
      <trkpt lat="45.16467" lon="5.94573">
        <ele>2174.6</ele>
        <time>2021-02-20T14:26:13Z</time>
      </trkpt>
      <trkpt lat="45.16467" lon="5.94573">
        <ele>2174.5</ele>
        <time>2021-02-20T14:26:14Z</time>
      </trkpt>
      <trkpt lat="45.16467" lon="5.94573">
        <ele>2174.5</ele>
        <time>2021-02-20T14:26:15Z</time>
      </trkpt>
      <trkpt lat="45.16467" lon="5.94573">
        <ele>2174.5</ele>
        <time>2021-02-20T14:26:16Z</time>
      </trkpt>
      <trkpt lat="45.16467" lon="5.94573">
        <ele>2174.5</ele>
        <time>2021-02-20T14:26:17Z</time>
      </trkpt>
      <trkpt lat="45.16471" lon="5.94569">
        <ele>2174.5</ele>
        <time>2021-02-20T14:26:18Z</time>
      </trkpt>
      <trkpt lat="45.16471" lon="5.94569">
        <ele>2174.5</ele>
        <time>2021-02-20T14:26:19Z</time>
      </trkpt>
      <trkpt lat="45.16471" lon="5.94569">
        <ele>2174.5</ele>
        <time>2021-02-20T14:26:20Z</time>
      </trkpt>
      <trkpt lat="45.16471" lon="5.94569">
        <ele>2174.5</ele>
        <time>2021-02-20T14:26:21Z</time>
      </trkpt>
      <trkpt lat="45.16471" lon="5.94569">
        <ele>2174.5</ele>
        <time>2021-02-20T14:26:22Z</time>
      </trkpt>
      <trkpt lat="45.16471" lon="5.94569">
        <ele>2174.5</ele>
        <time>2021-02-20T14:26:23Z</time>
      </trkpt>
      <trkpt lat="45.1647" lon="5.94569">
        <ele>2174.5</ele>
        <time>2021-02-20T14:26:24Z</time>
      </trkpt>
      <trkpt lat="45.1647" lon="5.94569">
        <ele>2174.4</ele>
        <time>2021-02-20T14:26:25Z</time>
      </trkpt>
      <trkpt lat="45.1647" lon="5.94568">
        <ele>2173.4</ele>
        <time>2021-02-20T14:26:26Z</time>
      </trkpt>
      <trkpt lat="45.1647" lon="5.94568">
        <ele>2173.4</ele>
        <time>2021-02-20T14:26:27Z</time>
      </trkpt>
      <trkpt lat="45.1647" lon="5.94568">
        <ele>2173.4</ele>
        <time>2021-02-20T14:26:28Z</time>
      </trkpt>
      <trkpt lat="45.1647" lon="5.94568">
        <ele>2173.4</ele>
        <time>2021-02-20T14:26:29Z</time>
      </trkpt>
      <trkpt lat="45.1647" lon="5.94568">
        <ele>2173.4</ele>
        <time>2021-02-20T14:26:30Z</time>
      </trkpt>
      <trkpt lat="45.1647" lon="5.94568">
        <ele>2173.3</ele>
        <time>2021-02-20T14:26:31Z</time>
      </trkpt>
      <trkpt lat="45.16469" lon="5.94568">
        <ele>2173.3</ele>
        <time>2021-02-20T14:26:32Z</time>
      </trkpt>
      <trkpt lat="45.16469" lon="5.94568">
        <ele>2173.3</ele>
        <time>2021-02-20T14:26:33Z</time>
      </trkpt>
      <trkpt lat="45.16469" lon="5.94568">
        <ele>2173.3</ele>
        <time>2021-02-20T14:26:34Z</time>
      </trkpt>
      <trkpt lat="45.16469" lon="5.94568">
        <ele>2173.3</ele>
        <time>2021-02-20T14:26:35Z</time>
      </trkpt>
      <trkpt lat="45.16469" lon="5.94568">
        <ele>2173.3</ele>
        <time>2021-02-20T14:26:36Z</time>
      </trkpt>
      <trkpt lat="45.16469" lon="5.94568">
        <ele>2173.3</ele>
        <time>2021-02-20T14:26:37Z</time>
      </trkpt>
      <trkpt lat="45.16469" lon="5.94568">
        <ele>2173.3</ele>
        <time>2021-02-20T14:26:38Z</time>
      </trkpt>
      <trkpt lat="45.16469" lon="5.94567">
        <ele>2173.2</ele>
        <time>2021-02-20T14:26:39Z</time>
      </trkpt>
      <trkpt lat="45.16468" lon="5.94567">
        <ele>2173.2</ele>
        <time>2021-02-20T14:26:40Z</time>
      </trkpt>
      <trkpt lat="45.16468" lon="5.94567">
        <ele>2173.2</ele>
        <time>2021-02-20T14:26:41Z</time>
      </trkpt>
      <trkpt lat="45.16468" lon="5.94567">
        <ele>2173.2</ele>
        <time>2021-02-20T14:26:42Z</time>
      </trkpt>
      <trkpt lat="45.16468" lon="5.94567">
        <ele>2173.2</ele>
        <time>2021-02-20T14:26:43Z</time>
      </trkpt>
      <trkpt lat="45.16468" lon="5.94567">
        <ele>2173.2</ele>
        <time>2021-02-20T14:26:44Z</time>
      </trkpt>
      <trkpt lat="45.16468" lon="5.94567">
        <ele>2173.2</ele>
        <time>2021-02-20T14:26:45Z</time>
      </trkpt>
      <trkpt lat="45.16468" lon="5.94567">
        <ele>2173.2</ele>
        <time>2021-02-20T14:26:46Z</time>
      </trkpt>
      <trkpt lat="45.16468" lon="5.94567">
        <ele>2173.1</ele>
        <time>2021-02-20T14:26:47Z</time>
      </trkpt>
      <trkpt lat="45.16467" lon="5.94567">
        <ele>2173.1</ele>
        <time>2021-02-20T14:26:48Z</time>
      </trkpt>
      <trkpt lat="45.16467" lon="5.94567">
        <ele>2173.1</ele>
        <time>2021-02-20T14:26:49Z</time>
      </trkpt>
      <trkpt lat="45.16467" lon="5.94567">
        <ele>2172.2</ele>
        <time>2021-02-20T14:26:50Z</time>
      </trkpt>
      <trkpt lat="45.16467" lon="5.94567">
        <ele>2172.2</ele>
        <time>2021-02-20T14:26:51Z</time>
      </trkpt>
      <trkpt lat="45.16462" lon="5.94567">
        <ele>2171.3</ele>
        <time>2021-02-20T14:26:52Z</time>
      </trkpt>
      <trkpt lat="45.16456" lon="5.94568">
        <ele>2169.8</ele>
        <time>2021-02-20T14:26:53Z</time>
      </trkpt>
      <trkpt lat="45.1645" lon="5.94569">
        <ele>2168.3</ele>
        <time>2021-02-20T14:26:54Z</time>
      </trkpt>
      <trkpt lat="45.16444" lon="5.94571">
        <ele>2166.9</ele>
        <time>2021-02-20T14:26:55Z</time>
      </trkpt>
      <trkpt lat="45.1644" lon="5.94571">
        <ele>2167.5</ele>
        <time>2021-02-20T14:26:56Z</time>
      </trkpt>
      <trkpt lat="45.16435" lon="5.94572">
        <ele>2166.6</ele>
        <time>2021-02-20T14:26:57Z</time>
      </trkpt>
      <trkpt lat="45.16431" lon="5.94572">
        <ele>2166.2</ele>
        <time>2021-02-20T14:26:58Z</time>
      </trkpt>
      <trkpt lat="45.16428" lon="5.94571">
        <ele>2165.7</ele>
        <time>2021-02-20T14:26:59Z</time>
      </trkpt>
      <trkpt lat="45.16423" lon="5.94571">
        <ele>2164.2</ele>
        <time>2021-02-20T14:27:00Z</time>
      </trkpt>
      <trkpt lat="45.16419" lon="5.9457">
        <ele>2163.8</ele>
        <time>2021-02-20T14:27:01Z</time>
      </trkpt>
      <trkpt lat="45.16413" lon="5.94568">
        <ele>2163.7</ele>
        <time>2021-02-20T14:27:02Z</time>
      </trkpt>
      <trkpt lat="45.16407" lon="5.94565">
        <ele>2162.3</ele>
        <time>2021-02-20T14:27:03Z</time>
      </trkpt>
      <trkpt lat="45.16402" lon="5.94562">
        <ele>2161.2</ele>
        <time>2021-02-20T14:27:04Z</time>
      </trkpt>
      <trkpt lat="45.16398" lon="5.94558">
        <ele>2161.2</ele>
        <time>2021-02-20T14:27:05Z</time>
      </trkpt>
      <trkpt lat="45.16394" lon="5.94554">
        <ele>2160.3</ele>
        <time>2021-02-20T14:27:06Z</time>
      </trkpt>
      <trkpt lat="45.16391" lon="5.9455">
        <ele>2159.4</ele>
        <time>2021-02-20T14:27:07Z</time>
      </trkpt>
      <trkpt lat="45.16388" lon="5.94547">
        <ele>2158.5</ele>
        <time>2021-02-20T14:27:08Z</time>
      </trkpt>
      <trkpt lat="45.16384" lon="5.94544">
        <ele>2157.8</ele>
        <time>2021-02-20T14:27:09Z</time>
      </trkpt>
      <trkpt lat="45.16382" lon="5.94541">
        <ele>2158</ele>
        <time>2021-02-20T14:27:10Z</time>
      </trkpt>
      <trkpt lat="45.1638" lon="5.94538">
        <ele>2157.1</ele>
        <time>2021-02-20T14:27:11Z</time>
      </trkpt>
      <trkpt lat="45.16378" lon="5.94535">
        <ele>2156.4</ele>
        <time>2021-02-20T14:27:12Z</time>
      </trkpt>
      <trkpt lat="45.16378" lon="5.94534">
        <ele>2156.4</ele>
        <time>2021-02-20T14:27:13Z</time>
      </trkpt>
      <trkpt lat="45.16377" lon="5.9453">
        <ele>2155.5</ele>
        <time>2021-02-20T14:27:14Z</time>
      </trkpt>
      <trkpt lat="45.16376" lon="5.94524">
        <ele>2155</ele>
        <time>2021-02-20T14:27:15Z</time>
      </trkpt>
      <trkpt lat="45.16374" lon="5.94519">
        <ele>2153.4</ele>
        <time>2021-02-20T14:27:16Z</time>
      </trkpt>
      <trkpt lat="45.16374" lon="5.94513">
        <ele>2152.7</ele>
        <time>2021-02-20T14:27:17Z</time>
      </trkpt>
      <trkpt lat="45.16376" lon="5.94507">
        <ele>2151.9</ele>
        <time>2021-02-20T14:27:18Z</time>
      </trkpt>
      <trkpt lat="45.16379" lon="5.94502">
        <ele>2149.7</ele>
        <time>2021-02-20T14:27:19Z</time>
      </trkpt>
      <trkpt lat="45.16386" lon="5.94502">
        <ele>2148.9</ele>
        <time>2021-02-20T14:27:20Z</time>
      </trkpt>
      <trkpt lat="45.16387" lon="5.94503">
        <ele>2148.9</ele>
        <time>2021-02-20T14:27:21Z</time>
      </trkpt>
      <trkpt lat="45.16387" lon="5.94499">
        <ele>2147.9</ele>
        <time>2021-02-20T14:27:22Z</time>
      </trkpt>
      <trkpt lat="45.16389" lon="5.94492">
        <ele>2145.2</ele>
        <time>2021-02-20T14:27:23Z</time>
      </trkpt>
      <trkpt lat="45.1639" lon="5.94488">
        <ele>2144.2</ele>
        <time>2021-02-20T14:27:24Z</time>
      </trkpt>
      <trkpt lat="45.16395" lon="5.94489">
        <ele>2142.8</ele>
        <time>2021-02-20T14:27:25Z</time>
      </trkpt>
      <trkpt lat="45.16397" lon="5.94491">
        <ele>2144</ele>
        <time>2021-02-20T14:27:26Z</time>
      </trkpt>
      <trkpt lat="45.16398" lon="5.94491">
        <ele>2143.4</ele>
        <time>2021-02-20T14:27:27Z</time>
      </trkpt>
      <trkpt lat="45.16399" lon="5.94491">
        <ele>2143.4</ele>
        <time>2021-02-20T14:27:28Z</time>
      </trkpt>
      <trkpt lat="45.16399" lon="5.94491">
        <ele>2143.4</ele>
        <time>2021-02-20T14:27:29Z</time>
      </trkpt>
      <trkpt lat="45.16399" lon="5.94491">
        <ele>2143.3</ele>
        <time>2021-02-20T14:27:30Z</time>
      </trkpt>
      <trkpt lat="45.16399" lon="5.94491">
        <ele>2143.3</ele>
        <time>2021-02-20T14:27:31Z</time>
      </trkpt>
      <trkpt lat="45.16399" lon="5.94491">
        <ele>2143.3</ele>
        <time>2021-02-20T14:27:32Z</time>
      </trkpt>
      <trkpt lat="45.16399" lon="5.94491">
        <ele>2143.3</ele>
        <time>2021-02-20T14:27:33Z</time>
      </trkpt>
      <trkpt lat="45.16401" lon="5.94492">
        <ele>2142.8</ele>
        <time>2021-02-20T14:27:34Z</time>
      </trkpt>
      <trkpt lat="45.16405" lon="5.9449">
        <ele>2142.3</ele>
        <time>2021-02-20T14:27:35Z</time>
      </trkpt>
      <trkpt lat="45.16407" lon="5.94489">
        <ele>2141.8</ele>
        <time>2021-02-20T14:27:36Z</time>
      </trkpt>
      <trkpt lat="45.1641" lon="5.94486">
        <ele>2140.1</ele>
        <time>2021-02-20T14:27:37Z</time>
      </trkpt>
      <trkpt lat="45.16414" lon="5.94484">
        <ele>2138.3</ele>
        <time>2021-02-20T14:27:38Z</time>
      </trkpt>
      <trkpt lat="45.16416" lon="5.94479">
        <ele>2136.8</ele>
        <time>2021-02-20T14:27:39Z</time>
      </trkpt>
      <trkpt lat="45.16418" lon="5.94474">
        <ele>2135.6</ele>
        <time>2021-02-20T14:27:40Z</time>
      </trkpt>
      <trkpt lat="45.16421" lon="5.94473">
        <ele>2135.3</ele>
        <time>2021-02-20T14:27:41Z</time>
      </trkpt>
      <trkpt lat="45.16422" lon="5.94473">
        <ele>2135</ele>
        <time>2021-02-20T14:27:42Z</time>
      </trkpt>
      <trkpt lat="45.16423" lon="5.94473">
        <ele>2135</ele>
        <time>2021-02-20T14:27:43Z</time>
      </trkpt>
      <trkpt lat="45.16423" lon="5.94473">
        <ele>2135</ele>
        <time>2021-02-20T14:27:44Z</time>
      </trkpt>
      <trkpt lat="45.16423" lon="5.94473">
        <ele>2135</ele>
        <time>2021-02-20T14:27:45Z</time>
      </trkpt>
      <trkpt lat="45.16423" lon="5.94473">
        <ele>2135</ele>
        <time>2021-02-20T14:27:46Z</time>
      </trkpt>
      <trkpt lat="45.16423" lon="5.94473">
        <ele>2134.9</ele>
        <time>2021-02-20T14:27:47Z</time>
      </trkpt>
      <trkpt lat="45.16423" lon="5.94473">
        <ele>2134.9</ele>
        <time>2021-02-20T14:27:48Z</time>
      </trkpt>
      <trkpt lat="45.16423" lon="5.94473">
        <ele>2134.8</ele>
        <time>2021-02-20T14:27:49Z</time>
      </trkpt>
      <trkpt lat="45.16423" lon="5.94473">
        <ele>2134.8</ele>
        <time>2021-02-20T14:27:50Z</time>
      </trkpt>
      <trkpt lat="45.16423" lon="5.94473">
        <ele>2134.8</ele>
        <time>2021-02-20T14:27:51Z</time>
      </trkpt>
      <trkpt lat="45.16423" lon="5.94473">
        <ele>2134.8</ele>
        <time>2021-02-20T14:27:52Z</time>
      </trkpt>
      <trkpt lat="45.16423" lon="5.94473">
        <ele>2134.8</ele>
        <time>2021-02-20T14:27:53Z</time>
      </trkpt>
      <trkpt lat="45.16423" lon="5.94473">
        <ele>2134.8</ele>
        <time>2021-02-20T14:27:54Z</time>
      </trkpt>
      <trkpt lat="45.16423" lon="5.94473">
        <ele>2134.8</ele>
        <time>2021-02-20T14:27:55Z</time>
      </trkpt>
      <trkpt lat="45.16423" lon="5.94473">
        <ele>2134.8</ele>
        <time>2021-02-20T14:27:56Z</time>
      </trkpt>
      <trkpt lat="45.16423" lon="5.94473">
        <ele>2134.7</ele>
        <time>2021-02-20T14:27:57Z</time>
      </trkpt>
      <trkpt lat="45.16423" lon="5.94473">
        <ele>2134.7</ele>
        <time>2021-02-20T14:27:58Z</time>
      </trkpt>
      <trkpt lat="45.16423" lon="5.94473">
        <ele>2134.7</ele>
        <time>2021-02-20T14:27:59Z</time>
      </trkpt>
      <trkpt lat="45.16423" lon="5.94473">
        <ele>2134.6</ele>
        <time>2021-02-20T14:28:00Z</time>
      </trkpt>
      <trkpt lat="45.16423" lon="5.94473">
        <ele>2134.6</ele>
        <time>2021-02-20T14:28:01Z</time>
      </trkpt>
      <trkpt lat="45.16423" lon="5.94473">
        <ele>2134.6</ele>
        <time>2021-02-20T14:28:02Z</time>
      </trkpt>
      <trkpt lat="45.16423" lon="5.94473">
        <ele>2134.6</ele>
        <time>2021-02-20T14:28:03Z</time>
      </trkpt>
      <trkpt lat="45.16423" lon="5.94473">
        <ele>2134.6</ele>
        <time>2021-02-20T14:28:04Z</time>
      </trkpt>
      <trkpt lat="45.16423" lon="5.94473">
        <ele>2134.5</ele>
        <time>2021-02-20T14:28:05Z</time>
      </trkpt>
      <trkpt lat="45.16423" lon="5.94473">
        <ele>2134.5</ele>
        <time>2021-02-20T14:28:06Z</time>
      </trkpt>
      <trkpt lat="45.16423" lon="5.94473">
        <ele>2134.5</ele>
        <time>2021-02-20T14:28:07Z</time>
      </trkpt>
      <trkpt lat="45.16423" lon="5.94473">
        <ele>2134.5</ele>
        <time>2021-02-20T14:28:08Z</time>
      </trkpt>
      <trkpt lat="45.16423" lon="5.94473">
        <ele>2134.5</ele>
        <time>2021-02-20T14:28:09Z</time>
      </trkpt>
      <trkpt lat="45.16423" lon="5.94473">
        <ele>2134.5</ele>
        <time>2021-02-20T14:28:10Z</time>
      </trkpt>
      <trkpt lat="45.16423" lon="5.94473">
        <ele>2134.5</ele>
        <time>2021-02-20T14:28:11Z</time>
      </trkpt>
      <trkpt lat="45.16423" lon="5.94473">
        <ele>2134.5</ele>
        <time>2021-02-20T14:28:12Z</time>
      </trkpt>
      <trkpt lat="45.16423" lon="5.94473">
        <ele>2134.4</ele>
        <time>2021-02-20T14:28:13Z</time>
      </trkpt>
      <trkpt lat="45.16422" lon="5.94473">
        <ele>2134.6</ele>
        <time>2021-02-20T14:28:14Z</time>
      </trkpt>
      <trkpt lat="45.16422" lon="5.94473">
        <ele>2134.4</ele>
        <time>2021-02-20T14:28:15Z</time>
      </trkpt>
      <trkpt lat="45.16424" lon="5.94472">
        <ele>2133.2</ele>
        <time>2021-02-20T14:28:16Z</time>
      </trkpt>
      <trkpt lat="45.16425" lon="5.94469">
        <ele>2133.2</ele>
        <time>2021-02-20T14:28:17Z</time>
      </trkpt>
      <trkpt lat="45.16424" lon="5.94467">
        <ele>2132</ele>
        <time>2021-02-20T14:28:18Z</time>
      </trkpt>
      <trkpt lat="45.16424" lon="5.94466">
        <ele>2132</ele>
        <time>2021-02-20T14:28:19Z</time>
      </trkpt>
      <trkpt lat="45.16425" lon="5.94462">
        <ele>2130.7</ele>
        <time>2021-02-20T14:28:20Z</time>
      </trkpt>
      <trkpt lat="45.16426" lon="5.94461">
        <ele>2130.7</ele>
        <time>2021-02-20T14:28:21Z</time>
      </trkpt>
      <trkpt lat="45.16428" lon="5.94461">
        <ele>2130.5</ele>
        <time>2021-02-20T14:28:22Z</time>
      </trkpt>
      <trkpt lat="45.16429" lon="5.94461">
        <ele>2130.5</ele>
        <time>2021-02-20T14:28:23Z</time>
      </trkpt>
      <trkpt lat="45.1643" lon="5.94459">
        <ele>2129.4</ele>
        <time>2021-02-20T14:28:24Z</time>
      </trkpt>
      <trkpt lat="45.16431" lon="5.94458">
        <ele>2129.2</ele>
        <time>2021-02-20T14:28:25Z</time>
      </trkpt>
      <trkpt lat="45.16434" lon="5.94456">
        <ele>2129.2</ele>
        <time>2021-02-20T14:28:26Z</time>
      </trkpt>
      <trkpt lat="45.16435" lon="5.94455">
        <ele>2129.2</ele>
        <time>2021-02-20T14:28:27Z</time>
      </trkpt>
      <trkpt lat="45.16436" lon="5.94451">
        <ele>2127.9</ele>
        <time>2021-02-20T14:28:28Z</time>
      </trkpt>
      <trkpt lat="45.16436" lon="5.94445">
        <ele>2125.3</ele>
        <time>2021-02-20T14:28:29Z</time>
      </trkpt>
      <trkpt lat="45.16435" lon="5.94439">
        <ele>2124</ele>
        <time>2021-02-20T14:28:30Z</time>
      </trkpt>
      <trkpt lat="45.16434" lon="5.94433">
        <ele>2121.7</ele>
        <time>2021-02-20T14:28:31Z</time>
      </trkpt>
      <trkpt lat="45.16433" lon="5.94427">
        <ele>2120.6</ele>
        <time>2021-02-20T14:28:32Z</time>
      </trkpt>
      <trkpt lat="45.16432" lon="5.94422">
        <ele>2119.4</ele>
        <time>2021-02-20T14:28:33Z</time>
      </trkpt>
      <trkpt lat="45.16433" lon="5.94418">
        <ele>2118.2</ele>
        <time>2021-02-20T14:28:34Z</time>
      </trkpt>
      <trkpt lat="45.16435" lon="5.94412">
        <ele>2115.6</ele>
        <time>2021-02-20T14:28:35Z</time>
      </trkpt>
      <trkpt lat="45.16439" lon="5.94404">
        <ele>2114.1</ele>
        <time>2021-02-20T14:28:36Z</time>
      </trkpt>
      <trkpt lat="45.16448" lon="5.944">
        <ele>2112.7</ele>
        <time>2021-02-20T14:28:37Z</time>
      </trkpt>
      <trkpt lat="45.16453" lon="5.94404">
        <ele>2114.4</ele>
        <time>2021-02-20T14:28:38Z</time>
      </trkpt>
      <trkpt lat="45.16457" lon="5.94402">
        <ele>2113.1</ele>
        <time>2021-02-20T14:28:39Z</time>
      </trkpt>
      <trkpt lat="45.1646" lon="5.94399">
        <ele>2113.3</ele>
        <time>2021-02-20T14:28:40Z</time>
      </trkpt>
      <trkpt lat="45.16463" lon="5.94397">
        <ele>2112.1</ele>
        <time>2021-02-20T14:28:41Z</time>
      </trkpt>
      <trkpt lat="45.16464" lon="5.94396">
        <ele>2112.1</ele>
        <time>2021-02-20T14:28:42Z</time>
      </trkpt>
      <trkpt lat="45.16464" lon="5.94396">
        <ele>2112.1</ele>
        <time>2021-02-20T14:28:43Z</time>
      </trkpt>
      <trkpt lat="45.16464" lon="5.94395">
        <ele>2112.1</ele>
        <time>2021-02-20T14:28:44Z</time>
      </trkpt>
      <trkpt lat="45.16464" lon="5.94395">
        <ele>2112</ele>
        <time>2021-02-20T14:28:45Z</time>
      </trkpt>
      <trkpt lat="45.16464" lon="5.94395">
        <ele>2112</ele>
        <time>2021-02-20T14:28:46Z</time>
      </trkpt>
      <trkpt lat="45.16464" lon="5.94394">
        <ele>2110.6</ele>
        <time>2021-02-20T14:28:47Z</time>
      </trkpt>
      <trkpt lat="45.16464" lon="5.94394">
        <ele>2110.6</ele>
        <time>2021-02-20T14:28:48Z</time>
      </trkpt>
      <trkpt lat="45.16463" lon="5.94394">
        <ele>2110.6</ele>
        <time>2021-02-20T14:28:49Z</time>
      </trkpt>
      <trkpt lat="45.16463" lon="5.94393">
        <ele>2110.6</ele>
        <time>2021-02-20T14:28:50Z</time>
      </trkpt>
      <trkpt lat="45.16463" lon="5.94393">
        <ele>2110.6</ele>
        <time>2021-02-20T14:28:51Z</time>
      </trkpt>
      <trkpt lat="45.16463" lon="5.94393">
        <ele>2110.6</ele>
        <time>2021-02-20T14:28:52Z</time>
      </trkpt>
      <trkpt lat="45.16463" lon="5.94392">
        <ele>2110.6</ele>
        <time>2021-02-20T14:28:53Z</time>
      </trkpt>
      <trkpt lat="45.16463" lon="5.94392">
        <ele>2110.6</ele>
        <time>2021-02-20T14:28:54Z</time>
      </trkpt>
      <trkpt lat="45.16463" lon="5.94392">
        <ele>2110.6</ele>
        <time>2021-02-20T14:28:55Z</time>
      </trkpt>
      <trkpt lat="45.16463" lon="5.94391">
        <ele>2110.6</ele>
        <time>2021-02-20T14:28:56Z</time>
      </trkpt>
      <trkpt lat="45.16463" lon="5.94391">
        <ele>2110.6</ele>
        <time>2021-02-20T14:28:57Z</time>
      </trkpt>
      <trkpt lat="45.16458" lon="5.94386">
        <ele>2107.6</ele>
        <time>2021-02-20T14:28:58Z</time>
      </trkpt>
      <trkpt lat="45.16452" lon="5.94383">
        <ele>2107.3</ele>
        <time>2021-02-20T14:28:59Z</time>
      </trkpt>
      <trkpt lat="45.16447" lon="5.9438">
        <ele>2106.2</ele>
        <time>2021-02-20T14:29:00Z</time>
      </trkpt>
      <trkpt lat="45.16445" lon="5.94377">
        <ele>2105.2</ele>
        <time>2021-02-20T14:29:01Z</time>
      </trkpt>
      <trkpt lat="45.16444" lon="5.94372">
        <ele>2104.1</ele>
        <time>2021-02-20T14:29:02Z</time>
      </trkpt>
      <trkpt lat="45.16444" lon="5.94371">
        <ele>2104.1</ele>
        <time>2021-02-20T14:29:03Z</time>
      </trkpt>
      <trkpt lat="45.16445" lon="5.94366">
        <ele>2103</ele>
        <time>2021-02-20T14:29:04Z</time>
      </trkpt>
      <trkpt lat="45.16445" lon="5.94364">
        <ele>2101.9</ele>
        <time>2021-02-20T14:29:05Z</time>
      </trkpt>
      <trkpt lat="45.16445" lon="5.94359">
        <ele>2100.2</ele>
        <time>2021-02-20T14:29:06Z</time>
      </trkpt>
      <trkpt lat="45.16445" lon="5.94357">
        <ele>2100.2</ele>
        <time>2021-02-20T14:29:07Z</time>
      </trkpt>
      <trkpt lat="45.16444" lon="5.94353">
        <ele>2099.2</ele>
        <time>2021-02-20T14:29:08Z</time>
      </trkpt>
      <trkpt lat="45.16444" lon="5.94348">
        <ele>2098.3</ele>
        <time>2021-02-20T14:29:09Z</time>
      </trkpt>
      <trkpt lat="45.16442" lon="5.94344">
        <ele>2098.1</ele>
        <time>2021-02-20T14:29:10Z</time>
      </trkpt>
      <trkpt lat="45.1644" lon="5.9434">
        <ele>2097.4</ele>
        <time>2021-02-20T14:29:11Z</time>
      </trkpt>
      <trkpt lat="45.1644" lon="5.94333">
        <ele>2096.2</ele>
        <time>2021-02-20T14:29:12Z</time>
      </trkpt>
      <trkpt lat="45.16444" lon="5.9433">
        <ele>2094.7</ele>
        <time>2021-02-20T14:29:13Z</time>
      </trkpt>
      <trkpt lat="45.16448" lon="5.94326">
        <ele>2093.3</ele>
        <time>2021-02-20T14:29:14Z</time>
      </trkpt>
      <trkpt lat="45.16447" lon="5.9432">
        <ele>2092.5</ele>
        <time>2021-02-20T14:29:15Z</time>
      </trkpt>
      <trkpt lat="45.16445" lon="5.94314">
        <ele>2092.6</ele>
        <time>2021-02-20T14:29:16Z</time>
      </trkpt>
      <trkpt lat="45.16446" lon="5.94307">
        <ele>2091.1</ele>
        <time>2021-02-20T14:29:17Z</time>
      </trkpt>
      <trkpt lat="45.16446" lon="5.943">
        <ele>2088.9</ele>
        <time>2021-02-20T14:29:18Z</time>
      </trkpt>
      <trkpt lat="45.16446" lon="5.94304">
        <ele>2089.5</ele>
        <time>2021-02-20T14:29:19Z</time>
      </trkpt>
      <trkpt lat="45.16448" lon="5.94309">
        <ele>2091</ele>
        <time>2021-02-20T14:29:20Z</time>
      </trkpt>
      <trkpt lat="45.16455" lon="5.9431">
        <ele>2089.5</ele>
        <time>2021-02-20T14:29:21Z</time>
      </trkpt>
      <trkpt lat="45.16462" lon="5.94311">
        <ele>2088.2</ele>
        <time>2021-02-20T14:29:22Z</time>
      </trkpt>
      <trkpt lat="45.16469" lon="5.9431">
        <ele>2087.8</ele>
        <time>2021-02-20T14:29:23Z</time>
      </trkpt>
      <trkpt lat="45.16476" lon="5.94306">
        <ele>2086.3</ele>
        <time>2021-02-20T14:29:24Z</time>
      </trkpt>
      <trkpt lat="45.16481" lon="5.94301">
        <ele>2084.8</ele>
        <time>2021-02-20T14:29:25Z</time>
      </trkpt>
      <trkpt lat="45.16485" lon="5.94296">
        <ele>2083.6</ele>
        <time>2021-02-20T14:29:26Z</time>
      </trkpt>
      <trkpt lat="45.16489" lon="5.94292">
        <ele>2082.5</ele>
        <time>2021-02-20T14:29:27Z</time>
      </trkpt>
      <trkpt lat="45.16492" lon="5.94287">
        <ele>2081.5</ele>
        <time>2021-02-20T14:29:28Z</time>
      </trkpt>
      <trkpt lat="45.16496" lon="5.94283">
        <ele>2080.5</ele>
        <time>2021-02-20T14:29:29Z</time>
      </trkpt>
      <trkpt lat="45.16499" lon="5.9428">
        <ele>2076.8</ele>
        <time>2021-02-20T14:29:30Z</time>
      </trkpt>
      <trkpt lat="45.16501" lon="5.94277">
        <ele>2075.9</ele>
        <time>2021-02-20T14:29:31Z</time>
      </trkpt>
      <trkpt lat="45.16505" lon="5.94273">
        <ele>2074.8</ele>
        <time>2021-02-20T14:29:32Z</time>
      </trkpt>
      <trkpt lat="45.16506" lon="5.94271">
        <ele>2074.3</ele>
        <time>2021-02-20T14:29:33Z</time>
      </trkpt>
      <trkpt lat="45.1651" lon="5.94267">
        <ele>2073.2</ele>
        <time>2021-02-20T14:29:34Z</time>
      </trkpt>
      <trkpt lat="45.16514" lon="5.94263">
        <ele>2072.1</ele>
        <time>2021-02-20T14:29:35Z</time>
      </trkpt>
      <trkpt lat="45.16518" lon="5.9426">
        <ele>2072.3</ele>
        <time>2021-02-20T14:29:36Z</time>
      </trkpt>
      <trkpt lat="45.16523" lon="5.94254">
        <ele>2072.5</ele>
        <time>2021-02-20T14:29:37Z</time>
      </trkpt>
      <trkpt lat="45.16528" lon="5.94249">
        <ele>2072.6</ele>
        <time>2021-02-20T14:29:38Z</time>
      </trkpt>
      <trkpt lat="45.16534" lon="5.94242">
        <ele>2072.6</ele>
        <time>2021-02-20T14:29:39Z</time>
      </trkpt>
      <trkpt lat="45.16537" lon="5.94237">
        <ele>2072.3</ele>
        <time>2021-02-20T14:29:40Z</time>
      </trkpt>
      <trkpt lat="45.16539" lon="5.94234">
        <ele>2072.1</ele>
        <time>2021-02-20T14:29:41Z</time>
      </trkpt>
      <trkpt lat="45.16542" lon="5.94229">
        <ele>2071.7</ele>
        <time>2021-02-20T14:29:42Z</time>
      </trkpt>
      <trkpt lat="45.16543" lon="5.94225">
        <ele>2071.3</ele>
        <time>2021-02-20T14:29:43Z</time>
      </trkpt>
      <trkpt lat="45.16545" lon="5.9422">
        <ele>2070.8</ele>
        <time>2021-02-20T14:29:44Z</time>
      </trkpt>
      <trkpt lat="45.16549" lon="5.94215">
        <ele>2070</ele>
        <time>2021-02-20T14:29:45Z</time>
      </trkpt>
      <trkpt lat="45.16552" lon="5.94211">
        <ele>2069.5</ele>
        <time>2021-02-20T14:29:46Z</time>
      </trkpt>
      <trkpt lat="45.16556" lon="5.94206">
        <ele>2068.8</ele>
        <time>2021-02-20T14:29:47Z</time>
      </trkpt>
      <trkpt lat="45.16559" lon="5.942">
        <ele>2068.3</ele>
        <time>2021-02-20T14:29:48Z</time>
      </trkpt>
      <trkpt lat="45.16564" lon="5.94192">
        <ele>2067.8</ele>
        <time>2021-02-20T14:29:49Z</time>
      </trkpt>
      <trkpt lat="45.16568" lon="5.94184">
        <ele>2067.5</ele>
        <time>2021-02-20T14:29:50Z</time>
      </trkpt>
      <trkpt lat="45.16572" lon="5.94176">
        <ele>2067.1</ele>
        <time>2021-02-20T14:29:51Z</time>
      </trkpt>
      <trkpt lat="45.16576" lon="5.94171">
        <ele>2066.7</ele>
        <time>2021-02-20T14:29:52Z</time>
      </trkpt>
      <trkpt lat="45.16579" lon="5.94166">
        <ele>2066.2</ele>
        <time>2021-02-20T14:29:53Z</time>
      </trkpt>
      <trkpt lat="45.16582" lon="5.94166">
        <ele>2065.8</ele>
        <time>2021-02-20T14:29:54Z</time>
      </trkpt>
      <trkpt lat="45.16583" lon="5.94165">
        <ele>2065.7</ele>
        <time>2021-02-20T14:29:55Z</time>
      </trkpt>
      <trkpt lat="45.16586" lon="5.94164">
        <ele>2065.4</ele>
        <time>2021-02-20T14:29:56Z</time>
      </trkpt>
      <trkpt lat="45.16589" lon="5.94163">
        <ele>2065.1</ele>
        <time>2021-02-20T14:29:57Z</time>
      </trkpt>
      <trkpt lat="45.16592" lon="5.94163">
        <ele>2064.8</ele>
        <time>2021-02-20T14:29:58Z</time>
      </trkpt>
      <trkpt lat="45.16595" lon="5.94163">
        <ele>2064.5</ele>
        <time>2021-02-20T14:29:59Z</time>
      </trkpt>
      <trkpt lat="45.16599" lon="5.94163">
        <ele>2064.2</ele>
        <time>2021-02-20T14:30:00Z</time>
      </trkpt>
      <trkpt lat="45.16605" lon="5.94163">
        <ele>2063.8</ele>
        <time>2021-02-20T14:30:01Z</time>
      </trkpt>
      <trkpt lat="45.16612" lon="5.94163">
        <ele>2063.5</ele>
        <time>2021-02-20T14:30:02Z</time>
      </trkpt>
      <trkpt lat="45.16619" lon="5.94164">
        <ele>2063.5</ele>
        <time>2021-02-20T14:30:03Z</time>
      </trkpt>
      <trkpt lat="45.16625" lon="5.94164">
        <ele>2063.4</ele>
        <time>2021-02-20T14:30:04Z</time>
      </trkpt>
      <trkpt lat="45.1663" lon="5.94165">
        <ele>2063.2</ele>
        <time>2021-02-20T14:30:05Z</time>
      </trkpt>
      <trkpt lat="45.16634" lon="5.94165">
        <ele>2062.9</ele>
        <time>2021-02-20T14:30:06Z</time>
      </trkpt>
      <trkpt lat="45.16638" lon="5.94167">
        <ele>2062.5</ele>
        <time>2021-02-20T14:30:07Z</time>
      </trkpt>
      <trkpt lat="45.16642" lon="5.94168">
        <ele>2062</ele>
        <time>2021-02-20T14:30:08Z</time>
      </trkpt>
      <trkpt lat="45.16647" lon="5.94169">
        <ele>2061.1</ele>
        <time>2021-02-20T14:30:09Z</time>
      </trkpt>
      <trkpt lat="45.16654" lon="5.94168">
        <ele>2059.9</ele>
        <time>2021-02-20T14:30:10Z</time>
      </trkpt>
      <trkpt lat="45.1666" lon="5.94165">
        <ele>2058.6</ele>
        <time>2021-02-20T14:30:11Z</time>
      </trkpt>
      <trkpt lat="45.16665" lon="5.94161">
        <ele>2057.5</ele>
        <time>2021-02-20T14:30:12Z</time>
      </trkpt>
      <trkpt lat="45.16671" lon="5.94158">
        <ele>2056.2</ele>
        <time>2021-02-20T14:30:13Z</time>
      </trkpt>
      <trkpt lat="45.16677" lon="5.94154">
        <ele>2055</ele>
        <time>2021-02-20T14:30:14Z</time>
      </trkpt>
      <trkpt lat="45.16683" lon="5.9415">
        <ele>2053.7</ele>
        <time>2021-02-20T14:30:15Z</time>
      </trkpt>
      <trkpt lat="45.16689" lon="5.94145">
        <ele>2052.6</ele>
        <time>2021-02-20T14:30:16Z</time>
      </trkpt>
      <trkpt lat="45.16696" lon="5.94139">
        <ele>2051.5</ele>
        <time>2021-02-20T14:30:17Z</time>
      </trkpt>
      <trkpt lat="45.16702" lon="5.94133">
        <ele>2050.3</ele>
        <time>2021-02-20T14:30:18Z</time>
      </trkpt>
      <trkpt lat="45.16708" lon="5.94126">
        <ele>2049</ele>
        <time>2021-02-20T14:30:19Z</time>
      </trkpt>
      <trkpt lat="45.16714" lon="5.94119">
        <ele>2047.1</ele>
        <time>2021-02-20T14:30:20Z</time>
      </trkpt>
      <trkpt lat="45.16719" lon="5.94114">
        <ele>2047</ele>
        <time>2021-02-20T14:30:21Z</time>
      </trkpt>
      <trkpt lat="45.16723" lon="5.9411">
        <ele>2045.9</ele>
        <time>2021-02-20T14:30:22Z</time>
      </trkpt>
      <trkpt lat="45.16728" lon="5.94106">
        <ele>2045.9</ele>
        <time>2021-02-20T14:30:23Z</time>
      </trkpt>
      <trkpt lat="45.16733" lon="5.94101">
        <ele>2044.8</ele>
        <time>2021-02-20T14:30:24Z</time>
      </trkpt>
      <trkpt lat="45.16738" lon="5.94097">
        <ele>2044.5</ele>
        <time>2021-02-20T14:30:25Z</time>
      </trkpt>
      <trkpt lat="45.16743" lon="5.94093">
        <ele>2044</ele>
        <time>2021-02-20T14:30:26Z</time>
      </trkpt>
      <trkpt lat="45.16749" lon="5.94089">
        <ele>2043.8</ele>
        <time>2021-02-20T14:30:27Z</time>
      </trkpt>
      <trkpt lat="45.16754" lon="5.94086">
        <ele>2042.6</ele>
        <time>2021-02-20T14:30:28Z</time>
      </trkpt>
      <trkpt lat="45.16759" lon="5.94082">
        <ele>2044</ele>
        <time>2021-02-20T14:30:29Z</time>
      </trkpt>
      <trkpt lat="45.16764" lon="5.94075">
        <ele>2042.1</ele>
        <time>2021-02-20T14:30:30Z</time>
      </trkpt>
      <trkpt lat="45.16769" lon="5.94069">
        <ele>2041.1</ele>
        <time>2021-02-20T14:30:31Z</time>
      </trkpt>
      <trkpt lat="45.16773" lon="5.94063">
        <ele>2039.9</ele>
        <time>2021-02-20T14:30:32Z</time>
      </trkpt>
      <trkpt lat="45.16777" lon="5.94058">
        <ele>2039</ele>
        <time>2021-02-20T14:30:33Z</time>
      </trkpt>
      <trkpt lat="45.16781" lon="5.94053">
        <ele>2038.1</ele>
        <time>2021-02-20T14:30:34Z</time>
      </trkpt>
      <trkpt lat="45.16786" lon="5.94046">
        <ele>2036.4</ele>
        <time>2021-02-20T14:30:35Z</time>
      </trkpt>
      <trkpt lat="45.16791" lon="5.9404">
        <ele>2035.4</ele>
        <time>2021-02-20T14:30:36Z</time>
      </trkpt>
      <trkpt lat="45.16796" lon="5.94034">
        <ele>2035.2</ele>
        <time>2021-02-20T14:30:37Z</time>
      </trkpt>
      <trkpt lat="45.168" lon="5.94031">
        <ele>2034.4</ele>
        <time>2021-02-20T14:30:38Z</time>
      </trkpt>
      <trkpt lat="45.16803" lon="5.94026">
        <ele>2033.3</ele>
        <time>2021-02-20T14:30:39Z</time>
      </trkpt>
      <trkpt lat="45.16806" lon="5.94022">
        <ele>2033.7</ele>
        <time>2021-02-20T14:30:40Z</time>
      </trkpt>
      <trkpt lat="45.16809" lon="5.94018">
        <ele>2032.1</ele>
        <time>2021-02-20T14:30:41Z</time>
      </trkpt>
      <trkpt lat="45.16811" lon="5.94013">
        <ele>2031.4</ele>
        <time>2021-02-20T14:30:42Z</time>
      </trkpt>
      <trkpt lat="45.16813" lon="5.9401">
        <ele>2030.6</ele>
        <time>2021-02-20T14:30:43Z</time>
      </trkpt>
      <trkpt lat="45.16814" lon="5.94006">
        <ele>2029</ele>
        <time>2021-02-20T14:30:44Z</time>
      </trkpt>
      <trkpt lat="45.16815" lon="5.94001">
        <ele>2027.3</ele>
        <time>2021-02-20T14:30:45Z</time>
      </trkpt>
      <trkpt lat="45.16815" lon="5.94">
        <ele>2025.7</ele>
        <time>2021-02-20T14:30:46Z</time>
      </trkpt>
      <trkpt lat="45.16815" lon="5.93998">
        <ele>2026.1</ele>
        <time>2021-02-20T14:30:47Z</time>
      </trkpt>
      <trkpt lat="45.16815" lon="5.93996">
        <ele>2025.7</ele>
        <time>2021-02-20T14:30:48Z</time>
      </trkpt>
      <trkpt lat="45.16816" lon="5.93994">
        <ele>2024.1</ele>
        <time>2021-02-20T14:30:49Z</time>
      </trkpt>
      <trkpt lat="45.16817" lon="5.93992">
        <ele>2023.7</ele>
        <time>2021-02-20T14:30:50Z</time>
      </trkpt>
      <trkpt lat="45.1682" lon="5.9399">
        <ele>2023</ele>
        <time>2021-02-20T14:30:51Z</time>
      </trkpt>
      <trkpt lat="45.16824" lon="5.93989">
        <ele>2023.4</ele>
        <time>2021-02-20T14:30:52Z</time>
      </trkpt>
      <trkpt lat="45.16827" lon="5.93988">
        <ele>2024.6</ele>
        <time>2021-02-20T14:30:53Z</time>
      </trkpt>
      <trkpt lat="45.16832" lon="5.93987">
        <ele>2024.1</ele>
        <time>2021-02-20T14:30:54Z</time>
      </trkpt>
      <trkpt lat="45.16838" lon="5.93985">
        <ele>2025.7</ele>
        <time>2021-02-20T14:30:55Z</time>
      </trkpt>
      <trkpt lat="45.16844" lon="5.93977">
        <ele>2024.9</ele>
        <time>2021-02-20T14:30:56Z</time>
      </trkpt>
      <trkpt lat="45.1685" lon="5.93972">
        <ele>2024.8</ele>
        <time>2021-02-20T14:30:57Z</time>
      </trkpt>
      <trkpt lat="45.16856" lon="5.93967">
        <ele>2024.8</ele>
        <time>2021-02-20T14:30:58Z</time>
      </trkpt>
      <trkpt lat="45.16862" lon="5.93961">
        <ele>2024.9</ele>
        <time>2021-02-20T14:30:59Z</time>
      </trkpt>
      <trkpt lat="45.16867" lon="5.93955">
        <ele>2023</ele>
        <time>2021-02-20T14:31:00Z</time>
      </trkpt>
      <trkpt lat="45.16873" lon="5.9395">
        <ele>2021.5</ele>
        <time>2021-02-20T14:31:01Z</time>
      </trkpt>
      <trkpt lat="45.16879" lon="5.93944">
        <ele>2021.5</ele>
        <time>2021-02-20T14:31:02Z</time>
      </trkpt>
      <trkpt lat="45.16885" lon="5.93937">
        <ele>2017.7</ele>
        <time>2021-02-20T14:31:03Z</time>
      </trkpt>
      <trkpt lat="45.1689" lon="5.9393">
        <ele>2014.6</ele>
        <time>2021-02-20T14:31:04Z</time>
      </trkpt>
      <trkpt lat="45.16895" lon="5.93925">
        <ele>2013.8</ele>
        <time>2021-02-20T14:31:05Z</time>
      </trkpt>
      <trkpt lat="45.169" lon="5.93919">
        <ele>2012.9</ele>
        <time>2021-02-20T14:31:06Z</time>
      </trkpt>
      <trkpt lat="45.16904" lon="5.93914">
        <ele>2008.4</ele>
        <time>2021-02-20T14:31:07Z</time>
      </trkpt>
      <trkpt lat="45.16907" lon="5.93909">
        <ele>2006.5</ele>
        <time>2021-02-20T14:31:08Z</time>
      </trkpt>
      <trkpt lat="45.1691" lon="5.93905">
        <ele>2004.9</ele>
        <time>2021-02-20T14:31:09Z</time>
      </trkpt>
      <trkpt lat="45.16913" lon="5.93899">
        <ele>2003.4</ele>
        <time>2021-02-20T14:31:10Z</time>
      </trkpt>
      <trkpt lat="45.16916" lon="5.93894">
        <ele>2002</ele>
        <time>2021-02-20T14:31:11Z</time>
      </trkpt>
      <trkpt lat="45.16919" lon="5.9389">
        <ele>2001.7</ele>
        <time>2021-02-20T14:31:12Z</time>
      </trkpt>
      <trkpt lat="45.16922" lon="5.93884">
        <ele>2001.2</ele>
        <time>2021-02-20T14:31:13Z</time>
      </trkpt>
      <trkpt lat="45.16926" lon="5.93877">
        <ele>2000.7</ele>
        <time>2021-02-20T14:31:14Z</time>
      </trkpt>
      <trkpt lat="45.1693" lon="5.9387">
        <ele>2000.2</ele>
        <time>2021-02-20T14:31:15Z</time>
      </trkpt>
      <trkpt lat="45.16934" lon="5.93864">
        <ele>1999.6</ele>
        <time>2021-02-20T14:31:16Z</time>
      </trkpt>
      <trkpt lat="45.16938" lon="5.93859">
        <ele>1999.1</ele>
        <time>2021-02-20T14:31:17Z</time>
      </trkpt>
      <trkpt lat="45.16942" lon="5.93854">
        <ele>1998.6</ele>
        <time>2021-02-20T14:31:18Z</time>
      </trkpt>
      <trkpt lat="45.16945" lon="5.9385">
        <ele>1998</ele>
        <time>2021-02-20T14:31:19Z</time>
      </trkpt>
      <trkpt lat="45.16947" lon="5.93847">
        <ele>1997.6</ele>
        <time>2021-02-20T14:31:20Z</time>
      </trkpt>
      <trkpt lat="45.1695" lon="5.93844">
        <ele>1997</ele>
        <time>2021-02-20T14:31:21Z</time>
      </trkpt>
      <trkpt lat="45.16951" lon="5.93842">
        <ele>1996.8</ele>
        <time>2021-02-20T14:31:22Z</time>
      </trkpt>
      <trkpt lat="45.16953" lon="5.9384">
        <ele>1996.3</ele>
        <time>2021-02-20T14:31:23Z</time>
      </trkpt>
      <trkpt lat="45.16955" lon="5.9384">
        <ele>1996.1</ele>
        <time>2021-02-20T14:31:24Z</time>
      </trkpt>
      <trkpt lat="45.16957" lon="5.93837">
        <ele>1995.7</ele>
        <time>2021-02-20T14:31:25Z</time>
      </trkpt>
      <trkpt lat="45.16957" lon="5.93837">
        <ele>1995.5</ele>
        <time>2021-02-20T14:31:26Z</time>
      </trkpt>
      <trkpt lat="45.16958" lon="5.93837">
        <ele>1995.4</ele>
        <time>2021-02-20T14:31:27Z</time>
      </trkpt>
      <trkpt lat="45.16961" lon="5.93835">
        <ele>1994.8</ele>
        <time>2021-02-20T14:31:28Z</time>
      </trkpt>
      <trkpt lat="45.16962" lon="5.93834">
        <ele>1994.6</ele>
        <time>2021-02-20T14:31:29Z</time>
      </trkpt>
      <trkpt lat="45.16965" lon="5.93831">
        <ele>1994.1</ele>
        <time>2021-02-20T14:31:30Z</time>
      </trkpt>
      <trkpt lat="45.16967" lon="5.93827">
        <ele>1993.6</ele>
        <time>2021-02-20T14:31:31Z</time>
      </trkpt>
      <trkpt lat="45.16968" lon="5.93826">
        <ele>1993.4</ele>
        <time>2021-02-20T14:31:32Z</time>
      </trkpt>
      <trkpt lat="45.16971" lon="5.93823">
        <ele>1992.9</ele>
        <time>2021-02-20T14:31:33Z</time>
      </trkpt>
      <trkpt lat="45.16972" lon="5.93822">
        <ele>1992.8</ele>
        <time>2021-02-20T14:31:34Z</time>
      </trkpt>
      <trkpt lat="45.16975" lon="5.93819">
        <ele>1992.2</ele>
        <time>2021-02-20T14:31:35Z</time>
      </trkpt>
      <trkpt lat="45.16976" lon="5.93818">
        <ele>1992.1</ele>
        <time>2021-02-20T14:31:36Z</time>
      </trkpt>
      <trkpt lat="45.16978" lon="5.93815">
        <ele>1991.5</ele>
        <time>2021-02-20T14:31:37Z</time>
      </trkpt>
      <trkpt lat="45.16979" lon="5.93814">
        <ele>1991.4</ele>
        <time>2021-02-20T14:31:38Z</time>
      </trkpt>
      <trkpt lat="45.1698" lon="5.93812">
        <ele>1991.1</ele>
        <time>2021-02-20T14:31:39Z</time>
      </trkpt>
      <trkpt lat="45.16981" lon="5.9381">
        <ele>1990.9</ele>
        <time>2021-02-20T14:31:40Z</time>
      </trkpt>
      <trkpt lat="45.16982" lon="5.93809">
        <ele>1990.6</ele>
        <time>2021-02-20T14:31:41Z</time>
      </trkpt>
      <trkpt lat="45.16983" lon="5.93808">
        <ele>1990.5</ele>
        <time>2021-02-20T14:31:42Z</time>
      </trkpt>
      <trkpt lat="45.16983" lon="5.93808">
        <ele>1990.5</ele>
        <time>2021-02-20T14:31:43Z</time>
      </trkpt>
      <trkpt lat="45.16983" lon="5.93808">
        <ele>1990.5</ele>
        <time>2021-02-20T14:31:44Z</time>
      </trkpt>
      <trkpt lat="45.16983" lon="5.93808">
        <ele>1990.5</ele>
        <time>2021-02-20T14:31:45Z</time>
      </trkpt>
      <trkpt lat="45.16983" lon="5.93808">
        <ele>1990.5</ele>
        <time>2021-02-20T14:31:46Z</time>
      </trkpt>
      <trkpt lat="45.16983" lon="5.93808">
        <ele>1990.5</ele>
        <time>2021-02-20T14:31:47Z</time>
      </trkpt>
      <trkpt lat="45.16982" lon="5.93809">
        <ele>1990.3</ele>
        <time>2021-02-20T14:31:48Z</time>
      </trkpt>
      <trkpt lat="45.16982" lon="5.93805">
        <ele>1990</ele>
        <time>2021-02-20T14:31:49Z</time>
      </trkpt>
      <trkpt lat="45.16979" lon="5.93803">
        <ele>1989.5</ele>
        <time>2021-02-20T14:31:50Z</time>
      </trkpt>
      <trkpt lat="45.16978" lon="5.93803">
        <ele>1989.3</ele>
        <time>2021-02-20T14:31:51Z</time>
      </trkpt>
      <trkpt lat="45.16977" lon="5.93802">
        <ele>1989</ele>
        <time>2021-02-20T14:31:52Z</time>
      </trkpt>
      <trkpt lat="45.16974" lon="5.93799">
        <ele>1988.6</ele>
        <time>2021-02-20T14:31:53Z</time>
      </trkpt>
      <trkpt lat="45.16975" lon="5.93796">
        <ele>1988.3</ele>
        <time>2021-02-20T14:31:54Z</time>
      </trkpt>
      <trkpt lat="45.16975" lon="5.93795">
        <ele>1988.1</ele>
        <time>2021-02-20T14:31:55Z</time>
      </trkpt>
      <trkpt lat="45.16975" lon="5.93793">
        <ele>1987.8</ele>
        <time>2021-02-20T14:31:56Z</time>
      </trkpt>
      <trkpt lat="45.16975" lon="5.9379">
        <ele>1987.5</ele>
        <time>2021-02-20T14:31:57Z</time>
      </trkpt>
      <trkpt lat="45.16974" lon="5.93786">
        <ele>1987</ele>
        <time>2021-02-20T14:31:58Z</time>
      </trkpt>
      <trkpt lat="45.16975" lon="5.93784">
        <ele>1986.8</ele>
        <time>2021-02-20T14:31:59Z</time>
      </trkpt>
      <trkpt lat="45.16976" lon="5.93781">
        <ele>1986.2</ele>
        <time>2021-02-20T14:32:00Z</time>
      </trkpt>
      <trkpt lat="45.16979" lon="5.93777">
        <ele>1985.5</ele>
        <time>2021-02-20T14:32:01Z</time>
      </trkpt>
      <trkpt lat="45.1698" lon="5.93777">
        <ele>1985.3</ele>
        <time>2021-02-20T14:32:02Z</time>
      </trkpt>
      <trkpt lat="45.16982" lon="5.93774">
        <ele>1984.7</ele>
        <time>2021-02-20T14:32:03Z</time>
      </trkpt>
      <trkpt lat="45.16983" lon="5.93774">
        <ele>1984.5</ele>
        <time>2021-02-20T14:32:04Z</time>
      </trkpt>
      <trkpt lat="45.16986" lon="5.9377">
        <ele>1983.8</ele>
        <time>2021-02-20T14:32:05Z</time>
      </trkpt>
      <trkpt lat="45.16987" lon="5.93769">
        <ele>1983.4</ele>
        <time>2021-02-20T14:32:06Z</time>
      </trkpt>
      <trkpt lat="45.1699" lon="5.93765">
        <ele>1982.7</ele>
        <time>2021-02-20T14:32:07Z</time>
      </trkpt>
      <trkpt lat="45.16993" lon="5.93763">
        <ele>1982.1</ele>
        <time>2021-02-20T14:32:08Z</time>
      </trkpt>
      <trkpt lat="45.16996" lon="5.93761">
        <ele>1981.4</ele>
        <time>2021-02-20T14:32:09Z</time>
      </trkpt>
      <trkpt lat="45.16998" lon="5.9376">
        <ele>1981.2</ele>
        <time>2021-02-20T14:32:10Z</time>
      </trkpt>
      <trkpt lat="45.17001" lon="5.93758">
        <ele>1980.5</ele>
        <time>2021-02-20T14:32:11Z</time>
      </trkpt>
      <trkpt lat="45.17004" lon="5.93755">
        <ele>1979.9</ele>
        <time>2021-02-20T14:32:12Z</time>
      </trkpt>
      <trkpt lat="45.17007" lon="5.93753">
        <ele>1979.5</ele>
        <time>2021-02-20T14:32:13Z</time>
      </trkpt>
      <trkpt lat="45.17009" lon="5.93752">
        <ele>1979.1</ele>
        <time>2021-02-20T14:32:14Z</time>
      </trkpt>
      <trkpt lat="45.1701" lon="5.93752">
        <ele>1979</ele>
        <time>2021-02-20T14:32:15Z</time>
      </trkpt>
      <trkpt lat="45.17011" lon="5.93751">
        <ele>1978.9</ele>
        <time>2021-02-20T14:32:16Z</time>
      </trkpt>
      <trkpt lat="45.17014" lon="5.93749">
        <ele>1978.4</ele>
        <time>2021-02-20T14:32:17Z</time>
      </trkpt>
      <trkpt lat="45.17016" lon="5.93749">
        <ele>1978.3</ele>
        <time>2021-02-20T14:32:18Z</time>
      </trkpt>
      <trkpt lat="45.17017" lon="5.93748">
        <ele>1978</ele>
        <time>2021-02-20T14:32:19Z</time>
      </trkpt>
      <trkpt lat="45.17018" lon="5.93748">
        <ele>1977.9</ele>
        <time>2021-02-20T14:32:20Z</time>
      </trkpt>
      <trkpt lat="45.17018" lon="5.93748">
        <ele>1977.9</ele>
        <time>2021-02-20T14:32:21Z</time>
      </trkpt>
      <trkpt lat="45.17018" lon="5.93749">
        <ele>1977.9</ele>
        <time>2021-02-20T14:32:22Z</time>
      </trkpt>
      <trkpt lat="45.17018" lon="5.93749">
        <ele>1977.9</ele>
        <time>2021-02-20T14:32:23Z</time>
      </trkpt>
      <trkpt lat="45.17018" lon="5.93749">
        <ele>1977.9</ele>
        <time>2021-02-20T14:32:24Z</time>
      </trkpt>
      <trkpt lat="45.17018" lon="5.93749">
        <ele>1977.9</ele>
        <time>2021-02-20T14:32:25Z</time>
      </trkpt>
      <trkpt lat="45.17018" lon="5.93749">
        <ele>1977.9</ele>
        <time>2021-02-20T14:32:26Z</time>
      </trkpt>
      <trkpt lat="45.17018" lon="5.93749">
        <ele>1977.9</ele>
        <time>2021-02-20T14:32:27Z</time>
      </trkpt>
      <trkpt lat="45.17017" lon="5.93748">
        <ele>1977.8</ele>
        <time>2021-02-20T14:32:28Z</time>
      </trkpt>
      <trkpt lat="45.17017" lon="5.93748">
        <ele>1977.7</ele>
        <time>2021-02-20T14:32:29Z</time>
      </trkpt>
      <trkpt lat="45.17017" lon="5.93747">
        <ele>1977.7</ele>
        <time>2021-02-20T14:32:30Z</time>
      </trkpt>
      <trkpt lat="45.17017" lon="5.93746">
        <ele>1977.5</ele>
        <time>2021-02-20T14:32:31Z</time>
      </trkpt>
      <trkpt lat="45.17017" lon="5.93745">
        <ele>1977.5</ele>
        <time>2021-02-20T14:32:32Z</time>
      </trkpt>
      <trkpt lat="45.17016" lon="5.93743">
        <ele>1977.3</ele>
        <time>2021-02-20T14:32:33Z</time>
      </trkpt>
      <trkpt lat="45.17016" lon="5.93741">
        <ele>1977.2</ele>
        <time>2021-02-20T14:32:34Z</time>
      </trkpt>
      <trkpt lat="45.17019" lon="5.93739">
        <ele>1976.8</ele>
        <time>2021-02-20T14:32:35Z</time>
      </trkpt>
      <trkpt lat="45.17021" lon="5.93738">
        <ele>1976.6</ele>
        <time>2021-02-20T14:32:36Z</time>
      </trkpt>
      <trkpt lat="45.17024" lon="5.93738">
        <ele>1976.3</ele>
        <time>2021-02-20T14:32:37Z</time>
      </trkpt>
      <trkpt lat="45.17028" lon="5.93737">
        <ele>1975.9</ele>
        <time>2021-02-20T14:32:38Z</time>
      </trkpt>
      <trkpt lat="45.17032" lon="5.93737">
        <ele>1975.6</ele>
        <time>2021-02-20T14:32:39Z</time>
      </trkpt>
      <trkpt lat="45.17035" lon="5.93737">
        <ele>1975.4</ele>
        <time>2021-02-20T14:32:40Z</time>
      </trkpt>
      <trkpt lat="45.17038" lon="5.93738">
        <ele>1975.2</ele>
        <time>2021-02-20T14:32:41Z</time>
      </trkpt>
      <trkpt lat="45.17039" lon="5.93738">
        <ele>1975.1</ele>
        <time>2021-02-20T14:32:42Z</time>
      </trkpt>
      <trkpt lat="45.17046" lon="5.93736">
        <ele>1974.5</ele>
        <time>2021-02-20T14:32:43Z</time>
      </trkpt>
      <trkpt lat="45.1705" lon="5.93734">
        <ele>1974.1</ele>
        <time>2021-02-20T14:32:44Z</time>
      </trkpt>
      <trkpt lat="45.17058" lon="5.93731">
        <ele>1973.1</ele>
        <time>2021-02-20T14:32:45Z</time>
      </trkpt>
      <trkpt lat="45.17066" lon="5.9373">
        <ele>1972</ele>
        <time>2021-02-20T14:32:46Z</time>
      </trkpt>
      <trkpt lat="45.17071" lon="5.93726">
        <ele>1970.9</ele>
        <time>2021-02-20T14:32:47Z</time>
      </trkpt>
      <trkpt lat="45.17076" lon="5.93722">
        <ele>1970.2</ele>
        <time>2021-02-20T14:32:48Z</time>
      </trkpt>
      <trkpt lat="45.1708" lon="5.93717">
        <ele>1969.7</ele>
        <time>2021-02-20T14:32:49Z</time>
      </trkpt>
      <trkpt lat="45.17084" lon="5.93712">
        <ele>1969.3</ele>
        <time>2021-02-20T14:32:50Z</time>
      </trkpt>
      <trkpt lat="45.17087" lon="5.93711">
        <ele>1969.1</ele>
        <time>2021-02-20T14:32:51Z</time>
      </trkpt>
      <trkpt lat="45.17089" lon="5.93709">
        <ele>1969</ele>
        <time>2021-02-20T14:32:52Z</time>
      </trkpt>
      <trkpt lat="45.17089" lon="5.93709">
        <ele>1969</ele>
        <time>2021-02-20T14:32:53Z</time>
      </trkpt>
      <trkpt lat="45.17089" lon="5.93707">
        <ele>1969</ele>
        <time>2021-02-20T14:32:54Z</time>
      </trkpt>
      <trkpt lat="45.17089" lon="5.93704">
        <ele>1968.9</ele>
        <time>2021-02-20T14:32:55Z</time>
      </trkpt>
      <trkpt lat="45.1709" lon="5.93704">
        <ele>1968.9</ele>
        <time>2021-02-20T14:32:56Z</time>
      </trkpt>
      <trkpt lat="45.1709" lon="5.93703">
        <ele>1968.9</ele>
        <time>2021-02-20T14:32:57Z</time>
      </trkpt>
      <trkpt lat="45.1709" lon="5.93702">
        <ele>1968.9</ele>
        <time>2021-02-20T14:32:58Z</time>
      </trkpt>
      <trkpt lat="45.1709" lon="5.93702">
        <ele>1968.9</ele>
        <time>2021-02-20T14:32:59Z</time>
      </trkpt>
      <trkpt lat="45.17089" lon="5.937">
        <ele>1968.8</ele>
        <time>2021-02-20T14:33:00Z</time>
      </trkpt>
      <trkpt lat="45.1709" lon="5.93698">
        <ele>1968.8</ele>
        <time>2021-02-20T14:33:01Z</time>
      </trkpt>
      <trkpt lat="45.1709" lon="5.93697">
        <ele>1968.9</ele>
        <time>2021-02-20T14:33:02Z</time>
      </trkpt>
      <trkpt lat="45.17091" lon="5.93697">
        <ele>1968.9</ele>
        <time>2021-02-20T14:33:03Z</time>
      </trkpt>
      <trkpt lat="45.17091" lon="5.93696">
        <ele>1968.9</ele>
        <time>2021-02-20T14:33:04Z</time>
      </trkpt>
      <trkpt lat="45.17092" lon="5.93695">
        <ele>1968.9</ele>
        <time>2021-02-20T14:33:05Z</time>
      </trkpt>
      <trkpt lat="45.17094" lon="5.93692">
        <ele>1969</ele>
        <time>2021-02-20T14:33:06Z</time>
      </trkpt>
      <trkpt lat="45.17095" lon="5.93691">
        <ele>1969</ele>
        <time>2021-02-20T14:33:07Z</time>
      </trkpt>
      <trkpt lat="45.17097" lon="5.93688">
        <ele>1969.2</ele>
        <time>2021-02-20T14:33:08Z</time>
      </trkpt>
      <trkpt lat="45.171" lon="5.93685">
        <ele>1969.4</ele>
        <time>2021-02-20T14:33:09Z</time>
      </trkpt>
      <trkpt lat="45.17102" lon="5.93682">
        <ele>1969.8</ele>
        <time>2021-02-20T14:33:10Z</time>
      </trkpt>
      <trkpt lat="45.17106" lon="5.93679">
        <ele>1970.1</ele>
        <time>2021-02-20T14:33:11Z</time>
      </trkpt>
      <trkpt lat="45.17109" lon="5.93675">
        <ele>1970.6</ele>
        <time>2021-02-20T14:33:12Z</time>
      </trkpt>
      <trkpt lat="45.17112" lon="5.93671">
        <ele>1971</ele>
        <time>2021-02-20T14:33:13Z</time>
      </trkpt>
      <trkpt lat="45.17113" lon="5.93663">
        <ele>1971.4</ele>
        <time>2021-02-20T14:33:14Z</time>
      </trkpt>
      <trkpt lat="45.17114" lon="5.93658">
        <ele>1971.7</ele>
        <time>2021-02-20T14:33:15Z</time>
      </trkpt>
      <trkpt lat="45.17115" lon="5.93653">
        <ele>1971.9</ele>
        <time>2021-02-20T14:33:16Z</time>
      </trkpt>
      <trkpt lat="45.17115" lon="5.93651">
        <ele>1971.9</ele>
        <time>2021-02-20T14:33:17Z</time>
      </trkpt>
      <trkpt lat="45.17117" lon="5.93647">
        <ele>1972.2</ele>
        <time>2021-02-20T14:33:18Z</time>
      </trkpt>
      <trkpt lat="45.17117" lon="5.93645">
        <ele>1972.3</ele>
        <time>2021-02-20T14:33:19Z</time>
      </trkpt>
      <trkpt lat="45.17119" lon="5.9364">
        <ele>1972.5</ele>
        <time>2021-02-20T14:33:20Z</time>
      </trkpt>
      <trkpt lat="45.1712" lon="5.93638">
        <ele>1972.7</ele>
        <time>2021-02-20T14:33:21Z</time>
      </trkpt>
      <trkpt lat="45.17123" lon="5.93635">
        <ele>1972.9</ele>
        <time>2021-02-20T14:33:22Z</time>
      </trkpt>
      <trkpt lat="45.17124" lon="5.93635">
        <ele>1973</ele>
        <time>2021-02-20T14:33:23Z</time>
      </trkpt>
      <trkpt lat="45.17126" lon="5.93633">
        <ele>1973.3</ele>
        <time>2021-02-20T14:33:24Z</time>
      </trkpt>
      <trkpt lat="45.17127" lon="5.93632">
        <ele>1973.4</ele>
        <time>2021-02-20T14:33:25Z</time>
      </trkpt>
      <trkpt lat="45.1713" lon="5.93629">
        <ele>1973.7</ele>
        <time>2021-02-20T14:33:26Z</time>
      </trkpt>
      <trkpt lat="45.17131" lon="5.93628">
        <ele>1973.8</ele>
        <time>2021-02-20T14:33:27Z</time>
      </trkpt>
      <trkpt lat="45.17134" lon="5.93626">
        <ele>1974</ele>
        <time>2021-02-20T14:33:28Z</time>
      </trkpt>
      <trkpt lat="45.17137" lon="5.93623">
        <ele>1974.3</ele>
        <time>2021-02-20T14:33:29Z</time>
      </trkpt>
      <trkpt lat="45.17139" lon="5.93622">
        <ele>1974.4</ele>
        <time>2021-02-20T14:33:30Z</time>
      </trkpt>
      <trkpt lat="45.17141" lon="5.9362">
        <ele>1974.7</ele>
        <time>2021-02-20T14:33:31Z</time>
      </trkpt>
      <trkpt lat="45.17143" lon="5.93617">
        <ele>1974.8</ele>
        <time>2021-02-20T14:33:32Z</time>
      </trkpt>
      <trkpt lat="45.17146" lon="5.93614">
        <ele>1974.9</ele>
        <time>2021-02-20T14:33:33Z</time>
      </trkpt>
      <trkpt lat="45.17147" lon="5.93613">
        <ele>1975</ele>
        <time>2021-02-20T14:33:34Z</time>
      </trkpt>
      <trkpt lat="45.17149" lon="5.9361">
        <ele>1975.1</ele>
        <time>2021-02-20T14:33:35Z</time>
      </trkpt>
      <trkpt lat="45.1715" lon="5.93609">
        <ele>1975.1</ele>
        <time>2021-02-20T14:33:36Z</time>
      </trkpt>
      <trkpt lat="45.17153" lon="5.93605">
        <ele>1975.1</ele>
        <time>2021-02-20T14:33:37Z</time>
      </trkpt>
      <trkpt lat="45.17154" lon="5.93604">
        <ele>1975.1</ele>
        <time>2021-02-20T14:33:38Z</time>
      </trkpt>
      <trkpt lat="45.17156" lon="5.93602">
        <ele>1975.1</ele>
        <time>2021-02-20T14:33:39Z</time>
      </trkpt>
      <trkpt lat="45.17156" lon="5.93603">
        <ele>1975</ele>
        <time>2021-02-20T14:33:40Z</time>
      </trkpt>
      <trkpt lat="45.17157" lon="5.93605">
        <ele>1975</ele>
        <time>2021-02-20T14:33:41Z</time>
      </trkpt>
      <trkpt lat="45.17157" lon="5.93606">
        <ele>1975</ele>
        <time>2021-02-20T14:33:42Z</time>
      </trkpt>
      <trkpt lat="45.17158" lon="5.93608">
        <ele>1974.9</ele>
        <time>2021-02-20T14:33:43Z</time>
      </trkpt>
      <trkpt lat="45.17158" lon="5.93609">
        <ele>1974.9</ele>
        <time>2021-02-20T14:33:44Z</time>
      </trkpt>
      <trkpt lat="45.17158" lon="5.9361">
        <ele>1974.8</ele>
        <time>2021-02-20T14:33:45Z</time>
      </trkpt>
      <trkpt lat="45.17162" lon="5.93613">
        <ele>1974.6</ele>
        <time>2021-02-20T14:33:46Z</time>
      </trkpt>
      <trkpt lat="45.17163" lon="5.93615">
        <ele>1974.5</ele>
        <time>2021-02-20T14:33:47Z</time>
      </trkpt>
      <trkpt lat="45.17165" lon="5.93619">
        <ele>1974.1</ele>
        <time>2021-02-20T14:33:48Z</time>
      </trkpt>
      <trkpt lat="45.17169" lon="5.93624">
        <ele>1973.6</ele>
        <time>2021-02-20T14:33:49Z</time>
      </trkpt>
      <trkpt lat="45.17171" lon="5.93628">
        <ele>1973.1</ele>
        <time>2021-02-20T14:33:50Z</time>
      </trkpt>
      <trkpt lat="45.17174" lon="5.93633">
        <ele>1972.6</ele>
        <time>2021-02-20T14:33:51Z</time>
      </trkpt>
      <trkpt lat="45.17176" lon="5.93635">
        <ele>1972.3</ele>
        <time>2021-02-20T14:33:52Z</time>
      </trkpt>
      <trkpt lat="45.17175" lon="5.93636">
        <ele>1972.2</ele>
        <time>2021-02-20T14:33:53Z</time>
      </trkpt>
      <trkpt lat="45.17176" lon="5.93636">
        <ele>1972.2</ele>
        <time>2021-02-20T14:33:54Z</time>
      </trkpt>
      <trkpt lat="45.17176" lon="5.93637">
        <ele>1972.1</ele>
        <time>2021-02-20T14:33:55Z</time>
      </trkpt>
      <trkpt lat="45.17177" lon="5.93637">
        <ele>1972</ele>
        <time>2021-02-20T14:33:56Z</time>
      </trkpt>
      <trkpt lat="45.17177" lon="5.93637">
        <ele>1972</ele>
        <time>2021-02-20T14:33:57Z</time>
      </trkpt>
      <trkpt lat="45.17177" lon="5.93637">
        <ele>1972</ele>
        <time>2021-02-20T14:33:58Z</time>
      </trkpt>
      <trkpt lat="45.17178" lon="5.93636">
        <ele>1971.9</ele>
        <time>2021-02-20T14:33:59Z</time>
      </trkpt>
      <trkpt lat="45.17178" lon="5.93636">
        <ele>1971.8</ele>
        <time>2021-02-20T14:34:00Z</time>
      </trkpt>
      <trkpt lat="45.17179" lon="5.93637">
        <ele>1971.7</ele>
        <time>2021-02-20T14:34:01Z</time>
      </trkpt>
      <trkpt lat="45.17179" lon="5.93637">
        <ele>1971.7</ele>
        <time>2021-02-20T14:34:02Z</time>
      </trkpt>
      <trkpt lat="45.1718" lon="5.93637">
        <ele>1971.7</ele>
        <time>2021-02-20T14:34:03Z</time>
      </trkpt>
      <trkpt lat="45.1718" lon="5.93638">
        <ele>1971.6</ele>
        <time>2021-02-20T14:34:04Z</time>
      </trkpt>
      <trkpt lat="45.17181" lon="5.93638">
        <ele>1971.5</ele>
        <time>2021-02-20T14:34:05Z</time>
      </trkpt>
      <trkpt lat="45.17181" lon="5.93638">
        <ele>1971.5</ele>
        <time>2021-02-20T14:34:06Z</time>
      </trkpt>
      <trkpt lat="45.17181" lon="5.93638">
        <ele>1971.5</ele>
        <time>2021-02-20T14:34:07Z</time>
      </trkpt>
      <trkpt lat="45.17182" lon="5.93638">
        <ele>1971.3</ele>
        <time>2021-02-20T14:34:08Z</time>
      </trkpt>
      <trkpt lat="45.17183" lon="5.93638">
        <ele>1971.3</ele>
        <time>2021-02-20T14:34:09Z</time>
      </trkpt>
      <trkpt lat="45.17184" lon="5.93639">
        <ele>1971.1</ele>
        <time>2021-02-20T14:34:10Z</time>
      </trkpt>
      <trkpt lat="45.17186" lon="5.93641">
        <ele>1970.9</ele>
        <time>2021-02-20T14:34:11Z</time>
      </trkpt>
      <trkpt lat="45.17187" lon="5.93641">
        <ele>1970.8</ele>
        <time>2021-02-20T14:34:12Z</time>
      </trkpt>
      <trkpt lat="45.17188" lon="5.93642">
        <ele>1970.7</ele>
        <time>2021-02-20T14:34:13Z</time>
      </trkpt>
      <trkpt lat="45.17191" lon="5.93645">
        <ele>1970.4</ele>
        <time>2021-02-20T14:34:14Z</time>
      </trkpt>
      <trkpt lat="45.17192" lon="5.93646">
        <ele>1970.2</ele>
        <time>2021-02-20T14:34:15Z</time>
      </trkpt>
      <trkpt lat="45.17196" lon="5.93647">
        <ele>1970</ele>
        <time>2021-02-20T14:34:16Z</time>
      </trkpt>
      <trkpt lat="45.172" lon="5.93648">
        <ele>1969.8</ele>
        <time>2021-02-20T14:34:17Z</time>
      </trkpt>
      <trkpt lat="45.17205" lon="5.93646">
        <ele>1969.7</ele>
        <time>2021-02-20T14:34:18Z</time>
      </trkpt>
      <trkpt lat="45.1721" lon="5.93645">
        <ele>1969.6</ele>
        <time>2021-02-20T14:34:19Z</time>
      </trkpt>
      <trkpt lat="45.17213" lon="5.93646">
        <ele>1969.6</ele>
        <time>2021-02-20T14:34:20Z</time>
      </trkpt>
      <trkpt lat="45.17217" lon="5.93645">
        <ele>1969.5</ele>
        <time>2021-02-20T14:34:21Z</time>
      </trkpt>
      <trkpt lat="45.17221" lon="5.93644">
        <ele>1969.5</ele>
        <time>2021-02-20T14:34:22Z</time>
      </trkpt>
      <trkpt lat="45.17224" lon="5.93644">
        <ele>1969.4</ele>
        <time>2021-02-20T14:34:23Z</time>
      </trkpt>
      <trkpt lat="45.17227" lon="5.93643">
        <ele>1969.4</ele>
        <time>2021-02-20T14:34:24Z</time>
      </trkpt>
      <trkpt lat="45.17229" lon="5.93643">
        <ele>1969.3</ele>
        <time>2021-02-20T14:34:25Z</time>
      </trkpt>
      <trkpt lat="45.17232" lon="5.93643">
        <ele>1969.2</ele>
        <time>2021-02-20T14:34:26Z</time>
      </trkpt>
      <trkpt lat="45.17233" lon="5.93642">
        <ele>1969.2</ele>
        <time>2021-02-20T14:34:27Z</time>
      </trkpt>
      <trkpt lat="45.17234" lon="5.93642">
        <ele>1969.1</ele>
        <time>2021-02-20T14:34:28Z</time>
      </trkpt>
      <trkpt lat="45.17236" lon="5.93641">
        <ele>1969.1</ele>
        <time>2021-02-20T14:34:29Z</time>
      </trkpt>
      <trkpt lat="45.17237" lon="5.9364">
        <ele>1969</ele>
        <time>2021-02-20T14:34:30Z</time>
      </trkpt>
      <trkpt lat="45.17238" lon="5.93639">
        <ele>1969</ele>
        <time>2021-02-20T14:34:31Z</time>
      </trkpt>
      <trkpt lat="45.17241" lon="5.93638">
        <ele>1968.9</ele>
        <time>2021-02-20T14:34:32Z</time>
      </trkpt>
      <trkpt lat="45.17242" lon="5.93638">
        <ele>1968.8</ele>
        <time>2021-02-20T14:34:33Z</time>
      </trkpt>
      <trkpt lat="45.17245" lon="5.93636">
        <ele>1968.6</ele>
        <time>2021-02-20T14:34:34Z</time>
      </trkpt>
      <trkpt lat="45.17246" lon="5.93635">
        <ele>1968.5</ele>
        <time>2021-02-20T14:34:35Z</time>
      </trkpt>
      <trkpt lat="45.1725" lon="5.93634">
        <ele>1968.3</ele>
        <time>2021-02-20T14:34:36Z</time>
      </trkpt>
      <trkpt lat="45.17251" lon="5.93633">
        <ele>1968.2</ele>
        <time>2021-02-20T14:34:37Z</time>
      </trkpt>
      <trkpt lat="45.17255" lon="5.93632">
        <ele>1967.9</ele>
        <time>2021-02-20T14:34:38Z</time>
      </trkpt>
      <trkpt lat="45.17256" lon="5.93632">
        <ele>1967.8</ele>
        <time>2021-02-20T14:34:39Z</time>
      </trkpt>
      <trkpt lat="45.17259" lon="5.93632">
        <ele>1967.5</ele>
        <time>2021-02-20T14:34:40Z</time>
      </trkpt>
      <trkpt lat="45.17263" lon="5.93631">
        <ele>1967.1</ele>
        <time>2021-02-20T14:34:41Z</time>
      </trkpt>
      <trkpt lat="45.17266" lon="5.9363">
        <ele>1966.8</ele>
        <time>2021-02-20T14:34:42Z</time>
      </trkpt>
      <trkpt lat="45.1727" lon="5.93629">
        <ele>1966.4</ele>
        <time>2021-02-20T14:34:43Z</time>
      </trkpt>
      <trkpt lat="45.17273" lon="5.93628">
        <ele>1966</ele>
        <time>2021-02-20T14:34:44Z</time>
      </trkpt>
      <trkpt lat="45.17277" lon="5.93627">
        <ele>1965.6</ele>
        <time>2021-02-20T14:34:45Z</time>
      </trkpt>
      <trkpt lat="45.1728" lon="5.93627">
        <ele>1965.3</ele>
        <time>2021-02-20T14:34:46Z</time>
      </trkpt>
      <trkpt lat="45.17281" lon="5.93627">
        <ele>1965.2</ele>
        <time>2021-02-20T14:34:47Z</time>
      </trkpt>
      <trkpt lat="45.17282" lon="5.93627">
        <ele>1964.4</ele>
        <time>2021-02-20T14:34:48Z</time>
      </trkpt>
      <trkpt lat="45.17283" lon="5.93626">
        <ele>1963.1</ele>
        <time>2021-02-20T14:34:49Z</time>
      </trkpt>
      <trkpt lat="45.17284" lon="5.93625">
        <ele>1963.1</ele>
        <time>2021-02-20T14:34:50Z</time>
      </trkpt>
      <trkpt lat="45.17287" lon="5.93623">
        <ele>1962.1</ele>
        <time>2021-02-20T14:34:51Z</time>
      </trkpt>
      <trkpt lat="45.17288" lon="5.93622">
        <ele>1961.1</ele>
        <time>2021-02-20T14:34:52Z</time>
      </trkpt>
      <trkpt lat="45.17291" lon="5.93621">
        <ele>1958.8</ele>
        <time>2021-02-20T14:34:53Z</time>
      </trkpt>
      <trkpt lat="45.17295" lon="5.93622">
        <ele>1957.8</ele>
        <time>2021-02-20T14:34:54Z</time>
      </trkpt>
      <trkpt lat="45.17299" lon="5.93623">
        <ele>1958.3</ele>
        <time>2021-02-20T14:34:55Z</time>
      </trkpt>
      <trkpt lat="45.17303" lon="5.93625">
        <ele>1956.7</ele>
        <time>2021-02-20T14:34:56Z</time>
      </trkpt>
      <trkpt lat="45.17307" lon="5.93623">
        <ele>1955.9</ele>
        <time>2021-02-20T14:34:57Z</time>
      </trkpt>
      <trkpt lat="45.17313" lon="5.93617">
        <ele>1951.3</ele>
        <time>2021-02-20T14:34:58Z</time>
      </trkpt>
      <trkpt lat="45.17317" lon="5.93618">
        <ele>1951.4</ele>
        <time>2021-02-20T14:34:59Z</time>
      </trkpt>
      <trkpt lat="45.17321" lon="5.93619">
        <ele>1950.6</ele>
        <time>2021-02-20T14:35:00Z</time>
      </trkpt>
      <trkpt lat="45.17325" lon="5.93618">
        <ele>1948.3</ele>
        <time>2021-02-20T14:35:01Z</time>
      </trkpt>
      <trkpt lat="45.17327" lon="5.93613">
        <ele>1945.9</ele>
        <time>2021-02-20T14:35:02Z</time>
      </trkpt>
      <trkpt lat="45.17329" lon="5.93611">
        <ele>1945.9</ele>
        <time>2021-02-20T14:35:03Z</time>
      </trkpt>
      <trkpt lat="45.17332" lon="5.9361">
        <ele>1945.1</ele>
        <time>2021-02-20T14:35:04Z</time>
      </trkpt>
      <trkpt lat="45.17335" lon="5.93608">
        <ele>1942.6</ele>
        <time>2021-02-20T14:35:05Z</time>
      </trkpt>
      <trkpt lat="45.17339" lon="5.93605">
        <ele>1939.4</ele>
        <time>2021-02-20T14:35:06Z</time>
      </trkpt>
      <trkpt lat="45.17342" lon="5.93604">
        <ele>1938.7</ele>
        <time>2021-02-20T14:35:07Z</time>
      </trkpt>
      <trkpt lat="45.17344" lon="5.93605">
        <ele>1938.7</ele>
        <time>2021-02-20T14:35:08Z</time>
      </trkpt>
      <trkpt lat="45.17345" lon="5.93606">
        <ele>1939.7</ele>
        <time>2021-02-20T14:35:09Z</time>
      </trkpt>
      <trkpt lat="45.17348" lon="5.93609">
        <ele>1939</ele>
        <time>2021-02-20T14:35:10Z</time>
      </trkpt>
      <trkpt lat="45.17349" lon="5.9361">
        <ele>1940.7</ele>
        <time>2021-02-20T14:35:11Z</time>
      </trkpt>
      <trkpt lat="45.17351" lon="5.9361">
        <ele>1940</ele>
        <time>2021-02-20T14:35:12Z</time>
      </trkpt>
      <trkpt lat="45.17351" lon="5.93609">
        <ele>1938.3</ele>
        <time>2021-02-20T14:35:13Z</time>
      </trkpt>
      <trkpt lat="45.1735" lon="5.93606">
        <ele>1938.9</ele>
        <time>2021-02-20T14:35:14Z</time>
      </trkpt>
      <trkpt lat="45.1735" lon="5.93606">
        <ele>1938.9</ele>
        <time>2021-02-20T14:35:15Z</time>
      </trkpt>
      <trkpt lat="45.1735" lon="5.93606">
        <ele>1938.9</ele>
        <time>2021-02-20T14:35:16Z</time>
      </trkpt>
      <trkpt lat="45.1735" lon="5.93605">
        <ele>1938.9</ele>
        <time>2021-02-20T14:35:17Z</time>
      </trkpt>
      <trkpt lat="45.1735" lon="5.93605">
        <ele>1937.2</ele>
        <time>2021-02-20T14:35:18Z</time>
      </trkpt>
      <trkpt lat="45.1735" lon="5.93605">
        <ele>1937.1</ele>
        <time>2021-02-20T14:35:19Z</time>
      </trkpt>
      <trkpt lat="45.1735" lon="5.93604">
        <ele>1937.1</ele>
        <time>2021-02-20T14:35:20Z</time>
      </trkpt>
      <trkpt lat="45.17349" lon="5.93604">
        <ele>1937.1</ele>
        <time>2021-02-20T14:35:21Z</time>
      </trkpt>
      <trkpt lat="45.17349" lon="5.93604">
        <ele>1937.1</ele>
        <time>2021-02-20T14:35:22Z</time>
      </trkpt>
      <trkpt lat="45.17349" lon="5.93603">
        <ele>1937.1</ele>
        <time>2021-02-20T14:35:23Z</time>
      </trkpt>
      <trkpt lat="45.17349" lon="5.93603">
        <ele>1937</ele>
        <time>2021-02-20T14:35:24Z</time>
      </trkpt>
      <trkpt lat="45.17349" lon="5.93603">
        <ele>1937</ele>
        <time>2021-02-20T14:35:25Z</time>
      </trkpt>
      <trkpt lat="45.17349" lon="5.93602">
        <ele>1937</ele>
        <time>2021-02-20T14:35:26Z</time>
      </trkpt>
      <trkpt lat="45.17348" lon="5.93602">
        <ele>1937</ele>
        <time>2021-02-20T14:35:27Z</time>
      </trkpt>
      <trkpt lat="45.17348" lon="5.93602">
        <ele>1936.9</ele>
        <time>2021-02-20T14:35:28Z</time>
      </trkpt>
      <trkpt lat="45.17348" lon="5.93601">
        <ele>1936.9</ele>
        <time>2021-02-20T14:35:29Z</time>
      </trkpt>
      <trkpt lat="45.17348" lon="5.93601">
        <ele>1936.9</ele>
        <time>2021-02-20T14:35:30Z</time>
      </trkpt>
      <trkpt lat="45.17349" lon="5.93599">
        <ele>1935.2</ele>
        <time>2021-02-20T14:35:31Z</time>
      </trkpt>
      <trkpt lat="45.17351" lon="5.93598">
        <ele>1934.5</ele>
        <time>2021-02-20T14:35:32Z</time>
      </trkpt>
      <trkpt lat="45.17355" lon="5.93599">
        <ele>1933.8</ele>
        <time>2021-02-20T14:35:33Z</time>
      </trkpt>
      <trkpt lat="45.17356" lon="5.936">
        <ele>1933.8</ele>
        <time>2021-02-20T14:35:34Z</time>
      </trkpt>
      <trkpt lat="45.17359" lon="5.93598">
        <ele>1933</ele>
        <time>2021-02-20T14:35:35Z</time>
      </trkpt>
      <trkpt lat="45.1736" lon="5.93597">
        <ele>1933</ele>
        <time>2021-02-20T14:35:36Z</time>
      </trkpt>
      <trkpt lat="45.17363" lon="5.93594">
        <ele>1929.9</ele>
        <time>2021-02-20T14:35:37Z</time>
      </trkpt>
      <trkpt lat="45.17364" lon="5.93593">
        <ele>1929.9</ele>
        <time>2021-02-20T14:35:38Z</time>
      </trkpt>
      <trkpt lat="45.17366" lon="5.93588">
        <ele>1927.6</ele>
        <time>2021-02-20T14:35:39Z</time>
      </trkpt>
      <trkpt lat="45.17369" lon="5.93581">
        <ele>1924.5</ele>
        <time>2021-02-20T14:35:40Z</time>
      </trkpt>
      <trkpt lat="45.17371" lon="5.93574">
        <ele>1921.1</ele>
        <time>2021-02-20T14:35:41Z</time>
      </trkpt>
      <trkpt lat="45.17373" lon="5.93569">
        <ele>1919.2</ele>
        <time>2021-02-20T14:35:42Z</time>
      </trkpt>
      <trkpt lat="45.17376" lon="5.93567">
        <ele>1918.5</ele>
        <time>2021-02-20T14:35:43Z</time>
      </trkpt>
      <trkpt lat="45.17381" lon="5.93566">
        <ele>1916.7</ele>
        <time>2021-02-20T14:35:44Z</time>
      </trkpt>
      <trkpt lat="45.17384" lon="5.93579">
        <ele>1919.1</ele>
        <time>2021-02-20T14:35:45Z</time>
      </trkpt>
      <trkpt lat="45.17388" lon="5.93578">
        <ele>1918.5</ele>
        <time>2021-02-20T14:35:46Z</time>
      </trkpt>
      <trkpt lat="45.17389" lon="5.93577">
        <ele>1918.5</ele>
        <time>2021-02-20T14:35:47Z</time>
      </trkpt>
      <trkpt lat="45.17392" lon="5.93574">
        <ele>1916.5</ele>
        <time>2021-02-20T14:35:48Z</time>
      </trkpt>
      <trkpt lat="45.17396" lon="5.93571">
        <ele>1915.8</ele>
        <time>2021-02-20T14:35:49Z</time>
      </trkpt>
      <trkpt lat="45.17397" lon="5.93565">
        <ele>1912.8</ele>
        <time>2021-02-20T14:35:50Z</time>
      </trkpt>
      <trkpt lat="45.17394" lon="5.93557">
        <ele>1911</ele>
        <time>2021-02-20T14:35:51Z</time>
      </trkpt>
      <trkpt lat="45.17395" lon="5.93548">
        <ele>1908.7</ele>
        <time>2021-02-20T14:35:52Z</time>
      </trkpt>
      <trkpt lat="45.17396" lon="5.93541">
        <ele>1906.7</ele>
        <time>2021-02-20T14:35:53Z</time>
      </trkpt>
      <trkpt lat="45.17395" lon="5.93535">
        <ele>1905.8</ele>
        <time>2021-02-20T14:35:54Z</time>
      </trkpt>
      <trkpt lat="45.17395" lon="5.93531">
        <ele>1905</ele>
        <time>2021-02-20T14:35:55Z</time>
      </trkpt>
      <trkpt lat="45.17395" lon="5.93526">
        <ele>1904.1</ele>
        <time>2021-02-20T14:35:56Z</time>
      </trkpt>
      <trkpt lat="45.17395" lon="5.93525">
        <ele>1904.1</ele>
        <time>2021-02-20T14:35:57Z</time>
      </trkpt>
      <trkpt lat="45.17395" lon="5.93522">
        <ele>1903.3</ele>
        <time>2021-02-20T14:35:58Z</time>
      </trkpt>
      <trkpt lat="45.17394" lon="5.93521">
        <ele>1903.3</ele>
        <time>2021-02-20T14:35:59Z</time>
      </trkpt>
      <trkpt lat="45.17394" lon="5.93519">
        <ele>1902.6</ele>
        <time>2021-02-20T14:36:00Z</time>
      </trkpt>
      <trkpt lat="45.17394" lon="5.93514">
        <ele>1901.9</ele>
        <time>2021-02-20T14:36:01Z</time>
      </trkpt>
      <trkpt lat="45.17392" lon="5.93504">
        <ele>1901.3</ele>
        <time>2021-02-20T14:36:02Z</time>
      </trkpt>
      <trkpt lat="45.17392" lon="5.93494">
        <ele>1900.2</ele>
        <time>2021-02-20T14:36:03Z</time>
      </trkpt>
      <trkpt lat="45.17394" lon="5.93488">
        <ele>1898.4</ele>
        <time>2021-02-20T14:36:04Z</time>
      </trkpt>
      <trkpt lat="45.17396" lon="5.93484">
        <ele>1897.9</ele>
        <time>2021-02-20T14:36:05Z</time>
      </trkpt>
      <trkpt lat="45.17398" lon="5.93479">
        <ele>1896.6</ele>
        <time>2021-02-20T14:36:06Z</time>
      </trkpt>
      <trkpt lat="45.17399" lon="5.93475">
        <ele>1896</ele>
        <time>2021-02-20T14:36:07Z</time>
      </trkpt>
      <trkpt lat="45.17396" lon="5.93471">
        <ele>1896.3</ele>
        <time>2021-02-20T14:36:08Z</time>
      </trkpt>
      <trkpt lat="45.17392" lon="5.93469">
        <ele>1897.1</ele>
        <time>2021-02-20T14:36:09Z</time>
      </trkpt>
      <trkpt lat="45.17389" lon="5.93463">
        <ele>1896.8</ele>
        <time>2021-02-20T14:36:10Z</time>
      </trkpt>
      <trkpt lat="45.17391" lon="5.93457">
        <ele>1895.3</ele>
        <time>2021-02-20T14:36:11Z</time>
      </trkpt>
      <trkpt lat="45.17395" lon="5.93449">
        <ele>1893.3</ele>
        <time>2021-02-20T14:36:12Z</time>
      </trkpt>
      <trkpt lat="45.17399" lon="5.9344">
        <ele>1891.5</ele>
        <time>2021-02-20T14:36:13Z</time>
      </trkpt>
      <trkpt lat="45.17401" lon="5.93431">
        <ele>1889.8</ele>
        <time>2021-02-20T14:36:14Z</time>
      </trkpt>
      <trkpt lat="45.17405" lon="5.93423">
        <ele>1888.1</ele>
        <time>2021-02-20T14:36:15Z</time>
      </trkpt>
      <trkpt lat="45.17406" lon="5.93415">
        <ele>1886.4</ele>
        <time>2021-02-20T14:36:16Z</time>
      </trkpt>
      <trkpt lat="45.17407" lon="5.9341">
        <ele>1885.9</ele>
        <time>2021-02-20T14:36:17Z</time>
      </trkpt>
      <trkpt lat="45.17409" lon="5.93408">
        <ele>1884.6</ele>
        <time>2021-02-20T14:36:18Z</time>
      </trkpt>
      <trkpt lat="45.17412" lon="5.934">
        <ele>1883.3</ele>
        <time>2021-02-20T14:36:19Z</time>
      </trkpt>
      <trkpt lat="45.17413" lon="5.93394">
        <ele>1882.3</ele>
        <time>2021-02-20T14:36:20Z</time>
      </trkpt>
      <trkpt lat="45.17412" lon="5.93389">
        <ele>1881.9</ele>
        <time>2021-02-20T14:36:21Z</time>
      </trkpt>
      <trkpt lat="45.17412" lon="5.93382">
        <ele>1881.4</ele>
        <time>2021-02-20T14:36:22Z</time>
      </trkpt>
      <trkpt lat="45.17413" lon="5.93376">
        <ele>1880.4</ele>
        <time>2021-02-20T14:36:23Z</time>
      </trkpt>
      <trkpt lat="45.17413" lon="5.93369">
        <ele>1879.9</ele>
        <time>2021-02-20T14:36:24Z</time>
      </trkpt>
      <trkpt lat="45.17415" lon="5.93362">
        <ele>1878.1</ele>
        <time>2021-02-20T14:36:25Z</time>
      </trkpt>
      <trkpt lat="45.17416" lon="5.93356">
        <ele>1877.3</ele>
        <time>2021-02-20T14:36:26Z</time>
      </trkpt>
      <trkpt lat="45.17419" lon="5.9335">
        <ele>1876.1</ele>
        <time>2021-02-20T14:36:27Z</time>
      </trkpt>
      <trkpt lat="45.17421" lon="5.93347">
        <ele>1874.9</ele>
        <time>2021-02-20T14:36:28Z</time>
      </trkpt>
      <trkpt lat="45.17424" lon="5.93344">
        <ele>1874</ele>
        <time>2021-02-20T14:36:29Z</time>
      </trkpt>
      <trkpt lat="45.17425" lon="5.93342">
        <ele>1873.7</ele>
        <time>2021-02-20T14:36:30Z</time>
      </trkpt>
      <trkpt lat="45.17427" lon="5.93337">
        <ele>1872.6</ele>
        <time>2021-02-20T14:36:31Z</time>
      </trkpt>
      <trkpt lat="45.17426" lon="5.9333">
        <ele>1872.7</ele>
        <time>2021-02-20T14:36:32Z</time>
      </trkpt>
      <trkpt lat="45.17429" lon="5.93323">
        <ele>1871.6</ele>
        <time>2021-02-20T14:36:33Z</time>
      </trkpt>
      <trkpt lat="45.17431" lon="5.93322">
        <ele>1870.4</ele>
        <time>2021-02-20T14:36:34Z</time>
      </trkpt>
      <trkpt lat="45.17434" lon="5.9332">
        <ele>1869.1</ele>
        <time>2021-02-20T14:36:35Z</time>
      </trkpt>
      <trkpt lat="45.17437" lon="5.93317">
        <ele>1867.8</ele>
        <time>2021-02-20T14:36:36Z</time>
      </trkpt>
      <trkpt lat="45.17438" lon="5.93314">
        <ele>1867.8</ele>
        <time>2021-02-20T14:36:37Z</time>
      </trkpt>
      <trkpt lat="45.17437" lon="5.93313">
        <ele>1867.4</ele>
        <time>2021-02-20T14:36:38Z</time>
      </trkpt>
      <trkpt lat="45.17437" lon="5.93313">
        <ele>1867.3</ele>
        <time>2021-02-20T14:36:39Z</time>
      </trkpt>
      <trkpt lat="45.17437" lon="5.93313">
        <ele>1867.3</ele>
        <time>2021-02-20T14:36:40Z</time>
      </trkpt>
      <trkpt lat="45.17437" lon="5.93313">
        <ele>1867.3</ele>
        <time>2021-02-20T14:36:41Z</time>
      </trkpt>
      <trkpt lat="45.17436" lon="5.93313">
        <ele>1867.3</ele>
        <time>2021-02-20T14:36:42Z</time>
      </trkpt>
      <trkpt lat="45.17436" lon="5.93313">
        <ele>1867.6</ele>
        <time>2021-02-20T14:36:43Z</time>
      </trkpt>
      <trkpt lat="45.17436" lon="5.93313">
        <ele>1867.6</ele>
        <time>2021-02-20T14:36:44Z</time>
      </trkpt>
      <trkpt lat="45.17437" lon="5.93313">
        <ele>1867.2</ele>
        <time>2021-02-20T14:36:45Z</time>
      </trkpt>
      <trkpt lat="45.17439" lon="5.93312">
        <ele>1866.1</ele>
        <time>2021-02-20T14:36:46Z</time>
      </trkpt>
      <trkpt lat="45.17439" lon="5.93311">
        <ele>1866.1</ele>
        <time>2021-02-20T14:36:47Z</time>
      </trkpt>
      <trkpt lat="45.17442" lon="5.93308">
        <ele>1864.5</ele>
        <time>2021-02-20T14:36:48Z</time>
      </trkpt>
      <trkpt lat="45.17442" lon="5.93307">
        <ele>1864.5</ele>
        <time>2021-02-20T14:36:49Z</time>
      </trkpt>
      <trkpt lat="45.17441" lon="5.93302">
        <ele>1865.2</ele>
        <time>2021-02-20T14:36:50Z</time>
      </trkpt>
      <trkpt lat="45.17439" lon="5.93301">
        <ele>1865.2</ele>
        <time>2021-02-20T14:36:51Z</time>
      </trkpt>
      <trkpt lat="45.17438" lon="5.93297">
        <ele>1865.8</ele>
        <time>2021-02-20T14:36:52Z</time>
      </trkpt>
      <trkpt lat="45.17438" lon="5.93293">
        <ele>1865.4</ele>
        <time>2021-02-20T14:36:53Z</time>
      </trkpt>
      <trkpt lat="45.17439" lon="5.93289">
        <ele>1864</ele>
        <time>2021-02-20T14:36:54Z</time>
      </trkpt>
      <trkpt lat="45.17443" lon="5.93287">
        <ele>1862.5</ele>
        <time>2021-02-20T14:36:55Z</time>
      </trkpt>
      <trkpt lat="45.17446" lon="5.93286">
        <ele>1861.5</ele>
        <time>2021-02-20T14:36:56Z</time>
      </trkpt>
      <trkpt lat="45.17449" lon="5.93285">
        <ele>1860.4</ele>
        <time>2021-02-20T14:36:57Z</time>
      </trkpt>
      <trkpt lat="45.17452" lon="5.93283">
        <ele>1859.1</ele>
        <time>2021-02-20T14:36:58Z</time>
      </trkpt>
      <trkpt lat="45.17452" lon="5.93281">
        <ele>1859</ele>
        <time>2021-02-20T14:36:59Z</time>
      </trkpt>
      <trkpt lat="45.17452" lon="5.93276">
        <ele>1858.6</ele>
        <time>2021-02-20T14:37:00Z</time>
      </trkpt>
      <trkpt lat="45.1745" lon="5.93269">
        <ele>1858.7</ele>
        <time>2021-02-20T14:37:01Z</time>
      </trkpt>
      <trkpt lat="45.17447" lon="5.93264">
        <ele>1859.1</ele>
        <time>2021-02-20T14:37:02Z</time>
      </trkpt>
      <trkpt lat="45.17445" lon="5.93259">
        <ele>1858.4</ele>
        <time>2021-02-20T14:37:03Z</time>
      </trkpt>
      <trkpt lat="45.17442" lon="5.93255">
        <ele>1858.9</ele>
        <time>2021-02-20T14:37:04Z</time>
      </trkpt>
      <trkpt lat="45.1744" lon="5.93251">
        <ele>1859.3</ele>
        <time>2021-02-20T14:37:05Z</time>
      </trkpt>
      <trkpt lat="45.17438" lon="5.93245">
        <ele>1859.7</ele>
        <time>2021-02-20T14:37:06Z</time>
      </trkpt>
      <trkpt lat="45.17436" lon="5.9324">
        <ele>1858.6</ele>
        <time>2021-02-20T14:37:07Z</time>
      </trkpt>
      <trkpt lat="45.17434" lon="5.93236">
        <ele>1858.9</ele>
        <time>2021-02-20T14:37:08Z</time>
      </trkpt>
      <trkpt lat="45.17432" lon="5.93232">
        <ele>1859.1</ele>
        <time>2021-02-20T14:37:09Z</time>
      </trkpt>
      <trkpt lat="45.17435" lon="5.93228">
        <ele>1858.3</ele>
        <time>2021-02-20T14:37:10Z</time>
      </trkpt>
      <trkpt lat="45.17438" lon="5.93225">
        <ele>1856.9</ele>
        <time>2021-02-20T14:37:11Z</time>
      </trkpt>
      <trkpt lat="45.1744" lon="5.93221">
        <ele>1855.4</ele>
        <time>2021-02-20T14:37:12Z</time>
      </trkpt>
      <trkpt lat="45.1744" lon="5.93217">
        <ele>1854.9</ele>
        <time>2021-02-20T14:37:13Z</time>
      </trkpt>
      <trkpt lat="45.17439" lon="5.93212">
        <ele>1854.3</ele>
        <time>2021-02-20T14:37:14Z</time>
      </trkpt>
      <trkpt lat="45.17438" lon="5.93206">
        <ele>1854.6</ele>
        <time>2021-02-20T14:37:15Z</time>
      </trkpt>
      <trkpt lat="45.17436" lon="5.93201">
        <ele>1853.3</ele>
        <time>2021-02-20T14:37:16Z</time>
      </trkpt>
      <trkpt lat="45.17435" lon="5.93197">
        <ele>1853.4</ele>
        <time>2021-02-20T14:37:17Z</time>
      </trkpt>
      <trkpt lat="45.17434" lon="5.93193">
        <ele>1852.6</ele>
        <time>2021-02-20T14:37:18Z</time>
      </trkpt>
      <trkpt lat="45.17433" lon="5.93191">
        <ele>1852.6</ele>
        <time>2021-02-20T14:37:19Z</time>
      </trkpt>
      <trkpt lat="45.17432" lon="5.93191">
        <ele>1853.3</ele>
        <time>2021-02-20T14:37:20Z</time>
      </trkpt>
      <trkpt lat="45.17429" lon="5.9319">
        <ele>1854.4</ele>
        <time>2021-02-20T14:37:21Z</time>
      </trkpt>
      <trkpt lat="45.17426" lon="5.93191">
        <ele>1855.1</ele>
        <time>2021-02-20T14:37:22Z</time>
      </trkpt>
      <trkpt lat="45.17424" lon="5.93191">
        <ele>1855.1</ele>
        <time>2021-02-20T14:37:23Z</time>
      </trkpt>
      <trkpt lat="45.17422" lon="5.9319">
        <ele>1856</ele>
        <time>2021-02-20T14:37:24Z</time>
      </trkpt>
      <trkpt lat="45.17419" lon="5.93188">
        <ele>1856.3</ele>
        <time>2021-02-20T14:37:25Z</time>
      </trkpt>
      <trkpt lat="45.17418" lon="5.93187">
        <ele>1856.3</ele>
        <time>2021-02-20T14:37:26Z</time>
      </trkpt>
      <trkpt lat="45.17416" lon="5.93184">
        <ele>1856.7</ele>
        <time>2021-02-20T14:37:27Z</time>
      </trkpt>
      <trkpt lat="45.17415" lon="5.93182">
        <ele>1856.7</ele>
        <time>2021-02-20T14:37:28Z</time>
      </trkpt>
      <trkpt lat="45.17414" lon="5.93177">
        <ele>1857.2</ele>
        <time>2021-02-20T14:37:29Z</time>
      </trkpt>
      <trkpt lat="45.17413" lon="5.93172">
        <ele>1856.6</ele>
        <time>2021-02-20T14:37:30Z</time>
      </trkpt>
      <trkpt lat="45.17412" lon="5.93168">
        <ele>1856.1</ele>
        <time>2021-02-20T14:37:31Z</time>
      </trkpt>
      <trkpt lat="45.17412" lon="5.93164">
        <ele>1855.5</ele>
        <time>2021-02-20T14:37:32Z</time>
      </trkpt>
      <trkpt lat="45.17412" lon="5.93162">
        <ele>1854.9</ele>
        <time>2021-02-20T14:37:33Z</time>
      </trkpt>
      <trkpt lat="45.17412" lon="5.93157">
        <ele>1854.3</ele>
        <time>2021-02-20T14:37:34Z</time>
      </trkpt>
      <trkpt lat="45.17414" lon="5.93153">
        <ele>1853.7</ele>
        <time>2021-02-20T14:37:35Z</time>
      </trkpt>
      <trkpt lat="45.17415" lon="5.93151">
        <ele>1852.5</ele>
        <time>2021-02-20T14:37:36Z</time>
      </trkpt>
      <trkpt lat="45.17416" lon="5.93149">
        <ele>1851.8</ele>
        <time>2021-02-20T14:37:37Z</time>
      </trkpt>
      <trkpt lat="45.17415" lon="5.93147">
        <ele>1851.8</ele>
        <time>2021-02-20T14:37:38Z</time>
      </trkpt>
      <trkpt lat="45.17415" lon="5.93145">
        <ele>1851.1</ele>
        <time>2021-02-20T14:37:39Z</time>
      </trkpt>
      <trkpt lat="45.17415" lon="5.93143">
        <ele>1851.1</ele>
        <time>2021-02-20T14:37:40Z</time>
      </trkpt>
      <trkpt lat="45.17415" lon="5.93141">
        <ele>1850.4</ele>
        <time>2021-02-20T14:37:41Z</time>
      </trkpt>
      <trkpt lat="45.17415" lon="5.9314">
        <ele>1850.4</ele>
        <time>2021-02-20T14:37:42Z</time>
      </trkpt>
      <trkpt lat="45.17415" lon="5.93135">
        <ele>1849.7</ele>
        <time>2021-02-20T14:37:43Z</time>
      </trkpt>
      <trkpt lat="45.17415" lon="5.93133">
        <ele>1849.7</ele>
        <time>2021-02-20T14:37:44Z</time>
      </trkpt>
      <trkpt lat="45.17414" lon="5.93132">
        <ele>1850.3</ele>
        <time>2021-02-20T14:37:45Z</time>
      </trkpt>
      <trkpt lat="45.17415" lon="5.9313">
        <ele>1849.1</ele>
        <time>2021-02-20T14:37:46Z</time>
      </trkpt>
      <trkpt lat="45.17416" lon="5.93129">
        <ele>1849</ele>
        <time>2021-02-20T14:37:47Z</time>
      </trkpt>
      <trkpt lat="45.17416" lon="5.93129">
        <ele>1849</ele>
        <time>2021-02-20T14:37:48Z</time>
      </trkpt>
      <trkpt lat="45.17417" lon="5.93126">
        <ele>1848.4</ele>
        <time>2021-02-20T14:37:49Z</time>
      </trkpt>
      <trkpt lat="45.17418" lon="5.93125">
        <ele>1847.2</ele>
        <time>2021-02-20T14:37:50Z</time>
      </trkpt>
      <trkpt lat="45.1742" lon="5.93124">
        <ele>1846.6</ele>
        <time>2021-02-20T14:37:51Z</time>
      </trkpt>
      <trkpt lat="45.1742" lon="5.93123">
        <ele>1846.5</ele>
        <time>2021-02-20T14:37:52Z</time>
      </trkpt>
      <trkpt lat="45.1742" lon="5.93123">
        <ele>1846.5</ele>
        <time>2021-02-20T14:37:53Z</time>
      </trkpt>
      <trkpt lat="45.17419" lon="5.93122">
        <ele>1846.5</ele>
        <time>2021-02-20T14:37:54Z</time>
      </trkpt>
      <trkpt lat="45.17419" lon="5.93122">
        <ele>1846.5</ele>
        <time>2021-02-20T14:37:55Z</time>
      </trkpt>
      <trkpt lat="45.17419" lon="5.93122">
        <ele>1846.4</ele>
        <time>2021-02-20T14:37:56Z</time>
      </trkpt>
      <trkpt lat="45.17419" lon="5.93122">
        <ele>1846.4</ele>
        <time>2021-02-20T14:37:57Z</time>
      </trkpt>
      <trkpt lat="45.17418" lon="5.93121">
        <ele>1846.4</ele>
        <time>2021-02-20T14:37:58Z</time>
      </trkpt>
      <trkpt lat="45.17418" lon="5.93121">
        <ele>1846.4</ele>
        <time>2021-02-20T14:37:59Z</time>
      </trkpt>
      <trkpt lat="45.17418" lon="5.93121">
        <ele>1846.4</ele>
        <time>2021-02-20T14:38:00Z</time>
      </trkpt>
      <trkpt lat="45.17418" lon="5.9312">
        <ele>1846.3</ele>
        <time>2021-02-20T14:38:01Z</time>
      </trkpt>
      <trkpt lat="45.17417" lon="5.9312">
        <ele>1845.7</ele>
        <time>2021-02-20T14:38:02Z</time>
      </trkpt>
      <trkpt lat="45.17416" lon="5.93118">
        <ele>1846.9</ele>
        <time>2021-02-20T14:38:03Z</time>
      </trkpt>
      <trkpt lat="45.17416" lon="5.93117">
        <ele>1846.9</ele>
        <time>2021-02-20T14:38:04Z</time>
      </trkpt>
      <trkpt lat="45.17416" lon="5.93117">
        <ele>1846.9</ele>
        <time>2021-02-20T14:38:05Z</time>
      </trkpt>
      <trkpt lat="45.17416" lon="5.93117">
        <ele>1846.8</ele>
        <time>2021-02-20T14:38:06Z</time>
      </trkpt>
      <trkpt lat="45.17416" lon="5.93117">
        <ele>1846.8</ele>
        <time>2021-02-20T14:38:07Z</time>
      </trkpt>
      <trkpt lat="45.17416" lon="5.93117">
        <ele>1846.8</ele>
        <time>2021-02-20T14:38:08Z</time>
      </trkpt>
      <trkpt lat="45.17416" lon="5.93117">
        <ele>1846.8</ele>
        <time>2021-02-20T14:38:09Z</time>
      </trkpt>
      <trkpt lat="45.17416" lon="5.93115">
        <ele>1846.1</ele>
        <time>2021-02-20T14:38:10Z</time>
      </trkpt>
      <trkpt lat="45.17416" lon="5.93116">
        <ele>1846.1</ele>
        <time>2021-02-20T14:38:11Z</time>
      </trkpt>
      <trkpt lat="45.17417" lon="5.93116">
        <ele>1846.7</ele>
        <time>2021-02-20T14:38:12Z</time>
      </trkpt>
      <trkpt lat="45.17417" lon="5.93116">
        <ele>1846.1</ele>
        <time>2021-02-20T14:38:13Z</time>
      </trkpt>
      <trkpt lat="45.17417" lon="5.93114">
        <ele>1846</ele>
        <time>2021-02-20T14:38:14Z</time>
      </trkpt>
      <trkpt lat="45.17418" lon="5.93114">
        <ele>1844.8</ele>
        <time>2021-02-20T14:38:15Z</time>
      </trkpt>
      <trkpt lat="45.17419" lon="5.93115">
        <ele>1844.8</ele>
        <time>2021-02-20T14:38:16Z</time>
      </trkpt>
      <trkpt lat="45.17419" lon="5.93115">
        <ele>1844.8</ele>
        <time>2021-02-20T14:38:17Z</time>
      </trkpt>
      <trkpt lat="45.17421" lon="5.93118">
        <ele>1844.2</ele>
        <time>2021-02-20T14:38:18Z</time>
      </trkpt>
      <trkpt lat="45.17422" lon="5.93119">
        <ele>1844.1</ele>
        <time>2021-02-20T14:38:19Z</time>
      </trkpt>
      <trkpt lat="45.17424" lon="5.93117">
        <ele>1843</ele>
        <time>2021-02-20T14:38:20Z</time>
      </trkpt>
      <trkpt lat="45.17426" lon="5.93114">
        <ele>1842.4</ele>
        <time>2021-02-20T14:38:21Z</time>
      </trkpt>
      <trkpt lat="45.17426" lon="5.93112">
        <ele>1842.4</ele>
        <time>2021-02-20T14:38:22Z</time>
      </trkpt>
      <trkpt lat="45.17425" lon="5.93107">
        <ele>1841.8</ele>
        <time>2021-02-20T14:38:23Z</time>
      </trkpt>
      <trkpt lat="45.17425" lon="5.93106">
        <ele>1841.2</ele>
        <time>2021-02-20T14:38:24Z</time>
      </trkpt>
      <trkpt lat="45.17425" lon="5.93104">
        <ele>1841.2</ele>
        <time>2021-02-20T14:38:25Z</time>
      </trkpt>
      <trkpt lat="45.17425" lon="5.93104">
        <ele>1841.2</ele>
        <time>2021-02-20T14:38:26Z</time>
      </trkpt>
      <trkpt lat="45.17426" lon="5.93104">
        <ele>1841.1</ele>
        <time>2021-02-20T14:38:27Z</time>
      </trkpt>
      <trkpt lat="45.17427" lon="5.93104">
        <ele>1840.2</ele>
        <time>2021-02-20T14:38:28Z</time>
      </trkpt>
      <trkpt lat="45.17427" lon="5.93103">
        <ele>1840.1</ele>
        <time>2021-02-20T14:38:29Z</time>
      </trkpt>
      <trkpt lat="45.17428" lon="5.93103">
        <ele>1840.1</ele>
        <time>2021-02-20T14:38:30Z</time>
      </trkpt>
      <trkpt lat="45.17429" lon="5.93102">
        <ele>1838.1</ele>
        <time>2021-02-20T14:38:31Z</time>
      </trkpt>
      <trkpt lat="45.17429" lon="5.93101">
        <ele>1839.5</ele>
        <time>2021-02-20T14:38:32Z</time>
      </trkpt>
      <trkpt lat="45.1743" lon="5.93101">
        <ele>1838</ele>
        <time>2021-02-20T14:38:33Z</time>
      </trkpt>
      <trkpt lat="45.1743" lon="5.931">
        <ele>1838</ele>
        <time>2021-02-20T14:38:34Z</time>
      </trkpt>
      <trkpt lat="45.1743" lon="5.93099">
        <ele>1837.4</ele>
        <time>2021-02-20T14:38:35Z</time>
      </trkpt>
      <trkpt lat="45.17429" lon="5.93097">
        <ele>1837.4</ele>
        <time>2021-02-20T14:38:36Z</time>
      </trkpt>
      <trkpt lat="45.1743" lon="5.93095">
        <ele>1837.4</ele>
        <time>2021-02-20T14:38:37Z</time>
      </trkpt>
      <trkpt lat="45.17432" lon="5.9309">
        <ele>1836.2</ele>
        <time>2021-02-20T14:38:38Z</time>
      </trkpt>
      <trkpt lat="45.17433" lon="5.93085">
        <ele>1834.7</ele>
        <time>2021-02-20T14:38:39Z</time>
      </trkpt>
      <trkpt lat="45.17432" lon="5.93081">
        <ele>1835</ele>
        <time>2021-02-20T14:38:40Z</time>
      </trkpt>
      <trkpt lat="45.17432" lon="5.93079">
        <ele>1835</ele>
        <time>2021-02-20T14:38:41Z</time>
      </trkpt>
      <trkpt lat="45.17431" lon="5.93074">
        <ele>1834.4</ele>
        <time>2021-02-20T14:38:42Z</time>
      </trkpt>
      <trkpt lat="45.17431" lon="5.93072">
        <ele>1833.8</ele>
        <time>2021-02-20T14:38:43Z</time>
      </trkpt>
      <trkpt lat="45.17431" lon="5.93067">
        <ele>1833.2</ele>
        <time>2021-02-20T14:38:44Z</time>
      </trkpt>
      <trkpt lat="45.1743" lon="5.93061">
        <ele>1832.4</ele>
        <time>2021-02-20T14:38:45Z</time>
      </trkpt>
      <trkpt lat="45.17429" lon="5.93055">
        <ele>1830.8</ele>
        <time>2021-02-20T14:38:46Z</time>
      </trkpt>
      <trkpt lat="45.17429" lon="5.93048">
        <ele>1831.1</ele>
        <time>2021-02-20T14:38:47Z</time>
      </trkpt>
      <trkpt lat="45.17427" lon="5.93042">
        <ele>1829.4</ele>
        <time>2021-02-20T14:38:48Z</time>
      </trkpt>
      <trkpt lat="45.17427" lon="5.93036">
        <ele>1828.5</ele>
        <time>2021-02-20T14:38:49Z</time>
      </trkpt>
      <trkpt lat="45.17425" lon="5.93031">
        <ele>1828.2</ele>
        <time>2021-02-20T14:38:50Z</time>
      </trkpt>
      <trkpt lat="45.17423" lon="5.93025">
        <ele>1826.6</ele>
        <time>2021-02-20T14:38:51Z</time>
      </trkpt>
      <trkpt lat="45.17421" lon="5.9302">
        <ele>1825.3</ele>
        <time>2021-02-20T14:38:52Z</time>
      </trkpt>
      <trkpt lat="45.17418" lon="5.93015">
        <ele>1824.4</ele>
        <time>2021-02-20T14:38:53Z</time>
      </trkpt>
      <trkpt lat="45.17415" lon="5.9301">
        <ele>1823.4</ele>
        <time>2021-02-20T14:38:54Z</time>
      </trkpt>
      <trkpt lat="45.17413" lon="5.93008">
        <ele>1822.2</ele>
        <time>2021-02-20T14:38:55Z</time>
      </trkpt>
      <trkpt lat="45.17411" lon="5.93005">
        <ele>1822.5</ele>
        <time>2021-02-20T14:38:56Z</time>
      </trkpt>
      <trkpt lat="45.17411" lon="5.93004">
        <ele>1820.8</ele>
        <time>2021-02-20T14:38:57Z</time>
      </trkpt>
      <trkpt lat="45.17408" lon="5.93001">
        <ele>1820.8</ele>
        <time>2021-02-20T14:38:58Z</time>
      </trkpt>
      <trkpt lat="45.17406" lon="5.92998">
        <ele>1819.4</ele>
        <time>2021-02-20T14:38:59Z</time>
      </trkpt>
      <trkpt lat="45.17403" lon="5.92995">
        <ele>1818.1</ele>
        <time>2021-02-20T14:39:00Z</time>
      </trkpt>
      <trkpt lat="45.174" lon="5.92993">
        <ele>1818.4</ele>
        <time>2021-02-20T14:39:01Z</time>
      </trkpt>
      <trkpt lat="45.17397" lon="5.92992">
        <ele>1818.7</ele>
        <time>2021-02-20T14:39:02Z</time>
      </trkpt>
      <trkpt lat="45.17396" lon="5.92992">
        <ele>1818.7</ele>
        <time>2021-02-20T14:39:03Z</time>
      </trkpt>
      <trkpt lat="45.17395" lon="5.92993">
        <ele>1819.2</ele>
        <time>2021-02-20T14:39:04Z</time>
      </trkpt>
      <trkpt lat="45.17395" lon="5.92993">
        <ele>1819.2</ele>
        <time>2021-02-20T14:39:05Z</time>
      </trkpt>
      <trkpt lat="45.17394" lon="5.92994">
        <ele>1819.1</ele>
        <time>2021-02-20T14:39:06Z</time>
      </trkpt>
      <trkpt lat="45.17394" lon="5.92994">
        <ele>1819.1</ele>
        <time>2021-02-20T14:39:07Z</time>
      </trkpt>
      <trkpt lat="45.17394" lon="5.92994">
        <ele>1819.1</ele>
        <time>2021-02-20T14:39:08Z</time>
      </trkpt>
      <trkpt lat="45.17393" lon="5.92994">
        <ele>1819.6</ele>
        <time>2021-02-20T14:39:09Z</time>
      </trkpt>
      <trkpt lat="45.17392" lon="5.92992">
        <ele>1819.6</ele>
        <time>2021-02-20T14:39:10Z</time>
      </trkpt>
      <trkpt lat="45.17392" lon="5.92989">
        <ele>1818</ele>
        <time>2021-02-20T14:39:11Z</time>
      </trkpt>
      <trkpt lat="45.17394" lon="5.92986">
        <ele>1815.9</ele>
        <time>2021-02-20T14:39:12Z</time>
      </trkpt>
      <trkpt lat="45.17395" lon="5.92985">
        <ele>1815.9</ele>
        <time>2021-02-20T14:39:13Z</time>
      </trkpt>
      <trkpt lat="45.17397" lon="5.92983">
        <ele>1815.3</ele>
        <time>2021-02-20T14:39:14Z</time>
      </trkpt>
      <trkpt lat="45.17396" lon="5.9298">
        <ele>1813.7</ele>
        <time>2021-02-20T14:39:15Z</time>
      </trkpt>
      <trkpt lat="45.17396" lon="5.92976">
        <ele>1812.6</ele>
        <time>2021-02-20T14:39:16Z</time>
      </trkpt>
      <trkpt lat="45.17395" lon="5.92974">
        <ele>1810.9</ele>
        <time>2021-02-20T14:39:17Z</time>
      </trkpt>
      <trkpt lat="45.17392" lon="5.92969">
        <ele>1809.9</ele>
        <time>2021-02-20T14:39:18Z</time>
      </trkpt>
      <trkpt lat="45.17389" lon="5.92965">
        <ele>1808.9</ele>
        <time>2021-02-20T14:39:19Z</time>
      </trkpt>
      <trkpt lat="45.17386" lon="5.92964">
        <ele>1809.5</ele>
        <time>2021-02-20T14:39:20Z</time>
      </trkpt>
      <trkpt lat="45.17385" lon="5.92964">
        <ele>1809.5</ele>
        <time>2021-02-20T14:39:21Z</time>
      </trkpt>
      <trkpt lat="45.17385" lon="5.92963">
        <ele>1809.5</ele>
        <time>2021-02-20T14:39:22Z</time>
      </trkpt>
      <trkpt lat="45.17385" lon="5.9296">
        <ele>1807.9</ele>
        <time>2021-02-20T14:39:23Z</time>
      </trkpt>
      <trkpt lat="45.17387" lon="5.92957">
        <ele>1806.4</ele>
        <time>2021-02-20T14:39:24Z</time>
      </trkpt>
      <trkpt lat="45.17389" lon="5.92953">
        <ele>1804.4</ele>
        <time>2021-02-20T14:39:25Z</time>
      </trkpt>
      <trkpt lat="45.17389" lon="5.92951">
        <ele>1804.3</ele>
        <time>2021-02-20T14:39:26Z</time>
      </trkpt>
      <trkpt lat="45.17389" lon="5.92946">
        <ele>1803</ele>
        <time>2021-02-20T14:39:27Z</time>
      </trkpt>
      <trkpt lat="45.17388" lon="5.92942">
        <ele>1801.7</ele>
        <time>2021-02-20T14:39:28Z</time>
      </trkpt>
      <trkpt lat="45.17386" lon="5.9294">
        <ele>1802.3</ele>
        <time>2021-02-20T14:39:29Z</time>
      </trkpt>
      <trkpt lat="45.17385" lon="5.9294">
        <ele>1802.3</ele>
        <time>2021-02-20T14:39:30Z</time>
      </trkpt>
      <trkpt lat="45.17384" lon="5.9294">
        <ele>1802.9</ele>
        <time>2021-02-20T14:39:31Z</time>
      </trkpt>
      <trkpt lat="45.17383" lon="5.9294">
        <ele>1802.9</ele>
        <time>2021-02-20T14:39:32Z</time>
      </trkpt>
      <trkpt lat="45.17382" lon="5.9294">
        <ele>1802.9</ele>
        <time>2021-02-20T14:39:33Z</time>
      </trkpt>
      <trkpt lat="45.17381" lon="5.9294">
        <ele>1801.5</ele>
        <time>2021-02-20T14:39:34Z</time>
      </trkpt>
      <trkpt lat="45.17381" lon="5.92939">
        <ele>1801.5</ele>
        <time>2021-02-20T14:39:35Z</time>
      </trkpt>
      <trkpt lat="45.17381" lon="5.92938">
        <ele>1802.1</ele>
        <time>2021-02-20T14:39:36Z</time>
      </trkpt>
      <trkpt lat="45.1738" lon="5.92937">
        <ele>1802.1</ele>
        <time>2021-02-20T14:39:37Z</time>
      </trkpt>
      <trkpt lat="45.17377" lon="5.92934">
        <ele>1801.4</ele>
        <time>2021-02-20T14:39:38Z</time>
      </trkpt>
      <trkpt lat="45.17376" lon="5.92932">
        <ele>1801.4</ele>
        <time>2021-02-20T14:39:39Z</time>
      </trkpt>
      <trkpt lat="45.17373" lon="5.92928">
        <ele>1800.6</ele>
        <time>2021-02-20T14:39:40Z</time>
      </trkpt>
      <trkpt lat="45.1737" lon="5.92923">
        <ele>1798.4</ele>
        <time>2021-02-20T14:39:41Z</time>
      </trkpt>
      <trkpt lat="45.17368" lon="5.92918">
        <ele>1797.6</ele>
        <time>2021-02-20T14:39:42Z</time>
      </trkpt>
      <trkpt lat="45.17366" lon="5.92913">
        <ele>1796.9</ele>
        <time>2021-02-20T14:39:43Z</time>
      </trkpt>
      <trkpt lat="45.17364" lon="5.92909">
        <ele>1795.5</ele>
        <time>2021-02-20T14:39:44Z</time>
      </trkpt>
      <trkpt lat="45.17362" lon="5.92904">
        <ele>1795</ele>
        <time>2021-02-20T14:39:45Z</time>
      </trkpt>
      <trkpt lat="45.17361" lon="5.929">
        <ele>1793.8</ele>
        <time>2021-02-20T14:39:46Z</time>
      </trkpt>
      <trkpt lat="45.17359" lon="5.92896">
        <ele>1793.2</ele>
        <time>2021-02-20T14:39:47Z</time>
      </trkpt>
      <trkpt lat="45.17357" lon="5.92891">
        <ele>1792</ele>
        <time>2021-02-20T14:39:48Z</time>
      </trkpt>
      <trkpt lat="45.17356" lon="5.92886">
        <ele>1791.3</ele>
        <time>2021-02-20T14:39:49Z</time>
      </trkpt>
      <trkpt lat="45.17353" lon="5.92882">
        <ele>1790.6</ele>
        <time>2021-02-20T14:39:50Z</time>
      </trkpt>
      <trkpt lat="45.1735" lon="5.92878">
        <ele>1789.8</ele>
        <time>2021-02-20T14:39:51Z</time>
      </trkpt>
      <trkpt lat="45.1735" lon="5.92877">
        <ele>1789.8</ele>
        <time>2021-02-20T14:39:52Z</time>
      </trkpt>
      <trkpt lat="45.17347" lon="5.92875">
        <ele>1788.9</ele>
        <time>2021-02-20T14:39:53Z</time>
      </trkpt>
      <trkpt lat="45.17345" lon="5.92874">
        <ele>1788.9</ele>
        <time>2021-02-20T14:39:54Z</time>
      </trkpt>
      <trkpt lat="45.17344" lon="5.92873">
        <ele>1789.4</ele>
        <time>2021-02-20T14:39:55Z</time>
      </trkpt>
      <trkpt lat="45.17344" lon="5.92873">
        <ele>1789.4</ele>
        <time>2021-02-20T14:39:56Z</time>
      </trkpt>
      <trkpt lat="45.17342" lon="5.9287">
        <ele>1788</ele>
        <time>2021-02-20T14:39:57Z</time>
      </trkpt>
      <trkpt lat="45.1734" lon="5.92866">
        <ele>1787.2</ele>
        <time>2021-02-20T14:39:58Z</time>
      </trkpt>
      <trkpt lat="45.17338" lon="5.92862">
        <ele>1786.5</ele>
        <time>2021-02-20T14:39:59Z</time>
      </trkpt>
      <trkpt lat="45.17335" lon="5.92858">
        <ele>1785.9</ele>
        <time>2021-02-20T14:40:00Z</time>
      </trkpt>
      <trkpt lat="45.17332" lon="5.92853">
        <ele>1785.4</ele>
        <time>2021-02-20T14:40:01Z</time>
      </trkpt>
      <trkpt lat="45.17327" lon="5.92851">
        <ele>1786</ele>
        <time>2021-02-20T14:40:02Z</time>
      </trkpt>
      <trkpt lat="45.17324" lon="5.92848">
        <ele>1785.3</ele>
        <time>2021-02-20T14:40:03Z</time>
      </trkpt>
      <trkpt lat="45.17322" lon="5.92846">
        <ele>1785.8</ele>
        <time>2021-02-20T14:40:04Z</time>
      </trkpt>
      <trkpt lat="45.17323" lon="5.92846">
        <ele>1785.8</ele>
        <time>2021-02-20T14:40:05Z</time>
      </trkpt>
      <trkpt lat="45.17323" lon="5.92846">
        <ele>1785.8</ele>
        <time>2021-02-20T14:40:06Z</time>
      </trkpt>
      <trkpt lat="45.17324" lon="5.92846">
        <ele>1785.2</ele>
        <time>2021-02-20T14:40:07Z</time>
      </trkpt>
      <trkpt lat="45.17324" lon="5.92846">
        <ele>1785.2</ele>
        <time>2021-02-20T14:40:08Z</time>
      </trkpt>
      <trkpt lat="45.17324" lon="5.92846">
        <ele>1785.2</ele>
        <time>2021-02-20T14:40:09Z</time>
      </trkpt>
      <trkpt lat="45.17324" lon="5.92846">
        <ele>1785.1</ele>
        <time>2021-02-20T14:40:10Z</time>
      </trkpt>
      <trkpt lat="45.17324" lon="5.92846">
        <ele>1785.1</ele>
        <time>2021-02-20T14:40:11Z</time>
      </trkpt>
      <trkpt lat="45.17324" lon="5.92846">
        <ele>1785.1</ele>
        <time>2021-02-20T14:40:12Z</time>
      </trkpt>
      <trkpt lat="45.17324" lon="5.92846">
        <ele>1785.1</ele>
        <time>2021-02-20T14:40:13Z</time>
      </trkpt>
      <trkpt lat="45.17324" lon="5.92846">
        <ele>1785.1</ele>
        <time>2021-02-20T14:40:14Z</time>
      </trkpt>
      <trkpt lat="45.17324" lon="5.92846">
        <ele>1785</ele>
        <time>2021-02-20T14:40:15Z</time>
      </trkpt>
      <trkpt lat="45.17324" lon="5.92846">
        <ele>1785</ele>
        <time>2021-02-20T14:40:16Z</time>
      </trkpt>
      <trkpt lat="45.17324" lon="5.92846">
        <ele>1785</ele>
        <time>2021-02-20T14:40:17Z</time>
      </trkpt>
      <trkpt lat="45.17324" lon="5.92846">
        <ele>1785</ele>
        <time>2021-02-20T14:40:18Z</time>
      </trkpt>
      <trkpt lat="45.17324" lon="5.92846">
        <ele>1784.9</ele>
        <time>2021-02-20T14:40:19Z</time>
      </trkpt>
      <trkpt lat="45.17324" lon="5.92846">
        <ele>1784.9</ele>
        <time>2021-02-20T14:40:20Z</time>
      </trkpt>
      <trkpt lat="45.17324" lon="5.92846">
        <ele>1784.9</ele>
        <time>2021-02-20T14:40:21Z</time>
      </trkpt>
      <trkpt lat="45.17324" lon="5.92846">
        <ele>1784.9</ele>
        <time>2021-02-20T14:40:22Z</time>
      </trkpt>
      <trkpt lat="45.17324" lon="5.92846">
        <ele>1784.8</ele>
        <time>2021-02-20T14:40:23Z</time>
      </trkpt>
      <trkpt lat="45.17324" lon="5.92846">
        <ele>1784.8</ele>
        <time>2021-02-20T14:40:24Z</time>
      </trkpt>
      <trkpt lat="45.1732" lon="5.92849">
        <ele>1785.9</ele>
        <time>2021-02-20T14:40:25Z</time>
      </trkpt>
      <trkpt lat="45.1732" lon="5.92849">
        <ele>1785.9</ele>
        <time>2021-02-20T14:40:26Z</time>
      </trkpt>
      <trkpt lat="45.1732" lon="5.92848">
        <ele>1785.8</ele>
        <time>2021-02-20T14:40:27Z</time>
      </trkpt>
      <trkpt lat="45.1732" lon="5.92848">
        <ele>1785.8</ele>
        <time>2021-02-20T14:40:28Z</time>
      </trkpt>
      <trkpt lat="45.1732" lon="5.92848">
        <ele>1785.8</ele>
        <time>2021-02-20T14:40:29Z</time>
      </trkpt>
      <trkpt lat="45.1732" lon="5.92848">
        <ele>1785.8</ele>
        <time>2021-02-20T14:40:30Z</time>
      </trkpt>
      <trkpt lat="45.1732" lon="5.92847">
        <ele>1785.7</ele>
        <time>2021-02-20T14:40:31Z</time>
      </trkpt>
      <trkpt lat="45.1732" lon="5.92847">
        <ele>1785.7</ele>
        <time>2021-02-20T14:40:32Z</time>
      </trkpt>
      <trkpt lat="45.1732" lon="5.92847">
        <ele>1785.7</ele>
        <time>2021-02-20T14:40:33Z</time>
      </trkpt>
      <trkpt lat="45.1732" lon="5.92846">
        <ele>1785.7</ele>
        <time>2021-02-20T14:40:34Z</time>
      </trkpt>
      <trkpt lat="45.1732" lon="5.92846">
        <ele>1785.6</ele>
        <time>2021-02-20T14:40:35Z</time>
      </trkpt>
      <trkpt lat="45.1732" lon="5.92846">
        <ele>1785.6</ele>
        <time>2021-02-20T14:40:36Z</time>
      </trkpt>
      <trkpt lat="45.1732" lon="5.92845">
        <ele>1784.3</ele>
        <time>2021-02-20T14:40:37Z</time>
      </trkpt>
      <trkpt lat="45.1732" lon="5.92845">
        <ele>1784.3</ele>
        <time>2021-02-20T14:40:38Z</time>
      </trkpt>
      <trkpt lat="45.17319" lon="5.92845">
        <ele>1784.3</ele>
        <time>2021-02-20T14:40:39Z</time>
      </trkpt>
      <trkpt lat="45.17319" lon="5.92844">
        <ele>1784.2</ele>
        <time>2021-02-20T14:40:40Z</time>
      </trkpt>
      <trkpt lat="45.17319" lon="5.92844">
        <ele>1784.2</ele>
        <time>2021-02-20T14:40:41Z</time>
      </trkpt>
      <trkpt lat="45.17319" lon="5.92844">
        <ele>1784.2</ele>
        <time>2021-02-20T14:40:42Z</time>
      </trkpt>
      <trkpt lat="45.17317" lon="5.92838">
        <ele>1782.8</ele>
        <time>2021-02-20T14:40:43Z</time>
      </trkpt>
      <trkpt lat="45.17315" lon="5.92832">
        <ele>1780.6</ele>
        <time>2021-02-20T14:40:44Z</time>
      </trkpt>
      <trkpt lat="45.1731" lon="5.92826">
        <ele>1780.6</ele>
        <time>2021-02-20T14:40:45Z</time>
      </trkpt>
      <trkpt lat="45.17306" lon="5.92822">
        <ele>1780</ele>
        <time>2021-02-20T14:40:46Z</time>
      </trkpt>
      <trkpt lat="45.17303" lon="5.92819">
        <ele>1779.4</ele>
        <time>2021-02-20T14:40:47Z</time>
      </trkpt>
      <trkpt lat="45.17301" lon="5.92817">
        <ele>1780.2</ele>
        <time>2021-02-20T14:40:48Z</time>
      </trkpt>
      <trkpt lat="45.17299" lon="5.92815">
        <ele>1779.6</ele>
        <time>2021-02-20T14:40:49Z</time>
      </trkpt>
      <trkpt lat="45.17298" lon="5.92814">
        <ele>1779.5</ele>
        <time>2021-02-20T14:40:50Z</time>
      </trkpt>
      <trkpt lat="45.17297" lon="5.92813">
        <ele>1779.5</ele>
        <time>2021-02-20T14:40:51Z</time>
      </trkpt>
      <trkpt lat="45.17296" lon="5.92811">
        <ele>1778.2</ele>
        <time>2021-02-20T14:40:52Z</time>
      </trkpt>
      <trkpt lat="45.17296" lon="5.92809">
        <ele>1778.9</ele>
        <time>2021-02-20T14:40:53Z</time>
      </trkpt>
      <trkpt lat="45.17295" lon="5.92808">
        <ele>1778.8</ele>
        <time>2021-02-20T14:40:54Z</time>
      </trkpt>
      <trkpt lat="45.17295" lon="5.92807">
        <ele>1777.5</ele>
        <time>2021-02-20T14:40:55Z</time>
      </trkpt>
      <trkpt lat="45.17294" lon="5.92802">
        <ele>1776.2</ele>
        <time>2021-02-20T14:40:56Z</time>
      </trkpt>
      <trkpt lat="45.17293" lon="5.92797">
        <ele>1775.5</ele>
        <time>2021-02-20T14:40:57Z</time>
      </trkpt>
      <trkpt lat="45.17292" lon="5.92792">
        <ele>1774.1</ele>
        <time>2021-02-20T14:40:58Z</time>
      </trkpt>
      <trkpt lat="45.17292" lon="5.92787">
        <ele>1772.7</ele>
        <time>2021-02-20T14:40:59Z</time>
      </trkpt>
      <trkpt lat="45.17292" lon="5.92784">
        <ele>1771.3</ele>
        <time>2021-02-20T14:41:00Z</time>
      </trkpt>
      <trkpt lat="45.17292" lon="5.92778">
        <ele>1769.9</ele>
        <time>2021-02-20T14:41:01Z</time>
      </trkpt>
      <trkpt lat="45.17293" lon="5.92776">
        <ele>1768.5</ele>
        <time>2021-02-20T14:41:02Z</time>
      </trkpt>
      <trkpt lat="45.17292" lon="5.9277">
        <ele>1767.3</ele>
        <time>2021-02-20T14:41:03Z</time>
      </trkpt>
      <trkpt lat="45.17291" lon="5.92764">
        <ele>1766.1</ele>
        <time>2021-02-20T14:41:04Z</time>
      </trkpt>
      <trkpt lat="45.1729" lon="5.92758">
        <ele>1764.7</ele>
        <time>2021-02-20T14:41:05Z</time>
      </trkpt>
      <trkpt lat="45.17287" lon="5.92753">
        <ele>1763.6</ele>
        <time>2021-02-20T14:41:06Z</time>
      </trkpt>
      <trkpt lat="45.17285" lon="5.92748">
        <ele>1763.2</ele>
        <time>2021-02-20T14:41:07Z</time>
      </trkpt>
      <trkpt lat="45.17283" lon="5.92745">
        <ele>1762.9</ele>
        <time>2021-02-20T14:41:08Z</time>
      </trkpt>
      <trkpt lat="45.1728" lon="5.92742">
        <ele>1762.5</ele>
        <time>2021-02-20T14:41:09Z</time>
      </trkpt>
      <trkpt lat="45.17276" lon="5.9274">
        <ele>1763.3</ele>
        <time>2021-02-20T14:41:10Z</time>
      </trkpt>
      <trkpt lat="45.17275" lon="5.92739">
        <ele>1764.2</ele>
        <time>2021-02-20T14:41:11Z</time>
      </trkpt>
      <trkpt lat="45.17272" lon="5.92737">
        <ele>1763.1</ele>
        <time>2021-02-20T14:41:12Z</time>
      </trkpt>
      <trkpt lat="45.17269" lon="5.92733">
        <ele>1762.9</ele>
        <time>2021-02-20T14:41:13Z</time>
      </trkpt>
      <trkpt lat="45.17268" lon="5.92731">
        <ele>1763.8</ele>
        <time>2021-02-20T14:41:14Z</time>
      </trkpt>
      <trkpt lat="45.17265" lon="5.92729">
        <ele>1763.7</ele>
        <time>2021-02-20T14:41:15Z</time>
      </trkpt>
      <trkpt lat="45.17263" lon="5.92727">
        <ele>1763.7</ele>
        <time>2021-02-20T14:41:16Z</time>
      </trkpt>
      <trkpt lat="45.1726" lon="5.92724">
        <ele>1763.7</ele>
        <time>2021-02-20T14:41:17Z</time>
      </trkpt>
      <trkpt lat="45.17259" lon="5.92723">
        <ele>1764.7</ele>
        <time>2021-02-20T14:41:18Z</time>
      </trkpt>
      <trkpt lat="45.17256" lon="5.92721">
        <ele>1764.9</ele>
        <time>2021-02-20T14:41:19Z</time>
      </trkpt>
      <trkpt lat="45.17255" lon="5.92719">
        <ele>1764.9</ele>
        <time>2021-02-20T14:41:20Z</time>
      </trkpt>
      <trkpt lat="45.17252" lon="5.92715">
        <ele>1765.3</ele>
        <time>2021-02-20T14:41:21Z</time>
      </trkpt>
      <trkpt lat="45.17249" lon="5.9271">
        <ele>1765.8</ele>
        <time>2021-02-20T14:41:22Z</time>
      </trkpt>
      <trkpt lat="45.17244" lon="5.92706">
        <ele>1767.8</ele>
        <time>2021-02-20T14:41:23Z</time>
      </trkpt>
      <trkpt lat="45.17238" lon="5.92702">
        <ele>1769.5</ele>
        <time>2021-02-20T14:41:24Z</time>
      </trkpt>
      <trkpt lat="45.17233" lon="5.92699">
        <ele>1769.9</ele>
        <time>2021-02-20T14:41:25Z</time>
      </trkpt>
      <trkpt lat="45.17231" lon="5.92696">
        <ele>1771.2</ele>
        <time>2021-02-20T14:41:26Z</time>
      </trkpt>
      <trkpt lat="45.17228" lon="5.92691">
        <ele>1771.9</ele>
        <time>2021-02-20T14:41:27Z</time>
      </trkpt>
      <trkpt lat="45.17225" lon="5.92687">
        <ele>1772.9</ele>
        <time>2021-02-20T14:41:28Z</time>
      </trkpt>
      <trkpt lat="45.17224" lon="5.92682">
        <ele>1771.8</ele>
        <time>2021-02-20T14:41:29Z</time>
      </trkpt>
      <trkpt lat="45.17223" lon="5.92676">
        <ele>1773.1</ele>
        <time>2021-02-20T14:41:30Z</time>
      </trkpt>
      <trkpt lat="45.17222" lon="5.92669">
        <ele>1772.5</ele>
        <time>2021-02-20T14:41:31Z</time>
      </trkpt>
      <trkpt lat="45.17222" lon="5.92663">
        <ele>1772.3</ele>
        <time>2021-02-20T14:41:32Z</time>
      </trkpt>
      <trkpt lat="45.17222" lon="5.92658">
        <ele>1772.1</ele>
        <time>2021-02-20T14:41:33Z</time>
      </trkpt>
      <trkpt lat="45.17221" lon="5.92654">
        <ele>1772</ele>
        <time>2021-02-20T14:41:34Z</time>
      </trkpt>
      <trkpt lat="45.17221" lon="5.9265">
        <ele>1771.9</ele>
        <time>2021-02-20T14:41:35Z</time>
      </trkpt>
      <trkpt lat="45.17221" lon="5.92645">
        <ele>1771.9</ele>
        <time>2021-02-20T14:41:36Z</time>
      </trkpt>
      <trkpt lat="45.17222" lon="5.9264">
        <ele>1771.9</ele>
        <time>2021-02-20T14:41:37Z</time>
      </trkpt>
      <trkpt lat="45.17223" lon="5.92635">
        <ele>1772.2</ele>
        <time>2021-02-20T14:41:38Z</time>
      </trkpt>
      <trkpt lat="45.17225" lon="5.92631">
        <ele>1770.3</ele>
        <time>2021-02-20T14:41:39Z</time>
      </trkpt>
      <trkpt lat="45.17226" lon="5.92628">
        <ele>1770.4</ele>
        <time>2021-02-20T14:41:40Z</time>
      </trkpt>
      <trkpt lat="45.17227" lon="5.92622">
        <ele>1768.8</ele>
        <time>2021-02-20T14:41:41Z</time>
      </trkpt>
      <trkpt lat="45.17229" lon="5.92618">
        <ele>1769.5</ele>
        <time>2021-02-20T14:41:42Z</time>
      </trkpt>
      <trkpt lat="45.1723" lon="5.92614">
        <ele>1767.8</ele>
        <time>2021-02-20T14:41:43Z</time>
      </trkpt>
      <trkpt lat="45.17232" lon="5.9261">
        <ele>1768.2</ele>
        <time>2021-02-20T14:41:44Z</time>
      </trkpt>
      <trkpt lat="45.17234" lon="5.92606">
        <ele>1767.2</ele>
        <time>2021-02-20T14:41:45Z</time>
      </trkpt>
      <trkpt lat="45.17236" lon="5.92601">
        <ele>1766.7</ele>
        <time>2021-02-20T14:41:46Z</time>
      </trkpt>
      <trkpt lat="45.17238" lon="5.92596">
        <ele>1767.2</ele>
        <time>2021-02-20T14:41:47Z</time>
      </trkpt>
      <trkpt lat="45.1724" lon="5.9259">
        <ele>1766.2</ele>
        <time>2021-02-20T14:41:48Z</time>
      </trkpt>
      <trkpt lat="45.17241" lon="5.92584">
        <ele>1766.7</ele>
        <time>2021-02-20T14:41:49Z</time>
      </trkpt>
      <trkpt lat="45.17244" lon="5.92577">
        <ele>1766.1</ele>
        <time>2021-02-20T14:41:50Z</time>
      </trkpt>
      <trkpt lat="45.17247" lon="5.92568">
        <ele>1765.6</ele>
        <time>2021-02-20T14:41:51Z</time>
      </trkpt>
      <trkpt lat="45.1725" lon="5.92564">
        <ele>1764.4</ele>
        <time>2021-02-20T14:41:52Z</time>
      </trkpt>
      <trkpt lat="45.17254" lon="5.92557">
        <ele>1764.2</ele>
        <time>2021-02-20T14:41:53Z</time>
      </trkpt>
      <trkpt lat="45.17258" lon="5.9255">
        <ele>1761.7</ele>
        <time>2021-02-20T14:41:54Z</time>
      </trkpt>
      <trkpt lat="45.17261" lon="5.92547">
        <ele>1761</ele>
        <time>2021-02-20T14:41:55Z</time>
      </trkpt>
      <trkpt lat="45.17265" lon="5.92544">
        <ele>1760.3</ele>
        <time>2021-02-20T14:41:56Z</time>
      </trkpt>
      <trkpt lat="45.17268" lon="5.92539">
        <ele>1759.5</ele>
        <time>2021-02-20T14:41:57Z</time>
      </trkpt>
      <trkpt lat="45.1727" lon="5.92535">
        <ele>1758.7</ele>
        <time>2021-02-20T14:41:58Z</time>
      </trkpt>
      <trkpt lat="45.17273" lon="5.9253">
        <ele>1757.9</ele>
        <time>2021-02-20T14:41:59Z</time>
      </trkpt>
      <trkpt lat="45.17276" lon="5.92525">
        <ele>1757.1</ele>
        <time>2021-02-20T14:42:00Z</time>
      </trkpt>
      <trkpt lat="45.17279" lon="5.92522">
        <ele>1756.3</ele>
        <time>2021-02-20T14:42:01Z</time>
      </trkpt>
      <trkpt lat="45.17284" lon="5.92517">
        <ele>1755.7</ele>
        <time>2021-02-20T14:42:02Z</time>
      </trkpt>
      <trkpt lat="45.17287" lon="5.92511">
        <ele>1755.1</ele>
        <time>2021-02-20T14:42:03Z</time>
      </trkpt>
      <trkpt lat="45.1729" lon="5.92505">
        <ele>1754.4</ele>
        <time>2021-02-20T14:42:04Z</time>
      </trkpt>
      <trkpt lat="45.17292" lon="5.925">
        <ele>1755.6</ele>
        <time>2021-02-20T14:42:05Z</time>
      </trkpt>
      <trkpt lat="45.17295" lon="5.92497">
        <ele>1755.4</ele>
        <time>2021-02-20T14:42:06Z</time>
      </trkpt>
      <trkpt lat="45.17298" lon="5.92496">
        <ele>1754</ele>
        <time>2021-02-20T14:42:07Z</time>
      </trkpt>
      <trkpt lat="45.17297" lon="5.92495">
        <ele>1753.9</ele>
        <time>2021-02-20T14:42:08Z</time>
      </trkpt>
      <trkpt lat="45.173" lon="5.92493">
        <ele>1753.7</ele>
        <time>2021-02-20T14:42:09Z</time>
      </trkpt>
      <trkpt lat="45.17302" lon="5.9249">
        <ele>1753.6</ele>
        <time>2021-02-20T14:42:10Z</time>
      </trkpt>
      <trkpt lat="45.17304" lon="5.92486">
        <ele>1753.2</ele>
        <time>2021-02-20T14:42:11Z</time>
      </trkpt>
      <trkpt lat="45.17306" lon="5.92483">
        <ele>1752.7</ele>
        <time>2021-02-20T14:42:12Z</time>
      </trkpt>
      <trkpt lat="45.17309" lon="5.92485">
        <ele>1750.9</ele>
        <time>2021-02-20T14:42:13Z</time>
      </trkpt>
      <trkpt lat="45.17312" lon="5.92484">
        <ele>1749.2</ele>
        <time>2021-02-20T14:42:14Z</time>
      </trkpt>
      <trkpt lat="45.17316" lon="5.92478">
        <ele>1748.7</ele>
        <time>2021-02-20T14:42:15Z</time>
      </trkpt>
      <trkpt lat="45.17318" lon="5.92475">
        <ele>1748.3</ele>
        <time>2021-02-20T14:42:16Z</time>
      </trkpt>
      <trkpt lat="45.17319" lon="5.92475">
        <ele>1748.3</ele>
        <time>2021-02-20T14:42:17Z</time>
      </trkpt>
      <trkpt lat="45.17318" lon="5.92472">
        <ele>1749.3</ele>
        <time>2021-02-20T14:42:18Z</time>
      </trkpt>
      <trkpt lat="45.17318" lon="5.9247">
        <ele>1749.3</ele>
        <time>2021-02-20T14:42:19Z</time>
      </trkpt>
      <trkpt lat="45.17318" lon="5.92468">
        <ele>1749.3</ele>
        <time>2021-02-20T14:42:20Z</time>
      </trkpt>
      <trkpt lat="45.17318" lon="5.92467">
        <ele>1750.4</ele>
        <time>2021-02-20T14:42:21Z</time>
      </trkpt>
      <trkpt lat="45.17318" lon="5.92466">
        <ele>1750.4</ele>
        <time>2021-02-20T14:42:22Z</time>
      </trkpt>
      <trkpt lat="45.17318" lon="5.92465">
        <ele>1750.3</ele>
        <time>2021-02-20T14:42:23Z</time>
      </trkpt>
      <trkpt lat="45.17318" lon="5.92465">
        <ele>1750.3</ele>
        <time>2021-02-20T14:42:24Z</time>
      </trkpt>
      <trkpt lat="45.17319" lon="5.92464">
        <ele>1750.3</ele>
        <time>2021-02-20T14:42:25Z</time>
      </trkpt>
      <trkpt lat="45.17319" lon="5.92463">
        <ele>1751.3</ele>
        <time>2021-02-20T14:42:26Z</time>
      </trkpt>
      <trkpt lat="45.17319" lon="5.92463">
        <ele>1751.3</ele>
        <time>2021-02-20T14:42:27Z</time>
      </trkpt>
      <trkpt lat="45.17319" lon="5.92462">
        <ele>1751.3</ele>
        <time>2021-02-20T14:42:28Z</time>
      </trkpt>
      <trkpt lat="45.17319" lon="5.92461">
        <ele>1751.2</ele>
        <time>2021-02-20T14:42:29Z</time>
      </trkpt>
      <trkpt lat="45.17319" lon="5.92461">
        <ele>1751.2</ele>
        <time>2021-02-20T14:42:30Z</time>
      </trkpt>
      <trkpt lat="45.17319" lon="5.9246">
        <ele>1751.2</ele>
        <time>2021-02-20T14:42:31Z</time>
      </trkpt>
      <trkpt lat="45.17322" lon="5.92457">
        <ele>1750.6</ele>
        <time>2021-02-20T14:42:32Z</time>
      </trkpt>
      <trkpt lat="45.17323" lon="5.92457">
        <ele>1750.5</ele>
        <time>2021-02-20T14:42:33Z</time>
      </trkpt>
      <trkpt lat="45.17326" lon="5.92457">
        <ele>1748.9</ele>
        <time>2021-02-20T14:42:34Z</time>
      </trkpt>
      <trkpt lat="45.17327" lon="5.92457">
        <ele>1747.1</ele>
        <time>2021-02-20T14:42:35Z</time>
      </trkpt>
      <trkpt lat="45.17329" lon="5.92454">
        <ele>1748</ele>
        <time>2021-02-20T14:42:36Z</time>
      </trkpt>
      <trkpt lat="45.1733" lon="5.92453">
        <ele>1746.1</ele>
        <time>2021-02-20T14:42:37Z</time>
      </trkpt>
      <trkpt lat="45.17332" lon="5.9245">
        <ele>1747</ele>
        <time>2021-02-20T14:42:38Z</time>
      </trkpt>
      <trkpt lat="45.17335" lon="5.92447">
        <ele>1745</ele>
        <time>2021-02-20T14:42:39Z</time>
      </trkpt>
      <trkpt lat="45.17336" lon="5.92442">
        <ele>1745.1</ele>
        <time>2021-02-20T14:42:40Z</time>
      </trkpt>
      <trkpt lat="45.17338" lon="5.92439">
        <ele>1745.1</ele>
        <time>2021-02-20T14:42:41Z</time>
      </trkpt>
      <trkpt lat="45.17339" lon="5.92437">
        <ele>1744.4</ele>
        <time>2021-02-20T14:42:42Z</time>
      </trkpt>
      <trkpt lat="45.1734" lon="5.92435">
        <ele>1744.4</ele>
        <time>2021-02-20T14:42:43Z</time>
      </trkpt>
      <trkpt lat="45.17344" lon="5.92433">
        <ele>1744.1</ele>
        <time>2021-02-20T14:42:44Z</time>
      </trkpt>
      <trkpt lat="45.17345" lon="5.92433">
        <ele>1742.5</ele>
        <time>2021-02-20T14:42:45Z</time>
      </trkpt>
      <trkpt lat="45.17348" lon="5.92433">
        <ele>1741.1</ele>
        <time>2021-02-20T14:42:46Z</time>
      </trkpt>
      <trkpt lat="45.17351" lon="5.92436">
        <ele>1738.3</ele>
        <time>2021-02-20T14:42:47Z</time>
      </trkpt>
      <trkpt lat="45.17352" lon="5.92438">
        <ele>1737.1</ele>
        <time>2021-02-20T14:42:48Z</time>
      </trkpt>
      <trkpt lat="45.17354" lon="5.9244">
        <ele>1735.5</ele>
        <time>2021-02-20T14:42:49Z</time>
      </trkpt>
      <trkpt lat="45.17358" lon="5.9244">
        <ele>1733.9</ele>
        <time>2021-02-20T14:42:50Z</time>
      </trkpt>
      <trkpt lat="45.17359" lon="5.92439">
        <ele>1733.9</ele>
        <time>2021-02-20T14:42:51Z</time>
      </trkpt>
      <trkpt lat="45.17361" lon="5.92436">
        <ele>1733.4</ele>
        <time>2021-02-20T14:42:52Z</time>
      </trkpt>
      <trkpt lat="45.17364" lon="5.92432">
        <ele>1733</ele>
        <time>2021-02-20T14:42:53Z</time>
      </trkpt>
      <trkpt lat="45.17367" lon="5.92426">
        <ele>1732.8</ele>
        <time>2021-02-20T14:42:54Z</time>
      </trkpt>
      <trkpt lat="45.17371" lon="5.9242">
        <ele>1734.1</ele>
        <time>2021-02-20T14:42:55Z</time>
      </trkpt>
      <trkpt lat="45.17375" lon="5.92413">
        <ele>1732.8</ele>
        <time>2021-02-20T14:42:56Z</time>
      </trkpt>
      <trkpt lat="45.17379" lon="5.92407">
        <ele>1734.1</ele>
        <time>2021-02-20T14:42:57Z</time>
      </trkpt>
      <trkpt lat="45.17384" lon="5.92401">
        <ele>1732.8</ele>
        <time>2021-02-20T14:42:58Z</time>
      </trkpt>
      <trkpt lat="45.17391" lon="5.92392">
        <ele>1732.6</ele>
        <time>2021-02-20T14:42:59Z</time>
      </trkpt>
      <trkpt lat="45.17394" lon="5.92386">
        <ele>1732.4</ele>
        <time>2021-02-20T14:43:00Z</time>
      </trkpt>
      <trkpt lat="45.17399" lon="5.92383">
        <ele>1731</ele>
        <time>2021-02-20T14:43:01Z</time>
      </trkpt>
      <trkpt lat="45.17404" lon="5.9238">
        <ele>1731</ele>
        <time>2021-02-20T14:43:02Z</time>
      </trkpt>
      <trkpt lat="45.17409" lon="5.92376">
        <ele>1729.8</ele>
        <time>2021-02-20T14:43:03Z</time>
      </trkpt>
      <trkpt lat="45.17412" lon="5.92372">
        <ele>1729.6</ele>
        <time>2021-02-20T14:43:04Z</time>
      </trkpt>
      <trkpt lat="45.17414" lon="5.92369">
        <ele>1729.6</ele>
        <time>2021-02-20T14:43:05Z</time>
      </trkpt>
      <trkpt lat="45.17417" lon="5.92366">
        <ele>1729.2</ele>
        <time>2021-02-20T14:43:06Z</time>
      </trkpt>
      <trkpt lat="45.1742" lon="5.92363">
        <ele>1727.2</ele>
        <time>2021-02-20T14:43:07Z</time>
      </trkpt>
      <trkpt lat="45.17423" lon="5.92359">
        <ele>1728.2</ele>
        <time>2021-02-20T14:43:08Z</time>
      </trkpt>
      <trkpt lat="45.17426" lon="5.92357">
        <ele>1726.8</ele>
        <time>2021-02-20T14:43:09Z</time>
      </trkpt>
      <trkpt lat="45.17428" lon="5.92354">
        <ele>1726.5</ele>
        <time>2021-02-20T14:43:10Z</time>
      </trkpt>
      <trkpt lat="45.17431" lon="5.9235">
        <ele>1725.7</ele>
        <time>2021-02-20T14:43:11Z</time>
      </trkpt>
      <trkpt lat="45.17432" lon="5.92349">
        <ele>1725.7</ele>
        <time>2021-02-20T14:43:12Z</time>
      </trkpt>
      <trkpt lat="45.17433" lon="5.92347">
        <ele>1725.5</ele>
        <time>2021-02-20T14:43:13Z</time>
      </trkpt>
      <trkpt lat="45.17435" lon="5.92346">
        <ele>1725.5</ele>
        <time>2021-02-20T14:43:14Z</time>
      </trkpt>
      <trkpt lat="45.17435" lon="5.92345">
        <ele>1725.5</ele>
        <time>2021-02-20T14:43:15Z</time>
      </trkpt>
      <trkpt lat="45.17436" lon="5.92342">
        <ele>1725.1</ele>
        <time>2021-02-20T14:43:16Z</time>
      </trkpt>
      <trkpt lat="45.17436" lon="5.92338">
        <ele>1726.3</ele>
        <time>2021-02-20T14:43:17Z</time>
      </trkpt>
      <trkpt lat="45.17436" lon="5.92337">
        <ele>1726.2</ele>
        <time>2021-02-20T14:43:18Z</time>
      </trkpt>
      <trkpt lat="45.17436" lon="5.92336">
        <ele>1726.2</ele>
        <time>2021-02-20T14:43:19Z</time>
      </trkpt>
      <trkpt lat="45.17436" lon="5.92335">
        <ele>1726.2</ele>
        <time>2021-02-20T14:43:20Z</time>
      </trkpt>
      <trkpt lat="45.17436" lon="5.92334">
        <ele>1727.3</ele>
        <time>2021-02-20T14:43:21Z</time>
      </trkpt>
      <trkpt lat="45.17437" lon="5.92332">
        <ele>1727.3</ele>
        <time>2021-02-20T14:43:22Z</time>
      </trkpt>
      <trkpt lat="45.1744" lon="5.92333">
        <ele>1725.7</ele>
        <time>2021-02-20T14:43:23Z</time>
      </trkpt>
      <trkpt lat="45.17441" lon="5.92334">
        <ele>1725.6</ele>
        <time>2021-02-20T14:43:24Z</time>
      </trkpt>
      <trkpt lat="45.17441" lon="5.92334">
        <ele>1725.6</ele>
        <time>2021-02-20T14:43:25Z</time>
      </trkpt>
      <trkpt lat="45.17441" lon="5.92334">
        <ele>1725.6</ele>
        <time>2021-02-20T14:43:26Z</time>
      </trkpt>
      <trkpt lat="45.17441" lon="5.92334">
        <ele>1725.6</ele>
        <time>2021-02-20T14:43:27Z</time>
      </trkpt>
      <trkpt lat="45.17441" lon="5.92334">
        <ele>1725.5</ele>
        <time>2021-02-20T14:43:28Z</time>
      </trkpt>
      <trkpt lat="45.17442" lon="5.92334">
        <ele>1723.8</ele>
        <time>2021-02-20T14:43:29Z</time>
      </trkpt>
      <trkpt lat="45.17444" lon="5.92332">
        <ele>1723.8</ele>
        <time>2021-02-20T14:43:30Z</time>
      </trkpt>
      <trkpt lat="45.17445" lon="5.9233">
        <ele>1723.1</ele>
        <time>2021-02-20T14:43:31Z</time>
      </trkpt>
      <trkpt lat="45.17445" lon="5.92328">
        <ele>1723.1</ele>
        <time>2021-02-20T14:43:32Z</time>
      </trkpt>
      <trkpt lat="45.17444" lon="5.92326">
        <ele>1724.2</ele>
        <time>2021-02-20T14:43:33Z</time>
      </trkpt>
      <trkpt lat="45.17444" lon="5.92325">
        <ele>1725.9</ele>
        <time>2021-02-20T14:43:34Z</time>
      </trkpt>
      <trkpt lat="45.17443" lon="5.92324">
        <ele>1725.9</ele>
        <time>2021-02-20T14:43:35Z</time>
      </trkpt>
      <trkpt lat="45.17444" lon="5.9232">
        <ele>1727</ele>
        <time>2021-02-20T14:43:36Z</time>
      </trkpt>
      <trkpt lat="45.17445" lon="5.92318">
        <ele>1726.2</ele>
        <time>2021-02-20T14:43:37Z</time>
      </trkpt>
      <trkpt lat="45.17448" lon="5.92316">
        <ele>1724.4</ele>
        <time>2021-02-20T14:43:38Z</time>
      </trkpt>
      <trkpt lat="45.17449" lon="5.92315">
        <ele>1724.4</ele>
        <time>2021-02-20T14:43:39Z</time>
      </trkpt>
      <trkpt lat="45.17451" lon="5.92315">
        <ele>1722.6</ele>
        <time>2021-02-20T14:43:40Z</time>
      </trkpt>
      <trkpt lat="45.17452" lon="5.92314">
        <ele>1722.6</ele>
        <time>2021-02-20T14:43:41Z</time>
      </trkpt>
      <trkpt lat="45.17455" lon="5.92314">
        <ele>1720.8</ele>
        <time>2021-02-20T14:43:42Z</time>
      </trkpt>
      <trkpt lat="45.17458" lon="5.92315">
        <ele>1719</ele>
        <time>2021-02-20T14:43:43Z</time>
      </trkpt>
      <trkpt lat="45.17462" lon="5.92315">
        <ele>1717</ele>
        <time>2021-02-20T14:43:44Z</time>
      </trkpt>
      <trkpt lat="45.17465" lon="5.92316">
        <ele>1715</ele>
        <time>2021-02-20T14:43:45Z</time>
      </trkpt>
      <trkpt lat="45.17466" lon="5.92316">
        <ele>1712.9</ele>
        <time>2021-02-20T14:43:46Z</time>
      </trkpt>
      <trkpt lat="45.17467" lon="5.92316">
        <ele>1712.9</ele>
        <time>2021-02-20T14:43:47Z</time>
      </trkpt>
      <trkpt lat="45.17467" lon="5.92315">
        <ele>1712.9</ele>
        <time>2021-02-20T14:43:48Z</time>
      </trkpt>
      <trkpt lat="45.17467" lon="5.92315">
        <ele>1712.8</ele>
        <time>2021-02-20T14:43:49Z</time>
      </trkpt>
      <trkpt lat="45.17468" lon="5.92314">
        <ele>1712.8</ele>
        <time>2021-02-20T14:43:50Z</time>
      </trkpt>
      <trkpt lat="45.1747" lon="5.92313">
        <ele>1710.6</ele>
        <time>2021-02-20T14:43:51Z</time>
      </trkpt>
      <trkpt lat="45.17471" lon="5.92313">
        <ele>1711.6</ele>
        <time>2021-02-20T14:43:52Z</time>
      </trkpt>
      <trkpt lat="45.17476" lon="5.92312">
        <ele>1707.1</ele>
        <time>2021-02-20T14:43:53Z</time>
      </trkpt>
      <trkpt lat="45.17477" lon="5.9231">
        <ele>1707.1</ele>
        <time>2021-02-20T14:43:54Z</time>
      </trkpt>
      <trkpt lat="45.17478" lon="5.9231">
        <ele>1704.9</ele>
        <time>2021-02-20T14:43:55Z</time>
      </trkpt>
      <trkpt lat="45.17479" lon="5.92309">
        <ele>1705.9</ele>
        <time>2021-02-20T14:43:56Z</time>
      </trkpt>
      <trkpt lat="45.17482" lon="5.92306">
        <ele>1703.7</ele>
        <time>2021-02-20T14:43:57Z</time>
      </trkpt>
      <trkpt lat="45.17483" lon="5.92305">
        <ele>1704.8</ele>
        <time>2021-02-20T14:43:58Z</time>
      </trkpt>
      <trkpt lat="45.17485" lon="5.92303">
        <ele>1702.7</ele>
        <time>2021-02-20T14:43:59Z</time>
      </trkpt>
      <trkpt lat="45.17486" lon="5.92301">
        <ele>1702.7</ele>
        <time>2021-02-20T14:44:00Z</time>
      </trkpt>
      <trkpt lat="45.17486" lon="5.92301">
        <ele>1702.6</ele>
        <time>2021-02-20T14:44:01Z</time>
      </trkpt>
      <trkpt lat="45.17487" lon="5.92301">
        <ele>1702.6</ele>
        <time>2021-02-20T14:44:02Z</time>
      </trkpt>
      <trkpt lat="45.17487" lon="5.92301">
        <ele>1700.6</ele>
        <time>2021-02-20T14:44:03Z</time>
      </trkpt>
      <trkpt lat="45.17487" lon="5.92301">
        <ele>1700.6</ele>
        <time>2021-02-20T14:44:04Z</time>
      </trkpt>
      <trkpt lat="45.17488" lon="5.92301">
        <ele>1700.6</ele>
        <time>2021-02-20T14:44:05Z</time>
      </trkpt>
      <trkpt lat="45.17488" lon="5.92301">
        <ele>1700.6</ele>
        <time>2021-02-20T14:44:06Z</time>
      </trkpt>
      <trkpt lat="45.17488" lon="5.92301">
        <ele>1700.5</ele>
        <time>2021-02-20T14:44:07Z</time>
      </trkpt>
      <trkpt lat="45.17489" lon="5.92301">
        <ele>1700.5</ele>
        <time>2021-02-20T14:44:08Z</time>
      </trkpt>
      <trkpt lat="45.17489" lon="5.92301">
        <ele>1700.5</ele>
        <time>2021-02-20T14:44:09Z</time>
      </trkpt>
      <trkpt lat="45.17489" lon="5.923">
        <ele>1701.6</ele>
        <time>2021-02-20T14:44:10Z</time>
      </trkpt>
      <trkpt lat="45.1749" lon="5.923">
        <ele>1701.5</ele>
        <time>2021-02-20T14:44:11Z</time>
      </trkpt>
      <trkpt lat="45.1749" lon="5.923">
        <ele>1699.5</ele>
        <time>2021-02-20T14:44:12Z</time>
      </trkpt>
      <trkpt lat="45.1749" lon="5.923">
        <ele>1699.5</ele>
        <time>2021-02-20T14:44:13Z</time>
      </trkpt>
      <trkpt lat="45.17491" lon="5.923">
        <ele>1699.5</ele>
        <time>2021-02-20T14:44:14Z</time>
      </trkpt>
      <trkpt lat="45.17491" lon="5.923">
        <ele>1699.5</ele>
        <time>2021-02-20T14:44:15Z</time>
      </trkpt>
      <trkpt lat="45.17491" lon="5.923">
        <ele>1699.5</ele>
        <time>2021-02-20T14:44:16Z</time>
      </trkpt>
      <trkpt lat="45.17491" lon="5.923">
        <ele>1699.4</ele>
        <time>2021-02-20T14:44:17Z</time>
      </trkpt>
      <trkpt lat="45.17491" lon="5.923">
        <ele>1699.4</ele>
        <time>2021-02-20T14:44:18Z</time>
      </trkpt>
      <trkpt lat="45.17492" lon="5.92298">
        <ele>1699.4</ele>
        <time>2021-02-20T14:44:19Z</time>
      </trkpt>
      <trkpt lat="45.17492" lon="5.92298">
        <ele>1699.4</ele>
        <time>2021-02-20T14:44:20Z</time>
      </trkpt>
      <trkpt lat="45.17493" lon="5.92298">
        <ele>1697.3</ele>
        <time>2021-02-20T14:44:21Z</time>
      </trkpt>
      <trkpt lat="45.17494" lon="5.92298">
        <ele>1697.3</ele>
        <time>2021-02-20T14:44:22Z</time>
      </trkpt>
      <trkpt lat="45.17494" lon="5.92297">
        <ele>1697.2</ele>
        <time>2021-02-20T14:44:23Z</time>
      </trkpt>
      <trkpt lat="45.17494" lon="5.92297">
        <ele>1697.2</ele>
        <time>2021-02-20T14:44:24Z</time>
      </trkpt>
      <trkpt lat="45.17494" lon="5.92297">
        <ele>1697.2</ele>
        <time>2021-02-20T14:44:25Z</time>
      </trkpt>
      <trkpt lat="45.17495" lon="5.92297">
        <ele>1697.2</ele>
        <time>2021-02-20T14:44:26Z</time>
      </trkpt>
      <trkpt lat="45.17495" lon="5.92297">
        <ele>1697.1</ele>
        <time>2021-02-20T14:44:27Z</time>
      </trkpt>
      <trkpt lat="45.17495" lon="5.92297">
        <ele>1697.1</ele>
        <time>2021-02-20T14:44:28Z</time>
      </trkpt>
      <trkpt lat="45.17496" lon="5.92297">
        <ele>1697.1</ele>
        <time>2021-02-20T14:44:29Z</time>
      </trkpt>
      <trkpt lat="45.17496" lon="5.92298">
        <ele>1697.1</ele>
        <time>2021-02-20T14:44:30Z</time>
      </trkpt>
      <trkpt lat="45.17496" lon="5.92298">
        <ele>1694.9</ele>
        <time>2021-02-20T14:44:31Z</time>
      </trkpt>
      <trkpt lat="45.17496" lon="5.92298">
        <ele>1694.9</ele>
        <time>2021-02-20T14:44:32Z</time>
      </trkpt>
      <trkpt lat="45.17497" lon="5.92298">
        <ele>1694.8</ele>
        <time>2021-02-20T14:44:33Z</time>
      </trkpt>
      <trkpt lat="45.17497" lon="5.92298">
        <ele>1694.8</ele>
        <time>2021-02-20T14:44:34Z</time>
      </trkpt>
      <trkpt lat="45.17497" lon="5.92298">
        <ele>1694.8</ele>
        <time>2021-02-20T14:44:35Z</time>
      </trkpt>
      <trkpt lat="45.17499" lon="5.92295">
        <ele>1693.6</ele>
        <time>2021-02-20T14:44:36Z</time>
      </trkpt>
      <trkpt lat="45.17501" lon="5.92291">
        <ele>1694.6</ele>
        <time>2021-02-20T14:44:37Z</time>
      </trkpt>
      <trkpt lat="45.17504" lon="5.92288">
        <ele>1692.3</ele>
        <time>2021-02-20T14:44:38Z</time>
      </trkpt>
      <trkpt lat="45.17505" lon="5.92287">
        <ele>1692.3</ele>
        <time>2021-02-20T14:44:39Z</time>
      </trkpt>
      <trkpt lat="45.17506" lon="5.92284">
        <ele>1692.2</ele>
        <time>2021-02-20T14:44:40Z</time>
      </trkpt>
      <trkpt lat="45.17508" lon="5.92283">
        <ele>1692.1</ele>
        <time>2021-02-20T14:44:41Z</time>
      </trkpt>
      <trkpt lat="45.1751" lon="5.92281">
        <ele>1691.9</ele>
        <time>2021-02-20T14:44:42Z</time>
      </trkpt>
      <trkpt lat="45.17511" lon="5.9228">
        <ele>1691.8</ele>
        <time>2021-02-20T14:44:43Z</time>
      </trkpt>
      <trkpt lat="45.17514" lon="5.92277">
        <ele>1691.6</ele>
        <time>2021-02-20T14:44:44Z</time>
      </trkpt>
      <trkpt lat="45.17515" lon="5.92276">
        <ele>1691.6</ele>
        <time>2021-02-20T14:44:45Z</time>
      </trkpt>
      <trkpt lat="45.17518" lon="5.92272">
        <ele>1691.3</ele>
        <time>2021-02-20T14:44:46Z</time>
      </trkpt>
      <trkpt lat="45.17519" lon="5.9227">
        <ele>1691.2</ele>
        <time>2021-02-20T14:44:47Z</time>
      </trkpt>
      <trkpt lat="45.17521" lon="5.92268">
        <ele>1691</ele>
        <time>2021-02-20T14:44:48Z</time>
      </trkpt>
      <trkpt lat="45.17524" lon="5.92266">
        <ele>1690.9</ele>
        <time>2021-02-20T14:44:49Z</time>
      </trkpt>
      <trkpt lat="45.17527" lon="5.92265">
        <ele>1690.6</ele>
        <time>2021-02-20T14:44:50Z</time>
      </trkpt>
      <trkpt lat="45.1753" lon="5.92262">
        <ele>1690.3</ele>
        <time>2021-02-20T14:44:51Z</time>
      </trkpt>
      <trkpt lat="45.17534" lon="5.92259">
        <ele>1690</ele>
        <time>2021-02-20T14:44:52Z</time>
      </trkpt>
      <trkpt lat="45.17535" lon="5.92256">
        <ele>1689.9</ele>
        <time>2021-02-20T14:44:53Z</time>
      </trkpt>
      <trkpt lat="45.17535" lon="5.92254">
        <ele>1689.8</ele>
        <time>2021-02-20T14:44:54Z</time>
      </trkpt>
      <trkpt lat="45.17535" lon="5.92252">
        <ele>1689.7</ele>
        <time>2021-02-20T14:44:55Z</time>
      </trkpt>
      <trkpt lat="45.17536" lon="5.92252">
        <ele>1689.6</ele>
        <time>2021-02-20T14:44:56Z</time>
      </trkpt>
      <trkpt lat="45.17537" lon="5.92251">
        <ele>1689.5</ele>
        <time>2021-02-20T14:44:57Z</time>
      </trkpt>
      <trkpt lat="45.17538" lon="5.9225">
        <ele>1689.4</ele>
        <time>2021-02-20T14:44:58Z</time>
      </trkpt>
      <trkpt lat="45.17539" lon="5.92249">
        <ele>1689.4</ele>
        <time>2021-02-20T14:44:59Z</time>
      </trkpt>
      <trkpt lat="45.17539" lon="5.92248">
        <ele>1689.3</ele>
        <time>2021-02-20T14:45:00Z</time>
      </trkpt>
      <trkpt lat="45.17538" lon="5.92247">
        <ele>1689.2</ele>
        <time>2021-02-20T14:45:01Z</time>
      </trkpt>
      <trkpt lat="45.17537" lon="5.92246">
        <ele>1689.1</ele>
        <time>2021-02-20T14:45:02Z</time>
      </trkpt>
      <trkpt lat="45.17538" lon="5.92245">
        <ele>1689.1</ele>
        <time>2021-02-20T14:45:03Z</time>
      </trkpt>
      <trkpt lat="45.17539" lon="5.92244">
        <ele>1689</ele>
        <time>2021-02-20T14:45:04Z</time>
      </trkpt>
      <trkpt lat="45.1754" lon="5.92242">
        <ele>1688.9</ele>
        <time>2021-02-20T14:45:05Z</time>
      </trkpt>
      <trkpt lat="45.17541" lon="5.9224">
        <ele>1688.8</ele>
        <time>2021-02-20T14:45:06Z</time>
      </trkpt>
      <trkpt lat="45.17543" lon="5.92239">
        <ele>1688.7</ele>
        <time>2021-02-20T14:45:07Z</time>
      </trkpt>
      <trkpt lat="45.17544" lon="5.92238">
        <ele>1688.6</ele>
        <time>2021-02-20T14:45:08Z</time>
      </trkpt>
      <trkpt lat="45.17545" lon="5.92237">
        <ele>1688.6</ele>
        <time>2021-02-20T14:45:09Z</time>
      </trkpt>
      <trkpt lat="45.17546" lon="5.92237">
        <ele>1688.5</ele>
        <time>2021-02-20T14:45:10Z</time>
      </trkpt>
      <trkpt lat="45.17549" lon="5.92233">
        <ele>1688.3</ele>
        <time>2021-02-20T14:45:11Z</time>
      </trkpt>
      <trkpt lat="45.17553" lon="5.92229">
        <ele>1688</ele>
        <time>2021-02-20T14:45:12Z</time>
      </trkpt>
      <trkpt lat="45.17556" lon="5.92223">
        <ele>1687.8</ele>
        <time>2021-02-20T14:45:13Z</time>
      </trkpt>
      <trkpt lat="45.17558" lon="5.92218">
        <ele>1687.6</ele>
        <time>2021-02-20T14:45:14Z</time>
      </trkpt>
      <trkpt lat="45.1756" lon="5.92214">
        <ele>1687.4</ele>
        <time>2021-02-20T14:45:15Z</time>
      </trkpt>
      <trkpt lat="45.17564" lon="5.92208">
        <ele>1687.1</ele>
        <time>2021-02-20T14:45:16Z</time>
      </trkpt>
      <trkpt lat="45.17567" lon="5.92206">
        <ele>1686.9</ele>
        <time>2021-02-20T14:45:17Z</time>
      </trkpt>
      <trkpt lat="45.17571" lon="5.92206">
        <ele>1686.7</ele>
        <time>2021-02-20T14:45:18Z</time>
      </trkpt>
      <trkpt lat="45.17573" lon="5.92204">
        <ele>1686.5</ele>
        <time>2021-02-20T14:45:19Z</time>
      </trkpt>
      <trkpt lat="45.17576" lon="5.92201">
        <ele>1686.3</ele>
        <time>2021-02-20T14:45:20Z</time>
      </trkpt>
      <trkpt lat="45.17576" lon="5.922">
        <ele>1686.3</ele>
        <time>2021-02-20T14:45:21Z</time>
      </trkpt>
      <trkpt lat="45.17577" lon="5.92195">
        <ele>1686.1</ele>
        <time>2021-02-20T14:45:22Z</time>
      </trkpt>
      <trkpt lat="45.17578" lon="5.92194">
        <ele>1686.1</ele>
        <time>2021-02-20T14:45:23Z</time>
      </trkpt>
      <trkpt lat="45.17579" lon="5.92192">
        <ele>1686</ele>
        <time>2021-02-20T14:45:24Z</time>
      </trkpt>
      <trkpt lat="45.1758" lon="5.9219">
        <ele>1685.9</ele>
        <time>2021-02-20T14:45:25Z</time>
      </trkpt>
      <trkpt lat="45.17583" lon="5.92187">
        <ele>1685.7</ele>
        <time>2021-02-20T14:45:26Z</time>
      </trkpt>
      <trkpt lat="45.17585" lon="5.92183">
        <ele>1685.5</ele>
        <time>2021-02-20T14:45:27Z</time>
      </trkpt>
      <trkpt lat="45.17587" lon="5.92177">
        <ele>1685.3</ele>
        <time>2021-02-20T14:45:28Z</time>
      </trkpt>
      <trkpt lat="45.17589" lon="5.92173">
        <ele>1685.2</ele>
        <time>2021-02-20T14:45:29Z</time>
      </trkpt>
      <trkpt lat="45.17591" lon="5.9217">
        <ele>1685</ele>
        <time>2021-02-20T14:45:30Z</time>
      </trkpt>
      <trkpt lat="45.17591" lon="5.92168">
        <ele>1685</ele>
        <time>2021-02-20T14:45:31Z</time>
      </trkpt>
      <trkpt lat="45.17593" lon="5.92164">
        <ele>1684.8</ele>
        <time>2021-02-20T14:45:32Z</time>
      </trkpt>
      <trkpt lat="45.17594" lon="5.92163">
        <ele>1684.7</ele>
        <time>2021-02-20T14:45:33Z</time>
      </trkpt>
      <trkpt lat="45.17595" lon="5.92162">
        <ele>1684.7</ele>
        <time>2021-02-20T14:45:34Z</time>
      </trkpt>
      <trkpt lat="45.17594" lon="5.92161">
        <ele>1684.6</ele>
        <time>2021-02-20T14:45:35Z</time>
      </trkpt>
      <trkpt lat="45.17595" lon="5.9216">
        <ele>1684.6</ele>
        <time>2021-02-20T14:45:36Z</time>
      </trkpt>
      <trkpt lat="45.17596" lon="5.92158">
        <ele>1684.5</ele>
        <time>2021-02-20T14:45:37Z</time>
      </trkpt>
      <trkpt lat="45.17595" lon="5.92156">
        <ele>1684.4</ele>
        <time>2021-02-20T14:45:38Z</time>
      </trkpt>
      <trkpt lat="45.17596" lon="5.92155">
        <ele>1684.4</ele>
        <time>2021-02-20T14:45:39Z</time>
      </trkpt>
      <trkpt lat="45.17596" lon="5.92154">
        <ele>1684.4</ele>
        <time>2021-02-20T14:45:40Z</time>
      </trkpt>
      <trkpt lat="45.17596" lon="5.92152">
        <ele>1684.3</ele>
        <time>2021-02-20T14:45:41Z</time>
      </trkpt>
      <trkpt lat="45.17597" lon="5.92148">
        <ele>1684.1</ele>
        <time>2021-02-20T14:45:42Z</time>
      </trkpt>
      <trkpt lat="45.17597" lon="5.92146">
        <ele>1684</ele>
        <time>2021-02-20T14:45:43Z</time>
      </trkpt>
      <trkpt lat="45.17598" lon="5.92142">
        <ele>1683.8</ele>
        <time>2021-02-20T14:45:44Z</time>
      </trkpt>
      <trkpt lat="45.17599" lon="5.92141">
        <ele>1683.8</ele>
        <time>2021-02-20T14:45:45Z</time>
      </trkpt>
      <trkpt lat="45.17602" lon="5.92137">
        <ele>1683.6</ele>
        <time>2021-02-20T14:45:46Z</time>
      </trkpt>
      <trkpt lat="45.17603" lon="5.92136">
        <ele>1683.5</ele>
        <time>2021-02-20T14:45:47Z</time>
      </trkpt>
      <trkpt lat="45.17606" lon="5.92134">
        <ele>1683.3</ele>
        <time>2021-02-20T14:45:48Z</time>
      </trkpt>
      <trkpt lat="45.17607" lon="5.92133">
        <ele>1683.3</ele>
        <time>2021-02-20T14:45:49Z</time>
      </trkpt>
      <trkpt lat="45.1761" lon="5.92131">
        <ele>1683.1</ele>
        <time>2021-02-20T14:45:50Z</time>
      </trkpt>
      <trkpt lat="45.17611" lon="5.9213">
        <ele>1683</ele>
        <time>2021-02-20T14:45:51Z</time>
      </trkpt>
      <trkpt lat="45.17613" lon="5.92127">
        <ele>1682.8</ele>
        <time>2021-02-20T14:45:52Z</time>
      </trkpt>
      <trkpt lat="45.17614" lon="5.92125">
        <ele>1682.7</ele>
        <time>2021-02-20T14:45:53Z</time>
      </trkpt>
      <trkpt lat="45.17616" lon="5.92121">
        <ele>1682.5</ele>
        <time>2021-02-20T14:45:54Z</time>
      </trkpt>
      <trkpt lat="45.17617" lon="5.92116">
        <ele>1682.3</ele>
        <time>2021-02-20T14:45:55Z</time>
      </trkpt>
      <trkpt lat="45.17617" lon="5.92115">
        <ele>1682.2</ele>
        <time>2021-02-20T14:45:56Z</time>
      </trkpt>
      <trkpt lat="45.17618" lon="5.92111">
        <ele>1682</ele>
        <time>2021-02-20T14:45:57Z</time>
      </trkpt>
      <trkpt lat="45.17619" lon="5.92109">
        <ele>1682</ele>
        <time>2021-02-20T14:45:58Z</time>
      </trkpt>
      <trkpt lat="45.17619" lon="5.92107">
        <ele>1681.9</ele>
        <time>2021-02-20T14:45:59Z</time>
      </trkpt>
      <trkpt lat="45.17619" lon="5.92106">
        <ele>1681.8</ele>
        <time>2021-02-20T14:46:00Z</time>
      </trkpt>
      <trkpt lat="45.17621" lon="5.92102">
        <ele>1681.6</ele>
        <time>2021-02-20T14:46:01Z</time>
      </trkpt>
      <trkpt lat="45.17622" lon="5.92101">
        <ele>1681.5</ele>
        <time>2021-02-20T14:46:02Z</time>
      </trkpt>
      <trkpt lat="45.17624" lon="5.92098">
        <ele>1681.3</ele>
        <time>2021-02-20T14:46:03Z</time>
      </trkpt>
      <trkpt lat="45.17624" lon="5.92097">
        <ele>1681.3</ele>
        <time>2021-02-20T14:46:04Z</time>
      </trkpt>
      <trkpt lat="45.17626" lon="5.92093">
        <ele>1681.1</ele>
        <time>2021-02-20T14:46:05Z</time>
      </trkpt>
      <trkpt lat="45.17626" lon="5.92091">
        <ele>1681</ele>
        <time>2021-02-20T14:46:06Z</time>
      </trkpt>
      <trkpt lat="45.17627" lon="5.92089">
        <ele>1680.9</ele>
        <time>2021-02-20T14:46:07Z</time>
      </trkpt>
      <trkpt lat="45.17627" lon="5.92086">
        <ele>1680.7</ele>
        <time>2021-02-20T14:46:08Z</time>
      </trkpt>
      <trkpt lat="45.17627" lon="5.92085">
        <ele>1680.6</ele>
        <time>2021-02-20T14:46:09Z</time>
      </trkpt>
      <trkpt lat="45.17628" lon="5.92082">
        <ele>1680.5</ele>
        <time>2021-02-20T14:46:10Z</time>
      </trkpt>
      <trkpt lat="45.17628" lon="5.9208">
        <ele>1680.4</ele>
        <time>2021-02-20T14:46:11Z</time>
      </trkpt>
      <trkpt lat="45.17628" lon="5.92078">
        <ele>1680.3</ele>
        <time>2021-02-20T14:46:12Z</time>
      </trkpt>
      <trkpt lat="45.17629" lon="5.92075">
        <ele>1680.2</ele>
        <time>2021-02-20T14:46:13Z</time>
      </trkpt>
      <trkpt lat="45.17629" lon="5.92074">
        <ele>1680.1</ele>
        <time>2021-02-20T14:46:14Z</time>
      </trkpt>
      <trkpt lat="45.17629" lon="5.92072">
        <ele>1680.1</ele>
        <time>2021-02-20T14:46:15Z</time>
      </trkpt>
      <trkpt lat="45.17633" lon="5.92072">
        <ele>1679.8</ele>
        <time>2021-02-20T14:46:16Z</time>
      </trkpt>
      <trkpt lat="45.17636" lon="5.92071">
        <ele>1679.6</ele>
        <time>2021-02-20T14:46:17Z</time>
      </trkpt>
      <trkpt lat="45.17637" lon="5.92071">
        <ele>1679.6</ele>
        <time>2021-02-20T14:46:18Z</time>
      </trkpt>
      <trkpt lat="45.1764" lon="5.92068">
        <ele>1679.3</ele>
        <time>2021-02-20T14:46:19Z</time>
      </trkpt>
      <trkpt lat="45.17642" lon="5.92069">
        <ele>1679.1</ele>
        <time>2021-02-20T14:46:20Z</time>
      </trkpt>
      <trkpt lat="45.17644" lon="5.92069">
        <ele>1679</ele>
        <time>2021-02-20T14:46:21Z</time>
      </trkpt>
      <trkpt lat="45.17645" lon="5.92069">
        <ele>1678.9</ele>
        <time>2021-02-20T14:46:22Z</time>
      </trkpt>
      <trkpt lat="45.17648" lon="5.92069">
        <ele>1678.7</ele>
        <time>2021-02-20T14:46:23Z</time>
      </trkpt>
      <trkpt lat="45.17649" lon="5.92069">
        <ele>1678.6</ele>
        <time>2021-02-20T14:46:24Z</time>
      </trkpt>
      <trkpt lat="45.17652" lon="5.92067">
        <ele>1678.4</ele>
        <time>2021-02-20T14:46:25Z</time>
      </trkpt>
      <trkpt lat="45.17653" lon="5.92065">
        <ele>1678.2</ele>
        <time>2021-02-20T14:46:26Z</time>
      </trkpt>
      <trkpt lat="45.17655" lon="5.92065">
        <ele>1678.1</ele>
        <time>2021-02-20T14:46:27Z</time>
      </trkpt>
      <trkpt lat="45.17656" lon="5.92064">
        <ele>1678</ele>
        <time>2021-02-20T14:46:28Z</time>
      </trkpt>
      <trkpt lat="45.17657" lon="5.92063">
        <ele>1678</ele>
        <time>2021-02-20T14:46:29Z</time>
      </trkpt>
      <trkpt lat="45.17659" lon="5.92062">
        <ele>1677.8</ele>
        <time>2021-02-20T14:46:30Z</time>
      </trkpt>
      <trkpt lat="45.1766" lon="5.92062">
        <ele>1677.7</ele>
        <time>2021-02-20T14:46:31Z</time>
      </trkpt>
      <trkpt lat="45.1766" lon="5.92061">
        <ele>1677.7</ele>
        <time>2021-02-20T14:46:32Z</time>
      </trkpt>
      <trkpt lat="45.17661" lon="5.92061">
        <ele>1677.6</ele>
        <time>2021-02-20T14:46:33Z</time>
      </trkpt>
      <trkpt lat="45.17661" lon="5.92061">
        <ele>1677.6</ele>
        <time>2021-02-20T14:46:34Z</time>
      </trkpt>
      <trkpt lat="45.17661" lon="5.9206">
        <ele>1677.6</ele>
        <time>2021-02-20T14:46:35Z</time>
      </trkpt>
      <trkpt lat="45.17661" lon="5.92058">
        <ele>1677.5</ele>
        <time>2021-02-20T14:46:36Z</time>
      </trkpt>
      <trkpt lat="45.17661" lon="5.92058">
        <ele>1677.5</ele>
        <time>2021-02-20T14:46:37Z</time>
      </trkpt>
      <trkpt lat="45.17662" lon="5.92057">
        <ele>1677.4</ele>
        <time>2021-02-20T14:46:38Z</time>
      </trkpt>
      <trkpt lat="45.17663" lon="5.92055">
        <ele>1677.3</ele>
        <time>2021-02-20T14:46:39Z</time>
      </trkpt>
      <trkpt lat="45.17666" lon="5.92053">
        <ele>1677.1</ele>
        <time>2021-02-20T14:46:40Z</time>
      </trkpt>
      <trkpt lat="45.17668" lon="5.92052">
        <ele>1677</ele>
        <time>2021-02-20T14:46:41Z</time>
      </trkpt>
      <trkpt lat="45.17666" lon="5.92051">
        <ele>1676.8</ele>
        <time>2021-02-20T14:46:42Z</time>
      </trkpt>
      <trkpt lat="45.17665" lon="5.92048">
        <ele>1676.7</ele>
        <time>2021-02-20T14:46:43Z</time>
      </trkpt>
      <trkpt lat="45.17664" lon="5.92045">
        <ele>1676.6</ele>
        <time>2021-02-20T14:46:44Z</time>
      </trkpt>
      <trkpt lat="45.17663" lon="5.92042">
        <ele>1676.4</ele>
        <time>2021-02-20T14:46:45Z</time>
      </trkpt>
      <trkpt lat="45.17663" lon="5.9204">
        <ele>1676.3</ele>
        <time>2021-02-20T14:46:46Z</time>
      </trkpt>
      <trkpt lat="45.17663" lon="5.92038">
        <ele>1676.2</ele>
        <time>2021-02-20T14:46:47Z</time>
      </trkpt>
      <trkpt lat="45.17665" lon="5.92036">
        <ele>1676.1</ele>
        <time>2021-02-20T14:46:48Z</time>
      </trkpt>
      <trkpt lat="45.17666" lon="5.92035">
        <ele>1676</ele>
        <time>2021-02-20T14:46:49Z</time>
      </trkpt>
      <trkpt lat="45.17667" lon="5.92034">
        <ele>1676</ele>
        <time>2021-02-20T14:46:50Z</time>
      </trkpt>
      <trkpt lat="45.17667" lon="5.92034">
        <ele>1675.9</ele>
        <time>2021-02-20T14:46:51Z</time>
      </trkpt>
      <trkpt lat="45.17668" lon="5.92031">
        <ele>1675.8</ele>
        <time>2021-02-20T14:46:52Z</time>
      </trkpt>
      <trkpt lat="45.17668" lon="5.9203">
        <ele>1675.7</ele>
        <time>2021-02-20T14:46:53Z</time>
      </trkpt>
      <trkpt lat="45.17669" lon="5.9203">
        <ele>1675.7</ele>
        <time>2021-02-20T14:46:54Z</time>
      </trkpt>
      <trkpt lat="45.17671" lon="5.92028">
        <ele>1675.5</ele>
        <time>2021-02-20T14:46:55Z</time>
      </trkpt>
      <trkpt lat="45.17672" lon="5.92022">
        <ele>1675.2</ele>
        <time>2021-02-20T14:46:56Z</time>
      </trkpt>
      <trkpt lat="45.17675" lon="5.92019">
        <ele>1674.9</ele>
        <time>2021-02-20T14:46:57Z</time>
      </trkpt>
      <trkpt lat="45.17676" lon="5.92018">
        <ele>1674.8</ele>
        <time>2021-02-20T14:46:58Z</time>
      </trkpt>
      <trkpt lat="45.17679" lon="5.92016">
        <ele>1674.5</ele>
        <time>2021-02-20T14:46:59Z</time>
      </trkpt>
      <trkpt lat="45.17683" lon="5.92014">
        <ele>1674.1</ele>
        <time>2021-02-20T14:47:00Z</time>
      </trkpt>
      <trkpt lat="45.17687" lon="5.92013">
        <ele>1673.7</ele>
        <time>2021-02-20T14:47:01Z</time>
      </trkpt>
      <trkpt lat="45.1769" lon="5.92011">
        <ele>1673.4</ele>
        <time>2021-02-20T14:47:02Z</time>
      </trkpt>
      <trkpt lat="45.17693" lon="5.92008">
        <ele>1673.1</ele>
        <time>2021-02-20T14:47:03Z</time>
      </trkpt>
      <trkpt lat="45.17696" lon="5.92005">
        <ele>1672.8</ele>
        <time>2021-02-20T14:47:04Z</time>
      </trkpt>
      <trkpt lat="45.17699" lon="5.92003">
        <ele>1672.5</ele>
        <time>2021-02-20T14:47:05Z</time>
      </trkpt>
      <trkpt lat="45.17701" lon="5.92001">
        <ele>1672.2</ele>
        <time>2021-02-20T14:47:06Z</time>
      </trkpt>
      <trkpt lat="45.17702" lon="5.91996">
        <ele>1672</ele>
        <time>2021-02-20T14:47:07Z</time>
      </trkpt>
      <trkpt lat="45.17703" lon="5.91992">
        <ele>1671.7</ele>
        <time>2021-02-20T14:47:08Z</time>
      </trkpt>
      <trkpt lat="45.17703" lon="5.9199">
        <ele>1671.5</ele>
        <time>2021-02-20T14:47:09Z</time>
      </trkpt>
      <trkpt lat="45.17704" lon="5.91986">
        <ele>1671.2</ele>
        <time>2021-02-20T14:47:10Z</time>
      </trkpt>
      <trkpt lat="45.17704" lon="5.91984">
        <ele>1671.1</ele>
        <time>2021-02-20T14:47:11Z</time>
      </trkpt>
      <trkpt lat="45.17705" lon="5.9198">
        <ele>1670.8</ele>
        <time>2021-02-20T14:47:12Z</time>
      </trkpt>
      <trkpt lat="45.17707" lon="5.91976">
        <ele>1670.4</ele>
        <time>2021-02-20T14:47:13Z</time>
      </trkpt>
      <trkpt lat="45.17707" lon="5.91972">
        <ele>1670.1</ele>
        <time>2021-02-20T14:47:14Z</time>
      </trkpt>
      <trkpt lat="45.17707" lon="5.91968">
        <ele>1669.7</ele>
        <time>2021-02-20T14:47:15Z</time>
      </trkpt>
      <trkpt lat="45.17707" lon="5.91966">
        <ele>1669.6</ele>
        <time>2021-02-20T14:47:16Z</time>
      </trkpt>
      <trkpt lat="45.17708" lon="5.91963">
        <ele>1669.3</ele>
        <time>2021-02-20T14:47:17Z</time>
      </trkpt>
      <trkpt lat="45.17709" lon="5.91961">
        <ele>1669.1</ele>
        <time>2021-02-20T14:47:18Z</time>
      </trkpt>
      <trkpt lat="45.1771" lon="5.91958">
        <ele>1668.7</ele>
        <time>2021-02-20T14:47:19Z</time>
      </trkpt>
      <trkpt lat="45.1771" lon="5.91954">
        <ele>1668.3</ele>
        <time>2021-02-20T14:47:20Z</time>
      </trkpt>
      <trkpt lat="45.1771" lon="5.9195">
        <ele>1667.9</ele>
        <time>2021-02-20T14:47:21Z</time>
      </trkpt>
      <trkpt lat="45.17711" lon="5.91945">
        <ele>1667.5</ele>
        <time>2021-02-20T14:47:22Z</time>
      </trkpt>
      <trkpt lat="45.17711" lon="5.91943">
        <ele>1667.3</ele>
        <time>2021-02-20T14:47:23Z</time>
      </trkpt>
      <trkpt lat="45.17711" lon="5.91939">
        <ele>1666.9</ele>
        <time>2021-02-20T14:47:24Z</time>
      </trkpt>
      <trkpt lat="45.17712" lon="5.91935">
        <ele>1666.5</ele>
        <time>2021-02-20T14:47:25Z</time>
      </trkpt>
      <trkpt lat="45.17712" lon="5.91929">
        <ele>1666</ele>
        <time>2021-02-20T14:47:26Z</time>
      </trkpt>
      <trkpt lat="45.17712" lon="5.91927">
        <ele>1665.8</ele>
        <time>2021-02-20T14:47:27Z</time>
      </trkpt>
      <trkpt lat="45.17712" lon="5.91922">
        <ele>1665.3</ele>
        <time>2021-02-20T14:47:28Z</time>
      </trkpt>
      <trkpt lat="45.17712" lon="5.91921">
        <ele>1665.2</ele>
        <time>2021-02-20T14:47:29Z</time>
      </trkpt>
      <trkpt lat="45.17712" lon="5.91919">
        <ele>1665</ele>
        <time>2021-02-20T14:47:30Z</time>
      </trkpt>
      <trkpt lat="45.17712" lon="5.91918">
        <ele>1664.9</ele>
        <time>2021-02-20T14:47:31Z</time>
      </trkpt>
      <trkpt lat="45.17712" lon="5.91917">
        <ele>1664.8</ele>
        <time>2021-02-20T14:47:32Z</time>
      </trkpt>
      <trkpt lat="45.17715" lon="5.91918">
        <ele>1664.4</ele>
        <time>2021-02-20T14:47:33Z</time>
      </trkpt>
      <trkpt lat="45.17716" lon="5.91917">
        <ele>1664.3</ele>
        <time>2021-02-20T14:47:34Z</time>
      </trkpt>
      <trkpt lat="45.17717" lon="5.91917">
        <ele>1663</ele>
        <time>2021-02-20T14:47:35Z</time>
      </trkpt>
      <trkpt lat="45.17719" lon="5.91914">
        <ele>1663</ele>
        <time>2021-02-20T14:47:36Z</time>
      </trkpt>
      <trkpt lat="45.1772" lon="5.91913">
        <ele>1661.7</ele>
        <time>2021-02-20T14:47:37Z</time>
      </trkpt>
      <trkpt lat="45.1772" lon="5.91913">
        <ele>1661.7</ele>
        <time>2021-02-20T14:47:38Z</time>
      </trkpt>
      <trkpt lat="45.1772" lon="5.91912">
        <ele>1661.7</ele>
        <time>2021-02-20T14:47:39Z</time>
      </trkpt>
      <trkpt lat="45.1772" lon="5.91912">
        <ele>1661.7</ele>
        <time>2021-02-20T14:47:40Z</time>
      </trkpt>
      <trkpt lat="45.1772" lon="5.91912">
        <ele>1661.7</ele>
        <time>2021-02-20T14:47:41Z</time>
      </trkpt>
      <trkpt lat="45.1772" lon="5.91912">
        <ele>1661.7</ele>
        <time>2021-02-20T14:47:42Z</time>
      </trkpt>
      <trkpt lat="45.1772" lon="5.9191">
        <ele>1661.7</ele>
        <time>2021-02-20T14:47:43Z</time>
      </trkpt>
      <trkpt lat="45.17721" lon="5.91909">
        <ele>1661.8</ele>
        <time>2021-02-20T14:47:44Z</time>
      </trkpt>
      <trkpt lat="45.17721" lon="5.91907">
        <ele>1661.8</ele>
        <time>2021-02-20T14:47:45Z</time>
      </trkpt>
      <trkpt lat="45.17722" lon="5.91906">
        <ele>1661.8</ele>
        <time>2021-02-20T14:47:46Z</time>
      </trkpt>
      <trkpt lat="45.17722" lon="5.91904">
        <ele>1661.9</ele>
        <time>2021-02-20T14:47:47Z</time>
      </trkpt>
      <trkpt lat="45.17722" lon="5.91904">
        <ele>1661.9</ele>
        <time>2021-02-20T14:47:48Z</time>
      </trkpt>
      <trkpt lat="45.17723" lon="5.91903">
        <ele>1661.9</ele>
        <time>2021-02-20T14:47:49Z</time>
      </trkpt>
      <trkpt lat="45.17723" lon="5.91903">
        <ele>1660.5</ele>
        <time>2021-02-20T14:47:50Z</time>
      </trkpt>
      <trkpt lat="45.17723" lon="5.91903">
        <ele>1660.5</ele>
        <time>2021-02-20T14:47:51Z</time>
      </trkpt>
      <trkpt lat="45.17723" lon="5.91902">
        <ele>1660.5</ele>
        <time>2021-02-20T14:47:52Z</time>
      </trkpt>
      <trkpt lat="45.17723" lon="5.91902">
        <ele>1660.5</ele>
        <time>2021-02-20T14:47:53Z</time>
      </trkpt>
      <trkpt lat="45.17724" lon="5.91901">
        <ele>1660.5</ele>
        <time>2021-02-20T14:47:54Z</time>
      </trkpt>
      <trkpt lat="45.17724" lon="5.91901">
        <ele>1660.5</ele>
        <time>2021-02-20T14:47:55Z</time>
      </trkpt>
      <trkpt lat="45.17724" lon="5.919">
        <ele>1660.5</ele>
        <time>2021-02-20T14:47:56Z</time>
      </trkpt>
      <trkpt lat="45.17724" lon="5.919">
        <ele>1660.5</ele>
        <time>2021-02-20T14:47:57Z</time>
      </trkpt>
      <trkpt lat="45.17725" lon="5.919">
        <ele>1660.5</ele>
        <time>2021-02-20T14:47:58Z</time>
      </trkpt>
      <trkpt lat="45.17725" lon="5.919">
        <ele>1660.5</ele>
        <time>2021-02-20T14:47:59Z</time>
      </trkpt>
      <trkpt lat="45.17725" lon="5.919">
        <ele>1660.5</ele>
        <time>2021-02-20T14:48:00Z</time>
      </trkpt>
      <trkpt lat="45.17725" lon="5.91898">
        <ele>1660.5</ele>
        <time>2021-02-20T14:48:01Z</time>
      </trkpt>
      <trkpt lat="45.17726" lon="5.91898">
        <ele>1659.2</ele>
        <time>2021-02-20T14:48:02Z</time>
      </trkpt>
      <trkpt lat="45.17727" lon="5.91897">
        <ele>1659.2</ele>
        <time>2021-02-20T14:48:03Z</time>
      </trkpt>
      <trkpt lat="45.17727" lon="5.91897">
        <ele>1659.1</ele>
        <time>2021-02-20T14:48:04Z</time>
      </trkpt>
      <trkpt lat="45.17728" lon="5.91897">
        <ele>1659.1</ele>
        <time>2021-02-20T14:48:05Z</time>
      </trkpt>
      <trkpt lat="45.17728" lon="5.91896">
        <ele>1659.1</ele>
        <time>2021-02-20T14:48:06Z</time>
      </trkpt>
      <trkpt lat="45.1773" lon="5.91895">
        <ele>1657.9</ele>
        <time>2021-02-20T14:48:07Z</time>
      </trkpt>
      <trkpt lat="45.17732" lon="5.91894">
        <ele>1657.9</ele>
        <time>2021-02-20T14:48:08Z</time>
      </trkpt>
      <trkpt lat="45.17732" lon="5.91893">
        <ele>1656.6</ele>
        <time>2021-02-20T14:48:09Z</time>
      </trkpt>
      <trkpt lat="45.17733" lon="5.91893">
        <ele>1656.5</ele>
        <time>2021-02-20T14:48:10Z</time>
      </trkpt>
      <trkpt lat="45.17734" lon="5.91891">
        <ele>1656.5</ele>
        <time>2021-02-20T14:48:11Z</time>
      </trkpt>
      <trkpt lat="45.17735" lon="5.91889">
        <ele>1656.5</ele>
        <time>2021-02-20T14:48:12Z</time>
      </trkpt>
      <trkpt lat="45.17736" lon="5.91888">
        <ele>1655</ele>
        <time>2021-02-20T14:48:13Z</time>
      </trkpt>
      <trkpt lat="45.17736" lon="5.91887">
        <ele>1655</ele>
        <time>2021-02-20T14:48:14Z</time>
      </trkpt>
      <trkpt lat="45.17735" lon="5.91886">
        <ele>1655</ele>
        <time>2021-02-20T14:48:15Z</time>
      </trkpt>
      <trkpt lat="45.17735" lon="5.91886">
        <ele>1655</ele>
        <time>2021-02-20T14:48:16Z</time>
      </trkpt>
      <trkpt lat="45.17735" lon="5.91885">
        <ele>1655</ele>
        <time>2021-02-20T14:48:17Z</time>
      </trkpt>
      <trkpt lat="45.17736" lon="5.91884">
        <ele>1655</ele>
        <time>2021-02-20T14:48:18Z</time>
      </trkpt>
      <trkpt lat="45.17737" lon="5.91883">
        <ele>1654.7</ele>
        <time>2021-02-20T14:48:19Z</time>
      </trkpt>
      <trkpt lat="45.17738" lon="5.91883">
        <ele>1654.7</ele>
        <time>2021-02-20T14:48:20Z</time>
      </trkpt>
      <trkpt lat="45.17738" lon="5.91882">
        <ele>1653.5</ele>
        <time>2021-02-20T14:48:21Z</time>
      </trkpt>
      <trkpt lat="45.17739" lon="5.91878">
        <ele>1653.2</ele>
        <time>2021-02-20T14:48:22Z</time>
      </trkpt>
      <trkpt lat="45.1774" lon="5.91874">
        <ele>1652.9</ele>
        <time>2021-02-20T14:48:23Z</time>
      </trkpt>
      <trkpt lat="45.1774" lon="5.91871">
        <ele>1652.5</ele>
        <time>2021-02-20T14:48:24Z</time>
      </trkpt>
      <trkpt lat="45.17741" lon="5.9187">
        <ele>1652.5</ele>
        <time>2021-02-20T14:48:25Z</time>
      </trkpt>
      <trkpt lat="45.17742" lon="5.91869">
        <ele>1651.3</ele>
        <time>2021-02-20T14:48:26Z</time>
      </trkpt>
      <trkpt lat="45.17742" lon="5.91869">
        <ele>1651.3</ele>
        <time>2021-02-20T14:48:27Z</time>
      </trkpt>
      <trkpt lat="45.17743" lon="5.9187">
        <ele>1651.3</ele>
        <time>2021-02-20T14:48:28Z</time>
      </trkpt>
      <trkpt lat="45.17743" lon="5.9187">
        <ele>1651.3</ele>
        <time>2021-02-20T14:48:29Z</time>
      </trkpt>
      <trkpt lat="45.17744" lon="5.9187">
        <ele>1651.3</ele>
        <time>2021-02-20T14:48:30Z</time>
      </trkpt>
      <trkpt lat="45.17744" lon="5.9187">
        <ele>1650</ele>
        <time>2021-02-20T14:48:31Z</time>
      </trkpt>
      <trkpt lat="45.17745" lon="5.9187">
        <ele>1650</ele>
        <time>2021-02-20T14:48:32Z</time>
      </trkpt>
      <trkpt lat="45.17745" lon="5.9187">
        <ele>1650</ele>
        <time>2021-02-20T14:48:33Z</time>
      </trkpt>
      <trkpt lat="45.17746" lon="5.91871">
        <ele>1650</ele>
        <time>2021-02-20T14:48:34Z</time>
      </trkpt>
      <trkpt lat="45.17746" lon="5.91871">
        <ele>1650</ele>
        <time>2021-02-20T14:48:35Z</time>
      </trkpt>
      <trkpt lat="45.17746" lon="5.91871">
        <ele>1650</ele>
        <time>2021-02-20T14:48:36Z</time>
      </trkpt>
      <trkpt lat="45.17749" lon="5.91872">
        <ele>1649</ele>
        <time>2021-02-20T14:48:37Z</time>
      </trkpt>
      <trkpt lat="45.17751" lon="5.91873">
        <ele>1647.6</ele>
        <time>2021-02-20T14:48:38Z</time>
      </trkpt>
      <trkpt lat="45.17751" lon="5.91872">
        <ele>1647.6</ele>
        <time>2021-02-20T14:48:39Z</time>
      </trkpt>
      <trkpt lat="45.17751" lon="5.91872">
        <ele>1647.6</ele>
        <time>2021-02-20T14:48:40Z</time>
      </trkpt>
      <trkpt lat="45.17751" lon="5.91872">
        <ele>1647.6</ele>
        <time>2021-02-20T14:48:41Z</time>
      </trkpt>
      <trkpt lat="45.17751" lon="5.91872">
        <ele>1647.6</ele>
        <time>2021-02-20T14:48:42Z</time>
      </trkpt>
      <trkpt lat="45.17751" lon="5.91872">
        <ele>1647.6</ele>
        <time>2021-02-20T14:48:43Z</time>
      </trkpt>
      <trkpt lat="45.17751" lon="5.91872">
        <ele>1647.6</ele>
        <time>2021-02-20T14:48:44Z</time>
      </trkpt>
      <trkpt lat="45.17751" lon="5.91872">
        <ele>1647.5</ele>
        <time>2021-02-20T14:48:45Z</time>
      </trkpt>
      <trkpt lat="45.17751" lon="5.91872">
        <ele>1647.5</ele>
        <time>2021-02-20T14:48:46Z</time>
      </trkpt>
      <trkpt lat="45.17751" lon="5.91872">
        <ele>1647.5</ele>
        <time>2021-02-20T14:48:47Z</time>
      </trkpt>
      <trkpt lat="45.17751" lon="5.91872">
        <ele>1647.5</ele>
        <time>2021-02-20T14:48:48Z</time>
      </trkpt>
      <trkpt lat="45.17751" lon="5.91872">
        <ele>1647.5</ele>
        <time>2021-02-20T14:48:49Z</time>
      </trkpt>
      <trkpt lat="45.17751" lon="5.91872">
        <ele>1647.5</ele>
        <time>2021-02-20T14:48:50Z</time>
      </trkpt>
      <trkpt lat="45.17751" lon="5.91872">
        <ele>1647.5</ele>
        <time>2021-02-20T14:48:51Z</time>
      </trkpt>
      <trkpt lat="45.17751" lon="5.91872">
        <ele>1647.5</ele>
        <time>2021-02-20T14:48:52Z</time>
      </trkpt>
      <trkpt lat="45.17751" lon="5.91872">
        <ele>1647.5</ele>
        <time>2021-02-20T14:48:53Z</time>
      </trkpt>
      <trkpt lat="45.17751" lon="5.91872">
        <ele>1647.5</ele>
        <time>2021-02-20T14:48:54Z</time>
      </trkpt>
      <trkpt lat="45.17751" lon="5.91872">
        <ele>1647.5</ele>
        <time>2021-02-20T14:48:55Z</time>
      </trkpt>
      <trkpt lat="45.17751" lon="5.91872">
        <ele>1647.5</ele>
        <time>2021-02-20T14:48:56Z</time>
      </trkpt>
      <trkpt lat="45.17751" lon="5.91872">
        <ele>1647.5</ele>
        <time>2021-02-20T14:48:57Z</time>
      </trkpt>
      <trkpt lat="45.17751" lon="5.91872">
        <ele>1647.5</ele>
        <time>2021-02-20T14:48:58Z</time>
      </trkpt>
      <trkpt lat="45.17751" lon="5.91872">
        <ele>1647.5</ele>
        <time>2021-02-20T14:48:59Z</time>
      </trkpt>
      <trkpt lat="45.17751" lon="5.91872">
        <ele>1647.5</ele>
        <time>2021-02-20T14:49:00Z</time>
      </trkpt>
      <trkpt lat="45.17751" lon="5.9187">
        <ele>1647.2</ele>
        <time>2021-02-20T14:49:01Z</time>
      </trkpt>
      <trkpt lat="45.17751" lon="5.9187">
        <ele>1647.2</ele>
        <time>2021-02-20T14:49:02Z</time>
      </trkpt>
      <trkpt lat="45.17751" lon="5.9187">
        <ele>1647.2</ele>
        <time>2021-02-20T14:49:03Z</time>
      </trkpt>
      <trkpt lat="45.17751" lon="5.9187">
        <ele>1647.2</ele>
        <time>2021-02-20T14:49:04Z</time>
      </trkpt>
      <trkpt lat="45.17751" lon="5.9187">
        <ele>1647.2</ele>
        <time>2021-02-20T14:49:05Z</time>
      </trkpt>
      <trkpt lat="45.17751" lon="5.9187">
        <ele>1647.2</ele>
        <time>2021-02-20T14:49:06Z</time>
      </trkpt>
      <trkpt lat="45.17751" lon="5.9187">
        <ele>1647.2</ele>
        <time>2021-02-20T14:49:07Z</time>
      </trkpt>
      <trkpt lat="45.17751" lon="5.9187">
        <ele>1647.2</ele>
        <time>2021-02-20T14:49:08Z</time>
      </trkpt>
      <trkpt lat="45.17751" lon="5.9187">
        <ele>1647.2</ele>
        <time>2021-02-20T14:49:09Z</time>
      </trkpt>
      <trkpt lat="45.17751" lon="5.9187">
        <ele>1647.2</ele>
        <time>2021-02-20T14:49:10Z</time>
      </trkpt>
      <trkpt lat="45.17751" lon="5.9187">
        <ele>1647.1</ele>
        <time>2021-02-20T14:49:11Z</time>
      </trkpt>
      <trkpt lat="45.17751" lon="5.9187">
        <ele>1647.1</ele>
        <time>2021-02-20T14:49:12Z</time>
      </trkpt>
      <trkpt lat="45.17751" lon="5.9187">
        <ele>1647.1</ele>
        <time>2021-02-20T14:49:13Z</time>
      </trkpt>
      <trkpt lat="45.17751" lon="5.9187">
        <ele>1647.1</ele>
        <time>2021-02-20T14:49:14Z</time>
      </trkpt>
      <trkpt lat="45.17751" lon="5.9187">
        <ele>1647.1</ele>
        <time>2021-02-20T14:49:15Z</time>
      </trkpt>
      <trkpt lat="45.17751" lon="5.9187">
        <ele>1647.1</ele>
        <time>2021-02-20T14:49:16Z</time>
      </trkpt>
      <trkpt lat="45.17751" lon="5.9187">
        <ele>1647.1</ele>
        <time>2021-02-20T14:49:17Z</time>
      </trkpt>
      <trkpt lat="45.17751" lon="5.9187">
        <ele>1647.1</ele>
        <time>2021-02-20T14:49:18Z</time>
      </trkpt>
      <trkpt lat="45.17751" lon="5.9187">
        <ele>1647.1</ele>
        <time>2021-02-20T14:49:19Z</time>
      </trkpt>
      <trkpt lat="45.17751" lon="5.9187">
        <ele>1647.1</ele>
        <time>2021-02-20T14:49:20Z</time>
      </trkpt>
      <trkpt lat="45.17751" lon="5.9187">
        <ele>1647.1</ele>
        <time>2021-02-20T14:49:21Z</time>
      </trkpt>
      <trkpt lat="45.17751" lon="5.9187">
        <ele>1647.1</ele>
        <time>2021-02-20T14:49:22Z</time>
      </trkpt>
      <trkpt lat="45.17752" lon="5.91869">
        <ele>1647.1</ele>
        <time>2021-02-20T14:49:23Z</time>
      </trkpt>
      <trkpt lat="45.17752" lon="5.91869">
        <ele>1647.1</ele>
        <time>2021-02-20T14:49:24Z</time>
      </trkpt>
      <trkpt lat="45.17752" lon="5.91869">
        <ele>1647.1</ele>
        <time>2021-02-20T14:49:25Z</time>
      </trkpt>
      <trkpt lat="45.17752" lon="5.91869">
        <ele>1647.1</ele>
        <time>2021-02-20T14:49:26Z</time>
      </trkpt>
      <trkpt lat="45.17752" lon="5.91869">
        <ele>1647</ele>
        <time>2021-02-20T14:49:27Z</time>
      </trkpt>
      <trkpt lat="45.17752" lon="5.91869">
        <ele>1647</ele>
        <time>2021-02-20T14:49:28Z</time>
      </trkpt>
      <trkpt lat="45.17752" lon="5.91869">
        <ele>1647</ele>
        <time>2021-02-20T14:49:29Z</time>
      </trkpt>
      <trkpt lat="45.17752" lon="5.91869">
        <ele>1647</ele>
        <time>2021-02-20T14:49:30Z</time>
      </trkpt>
      <trkpt lat="45.17752" lon="5.91869">
        <ele>1647</ele>
        <time>2021-02-20T14:49:31Z</time>
      </trkpt>
      <trkpt lat="45.17752" lon="5.91869">
        <ele>1647</ele>
        <time>2021-02-20T14:49:32Z</time>
      </trkpt>
      <trkpt lat="45.17752" lon="5.91869">
        <ele>1647</ele>
        <time>2021-02-20T14:49:33Z</time>
      </trkpt>
      <trkpt lat="45.17753" lon="5.91869">
        <ele>1647</ele>
        <time>2021-02-20T14:49:34Z</time>
      </trkpt>
      <trkpt lat="45.17753" lon="5.91869">
        <ele>1647</ele>
        <time>2021-02-20T14:49:35Z</time>
      </trkpt>
      <trkpt lat="45.17753" lon="5.91869">
        <ele>1647</ele>
        <time>2021-02-20T14:49:36Z</time>
      </trkpt>
      <trkpt lat="45.17753" lon="5.91869">
        <ele>1647</ele>
        <time>2021-02-20T14:49:37Z</time>
      </trkpt>
      <trkpt lat="45.17753" lon="5.91869">
        <ele>1647</ele>
        <time>2021-02-20T14:49:38Z</time>
      </trkpt>
      <trkpt lat="45.17753" lon="5.91869">
        <ele>1647</ele>
        <time>2021-02-20T14:49:39Z</time>
      </trkpt>
      <trkpt lat="45.17753" lon="5.91869">
        <ele>1647</ele>
        <time>2021-02-20T14:49:40Z</time>
      </trkpt>
      <trkpt lat="45.17753" lon="5.91869">
        <ele>1647</ele>
        <time>2021-02-20T14:49:41Z</time>
      </trkpt>
      <trkpt lat="45.17753" lon="5.91869">
        <ele>1647</ele>
        <time>2021-02-20T14:49:42Z</time>
      </trkpt>
      <trkpt lat="45.17754" lon="5.91869">
        <ele>1645.6</ele>
        <time>2021-02-20T14:49:43Z</time>
      </trkpt>
      <trkpt lat="45.17754" lon="5.91869">
        <ele>1645.5</ele>
        <time>2021-02-20T14:49:44Z</time>
      </trkpt>
      <trkpt lat="45.17754" lon="5.91869">
        <ele>1645.5</ele>
        <time>2021-02-20T14:49:45Z</time>
      </trkpt>
      <trkpt lat="45.17754" lon="5.91869">
        <ele>1645.5</ele>
        <time>2021-02-20T14:49:46Z</time>
      </trkpt>
      <trkpt lat="45.17754" lon="5.91869">
        <ele>1645.5</ele>
        <time>2021-02-20T14:49:47Z</time>
      </trkpt>
      <trkpt lat="45.17754" lon="5.91869">
        <ele>1645.5</ele>
        <time>2021-02-20T14:49:48Z</time>
      </trkpt>
      <trkpt lat="45.17754" lon="5.91869">
        <ele>1645.5</ele>
        <time>2021-02-20T14:49:49Z</time>
      </trkpt>
      <trkpt lat="45.17754" lon="5.91869">
        <ele>1645.5</ele>
        <time>2021-02-20T14:49:50Z</time>
      </trkpt>
      <trkpt lat="45.17754" lon="5.91869">
        <ele>1645.5</ele>
        <time>2021-02-20T14:49:51Z</time>
      </trkpt>
      <trkpt lat="45.17754" lon="5.91869">
        <ele>1645.5</ele>
        <time>2021-02-20T14:49:52Z</time>
      </trkpt>
      <trkpt lat="45.17754" lon="5.91869">
        <ele>1645.5</ele>
        <time>2021-02-20T14:49:53Z</time>
      </trkpt>
      <trkpt lat="45.17754" lon="5.91869">
        <ele>1645.5</ele>
        <time>2021-02-20T14:49:54Z</time>
      </trkpt>
      <trkpt lat="45.17754" lon="5.91869">
        <ele>1645.5</ele>
        <time>2021-02-20T14:49:55Z</time>
      </trkpt>
      <trkpt lat="45.17754" lon="5.91869">
        <ele>1645.5</ele>
        <time>2021-02-20T14:49:56Z</time>
      </trkpt>
      <trkpt lat="45.17754" lon="5.91869">
        <ele>1645.4</ele>
        <time>2021-02-20T14:49:57Z</time>
      </trkpt>
      <trkpt lat="45.17755" lon="5.91868">
        <ele>1645.4</ele>
        <time>2021-02-20T14:49:58Z</time>
      </trkpt>
      <trkpt lat="45.17755" lon="5.91868">
        <ele>1645.4</ele>
        <time>2021-02-20T14:49:59Z</time>
      </trkpt>
      <trkpt lat="45.17754" lon="5.91868">
        <ele>1645.4</ele>
        <time>2021-02-20T14:50:00Z</time>
      </trkpt>
      <trkpt lat="45.17754" lon="5.91868">
        <ele>1645.4</ele>
        <time>2021-02-20T14:50:01Z</time>
      </trkpt>
      <trkpt lat="45.17754" lon="5.91868">
        <ele>1645.4</ele>
        <time>2021-02-20T14:50:02Z</time>
      </trkpt>
      <trkpt lat="45.17754" lon="5.91868">
        <ele>1645.4</ele>
        <time>2021-02-20T14:50:03Z</time>
      </trkpt>
      <trkpt lat="45.17754" lon="5.91868">
        <ele>1645.4</ele>
        <time>2021-02-20T14:50:04Z</time>
      </trkpt>
      <trkpt lat="45.17754" lon="5.91868">
        <ele>1645.4</ele>
        <time>2021-02-20T14:50:05Z</time>
      </trkpt>
      <trkpt lat="45.17754" lon="5.91868">
        <ele>1645.4</ele>
        <time>2021-02-20T14:50:06Z</time>
      </trkpt>
      <trkpt lat="45.17754" lon="5.91868">
        <ele>1645.4</ele>
        <time>2021-02-20T14:50:07Z</time>
      </trkpt>
      <trkpt lat="45.17754" lon="5.91868">
        <ele>1645.4</ele>
        <time>2021-02-20T14:50:08Z</time>
      </trkpt>
      <trkpt lat="45.17754" lon="5.9187">
        <ele>1645.4</ele>
        <time>2021-02-20T14:50:09Z</time>
      </trkpt>
      <trkpt lat="45.17754" lon="5.9187">
        <ele>1645.4</ele>
        <time>2021-02-20T14:50:10Z</time>
      </trkpt>
      <trkpt lat="45.17754" lon="5.9187">
        <ele>1645.4</ele>
        <time>2021-02-20T14:50:11Z</time>
      </trkpt>
      <trkpt lat="45.17754" lon="5.9187">
        <ele>1645.4</ele>
        <time>2021-02-20T14:50:12Z</time>
      </trkpt>
      <trkpt lat="45.17754" lon="5.9187">
        <ele>1645.4</ele>
        <time>2021-02-20T14:50:13Z</time>
      </trkpt>
      <trkpt lat="45.17754" lon="5.9187">
        <ele>1645.4</ele>
        <time>2021-02-20T14:50:14Z</time>
      </trkpt>
      <trkpt lat="45.17754" lon="5.9187">
        <ele>1645.4</ele>
        <time>2021-02-20T14:50:15Z</time>
      </trkpt>
      <trkpt lat="45.17754" lon="5.9187">
        <ele>1645.4</ele>
        <time>2021-02-20T14:50:16Z</time>
      </trkpt>
      <trkpt lat="45.17754" lon="5.9187">
        <ele>1645.4</ele>
        <time>2021-02-20T14:50:17Z</time>
      </trkpt>
      <trkpt lat="45.17754" lon="5.9187">
        <ele>1645.4</ele>
        <time>2021-02-20T14:50:18Z</time>
      </trkpt>
      <trkpt lat="45.17754" lon="5.91869">
        <ele>1645.4</ele>
        <time>2021-02-20T14:50:19Z</time>
      </trkpt>
      <trkpt lat="45.17754" lon="5.91869">
        <ele>1645.4</ele>
        <time>2021-02-20T14:50:20Z</time>
      </trkpt>
      <trkpt lat="45.17754" lon="5.91868">
        <ele>1645.4</ele>
        <time>2021-02-20T14:50:21Z</time>
      </trkpt>
      <trkpt lat="45.17753" lon="5.91868">
        <ele>1645.4</ele>
        <time>2021-02-20T14:50:22Z</time>
      </trkpt>
      <trkpt lat="45.17753" lon="5.91867">
        <ele>1646.8</ele>
        <time>2021-02-20T14:50:23Z</time>
      </trkpt>
      <trkpt lat="45.17753" lon="5.91867">
        <ele>1646.8</ele>
        <time>2021-02-20T14:50:24Z</time>
      </trkpt>
      <trkpt lat="45.17753" lon="5.91867">
        <ele>1646.8</ele>
        <time>2021-02-20T14:50:25Z</time>
      </trkpt>
      <trkpt lat="45.17753" lon="5.91867">
        <ele>1646.8</ele>
        <time>2021-02-20T14:50:26Z</time>
      </trkpt>
      <trkpt lat="45.17753" lon="5.91867">
        <ele>1646.8</ele>
        <time>2021-02-20T14:50:27Z</time>
      </trkpt>
      <trkpt lat="45.17753" lon="5.91867">
        <ele>1646.8</ele>
        <time>2021-02-20T14:50:28Z</time>
      </trkpt>
      <trkpt lat="45.17753" lon="5.91867">
        <ele>1646.8</ele>
        <time>2021-02-20T14:50:29Z</time>
      </trkpt>
      <trkpt lat="45.17753" lon="5.91867">
        <ele>1646.8</ele>
        <time>2021-02-20T14:50:30Z</time>
      </trkpt>
      <trkpt lat="45.17753" lon="5.91867">
        <ele>1646.8</ele>
        <time>2021-02-20T14:50:31Z</time>
      </trkpt>
      <trkpt lat="45.17753" lon="5.91867">
        <ele>1646.8</ele>
        <time>2021-02-20T14:50:32Z</time>
      </trkpt>
      <trkpt lat="45.17753" lon="5.91867">
        <ele>1646.8</ele>
        <time>2021-02-20T14:50:33Z</time>
      </trkpt>
      <trkpt lat="45.17753" lon="5.91867">
        <ele>1646.8</ele>
        <time>2021-02-20T14:50:34Z</time>
      </trkpt>
      <trkpt lat="45.17753" lon="5.91867">
        <ele>1646.8</ele>
        <time>2021-02-20T14:50:35Z</time>
      </trkpt>
      <trkpt lat="45.17753" lon="5.91867">
        <ele>1646.8</ele>
        <time>2021-02-20T14:50:36Z</time>
      </trkpt>
      <trkpt lat="45.17753" lon="5.91867">
        <ele>1646.8</ele>
        <time>2021-02-20T14:50:37Z</time>
      </trkpt>
      <trkpt lat="45.17753" lon="5.91867">
        <ele>1646.8</ele>
        <time>2021-02-20T14:50:38Z</time>
      </trkpt>
      <trkpt lat="45.17753" lon="5.91867">
        <ele>1646.8</ele>
        <time>2021-02-20T14:50:39Z</time>
      </trkpt>
      <trkpt lat="45.17753" lon="5.91867">
        <ele>1646.7</ele>
        <time>2021-02-20T14:50:40Z</time>
      </trkpt>
      <trkpt lat="45.17751" lon="5.91867">
        <ele>1646.4</ele>
        <time>2021-02-20T14:50:41Z</time>
      </trkpt>
      <trkpt lat="45.17751" lon="5.91867">
        <ele>1646.4</ele>
        <time>2021-02-20T14:50:42Z</time>
      </trkpt>
      <trkpt lat="45.17751" lon="5.91867">
        <ele>1646.4</ele>
        <time>2021-02-20T14:50:43Z</time>
      </trkpt>
      <trkpt lat="45.17751" lon="5.91867">
        <ele>1646.3</ele>
        <time>2021-02-20T14:50:44Z</time>
      </trkpt>
      <trkpt lat="45.17752" lon="5.91865">
        <ele>1646.3</ele>
        <time>2021-02-20T14:50:45Z</time>
      </trkpt>
      <trkpt lat="45.17752" lon="5.91865">
        <ele>1646.3</ele>
        <time>2021-02-20T14:50:46Z</time>
      </trkpt>
      <trkpt lat="45.17752" lon="5.91864">
        <ele>1646.3</ele>
        <time>2021-02-20T14:50:47Z</time>
      </trkpt>
      <trkpt lat="45.17752" lon="5.91863">
        <ele>1646.3</ele>
        <time>2021-02-20T14:50:48Z</time>
      </trkpt>
      <trkpt lat="45.17752" lon="5.91863">
        <ele>1646.3</ele>
        <time>2021-02-20T14:50:49Z</time>
      </trkpt>
      <trkpt lat="45.17751" lon="5.91863">
        <ele>1645.8</ele>
        <time>2021-02-20T14:50:50Z</time>
      </trkpt>
      <trkpt lat="45.17752" lon="5.91863">
        <ele>1646.3</ele>
        <time>2021-02-20T14:50:51Z</time>
      </trkpt>
      <trkpt lat="45.17752" lon="5.91864">
        <ele>1646.3</ele>
        <time>2021-02-20T14:50:52Z</time>
      </trkpt>
      <trkpt lat="45.17752" lon="5.91864">
        <ele>1646.3</ele>
        <time>2021-02-20T14:50:53Z</time>
      </trkpt>
      <trkpt lat="45.17752" lon="5.91864">
        <ele>1646.3</ele>
        <time>2021-02-20T14:50:54Z</time>
      </trkpt>
      <trkpt lat="45.17752" lon="5.91864">
        <ele>1646.3</ele>
        <time>2021-02-20T14:50:55Z</time>
      </trkpt>
      <trkpt lat="45.17752" lon="5.91865">
        <ele>1646.3</ele>
        <time>2021-02-20T14:50:56Z</time>
      </trkpt>
      <trkpt lat="45.17752" lon="5.91865">
        <ele>1646.3</ele>
        <time>2021-02-20T14:50:57Z</time>
      </trkpt>
      <trkpt lat="45.17751" lon="5.91866">
        <ele>1646.3</ele>
        <time>2021-02-20T14:50:58Z</time>
      </trkpt>
      <trkpt lat="45.17752" lon="5.91866">
        <ele>1646.3</ele>
        <time>2021-02-20T14:50:59Z</time>
      </trkpt>
      <trkpt lat="45.17751" lon="5.91866">
        <ele>1646.3</ele>
        <time>2021-02-20T14:51:00Z</time>
      </trkpt>
      <trkpt lat="45.17751" lon="5.91866">
        <ele>1646.3</ele>
        <time>2021-02-20T14:51:01Z</time>
      </trkpt>
      <trkpt lat="45.17751" lon="5.91866">
        <ele>1646.3</ele>
        <time>2021-02-20T14:51:02Z</time>
      </trkpt>
      <trkpt lat="45.17751" lon="5.91866">
        <ele>1646.3</ele>
        <time>2021-02-20T14:51:03Z</time>
      </trkpt>
      <trkpt lat="45.17751" lon="5.91866">
        <ele>1646.3</ele>
        <time>2021-02-20T14:51:04Z</time>
      </trkpt>
      <trkpt lat="45.17751" lon="5.91866">
        <ele>1646.3</ele>
        <time>2021-02-20T14:51:05Z</time>
      </trkpt>
      <trkpt lat="45.17751" lon="5.91866">
        <ele>1646.3</ele>
        <time>2021-02-20T14:51:06Z</time>
      </trkpt>
      <trkpt lat="45.17751" lon="5.91866">
        <ele>1646.3</ele>
        <time>2021-02-20T14:51:07Z</time>
      </trkpt>
      <trkpt lat="45.17751" lon="5.91866">
        <ele>1646.3</ele>
        <time>2021-02-20T14:51:08Z</time>
      </trkpt>
      <trkpt lat="45.17751" lon="5.91866">
        <ele>1646.3</ele>
        <time>2021-02-20T14:51:09Z</time>
      </trkpt>
      <trkpt lat="45.17751" lon="5.91866">
        <ele>1646.3</ele>
        <time>2021-02-20T14:51:10Z</time>
      </trkpt>
      <trkpt lat="45.17751" lon="5.91866">
        <ele>1646.3</ele>
        <time>2021-02-20T14:51:11Z</time>
      </trkpt>
      <trkpt lat="45.17751" lon="5.91866">
        <ele>1646.3</ele>
        <time>2021-02-20T14:51:12Z</time>
      </trkpt>
      <trkpt lat="45.17751" lon="5.91866">
        <ele>1646.3</ele>
        <time>2021-02-20T14:51:13Z</time>
      </trkpt>
      <trkpt lat="45.17751" lon="5.91866">
        <ele>1646.3</ele>
        <time>2021-02-20T14:51:14Z</time>
      </trkpt>
      <trkpt lat="45.17751" lon="5.91866">
        <ele>1646.3</ele>
        <time>2021-02-20T14:51:15Z</time>
      </trkpt>
      <trkpt lat="45.17751" lon="5.91866">
        <ele>1646.3</ele>
        <time>2021-02-20T14:51:16Z</time>
      </trkpt>
      <trkpt lat="45.17751" lon="5.91866">
        <ele>1646.3</ele>
        <time>2021-02-20T14:51:17Z</time>
      </trkpt>
      <trkpt lat="45.17751" lon="5.91866">
        <ele>1646.3</ele>
        <time>2021-02-20T14:51:18Z</time>
      </trkpt>
      <trkpt lat="45.17751" lon="5.91866">
        <ele>1646.3</ele>
        <time>2021-02-20T14:51:19Z</time>
      </trkpt>
      <trkpt lat="45.17751" lon="5.91866">
        <ele>1646.3</ele>
        <time>2021-02-20T14:51:20Z</time>
      </trkpt>
      <trkpt lat="45.17751" lon="5.91866">
        <ele>1646.2</ele>
        <time>2021-02-20T14:51:21Z</time>
      </trkpt>
      <trkpt lat="45.17751" lon="5.91866">
        <ele>1646.2</ele>
        <time>2021-02-20T14:51:22Z</time>
      </trkpt>
      <trkpt lat="45.17751" lon="5.91866">
        <ele>1646.2</ele>
        <time>2021-02-20T14:51:23Z</time>
      </trkpt>
      <trkpt lat="45.17751" lon="5.91866">
        <ele>1646.2</ele>
        <time>2021-02-20T14:51:24Z</time>
      </trkpt>
      <trkpt lat="45.17751" lon="5.91866">
        <ele>1646.2</ele>
        <time>2021-02-20T14:51:25Z</time>
      </trkpt>
      <trkpt lat="45.17751" lon="5.91866">
        <ele>1646.2</ele>
        <time>2021-02-20T14:51:26Z</time>
      </trkpt>
      <trkpt lat="45.17751" lon="5.91866">
        <ele>1646.2</ele>
        <time>2021-02-20T14:51:27Z</time>
      </trkpt>
      <trkpt lat="45.17751" lon="5.91866">
        <ele>1646.2</ele>
        <time>2021-02-20T14:51:28Z</time>
      </trkpt>
      <trkpt lat="45.17751" lon="5.91866">
        <ele>1646.2</ele>
        <time>2021-02-20T14:51:29Z</time>
      </trkpt>
      <trkpt lat="45.17751" lon="5.91866">
        <ele>1646.2</ele>
        <time>2021-02-20T14:51:30Z</time>
      </trkpt>
      <trkpt lat="45.17751" lon="5.91866">
        <ele>1646.2</ele>
        <time>2021-02-20T14:51:31Z</time>
      </trkpt>
      <trkpt lat="45.17751" lon="5.91866">
        <ele>1646.2</ele>
        <time>2021-02-20T14:51:32Z</time>
      </trkpt>
      <trkpt lat="45.17751" lon="5.91866">
        <ele>1646.2</ele>
        <time>2021-02-20T14:51:33Z</time>
      </trkpt>
      <trkpt lat="45.1775" lon="5.91866">
        <ele>1646.2</ele>
        <time>2021-02-20T14:51:34Z</time>
      </trkpt>
      <trkpt lat="45.1775" lon="5.91866">
        <ele>1646.2</ele>
        <time>2021-02-20T14:51:35Z</time>
      </trkpt>
      <trkpt lat="45.1775" lon="5.91866">
        <ele>1646.2</ele>
        <time>2021-02-20T14:51:36Z</time>
      </trkpt>
      <trkpt lat="45.1775" lon="5.91866">
        <ele>1646.2</ele>
        <time>2021-02-20T14:51:37Z</time>
      </trkpt>
      <trkpt lat="45.1775" lon="5.91866">
        <ele>1646.2</ele>
        <time>2021-02-20T14:51:38Z</time>
      </trkpt>
      <trkpt lat="45.1775" lon="5.91866">
        <ele>1646.2</ele>
        <time>2021-02-20T14:51:39Z</time>
      </trkpt>
      <trkpt lat="45.1775" lon="5.91866">
        <ele>1646.2</ele>
        <time>2021-02-20T14:51:40Z</time>
      </trkpt>
      <trkpt lat="45.1775" lon="5.91866">
        <ele>1646.2</ele>
        <time>2021-02-20T14:51:41Z</time>
      </trkpt>
      <trkpt lat="45.1775" lon="5.91866">
        <ele>1646.2</ele>
        <time>2021-02-20T14:51:42Z</time>
      </trkpt>
      <trkpt lat="45.1775" lon="5.91866">
        <ele>1646.2</ele>
        <time>2021-02-20T14:51:43Z</time>
      </trkpt>
      <trkpt lat="45.1775" lon="5.91866">
        <ele>1646.2</ele>
        <time>2021-02-20T14:51:44Z</time>
      </trkpt>
      <trkpt lat="45.1775" lon="5.91866">
        <ele>1646.2</ele>
        <time>2021-02-20T14:51:45Z</time>
      </trkpt>
      <trkpt lat="45.1775" lon="5.91866">
        <ele>1646.2</ele>
        <time>2021-02-20T14:51:46Z</time>
      </trkpt>
      <trkpt lat="45.1775" lon="5.91866">
        <ele>1646.2</ele>
        <time>2021-02-20T14:51:47Z</time>
      </trkpt>
      <trkpt lat="45.1775" lon="5.91866">
        <ele>1646.2</ele>
        <time>2021-02-20T14:51:48Z</time>
      </trkpt>
      <trkpt lat="45.1775" lon="5.91866">
        <ele>1646.2</ele>
        <time>2021-02-20T14:51:49Z</time>
      </trkpt>
      <trkpt lat="45.1775" lon="5.91866">
        <ele>1646.2</ele>
        <time>2021-02-20T14:51:50Z</time>
      </trkpt>
      <trkpt lat="45.1775" lon="5.91866">
        <ele>1646.2</ele>
        <time>2021-02-20T14:51:51Z</time>
      </trkpt>
      <trkpt lat="45.1775" lon="5.91866">
        <ele>1646.2</ele>
        <time>2021-02-20T14:51:52Z</time>
      </trkpt>
      <trkpt lat="45.1775" lon="5.91866">
        <ele>1646.2</ele>
        <time>2021-02-20T14:51:53Z</time>
      </trkpt>
      <trkpt lat="45.1775" lon="5.91866">
        <ele>1646.2</ele>
        <time>2021-02-20T14:51:54Z</time>
      </trkpt>
      <trkpt lat="45.1775" lon="5.91866">
        <ele>1646.2</ele>
        <time>2021-02-20T14:51:55Z</time>
      </trkpt>
      <trkpt lat="45.1775" lon="5.91866">
        <ele>1646.2</ele>
        <time>2021-02-20T14:51:56Z</time>
      </trkpt>
      <trkpt lat="45.1775" lon="5.91866">
        <ele>1646.1</ele>
        <time>2021-02-20T14:51:57Z</time>
      </trkpt>
      <trkpt lat="45.1775" lon="5.91866">
        <ele>1646.1</ele>
        <time>2021-02-20T14:51:58Z</time>
      </trkpt>
      <trkpt lat="45.1775" lon="5.91866">
        <ele>1646.1</ele>
        <time>2021-02-20T14:51:59Z</time>
      </trkpt>
      <trkpt lat="45.1775" lon="5.91866">
        <ele>1646.1</ele>
        <time>2021-02-20T14:52:00Z</time>
      </trkpt>
      <trkpt lat="45.1775" lon="5.91866">
        <ele>1646.1</ele>
        <time>2021-02-20T14:52:01Z</time>
      </trkpt>
      <trkpt lat="45.1775" lon="5.91866">
        <ele>1646.1</ele>
        <time>2021-02-20T14:52:02Z</time>
      </trkpt>
      <trkpt lat="45.1775" lon="5.91866">
        <ele>1646.1</ele>
        <time>2021-02-20T14:52:03Z</time>
      </trkpt>
      <trkpt lat="45.1775" lon="5.91866">
        <ele>1646.1</ele>
        <time>2021-02-20T14:52:04Z</time>
      </trkpt>
      <trkpt lat="45.1775" lon="5.91866">
        <ele>1646.1</ele>
        <time>2021-02-20T14:52:05Z</time>
      </trkpt>
      <trkpt lat="45.1775" lon="5.91866">
        <ele>1646.1</ele>
        <time>2021-02-20T14:52:06Z</time>
      </trkpt>
      <trkpt lat="45.1775" lon="5.91866">
        <ele>1646.1</ele>
        <time>2021-02-20T14:52:07Z</time>
      </trkpt>
      <trkpt lat="45.1775" lon="5.91866">
        <ele>1646.1</ele>
        <time>2021-02-20T14:52:08Z</time>
      </trkpt>
      <trkpt lat="45.1775" lon="5.91867">
        <ele>1646.1</ele>
        <time>2021-02-20T14:52:09Z</time>
      </trkpt>
      <trkpt lat="45.1775" lon="5.91867">
        <ele>1646.1</ele>
        <time>2021-02-20T14:52:10Z</time>
      </trkpt>
      <trkpt lat="45.1775" lon="5.91867">
        <ele>1646.1</ele>
        <time>2021-02-20T14:52:11Z</time>
      </trkpt>
      <trkpt lat="45.1775" lon="5.91867">
        <ele>1646.1</ele>
        <time>2021-02-20T14:52:12Z</time>
      </trkpt>
      <trkpt lat="45.1775" lon="5.91867">
        <ele>1646.1</ele>
        <time>2021-02-20T14:52:13Z</time>
      </trkpt>
      <trkpt lat="45.1775" lon="5.91867">
        <ele>1646.1</ele>
        <time>2021-02-20T14:52:14Z</time>
      </trkpt>
      <trkpt lat="45.1775" lon="5.91867">
        <ele>1646.1</ele>
        <time>2021-02-20T14:52:15Z</time>
      </trkpt>
      <trkpt lat="45.1775" lon="5.91867">
        <ele>1646.1</ele>
        <time>2021-02-20T14:52:16Z</time>
      </trkpt>
      <trkpt lat="45.1775" lon="5.91867">
        <ele>1646.1</ele>
        <time>2021-02-20T14:52:17Z</time>
      </trkpt>
      <trkpt lat="45.1775" lon="5.91867">
        <ele>1646.1</ele>
        <time>2021-02-20T14:52:18Z</time>
      </trkpt>
      <trkpt lat="45.1775" lon="5.91867">
        <ele>1646.1</ele>
        <time>2021-02-20T14:52:19Z</time>
      </trkpt>
      <trkpt lat="45.1775" lon="5.91867">
        <ele>1646.1</ele>
        <time>2021-02-20T14:52:20Z</time>
      </trkpt>
      <trkpt lat="45.1775" lon="5.91867">
        <ele>1646.1</ele>
        <time>2021-02-20T14:52:21Z</time>
      </trkpt>
      <trkpt lat="45.1775" lon="5.91867">
        <ele>1646.1</ele>
        <time>2021-02-20T14:52:22Z</time>
      </trkpt>
      <trkpt lat="45.1775" lon="5.91867">
        <ele>1646.1</ele>
        <time>2021-02-20T14:52:23Z</time>
      </trkpt>
      <trkpt lat="45.1775" lon="5.91867">
        <ele>1646.1</ele>
        <time>2021-02-20T14:52:24Z</time>
      </trkpt>
      <trkpt lat="45.1775" lon="5.91867">
        <ele>1646.1</ele>
        <time>2021-02-20T14:52:25Z</time>
      </trkpt>
      <trkpt lat="45.1775" lon="5.91867">
        <ele>1646.1</ele>
        <time>2021-02-20T14:52:26Z</time>
      </trkpt>
      <trkpt lat="45.1775" lon="5.91867">
        <ele>1646.1</ele>
        <time>2021-02-20T14:52:27Z</time>
      </trkpt>
      <trkpt lat="45.1775" lon="5.91867">
        <ele>1646.1</ele>
        <time>2021-02-20T14:52:28Z</time>
      </trkpt>
      <trkpt lat="45.1775" lon="5.91867">
        <ele>1646.1</ele>
        <time>2021-02-20T14:52:29Z</time>
      </trkpt>
      <trkpt lat="45.1775" lon="5.91867">
        <ele>1646.1</ele>
        <time>2021-02-20T14:52:30Z</time>
      </trkpt>
      <trkpt lat="45.1775" lon="5.91867">
        <ele>1647.4</ele>
        <time>2021-02-20T14:52:31Z</time>
      </trkpt>
      <trkpt lat="45.1775" lon="5.91867">
        <ele>1647.4</ele>
        <time>2021-02-20T14:52:32Z</time>
      </trkpt>
      <trkpt lat="45.1775" lon="5.91867">
        <ele>1647.4</ele>
        <time>2021-02-20T14:52:33Z</time>
      </trkpt>
      <trkpt lat="45.1775" lon="5.91867">
        <ele>1647.4</ele>
        <time>2021-02-20T14:52:34Z</time>
      </trkpt>
      <trkpt lat="45.1775" lon="5.91867">
        <ele>1647.4</ele>
        <time>2021-02-20T14:52:35Z</time>
      </trkpt>
      <trkpt lat="45.1775" lon="5.91867">
        <ele>1647.4</ele>
        <time>2021-02-20T14:52:36Z</time>
      </trkpt>
      <trkpt lat="45.1775" lon="5.91867">
        <ele>1647.4</ele>
        <time>2021-02-20T14:52:37Z</time>
      </trkpt>
      <trkpt lat="45.1775" lon="5.91867">
        <ele>1647.4</ele>
        <time>2021-02-20T14:52:38Z</time>
      </trkpt>
      <trkpt lat="45.1775" lon="5.91867">
        <ele>1647.4</ele>
        <time>2021-02-20T14:52:39Z</time>
      </trkpt>
      <trkpt lat="45.1775" lon="5.91867">
        <ele>1647.4</ele>
        <time>2021-02-20T14:52:40Z</time>
      </trkpt>
      <trkpt lat="45.1775" lon="5.91867">
        <ele>1647.4</ele>
        <time>2021-02-20T14:52:41Z</time>
      </trkpt>
      <trkpt lat="45.1775" lon="5.91867">
        <ele>1647.4</ele>
        <time>2021-02-20T14:52:42Z</time>
      </trkpt>
      <trkpt lat="45.1775" lon="5.91867">
        <ele>1647.4</ele>
        <time>2021-02-20T14:52:43Z</time>
      </trkpt>
      <trkpt lat="45.1775" lon="5.91867">
        <ele>1647.4</ele>
        <time>2021-02-20T14:52:44Z</time>
      </trkpt>
      <trkpt lat="45.1775" lon="5.91867">
        <ele>1647.4</ele>
        <time>2021-02-20T14:52:45Z</time>
      </trkpt>
      <trkpt lat="45.1775" lon="5.91867">
        <ele>1647.4</ele>
        <time>2021-02-20T14:52:46Z</time>
      </trkpt>
      <trkpt lat="45.1775" lon="5.91867">
        <ele>1647.4</ele>
        <time>2021-02-20T14:52:47Z</time>
      </trkpt>
      <trkpt lat="45.1775" lon="5.91867">
        <ele>1647.4</ele>
        <time>2021-02-20T14:52:48Z</time>
      </trkpt>
      <trkpt lat="45.1775" lon="5.91867">
        <ele>1647.4</ele>
        <time>2021-02-20T14:52:49Z</time>
      </trkpt>
      <trkpt lat="45.1775" lon="5.91867">
        <ele>1647.4</ele>
        <time>2021-02-20T14:52:50Z</time>
      </trkpt>
      <trkpt lat="45.1775" lon="5.91867">
        <ele>1647.4</ele>
        <time>2021-02-20T14:52:51Z</time>
      </trkpt>
      <trkpt lat="45.1775" lon="5.91867">
        <ele>1647.4</ele>
        <time>2021-02-20T14:52:52Z</time>
      </trkpt>
      <trkpt lat="45.1775" lon="5.91867">
        <ele>1647.4</ele>
        <time>2021-02-20T14:52:53Z</time>
      </trkpt>
      <trkpt lat="45.1775" lon="5.91867">
        <ele>1647.4</ele>
        <time>2021-02-20T14:52:54Z</time>
      </trkpt>
      <trkpt lat="45.1775" lon="5.91867">
        <ele>1647.4</ele>
        <time>2021-02-20T14:52:55Z</time>
      </trkpt>
      <trkpt lat="45.1775" lon="5.91867">
        <ele>1647.3</ele>
        <time>2021-02-20T14:52:56Z</time>
      </trkpt>
      <trkpt lat="45.1775" lon="5.91867">
        <ele>1647.3</ele>
        <time>2021-02-20T14:52:57Z</time>
      </trkpt>
      <trkpt lat="45.1775" lon="5.91867">
        <ele>1647.3</ele>
        <time>2021-02-20T14:52:58Z</time>
      </trkpt>
      <trkpt lat="45.1775" lon="5.91867">
        <ele>1647.3</ele>
        <time>2021-02-20T14:52:59Z</time>
      </trkpt>
      <trkpt lat="45.1775" lon="5.91867">
        <ele>1647.3</ele>
        <time>2021-02-20T14:53:00Z</time>
      </trkpt>
      <trkpt lat="45.1775" lon="5.91867">
        <ele>1647.3</ele>
        <time>2021-02-20T14:53:01Z</time>
      </trkpt>
      <trkpt lat="45.1775" lon="5.91867">
        <ele>1647.3</ele>
        <time>2021-02-20T14:53:02Z</time>
      </trkpt>
      <trkpt lat="45.1775" lon="5.91867">
        <ele>1647.3</ele>
        <time>2021-02-20T14:53:03Z</time>
      </trkpt>
      <trkpt lat="45.1775" lon="5.91867">
        <ele>1647.3</ele>
        <time>2021-02-20T14:53:04Z</time>
      </trkpt>
      <trkpt lat="45.1775" lon="5.91867">
        <ele>1647.3</ele>
        <time>2021-02-20T14:53:05Z</time>
      </trkpt>
      <trkpt lat="45.1775" lon="5.91867">
        <ele>1647.3</ele>
        <time>2021-02-20T14:53:06Z</time>
      </trkpt>
      <trkpt lat="45.1775" lon="5.91867">
        <ele>1647.3</ele>
        <time>2021-02-20T14:53:07Z</time>
      </trkpt>
      <trkpt lat="45.1775" lon="5.91867">
        <ele>1647.3</ele>
        <time>2021-02-20T14:53:08Z</time>
      </trkpt>
      <trkpt lat="45.1775" lon="5.91867">
        <ele>1647.7</ele>
        <time>2021-02-20T14:53:09Z</time>
      </trkpt>
      <trkpt lat="45.1775" lon="5.91867">
        <ele>1647.7</ele>
        <time>2021-02-20T14:53:10Z</time>
      </trkpt>
      <trkpt lat="45.1775" lon="5.91867">
        <ele>1647.7</ele>
        <time>2021-02-20T14:53:11Z</time>
      </trkpt>
      <trkpt lat="45.1775" lon="5.91867">
        <ele>1647.7</ele>
        <time>2021-02-20T14:53:12Z</time>
      </trkpt>
      <trkpt lat="45.1775" lon="5.91867">
        <ele>1647.7</ele>
        <time>2021-02-20T14:53:13Z</time>
      </trkpt>
      <trkpt lat="45.1775" lon="5.91867">
        <ele>1647.7</ele>
        <time>2021-02-20T14:53:14Z</time>
      </trkpt>
      <trkpt lat="45.1775" lon="5.91867">
        <ele>1647.7</ele>
        <time>2021-02-20T14:53:15Z</time>
      </trkpt>
      <trkpt lat="45.1775" lon="5.91867">
        <ele>1647.7</ele>
        <time>2021-02-20T14:53:16Z</time>
      </trkpt>
      <trkpt lat="45.1775" lon="5.91867">
        <ele>1647.7</ele>
        <time>2021-02-20T14:53:17Z</time>
      </trkpt>
      <trkpt lat="45.1775" lon="5.91867">
        <ele>1647.7</ele>
        <time>2021-02-20T14:53:18Z</time>
      </trkpt>
      <trkpt lat="45.1775" lon="5.91867">
        <ele>1647.7</ele>
        <time>2021-02-20T14:53:19Z</time>
      </trkpt>
      <trkpt lat="45.1775" lon="5.91867">
        <ele>1647.7</ele>
        <time>2021-02-20T14:53:20Z</time>
      </trkpt>
      <trkpt lat="45.1775" lon="5.91867">
        <ele>1647.7</ele>
        <time>2021-02-20T14:53:21Z</time>
      </trkpt>
      <trkpt lat="45.1775" lon="5.91867">
        <ele>1647.7</ele>
        <time>2021-02-20T14:53:22Z</time>
      </trkpt>
      <trkpt lat="45.1775" lon="5.91867">
        <ele>1647.7</ele>
        <time>2021-02-20T14:53:23Z</time>
      </trkpt>
      <trkpt lat="45.1775" lon="5.91867">
        <ele>1647.7</ele>
        <time>2021-02-20T14:53:24Z</time>
      </trkpt>
      <trkpt lat="45.1775" lon="5.91867">
        <ele>1647.7</ele>
        <time>2021-02-20T14:53:25Z</time>
      </trkpt>
      <trkpt lat="45.1775" lon="5.91867">
        <ele>1647.7</ele>
        <time>2021-02-20T14:53:26Z</time>
      </trkpt>
      <trkpt lat="45.1775" lon="5.91867">
        <ele>1647.7</ele>
        <time>2021-02-20T14:53:27Z</time>
      </trkpt>
      <trkpt lat="45.1775" lon="5.91867">
        <ele>1647.7</ele>
        <time>2021-02-20T14:53:28Z</time>
      </trkpt>
      <trkpt lat="45.1775" lon="5.91867">
        <ele>1647.7</ele>
        <time>2021-02-20T14:53:29Z</time>
      </trkpt>
      <trkpt lat="45.1775" lon="5.91867">
        <ele>1647.7</ele>
        <time>2021-02-20T14:53:30Z</time>
      </trkpt>
      <trkpt lat="45.1775" lon="5.91867">
        <ele>1647.7</ele>
        <time>2021-02-20T14:53:31Z</time>
      </trkpt>
      <trkpt lat="45.1775" lon="5.91867">
        <ele>1647.7</ele>
        <time>2021-02-20T14:53:32Z</time>
      </trkpt>
      <trkpt lat="45.1775" lon="5.91867">
        <ele>1647.7</ele>
        <time>2021-02-20T14:53:33Z</time>
      </trkpt>
      <trkpt lat="45.17749" lon="5.91867">
        <ele>1647.7</ele>
        <time>2021-02-20T14:53:34Z</time>
      </trkpt>
      <trkpt lat="45.17749" lon="5.91868">
        <ele>1647.7</ele>
        <time>2021-02-20T14:53:35Z</time>
      </trkpt>
      <trkpt lat="45.17749" lon="5.91868">
        <ele>1647.6</ele>
        <time>2021-02-20T14:53:36Z</time>
      </trkpt>
      <trkpt lat="45.17749" lon="5.91868">
        <ele>1647.6</ele>
        <time>2021-02-20T14:53:37Z</time>
      </trkpt>
      <trkpt lat="45.17749" lon="5.91868">
        <ele>1647.6</ele>
        <time>2021-02-20T14:53:38Z</time>
      </trkpt>
      <trkpt lat="45.17749" lon="5.91868">
        <ele>1647.6</ele>
        <time>2021-02-20T14:53:39Z</time>
      </trkpt>
      <trkpt lat="45.17749" lon="5.91868">
        <ele>1647.6</ele>
        <time>2021-02-20T14:53:40Z</time>
      </trkpt>
      <trkpt lat="45.17749" lon="5.91869">
        <ele>1647.6</ele>
        <time>2021-02-20T14:53:41Z</time>
      </trkpt>
      <trkpt lat="45.17749" lon="5.91869">
        <ele>1647.6</ele>
        <time>2021-02-20T14:53:42Z</time>
      </trkpt>
      <trkpt lat="45.17749" lon="5.91869">
        <ele>1647.6</ele>
        <time>2021-02-20T14:53:43Z</time>
      </trkpt>
      <trkpt lat="45.17749" lon="5.91869">
        <ele>1647.6</ele>
        <time>2021-02-20T14:53:44Z</time>
      </trkpt>
      <trkpt lat="45.17749" lon="5.91869">
        <ele>1647.6</ele>
        <time>2021-02-20T14:53:45Z</time>
      </trkpt>
      <trkpt lat="45.17749" lon="5.91869">
        <ele>1647.6</ele>
        <time>2021-02-20T14:53:46Z</time>
      </trkpt>
      <trkpt lat="45.17749" lon="5.91869">
        <ele>1647.6</ele>
        <time>2021-02-20T14:53:47Z</time>
      </trkpt>
      <trkpt lat="45.17749" lon="5.91869">
        <ele>1647.6</ele>
        <time>2021-02-20T14:53:48Z</time>
      </trkpt>
      <trkpt lat="45.17749" lon="5.91869">
        <ele>1647.6</ele>
        <time>2021-02-20T14:53:49Z</time>
      </trkpt>
      <trkpt lat="45.17749" lon="5.91869">
        <ele>1647.6</ele>
        <time>2021-02-20T14:53:50Z</time>
      </trkpt>
      <trkpt lat="45.17749" lon="5.91869">
        <ele>1647.6</ele>
        <time>2021-02-20T14:53:51Z</time>
      </trkpt>
      <trkpt lat="45.17749" lon="5.91869">
        <ele>1647.6</ele>
        <time>2021-02-20T14:53:52Z</time>
      </trkpt>
      <trkpt lat="45.17749" lon="5.91869">
        <ele>1647.6</ele>
        <time>2021-02-20T14:53:53Z</time>
      </trkpt>
      <trkpt lat="45.17749" lon="5.91869">
        <ele>1647.6</ele>
        <time>2021-02-20T14:53:54Z</time>
      </trkpt>
      <trkpt lat="45.17749" lon="5.91869">
        <ele>1647.6</ele>
        <time>2021-02-20T14:53:55Z</time>
      </trkpt>
      <trkpt lat="45.17749" lon="5.91869">
        <ele>1647.6</ele>
        <time>2021-02-20T14:53:56Z</time>
      </trkpt>
      <trkpt lat="45.17749" lon="5.91869">
        <ele>1647.6</ele>
        <time>2021-02-20T14:53:57Z</time>
      </trkpt>
      <trkpt lat="45.17749" lon="5.91869">
        <ele>1647.6</ele>
        <time>2021-02-20T14:53:58Z</time>
      </trkpt>
      <trkpt lat="45.17749" lon="5.91869">
        <ele>1647.6</ele>
        <time>2021-02-20T14:53:59Z</time>
      </trkpt>
      <trkpt lat="45.17749" lon="5.9187">
        <ele>1647.6</ele>
        <time>2021-02-20T14:54:00Z</time>
      </trkpt>
      <trkpt lat="45.17749" lon="5.9187">
        <ele>1647.6</ele>
        <time>2021-02-20T14:54:01Z</time>
      </trkpt>
      <trkpt lat="45.17749" lon="5.9187">
        <ele>1647.6</ele>
        <time>2021-02-20T14:54:02Z</time>
      </trkpt>
      <trkpt lat="45.17749" lon="5.9187">
        <ele>1647.6</ele>
        <time>2021-02-20T14:54:03Z</time>
      </trkpt>
      <trkpt lat="45.17749" lon="5.9187">
        <ele>1647.6</ele>
        <time>2021-02-20T14:54:04Z</time>
      </trkpt>
      <trkpt lat="45.17749" lon="5.9187">
        <ele>1647.6</ele>
        <time>2021-02-20T14:54:05Z</time>
      </trkpt>
      <trkpt lat="45.17749" lon="5.9187">
        <ele>1647.6</ele>
        <time>2021-02-20T14:54:06Z</time>
      </trkpt>
      <trkpt lat="45.1775" lon="5.91868">
        <ele>1646.2</ele>
        <time>2021-02-20T14:54:07Z</time>
      </trkpt>
      <trkpt lat="45.1775" lon="5.91868">
        <ele>1646.2</ele>
        <time>2021-02-20T14:54:08Z</time>
      </trkpt>
      <trkpt lat="45.1775" lon="5.91868">
        <ele>1646.2</ele>
        <time>2021-02-20T14:54:09Z</time>
      </trkpt>
      <trkpt lat="45.1775" lon="5.91868">
        <ele>1646.2</ele>
        <time>2021-02-20T14:54:10Z</time>
      </trkpt>
      <trkpt lat="45.1775" lon="5.91868">
        <ele>1646.2</ele>
        <time>2021-02-20T14:54:11Z</time>
      </trkpt>
      <trkpt lat="45.1775" lon="5.91868">
        <ele>1646.2</ele>
        <time>2021-02-20T14:54:12Z</time>
      </trkpt>
      <trkpt lat="45.1775" lon="5.91868">
        <ele>1646.2</ele>
        <time>2021-02-20T14:54:13Z</time>
      </trkpt>
      <trkpt lat="45.17751" lon="5.91867">
        <ele>1646.2</ele>
        <time>2021-02-20T14:54:14Z</time>
      </trkpt>
      <trkpt lat="45.17751" lon="5.91867">
        <ele>1646.2</ele>
        <time>2021-02-20T14:54:15Z</time>
      </trkpt>
      <trkpt lat="45.17751" lon="5.91867">
        <ele>1646.2</ele>
        <time>2021-02-20T14:54:16Z</time>
      </trkpt>
      <trkpt lat="45.17751" lon="5.91867">
        <ele>1646.1</ele>
        <time>2021-02-20T14:54:17Z</time>
      </trkpt>
      <trkpt lat="45.17751" lon="5.91867">
        <ele>1646.1</ele>
        <time>2021-02-20T14:54:18Z</time>
      </trkpt>
      <trkpt lat="45.17751" lon="5.91866">
        <ele>1645.8</ele>
        <time>2021-02-20T14:54:19Z</time>
      </trkpt>
      <trkpt lat="45.17751" lon="5.91866">
        <ele>1645.8</ele>
        <time>2021-02-20T14:54:20Z</time>
      </trkpt>
      <trkpt lat="45.17751" lon="5.91866">
        <ele>1645.8</ele>
        <time>2021-02-20T14:54:21Z</time>
      </trkpt>
      <trkpt lat="45.17751" lon="5.91866">
        <ele>1645.7</ele>
        <time>2021-02-20T14:54:22Z</time>
      </trkpt>
      <trkpt lat="45.17751" lon="5.91866">
        <ele>1645.7</ele>
        <time>2021-02-20T14:54:23Z</time>
      </trkpt>
      <trkpt lat="45.17751" lon="5.91866">
        <ele>1645.7</ele>
        <time>2021-02-20T14:54:24Z</time>
      </trkpt>
      <trkpt lat="45.17751" lon="5.91866">
        <ele>1645.7</ele>
        <time>2021-02-20T14:54:25Z</time>
      </trkpt>
      <trkpt lat="45.17751" lon="5.91866">
        <ele>1645.7</ele>
        <time>2021-02-20T14:54:26Z</time>
      </trkpt>
      <trkpt lat="45.17751" lon="5.91866">
        <ele>1645.7</ele>
        <time>2021-02-20T14:54:27Z</time>
      </trkpt>
      <trkpt lat="45.17751" lon="5.91866">
        <ele>1645.7</ele>
        <time>2021-02-20T14:54:28Z</time>
      </trkpt>
      <trkpt lat="45.17751" lon="5.91867">
        <ele>1645.7</ele>
        <time>2021-02-20T14:54:29Z</time>
      </trkpt>
      <trkpt lat="45.17751" lon="5.91867">
        <ele>1645.7</ele>
        <time>2021-02-20T14:54:30Z</time>
      </trkpt>
      <trkpt lat="45.17751" lon="5.91866">
        <ele>1645.7</ele>
        <time>2021-02-20T14:54:31Z</time>
      </trkpt>
      <trkpt lat="45.17751" lon="5.91865">
        <ele>1645.7</ele>
        <time>2021-02-20T14:54:32Z</time>
      </trkpt>
      <trkpt lat="45.17751" lon="5.91865">
        <ele>1645.7</ele>
        <time>2021-02-20T14:54:33Z</time>
      </trkpt>
      <trkpt lat="45.17751" lon="5.91865">
        <ele>1645.7</ele>
        <time>2021-02-20T14:54:34Z</time>
      </trkpt>
      <trkpt lat="45.17751" lon="5.91865">
        <ele>1645.7</ele>
        <time>2021-02-20T14:54:35Z</time>
      </trkpt>
      <trkpt lat="45.17751" lon="5.91865">
        <ele>1645.7</ele>
        <time>2021-02-20T14:54:36Z</time>
      </trkpt>
      <trkpt lat="45.17751" lon="5.91865">
        <ele>1645.7</ele>
        <time>2021-02-20T14:54:37Z</time>
      </trkpt>
      <trkpt lat="45.17751" lon="5.91865">
        <ele>1645.7</ele>
        <time>2021-02-20T14:54:38Z</time>
      </trkpt>
      <trkpt lat="45.17751" lon="5.91865">
        <ele>1645.7</ele>
        <time>2021-02-20T14:54:39Z</time>
      </trkpt>
      <trkpt lat="45.17751" lon="5.91865">
        <ele>1645.7</ele>
        <time>2021-02-20T14:54:40Z</time>
      </trkpt>
      <trkpt lat="45.17751" lon="5.91865">
        <ele>1645.7</ele>
        <time>2021-02-20T14:54:41Z</time>
      </trkpt>
      <trkpt lat="45.17751" lon="5.91865">
        <ele>1645.7</ele>
        <time>2021-02-20T14:54:42Z</time>
      </trkpt>
      <trkpt lat="45.17751" lon="5.91865">
        <ele>1645.7</ele>
        <time>2021-02-20T14:54:43Z</time>
      </trkpt>
      <trkpt lat="45.17751" lon="5.91865">
        <ele>1645.7</ele>
        <time>2021-02-20T14:54:44Z</time>
      </trkpt>
      <trkpt lat="45.17751" lon="5.91865">
        <ele>1645.7</ele>
        <time>2021-02-20T14:54:45Z</time>
      </trkpt>
      <trkpt lat="45.17751" lon="5.91865">
        <ele>1645.7</ele>
        <time>2021-02-20T14:54:46Z</time>
      </trkpt>
      <trkpt lat="45.17751" lon="5.91865">
        <ele>1645.7</ele>
        <time>2021-02-20T14:54:47Z</time>
      </trkpt>
      <trkpt lat="45.17751" lon="5.91865">
        <ele>1645.7</ele>
        <time>2021-02-20T14:54:48Z</time>
      </trkpt>
      <trkpt lat="45.1775" lon="5.91867">
        <ele>1647</ele>
        <time>2021-02-20T14:54:49Z</time>
      </trkpt>
      <trkpt lat="45.1775" lon="5.91867">
        <ele>1647.4</ele>
        <time>2021-02-20T14:54:50Z</time>
      </trkpt>
      <trkpt lat="45.1775" lon="5.91867">
        <ele>1647.4</ele>
        <time>2021-02-20T14:54:51Z</time>
      </trkpt>
      <trkpt lat="45.1775" lon="5.91867">
        <ele>1647.4</ele>
        <time>2021-02-20T14:54:52Z</time>
      </trkpt>
      <trkpt lat="45.1775" lon="5.91867">
        <ele>1647.4</ele>
        <time>2021-02-20T14:54:53Z</time>
      </trkpt>
      <trkpt lat="45.1775" lon="5.91867">
        <ele>1645.7</ele>
        <time>2021-02-20T14:54:54Z</time>
      </trkpt>
      <trkpt lat="45.1775" lon="5.91867">
        <ele>1645.7</ele>
        <time>2021-02-20T14:54:55Z</time>
      </trkpt>
      <trkpt lat="45.1775" lon="5.91867">
        <ele>1645.7</ele>
        <time>2021-02-20T14:54:56Z</time>
      </trkpt>
      <trkpt lat="45.1775" lon="5.91867">
        <ele>1645.7</ele>
        <time>2021-02-20T14:54:57Z</time>
      </trkpt>
      <trkpt lat="45.1775" lon="5.91867">
        <ele>1645.6</ele>
        <time>2021-02-20T14:54:58Z</time>
      </trkpt>
      <trkpt lat="45.1775" lon="5.91867">
        <ele>1645.6</ele>
        <time>2021-02-20T14:54:59Z</time>
      </trkpt>
      <trkpt lat="45.1775" lon="5.91867">
        <ele>1645.6</ele>
        <time>2021-02-20T14:55:00Z</time>
      </trkpt>
      <trkpt lat="45.1775" lon="5.91867">
        <ele>1645.6</ele>
        <time>2021-02-20T14:55:01Z</time>
      </trkpt>
      <trkpt lat="45.1775" lon="5.91867">
        <ele>1645.6</ele>
        <time>2021-02-20T14:55:02Z</time>
      </trkpt>
      <trkpt lat="45.1775" lon="5.91867">
        <ele>1645.6</ele>
        <time>2021-02-20T14:55:03Z</time>
      </trkpt>
      <trkpt lat="45.1775" lon="5.91867">
        <ele>1645.6</ele>
        <time>2021-02-20T14:55:04Z</time>
      </trkpt>
      <trkpt lat="45.1775" lon="5.91867">
        <ele>1645.6</ele>
        <time>2021-02-20T14:55:05Z</time>
      </trkpt>
      <trkpt lat="45.1775" lon="5.91867">
        <ele>1645.6</ele>
        <time>2021-02-20T14:55:06Z</time>
      </trkpt>
      <trkpt lat="45.1775" lon="5.91867">
        <ele>1645.6</ele>
        <time>2021-02-20T14:55:07Z</time>
      </trkpt>
      <trkpt lat="45.1775" lon="5.91867">
        <ele>1645.6</ele>
        <time>2021-02-20T14:55:08Z</time>
      </trkpt>
      <trkpt lat="45.17751" lon="5.91866">
        <ele>1645.6</ele>
        <time>2021-02-20T14:55:09Z</time>
      </trkpt>
      <trkpt lat="45.17751" lon="5.91866">
        <ele>1645.6</ele>
        <time>2021-02-20T14:55:10Z</time>
      </trkpt>
      <trkpt lat="45.17751" lon="5.91866">
        <ele>1645.6</ele>
        <time>2021-02-20T14:55:11Z</time>
      </trkpt>
      <trkpt lat="45.17751" lon="5.91866">
        <ele>1645.6</ele>
        <time>2021-02-20T14:55:12Z</time>
      </trkpt>
      <trkpt lat="45.17751" lon="5.91866">
        <ele>1645.6</ele>
        <time>2021-02-20T14:55:13Z</time>
      </trkpt>
      <trkpt lat="45.17751" lon="5.91866">
        <ele>1645.6</ele>
        <time>2021-02-20T14:55:14Z</time>
      </trkpt>
      <trkpt lat="45.17751" lon="5.91866">
        <ele>1645.6</ele>
        <time>2021-02-20T14:55:15Z</time>
      </trkpt>
      <trkpt lat="45.17751" lon="5.91866">
        <ele>1645.6</ele>
        <time>2021-02-20T14:55:16Z</time>
      </trkpt>
      <trkpt lat="45.17751" lon="5.91866">
        <ele>1645.6</ele>
        <time>2021-02-20T14:55:17Z</time>
      </trkpt>
      <trkpt lat="45.17751" lon="5.91866">
        <ele>1645.6</ele>
        <time>2021-02-20T14:55:18Z</time>
      </trkpt>
      <trkpt lat="45.17751" lon="5.91866">
        <ele>1645.6</ele>
        <time>2021-02-20T14:55:19Z</time>
      </trkpt>
      <trkpt lat="45.17751" lon="5.91866">
        <ele>1645.6</ele>
        <time>2021-02-20T14:55:20Z</time>
      </trkpt>
      <trkpt lat="45.17751" lon="5.91866">
        <ele>1645.6</ele>
        <time>2021-02-20T14:55:21Z</time>
      </trkpt>
      <trkpt lat="45.17751" lon="5.91866">
        <ele>1645.6</ele>
        <time>2021-02-20T14:55:22Z</time>
      </trkpt>
      <trkpt lat="45.17752" lon="5.91867">
        <ele>1645.6</ele>
        <time>2021-02-20T14:55:23Z</time>
      </trkpt>
      <trkpt lat="45.17754" lon="5.91868">
        <ele>1644.5</ele>
        <time>2021-02-20T14:55:24Z</time>
      </trkpt>
      <trkpt lat="45.17754" lon="5.91868">
        <ele>1644.5</ele>
        <time>2021-02-20T14:55:25Z</time>
      </trkpt>
      <trkpt lat="45.17754" lon="5.91868">
        <ele>1644.5</ele>
        <time>2021-02-20T14:55:26Z</time>
      </trkpt>
      <trkpt lat="45.17755" lon="5.91869">
        <ele>1644.5</ele>
        <time>2021-02-20T14:55:27Z</time>
      </trkpt>
      <trkpt lat="45.17755" lon="5.91869">
        <ele>1644.5</ele>
        <time>2021-02-20T14:55:28Z</time>
      </trkpt>
      <trkpt lat="45.17755" lon="5.9187">
        <ele>1644.5</ele>
        <time>2021-02-20T14:55:29Z</time>
      </trkpt>
      <trkpt lat="45.17756" lon="5.9187">
        <ele>1644.5</ele>
        <time>2021-02-20T14:55:30Z</time>
      </trkpt>
      <trkpt lat="45.17757" lon="5.9187">
        <ele>1643.1</ele>
        <time>2021-02-20T14:55:31Z</time>
      </trkpt>
      <trkpt lat="45.17758" lon="5.9187">
        <ele>1643.1</ele>
        <time>2021-02-20T14:55:32Z</time>
      </trkpt>
      <trkpt lat="45.17759" lon="5.91869">
        <ele>1643.1</ele>
        <time>2021-02-20T14:55:33Z</time>
      </trkpt>
      <trkpt lat="45.1776" lon="5.91869">
        <ele>1641.7</ele>
        <time>2021-02-20T14:55:34Z</time>
      </trkpt>
      <trkpt lat="45.17761" lon="5.91868">
        <ele>1641.7</ele>
        <time>2021-02-20T14:55:35Z</time>
      </trkpt>
      <trkpt lat="45.17762" lon="5.91868">
        <ele>1641.7</ele>
        <time>2021-02-20T14:55:36Z</time>
      </trkpt>
      <trkpt lat="45.17763" lon="5.91867">
        <ele>1640.3</ele>
        <time>2021-02-20T14:55:37Z</time>
      </trkpt>
      <trkpt lat="45.17763" lon="5.91867">
        <ele>1639.9</ele>
        <time>2021-02-20T14:55:38Z</time>
      </trkpt>
      <trkpt lat="45.17765" lon="5.91865">
        <ele>1639.9</ele>
        <time>2021-02-20T14:55:39Z</time>
      </trkpt>
      <trkpt lat="45.17766" lon="5.91865">
        <ele>1638.6</ele>
        <time>2021-02-20T14:55:40Z</time>
      </trkpt>
      <trkpt lat="45.17767" lon="5.91864">
        <ele>1638.5</ele>
        <time>2021-02-20T14:55:41Z</time>
      </trkpt>
      <trkpt lat="45.17767" lon="5.91864">
        <ele>1638.5</ele>
        <time>2021-02-20T14:55:42Z</time>
      </trkpt>
      <trkpt lat="45.17768" lon="5.91863">
        <ele>1638.1</ele>
        <time>2021-02-20T14:55:43Z</time>
      </trkpt>
      <trkpt lat="45.17769" lon="5.91862">
        <ele>1636.7</ele>
        <time>2021-02-20T14:55:44Z</time>
      </trkpt>
      <trkpt lat="45.17769" lon="5.9186">
        <ele>1636.7</ele>
        <time>2021-02-20T14:55:45Z</time>
      </trkpt>
      <trkpt lat="45.1777" lon="5.91859">
        <ele>1636.7</ele>
        <time>2021-02-20T14:55:46Z</time>
      </trkpt>
      <trkpt lat="45.1777" lon="5.91858">
        <ele>1636.3</ele>
        <time>2021-02-20T14:55:47Z</time>
      </trkpt>
      <trkpt lat="45.17771" lon="5.91857">
        <ele>1636.3</ele>
        <time>2021-02-20T14:55:48Z</time>
      </trkpt>
      <trkpt lat="45.17771" lon="5.91857">
        <ele>1636.2</ele>
        <time>2021-02-20T14:55:49Z</time>
      </trkpt>
      <trkpt lat="45.17771" lon="5.91857">
        <ele>1636.2</ele>
        <time>2021-02-20T14:55:50Z</time>
      </trkpt>
      <trkpt lat="45.1777" lon="5.91857">
        <ele>1636.2</ele>
        <time>2021-02-20T14:55:51Z</time>
      </trkpt>
      <trkpt lat="45.1777" lon="5.91857">
        <ele>1636.2</ele>
        <time>2021-02-20T14:55:52Z</time>
      </trkpt>
      <trkpt lat="45.17769" lon="5.91856">
        <ele>1636.2</ele>
        <time>2021-02-20T14:55:53Z</time>
      </trkpt>
      <trkpt lat="45.17769" lon="5.91855">
        <ele>1636.2</ele>
        <time>2021-02-20T14:55:54Z</time>
      </trkpt>
      <trkpt lat="45.17768" lon="5.91853">
        <ele>1635.7</ele>
        <time>2021-02-20T14:55:55Z</time>
      </trkpt>
      <trkpt lat="45.17768" lon="5.91852">
        <ele>1637</ele>
        <time>2021-02-20T14:55:56Z</time>
      </trkpt>
      <trkpt lat="45.17768" lon="5.9185">
        <ele>1635</ele>
        <time>2021-02-20T14:55:57Z</time>
      </trkpt>
      <trkpt lat="45.17769" lon="5.91848">
        <ele>1635</ele>
        <time>2021-02-20T14:55:58Z</time>
      </trkpt>
      <trkpt lat="45.1777" lon="5.91846">
        <ele>1635</ele>
        <time>2021-02-20T14:55:59Z</time>
      </trkpt>
      <trkpt lat="45.1777" lon="5.91844">
        <ele>1634.3</ele>
        <time>2021-02-20T14:56:00Z</time>
      </trkpt>
      <trkpt lat="45.17771" lon="5.91842">
        <ele>1634.3</ele>
        <time>2021-02-20T14:56:01Z</time>
      </trkpt>
      <trkpt lat="45.17771" lon="5.91841">
        <ele>1633.4</ele>
        <time>2021-02-20T14:56:02Z</time>
      </trkpt>
      <trkpt lat="45.1777" lon="5.9184">
        <ele>1633.4</ele>
        <time>2021-02-20T14:56:03Z</time>
      </trkpt>
      <trkpt lat="45.1777" lon="5.91838">
        <ele>1633.4</ele>
        <time>2021-02-20T14:56:04Z</time>
      </trkpt>
      <trkpt lat="45.17769" lon="5.91837">
        <ele>1632.5</ele>
        <time>2021-02-20T14:56:05Z</time>
      </trkpt>
      <trkpt lat="45.17768" lon="5.91836">
        <ele>1633.7</ele>
        <time>2021-02-20T14:56:06Z</time>
      </trkpt>
      <trkpt lat="45.17767" lon="5.91836">
        <ele>1633.7</ele>
        <time>2021-02-20T14:56:07Z</time>
      </trkpt>
      <trkpt lat="45.17766" lon="5.91836">
        <ele>1633.7</ele>
        <time>2021-02-20T14:56:08Z</time>
      </trkpt>
      <trkpt lat="45.17766" lon="5.91836">
        <ele>1633.7</ele>
        <time>2021-02-20T14:56:09Z</time>
      </trkpt>
      <trkpt lat="45.17765" lon="5.91836">
        <ele>1634.9</ele>
        <time>2021-02-20T14:56:10Z</time>
      </trkpt>
      <trkpt lat="45.17764" lon="5.91836">
        <ele>1634.9</ele>
        <time>2021-02-20T14:56:11Z</time>
      </trkpt>
      <trkpt lat="45.17763" lon="5.91836">
        <ele>1634.9</ele>
        <time>2021-02-20T14:56:12Z</time>
      </trkpt>
      <trkpt lat="45.17762" lon="5.91837">
        <ele>1634.9</ele>
        <time>2021-02-20T14:56:13Z</time>
      </trkpt>
      <trkpt lat="45.17762" lon="5.91837">
        <ele>1636.1</ele>
        <time>2021-02-20T14:56:14Z</time>
      </trkpt>
      <trkpt lat="45.17761" lon="5.91837">
        <ele>1636.1</ele>
        <time>2021-02-20T14:56:15Z</time>
      </trkpt>
      <trkpt lat="45.17761" lon="5.91836">
        <ele>1636.1</ele>
        <time>2021-02-20T14:56:16Z</time>
      </trkpt>
      <trkpt lat="45.17761" lon="5.91836">
        <ele>1636</ele>
        <time>2021-02-20T14:56:17Z</time>
      </trkpt>
      <trkpt lat="45.1776" lon="5.91836">
        <ele>1636</ele>
        <time>2021-02-20T14:56:18Z</time>
      </trkpt>
      <trkpt lat="45.1776" lon="5.91836">
        <ele>1636</ele>
        <time>2021-02-20T14:56:19Z</time>
      </trkpt>
      <trkpt lat="45.1776" lon="5.91836">
        <ele>1636</ele>
        <time>2021-02-20T14:56:20Z</time>
      </trkpt>
      <trkpt lat="45.17759" lon="5.91836">
        <ele>1637.2</ele>
        <time>2021-02-20T14:56:21Z</time>
      </trkpt>
      <trkpt lat="45.17759" lon="5.91835">
        <ele>1637.2</ele>
        <time>2021-02-20T14:56:22Z</time>
      </trkpt>
      <trkpt lat="45.17759" lon="5.91835">
        <ele>1637.2</ele>
        <time>2021-02-20T14:56:23Z</time>
      </trkpt>
      <trkpt lat="45.17759" lon="5.91834">
        <ele>1637.2</ele>
        <time>2021-02-20T14:56:24Z</time>
      </trkpt>
      <trkpt lat="45.17758" lon="5.91834">
        <ele>1637.2</ele>
        <time>2021-02-20T14:56:25Z</time>
      </trkpt>
      <trkpt lat="45.17757" lon="5.91834">
        <ele>1637.2</ele>
        <time>2021-02-20T14:56:26Z</time>
      </trkpt>
      <trkpt lat="45.17756" lon="5.91834">
        <ele>1638.4</ele>
        <time>2021-02-20T14:56:27Z</time>
      </trkpt>
      <trkpt lat="45.17756" lon="5.91833">
        <ele>1638.4</ele>
        <time>2021-02-20T14:56:28Z</time>
      </trkpt>
      <trkpt lat="45.17756" lon="5.91832">
        <ele>1636</ele>
        <time>2021-02-20T14:56:29Z</time>
      </trkpt>
      <trkpt lat="45.17757" lon="5.91831">
        <ele>1636</ele>
        <time>2021-02-20T14:56:30Z</time>
      </trkpt>
      <trkpt lat="45.17758" lon="5.91831">
        <ele>1636</ele>
        <time>2021-02-20T14:56:31Z</time>
      </trkpt>
      <trkpt lat="45.17759" lon="5.91831">
        <ele>1634.9</ele>
        <time>2021-02-20T14:56:32Z</time>
      </trkpt>
      <trkpt lat="45.1776" lon="5.9183">
        <ele>1634.9</ele>
        <time>2021-02-20T14:56:33Z</time>
      </trkpt>
      <trkpt lat="45.17761" lon="5.91829">
        <ele>1634.9</ele>
        <time>2021-02-20T14:56:34Z</time>
      </trkpt>
      <trkpt lat="45.17762" lon="5.91828">
        <ele>1632.6</ele>
        <time>2021-02-20T14:56:35Z</time>
      </trkpt>
      <trkpt lat="45.17763" lon="5.91827">
        <ele>1632.6</ele>
        <time>2021-02-20T14:56:36Z</time>
      </trkpt>
      <trkpt lat="45.17764" lon="5.91827">
        <ele>1632.6</ele>
        <time>2021-02-20T14:56:37Z</time>
      </trkpt>
      <trkpt lat="45.17764" lon="5.91827">
        <ele>1632.6</ele>
        <time>2021-02-20T14:56:38Z</time>
      </trkpt>
      <trkpt lat="45.17766" lon="5.91826">
        <ele>1631.5</ele>
        <time>2021-02-20T14:56:39Z</time>
      </trkpt>
      <trkpt lat="45.17767" lon="5.91826">
        <ele>1631.5</ele>
        <time>2021-02-20T14:56:40Z</time>
      </trkpt>
      <trkpt lat="45.17768" lon="5.91825">
        <ele>1631.5</ele>
        <time>2021-02-20T14:56:41Z</time>
      </trkpt>
      <trkpt lat="45.17769" lon="5.91825">
        <ele>1630.4</ele>
        <time>2021-02-20T14:56:42Z</time>
      </trkpt>
      <trkpt lat="45.17769" lon="5.91824">
        <ele>1630.4</ele>
        <time>2021-02-20T14:56:43Z</time>
      </trkpt>
      <trkpt lat="45.1777" lon="5.91824">
        <ele>1629.3</ele>
        <time>2021-02-20T14:56:44Z</time>
      </trkpt>
      <trkpt lat="45.17771" lon="5.91824">
        <ele>1629.3</ele>
        <time>2021-02-20T14:56:45Z</time>
      </trkpt>
      <trkpt lat="45.17772" lon="5.91824">
        <ele>1628.1</ele>
        <time>2021-02-20T14:56:46Z</time>
      </trkpt>
      <trkpt lat="45.17773" lon="5.91824">
        <ele>1628.1</ele>
        <time>2021-02-20T14:56:47Z</time>
      </trkpt>
      <trkpt lat="45.17773" lon="5.91824">
        <ele>1628.1</ele>
        <time>2021-02-20T14:56:48Z</time>
      </trkpt>
      <trkpt lat="45.17774" lon="5.91824">
        <ele>1628.1</ele>
        <time>2021-02-20T14:56:49Z</time>
      </trkpt>
      <trkpt lat="45.17775" lon="5.91824">
        <ele>1626.8</ele>
        <time>2021-02-20T14:56:50Z</time>
      </trkpt>
      <trkpt lat="45.17776" lon="5.91824">
        <ele>1626.8</ele>
        <time>2021-02-20T14:56:51Z</time>
      </trkpt>
      <trkpt lat="45.17776" lon="5.91824">
        <ele>1627.9</ele>
        <time>2021-02-20T14:56:52Z</time>
      </trkpt>
      <trkpt lat="45.17777" lon="5.91825">
        <ele>1626.4</ele>
        <time>2021-02-20T14:56:53Z</time>
      </trkpt>
      <trkpt lat="45.17778" lon="5.91825">
        <ele>1626.4</ele>
        <time>2021-02-20T14:56:54Z</time>
      </trkpt>
      <trkpt lat="45.17778" lon="5.91825">
        <ele>1626.4</ele>
        <time>2021-02-20T14:56:55Z</time>
      </trkpt>
      <trkpt lat="45.17779" lon="5.91825">
        <ele>1626.4</ele>
        <time>2021-02-20T14:56:56Z</time>
      </trkpt>
      <trkpt lat="45.17779" lon="5.91825">
        <ele>1626.4</ele>
        <time>2021-02-20T14:56:57Z</time>
      </trkpt>
      <trkpt lat="45.17779" lon="5.91825">
        <ele>1626.4</ele>
        <time>2021-02-20T14:56:58Z</time>
      </trkpt>
      <trkpt lat="45.17779" lon="5.91825">
        <ele>1626.4</ele>
        <time>2021-02-20T14:56:59Z</time>
      </trkpt>
      <trkpt lat="45.17779" lon="5.91824">
        <ele>1626.4</ele>
        <time>2021-02-20T14:57:00Z</time>
      </trkpt>
      <trkpt lat="45.17779" lon="5.91824">
        <ele>1626.4</ele>
        <time>2021-02-20T14:57:01Z</time>
      </trkpt>
      <trkpt lat="45.1778" lon="5.91824">
        <ele>1626.4</ele>
        <time>2021-02-20T14:57:02Z</time>
      </trkpt>
      <trkpt lat="45.1778" lon="5.91824">
        <ele>1626.4</ele>
        <time>2021-02-20T14:57:03Z</time>
      </trkpt>
      <trkpt lat="45.1778" lon="5.91824">
        <ele>1626.4</ele>
        <time>2021-02-20T14:57:04Z</time>
      </trkpt>
      <trkpt lat="45.1778" lon="5.91824">
        <ele>1625</ele>
        <time>2021-02-20T14:57:05Z</time>
      </trkpt>
      <trkpt lat="45.1778" lon="5.91824">
        <ele>1624</ele>
        <time>2021-02-20T14:57:06Z</time>
      </trkpt>
      <trkpt lat="45.17781" lon="5.91824">
        <ele>1624</ele>
        <time>2021-02-20T14:57:07Z</time>
      </trkpt>
      <trkpt lat="45.17781" lon="5.91824">
        <ele>1624</ele>
        <time>2021-02-20T14:57:08Z</time>
      </trkpt>
      <trkpt lat="45.17781" lon="5.91824">
        <ele>1624</ele>
        <time>2021-02-20T14:57:09Z</time>
      </trkpt>
      <trkpt lat="45.17781" lon="5.91824">
        <ele>1624</ele>
        <time>2021-02-20T14:57:10Z</time>
      </trkpt>
      <trkpt lat="45.17781" lon="5.91824">
        <ele>1624</ele>
        <time>2021-02-20T14:57:11Z</time>
      </trkpt>
      <trkpt lat="45.17782" lon="5.91824">
        <ele>1624</ele>
        <time>2021-02-20T14:57:12Z</time>
      </trkpt>
      <trkpt lat="45.17782" lon="5.91824">
        <ele>1624</ele>
        <time>2021-02-20T14:57:13Z</time>
      </trkpt>
      <trkpt lat="45.17782" lon="5.91824">
        <ele>1624</ele>
        <time>2021-02-20T14:57:14Z</time>
      </trkpt>
      <trkpt lat="45.17784" lon="5.91824">
        <ele>1622.6</ele>
        <time>2021-02-20T14:57:15Z</time>
      </trkpt>
      <trkpt lat="45.17785" lon="5.91824">
        <ele>1623.5</ele>
        <time>2021-02-20T14:57:16Z</time>
      </trkpt>
      <trkpt lat="45.17786" lon="5.91824">
        <ele>1623.5</ele>
        <time>2021-02-20T14:57:17Z</time>
      </trkpt>
      <trkpt lat="45.17787" lon="5.91824">
        <ele>1622.2</ele>
        <time>2021-02-20T14:57:18Z</time>
      </trkpt>
      <trkpt lat="45.17788" lon="5.91824">
        <ele>1622.2</ele>
        <time>2021-02-20T14:57:19Z</time>
      </trkpt>
      <trkpt lat="45.17788" lon="5.91824">
        <ele>1621.3</ele>
        <time>2021-02-20T14:57:20Z</time>
      </trkpt>
      <trkpt lat="45.17788" lon="5.91824">
        <ele>1621.3</ele>
        <time>2021-02-20T14:57:21Z</time>
      </trkpt>
      <trkpt lat="45.17788" lon="5.91824">
        <ele>1622.2</ele>
        <time>2021-02-20T14:57:22Z</time>
      </trkpt>
      <trkpt lat="45.17789" lon="5.91825">
        <ele>1622.2</ele>
        <time>2021-02-20T14:57:23Z</time>
      </trkpt>
      <trkpt lat="45.17789" lon="5.91825">
        <ele>1621</ele>
        <time>2021-02-20T14:57:24Z</time>
      </trkpt>
      <trkpt lat="45.17791" lon="5.91826">
        <ele>1621</ele>
        <time>2021-02-20T14:57:25Z</time>
      </trkpt>
      <trkpt lat="45.17792" lon="5.91827">
        <ele>1621</ele>
        <time>2021-02-20T14:57:26Z</time>
      </trkpt>
      <trkpt lat="45.17793" lon="5.91827">
        <ele>1619.8</ele>
        <time>2021-02-20T14:57:27Z</time>
      </trkpt>
      <trkpt lat="45.17794" lon="5.91828">
        <ele>1619.8</ele>
        <time>2021-02-20T14:57:28Z</time>
      </trkpt>
      <trkpt lat="45.17795" lon="5.91829">
        <ele>1620.6</ele>
        <time>2021-02-20T14:57:29Z</time>
      </trkpt>
      <trkpt lat="45.17795" lon="5.91829">
        <ele>1620.6</ele>
        <time>2021-02-20T14:57:30Z</time>
      </trkpt>
      <trkpt lat="45.17796" lon="5.91829">
        <ele>1619.3</ele>
        <time>2021-02-20T14:57:31Z</time>
      </trkpt>
      <trkpt lat="45.17797" lon="5.91828">
        <ele>1618.5</ele>
        <time>2021-02-20T14:57:32Z</time>
      </trkpt>
      <trkpt lat="45.17797" lon="5.91826">
        <ele>1618.5</ele>
        <time>2021-02-20T14:57:33Z</time>
      </trkpt>
      <trkpt lat="45.17797" lon="5.91825">
        <ele>1618.5</ele>
        <time>2021-02-20T14:57:34Z</time>
      </trkpt>
      <trkpt lat="45.17798" lon="5.91824">
        <ele>1617.7</ele>
        <time>2021-02-20T14:57:35Z</time>
      </trkpt>
      <trkpt lat="45.17797" lon="5.91821">
        <ele>1617.7</ele>
        <time>2021-02-20T14:57:36Z</time>
      </trkpt>
      <trkpt lat="45.17797" lon="5.91819">
        <ele>1616.7</ele>
        <time>2021-02-20T14:57:37Z</time>
      </trkpt>
      <trkpt lat="45.17796" lon="5.91818">
        <ele>1616.7</ele>
        <time>2021-02-20T14:57:38Z</time>
      </trkpt>
      <trkpt lat="45.17794" lon="5.91817">
        <ele>1617.9</ele>
        <time>2021-02-20T14:57:39Z</time>
      </trkpt>
      <trkpt lat="45.17793" lon="5.91815">
        <ele>1616.8</ele>
        <time>2021-02-20T14:57:40Z</time>
      </trkpt>
      <trkpt lat="45.17792" lon="5.91815">
        <ele>1617.9</ele>
        <time>2021-02-20T14:57:41Z</time>
      </trkpt>
      <trkpt lat="45.17791" lon="5.91814">
        <ele>1617.9</ele>
        <time>2021-02-20T14:57:42Z</time>
      </trkpt>
      <trkpt lat="45.1779" lon="5.91813">
        <ele>1617.9</ele>
        <time>2021-02-20T14:57:43Z</time>
      </trkpt>
      <trkpt lat="45.1779" lon="5.91812">
        <ele>1617.9</ele>
        <time>2021-02-20T14:57:44Z</time>
      </trkpt>
      <trkpt lat="45.17789" lon="5.91811">
        <ele>1617.7</ele>
        <time>2021-02-20T14:57:45Z</time>
      </trkpt>
      <trkpt lat="45.17789" lon="5.91809">
        <ele>1617.7</ele>
        <time>2021-02-20T14:57:46Z</time>
      </trkpt>
      <trkpt lat="45.17789" lon="5.91808">
        <ele>1617.7</ele>
        <time>2021-02-20T14:57:47Z</time>
      </trkpt>
      <trkpt lat="45.17788" lon="5.91808">
        <ele>1617.7</ele>
        <time>2021-02-20T14:57:48Z</time>
      </trkpt>
      <trkpt lat="45.17787" lon="5.91806">
        <ele>1616.2</ele>
        <time>2021-02-20T14:57:49Z</time>
      </trkpt>
      <trkpt lat="45.17786" lon="5.91805">
        <ele>1617.4</ele>
        <time>2021-02-20T14:57:50Z</time>
      </trkpt>
      <trkpt lat="45.17786" lon="5.91804">
        <ele>1617.4</ele>
        <time>2021-02-20T14:57:51Z</time>
      </trkpt>
      <trkpt lat="45.17785" lon="5.91804">
        <ele>1617.4</ele>
        <time>2021-02-20T14:57:52Z</time>
      </trkpt>
      <trkpt lat="45.17784" lon="5.91803">
        <ele>1617.4</ele>
        <time>2021-02-20T14:57:53Z</time>
      </trkpt>
      <trkpt lat="45.17783" lon="5.91802">
        <ele>1615.8</ele>
        <time>2021-02-20T14:57:54Z</time>
      </trkpt>
      <trkpt lat="45.17782" lon="5.91801">
        <ele>1617</ele>
        <time>2021-02-20T14:57:55Z</time>
      </trkpt>
      <trkpt lat="45.17781" lon="5.918">
        <ele>1617</ele>
        <time>2021-02-20T14:57:56Z</time>
      </trkpt>
      <trkpt lat="45.17779" lon="5.91799">
        <ele>1618.2</ele>
        <time>2021-02-20T14:57:57Z</time>
      </trkpt>
      <trkpt lat="45.17778" lon="5.91799">
        <ele>1618.2</ele>
        <time>2021-02-20T14:57:58Z</time>
      </trkpt>
      <trkpt lat="45.17777" lon="5.91798">
        <ele>1617.6</ele>
        <time>2021-02-20T14:57:59Z</time>
      </trkpt>
      <trkpt lat="45.17776" lon="5.91798">
        <ele>1617.6</ele>
        <time>2021-02-20T14:58:00Z</time>
      </trkpt>
      <trkpt lat="45.17775" lon="5.91798">
        <ele>1617.6</ele>
        <time>2021-02-20T14:58:01Z</time>
      </trkpt>
      <trkpt lat="45.17774" lon="5.91798">
        <ele>1618.7</ele>
        <time>2021-02-20T14:58:02Z</time>
      </trkpt>
      <trkpt lat="45.17773" lon="5.91797">
        <ele>1618.7</ele>
        <time>2021-02-20T14:58:03Z</time>
      </trkpt>
      <trkpt lat="45.17772" lon="5.91796">
        <ele>1618.7</ele>
        <time>2021-02-20T14:58:04Z</time>
      </trkpt>
      <trkpt lat="45.17772" lon="5.91795">
        <ele>1618.7</ele>
        <time>2021-02-20T14:58:05Z</time>
      </trkpt>
      <trkpt lat="45.17771" lon="5.91794">
        <ele>1618.7</ele>
        <time>2021-02-20T14:58:06Z</time>
      </trkpt>
      <trkpt lat="45.17771" lon="5.91794">
        <ele>1617.7</ele>
        <time>2021-02-20T14:58:07Z</time>
      </trkpt>
      <trkpt lat="45.17771" lon="5.91792">
        <ele>1617.7</ele>
        <time>2021-02-20T14:58:08Z</time>
      </trkpt>
      <trkpt lat="45.1777" lon="5.91791">
        <ele>1617.7</ele>
        <time>2021-02-20T14:58:09Z</time>
      </trkpt>
      <trkpt lat="45.1777" lon="5.91789">
        <ele>1615.8</ele>
        <time>2021-02-20T14:58:10Z</time>
      </trkpt>
      <trkpt lat="45.1777" lon="5.91788">
        <ele>1615.8</ele>
        <time>2021-02-20T14:58:11Z</time>
      </trkpt>
      <trkpt lat="45.17771" lon="5.91787">
        <ele>1615.7</ele>
        <time>2021-02-20T14:58:12Z</time>
      </trkpt>
      <trkpt lat="45.17771" lon="5.91786">
        <ele>1615.5</ele>
        <time>2021-02-20T14:58:13Z</time>
      </trkpt>
      <trkpt lat="45.17772" lon="5.91787">
        <ele>1615.4</ele>
        <time>2021-02-20T14:58:14Z</time>
      </trkpt>
      <trkpt lat="45.17773" lon="5.91787">
        <ele>1615.2</ele>
        <time>2021-02-20T14:58:15Z</time>
      </trkpt>
      <trkpt lat="45.17775" lon="5.91789">
        <ele>1614.8</ele>
        <time>2021-02-20T14:58:16Z</time>
      </trkpt>
      <trkpt lat="45.17777" lon="5.9179">
        <ele>1614.5</ele>
        <time>2021-02-20T14:58:17Z</time>
      </trkpt>
      <trkpt lat="45.17778" lon="5.91791">
        <ele>1614.2</ele>
        <time>2021-02-20T14:58:18Z</time>
      </trkpt>
      <trkpt lat="45.1778" lon="5.91791">
        <ele>1613.9</ele>
        <time>2021-02-20T14:58:19Z</time>
      </trkpt>
      <trkpt lat="45.17781" lon="5.91791">
        <ele>1613.6</ele>
        <time>2021-02-20T14:58:20Z</time>
      </trkpt>
      <trkpt lat="45.17784" lon="5.91791">
        <ele>1613.2</ele>
        <time>2021-02-20T14:58:21Z</time>
      </trkpt>
      <trkpt lat="45.17785" lon="5.9179">
        <ele>1613</ele>
        <time>2021-02-20T14:58:22Z</time>
      </trkpt>
      <trkpt lat="45.17785" lon="5.9179">
        <ele>1612.8</ele>
        <time>2021-02-20T14:58:23Z</time>
      </trkpt>
      <trkpt lat="45.17788" lon="5.9179">
        <ele>1612.4</ele>
        <time>2021-02-20T14:58:24Z</time>
      </trkpt>
      <trkpt lat="45.17789" lon="5.9179">
        <ele>1612.2</ele>
        <time>2021-02-20T14:58:25Z</time>
      </trkpt>
      <trkpt lat="45.1779" lon="5.9179">
        <ele>1611.9</ele>
        <time>2021-02-20T14:58:26Z</time>
      </trkpt>
      <trkpt lat="45.17793" lon="5.9179">
        <ele>1611.3</ele>
        <time>2021-02-20T14:58:27Z</time>
      </trkpt>
      <trkpt lat="45.17794" lon="5.9179">
        <ele>1611.1</ele>
        <time>2021-02-20T14:58:28Z</time>
      </trkpt>
      <trkpt lat="45.17796" lon="5.9179">
        <ele>1610.7</ele>
        <time>2021-02-20T14:58:29Z</time>
      </trkpt>
      <trkpt lat="45.17797" lon="5.9179">
        <ele>1610.6</ele>
        <time>2021-02-20T14:58:30Z</time>
      </trkpt>
      <trkpt lat="45.17798" lon="5.9179">
        <ele>1610.4</ele>
        <time>2021-02-20T14:58:31Z</time>
      </trkpt>
      <trkpt lat="45.178" lon="5.91791">
        <ele>1610</ele>
        <time>2021-02-20T14:58:32Z</time>
      </trkpt>
      <trkpt lat="45.17801" lon="5.91791">
        <ele>1609.8</ele>
        <time>2021-02-20T14:58:33Z</time>
      </trkpt>
      <trkpt lat="45.17802" lon="5.91792">
        <ele>1609.6</ele>
        <time>2021-02-20T14:58:34Z</time>
      </trkpt>
      <trkpt lat="45.17804" lon="5.91792">
        <ele>1609.2</ele>
        <time>2021-02-20T14:58:35Z</time>
      </trkpt>
      <trkpt lat="45.17805" lon="5.91792">
        <ele>1608.9</ele>
        <time>2021-02-20T14:58:36Z</time>
      </trkpt>
      <trkpt lat="45.17806" lon="5.91792">
        <ele>1608.7</ele>
        <time>2021-02-20T14:58:37Z</time>
      </trkpt>
      <trkpt lat="45.17807" lon="5.91793">
        <ele>1608.5</ele>
        <time>2021-02-20T14:58:38Z</time>
      </trkpt>
      <trkpt lat="45.17809" lon="5.91792">
        <ele>1608.3</ele>
        <time>2021-02-20T14:58:39Z</time>
      </trkpt>
      <trkpt lat="45.1781" lon="5.91791">
        <ele>1608.1</ele>
        <time>2021-02-20T14:58:40Z</time>
      </trkpt>
      <trkpt lat="45.17811" lon="5.91791">
        <ele>1607.9</ele>
        <time>2021-02-20T14:58:41Z</time>
      </trkpt>
      <trkpt lat="45.17812" lon="5.91791">
        <ele>1607.7</ele>
        <time>2021-02-20T14:58:42Z</time>
      </trkpt>
      <trkpt lat="45.17814" lon="5.91791">
        <ele>1607.5</ele>
        <time>2021-02-20T14:58:43Z</time>
      </trkpt>
      <trkpt lat="45.17815" lon="5.91791">
        <ele>1607.3</ele>
        <time>2021-02-20T14:58:44Z</time>
      </trkpt>
      <trkpt lat="45.17816" lon="5.91792">
        <ele>1607.1</ele>
        <time>2021-02-20T14:58:45Z</time>
      </trkpt>
      <trkpt lat="45.17816" lon="5.91793">
        <ele>1607</ele>
        <time>2021-02-20T14:58:46Z</time>
      </trkpt>
      <trkpt lat="45.17818" lon="5.91793">
        <ele>1606.7</ele>
        <time>2021-02-20T14:58:47Z</time>
      </trkpt>
      <trkpt lat="45.17819" lon="5.91793">
        <ele>1606.5</ele>
        <time>2021-02-20T14:58:48Z</time>
      </trkpt>
      <trkpt lat="45.1782" lon="5.91791">
        <ele>1606.4</ele>
        <time>2021-02-20T14:58:49Z</time>
      </trkpt>
      <trkpt lat="45.1782" lon="5.91789">
        <ele>1606.1</ele>
        <time>2021-02-20T14:58:50Z</time>
      </trkpt>
      <trkpt lat="45.17819" lon="5.91785">
        <ele>1605.6</ele>
        <time>2021-02-20T14:58:51Z</time>
      </trkpt>
      <trkpt lat="45.17818" lon="5.91783">
        <ele>1605.4</ele>
        <time>2021-02-20T14:58:52Z</time>
      </trkpt>
      <trkpt lat="45.17816" lon="5.91781">
        <ele>1605</ele>
        <time>2021-02-20T14:58:53Z</time>
      </trkpt>
      <trkpt lat="45.17815" lon="5.9178">
        <ele>1604.8</ele>
        <time>2021-02-20T14:58:54Z</time>
      </trkpt>
      <trkpt lat="45.17814" lon="5.91779">
        <ele>1604.6</ele>
        <time>2021-02-20T14:58:55Z</time>
      </trkpt>
      <trkpt lat="45.17812" lon="5.91778">
        <ele>1604.3</ele>
        <time>2021-02-20T14:58:56Z</time>
      </trkpt>
      <trkpt lat="45.17811" lon="5.91777">
        <ele>1604.1</ele>
        <time>2021-02-20T14:58:57Z</time>
      </trkpt>
      <trkpt lat="45.1781" lon="5.91775">
        <ele>1603.9</ele>
        <time>2021-02-20T14:58:58Z</time>
      </trkpt>
      <trkpt lat="45.17809" lon="5.91774">
        <ele>1603.7</ele>
        <time>2021-02-20T14:58:59Z</time>
      </trkpt>
      <trkpt lat="45.17808" lon="5.91772">
        <ele>1603.4</ele>
        <time>2021-02-20T14:59:00Z</time>
      </trkpt>
      <trkpt lat="45.17807" lon="5.91771">
        <ele>1603.2</ele>
        <time>2021-02-20T14:59:01Z</time>
      </trkpt>
      <trkpt lat="45.17806" lon="5.91769">
        <ele>1603</ele>
        <time>2021-02-20T14:59:02Z</time>
      </trkpt>
      <trkpt lat="45.17805" lon="5.91769">
        <ele>1602.8</ele>
        <time>2021-02-20T14:59:03Z</time>
      </trkpt>
      <trkpt lat="45.17804" lon="5.91768">
        <ele>1602.7</ele>
        <time>2021-02-20T14:59:04Z</time>
      </trkpt>
      <trkpt lat="45.17803" lon="5.91768">
        <ele>1602.6</ele>
        <time>2021-02-20T14:59:05Z</time>
      </trkpt>
      <trkpt lat="45.17803" lon="5.91767">
        <ele>1602.5</ele>
        <time>2021-02-20T14:59:06Z</time>
      </trkpt>
      <trkpt lat="45.17802" lon="5.91768">
        <ele>1602.4</ele>
        <time>2021-02-20T14:59:07Z</time>
      </trkpt>
      <trkpt lat="45.17801" lon="5.91767">
        <ele>1602.2</ele>
        <time>2021-02-20T14:59:08Z</time>
      </trkpt>
      <trkpt lat="45.178" lon="5.91767">
        <ele>1602.1</ele>
        <time>2021-02-20T14:59:09Z</time>
      </trkpt>
      <trkpt lat="45.178" lon="5.91765">
        <ele>1601.8</ele>
        <time>2021-02-20T14:59:10Z</time>
      </trkpt>
      <trkpt lat="45.17799" lon="5.91763">
        <ele>1601.6</ele>
        <time>2021-02-20T14:59:11Z</time>
      </trkpt>
      <trkpt lat="45.17797" lon="5.91762">
        <ele>1601.3</ele>
        <time>2021-02-20T14:59:12Z</time>
      </trkpt>
      <trkpt lat="45.17796" lon="5.9176">
        <ele>1601.1</ele>
        <time>2021-02-20T14:59:13Z</time>
      </trkpt>
      <trkpt lat="45.17795" lon="5.9176">
        <ele>1600.9</ele>
        <time>2021-02-20T14:59:14Z</time>
      </trkpt>
      <trkpt lat="45.17794" lon="5.91759">
        <ele>1600.6</ele>
        <time>2021-02-20T14:59:15Z</time>
      </trkpt>
      <trkpt lat="45.17793" lon="5.91758">
        <ele>1600.5</ele>
        <time>2021-02-20T14:59:16Z</time>
      </trkpt>
      <trkpt lat="45.17793" lon="5.91758">
        <ele>1600.3</ele>
        <time>2021-02-20T14:59:17Z</time>
      </trkpt>
      <trkpt lat="45.17793" lon="5.91757">
        <ele>1600.2</ele>
        <time>2021-02-20T14:59:18Z</time>
      </trkpt>
      <trkpt lat="45.17792" lon="5.91756">
        <ele>1600.2</ele>
        <time>2021-02-20T14:59:19Z</time>
      </trkpt>
      <trkpt lat="45.17791" lon="5.91756">
        <ele>1600</ele>
        <time>2021-02-20T14:59:20Z</time>
      </trkpt>
      <trkpt lat="45.1779" lon="5.91756">
        <ele>1599.7</ele>
        <time>2021-02-20T14:59:21Z</time>
      </trkpt>
      <trkpt lat="45.17789" lon="5.91756">
        <ele>1599.4</ele>
        <time>2021-02-20T14:59:22Z</time>
      </trkpt>
      <trkpt lat="45.17787" lon="5.91757">
        <ele>1599.1</ele>
        <time>2021-02-20T14:59:23Z</time>
      </trkpt>
      <trkpt lat="45.17785" lon="5.91757">
        <ele>1598.7</ele>
        <time>2021-02-20T14:59:24Z</time>
      </trkpt>
      <trkpt lat="45.17784" lon="5.91756">
        <ele>1598.5</ele>
        <time>2021-02-20T14:59:25Z</time>
      </trkpt>
      <trkpt lat="45.17783" lon="5.91756">
        <ele>1598.2</ele>
        <time>2021-02-20T14:59:26Z</time>
      </trkpt>
      <trkpt lat="45.17781" lon="5.91756">
        <ele>1597.9</ele>
        <time>2021-02-20T14:59:27Z</time>
      </trkpt>
      <trkpt lat="45.1778" lon="5.91756">
        <ele>1597.6</ele>
        <time>2021-02-20T14:59:28Z</time>
      </trkpt>
      <trkpt lat="45.17779" lon="5.91756">
        <ele>1597.3</ele>
        <time>2021-02-20T14:59:29Z</time>
      </trkpt>
      <trkpt lat="45.17777" lon="5.91755">
        <ele>1597.1</ele>
        <time>2021-02-20T14:59:30Z</time>
      </trkpt>
      <trkpt lat="45.17777" lon="5.91755">
        <ele>1596.8</ele>
        <time>2021-02-20T14:59:31Z</time>
      </trkpt>
      <trkpt lat="45.17775" lon="5.91753">
        <ele>1596.5</ele>
        <time>2021-02-20T14:59:32Z</time>
      </trkpt>
      <trkpt lat="45.17774" lon="5.91752">
        <ele>1596.1</ele>
        <time>2021-02-20T14:59:33Z</time>
      </trkpt>
      <trkpt lat="45.17773" lon="5.91751">
        <ele>1595.8</ele>
        <time>2021-02-20T14:59:34Z</time>
      </trkpt>
      <trkpt lat="45.17772" lon="5.91749">
        <ele>1595.5</ele>
        <time>2021-02-20T14:59:35Z</time>
      </trkpt>
      <trkpt lat="45.1777" lon="5.91748">
        <ele>1595.1</ele>
        <time>2021-02-20T14:59:36Z</time>
      </trkpt>
      <trkpt lat="45.17769" lon="5.91747">
        <ele>1594.6</ele>
        <time>2021-02-20T14:59:37Z</time>
      </trkpt>
      <trkpt lat="45.17768" lon="5.91745">
        <ele>1594.3</ele>
        <time>2021-02-20T14:59:38Z</time>
      </trkpt>
      <trkpt lat="45.17767" lon="5.91744">
        <ele>1594</ele>
        <time>2021-02-20T14:59:39Z</time>
      </trkpt>
      <trkpt lat="45.17766" lon="5.91743">
        <ele>1593.7</ele>
        <time>2021-02-20T14:59:40Z</time>
      </trkpt>
      <trkpt lat="45.17766" lon="5.91742">
        <ele>1593.6</ele>
        <time>2021-02-20T14:59:41Z</time>
      </trkpt>
      <trkpt lat="45.17765" lon="5.91742">
        <ele>1593.5</ele>
        <time>2021-02-20T14:59:42Z</time>
      </trkpt>
      <trkpt lat="45.17765" lon="5.91743">
        <ele>1593.4</ele>
        <time>2021-02-20T14:59:43Z</time>
      </trkpt>
      <trkpt lat="45.17765" lon="5.91744">
        <ele>1593.3</ele>
        <time>2021-02-20T14:59:44Z</time>
      </trkpt>
      <trkpt lat="45.17764" lon="5.91744">
        <ele>1593</ele>
        <time>2021-02-20T14:59:45Z</time>
      </trkpt>
      <trkpt lat="45.17763" lon="5.91744">
        <ele>1592.7</ele>
        <time>2021-02-20T14:59:46Z</time>
      </trkpt>
      <trkpt lat="45.17761" lon="5.91743">
        <ele>1592.4</ele>
        <time>2021-02-20T14:59:47Z</time>
      </trkpt>
      <trkpt lat="45.1776" lon="5.91743">
        <ele>1592.2</ele>
        <time>2021-02-20T14:59:48Z</time>
      </trkpt>
      <trkpt lat="45.1776" lon="5.91742">
        <ele>1592</ele>
        <time>2021-02-20T14:59:49Z</time>
      </trkpt>
      <trkpt lat="45.17759" lon="5.91742">
        <ele>1591.8</ele>
        <time>2021-02-20T14:59:50Z</time>
      </trkpt>
      <trkpt lat="45.17758" lon="5.91742">
        <ele>1591.7</ele>
        <time>2021-02-20T14:59:51Z</time>
      </trkpt>
      <trkpt lat="45.17757" lon="5.91741">
        <ele>1591.4</ele>
        <time>2021-02-20T14:59:52Z</time>
      </trkpt>
      <trkpt lat="45.17756" lon="5.91741">
        <ele>1591.2</ele>
        <time>2021-02-20T14:59:53Z</time>
      </trkpt>
      <trkpt lat="45.17755" lon="5.9174">
        <ele>1591.1</ele>
        <time>2021-02-20T14:59:54Z</time>
      </trkpt>
      <trkpt lat="45.17755" lon="5.9174">
        <ele>1590.9</ele>
        <time>2021-02-20T14:59:55Z</time>
      </trkpt>
      <trkpt lat="45.17753" lon="5.91739">
        <ele>1590.6</ele>
        <time>2021-02-20T14:59:56Z</time>
      </trkpt>
      <trkpt lat="45.17752" lon="5.91738">
        <ele>1590.3</ele>
        <time>2021-02-20T14:59:57Z</time>
      </trkpt>
      <trkpt lat="45.17751" lon="5.91737">
        <ele>1590</ele>
        <time>2021-02-20T14:59:58Z</time>
      </trkpt>
      <trkpt lat="45.17751" lon="5.91735">
        <ele>1589.7</ele>
        <time>2021-02-20T14:59:59Z</time>
      </trkpt>
      <trkpt lat="45.17751" lon="5.91734">
        <ele>1589.5</ele>
        <time>2021-02-20T15:00:00Z</time>
      </trkpt>
      <trkpt lat="45.17753" lon="5.91733">
        <ele>1589.1</ele>
        <time>2021-02-20T15:00:01Z</time>
      </trkpt>
      <trkpt lat="45.17754" lon="5.91733">
        <ele>1588.9</ele>
        <time>2021-02-20T15:00:02Z</time>
      </trkpt>
      <trkpt lat="45.17755" lon="5.91732">
        <ele>1588.7</ele>
        <time>2021-02-20T15:00:03Z</time>
      </trkpt>
      <trkpt lat="45.17757" lon="5.91732">
        <ele>1588.3</ele>
        <time>2021-02-20T15:00:04Z</time>
      </trkpt>
      <trkpt lat="45.17758" lon="5.91732">
        <ele>1588</ele>
        <time>2021-02-20T15:00:05Z</time>
      </trkpt>
      <trkpt lat="45.1776" lon="5.91732">
        <ele>1587.7</ele>
        <time>2021-02-20T15:00:06Z</time>
      </trkpt>
      <trkpt lat="45.17761" lon="5.91731">
        <ele>1587.5</ele>
        <time>2021-02-20T15:00:07Z</time>
      </trkpt>
      <trkpt lat="45.17762" lon="5.91731">
        <ele>1587.3</ele>
        <time>2021-02-20T15:00:08Z</time>
      </trkpt>
      <trkpt lat="45.17763" lon="5.9173">
        <ele>1587</ele>
        <time>2021-02-20T15:00:09Z</time>
      </trkpt>
      <trkpt lat="45.17765" lon="5.91729">
        <ele>1586.7</ele>
        <time>2021-02-20T15:00:10Z</time>
      </trkpt>
      <trkpt lat="45.17766" lon="5.91728">
        <ele>1586.3</ele>
        <time>2021-02-20T15:00:11Z</time>
      </trkpt>
      <trkpt lat="45.17767" lon="5.91728">
        <ele>1586</ele>
        <time>2021-02-20T15:00:12Z</time>
      </trkpt>
      <trkpt lat="45.17769" lon="5.91727">
        <ele>1585.7</ele>
        <time>2021-02-20T15:00:13Z</time>
      </trkpt>
      <trkpt lat="45.1777" lon="5.91726">
        <ele>1585.4</ele>
        <time>2021-02-20T15:00:14Z</time>
      </trkpt>
      <trkpt lat="45.17771" lon="5.91725">
        <ele>1585.1</ele>
        <time>2021-02-20T15:00:15Z</time>
      </trkpt>
      <trkpt lat="45.17773" lon="5.91725">
        <ele>1584.9</ele>
        <time>2021-02-20T15:00:16Z</time>
      </trkpt>
      <trkpt lat="45.17774" lon="5.91724">
        <ele>1584.6</ele>
        <time>2021-02-20T15:00:17Z</time>
      </trkpt>
      <trkpt lat="45.17774" lon="5.91724">
        <ele>1584.5</ele>
        <time>2021-02-20T15:00:18Z</time>
      </trkpt>
      <trkpt lat="45.17776" lon="5.91723">
        <ele>1584.2</ele>
        <time>2021-02-20T15:00:19Z</time>
      </trkpt>
      <trkpt lat="45.17777" lon="5.91723">
        <ele>1583.9</ele>
        <time>2021-02-20T15:00:20Z</time>
      </trkpt>
      <trkpt lat="45.17779" lon="5.91722">
        <ele>1583.5</ele>
        <time>2021-02-20T15:00:21Z</time>
      </trkpt>
      <trkpt lat="45.1778" lon="5.91722">
        <ele>1583.2</ele>
        <time>2021-02-20T15:00:22Z</time>
      </trkpt>
      <trkpt lat="45.17782" lon="5.91721">
        <ele>1582.9</ele>
        <time>2021-02-20T15:00:23Z</time>
      </trkpt>
      <trkpt lat="45.17783" lon="5.9172">
        <ele>1582.6</ele>
        <time>2021-02-20T15:00:24Z</time>
      </trkpt>
      <trkpt lat="45.17784" lon="5.91719">
        <ele>1582.4</ele>
        <time>2021-02-20T15:00:25Z</time>
      </trkpt>
      <trkpt lat="45.17785" lon="5.91718">
        <ele>1582.2</ele>
        <time>2021-02-20T15:00:26Z</time>
      </trkpt>
      <trkpt lat="45.17785" lon="5.91717">
        <ele>1581.9</ele>
        <time>2021-02-20T15:00:27Z</time>
      </trkpt>
      <trkpt lat="45.17786" lon="5.91715">
        <ele>1581.6</ele>
        <time>2021-02-20T15:00:28Z</time>
      </trkpt>
      <trkpt lat="45.17786" lon="5.91714">
        <ele>1581.4</ele>
        <time>2021-02-20T15:00:29Z</time>
      </trkpt>
      <trkpt lat="45.17787" lon="5.91712">
        <ele>1581.2</ele>
        <time>2021-02-20T15:00:30Z</time>
      </trkpt>
      <trkpt lat="45.17789" lon="5.91711">
        <ele>1580.9</ele>
        <time>2021-02-20T15:00:31Z</time>
      </trkpt>
      <trkpt lat="45.1779" lon="5.91711">
        <ele>1580.6</ele>
        <time>2021-02-20T15:00:32Z</time>
      </trkpt>
      <trkpt lat="45.17791" lon="5.91711">
        <ele>1580.4</ele>
        <time>2021-02-20T15:00:33Z</time>
      </trkpt>
      <trkpt lat="45.17792" lon="5.91711">
        <ele>1580.2</ele>
        <time>2021-02-20T15:00:34Z</time>
      </trkpt>
      <trkpt lat="45.17793" lon="5.91711">
        <ele>1580</ele>
        <time>2021-02-20T15:00:35Z</time>
      </trkpt>
      <trkpt lat="45.17794" lon="5.91711">
        <ele>1579.7</ele>
        <time>2021-02-20T15:00:36Z</time>
      </trkpt>
      <trkpt lat="45.17795" lon="5.91711">
        <ele>1579.6</ele>
        <time>2021-02-20T15:00:37Z</time>
      </trkpt>
      <trkpt lat="45.17796" lon="5.91711">
        <ele>1579.4</ele>
        <time>2021-02-20T15:00:38Z</time>
      </trkpt>
      <trkpt lat="45.17797" lon="5.91711">
        <ele>1579.3</ele>
        <time>2021-02-20T15:00:39Z</time>
      </trkpt>
      <trkpt lat="45.17798" lon="5.91712">
        <ele>1578.9</ele>
        <time>2021-02-20T15:00:40Z</time>
      </trkpt>
      <trkpt lat="45.178" lon="5.91713">
        <ele>1578.6</ele>
        <time>2021-02-20T15:00:41Z</time>
      </trkpt>
      <trkpt lat="45.17801" lon="5.91713">
        <ele>1578.5</ele>
        <time>2021-02-20T15:00:42Z</time>
      </trkpt>
      <trkpt lat="45.17801" lon="5.91713">
        <ele>1578.4</ele>
        <time>2021-02-20T15:00:43Z</time>
      </trkpt>
      <trkpt lat="45.17802" lon="5.91714">
        <ele>1578.2</ele>
        <time>2021-02-20T15:00:44Z</time>
      </trkpt>
      <trkpt lat="45.17803" lon="5.91714">
        <ele>1577.9</ele>
        <time>2021-02-20T15:00:45Z</time>
      </trkpt>
      <trkpt lat="45.17805" lon="5.91713">
        <ele>1577.6</ele>
        <time>2021-02-20T15:00:46Z</time>
      </trkpt>
      <trkpt lat="45.17806" lon="5.91713">
        <ele>1577.4</ele>
        <time>2021-02-20T15:00:47Z</time>
      </trkpt>
      <trkpt lat="45.17807" lon="5.91713">
        <ele>1577.1</ele>
        <time>2021-02-20T15:00:48Z</time>
      </trkpt>
      <trkpt lat="45.17809" lon="5.91713">
        <ele>1576.9</ele>
        <time>2021-02-20T15:00:49Z</time>
      </trkpt>
      <trkpt lat="45.1781" lon="5.91712">
        <ele>1576.6</ele>
        <time>2021-02-20T15:00:50Z</time>
      </trkpt>
      <trkpt lat="45.17812" lon="5.91711">
        <ele>1576.3</ele>
        <time>2021-02-20T15:00:51Z</time>
      </trkpt>
      <trkpt lat="45.17813" lon="5.91709">
        <ele>1575.9</ele>
        <time>2021-02-20T15:00:52Z</time>
      </trkpt>
      <trkpt lat="45.17815" lon="5.91708">
        <ele>1575.6</ele>
        <time>2021-02-20T15:00:53Z</time>
      </trkpt>
      <trkpt lat="45.17816" lon="5.91707">
        <ele>1575.3</ele>
        <time>2021-02-20T15:00:54Z</time>
      </trkpt>
      <trkpt lat="45.17817" lon="5.91706">
        <ele>1575.1</ele>
        <time>2021-02-20T15:00:55Z</time>
      </trkpt>
      <trkpt lat="45.17818" lon="5.91705">
        <ele>1574.8</ele>
        <time>2021-02-20T15:00:56Z</time>
      </trkpt>
      <trkpt lat="45.17819" lon="5.91705">
        <ele>1574.7</ele>
        <time>2021-02-20T15:00:57Z</time>
      </trkpt>
      <trkpt lat="45.1782" lon="5.91704">
        <ele>1574.5</ele>
        <time>2021-02-20T15:00:58Z</time>
      </trkpt>
      <trkpt lat="45.17821" lon="5.91704">
        <ele>1574.3</ele>
        <time>2021-02-20T15:00:59Z</time>
      </trkpt>
      <trkpt lat="45.17822" lon="5.91704">
        <ele>1574.1</ele>
        <time>2021-02-20T15:01:00Z</time>
      </trkpt>
      <trkpt lat="45.17823" lon="5.91704">
        <ele>1574</ele>
        <time>2021-02-20T15:01:01Z</time>
      </trkpt>
      <trkpt lat="45.17824" lon="5.91703">
        <ele>1573.9</ele>
        <time>2021-02-20T15:01:02Z</time>
      </trkpt>
      <trkpt lat="45.17825" lon="5.91701">
        <ele>1573.5</ele>
        <time>2021-02-20T15:01:03Z</time>
      </trkpt>
      <trkpt lat="45.17825" lon="5.91699">
        <ele>1573.3</ele>
        <time>2021-02-20T15:01:04Z</time>
      </trkpt>
      <trkpt lat="45.17826" lon="5.91698">
        <ele>1573.2</ele>
        <time>2021-02-20T15:01:05Z</time>
      </trkpt>
      <trkpt lat="45.17827" lon="5.91697">
        <ele>1572.9</ele>
        <time>2021-02-20T15:01:06Z</time>
      </trkpt>
      <trkpt lat="45.17828" lon="5.91696">
        <ele>1572.7</ele>
        <time>2021-02-20T15:01:07Z</time>
      </trkpt>
      <trkpt lat="45.1783" lon="5.91694">
        <ele>1572.3</ele>
        <time>2021-02-20T15:01:08Z</time>
      </trkpt>
      <trkpt lat="45.17831" lon="5.91694">
        <ele>1572.1</ele>
        <time>2021-02-20T15:01:09Z</time>
      </trkpt>
      <trkpt lat="45.17832" lon="5.91694">
        <ele>1572</ele>
        <time>2021-02-20T15:01:10Z</time>
      </trkpt>
      <trkpt lat="45.17834" lon="5.91693">
        <ele>1571.6</ele>
        <time>2021-02-20T15:01:11Z</time>
      </trkpt>
      <trkpt lat="45.17835" lon="5.91693">
        <ele>1571.5</ele>
        <time>2021-02-20T15:01:12Z</time>
      </trkpt>
      <trkpt lat="45.17836" lon="5.91692">
        <ele>1571.3</ele>
        <time>2021-02-20T15:01:13Z</time>
      </trkpt>
      <trkpt lat="45.17837" lon="5.91692">
        <ele>1571.1</ele>
        <time>2021-02-20T15:01:14Z</time>
      </trkpt>
      <trkpt lat="45.17838" lon="5.91691">
        <ele>1570.9</ele>
        <time>2021-02-20T15:01:15Z</time>
      </trkpt>
      <trkpt lat="45.17839" lon="5.91691">
        <ele>1570.7</ele>
        <time>2021-02-20T15:01:16Z</time>
      </trkpt>
      <trkpt lat="45.1784" lon="5.91692">
        <ele>1570.4</ele>
        <time>2021-02-20T15:01:17Z</time>
      </trkpt>
      <trkpt lat="45.17842" lon="5.91693">
        <ele>1570.1</ele>
        <time>2021-02-20T15:01:18Z</time>
      </trkpt>
      <trkpt lat="45.17844" lon="5.91693">
        <ele>1569.7</ele>
        <time>2021-02-20T15:01:19Z</time>
      </trkpt>
      <trkpt lat="45.17845" lon="5.91693">
        <ele>1569.6</ele>
        <time>2021-02-20T15:01:20Z</time>
      </trkpt>
      <trkpt lat="45.17846" lon="5.91693">
        <ele>1569.5</ele>
        <time>2021-02-20T15:01:21Z</time>
      </trkpt>
      <trkpt lat="45.17847" lon="5.91693">
        <ele>1569.2</ele>
        <time>2021-02-20T15:01:22Z</time>
      </trkpt>
      <trkpt lat="45.17849" lon="5.91693">
        <ele>1568.9</ele>
        <time>2021-02-20T15:01:23Z</time>
      </trkpt>
      <trkpt lat="45.1785" lon="5.91692">
        <ele>1568.7</ele>
        <time>2021-02-20T15:01:24Z</time>
      </trkpt>
      <trkpt lat="45.17851" lon="5.91691">
        <ele>1568.5</ele>
        <time>2021-02-20T15:01:25Z</time>
      </trkpt>
      <trkpt lat="45.17851" lon="5.91689">
        <ele>1568.2</ele>
        <time>2021-02-20T15:01:26Z</time>
      </trkpt>
      <trkpt lat="45.17849" lon="5.91686">
        <ele>1567.8</ele>
        <time>2021-02-20T15:01:27Z</time>
      </trkpt>
      <trkpt lat="45.17849" lon="5.91685">
        <ele>1567.6</ele>
        <time>2021-02-20T15:01:28Z</time>
      </trkpt>
      <trkpt lat="45.17847" lon="5.91684">
        <ele>1567.3</ele>
        <time>2021-02-20T15:01:29Z</time>
      </trkpt>
      <trkpt lat="45.17846" lon="5.91683">
        <ele>1567.1</ele>
        <time>2021-02-20T15:01:30Z</time>
      </trkpt>
      <trkpt lat="45.17845" lon="5.91683">
        <ele>1567</ele>
        <time>2021-02-20T15:01:31Z</time>
      </trkpt>
      <trkpt lat="45.17843" lon="5.91682">
        <ele>1566.7</ele>
        <time>2021-02-20T15:01:32Z</time>
      </trkpt>
      <trkpt lat="45.17842" lon="5.91682">
        <ele>1566.5</ele>
        <time>2021-02-20T15:01:33Z</time>
      </trkpt>
      <trkpt lat="45.17841" lon="5.91681">
        <ele>1566.4</ele>
        <time>2021-02-20T15:01:34Z</time>
      </trkpt>
      <trkpt lat="45.1784" lon="5.91681">
        <ele>1566.2</ele>
        <time>2021-02-20T15:01:35Z</time>
      </trkpt>
      <trkpt lat="45.17839" lon="5.9168">
        <ele>1566</ele>
        <time>2021-02-20T15:01:36Z</time>
      </trkpt>
      <trkpt lat="45.17839" lon="5.9168">
        <ele>1565.9</ele>
        <time>2021-02-20T15:01:37Z</time>
      </trkpt>
      <trkpt lat="45.17837" lon="5.91679">
        <ele>1565.6</ele>
        <time>2021-02-20T15:01:38Z</time>
      </trkpt>
      <trkpt lat="45.17836" lon="5.91678">
        <ele>1565.4</ele>
        <time>2021-02-20T15:01:39Z</time>
      </trkpt>
      <trkpt lat="45.17835" lon="5.91679">
        <ele>1565.2</ele>
        <time>2021-02-20T15:01:40Z</time>
      </trkpt>
      <trkpt lat="45.17834" lon="5.9168">
        <ele>1565</ele>
        <time>2021-02-20T15:01:41Z</time>
      </trkpt>
      <trkpt lat="45.17833" lon="5.9168">
        <ele>1564.8</ele>
        <time>2021-02-20T15:01:42Z</time>
      </trkpt>
      <trkpt lat="45.17831" lon="5.9168">
        <ele>1564.5</ele>
        <time>2021-02-20T15:01:43Z</time>
      </trkpt>
      <trkpt lat="45.1783" lon="5.91679">
        <ele>1564.2</ele>
        <time>2021-02-20T15:01:44Z</time>
      </trkpt>
      <trkpt lat="45.17828" lon="5.91677">
        <ele>1563.9</ele>
        <time>2021-02-20T15:01:45Z</time>
      </trkpt>
      <trkpt lat="45.17827" lon="5.91676">
        <ele>1563.6</ele>
        <time>2021-02-20T15:01:46Z</time>
      </trkpt>
      <trkpt lat="45.17826" lon="5.91674">
        <ele>1563.3</ele>
        <time>2021-02-20T15:01:47Z</time>
      </trkpt>
      <trkpt lat="45.17824" lon="5.91674">
        <ele>1563</ele>
        <time>2021-02-20T15:01:48Z</time>
      </trkpt>
      <trkpt lat="45.17823" lon="5.91673">
        <ele>1562.7</ele>
        <time>2021-02-20T15:01:49Z</time>
      </trkpt>
      <trkpt lat="45.17822" lon="5.91673">
        <ele>1562.4</ele>
        <time>2021-02-20T15:01:50Z</time>
      </trkpt>
      <trkpt lat="45.1782" lon="5.91673">
        <ele>1562.1</ele>
        <time>2021-02-20T15:01:51Z</time>
      </trkpt>
      <trkpt lat="45.17819" lon="5.91673">
        <ele>1561.7</ele>
        <time>2021-02-20T15:01:52Z</time>
      </trkpt>
      <trkpt lat="45.17817" lon="5.91672">
        <ele>1561.3</ele>
        <time>2021-02-20T15:01:53Z</time>
      </trkpt>
      <trkpt lat="45.17816" lon="5.91671">
        <ele>1561.1</ele>
        <time>2021-02-20T15:01:54Z</time>
      </trkpt>
      <trkpt lat="45.17815" lon="5.91671">
        <ele>1560.9</ele>
        <time>2021-02-20T15:01:55Z</time>
      </trkpt>
      <trkpt lat="45.17814" lon="5.9167">
        <ele>1560.6</ele>
        <time>2021-02-20T15:01:56Z</time>
      </trkpt>
      <trkpt lat="45.17813" lon="5.91669">
        <ele>1560.3</ele>
        <time>2021-02-20T15:01:57Z</time>
      </trkpt>
      <trkpt lat="45.17811" lon="5.91668">
        <ele>1560</ele>
        <time>2021-02-20T15:01:58Z</time>
      </trkpt>
      <trkpt lat="45.1781" lon="5.91667">
        <ele>1559.7</ele>
        <time>2021-02-20T15:01:59Z</time>
      </trkpt>
      <trkpt lat="45.17809" lon="5.91666">
        <ele>1559.3</ele>
        <time>2021-02-20T15:02:00Z</time>
      </trkpt>
      <trkpt lat="45.17809" lon="5.91665">
        <ele>1559.2</ele>
        <time>2021-02-20T15:02:01Z</time>
      </trkpt>
      <trkpt lat="45.17809" lon="5.91665">
        <ele>1559</ele>
        <time>2021-02-20T15:02:02Z</time>
      </trkpt>
      <trkpt lat="45.17808" lon="5.91664">
        <ele>1558.9</ele>
        <time>2021-02-20T15:02:03Z</time>
      </trkpt>
      <trkpt lat="45.17808" lon="5.91664">
        <ele>1558.8</ele>
        <time>2021-02-20T15:02:04Z</time>
      </trkpt>
      <trkpt lat="45.17808" lon="5.91663">
        <ele>1558.7</ele>
        <time>2021-02-20T15:02:05Z</time>
      </trkpt>
      <trkpt lat="45.17808" lon="5.91661">
        <ele>1558.3</ele>
        <time>2021-02-20T15:02:06Z</time>
      </trkpt>
      <trkpt lat="45.17808" lon="5.91659">
        <ele>1558.1</ele>
        <time>2021-02-20T15:02:07Z</time>
      </trkpt>
      <trkpt lat="45.17809" lon="5.91658">
        <ele>1553.9</ele>
        <time>2021-02-20T15:02:08Z</time>
      </trkpt>
      <trkpt lat="45.1781" lon="5.91657">
        <ele>1553.6</ele>
        <time>2021-02-20T15:02:09Z</time>
      </trkpt>
      <trkpt lat="45.17812" lon="5.91657">
        <ele>1553.3</ele>
        <time>2021-02-20T15:02:10Z</time>
      </trkpt>
      <trkpt lat="45.17813" lon="5.91656">
        <ele>1553</ele>
        <time>2021-02-20T15:02:11Z</time>
      </trkpt>
      <trkpt lat="45.17815" lon="5.91656">
        <ele>1552.7</ele>
        <time>2021-02-20T15:02:12Z</time>
      </trkpt>
      <trkpt lat="45.17817" lon="5.91655">
        <ele>1552.1</ele>
        <time>2021-02-20T15:02:13Z</time>
      </trkpt>
      <trkpt lat="45.17818" lon="5.91655">
        <ele>1551.9</ele>
        <time>2021-02-20T15:02:14Z</time>
      </trkpt>
      <trkpt lat="45.1782" lon="5.91654">
        <ele>1551.5</ele>
        <time>2021-02-20T15:02:15Z</time>
      </trkpt>
      <trkpt lat="45.17821" lon="5.91653">
        <ele>1551.2</ele>
        <time>2021-02-20T15:02:16Z</time>
      </trkpt>
      <trkpt lat="45.17822" lon="5.91653">
        <ele>1550.9</ele>
        <time>2021-02-20T15:02:17Z</time>
      </trkpt>
      <trkpt lat="45.17824" lon="5.91652">
        <ele>1550.6</ele>
        <time>2021-02-20T15:02:18Z</time>
      </trkpt>
      <trkpt lat="45.17825" lon="5.91652">
        <ele>1550.2</ele>
        <time>2021-02-20T15:02:19Z</time>
      </trkpt>
      <trkpt lat="45.17827" lon="5.91651">
        <ele>1549.8</ele>
        <time>2021-02-20T15:02:20Z</time>
      </trkpt>
      <trkpt lat="45.17829" lon="5.91649">
        <ele>1549.5</ele>
        <time>2021-02-20T15:02:21Z</time>
      </trkpt>
      <trkpt lat="45.1783" lon="5.91648">
        <ele>1549.1</ele>
        <time>2021-02-20T15:02:22Z</time>
      </trkpt>
      <trkpt lat="45.17831" lon="5.91647">
        <ele>1548.8</ele>
        <time>2021-02-20T15:02:23Z</time>
      </trkpt>
      <trkpt lat="45.17833" lon="5.91646">
        <ele>1548.4</ele>
        <time>2021-02-20T15:02:24Z</time>
      </trkpt>
      <trkpt lat="45.17834" lon="5.91645">
        <ele>1548</ele>
        <time>2021-02-20T15:02:25Z</time>
      </trkpt>
      <trkpt lat="45.17836" lon="5.91645">
        <ele>1547.7</ele>
        <time>2021-02-20T15:02:26Z</time>
      </trkpt>
      <trkpt lat="45.17837" lon="5.91644">
        <ele>1547.4</ele>
        <time>2021-02-20T15:02:27Z</time>
      </trkpt>
      <trkpt lat="45.17838" lon="5.91644">
        <ele>1547</ele>
        <time>2021-02-20T15:02:28Z</time>
      </trkpt>
      <trkpt lat="45.1784" lon="5.91643">
        <ele>1546.8</ele>
        <time>2021-02-20T15:02:29Z</time>
      </trkpt>
      <trkpt lat="45.17841" lon="5.91643">
        <ele>1546.5</ele>
        <time>2021-02-20T15:02:30Z</time>
      </trkpt>
      <trkpt lat="45.17842" lon="5.91642">
        <ele>1546.2</ele>
        <time>2021-02-20T15:02:31Z</time>
      </trkpt>
      <trkpt lat="45.17844" lon="5.91641">
        <ele>1545.7</ele>
        <time>2021-02-20T15:02:32Z</time>
      </trkpt>
      <trkpt lat="45.17845" lon="5.9164">
        <ele>1545.5</ele>
        <time>2021-02-20T15:02:33Z</time>
      </trkpt>
      <trkpt lat="45.17846" lon="5.9164">
        <ele>1545.2</ele>
        <time>2021-02-20T15:02:34Z</time>
      </trkpt>
      <trkpt lat="45.17847" lon="5.91639">
        <ele>1544.9</ele>
        <time>2021-02-20T15:02:35Z</time>
      </trkpt>
      <trkpt lat="45.17848" lon="5.91638">
        <ele>1544.5</ele>
        <time>2021-02-20T15:02:36Z</time>
      </trkpt>
      <trkpt lat="45.1785" lon="5.91637">
        <ele>1544.2</ele>
        <time>2021-02-20T15:02:37Z</time>
      </trkpt>
      <trkpt lat="45.17851" lon="5.91637">
        <ele>1543.9</ele>
        <time>2021-02-20T15:02:38Z</time>
      </trkpt>
      <trkpt lat="45.17853" lon="5.91636">
        <ele>1543.4</ele>
        <time>2021-02-20T15:02:39Z</time>
      </trkpt>
      <trkpt lat="45.17854" lon="5.91634">
        <ele>1543</ele>
        <time>2021-02-20T15:02:40Z</time>
      </trkpt>
      <trkpt lat="45.17856" lon="5.91632">
        <ele>1542.4</ele>
        <time>2021-02-20T15:02:41Z</time>
      </trkpt>
      <trkpt lat="45.17857" lon="5.91631">
        <ele>1542.2</ele>
        <time>2021-02-20T15:02:42Z</time>
      </trkpt>
      <trkpt lat="45.1786" lon="5.91629">
        <ele>1541.4</ele>
        <time>2021-02-20T15:02:43Z</time>
      </trkpt>
      <trkpt lat="45.17861" lon="5.91628">
        <ele>1541.2</ele>
        <time>2021-02-20T15:02:44Z</time>
      </trkpt>
      <trkpt lat="45.17863" lon="5.91626">
        <ele>1540.6</ele>
        <time>2021-02-20T15:02:45Z</time>
      </trkpt>
      <trkpt lat="45.17864" lon="5.91625">
        <ele>1540.4</ele>
        <time>2021-02-20T15:02:46Z</time>
      </trkpt>
      <trkpt lat="45.17866" lon="5.91622">
        <ele>1539.7</ele>
        <time>2021-02-20T15:02:47Z</time>
      </trkpt>
      <trkpt lat="45.17866" lon="5.91621">
        <ele>1539.5</ele>
        <time>2021-02-20T15:02:48Z</time>
      </trkpt>
      <trkpt lat="45.17867" lon="5.91619">
        <ele>1539.2</ele>
        <time>2021-02-20T15:02:49Z</time>
      </trkpt>
      <trkpt lat="45.17868" lon="5.91617">
        <ele>1538.8</ele>
        <time>2021-02-20T15:02:50Z</time>
      </trkpt>
      <trkpt lat="45.17869" lon="5.91616">
        <ele>1538.5</ele>
        <time>2021-02-20T15:02:51Z</time>
      </trkpt>
      <trkpt lat="45.1787" lon="5.91614">
        <ele>1538.2</ele>
        <time>2021-02-20T15:02:52Z</time>
      </trkpt>
      <trkpt lat="45.17872" lon="5.91613">
        <ele>1537.8</ele>
        <time>2021-02-20T15:02:53Z</time>
      </trkpt>
      <trkpt lat="45.17873" lon="5.91611">
        <ele>1537.4</ele>
        <time>2021-02-20T15:02:54Z</time>
      </trkpt>
      <trkpt lat="45.17874" lon="5.91609">
        <ele>1537</ele>
        <time>2021-02-20T15:02:55Z</time>
      </trkpt>
      <trkpt lat="45.17876" lon="5.91608">
        <ele>1536.6</ele>
        <time>2021-02-20T15:02:56Z</time>
      </trkpt>
      <trkpt lat="45.17877" lon="5.91607">
        <ele>1536.3</ele>
        <time>2021-02-20T15:02:57Z</time>
      </trkpt>
      <trkpt lat="45.17878" lon="5.91605">
        <ele>1536</ele>
        <time>2021-02-20T15:02:58Z</time>
      </trkpt>
      <trkpt lat="45.17879" lon="5.91604">
        <ele>1535.6</ele>
        <time>2021-02-20T15:02:59Z</time>
      </trkpt>
      <trkpt lat="45.1788" lon="5.91602">
        <ele>1535.2</ele>
        <time>2021-02-20T15:03:00Z</time>
      </trkpt>
      <trkpt lat="45.17882" lon="5.91601">
        <ele>1534.7</ele>
        <time>2021-02-20T15:03:01Z</time>
      </trkpt>
      <trkpt lat="45.17883" lon="5.916">
        <ele>1534.5</ele>
        <time>2021-02-20T15:03:02Z</time>
      </trkpt>
      <trkpt lat="45.17884" lon="5.91599">
        <ele>1534.3</ele>
        <time>2021-02-20T15:03:03Z</time>
      </trkpt>
      <trkpt lat="45.17886" lon="5.91598">
        <ele>1533.8</ele>
        <time>2021-02-20T15:03:04Z</time>
      </trkpt>
      <trkpt lat="45.17887" lon="5.91598">
        <ele>1533.5</ele>
        <time>2021-02-20T15:03:05Z</time>
      </trkpt>
      <trkpt lat="45.17887" lon="5.91598">
        <ele>1533.3</ele>
        <time>2021-02-20T15:03:06Z</time>
      </trkpt>
      <trkpt lat="45.17889" lon="5.91597">
        <ele>1532.9</ele>
        <time>2021-02-20T15:03:07Z</time>
      </trkpt>
      <trkpt lat="45.1789" lon="5.91596">
        <ele>1532.6</ele>
        <time>2021-02-20T15:03:08Z</time>
      </trkpt>
      <trkpt lat="45.17891" lon="5.91596">
        <ele>1532.3</ele>
        <time>2021-02-20T15:03:09Z</time>
      </trkpt>
      <trkpt lat="45.17893" lon="5.91595">
        <ele>1531.9</ele>
        <time>2021-02-20T15:03:10Z</time>
      </trkpt>
      <trkpt lat="45.17894" lon="5.91594">
        <ele>1531.6</ele>
        <time>2021-02-20T15:03:11Z</time>
      </trkpt>
      <trkpt lat="45.17896" lon="5.91593">
        <ele>1531.3</ele>
        <time>2021-02-20T15:03:12Z</time>
      </trkpt>
      <trkpt lat="45.17897" lon="5.91593">
        <ele>1531</ele>
        <time>2021-02-20T15:03:13Z</time>
      </trkpt>
      <trkpt lat="45.17898" lon="5.91592">
        <ele>1530.7</ele>
        <time>2021-02-20T15:03:14Z</time>
      </trkpt>
      <trkpt lat="45.179" lon="5.91591">
        <ele>1530.3</ele>
        <time>2021-02-20T15:03:15Z</time>
      </trkpt>
      <trkpt lat="45.17901" lon="5.9159">
        <ele>1530</ele>
        <time>2021-02-20T15:03:16Z</time>
      </trkpt>
      <trkpt lat="45.17903" lon="5.91589">
        <ele>1529.7</ele>
        <time>2021-02-20T15:03:17Z</time>
      </trkpt>
      <trkpt lat="45.17904" lon="5.91588">
        <ele>1529.3</ele>
        <time>2021-02-20T15:03:18Z</time>
      </trkpt>
      <trkpt lat="45.17905" lon="5.91587">
        <ele>1529</ele>
        <time>2021-02-20T15:03:19Z</time>
      </trkpt>
      <trkpt lat="45.17907" lon="5.91586">
        <ele>1528.7</ele>
        <time>2021-02-20T15:03:20Z</time>
      </trkpt>
      <trkpt lat="45.17908" lon="5.91586">
        <ele>1528.4</ele>
        <time>2021-02-20T15:03:21Z</time>
      </trkpt>
      <trkpt lat="45.17909" lon="5.91585">
        <ele>1528.2</ele>
        <time>2021-02-20T15:03:22Z</time>
      </trkpt>
      <trkpt lat="45.17911" lon="5.91586">
        <ele>1527.8</ele>
        <time>2021-02-20T15:03:23Z</time>
      </trkpt>
      <trkpt lat="45.17912" lon="5.91586">
        <ele>1527.6</ele>
        <time>2021-02-20T15:03:24Z</time>
      </trkpt>
      <trkpt lat="45.17913" lon="5.91586">
        <ele>1527.4</ele>
        <time>2021-02-20T15:03:25Z</time>
      </trkpt>
      <trkpt lat="45.17915" lon="5.91586">
        <ele>1527.1</ele>
        <time>2021-02-20T15:03:26Z</time>
      </trkpt>
      <trkpt lat="45.17916" lon="5.91586">
        <ele>1526.7</ele>
        <time>2021-02-20T15:03:27Z</time>
      </trkpt>
      <trkpt lat="45.17918" lon="5.91586">
        <ele>1526.4</ele>
        <time>2021-02-20T15:03:28Z</time>
      </trkpt>
      <trkpt lat="45.17919" lon="5.91587">
        <ele>1526.1</ele>
        <time>2021-02-20T15:03:29Z</time>
      </trkpt>
      <trkpt lat="45.17921" lon="5.91587">
        <ele>1525.6</ele>
        <time>2021-02-20T15:03:30Z</time>
      </trkpt>
      <trkpt lat="45.17922" lon="5.91586">
        <ele>1525.4</ele>
        <time>2021-02-20T15:03:31Z</time>
      </trkpt>
      <trkpt lat="45.17923" lon="5.91586">
        <ele>1525.2</ele>
        <time>2021-02-20T15:03:32Z</time>
      </trkpt>
      <trkpt lat="45.17925" lon="5.91586">
        <ele>1524.8</ele>
        <time>2021-02-20T15:03:33Z</time>
      </trkpt>
      <trkpt lat="45.17927" lon="5.91585">
        <ele>1524.5</ele>
        <time>2021-02-20T15:03:34Z</time>
      </trkpt>
      <trkpt lat="45.17929" lon="5.91585">
        <ele>1524.1</ele>
        <time>2021-02-20T15:03:35Z</time>
      </trkpt>
      <trkpt lat="45.1793" lon="5.91584">
        <ele>1523.8</ele>
        <time>2021-02-20T15:03:36Z</time>
      </trkpt>
      <trkpt lat="45.17932" lon="5.91584">
        <ele>1523.5</ele>
        <time>2021-02-20T15:03:37Z</time>
      </trkpt>
      <trkpt lat="45.17933" lon="5.91584">
        <ele>1523.2</ele>
        <time>2021-02-20T15:03:38Z</time>
      </trkpt>
      <trkpt lat="45.17934" lon="5.91584">
        <ele>1522.9</ele>
        <time>2021-02-20T15:03:39Z</time>
      </trkpt>
      <trkpt lat="45.17936" lon="5.91584">
        <ele>1522.6</ele>
        <time>2021-02-20T15:03:40Z</time>
      </trkpt>
      <trkpt lat="45.17937" lon="5.91584">
        <ele>1522.3</ele>
        <time>2021-02-20T15:03:41Z</time>
      </trkpt>
      <trkpt lat="45.17939" lon="5.91583">
        <ele>1521.9</ele>
        <time>2021-02-20T15:03:42Z</time>
      </trkpt>
      <trkpt lat="45.1794" lon="5.91583">
        <ele>1521.6</ele>
        <time>2021-02-20T15:03:43Z</time>
      </trkpt>
      <trkpt lat="45.17942" lon="5.91583">
        <ele>1521.3</ele>
        <time>2021-02-20T15:03:44Z</time>
      </trkpt>
      <trkpt lat="45.17943" lon="5.91583">
        <ele>1521</ele>
        <time>2021-02-20T15:03:45Z</time>
      </trkpt>
      <trkpt lat="45.17945" lon="5.91582">
        <ele>1520.7</ele>
        <time>2021-02-20T15:03:46Z</time>
      </trkpt>
      <trkpt lat="45.17947" lon="5.91581">
        <ele>1520.2</ele>
        <time>2021-02-20T15:03:47Z</time>
      </trkpt>
      <trkpt lat="45.17948" lon="5.91581">
        <ele>1520</ele>
        <time>2021-02-20T15:03:48Z</time>
      </trkpt>
      <trkpt lat="45.17948" lon="5.91581">
        <ele>1519.8</ele>
        <time>2021-02-20T15:03:49Z</time>
      </trkpt>
      <trkpt lat="45.1795" lon="5.9158">
        <ele>1519.5</ele>
        <time>2021-02-20T15:03:50Z</time>
      </trkpt>
      <trkpt lat="45.17951" lon="5.91579">
        <ele>1519.1</ele>
        <time>2021-02-20T15:03:51Z</time>
      </trkpt>
      <trkpt lat="45.17953" lon="5.91579">
        <ele>1518.8</ele>
        <time>2021-02-20T15:03:52Z</time>
      </trkpt>
      <trkpt lat="45.17954" lon="5.91579">
        <ele>1518.5</ele>
        <time>2021-02-20T15:03:53Z</time>
      </trkpt>
      <trkpt lat="45.17956" lon="5.91579">
        <ele>1518.1</ele>
        <time>2021-02-20T15:03:54Z</time>
      </trkpt>
      <trkpt lat="45.17957" lon="5.9158">
        <ele>1517.8</ele>
        <time>2021-02-20T15:03:55Z</time>
      </trkpt>
      <trkpt lat="45.17959" lon="5.9158">
        <ele>1517.5</ele>
        <time>2021-02-20T15:03:56Z</time>
      </trkpt>
      <trkpt lat="45.1796" lon="5.9158">
        <ele>1517.2</ele>
        <time>2021-02-20T15:03:57Z</time>
      </trkpt>
      <trkpt lat="45.17961" lon="5.9158">
        <ele>1516.8</ele>
        <time>2021-02-20T15:03:58Z</time>
      </trkpt>
      <trkpt lat="45.17963" lon="5.9158">
        <ele>1516.5</ele>
        <time>2021-02-20T15:03:59Z</time>
      </trkpt>
      <trkpt lat="45.17966" lon="5.9158">
        <ele>1515.8</ele>
        <time>2021-02-20T15:04:00Z</time>
      </trkpt>
      <trkpt lat="45.17967" lon="5.9158">
        <ele>1515.6</ele>
        <time>2021-02-20T15:04:01Z</time>
      </trkpt>
      <trkpt lat="45.1797" lon="5.91581">
        <ele>1514.9</ele>
        <time>2021-02-20T15:04:02Z</time>
      </trkpt>
      <trkpt lat="45.17971" lon="5.91581">
        <ele>1514.7</ele>
        <time>2021-02-20T15:04:03Z</time>
      </trkpt>
      <trkpt lat="45.17973" lon="5.91582">
        <ele>1514.1</ele>
        <time>2021-02-20T15:04:04Z</time>
      </trkpt>
      <trkpt lat="45.17974" lon="5.91582">
        <ele>1513.9</ele>
        <time>2021-02-20T15:04:05Z</time>
      </trkpt>
      <trkpt lat="45.17978" lon="5.91582">
        <ele>1513.2</ele>
        <time>2021-02-20T15:04:06Z</time>
      </trkpt>
      <trkpt lat="45.17979" lon="5.91582">
        <ele>1513</ele>
        <time>2021-02-20T15:04:07Z</time>
      </trkpt>
      <trkpt lat="45.17982" lon="5.91583">
        <ele>1512.4</ele>
        <time>2021-02-20T15:04:08Z</time>
      </trkpt>
      <trkpt lat="45.17983" lon="5.91583">
        <ele>1512.2</ele>
        <time>2021-02-20T15:04:09Z</time>
      </trkpt>
      <trkpt lat="45.17984" lon="5.91583">
        <ele>1511.9</ele>
        <time>2021-02-20T15:04:10Z</time>
      </trkpt>
      <trkpt lat="45.17986" lon="5.91583">
        <ele>1511.5</ele>
        <time>2021-02-20T15:04:11Z</time>
      </trkpt>
      <trkpt lat="45.17988" lon="5.91583">
        <ele>1511.2</ele>
        <time>2021-02-20T15:04:12Z</time>
      </trkpt>
      <trkpt lat="45.17989" lon="5.91584">
        <ele>1510.9</ele>
        <time>2021-02-20T15:04:13Z</time>
      </trkpt>
      <trkpt lat="45.17992" lon="5.91584">
        <ele>1510.4</ele>
        <time>2021-02-20T15:04:14Z</time>
      </trkpt>
      <trkpt lat="45.17993" lon="5.91584">
        <ele>1510.3</ele>
        <time>2021-02-20T15:04:15Z</time>
      </trkpt>
      <trkpt lat="45.17995" lon="5.91583">
        <ele>1510</ele>
        <time>2021-02-20T15:04:16Z</time>
      </trkpt>
      <trkpt lat="45.17996" lon="5.91583">
        <ele>1509.7</ele>
        <time>2021-02-20T15:04:17Z</time>
      </trkpt>
      <trkpt lat="45.17998" lon="5.91582">
        <ele>1509.4</ele>
        <time>2021-02-20T15:04:18Z</time>
      </trkpt>
      <trkpt lat="45.17999" lon="5.91582">
        <ele>1509.3</ele>
        <time>2021-02-20T15:04:19Z</time>
      </trkpt>
      <trkpt lat="45.18" lon="5.91581">
        <ele>1509.2</ele>
        <time>2021-02-20T15:04:20Z</time>
      </trkpt>
      <trkpt lat="45.18001" lon="5.91581">
        <ele>1509</ele>
        <time>2021-02-20T15:04:21Z</time>
      </trkpt>
      <trkpt lat="45.18003" lon="5.91581">
        <ele>1508.8</ele>
        <time>2021-02-20T15:04:22Z</time>
      </trkpt>
      <trkpt lat="45.18004" lon="5.9158">
        <ele>1508.6</ele>
        <time>2021-02-20T15:04:23Z</time>
      </trkpt>
      <trkpt lat="45.18006" lon="5.9158">
        <ele>1508.4</ele>
        <time>2021-02-20T15:04:24Z</time>
      </trkpt>
      <trkpt lat="45.18008" lon="5.9158">
        <ele>1508.1</ele>
        <time>2021-02-20T15:04:25Z</time>
      </trkpt>
      <trkpt lat="45.18009" lon="5.9158">
        <ele>1507.9</ele>
        <time>2021-02-20T15:04:26Z</time>
      </trkpt>
      <trkpt lat="45.18011" lon="5.9158">
        <ele>1507.7</ele>
        <time>2021-02-20T15:04:27Z</time>
      </trkpt>
      <trkpt lat="45.18012" lon="5.91579">
        <ele>1507.6</ele>
        <time>2021-02-20T15:04:28Z</time>
      </trkpt>
      <trkpt lat="45.18014" lon="5.91579">
        <ele>1507.4</ele>
        <time>2021-02-20T15:04:29Z</time>
      </trkpt>
      <trkpt lat="45.18016" lon="5.91579">
        <ele>1507.2</ele>
        <time>2021-02-20T15:04:30Z</time>
      </trkpt>
      <trkpt lat="45.18018" lon="5.9158">
        <ele>1507</ele>
        <time>2021-02-20T15:04:31Z</time>
      </trkpt>
      <trkpt lat="45.18019" lon="5.9158">
        <ele>1507</ele>
        <time>2021-02-20T15:04:32Z</time>
      </trkpt>
      <trkpt lat="45.1802" lon="5.9158">
        <ele>1506.9</ele>
        <time>2021-02-20T15:04:33Z</time>
      </trkpt>
      <trkpt lat="45.18021" lon="5.9158">
        <ele>1506.8</ele>
        <time>2021-02-20T15:04:34Z</time>
      </trkpt>
      <trkpt lat="45.18023" lon="5.91581">
        <ele>1506.7</ele>
        <time>2021-02-20T15:04:35Z</time>
      </trkpt>
      <trkpt lat="45.18025" lon="5.91581">
        <ele>1506.6</ele>
        <time>2021-02-20T15:04:36Z</time>
      </trkpt>
      <trkpt lat="45.18026" lon="5.91582">
        <ele>1506.5</ele>
        <time>2021-02-20T15:04:37Z</time>
      </trkpt>
      <trkpt lat="45.18028" lon="5.91582">
        <ele>1506.4</ele>
        <time>2021-02-20T15:04:38Z</time>
      </trkpt>
      <trkpt lat="45.18029" lon="5.91583">
        <ele>1506.3</ele>
        <time>2021-02-20T15:04:39Z</time>
      </trkpt>
      <trkpt lat="45.18031" lon="5.91583">
        <ele>1506.2</ele>
        <time>2021-02-20T15:04:40Z</time>
      </trkpt>
      <trkpt lat="45.18032" lon="5.91583">
        <ele>1506.1</ele>
        <time>2021-02-20T15:04:41Z</time>
      </trkpt>
      <trkpt lat="45.18034" lon="5.91583">
        <ele>1506.1</ele>
        <time>2021-02-20T15:04:42Z</time>
      </trkpt>
      <trkpt lat="45.18035" lon="5.91583">
        <ele>1506</ele>
        <time>2021-02-20T15:04:43Z</time>
      </trkpt>
      <trkpt lat="45.18036" lon="5.91583">
        <ele>1505.9</ele>
        <time>2021-02-20T15:04:44Z</time>
      </trkpt>
      <trkpt lat="45.18038" lon="5.91583">
        <ele>1505.8</ele>
        <time>2021-02-20T15:04:45Z</time>
      </trkpt>
      <trkpt lat="45.18039" lon="5.91584">
        <ele>1505.7</ele>
        <time>2021-02-20T15:04:46Z</time>
      </trkpt>
      <trkpt lat="45.1804" lon="5.91584">
        <ele>1505.7</ele>
        <time>2021-02-20T15:04:47Z</time>
      </trkpt>
      <trkpt lat="45.18041" lon="5.91584">
        <ele>1505.6</ele>
        <time>2021-02-20T15:04:48Z</time>
      </trkpt>
      <trkpt lat="45.18043" lon="5.91584">
        <ele>1505.5</ele>
        <time>2021-02-20T15:04:49Z</time>
      </trkpt>
      <trkpt lat="45.18044" lon="5.91584">
        <ele>1505.4</ele>
        <time>2021-02-20T15:04:50Z</time>
      </trkpt>
      <trkpt lat="45.18045" lon="5.91584">
        <ele>1505.4</ele>
        <time>2021-02-20T15:04:51Z</time>
      </trkpt>
      <trkpt lat="45.18047" lon="5.91584">
        <ele>1505.3</ele>
        <time>2021-02-20T15:04:52Z</time>
      </trkpt>
      <trkpt lat="45.18048" lon="5.91585">
        <ele>1505.2</ele>
        <time>2021-02-20T15:04:53Z</time>
      </trkpt>
      <trkpt lat="45.18051" lon="5.91584">
        <ele>1505</ele>
        <time>2021-02-20T15:04:54Z</time>
      </trkpt>
      <trkpt lat="45.18052" lon="5.91584">
        <ele>1505</ele>
        <time>2021-02-20T15:04:55Z</time>
      </trkpt>
      <trkpt lat="45.18053" lon="5.91584">
        <ele>1504.9</ele>
        <time>2021-02-20T15:04:56Z</time>
      </trkpt>
      <trkpt lat="45.18054" lon="5.91584">
        <ele>1504.8</ele>
        <time>2021-02-20T15:04:57Z</time>
      </trkpt>
      <trkpt lat="45.18055" lon="5.91584">
        <ele>1504.8</ele>
        <time>2021-02-20T15:04:58Z</time>
      </trkpt>
      <trkpt lat="45.18057" lon="5.91583">
        <ele>1504.7</ele>
        <time>2021-02-20T15:04:59Z</time>
      </trkpt>
      <trkpt lat="45.18058" lon="5.91583">
        <ele>1504.6</ele>
        <time>2021-02-20T15:05:00Z</time>
      </trkpt>
      <trkpt lat="45.1806" lon="5.91583">
        <ele>1504.5</ele>
        <time>2021-02-20T15:05:01Z</time>
      </trkpt>
      <trkpt lat="45.18061" lon="5.91582">
        <ele>1504.4</ele>
        <time>2021-02-20T15:05:02Z</time>
      </trkpt>
      <trkpt lat="45.18062" lon="5.91582">
        <ele>1504.3</ele>
        <time>2021-02-20T15:05:03Z</time>
      </trkpt>
      <trkpt lat="45.18063" lon="5.91582">
        <ele>1504.2</ele>
        <time>2021-02-20T15:05:04Z</time>
      </trkpt>
      <trkpt lat="45.18065" lon="5.91582">
        <ele>1504.1</ele>
        <time>2021-02-20T15:05:05Z</time>
      </trkpt>
      <trkpt lat="45.18068" lon="5.91582">
        <ele>1504</ele>
        <time>2021-02-20T15:05:06Z</time>
      </trkpt>
      <trkpt lat="45.18069" lon="5.91582">
        <ele>1503.9</ele>
        <time>2021-02-20T15:05:07Z</time>
      </trkpt>
      <trkpt lat="45.18072" lon="5.91581">
        <ele>1503.7</ele>
        <time>2021-02-20T15:05:08Z</time>
      </trkpt>
      <trkpt lat="45.18073" lon="5.9158">
        <ele>1503.6</ele>
        <time>2021-02-20T15:05:09Z</time>
      </trkpt>
      <trkpt lat="45.18075" lon="5.91579">
        <ele>1503.5</ele>
        <time>2021-02-20T15:05:10Z</time>
      </trkpt>
      <trkpt lat="45.18076" lon="5.91578">
        <ele>1503.4</ele>
        <time>2021-02-20T15:05:11Z</time>
      </trkpt>
      <trkpt lat="45.18078" lon="5.91578">
        <ele>1503.2</ele>
        <time>2021-02-20T15:05:12Z</time>
      </trkpt>
      <trkpt lat="45.18079" lon="5.91578">
        <ele>1503.2</ele>
        <time>2021-02-20T15:05:13Z</time>
      </trkpt>
      <trkpt lat="45.18079" lon="5.91578">
        <ele>1503.1</ele>
        <time>2021-02-20T15:05:14Z</time>
      </trkpt>
      <trkpt lat="45.18081" lon="5.91577">
        <ele>1503</ele>
        <time>2021-02-20T15:05:15Z</time>
      </trkpt>
      <trkpt lat="45.18082" lon="5.91576">
        <ele>1503</ele>
        <time>2021-02-20T15:05:16Z</time>
      </trkpt>
      <trkpt lat="45.18083" lon="5.91575">
        <ele>1502.9</ele>
        <time>2021-02-20T15:05:17Z</time>
      </trkpt>
      <trkpt lat="45.18083" lon="5.91574">
        <ele>1502.8</ele>
        <time>2021-02-20T15:05:18Z</time>
      </trkpt>
      <trkpt lat="45.18084" lon="5.91574">
        <ele>1502.7</ele>
        <time>2021-02-20T15:05:19Z</time>
      </trkpt>
      <trkpt lat="45.18085" lon="5.91573">
        <ele>1502.7</ele>
        <time>2021-02-20T15:05:20Z</time>
      </trkpt>
      <trkpt lat="45.18086" lon="5.91573">
        <ele>1502.6</ele>
        <time>2021-02-20T15:05:21Z</time>
      </trkpt>
      <trkpt lat="45.18087" lon="5.91572">
        <ele>1502.5</ele>
        <time>2021-02-20T15:05:22Z</time>
      </trkpt>
      <trkpt lat="45.18088" lon="5.91573">
        <ele>1502.4</ele>
        <time>2021-02-20T15:05:23Z</time>
      </trkpt>
      <trkpt lat="45.18088" lon="5.91573">
        <ele>1502.4</ele>
        <time>2021-02-20T15:05:24Z</time>
      </trkpt>
      <trkpt lat="45.18089" lon="5.91573">
        <ele>1502.3</ele>
        <time>2021-02-20T15:05:25Z</time>
      </trkpt>
      <trkpt lat="45.1809" lon="5.91572">
        <ele>1502.3</ele>
        <time>2021-02-20T15:05:26Z</time>
      </trkpt>
      <trkpt lat="45.18091" lon="5.91571">
        <ele>1502.2</ele>
        <time>2021-02-20T15:05:27Z</time>
      </trkpt>
      <trkpt lat="45.18093" lon="5.91571">
        <ele>1502</ele>
        <time>2021-02-20T15:05:28Z</time>
      </trkpt>
      <trkpt lat="45.18094" lon="5.91571">
        <ele>1501.9</ele>
        <time>2021-02-20T15:05:29Z</time>
      </trkpt>
      <trkpt lat="45.18095" lon="5.91571">
        <ele>1501.9</ele>
        <time>2021-02-20T15:05:30Z</time>
      </trkpt>
      <trkpt lat="45.18096" lon="5.91571">
        <ele>1501.7</ele>
        <time>2021-02-20T15:05:31Z</time>
      </trkpt>
      <trkpt lat="45.18097" lon="5.9157">
        <ele>1501.6</ele>
        <time>2021-02-20T15:05:32Z</time>
      </trkpt>
      <trkpt lat="45.18098" lon="5.9157">
        <ele>1501.6</ele>
        <time>2021-02-20T15:05:33Z</time>
      </trkpt>
      <trkpt lat="45.18098" lon="5.91569">
        <ele>1501.5</ele>
        <time>2021-02-20T15:05:34Z</time>
      </trkpt>
      <trkpt lat="45.18102" lon="5.91568">
        <ele>1501.2</ele>
        <time>2021-02-20T15:05:35Z</time>
      </trkpt>
      <trkpt lat="45.18103" lon="5.91568">
        <ele>1501.1</ele>
        <time>2021-02-20T15:05:36Z</time>
      </trkpt>
      <trkpt lat="45.18105" lon="5.91568">
        <ele>1500.9</ele>
        <time>2021-02-20T15:05:37Z</time>
      </trkpt>
      <trkpt lat="45.18106" lon="5.91567">
        <ele>1500.7</ele>
        <time>2021-02-20T15:05:38Z</time>
      </trkpt>
      <trkpt lat="45.18108" lon="5.91567">
        <ele>1500.5</ele>
        <time>2021-02-20T15:05:39Z</time>
      </trkpt>
      <trkpt lat="45.18109" lon="5.91566">
        <ele>1500.3</ele>
        <time>2021-02-20T15:05:40Z</time>
      </trkpt>
      <trkpt lat="45.18112" lon="5.91565">
        <ele>1500</ele>
        <time>2021-02-20T15:05:41Z</time>
      </trkpt>
      <trkpt lat="45.18113" lon="5.91564">
        <ele>1499.9</ele>
        <time>2021-02-20T15:05:42Z</time>
      </trkpt>
      <trkpt lat="45.18116" lon="5.91563">
        <ele>1499.5</ele>
        <time>2021-02-20T15:05:43Z</time>
      </trkpt>
      <trkpt lat="45.18117" lon="5.91563">
        <ele>1499.4</ele>
        <time>2021-02-20T15:05:44Z</time>
      </trkpt>
      <trkpt lat="45.18119" lon="5.91561">
        <ele>1499.2</ele>
        <time>2021-02-20T15:05:45Z</time>
      </trkpt>
      <trkpt lat="45.1812" lon="5.91561">
        <ele>1499.1</ele>
        <time>2021-02-20T15:05:46Z</time>
      </trkpt>
      <trkpt lat="45.1812" lon="5.9156">
        <ele>1499</ele>
        <time>2021-02-20T15:05:47Z</time>
      </trkpt>
      <trkpt lat="45.18121" lon="5.91558">
        <ele>1498.7</ele>
        <time>2021-02-20T15:05:48Z</time>
      </trkpt>
      <trkpt lat="45.18122" lon="5.91556">
        <ele>1498.5</ele>
        <time>2021-02-20T15:05:49Z</time>
      </trkpt>
      <trkpt lat="45.18123" lon="5.91554">
        <ele>1498.3</ele>
        <time>2021-02-20T15:05:50Z</time>
      </trkpt>
      <trkpt lat="45.18124" lon="5.91553">
        <ele>1498.2</ele>
        <time>2021-02-20T15:05:51Z</time>
      </trkpt>
      <trkpt lat="45.18125" lon="5.91552">
        <ele>1498</ele>
        <time>2021-02-20T15:05:52Z</time>
      </trkpt>
      <trkpt lat="45.18127" lon="5.91551">
        <ele>1497.8</ele>
        <time>2021-02-20T15:05:53Z</time>
      </trkpt>
      <trkpt lat="45.18128" lon="5.9155">
        <ele>1497.6</ele>
        <time>2021-02-20T15:05:54Z</time>
      </trkpt>
      <trkpt lat="45.18129" lon="5.91548">
        <ele>1497.4</ele>
        <time>2021-02-20T15:05:55Z</time>
      </trkpt>
      <trkpt lat="45.18129" lon="5.91547">
        <ele>1497.3</ele>
        <time>2021-02-20T15:05:56Z</time>
      </trkpt>
      <trkpt lat="45.18129" lon="5.91545">
        <ele>1497.1</ele>
        <time>2021-02-20T15:05:57Z</time>
      </trkpt>
      <trkpt lat="45.1813" lon="5.91541">
        <ele>1496.8</ele>
        <time>2021-02-20T15:05:58Z</time>
      </trkpt>
      <trkpt lat="45.1813" lon="5.91539">
        <ele>1496.7</ele>
        <time>2021-02-20T15:05:59Z</time>
      </trkpt>
      <trkpt lat="45.1813" lon="5.91535">
        <ele>1496.4</ele>
        <time>2021-02-20T15:06:00Z</time>
      </trkpt>
      <trkpt lat="45.1813" lon="5.91534">
        <ele>1496.3</ele>
        <time>2021-02-20T15:06:01Z</time>
      </trkpt>
      <trkpt lat="45.18131" lon="5.9153">
        <ele>1496</ele>
        <time>2021-02-20T15:06:02Z</time>
      </trkpt>
      <trkpt lat="45.18131" lon="5.91528">
        <ele>1495.9</ele>
        <time>2021-02-20T15:06:03Z</time>
      </trkpt>
      <trkpt lat="45.18131" lon="5.91526">
        <ele>1495.8</ele>
        <time>2021-02-20T15:06:04Z</time>
      </trkpt>
      <trkpt lat="45.18131" lon="5.91524">
        <ele>1495.6</ele>
        <time>2021-02-20T15:06:05Z</time>
      </trkpt>
      <trkpt lat="45.18131" lon="5.9152">
        <ele>1495.4</ele>
        <time>2021-02-20T15:06:06Z</time>
      </trkpt>
      <trkpt lat="45.18131" lon="5.91519">
        <ele>1495.3</ele>
        <time>2021-02-20T15:06:07Z</time>
      </trkpt>
      <trkpt lat="45.1813" lon="5.91516">
        <ele>1495.2</ele>
        <time>2021-02-20T15:06:08Z</time>
      </trkpt>
      <trkpt lat="45.1813" lon="5.91514">
        <ele>1495.1</ele>
        <time>2021-02-20T15:06:09Z</time>
      </trkpt>
      <trkpt lat="45.18129" lon="5.91512">
        <ele>1495</ele>
        <time>2021-02-20T15:06:10Z</time>
      </trkpt>
      <trkpt lat="45.18129" lon="5.91511">
        <ele>1494.9</ele>
        <time>2021-02-20T15:06:11Z</time>
      </trkpt>
      <trkpt lat="45.18128" lon="5.91508">
        <ele>1494.8</ele>
        <time>2021-02-20T15:06:12Z</time>
      </trkpt>
      <trkpt lat="45.18128" lon="5.91506">
        <ele>1494.7</ele>
        <time>2021-02-20T15:06:13Z</time>
      </trkpt>
      <trkpt lat="45.18128" lon="5.91505">
        <ele>1494.7</ele>
        <time>2021-02-20T15:06:14Z</time>
      </trkpt>
      <trkpt lat="45.18127" lon="5.91502">
        <ele>1494.5</ele>
        <time>2021-02-20T15:06:15Z</time>
      </trkpt>
      <trkpt lat="45.18126" lon="5.91501">
        <ele>1494.4</ele>
        <time>2021-02-20T15:06:16Z</time>
      </trkpt>
      <trkpt lat="45.18125" lon="5.915">
        <ele>1494.3</ele>
        <time>2021-02-20T15:06:17Z</time>
      </trkpt>
      <trkpt lat="45.18125" lon="5.91498">
        <ele>1494.2</ele>
        <time>2021-02-20T15:06:18Z</time>
      </trkpt>
      <trkpt lat="45.18124" lon="5.91496">
        <ele>1494.1</ele>
        <time>2021-02-20T15:06:19Z</time>
      </trkpt>
      <trkpt lat="45.18124" lon="5.91495">
        <ele>1494.1</ele>
        <time>2021-02-20T15:06:20Z</time>
      </trkpt>
      <trkpt lat="45.18123" lon="5.91494">
        <ele>1494</ele>
        <time>2021-02-20T15:06:21Z</time>
      </trkpt>
      <trkpt lat="45.18122" lon="5.91492">
        <ele>1493.9</ele>
        <time>2021-02-20T15:06:22Z</time>
      </trkpt>
      <trkpt lat="45.18122" lon="5.9149">
        <ele>1493.7</ele>
        <time>2021-02-20T15:06:23Z</time>
      </trkpt>
      <trkpt lat="45.18121" lon="5.91488">
        <ele>1493.5</ele>
        <time>2021-02-20T15:06:24Z</time>
      </trkpt>
      <trkpt lat="45.1812" lon="5.91484">
        <ele>1493.2</ele>
        <time>2021-02-20T15:06:25Z</time>
      </trkpt>
      <trkpt lat="45.1812" lon="5.91482">
        <ele>1493.1</ele>
        <time>2021-02-20T15:06:26Z</time>
      </trkpt>
      <trkpt lat="45.1812" lon="5.9148">
        <ele>1492.9</ele>
        <time>2021-02-20T15:06:27Z</time>
      </trkpt>
      <trkpt lat="45.1812" lon="5.91477">
        <ele>1492.7</ele>
        <time>2021-02-20T15:06:28Z</time>
      </trkpt>
      <trkpt lat="45.1812" lon="5.91475">
        <ele>1492.5</ele>
        <time>2021-02-20T15:06:29Z</time>
      </trkpt>
      <trkpt lat="45.1812" lon="5.91473">
        <ele>1492.3</ele>
        <time>2021-02-20T15:06:30Z</time>
      </trkpt>
      <trkpt lat="45.18121" lon="5.91471">
        <ele>1492.1</ele>
        <time>2021-02-20T15:06:31Z</time>
      </trkpt>
      <trkpt lat="45.18122" lon="5.91469">
        <ele>1491.9</ele>
        <time>2021-02-20T15:06:32Z</time>
      </trkpt>
      <trkpt lat="45.18122" lon="5.91467">
        <ele>1491.6</ele>
        <time>2021-02-20T15:06:33Z</time>
      </trkpt>
      <trkpt lat="45.18123" lon="5.91465">
        <ele>1491.4</ele>
        <time>2021-02-20T15:06:34Z</time>
      </trkpt>
      <trkpt lat="45.18124" lon="5.91463">
        <ele>1491.1</ele>
        <time>2021-02-20T15:06:35Z</time>
      </trkpt>
      <trkpt lat="45.18126" lon="5.91462">
        <ele>1490.8</ele>
        <time>2021-02-20T15:06:36Z</time>
      </trkpt>
      <trkpt lat="45.18127" lon="5.91461">
        <ele>1490.5</ele>
        <time>2021-02-20T15:06:37Z</time>
      </trkpt>
      <trkpt lat="45.18129" lon="5.9146">
        <ele>1490.3</ele>
        <time>2021-02-20T15:06:38Z</time>
      </trkpt>
      <trkpt lat="45.1813" lon="5.91459">
        <ele>1490</ele>
        <time>2021-02-20T15:06:39Z</time>
      </trkpt>
      <trkpt lat="45.18131" lon="5.91459">
        <ele>1489.7</ele>
        <time>2021-02-20T15:06:40Z</time>
      </trkpt>
      <trkpt lat="45.18133" lon="5.91458">
        <ele>1489.4</ele>
        <time>2021-02-20T15:06:41Z</time>
      </trkpt>
      <trkpt lat="45.18134" lon="5.91457">
        <ele>1489.1</ele>
        <time>2021-02-20T15:06:42Z</time>
      </trkpt>
      <trkpt lat="45.18136" lon="5.91456">
        <ele>1488.7</ele>
        <time>2021-02-20T15:06:43Z</time>
      </trkpt>
      <trkpt lat="45.18137" lon="5.91456">
        <ele>1488.4</ele>
        <time>2021-02-20T15:06:44Z</time>
      </trkpt>
      <trkpt lat="45.18139" lon="5.91456">
        <ele>1488</ele>
        <time>2021-02-20T15:06:45Z</time>
      </trkpt>
      <trkpt lat="45.1814" lon="5.91455">
        <ele>1487.7</ele>
        <time>2021-02-20T15:06:46Z</time>
      </trkpt>
      <trkpt lat="45.18142" lon="5.91455">
        <ele>1487.3</ele>
        <time>2021-02-20T15:06:47Z</time>
      </trkpt>
      <trkpt lat="45.18143" lon="5.91455">
        <ele>1487</ele>
        <time>2021-02-20T15:06:48Z</time>
      </trkpt>
      <trkpt lat="45.18145" lon="5.91454">
        <ele>1486.6</ele>
        <time>2021-02-20T15:06:49Z</time>
      </trkpt>
      <trkpt lat="45.18146" lon="5.91453">
        <ele>1486.3</ele>
        <time>2021-02-20T15:06:50Z</time>
      </trkpt>
      <trkpt lat="45.18148" lon="5.91452">
        <ele>1485.8</ele>
        <time>2021-02-20T15:06:51Z</time>
      </trkpt>
      <trkpt lat="45.18149" lon="5.91451">
        <ele>1485.5</ele>
        <time>2021-02-20T15:06:52Z</time>
      </trkpt>
      <trkpt lat="45.18151" lon="5.91451">
        <ele>1485.1</ele>
        <time>2021-02-20T15:06:53Z</time>
      </trkpt>
      <trkpt lat="45.18153" lon="5.9145">
        <ele>1484.7</ele>
        <time>2021-02-20T15:06:54Z</time>
      </trkpt>
      <trkpt lat="45.18154" lon="5.91449">
        <ele>1484.4</ele>
        <time>2021-02-20T15:06:55Z</time>
      </trkpt>
      <trkpt lat="45.18156" lon="5.91449">
        <ele>1484.1</ele>
        <time>2021-02-20T15:06:56Z</time>
      </trkpt>
      <trkpt lat="45.18157" lon="5.91448">
        <ele>1483.7</ele>
        <time>2021-02-20T15:06:57Z</time>
      </trkpt>
      <trkpt lat="45.18159" lon="5.91447">
        <ele>1483.4</ele>
        <time>2021-02-20T15:06:58Z</time>
      </trkpt>
      <trkpt lat="45.1816" lon="5.91446">
        <ele>1483.1</ele>
        <time>2021-02-20T15:06:59Z</time>
      </trkpt>
      <trkpt lat="45.18162" lon="5.91445">
        <ele>1482.7</ele>
        <time>2021-02-20T15:07:00Z</time>
      </trkpt>
      <trkpt lat="45.18163" lon="5.91443">
        <ele>1482.5</ele>
        <time>2021-02-20T15:07:01Z</time>
      </trkpt>
      <trkpt lat="45.18165" lon="5.91442">
        <ele>1482.1</ele>
        <time>2021-02-20T15:07:02Z</time>
      </trkpt>
      <trkpt lat="45.18166" lon="5.91442">
        <ele>1481.9</ele>
        <time>2021-02-20T15:07:03Z</time>
      </trkpt>
      <trkpt lat="45.18168" lon="5.91442">
        <ele>1481.6</ele>
        <time>2021-02-20T15:07:04Z</time>
      </trkpt>
      <trkpt lat="45.18171" lon="5.91442">
        <ele>1481.1</ele>
        <time>2021-02-20T15:07:05Z</time>
      </trkpt>
      <trkpt lat="45.18172" lon="5.91442">
        <ele>1481</ele>
        <time>2021-02-20T15:07:06Z</time>
      </trkpt>
      <trkpt lat="45.18175" lon="5.91442">
        <ele>1480.5</ele>
        <time>2021-02-20T15:07:07Z</time>
      </trkpt>
      <trkpt lat="45.18177" lon="5.91442">
        <ele>1480.3</ele>
        <time>2021-02-20T15:07:08Z</time>
      </trkpt>
      <trkpt lat="45.1818" lon="5.91444">
        <ele>1479.7</ele>
        <time>2021-02-20T15:07:09Z</time>
      </trkpt>
      <trkpt lat="45.18181" lon="5.91444">
        <ele>1479.6</ele>
        <time>2021-02-20T15:07:10Z</time>
      </trkpt>
      <trkpt lat="45.18182" lon="5.91446">
        <ele>1479.3</ele>
        <time>2021-02-20T15:07:11Z</time>
      </trkpt>
      <trkpt lat="45.18183" lon="5.91447">
        <ele>1479.1</ele>
        <time>2021-02-20T15:07:12Z</time>
      </trkpt>
      <trkpt lat="45.18185" lon="5.91447">
        <ele>1478.9</ele>
        <time>2021-02-20T15:07:13Z</time>
      </trkpt>
      <trkpt lat="45.18186" lon="5.91448">
        <ele>1478.7</ele>
        <time>2021-02-20T15:07:14Z</time>
      </trkpt>
      <trkpt lat="45.18188" lon="5.91447">
        <ele>1478.3</ele>
        <time>2021-02-20T15:07:15Z</time>
      </trkpt>
      <trkpt lat="45.18189" lon="5.91447">
        <ele>1478.1</ele>
        <time>2021-02-20T15:07:16Z</time>
      </trkpt>
      <trkpt lat="45.1819" lon="5.91447">
        <ele>1477.9</ele>
        <time>2021-02-20T15:07:17Z</time>
      </trkpt>
      <trkpt lat="45.18192" lon="5.91447">
        <ele>1477.6</ele>
        <time>2021-02-20T15:07:18Z</time>
      </trkpt>
      <trkpt lat="45.18193" lon="5.91447">
        <ele>1477.5</ele>
        <time>2021-02-20T15:07:19Z</time>
      </trkpt>
      <trkpt lat="45.18194" lon="5.91446">
        <ele>1477.3</ele>
        <time>2021-02-20T15:07:20Z</time>
      </trkpt>
      <trkpt lat="45.18194" lon="5.91444">
        <ele>1477</ele>
        <time>2021-02-20T15:07:21Z</time>
      </trkpt>
      <trkpt lat="45.18195" lon="5.91443">
        <ele>1476.8</ele>
        <time>2021-02-20T15:07:22Z</time>
      </trkpt>
      <trkpt lat="45.18196" lon="5.91441">
        <ele>1476.6</ele>
        <time>2021-02-20T15:07:23Z</time>
      </trkpt>
      <trkpt lat="45.18197" lon="5.9144">
        <ele>1476.2</ele>
        <time>2021-02-20T15:07:24Z</time>
      </trkpt>
      <trkpt lat="45.18199" lon="5.91437">
        <ele>1475.7</ele>
        <time>2021-02-20T15:07:25Z</time>
      </trkpt>
      <trkpt lat="45.182" lon="5.91436">
        <ele>1475.5</ele>
        <time>2021-02-20T15:07:26Z</time>
      </trkpt>
      <trkpt lat="45.18202" lon="5.91433">
        <ele>1474.9</ele>
        <time>2021-02-20T15:07:27Z</time>
      </trkpt>
      <trkpt lat="45.18203" lon="5.91432">
        <ele>1474.7</ele>
        <time>2021-02-20T15:07:28Z</time>
      </trkpt>
      <trkpt lat="45.18205" lon="5.91429">
        <ele>1474.1</ele>
        <time>2021-02-20T15:07:29Z</time>
      </trkpt>
      <trkpt lat="45.18206" lon="5.91428">
        <ele>1473.9</ele>
        <time>2021-02-20T15:07:30Z</time>
      </trkpt>
      <trkpt lat="45.18208" lon="5.91426">
        <ele>1473.3</ele>
        <time>2021-02-20T15:07:31Z</time>
      </trkpt>
      <trkpt lat="45.18209" lon="5.91425">
        <ele>1473.1</ele>
        <time>2021-02-20T15:07:32Z</time>
      </trkpt>
      <trkpt lat="45.1821" lon="5.91424">
        <ele>1472.7</ele>
        <time>2021-02-20T15:07:33Z</time>
      </trkpt>
      <trkpt lat="45.18212" lon="5.91423">
        <ele>1472.4</ele>
        <time>2021-02-20T15:07:34Z</time>
      </trkpt>
      <trkpt lat="45.18213" lon="5.91423">
        <ele>1472.1</ele>
        <time>2021-02-20T15:07:35Z</time>
      </trkpt>
      <trkpt lat="45.18215" lon="5.91423">
        <ele>1471.8</ele>
        <time>2021-02-20T15:07:36Z</time>
      </trkpt>
      <trkpt lat="45.18216" lon="5.91422">
        <ele>1471.5</ele>
        <time>2021-02-20T15:07:37Z</time>
      </trkpt>
      <trkpt lat="45.18218" lon="5.91422">
        <ele>1471.2</ele>
        <time>2021-02-20T15:07:38Z</time>
      </trkpt>
      <trkpt lat="45.1822" lon="5.91422">
        <ele>1470.8</ele>
        <time>2021-02-20T15:07:39Z</time>
      </trkpt>
      <trkpt lat="45.18221" lon="5.91421">
        <ele>1470.6</ele>
        <time>2021-02-20T15:07:40Z</time>
      </trkpt>
      <trkpt lat="45.18222" lon="5.91421">
        <ele>1470.4</ele>
        <time>2021-02-20T15:07:41Z</time>
      </trkpt>
      <trkpt lat="45.18223" lon="5.9142">
        <ele>1470</ele>
        <time>2021-02-20T15:07:42Z</time>
      </trkpt>
      <trkpt lat="45.18224" lon="5.9142">
        <ele>1469.9</ele>
        <time>2021-02-20T15:07:43Z</time>
      </trkpt>
      <trkpt lat="45.18225" lon="5.9142">
        <ele>1469.7</ele>
        <time>2021-02-20T15:07:44Z</time>
      </trkpt>
      <trkpt lat="45.18226" lon="5.91419">
        <ele>1469.5</ele>
        <time>2021-02-20T15:07:45Z</time>
      </trkpt>
      <trkpt lat="45.18227" lon="5.91419">
        <ele>1469.2</ele>
        <time>2021-02-20T15:07:46Z</time>
      </trkpt>
      <trkpt lat="45.18229" lon="5.91418">
        <ele>1468.9</ele>
        <time>2021-02-20T15:07:47Z</time>
      </trkpt>
      <trkpt lat="45.1823" lon="5.91416">
        <ele>1468.5</ele>
        <time>2021-02-20T15:07:48Z</time>
      </trkpt>
      <trkpt lat="45.18231" lon="5.91416">
        <ele>1468.3</ele>
        <time>2021-02-20T15:07:49Z</time>
      </trkpt>
      <trkpt lat="45.18232" lon="5.91415">
        <ele>1468.1</ele>
        <time>2021-02-20T15:07:50Z</time>
      </trkpt>
      <trkpt lat="45.18234" lon="5.91414">
        <ele>1467.6</ele>
        <time>2021-02-20T15:07:51Z</time>
      </trkpt>
      <trkpt lat="45.18235" lon="5.91414">
        <ele>1467.4</ele>
        <time>2021-02-20T15:07:52Z</time>
      </trkpt>
      <trkpt lat="45.18236" lon="5.91413">
        <ele>1467.2</ele>
        <time>2021-02-20T15:07:53Z</time>
      </trkpt>
      <trkpt lat="45.18238" lon="5.91412">
        <ele>1466.8</ele>
        <time>2021-02-20T15:07:54Z</time>
      </trkpt>
      <trkpt lat="45.18239" lon="5.91412">
        <ele>1466.6</ele>
        <time>2021-02-20T15:07:55Z</time>
      </trkpt>
      <trkpt lat="45.18239" lon="5.91412">
        <ele>1466.4</ele>
        <time>2021-02-20T15:07:56Z</time>
      </trkpt>
      <trkpt lat="45.18241" lon="5.9141">
        <ele>1466.1</ele>
        <time>2021-02-20T15:07:57Z</time>
      </trkpt>
      <trkpt lat="45.18242" lon="5.91409">
        <ele>1465.8</ele>
        <time>2021-02-20T15:07:58Z</time>
      </trkpt>
      <trkpt lat="45.18242" lon="5.91408">
        <ele>1465.6</ele>
        <time>2021-02-20T15:07:59Z</time>
      </trkpt>
      <trkpt lat="45.18244" lon="5.91407">
        <ele>1465.2</ele>
        <time>2021-02-20T15:08:00Z</time>
      </trkpt>
      <trkpt lat="45.18246" lon="5.91406">
        <ele>1464.8</ele>
        <time>2021-02-20T15:08:01Z</time>
      </trkpt>
      <trkpt lat="45.18247" lon="5.91405">
        <ele>1464.5</ele>
        <time>2021-02-20T15:08:02Z</time>
      </trkpt>
      <trkpt lat="45.18249" lon="5.91405">
        <ele>1464</ele>
        <time>2021-02-20T15:08:03Z</time>
      </trkpt>
      <trkpt lat="45.1825" lon="5.91405">
        <ele>1463.8</ele>
        <time>2021-02-20T15:08:04Z</time>
      </trkpt>
      <trkpt lat="45.18251" lon="5.91405">
        <ele>1463.6</ele>
        <time>2021-02-20T15:08:05Z</time>
      </trkpt>
      <trkpt lat="45.18253" lon="5.91405">
        <ele>1463.3</ele>
        <time>2021-02-20T15:08:06Z</time>
      </trkpt>
      <trkpt lat="45.18254" lon="5.91406">
        <ele>1462.9</ele>
        <time>2021-02-20T15:08:07Z</time>
      </trkpt>
      <trkpt lat="45.18256" lon="5.91406">
        <ele>1462.6</ele>
        <time>2021-02-20T15:08:08Z</time>
      </trkpt>
      <trkpt lat="45.18258" lon="5.91406">
        <ele>1462.3</ele>
        <time>2021-02-20T15:08:09Z</time>
      </trkpt>
      <trkpt lat="45.1826" lon="5.91405">
        <ele>1461.8</ele>
        <time>2021-02-20T15:08:10Z</time>
      </trkpt>
      <trkpt lat="45.18261" lon="5.91405">
        <ele>1461.7</ele>
        <time>2021-02-20T15:08:11Z</time>
      </trkpt>
      <trkpt lat="45.18261" lon="5.91404">
        <ele>1461.5</ele>
        <time>2021-02-20T15:08:12Z</time>
      </trkpt>
      <trkpt lat="45.18263" lon="5.91404">
        <ele>1461.2</ele>
        <time>2021-02-20T15:08:13Z</time>
      </trkpt>
      <trkpt lat="45.18264" lon="5.91403">
        <ele>1460.9</ele>
        <time>2021-02-20T15:08:14Z</time>
      </trkpt>
      <trkpt lat="45.18267" lon="5.91404">
        <ele>1460.4</ele>
        <time>2021-02-20T15:08:15Z</time>
      </trkpt>
      <trkpt lat="45.18268" lon="5.91404">
        <ele>1460.1</ele>
        <time>2021-02-20T15:08:16Z</time>
      </trkpt>
      <trkpt lat="45.18271" lon="5.91404">
        <ele>1459.6</ele>
        <time>2021-02-20T15:08:17Z</time>
      </trkpt>
      <trkpt lat="45.18273" lon="5.91404">
        <ele>1459.2</ele>
        <time>2021-02-20T15:08:18Z</time>
      </trkpt>
      <trkpt lat="45.18274" lon="5.91404">
        <ele>1459</ele>
        <time>2021-02-20T15:08:19Z</time>
      </trkpt>
      <trkpt lat="45.18275" lon="5.91403">
        <ele>1458.8</ele>
        <time>2021-02-20T15:08:20Z</time>
      </trkpt>
      <trkpt lat="45.18276" lon="5.91403">
        <ele>1458.6</ele>
        <time>2021-02-20T15:08:21Z</time>
      </trkpt>
      <trkpt lat="45.18277" lon="5.91403">
        <ele>1458.4</ele>
        <time>2021-02-20T15:08:22Z</time>
      </trkpt>
      <trkpt lat="45.18279" lon="5.91403">
        <ele>1458.1</ele>
        <time>2021-02-20T15:08:23Z</time>
      </trkpt>
      <trkpt lat="45.1828" lon="5.91403">
        <ele>1457.8</ele>
        <time>2021-02-20T15:08:24Z</time>
      </trkpt>
      <trkpt lat="45.18282" lon="5.91403">
        <ele>1457.5</ele>
        <time>2021-02-20T15:08:25Z</time>
      </trkpt>
      <trkpt lat="45.18284" lon="5.91403">
        <ele>1457.1</ele>
        <time>2021-02-20T15:08:26Z</time>
      </trkpt>
      <trkpt lat="45.18287" lon="5.91404">
        <ele>1456.4</ele>
        <time>2021-02-20T15:08:27Z</time>
      </trkpt>
      <trkpt lat="45.18289" lon="5.91404">
        <ele>1456.1</ele>
        <time>2021-02-20T15:08:28Z</time>
      </trkpt>
      <trkpt lat="45.18292" lon="5.91404">
        <ele>1455.4</ele>
        <time>2021-02-20T15:08:29Z</time>
      </trkpt>
      <trkpt lat="45.18293" lon="5.91404">
        <ele>1455.2</ele>
        <time>2021-02-20T15:08:30Z</time>
      </trkpt>
      <trkpt lat="45.18295" lon="5.91404">
        <ele>1454.8</ele>
        <time>2021-02-20T15:08:31Z</time>
      </trkpt>
      <trkpt lat="45.18297" lon="5.91403">
        <ele>1454.5</ele>
        <time>2021-02-20T15:08:32Z</time>
      </trkpt>
      <trkpt lat="45.18298" lon="5.91402">
        <ele>1454.1</ele>
        <time>2021-02-20T15:08:33Z</time>
      </trkpt>
      <trkpt lat="45.18299" lon="5.91401">
        <ele>1453.8</ele>
        <time>2021-02-20T15:08:34Z</time>
      </trkpt>
      <trkpt lat="45.18301" lon="5.914">
        <ele>1453.3</ele>
        <time>2021-02-20T15:08:35Z</time>
      </trkpt>
      <trkpt lat="45.18302" lon="5.914">
        <ele>1453.1</ele>
        <time>2021-02-20T15:08:36Z</time>
      </trkpt>
      <trkpt lat="45.18303" lon="5.914">
        <ele>1453</ele>
        <time>2021-02-20T15:08:37Z</time>
      </trkpt>
      <trkpt lat="45.18304" lon="5.914">
        <ele>1452.7</ele>
        <time>2021-02-20T15:08:38Z</time>
      </trkpt>
      <trkpt lat="45.18306" lon="5.91401">
        <ele>1452.3</ele>
        <time>2021-02-20T15:08:39Z</time>
      </trkpt>
      <trkpt lat="45.18308" lon="5.91401">
        <ele>1451.9</ele>
        <time>2021-02-20T15:08:40Z</time>
      </trkpt>
      <trkpt lat="45.18309" lon="5.91401">
        <ele>1451.6</ele>
        <time>2021-02-20T15:08:41Z</time>
      </trkpt>
      <trkpt lat="45.18311" lon="5.91401">
        <ele>1451.2</ele>
        <time>2021-02-20T15:08:42Z</time>
      </trkpt>
      <trkpt lat="45.18312" lon="5.91401">
        <ele>1450.9</ele>
        <time>2021-02-20T15:08:43Z</time>
      </trkpt>
      <trkpt lat="45.18315" lon="5.91401">
        <ele>1450.3</ele>
        <time>2021-02-20T15:08:44Z</time>
      </trkpt>
      <trkpt lat="45.18315" lon="5.914">
        <ele>1450.2</ele>
        <time>2021-02-20T15:08:45Z</time>
      </trkpt>
      <trkpt lat="45.18316" lon="5.914">
        <ele>1449.9</ele>
        <time>2021-02-20T15:08:46Z</time>
      </trkpt>
      <trkpt lat="45.18318" lon="5.914">
        <ele>1449.4</ele>
        <time>2021-02-20T15:08:47Z</time>
      </trkpt>
      <trkpt lat="45.18319" lon="5.914">
        <ele>1449.2</ele>
        <time>2021-02-20T15:08:48Z</time>
      </trkpt>
      <trkpt lat="45.1832" lon="5.914">
        <ele>1449</ele>
        <time>2021-02-20T15:08:49Z</time>
      </trkpt>
      <trkpt lat="45.18322" lon="5.91399">
        <ele>1448.7</ele>
        <time>2021-02-20T15:08:50Z</time>
      </trkpt>
      <trkpt lat="45.18323" lon="5.91399">
        <ele>1448.4</ele>
        <time>2021-02-20T15:08:51Z</time>
      </trkpt>
      <trkpt lat="45.18326" lon="5.91398">
        <ele>1447.8</ele>
        <time>2021-02-20T15:08:52Z</time>
      </trkpt>
      <trkpt lat="45.18327" lon="5.91397">
        <ele>1447.6</ele>
        <time>2021-02-20T15:08:53Z</time>
      </trkpt>
      <trkpt lat="45.18329" lon="5.91396">
        <ele>1447.2</ele>
        <time>2021-02-20T15:08:54Z</time>
      </trkpt>
      <trkpt lat="45.1833" lon="5.91395">
        <ele>1446.9</ele>
        <time>2021-02-20T15:08:55Z</time>
      </trkpt>
      <trkpt lat="45.18331" lon="5.91394">
        <ele>1446.7</ele>
        <time>2021-02-20T15:08:56Z</time>
      </trkpt>
      <trkpt lat="45.18332" lon="5.91394">
        <ele>1446.5</ele>
        <time>2021-02-20T15:08:57Z</time>
      </trkpt>
      <trkpt lat="45.18333" lon="5.91393">
        <ele>1446.3</ele>
        <time>2021-02-20T15:08:58Z</time>
      </trkpt>
      <trkpt lat="45.18335" lon="5.91392">
        <ele>1445.9</ele>
        <time>2021-02-20T15:08:59Z</time>
      </trkpt>
      <trkpt lat="45.18336" lon="5.91392">
        <ele>1445.8</ele>
        <time>2021-02-20T15:09:00Z</time>
      </trkpt>
      <trkpt lat="45.18336" lon="5.91392">
        <ele>1445.6</ele>
        <time>2021-02-20T15:09:01Z</time>
      </trkpt>
      <trkpt lat="45.18338" lon="5.9139">
        <ele>1445.2</ele>
        <time>2021-02-20T15:09:02Z</time>
      </trkpt>
      <trkpt lat="45.18339" lon="5.91389">
        <ele>1444.9</ele>
        <time>2021-02-20T15:09:03Z</time>
      </trkpt>
      <trkpt lat="45.18341" lon="5.91388">
        <ele>1444.6</ele>
        <time>2021-02-20T15:09:04Z</time>
      </trkpt>
      <trkpt lat="45.18342" lon="5.91387">
        <ele>1444.3</ele>
        <time>2021-02-20T15:09:05Z</time>
      </trkpt>
      <trkpt lat="45.18344" lon="5.91386">
        <ele>1443.9</ele>
        <time>2021-02-20T15:09:06Z</time>
      </trkpt>
      <trkpt lat="45.18345" lon="5.91385">
        <ele>1443.7</ele>
        <time>2021-02-20T15:09:07Z</time>
      </trkpt>
      <trkpt lat="45.18346" lon="5.91385">
        <ele>1443.5</ele>
        <time>2021-02-20T15:09:08Z</time>
      </trkpt>
      <trkpt lat="45.18347" lon="5.91383">
        <ele>1443.2</ele>
        <time>2021-02-20T15:09:09Z</time>
      </trkpt>
      <trkpt lat="45.18348" lon="5.91381">
        <ele>1442.9</ele>
        <time>2021-02-20T15:09:10Z</time>
      </trkpt>
      <trkpt lat="45.18349" lon="5.91381">
        <ele>1442.5</ele>
        <time>2021-02-20T15:09:11Z</time>
      </trkpt>
      <trkpt lat="45.18351" lon="5.9138">
        <ele>1442.2</ele>
        <time>2021-02-20T15:09:12Z</time>
      </trkpt>
      <trkpt lat="45.18353" lon="5.9138">
        <ele>1441.8</ele>
        <time>2021-02-20T15:09:13Z</time>
      </trkpt>
      <trkpt lat="45.18354" lon="5.9138">
        <ele>1441.5</ele>
        <time>2021-02-20T15:09:14Z</time>
      </trkpt>
      <trkpt lat="45.18356" lon="5.9138">
        <ele>1441.2</ele>
        <time>2021-02-20T15:09:15Z</time>
      </trkpt>
      <trkpt lat="45.18357" lon="5.9138">
        <ele>1440.8</ele>
        <time>2021-02-20T15:09:16Z</time>
      </trkpt>
      <trkpt lat="45.1836" lon="5.9138">
        <ele>1440.4</ele>
        <time>2021-02-20T15:09:17Z</time>
      </trkpt>
      <trkpt lat="45.18361" lon="5.9138">
        <ele>1440.2</ele>
        <time>2021-02-20T15:09:18Z</time>
      </trkpt>
      <trkpt lat="45.18361" lon="5.9138">
        <ele>1440</ele>
        <time>2021-02-20T15:09:19Z</time>
      </trkpt>
      <trkpt lat="45.18363" lon="5.91379">
        <ele>1439.7</ele>
        <time>2021-02-20T15:09:20Z</time>
      </trkpt>
      <trkpt lat="45.18365" lon="5.91379">
        <ele>1439.3</ele>
        <time>2021-02-20T15:09:21Z</time>
      </trkpt>
      <trkpt lat="45.18366" lon="5.91378">
        <ele>1439</ele>
        <time>2021-02-20T15:09:22Z</time>
      </trkpt>
      <trkpt lat="45.18367" lon="5.91377">
        <ele>1438.8</ele>
        <time>2021-02-20T15:09:23Z</time>
      </trkpt>
      <trkpt lat="45.18368" lon="5.91377">
        <ele>1438.5</ele>
        <time>2021-02-20T15:09:24Z</time>
      </trkpt>
      <trkpt lat="45.1837" lon="5.91376">
        <ele>1438.1</ele>
        <time>2021-02-20T15:09:25Z</time>
      </trkpt>
      <trkpt lat="45.18372" lon="5.91376">
        <ele>1437.8</ele>
        <time>2021-02-20T15:09:26Z</time>
      </trkpt>
      <trkpt lat="45.18373" lon="5.91375">
        <ele>1437.5</ele>
        <time>2021-02-20T15:09:27Z</time>
      </trkpt>
      <trkpt lat="45.18375" lon="5.91375">
        <ele>1437.2</ele>
        <time>2021-02-20T15:09:28Z</time>
      </trkpt>
      <trkpt lat="45.18376" lon="5.91374">
        <ele>1437</ele>
        <time>2021-02-20T15:09:29Z</time>
      </trkpt>
      <trkpt lat="45.18376" lon="5.91374">
        <ele>1436.9</ele>
        <time>2021-02-20T15:09:30Z</time>
      </trkpt>
      <trkpt lat="45.18377" lon="5.91373">
        <ele>1436.7</ele>
        <time>2021-02-20T15:09:31Z</time>
      </trkpt>
      <trkpt lat="45.18378" lon="5.91373">
        <ele>1436.6</ele>
        <time>2021-02-20T15:09:32Z</time>
      </trkpt>
      <trkpt lat="45.18378" lon="5.91373">
        <ele>1436.4</ele>
        <time>2021-02-20T15:09:33Z</time>
      </trkpt>
      <trkpt lat="45.18379" lon="5.91372">
        <ele>1436.2</ele>
        <time>2021-02-20T15:09:34Z</time>
      </trkpt>
      <trkpt lat="45.18381" lon="5.91371">
        <ele>1435.9</ele>
        <time>2021-02-20T15:09:35Z</time>
      </trkpt>
      <trkpt lat="45.18382" lon="5.91371">
        <ele>1435.5</ele>
        <time>2021-02-20T15:09:36Z</time>
      </trkpt>
      <trkpt lat="45.18385" lon="5.91369">
        <ele>1434.9</ele>
        <time>2021-02-20T15:09:37Z</time>
      </trkpt>
      <trkpt lat="45.18386" lon="5.91369">
        <ele>1434.7</ele>
        <time>2021-02-20T15:09:38Z</time>
      </trkpt>
      <trkpt lat="45.18387" lon="5.91368">
        <ele>1434.3</ele>
        <time>2021-02-20T15:09:39Z</time>
      </trkpt>
      <trkpt lat="45.18389" lon="5.91368">
        <ele>1433.9</ele>
        <time>2021-02-20T15:09:40Z</time>
      </trkpt>
      <trkpt lat="45.18391" lon="5.91368">
        <ele>1433.5</ele>
        <time>2021-02-20T15:09:41Z</time>
      </trkpt>
      <trkpt lat="45.18392" lon="5.91369">
        <ele>1433.1</ele>
        <time>2021-02-20T15:09:42Z</time>
      </trkpt>
      <trkpt lat="45.18394" lon="5.91369">
        <ele>1432.7</ele>
        <time>2021-02-20T15:09:43Z</time>
      </trkpt>
      <trkpt lat="45.18396" lon="5.9137">
        <ele>1432.3</ele>
        <time>2021-02-20T15:09:44Z</time>
      </trkpt>
      <trkpt lat="45.18399" lon="5.91369">
        <ele>1431.5</ele>
        <time>2021-02-20T15:09:45Z</time>
      </trkpt>
      <trkpt lat="45.184" lon="5.91368">
        <ele>1431.3</ele>
        <time>2021-02-20T15:09:46Z</time>
      </trkpt>
      <trkpt lat="45.18404" lon="5.91367">
        <ele>1430.5</ele>
        <time>2021-02-20T15:09:47Z</time>
      </trkpt>
      <trkpt lat="45.18405" lon="5.91366">
        <ele>1430.2</ele>
        <time>2021-02-20T15:09:48Z</time>
      </trkpt>
      <trkpt lat="45.18408" lon="5.91366">
        <ele>1429.6</ele>
        <time>2021-02-20T15:09:49Z</time>
      </trkpt>
      <trkpt lat="45.18409" lon="5.91366">
        <ele>1429.3</ele>
        <time>2021-02-20T15:09:50Z</time>
      </trkpt>
      <trkpt lat="45.18411" lon="5.91366">
        <ele>1429</ele>
        <time>2021-02-20T15:09:51Z</time>
      </trkpt>
      <trkpt lat="45.18412" lon="5.91366">
        <ele>1428.6</ele>
        <time>2021-02-20T15:09:52Z</time>
      </trkpt>
      <trkpt lat="45.18413" lon="5.91366">
        <ele>1428.4</ele>
        <time>2021-02-20T15:09:53Z</time>
      </trkpt>
      <trkpt lat="45.18414" lon="5.91366">
        <ele>1428.2</ele>
        <time>2021-02-20T15:09:54Z</time>
      </trkpt>
      <trkpt lat="45.18415" lon="5.91366">
        <ele>1428</ele>
        <time>2021-02-20T15:09:55Z</time>
      </trkpt>
      <trkpt lat="45.18416" lon="5.91366">
        <ele>1427.8</ele>
        <time>2021-02-20T15:09:56Z</time>
      </trkpt>
      <trkpt lat="45.18417" lon="5.91367">
        <ele>1427.6</ele>
        <time>2021-02-20T15:09:57Z</time>
      </trkpt>
      <trkpt lat="45.18417" lon="5.91367">
        <ele>1427.6</ele>
        <time>2021-02-20T15:09:58Z</time>
      </trkpt>
      <trkpt lat="45.18417" lon="5.91367">
        <ele>1427.5</ele>
        <time>2021-02-20T15:09:59Z</time>
      </trkpt>
      <trkpt lat="45.18418" lon="5.91368">
        <ele>1427.3</ele>
        <time>2021-02-20T15:10:00Z</time>
      </trkpt>
      <trkpt lat="45.1842" lon="5.91368">
        <ele>1427</ele>
        <time>2021-02-20T15:10:01Z</time>
      </trkpt>
      <trkpt lat="45.18421" lon="5.91368">
        <ele>1426.7</ele>
        <time>2021-02-20T15:10:02Z</time>
      </trkpt>
      <trkpt lat="45.18422" lon="5.91368">
        <ele>1426.5</ele>
        <time>2021-02-20T15:10:03Z</time>
      </trkpt>
      <trkpt lat="45.18423" lon="5.91368">
        <ele>1426.2</ele>
        <time>2021-02-20T15:10:04Z</time>
      </trkpt>
      <trkpt lat="45.18424" lon="5.91367">
        <ele>1426</ele>
        <time>2021-02-20T15:10:05Z</time>
      </trkpt>
      <trkpt lat="45.18426" lon="5.91367">
        <ele>1425.7</ele>
        <time>2021-02-20T15:10:06Z</time>
      </trkpt>
      <trkpt lat="45.18427" lon="5.91367">
        <ele>1425.4</ele>
        <time>2021-02-20T15:10:07Z</time>
      </trkpt>
      <trkpt lat="45.18429" lon="5.91367">
        <ele>1425</ele>
        <time>2021-02-20T15:10:08Z</time>
      </trkpt>
      <trkpt lat="45.1843" lon="5.91366">
        <ele>1424.7</ele>
        <time>2021-02-20T15:10:09Z</time>
      </trkpt>
      <trkpt lat="45.18431" lon="5.91365">
        <ele>1424.4</ele>
        <time>2021-02-20T15:10:10Z</time>
      </trkpt>
      <trkpt lat="45.18432" lon="5.91364">
        <ele>1424.1</ele>
        <time>2021-02-20T15:10:11Z</time>
      </trkpt>
      <trkpt lat="45.18434" lon="5.91363">
        <ele>1423.7</ele>
        <time>2021-02-20T15:10:12Z</time>
      </trkpt>
      <trkpt lat="45.18435" lon="5.91362">
        <ele>1423.4</ele>
        <time>2021-02-20T15:10:13Z</time>
      </trkpt>
      <trkpt lat="45.18437" lon="5.91362">
        <ele>1423.1</ele>
        <time>2021-02-20T15:10:14Z</time>
      </trkpt>
      <trkpt lat="45.18438" lon="5.91361">
        <ele>1422.7</ele>
        <time>2021-02-20T15:10:15Z</time>
      </trkpt>
      <trkpt lat="45.1844" lon="5.91361">
        <ele>1422.4</ele>
        <time>2021-02-20T15:10:16Z</time>
      </trkpt>
      <trkpt lat="45.18442" lon="5.9136">
        <ele>1422</ele>
        <time>2021-02-20T15:10:17Z</time>
      </trkpt>
      <trkpt lat="45.18443" lon="5.9136">
        <ele>1421.7</ele>
        <time>2021-02-20T15:10:18Z</time>
      </trkpt>
      <trkpt lat="45.18443" lon="5.9136">
        <ele>1421.6</ele>
        <time>2021-02-20T15:10:19Z</time>
      </trkpt>
      <trkpt lat="45.18444" lon="5.91361">
        <ele>1421.5</ele>
        <time>2021-02-20T15:10:20Z</time>
      </trkpt>
      <trkpt lat="45.18445" lon="5.91361">
        <ele>1421.3</ele>
        <time>2021-02-20T15:10:21Z</time>
      </trkpt>
      <trkpt lat="45.18446" lon="5.91362">
        <ele>1421</ele>
        <time>2021-02-20T15:10:22Z</time>
      </trkpt>
      <trkpt lat="45.18447" lon="5.91362">
        <ele>1420.8</ele>
        <time>2021-02-20T15:10:23Z</time>
      </trkpt>
      <trkpt lat="45.18448" lon="5.91362">
        <ele>1420.6</ele>
        <time>2021-02-20T15:10:24Z</time>
      </trkpt>
      <trkpt lat="45.18449" lon="5.91362">
        <ele>1420.5</ele>
        <time>2021-02-20T15:10:25Z</time>
      </trkpt>
      <trkpt lat="45.1845" lon="5.91362">
        <ele>1420.2</ele>
        <time>2021-02-20T15:10:26Z</time>
      </trkpt>
      <trkpt lat="45.18452" lon="5.91362">
        <ele>1419.8</ele>
        <time>2021-02-20T15:10:27Z</time>
      </trkpt>
      <trkpt lat="45.18453" lon="5.91362">
        <ele>1419.6</ele>
        <time>2021-02-20T15:10:28Z</time>
      </trkpt>
      <trkpt lat="45.18455" lon="5.91363">
        <ele>1419.2</ele>
        <time>2021-02-20T15:10:29Z</time>
      </trkpt>
      <trkpt lat="45.18458" lon="5.91364">
        <ele>1418.6</ele>
        <time>2021-02-20T15:10:30Z</time>
      </trkpt>
      <trkpt lat="45.18459" lon="5.91364">
        <ele>1418.4</ele>
        <time>2021-02-20T15:10:31Z</time>
      </trkpt>
      <trkpt lat="45.18461" lon="5.91365">
        <ele>1418.1</ele>
        <time>2021-02-20T15:10:32Z</time>
      </trkpt>
      <trkpt lat="45.18463" lon="5.91365">
        <ele>1417.8</ele>
        <time>2021-02-20T15:10:33Z</time>
      </trkpt>
      <trkpt lat="45.18464" lon="5.91365">
        <ele>1417.4</ele>
        <time>2021-02-20T15:10:34Z</time>
      </trkpt>
      <trkpt lat="45.18466" lon="5.91364">
        <ele>1417.1</ele>
        <time>2021-02-20T15:10:35Z</time>
      </trkpt>
      <trkpt lat="45.18469" lon="5.91364">
        <ele>1416.6</ele>
        <time>2021-02-20T15:10:36Z</time>
      </trkpt>
      <trkpt lat="45.1847" lon="5.91364">
        <ele>1416.5</ele>
        <time>2021-02-20T15:10:37Z</time>
      </trkpt>
      <trkpt lat="45.18471" lon="5.91364">
        <ele>1416.2</ele>
        <time>2021-02-20T15:10:38Z</time>
      </trkpt>
      <trkpt lat="45.18473" lon="5.91364">
        <ele>1416</ele>
        <time>2021-02-20T15:10:39Z</time>
      </trkpt>
      <trkpt lat="45.18474" lon="5.91365">
        <ele>1415.8</ele>
        <time>2021-02-20T15:10:40Z</time>
      </trkpt>
      <trkpt lat="45.18475" lon="5.91365">
        <ele>1415.5</ele>
        <time>2021-02-20T15:10:41Z</time>
      </trkpt>
      <trkpt lat="45.18477" lon="5.91365">
        <ele>1415.2</ele>
        <time>2021-02-20T15:10:42Z</time>
      </trkpt>
      <trkpt lat="45.18479" lon="5.91365">
        <ele>1415</ele>
        <time>2021-02-20T15:10:43Z</time>
      </trkpt>
      <trkpt lat="45.18481" lon="5.91365">
        <ele>1414.6</ele>
        <time>2021-02-20T15:10:44Z</time>
      </trkpt>
      <trkpt lat="45.18482" lon="5.91365">
        <ele>1414.4</ele>
        <time>2021-02-20T15:10:45Z</time>
      </trkpt>
      <trkpt lat="45.18482" lon="5.91365">
        <ele>1414.3</ele>
        <time>2021-02-20T15:10:46Z</time>
      </trkpt>
      <trkpt lat="45.18484" lon="5.91366">
        <ele>1414</ele>
        <time>2021-02-20T15:10:47Z</time>
      </trkpt>
      <trkpt lat="45.18485" lon="5.91367">
        <ele>1413.7</ele>
        <time>2021-02-20T15:10:48Z</time>
      </trkpt>
      <trkpt lat="45.18487" lon="5.91368">
        <ele>1413.4</ele>
        <time>2021-02-20T15:10:49Z</time>
      </trkpt>
      <trkpt lat="45.18488" lon="5.91368">
        <ele>1413.2</ele>
        <time>2021-02-20T15:10:50Z</time>
      </trkpt>
      <trkpt lat="45.18489" lon="5.91369">
        <ele>1412.9</ele>
        <time>2021-02-20T15:10:51Z</time>
      </trkpt>
      <trkpt lat="45.18491" lon="5.9137">
        <ele>1412.6</ele>
        <time>2021-02-20T15:10:52Z</time>
      </trkpt>
      <trkpt lat="45.18493" lon="5.91372">
        <ele>1412.1</ele>
        <time>2021-02-20T15:10:53Z</time>
      </trkpt>
      <trkpt lat="45.18494" lon="5.91373">
        <ele>1411.9</ele>
        <time>2021-02-20T15:10:54Z</time>
      </trkpt>
      <trkpt lat="45.18496" lon="5.91375">
        <ele>1411.3</ele>
        <time>2021-02-20T15:10:55Z</time>
      </trkpt>
      <trkpt lat="45.18497" lon="5.91376">
        <ele>1411.1</ele>
        <time>2021-02-20T15:10:56Z</time>
      </trkpt>
      <trkpt lat="45.18499" lon="5.91377">
        <ele>1410.8</ele>
        <time>2021-02-20T15:10:57Z</time>
      </trkpt>
      <trkpt lat="45.185" lon="5.91378">
        <ele>1410.4</ele>
        <time>2021-02-20T15:10:58Z</time>
      </trkpt>
      <trkpt lat="45.18502" lon="5.91379">
        <ele>1410.1</ele>
        <time>2021-02-20T15:10:59Z</time>
      </trkpt>
      <trkpt lat="45.18503" lon="5.91379">
        <ele>1409.7</ele>
        <time>2021-02-20T15:11:00Z</time>
      </trkpt>
      <trkpt lat="45.18505" lon="5.91379">
        <ele>1409.2</ele>
        <time>2021-02-20T15:11:01Z</time>
      </trkpt>
      <trkpt lat="45.18506" lon="5.91379">
        <ele>1409</ele>
        <time>2021-02-20T15:11:02Z</time>
      </trkpt>
      <trkpt lat="45.18507" lon="5.91379">
        <ele>1408.8</ele>
        <time>2021-02-20T15:11:03Z</time>
      </trkpt>
      <trkpt lat="45.1851" lon="5.9138">
        <ele>1408.1</ele>
        <time>2021-02-20T15:11:04Z</time>
      </trkpt>
      <trkpt lat="45.18511" lon="5.9138">
        <ele>1407.9</ele>
        <time>2021-02-20T15:11:05Z</time>
      </trkpt>
      <trkpt lat="45.18513" lon="5.9138">
        <ele>1407.4</ele>
        <time>2021-02-20T15:11:06Z</time>
      </trkpt>
      <trkpt lat="45.18515" lon="5.91381">
        <ele>1407</ele>
        <time>2021-02-20T15:11:07Z</time>
      </trkpt>
      <trkpt lat="45.18516" lon="5.91381">
        <ele>1406.5</ele>
        <time>2021-02-20T15:11:08Z</time>
      </trkpt>
      <trkpt lat="45.18518" lon="5.91381">
        <ele>1406.1</ele>
        <time>2021-02-20T15:11:09Z</time>
      </trkpt>
      <trkpt lat="45.18519" lon="5.91381">
        <ele>1405.8</ele>
        <time>2021-02-20T15:11:10Z</time>
      </trkpt>
      <trkpt lat="45.1852" lon="5.91381">
        <ele>1405.6</ele>
        <time>2021-02-20T15:11:11Z</time>
      </trkpt>
      <trkpt lat="45.18521" lon="5.91381">
        <ele>1405.3</ele>
        <time>2021-02-20T15:11:12Z</time>
      </trkpt>
      <trkpt lat="45.18522" lon="5.91381">
        <ele>1405</ele>
        <time>2021-02-20T15:11:13Z</time>
      </trkpt>
      <trkpt lat="45.18523" lon="5.9138">
        <ele>1404.8</ele>
        <time>2021-02-20T15:11:14Z</time>
      </trkpt>
      <trkpt lat="45.18524" lon="5.91379">
        <ele>1404.5</ele>
        <time>2021-02-20T15:11:15Z</time>
      </trkpt>
      <trkpt lat="45.18526" lon="5.91377">
        <ele>1403.8</ele>
        <time>2021-02-20T15:11:16Z</time>
      </trkpt>
      <trkpt lat="45.18527" lon="5.91376">
        <ele>1403.6</ele>
        <time>2021-02-20T15:11:17Z</time>
      </trkpt>
      <trkpt lat="45.18529" lon="5.91373">
        <ele>1402.9</ele>
        <time>2021-02-20T15:11:18Z</time>
      </trkpt>
      <trkpt lat="45.18529" lon="5.91372">
        <ele>1402.7</ele>
        <time>2021-02-20T15:11:19Z</time>
      </trkpt>
      <trkpt lat="45.1853" lon="5.9137">
        <ele>1402.3</ele>
        <time>2021-02-20T15:11:20Z</time>
      </trkpt>
      <trkpt lat="45.18531" lon="5.91367">
        <ele>1402</ele>
        <time>2021-02-20T15:11:21Z</time>
      </trkpt>
      <trkpt lat="45.18531" lon="5.91365">
        <ele>1401.6</ele>
        <time>2021-02-20T15:11:22Z</time>
      </trkpt>
      <trkpt lat="45.18531" lon="5.91363">
        <ele>1401.3</ele>
        <time>2021-02-20T15:11:23Z</time>
      </trkpt>
      <trkpt lat="45.18532" lon="5.91359">
        <ele>1400.7</ele>
        <time>2021-02-20T15:11:24Z</time>
      </trkpt>
      <trkpt lat="45.18533" lon="5.91358">
        <ele>1400.5</ele>
        <time>2021-02-20T15:11:25Z</time>
      </trkpt>
      <trkpt lat="45.18534" lon="5.91356">
        <ele>1400.1</ele>
        <time>2021-02-20T15:11:26Z</time>
      </trkpt>
      <trkpt lat="45.18535" lon="5.91355">
        <ele>1399.7</ele>
        <time>2021-02-20T15:11:27Z</time>
      </trkpt>
      <trkpt lat="45.18536" lon="5.91353">
        <ele>1399.4</ele>
        <time>2021-02-20T15:11:28Z</time>
      </trkpt>
      <trkpt lat="45.18537" lon="5.91351">
        <ele>1399.1</ele>
        <time>2021-02-20T15:11:29Z</time>
      </trkpt>
      <trkpt lat="45.18538" lon="5.9135">
        <ele>1398.8</ele>
        <time>2021-02-20T15:11:30Z</time>
      </trkpt>
      <trkpt lat="45.1854" lon="5.9135">
        <ele>1398.5</ele>
        <time>2021-02-20T15:11:31Z</time>
      </trkpt>
      <trkpt lat="45.18541" lon="5.91349">
        <ele>1398.1</ele>
        <time>2021-02-20T15:11:32Z</time>
      </trkpt>
      <trkpt lat="45.18542" lon="5.91348">
        <ele>1397.9</ele>
        <time>2021-02-20T15:11:33Z</time>
      </trkpt>
      <trkpt lat="45.18544" lon="5.91348">
        <ele>1397.6</ele>
        <time>2021-02-20T15:11:34Z</time>
      </trkpt>
      <trkpt lat="45.18545" lon="5.91348">
        <ele>1397.2</ele>
        <time>2021-02-20T15:11:35Z</time>
      </trkpt>
      <trkpt lat="45.18546" lon="5.91347">
        <ele>1397</ele>
        <time>2021-02-20T15:11:36Z</time>
      </trkpt>
      <trkpt lat="45.18547" lon="5.91347">
        <ele>1396.9</ele>
        <time>2021-02-20T15:11:37Z</time>
      </trkpt>
      <trkpt lat="45.18548" lon="5.91346">
        <ele>1396.5</ele>
        <time>2021-02-20T15:11:38Z</time>
      </trkpt>
      <trkpt lat="45.18551" lon="5.91344">
        <ele>1395.8</ele>
        <time>2021-02-20T15:11:39Z</time>
      </trkpt>
      <trkpt lat="45.18551" lon="5.91343">
        <ele>1395.6</ele>
        <time>2021-02-20T15:11:40Z</time>
      </trkpt>
      <trkpt lat="45.18554" lon="5.91341">
        <ele>1394.9</ele>
        <time>2021-02-20T15:11:41Z</time>
      </trkpt>
      <trkpt lat="45.18555" lon="5.91341">
        <ele>1394.7</ele>
        <time>2021-02-20T15:11:42Z</time>
      </trkpt>
      <trkpt lat="45.18557" lon="5.91338">
        <ele>1394</ele>
        <time>2021-02-20T15:11:43Z</time>
      </trkpt>
      <trkpt lat="45.18558" lon="5.91338">
        <ele>1393.8</ele>
        <time>2021-02-20T15:11:44Z</time>
      </trkpt>
      <trkpt lat="45.18559" lon="5.91336">
        <ele>1393.4</ele>
        <time>2021-02-20T15:11:45Z</time>
      </trkpt>
      <trkpt lat="45.1856" lon="5.91335">
        <ele>1393.1</ele>
        <time>2021-02-20T15:11:46Z</time>
      </trkpt>
      <trkpt lat="45.18562" lon="5.91334">
        <ele>1392.8</ele>
        <time>2021-02-20T15:11:47Z</time>
      </trkpt>
      <trkpt lat="45.18563" lon="5.91332">
        <ele>1392.4</ele>
        <time>2021-02-20T15:11:48Z</time>
      </trkpt>
      <trkpt lat="45.18564" lon="5.91331">
        <ele>1392</ele>
        <time>2021-02-20T15:11:49Z</time>
      </trkpt>
      <trkpt lat="45.18565" lon="5.9133">
        <ele>1391.8</ele>
        <time>2021-02-20T15:11:50Z</time>
      </trkpt>
      <trkpt lat="45.18566" lon="5.9133">
        <ele>1391.6</ele>
        <time>2021-02-20T15:11:51Z</time>
      </trkpt>
      <trkpt lat="45.18567" lon="5.91329">
        <ele>1391.3</ele>
        <time>2021-02-20T15:11:52Z</time>
      </trkpt>
      <trkpt lat="45.18569" lon="5.91328">
        <ele>1391</ele>
        <time>2021-02-20T15:11:53Z</time>
      </trkpt>
      <trkpt lat="45.18571" lon="5.91327">
        <ele>1390.6</ele>
        <time>2021-02-20T15:11:54Z</time>
      </trkpt>
      <trkpt lat="45.18571" lon="5.91326">
        <ele>1390.4</ele>
        <time>2021-02-20T15:11:55Z</time>
      </trkpt>
      <trkpt lat="45.18572" lon="5.91326">
        <ele>1390.3</ele>
        <time>2021-02-20T15:11:56Z</time>
      </trkpt>
      <trkpt lat="45.18573" lon="5.91325">
        <ele>1390</ele>
        <time>2021-02-20T15:11:57Z</time>
      </trkpt>
      <trkpt lat="45.18574" lon="5.91323">
        <ele>1389.7</ele>
        <time>2021-02-20T15:11:58Z</time>
      </trkpt>
      <trkpt lat="45.18575" lon="5.91321">
        <ele>1389.4</ele>
        <time>2021-02-20T15:11:59Z</time>
      </trkpt>
      <trkpt lat="45.18575" lon="5.91319">
        <ele>1389.1</ele>
        <time>2021-02-20T15:12:00Z</time>
      </trkpt>
      <trkpt lat="45.18575" lon="5.91317">
        <ele>1388.9</ele>
        <time>2021-02-20T15:12:01Z</time>
      </trkpt>
      <trkpt lat="45.18576" lon="5.91315">
        <ele>1388.6</ele>
        <time>2021-02-20T15:12:02Z</time>
      </trkpt>
      <trkpt lat="45.18577" lon="5.91311">
        <ele>1388.1</ele>
        <time>2021-02-20T15:12:03Z</time>
      </trkpt>
      <trkpt lat="45.18577" lon="5.9131">
        <ele>1387.9</ele>
        <time>2021-02-20T15:12:04Z</time>
      </trkpt>
      <trkpt lat="45.18578" lon="5.91308">
        <ele>1387.6</ele>
        <time>2021-02-20T15:12:05Z</time>
      </trkpt>
      <trkpt lat="45.18579" lon="5.91307">
        <ele>1387.4</ele>
        <time>2021-02-20T15:12:06Z</time>
      </trkpt>
      <trkpt lat="45.1858" lon="5.91307">
        <ele>1387.2</ele>
        <time>2021-02-20T15:12:07Z</time>
      </trkpt>
      <trkpt lat="45.18581" lon="5.91306">
        <ele>1387.1</ele>
        <time>2021-02-20T15:12:08Z</time>
      </trkpt>
      <trkpt lat="45.18582" lon="5.91306">
        <ele>1386.9</ele>
        <time>2021-02-20T15:12:09Z</time>
      </trkpt>
      <trkpt lat="45.18583" lon="5.91305">
        <ele>1386.7</ele>
        <time>2021-02-20T15:12:10Z</time>
      </trkpt>
      <trkpt lat="45.18585" lon="5.91303">
        <ele>1386.5</ele>
        <time>2021-02-20T15:12:11Z</time>
      </trkpt>
      <trkpt lat="45.18586" lon="5.91302">
        <ele>1386.2</ele>
        <time>2021-02-20T15:12:12Z</time>
      </trkpt>
      <trkpt lat="45.18587" lon="5.913">
        <ele>1385.9</ele>
        <time>2021-02-20T15:12:13Z</time>
      </trkpt>
      <trkpt lat="45.18588" lon="5.91299">
        <ele>1385.7</ele>
        <time>2021-02-20T15:12:14Z</time>
      </trkpt>
      <trkpt lat="45.1859" lon="5.91297">
        <ele>1385.4</ele>
        <time>2021-02-20T15:12:15Z</time>
      </trkpt>
      <trkpt lat="45.18592" lon="5.91295">
        <ele>1385</ele>
        <time>2021-02-20T15:12:16Z</time>
      </trkpt>
      <trkpt lat="45.18593" lon="5.91294">
        <ele>1384.9</ele>
        <time>2021-02-20T15:12:17Z</time>
      </trkpt>
      <trkpt lat="45.18595" lon="5.91293">
        <ele>1384.7</ele>
        <time>2021-02-20T15:12:18Z</time>
      </trkpt>
      <trkpt lat="45.18596" lon="5.91293">
        <ele>1384.5</ele>
        <time>2021-02-20T15:12:19Z</time>
      </trkpt>
      <trkpt lat="45.18597" lon="5.91292">
        <ele>1384.3</ele>
        <time>2021-02-20T15:12:20Z</time>
      </trkpt>
      <trkpt lat="45.18599" lon="5.91292">
        <ele>1384.1</ele>
        <time>2021-02-20T15:12:21Z</time>
      </trkpt>
      <trkpt lat="45.186" lon="5.91291">
        <ele>1383.9</ele>
        <time>2021-02-20T15:12:22Z</time>
      </trkpt>
      <trkpt lat="45.18602" lon="5.91291">
        <ele>1383.7</ele>
        <time>2021-02-20T15:12:23Z</time>
      </trkpt>
      <trkpt lat="45.18605" lon="5.9129">
        <ele>1383.7</ele>
        <time>2021-02-20T15:12:24Z</time>
      </trkpt>
      <trkpt lat="45.18606" lon="5.9129">
        <ele>1383.6</ele>
        <time>2021-02-20T15:12:25Z</time>
      </trkpt>
      <trkpt lat="45.18608" lon="5.91289">
        <ele>1383.4</ele>
        <time>2021-02-20T15:12:26Z</time>
      </trkpt>
      <trkpt lat="45.18609" lon="5.91288">
        <ele>1383.3</ele>
        <time>2021-02-20T15:12:27Z</time>
      </trkpt>
      <trkpt lat="45.18611" lon="5.91288">
        <ele>1383.1</ele>
        <time>2021-02-20T15:12:28Z</time>
      </trkpt>
      <trkpt lat="45.18612" lon="5.91288">
        <ele>1383</ele>
        <time>2021-02-20T15:12:29Z</time>
      </trkpt>
      <trkpt lat="45.18613" lon="5.91288">
        <ele>1382.9</ele>
        <time>2021-02-20T15:12:30Z</time>
      </trkpt>
      <trkpt lat="45.18613" lon="5.91289">
        <ele>1382.8</ele>
        <time>2021-02-20T15:12:31Z</time>
      </trkpt>
      <trkpt lat="45.18614" lon="5.91289">
        <ele>1382.8</ele>
        <time>2021-02-20T15:12:32Z</time>
      </trkpt>
      <trkpt lat="45.18615" lon="5.9129">
        <ele>1382.6</ele>
        <time>2021-02-20T15:12:33Z</time>
      </trkpt>
      <trkpt lat="45.18618" lon="5.91291">
        <ele>1382.3</ele>
        <time>2021-02-20T15:12:34Z</time>
      </trkpt>
      <trkpt lat="45.18619" lon="5.91291">
        <ele>1382.2</ele>
        <time>2021-02-20T15:12:35Z</time>
      </trkpt>
      <trkpt lat="45.1862" lon="5.91292">
        <ele>1382</ele>
        <time>2021-02-20T15:12:36Z</time>
      </trkpt>
      <trkpt lat="45.18621" lon="5.91293">
        <ele>1381.9</ele>
        <time>2021-02-20T15:12:37Z</time>
      </trkpt>
      <trkpt lat="45.18623" lon="5.91294">
        <ele>1381.7</ele>
        <time>2021-02-20T15:12:38Z</time>
      </trkpt>
      <trkpt lat="45.18624" lon="5.91295">
        <ele>1381.5</ele>
        <time>2021-02-20T15:12:39Z</time>
      </trkpt>
      <trkpt lat="45.18626" lon="5.91297">
        <ele>1381.3</ele>
        <time>2021-02-20T15:12:40Z</time>
      </trkpt>
      <trkpt lat="45.18627" lon="5.91297">
        <ele>1381.2</ele>
        <time>2021-02-20T15:12:41Z</time>
      </trkpt>
      <trkpt lat="45.18627" lon="5.91297">
        <ele>1381.1</ele>
        <time>2021-02-20T15:12:42Z</time>
      </trkpt>
      <trkpt lat="45.18629" lon="5.91297">
        <ele>1380.9</ele>
        <time>2021-02-20T15:12:43Z</time>
      </trkpt>
      <trkpt lat="45.18631" lon="5.91297">
        <ele>1380.6</ele>
        <time>2021-02-20T15:12:44Z</time>
      </trkpt>
      <trkpt lat="45.18634" lon="5.91298">
        <ele>1380.2</ele>
        <time>2021-02-20T15:12:45Z</time>
      </trkpt>
      <trkpt lat="45.18635" lon="5.91298">
        <ele>1380.1</ele>
        <time>2021-02-20T15:12:46Z</time>
      </trkpt>
      <trkpt lat="45.18638" lon="5.91298">
        <ele>1379.6</ele>
        <time>2021-02-20T15:12:47Z</time>
      </trkpt>
      <trkpt lat="45.18639" lon="5.91298">
        <ele>1379.5</ele>
        <time>2021-02-20T15:12:48Z</time>
      </trkpt>
      <trkpt lat="45.1864" lon="5.91298">
        <ele>1379.2</ele>
        <time>2021-02-20T15:12:49Z</time>
      </trkpt>
      <trkpt lat="45.18641" lon="5.91298">
        <ele>1379.1</ele>
        <time>2021-02-20T15:12:50Z</time>
      </trkpt>
      <trkpt lat="45.18641" lon="5.91298">
        <ele>1379.1</ele>
        <time>2021-02-20T15:12:51Z</time>
      </trkpt>
      <trkpt lat="45.18642" lon="5.91298">
        <ele>1379</ele>
        <time>2021-02-20T15:12:52Z</time>
      </trkpt>
      <trkpt lat="45.18643" lon="5.91297">
        <ele>1378.7</ele>
        <time>2021-02-20T15:12:53Z</time>
      </trkpt>
      <trkpt lat="45.18644" lon="5.91296">
        <ele>1378.6</ele>
        <time>2021-02-20T15:12:54Z</time>
      </trkpt>
      <trkpt lat="45.18645" lon="5.91296">
        <ele>1378.4</ele>
        <time>2021-02-20T15:12:55Z</time>
      </trkpt>
      <trkpt lat="45.18648" lon="5.91296">
        <ele>1377.9</ele>
        <time>2021-02-20T15:12:56Z</time>
      </trkpt>
      <trkpt lat="45.18649" lon="5.91295">
        <ele>1377.7</ele>
        <time>2021-02-20T15:12:57Z</time>
      </trkpt>
      <trkpt lat="45.18653" lon="5.91295">
        <ele>1377.1</ele>
        <time>2021-02-20T15:12:58Z</time>
      </trkpt>
      <trkpt lat="45.18654" lon="5.91295">
        <ele>1376.9</ele>
        <time>2021-02-20T15:12:59Z</time>
      </trkpt>
      <trkpt lat="45.18655" lon="5.91295">
        <ele>1376.6</ele>
        <time>2021-02-20T15:13:00Z</time>
      </trkpt>
      <trkpt lat="45.18657" lon="5.91295">
        <ele>1376.4</ele>
        <time>2021-02-20T15:13:01Z</time>
      </trkpt>
      <trkpt lat="45.18658" lon="5.91296">
        <ele>1376.1</ele>
        <time>2021-02-20T15:13:02Z</time>
      </trkpt>
      <trkpt lat="45.18659" lon="5.91297">
        <ele>1375.8</ele>
        <time>2021-02-20T15:13:03Z</time>
      </trkpt>
      <trkpt lat="45.18662" lon="5.91298">
        <ele>1375.2</ele>
        <time>2021-02-20T15:13:04Z</time>
      </trkpt>
      <trkpt lat="45.18663" lon="5.91298">
        <ele>1375</ele>
        <time>2021-02-20T15:13:05Z</time>
      </trkpt>
      <trkpt lat="45.18665" lon="5.91298">
        <ele>1374.7</ele>
        <time>2021-02-20T15:13:06Z</time>
      </trkpt>
      <trkpt lat="45.18666" lon="5.91299">
        <ele>1374.4</ele>
        <time>2021-02-20T15:13:07Z</time>
      </trkpt>
      <trkpt lat="45.18668" lon="5.91299">
        <ele>1374.1</ele>
        <time>2021-02-20T15:13:08Z</time>
      </trkpt>
      <trkpt lat="45.18668" lon="5.91299">
        <ele>1373.9</ele>
        <time>2021-02-20T15:13:09Z</time>
      </trkpt>
      <trkpt lat="45.18669" lon="5.91299">
        <ele>1373.8</ele>
        <time>2021-02-20T15:13:10Z</time>
      </trkpt>
      <trkpt lat="45.1867" lon="5.91299">
        <ele>1373.6</ele>
        <time>2021-02-20T15:13:11Z</time>
      </trkpt>
      <trkpt lat="45.1867" lon="5.91299">
        <ele>1373.6</ele>
        <time>2021-02-20T15:13:12Z</time>
      </trkpt>
      <trkpt lat="45.18672" lon="5.91299">
        <ele>1373.4</ele>
        <time>2021-02-20T15:13:13Z</time>
      </trkpt>
      <trkpt lat="45.18674" lon="5.91299">
        <ele>1373.3</ele>
        <time>2021-02-20T15:13:14Z</time>
      </trkpt>
      <trkpt lat="45.18676" lon="5.91296">
        <ele>1373</ele>
        <time>2021-02-20T15:13:15Z</time>
      </trkpt>
      <trkpt lat="45.18677" lon="5.91296">
        <ele>1373</ele>
        <time>2021-02-20T15:13:16Z</time>
      </trkpt>
      <trkpt lat="45.18678" lon="5.91292">
        <ele>1372.7</ele>
        <time>2021-02-20T15:13:17Z</time>
      </trkpt>
      <trkpt lat="45.18678" lon="5.9129">
        <ele>1372.6</ele>
        <time>2021-02-20T15:13:18Z</time>
      </trkpt>
      <trkpt lat="45.18678" lon="5.91288">
        <ele>1372.5</ele>
        <time>2021-02-20T15:13:19Z</time>
      </trkpt>
      <trkpt lat="45.18678" lon="5.91285">
        <ele>1372.4</ele>
        <time>2021-02-20T15:13:20Z</time>
      </trkpt>
      <trkpt lat="45.18677" lon="5.91283">
        <ele>1372.2</ele>
        <time>2021-02-20T15:13:21Z</time>
      </trkpt>
      <trkpt lat="45.18677" lon="5.91281">
        <ele>1372.1</ele>
        <time>2021-02-20T15:13:22Z</time>
      </trkpt>
      <trkpt lat="45.18676" lon="5.91279">
        <ele>1372</ele>
        <time>2021-02-20T15:13:23Z</time>
      </trkpt>
      <trkpt lat="45.18674" lon="5.91277">
        <ele>1371.9</ele>
        <time>2021-02-20T15:13:24Z</time>
      </trkpt>
      <trkpt lat="45.18674" lon="5.91276">
        <ele>1371.8</ele>
        <time>2021-02-20T15:13:25Z</time>
      </trkpt>
      <trkpt lat="45.18673" lon="5.91275">
        <ele>1371.7</ele>
        <time>2021-02-20T15:13:26Z</time>
      </trkpt>
      <trkpt lat="45.18673" lon="5.91274">
        <ele>1371.7</ele>
        <time>2021-02-20T15:13:27Z</time>
      </trkpt>
      <trkpt lat="45.18673" lon="5.91274">
        <ele>1371.7</ele>
        <time>2021-02-20T15:13:28Z</time>
      </trkpt>
      <trkpt lat="45.18673" lon="5.91274">
        <ele>1371.7</ele>
        <time>2021-02-20T15:13:29Z</time>
      </trkpt>
      <trkpt lat="45.18673" lon="5.91275">
        <ele>1371.6</ele>
        <time>2021-02-20T15:13:30Z</time>
      </trkpt>
      <trkpt lat="45.18674" lon="5.91276">
        <ele>1371.6</ele>
        <time>2021-02-20T15:13:31Z</time>
      </trkpt>
      <trkpt lat="45.18675" lon="5.91277">
        <ele>1371.5</ele>
        <time>2021-02-20T15:13:32Z</time>
      </trkpt>
      <trkpt lat="45.18676" lon="5.91278">
        <ele>1371.4</ele>
        <time>2021-02-20T15:13:33Z</time>
      </trkpt>
      <trkpt lat="45.18678" lon="5.9128">
        <ele>1371.3</ele>
        <time>2021-02-20T15:13:34Z</time>
      </trkpt>
      <trkpt lat="45.18679" lon="5.91281">
        <ele>1371.2</ele>
        <time>2021-02-20T15:13:35Z</time>
      </trkpt>
      <trkpt lat="45.1868" lon="5.91283">
        <ele>1371.1</ele>
        <time>2021-02-20T15:13:36Z</time>
      </trkpt>
      <trkpt lat="45.18681" lon="5.91285">
        <ele>1371.1</ele>
        <time>2021-02-20T15:13:37Z</time>
      </trkpt>
      <trkpt lat="45.18682" lon="5.91287">
        <ele>1371</ele>
        <time>2021-02-20T15:13:38Z</time>
      </trkpt>
      <trkpt lat="45.18684" lon="5.9129">
        <ele>1370.9</ele>
        <time>2021-02-20T15:13:39Z</time>
      </trkpt>
      <trkpt lat="45.18685" lon="5.91291">
        <ele>1370.8</ele>
        <time>2021-02-20T15:13:40Z</time>
      </trkpt>
      <trkpt lat="45.18687" lon="5.91292">
        <ele>1370.8</ele>
        <time>2021-02-20T15:13:41Z</time>
      </trkpt>
      <trkpt lat="45.18688" lon="5.91293">
        <ele>1370.7</ele>
        <time>2021-02-20T15:13:42Z</time>
      </trkpt>
      <trkpt lat="45.18689" lon="5.91293">
        <ele>1370.7</ele>
        <time>2021-02-20T15:13:43Z</time>
      </trkpt>
      <trkpt lat="45.18691" lon="5.91293">
        <ele>1370.6</ele>
        <time>2021-02-20T15:13:44Z</time>
      </trkpt>
      <trkpt lat="45.18693" lon="5.91292">
        <ele>1370.6</ele>
        <time>2021-02-20T15:13:45Z</time>
      </trkpt>
      <trkpt lat="45.18695" lon="5.91291">
        <ele>1370.6</ele>
        <time>2021-02-20T15:13:46Z</time>
      </trkpt>
      <trkpt lat="45.18696" lon="5.91289">
        <ele>1370.5</ele>
        <time>2021-02-20T15:13:47Z</time>
      </trkpt>
      <trkpt lat="45.18696" lon="5.91287">
        <ele>1370.5</ele>
        <time>2021-02-20T15:13:48Z</time>
      </trkpt>
      <trkpt lat="45.18697" lon="5.91285">
        <ele>1370.4</ele>
        <time>2021-02-20T15:13:49Z</time>
      </trkpt>
      <trkpt lat="45.18698" lon="5.91283">
        <ele>1370.4</ele>
        <time>2021-02-20T15:13:50Z</time>
      </trkpt>
      <trkpt lat="45.18699" lon="5.91282">
        <ele>1370.4</ele>
        <time>2021-02-20T15:13:51Z</time>
      </trkpt>
      <trkpt lat="45.187" lon="5.9128">
        <ele>1370.3</ele>
        <time>2021-02-20T15:13:52Z</time>
      </trkpt>
      <trkpt lat="45.18701" lon="5.91278">
        <ele>1370.3</ele>
        <time>2021-02-20T15:13:53Z</time>
      </trkpt>
      <trkpt lat="45.18702" lon="5.91276">
        <ele>1370.3</ele>
        <time>2021-02-20T15:13:54Z</time>
      </trkpt>
      <trkpt lat="45.18702" lon="5.91274">
        <ele>1370.2</ele>
        <time>2021-02-20T15:13:55Z</time>
      </trkpt>
      <trkpt lat="45.18703" lon="5.91273">
        <ele>1370.2</ele>
        <time>2021-02-20T15:13:56Z</time>
      </trkpt>
      <trkpt lat="45.18704" lon="5.91271">
        <ele>1370.2</ele>
        <time>2021-02-20T15:13:57Z</time>
      </trkpt>
      <trkpt lat="45.18705" lon="5.9127">
        <ele>1370.1</ele>
        <time>2021-02-20T15:13:58Z</time>
      </trkpt>
      <trkpt lat="45.18707" lon="5.91268">
        <ele>1370.1</ele>
        <time>2021-02-20T15:13:59Z</time>
      </trkpt>
      <trkpt lat="45.18708" lon="5.91266">
        <ele>1370</ele>
        <time>2021-02-20T15:14:00Z</time>
      </trkpt>
      <trkpt lat="45.18709" lon="5.91265">
        <ele>1370</ele>
        <time>2021-02-20T15:14:01Z</time>
      </trkpt>
      <trkpt lat="45.1871" lon="5.91263">
        <ele>1369.9</ele>
        <time>2021-02-20T15:14:02Z</time>
      </trkpt>
      <trkpt lat="45.18711" lon="5.9126">
        <ele>1369.9</ele>
        <time>2021-02-20T15:14:03Z</time>
      </trkpt>
      <trkpt lat="45.18711" lon="5.91259">
        <ele>1369.9</ele>
        <time>2021-02-20T15:14:04Z</time>
      </trkpt>
      <trkpt lat="45.18711" lon="5.91257">
        <ele>1369.8</ele>
        <time>2021-02-20T15:14:05Z</time>
      </trkpt>
      <trkpt lat="45.18712" lon="5.91255">
        <ele>1369.8</ele>
        <time>2021-02-20T15:14:06Z</time>
      </trkpt>
      <trkpt lat="45.18713" lon="5.91253">
        <ele>1369.7</ele>
        <time>2021-02-20T15:14:07Z</time>
      </trkpt>
      <trkpt lat="45.18714" lon="5.91251">
        <ele>1369.7</ele>
        <time>2021-02-20T15:14:08Z</time>
      </trkpt>
      <trkpt lat="45.18714" lon="5.91249">
        <ele>1369.6</ele>
        <time>2021-02-20T15:14:09Z</time>
      </trkpt>
      <trkpt lat="45.18715" lon="5.91247">
        <ele>1369.5</ele>
        <time>2021-02-20T15:14:10Z</time>
      </trkpt>
      <trkpt lat="45.18716" lon="5.91245">
        <ele>1369.4</ele>
        <time>2021-02-20T15:14:11Z</time>
      </trkpt>
      <trkpt lat="45.18717" lon="5.91243">
        <ele>1369.4</ele>
        <time>2021-02-20T15:14:12Z</time>
      </trkpt>
      <trkpt lat="45.18718" lon="5.91241">
        <ele>1369.3</ele>
        <time>2021-02-20T15:14:13Z</time>
      </trkpt>
      <trkpt lat="45.18719" lon="5.91239">
        <ele>1369.2</ele>
        <time>2021-02-20T15:14:14Z</time>
      </trkpt>
      <trkpt lat="45.18719" lon="5.91238">
        <ele>1369.1</ele>
        <time>2021-02-20T15:14:15Z</time>
      </trkpt>
      <trkpt lat="45.1872" lon="5.91237">
        <ele>1369</ele>
        <time>2021-02-20T15:14:16Z</time>
      </trkpt>
      <trkpt lat="45.18721" lon="5.91235">
        <ele>1368.9</ele>
        <time>2021-02-20T15:14:17Z</time>
      </trkpt>
      <trkpt lat="45.18722" lon="5.91234">
        <ele>1368.8</ele>
        <time>2021-02-20T15:14:18Z</time>
      </trkpt>
      <trkpt lat="45.18724" lon="5.91232">
        <ele>1368.7</ele>
        <time>2021-02-20T15:14:19Z</time>
      </trkpt>
      <trkpt lat="45.18724" lon="5.91231">
        <ele>1368.6</ele>
        <time>2021-02-20T15:14:20Z</time>
      </trkpt>
      <trkpt lat="45.18725" lon="5.91231">
        <ele>1368.5</ele>
        <time>2021-02-20T15:14:21Z</time>
      </trkpt>
      <trkpt lat="45.18727" lon="5.91229">
        <ele>1368.4</ele>
        <time>2021-02-20T15:14:22Z</time>
      </trkpt>
      <trkpt lat="45.18727" lon="5.91229">
        <ele>1368.3</ele>
        <time>2021-02-20T15:14:23Z</time>
      </trkpt>
      <trkpt lat="45.18728" lon="5.91228">
        <ele>1368.2</ele>
        <time>2021-02-20T15:14:24Z</time>
      </trkpt>
      <trkpt lat="45.1873" lon="5.91228">
        <ele>1368.1</ele>
        <time>2021-02-20T15:14:25Z</time>
      </trkpt>
      <trkpt lat="45.18732" lon="5.91228">
        <ele>1367.9</ele>
        <time>2021-02-20T15:14:26Z</time>
      </trkpt>
      <trkpt lat="45.18733" lon="5.91227">
        <ele>1367.8</ele>
        <time>2021-02-20T15:14:27Z</time>
      </trkpt>
      <trkpt lat="45.18734" lon="5.91225">
        <ele>1367.6</ele>
        <time>2021-02-20T15:14:28Z</time>
      </trkpt>
      <trkpt lat="45.18734" lon="5.91223">
        <ele>1367.5</ele>
        <time>2021-02-20T15:14:29Z</time>
      </trkpt>
      <trkpt lat="45.18734" lon="5.91221">
        <ele>1367.3</ele>
        <time>2021-02-20T15:14:30Z</time>
      </trkpt>
      <trkpt lat="45.18735" lon="5.91217">
        <ele>1367</ele>
        <time>2021-02-20T15:14:31Z</time>
      </trkpt>
      <trkpt lat="45.18735" lon="5.91216">
        <ele>1366.9</ele>
        <time>2021-02-20T15:14:32Z</time>
      </trkpt>
      <trkpt lat="45.18736" lon="5.91214">
        <ele>1366.7</ele>
        <time>2021-02-20T15:14:33Z</time>
      </trkpt>
      <trkpt lat="45.18737" lon="5.91212">
        <ele>1366.5</ele>
        <time>2021-02-20T15:14:34Z</time>
      </trkpt>
      <trkpt lat="45.18739" lon="5.91211">
        <ele>1366.3</ele>
        <time>2021-02-20T15:14:35Z</time>
      </trkpt>
      <trkpt lat="45.1874" lon="5.9121">
        <ele>1366.1</ele>
        <time>2021-02-20T15:14:36Z</time>
      </trkpt>
      <trkpt lat="45.18741" lon="5.91209">
        <ele>1365.9</ele>
        <time>2021-02-20T15:14:37Z</time>
      </trkpt>
      <trkpt lat="45.18742" lon="5.91208">
        <ele>1365.9</ele>
        <time>2021-02-20T15:14:38Z</time>
      </trkpt>
      <trkpt lat="45.18742" lon="5.91207">
        <ele>1365.7</ele>
        <time>2021-02-20T15:14:39Z</time>
      </trkpt>
      <trkpt lat="45.18744" lon="5.91206">
        <ele>1365.5</ele>
        <time>2021-02-20T15:14:40Z</time>
      </trkpt>
      <trkpt lat="45.18745" lon="5.91205">
        <ele>1365.4</ele>
        <time>2021-02-20T15:14:41Z</time>
      </trkpt>
      <trkpt lat="45.18746" lon="5.91203">
        <ele>1365.2</ele>
        <time>2021-02-20T15:14:42Z</time>
      </trkpt>
      <trkpt lat="45.18747" lon="5.91202">
        <ele>1364.9</ele>
        <time>2021-02-20T15:14:43Z</time>
      </trkpt>
      <trkpt lat="45.18749" lon="5.912">
        <ele>1364.6</ele>
        <time>2021-02-20T15:14:44Z</time>
      </trkpt>
      <trkpt lat="45.1875" lon="5.91199">
        <ele>1364.5</ele>
        <time>2021-02-20T15:14:45Z</time>
      </trkpt>
      <trkpt lat="45.18751" lon="5.91198">
        <ele>1364.3</ele>
        <time>2021-02-20T15:14:46Z</time>
      </trkpt>
      <trkpt lat="45.18752" lon="5.91197">
        <ele>1364.1</ele>
        <time>2021-02-20T15:14:47Z</time>
      </trkpt>
      <trkpt lat="45.18753" lon="5.91195">
        <ele>1363.9</ele>
        <time>2021-02-20T15:14:48Z</time>
      </trkpt>
      <trkpt lat="45.18754" lon="5.91193">
        <ele>1363.7</ele>
        <time>2021-02-20T15:14:49Z</time>
      </trkpt>
      <trkpt lat="45.18755" lon="5.91192">
        <ele>1363.4</ele>
        <time>2021-02-20T15:14:50Z</time>
      </trkpt>
      <trkpt lat="45.18755" lon="5.9119">
        <ele>1363.2</ele>
        <time>2021-02-20T15:14:51Z</time>
      </trkpt>
      <trkpt lat="45.18755" lon="5.91189">
        <ele>1363.1</ele>
        <time>2021-02-20T15:14:52Z</time>
      </trkpt>
      <trkpt lat="45.18755" lon="5.91188">
        <ele>1363</ele>
        <time>2021-02-20T15:14:53Z</time>
      </trkpt>
      <trkpt lat="45.18755" lon="5.91187">
        <ele>1362.9</ele>
        <time>2021-02-20T15:14:54Z</time>
      </trkpt>
      <trkpt lat="45.18756" lon="5.91186">
        <ele>1362.7</ele>
        <time>2021-02-20T15:14:55Z</time>
      </trkpt>
      <trkpt lat="45.18757" lon="5.91185">
        <ele>1362.6</ele>
        <time>2021-02-20T15:14:56Z</time>
      </trkpt>
      <trkpt lat="45.18757" lon="5.91184">
        <ele>1362.5</ele>
        <time>2021-02-20T15:14:57Z</time>
      </trkpt>
      <trkpt lat="45.18759" lon="5.91184">
        <ele>1362.1</ele>
        <time>2021-02-20T15:14:58Z</time>
      </trkpt>
      <trkpt lat="45.1876" lon="5.91183">
        <ele>1362</ele>
        <time>2021-02-20T15:14:59Z</time>
      </trkpt>
      <trkpt lat="45.18761" lon="5.91183">
        <ele>1361.8</ele>
        <time>2021-02-20T15:15:00Z</time>
      </trkpt>
      <trkpt lat="45.18763" lon="5.91183">
        <ele>1361.6</ele>
        <time>2021-02-20T15:15:01Z</time>
      </trkpt>
      <trkpt lat="45.18763" lon="5.91183">
        <ele>1361.6</ele>
        <time>2021-02-20T15:15:02Z</time>
      </trkpt>
      <trkpt lat="45.18763" lon="5.91183">
        <ele>1361.5</ele>
        <time>2021-02-20T15:15:03Z</time>
      </trkpt>
      <trkpt lat="45.18764" lon="5.91183">
        <ele>1361.5</ele>
        <time>2021-02-20T15:15:04Z</time>
      </trkpt>
      <trkpt lat="45.18764" lon="5.91183">
        <ele>1361.4</ele>
        <time>2021-02-20T15:15:05Z</time>
      </trkpt>
      <trkpt lat="45.18765" lon="5.91183">
        <ele>1361.3</ele>
        <time>2021-02-20T15:15:06Z</time>
      </trkpt>
      <trkpt lat="45.18765" lon="5.91183">
        <ele>1361.3</ele>
        <time>2021-02-20T15:15:07Z</time>
      </trkpt>
      <trkpt lat="45.18765" lon="5.91183">
        <ele>1361.2</ele>
        <time>2021-02-20T15:15:08Z</time>
      </trkpt>
      <trkpt lat="45.18766" lon="5.91183">
        <ele>1361.2</ele>
        <time>2021-02-20T15:15:09Z</time>
      </trkpt>
      <trkpt lat="45.18766" lon="5.91183">
        <ele>1361.1</ele>
        <time>2021-02-20T15:15:10Z</time>
      </trkpt>
      <trkpt lat="45.18767" lon="5.91183">
        <ele>1361</ele>
        <time>2021-02-20T15:15:11Z</time>
      </trkpt>
      <trkpt lat="45.18768" lon="5.91183">
        <ele>1360.9</ele>
        <time>2021-02-20T15:15:12Z</time>
      </trkpt>
      <trkpt lat="45.18769" lon="5.91182">
        <ele>1360.7</ele>
        <time>2021-02-20T15:15:13Z</time>
      </trkpt>
      <trkpt lat="45.1877" lon="5.91181">
        <ele>1360.3</ele>
        <time>2021-02-20T15:15:14Z</time>
      </trkpt>
      <trkpt lat="45.18772" lon="5.91179">
        <ele>1360</ele>
        <time>2021-02-20T15:15:15Z</time>
      </trkpt>
      <trkpt lat="45.18773" lon="5.91178">
        <ele>1359.8</ele>
        <time>2021-02-20T15:15:16Z</time>
      </trkpt>
      <trkpt lat="45.18773" lon="5.91177">
        <ele>1359.6</ele>
        <time>2021-02-20T15:15:17Z</time>
      </trkpt>
      <trkpt lat="45.18774" lon="5.91175">
        <ele>1359.4</ele>
        <time>2021-02-20T15:15:18Z</time>
      </trkpt>
      <trkpt lat="45.18774" lon="5.91172">
        <ele>1359.1</ele>
        <time>2021-02-20T15:15:19Z</time>
      </trkpt>
      <trkpt lat="45.18774" lon="5.91171">
        <ele>1359</ele>
        <time>2021-02-20T15:15:20Z</time>
      </trkpt>
      <trkpt lat="45.18775" lon="5.9117">
        <ele>1358.8</ele>
        <time>2021-02-20T15:15:21Z</time>
      </trkpt>
      <trkpt lat="45.18775" lon="5.91168">
        <ele>1358.6</ele>
        <time>2021-02-20T15:15:22Z</time>
      </trkpt>
      <trkpt lat="45.18776" lon="5.91167">
        <ele>1358.5</ele>
        <time>2021-02-20T15:15:23Z</time>
      </trkpt>
      <trkpt lat="45.18776" lon="5.91166">
        <ele>1358.3</ele>
        <time>2021-02-20T15:15:24Z</time>
      </trkpt>
      <trkpt lat="45.18777" lon="5.91166">
        <ele>1358.3</ele>
        <time>2021-02-20T15:15:25Z</time>
      </trkpt>
      <trkpt lat="45.18777" lon="5.91166">
        <ele>1358.3</ele>
        <time>2021-02-20T15:15:26Z</time>
      </trkpt>
      <trkpt lat="45.18777" lon="5.91166">
        <ele>1358.2</ele>
        <time>2021-02-20T15:15:27Z</time>
      </trkpt>
      <trkpt lat="45.18778" lon="5.91165">
        <ele>1358.1</ele>
        <time>2021-02-20T15:15:28Z</time>
      </trkpt>
      <trkpt lat="45.18779" lon="5.91165">
        <ele>1357.9</ele>
        <time>2021-02-20T15:15:29Z</time>
      </trkpt>
      <trkpt lat="45.18779" lon="5.91165">
        <ele>1357.8</ele>
        <time>2021-02-20T15:15:30Z</time>
      </trkpt>
      <trkpt lat="45.1878" lon="5.91164">
        <ele>1357.6</ele>
        <time>2021-02-20T15:15:31Z</time>
      </trkpt>
      <trkpt lat="45.18781" lon="5.91164">
        <ele>1357.4</ele>
        <time>2021-02-20T15:15:32Z</time>
      </trkpt>
      <trkpt lat="45.18783" lon="5.91163">
        <ele>1357.1</ele>
        <time>2021-02-20T15:15:33Z</time>
      </trkpt>
      <trkpt lat="45.18784" lon="5.91163">
        <ele>1356.8</ele>
        <time>2021-02-20T15:15:34Z</time>
      </trkpt>
      <trkpt lat="45.18785" lon="5.91162">
        <ele>1356.6</ele>
        <time>2021-02-20T15:15:35Z</time>
      </trkpt>
      <trkpt lat="45.18786" lon="5.91162">
        <ele>1356.4</ele>
        <time>2021-02-20T15:15:36Z</time>
      </trkpt>
      <trkpt lat="45.18788" lon="5.91161">
        <ele>1356</ele>
        <time>2021-02-20T15:15:37Z</time>
      </trkpt>
      <trkpt lat="45.1879" lon="5.9116">
        <ele>1355.6</ele>
        <time>2021-02-20T15:15:38Z</time>
      </trkpt>
      <trkpt lat="45.18791" lon="5.91158">
        <ele>1355.3</ele>
        <time>2021-02-20T15:15:39Z</time>
      </trkpt>
      <trkpt lat="45.18792" lon="5.91157">
        <ele>1354.9</ele>
        <time>2021-02-20T15:15:40Z</time>
      </trkpt>
      <trkpt lat="45.18793" lon="5.91155">
        <ele>1354.6</ele>
        <time>2021-02-20T15:15:41Z</time>
      </trkpt>
      <trkpt lat="45.18794" lon="5.91152">
        <ele>1354.2</ele>
        <time>2021-02-20T15:15:42Z</time>
      </trkpt>
      <trkpt lat="45.18794" lon="5.91148">
        <ele>1353.6</ele>
        <time>2021-02-20T15:15:43Z</time>
      </trkpt>
      <trkpt lat="45.18794" lon="5.91146">
        <ele>1353.3</ele>
        <time>2021-02-20T15:15:44Z</time>
      </trkpt>
      <trkpt lat="45.18794" lon="5.91144">
        <ele>1352.9</ele>
        <time>2021-02-20T15:15:45Z</time>
      </trkpt>
      <trkpt lat="45.18793" lon="5.91142">
        <ele>1352.6</ele>
        <time>2021-02-20T15:15:46Z</time>
      </trkpt>
      <trkpt lat="45.18792" lon="5.9114">
        <ele>1352.2</ele>
        <time>2021-02-20T15:15:47Z</time>
      </trkpt>
      <trkpt lat="45.18791" lon="5.91138">
        <ele>1351.9</ele>
        <time>2021-02-20T15:15:48Z</time>
      </trkpt>
      <trkpt lat="45.1879" lon="5.91137">
        <ele>1351.7</ele>
        <time>2021-02-20T15:15:49Z</time>
      </trkpt>
      <trkpt lat="45.1879" lon="5.91136">
        <ele>1351.5</ele>
        <time>2021-02-20T15:15:50Z</time>
      </trkpt>
      <trkpt lat="45.18789" lon="5.91134">
        <ele>1351.1</ele>
        <time>2021-02-20T15:15:51Z</time>
      </trkpt>
      <trkpt lat="45.18788" lon="5.91131">
        <ele>1350.7</ele>
        <time>2021-02-20T15:15:52Z</time>
      </trkpt>
      <trkpt lat="45.18788" lon="5.9113">
        <ele>1350.5</ele>
        <time>2021-02-20T15:15:53Z</time>
      </trkpt>
      <trkpt lat="45.18788" lon="5.91129">
        <ele>1350.3</ele>
        <time>2021-02-20T15:15:54Z</time>
      </trkpt>
      <trkpt lat="45.18787" lon="5.91127">
        <ele>1349.9</ele>
        <time>2021-02-20T15:15:55Z</time>
      </trkpt>
      <trkpt lat="45.18786" lon="5.91126">
        <ele>1349.6</ele>
        <time>2021-02-20T15:15:56Z</time>
      </trkpt>
      <trkpt lat="45.18786" lon="5.91124">
        <ele>1349.3</ele>
        <time>2021-02-20T15:15:57Z</time>
      </trkpt>
      <trkpt lat="45.18785" lon="5.91123">
        <ele>1349.1</ele>
        <time>2021-02-20T15:15:58Z</time>
      </trkpt>
      <trkpt lat="45.18785" lon="5.91123">
        <ele>1349</ele>
        <time>2021-02-20T15:15:59Z</time>
      </trkpt>
      <trkpt lat="45.18784" lon="5.91122">
        <ele>1348.8</ele>
        <time>2021-02-20T15:16:00Z</time>
      </trkpt>
      <trkpt lat="45.18784" lon="5.91122">
        <ele>1348.7</ele>
        <time>2021-02-20T15:16:01Z</time>
      </trkpt>
      <trkpt lat="45.18783" lon="5.91119">
        <ele>1348.1</ele>
        <time>2021-02-20T15:16:02Z</time>
      </trkpt>
      <trkpt lat="45.18782" lon="5.91118">
        <ele>1347.8</ele>
        <time>2021-02-20T15:16:03Z</time>
      </trkpt>
      <trkpt lat="45.18782" lon="5.91117">
        <ele>1347.6</ele>
        <time>2021-02-20T15:16:04Z</time>
      </trkpt>
      <trkpt lat="45.1878" lon="5.91115">
        <ele>1347</ele>
        <time>2021-02-20T15:16:05Z</time>
      </trkpt>
      <trkpt lat="45.18779" lon="5.91114">
        <ele>1346.6</ele>
        <time>2021-02-20T15:16:06Z</time>
      </trkpt>
      <trkpt lat="45.18778" lon="5.91113">
        <ele>1346.3</ele>
        <time>2021-02-20T15:16:07Z</time>
      </trkpt>
      <trkpt lat="45.18777" lon="5.91112">
        <ele>1345.9</ele>
        <time>2021-02-20T15:16:08Z</time>
      </trkpt>
      <trkpt lat="45.18775" lon="5.91111">
        <ele>1345.4</ele>
        <time>2021-02-20T15:16:09Z</time>
      </trkpt>
      <trkpt lat="45.18774" lon="5.9111">
        <ele>1345</ele>
        <time>2021-02-20T15:16:10Z</time>
      </trkpt>
      <trkpt lat="45.18772" lon="5.91109">
        <ele>1344.5</ele>
        <time>2021-02-20T15:16:11Z</time>
      </trkpt>
      <trkpt lat="45.18771" lon="5.91109">
        <ele>1344.2</ele>
        <time>2021-02-20T15:16:12Z</time>
      </trkpt>
      <trkpt lat="45.18771" lon="5.91109">
        <ele>1344</ele>
        <time>2021-02-20T15:16:13Z</time>
      </trkpt>
      <trkpt lat="45.1877" lon="5.91108">
        <ele>1343.7</ele>
        <time>2021-02-20T15:16:14Z</time>
      </trkpt>
      <trkpt lat="45.18769" lon="5.91107">
        <ele>1343.4</ele>
        <time>2021-02-20T15:16:15Z</time>
      </trkpt>
      <trkpt lat="45.18768" lon="5.91106">
        <ele>1343</ele>
        <time>2021-02-20T15:16:16Z</time>
      </trkpt>
      <trkpt lat="45.18766" lon="5.91105">
        <ele>1342.7</ele>
        <time>2021-02-20T15:16:17Z</time>
      </trkpt>
      <trkpt lat="45.18766" lon="5.91105">
        <ele>1342.6</ele>
        <time>2021-02-20T15:16:18Z</time>
      </trkpt>
      <trkpt lat="45.18766" lon="5.91105">
        <ele>1342.6</ele>
        <time>2021-02-20T15:16:19Z</time>
      </trkpt>
      <trkpt lat="45.18766" lon="5.91105">
        <ele>1342.6</ele>
        <time>2021-02-20T15:16:20Z</time>
      </trkpt>
      <trkpt lat="45.18766" lon="5.91105">
        <ele>1342.5</ele>
        <time>2021-02-20T15:16:21Z</time>
      </trkpt>
      <trkpt lat="45.18766" lon="5.91105">
        <ele>1342.5</ele>
        <time>2021-02-20T15:16:22Z</time>
      </trkpt>
      <trkpt lat="45.18766" lon="5.91105">
        <ele>1342.5</ele>
        <time>2021-02-20T15:16:23Z</time>
      </trkpt>
      <trkpt lat="45.18766" lon="5.91105">
        <ele>1342.4</ele>
        <time>2021-02-20T15:16:24Z</time>
      </trkpt>
      <trkpt lat="45.18765" lon="5.91105">
        <ele>1342.4</ele>
        <time>2021-02-20T15:16:25Z</time>
      </trkpt>
      <trkpt lat="45.18765" lon="5.91105">
        <ele>1342.4</ele>
        <time>2021-02-20T15:16:26Z</time>
      </trkpt>
      <trkpt lat="45.18765" lon="5.91105">
        <ele>1342.3</ele>
        <time>2021-02-20T15:16:27Z</time>
      </trkpt>
      <trkpt lat="45.18765" lon="5.91104">
        <ele>1342.3</ele>
        <time>2021-02-20T15:16:28Z</time>
      </trkpt>
      <trkpt lat="45.18765" lon="5.91104">
        <ele>1342.3</ele>
        <time>2021-02-20T15:16:29Z</time>
      </trkpt>
      <trkpt lat="45.18765" lon="5.91104">
        <ele>1342.2</ele>
        <time>2021-02-20T15:16:30Z</time>
      </trkpt>
      <trkpt lat="45.18765" lon="5.91104">
        <ele>1342.2</ele>
        <time>2021-02-20T15:16:31Z</time>
      </trkpt>
      <trkpt lat="45.18765" lon="5.91104">
        <ele>1342.1</ele>
        <time>2021-02-20T15:16:32Z</time>
      </trkpt>
      <trkpt lat="45.18764" lon="5.91104">
        <ele>1342.1</ele>
        <time>2021-02-20T15:16:33Z</time>
      </trkpt>
      <trkpt lat="45.18764" lon="5.91104">
        <ele>1342.1</ele>
        <time>2021-02-20T15:16:34Z</time>
      </trkpt>
      <trkpt lat="45.18764" lon="5.91104">
        <ele>1342</ele>
        <time>2021-02-20T15:16:35Z</time>
      </trkpt>
      <trkpt lat="45.18764" lon="5.91104">
        <ele>1342</ele>
        <time>2021-02-20T15:16:36Z</time>
      </trkpt>
      <trkpt lat="45.18764" lon="5.91104">
        <ele>1342</ele>
        <time>2021-02-20T15:16:37Z</time>
      </trkpt>
      <trkpt lat="45.18764" lon="5.91104">
        <ele>1341.9</ele>
        <time>2021-02-20T15:16:38Z</time>
      </trkpt>
      <trkpt lat="45.18764" lon="5.91104">
        <ele>1341.9</ele>
        <time>2021-02-20T15:16:39Z</time>
      </trkpt>
      <trkpt lat="45.18764" lon="5.91104">
        <ele>1341.9</ele>
        <time>2021-02-20T15:16:40Z</time>
      </trkpt>
      <trkpt lat="45.18764" lon="5.91104">
        <ele>1341.8</ele>
        <time>2021-02-20T15:16:41Z</time>
      </trkpt>
      <trkpt lat="45.18763" lon="5.91103">
        <ele>1341.8</ele>
        <time>2021-02-20T15:16:42Z</time>
      </trkpt>
      <trkpt lat="45.18763" lon="5.91103">
        <ele>1341.8</ele>
        <time>2021-02-20T15:16:43Z</time>
      </trkpt>
      <trkpt lat="45.18763" lon="5.91103">
        <ele>1341.7</ele>
        <time>2021-02-20T15:16:44Z</time>
      </trkpt>
      <trkpt lat="45.18763" lon="5.91103">
        <ele>1341.7</ele>
        <time>2021-02-20T15:16:45Z</time>
      </trkpt>
      <trkpt lat="45.18763" lon="5.91103">
        <ele>1341.7</ele>
        <time>2021-02-20T15:16:46Z</time>
      </trkpt>
      <trkpt lat="45.18763" lon="5.91103">
        <ele>1341.7</ele>
        <time>2021-02-20T15:16:47Z</time>
      </trkpt>
      <trkpt lat="45.18763" lon="5.91103">
        <ele>1341.7</ele>
        <time>2021-02-20T15:16:48Z</time>
      </trkpt>
      <trkpt lat="45.18763" lon="5.91103">
        <ele>1341.6</ele>
        <time>2021-02-20T15:16:49Z</time>
      </trkpt>
      <trkpt lat="45.18762" lon="5.91104">
        <ele>1341.3</ele>
        <time>2021-02-20T15:16:50Z</time>
      </trkpt>
      <trkpt lat="45.1876" lon="5.91105">
        <ele>1340.9</ele>
        <time>2021-02-20T15:16:51Z</time>
      </trkpt>
      <trkpt lat="45.18758" lon="5.91106">
        <ele>1340.4</ele>
        <time>2021-02-20T15:16:52Z</time>
      </trkpt>
      <trkpt lat="45.18757" lon="5.91106">
        <ele>1340.1</ele>
        <time>2021-02-20T15:16:53Z</time>
      </trkpt>
      <trkpt lat="45.18756" lon="5.91106">
        <ele>1339.9</ele>
        <time>2021-02-20T15:16:54Z</time>
      </trkpt>
      <trkpt lat="45.18755" lon="5.91107">
        <ele>1339.6</ele>
        <time>2021-02-20T15:16:55Z</time>
      </trkpt>
      <trkpt lat="45.18754" lon="5.91107">
        <ele>1339.3</ele>
        <time>2021-02-20T15:16:56Z</time>
      </trkpt>
      <trkpt lat="45.18753" lon="5.91107">
        <ele>1339.1</ele>
        <time>2021-02-20T15:16:57Z</time>
      </trkpt>
      <trkpt lat="45.18752" lon="5.91107">
        <ele>1338.8</ele>
        <time>2021-02-20T15:16:58Z</time>
      </trkpt>
      <trkpt lat="45.18751" lon="5.91108">
        <ele>1338.5</ele>
        <time>2021-02-20T15:16:59Z</time>
      </trkpt>
      <trkpt lat="45.18749" lon="5.91107">
        <ele>1338.2</ele>
        <time>2021-02-20T15:17:00Z</time>
      </trkpt>
      <trkpt lat="45.18748" lon="5.91106">
        <ele>1337.8</ele>
        <time>2021-02-20T15:17:01Z</time>
      </trkpt>
      <trkpt lat="45.18747" lon="5.91103">
        <ele>1337.4</ele>
        <time>2021-02-20T15:17:02Z</time>
      </trkpt>
      <trkpt lat="45.18746" lon="5.91101">
        <ele>1337</ele>
        <time>2021-02-20T15:17:03Z</time>
      </trkpt>
      <trkpt lat="45.18745" lon="5.91099">
        <ele>1336.6</ele>
        <time>2021-02-20T15:17:04Z</time>
      </trkpt>
      <trkpt lat="45.18744" lon="5.91099">
        <ele>1336.4</ele>
        <time>2021-02-20T15:17:05Z</time>
      </trkpt>
      <trkpt lat="45.18743" lon="5.91098">
        <ele>1336.2</ele>
        <time>2021-02-20T15:17:06Z</time>
      </trkpt>
      <trkpt lat="45.18741" lon="5.91098">
        <ele>1335.8</ele>
        <time>2021-02-20T15:17:07Z</time>
      </trkpt>
      <trkpt lat="45.1874" lon="5.91098">
        <ele>1335.5</ele>
        <time>2021-02-20T15:17:08Z</time>
      </trkpt>
      <trkpt lat="45.1874" lon="5.91098">
        <ele>1335.4</ele>
        <time>2021-02-20T15:17:09Z</time>
      </trkpt>
      <trkpt lat="45.18739" lon="5.91098">
        <ele>1335.3</ele>
        <time>2021-02-20T15:17:10Z</time>
      </trkpt>
      <trkpt lat="45.18738" lon="5.91099">
        <ele>1335.1</ele>
        <time>2021-02-20T15:17:11Z</time>
      </trkpt>
      <trkpt lat="45.18737" lon="5.91098">
        <ele>1334.8</ele>
        <time>2021-02-20T15:17:12Z</time>
      </trkpt>
      <trkpt lat="45.18736" lon="5.91098">
        <ele>1334.7</ele>
        <time>2021-02-20T15:17:13Z</time>
      </trkpt>
      <trkpt lat="45.18735" lon="5.91098">
        <ele>1334.5</ele>
        <time>2021-02-20T15:17:14Z</time>
      </trkpt>
      <trkpt lat="45.18734" lon="5.91097">
        <ele>1334.2</ele>
        <time>2021-02-20T15:17:15Z</time>
      </trkpt>
      <trkpt lat="45.18732" lon="5.91097">
        <ele>1333.9</ele>
        <time>2021-02-20T15:17:16Z</time>
      </trkpt>
      <trkpt lat="45.18731" lon="5.91098">
        <ele>1333.6</ele>
        <time>2021-02-20T15:17:17Z</time>
      </trkpt>
      <trkpt lat="45.18729" lon="5.91099">
        <ele>1333.3</ele>
        <time>2021-02-20T15:17:18Z</time>
      </trkpt>
      <trkpt lat="45.18727" lon="5.91099">
        <ele>1333</ele>
        <time>2021-02-20T15:17:19Z</time>
      </trkpt>
      <trkpt lat="45.18726" lon="5.911">
        <ele>1332.7</ele>
        <time>2021-02-20T15:17:20Z</time>
      </trkpt>
      <trkpt lat="45.18724" lon="5.91099">
        <ele>1332.4</ele>
        <time>2021-02-20T15:17:21Z</time>
      </trkpt>
      <trkpt lat="45.18723" lon="5.91098">
        <ele>1332.2</ele>
        <time>2021-02-20T15:17:22Z</time>
      </trkpt>
      <trkpt lat="45.18722" lon="5.91098">
        <ele>1332</ele>
        <time>2021-02-20T15:17:23Z</time>
      </trkpt>
      <trkpt lat="45.18722" lon="5.91098">
        <ele>1331.9</ele>
        <time>2021-02-20T15:17:24Z</time>
      </trkpt>
      <trkpt lat="45.18721" lon="5.91097">
        <ele>1331.8</ele>
        <time>2021-02-20T15:17:25Z</time>
      </trkpt>
      <trkpt lat="45.18719" lon="5.91095">
        <ele>1331.4</ele>
        <time>2021-02-20T15:17:26Z</time>
      </trkpt>
      <trkpt lat="45.18718" lon="5.91095">
        <ele>1331.2</ele>
        <time>2021-02-20T15:17:27Z</time>
      </trkpt>
      <trkpt lat="45.18717" lon="5.91094">
        <ele>1331</ele>
        <time>2021-02-20T15:17:28Z</time>
      </trkpt>
      <trkpt lat="45.18716" lon="5.91092">
        <ele>1330.6</ele>
        <time>2021-02-20T15:17:29Z</time>
      </trkpt>
      <trkpt lat="45.18715" lon="5.9109">
        <ele>1330.4</ele>
        <time>2021-02-20T15:17:30Z</time>
      </trkpt>
      <trkpt lat="45.18714" lon="5.91088">
        <ele>1329.9</ele>
        <time>2021-02-20T15:17:31Z</time>
      </trkpt>
      <trkpt lat="45.18713" lon="5.91087">
        <ele>1329.7</ele>
        <time>2021-02-20T15:17:32Z</time>
      </trkpt>
      <trkpt lat="45.18713" lon="5.91086">
        <ele>1329.5</ele>
        <time>2021-02-20T15:17:33Z</time>
      </trkpt>
      <trkpt lat="45.18711" lon="5.91085">
        <ele>1329.2</ele>
        <time>2021-02-20T15:17:34Z</time>
      </trkpt>
      <trkpt lat="45.1871" lon="5.91085">
        <ele>1329</ele>
        <time>2021-02-20T15:17:35Z</time>
      </trkpt>
      <trkpt lat="45.18709" lon="5.91084">
        <ele>1328.8</ele>
        <time>2021-02-20T15:17:36Z</time>
      </trkpt>
      <trkpt lat="45.18708" lon="5.91084">
        <ele>1328.6</ele>
        <time>2021-02-20T15:17:37Z</time>
      </trkpt>
      <trkpt lat="45.18708" lon="5.91084">
        <ele>1328.5</ele>
        <time>2021-02-20T15:17:38Z</time>
      </trkpt>
      <trkpt lat="45.18706" lon="5.91082">
        <ele>1328.1</ele>
        <time>2021-02-20T15:17:39Z</time>
      </trkpt>
      <trkpt lat="45.18705" lon="5.91081">
        <ele>1327.9</ele>
        <time>2021-02-20T15:17:40Z</time>
      </trkpt>
      <trkpt lat="45.18705" lon="5.9108">
        <ele>1327.7</ele>
        <time>2021-02-20T15:17:41Z</time>
      </trkpt>
      <trkpt lat="45.18704" lon="5.91079">
        <ele>1327.4</ele>
        <time>2021-02-20T15:17:42Z</time>
      </trkpt>
      <trkpt lat="45.18704" lon="5.91077">
        <ele>1327.2</ele>
        <time>2021-02-20T15:17:43Z</time>
      </trkpt>
      <trkpt lat="45.18704" lon="5.91077">
        <ele>1327.1</ele>
        <time>2021-02-20T15:17:44Z</time>
      </trkpt>
      <trkpt lat="45.18704" lon="5.91076">
        <ele>1327</ele>
        <time>2021-02-20T15:17:45Z</time>
      </trkpt>
      <trkpt lat="45.18703" lon="5.91075">
        <ele>1326.8</ele>
        <time>2021-02-20T15:17:46Z</time>
      </trkpt>
      <trkpt lat="45.18702" lon="5.91073">
        <ele>1326.5</ele>
        <time>2021-02-20T15:17:47Z</time>
      </trkpt>
      <trkpt lat="45.18702" lon="5.91072">
        <ele>1326.3</ele>
        <time>2021-02-20T15:17:48Z</time>
      </trkpt>
      <trkpt lat="45.18701" lon="5.91071">
        <ele>1326.1</ele>
        <time>2021-02-20T15:17:49Z</time>
      </trkpt>
      <trkpt lat="45.187" lon="5.91069">
        <ele>1325.8</ele>
        <time>2021-02-20T15:17:50Z</time>
      </trkpt>
      <trkpt lat="45.18699" lon="5.91067">
        <ele>1325.4</ele>
        <time>2021-02-20T15:17:51Z</time>
      </trkpt>
      <trkpt lat="45.18697" lon="5.91065">
        <ele>1325</ele>
        <time>2021-02-20T15:17:52Z</time>
      </trkpt>
      <trkpt lat="45.18696" lon="5.91065">
        <ele>1324.8</ele>
        <time>2021-02-20T15:17:53Z</time>
      </trkpt>
      <trkpt lat="45.18695" lon="5.91064">
        <ele>1324.6</ele>
        <time>2021-02-20T15:17:54Z</time>
      </trkpt>
      <trkpt lat="45.18694" lon="5.91064">
        <ele>1324.2</ele>
        <time>2021-02-20T15:17:55Z</time>
      </trkpt>
      <trkpt lat="45.18692" lon="5.91062">
        <ele>1323.9</ele>
        <time>2021-02-20T15:17:56Z</time>
      </trkpt>
      <trkpt lat="45.18691" lon="5.91061">
        <ele>1323.6</ele>
        <time>2021-02-20T15:17:57Z</time>
      </trkpt>
      <trkpt lat="45.18689" lon="5.9106">
        <ele>1323.3</ele>
        <time>2021-02-20T15:17:58Z</time>
      </trkpt>
      <trkpt lat="45.18688" lon="5.91059">
        <ele>1323</ele>
        <time>2021-02-20T15:17:59Z</time>
      </trkpt>
      <trkpt lat="45.18687" lon="5.91057">
        <ele>1322.6</ele>
        <time>2021-02-20T15:18:00Z</time>
      </trkpt>
      <trkpt lat="45.18685" lon="5.91055">
        <ele>1322.3</ele>
        <time>2021-02-20T15:18:01Z</time>
      </trkpt>
      <trkpt lat="45.18685" lon="5.91054">
        <ele>1322.1</ele>
        <time>2021-02-20T15:18:02Z</time>
      </trkpt>
      <trkpt lat="45.18684" lon="5.91054">
        <ele>1321.9</ele>
        <time>2021-02-20T15:18:03Z</time>
      </trkpt>
      <trkpt lat="45.18683" lon="5.91053">
        <ele>1321.7</ele>
        <time>2021-02-20T15:18:04Z</time>
      </trkpt>
      <trkpt lat="45.18682" lon="5.91051">
        <ele>1321.3</ele>
        <time>2021-02-20T15:18:05Z</time>
      </trkpt>
      <trkpt lat="45.1868" lon="5.9105">
        <ele>1321</ele>
        <time>2021-02-20T15:18:06Z</time>
      </trkpt>
      <trkpt lat="45.18679" lon="5.91049">
        <ele>1320.7</ele>
        <time>2021-02-20T15:18:07Z</time>
      </trkpt>
      <trkpt lat="45.18678" lon="5.91047">
        <ele>1320.2</ele>
        <time>2021-02-20T15:18:08Z</time>
      </trkpt>
      <trkpt lat="45.18677" lon="5.91046">
        <ele>1320</ele>
        <time>2021-02-20T15:18:09Z</time>
      </trkpt>
      <trkpt lat="45.18676" lon="5.91044">
        <ele>1319.8</ele>
        <time>2021-02-20T15:18:10Z</time>
      </trkpt>
      <trkpt lat="45.18675" lon="5.91042">
        <ele>1319.4</ele>
        <time>2021-02-20T15:18:11Z</time>
      </trkpt>
      <trkpt lat="45.18675" lon="5.9104">
        <ele>1319.1</ele>
        <time>2021-02-20T15:18:12Z</time>
      </trkpt>
      <trkpt lat="45.18674" lon="5.91038">
        <ele>1318.8</ele>
        <time>2021-02-20T15:18:13Z</time>
      </trkpt>
      <trkpt lat="45.18673" lon="5.91036">
        <ele>1318.5</ele>
        <time>2021-02-20T15:18:14Z</time>
      </trkpt>
      <trkpt lat="45.18673" lon="5.91034">
        <ele>1318.2</ele>
        <time>2021-02-20T15:18:15Z</time>
      </trkpt>
      <trkpt lat="45.18672" lon="5.91033">
        <ele>1318</ele>
        <time>2021-02-20T15:18:16Z</time>
      </trkpt>
      <trkpt lat="45.18672" lon="5.91032">
        <ele>1317.8</ele>
        <time>2021-02-20T15:18:17Z</time>
      </trkpt>
      <trkpt lat="45.18671" lon="5.9103">
        <ele>1317.5</ele>
        <time>2021-02-20T15:18:18Z</time>
      </trkpt>
      <trkpt lat="45.18671" lon="5.91028">
        <ele>1317.2</ele>
        <time>2021-02-20T15:18:19Z</time>
      </trkpt>
      <trkpt lat="45.18671" lon="5.91026">
        <ele>1316.9</ele>
        <time>2021-02-20T15:18:20Z</time>
      </trkpt>
      <trkpt lat="45.18671" lon="5.91025">
        <ele>1316.7</ele>
        <time>2021-02-20T15:18:21Z</time>
      </trkpt>
      <trkpt lat="45.1867" lon="5.91024">
        <ele>1316.5</ele>
        <time>2021-02-20T15:18:22Z</time>
      </trkpt>
      <trkpt lat="45.1867" lon="5.91023">
        <ele>1316.3</ele>
        <time>2021-02-20T15:18:23Z</time>
      </trkpt>
      <trkpt lat="45.18669" lon="5.91021">
        <ele>1316.1</ele>
        <time>2021-02-20T15:18:24Z</time>
      </trkpt>
      <trkpt lat="45.18668" lon="5.9102">
        <ele>1315.8</ele>
        <time>2021-02-20T15:18:25Z</time>
      </trkpt>
      <trkpt lat="45.18667" lon="5.91019">
        <ele>1315.5</ele>
        <time>2021-02-20T15:18:26Z</time>
      </trkpt>
      <trkpt lat="45.18666" lon="5.91018">
        <ele>1315.2</ele>
        <time>2021-02-20T15:18:27Z</time>
      </trkpt>
      <trkpt lat="45.18665" lon="5.91018">
        <ele>1315</ele>
        <time>2021-02-20T15:18:28Z</time>
      </trkpt>
      <trkpt lat="45.18665" lon="5.91017">
        <ele>1314.8</ele>
        <time>2021-02-20T15:18:29Z</time>
      </trkpt>
      <trkpt lat="45.18664" lon="5.91016">
        <ele>1314.6</ele>
        <time>2021-02-20T15:18:30Z</time>
      </trkpt>
      <trkpt lat="45.18663" lon="5.91015">
        <ele>1314.2</ele>
        <time>2021-02-20T15:18:31Z</time>
      </trkpt>
      <trkpt lat="45.18662" lon="5.91013">
        <ele>1313.9</ele>
        <time>2021-02-20T15:18:32Z</time>
      </trkpt>
      <trkpt lat="45.18661" lon="5.91012">
        <ele>1313.6</ele>
        <time>2021-02-20T15:18:33Z</time>
      </trkpt>
      <trkpt lat="45.1866" lon="5.9101">
        <ele>1313.3</ele>
        <time>2021-02-20T15:18:34Z</time>
      </trkpt>
      <trkpt lat="45.1866" lon="5.91008">
        <ele>1313</ele>
        <time>2021-02-20T15:18:35Z</time>
      </trkpt>
      <trkpt lat="45.18658" lon="5.91006">
        <ele>1312.6</ele>
        <time>2021-02-20T15:18:36Z</time>
      </trkpt>
      <trkpt lat="45.18658" lon="5.91005">
        <ele>1312.4</ele>
        <time>2021-02-20T15:18:37Z</time>
      </trkpt>
      <trkpt lat="45.18657" lon="5.91004">
        <ele>1312.2</ele>
        <time>2021-02-20T15:18:38Z</time>
      </trkpt>
      <trkpt lat="45.18656" lon="5.91003">
        <ele>1311.9</ele>
        <time>2021-02-20T15:18:39Z</time>
      </trkpt>
      <trkpt lat="45.18655" lon="5.91001">
        <ele>1311.6</ele>
        <time>2021-02-20T15:18:40Z</time>
      </trkpt>
      <trkpt lat="45.18653" lon="5.90999">
        <ele>1311.1</ele>
        <time>2021-02-20T15:18:41Z</time>
      </trkpt>
      <trkpt lat="45.18653" lon="5.90998">
        <ele>1310.9</ele>
        <time>2021-02-20T15:18:42Z</time>
      </trkpt>
      <trkpt lat="45.18653" lon="5.90997">
        <ele>1310.8</ele>
        <time>2021-02-20T15:18:43Z</time>
      </trkpt>
      <trkpt lat="45.18652" lon="5.90996">
        <ele>1310.6</ele>
        <time>2021-02-20T15:18:44Z</time>
      </trkpt>
      <trkpt lat="45.18652" lon="5.90996">
        <ele>1310.6</ele>
        <time>2021-02-20T15:18:45Z</time>
      </trkpt>
      <trkpt lat="45.18652" lon="5.90996">
        <ele>1310.6</ele>
        <time>2021-02-20T15:18:46Z</time>
      </trkpt>
      <trkpt lat="45.18652" lon="5.90996">
        <ele>1310.6</ele>
        <time>2021-02-20T15:18:47Z</time>
      </trkpt>
      <trkpt lat="45.18652" lon="5.90996">
        <ele>1310.6</ele>
        <time>2021-02-20T15:18:48Z</time>
      </trkpt>
      <trkpt lat="45.18652" lon="5.90996">
        <ele>1310.6</ele>
        <time>2021-02-20T15:18:49Z</time>
      </trkpt>
      <trkpt lat="45.18651" lon="5.90993">
        <ele>1310.1</ele>
        <time>2021-02-20T15:18:50Z</time>
      </trkpt>
      <trkpt lat="45.1865" lon="5.90991">
        <ele>1309.8</ele>
        <time>2021-02-20T15:18:51Z</time>
      </trkpt>
      <trkpt lat="45.1865" lon="5.9099">
        <ele>1309.6</ele>
        <time>2021-02-20T15:18:52Z</time>
      </trkpt>
      <trkpt lat="45.18649" lon="5.90989">
        <ele>1309.4</ele>
        <time>2021-02-20T15:18:53Z</time>
      </trkpt>
      <trkpt lat="45.18648" lon="5.90986">
        <ele>1309</ele>
        <time>2021-02-20T15:18:54Z</time>
      </trkpt>
      <trkpt lat="45.18648" lon="5.90985">
        <ele>1308.7</ele>
        <time>2021-02-20T15:18:55Z</time>
      </trkpt>
      <trkpt lat="45.18647" lon="5.90984">
        <ele>1308.5</ele>
        <time>2021-02-20T15:18:56Z</time>
      </trkpt>
      <trkpt lat="45.18646" lon="5.90983">
        <ele>1308.3</ele>
        <time>2021-02-20T15:18:57Z</time>
      </trkpt>
      <trkpt lat="45.18645" lon="5.90982">
        <ele>1308</ele>
        <time>2021-02-20T15:18:58Z</time>
      </trkpt>
      <trkpt lat="45.18644" lon="5.90981">
        <ele>1307.7</ele>
        <time>2021-02-20T15:18:59Z</time>
      </trkpt>
      <trkpt lat="45.18643" lon="5.9098">
        <ele>1307.6</ele>
        <time>2021-02-20T15:19:00Z</time>
      </trkpt>
      <trkpt lat="45.18643" lon="5.9098">
        <ele>1307.4</ele>
        <time>2021-02-20T15:19:01Z</time>
      </trkpt>
      <trkpt lat="45.18642" lon="5.90979">
        <ele>1307.3</ele>
        <time>2021-02-20T15:19:02Z</time>
      </trkpt>
      <trkpt lat="45.18642" lon="5.90979">
        <ele>1307.2</ele>
        <time>2021-02-20T15:19:03Z</time>
      </trkpt>
      <trkpt lat="45.18641" lon="5.90978">
        <ele>1307.1</ele>
        <time>2021-02-20T15:19:04Z</time>
      </trkpt>
      <trkpt lat="45.1864" lon="5.90977">
        <ele>1306.9</ele>
        <time>2021-02-20T15:19:05Z</time>
      </trkpt>
      <trkpt lat="45.18639" lon="5.90976">
        <ele>1306.6</ele>
        <time>2021-02-20T15:19:06Z</time>
      </trkpt>
      <trkpt lat="45.18638" lon="5.90975">
        <ele>1306.2</ele>
        <time>2021-02-20T15:19:07Z</time>
      </trkpt>
      <trkpt lat="45.18637" lon="5.90973">
        <ele>1305.9</ele>
        <time>2021-02-20T15:19:08Z</time>
      </trkpt>
      <trkpt lat="45.18635" lon="5.90972">
        <ele>1305.5</ele>
        <time>2021-02-20T15:19:09Z</time>
      </trkpt>
      <trkpt lat="45.18633" lon="5.90969">
        <ele>1304.9</ele>
        <time>2021-02-20T15:19:10Z</time>
      </trkpt>
      <trkpt lat="45.18633" lon="5.90968">
        <ele>1304.8</ele>
        <time>2021-02-20T15:19:11Z</time>
      </trkpt>
      <trkpt lat="45.18632" lon="5.90967">
        <ele>1304.5</ele>
        <time>2021-02-20T15:19:12Z</time>
      </trkpt>
      <trkpt lat="45.18631" lon="5.90966">
        <ele>1304.3</ele>
        <time>2021-02-20T15:19:13Z</time>
      </trkpt>
      <trkpt lat="45.1863" lon="5.90964">
        <ele>1304</ele>
        <time>2021-02-20T15:19:14Z</time>
      </trkpt>
      <trkpt lat="45.18629" lon="5.90963">
        <ele>1303.7</ele>
        <time>2021-02-20T15:19:15Z</time>
      </trkpt>
      <trkpt lat="45.18628" lon="5.90961">
        <ele>1303.4</ele>
        <time>2021-02-20T15:19:16Z</time>
      </trkpt>
      <trkpt lat="45.18627" lon="5.90959">
        <ele>1303.1</ele>
        <time>2021-02-20T15:19:17Z</time>
      </trkpt>
      <trkpt lat="45.18626" lon="5.90958">
        <ele>1302.8</ele>
        <time>2021-02-20T15:19:18Z</time>
      </trkpt>
      <trkpt lat="45.18625" lon="5.90957">
        <ele>1302.5</ele>
        <time>2021-02-20T15:19:19Z</time>
      </trkpt>
      <trkpt lat="45.18624" lon="5.90956">
        <ele>1302.2</ele>
        <time>2021-02-20T15:19:20Z</time>
      </trkpt>
      <trkpt lat="45.18623" lon="5.90954">
        <ele>1301.9</ele>
        <time>2021-02-20T15:19:21Z</time>
      </trkpt>
      <trkpt lat="45.18622" lon="5.90952">
        <ele>1301.6</ele>
        <time>2021-02-20T15:19:22Z</time>
      </trkpt>
      <trkpt lat="45.18621" lon="5.90951">
        <ele>1301.3</ele>
        <time>2021-02-20T15:19:23Z</time>
      </trkpt>
      <trkpt lat="45.1862" lon="5.90949">
        <ele>1301</ele>
        <time>2021-02-20T15:19:24Z</time>
      </trkpt>
      <trkpt lat="45.18619" lon="5.90947">
        <ele>1300.7</ele>
        <time>2021-02-20T15:19:25Z</time>
      </trkpt>
      <trkpt lat="45.18619" lon="5.90945">
        <ele>1300.3</ele>
        <time>2021-02-20T15:19:26Z</time>
      </trkpt>
      <trkpt lat="45.18618" lon="5.90942">
        <ele>1299.9</ele>
        <time>2021-02-20T15:19:27Z</time>
      </trkpt>
      <trkpt lat="45.18617" lon="5.9094">
        <ele>1299.5</ele>
        <time>2021-02-20T15:19:28Z</time>
      </trkpt>
      <trkpt lat="45.18616" lon="5.90939">
        <ele>1299.3</ele>
        <time>2021-02-20T15:19:29Z</time>
      </trkpt>
      <trkpt lat="45.18616" lon="5.90938">
        <ele>1299</ele>
        <time>2021-02-20T15:19:30Z</time>
      </trkpt>
      <trkpt lat="45.18615" lon="5.90936">
        <ele>1298.8</ele>
        <time>2021-02-20T15:19:31Z</time>
      </trkpt>
      <trkpt lat="45.18614" lon="5.90935">
        <ele>1298.5</ele>
        <time>2021-02-20T15:19:32Z</time>
      </trkpt>
      <trkpt lat="45.18613" lon="5.90933">
        <ele>1298.2</ele>
        <time>2021-02-20T15:19:33Z</time>
      </trkpt>
      <trkpt lat="45.18613" lon="5.90932">
        <ele>1298</ele>
        <time>2021-02-20T15:19:34Z</time>
      </trkpt>
      <trkpt lat="45.18612" lon="5.90931">
        <ele>1297.8</ele>
        <time>2021-02-20T15:19:35Z</time>
      </trkpt>
      <trkpt lat="45.18612" lon="5.9093">
        <ele>1297.6</ele>
        <time>2021-02-20T15:19:36Z</time>
      </trkpt>
      <trkpt lat="45.18611" lon="5.90928">
        <ele>1297.3</ele>
        <time>2021-02-20T15:19:37Z</time>
      </trkpt>
      <trkpt lat="45.18611" lon="5.90927">
        <ele>1297.1</ele>
        <time>2021-02-20T15:19:38Z</time>
      </trkpt>
      <trkpt lat="45.18611" lon="5.90926">
        <ele>1296.9</ele>
        <time>2021-02-20T15:19:39Z</time>
      </trkpt>
      <trkpt lat="45.1861" lon="5.90925">
        <ele>1296.7</ele>
        <time>2021-02-20T15:19:40Z</time>
      </trkpt>
      <trkpt lat="45.18609" lon="5.90923">
        <ele>1296.3</ele>
        <time>2021-02-20T15:19:41Z</time>
      </trkpt>
      <trkpt lat="45.18607" lon="5.90922">
        <ele>1296</ele>
        <time>2021-02-20T15:19:42Z</time>
      </trkpt>
      <trkpt lat="45.18606" lon="5.90921">
        <ele>1295.6</ele>
        <time>2021-02-20T15:19:43Z</time>
      </trkpt>
      <trkpt lat="45.18605" lon="5.9092">
        <ele>1295.3</ele>
        <time>2021-02-20T15:19:44Z</time>
      </trkpt>
      <trkpt lat="45.18603" lon="5.90919">
        <ele>1295</ele>
        <time>2021-02-20T15:19:45Z</time>
      </trkpt>
      <trkpt lat="45.18602" lon="5.90918">
        <ele>1294.7</ele>
        <time>2021-02-20T15:19:46Z</time>
      </trkpt>
      <trkpt lat="45.18601" lon="5.90917">
        <ele>1294.5</ele>
        <time>2021-02-20T15:19:47Z</time>
      </trkpt>
      <trkpt lat="45.186" lon="5.90916">
        <ele>1294.2</ele>
        <time>2021-02-20T15:19:48Z</time>
      </trkpt>
      <trkpt lat="45.18599" lon="5.90914">
        <ele>1293.7</ele>
        <time>2021-02-20T15:19:49Z</time>
      </trkpt>
      <trkpt lat="45.18598" lon="5.90913">
        <ele>1293.6</ele>
        <time>2021-02-20T15:19:50Z</time>
      </trkpt>
      <trkpt lat="45.18598" lon="5.90912">
        <ele>1293.4</ele>
        <time>2021-02-20T15:19:51Z</time>
      </trkpt>
      <trkpt lat="45.18597" lon="5.90911">
        <ele>1293.1</ele>
        <time>2021-02-20T15:19:52Z</time>
      </trkpt>
      <trkpt lat="45.18596" lon="5.9091">
        <ele>1292.8</ele>
        <time>2021-02-20T15:19:53Z</time>
      </trkpt>
      <trkpt lat="45.18595" lon="5.90909">
        <ele>1292.6</ele>
        <time>2021-02-20T15:19:54Z</time>
      </trkpt>
      <trkpt lat="45.18594" lon="5.90909">
        <ele>1292.4</ele>
        <time>2021-02-20T15:19:55Z</time>
      </trkpt>
      <trkpt lat="45.18593" lon="5.90908">
        <ele>1292.2</ele>
        <time>2021-02-20T15:19:56Z</time>
      </trkpt>
      <trkpt lat="45.18592" lon="5.90907">
        <ele>1292</ele>
        <time>2021-02-20T15:19:57Z</time>
      </trkpt>
      <trkpt lat="45.18592" lon="5.90904">
        <ele>1291.5</ele>
        <time>2021-02-20T15:19:58Z</time>
      </trkpt>
      <trkpt lat="45.18591" lon="5.90902">
        <ele>1291.3</ele>
        <time>2021-02-20T15:19:59Z</time>
      </trkpt>
      <trkpt lat="45.18591" lon="5.90901">
        <ele>1291.1</ele>
        <time>2021-02-20T15:20:00Z</time>
      </trkpt>
      <trkpt lat="45.1859" lon="5.90899">
        <ele>1290.7</ele>
        <time>2021-02-20T15:20:01Z</time>
      </trkpt>
      <trkpt lat="45.18589" lon="5.90897">
        <ele>1290.4</ele>
        <time>2021-02-20T15:20:02Z</time>
      </trkpt>
      <trkpt lat="45.18588" lon="5.90896">
        <ele>1290.2</ele>
        <time>2021-02-20T15:20:03Z</time>
      </trkpt>
      <trkpt lat="45.18587" lon="5.90896">
        <ele>1290</ele>
        <time>2021-02-20T15:20:04Z</time>
      </trkpt>
      <trkpt lat="45.18586" lon="5.90896">
        <ele>1289.8</ele>
        <time>2021-02-20T15:20:05Z</time>
      </trkpt>
      <trkpt lat="45.18586" lon="5.90896">
        <ele>1289.7</ele>
        <time>2021-02-20T15:20:06Z</time>
      </trkpt>
      <trkpt lat="45.18586" lon="5.90896">
        <ele>1289.7</ele>
        <time>2021-02-20T15:20:07Z</time>
      </trkpt>
      <trkpt lat="45.18586" lon="5.90896">
        <ele>1289.7</ele>
        <time>2021-02-20T15:20:08Z</time>
      </trkpt>
      <trkpt lat="45.18586" lon="5.90896">
        <ele>1289.7</ele>
        <time>2021-02-20T15:20:09Z</time>
      </trkpt>
      <trkpt lat="45.18586" lon="5.90899">
        <ele>1289.3</ele>
        <time>2021-02-20T15:20:10Z</time>
      </trkpt>
      <trkpt lat="45.18586" lon="5.909">
        <ele>1289.2</ele>
        <time>2021-02-20T15:20:11Z</time>
      </trkpt>
      <trkpt lat="45.18585" lon="5.909">
        <ele>1289.1</ele>
        <time>2021-02-20T15:20:12Z</time>
      </trkpt>
      <trkpt lat="45.18585" lon="5.90899">
        <ele>1288.9</ele>
        <time>2021-02-20T15:20:13Z</time>
      </trkpt>
      <trkpt lat="45.18585" lon="5.90898">
        <ele>1288.8</ele>
        <time>2021-02-20T15:20:14Z</time>
      </trkpt>
      <trkpt lat="45.18585" lon="5.90897">
        <ele>1288.7</ele>
        <time>2021-02-20T15:20:15Z</time>
      </trkpt>
      <trkpt lat="45.18584" lon="5.90897">
        <ele>1288.6</ele>
        <time>2021-02-20T15:20:16Z</time>
      </trkpt>
      <trkpt lat="45.18584" lon="5.90896">
        <ele>1288.5</ele>
        <time>2021-02-20T15:20:17Z</time>
      </trkpt>
      <trkpt lat="45.18584" lon="5.90895">
        <ele>1288.4</ele>
        <time>2021-02-20T15:20:18Z</time>
      </trkpt>
      <trkpt lat="45.18582" lon="5.90894">
        <ele>1288</ele>
        <time>2021-02-20T15:20:19Z</time>
      </trkpt>
      <trkpt lat="45.1858" lon="5.90893">
        <ele>1287.7</ele>
        <time>2021-02-20T15:20:20Z</time>
      </trkpt>
      <trkpt lat="45.18579" lon="5.90893">
        <ele>1287.4</ele>
        <time>2021-02-20T15:20:21Z</time>
      </trkpt>
      <trkpt lat="45.18578" lon="5.90892">
        <ele>1287.1</ele>
        <time>2021-02-20T15:20:22Z</time>
      </trkpt>
      <trkpt lat="45.18577" lon="5.9089">
        <ele>1286.8</ele>
        <time>2021-02-20T15:20:23Z</time>
      </trkpt>
      <trkpt lat="45.18576" lon="5.90888">
        <ele>1286.5</ele>
        <time>2021-02-20T15:20:24Z</time>
      </trkpt>
      <trkpt lat="45.18575" lon="5.90887">
        <ele>1286.2</ele>
        <time>2021-02-20T15:20:25Z</time>
      </trkpt>
      <trkpt lat="45.18575" lon="5.90886">
        <ele>1286.1</ele>
        <time>2021-02-20T15:20:26Z</time>
      </trkpt>
      <trkpt lat="45.18574" lon="5.90885">
        <ele>1285.9</ele>
        <time>2021-02-20T15:20:27Z</time>
      </trkpt>
      <trkpt lat="45.18573" lon="5.90883">
        <ele>1285.5</ele>
        <time>2021-02-20T15:20:28Z</time>
      </trkpt>
      <trkpt lat="45.18572" lon="5.90881">
        <ele>1285.1</ele>
        <time>2021-02-20T15:20:29Z</time>
      </trkpt>
      <trkpt lat="45.1857" lon="5.90879">
        <ele>1284.6</ele>
        <time>2021-02-20T15:20:30Z</time>
      </trkpt>
      <trkpt lat="45.18569" lon="5.90877">
        <ele>1284.3</ele>
        <time>2021-02-20T15:20:31Z</time>
      </trkpt>
      <trkpt lat="45.18568" lon="5.90875">
        <ele>1283.8</ele>
        <time>2021-02-20T15:20:32Z</time>
      </trkpt>
      <trkpt lat="45.18567" lon="5.90874">
        <ele>1283.6</ele>
        <time>2021-02-20T15:20:33Z</time>
      </trkpt>
      <trkpt lat="45.18566" lon="5.90873">
        <ele>1283.4</ele>
        <time>2021-02-20T15:20:34Z</time>
      </trkpt>
      <trkpt lat="45.18563" lon="5.90872">
        <ele>1282.6</ele>
        <time>2021-02-20T15:20:35Z</time>
      </trkpt>
      <trkpt lat="45.18563" lon="5.90871">
        <ele>1282.4</ele>
        <time>2021-02-20T15:20:36Z</time>
      </trkpt>
      <trkpt lat="45.18561" lon="5.90871">
        <ele>1282.1</ele>
        <time>2021-02-20T15:20:37Z</time>
      </trkpt>
      <trkpt lat="45.1856" lon="5.9087">
        <ele>1281.7</ele>
        <time>2021-02-20T15:20:38Z</time>
      </trkpt>
      <trkpt lat="45.18559" lon="5.90869">
        <ele>1281.4</ele>
        <time>2021-02-20T15:20:39Z</time>
      </trkpt>
      <trkpt lat="45.18558" lon="5.90868">
        <ele>1281.1</ele>
        <time>2021-02-20T15:20:40Z</time>
      </trkpt>
      <trkpt lat="45.18557" lon="5.90867">
        <ele>1280.9</ele>
        <time>2021-02-20T15:20:41Z</time>
      </trkpt>
      <trkpt lat="45.18556" lon="5.90866">
        <ele>1280.6</ele>
        <time>2021-02-20T15:20:42Z</time>
      </trkpt>
      <trkpt lat="45.18555" lon="5.90864">
        <ele>1280.3</ele>
        <time>2021-02-20T15:20:43Z</time>
      </trkpt>
      <trkpt lat="45.18555" lon="5.90863">
        <ele>1280.1</ele>
        <time>2021-02-20T15:20:44Z</time>
      </trkpt>
      <trkpt lat="45.18554" lon="5.90861">
        <ele>1279.7</ele>
        <time>2021-02-20T15:20:45Z</time>
      </trkpt>
      <trkpt lat="45.18553" lon="5.9086">
        <ele>1279.4</ele>
        <time>2021-02-20T15:20:46Z</time>
      </trkpt>
      <trkpt lat="45.18551" lon="5.90858">
        <ele>1279</ele>
        <time>2021-02-20T15:20:47Z</time>
      </trkpt>
      <trkpt lat="45.1855" lon="5.90857">
        <ele>1278.7</ele>
        <time>2021-02-20T15:20:48Z</time>
      </trkpt>
      <trkpt lat="45.18549" lon="5.90856">
        <ele>1278.5</ele>
        <time>2021-02-20T15:20:49Z</time>
      </trkpt>
      <trkpt lat="45.18548" lon="5.90854">
        <ele>1278.2</ele>
        <time>2021-02-20T15:20:50Z</time>
      </trkpt>
      <trkpt lat="45.18547" lon="5.90852">
        <ele>1277.8</ele>
        <time>2021-02-20T15:20:51Z</time>
      </trkpt>
      <trkpt lat="45.18545" lon="5.9085">
        <ele>1277.2</ele>
        <time>2021-02-20T15:20:52Z</time>
      </trkpt>
      <trkpt lat="45.18545" lon="5.90849">
        <ele>1277</ele>
        <time>2021-02-20T15:20:53Z</time>
      </trkpt>
      <trkpt lat="45.18542" lon="5.90846">
        <ele>1276.4</ele>
        <time>2021-02-20T15:20:54Z</time>
      </trkpt>
      <trkpt lat="45.18541" lon="5.90846">
        <ele>1276.1</ele>
        <time>2021-02-20T15:20:55Z</time>
      </trkpt>
      <trkpt lat="45.18538" lon="5.90843">
        <ele>1275.3</ele>
        <time>2021-02-20T15:20:56Z</time>
      </trkpt>
      <trkpt lat="45.18537" lon="5.90843">
        <ele>1275</ele>
        <time>2021-02-20T15:20:57Z</time>
      </trkpt>
      <trkpt lat="45.18536" lon="5.90841">
        <ele>1274.7</ele>
        <time>2021-02-20T15:20:58Z</time>
      </trkpt>
      <trkpt lat="45.18535" lon="5.9084">
        <ele>1274.5</ele>
        <time>2021-02-20T15:20:59Z</time>
      </trkpt>
      <trkpt lat="45.18535" lon="5.90839">
        <ele>1274.3</ele>
        <time>2021-02-20T15:21:00Z</time>
      </trkpt>
      <trkpt lat="45.18534" lon="5.90837">
        <ele>1274</ele>
        <time>2021-02-20T15:21:01Z</time>
      </trkpt>
      <trkpt lat="45.18534" lon="5.90835">
        <ele>1273.6</ele>
        <time>2021-02-20T15:21:02Z</time>
      </trkpt>
      <trkpt lat="45.18533" lon="5.90833">
        <ele>1273.4</ele>
        <time>2021-02-20T15:21:03Z</time>
      </trkpt>
      <trkpt lat="45.18532" lon="5.90832">
        <ele>1273.1</ele>
        <time>2021-02-20T15:21:04Z</time>
      </trkpt>
      <trkpt lat="45.18532" lon="5.90831">
        <ele>1273</ele>
        <time>2021-02-20T15:21:05Z</time>
      </trkpt>
      <trkpt lat="45.18532" lon="5.9083">
        <ele>1272.8</ele>
        <time>2021-02-20T15:21:06Z</time>
      </trkpt>
      <trkpt lat="45.18531" lon="5.90828">
        <ele>1272.5</ele>
        <time>2021-02-20T15:21:07Z</time>
      </trkpt>
      <trkpt lat="45.1853" lon="5.90827">
        <ele>1272.2</ele>
        <time>2021-02-20T15:21:08Z</time>
      </trkpt>
      <trkpt lat="45.1853" lon="5.90826">
        <ele>1272.1</ele>
        <time>2021-02-20T15:21:09Z</time>
      </trkpt>
      <trkpt lat="45.18529" lon="5.90826">
        <ele>1271.9</ele>
        <time>2021-02-20T15:21:10Z</time>
      </trkpt>
      <trkpt lat="45.18528" lon="5.90824">
        <ele>1271.7</ele>
        <time>2021-02-20T15:21:11Z</time>
      </trkpt>
      <trkpt lat="45.18527" lon="5.90822">
        <ele>1271.4</ele>
        <time>2021-02-20T15:21:12Z</time>
      </trkpt>
      <trkpt lat="45.18526" lon="5.90821">
        <ele>1271.2</ele>
        <time>2021-02-20T15:21:13Z</time>
      </trkpt>
      <trkpt lat="45.18526" lon="5.9082">
        <ele>1271</ele>
        <time>2021-02-20T15:21:14Z</time>
      </trkpt>
      <trkpt lat="45.18525" lon="5.90819">
        <ele>1270.8</ele>
        <time>2021-02-20T15:21:15Z</time>
      </trkpt>
      <trkpt lat="45.18524" lon="5.90818">
        <ele>1270.7</ele>
        <time>2021-02-20T15:21:16Z</time>
      </trkpt>
      <trkpt lat="45.18524" lon="5.90817">
        <ele>1270.5</ele>
        <time>2021-02-20T15:21:17Z</time>
      </trkpt>
      <trkpt lat="45.18523" lon="5.90816">
        <ele>1270.2</ele>
        <time>2021-02-20T15:21:18Z</time>
      </trkpt>
      <trkpt lat="45.18522" lon="5.90814">
        <ele>1270</ele>
        <time>2021-02-20T15:21:19Z</time>
      </trkpt>
      <trkpt lat="45.18521" lon="5.90812">
        <ele>1269.7</ele>
        <time>2021-02-20T15:21:20Z</time>
      </trkpt>
      <trkpt lat="45.1852" lon="5.90811">
        <ele>1269.4</ele>
        <time>2021-02-20T15:21:21Z</time>
      </trkpt>
      <trkpt lat="45.18519" lon="5.90809">
        <ele>1269.1</ele>
        <time>2021-02-20T15:21:22Z</time>
      </trkpt>
      <trkpt lat="45.18517" lon="5.90808">
        <ele>1268.8</ele>
        <time>2021-02-20T15:21:23Z</time>
      </trkpt>
      <trkpt lat="45.18516" lon="5.90807">
        <ele>1268.5</ele>
        <time>2021-02-20T15:21:24Z</time>
      </trkpt>
      <trkpt lat="45.18515" lon="5.90805">
        <ele>1268.2</ele>
        <time>2021-02-20T15:21:25Z</time>
      </trkpt>
      <trkpt lat="45.18514" lon="5.90803">
        <ele>1267.8</ele>
        <time>2021-02-20T15:21:26Z</time>
      </trkpt>
      <trkpt lat="45.18513" lon="5.90802">
        <ele>1267.6</ele>
        <time>2021-02-20T15:21:27Z</time>
      </trkpt>
      <trkpt lat="45.18511" lon="5.908">
        <ele>1267.1</ele>
        <time>2021-02-20T15:21:28Z</time>
      </trkpt>
      <trkpt lat="45.1851" lon="5.90799">
        <ele>1266.9</ele>
        <time>2021-02-20T15:21:29Z</time>
      </trkpt>
      <trkpt lat="45.18509" lon="5.90798">
        <ele>1266.7</ele>
        <time>2021-02-20T15:21:30Z</time>
      </trkpt>
      <trkpt lat="45.18508" lon="5.90797">
        <ele>1266.4</ele>
        <time>2021-02-20T15:21:31Z</time>
      </trkpt>
      <trkpt lat="45.18506" lon="5.90796">
        <ele>1266.1</ele>
        <time>2021-02-20T15:21:32Z</time>
      </trkpt>
      <trkpt lat="45.18505" lon="5.90795">
        <ele>1265.8</ele>
        <time>2021-02-20T15:21:33Z</time>
      </trkpt>
      <trkpt lat="45.18504" lon="5.90793">
        <ele>1265.5</ele>
        <time>2021-02-20T15:21:34Z</time>
      </trkpt>
      <trkpt lat="45.18503" lon="5.90792">
        <ele>1265.2</ele>
        <time>2021-02-20T15:21:35Z</time>
      </trkpt>
      <trkpt lat="45.18502" lon="5.90791">
        <ele>1264.8</ele>
        <time>2021-02-20T15:21:36Z</time>
      </trkpt>
      <trkpt lat="45.185" lon="5.90791">
        <ele>1264.5</ele>
        <time>2021-02-20T15:21:37Z</time>
      </trkpt>
      <trkpt lat="45.18498" lon="5.9079">
        <ele>1264.1</ele>
        <time>2021-02-20T15:21:38Z</time>
      </trkpt>
      <trkpt lat="45.18497" lon="5.90789">
        <ele>1263.7</ele>
        <time>2021-02-20T15:21:39Z</time>
      </trkpt>
      <trkpt lat="45.18496" lon="5.90789">
        <ele>1263.6</ele>
        <time>2021-02-20T15:21:40Z</time>
      </trkpt>
      <trkpt lat="45.18496" lon="5.90789">
        <ele>1263.5</ele>
        <time>2021-02-20T15:21:41Z</time>
      </trkpt>
      <trkpt lat="45.18495" lon="5.90788">
        <ele>1263.3</ele>
        <time>2021-02-20T15:21:42Z</time>
      </trkpt>
      <trkpt lat="45.18494" lon="5.90787">
        <ele>1263</ele>
        <time>2021-02-20T15:21:43Z</time>
      </trkpt>
      <trkpt lat="45.18493" lon="5.90786">
        <ele>1262.8</ele>
        <time>2021-02-20T15:21:44Z</time>
      </trkpt>
      <trkpt lat="45.18492" lon="5.90784">
        <ele>1262.3</ele>
        <time>2021-02-20T15:21:45Z</time>
      </trkpt>
      <trkpt lat="45.18491" lon="5.90783">
        <ele>1262</ele>
        <time>2021-02-20T15:21:46Z</time>
      </trkpt>
      <trkpt lat="45.1849" lon="5.90782">
        <ele>1261.8</ele>
        <time>2021-02-20T15:21:47Z</time>
      </trkpt>
      <trkpt lat="45.18489" lon="5.90778">
        <ele>1261.2</ele>
        <time>2021-02-20T15:21:48Z</time>
      </trkpt>
      <trkpt lat="45.18489" lon="5.90777">
        <ele>1260.9</ele>
        <time>2021-02-20T15:21:49Z</time>
      </trkpt>
      <trkpt lat="45.18487" lon="5.90773">
        <ele>1260.3</ele>
        <time>2021-02-20T15:21:50Z</time>
      </trkpt>
      <trkpt lat="45.18486" lon="5.90772">
        <ele>1260</ele>
        <time>2021-02-20T15:21:51Z</time>
      </trkpt>
      <trkpt lat="45.18484" lon="5.9077">
        <ele>1259.5</ele>
        <time>2021-02-20T15:21:52Z</time>
      </trkpt>
      <trkpt lat="45.18483" lon="5.90769">
        <ele>1259.3</ele>
        <time>2021-02-20T15:21:53Z</time>
      </trkpt>
      <trkpt lat="45.18483" lon="5.90768">
        <ele>1259.1</ele>
        <time>2021-02-20T15:21:54Z</time>
      </trkpt>
      <trkpt lat="45.18481" lon="5.90766">
        <ele>1258.5</ele>
        <time>2021-02-20T15:21:55Z</time>
      </trkpt>
      <trkpt lat="45.1848" lon="5.90765">
        <ele>1258.3</ele>
        <time>2021-02-20T15:21:56Z</time>
      </trkpt>
      <trkpt lat="45.18478" lon="5.90764">
        <ele>1257.9</ele>
        <time>2021-02-20T15:21:57Z</time>
      </trkpt>
      <trkpt lat="45.18477" lon="5.90763">
        <ele>1257.6</ele>
        <time>2021-02-20T15:21:58Z</time>
      </trkpt>
      <trkpt lat="45.18476" lon="5.90762">
        <ele>1257.4</ele>
        <time>2021-02-20T15:21:59Z</time>
      </trkpt>
      <trkpt lat="45.18475" lon="5.90761">
        <ele>1257.1</ele>
        <time>2021-02-20T15:22:00Z</time>
      </trkpt>
      <trkpt lat="45.18474" lon="5.9076">
        <ele>1257</ele>
        <time>2021-02-20T15:22:01Z</time>
      </trkpt>
      <trkpt lat="45.18472" lon="5.90758">
        <ele>1256.5</ele>
        <time>2021-02-20T15:22:02Z</time>
      </trkpt>
      <trkpt lat="45.18472" lon="5.90757">
        <ele>1256.3</ele>
        <time>2021-02-20T15:22:03Z</time>
      </trkpt>
      <trkpt lat="45.18471" lon="5.90756">
        <ele>1256.1</ele>
        <time>2021-02-20T15:22:04Z</time>
      </trkpt>
      <trkpt lat="45.1847" lon="5.90755">
        <ele>1255.8</ele>
        <time>2021-02-20T15:22:05Z</time>
      </trkpt>
      <trkpt lat="45.18469" lon="5.90754">
        <ele>1255.6</ele>
        <time>2021-02-20T15:22:06Z</time>
      </trkpt>
      <trkpt lat="45.18468" lon="5.90754">
        <ele>1255.4</ele>
        <time>2021-02-20T15:22:07Z</time>
      </trkpt>
      <trkpt lat="45.18466" lon="5.90753">
        <ele>1255</ele>
        <time>2021-02-20T15:22:08Z</time>
      </trkpt>
      <trkpt lat="45.18464" lon="5.90753">
        <ele>1254.7</ele>
        <time>2021-02-20T15:22:09Z</time>
      </trkpt>
      <trkpt lat="45.18463" lon="5.90752">
        <ele>1254.3</ele>
        <time>2021-02-20T15:22:10Z</time>
      </trkpt>
      <trkpt lat="45.18461" lon="5.9075">
        <ele>1254</ele>
        <time>2021-02-20T15:22:11Z</time>
      </trkpt>
      <trkpt lat="45.1846" lon="5.90749">
        <ele>1253.7</ele>
        <time>2021-02-20T15:22:12Z</time>
      </trkpt>
      <trkpt lat="45.18459" lon="5.90747">
        <ele>1253.3</ele>
        <time>2021-02-20T15:22:13Z</time>
      </trkpt>
      <trkpt lat="45.18457" lon="5.90746">
        <ele>1253</ele>
        <time>2021-02-20T15:22:14Z</time>
      </trkpt>
      <trkpt lat="45.18456" lon="5.90745">
        <ele>1252.7</ele>
        <time>2021-02-20T15:22:15Z</time>
      </trkpt>
      <trkpt lat="45.18455" lon="5.90744">
        <ele>1252.4</ele>
        <time>2021-02-20T15:22:16Z</time>
      </trkpt>
      <trkpt lat="45.18453" lon="5.90744">
        <ele>1252.1</ele>
        <time>2021-02-20T15:22:17Z</time>
      </trkpt>
      <trkpt lat="45.18453" lon="5.90743">
        <ele>1251.9</ele>
        <time>2021-02-20T15:22:18Z</time>
      </trkpt>
      <trkpt lat="45.18452" lon="5.90742">
        <ele>1251.7</ele>
        <time>2021-02-20T15:22:19Z</time>
      </trkpt>
      <trkpt lat="45.18451" lon="5.9074">
        <ele>1251.5</ele>
        <time>2021-02-20T15:22:20Z</time>
      </trkpt>
      <trkpt lat="45.18451" lon="5.90739">
        <ele>1251.3</ele>
        <time>2021-02-20T15:22:21Z</time>
      </trkpt>
      <trkpt lat="45.18451" lon="5.90738">
        <ele>1251.1</ele>
        <time>2021-02-20T15:22:22Z</time>
      </trkpt>
      <trkpt lat="45.1845" lon="5.90735">
        <ele>1250.7</ele>
        <time>2021-02-20T15:22:23Z</time>
      </trkpt>
      <trkpt lat="45.1845" lon="5.90734">
        <ele>1250.5</ele>
        <time>2021-02-20T15:22:24Z</time>
      </trkpt>
      <trkpt lat="45.1845" lon="5.90732">
        <ele>1250.4</ele>
        <time>2021-02-20T15:22:25Z</time>
      </trkpt>
      <trkpt lat="45.18449" lon="5.9073">
        <ele>1250</ele>
        <time>2021-02-20T15:22:26Z</time>
      </trkpt>
      <trkpt lat="45.18448" lon="5.90729">
        <ele>1249.7</ele>
        <time>2021-02-20T15:22:27Z</time>
      </trkpt>
      <trkpt lat="45.18448" lon="5.90728">
        <ele>1249.5</ele>
        <time>2021-02-20T15:22:28Z</time>
      </trkpt>
      <trkpt lat="45.18445" lon="5.90725">
        <ele>1249</ele>
        <time>2021-02-20T15:22:29Z</time>
      </trkpt>
      <trkpt lat="45.18445" lon="5.90724">
        <ele>1248.9</ele>
        <time>2021-02-20T15:22:30Z</time>
      </trkpt>
      <trkpt lat="45.18444" lon="5.90723">
        <ele>1248.6</ele>
        <time>2021-02-20T15:22:31Z</time>
      </trkpt>
      <trkpt lat="45.18443" lon="5.90721">
        <ele>1248.3</ele>
        <time>2021-02-20T15:22:32Z</time>
      </trkpt>
      <trkpt lat="45.18442" lon="5.90719">
        <ele>1248.1</ele>
        <time>2021-02-20T15:22:33Z</time>
      </trkpt>
      <trkpt lat="45.18441" lon="5.90718">
        <ele>1247.9</ele>
        <time>2021-02-20T15:22:34Z</time>
      </trkpt>
      <trkpt lat="45.1844" lon="5.90717">
        <ele>1247.7</ele>
        <time>2021-02-20T15:22:35Z</time>
      </trkpt>
      <trkpt lat="45.1844" lon="5.90717">
        <ele>1247.6</ele>
        <time>2021-02-20T15:22:36Z</time>
      </trkpt>
      <trkpt lat="45.18439" lon="5.90715">
        <ele>1247.4</ele>
        <time>2021-02-20T15:22:37Z</time>
      </trkpt>
      <trkpt lat="45.18438" lon="5.90714">
        <ele>1247.2</ele>
        <time>2021-02-20T15:22:38Z</time>
      </trkpt>
      <trkpt lat="45.18437" lon="5.90712">
        <ele>1246.9</ele>
        <time>2021-02-20T15:22:39Z</time>
      </trkpt>
      <trkpt lat="45.18436" lon="5.90711">
        <ele>1246.7</ele>
        <time>2021-02-20T15:22:40Z</time>
      </trkpt>
      <trkpt lat="45.18435" lon="5.9071">
        <ele>1246.5</ele>
        <time>2021-02-20T15:22:41Z</time>
      </trkpt>
      <trkpt lat="45.18434" lon="5.90709">
        <ele>1246.2</ele>
        <time>2021-02-20T15:22:42Z</time>
      </trkpt>
      <trkpt lat="45.18433" lon="5.90708">
        <ele>1246</ele>
        <time>2021-02-20T15:22:43Z</time>
      </trkpt>
      <trkpt lat="45.18432" lon="5.90707">
        <ele>1245.9</ele>
        <time>2021-02-20T15:22:44Z</time>
      </trkpt>
      <trkpt lat="45.18432" lon="5.90705">
        <ele>1245.7</ele>
        <time>2021-02-20T15:22:45Z</time>
      </trkpt>
      <trkpt lat="45.18431" lon="5.90704">
        <ele>1245.6</ele>
        <time>2021-02-20T15:22:46Z</time>
      </trkpt>
      <trkpt lat="45.18431" lon="5.90704">
        <ele>1245.5</ele>
        <time>2021-02-20T15:22:47Z</time>
      </trkpt>
      <trkpt lat="45.1843" lon="5.90702">
        <ele>1245.3</ele>
        <time>2021-02-20T15:22:48Z</time>
      </trkpt>
      <trkpt lat="45.18429" lon="5.90701">
        <ele>1245.1</ele>
        <time>2021-02-20T15:22:49Z</time>
      </trkpt>
      <trkpt lat="45.18428" lon="5.90699">
        <ele>1244.5</ele>
        <time>2021-02-20T15:22:50Z</time>
      </trkpt>
      <trkpt lat="45.18428" lon="5.90697">
        <ele>1244.3</ele>
        <time>2021-02-20T15:22:51Z</time>
      </trkpt>
      <trkpt lat="45.18427" lon="5.90695">
        <ele>1244.1</ele>
        <time>2021-02-20T15:22:52Z</time>
      </trkpt>
      <trkpt lat="45.18427" lon="5.90694">
        <ele>1244</ele>
        <time>2021-02-20T15:22:53Z</time>
      </trkpt>
      <trkpt lat="45.18427" lon="5.90693">
        <ele>1243.9</ele>
        <time>2021-02-20T15:22:54Z</time>
      </trkpt>
      <trkpt lat="45.18427" lon="5.90692">
        <ele>1243.8</ele>
        <time>2021-02-20T15:22:55Z</time>
      </trkpt>
      <trkpt lat="45.18427" lon="5.9069">
        <ele>1243.7</ele>
        <time>2021-02-20T15:22:56Z</time>
      </trkpt>
      <trkpt lat="45.18427" lon="5.90689">
        <ele>1243.5</ele>
        <time>2021-02-20T15:22:57Z</time>
      </trkpt>
      <trkpt lat="45.18428" lon="5.90688">
        <ele>1243.4</ele>
        <time>2021-02-20T15:22:58Z</time>
      </trkpt>
      <trkpt lat="45.18428" lon="5.90687">
        <ele>1243.3</ele>
        <time>2021-02-20T15:22:59Z</time>
      </trkpt>
      <trkpt lat="45.18429" lon="5.90686">
        <ele>1243.2</ele>
        <time>2021-02-20T15:23:00Z</time>
      </trkpt>
      <trkpt lat="45.1843" lon="5.90685">
        <ele>1243.1</ele>
        <time>2021-02-20T15:23:01Z</time>
      </trkpt>
      <trkpt lat="45.18431" lon="5.90683">
        <ele>1242.9</ele>
        <time>2021-02-20T15:23:02Z</time>
      </trkpt>
      <trkpt lat="45.18432" lon="5.90681">
        <ele>1242.8</ele>
        <time>2021-02-20T15:23:03Z</time>
      </trkpt>
      <trkpt lat="45.18434" lon="5.90679">
        <ele>1242.5</ele>
        <time>2021-02-20T15:23:04Z</time>
      </trkpt>
      <trkpt lat="45.18434" lon="5.90678">
        <ele>1242.4</ele>
        <time>2021-02-20T15:23:05Z</time>
      </trkpt>
      <trkpt lat="45.18436" lon="5.90678">
        <ele>1242.3</ele>
        <time>2021-02-20T15:23:06Z</time>
      </trkpt>
      <trkpt lat="45.18437" lon="5.90677">
        <ele>1242.2</ele>
        <time>2021-02-20T15:23:07Z</time>
      </trkpt>
      <trkpt lat="45.18437" lon="5.90678">
        <ele>1242.1</ele>
        <time>2021-02-20T15:23:08Z</time>
      </trkpt>
      <trkpt lat="45.18437" lon="5.90677">
        <ele>1242.1</ele>
        <time>2021-02-20T15:23:09Z</time>
      </trkpt>
      <trkpt lat="45.18438" lon="5.90676">
        <ele>1242</ele>
        <time>2021-02-20T15:23:10Z</time>
      </trkpt>
      <trkpt lat="45.1844" lon="5.90675">
        <ele>1241.8</ele>
        <time>2021-02-20T15:23:11Z</time>
      </trkpt>
      <trkpt lat="45.18441" lon="5.90673">
        <ele>1241.6</ele>
        <time>2021-02-20T15:23:12Z</time>
      </trkpt>
      <trkpt lat="45.18443" lon="5.90672">
        <ele>1241.5</ele>
        <time>2021-02-20T15:23:13Z</time>
      </trkpt>
      <trkpt lat="45.18444" lon="5.9067">
        <ele>1241.4</ele>
        <time>2021-02-20T15:23:14Z</time>
      </trkpt>
      <trkpt lat="45.18444" lon="5.90669">
        <ele>1241.3</ele>
        <time>2021-02-20T15:23:15Z</time>
      </trkpt>
      <trkpt lat="45.18445" lon="5.90667">
        <ele>1241.1</ele>
        <time>2021-02-20T15:23:16Z</time>
      </trkpt>
      <trkpt lat="45.18446" lon="5.90665">
        <ele>1241</ele>
        <time>2021-02-20T15:23:17Z</time>
      </trkpt>
      <trkpt lat="45.18447" lon="5.90664">
        <ele>1240.8</ele>
        <time>2021-02-20T15:23:18Z</time>
      </trkpt>
      <trkpt lat="45.18448" lon="5.90664">
        <ele>1240.7</ele>
        <time>2021-02-20T15:23:19Z</time>
      </trkpt>
      <trkpt lat="45.18448" lon="5.90663">
        <ele>1240.6</ele>
        <time>2021-02-20T15:23:20Z</time>
      </trkpt>
      <trkpt lat="45.18449" lon="5.90662">
        <ele>1240.5</ele>
        <time>2021-02-20T15:23:21Z</time>
      </trkpt>
      <trkpt lat="45.18449" lon="5.90661">
        <ele>1240.5</ele>
        <time>2021-02-20T15:23:22Z</time>
      </trkpt>
      <trkpt lat="45.18449" lon="5.9066">
        <ele>1240.4</ele>
        <time>2021-02-20T15:23:23Z</time>
      </trkpt>
      <trkpt lat="45.1845" lon="5.90658">
        <ele>1240.2</ele>
        <time>2021-02-20T15:23:24Z</time>
      </trkpt>
      <trkpt lat="45.1845" lon="5.90656">
        <ele>1240</ele>
        <time>2021-02-20T15:23:25Z</time>
      </trkpt>
      <trkpt lat="45.1845" lon="5.90654">
        <ele>1239.8</ele>
        <time>2021-02-20T15:23:26Z</time>
      </trkpt>
      <trkpt lat="45.1845" lon="5.90651">
        <ele>1239.6</ele>
        <time>2021-02-20T15:23:27Z</time>
      </trkpt>
      <trkpt lat="45.18451" lon="5.9065">
        <ele>1239.5</ele>
        <time>2021-02-20T15:23:28Z</time>
      </trkpt>
      <trkpt lat="45.18451" lon="5.90649">
        <ele>1239.3</ele>
        <time>2021-02-20T15:23:29Z</time>
      </trkpt>
      <trkpt lat="45.18451" lon="5.90647">
        <ele>1239.2</ele>
        <time>2021-02-20T15:23:30Z</time>
      </trkpt>
      <trkpt lat="45.18452" lon="5.90645">
        <ele>1239</ele>
        <time>2021-02-20T15:23:31Z</time>
      </trkpt>
      <trkpt lat="45.18453" lon="5.90644">
        <ele>1238.8</ele>
        <time>2021-02-20T15:23:32Z</time>
      </trkpt>
      <trkpt lat="45.18454" lon="5.90643">
        <ele>1238.7</ele>
        <time>2021-02-20T15:23:33Z</time>
      </trkpt>
      <trkpt lat="45.18454" lon="5.90642">
        <ele>1238.5</ele>
        <time>2021-02-20T15:23:34Z</time>
      </trkpt>
      <trkpt lat="45.18455" lon="5.90642">
        <ele>1238.5</ele>
        <time>2021-02-20T15:23:35Z</time>
      </trkpt>
      <trkpt lat="45.18455" lon="5.90641">
        <ele>1238.4</ele>
        <time>2021-02-20T15:23:36Z</time>
      </trkpt>
      <trkpt lat="45.18456" lon="5.9064">
        <ele>1238.2</ele>
        <time>2021-02-20T15:23:37Z</time>
      </trkpt>
      <trkpt lat="45.18457" lon="5.90639">
        <ele>1238</ele>
        <time>2021-02-20T15:23:38Z</time>
      </trkpt>
      <trkpt lat="45.18458" lon="5.90638">
        <ele>1237.9</ele>
        <time>2021-02-20T15:23:39Z</time>
      </trkpt>
      <trkpt lat="45.18459" lon="5.90637">
        <ele>1237.7</ele>
        <time>2021-02-20T15:23:40Z</time>
      </trkpt>
      <trkpt lat="45.1846" lon="5.90636">
        <ele>1237.6</ele>
        <time>2021-02-20T15:23:41Z</time>
      </trkpt>
      <trkpt lat="45.1846" lon="5.90634">
        <ele>1237.4</ele>
        <time>2021-02-20T15:23:42Z</time>
      </trkpt>
      <trkpt lat="45.1846" lon="5.90633">
        <ele>1237.2</ele>
        <time>2021-02-20T15:23:43Z</time>
      </trkpt>
      <trkpt lat="45.18462" lon="5.90632">
        <ele>1236.9</ele>
        <time>2021-02-20T15:23:44Z</time>
      </trkpt>
      <trkpt lat="45.18463" lon="5.90632">
        <ele>1236.8</ele>
        <time>2021-02-20T15:23:45Z</time>
      </trkpt>
      <trkpt lat="45.18464" lon="5.90632">
        <ele>1236.6</ele>
        <time>2021-02-20T15:23:46Z</time>
      </trkpt>
      <trkpt lat="45.18465" lon="5.90631">
        <ele>1236.4</ele>
        <time>2021-02-20T15:23:47Z</time>
      </trkpt>
      <trkpt lat="45.18466" lon="5.90631">
        <ele>1236.3</ele>
        <time>2021-02-20T15:23:48Z</time>
      </trkpt>
      <trkpt lat="45.18467" lon="5.9063">
        <ele>1236.1</ele>
        <time>2021-02-20T15:23:49Z</time>
      </trkpt>
      <trkpt lat="45.18469" lon="5.90629">
        <ele>1235.8</ele>
        <time>2021-02-20T15:23:50Z</time>
      </trkpt>
      <trkpt lat="45.1847" lon="5.90629">
        <ele>1235.5</ele>
        <time>2021-02-20T15:23:51Z</time>
      </trkpt>
      <trkpt lat="45.18472" lon="5.90628">
        <ele>1235.2</ele>
        <time>2021-02-20T15:23:52Z</time>
      </trkpt>
      <trkpt lat="45.18473" lon="5.90628">
        <ele>1235</ele>
        <time>2021-02-20T15:23:53Z</time>
      </trkpt>
      <trkpt lat="45.18477" lon="5.90628">
        <ele>1234.3</ele>
        <time>2021-02-20T15:23:54Z</time>
      </trkpt>
      <trkpt lat="45.18478" lon="5.90628">
        <ele>1234.1</ele>
        <time>2021-02-20T15:23:55Z</time>
      </trkpt>
      <trkpt lat="45.1848" lon="5.90627">
        <ele>1233.7</ele>
        <time>2021-02-20T15:23:56Z</time>
      </trkpt>
      <trkpt lat="45.18481" lon="5.90627">
        <ele>1233.4</ele>
        <time>2021-02-20T15:23:57Z</time>
      </trkpt>
      <trkpt lat="45.18483" lon="5.90626">
        <ele>1233.1</ele>
        <time>2021-02-20T15:23:58Z</time>
      </trkpt>
      <trkpt lat="45.18484" lon="5.90626">
        <ele>1232.8</ele>
        <time>2021-02-20T15:23:59Z</time>
      </trkpt>
      <trkpt lat="45.18486" lon="5.90625">
        <ele>1232.4</ele>
        <time>2021-02-20T15:24:00Z</time>
      </trkpt>
      <trkpt lat="45.18487" lon="5.90624">
        <ele>1232.1</ele>
        <time>2021-02-20T15:24:01Z</time>
      </trkpt>
      <trkpt lat="45.18488" lon="5.90623">
        <ele>1231.9</ele>
        <time>2021-02-20T15:24:02Z</time>
      </trkpt>
      <trkpt lat="45.18488" lon="5.90623">
        <ele>1231.7</ele>
        <time>2021-02-20T15:24:03Z</time>
      </trkpt>
      <trkpt lat="45.18488" lon="5.90622">
        <ele>1231.7</ele>
        <time>2021-02-20T15:24:04Z</time>
      </trkpt>
      <trkpt lat="45.18488" lon="5.90622">
        <ele>1231.7</ele>
        <time>2021-02-20T15:24:05Z</time>
      </trkpt>
      <trkpt lat="45.18488" lon="5.90622">
        <ele>1231.7</ele>
        <time>2021-02-20T15:24:06Z</time>
      </trkpt>
      <trkpt lat="45.18488" lon="5.90623">
        <ele>1231.6</ele>
        <time>2021-02-20T15:24:07Z</time>
      </trkpt>
      <trkpt lat="45.18488" lon="5.90623">
        <ele>1231.6</ele>
        <time>2021-02-20T15:24:08Z</time>
      </trkpt>
      <trkpt lat="45.18488" lon="5.90623">
        <ele>1231.6</ele>
        <time>2021-02-20T15:24:09Z</time>
      </trkpt>
      <trkpt lat="45.18488" lon="5.90623">
        <ele>1231.6</ele>
        <time>2021-02-20T15:24:10Z</time>
      </trkpt>
      <trkpt lat="45.18488" lon="5.90623">
        <ele>1231.6</ele>
        <time>2021-02-20T15:24:11Z</time>
      </trkpt>
      <trkpt lat="45.18488" lon="5.90623">
        <ele>1231.6</ele>
        <time>2021-02-20T15:24:12Z</time>
      </trkpt>
      <trkpt lat="45.18488" lon="5.90623">
        <ele>1231.6</ele>
        <time>2021-02-20T15:24:13Z</time>
      </trkpt>
      <trkpt lat="45.18488" lon="5.90623">
        <ele>1231.6</ele>
        <time>2021-02-20T15:24:14Z</time>
      </trkpt>
      <trkpt lat="45.18488" lon="5.90623">
        <ele>1231.6</ele>
        <time>2021-02-20T15:24:15Z</time>
      </trkpt>
      <trkpt lat="45.18488" lon="5.90623">
        <ele>1231.6</ele>
        <time>2021-02-20T15:24:16Z</time>
      </trkpt>
      <trkpt lat="45.18488" lon="5.90623">
        <ele>1231.6</ele>
        <time>2021-02-20T15:24:17Z</time>
      </trkpt>
      <trkpt lat="45.18488" lon="5.90623">
        <ele>1231.6</ele>
        <time>2021-02-20T15:24:18Z</time>
      </trkpt>
      <trkpt lat="45.18488" lon="5.90623">
        <ele>1231.6</ele>
        <time>2021-02-20T15:24:19Z</time>
      </trkpt>
      <trkpt lat="45.18488" lon="5.90623">
        <ele>1231.6</ele>
        <time>2021-02-20T15:24:20Z</time>
      </trkpt>
      <trkpt lat="45.18488" lon="5.90623">
        <ele>1231.6</ele>
        <time>2021-02-20T15:24:21Z</time>
      </trkpt>
      <trkpt lat="45.18488" lon="5.90623">
        <ele>1231.6</ele>
        <time>2021-02-20T15:24:22Z</time>
      </trkpt>
      <trkpt lat="45.18488" lon="5.90623">
        <ele>1231.6</ele>
        <time>2021-02-20T15:24:23Z</time>
      </trkpt>
      <trkpt lat="45.18488" lon="5.90623">
        <ele>1231.6</ele>
        <time>2021-02-20T15:24:24Z</time>
      </trkpt>
      <trkpt lat="45.18488" lon="5.90623">
        <ele>1231.6</ele>
        <time>2021-02-20T15:24:25Z</time>
      </trkpt>
      <trkpt lat="45.18484" lon="5.90625">
        <ele>1230.5</ele>
        <time>2021-02-20T15:24:26Z</time>
      </trkpt>
      <trkpt lat="45.18484" lon="5.90624">
        <ele>1230.3</ele>
        <time>2021-02-20T15:24:27Z</time>
      </trkpt>
      <trkpt lat="45.18483" lon="5.90623">
        <ele>1230.1</ele>
        <time>2021-02-20T15:24:28Z</time>
      </trkpt>
      <trkpt lat="45.18484" lon="5.90622">
        <ele>1229.8</ele>
        <time>2021-02-20T15:24:29Z</time>
      </trkpt>
      <trkpt lat="45.18485" lon="5.90621">
        <ele>1229.4</ele>
        <time>2021-02-20T15:24:30Z</time>
      </trkpt>
      <trkpt lat="45.18486" lon="5.90619">
        <ele>1229</ele>
        <time>2021-02-20T15:24:31Z</time>
      </trkpt>
      <trkpt lat="45.18487" lon="5.90618">
        <ele>1228.6</ele>
        <time>2021-02-20T15:24:32Z</time>
      </trkpt>
      <trkpt lat="45.18488" lon="5.90616">
        <ele>1228.2</ele>
        <time>2021-02-20T15:24:33Z</time>
      </trkpt>
      <trkpt lat="45.18489" lon="5.90615">
        <ele>1227.8</ele>
        <time>2021-02-20T15:24:34Z</time>
      </trkpt>
      <trkpt lat="45.1849" lon="5.90613">
        <ele>1227.4</ele>
        <time>2021-02-20T15:24:35Z</time>
      </trkpt>
      <trkpt lat="45.18491" lon="5.90611">
        <ele>1227</ele>
        <time>2021-02-20T15:24:36Z</time>
      </trkpt>
      <trkpt lat="45.18492" lon="5.90609">
        <ele>1226.6</ele>
        <time>2021-02-20T15:24:37Z</time>
      </trkpt>
      <trkpt lat="45.18492" lon="5.90608">
        <ele>1226.3</ele>
        <time>2021-02-20T15:24:38Z</time>
      </trkpt>
      <trkpt lat="45.18492" lon="5.90606">
        <ele>1226</ele>
        <time>2021-02-20T15:24:39Z</time>
      </trkpt>
      <trkpt lat="45.18493" lon="5.90605">
        <ele>1225.7</ele>
        <time>2021-02-20T15:24:40Z</time>
      </trkpt>
      <trkpt lat="45.18494" lon="5.90604">
        <ele>1225.5</ele>
        <time>2021-02-20T15:24:41Z</time>
      </trkpt>
      <trkpt lat="45.18495" lon="5.90603">
        <ele>1225.2</ele>
        <time>2021-02-20T15:24:42Z</time>
      </trkpt>
      <trkpt lat="45.18496" lon="5.90603">
        <ele>1224.8</ele>
        <time>2021-02-20T15:24:43Z</time>
      </trkpt>
      <trkpt lat="45.18497" lon="5.90602">
        <ele>1224.4</ele>
        <time>2021-02-20T15:24:44Z</time>
      </trkpt>
      <trkpt lat="45.185" lon="5.906">
        <ele>1223.6</ele>
        <time>2021-02-20T15:24:45Z</time>
      </trkpt>
      <trkpt lat="45.18501" lon="5.906">
        <ele>1223.4</ele>
        <time>2021-02-20T15:24:46Z</time>
      </trkpt>
      <trkpt lat="45.18503" lon="5.906">
        <ele>1222.9</ele>
        <time>2021-02-20T15:24:47Z</time>
      </trkpt>
      <trkpt lat="45.18504" lon="5.90599">
        <ele>1222.5</ele>
        <time>2021-02-20T15:24:48Z</time>
      </trkpt>
      <trkpt lat="45.18506" lon="5.90599">
        <ele>1222</ele>
        <time>2021-02-20T15:24:49Z</time>
      </trkpt>
      <trkpt lat="45.18508" lon="5.90599">
        <ele>1221.6</ele>
        <time>2021-02-20T15:24:50Z</time>
      </trkpt>
      <trkpt lat="45.18508" lon="5.90598">
        <ele>1221.3</ele>
        <time>2021-02-20T15:24:51Z</time>
      </trkpt>
      <trkpt lat="45.18509" lon="5.90597">
        <ele>1221</ele>
        <time>2021-02-20T15:24:52Z</time>
      </trkpt>
      <trkpt lat="45.1851" lon="5.90595">
        <ele>1220.7</ele>
        <time>2021-02-20T15:24:53Z</time>
      </trkpt>
      <trkpt lat="45.1851" lon="5.90594">
        <ele>1220.3</ele>
        <time>2021-02-20T15:24:54Z</time>
      </trkpt>
      <trkpt lat="45.18511" lon="5.90592">
        <ele>1219.9</ele>
        <time>2021-02-20T15:24:55Z</time>
      </trkpt>
      <trkpt lat="45.18512" lon="5.90591">
        <ele>1219.6</ele>
        <time>2021-02-20T15:24:56Z</time>
      </trkpt>
      <trkpt lat="45.18513" lon="5.90589">
        <ele>1219.3</ele>
        <time>2021-02-20T15:24:57Z</time>
      </trkpt>
      <trkpt lat="45.18514" lon="5.90589">
        <ele>1219</ele>
        <time>2021-02-20T15:24:58Z</time>
      </trkpt>
      <trkpt lat="45.18515" lon="5.90588">
        <ele>1218.8</ele>
        <time>2021-02-20T15:24:59Z</time>
      </trkpt>
      <trkpt lat="45.18516" lon="5.90588">
        <ele>1218.5</ele>
        <time>2021-02-20T15:25:00Z</time>
      </trkpt>
      <trkpt lat="45.18517" lon="5.90588">
        <ele>1217.4</ele>
        <time>2021-02-20T15:25:01Z</time>
      </trkpt>
      <trkpt lat="45.1852" lon="5.90587">
        <ele>1217.1</ele>
        <time>2021-02-20T15:25:02Z</time>
      </trkpt>
      <trkpt lat="45.18521" lon="5.90586">
        <ele>1216.9</ele>
        <time>2021-02-20T15:25:03Z</time>
      </trkpt>
      <trkpt lat="45.18524" lon="5.90586">
        <ele>1216.5</ele>
        <time>2021-02-20T15:25:04Z</time>
      </trkpt>
      <trkpt lat="45.18525" lon="5.90586">
        <ele>1216.4</ele>
        <time>2021-02-20T15:25:05Z</time>
      </trkpt>
      <trkpt lat="45.18527" lon="5.90586">
        <ele>1216.1</ele>
        <time>2021-02-20T15:25:06Z</time>
      </trkpt>
      <trkpt lat="45.18529" lon="5.90585">
        <ele>1215.9</ele>
        <time>2021-02-20T15:25:07Z</time>
      </trkpt>
      <trkpt lat="45.1853" lon="5.90584">
        <ele>1215.7</ele>
        <time>2021-02-20T15:25:08Z</time>
      </trkpt>
      <trkpt lat="45.1853" lon="5.90584">
        <ele>1215.7</ele>
        <time>2021-02-20T15:25:09Z</time>
      </trkpt>
      <trkpt lat="45.18532" lon="5.90584">
        <ele>1215.6</ele>
        <time>2021-02-20T15:25:10Z</time>
      </trkpt>
      <trkpt lat="45.18534" lon="5.90583">
        <ele>1215.3</ele>
        <time>2021-02-20T15:25:11Z</time>
      </trkpt>
      <trkpt lat="45.18534" lon="5.90582">
        <ele>1215.2</ele>
        <time>2021-02-20T15:25:12Z</time>
      </trkpt>
      <trkpt lat="45.18535" lon="5.90581">
        <ele>1215</ele>
        <time>2021-02-20T15:25:13Z</time>
      </trkpt>
      <trkpt lat="45.18537" lon="5.9058">
        <ele>1214.8</ele>
        <time>2021-02-20T15:25:14Z</time>
      </trkpt>
      <trkpt lat="45.18538" lon="5.90579">
        <ele>1214.6</ele>
        <time>2021-02-20T15:25:15Z</time>
      </trkpt>
      <trkpt lat="45.1854" lon="5.90578">
        <ele>1214.4</ele>
        <time>2021-02-20T15:25:16Z</time>
      </trkpt>
      <trkpt lat="45.18541" lon="5.90578">
        <ele>1214.3</ele>
        <time>2021-02-20T15:25:17Z</time>
      </trkpt>
      <trkpt lat="45.18542" lon="5.90577">
        <ele>1214.2</ele>
        <time>2021-02-20T15:25:18Z</time>
      </trkpt>
      <trkpt lat="45.18542" lon="5.90577">
        <ele>1214.1</ele>
        <time>2021-02-20T15:25:19Z</time>
      </trkpt>
      <trkpt lat="45.18543" lon="5.90577">
        <ele>1214</ele>
        <time>2021-02-20T15:25:20Z</time>
      </trkpt>
      <trkpt lat="45.18544" lon="5.90576">
        <ele>1213.9</ele>
        <time>2021-02-20T15:25:21Z</time>
      </trkpt>
      <trkpt lat="45.18546" lon="5.90575">
        <ele>1213.7</ele>
        <time>2021-02-20T15:25:22Z</time>
      </trkpt>
      <trkpt lat="45.18547" lon="5.90573">
        <ele>1213.5</ele>
        <time>2021-02-20T15:25:23Z</time>
      </trkpt>
      <trkpt lat="45.18547" lon="5.90571">
        <ele>1213.3</ele>
        <time>2021-02-20T15:25:24Z</time>
      </trkpt>
      <trkpt lat="45.18548" lon="5.9057">
        <ele>1213.1</ele>
        <time>2021-02-20T15:25:25Z</time>
      </trkpt>
      <trkpt lat="45.18548" lon="5.90568">
        <ele>1213</ele>
        <time>2021-02-20T15:25:26Z</time>
      </trkpt>
      <trkpt lat="45.18549" lon="5.90566">
        <ele>1212.8</ele>
        <time>2021-02-20T15:25:27Z</time>
      </trkpt>
      <trkpt lat="45.1855" lon="5.90564">
        <ele>1212.6</ele>
        <time>2021-02-20T15:25:28Z</time>
      </trkpt>
      <trkpt lat="45.1855" lon="5.90564">
        <ele>1212.5</ele>
        <time>2021-02-20T15:25:29Z</time>
      </trkpt>
      <trkpt lat="45.18551" lon="5.90562">
        <ele>1212.4</ele>
        <time>2021-02-20T15:25:30Z</time>
      </trkpt>
      <trkpt lat="45.18552" lon="5.90562">
        <ele>1212.3</ele>
        <time>2021-02-20T15:25:31Z</time>
      </trkpt>
      <trkpt lat="45.18553" lon="5.90561">
        <ele>1212.2</ele>
        <time>2021-02-20T15:25:32Z</time>
      </trkpt>
      <trkpt lat="45.18554" lon="5.9056">
        <ele>1212</ele>
        <time>2021-02-20T15:25:33Z</time>
      </trkpt>
      <trkpt lat="45.18557" lon="5.9056">
        <ele>1211.7</ele>
        <time>2021-02-20T15:25:34Z</time>
      </trkpt>
      <trkpt lat="45.18558" lon="5.9056">
        <ele>1211.6</ele>
        <time>2021-02-20T15:25:35Z</time>
      </trkpt>
      <trkpt lat="45.18561" lon="5.90559">
        <ele>1211.1</ele>
        <time>2021-02-20T15:25:36Z</time>
      </trkpt>
      <trkpt lat="45.18562" lon="5.90558">
        <ele>1211</ele>
        <time>2021-02-20T15:25:37Z</time>
      </trkpt>
      <trkpt lat="45.18565" lon="5.90555">
        <ele>1210.6</ele>
        <time>2021-02-20T15:25:38Z</time>
      </trkpt>
      <trkpt lat="45.18566" lon="5.90554">
        <ele>1210.5</ele>
        <time>2021-02-20T15:25:39Z</time>
      </trkpt>
      <trkpt lat="45.18568" lon="5.90551">
        <ele>1210.1</ele>
        <time>2021-02-20T15:25:40Z</time>
      </trkpt>
      <trkpt lat="45.18568" lon="5.9055">
        <ele>1210</ele>
        <time>2021-02-20T15:25:41Z</time>
      </trkpt>
      <trkpt lat="45.1857" lon="5.90547">
        <ele>1209.7</ele>
        <time>2021-02-20T15:25:42Z</time>
      </trkpt>
      <trkpt lat="45.18571" lon="5.90546">
        <ele>1209.6</ele>
        <time>2021-02-20T15:25:43Z</time>
      </trkpt>
      <trkpt lat="45.18573" lon="5.90544">
        <ele>1209.3</ele>
        <time>2021-02-20T15:25:44Z</time>
      </trkpt>
      <trkpt lat="45.18574" lon="5.90544">
        <ele>1209.2</ele>
        <time>2021-02-20T15:25:45Z</time>
      </trkpt>
      <trkpt lat="45.18577" lon="5.90542">
        <ele>1208.9</ele>
        <time>2021-02-20T15:25:46Z</time>
      </trkpt>
      <trkpt lat="45.18578" lon="5.90542">
        <ele>1208.8</ele>
        <time>2021-02-20T15:25:47Z</time>
      </trkpt>
      <trkpt lat="45.18579" lon="5.90541">
        <ele>1208.6</ele>
        <time>2021-02-20T15:25:48Z</time>
      </trkpt>
      <trkpt lat="45.18581" lon="5.9054">
        <ele>1208.4</ele>
        <time>2021-02-20T15:25:49Z</time>
      </trkpt>
      <trkpt lat="45.18582" lon="5.90539">
        <ele>1208.3</ele>
        <time>2021-02-20T15:25:50Z</time>
      </trkpt>
      <trkpt lat="45.18584" lon="5.90537">
        <ele>1208.1</ele>
        <time>2021-02-20T15:25:51Z</time>
      </trkpt>
      <trkpt lat="45.18587" lon="5.90535">
        <ele>1207.7</ele>
        <time>2021-02-20T15:25:52Z</time>
      </trkpt>
      <trkpt lat="45.18588" lon="5.90534">
        <ele>1207.6</ele>
        <time>2021-02-20T15:25:53Z</time>
      </trkpt>
      <trkpt lat="45.1859" lon="5.90532">
        <ele>1207.3</ele>
        <time>2021-02-20T15:25:54Z</time>
      </trkpt>
      <trkpt lat="45.18593" lon="5.9053">
        <ele>1206.9</ele>
        <time>2021-02-20T15:25:55Z</time>
      </trkpt>
      <trkpt lat="45.18594" lon="5.90529">
        <ele>1206.9</ele>
        <time>2021-02-20T15:25:56Z</time>
      </trkpt>
      <trkpt lat="45.18594" lon="5.90527">
        <ele>1206.7</ele>
        <time>2021-02-20T15:25:57Z</time>
      </trkpt>
      <trkpt lat="45.18595" lon="5.90525">
        <ele>1206.6</ele>
        <time>2021-02-20T15:25:58Z</time>
      </trkpt>
      <trkpt lat="45.18595" lon="5.90522">
        <ele>1206.4</ele>
        <time>2021-02-20T15:25:59Z</time>
      </trkpt>
      <trkpt lat="45.18596" lon="5.90521">
        <ele>1206.3</ele>
        <time>2021-02-20T15:26:00Z</time>
      </trkpt>
      <trkpt lat="45.18596" lon="5.9052">
        <ele>1206.2</ele>
        <time>2021-02-20T15:26:01Z</time>
      </trkpt>
      <trkpt lat="45.18598" lon="5.90516">
        <ele>1205.8</ele>
        <time>2021-02-20T15:26:02Z</time>
      </trkpt>
      <trkpt lat="45.18598" lon="5.90515">
        <ele>1205.8</ele>
        <time>2021-02-20T15:26:03Z</time>
      </trkpt>
      <trkpt lat="45.18599" lon="5.90513">
        <ele>1205.6</ele>
        <time>2021-02-20T15:26:04Z</time>
      </trkpt>
      <trkpt lat="45.186" lon="5.90512">
        <ele>1205.4</ele>
        <time>2021-02-20T15:26:05Z</time>
      </trkpt>
      <trkpt lat="45.18602" lon="5.90509">
        <ele>1205.1</ele>
        <time>2021-02-20T15:26:06Z</time>
      </trkpt>
      <trkpt lat="45.18602" lon="5.90508">
        <ele>1205</ele>
        <time>2021-02-20T15:26:07Z</time>
      </trkpt>
      <trkpt lat="45.18602" lon="5.90506">
        <ele>1204.9</ele>
        <time>2021-02-20T15:26:08Z</time>
      </trkpt>
      <trkpt lat="45.18603" lon="5.90505">
        <ele>1204.8</ele>
        <time>2021-02-20T15:26:09Z</time>
      </trkpt>
      <trkpt lat="45.18603" lon="5.90504">
        <ele>1204.7</ele>
        <time>2021-02-20T15:26:10Z</time>
      </trkpt>
      <trkpt lat="45.18603" lon="5.90502">
        <ele>1204.5</ele>
        <time>2021-02-20T15:26:11Z</time>
      </trkpt>
      <trkpt lat="45.18603" lon="5.90499">
        <ele>1204.4</ele>
        <time>2021-02-20T15:26:12Z</time>
      </trkpt>
      <trkpt lat="45.18603" lon="5.90497">
        <ele>1204.2</ele>
        <time>2021-02-20T15:26:13Z</time>
      </trkpt>
      <trkpt lat="45.18603" lon="5.90494">
        <ele>1204</ele>
        <time>2021-02-20T15:26:14Z</time>
      </trkpt>
      <trkpt lat="45.18603" lon="5.90492">
        <ele>1203.8</ele>
        <time>2021-02-20T15:26:15Z</time>
      </trkpt>
      <trkpt lat="45.18603" lon="5.9049">
        <ele>1203.6</ele>
        <time>2021-02-20T15:26:16Z</time>
      </trkpt>
      <trkpt lat="45.18603" lon="5.90488">
        <ele>1203.5</ele>
        <time>2021-02-20T15:26:17Z</time>
      </trkpt>
      <trkpt lat="45.18603" lon="5.90485">
        <ele>1203.3</ele>
        <time>2021-02-20T15:26:18Z</time>
      </trkpt>
      <trkpt lat="45.18603" lon="5.90481">
        <ele>1202.9</ele>
        <time>2021-02-20T15:26:19Z</time>
      </trkpt>
      <trkpt lat="45.18604" lon="5.90479">
        <ele>1202.8</ele>
        <time>2021-02-20T15:26:20Z</time>
      </trkpt>
      <trkpt lat="45.18603" lon="5.90474">
        <ele>1202.3</ele>
        <time>2021-02-20T15:26:21Z</time>
      </trkpt>
      <trkpt lat="45.18603" lon="5.90473">
        <ele>1202.2</ele>
        <time>2021-02-20T15:26:22Z</time>
      </trkpt>
      <trkpt lat="45.18602" lon="5.90471">
        <ele>1202</ele>
        <time>2021-02-20T15:26:23Z</time>
      </trkpt>
      <trkpt lat="45.18602" lon="5.9047">
        <ele>1201.9</ele>
        <time>2021-02-20T15:26:24Z</time>
      </trkpt>
      <trkpt lat="45.18602" lon="5.9047">
        <ele>1201.8</ele>
        <time>2021-02-20T15:26:25Z</time>
      </trkpt>
      <trkpt lat="45.18602" lon="5.90469">
        <ele>1201.8</ele>
        <time>2021-02-20T15:26:26Z</time>
      </trkpt>
      <trkpt lat="45.18601" lon="5.90467">
        <ele>1201.6</ele>
        <time>2021-02-20T15:26:27Z</time>
      </trkpt>
      <trkpt lat="45.18601" lon="5.90466">
        <ele>1201.5</ele>
        <time>2021-02-20T15:26:28Z</time>
      </trkpt>
      <trkpt lat="45.18601" lon="5.90465">
        <ele>1201.3</ele>
        <time>2021-02-20T15:26:29Z</time>
      </trkpt>
      <trkpt lat="45.18601" lon="5.90463">
        <ele>1201.2</ele>
        <time>2021-02-20T15:26:30Z</time>
      </trkpt>
      <trkpt lat="45.18601" lon="5.90462">
        <ele>1201.1</ele>
        <time>2021-02-20T15:26:31Z</time>
      </trkpt>
      <trkpt lat="45.18601" lon="5.9046">
        <ele>1200.9</ele>
        <time>2021-02-20T15:26:32Z</time>
      </trkpt>
      <trkpt lat="45.18601" lon="5.90458">
        <ele>1200.7</ele>
        <time>2021-02-20T15:26:33Z</time>
      </trkpt>
      <trkpt lat="45.18601" lon="5.90457">
        <ele>1200.6</ele>
        <time>2021-02-20T15:26:34Z</time>
      </trkpt>
      <trkpt lat="45.18601" lon="5.90455">
        <ele>1200.4</ele>
        <time>2021-02-20T15:26:35Z</time>
      </trkpt>
      <trkpt lat="45.18602" lon="5.90453">
        <ele>1200.1</ele>
        <time>2021-02-20T15:26:36Z</time>
      </trkpt>
      <trkpt lat="45.18602" lon="5.90451">
        <ele>1199.9</ele>
        <time>2021-02-20T15:26:37Z</time>
      </trkpt>
      <trkpt lat="45.18603" lon="5.90449">
        <ele>1199.6</ele>
        <time>2021-02-20T15:26:38Z</time>
      </trkpt>
      <trkpt lat="45.18604" lon="5.90448">
        <ele>1199.5</ele>
        <time>2021-02-20T15:26:39Z</time>
      </trkpt>
      <trkpt lat="45.18605" lon="5.90448">
        <ele>1199.3</ele>
        <time>2021-02-20T15:26:40Z</time>
      </trkpt>
      <trkpt lat="45.18606" lon="5.90447">
        <ele>1199.1</ele>
        <time>2021-02-20T15:26:41Z</time>
      </trkpt>
      <trkpt lat="45.18608" lon="5.90448">
        <ele>1198.8</ele>
        <time>2021-02-20T15:26:42Z</time>
      </trkpt>
      <trkpt lat="45.1861" lon="5.90448">
        <ele>1198.6</ele>
        <time>2021-02-20T15:26:43Z</time>
      </trkpt>
      <trkpt lat="45.18611" lon="5.90448">
        <ele>1198.3</ele>
        <time>2021-02-20T15:26:44Z</time>
      </trkpt>
      <trkpt lat="45.18613" lon="5.90446">
        <ele>1197.9</ele>
        <time>2021-02-20T15:26:45Z</time>
      </trkpt>
      <trkpt lat="45.18614" lon="5.90445">
        <ele>1197.8</ele>
        <time>2021-02-20T15:26:46Z</time>
      </trkpt>
      <trkpt lat="45.18615" lon="5.90445">
        <ele>1197.6</ele>
        <time>2021-02-20T15:26:47Z</time>
      </trkpt>
      <trkpt lat="45.18617" lon="5.90443">
        <ele>1197.3</ele>
        <time>2021-02-20T15:26:48Z</time>
      </trkpt>
      <trkpt lat="45.18617" lon="5.90443">
        <ele>1197.1</ele>
        <time>2021-02-20T15:26:49Z</time>
      </trkpt>
      <trkpt lat="45.18618" lon="5.90442">
        <ele>1197</ele>
        <time>2021-02-20T15:26:50Z</time>
      </trkpt>
      <trkpt lat="45.18619" lon="5.90442">
        <ele>1196.8</ele>
        <time>2021-02-20T15:26:51Z</time>
      </trkpt>
      <trkpt lat="45.1862" lon="5.90442">
        <ele>1196.7</ele>
        <time>2021-02-20T15:26:52Z</time>
      </trkpt>
      <trkpt lat="45.18621" lon="5.90442">
        <ele>1196.4</ele>
        <time>2021-02-20T15:26:53Z</time>
      </trkpt>
      <trkpt lat="45.18622" lon="5.90441">
        <ele>1196</ele>
        <time>2021-02-20T15:26:54Z</time>
      </trkpt>
      <trkpt lat="45.18624" lon="5.90441">
        <ele>1195.6</ele>
        <time>2021-02-20T15:26:55Z</time>
      </trkpt>
      <trkpt lat="45.18625" lon="5.90439">
        <ele>1195.2</ele>
        <time>2021-02-20T15:26:56Z</time>
      </trkpt>
      <trkpt lat="45.18626" lon="5.90438">
        <ele>1194.8</ele>
        <time>2021-02-20T15:26:57Z</time>
      </trkpt>
      <trkpt lat="45.18626" lon="5.90437">
        <ele>1194.5</ele>
        <time>2021-02-20T15:26:58Z</time>
      </trkpt>
      <trkpt lat="45.18627" lon="5.90436">
        <ele>1194.3</ele>
        <time>2021-02-20T15:26:59Z</time>
      </trkpt>
      <trkpt lat="45.18628" lon="5.90436">
        <ele>1194.1</ele>
        <time>2021-02-20T15:27:00Z</time>
      </trkpt>
      <trkpt lat="45.18628" lon="5.90436">
        <ele>1193.9</ele>
        <time>2021-02-20T15:27:01Z</time>
      </trkpt>
      <trkpt lat="45.18629" lon="5.90435">
        <ele>1193.8</ele>
        <time>2021-02-20T15:27:02Z</time>
      </trkpt>
      <trkpt lat="45.1863" lon="5.90434">
        <ele>1193.4</ele>
        <time>2021-02-20T15:27:03Z</time>
      </trkpt>
      <trkpt lat="45.18631" lon="5.90432">
        <ele>1193</ele>
        <time>2021-02-20T15:27:04Z</time>
      </trkpt>
      <trkpt lat="45.18631" lon="5.9043">
        <ele>1192.6</ele>
        <time>2021-02-20T15:27:05Z</time>
      </trkpt>
      <trkpt lat="45.18632" lon="5.90428">
        <ele>1192.2</ele>
        <time>2021-02-20T15:27:06Z</time>
      </trkpt>
      <trkpt lat="45.18633" lon="5.90425">
        <ele>1191.6</ele>
        <time>2021-02-20T15:27:07Z</time>
      </trkpt>
      <trkpt lat="45.18633" lon="5.90424">
        <ele>1191.4</ele>
        <time>2021-02-20T15:27:08Z</time>
      </trkpt>
      <trkpt lat="45.18634" lon="5.90423">
        <ele>1191.1</ele>
        <time>2021-02-20T15:27:09Z</time>
      </trkpt>
      <trkpt lat="45.18634" lon="5.9042">
        <ele>1190.8</ele>
        <time>2021-02-20T15:27:10Z</time>
      </trkpt>
      <trkpt lat="45.18634" lon="5.90418">
        <ele>1190.4</ele>
        <time>2021-02-20T15:27:11Z</time>
      </trkpt>
      <trkpt lat="45.18635" lon="5.90417">
        <ele>1190.2</ele>
        <time>2021-02-20T15:27:12Z</time>
      </trkpt>
      <trkpt lat="45.18635" lon="5.90416">
        <ele>1190</ele>
        <time>2021-02-20T15:27:13Z</time>
      </trkpt>
      <trkpt lat="45.18635" lon="5.90413">
        <ele>1189.6</ele>
        <time>2021-02-20T15:27:14Z</time>
      </trkpt>
      <trkpt lat="45.18635" lon="5.90412">
        <ele>1189.4</ele>
        <time>2021-02-20T15:27:15Z</time>
      </trkpt>
      <trkpt lat="45.18635" lon="5.9041">
        <ele>1189.2</ele>
        <time>2021-02-20T15:27:16Z</time>
      </trkpt>
      <trkpt lat="45.18635" lon="5.90409">
        <ele>1189</ele>
        <time>2021-02-20T15:27:17Z</time>
      </trkpt>
      <trkpt lat="45.18635" lon="5.90408">
        <ele>1188.8</ele>
        <time>2021-02-20T15:27:18Z</time>
      </trkpt>
      <trkpt lat="45.18635" lon="5.90406">
        <ele>1188.6</ele>
        <time>2021-02-20T15:27:19Z</time>
      </trkpt>
      <trkpt lat="45.18635" lon="5.90405">
        <ele>1188.4</ele>
        <time>2021-02-20T15:27:20Z</time>
      </trkpt>
      <trkpt lat="45.18635" lon="5.90403">
        <ele>1188.1</ele>
        <time>2021-02-20T15:27:21Z</time>
      </trkpt>
      <trkpt lat="45.18635" lon="5.904">
        <ele>1187.8</ele>
        <time>2021-02-20T15:27:22Z</time>
      </trkpt>
      <trkpt lat="45.18635" lon="5.90398">
        <ele>1187.5</ele>
        <time>2021-02-20T15:27:23Z</time>
      </trkpt>
      <trkpt lat="45.18636" lon="5.90396">
        <ele>1187.2</ele>
        <time>2021-02-20T15:27:24Z</time>
      </trkpt>
      <trkpt lat="45.18637" lon="5.90393">
        <ele>1186.8</ele>
        <time>2021-02-20T15:27:25Z</time>
      </trkpt>
      <trkpt lat="45.18637" lon="5.90392">
        <ele>1186.6</ele>
        <time>2021-02-20T15:27:26Z</time>
      </trkpt>
      <trkpt lat="45.18638" lon="5.90391">
        <ele>1186.4</ele>
        <time>2021-02-20T15:27:27Z</time>
      </trkpt>
      <trkpt lat="45.18639" lon="5.90389">
        <ele>1186.1</ele>
        <time>2021-02-20T15:27:28Z</time>
      </trkpt>
      <trkpt lat="45.1864" lon="5.90388">
        <ele>1185.9</ele>
        <time>2021-02-20T15:27:29Z</time>
      </trkpt>
      <trkpt lat="45.18641" lon="5.90386">
        <ele>1185.7</ele>
        <time>2021-02-20T15:27:30Z</time>
      </trkpt>
      <trkpt lat="45.18641" lon="5.90385">
        <ele>1185.5</ele>
        <time>2021-02-20T15:27:31Z</time>
      </trkpt>
      <trkpt lat="45.18641" lon="5.90383">
        <ele>1185.2</ele>
        <time>2021-02-20T15:27:32Z</time>
      </trkpt>
      <trkpt lat="45.1864" lon="5.90381">
        <ele>1185</ele>
        <time>2021-02-20T15:27:33Z</time>
      </trkpt>
      <trkpt lat="45.18639" lon="5.9038">
        <ele>1184.8</ele>
        <time>2021-02-20T15:27:34Z</time>
      </trkpt>
      <trkpt lat="45.18639" lon="5.90379">
        <ele>1184.6</ele>
        <time>2021-02-20T15:27:35Z</time>
      </trkpt>
      <trkpt lat="45.18638" lon="5.90378">
        <ele>1184.5</ele>
        <time>2021-02-20T15:27:36Z</time>
      </trkpt>
      <trkpt lat="45.18638" lon="5.90377">
        <ele>1184.3</ele>
        <time>2021-02-20T15:27:37Z</time>
      </trkpt>
      <trkpt lat="45.18639" lon="5.90376">
        <ele>1184.1</ele>
        <time>2021-02-20T15:27:38Z</time>
      </trkpt>
      <trkpt lat="45.18639" lon="5.90374">
        <ele>1183.9</ele>
        <time>2021-02-20T15:27:39Z</time>
      </trkpt>
      <trkpt lat="45.18641" lon="5.90372">
        <ele>1183.5</ele>
        <time>2021-02-20T15:27:40Z</time>
      </trkpt>
      <trkpt lat="45.18642" lon="5.9037">
        <ele>1183.2</ele>
        <time>2021-02-20T15:27:41Z</time>
      </trkpt>
      <trkpt lat="45.18643" lon="5.90369">
        <ele>1182.9</ele>
        <time>2021-02-20T15:27:42Z</time>
      </trkpt>
      <trkpt lat="45.18644" lon="5.90368">
        <ele>1182.6</ele>
        <time>2021-02-20T15:27:43Z</time>
      </trkpt>
      <trkpt lat="45.18644" lon="5.90366">
        <ele>1182.4</ele>
        <time>2021-02-20T15:27:44Z</time>
      </trkpt>
      <trkpt lat="45.18645" lon="5.90364">
        <ele>1182.1</ele>
        <time>2021-02-20T15:27:45Z</time>
      </trkpt>
      <trkpt lat="45.18646" lon="5.90361">
        <ele>1181.7</ele>
        <time>2021-02-20T15:27:46Z</time>
      </trkpt>
      <trkpt lat="45.18647" lon="5.9036">
        <ele>1181.5</ele>
        <time>2021-02-20T15:27:47Z</time>
      </trkpt>
      <trkpt lat="45.18647" lon="5.90359">
        <ele>1181.3</ele>
        <time>2021-02-20T15:27:48Z</time>
      </trkpt>
      <trkpt lat="45.18648" lon="5.90357">
        <ele>1181</ele>
        <time>2021-02-20T15:27:49Z</time>
      </trkpt>
      <trkpt lat="45.18649" lon="5.90355">
        <ele>1180.6</ele>
        <time>2021-02-20T15:27:50Z</time>
      </trkpt>
      <trkpt lat="45.18649" lon="5.90353">
        <ele>1180.3</ele>
        <time>2021-02-20T15:27:51Z</time>
      </trkpt>
      <trkpt lat="45.18649" lon="5.90352">
        <ele>1180.1</ele>
        <time>2021-02-20T15:27:52Z</time>
      </trkpt>
      <trkpt lat="45.1865" lon="5.9035">
        <ele>1179.9</ele>
        <time>2021-02-20T15:27:53Z</time>
      </trkpt>
      <trkpt lat="45.1865" lon="5.90348">
        <ele>1179.6</ele>
        <time>2021-02-20T15:27:54Z</time>
      </trkpt>
      <trkpt lat="45.18651" lon="5.90346">
        <ele>1179.2</ele>
        <time>2021-02-20T15:27:55Z</time>
      </trkpt>
      <trkpt lat="45.18652" lon="5.90344">
        <ele>1178.9</ele>
        <time>2021-02-20T15:27:56Z</time>
      </trkpt>
      <trkpt lat="45.18653" lon="5.90343">
        <ele>1178.6</ele>
        <time>2021-02-20T15:27:57Z</time>
      </trkpt>
      <trkpt lat="45.18654" lon="5.90341">
        <ele>1178.2</ele>
        <time>2021-02-20T15:27:58Z</time>
      </trkpt>
      <trkpt lat="45.18655" lon="5.9034">
        <ele>1178.1</ele>
        <time>2021-02-20T15:27:59Z</time>
      </trkpt>
      <trkpt lat="45.18655" lon="5.90339">
        <ele>1177.9</ele>
        <time>2021-02-20T15:28:00Z</time>
      </trkpt>
      <trkpt lat="45.18657" lon="5.90337">
        <ele>1177.5</ele>
        <time>2021-02-20T15:28:01Z</time>
      </trkpt>
      <trkpt lat="45.18658" lon="5.90336">
        <ele>1177.2</ele>
        <time>2021-02-20T15:28:02Z</time>
      </trkpt>
      <trkpt lat="45.18659" lon="5.90336">
        <ele>1177.1</ele>
        <time>2021-02-20T15:28:03Z</time>
      </trkpt>
      <trkpt lat="45.18659" lon="5.90334">
        <ele>1176.8</ele>
        <time>2021-02-20T15:28:04Z</time>
      </trkpt>
      <trkpt lat="45.18659" lon="5.90333">
        <ele>1176.6</ele>
        <time>2021-02-20T15:28:05Z</time>
      </trkpt>
      <trkpt lat="45.18659" lon="5.90331">
        <ele>1176.4</ele>
        <time>2021-02-20T15:28:06Z</time>
      </trkpt>
      <trkpt lat="45.18659" lon="5.90329">
        <ele>1176.1</ele>
        <time>2021-02-20T15:28:07Z</time>
      </trkpt>
      <trkpt lat="45.18658" lon="5.90327">
        <ele>1175.8</ele>
        <time>2021-02-20T15:28:08Z</time>
      </trkpt>
      <trkpt lat="45.18657" lon="5.90326">
        <ele>1175.6</ele>
        <time>2021-02-20T15:28:09Z</time>
      </trkpt>
      <trkpt lat="45.18657" lon="5.90324">
        <ele>1175.4</ele>
        <time>2021-02-20T15:28:10Z</time>
      </trkpt>
      <trkpt lat="45.18657" lon="5.90322">
        <ele>1175.1</ele>
        <time>2021-02-20T15:28:11Z</time>
      </trkpt>
      <trkpt lat="45.18657" lon="5.90319">
        <ele>1174.8</ele>
        <time>2021-02-20T15:28:12Z</time>
      </trkpt>
      <trkpt lat="45.18657" lon="5.90318">
        <ele>1174.6</ele>
        <time>2021-02-20T15:28:13Z</time>
      </trkpt>
      <trkpt lat="45.18657" lon="5.90317">
        <ele>1174.5</ele>
        <time>2021-02-20T15:28:14Z</time>
      </trkpt>
      <trkpt lat="45.18658" lon="5.90314">
        <ele>1174.1</ele>
        <time>2021-02-20T15:28:15Z</time>
      </trkpt>
      <trkpt lat="45.18658" lon="5.90313">
        <ele>1174</ele>
        <time>2021-02-20T15:28:16Z</time>
      </trkpt>
      <trkpt lat="45.18658" lon="5.90312">
        <ele>1173.8</ele>
        <time>2021-02-20T15:28:17Z</time>
      </trkpt>
      <trkpt lat="45.18658" lon="5.90309">
        <ele>1173.5</ele>
        <time>2021-02-20T15:28:18Z</time>
      </trkpt>
      <trkpt lat="45.18658" lon="5.90307">
        <ele>1173.3</ele>
        <time>2021-02-20T15:28:19Z</time>
      </trkpt>
      <trkpt lat="45.18658" lon="5.90306">
        <ele>1173.2</ele>
        <time>2021-02-20T15:28:20Z</time>
      </trkpt>
      <trkpt lat="45.18659" lon="5.90302">
        <ele>1172.8</ele>
        <time>2021-02-20T15:28:21Z</time>
      </trkpt>
      <trkpt lat="45.18659" lon="5.90301">
        <ele>1172.6</ele>
        <time>2021-02-20T15:28:22Z</time>
      </trkpt>
      <trkpt lat="45.1866" lon="5.90299">
        <ele>1172.4</ele>
        <time>2021-02-20T15:28:23Z</time>
      </trkpt>
      <trkpt lat="45.1866" lon="5.90297">
        <ele>1172.2</ele>
        <time>2021-02-20T15:28:24Z</time>
      </trkpt>
      <trkpt lat="45.18662" lon="5.90294">
        <ele>1171.7</ele>
        <time>2021-02-20T15:28:25Z</time>
      </trkpt>
      <trkpt lat="45.18663" lon="5.90292">
        <ele>1171.6</ele>
        <time>2021-02-20T15:28:26Z</time>
      </trkpt>
      <trkpt lat="45.18663" lon="5.90291">
        <ele>1171.4</ele>
        <time>2021-02-20T15:28:27Z</time>
      </trkpt>
      <trkpt lat="45.18664" lon="5.90289">
        <ele>1171.2</ele>
        <time>2021-02-20T15:28:28Z</time>
      </trkpt>
      <trkpt lat="45.18664" lon="5.90288">
        <ele>1171.1</ele>
        <time>2021-02-20T15:28:29Z</time>
      </trkpt>
      <trkpt lat="45.18664" lon="5.90285">
        <ele>1170.8</ele>
        <time>2021-02-20T15:28:30Z</time>
      </trkpt>
      <trkpt lat="45.18665" lon="5.90284">
        <ele>1170.7</ele>
        <time>2021-02-20T15:28:31Z</time>
      </trkpt>
      <trkpt lat="45.18665" lon="5.90282">
        <ele>1170.5</ele>
        <time>2021-02-20T15:28:32Z</time>
      </trkpt>
      <trkpt lat="45.18666" lon="5.9028">
        <ele>1170.3</ele>
        <time>2021-02-20T15:28:33Z</time>
      </trkpt>
      <trkpt lat="45.18667" lon="5.90279">
        <ele>1170</ele>
        <time>2021-02-20T15:28:34Z</time>
      </trkpt>
      <trkpt lat="45.18668" lon="5.90277">
        <ele>1169.8</ele>
        <time>2021-02-20T15:28:35Z</time>
      </trkpt>
      <trkpt lat="45.18669" lon="5.90276">
        <ele>1169.6</ele>
        <time>2021-02-20T15:28:36Z</time>
      </trkpt>
      <trkpt lat="45.1867" lon="5.90275">
        <ele>1169.5</ele>
        <time>2021-02-20T15:28:37Z</time>
      </trkpt>
      <trkpt lat="45.1867" lon="5.90273">
        <ele>1169.3</ele>
        <time>2021-02-20T15:28:38Z</time>
      </trkpt>
      <trkpt lat="45.1867" lon="5.90271">
        <ele>1169.1</ele>
        <time>2021-02-20T15:28:39Z</time>
      </trkpt>
      <trkpt lat="45.18669" lon="5.90267">
        <ele>1168.7</ele>
        <time>2021-02-20T15:28:40Z</time>
      </trkpt>
      <trkpt lat="45.18669" lon="5.90266">
        <ele>1168.7</ele>
        <time>2021-02-20T15:28:41Z</time>
      </trkpt>
      <trkpt lat="45.18667" lon="5.90262">
        <ele>1168.2</ele>
        <time>2021-02-20T15:28:42Z</time>
      </trkpt>
      <trkpt lat="45.18667" lon="5.90261">
        <ele>1168.1</ele>
        <time>2021-02-20T15:28:43Z</time>
      </trkpt>
      <trkpt lat="45.18666" lon="5.90258">
        <ele>1167.8</ele>
        <time>2021-02-20T15:28:44Z</time>
      </trkpt>
      <trkpt lat="45.18666" lon="5.90256">
        <ele>1167.5</ele>
        <time>2021-02-20T15:28:45Z</time>
      </trkpt>
      <trkpt lat="45.18665" lon="5.90253">
        <ele>1167.2</ele>
        <time>2021-02-20T15:28:46Z</time>
      </trkpt>
      <trkpt lat="45.18665" lon="5.90252">
        <ele>1167.1</ele>
        <time>2021-02-20T15:28:47Z</time>
      </trkpt>
      <trkpt lat="45.18664" lon="5.90251">
        <ele>1166.9</ele>
        <time>2021-02-20T15:28:48Z</time>
      </trkpt>
      <trkpt lat="45.18664" lon="5.90249">
        <ele>1166.7</ele>
        <time>2021-02-20T15:28:49Z</time>
      </trkpt>
      <trkpt lat="45.18663" lon="5.90247">
        <ele>1166.5</ele>
        <time>2021-02-20T15:28:50Z</time>
      </trkpt>
      <trkpt lat="45.18663" lon="5.90243">
        <ele>1166.1</ele>
        <time>2021-02-20T15:28:51Z</time>
      </trkpt>
      <trkpt lat="45.18663" lon="5.90242">
        <ele>1165.9</ele>
        <time>2021-02-20T15:28:52Z</time>
      </trkpt>
      <trkpt lat="45.18662" lon="5.90237">
        <ele>1165.5</ele>
        <time>2021-02-20T15:28:53Z</time>
      </trkpt>
      <trkpt lat="45.18661" lon="5.90236">
        <ele>1165.4</ele>
        <time>2021-02-20T15:28:54Z</time>
      </trkpt>
      <trkpt lat="45.18661" lon="5.90234">
        <ele>1165.1</ele>
        <time>2021-02-20T15:28:55Z</time>
      </trkpt>
      <trkpt lat="45.1866" lon="5.90231">
        <ele>1164.9</ele>
        <time>2021-02-20T15:28:56Z</time>
      </trkpt>
      <trkpt lat="45.1866" lon="5.90229">
        <ele>1164.7</ele>
        <time>2021-02-20T15:28:57Z</time>
      </trkpt>
      <trkpt lat="45.18659" lon="5.90227">
        <ele>1164.5</ele>
        <time>2021-02-20T15:28:58Z</time>
      </trkpt>
      <trkpt lat="45.18659" lon="5.90225">
        <ele>1164.3</ele>
        <time>2021-02-20T15:28:59Z</time>
      </trkpt>
      <trkpt lat="45.18658" lon="5.90223">
        <ele>1164.1</ele>
        <time>2021-02-20T15:29:00Z</time>
      </trkpt>
      <trkpt lat="45.18658" lon="5.9022">
        <ele>1163.8</ele>
        <time>2021-02-20T15:29:01Z</time>
      </trkpt>
      <trkpt lat="45.18657" lon="5.90218">
        <ele>1163.6</ele>
        <time>2021-02-20T15:29:02Z</time>
      </trkpt>
      <trkpt lat="45.18657" lon="5.90216">
        <ele>1163.4</ele>
        <time>2021-02-20T15:29:03Z</time>
      </trkpt>
      <trkpt lat="45.18656" lon="5.90214">
        <ele>1163.2</ele>
        <time>2021-02-20T15:29:04Z</time>
      </trkpt>
      <trkpt lat="45.18655" lon="5.90212">
        <ele>1163</ele>
        <time>2021-02-20T15:29:05Z</time>
      </trkpt>
      <trkpt lat="45.18654" lon="5.9021">
        <ele>1162.8</ele>
        <time>2021-02-20T15:29:06Z</time>
      </trkpt>
      <trkpt lat="45.18654" lon="5.90209">
        <ele>1162.7</ele>
        <time>2021-02-20T15:29:07Z</time>
      </trkpt>
      <trkpt lat="45.18654" lon="5.90207">
        <ele>1162.5</ele>
        <time>2021-02-20T15:29:08Z</time>
      </trkpt>
      <trkpt lat="45.18653" lon="5.90205">
        <ele>1162.4</ele>
        <time>2021-02-20T15:29:09Z</time>
      </trkpt>
      <trkpt lat="45.18653" lon="5.90204">
        <ele>1162.3</ele>
        <time>2021-02-20T15:29:10Z</time>
      </trkpt>
      <trkpt lat="45.18653" lon="5.90202">
        <ele>1162.2</ele>
        <time>2021-02-20T15:29:11Z</time>
      </trkpt>
      <trkpt lat="45.18653" lon="5.902">
        <ele>1162</ele>
        <time>2021-02-20T15:29:12Z</time>
      </trkpt>
      <trkpt lat="45.18652" lon="5.90196">
        <ele>1161.7</ele>
        <time>2021-02-20T15:29:13Z</time>
      </trkpt>
      <trkpt lat="45.18652" lon="5.90195">
        <ele>1161.6</ele>
        <time>2021-02-20T15:29:14Z</time>
      </trkpt>
      <trkpt lat="45.18651" lon="5.90193">
        <ele>1161.4</ele>
        <time>2021-02-20T15:29:15Z</time>
      </trkpt>
      <trkpt lat="45.1865" lon="5.90191">
        <ele>1161.2</ele>
        <time>2021-02-20T15:29:16Z</time>
      </trkpt>
      <trkpt lat="45.1865" lon="5.90189">
        <ele>1161.1</ele>
        <time>2021-02-20T15:29:17Z</time>
      </trkpt>
      <trkpt lat="45.18649" lon="5.90187">
        <ele>1160.9</ele>
        <time>2021-02-20T15:29:18Z</time>
      </trkpt>
      <trkpt lat="45.18649" lon="5.90186">
        <ele>1160.8</ele>
        <time>2021-02-20T15:29:19Z</time>
      </trkpt>
      <trkpt lat="45.18648" lon="5.90185">
        <ele>1160.8</ele>
        <time>2021-02-20T15:29:20Z</time>
      </trkpt>
      <trkpt lat="45.18648" lon="5.90184">
        <ele>1160.6</ele>
        <time>2021-02-20T15:29:21Z</time>
      </trkpt>
      <trkpt lat="45.18647" lon="5.90182">
        <ele>1160.5</ele>
        <time>2021-02-20T15:29:22Z</time>
      </trkpt>
      <trkpt lat="45.18646" lon="5.9018">
        <ele>1160.3</ele>
        <time>2021-02-20T15:29:23Z</time>
      </trkpt>
      <trkpt lat="45.18646" lon="5.90177">
        <ele>1160.1</ele>
        <time>2021-02-20T15:29:24Z</time>
      </trkpt>
      <trkpt lat="45.18645" lon="5.90175">
        <ele>1160</ele>
        <time>2021-02-20T15:29:25Z</time>
      </trkpt>
      <trkpt lat="45.18645" lon="5.90173">
        <ele>1159.9</ele>
        <time>2021-02-20T15:29:26Z</time>
      </trkpt>
      <trkpt lat="45.18645" lon="5.90171">
        <ele>1159.7</ele>
        <time>2021-02-20T15:29:27Z</time>
      </trkpt>
      <trkpt lat="45.18644" lon="5.90169">
        <ele>1159.6</ele>
        <time>2021-02-20T15:29:28Z</time>
      </trkpt>
      <trkpt lat="45.18644" lon="5.90168">
        <ele>1159.4</ele>
        <time>2021-02-20T15:29:29Z</time>
      </trkpt>
      <trkpt lat="45.18644" lon="5.90167">
        <ele>1159.4</ele>
        <time>2021-02-20T15:29:30Z</time>
      </trkpt>
      <trkpt lat="45.18644" lon="5.90166">
        <ele>1159.3</ele>
        <time>2021-02-20T15:29:31Z</time>
      </trkpt>
      <trkpt lat="45.18644" lon="5.90164">
        <ele>1159.2</ele>
        <time>2021-02-20T15:29:32Z</time>
      </trkpt>
      <trkpt lat="45.18644" lon="5.90163">
        <ele>1159.1</ele>
        <time>2021-02-20T15:29:33Z</time>
      </trkpt>
      <trkpt lat="45.18644" lon="5.90161">
        <ele>1159</ele>
        <time>2021-02-20T15:29:34Z</time>
      </trkpt>
      <trkpt lat="45.18644" lon="5.90158">
        <ele>1158.8</ele>
        <time>2021-02-20T15:29:35Z</time>
      </trkpt>
      <trkpt lat="45.18643" lon="5.90156">
        <ele>1158.6</ele>
        <time>2021-02-20T15:29:36Z</time>
      </trkpt>
      <trkpt lat="45.18643" lon="5.90154">
        <ele>1158.5</ele>
        <time>2021-02-20T15:29:37Z</time>
      </trkpt>
      <trkpt lat="45.18643" lon="5.90152">
        <ele>1158.3</ele>
        <time>2021-02-20T15:29:38Z</time>
      </trkpt>
      <trkpt lat="45.18643" lon="5.9015">
        <ele>1158.2</ele>
        <time>2021-02-20T15:29:39Z</time>
      </trkpt>
      <trkpt lat="45.18642" lon="5.90146">
        <ele>1157.9</ele>
        <time>2021-02-20T15:29:40Z</time>
      </trkpt>
      <trkpt lat="45.18642" lon="5.90145">
        <ele>1157.8</ele>
        <time>2021-02-20T15:29:41Z</time>
      </trkpt>
      <trkpt lat="45.18642" lon="5.90143">
        <ele>1157.7</ele>
        <time>2021-02-20T15:29:42Z</time>
      </trkpt>
      <trkpt lat="45.18642" lon="5.90142">
        <ele>1157.6</ele>
        <time>2021-02-20T15:29:43Z</time>
      </trkpt>
      <trkpt lat="45.18642" lon="5.9014">
        <ele>1157.5</ele>
        <time>2021-02-20T15:29:44Z</time>
      </trkpt>
      <trkpt lat="45.18642" lon="5.90139">
        <ele>1157.4</ele>
        <time>2021-02-20T15:29:45Z</time>
      </trkpt>
      <trkpt lat="45.18642" lon="5.90137">
        <ele>1157.3</ele>
        <time>2021-02-20T15:29:46Z</time>
      </trkpt>
      <trkpt lat="45.18641" lon="5.90136">
        <ele>1157.2</ele>
        <time>2021-02-20T15:29:47Z</time>
      </trkpt>
      <trkpt lat="45.18641" lon="5.90134">
        <ele>1157.1</ele>
        <time>2021-02-20T15:29:48Z</time>
      </trkpt>
      <trkpt lat="45.18641" lon="5.90131">
        <ele>1156.9</ele>
        <time>2021-02-20T15:29:49Z</time>
      </trkpt>
      <trkpt lat="45.18641" lon="5.90129">
        <ele>1156.7</ele>
        <time>2021-02-20T15:29:50Z</time>
      </trkpt>
      <trkpt lat="45.18641" lon="5.90127">
        <ele>1156.6</ele>
        <time>2021-02-20T15:29:51Z</time>
      </trkpt>
      <trkpt lat="45.18641" lon="5.90125">
        <ele>1156.4</ele>
        <time>2021-02-20T15:29:52Z</time>
      </trkpt>
      <trkpt lat="45.18641" lon="5.90123">
        <ele>1156.3</ele>
        <time>2021-02-20T15:29:53Z</time>
      </trkpt>
      <trkpt lat="45.18641" lon="5.90122">
        <ele>1156.2</ele>
        <time>2021-02-20T15:29:54Z</time>
      </trkpt>
      <trkpt lat="45.18641" lon="5.90121">
        <ele>1156</ele>
        <time>2021-02-20T15:29:55Z</time>
      </trkpt>
      <trkpt lat="45.18641" lon="5.90119">
        <ele>1155.8</ele>
        <time>2021-02-20T15:29:56Z</time>
      </trkpt>
      <trkpt lat="45.18642" lon="5.90117">
        <ele>1155.6</ele>
        <time>2021-02-20T15:29:57Z</time>
      </trkpt>
      <trkpt lat="45.18642" lon="5.90116">
        <ele>1155.5</ele>
        <time>2021-02-20T15:29:58Z</time>
      </trkpt>
      <trkpt lat="45.18643" lon="5.90115">
        <ele>1155.4</ele>
        <time>2021-02-20T15:29:59Z</time>
      </trkpt>
      <trkpt lat="45.18643" lon="5.90113">
        <ele>1155.2</ele>
        <time>2021-02-20T15:30:00Z</time>
      </trkpt>
      <trkpt lat="45.18643" lon="5.90111">
        <ele>1155</ele>
        <time>2021-02-20T15:30:01Z</time>
      </trkpt>
      <trkpt lat="45.18642" lon="5.90108">
        <ele>1154.8</ele>
        <time>2021-02-20T15:30:02Z</time>
      </trkpt>
    </trkseg>
  </trk>
</gpx>